<?xml version="1.0" encoding="UTF-8"?>
<gpx version="1.1" creator="Apple Health Export" xmlns="http://www.topografix.com/GPX/1/1" xmlns:xsi="http://www.w3.org/2001/XMLSchema-instance" xsi:schemaLocation="http://www.topografix.com/GPX/1/1 http://www.topografix.com/GPX/1/1/gpx.xsd">
  <metadata>
    <time>2022-04-11T14:57:43Z</time>
  </metadata>
  <trk>
    <name>Route 2022-01-15 1:58pm</name>
    <trkseg>
      <trkpt lon="-3.035247" lat="52.705474"><ele>141.460800</ele><time>2022-01-15T09:18:56Z</time><extensions><speed>0.143038</speed><course>142.375458</course><hAcc>2.490422</hAcc><vAcc>1.502922</vAcc></extensions></trkpt>
      <trkpt lon="-3.035246" lat="52.705473"><ele>141.379654</ele><time>2022-01-15T09:18:57Z</time><extensions><speed>0.176293</speed><course>142.992661</course><hAcc>2.176772</hAcc><vAcc>1.355108</vAcc></extensions></trkpt>
      <trkpt lon="-3.035244" lat="52.705471"><ele>141.290741</ele><time>2022-01-15T09:18:58Z</time><extensions><speed>0.266733</speed><course>143.665894</course><hAcc>1.952968</hAcc><vAcc>1.201216</vAcc></extensions></trkpt>
      <trkpt lon="-3.035241" lat="52.705469"><ele>141.211472</ele><time>2022-01-15T09:18:59Z</time><extensions><speed>0.366306</speed><course>144.592972</course><hAcc>1.838829</hAcc><vAcc>1.082350</vAcc></extensions></trkpt>
      <trkpt lon="-3.035238" lat="52.705466"><ele>141.140121</ele><time>2022-01-15T09:19:00Z</time><extensions><speed>0.446271</speed><course>146.775360</course><hAcc>1.781803</hAcc><vAcc>0.993119</vAcc></extensions></trkpt>
      <trkpt lon="-3.035235" lat="52.705462"><ele>141.074677</ele><time>2022-01-15T09:19:01Z</time><extensions><speed>0.470286</speed><course>151.116013</course><hAcc>1.744771</hAcc><vAcc>0.928225</vAcc></extensions></trkpt>
      <trkpt lon="-3.035232" lat="52.705459"><ele>141.037033</ele><time>2022-01-15T09:19:02Z</time><extensions><speed>0.397089</speed><course>158.623169</course><hAcc>1.728620</hAcc><vAcc>0.882570</vAcc></extensions></trkpt>
      <trkpt lon="-3.035231" lat="52.705456"><ele>140.995590</ele><time>2022-01-15T09:19:03Z</time><extensions><speed>0.306839</speed><course>168.858063</course><hAcc>1.725073</hAcc><vAcc>0.851504</vAcc></extensions></trkpt>
      <trkpt lon="-3.035230" lat="52.705453"><ele>140.959656</ele><time>2022-01-15T09:19:04Z</time><extensions><speed>0.257875</speed><course>180.971573</course><hAcc>1.727643</hAcc><vAcc>0.831005</vAcc></extensions></trkpt>
      <trkpt lon="-3.035231" lat="52.705451"><ele>140.926086</ele><time>2022-01-15T09:19:05Z</time><extensions><speed>0.172664</speed><course>194.649139</course><hAcc>1.756657</hAcc><vAcc>0.817890</vAcc></extensions></trkpt>
      <trkpt lon="-3.035232" lat="52.705450"><ele>140.906464</ele><time>2022-01-15T09:19:06Z</time><extensions><speed>0.216595</speed><course>207.618561</course><hAcc>1.728797</hAcc><vAcc>0.809748</vAcc></extensions></trkpt>
      <trkpt lon="-3.035234" lat="52.705448"><ele>140.891617</ele><time>2022-01-15T09:19:07Z</time><extensions><speed>0.233887</speed><course>217.898911</course><hAcc>1.724382</hAcc><vAcc>0.804758</vAcc></extensions></trkpt>
      <trkpt lon="-3.035236" lat="52.705446"><ele>140.876923</ele><time>2022-01-15T09:19:08Z</time><extensions><speed>0.263281</speed><course>226.984726</course><hAcc>1.737790</hAcc><vAcc>0.801683</vAcc></extensions></trkpt>
      <trkpt lon="-3.035240" lat="52.705445"><ele>140.902100</ele><time>2022-01-15T09:19:09Z</time><extensions><speed>0.304755</speed><course>234.007172</course><hAcc>1.748354</hAcc><vAcc>0.799544</vAcc></extensions></trkpt>
      <trkpt lon="-3.035244" lat="52.705443"><ele>140.899109</ele><time>2022-01-15T09:19:10Z</time><extensions><speed>0.357662</speed><course>238.985291</course><hAcc>1.742917</hAcc><vAcc>0.797953</vAcc></extensions></trkpt>
      <trkpt lon="-3.035249" lat="52.705442"><ele>140.899643</ele><time>2022-01-15T09:19:11Z</time><extensions><speed>0.368814</speed><course>243.258514</course><hAcc>1.744770</hAcc><vAcc>0.796639</vAcc></extensions></trkpt>
      <trkpt lon="-3.035253" lat="52.705440"><ele>140.897629</ele><time>2022-01-15T09:19:12Z</time><extensions><speed>0.339841</speed><course>247.757248</course><hAcc>1.758396</hAcc><vAcc>0.795430</vAcc></extensions></trkpt>
      <trkpt lon="-3.035258" lat="52.705439"><ele>140.892426</ele><time>2022-01-15T09:19:13Z</time><extensions><speed>0.326566</speed><course>252.887039</course><hAcc>1.766343</hAcc><vAcc>0.794234</vAcc></extensions></trkpt>
      <trkpt lon="-3.035262" lat="52.705439"><ele>140.895309</ele><time>2022-01-15T09:19:14Z</time><extensions><speed>0.279944</speed><course>259.603302</course><hAcc>1.780551</hAcc><vAcc>0.793016</vAcc></extensions></trkpt>
      <trkpt lon="-3.035267" lat="52.705438"><ele>140.893661</ele><time>2022-01-15T09:19:15Z</time><extensions><speed>0.312532</speed><course>266.049530</course><hAcc>1.763039</hAcc><vAcc>0.791833</vAcc></extensions></trkpt>
      <trkpt lon="-3.035272" lat="52.705438"><ele>140.891159</ele><time>2022-01-15T09:19:16Z</time><extensions><speed>0.314731</speed><course>270.046021</course><hAcc>1.759901</hAcc><vAcc>0.790687</vAcc></extensions></trkpt>
      <trkpt lon="-3.035276" lat="52.705438"><ele>140.887390</ele><time>2022-01-15T09:19:17Z</time><extensions><speed>0.312402</speed><course>273.425995</course><hAcc>1.767527</hAcc><vAcc>0.789622</vAcc></extensions></trkpt>
      <trkpt lon="-3.035281" lat="52.705439"><ele>140.882538</ele><time>2022-01-15T09:19:18Z</time><extensions><speed>0.307024</speed><course>277.309082</course><hAcc>1.777061</hAcc><vAcc>0.788720</vAcc></extensions></trkpt>
      <trkpt lon="-3.035285" lat="52.705439"><ele>140.884949</ele><time>2022-01-15T09:19:19Z</time><extensions><speed>0.293578</speed><course>281.639496</course><hAcc>1.788463</hAcc><vAcc>0.788065</vAcc></extensions></trkpt>
      <trkpt lon="-3.035289" lat="52.705440"><ele>140.887039</ele><time>2022-01-15T09:19:20Z</time><extensions><speed>0.280167</speed><course>285.584930</course><hAcc>1.796058</hAcc><vAcc>0.787738</vAcc></extensions></trkpt>
      <trkpt lon="-3.035294" lat="52.705440"><ele>140.885345</ele><time>2022-01-15T09:19:21Z</time><extensions><speed>0.296911</speed><course>288.647552</course><hAcc>1.786474</hAcc><vAcc>0.787775</vAcc></extensions></trkpt>
      <trkpt lon="-3.035298" lat="52.705441"><ele>140.881332</ele><time>2022-01-15T09:19:22Z</time><extensions><speed>0.292681</speed><course>290.994873</course><hAcc>1.781793</hAcc><vAcc>0.788090</vAcc></extensions></trkpt>
      <trkpt lon="-3.035302" lat="52.705442"><ele>140.880661</ele><time>2022-01-15T09:19:23Z</time><extensions><speed>0.265843</speed><course>292.030731</course><hAcc>1.784486</hAcc><vAcc>0.788652</vAcc></extensions></trkpt>
      <trkpt lon="-3.035305" lat="52.705443"><ele>140.875595</ele><time>2022-01-15T09:19:24Z</time><extensions><speed>0.231911</speed><course>290.283722</course><hAcc>1.786316</hAcc><vAcc>0.789235</vAcc></extensions></trkpt>
      <trkpt lon="-3.035308" lat="52.705444"><ele>140.879501</ele><time>2022-01-15T09:19:25Z</time><extensions><speed>0.208878</speed><course>285.871368</course><hAcc>1.782815</hAcc><vAcc>0.789741</vAcc></extensions></trkpt>
      <trkpt lon="-3.035311" lat="52.705444"><ele>140.871231</ele><time>2022-01-15T09:19:26Z</time><extensions><speed>0.198537</speed><course>280.768372</course><hAcc>1.776968</hAcc><vAcc>0.790144</vAcc></extensions></trkpt>
      <trkpt lon="-3.035314" lat="52.705444"><ele>140.865738</ele><time>2022-01-15T09:19:27Z</time><extensions><speed>0.201093</speed><course>276.890961</course><hAcc>1.770083</hAcc><vAcc>0.790348</vAcc></extensions></trkpt>
      <trkpt lon="-3.035317" lat="52.705445"><ele>140.874252</ele><time>2022-01-15T09:19:28Z</time><extensions><speed>0.191236</speed><course>276.397552</course><hAcc>1.770823</hAcc><vAcc>0.790182</vAcc></extensions></trkpt>
      <trkpt lon="-3.035319" lat="52.705445"><ele>140.878555</ele><time>2022-01-15T09:19:29Z</time><extensions><speed>0.167553</speed><course>280.492554</course><hAcc>1.777454</hAcc><vAcc>0.789777</vAcc></extensions></trkpt>
      <trkpt lon="-3.035321" lat="52.705445"><ele>140.878342</ele><time>2022-01-15T09:19:30Z</time><extensions><speed>0.136166</speed><course>291.525452</course><hAcc>1.786206</hAcc><vAcc>0.789057</vAcc></extensions></trkpt>
      <trkpt lon="-3.035323" lat="52.705446"><ele>140.892944</ele><time>2022-01-15T09:19:31Z</time><extensions><speed>0.130065</speed><course>313.108398</course><hAcc>1.778489</hAcc><vAcc>0.787934</vAcc></extensions></trkpt>
      <trkpt lon="-3.035324" lat="52.705447"><ele>140.898849</ele><time>2022-01-15T09:19:32Z</time><extensions><speed>0.137541</speed><course>343.747955</course><hAcc>1.782661</hAcc><vAcc>0.786491</vAcc></extensions></trkpt>
      <trkpt lon="-3.035324" lat="52.705448"><ele>140.914200</ele><time>2022-01-15T09:19:33Z</time><extensions><speed>0.187925</speed><course>6.972675</course><hAcc>1.787736</hAcc><vAcc>0.784784</vAcc></extensions></trkpt>
      <trkpt lon="-3.035323" lat="52.705450"><ele>140.918091</ele><time>2022-01-15T09:19:34Z</time><extensions><speed>0.249769</speed><course>18.333761</course><hAcc>1.795122</hAcc><vAcc>0.782924</vAcc></extensions></trkpt>
      <trkpt lon="-3.035322" lat="52.705453"><ele>140.934570</ele><time>2022-01-15T09:19:35Z</time><extensions><speed>0.290062</speed><course>23.161068</course><hAcc>1.807651</hAcc><vAcc>0.780973</vAcc></extensions></trkpt>
      <trkpt lon="-3.035320" lat="52.705455"><ele>140.944275</ele><time>2022-01-15T09:19:36Z</time><extensions><speed>0.309537</speed><course>24.335716</course><hAcc>1.815165</hAcc><vAcc>0.779125</vAcc></extensions></trkpt>
      <trkpt lon="-3.035318" lat="52.705458"><ele>140.956100</ele><time>2022-01-15T09:19:37Z</time><extensions><speed>0.317193</speed><course>24.103430</course><hAcc>1.816367</hAcc><vAcc>0.777494</vAcc></extensions></trkpt>
      <trkpt lon="-3.035316" lat="52.705460"><ele>140.956268</ele><time>2022-01-15T09:19:38Z</time><extensions><speed>0.311500</speed><course>23.531002</course><hAcc>1.818225</hAcc><vAcc>0.776174</vAcc></extensions></trkpt>
      <trkpt lon="-3.035315" lat="52.705463"><ele>140.962448</ele><time>2022-01-15T09:19:39Z</time><extensions><speed>0.303758</speed><course>21.886915</course><hAcc>1.818857</hAcc><vAcc>0.775141</vAcc></extensions></trkpt>
      <trkpt lon="-3.035313" lat="52.705465"><ele>140.970108</ele><time>2022-01-15T09:19:40Z</time><extensions><speed>0.302149</speed><course>18.462315</course><hAcc>1.814735</hAcc><vAcc>0.774294</vAcc></extensions></trkpt>
      <trkpt lon="-3.035312" lat="52.705468"><ele>140.985641</ele><time>2022-01-15T09:19:41Z</time><extensions><speed>0.293025</speed><course>13.922712</course><hAcc>1.809998</hAcc><vAcc>0.773619</vAcc></extensions></trkpt>
      <trkpt lon="-3.035311" lat="52.705471"><ele>141.002701</ele><time>2022-01-15T09:19:42Z</time><extensions><speed>0.280684</speed><course>9.433722</course><hAcc>1.803911</hAcc><vAcc>0.773050</vAcc></extensions></trkpt>
      <trkpt lon="-3.035310" lat="52.705473"><ele>141.023666</ele><time>2022-01-15T09:19:43Z</time><extensions><speed>0.257461</speed><course>7.475870</course><hAcc>1.795094</hAcc><vAcc>0.772378</vAcc></extensions></trkpt>
      <trkpt lon="-3.035310" lat="52.705475"><ele>141.033234</ele><time>2022-01-15T09:19:44Z</time><extensions><speed>0.218524</speed><course>7.801781</course><hAcc>1.788969</hAcc><vAcc>0.771574</vAcc></extensions></trkpt>
      <trkpt lon="-3.035310" lat="52.705477"><ele>141.040894</ele><time>2022-01-15T09:19:45Z</time><extensions><speed>0.174245</speed><course>6.678283</course><hAcc>1.796926</hAcc><vAcc>0.770667</vAcc></extensions></trkpt>
      <trkpt lon="-3.035310" lat="52.705478"><ele>141.046356</ele><time>2022-01-15T09:19:46Z</time><extensions><speed>0.134093</speed><course>359.865448</course><hAcc>1.814194</hAcc><vAcc>0.769575</vAcc></extensions></trkpt>
      <trkpt lon="-3.035310" lat="52.705480"><ele>141.058075</ele><time>2022-01-15T09:19:47Z</time><extensions><speed>0.157197</speed><course>351.140717</course><hAcc>1.800118</hAcc><vAcc>0.768169</vAcc></extensions></trkpt>
      <trkpt lon="-3.035310" lat="52.705481"><ele>141.074448</ele><time>2022-01-15T09:19:48Z</time><extensions><speed>0.196412</speed><course>348.151825</course><hAcc>1.792143</hAcc><vAcc>0.766453</vAcc></extensions></trkpt>
      <trkpt lon="-3.035311" lat="52.705483"><ele>141.079681</ele><time>2022-01-15T09:19:49Z</time><extensions><speed>0.228655</speed><course>348.587036</course><hAcc>1.798018</hAcc><vAcc>0.764386</vAcc></extensions></trkpt>
      <trkpt lon="-3.035312" lat="52.705485"><ele>141.117661</ele><time>2022-01-15T09:19:50Z</time><extensions><speed>0.254312</speed><course>349.628845</course><hAcc>1.807780</hAcc><vAcc>0.762040</vAcc></extensions></trkpt>
      <trkpt lon="-3.035312" lat="52.705488"><ele>141.160568</ele><time>2022-01-15T09:19:51Z</time><extensions><speed>0.277340</speed><course>349.711761</course><hAcc>1.818835</hAcc><vAcc>0.759672</vAcc></extensions></trkpt>
      <trkpt lon="-3.035313" lat="52.705490"><ele>141.194626</ele><time>2022-01-15T09:19:52Z</time><extensions><speed>0.297570</speed><course>348.890594</course><hAcc>1.824917</hAcc><vAcc>0.757155</vAcc></extensions></trkpt>
      <trkpt lon="-3.035314" lat="52.705493"><ele>141.326111</ele><time>2022-01-15T09:19:53Z</time><extensions><speed>0.297497</speed><course>347.060852</course><hAcc>1.827191</hAcc><vAcc>0.754588</vAcc></extensions></trkpt>
      <trkpt lon="-3.035315" lat="52.705495"><ele>141.478439</ele><time>2022-01-15T09:19:54Z</time><extensions><speed>0.284554</speed><course>346.261963</course><hAcc>1.827587</hAcc><vAcc>0.752123</vAcc></extensions></trkpt>
      <trkpt lon="-3.035316" lat="52.705498"><ele>141.599060</ele><time>2022-01-15T09:19:55Z</time><extensions><speed>0.260023</speed><course>347.832855</course><hAcc>1.828783</hAcc><vAcc>0.749757</vAcc></extensions></trkpt>
      <trkpt lon="-3.035316" lat="52.705500"><ele>141.729980</ele><time>2022-01-15T09:19:56Z</time><extensions><speed>0.250509</speed><course>351.066223</course><hAcc>1.823416</hAcc><vAcc>0.747505</vAcc></extensions></trkpt>
      <trkpt lon="-3.035317" lat="52.705502"><ele>141.854568</ele><time>2022-01-15T09:19:57Z</time><extensions><speed>0.234437</speed><course>355.309723</course><hAcc>1.822271</hAcc><vAcc>0.745319</vAcc></extensions></trkpt>
      <trkpt lon="-3.035317" lat="52.705504"><ele>141.984009</ele><time>2022-01-15T09:19:58Z</time><extensions><speed>0.227090</speed><course>0.274317</course><hAcc>1.813636</hAcc><vAcc>0.743296</vAcc></extensions></trkpt>
      <trkpt lon="-3.035317" lat="52.705506"><ele>142.102859</ele><time>2022-01-15T09:19:59Z</time><extensions><speed>0.220084</speed><course>8.560347</course><hAcc>1.799490</hAcc><vAcc>0.741445</vAcc></extensions></trkpt>
      <trkpt lon="-3.035316" lat="52.705508"><ele>142.223190</ele><time>2022-01-15T09:20:00Z</time><extensions><speed>0.195439</speed><course>24.309116</course><hAcc>1.797741</hAcc><vAcc>0.739823</vAcc></extensions></trkpt>
      <trkpt lon="-3.035314" lat="52.705510"><ele>142.322556</ele><time>2022-01-15T09:20:01Z</time><extensions><speed>0.207190</speed><course>46.890747</course><hAcc>1.793606</hAcc><vAcc>0.738426</vAcc></extensions></trkpt>
      <trkpt lon="-3.035312" lat="52.705511"><ele>142.405899</ele><time>2022-01-15T09:20:02Z</time><extensions><speed>0.162043</speed><course>32.444454</course><hAcc>1.778133</hAcc><vAcc>0.737276</vAcc></extensions></trkpt>
      <trkpt lon="-3.035311" lat="52.705512"><ele>142.471191</ele><time>2022-01-15T09:20:03Z</time><extensions><speed>0.180341</speed><course>28.676582</course><hAcc>1.710580</hAcc><vAcc>0.736328</vAcc></extensions></trkpt>
      <trkpt lon="-3.035309" lat="52.705513"><ele>142.508759</ele><time>2022-01-15T09:20:04Z</time><extensions><speed>0.139371</speed><course>35.022224</course><hAcc>1.675366</hAcc><vAcc>0.735572</vAcc></extensions></trkpt>
      <trkpt lon="-3.035308" lat="52.705514"><ele>142.507782</ele><time>2022-01-15T09:20:05Z</time><extensions><speed>0.068153</speed><course>53.574024</course><hAcc>1.693323</hAcc><vAcc>0.734989</vAcc></extensions></trkpt>
      <trkpt lon="-3.035307" lat="52.705514"><ele>142.481613</ele><time>2022-01-15T09:20:06Z</time><extensions><speed>0.053296</speed><course>81.916641</course><hAcc>1.681450</hAcc><vAcc>0.734458</vAcc></extensions></trkpt>
      <trkpt lon="-3.035306" lat="52.705515"><ele>142.440735</ele><time>2022-01-15T09:20:07Z</time><extensions><speed>0.068185</speed><course>92.026421</course><hAcc>1.649401</hAcc><vAcc>0.734170</vAcc></extensions></trkpt>
      <trkpt lon="-3.035305" lat="52.705515"><ele>142.368256</ele><time>2022-01-15T09:20:08Z</time><extensions><speed>0.082122</speed><course>89.495567</course><hAcc>1.630760</hAcc><vAcc>0.733975</vAcc></extensions></trkpt>
      <trkpt lon="-3.035303" lat="52.705515"><ele>142.298798</ele><time>2022-01-15T09:20:09Z</time><extensions><speed>0.094974</speed><course>80.843689</course><hAcc>1.622087</hAcc><vAcc>0.733809</vAcc></extensions></trkpt>
      <trkpt lon="-3.035302" lat="52.705515"><ele>142.218018</ele><time>2022-01-15T09:20:10Z</time><extensions><speed>0.105963</speed><course>69.405861</course><hAcc>1.617591</hAcc><vAcc>0.733642</vAcc></extensions></trkpt>
      <trkpt lon="-3.035300" lat="52.705516"><ele>142.114319</ele><time>2022-01-15T09:20:11Z</time><extensions><speed>0.124150</speed><course>58.483368</course><hAcc>1.612492</hAcc><vAcc>0.733584</vAcc></extensions></trkpt>
      <trkpt lon="-3.035299" lat="52.705517"><ele>141.996796</ele><time>2022-01-15T09:20:12Z</time><extensions><speed>0.132952</speed><course>48.355186</course><hAcc>1.620284</hAcc><vAcc>0.733462</vAcc></extensions></trkpt>
      <trkpt lon="-3.035297" lat="52.705518"><ele>141.817139</ele><time>2022-01-15T09:20:13Z</time><extensions><speed>0.157044</speed><course>42.108154</course><hAcc>1.621539</hAcc><vAcc>0.733116</vAcc></extensions></trkpt>
      <trkpt lon="-3.035296" lat="52.705519"><ele>141.602402</ele><time>2022-01-15T09:20:14Z</time><extensions><speed>0.170506</speed><course>38.997223</course><hAcc>1.627922</hAcc><vAcc>0.732984</vAcc></extensions></trkpt>
      <trkpt lon="-3.035294" lat="52.705520"><ele>141.417450</ele><time>2022-01-15T09:20:15Z</time><extensions><speed>0.180267</speed><course>36.310726</course><hAcc>1.640579</hAcc><vAcc>0.732713</vAcc></extensions></trkpt>
      <trkpt lon="-3.035293" lat="52.705521"><ele>141.247025</ele><time>2022-01-15T09:20:16Z</time><extensions><speed>0.182346</speed><course>33.700619</course><hAcc>1.658152</hAcc><vAcc>0.732419</vAcc></extensions></trkpt>
      <trkpt lon="-3.035291" lat="52.705523"><ele>141.078201</ele><time>2022-01-15T09:20:17Z</time><extensions><speed>0.177329</speed><course>31.877064</course><hAcc>1.672835</hAcc><vAcc>0.732126</vAcc></extensions></trkpt>
      <trkpt lon="-3.035290" lat="52.705524"><ele>140.911880</ele><time>2022-01-15T09:20:18Z</time><extensions><speed>0.167986</speed><course>30.932398</course><hAcc>1.677677</hAcc><vAcc>0.731777</vAcc></extensions></trkpt>
      <trkpt lon="-3.035288" lat="52.705525"><ele>140.756134</ele><time>2022-01-15T09:20:19Z</time><extensions><speed>0.172349</speed><course>31.293066</course><hAcc>1.677676</hAcc><vAcc>0.731377</vAcc></extensions></trkpt>
      <trkpt lon="-3.035287" lat="52.705526"><ele>140.607162</ele><time>2022-01-15T09:20:20Z</time><extensions><speed>0.109364</speed><course>33.073044</course><hAcc>1.730023</hAcc><vAcc>0.730945</vAcc></extensions></trkpt>
      <trkpt lon="-3.035286" lat="52.705527"><ele>140.467941</ele><time>2022-01-15T09:20:21Z</time><extensions><speed>0.073565</speed><course>36.944145</course><hAcc>1.764683</hAcc><vAcc>0.730463</vAcc></extensions></trkpt>
      <trkpt lon="-3.035286" lat="52.705527"><ele>140.348587</ele><time>2022-01-15T09:20:22Z</time><extensions><speed>0.056880</speed><course>48.140976</course><hAcc>1.774870</hAcc><vAcc>0.730003</vAcc></extensions></trkpt>
      <trkpt lon="-3.035285" lat="52.705528"><ele>140.248123</ele><time>2022-01-15T09:20:23Z</time><extensions><speed>0.066195</speed><course>62.383110</course><hAcc>1.763922</hAcc><vAcc>0.729633</vAcc></extensions></trkpt>
      <trkpt lon="-3.035284" lat="52.705528"><ele>140.170090</ele><time>2022-01-15T09:20:24Z</time><extensions><speed>0.073978</speed><course>63.801483</course><hAcc>1.790023</hAcc><vAcc>0.729448</vAcc></extensions></trkpt>
      <trkpt lon="-3.035283" lat="52.705528"><ele>140.116013</ele><time>2022-01-15T09:20:25Z</time><extensions><speed>0.074976</speed><course>58.352329</course><hAcc>1.823674</hAcc><vAcc>0.729474</vAcc></extensions></trkpt>
      <trkpt lon="-3.035282" lat="52.705529"><ele>140.084518</ele><time>2022-01-15T09:20:26Z</time><extensions><speed>0.070285</speed><course>53.367325</course><hAcc>1.833820</hAcc><vAcc>0.729714</vAcc></extensions></trkpt>
      <trkpt lon="-3.035282" lat="52.705529"><ele>140.078964</ele><time>2022-01-15T09:20:27Z</time><extensions><speed>0.052638</speed><course>47.507950</course><hAcc>1.839515</hAcc><vAcc>0.730090</vAcc></extensions></trkpt>
      <trkpt lon="-3.035281" lat="52.705529"><ele>140.089798</ele><time>2022-01-15T09:20:28Z</time><extensions><speed>0.031333</speed><course>31.010244</course><hAcc>1.840838</hAcc><vAcc>0.730660</vAcc></extensions></trkpt>
      <trkpt lon="-3.035281" lat="52.705530"><ele>140.122070</ele><time>2022-01-15T09:20:29Z</time><extensions><speed>0.020332</speed><course>346.823792</course><hAcc>1.835220</hAcc><vAcc>0.731480</vAcc></extensions></trkpt>
      <trkpt lon="-3.035281" lat="52.705530"><ele>140.157684</ele><time>2022-01-15T09:20:30Z</time><extensions><speed>0.026387</speed><course>299.275421</course><hAcc>1.830921</hAcc><vAcc>0.732441</vAcc></extensions></trkpt>
      <trkpt lon="-3.035282" lat="52.705530"><ele>140.207184</ele><time>2022-01-15T09:20:31Z</time><extensions><speed>0.039372</speed><course>279.801147</course><hAcc>1.819555</hAcc><vAcc>0.733529</vAcc></extensions></trkpt>
      <trkpt lon="-3.035283" lat="52.705530"><ele>140.263870</ele><time>2022-01-15T09:20:32Z</time><extensions><speed>0.044441</speed><course>268.693726</course><hAcc>1.812395</hAcc><vAcc>0.734707</vAcc></extensions></trkpt>
      <trkpt lon="-3.035283" lat="52.705530"><ele>140.325668</ele><time>2022-01-15T09:20:33Z</time><extensions><speed>0.042684</speed><course>253.920334</course><hAcc>1.812985</hAcc><vAcc>0.735957</vAcc></extensions></trkpt>
      <trkpt lon="-3.035284" lat="52.705529"><ele>140.390915</ele><time>2022-01-15T09:20:34Z</time><extensions><speed>0.045870</speed><course>236.739471</course><hAcc>1.810612</hAcc><vAcc>0.737241</vAcc></extensions></trkpt>
      <trkpt lon="-3.035284" lat="52.705529"><ele>140.453033</ele><time>2022-01-15T09:20:35Z</time><extensions><speed>0.055790</speed><course>223.193909</course><hAcc>1.807817</hAcc><vAcc>0.738575</vAcc></extensions></trkpt>
      <trkpt lon="-3.035285" lat="52.705529"><ele>140.501221</ele><time>2022-01-15T09:20:36Z</time><extensions><speed>0.072981</speed><course>215.329971</course><hAcc>1.797455</hAcc><vAcc>0.740012</vAcc></extensions></trkpt>
      <trkpt lon="-3.035286" lat="52.705528"><ele>140.549072</ele><time>2022-01-15T09:20:37Z</time><extensions><speed>0.095692</speed><course>213.485657</course><hAcc>1.771674</hAcc><vAcc>0.741573</vAcc></extensions></trkpt>
      <trkpt lon="-3.035287" lat="52.705527"><ele>140.591446</ele><time>2022-01-15T09:20:38Z</time><extensions><speed>0.111294</speed><course>214.147156</course><hAcc>1.750214</hAcc><vAcc>0.743201</vAcc></extensions></trkpt>
      <trkpt lon="-3.035288" lat="52.705526"><ele>140.627350</ele><time>2022-01-15T09:20:39Z</time><extensions><speed>0.121739</speed><course>215.720581</course><hAcc>1.741650</hAcc><vAcc>0.744701</vAcc></extensions></trkpt>
      <trkpt lon="-3.035289" lat="52.705526"><ele>140.656586</ele><time>2022-01-15T09:20:40Z</time><extensions><speed>0.107638</speed><course>217.171219</course><hAcc>1.757518</hAcc><vAcc>0.746040</vAcc></extensions></trkpt>
      <trkpt lon="-3.035290" lat="52.705525"><ele>140.679016</ele><time>2022-01-15T09:20:41Z</time><extensions><speed>0.097935</speed><course>216.532562</course><hAcc>1.769128</hAcc><vAcc>0.747099</vAcc></extensions></trkpt>
      <trkpt lon="-3.035290" lat="52.705524"><ele>140.764847</ele><time>2022-01-15T09:20:42Z</time><extensions><speed>0.083532</speed><course>212.574936</course><hAcc>1.778887</hAcc><vAcc>0.747667</vAcc></extensions></trkpt>
      <trkpt lon="-3.035291" lat="52.705523"><ele>140.851547</ele><time>2022-01-15T09:20:43Z</time><extensions><speed>0.114718</speed><course>206.464798</course><hAcc>1.741373</hAcc><vAcc>0.747796</vAcc></extensions></trkpt>
      <trkpt lon="-3.035292" lat="52.705522"><ele>140.941376</ele><time>2022-01-15T09:20:44Z</time><extensions><speed>0.112433</speed><course>198.473892</course><hAcc>1.738931</hAcc><vAcc>0.747292</vAcc></extensions></trkpt>
      <trkpt lon="-3.035292" lat="52.705521"><ele>141.022202</ele><time>2022-01-15T09:20:45Z</time><extensions><speed>0.100570</speed><course>187.504684</course><hAcc>1.762385</hAcc><vAcc>0.746119</vAcc></extensions></trkpt>
      <trkpt lon="-3.035292" lat="52.705521"><ele>141.107956</ele><time>2022-01-15T09:20:46Z</time><extensions><speed>0.083731</speed><course>175.231567</course><hAcc>1.787302</hAcc><vAcc>0.744263</vAcc></extensions></trkpt>
      <trkpt lon="-3.035292" lat="52.705520"><ele>141.194824</ele><time>2022-01-15T09:20:47Z</time><extensions><speed>0.065049</speed><course>161.840424</course><hAcc>1.805580</hAcc><vAcc>0.741774</vAcc></extensions></trkpt>
      <trkpt lon="-3.035291" lat="52.705519"><ele>141.275696</ele><time>2022-01-15T09:20:48Z</time><extensions><speed>0.053713</speed><course>146.398239</course><hAcc>1.813576</hAcc><vAcc>0.738660</vAcc></extensions></trkpt>
      <trkpt lon="-3.035291" lat="52.705519"><ele>141.357742</ele><time>2022-01-15T09:20:49Z</time><extensions><speed>0.049383</speed><course>130.026398</course><hAcc>1.816303</hAcc><vAcc>0.735041</vAcc></extensions></trkpt>
      <trkpt lon="-3.035290" lat="52.705519"><ele>141.438995</ele><time>2022-01-15T09:20:50Z</time><extensions><speed>0.051346</speed><course>118.457443</course><hAcc>1.814484</hAcc><vAcc>0.731056</vAcc></extensions></trkpt>
      <trkpt lon="-3.035290" lat="52.705519"><ele>141.510910</ele><time>2022-01-15T09:20:51Z</time><extensions><speed>0.049755</speed><course>117.028992</course><hAcc>1.819207</hAcc><vAcc>0.726734</vAcc></extensions></trkpt>
      <trkpt lon="-3.035289" lat="52.705518"><ele>141.577362</ele><time>2022-01-15T09:20:52Z</time><extensions><speed>0.042541</speed><course>133.923950</course><hAcc>1.819733</hAcc><vAcc>0.722206</vAcc></extensions></trkpt>
      <trkpt lon="-3.035289" lat="52.705518"><ele>141.629242</ele><time>2022-01-15T09:20:53Z</time><extensions><speed>0.043185</speed><course>174.480927</course><hAcc>1.829983</hAcc><vAcc>0.717590</vAcc></extensions></trkpt>
      <trkpt lon="-3.035289" lat="52.705518"><ele>141.666626</ele><time>2022-01-15T09:20:54Z</time><extensions><speed>0.061822</speed><course>196.157959</course><hAcc>1.836475</hAcc><vAcc>0.712973</vAcc></extensions></trkpt>
      <trkpt lon="-3.035289" lat="52.705517"><ele>141.686951</ele><time>2022-01-15T09:20:55Z</time><extensions><speed>0.079495</speed><course>204.986099</course><hAcc>1.831294</hAcc><vAcc>0.708448</vAcc></extensions></trkpt>
      <trkpt lon="-3.035290" lat="52.705516"><ele>141.691025</ele><time>2022-01-15T09:20:56Z</time><extensions><speed>0.084743</speed><course>211.881821</course><hAcc>1.832555</hAcc><vAcc>0.703995</vAcc></extensions></trkpt>
      <trkpt lon="-3.035291" lat="52.705516"><ele>141.681137</ele><time>2022-01-15T09:20:57Z</time><extensions><speed>0.087593</speed><course>215.632462</course><hAcc>1.832747</hAcc><vAcc>0.699744</vAcc></extensions></trkpt>
      <trkpt lon="-3.035292" lat="52.705515"><ele>141.659073</ele><time>2022-01-15T09:20:58Z</time><extensions><speed>0.086071</speed><course>215.482635</course><hAcc>1.829099</hAcc><vAcc>0.695741</vAcc></extensions></trkpt>
      <trkpt lon="-3.035292" lat="52.705514"><ele>141.627274</ele><time>2022-01-15T09:20:59Z</time><extensions><speed>0.077324</speed><course>213.214020</course><hAcc>1.827555</hAcc><vAcc>0.692000</vAcc></extensions></trkpt>
      <trkpt lon="-3.035293" lat="52.705514"><ele>141.588242</ele><time>2022-01-15T09:21:00Z</time><extensions><speed>0.066796</speed><course>210.830673</course><hAcc>1.829646</hAcc><vAcc>0.688561</vAcc></extensions></trkpt>
      <trkpt lon="-3.035293" lat="52.705514"><ele>141.545227</ele><time>2022-01-15T09:21:01Z</time><extensions><speed>0.050702</speed><course>213.032928</course><hAcc>1.844690</hAcc><vAcc>0.685479</vAcc></extensions></trkpt>
      <trkpt lon="-3.035294" lat="52.705513"><ele>141.498123</ele><time>2022-01-15T09:21:02Z</time><extensions><speed>0.029530</speed><course>231.713165</course><hAcc>1.871966</hAcc><vAcc>0.682885</vAcc></extensions></trkpt>
      <trkpt lon="-3.035294" lat="52.705513"><ele>141.448807</ele><time>2022-01-15T09:21:03Z</time><extensions><speed>0.036085</speed><course>259.945648</course><hAcc>1.843132</hAcc><vAcc>0.680832</vAcc></extensions></trkpt>
      <trkpt lon="-3.035295" lat="52.705513"><ele>141.399567</ele><time>2022-01-15T09:21:04Z</time><extensions><speed>0.046222</speed><course>282.380646</course><hAcc>1.830013</hAcc><vAcc>0.679364</vAcc></extensions></trkpt>
      <trkpt lon="-3.035295" lat="52.705514"><ele>141.351700</ele><time>2022-01-15T09:21:05Z</time><extensions><speed>0.061988</speed><course>307.218109</course><hAcc>1.826186</hAcc><vAcc>0.678382</vAcc></extensions></trkpt>
      <trkpt lon="-3.035296" lat="52.705514"><ele>141.307373</ele><time>2022-01-15T09:21:06Z</time><extensions><speed>0.082378</speed><course>329.859009</course><hAcc>1.820589</hAcc><vAcc>0.677654</vAcc></extensions></trkpt>
      <trkpt lon="-3.035296" lat="52.705515"><ele>141.265045</ele><time>2022-01-15T09:21:07Z</time><extensions><speed>0.093449</speed><course>345.701172</course><hAcc>1.821812</hAcc><vAcc>0.677086</vAcc></extensions></trkpt>
      <trkpt lon="-3.035297" lat="52.705516"><ele>141.228668</ele><time>2022-01-15T09:21:08Z</time><extensions><speed>0.093011</speed><course>358.863403</course><hAcc>1.839777</hAcc><vAcc>0.676420</vAcc></extensions></trkpt>
      <trkpt lon="-3.035296" lat="52.705516"><ele>141.198181</ele><time>2022-01-15T09:21:09Z</time><extensions><speed>0.095757</speed><course>10.398561</course><hAcc>1.860147</hAcc><vAcc>0.675446</vAcc></extensions></trkpt>
      <trkpt lon="-3.035296" lat="52.705517"><ele>141.116577</ele><time>2022-01-15T09:21:10Z</time><extensions><speed>0.126114</speed><course>16.897621</course><hAcc>1.852768</hAcc><vAcc>0.673913</vAcc></extensions></trkpt>
      <trkpt lon="-3.035295" lat="52.705519"><ele>141.066483</ele><time>2022-01-15T09:21:11Z</time><extensions><speed>0.163503</speed><course>17.511139</course><hAcc>1.839341</hAcc><vAcc>0.671751</vAcc></extensions></trkpt>
      <trkpt lon="-3.035295" lat="52.705520"><ele>141.025848</ele><time>2022-01-15T09:21:12Z</time><extensions><speed>0.167936</speed><course>16.279676</course><hAcc>1.846746</hAcc><vAcc>0.668889</vAcc></extensions></trkpt>
      <trkpt lon="-3.035294" lat="52.705521"><ele>140.986374</ele><time>2022-01-15T09:21:13Z</time><extensions><speed>0.148238</speed><course>16.698914</course><hAcc>1.861755</hAcc><vAcc>0.665352</vAcc></extensions></trkpt>
      <trkpt lon="-3.035293" lat="52.705523"><ele>140.949295</ele><time>2022-01-15T09:21:14Z</time><extensions><speed>0.122536</speed><course>19.999453</course><hAcc>1.871453</hAcc><vAcc>0.661210</vAcc></extensions></trkpt>
      <trkpt lon="-3.035293" lat="52.705524"><ele>140.914108</ele><time>2022-01-15T09:21:15Z</time><extensions><speed>0.099270</speed><course>27.951323</course><hAcc>1.879357</hAcc><vAcc>0.656592</vAcc></extensions></trkpt>
      <trkpt lon="-3.035292" lat="52.705524"><ele>140.888397</ele><time>2022-01-15T09:21:16Z</time><extensions><speed>0.081311</speed><course>43.137566</course><hAcc>1.897980</hAcc><vAcc>0.651735</vAcc></extensions></trkpt>
      <trkpt lon="-3.035291" lat="52.705525"><ele>140.866348</ele><time>2022-01-15T09:21:17Z</time><extensions><speed>0.072697</speed><course>57.678215</course><hAcc>1.919868</hAcc><vAcc>0.647068</vAcc></extensions></trkpt>
      <trkpt lon="-3.035290" lat="52.705525"><ele>140.846115</ele><time>2022-01-15T09:21:18Z</time><extensions><speed>0.079509</speed><course>65.473831</course><hAcc>1.913750</hAcc><vAcc>0.643021</vAcc></extensions></trkpt>
      <trkpt lon="-3.035289" lat="52.705525"><ele>140.831085</ele><time>2022-01-15T09:21:19Z</time><extensions><speed>0.080813</speed><course>72.321396</course><hAcc>1.910243</hAcc><vAcc>0.640016</vAcc></extensions></trkpt>
      <trkpt lon="-3.035288" lat="52.705525"><ele>140.821640</ele><time>2022-01-15T09:21:20Z</time><extensions><speed>0.085186</speed><course>73.554260</course><hAcc>1.914146</hAcc><vAcc>0.638435</vAcc></extensions></trkpt>
      <trkpt lon="-3.035286" lat="52.705526"><ele>140.819702</ele><time>2022-01-15T09:21:21Z</time><extensions><speed>0.087899</speed><course>73.564682</course><hAcc>1.919367</hAcc><vAcc>0.638473</vAcc></extensions></trkpt>
      <trkpt lon="-3.035285" lat="52.705526"><ele>140.833054</ele><time>2022-01-15T09:21:22Z</time><extensions><speed>0.086784</speed><course>78.420090</course><hAcc>1.918553</hAcc><vAcc>0.640082</vAcc></extensions></trkpt>
      <trkpt lon="-3.035284" lat="52.705526"><ele>140.853912</ele><time>2022-01-15T09:21:23Z</time><extensions><speed>0.078539</speed><course>83.593201</course><hAcc>1.917947</hAcc><vAcc>0.643015</vAcc></extensions></trkpt>
      <trkpt lon="-3.035283" lat="52.705526"><ele>140.880249</ele><time>2022-01-15T09:21:24Z</time><extensions><speed>0.063313</speed><course>90.855026</course><hAcc>1.915859</hAcc><vAcc>0.646764</vAcc></extensions></trkpt>
      <trkpt lon="-3.035282" lat="52.705526"><ele>140.910187</ele><time>2022-01-15T09:21:25Z</time><extensions><speed>0.041554</speed><course>105.043938</course><hAcc>1.908376</hAcc><vAcc>0.650952</vAcc></extensions></trkpt>
      <trkpt lon="-3.035282" lat="52.705526"><ele>140.942734</ele><time>2022-01-15T09:21:26Z</time><extensions><speed>0.019419</speed><course>141.883286</course><hAcc>1.898391</hAcc><vAcc>0.654974</vAcc></extensions></trkpt>
      <trkpt lon="-3.035282" lat="52.705526"><ele>140.976929</ele><time>2022-01-15T09:21:27Z</time><extensions><speed>0.012029</speed><course>201.410278</course><hAcc>1.889541</hAcc><vAcc>0.658391</vAcc></extensions></trkpt>
      <trkpt lon="-3.035282" lat="52.705526"><ele>141.012512</ele><time>2022-01-15T09:21:28Z</time><extensions><speed>0.002679</speed><course>34.801342</course><hAcc>1.882057</hAcc><vAcc>0.660661</vAcc></extensions></trkpt>
      <trkpt lon="-3.035282" lat="52.705526"><ele>141.049500</ele><time>2022-01-15T09:21:29Z</time><extensions><speed>0.031874</speed><course>39.491245</course><hAcc>1.872343</hAcc><vAcc>0.661335</vAcc></extensions></trkpt>
      <trkpt lon="-3.035281" lat="52.705526"><ele>141.084732</ele><time>2022-01-15T09:21:30Z</time><extensions><speed>0.060194</speed><course>34.052319</course><hAcc>1.859459</hAcc><vAcc>0.660131</vAcc></extensions></trkpt>
      <trkpt lon="-3.035281" lat="52.705527"><ele>141.119247</ele><time>2022-01-15T09:21:31Z</time><extensions><speed>0.072429</speed><course>26.526688</course><hAcc>1.853941</hAcc><vAcc>0.657032</vAcc></extensions></trkpt>
      <trkpt lon="-3.035280" lat="52.705527"><ele>141.150055</ele><time>2022-01-15T09:21:32Z</time><extensions><speed>0.056786</speed><course>17.792316</course><hAcc>1.877316</hAcc><vAcc>0.652274</vAcc></extensions></trkpt>
      <trkpt lon="-3.035280" lat="52.705527"><ele>141.178101</ele><time>2022-01-15T09:21:33Z</time><extensions><speed>0.026809</speed><course>4.598611</course><hAcc>1.914633</hAcc><vAcc>0.646317</vAcc></extensions></trkpt>
      <trkpt lon="-3.035280" lat="52.705528"><ele>141.198166</ele><time>2022-01-15T09:21:34Z</time><extensions><speed>0.014041</speed><course>341.220947</course><hAcc>1.890050</hAcc><vAcc>0.639782</vAcc></extensions></trkpt>
      <trkpt lon="-3.035280" lat="52.705528"><ele>141.194580</ele><time>2022-01-15T09:21:35Z</time><extensions><speed>0.009098</speed><course>243.018188</course><hAcc>1.878195</hAcc><vAcc>0.633300</vAcc></extensions></trkpt>
      <trkpt lon="-3.035280" lat="52.705528"><ele>141.190460</ele><time>2022-01-15T09:21:36Z</time><extensions><speed>0.025141</speed><course>202.189987</course><hAcc>1.877701</hAcc><vAcc>0.627291</vAcc></extensions></trkpt>
      <trkpt lon="-3.035281" lat="52.705527"><ele>141.190170</ele><time>2022-01-15T09:21:37Z</time><extensions><speed>0.042087</speed><course>191.628052</course><hAcc>1.884629</hAcc><vAcc>0.621998</vAcc></extensions></trkpt>
      <trkpt lon="-3.035281" lat="52.705527"><ele>141.169388</ele><time>2022-01-15T09:21:38Z</time><extensions><speed>0.055786</speed><course>186.744507</course><hAcc>1.890500</hAcc><vAcc>0.617564</vAcc></extensions></trkpt>
      <trkpt lon="-3.035281" lat="52.705526"><ele>141.144485</ele><time>2022-01-15T09:21:39Z</time><extensions><speed>0.061754</speed><course>183.097076</course><hAcc>1.894963</hAcc><vAcc>0.613809</vAcc></extensions></trkpt>
      <trkpt lon="-3.035281" lat="52.705526"><ele>141.117905</ele><time>2022-01-15T09:21:40Z</time><extensions><speed>0.047209</speed><course>177.120239</course><hAcc>1.898589</hAcc><vAcc>0.610380</vAcc></extensions></trkpt>
      <trkpt lon="-3.035281" lat="52.705526"><ele>141.089569</ele><time>2022-01-15T09:21:41Z</time><extensions><speed>0.025999</speed><course>156.244003</course><hAcc>1.887612</hAcc><vAcc>0.606759</vAcc></extensions></trkpt>
      <trkpt lon="-3.035280" lat="52.705525"><ele>141.060211</ele><time>2022-01-15T09:21:42Z</time><extensions><speed>0.018326</speed><course>82.189667</course><hAcc>1.900483</hAcc><vAcc>0.602305</vAcc></extensions></trkpt>
      <trkpt lon="-3.035280" lat="52.705525"><ele>141.031677</ele><time>2022-01-15T09:21:43Z</time><extensions><speed>0.039105</speed><course>61.515995</course><hAcc>1.891979</hAcc><vAcc>0.596404</vAcc></extensions></trkpt>
      <trkpt lon="-3.035279" lat="52.705526"><ele>141.009460</ele><time>2022-01-15T09:21:44Z</time><extensions><speed>0.056085</speed><course>72.564758</course><hAcc>1.903846</hAcc><vAcc>0.588606</vAcc></extensions></trkpt>
      <trkpt lon="-3.035278" lat="52.705526"><ele>140.985504</ele><time>2022-01-15T09:21:45Z</time><extensions><speed>0.076231</speed><course>87.037018</course><hAcc>1.930776</hAcc><vAcc>0.578726</vAcc></extensions></trkpt>
      <trkpt lon="-3.035277" lat="52.705526"><ele>140.966721</ele><time>2022-01-15T09:21:46Z</time><extensions><speed>0.099934</speed><course>98.672112</course><hAcc>1.947834</hAcc><vAcc>0.566945</vAcc></extensions></trkpt>
      <trkpt lon="-3.035276" lat="52.705526"><ele>140.952484</ele><time>2022-01-15T09:21:47Z</time><extensions><speed>0.101423</speed><course>110.114075</course><hAcc>1.981395</hAcc><vAcc>0.553663</vAcc></extensions></trkpt>
      <trkpt lon="-3.035274" lat="52.705525"><ele>140.942001</ele><time>2022-01-15T09:21:48Z</time><extensions><speed>0.077415</speed><course>127.018990</course><hAcc>2.032587</hAcc><vAcc>0.539477</vAcc></extensions></trkpt>
      <trkpt lon="-3.035274" lat="52.705525"><ele>140.934998</ele><time>2022-01-15T09:21:49Z</time><extensions><speed>0.065019</speed><course>152.534866</course><hAcc>2.051621</hAcc><vAcc>0.524948</vAcc></extensions></trkpt>
      <trkpt lon="-3.035274" lat="52.705524"><ele>140.922653</ele><time>2022-01-15T09:21:50Z</time><extensions><speed>0.058161</speed><course>184.443832</course><hAcc>2.060445</hAcc><vAcc>0.510596</vAcc></extensions></trkpt>
      <trkpt lon="-3.035274" lat="52.705524"><ele>140.919586</ele><time>2022-01-15T09:21:51Z</time><extensions><speed>0.051518</speed><course>213.220016</course><hAcc>2.092595</hAcc><vAcc>0.496892</vAcc></extensions></trkpt>
      <trkpt lon="-3.035274" lat="52.705524"><ele>140.929535</ele><time>2022-01-15T09:21:52Z</time><extensions><speed>0.035280</speed><course>251.509872</course><hAcc>2.129605</hAcc><vAcc>0.484383</vAcc></extensions></trkpt>
      <trkpt lon="-3.035275" lat="52.705524"><ele>140.952179</ele><time>2022-01-15T09:21:53Z</time><extensions><speed>0.046347</speed><course>312.490692</course><hAcc>2.126698</hAcc><vAcc>0.473726</vAcc></extensions></trkpt>
      <trkpt lon="-3.035275" lat="52.705524"><ele>140.993073</ele><time>2022-01-15T09:21:54Z</time><extensions><speed>0.078065</speed><course>344.056488</course><hAcc>2.137085</hAcc><vAcc>0.465568</vAcc></extensions></trkpt>
      <trkpt lon="-3.035276" lat="52.705525"><ele>141.033478</ele><time>2022-01-15T09:21:55Z</time><extensions><speed>0.107156</speed><course>352.116028</course><hAcc>2.140849</hAcc><vAcc>0.460381</vAcc></extensions></trkpt>
      <trkpt lon="-3.035276" lat="52.705526"><ele>141.069046</ele><time>2022-01-15T09:21:56Z</time><extensions><speed>0.124115</speed><course>350.219604</course><hAcc>2.127105</hAcc><vAcc>0.457773</vAcc></extensions></trkpt>
      <trkpt lon="-3.035276" lat="52.705527"><ele>141.123749</ele><time>2022-01-15T09:21:57Z</time><extensions><speed>0.137254</speed><course>346.061737</course><hAcc>2.103952</hAcc><vAcc>0.456786</vAcc></extensions></trkpt>
      <trkpt lon="-3.035277" lat="52.705529"><ele>141.192215</ele><time>2022-01-15T09:21:58Z</time><extensions><speed>0.143543</speed><course>342.005676</course><hAcc>2.084854</hAcc><vAcc>0.456251</vAcc></extensions></trkpt>
      <trkpt lon="-3.035277" lat="52.705530"><ele>141.272507</ele><time>2022-01-15T09:21:59Z</time><extensions><speed>0.145818</speed><course>339.230682</course><hAcc>2.065868</hAcc><vAcc>0.455254</vAcc></extensions></trkpt>
      <trkpt lon="-3.035278" lat="52.705531"><ele>141.364868</ele><time>2022-01-15T09:22:00Z</time><extensions><speed>0.131169</speed><course>340.204620</course><hAcc>2.053863</hAcc><vAcc>0.453282</vAcc></extensions></trkpt>
      <trkpt lon="-3.035279" lat="52.705532"><ele>141.457840</ele><time>2022-01-15T09:22:01Z</time><extensions><speed>0.101924</speed><course>347.136230</course><hAcc>2.060034</hAcc><vAcc>0.450170</vAcc></extensions></trkpt>
      <trkpt lon="-3.035279" lat="52.705533"><ele>141.570496</ele><time>2022-01-15T09:22:02Z</time><extensions><speed>0.069019</speed><course>359.327087</course><hAcc>2.080370</hAcc><vAcc>0.446112</vAcc></extensions></trkpt>
      <trkpt lon="-3.035279" lat="52.705533"><ele>141.667877</ele><time>2022-01-15T09:22:03Z</time><extensions><speed>0.057063</speed><course>15.019311</course><hAcc>2.070021</hAcc><vAcc>0.441826</vAcc></extensions></trkpt>
      <trkpt lon="-3.035279" lat="52.705533"><ele>141.754486</ele><time>2022-01-15T09:22:04Z</time><extensions><speed>0.038131</speed><course>29.477463</course><hAcc>2.041275</hAcc><vAcc>0.438194</vAcc></extensions></trkpt>
      <trkpt lon="-3.035279" lat="52.705534"><ele>141.832245</ele><time>2022-01-15T09:22:05Z</time><extensions><speed>0.006013</speed><course>127.515182</course><hAcc>2.027297</hAcc><vAcc>0.435588</vAcc></extensions></trkpt>
      <trkpt lon="-3.035279" lat="52.705533"><ele>141.897995</ele><time>2022-01-15T09:22:06Z</time><extensions><speed>0.041028</speed><course>200.495865</course><hAcc>2.052813</hAcc><vAcc>0.433651</vAcc></extensions></trkpt>
      <trkpt lon="-3.035279" lat="52.705533"><ele>141.947174</ele><time>2022-01-15T09:22:07Z</time><extensions><speed>0.065001</speed><course>204.502853</course><hAcc>2.099339</hAcc><vAcc>0.431516</vAcc></extensions></trkpt>
      <trkpt lon="-3.035280" lat="52.705532"><ele>141.976151</ele><time>2022-01-15T09:22:08Z</time><extensions><speed>0.111772</speed><course>207.108612</course><hAcc>2.094210</hAcc><vAcc>0.428766</vAcc></extensions></trkpt>
      <trkpt lon="-3.035281" lat="52.705531"><ele>141.982758</ele><time>2022-01-15T09:22:09Z</time><extensions><speed>0.149387</speed><course>211.296722</course><hAcc>2.086896</hAcc><vAcc>0.425788</vAcc></extensions></trkpt>
      <trkpt lon="-3.035282" lat="52.705530"><ele>141.968765</ele><time>2022-01-15T09:22:10Z</time><extensions><speed>0.159888</speed><course>217.828888</course><hAcc>2.094589</hAcc><vAcc>0.423604</vAcc></extensions></trkpt>
      <trkpt lon="-3.035284" lat="52.705529"><ele>141.939911</ele><time>2022-01-15T09:22:11Z</time><extensions><speed>0.161417</speed><course>226.090042</course><hAcc>2.094905</hAcc><vAcc>0.423345</vAcc></extensions></trkpt>
      <trkpt lon="-3.035286" lat="52.705528"><ele>141.892242</ele><time>2022-01-15T09:22:12Z</time><extensions><speed>0.155820</speed><course>232.649078</course><hAcc>2.083248</hAcc><vAcc>0.425837</vAcc></extensions></trkpt>
      <trkpt lon="-3.035287" lat="52.705527"><ele>141.830872</ele><time>2022-01-15T09:22:13Z</time><extensions><speed>0.124983</speed><course>236.030899</course><hAcc>2.086065</hAcc><vAcc>0.431291</vAcc></extensions></trkpt>
      <trkpt lon="-3.035289" lat="52.705527"><ele>141.763443</ele><time>2022-01-15T09:22:14Z</time><extensions><speed>0.086122</speed><course>237.462646</course><hAcc>2.104948</hAcc><vAcc>0.439259</vAcc></extensions></trkpt>
      <trkpt lon="-3.035289" lat="52.705526"><ele>141.695908</ele><time>2022-01-15T09:22:15Z</time><extensions><speed>0.052548</speed><course>238.304443</course><hAcc>2.117582</hAcc><vAcc>0.448856</vAcc></extensions></trkpt>
      <trkpt lon="-3.035290" lat="52.705526"><ele>141.627823</ele><time>2022-01-15T09:22:16Z</time><extensions><speed>0.056115</speed><course>239.692642</course><hAcc>2.069609</hAcc><vAcc>0.459164</vAcc></extensions></trkpt>
      <trkpt lon="-3.035291" lat="52.705526"><ele>141.561172</ele><time>2022-01-15T09:22:17Z</time><extensions><speed>0.054503</speed><course>242.923294</course><hAcc>2.037659</hAcc><vAcc>0.469454</vAcc></extensions></trkpt>
      <trkpt lon="-3.035292" lat="52.705526"><ele>141.498322</ele><time>2022-01-15T09:22:18Z</time><extensions><speed>0.050849</speed><course>251.709229</course><hAcc>2.032926</hAcc><vAcc>0.479174</vAcc></extensions></trkpt>
      <trkpt lon="-3.035293" lat="52.705526"><ele>141.439926</ele><time>2022-01-15T09:22:19Z</time><extensions><speed>0.048388</speed><course>276.665253</course><hAcc>2.037928</hAcc><vAcc>0.487910</vAcc></extensions></trkpt>
      <trkpt lon="-3.035293" lat="52.705526"><ele>141.384171</ele><time>2022-01-15T09:22:20Z</time><extensions><speed>0.066933</speed><course>306.069336</course><hAcc>2.042231</hAcc><vAcc>0.495304</vAcc></extensions></trkpt>
      <trkpt lon="-3.035294" lat="52.705526"><ele>141.329468</ele><time>2022-01-15T09:22:21Z</time><extensions><speed>0.105361</speed><course>314.667297</course><hAcc>2.042119</hAcc><vAcc>0.501020</vAcc></extensions></trkpt>
      <trkpt lon="-3.035296" lat="52.705527"><ele>141.278305</ele><time>2022-01-15T09:22:22Z</time><extensions><speed>0.141828</speed><course>308.183868</course><hAcc>2.050703</hAcc><vAcc>0.504861</vAcc></extensions></trkpt>
      <trkpt lon="-3.035298" lat="52.705528"><ele>141.233856</ele><time>2022-01-15T09:22:23Z</time><extensions><speed>0.160662</speed><course>296.498505</course><hAcc>2.080374</hAcc><vAcc>0.506870</vAcc></extensions></trkpt>
      <trkpt lon="-3.035301" lat="52.705528"><ele>141.197861</ele><time>2022-01-15T09:22:24Z</time><extensions><speed>0.189374</speed><course>283.075043</course><hAcc>2.103629</hAcc><vAcc>0.507297</vAcc></extensions></trkpt>
      <trkpt lon="-3.035304" lat="52.705529"><ele>141.166473</ele><time>2022-01-15T09:22:25Z</time><extensions><speed>0.237197</speed><course>270.251251</course><hAcc>2.114813</hAcc><vAcc>0.506483</vAcc></extensions></trkpt>
      <trkpt lon="-3.035308" lat="52.705529"><ele>141.143295</ele><time>2022-01-15T09:22:26Z</time><extensions><speed>0.296470</speed><course>261.600647</course><hAcc>2.123868</hAcc><vAcc>0.504715</vAcc></extensions></trkpt>
      <trkpt lon="-3.035313" lat="52.705528"><ele>141.131790</ele><time>2022-01-15T09:22:27Z</time><extensions><speed>0.335553</speed><course>258.792511</course><hAcc>2.140006</hAcc><vAcc>0.502178</vAcc></extensions></trkpt>
      <trkpt lon="-3.035319" lat="52.705528"><ele>141.118439</ele><time>2022-01-15T09:22:28Z</time><extensions><speed>0.362183</speed><course>261.594055</course><hAcc>2.152559</hAcc><vAcc>0.499066</vAcc></extensions></trkpt>
      <trkpt lon="-3.035324" lat="52.705528"><ele>141.123398</ele><time>2022-01-15T09:22:29Z</time><extensions><speed>0.383725</speed><course>267.930206</course><hAcc>2.163817</hAcc><vAcc>0.495656</vAcc></extensions></trkpt>
      <trkpt lon="-3.035330" lat="52.705528"><ele>141.136581</ele><time>2022-01-15T09:22:30Z</time><extensions><speed>0.407106</speed><course>275.903687</course><hAcc>2.177192</hAcc><vAcc>0.492302</vAcc></extensions></trkpt>
      <trkpt lon="-3.035337" lat="52.705529"><ele>141.146118</ele><time>2022-01-15T09:22:31Z</time><extensions><speed>0.462353</speed><course>283.677612</course><hAcc>2.186285</hAcc><vAcc>0.489373</vAcc></extensions></trkpt>
      <trkpt lon="-3.035344" lat="52.705530"><ele>141.160568</ele><time>2022-01-15T09:22:32Z</time><extensions><speed>0.507389</speed><course>290.232819</course><hAcc>2.200331</hAcc><vAcc>0.487002</vAcc></extensions></trkpt>
      <trkpt lon="-3.035351" lat="52.705532"><ele>141.173096</ele><time>2022-01-15T09:22:33Z</time><extensions><speed>0.557310</speed><course>296.142578</course><hAcc>2.214335</hAcc><vAcc>0.485052</vAcc></extensions></trkpt>
      <trkpt lon="-3.035358" lat="52.705535"><ele>141.187637</ele><time>2022-01-15T09:22:34Z</time><extensions><speed>0.600740</speed><course>301.977600</course><hAcc>2.227827</hAcc><vAcc>0.483217</vAcc></extensions></trkpt>
      <trkpt lon="-3.035366" lat="52.705538"><ele>141.202316</ele><time>2022-01-15T09:22:35Z</time><extensions><speed>0.659377</speed><course>308.018616</course><hAcc>2.235455</hAcc><vAcc>0.481221</vAcc></extensions></trkpt>
      <trkpt lon="-3.035374" lat="52.705542"><ele>141.212128</ele><time>2022-01-15T09:22:36Z</time><extensions><speed>0.733739</speed><course>313.284851</course><hAcc>2.237367</hAcc><vAcc>0.479008</vAcc></extensions></trkpt>
      <trkpt lon="-3.035382" lat="52.705547"><ele>141.219711</ele><time>2022-01-15T09:22:37Z</time><extensions><speed>0.830709</speed><course>317.303192</course><hAcc>2.234889</hAcc><vAcc>0.476785</vAcc></extensions></trkpt>
      <trkpt lon="-3.035391" lat="52.705553"><ele>141.218292</ele><time>2022-01-15T09:22:38Z</time><extensions><speed>0.959073</speed><course>319.951843</course><hAcc>2.232906</hAcc><vAcc>0.474927</vAcc></extensions></trkpt>
      <trkpt lon="-3.035401" lat="52.705560"><ele>141.214279</ele><time>2022-01-15T09:22:39Z</time><extensions><speed>0.962880</speed><course>319.194611</course><hAcc>2.239448</hAcc><vAcc>0.473733</vAcc></extensions></trkpt>
      <trkpt lon="-3.035410" lat="52.705566"><ele>141.205307</ele><time>2022-01-15T09:22:40Z</time><extensions><speed>0.862930</speed><course>318.666870</course><hAcc>2.249130</hAcc><vAcc>0.473128</vAcc></extensions></trkpt>
      <trkpt lon="-3.035417" lat="52.705571"><ele>141.198868</ele><time>2022-01-15T09:22:41Z</time><extensions><speed>0.640115</speed><course>316.068848</course><hAcc>2.254410</hAcc><vAcc>0.472633</vAcc></extensions></trkpt>
      <trkpt lon="-3.035424" lat="52.705574"><ele>141.195023</ele><time>2022-01-15T09:22:42Z</time><extensions><speed>0.600999</speed><course>309.622681</course><hAcc>2.242496</hAcc><vAcc>0.471671</vAcc></extensions></trkpt>
      <trkpt lon="-3.035432" lat="52.705578"><ele>141.186768</ele><time>2022-01-15T09:22:43Z</time><extensions><speed>0.677862</speed><course>301.599426</course><hAcc>2.232599</hAcc><vAcc>0.469983</vAcc></extensions></trkpt>
      <trkpt lon="-3.035441" lat="52.705580"><ele>141.179688</ele><time>2022-01-15T09:22:44Z</time><extensions><speed>0.705308</speed><course>288.556305</course><hAcc>2.244036</hAcc><vAcc>0.467803</vAcc></extensions></trkpt>
      <trkpt lon="-3.035451" lat="52.705581"><ele>141.175247</ele><time>2022-01-15T09:22:45Z</time><extensions><speed>0.696181</speed><course>271.896637</course><hAcc>2.265659</hAcc><vAcc>0.465764</vAcc></extensions></trkpt>
      <trkpt lon="-3.035461" lat="52.705580"><ele>141.167969</ele><time>2022-01-15T09:22:46Z</time><extensions><speed>0.689532</speed><course>253.579605</course><hAcc>2.286077</hAcc><vAcc>0.464658</vAcc></extensions></trkpt>
      <trkpt lon="-3.035472" lat="52.705578"><ele>141.156937</ele><time>2022-01-15T09:22:47Z</time><extensions><speed>0.823809</speed><course>243.044678</course><hAcc>2.282691</hAcc><vAcc>0.465242</vAcc></extensions></trkpt>
      <trkpt lon="-3.035484" lat="52.705574"><ele>141.147934</ele><time>2022-01-15T09:22:48Z</time><extensions><speed>1.030557</speed><course>238.865219</course><hAcc>2.257948</hAcc><vAcc>0.468171</vAcc></extensions></trkpt>
      <trkpt lon="-3.035499" lat="52.705568"><ele>141.130264</ele><time>2022-01-15T09:22:49Z</time><extensions><speed>1.311646</speed><course>238.537674</course><hAcc>2.224330</hAcc><vAcc>0.473851</vAcc></extensions></trkpt>
      <trkpt lon="-3.035516" lat="52.705562"><ele>141.107620</ele><time>2022-01-15T09:22:50Z</time><extensions><speed>1.393805</speed><course>239.505127</course><hAcc>2.214477</hAcc><vAcc>0.482289</vAcc></extensions></trkpt>
      <trkpt lon="-3.035534" lat="52.705556"><ele>141.086227</ele><time>2022-01-15T09:22:51Z</time><extensions><speed>1.339903</speed><course>240.462479</course><hAcc>2.208408</hAcc><vAcc>0.493064</vAcc></extensions></trkpt>
      <trkpt lon="-3.035551" lat="52.705550"><ele>141.069366</ele><time>2022-01-15T09:22:52Z</time><extensions><speed>1.319338</speed><course>238.291626</course><hAcc>2.166412</hAcc><vAcc>0.505582</vAcc></extensions></trkpt>
      <trkpt lon="-3.035567" lat="52.705543"><ele>141.068436</ele><time>2022-01-15T09:22:53Z</time><extensions><speed>1.282038</speed><course>236.778275</course><hAcc>2.116235</hAcc><vAcc>0.519262</vAcc></extensions></trkpt>
      <trkpt lon="-3.035583" lat="52.705537"><ele>141.052185</ele><time>2022-01-15T09:22:54Z</time><extensions><speed>1.241779</speed><course>236.312881</course><hAcc>2.076175</hAcc><vAcc>0.533559</vAcc></extensions></trkpt>
      <trkpt lon="-3.035598" lat="52.705531"><ele>141.035675</ele><time>2022-01-15T09:22:55Z</time><extensions><speed>1.153234</speed><course>237.670563</course><hAcc>2.062508</hAcc><vAcc>0.547918</vAcc></extensions></trkpt>
      <trkpt lon="-3.035612" lat="52.705526"><ele>141.040314</ele><time>2022-01-15T09:22:56Z</time><extensions><speed>1.098470</speed><course>241.129044</course><hAcc>2.045953</hAcc><vAcc>0.561884</vAcc></extensions></trkpt>
      <trkpt lon="-3.035628" lat="52.705521"><ele>141.044098</ele><time>2022-01-15T09:22:57Z</time><extensions><speed>1.162714</speed><course>246.578720</course><hAcc>1.982836</hAcc><vAcc>0.575041</vAcc></extensions></trkpt>
      <trkpt lon="-3.035644" lat="52.705518"><ele>141.037262</ele><time>2022-01-15T09:22:58Z</time><extensions><speed>1.181051</speed><course>251.475510</course><hAcc>1.930425</hAcc><vAcc>0.587130</vAcc></extensions></trkpt>
      <trkpt lon="-3.035660" lat="52.705515"><ele>141.030472</ele><time>2022-01-15T09:22:59Z</time><extensions><speed>1.101439</speed><course>255.647552</course><hAcc>1.909316</hAcc><vAcc>0.598058</vAcc></extensions></trkpt>
      <trkpt lon="-3.035677" lat="52.705512"><ele>141.027969</ele><time>2022-01-15T09:23:00Z</time><extensions><speed>1.179211</speed><course>258.078949</course><hAcc>1.873479</hAcc><vAcc>0.607861</vAcc></extensions></trkpt>
      <trkpt lon="-3.035694" lat="52.705510"><ele>141.022720</ele><time>2022-01-15T09:23:01Z</time><extensions><speed>1.188906</speed><course>259.750458</course><hAcc>1.876269</hAcc><vAcc>0.616609</vAcc></extensions></trkpt>
      <trkpt lon="-3.035712" lat="52.705509"><ele>141.011215</ele><time>2022-01-15T09:23:02Z</time><extensions><speed>1.203225</speed><course>262.325897</course><hAcc>1.889474</hAcc><vAcc>0.624449</vAcc></extensions></trkpt>
      <trkpt lon="-3.035731" lat="52.705507"><ele>140.987793</ele><time>2022-01-15T09:23:03Z</time><extensions><speed>1.368484</speed><course>263.467438</course><hAcc>1.866060</hAcc><vAcc>0.631600</vAcc></extensions></trkpt>
      <trkpt lon="-3.035752" lat="52.705506"><ele>140.957397</ele><time>2022-01-15T09:23:04Z</time><extensions><speed>1.540480</speed><course>262.646271</course><hAcc>1.840909</hAcc><vAcc>0.638334</vAcc></extensions></trkpt>
      <trkpt lon="-3.035775" lat="52.705504"><ele>140.923523</ele><time>2022-01-15T09:23:05Z</time><extensions><speed>1.603051</speed><course>260.147064</course><hAcc>1.840024</hAcc><vAcc>0.644913</vAcc></extensions></trkpt>
      <trkpt lon="-3.035798" lat="52.705501"><ele>140.892181</ele><time>2022-01-15T09:23:06Z</time><extensions><speed>1.586539</speed><course>257.947754</course><hAcc>1.840528</hAcc><vAcc>0.651561</vAcc></extensions></trkpt>
      <trkpt lon="-3.035821" lat="52.705498"><ele>140.849609</ele><time>2022-01-15T09:23:07Z</time><extensions><speed>1.544186</speed><course>256.928650</course><hAcc>1.839562</hAcc><vAcc>0.658442</vAcc></extensions></trkpt>
      <trkpt lon="-3.035843" lat="52.705495"><ele>140.814331</ele><time>2022-01-15T09:23:08Z</time><extensions><speed>1.472229</speed><course>255.895905</course><hAcc>1.840715</hAcc><vAcc>0.665636</vAcc></extensions></trkpt>
      <trkpt lon="-3.035864" lat="52.705491"><ele>140.763535</ele><time>2022-01-15T09:23:09Z</time><extensions><speed>1.412017</speed><course>254.531143</course><hAcc>1.845511</hAcc><vAcc>0.673080</vAcc></extensions></trkpt>
      <trkpt lon="-3.035883" lat="52.705488"><ele>140.713379</ele><time>2022-01-15T09:23:10Z</time><extensions><speed>1.348302</speed><course>252.390671</course><hAcc>1.851853</hAcc><vAcc>0.680665</vAcc></extensions></trkpt>
      <trkpt lon="-3.035902" lat="52.705484"><ele>140.671066</ele><time>2022-01-15T09:23:11Z</time><extensions><speed>1.353935</speed><course>250.008072</course><hAcc>1.814806</hAcc><vAcc>0.688195</vAcc></extensions></trkpt>
      <trkpt lon="-3.035921" lat="52.705479"><ele>140.630188</ele><time>2022-01-15T09:23:12Z</time><extensions><speed>1.376301</speed><course>248.261475</course><hAcc>1.787361</hAcc><vAcc>0.695421</vAcc></extensions></trkpt>
      <trkpt lon="-3.035940" lat="52.705475"><ele>140.595886</ele><time>2022-01-15T09:23:13Z</time><extensions><speed>1.381468</speed><course>246.737518</course><hAcc>1.794554</hAcc><vAcc>0.702154</vAcc></extensions></trkpt>
      <trkpt lon="-3.035959" lat="52.705469"><ele>140.565430</ele><time>2022-01-15T09:23:14Z</time><extensions><speed>1.448455</speed><course>246.014114</course><hAcc>1.777164</hAcc><vAcc>0.708309</vAcc></extensions></trkpt>
      <trkpt lon="-3.035979" lat="52.705464"><ele>140.549835</ele><time>2022-01-15T09:23:15Z</time><extensions><speed>1.408358</speed><course>246.013702</course><hAcc>1.784719</hAcc><vAcc>0.713765</vAcc></extensions></trkpt>
      <trkpt lon="-3.035999" lat="52.705459"><ele>140.528839</ele><time>2022-01-15T09:23:16Z</time><extensions><speed>1.495143</speed><course>248.452805</course><hAcc>1.767276</hAcc><vAcc>0.718497</vAcc></extensions></trkpt>
      <trkpt lon="-3.036019" lat="52.705454"><ele>140.492020</ele><time>2022-01-15T09:23:17Z</time><extensions><speed>1.481504</speed><course>249.543320</course><hAcc>1.784106</hAcc><vAcc>0.722510</vAcc></extensions></trkpt>
      <trkpt lon="-3.036039" lat="52.705450"><ele>140.460571</ele><time>2022-01-15T09:23:18Z</time><extensions><speed>1.371670</speed><course>249.903000</course><hAcc>1.801857</hAcc><vAcc>0.725779</vAcc></extensions></trkpt>
      <trkpt lon="-3.036058" lat="52.705446"><ele>140.436569</ele><time>2022-01-15T09:23:19Z</time><extensions><speed>1.407091</speed><course>250.071762</course><hAcc>1.798078</hAcc><vAcc>0.728355</vAcc></extensions></trkpt>
      <trkpt lon="-3.036078" lat="52.705441"><ele>140.424820</ele><time>2022-01-15T09:23:20Z</time><extensions><speed>1.418765</speed><course>249.622849</course><hAcc>1.814058</hAcc><vAcc>0.730349</vAcc></extensions></trkpt>
      <trkpt lon="-3.036098" lat="52.705437"><ele>140.392960</ele><time>2022-01-15T09:23:21Z</time><extensions><speed>1.458620</speed><course>248.878143</course><hAcc>1.820084</hAcc><vAcc>0.731818</vAcc></extensions></trkpt>
      <trkpt lon="-3.036118" lat="52.705432"><ele>140.367676</ele><time>2022-01-15T09:23:22Z</time><extensions><speed>1.452509</speed><course>248.664566</course><hAcc>1.822558</hAcc><vAcc>0.732810</vAcc></extensions></trkpt>
      <trkpt lon="-3.036138" lat="52.705427"><ele>140.353027</ele><time>2022-01-15T09:23:23Z</time><extensions><speed>1.482594</speed><course>248.560623</course><hAcc>1.823849</hAcc><vAcc>0.733311</vAcc></extensions></trkpt>
      <trkpt lon="-3.036159" lat="52.705422"><ele>140.321701</ele><time>2022-01-15T09:23:24Z</time><extensions><speed>1.487191</speed><course>248.169952</course><hAcc>1.816680</hAcc><vAcc>0.733232</vAcc></extensions></trkpt>
      <trkpt lon="-3.036179" lat="52.705417"><ele>140.275040</ele><time>2022-01-15T09:23:25Z</time><extensions><speed>1.493434</speed><course>247.312012</course><hAcc>1.812884</hAcc><vAcc>0.732735</vAcc></extensions></trkpt>
      <trkpt lon="-3.036200" lat="52.705412"><ele>140.234848</ele><time>2022-01-15T09:23:26Z</time><extensions><speed>1.486222</speed><course>246.221603</course><hAcc>1.829117</hAcc><vAcc>0.731778</vAcc></extensions></trkpt>
      <trkpt lon="-3.036220" lat="52.705406"><ele>140.199005</ele><time>2022-01-15T09:23:27Z</time><extensions><speed>1.496194</speed><course>245.101624</course><hAcc>1.829086</hAcc><vAcc>0.730345</vAcc></extensions></trkpt>
      <trkpt lon="-3.036240" lat="52.705400"><ele>140.159424</ele><time>2022-01-15T09:23:28Z</time><extensions><speed>1.543231</speed><course>244.210327</course><hAcc>1.797832</hAcc><vAcc>0.728429</vAcc></extensions></trkpt>
      <trkpt lon="-3.036261" lat="52.705394"><ele>140.123459</ele><time>2022-01-15T09:23:29Z</time><extensions><speed>1.543038</speed><course>244.144470</course><hAcc>1.796995</hAcc><vAcc>0.726032</vAcc></extensions></trkpt>
      <trkpt lon="-3.036281" lat="52.705388"><ele>140.085358</ele><time>2022-01-15T09:23:30Z</time><extensions><speed>1.531112</speed><course>244.752487</course><hAcc>1.818705</hAcc><vAcc>0.723246</vAcc></extensions></trkpt>
      <trkpt lon="-3.036302" lat="52.705383"><ele>140.054276</ele><time>2022-01-15T09:23:31Z</time><extensions><speed>1.475767</speed><course>245.617249</course><hAcc>1.831334</hAcc><vAcc>0.720206</vAcc></extensions></trkpt>
      <trkpt lon="-3.036321" lat="52.705377"><ele>140.007446</ele><time>2022-01-15T09:23:32Z</time><extensions><speed>1.473292</speed><course>245.831543</course><hAcc>1.828263</hAcc><vAcc>0.717073</vAcc></extensions></trkpt>
      <trkpt lon="-3.036341" lat="52.705372"><ele>139.962906</ele><time>2022-01-15T09:23:33Z</time><extensions><speed>1.438904</speed><course>245.458191</course><hAcc>1.839579</hAcc><vAcc>0.714028</vAcc></extensions></trkpt>
      <trkpt lon="-3.036360" lat="52.705366"><ele>139.928528</ele><time>2022-01-15T09:23:34Z</time><extensions><speed>1.435260</speed><course>245.514297</course><hAcc>1.851227</hAcc><vAcc>0.711254</vAcc></extensions></trkpt>
      <trkpt lon="-3.036380" lat="52.705361"><ele>139.898514</ele><time>2022-01-15T09:23:35Z</time><extensions><speed>1.462801</speed><course>246.821304</course><hAcc>1.867878</hAcc><vAcc>0.708892</vAcc></extensions></trkpt>
      <trkpt lon="-3.036400" lat="52.705356"><ele>139.859665</ele><time>2022-01-15T09:23:36Z</time><extensions><speed>1.490667</speed><course>247.571838</course><hAcc>1.875646</hAcc><vAcc>0.707006</vAcc></extensions></trkpt>
      <trkpt lon="-3.036421" lat="52.705351"><ele>139.843979</ele><time>2022-01-15T09:23:37Z</time><extensions><speed>1.486222</speed><course>248.377899</course><hAcc>1.871579</hAcc><vAcc>0.705657</vAcc></extensions></trkpt>
      <trkpt lon="-3.036441" lat="52.705346"><ele>139.814270</ele><time>2022-01-15T09:23:38Z</time><extensions><speed>1.437737</speed><course>248.395264</course><hAcc>1.870021</hAcc><vAcc>0.704778</vAcc></extensions></trkpt>
      <trkpt lon="-3.036460" lat="52.705341"><ele>139.774765</ele><time>2022-01-15T09:23:39Z</time><extensions><speed>1.360325</speed><course>248.456619</course><hAcc>1.862904</hAcc><vAcc>0.704380</vAcc></extensions></trkpt>
      <trkpt lon="-3.036478" lat="52.705337"><ele>139.723068</ele><time>2022-01-15T09:23:40Z</time><extensions><speed>1.272054</speed><course>248.544968</course><hAcc>1.867868</hAcc><vAcc>0.704367</vAcc></extensions></trkpt>
      <trkpt lon="-3.036496" lat="52.705333"><ele>139.687881</ele><time>2022-01-15T09:23:41Z</time><extensions><speed>1.266484</speed><course>247.260925</course><hAcc>1.873425</hAcc><vAcc>0.704676</vAcc></extensions></trkpt>
      <trkpt lon="-3.036513" lat="52.705328"><ele>139.661896</ele><time>2022-01-15T09:23:42Z</time><extensions><speed>1.297560</speed><course>245.472855</course><hAcc>1.886647</hAcc><vAcc>0.705262</vAcc></extensions></trkpt>
      <trkpt lon="-3.036531" lat="52.705323"><ele>139.631683</ele><time>2022-01-15T09:23:43Z</time><extensions><speed>1.369118</speed><course>244.314178</course><hAcc>1.878039</hAcc><vAcc>0.706054</vAcc></extensions></trkpt>
      <trkpt lon="-3.036550" lat="52.705317"><ele>139.608505</ele><time>2022-01-15T09:23:44Z</time><extensions><speed>1.449705</speed><course>244.087219</course><hAcc>1.858375</hAcc><vAcc>0.707044</vAcc></extensions></trkpt>
      <trkpt lon="-3.036570" lat="52.705312"><ele>139.573547</ele><time>2022-01-15T09:23:45Z</time><extensions><speed>1.511758</speed><course>244.593948</course><hAcc>1.835681</hAcc><vAcc>0.708232</vAcc></extensions></trkpt>
      <trkpt lon="-3.036591" lat="52.705306"><ele>139.534348</ele><time>2022-01-15T09:23:46Z</time><extensions><speed>1.612622</speed><course>245.799026</course><hAcc>1.801812</hAcc><vAcc>0.709615</vAcc></extensions></trkpt>
      <trkpt lon="-3.036613" lat="52.705300"><ele>139.493347</ele><time>2022-01-15T09:23:47Z</time><extensions><speed>1.713154</speed><course>246.871872</course><hAcc>1.754772</hAcc><vAcc>0.711160</vAcc></extensions></trkpt>
      <trkpt lon="-3.036637" lat="52.705293"><ele>139.461288</ele><time>2022-01-15T09:23:48Z</time><extensions><speed>1.787534</speed><course>247.891739</course><hAcc>1.708082</hAcc><vAcc>0.712872</vAcc></extensions></trkpt>
      <trkpt lon="-3.036662" lat="52.705288"><ele>139.431244</ele><time>2022-01-15T09:23:49Z</time><extensions><speed>1.817893</speed><course>249.472595</course><hAcc>1.697698</hAcc><vAcc>0.714703</vAcc></extensions></trkpt>
      <trkpt lon="-3.036687" lat="52.705282"><ele>139.411987</ele><time>2022-01-15T09:23:50Z</time><extensions><speed>1.828105</speed><course>249.689194</course><hAcc>1.660637</hAcc><vAcc>0.716621</vAcc></extensions></trkpt>
      <trkpt lon="-3.036712" lat="52.705276"><ele>139.379013</ele><time>2022-01-15T09:23:51Z</time><extensions><speed>1.877372</speed><course>248.534607</course><hAcc>1.616172</hAcc><vAcc>0.718564</vAcc></extensions></trkpt>
      <trkpt lon="-3.036738" lat="52.705269"><ele>139.321426</ele><time>2022-01-15T09:23:52Z</time><extensions><speed>1.858392</speed><course>245.150223</course><hAcc>1.590740</hAcc><vAcc>0.720418</vAcc></extensions></trkpt>
      <trkpt lon="-3.036762" lat="52.705262"><ele>139.265778</ele><time>2022-01-15T09:23:53Z</time><extensions><speed>1.856558</speed><course>243.729462</course><hAcc>1.573190</hAcc><vAcc>0.722161</vAcc></extensions></trkpt>
      <trkpt lon="-3.036786" lat="52.705255"><ele>139.211655</ele><time>2022-01-15T09:23:54Z</time><extensions><speed>1.833867</speed><course>241.535965</course><hAcc>1.556627</hAcc><vAcc>0.723755</vAcc></extensions></trkpt>
      <trkpt lon="-3.036810" lat="52.705247"><ele>139.157227</ele><time>2022-01-15T09:23:55Z</time><extensions><speed>1.808484</speed><course>241.308334</course><hAcc>1.547747</hAcc><vAcc>0.725182</vAcc></extensions></trkpt>
      <trkpt lon="-3.036833" lat="52.705240"><ele>139.102707</ele><time>2022-01-15T09:23:56Z</time><extensions><speed>1.785345</speed><course>242.318207</course><hAcc>1.548531</hAcc><vAcc>0.726436</vAcc></extensions></trkpt>
      <trkpt lon="-3.036856" lat="52.705232"><ele>139.036530</ele><time>2022-01-15T09:23:57Z</time><extensions><speed>1.746351</speed><course>243.623978</course><hAcc>1.540730</hAcc><vAcc>0.727496</vAcc></extensions></trkpt>
      <trkpt lon="-3.036879" lat="52.705226"><ele>138.966171</ele><time>2022-01-15T09:23:58Z</time><extensions><speed>1.710188</speed><course>244.843735</course><hAcc>1.538758</hAcc><vAcc>0.728377</vAcc></extensions></trkpt>
      <trkpt lon="-3.036901" lat="52.705219"><ele>138.882248</ele><time>2022-01-15T09:23:59Z</time><extensions><speed>1.694993</speed><course>244.013336</course><hAcc>1.546830</hAcc><vAcc>0.729149</vAcc></extensions></trkpt>
      <trkpt lon="-3.036923" lat="52.705213"><ele>138.788788</ele><time>2022-01-15T09:24:00Z</time><extensions><speed>1.682988</speed><course>243.284164</course><hAcc>1.552131</hAcc><vAcc>0.729861</vAcc></extensions></trkpt>
      <trkpt lon="-3.036945" lat="52.705206"><ele>138.709839</ele><time>2022-01-15T09:24:01Z</time><extensions><speed>1.651479</speed><course>242.647659</course><hAcc>1.545938</hAcc><vAcc>0.730543</vAcc></extensions></trkpt>
      <trkpt lon="-3.036966" lat="52.705199"><ele>138.628510</ele><time>2022-01-15T09:24:02Z</time><extensions><speed>1.633174</speed><course>244.403229</course><hAcc>1.548898</hAcc><vAcc>0.731217</vAcc></extensions></trkpt>
      <trkpt lon="-3.036988" lat="52.705193"><ele>138.548203</ele><time>2022-01-15T09:24:03Z</time><extensions><speed>1.648533</speed><course>247.884384</course><hAcc>1.542846</hAcc><vAcc>0.731938</vAcc></extensions></trkpt>
      <trkpt lon="-3.037011" lat="52.705188"><ele>138.471985</ele><time>2022-01-15T09:24:04Z</time><extensions><speed>1.637988</speed><course>248.764893</course><hAcc>1.534812</hAcc><vAcc>0.732737</vAcc></extensions></trkpt>
      <trkpt lon="-3.037033" lat="52.705183"><ele>138.379807</ele><time>2022-01-15T09:24:05Z</time><extensions><speed>1.642258</speed><course>247.647293</course><hAcc>1.529621</hAcc><vAcc>0.733600</vAcc></extensions></trkpt>
      <trkpt lon="-3.037054" lat="52.705176"><ele>138.299194</ele><time>2022-01-15T09:24:06Z</time><extensions><speed>1.654793</speed><course>243.423187</course><hAcc>1.524920</hAcc><vAcc>0.734560</vAcc></extensions></trkpt>
      <trkpt lon="-3.037076" lat="52.705169"><ele>138.216095</ele><time>2022-01-15T09:24:07Z</time><extensions><speed>1.710361</speed><course>239.570328</course><hAcc>1.527849</hAcc><vAcc>0.735588</vAcc></extensions></trkpt>
      <trkpt lon="-3.037097" lat="52.705161"><ele>138.144714</ele><time>2022-01-15T09:24:08Z</time><extensions><speed>1.694734</speed><course>239.063416</course><hAcc>1.519744</hAcc><vAcc>0.736663</vAcc></extensions></trkpt>
      <trkpt lon="-3.037118" lat="52.705154"><ele>138.072922</ele><time>2022-01-15T09:24:09Z</time><extensions><speed>1.683419</speed><course>239.696182</course><hAcc>1.518859</hAcc><vAcc>0.737819</vAcc></extensions></trkpt>
      <trkpt lon="-3.037139" lat="52.705146"><ele>138.001755</ele><time>2022-01-15T09:24:10Z</time><extensions><speed>1.666594</speed><course>240.888306</course><hAcc>1.518849</hAcc><vAcc>0.739041</vAcc></extensions></trkpt>
      <trkpt lon="-3.037160" lat="52.705139"><ele>137.923874</ele><time>2022-01-15T09:24:11Z</time><extensions><speed>1.699912</speed><course>239.659317</course><hAcc>1.521131</hAcc><vAcc>0.740268</vAcc></extensions></trkpt>
      <trkpt lon="-3.037181" lat="52.705131"><ele>137.854401</ele><time>2022-01-15T09:24:12Z</time><extensions><speed>1.685923</speed><course>238.792984</course><hAcc>1.522649</hAcc><vAcc>0.741436</vAcc></extensions></trkpt>
      <trkpt lon="-3.037202" lat="52.705123"><ele>137.788620</ele><time>2022-01-15T09:24:13Z</time><extensions><speed>1.618231</speed><course>240.004471</course><hAcc>1.518236</hAcc><vAcc>0.742518</vAcc></extensions></trkpt>
      <trkpt lon="-3.037222" lat="52.705116"><ele>137.719879</ele><time>2022-01-15T09:24:14Z</time><extensions><speed>1.598507</speed><course>240.894409</course><hAcc>1.526777</hAcc><vAcc>0.743483</vAcc></extensions></trkpt>
      <trkpt lon="-3.037242" lat="52.705109"><ele>137.652710</ele><time>2022-01-15T09:24:15Z</time><extensions><speed>1.593341</speed><course>239.143677</course><hAcc>1.530633</hAcc><vAcc>0.744303</vAcc></extensions></trkpt>
      <trkpt lon="-3.037262" lat="52.705102"><ele>137.594955</ele><time>2022-01-15T09:24:16Z</time><extensions><speed>1.603759</speed><course>238.614868</course><hAcc>1.530828</hAcc><vAcc>0.745027</vAcc></extensions></trkpt>
      <trkpt lon="-3.037282" lat="52.705095"><ele>137.523865</ele><time>2022-01-15T09:24:17Z</time><extensions><speed>1.601327</speed><course>237.143021</course><hAcc>1.530371</hAcc><vAcc>0.745658</vAcc></extensions></trkpt>
      <trkpt lon="-3.037301" lat="52.705087"><ele>137.447189</ele><time>2022-01-15T09:24:18Z</time><extensions><speed>1.618635</speed><course>234.772690</course><hAcc>1.532291</hAcc><vAcc>0.746209</vAcc></extensions></trkpt>
      <trkpt lon="-3.037320" lat="52.705078"><ele>137.376404</ele><time>2022-01-15T09:24:19Z</time><extensions><speed>1.626884</speed><course>235.761795</course><hAcc>1.539964</hAcc><vAcc>0.746626</vAcc></extensions></trkpt>
      <trkpt lon="-3.037340" lat="52.705070"><ele>137.326340</ele><time>2022-01-15T09:24:20Z</time><extensions><speed>1.650997</speed><course>235.340469</course><hAcc>1.541558</hAcc><vAcc>0.746990</vAcc></extensions></trkpt>
      <trkpt lon="-3.037359" lat="52.705062"><ele>137.273575</ele><time>2022-01-15T09:24:21Z</time><extensions><speed>1.605078</speed><course>236.652267</course><hAcc>1.534613</hAcc><vAcc>0.747336</vAcc></extensions></trkpt>
      <trkpt lon="-3.037379" lat="52.705055"><ele>137.218201</ele><time>2022-01-15T09:24:22Z</time><extensions><speed>1.613303</speed><course>238.064178</course><hAcc>1.536345</hAcc><vAcc>0.747628</vAcc></extensions></trkpt>
      <trkpt lon="-3.037399" lat="52.705047"><ele>137.163345</ele><time>2022-01-15T09:24:23Z</time><extensions><speed>1.555438</speed><course>237.451340</course><hAcc>1.533213</hAcc><vAcc>0.747883</vAcc></extensions></trkpt>
      <trkpt lon="-3.037418" lat="52.705040"><ele>137.124115</ele><time>2022-01-15T09:24:24Z</time><extensions><speed>1.580789</speed><course>238.789612</course><hAcc>1.539225</hAcc><vAcc>0.748105</vAcc></extensions></trkpt>
      <trkpt lon="-3.037437" lat="52.705033"><ele>137.086792</ele><time>2022-01-15T09:24:25Z</time><extensions><speed>1.533705</speed><course>240.478729</course><hAcc>1.533114</hAcc><vAcc>0.748212</vAcc></extensions></trkpt>
      <trkpt lon="-3.037457" lat="52.705026"><ele>137.049698</ele><time>2022-01-15T09:24:26Z</time><extensions><speed>1.536479</speed><course>240.589630</course><hAcc>1.536595</hAcc><vAcc>0.748216</vAcc></extensions></trkpt>
      <trkpt lon="-3.037477" lat="52.705020"><ele>137.001389</ele><time>2022-01-15T09:24:27Z</time><extensions><speed>1.605337</speed><course>241.808197</course><hAcc>1.551748</hAcc><vAcc>0.748080</vAcc></extensions></trkpt>
      <trkpt lon="-3.037497" lat="52.705013"><ele>136.955505</ele><time>2022-01-15T09:24:28Z</time><extensions><speed>1.594059</speed><course>242.023804</course><hAcc>1.548916</hAcc><vAcc>0.747783</vAcc></extensions></trkpt>
      <trkpt lon="-3.037518" lat="52.705006"><ele>136.913269</ele><time>2022-01-15T09:24:29Z</time><extensions><speed>1.564072</speed><course>243.113892</course><hAcc>1.537069</hAcc><vAcc>0.747350</vAcc></extensions></trkpt>
      <trkpt lon="-3.037538" lat="52.705000"><ele>136.870560</ele><time>2022-01-15T09:24:30Z</time><extensions><speed>1.537187</speed><course>244.100494</course><hAcc>1.539939</hAcc><vAcc>0.746725</vAcc></extensions></trkpt>
      <trkpt lon="-3.037558" lat="52.704995"><ele>136.836365</ele><time>2022-01-15T09:24:31Z</time><extensions><speed>1.529016</speed><course>246.965668</course><hAcc>1.552128</hAcc><vAcc>0.745938</vAcc></extensions></trkpt>
      <trkpt lon="-3.037579" lat="52.704989"><ele>136.804733</ele><time>2022-01-15T09:24:32Z</time><extensions><speed>1.578148</speed><course>246.457016</course><hAcc>1.551267</hAcc><vAcc>0.744968</vAcc></extensions></trkpt>
      <trkpt lon="-3.037600" lat="52.704983"><ele>136.776260</ele><time>2022-01-15T09:24:33Z</time><extensions><speed>1.586366</speed><course>245.704239</course><hAcc>1.541689</hAcc><vAcc>0.743862</vAcc></extensions></trkpt>
      <trkpt lon="-3.037622" lat="52.704977"><ele>136.737625</ele><time>2022-01-15T09:24:34Z</time><extensions><speed>1.667169</speed><course>244.297974</course><hAcc>1.553183</hAcc><vAcc>0.742695</vAcc></extensions></trkpt>
      <trkpt lon="-3.037643" lat="52.704971"><ele>136.711166</ele><time>2022-01-15T09:24:35Z</time><extensions><speed>1.637191</speed><course>243.166519</course><hAcc>1.544269</hAcc><vAcc>0.741525</vAcc></extensions></trkpt>
      <trkpt lon="-3.037664" lat="52.704964"><ele>136.672714</ele><time>2022-01-15T09:24:36Z</time><extensions><speed>1.629546</speed><course>242.237656</course><hAcc>1.545046</hAcc><vAcc>0.740356</vAcc></extensions></trkpt>
      <trkpt lon="-3.037685" lat="52.704957"><ele>136.643005</ele><time>2022-01-15T09:24:37Z</time><extensions><speed>1.667337</speed><course>241.816467</course><hAcc>1.554969</hAcc><vAcc>0.739181</vAcc></extensions></trkpt>
      <trkpt lon="-3.037707" lat="52.704950"><ele>136.598160</ele><time>2022-01-15T09:24:38Z</time><extensions><speed>1.660969</speed><course>241.975662</course><hAcc>1.555361</hAcc><vAcc>0.737989</vAcc></extensions></trkpt>
      <trkpt lon="-3.037728" lat="52.704943"><ele>136.569824</ele><time>2022-01-15T09:24:39Z</time><extensions><speed>1.640660</speed><course>242.138763</course><hAcc>1.549635</hAcc><vAcc>0.736745</vAcc></extensions></trkpt>
      <trkpt lon="-3.037750" lat="52.704936"><ele>136.531464</ele><time>2022-01-15T09:24:40Z</time><extensions><speed>1.697321</speed><course>241.732086</course><hAcc>1.559196</hAcc><vAcc>0.735514</vAcc></extensions></trkpt>
      <trkpt lon="-3.037771" lat="52.704929"><ele>136.501923</ele><time>2022-01-15T09:24:41Z</time><extensions><speed>1.670756</speed><course>242.273605</course><hAcc>1.557453</hAcc><vAcc>0.734333</vAcc></extensions></trkpt>
      <trkpt lon="-3.037793" lat="52.704922"><ele>136.477539</ele><time>2022-01-15T09:24:42Z</time><extensions><speed>1.671956</speed><course>242.376938</course><hAcc>1.559712</hAcc><vAcc>0.733198</vAcc></extensions></trkpt>
      <trkpt lon="-3.037814" lat="52.704915"><ele>136.444992</ele><time>2022-01-15T09:24:43Z</time><extensions><speed>1.665609</speed><course>240.322205</course><hAcc>1.563150</hAcc><vAcc>0.732119</vAcc></extensions></trkpt>
      <trkpt lon="-3.037835" lat="52.704907"><ele>136.406143</ele><time>2022-01-15T09:24:44Z</time><extensions><speed>1.646842</speed><course>238.976395</course><hAcc>1.566235</hAcc><vAcc>0.731079</vAcc></extensions></trkpt>
      <trkpt lon="-3.037855" lat="52.704900"><ele>136.353043</ele><time>2022-01-15T09:24:45Z</time><extensions><speed>1.655135</speed><course>237.625259</course><hAcc>1.575551</hAcc><vAcc>0.730087</vAcc></extensions></trkpt>
      <trkpt lon="-3.037875" lat="52.704892"><ele>136.303055</ele><time>2022-01-15T09:24:46Z</time><extensions><speed>1.656623</speed><course>237.355301</course><hAcc>1.581148</hAcc><vAcc>0.729096</vAcc></extensions></trkpt>
      <trkpt lon="-3.037894" lat="52.704884"><ele>136.263641</ele><time>2022-01-15T09:24:47Z</time><extensions><speed>1.675168</speed><course>234.611679</course><hAcc>1.580388</hAcc><vAcc>0.728157</vAcc></extensions></trkpt>
      <trkpt lon="-3.037913" lat="52.704876"><ele>136.225311</ele><time>2022-01-15T09:24:48Z</time><extensions><speed>1.591335</speed><course>237.872864</course><hAcc>1.570490</hAcc><vAcc>0.727416</vAcc></extensions></trkpt>
      <trkpt lon="-3.037932" lat="52.704868"><ele>136.192108</ele><time>2022-01-15T09:24:49Z</time><extensions><speed>1.621677</speed><course>235.336761</course><hAcc>1.576406</hAcc><vAcc>0.726939</vAcc></extensions></trkpt>
      <trkpt lon="-3.037950" lat="52.704860"><ele>136.161652</ele><time>2022-01-15T09:24:50Z</time><extensions><speed>1.536617</speed><course>233.149063</course><hAcc>1.570569</hAcc><vAcc>0.726744</vAcc></extensions></trkpt>
      <trkpt lon="-3.037967" lat="52.704852"><ele>136.115417</ele><time>2022-01-15T09:24:51Z</time><extensions><speed>1.498580</speed><course>231.223450</course><hAcc>1.566102</hAcc><vAcc>0.726819</vAcc></extensions></trkpt>
      <trkpt lon="-3.037984" lat="52.704844"><ele>136.069962</ele><time>2022-01-15T09:24:52Z</time><extensions><speed>1.498888</speed><course>231.272888</course><hAcc>1.564121</hAcc><vAcc>0.727179</vAcc></extensions></trkpt>
      <trkpt lon="-3.038000" lat="52.704836"><ele>136.035690</ele><time>2022-01-15T09:24:53Z</time><extensions><speed>1.440256</speed><course>233.161896</course><hAcc>1.555263</hAcc><vAcc>0.727803</vAcc></extensions></trkpt>
      <trkpt lon="-3.038016" lat="52.704829"><ele>135.989960</ele><time>2022-01-15T09:24:54Z</time><extensions><speed>1.370376</speed><course>229.062408</course><hAcc>1.542783</hAcc><vAcc>0.728607</vAcc></extensions></trkpt>
      <trkpt lon="-3.038031" lat="52.704820"><ele>135.938751</ele><time>2022-01-15T09:24:55Z</time><extensions><speed>1.501663</speed><course>226.326675</course><hAcc>1.548154</hAcc><vAcc>0.729562</vAcc></extensions></trkpt>
      <trkpt lon="-3.038045" lat="52.704811"><ele>135.898041</ele><time>2022-01-15T09:24:56Z</time><extensions><speed>1.463950</speed><course>221.212372</course><hAcc>1.535846</hAcc><vAcc>0.730567</vAcc></extensions></trkpt>
      <trkpt lon="-3.038058" lat="52.704800"><ele>135.851852</ele><time>2022-01-15T09:24:57Z</time><extensions><speed>1.511902</speed><course>217.467499</course><hAcc>1.535729</hAcc><vAcc>0.731513</vAcc></extensions></trkpt>
      <trkpt lon="-3.038072" lat="52.704790"><ele>135.812958</ele><time>2022-01-15T09:24:58Z</time><extensions><speed>1.485382</speed><course>224.513916</course><hAcc>1.534003</hAcc><vAcc>0.732247</vAcc></extensions></trkpt>
      <trkpt lon="-3.038087" lat="52.704782"><ele>135.769806</ele><time>2022-01-15T09:24:59Z</time><extensions><speed>1.406864</speed><course>227.925873</course><hAcc>1.524763</hAcc><vAcc>0.732711</vAcc></extensions></trkpt>
      <trkpt lon="-3.038103" lat="52.704773"><ele>135.732346</ele><time>2022-01-15T09:25:00Z</time><extensions><speed>1.501799</speed><course>227.086639</course><hAcc>1.530985</hAcc><vAcc>0.732760</vAcc></extensions></trkpt>
      <trkpt lon="-3.038119" lat="52.704764"><ele>135.705078</ele><time>2022-01-15T09:25:01Z</time><extensions><speed>1.535950</speed><course>230.485107</course><hAcc>1.537225</hAcc><vAcc>0.732345</vAcc></extensions></trkpt>
      <trkpt lon="-3.038136" lat="52.704755"><ele>135.671448</ele><time>2022-01-15T09:25:02Z</time><extensions><speed>1.511026</speed><course>231.686386</course><hAcc>1.536523</hAcc><vAcc>0.731387</vAcc></extensions></trkpt>
      <trkpt lon="-3.038153" lat="52.704747"><ele>135.640564</ele><time>2022-01-15T09:25:03Z</time><extensions><speed>1.449469</speed><course>232.699738</course><hAcc>1.536601</hAcc><vAcc>0.729849</vAcc></extensions></trkpt>
      <trkpt lon="-3.038170" lat="52.704740"><ele>135.631775</ele><time>2022-01-15T09:25:04Z</time><extensions><speed>1.486946</speed><course>237.231903</course><hAcc>1.556384</hAcc><vAcc>0.727847</vAcc></extensions></trkpt>
      <trkpt lon="-3.038188" lat="52.704732"><ele>135.597107</ele><time>2022-01-15T09:25:05Z</time><extensions><speed>1.477989</speed><course>238.230789</course><hAcc>1.569654</hAcc><vAcc>0.725419</vAcc></extensions></trkpt>
      <trkpt lon="-3.038207" lat="52.704725"><ele>135.565903</ele><time>2022-01-15T09:25:06Z</time><extensions><speed>1.550289</speed><course>237.941116</course><hAcc>1.587810</hAcc><vAcc>0.722613</vAcc></extensions></trkpt>
      <trkpt lon="-3.038226" lat="52.704718"><ele>135.533722</ele><time>2022-01-15T09:25:07Z</time><extensions><speed>1.551118</speed><course>237.421646</course><hAcc>1.593234</hAcc><vAcc>0.719578</vAcc></extensions></trkpt>
      <trkpt lon="-3.038242" lat="52.704711"><ele>135.501923</ele><time>2022-01-15T09:25:08Z</time><extensions><speed>1.302470</speed><course>233.890488</course><hAcc>1.556409</hAcc><vAcc>0.716437</vAcc></extensions></trkpt>
      <trkpt lon="-3.038257" lat="52.704704"><ele>135.454224</ele><time>2022-01-15T09:25:09Z</time><extensions><speed>1.234403</speed><course>232.492264</course><hAcc>1.554672</hAcc><vAcc>0.713329</vAcc></extensions></trkpt>
      <trkpt lon="-3.038271" lat="52.704697"><ele>135.413055</ele><time>2022-01-15T09:25:10Z</time><extensions><speed>1.376361</speed><course>233.008652</course><hAcc>1.587357</hAcc><vAcc>0.710398</vAcc></extensions></trkpt>
      <trkpt lon="-3.038287" lat="52.704689"><ele>135.362762</ele><time>2022-01-15T09:25:11Z</time><extensions><speed>1.521886</speed><course>232.475418</course><hAcc>1.597470</hAcc><vAcc>0.707727</vAcc></extensions></trkpt>
      <trkpt lon="-3.038304" lat="52.704681"><ele>135.308868</ele><time>2022-01-15T09:25:12Z</time><extensions><speed>1.522837</speed><course>230.883972</course><hAcc>1.573928</hAcc><vAcc>0.705494</vAcc></extensions></trkpt>
      <trkpt lon="-3.038321" lat="52.704673"><ele>135.245300</ele><time>2022-01-15T09:25:13Z</time><extensions><speed>1.609794</speed><course>230.770859</course><hAcc>1.571307</hAcc><vAcc>0.703825</vAcc></extensions></trkpt>
      <trkpt lon="-3.038338" lat="52.704666"><ele>135.175690</ele><time>2022-01-15T09:25:14Z</time><extensions><speed>1.500719</speed><course>234.743530</course><hAcc>1.567763</hAcc><vAcc>0.702842</vAcc></extensions></trkpt>
      <trkpt lon="-3.038356" lat="52.704658"><ele>135.097961</ele><time>2022-01-15T09:25:15Z</time><extensions><speed>1.527010</speed><course>234.199524</course><hAcc>1.562339</hAcc><vAcc>0.702588</vAcc></extensions></trkpt>
      <trkpt lon="-3.038373" lat="52.704651"><ele>135.015594</ele><time>2022-01-15T09:25:16Z</time><extensions><speed>1.430419</speed><course>234.113800</course><hAcc>1.553641</hAcc><vAcc>0.703103</vAcc></extensions></trkpt>
      <trkpt lon="-3.038390" lat="52.704644"><ele>134.932114</ele><time>2022-01-15T09:25:17Z</time><extensions><speed>1.460675</speed><course>235.578232</course><hAcc>1.570461</hAcc><vAcc>0.704271</vAcc></extensions></trkpt>
      <trkpt lon="-3.038408" lat="52.704637"><ele>134.840576</ele><time>2022-01-15T09:25:18Z</time><extensions><speed>1.414555</speed><course>236.710236</course><hAcc>1.585706</hAcc><vAcc>0.705971</vAcc></extensions></trkpt>
      <trkpt lon="-3.038425" lat="52.704631"><ele>134.751724</ele><time>2022-01-15T09:25:19Z</time><extensions><speed>1.334693</speed><course>239.786438</course><hAcc>1.607537</hAcc><vAcc>0.708116</vAcc></extensions></trkpt>
      <trkpt lon="-3.038442" lat="52.704624"><ele>134.676300</ele><time>2022-01-15T09:25:20Z</time><extensions><speed>1.353324</speed><course>238.314590</course><hAcc>1.643914</hAcc><vAcc>0.710548</vAcc></extensions></trkpt>
      <trkpt lon="-3.038457" lat="52.704619"><ele>134.592331</ele><time>2022-01-15T09:25:21Z</time><extensions><speed>1.046910</speed><course>241.605194</course><hAcc>1.666370</hAcc><vAcc>0.713051</vAcc></extensions></trkpt>
      <trkpt lon="-3.038467" lat="52.704618"><ele>134.504456</ele><time>2022-01-15T09:25:22Z</time><extensions><speed>0.519396</speed><course>299.275543</course><hAcc>1.671277</hAcc><vAcc>0.715382</vAcc></extensions></trkpt>
      <trkpt lon="-3.038471" lat="52.704623"><ele>134.425323</ele><time>2022-01-15T09:25:23Z</time><extensions><speed>0.862727</speed><course>357.221161</course><hAcc>1.699877</hAcc><vAcc>0.717250</vAcc></extensions></trkpt>
      <trkpt lon="-3.038469" lat="52.704631"><ele>134.361786</ele><time>2022-01-15T09:25:24Z</time><extensions><speed>0.996848</speed><course>14.554205</course><hAcc>1.757904</hAcc><vAcc>0.718282</vAcc></extensions></trkpt>
      <trkpt lon="-3.038465" lat="52.704639"><ele>134.302795</ele><time>2022-01-15T09:25:25Z</time><extensions><speed>0.969444</speed><course>19.574646</course><hAcc>1.797101</hAcc><vAcc>0.718150</vAcc></extensions></trkpt>
      <trkpt lon="-3.038461" lat="52.704647"><ele>134.230759</ele><time>2022-01-15T09:25:26Z</time><extensions><speed>0.697025</speed><course>19.951115</course><hAcc>1.826926</hAcc><vAcc>0.716693</vAcc></extensions></trkpt>
      <trkpt lon="-3.038459" lat="52.704651"><ele>134.184830</ele><time>2022-01-15T09:25:27Z</time><extensions><speed>0.322087</speed><course>4.825947</course><hAcc>1.848929</hAcc><vAcc>0.713804</vAcc></extensions></trkpt>
      <trkpt lon="-3.038460" lat="52.704652"><ele>134.147522</ele><time>2022-01-15T09:25:28Z</time><extensions><speed>0.212650</speed><course>265.705048</course><hAcc>1.877738</hAcc><vAcc>0.709622</vAcc></extensions></trkpt>
      <trkpt lon="-3.038464" lat="52.704651"><ele>134.104645</ele><time>2022-01-15T09:25:29Z</time><extensions><speed>0.424134</speed><course>238.966492</course><hAcc>1.890079</hAcc><vAcc>0.704236</vAcc></extensions></trkpt>
      <trkpt lon="-3.038470" lat="52.704649"><ele>134.074661</ele><time>2022-01-15T09:25:30Z</time><extensions><speed>0.590169</speed><course>232.182770</course><hAcc>1.892676</hAcc><vAcc>0.697811</vAcc></extensions></trkpt>
      <trkpt lon="-3.038478" lat="52.704645"><ele>134.050644</ele><time>2022-01-15T09:25:31Z</time><extensions><speed>0.737820</speed><course>229.477036</course><hAcc>1.899029</hAcc><vAcc>0.690553</vAcc></extensions></trkpt>
      <trkpt lon="-3.038487" lat="52.704640"><ele>134.020905</ele><time>2022-01-15T09:25:32Z</time><extensions><speed>0.830786</speed><course>229.555298</course><hAcc>1.908104</hAcc><vAcc>0.682663</vAcc></extensions></trkpt>
      <trkpt lon="-3.038496" lat="52.704635"><ele>133.990082</ele><time>2022-01-15T09:25:33Z</time><extensions><speed>0.857191</speed><course>230.793854</course><hAcc>1.913067</hAcc><vAcc>0.674327</vAcc></extensions></trkpt>
      <trkpt lon="-3.038506" lat="52.704631"><ele>133.951324</ele><time>2022-01-15T09:25:34Z</time><extensions><speed>0.862206</speed><course>230.513870</course><hAcc>1.916064</hAcc><vAcc>0.665717</vAcc></extensions></trkpt>
      <trkpt lon="-3.038516" lat="52.704626"><ele>133.900238</ele><time>2022-01-15T09:25:35Z</time><extensions><speed>0.862550</speed><course>230.361542</course><hAcc>1.925006</hAcc><vAcc>0.656994</vAcc></extensions></trkpt>
      <trkpt lon="-3.038526" lat="52.704621"><ele>133.847931</ele><time>2022-01-15T09:25:36Z</time><extensions><speed>0.885610</speed><course>231.186417</course><hAcc>1.937310</hAcc><vAcc>0.648305</vAcc></extensions></trkpt>
      <trkpt lon="-3.038536" lat="52.704616"><ele>133.793152</ele><time>2022-01-15T09:25:37Z</time><extensions><speed>0.947409</speed><course>231.922806</course><hAcc>1.946002</hAcc><vAcc>0.639762</vAcc></extensions></trkpt>
      <trkpt lon="-3.038548" lat="52.704610"><ele>133.734604</ele><time>2022-01-15T09:25:38Z</time><extensions><speed>0.962080</speed><course>234.387726</course><hAcc>1.952956</hAcc><vAcc>0.631424</vAcc></extensions></trkpt>
      <trkpt lon="-3.038560" lat="52.704606"><ele>133.675446</ele><time>2022-01-15T09:25:39Z</time><extensions><speed>0.971090</speed><course>237.509735</course><hAcc>1.954803</hAcc><vAcc>0.623318</vAcc></extensions></trkpt>
      <trkpt lon="-3.038572" lat="52.704601"><ele>133.617645</ele><time>2022-01-15T09:25:40Z</time><extensions><speed>0.959699</speed><course>239.989990</course><hAcc>1.956459</hAcc><vAcc>0.615473</vAcc></extensions></trkpt>
      <trkpt lon="-3.038584" lat="52.704597"><ele>133.555984</ele><time>2022-01-15T09:25:41Z</time><extensions><speed>0.963907</speed><course>241.660202</course><hAcc>1.965652</hAcc><vAcc>0.607940</vAcc></extensions></trkpt>
      <trkpt lon="-3.038597" lat="52.704593"><ele>133.496429</ele><time>2022-01-15T09:25:42Z</time><extensions><speed>0.973871</speed><course>242.282547</course><hAcc>1.980228</hAcc><vAcc>0.600773</vAcc></extensions></trkpt>
      <trkpt lon="-3.038609" lat="52.704589"><ele>133.443451</ele><time>2022-01-15T09:25:43Z</time><extensions><speed>0.959867</speed><course>241.729141</course><hAcc>1.988055</hAcc><vAcc>0.594015</vAcc></extensions></trkpt>
      <trkpt lon="-3.038622" lat="52.704584"><ele>133.402145</ele><time>2022-01-15T09:25:44Z</time><extensions><speed>0.983368</speed><course>240.671021</course><hAcc>1.994959</hAcc><vAcc>0.587703</vAcc></extensions></trkpt>
      <trkpt lon="-3.038635" lat="52.704580"><ele>133.375946</ele><time>2022-01-15T09:25:45Z</time><extensions><speed>1.048113</speed><course>239.530930</course><hAcc>1.999457</hAcc><vAcc>0.581876</vAcc></extensions></trkpt>
      <trkpt lon="-3.038649" lat="52.704575"><ele>133.360519</ele><time>2022-01-15T09:25:46Z</time><extensions><speed>1.130337</speed><course>237.801620</course><hAcc>2.000436</hAcc><vAcc>0.576588</vAcc></extensions></trkpt>
      <trkpt lon="-3.038663" lat="52.704569"><ele>133.351120</ele><time>2022-01-15T09:25:47Z</time><extensions><speed>1.189663</speed><course>236.737274</course><hAcc>2.006039</hAcc><vAcc>0.571858</vAcc></extensions></trkpt>
      <trkpt lon="-3.038678" lat="52.704563"><ele>133.345337</ele><time>2022-01-15T09:25:48Z</time><extensions><speed>1.255098</speed><course>236.114914</course><hAcc>2.012136</hAcc><vAcc>0.567691</vAcc></extensions></trkpt>
      <trkpt lon="-3.038694" lat="52.704557"><ele>133.340546</ele><time>2022-01-15T09:25:49Z</time><extensions><speed>1.312009</speed><course>236.258408</course><hAcc>2.013645</hAcc><vAcc>0.564111</vAcc></extensions></trkpt>
      <trkpt lon="-3.038711" lat="52.704550"><ele>133.337524</ele><time>2022-01-15T09:25:50Z</time><extensions><speed>1.359604</speed><course>236.158829</course><hAcc>2.016114</hAcc><vAcc>0.561155</vAcc></extensions></trkpt>
      <trkpt lon="-3.038727" lat="52.704543"><ele>133.333740</ele><time>2022-01-15T09:25:51Z</time><extensions><speed>1.404865</speed><course>235.462463</course><hAcc>2.019439</hAcc><vAcc>0.558879</vAcc></extensions></trkpt>
      <trkpt lon="-3.038745" lat="52.704535"><ele>133.327042</ele><time>2022-01-15T09:25:52Z</time><extensions><speed>1.467820</speed><course>234.487244</course><hAcc>2.017059</hAcc><vAcc>0.557339</vAcc></extensions></trkpt>
      <trkpt lon="-3.038763" lat="52.704528"><ele>133.314774</ele><time>2022-01-15T09:25:53Z</time><extensions><speed>1.460935</speed><course>233.958984</course><hAcc>2.013824</hAcc><vAcc>0.556570</vAcc></extensions></trkpt>
      <trkpt lon="-3.038780" lat="52.704520"><ele>133.292282</ele><time>2022-01-15T09:25:54Z</time><extensions><speed>1.389330</speed><course>235.042633</course><hAcc>2.012348</hAcc><vAcc>0.556547</vAcc></extensions></trkpt>
      <trkpt lon="-3.038796" lat="52.704514"><ele>133.261917</ele><time>2022-01-15T09:25:55Z</time><extensions><speed>1.293164</speed><course>237.989975</course><hAcc>2.012092</hAcc><vAcc>0.557155</vAcc></extensions></trkpt>
      <trkpt lon="-3.038812" lat="52.704508"><ele>133.224380</ele><time>2022-01-15T09:25:56Z</time><extensions><speed>1.248104</speed><course>240.479019</course><hAcc>2.008870</hAcc><vAcc>0.558223</vAcc></extensions></trkpt>
      <trkpt lon="-3.038829" lat="52.704502"><ele>133.185425</ele><time>2022-01-15T09:25:57Z</time><extensions><speed>1.286463</speed><course>241.442917</course><hAcc>2.004294</hAcc><vAcc>0.559594</vAcc></extensions></trkpt>
      <trkpt lon="-3.038846" lat="52.704497"><ele>133.142639</ele><time>2022-01-15T09:25:58Z</time><extensions><speed>1.333938</speed><course>242.285248</course><hAcc>2.001548</hAcc><vAcc>0.561113</vAcc></extensions></trkpt>
      <trkpt lon="-3.038864" lat="52.704491"><ele>133.099442</ele><time>2022-01-15T09:25:59Z</time><extensions><speed>1.361846</speed><course>242.611465</course><hAcc>2.002577</hAcc><vAcc>0.562607</vAcc></extensions></trkpt>
      <trkpt lon="-3.038882" lat="52.704485"><ele>133.061111</ele><time>2022-01-15T09:26:00Z</time><extensions><speed>1.404597</speed><course>242.228622</course><hAcc>2.005561</hAcc><vAcc>0.563893</vAcc></extensions></trkpt>
      <trkpt lon="-3.038900" lat="52.704479"><ele>133.031235</ele><time>2022-01-15T09:26:01Z</time><extensions><speed>1.456574</speed><course>241.894577</course><hAcc>2.000130</hAcc><vAcc>0.564781</vAcc></extensions></trkpt>
      <trkpt lon="-3.038919" lat="52.704473"><ele>133.005325</ele><time>2022-01-15T09:26:02Z</time><extensions><speed>1.463155</speed><course>240.899750</course><hAcc>1.993153</hAcc><vAcc>0.565100</vAcc></extensions></trkpt>
      <trkpt lon="-3.038938" lat="52.704466"><ele>132.982101</ele><time>2022-01-15T09:26:03Z</time><extensions><speed>1.457295</speed><course>239.630753</course><hAcc>1.991138</hAcc><vAcc>0.564760</vAcc></extensions></trkpt>
      <trkpt lon="-3.038957" lat="52.704460"><ele>132.961563</ele><time>2022-01-15T09:26:04Z</time><extensions><speed>1.434407</speed><course>238.710052</course><hAcc>1.993619</hAcc><vAcc>0.563759</vAcc></extensions></trkpt>
      <trkpt lon="-3.038974" lat="52.704453"><ele>132.945038</ele><time>2022-01-15T09:26:05Z</time><extensions><speed>1.424576</speed><course>237.068604</course><hAcc>1.997401</hAcc><vAcc>0.562203</vAcc></extensions></trkpt>
      <trkpt lon="-3.038992" lat="52.704446"><ele>132.930359</ele><time>2022-01-15T09:26:06Z</time><extensions><speed>1.401863</speed><course>235.461029</course><hAcc>2.004029</hAcc><vAcc>0.560299</vAcc></extensions></trkpt>
      <trkpt lon="-3.039009" lat="52.704438"><ele>132.912674</ele><time>2022-01-15T09:26:07Z</time><extensions><speed>1.400529</speed><course>233.816711</course><hAcc>2.009207</hAcc><vAcc>0.558317</vAcc></extensions></trkpt>
      <trkpt lon="-3.039025" lat="52.704431"><ele>132.894577</ele><time>2022-01-15T09:26:08Z</time><extensions><speed>1.363816</speed><course>232.948883</course><hAcc>2.010039</hAcc><vAcc>0.556601</vAcc></extensions></trkpt>
      <trkpt lon="-3.039041" lat="52.704424"><ele>132.878845</ele><time>2022-01-15T09:26:09Z</time><extensions><speed>1.332441</speed><course>233.230789</course><hAcc>2.008601</hAcc><vAcc>0.555528</vAcc></extensions></trkpt>
      <trkpt lon="-3.039056" lat="52.704417"><ele>132.861633</ele><time>2022-01-15T09:26:10Z</time><extensions><speed>1.285010</speed><course>232.887802</course><hAcc>1.999366</hAcc><vAcc>0.555460</vAcc></extensions></trkpt>
      <trkpt lon="-3.039071" lat="52.704410"><ele>132.841614</ele><time>2022-01-15T09:26:11Z</time><extensions><speed>1.225298</speed><course>233.152710</course><hAcc>1.983423</hAcc><vAcc>0.556666</vAcc></extensions></trkpt>
      <trkpt lon="-3.039085" lat="52.704403"><ele>132.812210</ele><time>2022-01-15T09:26:12Z</time><extensions><speed>1.187278</speed><course>235.167389</course><hAcc>1.965157</hAcc><vAcc>0.559251</vAcc></extensions></trkpt>
      <trkpt lon="-3.039099" lat="52.704397"><ele>132.772751</ele><time>2022-01-15T09:26:13Z</time><extensions><speed>1.082713</speed><course>233.431015</course><hAcc>1.946325</hAcc><vAcc>0.563165</vAcc></extensions></trkpt>
      <trkpt lon="-3.039111" lat="52.704392"><ele>132.725662</ele><time>2022-01-15T09:26:14Z</time><extensions><speed>0.931481</speed><course>231.817307</course><hAcc>1.945101</hAcc><vAcc>0.568246</vAcc></extensions></trkpt>
      <trkpt lon="-3.039121" lat="52.704387"><ele>132.673523</ele><time>2022-01-15T09:26:15Z</time><extensions><speed>0.793015</speed><course>232.941330</course><hAcc>1.964691</hAcc><vAcc>0.574227</vAcc></extensions></trkpt>
      <trkpt lon="-3.039130" lat="52.704383"><ele>132.626556</ele><time>2022-01-15T09:26:16Z</time><extensions><speed>0.742559</speed><course>230.530563</course><hAcc>1.930796</hAcc><vAcc>0.580768</vAcc></extensions></trkpt>
      <trkpt lon="-3.039138" lat="52.704378"><ele>132.570770</ele><time>2022-01-15T09:26:17Z</time><extensions><speed>0.784543</speed><course>231.185257</course><hAcc>1.904403</hAcc><vAcc>0.587511</vAcc></extensions></trkpt>
      <trkpt lon="-3.039147" lat="52.704374"><ele>132.515381</ele><time>2022-01-15T09:26:18Z</time><extensions><speed>0.820140</speed><course>227.847534</course><hAcc>1.897291</hAcc><vAcc>0.594066</vAcc></extensions></trkpt>
      <trkpt lon="-3.039157" lat="52.704369"><ele>132.462616</ele><time>2022-01-15T09:26:19Z</time><extensions><speed>0.863080</speed><course>226.348740</course><hAcc>1.905632</hAcc><vAcc>0.600049</vAcc></extensions></trkpt>
      <trkpt lon="-3.039166" lat="52.704363"><ele>132.404724</ele><time>2022-01-15T09:26:20Z</time><extensions><speed>0.936578</speed><course>227.115707</course><hAcc>1.913735</hAcc><vAcc>0.605221</vAcc></extensions></trkpt>
      <trkpt lon="-3.039177" lat="52.704357"><ele>132.343719</ele><time>2022-01-15T09:26:21Z</time><extensions><speed>0.982246</speed><course>226.880508</course><hAcc>1.920246</hAcc><vAcc>0.609421</vAcc></extensions></trkpt>
      <trkpt lon="-3.039188" lat="52.704351"><ele>132.287949</ele><time>2022-01-15T09:26:22Z</time><extensions><speed>1.039100</speed><course>227.759720</course><hAcc>1.926866</hAcc><vAcc>0.612609</vAcc></extensions></trkpt>
      <trkpt lon="-3.039200" lat="52.704345"><ele>132.233124</ele><time>2022-01-15T09:26:23Z</time><extensions><speed>1.090160</speed><course>229.211472</course><hAcc>1.937563</hAcc><vAcc>0.614860</vAcc></extensions></trkpt>
      <trkpt lon="-3.039212" lat="52.704338"><ele>132.181000</ele><time>2022-01-15T09:26:24Z</time><extensions><speed>1.105788</speed><course>231.094467</course><hAcc>1.936488</hAcc><vAcc>0.616326</vAcc></extensions></trkpt>
      <trkpt lon="-3.039225" lat="52.704332"><ele>132.136063</ele><time>2022-01-15T09:26:25Z</time><extensions><speed>1.176753</speed><course>232.830582</course><hAcc>1.933265</hAcc><vAcc>0.617186</vAcc></extensions></trkpt>
      <trkpt lon="-3.039240" lat="52.704325"><ele>132.093857</ele><time>2022-01-15T09:26:26Z</time><extensions><speed>1.331680</speed><course>233.802841</course><hAcc>1.948861</hAcc><vAcc>0.617646</vAcc></extensions></trkpt>
      <trkpt lon="-3.039257" lat="52.704318"><ele>132.053375</ele><time>2022-01-15T09:26:27Z</time><extensions><speed>1.433155</speed><course>233.523804</course><hAcc>1.957430</hAcc><vAcc>0.617927</vAcc></extensions></trkpt>
      <trkpt lon="-3.039274" lat="52.704310"><ele>132.007126</ele><time>2022-01-15T09:26:28Z</time><extensions><speed>1.497513</speed><course>232.948349</course><hAcc>1.957505</hAcc><vAcc>0.618192</vAcc></extensions></trkpt>
      <trkpt lon="-3.039292" lat="52.704302"><ele>131.973801</ele><time>2022-01-15T09:26:29Z</time><extensions><speed>1.502814</speed><course>233.429474</course><hAcc>1.951936</hAcc><vAcc>0.618563</vAcc></extensions></trkpt>
      <trkpt lon="-3.039310" lat="52.704294"><ele>131.941483</ele><time>2022-01-15T09:26:30Z</time><extensions><speed>1.485716</speed><course>232.803574</course><hAcc>1.950478</hAcc><vAcc>0.619132</vAcc></extensions></trkpt>
      <trkpt lon="-3.039327" lat="52.704286"><ele>131.904480</ele><time>2022-01-15T09:26:31Z</time><extensions><speed>1.409133</speed><course>234.208191</course><hAcc>1.945393</hAcc><vAcc>0.619971</vAcc></extensions></trkpt>
      <trkpt lon="-3.039344" lat="52.704279"><ele>131.866684</ele><time>2022-01-15T09:26:32Z</time><extensions><speed>1.375376</speed><course>236.425919</course><hAcc>1.941760</hAcc><vAcc>0.621097</vAcc></extensions></trkpt>
      <trkpt lon="-3.039361" lat="52.704272"><ele>131.826309</ele><time>2022-01-15T09:26:33Z</time><extensions><speed>1.389870</speed><course>238.896133</course><hAcc>1.942468</hAcc><vAcc>0.622552</vAcc></extensions></trkpt>
      <trkpt lon="-3.039379" lat="52.704266"><ele>131.793350</ele><time>2022-01-15T09:26:34Z</time><extensions><speed>1.433252</speed><course>241.178589</course><hAcc>1.941248</hAcc><vAcc>0.624300</vAcc></extensions></trkpt>
      <trkpt lon="-3.039398" lat="52.704260"><ele>131.765259</ele><time>2022-01-15T09:26:35Z</time><extensions><speed>1.496082</speed><course>242.563721</course><hAcc>1.938557</hAcc><vAcc>0.626357</vAcc></extensions></trkpt>
      <trkpt lon="-3.039418" lat="52.704254"><ele>131.734573</ele><time>2022-01-15T09:26:36Z</time><extensions><speed>1.504606</speed><course>244.564102</course><hAcc>1.939121</hAcc><vAcc>0.628676</vAcc></extensions></trkpt>
      <trkpt lon="-3.039438" lat="52.704248"><ele>131.703110</ele><time>2022-01-15T09:26:37Z</time><extensions><speed>1.479934</speed><course>247.295105</course><hAcc>1.939933</hAcc><vAcc>0.631237</vAcc></extensions></trkpt>
      <trkpt lon="-3.039459" lat="52.704243"><ele>131.690292</ele><time>2022-01-15T09:26:38Z</time><extensions><speed>1.483166</speed><course>246.934296</course><hAcc>1.937930</hAcc><vAcc>0.633988</vAcc></extensions></trkpt>
      <trkpt lon="-3.039479" lat="52.704238"><ele>131.675156</ele><time>2022-01-15T09:26:39Z</time><extensions><speed>1.476464</speed><course>245.376419</course><hAcc>1.933679</hAcc><vAcc>0.636900</vAcc></extensions></trkpt>
      <trkpt lon="-3.039498" lat="52.704232"><ele>131.674423</ele><time>2022-01-15T09:26:40Z</time><extensions><speed>1.415163</speed><course>245.535019</course><hAcc>1.930039</hAcc><vAcc>0.639925</vAcc></extensions></trkpt>
      <trkpt lon="-3.039517" lat="52.704227"><ele>131.677872</ele><time>2022-01-15T09:26:41Z</time><extensions><speed>1.361958</speed><course>245.656342</course><hAcc>1.929002</hAcc><vAcc>0.643064</vAcc></extensions></trkpt>
      <trkpt lon="-3.039535" lat="52.704222"><ele>131.701508</ele><time>2022-01-15T09:26:42Z</time><extensions><speed>1.317508</speed><course>244.804977</course><hAcc>1.925573</hAcc><vAcc>0.646288</vAcc></extensions></trkpt>
      <trkpt lon="-3.039552" lat="52.704217"><ele>131.730011</ele><time>2022-01-15T09:26:43Z</time><extensions><speed>1.326403</speed><course>241.712051</course><hAcc>1.921528</hAcc><vAcc>0.649558</vAcc></extensions></trkpt>
      <trkpt lon="-3.039569" lat="52.704211"><ele>131.761093</ele><time>2022-01-15T09:26:44Z</time><extensions><speed>1.300591</speed><course>239.151443</course><hAcc>1.912890</hAcc><vAcc>0.652830</vAcc></extensions></trkpt>
      <trkpt lon="-3.039585" lat="52.704205"><ele>131.808960</ele><time>2022-01-15T09:26:45Z</time><extensions><speed>1.255483</speed><course>237.448578</course><hAcc>1.907459</hAcc><vAcc>0.656011</vAcc></extensions></trkpt>
      <trkpt lon="-3.039600" lat="52.704199"><ele>131.864151</ele><time>2022-01-15T09:26:46Z</time><extensions><speed>1.168985</speed><course>234.921738</course><hAcc>1.899423</hAcc><vAcc>0.658891</vAcc></extensions></trkpt>
      <trkpt lon="-3.039614" lat="52.704193"><ele>131.940720</ele><time>2022-01-15T09:26:47Z</time><extensions><speed>1.138560</speed><course>233.434204</course><hAcc>1.895460</hAcc><vAcc>0.661270</vAcc></extensions></trkpt>
      <trkpt lon="-3.039627" lat="52.704187"><ele>132.018707</ele><time>2022-01-15T09:26:48Z</time><extensions><speed>1.090118</speed><course>233.069595</course><hAcc>1.890275</hAcc><vAcc>0.662979</vAcc></extensions></trkpt>
      <trkpt lon="-3.039640" lat="52.704181"><ele>132.120834</ele><time>2022-01-15T09:26:49Z</time><extensions><speed>1.075688</speed><course>233.968002</course><hAcc>1.881912</hAcc><vAcc>0.663899</vAcc></extensions></trkpt>
      <trkpt lon="-3.039653" lat="52.704176"><ele>132.231827</ele><time>2022-01-15T09:26:50Z</time><extensions><speed>1.048565</speed><course>236.227127</course><hAcc>1.871927</hAcc><vAcc>0.663957</vAcc></extensions></trkpt>
      <trkpt lon="-3.039666" lat="52.704171"><ele>132.349762</ele><time>2022-01-15T09:26:51Z</time><extensions><speed>0.994785</speed><course>240.104980</course><hAcc>1.865260</hAcc><vAcc>0.663235</vAcc></extensions></trkpt>
      <trkpt lon="-3.039679" lat="52.704167"><ele>132.474548</ele><time>2022-01-15T09:26:52Z</time><extensions><speed>0.943171</speed><course>244.891449</course><hAcc>1.867525</hAcc><vAcc>0.661678</vAcc></extensions></trkpt>
      <trkpt lon="-3.039692" lat="52.704164"><ele>132.591324</ele><time>2022-01-15T09:26:53Z</time><extensions><speed>0.929077</speed><course>250.868759</course><hAcc>1.887808</hAcc><vAcc>0.659254</vAcc></extensions></trkpt>
      <trkpt lon="-3.039705" lat="52.704162"><ele>132.717728</ele><time>2022-01-15T09:26:54Z</time><extensions><speed>0.911400</speed><course>259.082245</course><hAcc>1.915553</hAcc><vAcc>0.655866</vAcc></extensions></trkpt>
      <trkpt lon="-3.039718" lat="52.704162"><ele>132.836227</ele><time>2022-01-15T09:26:55Z</time><extensions><speed>0.898809</speed><course>279.966248</course><hAcc>1.884747</hAcc><vAcc>0.651420</vAcc></extensions></trkpt>
      <trkpt lon="-3.039731" lat="52.704165"><ele>132.958130</ele><time>2022-01-15T09:26:56Z</time><extensions><speed>0.928227</speed><course>295.484314</course><hAcc>1.867954</hAcc><vAcc>0.645901</vAcc></extensions></trkpt>
      <trkpt lon="-3.039743" lat="52.704169"><ele>133.077362</ele><time>2022-01-15T09:26:57Z</time><extensions><speed>0.953981</speed><course>302.383575</course><hAcc>1.898018</hAcc><vAcc>0.639432</vAcc></extensions></trkpt>
      <trkpt lon="-3.039755" lat="52.704174"><ele>133.189423</ele><time>2022-01-15T09:26:58Z</time><extensions><speed>0.947674</speed><course>305.656982</course><hAcc>1.942234</hAcc><vAcc>0.632286</vAcc></extensions></trkpt>
      <trkpt lon="-3.039766" lat="52.704179"><ele>133.294083</ele><time>2022-01-15T09:26:59Z</time><extensions><speed>1.010140</speed><course>313.109222</course><hAcc>1.953959</hAcc><vAcc>0.624848</vAcc></extensions></trkpt>
      <trkpt lon="-3.039776" lat="52.704186"><ele>133.392044</ele><time>2022-01-15T09:27:00Z</time><extensions><speed>1.049665</speed><course>323.866669</course><hAcc>1.961466</hAcc><vAcc>0.617530</vAcc></extensions></trkpt>
      <trkpt lon="-3.039783" lat="52.704195"><ele>133.482666</ele><time>2022-01-15T09:27:01Z</time><extensions><speed>1.065222</speed><course>336.556213</course><hAcc>1.980041</hAcc><vAcc>0.610685</vAcc></extensions></trkpt>
      <trkpt lon="-3.039789" lat="52.704205"><ele>133.571671</ele><time>2022-01-15T09:27:02Z</time><extensions><speed>1.276478</speed><course>342.572693</course><hAcc>1.987177</hAcc><vAcc>0.604576</vAcc></extensions></trkpt>
      <trkpt lon="-3.039795" lat="52.704217"><ele>133.656708</ele><time>2022-01-15T09:27:03Z</time><extensions><speed>1.653773</speed><course>345.124176</course><hAcc>1.977351</hAcc><vAcc>0.599334</vAcc></extensions></trkpt>
      <trkpt lon="-3.039801" lat="52.704233"><ele>133.738892</ele><time>2022-01-15T09:27:04Z</time><extensions><speed>1.880109</speed><course>348.653778</course><hAcc>1.953003</hAcc><vAcc>0.594979</vAcc></extensions></trkpt>
      <trkpt lon="-3.039806" lat="52.704250"><ele>133.830521</ele><time>2022-01-15T09:27:05Z</time><extensions><speed>1.980388</speed><course>352.623413</course><hAcc>1.921153</hAcc><vAcc>0.591470</vAcc></extensions></trkpt>
      <trkpt lon="-3.039809" lat="52.704268"><ele>133.920486</ele><time>2022-01-15T09:27:06Z</time><extensions><speed>1.908593</speed><course>356.411285</course><hAcc>1.900373</hAcc><vAcc>0.588707</vAcc></extensions></trkpt>
      <trkpt lon="-3.039809" lat="52.704284"><ele>134.021530</ele><time>2022-01-15T09:27:07Z</time><extensions><speed>1.682279</speed><course>0.894191</course><hAcc>1.893698</hAcc><vAcc>0.586531</vAcc></extensions></trkpt>
      <trkpt lon="-3.039808" lat="52.704299"><ele>134.133789</ele><time>2022-01-15T09:27:08Z</time><extensions><speed>1.520437</speed><course>5.626101</course><hAcc>1.886507</hAcc><vAcc>0.584796</vAcc></extensions></trkpt>
      <trkpt lon="-3.039806" lat="52.704312"><ele>134.257172</ele><time>2022-01-15T09:27:09Z</time><extensions><speed>1.406893</speed><course>9.535942</course><hAcc>1.886026</hAcc><vAcc>0.583410</vAcc></extensions></trkpt>
      <trkpt lon="-3.039802" lat="52.704324"><ele>134.389542</ele><time>2022-01-15T09:27:10Z</time><extensions><speed>1.445212</speed><course>9.376169</course><hAcc>1.856258</hAcc><vAcc>0.582357</vAcc></extensions></trkpt>
      <trkpt lon="-3.039799" lat="52.704337"><ele>134.530762</ele><time>2022-01-15T09:27:11Z</time><extensions><speed>1.437454</speed><course>9.999879</course><hAcc>1.868562</hAcc><vAcc>0.581687</vAcc></extensions></trkpt>
      <trkpt lon="-3.039796" lat="52.704350"><ele>134.678024</ele><time>2022-01-15T09:27:12Z</time><extensions><speed>1.459375</speed><course>6.801936</course><hAcc>1.881673</hAcc><vAcc>0.581486</vAcc></extensions></trkpt>
      <trkpt lon="-3.039794" lat="52.704363"><ele>134.835724</ele><time>2022-01-15T09:27:13Z</time><extensions><speed>1.470299</speed><course>0.420696</course><hAcc>1.875419</hAcc><vAcc>0.581855</vAcc></extensions></trkpt>
      <trkpt lon="-3.039795" lat="52.704376"><ele>135.000153</ele><time>2022-01-15T09:27:14Z</time><extensions><speed>1.450947</speed><course>353.709686</course><hAcc>1.886001</hAcc><vAcc>0.582852</vAcc></extensions></trkpt>
      <trkpt lon="-3.039799" lat="52.704389"><ele>135.167664</ele><time>2022-01-15T09:27:15Z</time><extensions><speed>1.428534</speed><course>347.448883</course><hAcc>1.907902</hAcc><vAcc>0.584367</vAcc></extensions></trkpt>
      <trkpt lon="-3.039804" lat="52.704402"><ele>135.332169</ele><time>2022-01-15T09:27:16Z</time><extensions><speed>1.454338</speed><course>343.036865</course><hAcc>1.919821</hAcc><vAcc>0.586119</vAcc></extensions></trkpt>
      <trkpt lon="-3.039811" lat="52.704414"><ele>135.498596</ele><time>2022-01-15T09:27:17Z</time><extensions><speed>1.484942</speed><course>338.649567</course><hAcc>1.927822</hAcc><vAcc>0.587717</vAcc></extensions></trkpt>
      <trkpt lon="-3.039820" lat="52.704426"><ele>135.661911</ele><time>2022-01-15T09:27:18Z</time><extensions><speed>1.454441</speed><course>333.565002</course><hAcc>1.933257</hAcc><vAcc>0.588782</vAcc></extensions></trkpt>
      <trkpt lon="-3.039830" lat="52.704438"><ele>135.828186</ele><time>2022-01-15T09:27:19Z</time><extensions><speed>1.421690</speed><course>331.791779</course><hAcc>1.932773</hAcc><vAcc>0.589037</vAcc></extensions></trkpt>
      <trkpt lon="-3.039839" lat="52.704449"><ele>135.985153</ele><time>2022-01-15T09:27:20Z</time><extensions><speed>1.322072</speed><course>332.847992</course><hAcc>1.933917</hAcc><vAcc>0.588325</vAcc></extensions></trkpt>
      <trkpt lon="-3.039848" lat="52.704459"><ele>136.136551</ele><time>2022-01-15T09:27:21Z</time><extensions><speed>1.255246</speed><course>335.770782</course><hAcc>1.935603</hAcc><vAcc>0.586598</vAcc></extensions></trkpt>
      <trkpt lon="-3.039854" lat="52.704470"><ele>136.285217</ele><time>2022-01-15T09:27:22Z</time><extensions><speed>1.202805</speed><course>340.205841</course><hAcc>1.941839</hAcc><vAcc>0.583896</vAcc></extensions></trkpt>
      <trkpt lon="-3.039860" lat="52.704480"><ele>136.437546</ele><time>2022-01-15T09:27:23Z</time><extensions><speed>1.177990</speed><course>345.479797</course><hAcc>1.952490</hAcc><vAcc>0.580348</vAcc></extensions></trkpt>
      <trkpt lon="-3.039863" lat="52.704490"><ele>136.596939</ele><time>2022-01-15T09:27:24Z</time><extensions><speed>1.246504</speed><course>348.627441</course><hAcc>1.955303</hAcc><vAcc>0.576155</vAcc></extensions></trkpt>
      <trkpt lon="-3.039867" lat="52.704502"><ele>136.757431</ele><time>2022-01-15T09:27:25Z</time><extensions><speed>1.332124</speed><course>351.131226</course><hAcc>1.955858</hAcc><vAcc>0.571564</vAcc></extensions></trkpt>
      <trkpt lon="-3.039869" lat="52.704514"><ele>136.914932</ele><time>2022-01-15T09:27:26Z</time><extensions><speed>1.356818</speed><course>354.074371</course><hAcc>1.956738</hAcc><vAcc>0.566834</vAcc></extensions></trkpt>
      <trkpt lon="-3.039871" lat="52.704526"><ele>137.070297</ele><time>2022-01-15T09:27:27Z</time><extensions><speed>1.408851</speed><course>357.196198</course><hAcc>1.954977</hAcc><vAcc>0.562253</vAcc></extensions></trkpt>
      <trkpt lon="-3.039871" lat="52.704539"><ele>137.225128</ele><time>2022-01-15T09:27:28Z</time><extensions><speed>1.446634</speed><course>0.770372</course><hAcc>1.958222</hAcc><vAcc>0.558092</vAcc></extensions></trkpt>
      <trkpt lon="-3.039870" lat="52.704552"><ele>137.383041</ele><time>2022-01-15T09:27:29Z</time><extensions><speed>1.442583</speed><course>3.705112</course><hAcc>1.972626</hAcc><vAcc>0.554529</vAcc></extensions></trkpt>
      <trkpt lon="-3.039869" lat="52.704565"><ele>137.547913</ele><time>2022-01-15T09:27:30Z</time><extensions><speed>1.445974</speed><course>5.205390</course><hAcc>1.975148</hAcc><vAcc>0.551620</vAcc></extensions></trkpt>
      <trkpt lon="-3.039866" lat="52.704578"><ele>137.715836</ele><time>2022-01-15T09:27:31Z</time><extensions><speed>1.502619</speed><course>6.554115</course><hAcc>1.962948</hAcc><vAcc>0.549305</vAcc></extensions></trkpt>
      <trkpt lon="-3.039864" lat="52.704592"><ele>137.883545</ele><time>2022-01-15T09:27:32Z</time><extensions><speed>1.537015</speed><course>6.167856</course><hAcc>1.966650</hAcc><vAcc>0.547490</vAcc></extensions></trkpt>
      <trkpt lon="-3.039862" lat="52.704606"><ele>138.044403</ele><time>2022-01-15T09:27:33Z</time><extensions><speed>1.523358</speed><course>5.505888</course><hAcc>1.975797</hAcc><vAcc>0.546109</vAcc></extensions></trkpt>
      <trkpt lon="-3.039859" lat="52.704619"><ele>138.200241</ele><time>2022-01-15T09:27:34Z</time><extensions><speed>1.499894</speed><course>6.157892</course><hAcc>1.968191</hAcc><vAcc>0.545117</vAcc></extensions></trkpt>
      <trkpt lon="-3.039857" lat="52.704633"><ele>138.355194</ele><time>2022-01-15T09:27:35Z</time><extensions><speed>1.473864</speed><course>6.232308</course><hAcc>1.960832</hAcc><vAcc>0.544459</vAcc></extensions></trkpt>
      <trkpt lon="-3.039855" lat="52.704646"><ele>138.511993</ele><time>2022-01-15T09:27:36Z</time><extensions><speed>1.476602</speed><course>5.767001</course><hAcc>1.963169</hAcc><vAcc>0.544038</vAcc></extensions></trkpt>
      <trkpt lon="-3.039853" lat="52.704659"><ele>138.671387</ele><time>2022-01-15T09:27:37Z</time><extensions><speed>1.518597</speed><course>4.164017</course><hAcc>1.969290</hAcc><vAcc>0.543712</vAcc></extensions></trkpt>
      <trkpt lon="-3.039852" lat="52.704673"><ele>138.830338</ele><time>2022-01-15T09:27:38Z</time><extensions><speed>1.541199</speed><course>2.136316</course><hAcc>1.984480</hAcc><vAcc>0.543322</vAcc></extensions></trkpt>
      <trkpt lon="-3.039851" lat="52.704687"><ele>138.989212</ele><time>2022-01-15T09:27:39Z</time><extensions><speed>1.526028</speed><course>1.872139</course><hAcc>1.983953</hAcc><vAcc>0.542755</vAcc></extensions></trkpt>
      <trkpt lon="-3.039850" lat="52.704700"><ele>139.149155</ele><time>2022-01-15T09:27:40Z</time><extensions><speed>1.469177</speed><course>3.858718</course><hAcc>1.968005</hAcc><vAcc>0.541984</vAcc></extensions></trkpt>
      <trkpt lon="-3.039848" lat="52.704713"><ele>139.311752</ele><time>2022-01-15T09:27:41Z</time><extensions><speed>1.367889</speed><course>5.734716</course><hAcc>1.963795</hAcc><vAcc>0.541109</vAcc></extensions></trkpt>
      <trkpt lon="-3.039846" lat="52.704725"><ele>139.473740</ele><time>2022-01-15T09:27:42Z</time><extensions><speed>1.286094</speed><course>6.683265</course><hAcc>1.972590</hAcc><vAcc>0.540278</vAcc></extensions></trkpt>
      <trkpt lon="-3.039844" lat="52.704737"><ele>139.635620</ele><time>2022-01-15T09:27:43Z</time><extensions><speed>1.266087</speed><course>7.623537</course><hAcc>1.962220</hAcc><vAcc>0.539605</vAcc></extensions></trkpt>
      <trkpt lon="-3.039841" lat="52.704748"><ele>139.799973</ele><time>2022-01-15T09:27:44Z</time><extensions><speed>1.285292</speed><course>8.313111</course><hAcc>1.952895</hAcc><vAcc>0.539152</vAcc></extensions></trkpt>
      <trkpt lon="-3.039838" lat="52.704760"><ele>139.967072</ele><time>2022-01-15T09:27:45Z</time><extensions><speed>1.309748</speed><course>8.630427</course><hAcc>1.954198</hAcc><vAcc>0.538928</vAcc></extensions></trkpt>
      <trkpt lon="-3.039835" lat="52.704772"><ele>140.138184</ele><time>2022-01-15T09:27:46Z</time><extensions><speed>1.340392</speed><course>8.345258</course><hAcc>1.951543</hAcc><vAcc>0.538911</vAcc></extensions></trkpt>
      <trkpt lon="-3.039833" lat="52.704784"><ele>140.311264</ele><time>2022-01-15T09:27:47Z</time><extensions><speed>1.356172</speed><course>7.296811</course><hAcc>1.936781</hAcc><vAcc>0.539073</vAcc></extensions></trkpt>
      <trkpt lon="-3.039830" lat="52.704796"><ele>140.487366</ele><time>2022-01-15T09:27:48Z</time><extensions><speed>1.336174</speed><course>6.495855</course><hAcc>1.930542</hAcc><vAcc>0.539382</vAcc></extensions></trkpt>
      <trkpt lon="-3.039828" lat="52.704808"><ele>140.664841</ele><time>2022-01-15T09:27:49Z</time><extensions><speed>1.358140</speed><course>5.319059</course><hAcc>1.921168</hAcc><vAcc>0.539800</vAcc></extensions></trkpt>
      <trkpt lon="-3.039827" lat="52.704820"><ele>140.843719</ele><time>2022-01-15T09:27:50Z</time><extensions><speed>1.338400</speed><course>5.003988</course><hAcc>1.930832</hAcc><vAcc>0.540272</vAcc></extensions></trkpt>
      <trkpt lon="-3.039825" lat="52.704832"><ele>141.023422</ele><time>2022-01-15T09:27:51Z</time><extensions><speed>1.397590</speed><course>4.294462</course><hAcc>1.923118</hAcc><vAcc>0.540735</vAcc></extensions></trkpt>
      <trkpt lon="-3.039824" lat="52.704845"><ele>141.202454</ele><time>2022-01-15T09:27:52Z</time><extensions><speed>1.412844</speed><course>4.011811</course><hAcc>1.929857</hAcc><vAcc>0.541121</vAcc></extensions></trkpt>
      <trkpt lon="-3.039822" lat="52.704858"><ele>141.384125</ele><time>2022-01-15T09:27:53Z</time><extensions><speed>1.487743</speed><course>3.579930</course><hAcc>1.932090</hAcc><vAcc>0.541393</vAcc></extensions></trkpt>
      <trkpt lon="-3.039821" lat="52.704872"><ele>141.572739</ele><time>2022-01-15T09:27:54Z</time><extensions><speed>1.562742</speed><course>3.237073</course><hAcc>1.932166</hAcc><vAcc>0.541538</vAcc></extensions></trkpt>
      <trkpt lon="-3.039819" lat="52.704886"><ele>141.770111</ele><time>2022-01-15T09:27:55Z</time><extensions><speed>1.564156</speed><course>3.807300</course><hAcc>1.947499</hAcc><vAcc>0.541572</vAcc></extensions></trkpt>
      <trkpt lon="-3.039818" lat="52.704900"><ele>141.971344</ele><time>2022-01-15T09:27:56Z</time><extensions><speed>1.569156</speed><course>3.733503</course><hAcc>1.959794</hAcc><vAcc>0.541510</vAcc></extensions></trkpt>
      <trkpt lon="-3.039816" lat="52.704914"><ele>142.170090</ele><time>2022-01-15T09:27:57Z</time><extensions><speed>1.538484</speed><course>4.399205</course><hAcc>1.958781</hAcc><vAcc>0.541354</vAcc></extensions></trkpt>
      <trkpt lon="-3.039814" lat="52.704927"><ele>142.364090</ele><time>2022-01-15T09:27:58Z</time><extensions><speed>1.488831</speed><course>5.921896</course><hAcc>1.961093</hAcc><vAcc>0.541184</vAcc></extensions></trkpt>
      <trkpt lon="-3.039812" lat="52.704941"><ele>142.556549</ele><time>2022-01-15T09:27:59Z</time><extensions><speed>1.432377</speed><course>7.443668</course><hAcc>1.963860</hAcc><vAcc>0.541117</vAcc></extensions></trkpt>
      <trkpt lon="-3.039809" lat="52.704953"><ele>142.745392</ele><time>2022-01-15T09:28:00Z</time><extensions><speed>1.332126</speed><course>9.546168</course><hAcc>1.970344</hAcc><vAcc>0.541277</vAcc></extensions></trkpt>
      <trkpt lon="-3.039805" lat="52.704964"><ele>142.932938</ele><time>2022-01-15T09:28:01Z</time><extensions><speed>1.220100</speed><course>11.131970</course><hAcc>1.973456</hAcc><vAcc>0.541764</vAcc></extensions></trkpt>
      <trkpt lon="-3.039802" lat="52.704974"><ele>143.115692</ele><time>2022-01-15T09:28:02Z</time><extensions><speed>1.111471</speed><course>13.061659</course><hAcc>1.979226</hAcc><vAcc>0.542662</vAcc></extensions></trkpt>
      <trkpt lon="-3.039798" lat="52.704984"><ele>143.294632</ele><time>2022-01-15T09:28:03Z</time><extensions><speed>1.112876</speed><course>14.554439</course><hAcc>1.964599</hAcc><vAcc>0.544077</vAcc></extensions></trkpt>
      <trkpt lon="-3.039793" lat="52.704994"><ele>143.468567</ele><time>2022-01-15T09:28:04Z</time><extensions><speed>1.135531</speed><course>14.911972</course><hAcc>1.946112</hAcc><vAcc>0.546117</vAcc></extensions></trkpt>
      <trkpt lon="-3.039789" lat="52.705004"><ele>143.638489</ele><time>2022-01-15T09:28:05Z</time><extensions><speed>1.142830</speed><course>15.745521</course><hAcc>1.925843</hAcc><vAcc>0.548868</vAcc></extensions></trkpt>
      <trkpt lon="-3.039784" lat="52.705014"><ele>143.802948</ele><time>2022-01-15T09:28:06Z</time><extensions><speed>1.116793</speed><course>16.830925</course><hAcc>1.916554</hAcc><vAcc>0.552398</vAcc></extensions></trkpt>
      <trkpt lon="-3.039780" lat="52.705023"><ele>143.959961</ele><time>2022-01-15T09:28:07Z</time><extensions><speed>1.078961</speed><course>18.195465</course><hAcc>1.933733</hAcc><vAcc>0.556711</vAcc></extensions></trkpt>
      <trkpt lon="-3.039774" lat="52.705032"><ele>144.114899</ele><time>2022-01-15T09:28:08Z</time><extensions><speed>1.078069</speed><course>19.824800</course><hAcc>1.936080</hAcc><vAcc>0.561705</vAcc></extensions></trkpt>
      <trkpt lon="-3.039769" lat="52.705042"><ele>144.270981</ele><time>2022-01-15T09:28:09Z</time><extensions><speed>1.139010</speed><course>19.832590</course><hAcc>1.920112</hAcc><vAcc>0.567249</vAcc></extensions></trkpt>
      <trkpt lon="-3.039764" lat="52.705051"><ele>144.424271</ele><time>2022-01-15T09:28:10Z</time><extensions><speed>1.152397</speed><course>18.246172</course><hAcc>1.908496</hAcc><vAcc>0.573255</vAcc></extensions></trkpt>
      <trkpt lon="-3.039759" lat="52.705061"><ele>144.569977</ele><time>2022-01-15T09:28:11Z</time><extensions><speed>1.122570</speed><course>14.466624</course><hAcc>1.901630</hAcc><vAcc>0.579702</vAcc></extensions></trkpt>
      <trkpt lon="-3.039756" lat="52.705070"><ele>144.713806</ele><time>2022-01-15T09:28:12Z</time><extensions><speed>1.025839</speed><course>9.437010</course><hAcc>1.900872</hAcc><vAcc>0.586612</vAcc></extensions></trkpt>
      <trkpt lon="-3.039755" lat="52.705079"><ele>144.846146</ele><time>2022-01-15T09:28:13Z</time><extensions><speed>0.883541</speed><course>1.772866</course><hAcc>1.899218</hAcc><vAcc>0.594058</vAcc></extensions></trkpt>
      <trkpt lon="-3.039756" lat="52.705086"><ele>144.975098</ele><time>2022-01-15T09:28:14Z</time><extensions><speed>0.654791</speed><course>348.152100</course><hAcc>1.893399</hAcc><vAcc>0.602157</vAcc></extensions></trkpt>
      <trkpt lon="-3.039759" lat="52.705090"><ele>145.099625</ele><time>2022-01-15T09:28:15Z</time><extensions><speed>0.421406</speed><course>319.170868</course><hAcc>1.893424</hAcc><vAcc>0.610930</vAcc></extensions></trkpt>
      <trkpt lon="-3.039764" lat="52.705091"><ele>145.206100</ele><time>2022-01-15T09:28:16Z</time><extensions><speed>0.341815</speed><course>263.980835</course><hAcc>1.909792</hAcc><vAcc>0.620076</vAcc></extensions></trkpt>
      <trkpt lon="-3.039770" lat="52.705089"><ele>145.306625</ele><time>2022-01-15T09:28:17Z</time><extensions><speed>0.536914</speed><course>238.500412</course><hAcc>1.888997</hAcc><vAcc>0.629071</vAcc></extensions></trkpt>
      <trkpt lon="-3.039777" lat="52.705086"><ele>145.391418</ele><time>2022-01-15T09:28:18Z</time><extensions><speed>0.690683</speed><course>229.652710</course><hAcc>1.870417</hAcc><vAcc>0.637363</vAcc></extensions></trkpt>
      <trkpt lon="-3.039785" lat="52.705081"><ele>145.462967</ele><time>2022-01-15T09:28:19Z</time><extensions><speed>0.780417</speed><course>224.799988</course><hAcc>1.863293</hAcc><vAcc>0.644527</vAcc></extensions></trkpt>
      <trkpt lon="-3.039794" lat="52.705076"><ele>145.518723</ele><time>2022-01-15T09:28:20Z</time><extensions><speed>0.858014</speed><course>221.357010</course><hAcc>1.858362</hAcc><vAcc>0.650216</vAcc></extensions></trkpt>
      <trkpt lon="-3.039802" lat="52.705070"><ele>145.555634</ele><time>2022-01-15T09:28:21Z</time><extensions><speed>0.884084</speed><course>218.950073</course><hAcc>1.860597</hAcc><vAcc>0.654321</vAcc></extensions></trkpt>
      <trkpt lon="-3.039810" lat="52.705063"><ele>145.604568</ele><time>2022-01-15T09:28:22Z</time><extensions><speed>0.903273</speed><course>217.671936</course><hAcc>1.863159</hAcc><vAcc>0.656953</vAcc></extensions></trkpt>
      <trkpt lon="-3.039819" lat="52.705057"><ele>145.621475</ele><time>2022-01-15T09:28:23Z</time><extensions><speed>0.916380</speed><course>217.232086</course><hAcc>1.867021</hAcc><vAcc>0.658412</vAcc></extensions></trkpt>
      <trkpt lon="-3.039827" lat="52.705050"><ele>145.651184</ele><time>2022-01-15T09:28:24Z</time><extensions><speed>0.923408</speed><course>216.938507</course><hAcc>1.873373</hAcc><vAcc>0.658900</vAcc></extensions></trkpt>
      <trkpt lon="-3.039835" lat="52.705043"><ele>145.661728</ele><time>2022-01-15T09:28:25Z</time><extensions><speed>0.952080</speed><course>216.506073</course><hAcc>1.876502</hAcc><vAcc>0.658679</vAcc></extensions></trkpt>
      <trkpt lon="-3.039844" lat="52.705036"><ele>145.675903</ele><time>2022-01-15T09:28:26Z</time><extensions><speed>0.998043</speed><course>216.055588</course><hAcc>1.875626</hAcc><vAcc>0.658026</vAcc></extensions></trkpt>
      <trkpt lon="-3.039853" lat="52.705029"><ele>145.668930</ele><time>2022-01-15T09:28:27Z</time><extensions><speed>1.008651</speed><course>216.312241</course><hAcc>1.878680</hAcc><vAcc>0.657244</vAcc></extensions></trkpt>
      <trkpt lon="-3.039861" lat="52.705022"><ele>145.668243</ele><time>2022-01-15T09:28:28Z</time><extensions><speed>0.987484</speed><course>217.134079</course><hAcc>1.885700</hAcc><vAcc>0.656632</vAcc></extensions></trkpt>
      <trkpt lon="-3.039870" lat="52.705015"><ele>145.670151</ele><time>2022-01-15T09:28:29Z</time><extensions><speed>0.988226</speed><course>218.214081</course><hAcc>1.887184</hAcc><vAcc>0.656506</vAcc></extensions></trkpt>
      <trkpt lon="-3.039880" lat="52.705008"><ele>145.696167</ele><time>2022-01-15T09:28:30Z</time><extensions><speed>0.996525</speed><course>219.934845</course><hAcc>1.882558</hAcc><vAcc>0.657204</vAcc></extensions></trkpt>
      <trkpt lon="-3.039890" lat="52.705001"><ele>145.706741</ele><time>2022-01-15T09:28:31Z</time><extensions><speed>1.041462</speed><course>222.938370</course><hAcc>1.872295</hAcc><vAcc>0.658930</vAcc></extensions></trkpt>
      <trkpt lon="-3.039902" lat="52.704994"><ele>145.742203</ele><time>2022-01-15T09:28:32Z</time><extensions><speed>1.161475</speed><course>227.672134</course><hAcc>1.862305</hAcc><vAcc>0.661757</vAcc></extensions></trkpt>
      <trkpt lon="-3.039914" lat="52.704988"><ele>145.788895</ele><time>2022-01-15T09:28:33Z</time><extensions><speed>1.110239</speed><course>232.393600</course><hAcc>1.855163</hAcc><vAcc>0.665617</vAcc></extensions></trkpt>
      <trkpt lon="-3.039928" lat="52.704982"><ele>145.845398</ele><time>2022-01-15T09:28:34Z</time><extensions><speed>1.065737</speed><course>237.342468</course><hAcc>1.845366</hAcc><vAcc>0.670293</vAcc></extensions></trkpt>
      <trkpt lon="-3.039941" lat="52.704977"><ele>145.905609</ele><time>2022-01-15T09:28:35Z</time><extensions><speed>1.033206</speed><course>243.461563</course><hAcc>1.842099</hAcc><vAcc>0.675546</vAcc></extensions></trkpt>
      <trkpt lon="-3.039955" lat="52.704974"><ele>145.962753</ele><time>2022-01-15T09:28:36Z</time><extensions><speed>0.995231</speed><course>250.557709</course><hAcc>1.855532</hAcc><vAcc>0.681170</vAcc></extensions></trkpt>
      <trkpt lon="-3.039969" lat="52.704972"><ele>146.027252</ele><time>2022-01-15T09:28:37Z</time><extensions><speed>0.994134</speed><course>263.198883</course><hAcc>1.820915</hAcc><vAcc>0.686903</vAcc></extensions></trkpt>
      <trkpt lon="-3.039984" lat="52.704972"><ele>146.112198</ele><time>2022-01-15T09:28:38Z</time><extensions><speed>1.013934</speed><course>275.359680</course><hAcc>1.793490</hAcc><vAcc>0.692590</vAcc></extensions></trkpt>
      <trkpt lon="-3.039999" lat="52.704973"><ele>146.213516</ele><time>2022-01-15T09:28:39Z</time><extensions><speed>1.028132</speed><course>286.216797</course><hAcc>1.792387</hAcc><vAcc>0.698006</vAcc></extensions></trkpt>
      <trkpt lon="-3.040013" lat="52.704976"><ele>146.310257</ele><time>2022-01-15T09:28:39Z</time><extensions><speed>1.034140</speed><course>291.948578</course><hAcc>1.814164</hAcc><vAcc>0.702992</vAcc></extensions></trkpt>
      <trkpt lon="-3.040027" lat="52.704980"><ele>146.411072</ele><time>2022-01-15T09:28:40Z</time><extensions><speed>1.037237</speed><course>291.979919</course><hAcc>1.827946</hAcc><vAcc>0.707368</vAcc></extensions></trkpt>
      <trkpt lon="-3.040041" lat="52.704983"><ele>146.515152</ele><time>2022-01-15T09:28:41Z</time><extensions><speed>0.966982</speed><course>285.593994</course><hAcc>1.826245</hAcc><vAcc>0.710988</vAcc></extensions></trkpt>
      <trkpt lon="-3.040055" lat="52.704984"><ele>146.616623</ele><time>2022-01-15T09:28:42Z</time><extensions><speed>0.856009</speed><course>274.192657</course><hAcc>1.809961</hAcc><vAcc>0.713807</vAcc></extensions></trkpt>
      <trkpt lon="-3.040067" lat="52.704984"><ele>146.715530</ele><time>2022-01-15T09:28:43Z</time><extensions><speed>0.861491</speed><course>261.874878</course><hAcc>1.806102</hAcc><vAcc>0.715791</vAcc></extensions></trkpt>
      <trkpt lon="-3.040081" lat="52.704982"><ele>146.830032</ele><time>2022-01-15T09:28:44Z</time><extensions><speed>0.984998</speed><course>254.490448</course><hAcc>1.823090</hAcc><vAcc>0.716967</vAcc></extensions></trkpt>
      <trkpt lon="-3.040095" lat="52.704979"><ele>146.932114</ele><time>2022-01-15T09:28:45Z</time><extensions><speed>1.119695</speed><course>250.102661</course><hAcc>1.840210</hAcc><vAcc>0.717405</vAcc></extensions></trkpt>
      <trkpt lon="-3.040112" lat="52.704975"><ele>147.025314</ele><time>2022-01-15T09:28:46Z</time><extensions><speed>1.246813</speed><course>246.135986</course><hAcc>1.846711</hAcc><vAcc>0.717262</vAcc></extensions></trkpt>
      <trkpt lon="-3.040129" lat="52.704970"><ele>147.131744</ele><time>2022-01-15T09:28:47Z</time><extensions><speed>1.350322</speed><course>243.774048</course><hAcc>1.849564</hAcc><vAcc>0.716623</vAcc></extensions></trkpt>
      <trkpt lon="-3.040147" lat="52.704964"><ele>147.232361</ele><time>2022-01-15T09:28:48Z</time><extensions><speed>1.374317</speed><course>242.281738</course><hAcc>1.844570</hAcc><vAcc>0.715605</vAcc></extensions></trkpt>
      <trkpt lon="-3.040165" lat="52.704959"><ele>147.336807</ele><time>2022-01-15T09:28:49Z</time><extensions><speed>1.305761</speed><course>242.582504</course><hAcc>1.845107</hAcc><vAcc>0.714352</vAcc></extensions></trkpt>
      <trkpt lon="-3.040181" lat="52.704954"><ele>147.457596</ele><time>2022-01-15T09:28:50Z</time><extensions><speed>1.238141</speed><course>243.051575</course><hAcc>1.850618</hAcc><vAcc>0.712949</vAcc></extensions></trkpt>
      <trkpt lon="-3.040198" lat="52.704949"><ele>147.567963</ele><time>2022-01-15T09:28:51Z</time><extensions><speed>1.245965</speed><course>244.151718</course><hAcc>1.852048</hAcc><vAcc>0.711492</vAcc></extensions></trkpt>
      <trkpt lon="-3.040215" lat="52.704944"><ele>147.683533</ele><time>2022-01-15T09:28:52Z</time><extensions><speed>1.276375</speed><course>244.989929</course><hAcc>1.851117</hAcc><vAcc>0.710039</vAcc></extensions></trkpt>
      <trkpt lon="-3.040232" lat="52.704939"><ele>147.792130</ele><time>2022-01-15T09:28:53Z</time><extensions><speed>1.272664</speed><course>244.947617</course><hAcc>1.852638</hAcc><vAcc>0.708635</vAcc></extensions></trkpt>
      <trkpt lon="-3.040249" lat="52.704934"><ele>147.905396</ele><time>2022-01-15T09:28:54Z</time><extensions><speed>1.279742</speed><course>244.502167</course><hAcc>1.856744</hAcc><vAcc>0.707303</vAcc></extensions></trkpt>
      <trkpt lon="-3.040266" lat="52.704929"><ele>148.037125</ele><time>2022-01-15T09:28:55Z</time><extensions><speed>1.251042</speed><course>245.239014</course><hAcc>1.857028</hAcc><vAcc>0.706104</vAcc></extensions></trkpt>
      <trkpt lon="-3.040283" lat="52.704925"><ele>148.147827</ele><time>2022-01-15T09:28:56Z</time><extensions><speed>1.272252</speed><course>247.356537</course><hAcc>1.861056</hAcc><vAcc>0.705104</vAcc></extensions></trkpt>
      <trkpt lon="-3.040301" lat="52.704920"><ele>148.257965</ele><time>2022-01-15T09:28:57Z</time><extensions><speed>1.349470</speed><course>248.518417</course><hAcc>1.862808</hAcc><vAcc>0.704335</vAcc></extensions></trkpt>
      <trkpt lon="-3.040320" lat="52.704916"><ele>148.368500</ele><time>2022-01-15T09:28:58Z</time><extensions><speed>1.361413</speed><course>249.233948</course><hAcc>1.864799</hAcc><vAcc>0.703849</vAcc></extensions></trkpt>
      <trkpt lon="-3.040338" lat="52.704912"><ele>148.495605</ele><time>2022-01-15T09:28:59Z</time><extensions><speed>1.294893</speed><course>251.158813</course><hAcc>1.865424</hAcc><vAcc>0.703678</vAcc></extensions></trkpt>
      <trkpt lon="-3.040356" lat="52.704908"><ele>148.601730</ele><time>2022-01-15T09:29:00Z</time><extensions><speed>1.206589</speed><course>252.840790</course><hAcc>1.872129</hAcc><vAcc>0.703825</vAcc></extensions></trkpt>
      <trkpt lon="-3.040372" lat="52.704905"><ele>148.720947</ele><time>2022-01-15T09:29:01Z</time><extensions><speed>1.124422</speed><course>253.913589</course><hAcc>1.878048</hAcc><vAcc>0.704267</vAcc></extensions></trkpt>
      <trkpt lon="-3.040388" lat="52.704903"><ele>148.828033</ele><time>2022-01-15T09:29:02Z</time><extensions><speed>1.095037</speed><course>255.228607</course><hAcc>1.864047</hAcc><vAcc>0.704995</vAcc></extensions></trkpt>
      <trkpt lon="-3.040404" lat="52.704900"><ele>148.942093</ele><time>2022-01-15T09:29:03Z</time><extensions><speed>1.117734</speed><course>256.577881</course><hAcc>1.851275</hAcc><vAcc>0.705955</vAcc></extensions></trkpt>
      <trkpt lon="-3.040420" lat="52.704898"><ele>149.045547</ele><time>2022-01-15T09:29:04Z</time><extensions><speed>1.167063</speed><course>255.921555</course><hAcc>1.843287</hAcc><vAcc>0.707122</vAcc></extensions></trkpt>
      <trkpt lon="-3.040437" lat="52.704895"><ele>149.166168</ele><time>2022-01-15T09:29:05Z</time><extensions><speed>1.191364</speed><course>254.009018</course><hAcc>1.840865</hAcc><vAcc>0.708485</vAcc></extensions></trkpt>
      <trkpt lon="-3.040454" lat="52.704892"><ele>149.281525</ele><time>2022-01-15T09:29:06Z</time><extensions><speed>1.197361</speed><course>252.133698</course><hAcc>1.847801</hAcc><vAcc>0.709946</vAcc></extensions></trkpt>
      <trkpt lon="-3.040470" lat="52.704889"><ele>149.402740</ele><time>2022-01-15T09:29:07Z</time><extensions><speed>1.115127</speed><course>252.510925</course><hAcc>1.855526</hAcc><vAcc>0.711458</vAcc></extensions></trkpt>
      <trkpt lon="-3.040486" lat="52.704886"><ele>149.510269</ele><time>2022-01-15T09:29:08Z</time><extensions><speed>1.063824</speed><course>253.231033</course><hAcc>1.861493</hAcc><vAcc>0.713002</vAcc></extensions></trkpt>
      <trkpt lon="-3.040501" lat="52.704883"><ele>149.633896</ele><time>2022-01-15T09:29:09Z</time><extensions><speed>1.045574</speed><course>255.282440</course><hAcc>1.844348</hAcc><vAcc>0.714517</vAcc></extensions></trkpt>
      <trkpt lon="-3.040515" lat="52.704881"><ele>149.759399</ele><time>2022-01-15T09:29:10Z</time><extensions><speed>1.018589</speed><course>258.026672</course><hAcc>1.836101</hAcc><vAcc>0.715964</vAcc></extensions></trkpt>
      <trkpt lon="-3.040530" lat="52.704880"><ele>149.896271</ele><time>2022-01-15T09:29:11Z</time><extensions><speed>1.005219</speed><course>260.497131</course><hAcc>1.843903</hAcc><vAcc>0.717329</vAcc></extensions></trkpt>
      <trkpt lon="-3.040545" lat="52.704878"><ele>150.041885</ele><time>2022-01-15T09:29:12Z</time><extensions><speed>1.025012</speed><course>262.252533</course><hAcc>1.857100</hAcc><vAcc>0.718644</vAcc></extensions></trkpt>
      <trkpt lon="-3.040560" lat="52.704877"><ele>150.162262</ele><time>2022-01-15T09:29:13Z</time><extensions><speed>1.045134</speed><course>262.311432</course><hAcc>1.863747</hAcc><vAcc>0.719837</vAcc></extensions></trkpt>
      <trkpt lon="-3.040576" lat="52.704876"><ele>150.279327</ele><time>2022-01-15T09:29:14Z</time><extensions><speed>1.060015</speed><course>262.080078</course><hAcc>1.870615</hAcc><vAcc>0.720927</vAcc></extensions></trkpt>
      <trkpt lon="-3.040591" lat="52.704874"><ele>150.417038</ele><time>2022-01-15T09:29:15Z</time><extensions><speed>1.094808</speed><course>262.061066</course><hAcc>1.876087</hAcc><vAcc>0.721878</vAcc></extensions></trkpt>
      <trkpt lon="-3.040608" lat="52.704873"><ele>150.527466</ele><time>2022-01-15T09:29:16Z</time><extensions><speed>1.101707</speed><course>262.215668</course><hAcc>1.870568</hAcc><vAcc>0.722681</vAcc></extensions></trkpt>
      <trkpt lon="-3.040624" lat="52.704872"><ele>150.646072</ele><time>2022-01-15T09:29:17Z</time><extensions><speed>1.141725</speed><course>261.186188</course><hAcc>1.867491</hAcc><vAcc>0.723374</vAcc></extensions></trkpt>
      <trkpt lon="-3.040641" lat="52.704870"><ele>150.781296</ele><time>2022-01-15T09:29:18Z</time><extensions><speed>1.154132</speed><course>259.718750</course><hAcc>1.864462</hAcc><vAcc>0.723985</vAcc></extensions></trkpt>
      <trkpt lon="-3.040658" lat="52.704868"><ele>150.888519</ele><time>2022-01-15T09:29:19Z</time><extensions><speed>1.164228</speed><course>257.646301</course><hAcc>1.858214</hAcc><vAcc>0.724494</vAcc></extensions></trkpt>
      <trkpt lon="-3.040674" lat="52.704865"><ele>151.010071</ele><time>2022-01-15T09:29:20Z</time><extensions><speed>1.131837</speed><course>256.111786</course><hAcc>1.851787</hAcc><vAcc>0.724848</vAcc></extensions></trkpt>
      <trkpt lon="-3.040690" lat="52.704863"><ele>151.127625</ele><time>2022-01-15T09:29:21Z</time><extensions><speed>1.115324</speed><course>254.866501</course><hAcc>1.849203</hAcc><vAcc>0.725093</vAcc></extensions></trkpt>
      <trkpt lon="-3.040706" lat="52.704860"><ele>151.252457</ele><time>2022-01-15T09:29:22Z</time><extensions><speed>1.076723</speed><course>255.249710</course><hAcc>1.841736</hAcc><vAcc>0.725141</vAcc></extensions></trkpt>
      <trkpt lon="-3.040721" lat="52.704858"><ele>151.356369</ele><time>2022-01-15T09:29:23Z</time><extensions><speed>1.033472</speed><course>257.133728</course><hAcc>1.843371</hAcc><vAcc>0.724984</vAcc></extensions></trkpt>
      <trkpt lon="-3.040736" lat="52.704856"><ele>151.470657</ele><time>2022-01-15T09:29:24Z</time><extensions><speed>1.066910</speed><course>258.155884</course><hAcc>1.842467</hAcc><vAcc>0.724597</vAcc></extensions></trkpt>
      <trkpt lon="-3.040753" lat="52.704854"><ele>151.586136</ele><time>2022-01-15T09:29:25Z</time><extensions><speed>1.163854</speed><course>257.346985</course><hAcc>1.829407</hAcc><vAcc>0.724017</vAcc></extensions></trkpt>
      <trkpt lon="-3.040770" lat="52.704851"><ele>151.709991</ele><time>2022-01-15T09:29:26Z</time><extensions><speed>1.222006</speed><course>256.251831</course><hAcc>1.826874</hAcc><vAcc>0.723233</vAcc></extensions></trkpt>
      <trkpt lon="-3.040788" lat="52.704849"><ele>151.832138</ele><time>2022-01-15T09:29:27Z</time><extensions><speed>1.291794</speed><course>255.792114</course><hAcc>1.825970</hAcc><vAcc>0.722305</vAcc></extensions></trkpt>
      <trkpt lon="-3.040807" lat="52.704846"><ele>151.955887</ele><time>2022-01-15T09:29:28Z</time><extensions><speed>1.319819</speed><course>255.577087</course><hAcc>1.833786</hAcc><vAcc>0.721198</vAcc></extensions></trkpt>
      <trkpt lon="-3.040825" lat="52.704843"><ele>152.089218</ele><time>2022-01-15T09:29:29Z</time><extensions><speed>1.283096</speed><course>255.911392</course><hAcc>1.838580</hAcc><vAcc>0.719910</vAcc></extensions></trkpt>
      <trkpt lon="-3.040844" lat="52.704840"><ele>152.205444</ele><time>2022-01-15T09:29:30Z</time><extensions><speed>1.320032</speed><course>255.074936</course><hAcc>1.834401</hAcc><vAcc>0.718388</vAcc></extensions></trkpt>
      <trkpt lon="-3.040863" lat="52.704837"><ele>152.343567</ele><time>2022-01-15T09:29:31Z</time><extensions><speed>1.312888</speed><course>254.401825</course><hAcc>1.840468</hAcc><vAcc>0.716564</vAcc></extensions></trkpt>
      <trkpt lon="-3.040881" lat="52.704834"><ele>152.478516</ele><time>2022-01-15T09:29:32Z</time><extensions><speed>1.309426</speed><course>253.425766</course><hAcc>1.836392</hAcc><vAcc>0.714417</vAcc></extensions></trkpt>
      <trkpt lon="-3.040900" lat="52.704830"><ele>152.626541</ele><time>2022-01-15T09:29:33Z</time><extensions><speed>1.270031</speed><course>252.480042</course><hAcc>1.839080</hAcc><vAcc>0.711826</vAcc></extensions></trkpt>
      <trkpt lon="-3.040918" lat="52.704827"><ele>152.766327</ele><time>2022-01-15T09:29:34Z</time><extensions><speed>1.288355</speed><course>251.980072</course><hAcc>1.830474</hAcc><vAcc>0.708869</vAcc></extensions></trkpt>
      <trkpt lon="-3.040936" lat="52.704823"><ele>152.902405</ele><time>2022-01-15T09:29:35Z</time><extensions><speed>1.321013</speed><course>251.745010</course><hAcc>1.832119</hAcc><vAcc>0.705564</vAcc></extensions></trkpt>
      <trkpt lon="-3.040954" lat="52.704819"><ele>153.036224</ele><time>2022-01-15T09:29:36Z</time><extensions><speed>1.321805</speed><course>251.359146</course><hAcc>1.849655</hAcc><vAcc>0.701983</vAcc></extensions></trkpt>
      <trkpt lon="-3.040972" lat="52.704816"><ele>153.168945</ele><time>2022-01-15T09:29:37Z</time><extensions><speed>1.238778</speed><course>251.017776</course><hAcc>1.862284</hAcc><vAcc>0.698139</vAcc></extensions></trkpt>
      <trkpt lon="-3.040989" lat="52.704812"><ele>153.296860</ele><time>2022-01-15T09:29:38Z</time><extensions><speed>1.185354</speed><course>249.830246</course><hAcc>1.850922</hAcc><vAcc>0.694173</vAcc></extensions></trkpt>
      <trkpt lon="-3.041005" lat="52.704808"><ele>153.420822</ele><time>2022-01-15T09:29:39Z</time><extensions><speed>1.148345</speed><course>248.995316</course><hAcc>1.855038</hAcc><vAcc>0.690211</vAcc></extensions></trkpt>
      <trkpt lon="-3.041021" lat="52.704805"><ele>153.548904</ele><time>2022-01-15T09:29:40Z</time><extensions><speed>1.113039</speed><course>249.214127</course><hAcc>1.860194</hAcc><vAcc>0.686383</vAcc></extensions></trkpt>
      <trkpt lon="-3.041037" lat="52.704801"><ele>153.683395</ele><time>2022-01-15T09:29:41Z</time><extensions><speed>1.128019</speed><course>249.549774</course><hAcc>1.871688</hAcc><vAcc>0.682854</vAcc></extensions></trkpt>
      <trkpt lon="-3.041052" lat="52.704798"><ele>153.799210</ele><time>2022-01-15T09:29:42Z</time><extensions><speed>1.135931</speed><course>249.683594</course><hAcc>1.868033</hAcc><vAcc>0.679768</vAcc></extensions></trkpt>
      <trkpt lon="-3.041068" lat="52.704794"><ele>153.912460</ele><time>2022-01-15T09:29:43Z</time><extensions><speed>1.139651</speed><course>250.631607</course><hAcc>1.867526</hAcc><vAcc>0.677185</vAcc></extensions></trkpt>
      <trkpt lon="-3.041084" lat="52.704791"><ele>154.022095</ele><time>2022-01-15T09:29:44Z</time><extensions><speed>1.156709</speed><course>252.310425</course><hAcc>1.873761</hAcc><vAcc>0.675156</vAcc></extensions></trkpt>
      <trkpt lon="-3.041101" lat="52.704788"><ele>154.134827</ele><time>2022-01-15T09:29:45Z</time><extensions><speed>1.159678</speed><course>253.195969</course><hAcc>1.870947</hAcc><vAcc>0.673605</vAcc></extensions></trkpt>
      <trkpt lon="-3.041117" lat="52.704785"><ele>154.242981</ele><time>2022-01-15T09:29:46Z</time><extensions><speed>1.166451</speed><course>252.692276</course><hAcc>1.870471</hAcc><vAcc>0.672446</vAcc></extensions></trkpt>
      <trkpt lon="-3.041133" lat="52.704781"><ele>154.344681</ele><time>2022-01-15T09:29:47Z</time><extensions><speed>1.165191</speed><course>252.347458</course><hAcc>1.870487</hAcc><vAcc>0.671604</vAcc></extensions></trkpt>
      <trkpt lon="-3.041150" lat="52.704778"><ele>154.435822</ele><time>2022-01-15T09:29:48Z</time><extensions><speed>1.225621</speed><course>250.710312</course><hAcc>1.870892</hAcc><vAcc>0.671000</vAcc></extensions></trkpt>
      <trkpt lon="-3.041167" lat="52.704774"><ele>154.545975</ele><time>2022-01-15T09:29:49Z</time><extensions><speed>1.263116</speed><course>248.513809</course><hAcc>1.861071</hAcc><vAcc>0.670533</vAcc></extensions></trkpt>
      <trkpt lon="-3.041185" lat="52.704770"><ele>154.659134</ele><time>2022-01-15T09:29:50Z</time><extensions><speed>1.312529</speed><course>246.653442</course><hAcc>1.863761</hAcc><vAcc>0.670163</vAcc></extensions></trkpt>
      <trkpt lon="-3.041203" lat="52.704765"><ele>154.760788</ele><time>2022-01-15T09:29:51Z</time><extensions><speed>1.344671</speed><course>245.109543</course><hAcc>1.863855</hAcc><vAcc>0.669815</vAcc></extensions></trkpt>
      <trkpt lon="-3.041221" lat="52.704760"><ele>154.867767</ele><time>2022-01-15T09:29:52Z</time><extensions><speed>1.346918</speed><course>245.248047</course><hAcc>1.859615</hAcc><vAcc>0.669443</vAcc></extensions></trkpt>
      <trkpt lon="-3.041239" lat="52.704755"><ele>154.968201</ele><time>2022-01-15T09:29:53Z</time><extensions><speed>1.390006</speed><course>246.321442</course><hAcc>1.852325</hAcc><vAcc>0.669163</vAcc></extensions></trkpt>
      <trkpt lon="-3.041259" lat="52.704750"><ele>155.059738</ele><time>2022-01-15T09:29:54Z</time><extensions><speed>1.447044</speed><course>247.912262</course><hAcc>1.855260</hAcc><vAcc>0.668997</vAcc></extensions></trkpt>
      <trkpt lon="-3.041279" lat="52.704745"><ele>155.145981</ele><time>2022-01-15T09:29:55Z</time><extensions><speed>1.504990</speed><course>250.499481</course><hAcc>1.846435</hAcc><vAcc>0.668889</vAcc></extensions></trkpt>
      <trkpt lon="-3.041301" lat="52.704741"><ele>155.208679</ele><time>2022-01-15T09:29:56Z</time><extensions><speed>1.582399</speed><course>252.350342</course><hAcc>1.838294</hAcc><vAcc>0.668826</vAcc></extensions></trkpt>
      <trkpt lon="-3.041323" lat="52.704736"><ele>155.278793</ele><time>2022-01-15T09:29:57Z</time><extensions><speed>1.598953</speed><course>253.933167</course><hAcc>1.852756</hAcc><vAcc>0.668721</vAcc></extensions></trkpt>
      <trkpt lon="-3.041346" lat="52.704732"><ele>155.347504</ele><time>2022-01-15T09:29:58Z</time><extensions><speed>1.544835</speed><course>252.949341</course><hAcc>1.852132</hAcc><vAcc>0.668501</vAcc></extensions></trkpt>
      <trkpt lon="-3.041367" lat="52.704728"><ele>155.405151</ele><time>2022-01-15T09:29:59Z</time><extensions><speed>1.464577</speed><course>249.451935</course><hAcc>1.849025</hAcc><vAcc>0.668209</vAcc></extensions></trkpt>
      <trkpt lon="-3.041386" lat="52.704723"><ele>155.470154</ele><time>2022-01-15T09:30:00Z</time><extensions><speed>1.357455</speed><course>247.275406</course><hAcc>1.856004</hAcc><vAcc>0.667887</vAcc></extensions></trkpt>
      <trkpt lon="-3.041403" lat="52.704719"><ele>155.539703</ele><time>2022-01-15T09:30:01Z</time><extensions><speed>1.198685</speed><course>247.307129</course><hAcc>1.854935</hAcc><vAcc>0.667689</vAcc></extensions></trkpt>
      <trkpt lon="-3.041419" lat="52.704715"><ele>155.603317</ele><time>2022-01-15T09:30:02Z</time><extensions><speed>1.077824</speed><course>248.456650</course><hAcc>1.860774</hAcc><vAcc>0.667682</vAcc></extensions></trkpt>
      <trkpt lon="-3.041434" lat="52.704712"><ele>155.640060</ele><time>2022-01-15T09:30:03Z</time><extensions><speed>1.020859</speed><course>251.778290</course><hAcc>1.870822</hAcc><vAcc>0.667873</vAcc></extensions></trkpt>
      <trkpt lon="-3.041448" lat="52.704709"><ele>155.706406</ele><time>2022-01-15T09:30:04Z</time><extensions><speed>1.038375</speed><course>254.266663</course><hAcc>1.878250</hAcc><vAcc>0.668142</vAcc></extensions></trkpt>
      <trkpt lon="-3.041463" lat="52.704707"><ele>155.776764</ele><time>2022-01-15T09:30:05Z</time><extensions><speed>1.100903</speed><course>255.732208</course><hAcc>1.877148</hAcc><vAcc>0.668326</vAcc></extensions></trkpt>
      <trkpt lon="-3.041480" lat="52.704704"><ele>155.826492</ele><time>2022-01-15T09:30:06Z</time><extensions><speed>1.164905</speed><course>255.833862</course><hAcc>1.880833</hAcc><vAcc>0.668295</vAcc></extensions></trkpt>
      <trkpt lon="-3.041497" lat="52.704701"><ele>155.889969</ele><time>2022-01-15T09:30:07Z</time><extensions><speed>1.260569</speed><course>253.311188</course><hAcc>1.879478</hAcc><vAcc>0.667950</vAcc></extensions></trkpt>
      <trkpt lon="-3.041515" lat="52.704698"><ele>155.956558</ele><time>2022-01-15T09:30:08Z</time><extensions><speed>1.279879</speed><course>251.544556</course><hAcc>1.872565</hAcc><vAcc>0.667221</vAcc></extensions></trkpt>
      <trkpt lon="-3.041533" lat="52.704694"><ele>156.047058</ele><time>2022-01-15T09:30:09Z</time><extensions><speed>1.279803</speed><course>249.740173</course><hAcc>1.861133</hAcc><vAcc>0.666044</vAcc></extensions></trkpt>
      <trkpt lon="-3.041550" lat="52.704690"><ele>156.128998</ele><time>2022-01-15T09:30:10Z</time><extensions><speed>1.272435</speed><course>249.152618</course><hAcc>1.848002</hAcc><vAcc>0.664366</vAcc></extensions></trkpt>
      <trkpt lon="-3.041568" lat="52.704686"><ele>156.209076</ele><time>2022-01-15T09:30:11Z</time><extensions><speed>1.270032</speed><course>248.626358</course><hAcc>1.847747</hAcc><vAcc>0.662164</vAcc></extensions></trkpt>
      <trkpt lon="-3.041585" lat="52.704682"><ele>156.307114</ele><time>2022-01-15T09:30:12Z</time><extensions><speed>1.239784</speed><course>247.692566</course><hAcc>1.862279</hAcc><vAcc>0.659356</vAcc></extensions></trkpt>
      <trkpt lon="-3.041602" lat="52.704678"><ele>156.397919</ele><time>2022-01-15T09:30:13Z</time><extensions><speed>1.147229</speed><course>250.018890</course><hAcc>1.872199</hAcc><vAcc>0.655957</vAcc></extensions></trkpt>
      <trkpt lon="-3.041618" lat="52.704675"><ele>156.498672</ele><time>2022-01-15T09:30:14Z</time><extensions><speed>1.165826</speed><course>254.122711</course><hAcc>1.866743</hAcc><vAcc>0.651971</vAcc></extensions></trkpt>
      <trkpt lon="-3.041635" lat="52.704672"><ele>156.602722</ele><time>2022-01-15T09:30:15Z</time><extensions><speed>1.195940</speed><course>257.430115</course><hAcc>1.871525</hAcc><vAcc>0.647429</vAcc></extensions></trkpt>
      <trkpt lon="-3.041652" lat="52.704670"><ele>156.711746</ele><time>2022-01-15T09:30:16Z</time><extensions><speed>1.210717</speed><course>259.846680</course><hAcc>1.870363</hAcc><vAcc>0.642363</vAcc></extensions></trkpt>
      <trkpt lon="-3.041670" lat="52.704668"><ele>156.842209</ele><time>2022-01-15T09:30:17Z</time><extensions><speed>1.199497</speed><course>260.237335</course><hAcc>1.878346</hAcc><vAcc>0.636810</vAcc></extensions></trkpt>
      <trkpt lon="-3.041687" lat="52.704666"><ele>156.970215</ele><time>2022-01-15T09:30:18Z</time><extensions><speed>1.191277</speed><course>259.844696</course><hAcc>1.894054</hAcc><vAcc>0.630808</vAcc></extensions></trkpt>
      <trkpt lon="-3.041705" lat="52.704664"><ele>157.109116</ele><time>2022-01-15T09:30:19Z</time><extensions><speed>1.236924</speed><course>257.521698</course><hAcc>1.912435</hAcc><vAcc>0.624408</vAcc></extensions></trkpt>
      <trkpt lon="-3.041723" lat="52.704661"><ele>157.258835</ele><time>2022-01-15T09:30:20Z</time><extensions><speed>1.259259</speed><course>255.324844</course><hAcc>1.928104</hAcc><vAcc>0.617680</vAcc></extensions></trkpt>
      <trkpt lon="-3.041741" lat="52.704658"><ele>157.414566</ele><time>2022-01-15T09:30:21Z</time><extensions><speed>1.283412</speed><course>253.207306</course><hAcc>1.928594</hAcc><vAcc>0.610716</vAcc></extensions></trkpt>
      <trkpt lon="-3.041759" lat="52.704655"><ele>157.573502</ele><time>2022-01-15T09:30:22Z</time><extensions><speed>1.301133</speed><course>251.704880</course><hAcc>1.925911</hAcc><vAcc>0.603640</vAcc></extensions></trkpt>
      <trkpt lon="-3.041777" lat="52.704651"><ele>157.735367</ele><time>2022-01-15T09:30:23Z</time><extensions><speed>1.281768</speed><course>250.958984</course><hAcc>1.924618</hAcc><vAcc>0.596605</vAcc></extensions></trkpt>
      <trkpt lon="-3.041795" lat="52.704647"><ele>157.901627</ele><time>2022-01-15T09:30:24Z</time><extensions><speed>1.264405</speed><course>250.980194</course><hAcc>1.920521</hAcc><vAcc>0.589758</vAcc></extensions></trkpt>
      <trkpt lon="-3.041813" lat="52.704643"><ele>158.071091</ele><time>2022-01-15T09:30:25Z</time><extensions><speed>1.239691</speed><course>250.767807</course><hAcc>1.918830</hAcc><vAcc>0.583231</vAcc></extensions></trkpt>
      <trkpt lon="-3.041830" lat="52.704640"><ele>158.240814</ele><time>2022-01-15T09:30:26Z</time><extensions><speed>1.203478</speed><course>248.644608</course><hAcc>1.927143</hAcc><vAcc>0.577121</vAcc></extensions></trkpt>
      <trkpt lon="-3.041846" lat="52.704636"><ele>158.406464</ele><time>2022-01-15T09:30:27Z</time><extensions><speed>1.158079</speed><course>246.451675</course><hAcc>1.941953</hAcc><vAcc>0.571474</vAcc></extensions></trkpt>
      <trkpt lon="-3.041861" lat="52.704631"><ele>158.569443</ele><time>2022-01-15T09:30:28Z</time><extensions><speed>1.106108</speed><course>244.737854</course><hAcc>1.942947</hAcc><vAcc>0.566259</vAcc></extensions></trkpt>
      <trkpt lon="-3.041877" lat="52.704627"><ele>158.736084</ele><time>2022-01-15T09:30:29Z</time><extensions><speed>1.154068</speed><course>244.815323</course><hAcc>1.919079</hAcc><vAcc>0.561408</vAcc></extensions></trkpt>
      <trkpt lon="-3.041892" lat="52.704623"><ele>158.903580</ele><time>2022-01-15T09:30:31Z</time><extensions><speed>1.174255</speed><course>245.559402</course><hAcc>1.916815</hAcc><vAcc>0.556836</vAcc></extensions></trkpt>
      <trkpt lon="-3.041908" lat="52.704619"><ele>159.070969</ele><time>2022-01-15T09:30:32Z</time><extensions><speed>1.186838</speed><course>247.670761</course><hAcc>1.934676</hAcc><vAcc>0.552464</vAcc></extensions></trkpt>
      <trkpt lon="-3.041925" lat="52.704615"><ele>159.241989</ele><time>2022-01-15T09:30:33Z</time><extensions><speed>1.158797</speed><course>251.079422</course><hAcc>1.963985</hAcc><vAcc>0.548232</vAcc></extensions></trkpt>
      <trkpt lon="-3.041941" lat="52.704612"><ele>159.420883</ele><time>2022-01-15T09:30:34Z</time><extensions><speed>1.160111</speed><course>253.117813</course><hAcc>1.978313</hAcc><vAcc>0.544110</vAcc></extensions></trkpt>
      <trkpt lon="-3.041958" lat="52.704609"><ele>159.597946</ele><time>2022-01-15T09:30:35Z</time><extensions><speed>1.160072</speed><course>254.992569</course><hAcc>1.984206</hAcc><vAcc>0.540084</vAcc></extensions></trkpt>
      <trkpt lon="-3.041974" lat="52.704606"><ele>159.781357</ele><time>2022-01-15T09:30:36Z</time><extensions><speed>1.181710</speed><course>256.960236</course><hAcc>1.990047</hAcc><vAcc>0.536129</vAcc></extensions></trkpt>
      <trkpt lon="-3.041992" lat="52.704604"><ele>159.971481</ele><time>2022-01-15T09:30:37Z</time><extensions><speed>1.204878</speed><course>259.461365</course><hAcc>2.005323</hAcc><vAcc>0.532188</vAcc></extensions></trkpt>
      <trkpt lon="-3.042009" lat="52.704602"><ele>160.162872</ele><time>2022-01-15T09:30:38Z</time><extensions><speed>1.190806</speed><course>261.814697</course><hAcc>2.026815</hAcc><vAcc>0.528184</vAcc></extensions></trkpt>
      <trkpt lon="-3.042027" lat="52.704601"><ele>160.355804</ele><time>2022-01-15T09:30:39Z</time><extensions><speed>1.166662</speed><course>263.498993</course><hAcc>2.045496</hAcc><vAcc>0.524077</vAcc></extensions></trkpt>
      <trkpt lon="-3.042044" lat="52.704600"><ele>160.542374</ele><time>2022-01-15T09:30:40Z</time><extensions><speed>1.163981</speed><course>264.208679</course><hAcc>2.052654</hAcc><vAcc>0.519888</vAcc></extensions></trkpt>
      <trkpt lon="-3.042061" lat="52.704598"><ele>160.732681</ele><time>2022-01-15T09:30:40Z</time><extensions><speed>1.184957</speed><course>262.886444</course><hAcc>2.062256</hAcc><vAcc>0.515699</vAcc></extensions></trkpt>
      <trkpt lon="-3.042079" lat="52.704597"><ele>160.910309</ele><time>2022-01-15T09:30:41Z</time><extensions><speed>1.217398</speed><course>260.632446</course><hAcc>2.071828</hAcc><vAcc>0.511590</vAcc></extensions></trkpt>
      <trkpt lon="-3.042096" lat="52.704595"><ele>161.090271</ele><time>2022-01-15T09:30:42Z</time><extensions><speed>1.239486</speed><course>257.783417</course><hAcc>2.084926</hAcc><vAcc>0.507609</vAcc></extensions></trkpt>
      <trkpt lon="-3.042114" lat="52.704592"><ele>161.257431</ele><time>2022-01-15T09:30:43Z</time><extensions><speed>1.193865</speed><course>254.150131</course><hAcc>2.090454</hAcc><vAcc>0.503780</vAcc></extensions></trkpt>
      <trkpt lon="-3.042130" lat="52.704589"><ele>161.411377</ele><time>2022-01-15T09:30:44Z</time><extensions><speed>1.098061</speed><course>249.819122</course><hAcc>2.090396</hAcc><vAcc>0.500094</vAcc></extensions></trkpt>
      <trkpt lon="-3.042144" lat="52.704585"><ele>161.542511</ele><time>2022-01-15T09:30:45Z</time><extensions><speed>0.986745</speed><course>245.081924</course><hAcc>2.093056</hAcc><vAcc>0.496474</vAcc></extensions></trkpt>
      <trkpt lon="-3.042157" lat="52.704581"><ele>161.692047</ele><time>2022-01-15T09:30:47Z</time><extensions><speed>0.965222</speed><course>243.440140</course><hAcc>2.100876</hAcc><vAcc>0.492754</vAcc></extensions></trkpt>
      <trkpt lon="-3.042170" lat="52.704578"><ele>161.827881</ele><time>2022-01-15T09:30:48Z</time><extensions><speed>0.933933</speed><course>244.279968</course><hAcc>2.113330</hAcc><vAcc>0.488697</vAcc></extensions></trkpt>
      <trkpt lon="-3.042183" lat="52.704574"><ele>161.946320</ele><time>2022-01-15T09:30:49Z</time><extensions><speed>0.896489</speed><course>250.166962</course><hAcc>2.124761</hAcc><vAcc>0.484092</vAcc></extensions></trkpt>
      <trkpt lon="-3.042195" lat="52.704572"><ele>162.064529</ele><time>2022-01-15T09:30:50Z</time><extensions><speed>0.936802</speed><course>254.067703</course><hAcc>2.126675</hAcc><vAcc>0.478828</vAcc></extensions></trkpt>
      <trkpt lon="-3.042209" lat="52.704569"><ele>162.174271</ele><time>2022-01-15T09:30:51Z</time><extensions><speed>0.968081</speed><course>255.496735</course><hAcc>2.131761</hAcc><vAcc>0.473052</vAcc></extensions></trkpt>
      <trkpt lon="-3.042223" lat="52.704567"><ele>162.281082</ele><time>2022-01-15T09:30:52Z</time><extensions><speed>1.006881</speed><course>254.365021</course><hAcc>2.146017</hAcc><vAcc>0.467083</vAcc></extensions></trkpt>
      <trkpt lon="-3.042238" lat="52.704564"><ele>162.384384</ele><time>2022-01-15T09:30:53Z</time><extensions><speed>1.048085</speed><course>252.470505</course><hAcc>2.161933</hAcc><vAcc>0.461232</vAcc></extensions></trkpt>
      <trkpt lon="-3.042253" lat="52.704561"><ele>162.488831</ele><time>2022-01-15T09:30:54Z</time><extensions><speed>1.069885</speed><course>250.681610</course><hAcc>2.176647</hAcc><vAcc>0.455789</vAcc></extensions></trkpt>
      <trkpt lon="-3.042268" lat="52.704558"><ele>162.604065</ele><time>2022-01-15T09:30:55Z</time><extensions><speed>1.068380</speed><course>249.151962</course><hAcc>2.195808</hAcc><vAcc>0.450872</vAcc></extensions></trkpt>
      <trkpt lon="-3.042283" lat="52.704554"><ele>162.709473</ele><time>2022-01-15T09:30:56Z</time><extensions><speed>1.086348</speed><course>245.491592</course><hAcc>2.192961</hAcc><vAcc>0.446604</vAcc></extensions></trkpt>
      <trkpt lon="-3.042297" lat="52.704550"><ele>162.821823</ele><time>2022-01-15T09:30:57Z</time><extensions><speed>1.048262</speed><course>241.475006</course><hAcc>2.187401</hAcc><vAcc>0.443006</vAcc></extensions></trkpt>
      <trkpt lon="-3.042310" lat="52.704545"><ele>162.927155</ele><time>2022-01-15T09:30:58Z</time><extensions><speed>1.076363</speed><course>240.609818</course><hAcc>2.188667</hAcc><vAcc>0.440095</vAcc></extensions></trkpt>
      <trkpt lon="-3.042325" lat="52.704540"><ele>163.015381</ele><time>2022-01-15T09:30:59Z</time><extensions><speed>1.109543</speed><course>241.856155</course><hAcc>2.205127</hAcc><vAcc>0.437842</vAcc></extensions></trkpt>
      <trkpt lon="-3.042340" lat="52.704536"><ele>163.110535</ele><time>2022-01-15T09:31:00Z</time><extensions><speed>1.137435</speed><course>243.441589</course><hAcc>2.212556</hAcc><vAcc>0.436292</vAcc></extensions></trkpt>
      <trkpt lon="-3.042355" lat="52.704532"><ele>163.188400</ele><time>2022-01-15T09:31:01Z</time><extensions><speed>1.147402</speed><course>245.926193</course><hAcc>2.216694</hAcc><vAcc>0.435596</vAcc></extensions></trkpt>
      <trkpt lon="-3.042371" lat="52.704528"><ele>163.273132</ele><time>2022-01-15T09:31:02Z</time><extensions><speed>1.119079</speed><course>248.741608</course><hAcc>2.231750</hAcc><vAcc>0.435888</vAcc></extensions></trkpt>
      <trkpt lon="-3.042386" lat="52.704524"><ele>163.348328</ele><time>2022-01-15T09:31:03Z</time><extensions><speed>1.088735</speed><course>251.558243</course><hAcc>2.249200</hAcc><vAcc>0.437120</vAcc></extensions></trkpt>
      <trkpt lon="-3.042402" lat="52.704521"><ele>163.413635</ele><time>2022-01-15T09:31:04Z</time><extensions><speed>1.082411</speed><course>253.368027</course><hAcc>2.259345</hAcc><vAcc>0.439005</vAcc></extensions></trkpt>
      <trkpt lon="-3.042417" lat="52.704519"><ele>163.466583</ele><time>2022-01-15T09:31:05Z</time><extensions><speed>1.064313</speed><course>255.887665</course><hAcc>2.267574</hAcc><vAcc>0.441119</vAcc></extensions></trkpt>
      <trkpt lon="-3.042432" lat="52.704517"><ele>163.528778</ele><time>2022-01-15T09:31:06Z</time><extensions><speed>1.053292</speed><course>259.112701</course><hAcc>2.286694</hAcc><vAcc>0.443128</vAcc></extensions></trkpt>
      <trkpt lon="-3.042448" lat="52.704515"><ele>163.597672</ele><time>2022-01-15T09:31:07Z</time><extensions><speed>1.048332</speed><course>263.347900</course><hAcc>2.308787</hAcc><vAcc>0.444809</vAcc></extensions></trkpt>
      <trkpt lon="-3.042463" lat="52.704515"><ele>163.667786</ele><time>2022-01-15T09:31:08Z</time><extensions><speed>1.028661</speed><course>268.248718</course><hAcc>2.308740</hAcc><vAcc>0.446096</vAcc></extensions></trkpt>
      <trkpt lon="-3.042477" lat="52.704514"><ele>163.749146</ele><time>2022-01-15T09:31:09Z</time><extensions><speed>0.988570</speed><course>271.728638</course><hAcc>2.309600</hAcc><vAcc>0.447014</vAcc></extensions></trkpt>
      <trkpt lon="-3.042491" lat="52.704515"><ele>163.835236</ele><time>2022-01-15T09:31:10Z</time><extensions><speed>0.831167</speed><course>273.933655</course><hAcc>2.314734</hAcc><vAcc>0.447668</vAcc></extensions></trkpt>
      <trkpt lon="-3.042501" lat="52.704515"><ele>163.923553</ele><time>2022-01-15T09:31:11Z</time><extensions><speed>0.651781</speed><course>273.336609</course><hAcc>2.317581</hAcc><vAcc>0.448210</vAcc></extensions></trkpt>
      <trkpt lon="-3.042509" lat="52.704515"><ele>164.010681</ele><time>2022-01-15T09:31:12Z</time><extensions><speed>0.436890</speed><course>268.819519</course><hAcc>2.316426</hAcc><vAcc>0.448800</vAcc></extensions></trkpt>
      <trkpt lon="-3.042513" lat="52.704514"><ele>164.091782</ele><time>2022-01-15T09:31:13Z</time><extensions><speed>0.228610</speed><course>246.589188</course><hAcc>2.313488</hAcc><vAcc>0.449554</vAcc></extensions></trkpt>
      <trkpt lon="-3.042515" lat="52.704513"><ele>164.168304</ele><time>2022-01-15T09:31:14Z</time><extensions><speed>0.226065</speed><course>214.302963</course><hAcc>2.282215</hAcc><vAcc>0.450521</vAcc></extensions></trkpt>
      <trkpt lon="-3.042516" lat="52.704511"><ele>164.229095</ele><time>2022-01-15T09:31:15Z</time><extensions><speed>0.231348</speed><course>178.021027</course><hAcc>2.273626</hAcc><vAcc>0.451658</vAcc></extensions></trkpt>
      <trkpt lon="-3.042514" lat="52.704509"><ele>164.272446</ele><time>2022-01-15T09:31:16Z</time><extensions><speed>0.263956</speed><course>138.365707</course><hAcc>2.265782</hAcc><vAcc>0.452974</vAcc></extensions></trkpt>
      <trkpt lon="-3.042510" lat="52.704507"><ele>164.293747</ele><time>2022-01-15T09:31:17Z</time><extensions><speed>0.347284</speed><course>125.524979</course><hAcc>2.235916</hAcc><vAcc>0.454507</vAcc></extensions></trkpt>
      <trkpt lon="-3.042505" lat="52.704505"><ele>164.289948</ele><time>2022-01-15T09:31:18Z</time><extensions><speed>0.376440</speed><course>120.423698</course><hAcc>2.214447</hAcc><vAcc>0.456340</vAcc></extensions></trkpt>
      <trkpt lon="-3.042500" lat="52.704504"><ele>164.261795</ele><time>2022-01-15T09:31:19Z</time><extensions><speed>0.407933</speed><course>117.448341</course><hAcc>2.193635</hAcc><vAcc>0.458649</vAcc></extensions></trkpt>
      <trkpt lon="-3.042494" lat="52.704502"><ele>164.210724</ele><time>2022-01-15T09:31:20Z</time><extensions><speed>0.448323</speed><course>115.189873</course><hAcc>2.169140</hAcc><vAcc>0.461767</vAcc></extensions></trkpt>
      <trkpt lon="-3.042487" lat="52.704501"><ele>164.138519</ele><time>2022-01-15T09:31:21Z</time><extensions><speed>0.459305</speed><course>112.541969</course><hAcc>2.152493</hAcc><vAcc>0.466050</vAcc></extensions></trkpt>
      <trkpt lon="-3.042481" lat="52.704499"><ele>164.045593</ele><time>2022-01-15T09:31:22Z</time><extensions><speed>0.436709</speed><course>109.164650</course><hAcc>2.145732</hAcc><vAcc>0.471787</vAcc></extensions></trkpt>
      <trkpt lon="-3.042475" lat="52.704498"><ele>163.937393</ele><time>2022-01-15T09:31:23Z</time><extensions><speed>0.399000</speed><course>105.136169</course><hAcc>2.140659</hAcc><vAcc>0.479101</vAcc></extensions></trkpt>
      <trkpt lon="-3.042469" lat="52.704497"><ele>163.819748</ele><time>2022-01-15T09:31:24Z</time><extensions><speed>0.367253</speed><course>100.888069</course><hAcc>2.129626</hAcc><vAcc>0.487847</vAcc></extensions></trkpt>
      <trkpt lon="-3.042464" lat="52.704497"><ele>163.691650</ele><time>2022-01-15T09:31:25Z</time><extensions><speed>0.339132</speed><course>95.353027</course><hAcc>2.114063</hAcc><vAcc>0.497601</vAcc></extensions></trkpt>
      <trkpt lon="-3.042459" lat="52.704497"><ele>163.563614</ele><time>2022-01-15T09:31:26Z</time><extensions><speed>0.316129</speed><course>88.498482</course><hAcc>2.094084</hAcc><vAcc>0.507870</vAcc></extensions></trkpt>
      <trkpt lon="-3.042454" lat="52.704497"><ele>163.431702</ele><time>2022-01-15T09:31:27Z</time><extensions><speed>0.297781</speed><course>81.383942</course><hAcc>2.070293</hAcc><vAcc>0.518166</vAcc></extensions></trkpt>
      <trkpt lon="-3.042450" lat="52.704497"><ele>163.300919</ele><time>2022-01-15T09:31:28Z</time><extensions><speed>0.270093</speed><course>77.151207</course><hAcc>2.048680</hAcc><vAcc>0.527973</vAcc></extensions></trkpt>
      <trkpt lon="-3.042446" lat="52.704498"><ele>163.173965</ele><time>2022-01-15T09:31:29Z</time><extensions><speed>0.237608</speed><course>76.691513</course><hAcc>2.033081</hAcc><vAcc>0.536800</vAcc></extensions></trkpt>
      <trkpt lon="-3.042443" lat="52.704499"><ele>163.048721</ele><time>2022-01-15T09:31:30Z</time><extensions><speed>0.187065</speed><course>78.586082</course><hAcc>2.034895</hAcc><vAcc>0.544359</vAcc></extensions></trkpt>
      <trkpt lon="-3.042441" lat="52.704499"><ele>162.927399</ele><time>2022-01-15T09:31:31Z</time><extensions><speed>0.137639</speed><course>83.284073</course><hAcc>2.035379</hAcc><vAcc>0.550676</vAcc></extensions></trkpt>
      <trkpt lon="-3.042439" lat="52.704499"><ele>162.811111</ele><time>2022-01-15T09:31:32Z</time><extensions><speed>0.120432</speed><course>89.354973</course><hAcc>2.000163</hAcc><vAcc>0.556002</vAcc></extensions></trkpt>
      <trkpt lon="-3.042437" lat="52.704500"><ele>162.709946</ele><time>2022-01-15T09:31:33Z</time><extensions><speed>0.077141</speed><course>91.071625</course><hAcc>1.975073</hAcc><vAcc>0.560777</vAcc></extensions></trkpt>
      <trkpt lon="-3.042436" lat="52.704500"><ele>162.619781</ele><time>2022-01-15T09:31:34Z</time><extensions><speed>0.111590</speed><course>61.720196</course><hAcc>1.991012</hAcc><vAcc>0.565466</vAcc></extensions></trkpt>
      <trkpt lon="-3.042435" lat="52.704501"><ele>162.542404</ele><time>2022-01-15T09:31:35Z</time><extensions><speed>0.170887</speed><course>44.828529</course><hAcc>1.975765</hAcc><vAcc>0.570454</vAcc></extensions></trkpt>
      <trkpt lon="-3.042433" lat="52.704502"><ele>162.484787</ele><time>2022-01-15T09:31:36Z</time><extensions><speed>0.218472</speed><course>33.441181</course><hAcc>1.950524</hAcc><vAcc>0.575790</vAcc></extensions></trkpt>
      <trkpt lon="-3.042432" lat="52.704504"><ele>162.451202</ele><time>2022-01-15T09:31:37Z</time><extensions><speed>0.241611</speed><course>24.503185</course><hAcc>1.930709</hAcc><vAcc>0.581189</vAcc></extensions></trkpt>
      <trkpt lon="-3.042431" lat="52.704506"><ele>162.433456</ele><time>2022-01-15T09:31:38Z</time><extensions><speed>0.216917</speed><course>16.581268</course><hAcc>1.922821</hAcc><vAcc>0.586116</vAcc></extensions></trkpt>
      <trkpt lon="-3.042430" lat="52.704508"><ele>162.440796</ele><time>2022-01-15T09:31:39Z</time><extensions><speed>0.222014</speed><course>8.238981</course><hAcc>1.900594</hAcc><vAcc>0.589997</vAcc></extensions></trkpt>
      <trkpt lon="-3.042430" lat="52.704510"><ele>162.469131</ele><time>2022-01-15T09:31:40Z</time><extensions><speed>0.187356</speed><course>358.840332</course><hAcc>1.921983</hAcc><vAcc>0.592259</vAcc></extensions></trkpt>
      <trkpt lon="-3.042430" lat="52.704511"><ele>162.520813</ele><time>2022-01-15T09:31:41Z</time><extensions><speed>0.084833</speed><course>336.584198</course><hAcc>1.988185</hAcc><vAcc>0.592361</vAcc></extensions></trkpt>
      <trkpt lon="-3.042432" lat="52.704512"><ele>162.595581</ele><time>2022-01-15T09:31:42Z</time><extensions><speed>0.198528</speed><course>306.306580</course><hAcc>1.955740</hAcc><vAcc>0.589809</vAcc></extensions></trkpt>
      <trkpt lon="-3.042435" lat="52.704513"><ele>162.694656</ele><time>2022-01-15T09:31:43Z</time><extensions><speed>0.348589</speed><course>288.375854</course><hAcc>1.950134</hAcc><vAcc>0.584339</vAcc></extensions></trkpt>
      <trkpt lon="-3.042443" lat="52.704514"><ele>162.800690</ele><time>2022-01-15T09:31:44Z</time><extensions><speed>0.632740</speed><course>277.442963</course><hAcc>1.971470</hAcc><vAcc>0.575924</vAcc></extensions></trkpt>
      <trkpt lon="-3.042453" lat="52.704514"><ele>162.916718</ele><time>2022-01-15T09:31:45Z</time><extensions><speed>0.798787</speed><course>274.708038</course><hAcc>2.037699</hAcc><vAcc>0.564809</vAcc></extensions></trkpt>
      <trkpt lon="-3.042466" lat="52.704515"><ele>163.053772</ele><time>2022-01-15T09:31:46Z</time><extensions><speed>0.877519</speed><course>271.081818</course><hAcc>2.117651</hAcc><vAcc>0.551494</vAcc></extensions></trkpt>
      <trkpt lon="-3.042479" lat="52.704515"><ele>163.176300</ele><time>2022-01-15T09:31:47Z</time><extensions><speed>0.857355</speed><course>267.722198</course><hAcc>2.178028</hAcc><vAcc>0.536882</vAcc></extensions></trkpt>
      <trkpt lon="-3.042491" lat="52.704515"><ele>163.292725</ele><time>2022-01-15T09:31:48Z</time><extensions><speed>0.748422</speed><course>267.136230</course><hAcc>2.211918</hAcc><vAcc>0.522061</vAcc></extensions></trkpt>
      <trkpt lon="-3.042501" lat="52.704515"><ele>163.411850</ele><time>2022-01-15T09:31:49Z</time><extensions><speed>0.604145</speed><course>268.136810</course><hAcc>2.238044</hAcc><vAcc>0.508255</vAcc></extensions></trkpt>
      <trkpt lon="-3.042509" lat="52.704515"><ele>163.526962</ele><time>2022-01-15T09:31:50Z</time><extensions><speed>0.438565</speed><course>274.577545</course><hAcc>2.258444</hAcc><vAcc>0.496686</vAcc></extensions></trkpt>
      <trkpt lon="-3.042516" lat="52.704516"><ele>163.623810</ele><time>2022-01-15T09:31:51Z</time><extensions><speed>0.374984</speed><course>284.048126</course><hAcc>2.275692</hAcc><vAcc>0.488469</vAcc></extensions></trkpt>
      <trkpt lon="-3.042522" lat="52.704518"><ele>163.682846</ele><time>2022-01-15T09:31:52Z</time><extensions><speed>0.319821</speed><course>292.462891</course><hAcc>2.325321</hAcc><vAcc>0.484398</vAcc></extensions></trkpt>
      <trkpt lon="-3.042525" lat="52.704519"><ele>163.702209</ele><time>2022-01-15T09:31:53Z</time><extensions><speed>0.199912</speed><course>299.953308</course><hAcc>2.399709</hAcc><vAcc>0.484798</vAcc></extensions></trkpt>
      <trkpt lon="-3.042528" lat="52.704521"><ele>163.691544</ele><time>2022-01-15T09:31:54Z</time><extensions><speed>0.222274</speed><course>308.716064</course><hAcc>2.417056</hAcc><vAcc>0.489429</vAcc></extensions></trkpt>
      <trkpt lon="-3.042531" lat="52.704522"><ele>163.657562</ele><time>2022-01-15T09:31:55Z</time><extensions><speed>0.299927</speed><course>315.930603</course><hAcc>2.414401</hAcc><vAcc>0.497502</vAcc></extensions></trkpt>
      <trkpt lon="-3.042535" lat="52.704525"><ele>163.572922</ele><time>2022-01-15T09:31:56Z</time><extensions><speed>0.442621</speed><course>320.723206</course><hAcc>2.407044</hAcc><vAcc>0.507946</vAcc></extensions></trkpt>
      <trkpt lon="-3.042540" lat="52.704528"><ele>163.462601</ele><time>2022-01-15T09:31:57Z</time><extensions><speed>0.566309</speed><course>323.440430</course><hAcc>2.426271</hAcc><vAcc>0.519791</vAcc></extensions></trkpt>
      <trkpt lon="-3.042545" lat="52.704533"><ele>163.326324</ele><time>2022-01-15T09:31:58Z</time><extensions><speed>0.628286</speed><course>324.942413</course><hAcc>2.481427</hAcc><vAcc>0.532323</vAcc></extensions></trkpt>
      <trkpt lon="-3.042551" lat="52.704537"><ele>163.159607</ele><time>2022-01-15T09:31:59Z</time><extensions><speed>0.658175</speed><course>325.972626</course><hAcc>2.541881</hAcc><vAcc>0.545051</vAcc></extensions></trkpt>
      <trkpt lon="-3.042557" lat="52.704543"><ele>162.980850</ele><time>2022-01-15T09:32:00Z</time><extensions><speed>0.740092</speed><course>326.591400</course><hAcc>2.570189</hAcc><vAcc>0.557654</vAcc></extensions></trkpt>
      <trkpt lon="-3.042565" lat="52.704548"><ele>162.827057</ele><time>2022-01-15T09:32:01Z</time><extensions><speed>0.880123</speed><course>327.020386</course><hAcc>2.567942</hAcc><vAcc>0.569907</vAcc></extensions></trkpt>
      <trkpt lon="-3.042573" lat="52.704554"><ele>162.688934</ele><time>2022-01-15T09:32:02Z</time><extensions><speed>0.839728</speed><course>323.182770</course><hAcc>2.566406</hAcc><vAcc>0.581628</vAcc></extensions></trkpt>
      <trkpt lon="-3.042580" lat="52.704559"><ele>162.604218</ele><time>2022-01-15T09:32:03Z</time><extensions><speed>0.654009</speed><course>315.823547</course><hAcc>2.582278</hAcc><vAcc>0.592446</vAcc></extensions></trkpt>
      <trkpt lon="-3.042587" lat="52.704562"><ele>162.560654</ele><time>2022-01-15T09:32:04Z</time><extensions><speed>0.394849</speed><course>301.176697</course><hAcc>2.617007</hAcc><vAcc>0.602395</vAcc></extensions></trkpt>
      <trkpt lon="-3.042592" lat="52.704563"><ele>162.566544</ele><time>2022-01-15T09:32:05Z</time><extensions><speed>0.363172</speed><course>285.757690</course><hAcc>2.619148</hAcc><vAcc>0.611541</vAcc></extensions></trkpt>
      <trkpt lon="-3.042599" lat="52.704563"><ele>162.618851</ele><time>2022-01-15T09:32:06Z</time><extensions><speed>0.441009</speed><course>280.403259</course><hAcc>2.619932</hAcc><vAcc>0.619922</vAcc></extensions></trkpt>
      <trkpt lon="-3.042605" lat="52.704563"><ele>162.698669</ele><time>2022-01-15T09:32:07Z</time><extensions><speed>0.368259</speed><course>261.325287</course><hAcc>2.653368</hAcc><vAcc>0.627587</vAcc></extensions></trkpt>
      <trkpt lon="-3.042612" lat="52.704562"><ele>162.836823</ele><time>2022-01-15T09:32:08Z</time><extensions><speed>0.502123</speed><course>252.292603</course><hAcc>2.642192</hAcc><vAcc>0.634589</vAcc></extensions></trkpt>
      <trkpt lon="-3.042623" lat="52.704560"><ele>163.016525</ele><time>2022-01-15T09:32:09Z</time><extensions><speed>0.784106</speed><course>251.258774</course><hAcc>2.599909</hAcc><vAcc>0.640957</vAcc></extensions></trkpt>
      <trkpt lon="-3.042635" lat="52.704557"><ele>163.240860</ele><time>2022-01-15T09:32:10Z</time><extensions><speed>0.898809</speed><course>248.036377</course><hAcc>2.618780</hAcc><vAcc>0.646771</vAcc></extensions></trkpt>
      <trkpt lon="-3.042648" lat="52.704553"><ele>163.508209</ele><time>2022-01-15T09:32:11Z</time><extensions><speed>0.807084</speed><course>242.639786</course><hAcc>2.690223</hAcc><vAcc>0.652173</vAcc></extensions></trkpt>
      <trkpt lon="-3.042660" lat="52.704550"><ele>163.806274</ele><time>2022-01-15T09:32:12Z</time><extensions><speed>0.804562</speed><course>242.872742</course><hAcc>2.752168</hAcc><vAcc>0.657316</vAcc></extensions></trkpt>
      <trkpt lon="-3.042671" lat="52.704547"><ele>164.088577</ele><time>2022-01-15T09:32:13Z</time><extensions><speed>0.637106</speed><course>241.257584</course><hAcc>2.814084</hAcc><vAcc>0.662446</vAcc></extensions></trkpt>
      <trkpt lon="-3.042681" lat="52.704545"><ele>164.385788</ele><time>2022-01-15T09:32:14Z</time><extensions><speed>0.548488</speed><course>243.096786</course><hAcc>2.856911</hAcc><vAcc>0.667835</vAcc></extensions></trkpt>
      <trkpt lon="-3.042690" lat="52.704543"><ele>164.684769</ele><time>2022-01-15T09:32:15Z</time><extensions><speed>0.610745</speed><course>247.455170</course><hAcc>2.871141</hAcc><vAcc>0.673676</vAcc></extensions></trkpt>
      <trkpt lon="-3.042701" lat="52.704541"><ele>164.966293</ele><time>2022-01-15T09:32:16Z</time><extensions><speed>0.668765</speed><course>252.637512</course><hAcc>2.892207</hAcc><vAcc>0.680086</vAcc></extensions></trkpt>
      <trkpt lon="-3.042713" lat="52.704539"><ele>165.233948</ele><time>2022-01-15T09:32:17Z</time><extensions><speed>0.725159</speed><course>257.560883</course><hAcc>2.920655</hAcc><vAcc>0.687028</vAcc></extensions></trkpt>
      <trkpt lon="-3.042726" lat="52.704538"><ele>165.514297</ele><time>2022-01-15T09:32:18Z</time><extensions><speed>0.815704</speed><course>261.972839</course><hAcc>2.948405</hAcc><vAcc>0.694414</vAcc></extensions></trkpt>
      <trkpt lon="-3.042739" lat="52.704538"><ele>165.792282</ele><time>2022-01-15T09:32:19Z</time><extensions><speed>0.809473</speed><course>266.102539</course><hAcc>2.989272</hAcc><vAcc>0.701550</vAcc></extensions></trkpt>
      <trkpt lon="-3.042752" lat="52.704538"><ele>166.111542</ele><time>2022-01-15T09:32:20Z</time><extensions><speed>0.824408</speed><course>270.314423</course><hAcc>3.021163</hAcc><vAcc>0.708003</vAcc></extensions></trkpt>
      <trkpt lon="-3.042765" lat="52.704539"><ele>166.440125</ele><time>2022-01-15T09:32:21Z</time><extensions><speed>0.818335</speed><course>274.506592</course><hAcc>3.048578</hAcc><vAcc>0.713371</vAcc></extensions></trkpt>
      <trkpt lon="-3.042777" lat="52.704541"><ele>166.813492</ele><time>2022-01-15T09:32:22Z</time><extensions><speed>0.767867</speed><course>278.731689</course><hAcc>3.067234</hAcc><vAcc>0.717324</vAcc></extensions></trkpt>
      <trkpt lon="-3.042789" lat="52.704542"><ele>167.173553</ele><time>2022-01-15T09:32:23Z</time><extensions><speed>0.816733</speed><course>282.779877</course><hAcc>3.064850</hAcc><vAcc>0.719606</vAcc></extensions></trkpt>
      <trkpt lon="-3.042800" lat="52.704545"><ele>167.549316</ele><time>2022-01-15T09:32:24Z</time><extensions><speed>0.727544</speed><course>287.593262</course><hAcc>3.076820</hAcc><vAcc>0.719946</vAcc></extensions></trkpt>
      <trkpt lon="-3.042810" lat="52.704547"><ele>168.006622</ele><time>2022-01-15T09:32:25Z</time><extensions><speed>0.661226</speed><course>294.739685</course><hAcc>3.077934</hAcc><vAcc>0.718014</vAcc></extensions></trkpt>
      <trkpt lon="-3.042819" lat="52.704550"><ele>168.489807</ele><time>2022-01-15T09:32:26Z</time><extensions><speed>0.632557</speed><course>305.541992</course><hAcc>3.057153</hAcc><vAcc>0.713599</vAcc></extensions></trkpt>
      <trkpt lon="-3.042825" lat="52.704554"><ele>168.992813</ele><time>2022-01-15T09:32:27Z</time><extensions><speed>0.618402</speed><course>322.706787</course><hAcc>3.022933</hAcc><vAcc>0.706511</vAcc></extensions></trkpt>
      <trkpt lon="-3.042829" lat="52.704560"><ele>169.520233</ele><time>2022-01-15T09:32:28Z</time><extensions><speed>0.704127</speed><course>344.866486</course><hAcc>2.979689</hAcc><vAcc>0.696713</vAcc></extensions></trkpt>
      <trkpt lon="-3.042831" lat="52.704567"><ele>170.075089</ele><time>2022-01-15T09:32:29Z</time><extensions><speed>0.833615</speed><course>0.322444</course><hAcc>2.944715</hAcc><vAcc>0.684401</vAcc></extensions></trkpt>
      <trkpt lon="-3.042829" lat="52.704575"><ele>170.651627</ele><time>2022-01-15T09:32:30Z</time><extensions><speed>0.970583</speed><course>11.268740</course><hAcc>2.924951</hAcc><vAcc>0.670022</vAcc></extensions></trkpt>
      <trkpt lon="-3.042826" lat="52.704584"><ele>171.243607</ele><time>2022-01-15T09:32:31Z</time><extensions><speed>1.063446</speed><course>16.495947</course><hAcc>2.902807</hAcc><vAcc>0.654212</vAcc></extensions></trkpt>
      <trkpt lon="-3.042821" lat="52.704594"><ele>171.844696</ele><time>2022-01-15T09:32:32Z</time><extensions><speed>1.023567</speed><course>19.661209</course><hAcc>2.878647</hAcc><vAcc>0.637716</vAcc></extensions></trkpt>
      <trkpt lon="-3.042816" lat="52.704602"><ele>172.447769</ele><time>2022-01-15T09:32:33Z</time><extensions><speed>0.946183</speed><course>18.057302</course><hAcc>2.839667</hAcc><vAcc>0.621277</vAcc></extensions></trkpt>
      <trkpt lon="-3.042812" lat="52.704610"><ele>173.043320</ele><time>2022-01-15T09:32:34Z</time><extensions><speed>0.882181</speed><course>18.098047</course><hAcc>2.816654</hAcc><vAcc>0.605574</vAcc></extensions></trkpt>
      <trkpt lon="-3.042808" lat="52.704618"><ele>173.633606</ele><time>2022-01-15T09:32:35Z</time><extensions><speed>0.799015</speed><course>19.412809</course><hAcc>2.822798</hAcc><vAcc>0.591154</vAcc></extensions></trkpt>
      <trkpt lon="-3.042805" lat="52.704624"><ele>174.205261</ele><time>2022-01-15T09:32:36Z</time><extensions><speed>0.638968</speed><course>18.094328</course><hAcc>2.841806</hAcc><vAcc>0.578408</vAcc></extensions></trkpt>
      <trkpt lon="-3.042803" lat="52.704629"><ele>174.750885</ele><time>2022-01-15T09:32:37Z</time><extensions><speed>0.416791</speed><course>9.908395</course><hAcc>2.864442</hAcc><vAcc>0.567573</vAcc></extensions></trkpt>
      <trkpt lon="-3.042802" lat="52.704632"><ele>175.266327</ele><time>2022-01-15T09:32:38Z</time><extensions><speed>0.350177</speed><course>2.711061</course><hAcc>2.869335</hAcc><vAcc>0.558790</vAcc></extensions></trkpt>
      <trkpt lon="-3.042802" lat="52.704635"><ele>175.750763</ele><time>2022-01-15T09:32:39Z</time><extensions><speed>0.324120</speed><course>358.586060</course><hAcc>2.874933</hAcc><vAcc>0.552150</vAcc></extensions></trkpt>
      <trkpt lon="-3.042802" lat="52.704639"><ele>176.201645</ele><time>2022-01-15T09:32:40Z</time><extensions><speed>0.313633</speed><course>357.491394</course><hAcc>2.887612</hAcc><vAcc>0.547697</vAcc></extensions></trkpt>
      <trkpt lon="-3.042802" lat="52.704642"><ele>176.614532</ele><time>2022-01-15T09:32:41Z</time><extensions><speed>0.312227</speed><course>358.348206</course><hAcc>2.904369</hAcc><vAcc>0.545456</vAcc></extensions></trkpt>
      <trkpt lon="-3.042801" lat="52.704645"><ele>176.999268</ele><time>2022-01-15T09:32:42Z</time><extensions><speed>0.302932</speed><course>0.375691</course><hAcc>2.928769</hAcc><vAcc>0.545434</vAcc></extensions></trkpt>
      <trkpt lon="-3.042801" lat="52.704649"><ele>177.355835</ele><time>2022-01-15T09:32:43Z</time><extensions><speed>0.288506</speed><course>3.552292</course><hAcc>2.965483</hAcc><vAcc>0.547606</vAcc></extensions></trkpt>
      <trkpt lon="-3.042800" lat="52.704652"><ele>177.692749</ele><time>2022-01-15T09:32:44Z</time><extensions><speed>0.267129</speed><course>8.658283</course><hAcc>3.020424</hAcc><vAcc>0.551875</vAcc></extensions></trkpt>
      <trkpt lon="-3.042799" lat="52.704655"><ele>178.005508</ele><time>2022-01-15T09:32:45Z</time><extensions><speed>0.247510</speed><course>14.526933</course><hAcc>3.070475</hAcc><vAcc>0.557956</vAcc></extensions></trkpt>
      <trkpt lon="-3.042797" lat="52.704658"><ele>178.296646</ele><time>2022-01-15T09:32:46Z</time><extensions><speed>0.301741</speed><course>19.084801</course><hAcc>3.079928</hAcc><vAcc>0.565414</vAcc></extensions></trkpt>
      <trkpt lon="-3.042794" lat="52.704662"><ele>178.580002</ele><time>2022-01-15T09:32:46Z</time><extensions><speed>0.355908</speed><course>21.870474</course><hAcc>3.079373</hAcc><vAcc>0.573641</vAcc></extensions></trkpt>
      <trkpt lon="-3.042791" lat="52.704666"><ele>178.843964</ele><time>2022-01-15T09:32:47Z</time><extensions><speed>0.424645</speed><course>23.288452</course><hAcc>3.074414</hAcc><vAcc>0.581995</vAcc></extensions></trkpt>
      <trkpt lon="-3.042787" lat="52.704671"><ele>179.114426</ele><time>2022-01-15T09:32:48Z</time><extensions><speed>0.480484</speed><course>23.939085</course><hAcc>3.064867</hAcc><vAcc>0.589889</vAcc></extensions></trkpt>
      <trkpt lon="-3.042783" lat="52.704676"><ele>179.372849</ele><time>2022-01-15T09:32:49Z</time><extensions><speed>0.569715</speed><course>24.607466</course><hAcc>3.042681</hAcc><vAcc>0.596829</vAcc></extensions></trkpt>
      <trkpt lon="-3.042777" lat="52.704683"><ele>179.642334</ele><time>2022-01-15T09:32:51Z</time><extensions><speed>0.596555</speed><course>26.124119</course><hAcc>3.029676</hAcc><vAcc>0.602460</vAcc></extensions></trkpt>
      <trkpt lon="-3.042771" lat="52.704689"><ele>179.918701</ele><time>2022-01-15T09:32:52Z</time><extensions><speed>0.578795</speed><course>27.763742</course><hAcc>3.018577</hAcc><vAcc>0.606480</vAcc></extensions></trkpt>
      <trkpt lon="-3.042766" lat="52.704695"><ele>180.207367</ele><time>2022-01-15T09:32:53Z</time><extensions><speed>0.617010</speed><course>29.711115</course><hAcc>2.987121</hAcc><vAcc>0.608702</vAcc></extensions></trkpt>
      <trkpt lon="-3.042759" lat="52.704701"><ele>180.492691</ele><time>2022-01-15T09:32:54Z</time><extensions><speed>0.640427</speed><course>31.702387</course><hAcc>2.975019</hAcc><vAcc>0.609042</vAcc></extensions></trkpt>
      <trkpt lon="-3.042754" lat="52.704705"><ele>180.784805</ele><time>2022-01-15T09:32:54Z</time><extensions><speed>0.383303</speed><course>32.690319</course><hAcc>3.005877</hAcc><vAcc>0.607560</vAcc></extensions></trkpt>
      <trkpt lon="-3.042750" lat="52.704708"><ele>181.079636</ele><time>2022-01-15T09:32:55Z</time><extensions><speed>0.380974</speed><course>34.502785</course><hAcc>2.993883</hAcc><vAcc>0.604453</vAcc></extensions></trkpt>
      <trkpt lon="-3.042746" lat="52.704711"><ele>181.377899</ele><time>2022-01-15T09:32:56Z</time><extensions><speed>0.390604</speed><course>36.484219</course><hAcc>2.976956</hAcc><vAcc>0.600006</vAcc></extensions></trkpt>
      <trkpt lon="-3.042742" lat="52.704714"><ele>181.675827</ele><time>2022-01-15T09:32:57Z</time><extensions><speed>0.454476</speed><course>38.759945</course><hAcc>2.954704</hAcc><vAcc>0.594544</vAcc></extensions></trkpt>
      <trkpt lon="-3.042737" lat="52.704718"><ele>181.970062</ele><time>2022-01-15T09:32:58Z</time><extensions><speed>0.599950</speed><course>41.779652</course><hAcc>2.924207</hAcc><vAcc>0.588389</vAcc></extensions></trkpt>
      <trkpt lon="-3.042730" lat="52.704722"><ele>182.256729</ele><time>2022-01-15T09:32:59Z</time><extensions><speed>0.723026</speed><course>45.618202</course><hAcc>2.901520</hAcc><vAcc>0.581835</vAcc></extensions></trkpt>
      <trkpt lon="-3.042720" lat="52.704728"><ele>182.530960</ele><time>2022-01-15T09:33:00Z</time><extensions><speed>1.015483</speed><course>49.670162</course><hAcc>2.869293</hAcc><vAcc>0.575138</vAcc></extensions></trkpt>
      <trkpt lon="-3.042707" lat="52.704734"><ele>182.788376</ele><time>2022-01-15T09:33:01Z</time><extensions><speed>1.141224</speed><course>52.648296</course><hAcc>2.868108</hAcc><vAcc>0.568544</vAcc></extensions></trkpt>
      <trkpt lon="-3.042693" lat="52.704740"><ele>183.025162</ele><time>2022-01-15T09:33:02Z</time><extensions><speed>1.131666</speed><course>55.411724</course><hAcc>2.903161</hAcc><vAcc>0.562230</vAcc></extensions></trkpt>
      <trkpt lon="-3.042679" lat="52.704746"><ele>183.241287</ele><time>2022-01-15T09:33:03Z</time><extensions><speed>1.107005</speed><course>56.963528</course><hAcc>2.920599</hAcc><vAcc>0.556335</vAcc></extensions></trkpt>
      <trkpt lon="-3.042665" lat="52.704751"><ele>183.437805</ele><time>2022-01-15T09:33:04Z</time><extensions><speed>1.079165</speed><course>57.953098</course><hAcc>2.933814</hAcc><vAcc>0.551005</vAcc></extensions></trkpt>
      <trkpt lon="-3.042652" lat="52.704756"><ele>183.616806</ele><time>2022-01-15T09:33:05Z</time><extensions><speed>1.003967</speed><course>58.100582</course><hAcc>2.958315</hAcc><vAcc>0.546362</vAcc></extensions></trkpt>
      <trkpt lon="-3.042639" lat="52.704761"><ele>183.772263</ele><time>2022-01-15T09:33:06Z</time><extensions><speed>0.926874</speed><course>57.288651</course><hAcc>2.950572</hAcc><vAcc>0.542494</vAcc></extensions></trkpt>
      <trkpt lon="-3.042628" lat="52.704766"><ele>183.905502</ele><time>2022-01-15T09:33:07Z</time><extensions><speed>0.836301</speed><course>56.462543</course><hAcc>2.942080</hAcc><vAcc>0.539464</vAcc></extensions></trkpt>
      <trkpt lon="-3.042618" lat="52.704770"><ele>184.018341</ele><time>2022-01-15T09:33:08Z</time><extensions><speed>0.711475</speed><course>55.871861</course><hAcc>2.968892</hAcc><vAcc>0.537303</vAcc></extensions></trkpt>
      <trkpt lon="-3.042610" lat="52.704773"><ele>184.113586</ele><time>2022-01-15T09:33:09Z</time><extensions><speed>0.547479</speed><course>54.721981</course><hAcc>3.023893</hAcc><vAcc>0.535976</vAcc></extensions></trkpt>
      <trkpt lon="-3.042604" lat="52.704776"><ele>184.196228</ele><time>2022-01-15T09:33:10Z</time><extensions><speed>0.479372</speed><course>52.849499</course><hAcc>3.077367</hAcc><vAcc>0.535365</vAcc></extensions></trkpt>
      <trkpt lon="-3.042598" lat="52.704779"><ele>184.268005</ele><time>2022-01-15T09:33:11Z</time><extensions><speed>0.458792</speed><course>50.006123</course><hAcc>3.127203</hAcc><vAcc>0.535328</vAcc></extensions></trkpt>
      <trkpt lon="-3.042593" lat="52.704782"><ele>184.331116</ele><time>2022-01-15T09:33:12Z</time><extensions><speed>0.443361</speed><course>46.939598</course><hAcc>3.176281</hAcc><vAcc>0.535732</vAcc></extensions></trkpt>
      <trkpt lon="-3.042587" lat="52.704785"><ele>184.386169</ele><time>2022-01-15T09:33:13Z</time><extensions><speed>0.448268</speed><course>44.479633</course><hAcc>3.214888</hAcc><vAcc>0.536411</vAcc></extensions></trkpt>
      <trkpt lon="-3.042582" lat="52.704788"><ele>184.437210</ele><time>2022-01-15T09:33:14Z</time><extensions><speed>0.450382</speed><course>43.569027</course><hAcc>3.249671</hAcc><vAcc>0.537169</vAcc></extensions></trkpt>
      <trkpt lon="-3.042577" lat="52.704792"><ele>184.481903</ele><time>2022-01-15T09:33:15Z</time><extensions><speed>0.472127</speed><course>43.172955</course><hAcc>3.278871</hAcc><vAcc>0.537864</vAcc></extensions></trkpt>
      <trkpt lon="-3.042571" lat="52.704796"><ele>184.527313</ele><time>2022-01-15T09:33:16Z</time><extensions><speed>0.502302</speed><course>42.965057</course><hAcc>3.309596</hAcc><vAcc>0.538437</vAcc></extensions></trkpt>
      <trkpt lon="-3.042565" lat="52.704800"><ele>184.585007</ele><time>2022-01-15T09:33:17Z</time><extensions><speed>0.537085</speed><course>42.286160</course><hAcc>3.339388</hAcc><vAcc>0.538910</vAcc></extensions></trkpt>
      <trkpt lon="-3.042559" lat="52.704804"><ele>184.658661</ele><time>2022-01-15T09:33:18Z</time><extensions><speed>0.584514</speed><course>40.981503</course><hAcc>3.367245</hAcc><vAcc>0.539388</vAcc></extensions></trkpt>
      <trkpt lon="-3.042553" lat="52.704810"><ele>184.752960</ele><time>2022-01-15T09:33:19Z</time><extensions><speed>0.649466</speed><course>39.388958</course><hAcc>3.391463</hAcc><vAcc>0.539969</vAcc></extensions></trkpt>
      <trkpt lon="-3.042545" lat="52.704815"><ele>184.866043</ele><time>2022-01-15T09:33:20Z</time><extensions><speed>0.731919</speed><course>38.121090</course><hAcc>3.408362</hAcc><vAcc>0.540695</vAcc></extensions></trkpt>
      <trkpt lon="-3.042537" lat="52.704822"><ele>184.995651</ele><time>2022-01-15T09:33:21Z</time><extensions><speed>0.804946</speed><course>37.533188</course><hAcc>3.414638</hAcc><vAcc>0.541535</vAcc></extensions></trkpt>
      <trkpt lon="-3.042528" lat="52.704829"><ele>185.137283</ele><time>2022-01-15T09:33:22Z</time><extensions><speed>0.874588</speed><course>37.463169</course><hAcc>3.404078</hAcc><vAcc>0.542405</vAcc></extensions></trkpt>
      <trkpt lon="-3.042519" lat="52.704836"><ele>185.296783</ele><time>2022-01-15T09:33:23Z</time><extensions><speed>0.929529</speed><course>37.900673</course><hAcc>3.383162</hAcc><vAcc>0.543221</vAcc></extensions></trkpt>
      <trkpt lon="-3.042510" lat="52.704843"><ele>185.474762</ele><time>2022-01-15T09:33:24Z</time><extensions><speed>0.948872</speed><course>39.204929</course><hAcc>3.368539</hAcc><vAcc>0.543906</vAcc></extensions></trkpt>
      <trkpt lon="-3.042500" lat="52.704850"><ele>185.667877</ele><time>2022-01-15T09:33:25Z</time><extensions><speed>0.807163</speed><course>39.643944</course><hAcc>3.363264</hAcc><vAcc>0.544380</vAcc></extensions></trkpt>
      <trkpt lon="-3.042491" lat="52.704856"><ele>185.866440</ele><time>2022-01-15T09:33:26Z</time><extensions><speed>0.886956</speed><course>42.149006</course><hAcc>3.321301</hAcc><vAcc>0.544588</vAcc></extensions></trkpt>
      <trkpt lon="-3.042481" lat="52.704863"><ele>186.063431</ele><time>2022-01-15T09:33:27Z</time><extensions><speed>1.020600</speed><course>46.638508</course><hAcc>3.274714</hAcc><vAcc>0.544433</vAcc></extensions></trkpt>
      <trkpt lon="-3.042469" lat="52.704870"><ele>186.256287</ele><time>2022-01-15T09:33:28Z</time><extensions><speed>1.072352</speed><course>46.875523</course><hAcc>3.227200</hAcc><vAcc>0.543838</vAcc></extensions></trkpt>
      <trkpt lon="-3.042457" lat="52.704877"><ele>186.441055</ele><time>2022-01-15T09:33:29Z</time><extensions><speed>1.087733</speed><course>47.520870</course><hAcc>3.178242</hAcc><vAcc>0.542854</vAcc></extensions></trkpt>
      <trkpt lon="-3.042445" lat="52.704884"><ele>186.611176</ele><time>2022-01-15T09:33:30Z</time><extensions><speed>1.141415</speed><course>46.805382</course><hAcc>3.116336</hAcc><vAcc>0.541600</vAcc></extensions></trkpt>
      <trkpt lon="-3.042433" lat="52.704891"><ele>186.765778</ele><time>2022-01-15T09:33:31Z</time><extensions><speed>1.152005</speed><course>46.072563</course><hAcc>3.060890</hAcc><vAcc>0.540185</vAcc></extensions></trkpt>
      <trkpt lon="-3.042421" lat="52.704898"><ele>186.909866</ele><time>2022-01-15T09:33:32Z</time><extensions><speed>1.075025</speed><course>45.153141</course><hAcc>3.019441</hAcc><vAcc>0.538676</vAcc></extensions></trkpt>
      <trkpt lon="-3.042409" lat="52.704906"><ele>187.039902</ele><time>2022-01-15T09:33:33Z</time><extensions><speed>1.228937</speed><course>46.038376</course><hAcc>2.962241</hAcc><vAcc>0.537084</vAcc></extensions></trkpt>
      <trkpt lon="-3.042395" lat="52.704914"><ele>187.160095</ele><time>2022-01-15T09:33:34Z</time><extensions><speed>1.293703</speed><course>46.660999</course><hAcc>2.918351</hAcc><vAcc>0.535404</vAcc></extensions></trkpt>
      <trkpt lon="-3.042381" lat="52.704922"><ele>187.263779</ele><time>2022-01-15T09:33:35Z</time><extensions><speed>1.225844</speed><course>47.576958</course><hAcc>2.918448</hAcc><vAcc>0.533633</vAcc></extensions></trkpt>
      <trkpt lon="-3.042369" lat="52.704929"><ele>187.351227</ele><time>2022-01-15T09:33:36Z</time><extensions><speed>1.046279</speed><course>48.517319</course><hAcc>2.950808</hAcc><vAcc>0.531770</vAcc></extensions></trkpt>
      <trkpt lon="-3.042358" lat="52.704934"><ele>187.425735</ele><time>2022-01-15T09:33:37Z</time><extensions><speed>0.875163</speed><course>50.324387</course><hAcc>2.955984</hAcc><vAcc>0.529836</vAcc></extensions></trkpt>
      <trkpt lon="-3.042348" lat="52.704939"><ele>187.495407</ele><time>2022-01-15T09:33:38Z</time><extensions><speed>0.808304</speed><course>49.868870</course><hAcc>2.892125</hAcc><vAcc>0.527831</vAcc></extensions></trkpt>
      <trkpt lon="-3.042339" lat="52.704944"><ele>187.558197</ele><time>2022-01-15T09:33:39Z</time><extensions><speed>0.766870</speed><course>50.364498</course><hAcc>2.830303</hAcc><vAcc>0.525732</vAcc></extensions></trkpt>
      <trkpt lon="-3.042330" lat="52.704948"><ele>187.615372</ele><time>2022-01-15T09:33:40Z</time><extensions><speed>0.708097</speed><course>50.994659</course><hAcc>2.800809</hAcc><vAcc>0.523596</vAcc></extensions></trkpt>
      <trkpt lon="-3.042322" lat="52.704951"><ele>187.670761</ele><time>2022-01-15T09:33:41Z</time><extensions><speed>0.610286</speed><course>52.624584</course><hAcc>2.815914</hAcc><vAcc>0.521544</vAcc></extensions></trkpt>
      <trkpt lon="-3.042315" lat="52.704954"><ele>187.710236</ele><time>2022-01-15T09:33:42Z</time><extensions><speed>0.473839</speed><course>52.566334</course><hAcc>2.838343</hAcc><vAcc>0.519699</vAcc></extensions></trkpt>
      <trkpt lon="-3.042309" lat="52.704957"><ele>187.743958</ele><time>2022-01-15T09:33:43Z</time><extensions><speed>0.542746</speed><course>54.701103</course><hAcc>2.835159</hAcc><vAcc>0.518124</vAcc></extensions></trkpt>
      <trkpt lon="-3.042302" lat="52.704960"><ele>187.773346</ele><time>2022-01-15T09:33:44Z</time><extensions><speed>0.521479</speed><course>56.906044</course><hAcc>2.849074</hAcc><vAcc>0.516846</vAcc></extensions></trkpt>
      <trkpt lon="-3.042296" lat="52.704962"><ele>187.800293</ele><time>2022-01-15T09:33:45Z</time><extensions><speed>0.450939</speed><course>63.343399</course><hAcc>2.850228</hAcc><vAcc>0.515883</vAcc></extensions></trkpt>
      <trkpt lon="-3.042289" lat="52.704965"><ele>187.829041</ele><time>2022-01-15T09:33:46Z</time><extensions><speed>0.542668</speed><course>66.008453</course><hAcc>2.834114</hAcc><vAcc>0.515216</vAcc></extensions></trkpt>
      <trkpt lon="-3.042282" lat="52.704967"><ele>187.860046</ele><time>2022-01-15T09:33:47Z</time><extensions><speed>0.516276</speed><course>67.094238</course><hAcc>2.852258</hAcc><vAcc>0.514743</vAcc></extensions></trkpt>
      <trkpt lon="-3.042276" lat="52.704969"><ele>187.890610</ele><time>2022-01-15T09:33:48Z</time><extensions><speed>0.394675</speed><course>64.016342</course><hAcc>2.894713</hAcc><vAcc>0.514254</vAcc></extensions></trkpt>
      <trkpt lon="-3.042270" lat="52.704971"><ele>187.924561</ele><time>2022-01-15T09:33:49Z</time><extensions><speed>0.405084</speed><course>57.072323</course><hAcc>2.906310</hAcc><vAcc>0.513469</vAcc></extensions></trkpt>
      <trkpt lon="-3.042265" lat="52.704974"><ele>187.964386</ele><time>2022-01-15T09:33:50Z</time><extensions><speed>0.505922</speed><course>49.939987</course><hAcc>2.889246</hAcc><vAcc>0.512176</vAcc></extensions></trkpt>
      <trkpt lon="-3.042258" lat="52.704978"><ele>188.006393</ele><time>2022-01-15T09:33:51Z</time><extensions><speed>0.711978</speed><course>44.102013</course><hAcc>2.857160</hAcc><vAcc>0.510326</vAcc></extensions></trkpt>
      <trkpt lon="-3.042250" lat="52.704984"><ele>188.051468</ele><time>2022-01-15T09:33:52Z</time><extensions><speed>0.847246</speed><course>42.371441</course><hAcc>2.847241</hAcc><vAcc>0.508049</vAcc></extensions></trkpt>
      <trkpt lon="-3.042241" lat="52.704990"><ele>188.107132</ele><time>2022-01-15T09:33:53Z</time><extensions><speed>0.889662</speed><course>39.953003</course><hAcc>2.851647</hAcc><vAcc>0.505594</vAcc></extensions></trkpt>
      <trkpt lon="-3.042233" lat="52.704997"><ele>188.174652</ele><time>2022-01-15T09:33:54Z</time><extensions><speed>0.915747</speed><course>33.613491</course><hAcc>2.822001</hAcc><vAcc>0.503211</vAcc></extensions></trkpt>
      <trkpt lon="-3.042226" lat="52.705005"><ele>188.253128</ele><time>2022-01-15T09:33:55Z</time><extensions><speed>0.892713</speed><course>27.686630</course><hAcc>2.789030</hAcc><vAcc>0.501134</vAcc></extensions></trkpt>
      <trkpt lon="-3.042220" lat="52.705012"><ele>188.347946</ele><time>2022-01-15T09:33:56Z</time><extensions><speed>0.835744</speed><course>23.053160</course><hAcc>2.775541</hAcc><vAcc>0.499512</vAcc></extensions></trkpt>
      <trkpt lon="-3.042216" lat="52.705019"><ele>188.464111</ele><time>2022-01-15T09:33:57Z</time><extensions><speed>0.696537</speed><course>19.245520</course><hAcc>2.780361</hAcc><vAcc>0.498388</vAcc></extensions></trkpt>
      <trkpt lon="-3.042212" lat="52.705025"><ele>188.602524</ele><time>2022-01-15T09:33:58Z</time><extensions><speed>0.666835</speed><course>17.878222</course><hAcc>2.773028</hAcc><vAcc>0.497685</vAcc></extensions></trkpt>
      <trkpt lon="-3.042209" lat="52.705031"><ele>188.764450</ele><time>2022-01-15T09:33:59Z</time><extensions><speed>0.665406</speed><course>17.645508</course><hAcc>2.757263</hAcc><vAcc>0.497219</vAcc></extensions></trkpt>
      <trkpt lon="-3.042206" lat="52.705037"><ele>188.957733</ele><time>2022-01-15T09:34:00Z</time><extensions><speed>0.685054</speed><course>17.459948</course><hAcc>2.732485</hAcc><vAcc>0.496759</vAcc></extensions></trkpt>
      <trkpt lon="-3.042202" lat="52.705044"><ele>189.175323</ele><time>2022-01-15T09:34:01Z</time><extensions><speed>0.741936</speed><course>17.212566</course><hAcc>2.697235</hAcc><vAcc>0.496088</vAcc></extensions></trkpt>
      <trkpt lon="-3.042199" lat="52.705051"><ele>189.416168</ele><time>2022-01-15T09:34:02Z</time><extensions><speed>0.803830</speed><course>17.392832</course><hAcc>2.662401</hAcc><vAcc>0.495020</vAcc></extensions></trkpt>
      <trkpt lon="-3.042195" lat="52.705059"><ele>189.681946</ele><time>2022-01-15T09:34:03Z</time><extensions><speed>0.896721</speed><course>17.984110</course><hAcc>2.642000</hAcc><vAcc>0.493428</vAcc></extensions></trkpt>
      <trkpt lon="-3.042190" lat="52.705068"><ele>189.960861</ele><time>2022-01-15T09:34:04Z</time><extensions><speed>1.079991</speed><course>19.386005</course><hAcc>2.660989</hAcc><vAcc>0.491241</vAcc></extensions></trkpt>
      <trkpt lon="-3.042184" lat="52.705077"><ele>190.263672</ele><time>2022-01-15T09:34:05Z</time><extensions><speed>1.046095</speed><course>21.336998</course><hAcc>2.716925</hAcc><vAcc>0.488507</vAcc></extensions></trkpt>
      <trkpt lon="-3.042178" lat="52.705086"><ele>190.582779</ele><time>2022-01-15T09:34:06Z</time><extensions><speed>1.123538</speed><course>26.173395</course><hAcc>2.678970</hAcc><vAcc>0.485377</vAcc></extensions></trkpt>
      <trkpt lon="-3.042169" lat="52.705096"><ele>190.903122</ele><time>2022-01-15T09:34:07Z</time><extensions><speed>1.156820</speed><course>30.545902</course><hAcc>2.631580</hAcc><vAcc>0.482036</vAcc></extensions></trkpt>
      <trkpt lon="-3.042159" lat="52.705105"><ele>191.228195</ele><time>2022-01-15T09:34:08Z</time><extensions><speed>1.179504</speed><course>30.689983</course><hAcc>2.588612</hAcc><vAcc>0.478638</vAcc></extensions></trkpt>
      <trkpt lon="-3.042150" lat="52.705115"><ele>191.540222</ele><time>2022-01-15T09:34:09Z</time><extensions><speed>1.130498</speed><course>30.097887</course><hAcc>2.578193</hAcc><vAcc>0.475260</vAcc></extensions></trkpt>
      <trkpt lon="-3.042142" lat="52.705123"><ele>191.843781</ele><time>2022-01-15T09:34:10Z</time><extensions><speed>1.004263</speed><course>29.304604</course><hAcc>2.601180</hAcc><vAcc>0.471962</vAcc></extensions></trkpt>
      <trkpt lon="-3.042135" lat="52.705131"><ele>192.155701</ele><time>2022-01-15T09:34:11Z</time><extensions><speed>0.834090</speed><course>27.723320</course><hAcc>2.628534</hAcc><vAcc>0.468825</vAcc></extensions></trkpt>
      <trkpt lon="-3.042131" lat="52.705137"><ele>192.454926</ele><time>2022-01-15T09:34:12Z</time><extensions><speed>0.529423</speed><course>26.759340</course><hAcc>2.673781</hAcc><vAcc>0.466009</vAcc></extensions></trkpt>
      <trkpt lon="-3.042127" lat="52.705141"><ele>192.750824</ele><time>2022-01-15T09:34:13Z</time><extensions><speed>0.559101</speed><course>28.035654</course><hAcc>2.674106</hAcc><vAcc>0.463679</vAcc></extensions></trkpt>
      <trkpt lon="-3.042123" lat="52.705146"><ele>193.045364</ele><time>2022-01-15T09:34:14Z</time><extensions><speed>0.641283</speed><course>30.328846</course><hAcc>2.683967</hAcc><vAcc>0.461939</vAcc></extensions></trkpt>
      <trkpt lon="-3.042118" lat="52.705151"><ele>193.323486</ele><time>2022-01-15T09:34:15Z</time><extensions><speed>0.540104</speed><course>32.106567</course><hAcc>2.726942</hAcc><vAcc>0.460830</vAcc></extensions></trkpt>
      <trkpt lon="-3.042114" lat="52.705155"><ele>193.595734</ele><time>2022-01-15T09:34:16Z</time><extensions><speed>0.641226</speed><course>32.741879</course><hAcc>2.730764</hAcc><vAcc>0.460288</vAcc></extensions></trkpt>
      <trkpt lon="-3.042108" lat="52.705161"><ele>193.867569</ele><time>2022-01-15T09:34:17Z</time><extensions><speed>0.910997</speed><course>32.499378</course><hAcc>2.706184</hAcc><vAcc>0.460137</vAcc></extensions></trkpt>
      <trkpt lon="-3.042100" lat="52.705169"><ele>194.142929</ele><time>2022-01-15T09:34:18Z</time><extensions><speed>1.010952</speed><course>29.903574</course><hAcc>2.724100</hAcc><vAcc>0.460170</vAcc></extensions></trkpt>
      <trkpt lon="-3.042093" lat="52.705177"><ele>194.420853</ele><time>2022-01-15T09:34:19Z</time><extensions><speed>0.973368</speed><course>27.346392</course><hAcc>2.786373</hAcc><vAcc>0.460263</vAcc></extensions></trkpt>
      <trkpt lon="-3.042087" lat="52.705185"><ele>194.703201</ele><time>2022-01-15T09:34:20Z</time><extensions><speed>0.830954</speed><course>23.623434</course><hAcc>2.838360</hAcc><vAcc>0.460312</vAcc></extensions></trkpt>
      <trkpt lon="-3.042083" lat="52.705192"><ele>194.988464</ele><time>2022-01-15T09:34:21Z</time><extensions><speed>0.732349</speed><course>16.891342</course><hAcc>2.842520</hAcc><vAcc>0.460335</vAcc></extensions></trkpt>
      <trkpt lon="-3.042081" lat="52.705198"><ele>195.284744</ele><time>2022-01-15T09:34:22Z</time><extensions><speed>0.609770</speed><course>10.425479</course><hAcc>2.845660</hAcc><vAcc>0.460427</vAcc></extensions></trkpt>
      <trkpt lon="-3.042079" lat="52.705204"><ele>195.569962</ele><time>2022-01-15T09:34:23Z</time><extensions><speed>0.593443</speed><course>6.876348</course><hAcc>2.854553</hAcc><vAcc>0.460707</vAcc></extensions></trkpt>
      <trkpt lon="-3.042078" lat="52.705209"><ele>195.866455</ele><time>2022-01-15T09:34:24Z</time><extensions><speed>0.619101</speed><course>6.678801</course><hAcc>2.873983</hAcc><vAcc>0.461247</vAcc></extensions></trkpt>
      <trkpt lon="-3.042077" lat="52.705215"><ele>196.171616</ele><time>2022-01-15T09:34:25Z</time><extensions><speed>0.668298</speed><course>9.008480</course><hAcc>2.905076</hAcc><vAcc>0.462063</vAcc></extensions></trkpt>
      <trkpt lon="-3.042075" lat="52.705221"><ele>196.483612</ele><time>2022-01-15T09:34:26Z</time><extensions><speed>0.602802</speed><course>10.633140</course><hAcc>2.941061</hAcc><vAcc>0.463093</vAcc></extensions></trkpt>
      <trkpt lon="-3.042073" lat="52.705227"><ele>196.800827</ele><time>2022-01-15T09:34:27Z</time><extensions><speed>0.687868</speed><course>13.723825</course><hAcc>2.937029</hAcc><vAcc>0.464193</vAcc></extensions></trkpt>
      <trkpt lon="-3.042070" lat="52.705234"><ele>197.116501</ele><time>2022-01-15T09:34:28Z</time><extensions><speed>0.853765</speed><course>16.934711</course><hAcc>2.919076</hAcc><vAcc>0.465194</vAcc></extensions></trkpt>
      <trkpt lon="-3.042065" lat="52.705241"><ele>197.437775</ele><time>2022-01-15T09:34:29Z</time><extensions><speed>0.887318</speed><course>21.624350</course><hAcc>2.913126</hAcc><vAcc>0.465975</vAcc></extensions></trkpt>
      <trkpt lon="-3.042060" lat="52.705248"><ele>197.751129</ele><time>2022-01-15T09:34:30Z</time><extensions><speed>0.932733</speed><course>25.631107</course><hAcc>2.871201</hAcc><vAcc>0.466459</vAcc></extensions></trkpt>
      <trkpt lon="-3.042053" lat="52.705256"><ele>198.073441</ele><time>2022-01-15T09:34:31Z</time><extensions><speed>0.918736</speed><course>27.954388</course><hAcc>2.823606</hAcc><vAcc>0.466645</vAcc></extensions></trkpt>
      <trkpt lon="-3.042046" lat="52.705263"><ele>198.394714</ele><time>2022-01-15T09:34:32Z</time><extensions><speed>0.885197</speed><course>29.278173</course><hAcc>2.792699</hAcc><vAcc>0.466591</vAcc></extensions></trkpt>
      <trkpt lon="-3.042040" lat="52.705269"><ele>198.707764</ele><time>2022-01-15T09:34:33Z</time><extensions><speed>0.818200</speed><course>31.541885</course><hAcc>2.784038</hAcc><vAcc>0.466353</vAcc></extensions></trkpt>
      <trkpt lon="-3.042033" lat="52.705276"><ele>199.017914</ele><time>2022-01-15T09:34:34Z</time><extensions><speed>0.843790</speed><course>35.225166</course><hAcc>2.788378</hAcc><vAcc>0.466022</vAcc></extensions></trkpt>
      <trkpt lon="-3.042025" lat="52.705282"><ele>199.308807</ele><time>2022-01-15T09:34:35Z</time><extensions><speed>0.860344</speed><course>38.901814</course><hAcc>2.804192</hAcc><vAcc>0.465707</vAcc></extensions></trkpt>
      <trkpt lon="-3.042017" lat="52.705288"><ele>199.582565</ele><time>2022-01-15T09:34:36Z</time><extensions><speed>0.834650</speed><course>42.491386</course><hAcc>2.780487</hAcc><vAcc>0.465515</vAcc></extensions></trkpt>
      <trkpt lon="-3.042009" lat="52.705294"><ele>199.845245</ele><time>2022-01-15T09:34:37Z</time><extensions><speed>0.746896</speed><course>45.654034</course><hAcc>2.756452</hAcc><vAcc>0.465529</vAcc></extensions></trkpt>
      <trkpt lon="-3.042001" lat="52.705298"><ele>200.081482</ele><time>2022-01-15T09:34:38Z</time><extensions><speed>0.581189</speed><course>49.858849</course><hAcc>2.765017</hAcc><vAcc>0.465815</vAcc></extensions></trkpt>
      <trkpt lon="-3.041994" lat="52.705301"><ele>200.313049</ele><time>2022-01-15T09:34:39Z</time><extensions><speed>0.376084</speed><course>55.149181</course><hAcc>2.808706</hAcc><vAcc>0.466407</vAcc></extensions></trkpt>
      <trkpt lon="-3.041989" lat="52.705303"><ele>200.526443</ele><time>2022-01-15T09:34:40Z</time><extensions><speed>0.294974</speed><course>59.156155</course><hAcc>2.851080</hAcc><vAcc>0.467295</vAcc></extensions></trkpt>
      <trkpt lon="-3.041984" lat="52.705304"><ele>200.732681</ele><time>2022-01-15T09:34:41Z</time><extensions><speed>0.300684</speed><course>58.928375</course><hAcc>2.874587</hAcc><vAcc>0.468467</vAcc></extensions></trkpt>
      <trkpt lon="-3.041978" lat="52.705306"><ele>200.923248</ele><time>2022-01-15T09:34:42Z</time><extensions><speed>0.352262</speed><course>56.265427</course><hAcc>2.893330</hAcc><vAcc>0.469947</vAcc></extensions></trkpt>
      <trkpt lon="-3.041972" lat="52.705309"><ele>201.103561</ele><time>2022-01-15T09:34:43Z</time><extensions><speed>0.415098</speed><course>53.438904</course><hAcc>2.920116</hAcc><vAcc>0.471742</vAcc></extensions></trkpt>
      <trkpt lon="-3.041965" lat="52.705312"><ele>201.275711</ele><time>2022-01-15T09:34:44Z</time><extensions><speed>0.506034</speed><course>52.758541</course><hAcc>2.943406</hAcc><vAcc>0.473832</vAcc></extensions></trkpt>
      <trkpt lon="-3.041958" lat="52.705315"><ele>201.441818</ele><time>2022-01-15T09:34:45Z</time><extensions><speed>0.569940</speed><course>54.045826</course><hAcc>2.963846</hAcc><vAcc>0.476137</vAcc></extensions></trkpt>
      <trkpt lon="-3.041950" lat="52.705319"><ele>201.602081</ele><time>2022-01-15T09:34:46Z</time><extensions><speed>0.618293</speed><course>56.149063</course><hAcc>2.970527</hAcc><vAcc>0.478529</vAcc></extensions></trkpt>
      <trkpt lon="-3.041941" lat="52.705323"><ele>201.750687</ele><time>2022-01-15T09:34:47Z</time><extensions><speed>0.654837</speed><course>58.515991</course><hAcc>2.963589</hAcc><vAcc>0.480930</vAcc></extensions></trkpt>
      <trkpt lon="-3.041932" lat="52.705326"><ele>201.894073</ele><time>2022-01-15T09:34:48Z</time><extensions><speed>0.617267</speed><course>60.155582</course><hAcc>2.964162</hAcc><vAcc>0.483295</vAcc></extensions></trkpt>
      <trkpt lon="-3.041924" lat="52.705329"><ele>202.022339</ele><time>2022-01-15T09:34:49Z</time><extensions><speed>0.490469</speed><course>60.629467</course><hAcc>2.963443</hAcc><vAcc>0.485593</vAcc></extensions></trkpt>
      <trkpt lon="-3.041915" lat="52.705332"><ele>202.133575</ele><time>2022-01-15T09:34:50Z</time><extensions><speed>0.560053</speed><course>60.904644</course><hAcc>2.926867</hAcc><vAcc>0.487769</vAcc></extensions></trkpt>
      <trkpt lon="-3.041907" lat="52.705335"><ele>202.237289</ele><time>2022-01-15T09:34:51Z</time><extensions><speed>0.357748</speed><course>58.369061</course><hAcc>2.926377</hAcc><vAcc>0.489739</vAcc></extensions></trkpt>
      <trkpt lon="-3.041901" lat="52.705337"><ele>202.327972</ele><time>2022-01-15T09:34:52Z</time><extensions><speed>0.312464</speed><course>55.173862</course><hAcc>2.904997</hAcc><vAcc>0.491446</vAcc></extensions></trkpt>
      <trkpt lon="-3.041896" lat="52.705340"><ele>202.409134</ele><time>2022-01-15T09:34:53Z</time><extensions><speed>0.290317</speed><course>52.327999</course><hAcc>2.878976</hAcc><vAcc>0.492853</vAcc></extensions></trkpt>
      <trkpt lon="-3.041892" lat="52.705342"><ele>202.481613</ele><time>2022-01-15T09:34:54Z</time><extensions><speed>0.270050</speed><course>50.385994</course><hAcc>2.863763</hAcc><vAcc>0.493933</vAcc></extensions></trkpt>
      <trkpt lon="-3.041888" lat="52.705344"><ele>202.548859</ele><time>2022-01-15T09:34:55Z</time><extensions><speed>0.269557</speed><course>49.996677</course><hAcc>2.856227</hAcc><vAcc>0.494680</vAcc></extensions></trkpt>
      <trkpt lon="-3.041884" lat="52.705346"><ele>202.612137</ele><time>2022-01-15T09:34:56Z</time><extensions><speed>0.295092</speed><course>51.248482</course><hAcc>2.858734</hAcc><vAcc>0.495073</vAcc></extensions></trkpt>
      <trkpt lon="-3.041880" lat="52.705348"><ele>202.669098</ele><time>2022-01-15T09:34:57Z</time><extensions><speed>0.315562</speed><course>53.464252</course><hAcc>2.876482</hAcc><vAcc>0.495112</vAcc></extensions></trkpt>
      <trkpt lon="-3.041875" lat="52.705350"><ele>202.723358</ele><time>2022-01-15T09:34:58Z</time><extensions><speed>0.417935</speed><course>55.351463</course><hAcc>2.884778</hAcc><vAcc>0.494862</vAcc></extensions></trkpt>
      <trkpt lon="-3.041869" lat="52.705353"><ele>202.773788</ele><time>2022-01-15T09:34:59Z</time><extensions><speed>0.573189</speed><course>57.166729</course><hAcc>2.878992</hAcc><vAcc>0.494450</vAcc></extensions></trkpt>
      <trkpt lon="-3.041859" lat="52.705356"><ele>202.836166</ele><time>2022-01-15T09:35:00Z</time><extensions><speed>0.925529</speed><course>58.484592</course><hAcc>2.844250</hAcc><vAcc>0.494044</vAcc></extensions></trkpt>
      <trkpt lon="-3.041846" lat="52.705361"><ele>202.898132</ele><time>2022-01-15T09:35:01Z</time><extensions><speed>1.016320</speed><course>58.409775</course><hAcc>2.850038</hAcc><vAcc>0.493783</vAcc></extensions></trkpt>
      <trkpt lon="-3.041834" lat="52.705366"><ele>202.959015</ele><time>2022-01-15T09:35:02Z</time><extensions><speed>0.935091</speed><course>56.105179</course><hAcc>2.887887</hAcc><vAcc>0.493712</vAcc></extensions></trkpt>
      <trkpt lon="-3.041823" lat="52.705371"><ele>203.020432</ele><time>2022-01-15T09:35:03Z</time><extensions><speed>0.722973</speed><course>52.132744</course><hAcc>2.930690</hAcc><vAcc>0.493805</vAcc></extensions></trkpt>
      <trkpt lon="-3.041815" lat="52.705376"><ele>203.084885</ele><time>2022-01-15T09:35:04Z</time><extensions><speed>0.644043</speed><course>48.801834</course><hAcc>2.938625</hAcc><vAcc>0.494004</vAcc></extensions></trkpt>
      <trkpt lon="-3.041808" lat="52.705380"><ele>203.152969</ele><time>2022-01-15T09:35:05Z</time><extensions><speed>0.612923</speed><course>45.847115</course><hAcc>2.919603</hAcc><vAcc>0.494241</vAcc></extensions></trkpt>
      <trkpt lon="-3.041801" lat="52.705385"><ele>203.224121</ele><time>2022-01-15T09:35:06Z</time><extensions><speed>0.599375</speed><course>42.787777</course><hAcc>2.885273</hAcc><vAcc>0.494459</vAcc></extensions></trkpt>
      <trkpt lon="-3.041794" lat="52.705391"><ele>203.298950</ele><time>2022-01-15T09:35:07Z</time><extensions><speed>0.586803</speed><course>39.711010</course><hAcc>2.840404</hAcc><vAcc>0.494622</vAcc></extensions></trkpt>
      <trkpt lon="-3.041787" lat="52.705397"><ele>203.379257</ele><time>2022-01-15T09:35:08Z</time><extensions><speed>0.558005</speed><course>37.027882</course><hAcc>2.800573</hAcc><vAcc>0.494706</vAcc></extensions></trkpt>
      <trkpt lon="-3.041781" lat="52.705401"><ele>203.464691</ele><time>2022-01-15T09:35:09Z</time><extensions><speed>0.449158</speed><course>34.678020</course><hAcc>2.797077</hAcc><vAcc>0.494730</vAcc></extensions></trkpt>
      <trkpt lon="-3.041777" lat="52.705405"><ele>203.554794</ele><time>2022-01-15T09:35:10Z</time><extensions><speed>0.252972</speed><course>32.008606</course><hAcc>2.813082</hAcc><vAcc>0.494791</vAcc></extensions></trkpt>
      <trkpt lon="-3.041773" lat="52.705408"><ele>203.649414</ele><time>2022-01-15T09:35:11Z</time><extensions><speed>0.240704</speed><course>29.998695</course><hAcc>2.780464</hAcc><vAcc>0.495027</vAcc></extensions></trkpt>
      <trkpt lon="-3.041770" lat="52.705410"><ele>203.751480</ele><time>2022-01-15T09:35:12Z</time><extensions><speed>0.238992</speed><course>30.227615</course><hAcc>2.743214</hAcc><vAcc>0.495567</vAcc></extensions></trkpt>
      <trkpt lon="-3.041766" lat="52.705413"><ele>203.858215</ele><time>2022-01-15T09:35:13Z</time><extensions><speed>0.253243</speed><course>31.497631</course><hAcc>2.710201</hAcc><vAcc>0.496496</vAcc></extensions></trkpt>
      <trkpt lon="-3.041763" lat="52.705415"><ele>203.968613</ele><time>2022-01-15T09:35:14Z</time><extensions><speed>0.255030</speed><course>33.346565</course><hAcc>2.686441</hAcc><vAcc>0.497868</vAcc></extensions></trkpt>
      <trkpt lon="-3.041759" lat="52.705417"><ele>204.077118</ele><time>2022-01-15T09:35:15Z</time><extensions><speed>0.261007</speed><course>36.719734</course><hAcc>2.666705</hAcc><vAcc>0.499727</vAcc></extensions></trkpt>
      <trkpt lon="-3.041754" lat="52.705420"><ele>204.184494</ele><time>2022-01-15T09:35:16Z</time><extensions><speed>0.267954</speed><course>41.164505</course><hAcc>2.652535</hAcc><vAcc>0.502069</vAcc></extensions></trkpt>
      <trkpt lon="-3.041748" lat="52.705423"><ele>204.289444</ele><time>2022-01-15T09:35:17Z</time><extensions><speed>0.278558</speed><course>46.488419</course><hAcc>2.644939</hAcc><vAcc>0.504820</vAcc></extensions></trkpt>
      <trkpt lon="-3.041742" lat="52.705426"><ele>204.390289</ele><time>2022-01-15T09:35:18Z</time><extensions><speed>0.290497</speed><course>51.023075</course><hAcc>2.643505</hAcc><vAcc>0.507802</vAcc></extensions></trkpt>
      <trkpt lon="-3.041736" lat="52.705428"><ele>204.481613</ele><time>2022-01-15T09:35:19Z</time><extensions><speed>0.302434</speed><course>54.301003</course><hAcc>2.647335</hAcc><vAcc>0.510772</vAcc></extensions></trkpt>
      <trkpt lon="-3.041730" lat="52.705431"><ele>204.563370</ele><time>2022-01-15T09:35:20Z</time><extensions><speed>0.334920</speed><course>56.212440</course><hAcc>2.658004</hAcc><vAcc>0.513494</vAcc></extensions></trkpt>
      <trkpt lon="-3.041724" lat="52.705433"><ele>204.633789</ele><time>2022-01-15T09:35:21Z</time><extensions><speed>0.349999</speed><course>57.949139</course><hAcc>2.681030</hAcc><vAcc>0.515779</vAcc></extensions></trkpt>
      <trkpt lon="-3.041718" lat="52.705436"><ele>204.694336</ele><time>2022-01-15T09:35:22Z</time><extensions><speed>0.376345</speed><course>59.018600</course><hAcc>2.709996</hAcc><vAcc>0.517493</vAcc></extensions></trkpt>
      <trkpt lon="-3.041713" lat="52.705438"><ele>204.740036</ele><time>2022-01-15T09:35:23Z</time><extensions><speed>0.377405</speed><course>59.284122</course><hAcc>2.749838</hAcc><vAcc>0.518542</vAcc></extensions></trkpt>
      <trkpt lon="-3.041707" lat="52.705440"><ele>204.774948</ele><time>2022-01-15T09:35:24Z</time><extensions><speed>0.405510</speed><course>58.599567</course><hAcc>2.788290</hAcc><vAcc>0.518850</vAcc></extensions></trkpt>
      <trkpt lon="-3.041701" lat="52.705442"><ele>204.805267</ele><time>2022-01-15T09:35:25Z</time><extensions><speed>0.447761</speed><course>57.277084</course><hAcc>2.825163</hAcc><vAcc>0.518374</vAcc></extensions></trkpt>
      <trkpt lon="-3.041694" lat="52.705445"><ele>204.829086</ele><time>2022-01-15T09:35:26Z</time><extensions><speed>0.631766</speed><course>55.715427</course><hAcc>2.830416</hAcc><vAcc>0.517106</vAcc></extensions></trkpt>
      <trkpt lon="-3.041683" lat="52.705450"><ele>204.844040</ele><time>2022-01-15T09:35:27Z</time><extensions><speed>1.174773</speed><course>54.589706</course><hAcc>2.791946</hAcc><vAcc>0.515089</vAcc></extensions></trkpt>
      <trkpt lon="-3.041667" lat="52.705456"><ele>204.852081</ele><time>2022-01-15T09:35:28Z</time><extensions><speed>1.368811</speed><course>53.077656</course><hAcc>2.802194</hAcc><vAcc>0.512423</vAcc></extensions></trkpt>
      <trkpt lon="-3.041651" lat="52.705464"><ele>204.855698</ele><time>2022-01-15T09:35:29Z</time><extensions><speed>1.338714</speed><course>52.499191</course><hAcc>2.850669</hAcc><vAcc>0.509254</vAcc></extensions></trkpt>
      <trkpt lon="-3.041635" lat="52.705471"><ele>204.853653</ele><time>2022-01-15T09:35:30Z</time><extensions><speed>1.307253</speed><course>53.750114</course><hAcc>2.878493</hAcc><vAcc>0.505747</vAcc></extensions></trkpt>
      <trkpt lon="-3.041620" lat="52.705478"><ele>204.844391</ele><time>2022-01-15T09:35:31Z</time><extensions><speed>1.218899</speed><course>55.754860</course><hAcc>2.892259</hAcc><vAcc>0.502096</vAcc></extensions></trkpt>
      <trkpt lon="-3.041605" lat="52.705483"><ele>204.834320</ele><time>2022-01-15T09:35:32Z</time><extensions><speed>1.077497</speed><course>57.490631</course><hAcc>2.900348</hAcc><vAcc>0.498468</vAcc></extensions></trkpt>
      <trkpt lon="-3.041592" lat="52.705489"><ele>204.821228</ele><time>2022-01-15T09:35:33Z</time><extensions><speed>1.107461</speed><course>58.413719</course><hAcc>2.897757</hAcc><vAcc>0.494981</vAcc></extensions></trkpt>
      <trkpt lon="-3.041578" lat="52.705494"><ele>204.810638</ele><time>2022-01-15T09:35:34Z</time><extensions><speed>1.005961</speed><course>58.993515</course><hAcc>2.901082</hAcc><vAcc>0.491715</vAcc></extensions></trkpt>
      <trkpt lon="-3.041567" lat="52.705498"><ele>204.807205</ele><time>2022-01-15T09:35:35Z</time><extensions><speed>0.831654</speed><course>59.480778</course><hAcc>2.887820</hAcc><vAcc>0.488712</vAcc></extensions></trkpt>
      <trkpt lon="-3.041558" lat="52.705502"><ele>204.806229</ele><time>2022-01-15T09:35:36Z</time><extensions><speed>0.600192</speed><course>58.415413</course><hAcc>2.880906</hAcc><vAcc>0.486031</vAcc></extensions></trkpt>
      <trkpt lon="-3.041551" lat="52.705504"><ele>204.809998</ele><time>2022-01-15T09:35:37Z</time><extensions><speed>0.522180</speed><course>56.222042</course><hAcc>2.864108</hAcc><vAcc>0.483681</vAcc></extensions></trkpt>
      <trkpt lon="-3.041544" lat="52.705507"><ele>204.826279</ele><time>2022-01-15T09:35:38Z</time><extensions><speed>0.516803</speed><course>53.649933</course><hAcc>2.847446</hAcc><vAcc>0.481650</vAcc></extensions></trkpt>
      <trkpt lon="-3.041538" lat="52.705510"><ele>204.852783</ele><time>2022-01-15T09:35:39Z</time><extensions><speed>0.591685</speed><course>51.175266</course><hAcc>2.830496</hAcc><vAcc>0.479912</vAcc></extensions></trkpt>
      <trkpt lon="-3.041530" lat="52.705514"><ele>204.889633</ele><time>2022-01-15T09:35:40Z</time><extensions><speed>0.743617</speed><course>49.890350</course><hAcc>2.819680</hAcc><vAcc>0.478438</vAcc></extensions></trkpt>
      <trkpt lon="-3.041521" lat="52.705519"><ele>204.940948</ele><time>2022-01-15T09:35:41Z</time><extensions><speed>0.825387</speed><course>47.648830</course><hAcc>2.818431</hAcc><vAcc>0.477234</vAcc></extensions></trkpt>
      <trkpt lon="-3.041512" lat="52.705524"><ele>205.001144</ele><time>2022-01-15T09:35:42Z</time><extensions><speed>0.918938</speed><course>46.022736</course><hAcc>2.803861</hAcc><vAcc>0.476312</vAcc></extensions></trkpt>
      <trkpt lon="-3.041501" lat="52.705530"><ele>205.068207</ele><time>2022-01-15T09:35:43Z</time><extensions><speed>1.020664</speed><course>45.965748</course><hAcc>2.777617</hAcc><vAcc>0.475643</vAcc></extensions></trkpt>
      <trkpt lon="-3.041490" lat="52.705537"><ele>205.148224</ele><time>2022-01-15T09:35:44Z</time><extensions><speed>1.105280</speed><course>46.757679</course><hAcc>2.746548</hAcc><vAcc>0.475081</vAcc></extensions></trkpt>
      <trkpt lon="-3.041478" lat="52.705544"><ele>205.232697</ele><time>2022-01-15T09:35:45Z</time><extensions><speed>1.150623</speed><course>47.770508</course><hAcc>2.718291</hAcc><vAcc>0.474366</vAcc></extensions></trkpt>
      <trkpt lon="-3.041465" lat="52.705551"><ele>205.323471</ele><time>2022-01-15T09:35:46Z</time><extensions><speed>1.183524</speed><course>48.887356</course><hAcc>2.703612</hAcc><vAcc>0.473269</vAcc></extensions></trkpt>
      <trkpt lon="-3.041452" lat="52.705558"><ele>205.416000</ele><time>2022-01-15T09:35:47Z</time><extensions><speed>1.174608</speed><course>49.371567</course><hAcc>2.703593</hAcc><vAcc>0.471600</vAcc></extensions></trkpt>
      <trkpt lon="-3.041439" lat="52.705565"><ele>205.525452</ele><time>2022-01-15T09:35:48Z</time><extensions><speed>1.193321</speed><course>48.318916</course><hAcc>2.681164</hAcc><vAcc>0.469204</vAcc></extensions></trkpt>
      <trkpt lon="-3.041426" lat="52.705573"><ele>205.652985</ele><time>2022-01-15T09:35:49Z</time><extensions><speed>1.188234</speed><course>45.821392</course><hAcc>2.648908</hAcc><vAcc>0.466030</vAcc></extensions></trkpt>
      <trkpt lon="-3.041414" lat="52.705580"><ele>205.791000</ele><time>2022-01-15T09:35:50Z</time><extensions><speed>1.158105</speed><course>42.207829</course><hAcc>2.616307</hAcc><vAcc>0.462008</vAcc></extensions></trkpt>
      <trkpt lon="-3.041403" lat="52.705588"><ele>205.947647</ele><time>2022-01-15T09:35:51Z</time><extensions><speed>1.101041</speed><course>38.194534</course><hAcc>2.594721</hAcc><vAcc>0.457187</vAcc></extensions></trkpt>
      <trkpt lon="-3.041394" lat="52.705596"><ele>206.127350</ele><time>2022-01-15T09:35:52Z</time><extensions><speed>1.049176</speed><course>33.499554</course><hAcc>2.587153</hAcc><vAcc>0.451686</vAcc></extensions></trkpt>
      <trkpt lon="-3.041386" lat="52.705604"><ele>206.327606</ele><time>2022-01-15T09:35:53Z</time><extensions><speed>1.036922</speed><course>28.769663</course><hAcc>2.552213</hAcc><vAcc>0.445757</vAcc></extensions></trkpt>
      <trkpt lon="-3.041379" lat="52.705613"><ele>206.542740</ele><time>2022-01-15T09:35:54Z</time><extensions><speed>1.064067</speed><course>24.324242</course><hAcc>2.511879</hAcc><vAcc>0.439750</vAcc></extensions></trkpt>
      <trkpt lon="-3.041373" lat="52.705622"><ele>206.779251</ele><time>2022-01-15T09:35:55Z</time><extensions><speed>1.057749</speed><course>20.280512</course><hAcc>2.464586</hAcc><vAcc>0.433987</vAcc></extensions></trkpt>
      <trkpt lon="-3.041367" lat="52.705631"><ele>207.027359</ele><time>2022-01-15T09:35:56Z</time><extensions><speed>1.077844</speed><course>18.998852</course><hAcc>2.424166</hAcc><vAcc>0.428854</vAcc></extensions></trkpt>
      <trkpt lon="-3.041362" lat="52.705641"><ele>207.283737</ele><time>2022-01-15T09:35:57Z</time><extensions><speed>1.092644</speed><course>19.296812</course><hAcc>2.407368</hAcc><vAcc>0.424680</vAcc></extensions></trkpt>
      <trkpt lon="-3.041357" lat="52.705650"><ele>207.555618</ele><time>2022-01-15T09:35:58Z</time><extensions><speed>1.045304</speed><course>19.538763</course><hAcc>2.421758</hAcc><vAcc>0.421616</vAcc></extensions></trkpt>
      <trkpt lon="-3.041352" lat="52.705659"><ele>207.815445</ele><time>2022-01-15T09:35:59Z</time><extensions><speed>0.871025</speed><course>20.954765</course><hAcc>2.444565</hAcc><vAcc>0.419658</vAcc></extensions></trkpt>
      <trkpt lon="-3.041348" lat="52.705665"><ele>208.085587</ele><time>2022-01-15T09:36:00Z</time><extensions><speed>0.709747</speed><course>19.839846</course><hAcc>2.423006</hAcc><vAcc>0.418646</vAcc></extensions></trkpt>
      <trkpt lon="-3.041345" lat="52.705671"><ele>208.356598</ele><time>2022-01-15T09:36:01Z</time><extensions><speed>0.595927</speed><course>16.749296</course><hAcc>2.413424</hAcc><vAcc>0.418309</vAcc></extensions></trkpt>
      <trkpt lon="-3.041343" lat="52.705676"><ele>208.629822</ele><time>2022-01-15T09:36:02Z</time><extensions><speed>0.422725</speed><course>11.141570</course><hAcc>2.448500</hAcc><vAcc>0.418433</vAcc></extensions></trkpt>
      <trkpt lon="-3.041343" lat="52.705680"><ele>208.903580</ele><time>2022-01-15T09:36:03Z</time><extensions><speed>0.416462</speed><course>5.160189</course><hAcc>2.484683</hAcc><vAcc>0.419031</vAcc></extensions></trkpt>
      <trkpt lon="-3.041343" lat="52.705684"><ele>209.172623</ele><time>2022-01-15T09:36:04Z</time><extensions><speed>0.443012</speed><course>0.532433</course><hAcc>2.533924</hAcc><vAcc>0.420189</vAcc></extensions></trkpt>
      <trkpt lon="-3.041343" lat="52.705688"><ele>209.450333</ele><time>2022-01-15T09:36:05Z</time><extensions><speed>0.492811</speed><course>357.643250</course><hAcc>2.596837</hAcc><vAcc>0.421988</vAcc></extensions></trkpt>
      <trkpt lon="-3.041344" lat="52.705693"><ele>209.729431</ele><time>2022-01-15T09:36:06Z</time><extensions><speed>0.550958</speed><course>355.950958</course><hAcc>2.666258</hAcc><vAcc>0.424398</vAcc></extensions></trkpt>
      <trkpt lon="-3.041345" lat="52.705698"><ele>210.018036</ele><time>2022-01-15T09:36:07Z</time><extensions><speed>0.632101</speed><course>355.643188</course><hAcc>2.723407</hAcc><vAcc>0.427329</vAcc></extensions></trkpt>
      <trkpt lon="-3.041346" lat="52.705704"><ele>210.308762</ele><time>2022-01-15T09:36:08Z</time><extensions><speed>0.820166</speed><course>356.743774</course><hAcc>2.752486</hAcc><vAcc>0.430637</vAcc></extensions></trkpt>
      <trkpt lon="-3.041347" lat="52.705712"><ele>210.601990</ele><time>2022-01-15T09:36:09Z</time><extensions><speed>0.861976</speed><course>354.736115</course><hAcc>2.784802</hAcc><vAcc>0.434146</vAcc></extensions></trkpt>
      <trkpt lon="-3.041349" lat="52.705719"><ele>210.898163</ele><time>2022-01-15T09:36:10Z</time><extensions><speed>0.852762</speed><course>349.905823</course><hAcc>2.806435</hAcc><vAcc>0.437633</vAcc></extensions></trkpt>
      <trkpt lon="-3.041351" lat="52.705727"><ele>211.192688</ele><time>2022-01-15T09:36:11Z</time><extensions><speed>0.829938</speed><course>346.158630</course><hAcc>2.804911</hAcc><vAcc>0.440770</vAcc></extensions></trkpt>
      <trkpt lon="-3.041354" lat="52.705735"><ele>211.483856</ele><time>2022-01-15T09:36:12Z</time><extensions><speed>0.806302</speed><course>343.247192</course><hAcc>2.778965</hAcc><vAcc>0.443218</vAcc></extensions></trkpt>
      <trkpt lon="-3.041357" lat="52.705742"><ele>211.767151</ele><time>2022-01-15T09:36:13Z</time><extensions><speed>0.742180</speed><course>341.091278</course><hAcc>2.747442</hAcc><vAcc>0.444805</vAcc></extensions></trkpt>
      <trkpt lon="-3.041360" lat="52.705748"><ele>212.037582</ele><time>2022-01-15T09:36:14Z</time><extensions><speed>0.603460</speed><course>342.226471</course><hAcc>2.728470</hAcc><vAcc>0.445534</vAcc></extensions></trkpt>
      <trkpt lon="-3.041362" lat="52.705753"><ele>212.315826</ele><time>2022-01-15T09:36:15Z</time><extensions><speed>0.455958</speed><course>342.399689</course><hAcc>2.707606</hAcc><vAcc>0.445604</vAcc></extensions></trkpt>
      <trkpt lon="-3.041363" lat="52.705757"><ele>212.587830</ele><time>2022-01-15T09:36:16Z</time><extensions><speed>0.262478</speed><course>343.070923</course><hAcc>2.704110</hAcc><vAcc>0.445269</vAcc></extensions></trkpt>
      <trkpt lon="-3.041363" lat="52.705760"><ele>212.848907</ele><time>2022-01-15T09:36:17Z</time><extensions><speed>0.258756</speed><course>353.935242</course><hAcc>2.668566</hAcc><vAcc>0.444715</vAcc></extensions></trkpt>
      <trkpt lon="-3.041363" lat="52.705764"><ele>213.098312</ele><time>2022-01-15T09:36:18Z</time><extensions><speed>0.325249</speed><course>6.561488</course><hAcc>2.633637</hAcc><vAcc>0.444046</vAcc></extensions></trkpt>
      <trkpt lon="-3.041361" lat="52.705767"><ele>213.336166</ele><time>2022-01-15T09:36:19Z</time><extensions><speed>0.432058</speed><course>14.789314</course><hAcc>2.614263</hAcc><vAcc>0.443274</vAcc></extensions></trkpt>
      <trkpt lon="-3.041359" lat="52.705772"><ele>213.558563</ele><time>2022-01-15T09:36:20Z</time><extensions><speed>0.561978</speed><course>19.090303</course><hAcc>2.603843</hAcc><vAcc>0.442366</vAcc></extensions></trkpt>
      <trkpt lon="-3.041355" lat="52.705778"><ele>213.778259</ele><time>2022-01-15T09:36:21Z</time><extensions><speed>0.688598</speed><course>21.105083</course><hAcc>2.599422</hAcc><vAcc>0.441298</vAcc></extensions></trkpt>
      <trkpt lon="-3.041351" lat="52.705785"><ele>213.975296</ele><time>2022-01-15T09:36:22Z</time><extensions><speed>0.793311</speed><course>22.135654</course><hAcc>2.598299</hAcc><vAcc>0.440098</vAcc></extensions></trkpt>
      <trkpt lon="-3.041346" lat="52.705792"><ele>214.176056</ele><time>2022-01-15T09:36:23Z</time><extensions><speed>0.936059</speed><course>22.335928</course><hAcc>2.586795</hAcc><vAcc>0.438920</vAcc></extensions></trkpt>
      <trkpt lon="-3.041340" lat="52.705802"><ele>214.367737</ele><time>2022-01-15T09:36:24Z</time><extensions><speed>1.177293</speed><course>21.887508</course><hAcc>2.564266</hAcc><vAcc>0.438025</vAcc></extensions></trkpt>
      <trkpt lon="-3.041333" lat="52.705812"><ele>214.544556</ele><time>2022-01-15T09:36:25Z</time><extensions><speed>1.248971</speed><course>21.928871</course><hAcc>2.564550</hAcc><vAcc>0.437674</vAcc></extensions></trkpt>
      <trkpt lon="-3.041326" lat="52.705823"><ele>214.710403</ele><time>2022-01-15T09:36:26Z</time><extensions><speed>1.114919</speed><course>21.546631</course><hAcc>2.581129</hAcc><vAcc>0.438059</vAcc></extensions></trkpt>
      <trkpt lon="-3.041320" lat="52.705833"><ele>214.869797</ele><time>2022-01-15T09:36:27Z</time><extensions><speed>1.112442</speed><course>20.835541</course><hAcc>2.583884</hAcc><vAcc>0.439079</vAcc></extensions></trkpt>
      <trkpt lon="-3.041314" lat="52.705843"><ele>215.026611</ele><time>2022-01-15T09:36:28Z</time><extensions><speed>1.135241</speed><course>20.305605</course><hAcc>2.576561</hAcc><vAcc>0.440581</vAcc></extensions></trkpt>
      <trkpt lon="-3.041308" lat="52.705854"><ele>215.183380</ele><time>2022-01-15T09:36:29Z</time><extensions><speed>1.338840</speed><course>20.464842</course><hAcc>2.549673</hAcc><vAcc>0.442369</vAcc></extensions></trkpt>
      <trkpt lon="-3.041301" lat="52.705866"><ele>215.339508</ele><time>2022-01-15T09:36:30Z</time><extensions><speed>1.396230</speed><course>20.919748</course><hAcc>2.521181</hAcc><vAcc>0.444416</vAcc></extensions></trkpt>
      <trkpt lon="-3.041293" lat="52.705878"><ele>215.493713</ele><time>2022-01-15T09:36:31Z</time><extensions><speed>1.389370</speed><course>21.107061</course><hAcc>2.486229</hAcc><vAcc>0.446839</vAcc></extensions></trkpt>
      <trkpt lon="-3.041286" lat="52.705890"><ele>215.644424</ele><time>2022-01-15T09:36:32Z</time><extensions><speed>1.262631</speed><course>20.112791</course><hAcc>2.454964</hAcc><vAcc>0.449756</vAcc></extensions></trkpt>
      <trkpt lon="-3.041281" lat="52.705900"><ele>215.788834</ele><time>2022-01-15T09:36:33Z</time><extensions><speed>0.988392</speed><course>16.601013</course><hAcc>2.442368</hAcc><vAcc>0.453227</vAcc></extensions></trkpt>
      <trkpt lon="-3.041278" lat="52.705908"><ele>215.925797</ele><time>2022-01-15T09:36:34Z</time><extensions><speed>0.645020</speed><course>11.373735</course><hAcc>2.441052</hAcc><vAcc>0.457221</vAcc></extensions></trkpt>
      <trkpt lon="-3.041277" lat="52.705914"><ele>216.056137</ele><time>2022-01-15T09:36:35Z</time><extensions><speed>0.496092</speed><course>6.604846</course><hAcc>2.418269</hAcc><vAcc>0.461609</vAcc></extensions></trkpt>
      <trkpt lon="-3.041276" lat="52.705919"><ele>216.178085</ele><time>2022-01-15T09:36:36Z</time><extensions><speed>0.443687</speed><course>3.108966</course><hAcc>2.381808</hAcc><vAcc>0.466222</vAcc></extensions></trkpt>
      <trkpt lon="-3.041276" lat="52.705924"><ele>216.289963</ele><time>2022-01-15T09:36:37Z</time><extensions><speed>0.416178</speed><course>1.126621</course><hAcc>2.346253</hAcc><vAcc>0.470963</vAcc></extensions></trkpt>
      <trkpt lon="-3.041276" lat="52.705928"><ele>216.394150</ele><time>2022-01-15T09:36:38Z</time><extensions><speed>0.412630</speed><course>0.837611</course><hAcc>2.310438</hAcc><vAcc>0.475865</vAcc></extensions></trkpt>
      <trkpt lon="-3.041276" lat="52.705932"><ele>216.491379</ele><time>2022-01-15T09:36:39Z</time><extensions><speed>0.408390</speed><course>1.093545</course><hAcc>2.275311</hAcc><vAcc>0.481003</vAcc></extensions></trkpt>
      <trkpt lon="-3.041276" lat="52.705936"><ele>216.583435</ele><time>2022-01-15T09:36:40Z</time><extensions><speed>0.384595</speed><course>0.703675</course><hAcc>2.246106</hAcc><vAcc>0.486352</vAcc></extensions></trkpt>
      <trkpt lon="-3.041276" lat="52.705940"><ele>216.670578</ele><time>2022-01-15T09:36:41Z</time><extensions><speed>0.353492</speed><course>359.444092</course><hAcc>2.223279</hAcc><vAcc>0.491648</vAcc></extensions></trkpt>
      <trkpt lon="-3.041276" lat="52.705943"><ele>216.756393</ele><time>2022-01-15T09:36:42Z</time><extensions><speed>0.315576</speed><course>357.839264</course><hAcc>2.210125</hAcc><vAcc>0.496368</vAcc></extensions></trkpt>
      <trkpt lon="-3.041276" lat="52.705946"><ele>216.841110</ele><time>2022-01-15T09:36:43Z</time><extensions><speed>0.291170</speed><course>355.676025</course><hAcc>2.203059</hAcc><vAcc>0.499858</vAcc></extensions></trkpt>
      <trkpt lon="-3.041276" lat="52.705949"><ele>216.918793</ele><time>2022-01-15T09:36:44Z</time><extensions><speed>0.264410</speed><course>355.255341</course><hAcc>2.199697</hAcc><vAcc>0.501553</vAcc></extensions></trkpt>
      <trkpt lon="-3.041277" lat="52.705952"><ele>216.992981</ele><time>2022-01-15T09:36:45Z</time><extensions><speed>0.290893</speed><course>357.057312</course><hAcc>2.186630</hAcc><vAcc>0.501126</vAcc></extensions></trkpt>
      <trkpt lon="-3.041277" lat="52.705954"><ele>217.066849</ele><time>2022-01-15T09:36:46Z</time><extensions><speed>0.304533</speed><course>359.336578</course><hAcc>2.188625</hAcc><vAcc>0.498541</vAcc></extensions></trkpt>
      <trkpt lon="-3.041277" lat="52.705957"><ele>217.139114</ele><time>2022-01-15T09:36:47Z</time><extensions><speed>0.287580</speed><course>2.155468</course><hAcc>2.215250</hAcc><vAcc>0.494144</vAcc></extensions></trkpt>
      <trkpt lon="-3.041276" lat="52.705960"><ele>217.207108</ele><time>2022-01-15T09:36:48Z</time><extensions><speed>0.256588</speed><course>6.787226</course><hAcc>2.254446</hAcc><vAcc>0.488581</vAcc></extensions></trkpt>
      <trkpt lon="-3.041275" lat="52.705962"><ele>217.272400</ele><time>2022-01-15T09:36:49Z</time><extensions><speed>0.217903</speed><course>12.880828</course><hAcc>2.294998</hAcc><vAcc>0.482725</vAcc></extensions></trkpt>
      <trkpt lon="-3.041274" lat="52.705964"><ele>217.332870</ele><time>2022-01-15T09:36:50Z</time><extensions><speed>0.193292</speed><course>16.649961</course><hAcc>2.328402</hAcc><vAcc>0.477431</vAcc></extensions></trkpt>
      <trkpt lon="-3.041273" lat="52.705965"><ele>217.386337</ele><time>2022-01-15T09:36:51Z</time><extensions><speed>0.162905</speed><course>18.447866</course><hAcc>2.358428</hAcc><vAcc>0.473453</vAcc></extensions></trkpt>
      <trkpt lon="-3.041273" lat="52.705967"><ele>217.434494</ele><time>2022-01-15T09:36:52Z</time><extensions><speed>0.140995</speed><course>19.586760</course><hAcc>2.377292</hAcc><vAcc>0.471187</vAcc></extensions></trkpt>
      <trkpt lon="-3.041272" lat="52.705968"><ele>217.475479</ele><time>2022-01-15T09:36:53Z</time><extensions><speed>0.114717</speed><course>21.027618</course><hAcc>2.393889</hAcc><vAcc>0.470657</vAcc></extensions></trkpt>
      <trkpt lon="-3.041271" lat="52.705968"><ele>217.510544</ele><time>2022-01-15T09:36:54Z</time><extensions><speed>0.093526</speed><course>26.857552</course><hAcc>2.402709</hAcc><vAcc>0.471637</vAcc></extensions></trkpt>
      <trkpt lon="-3.041270" lat="52.705969"><ele>217.538589</ele><time>2022-01-15T09:36:55Z</time><extensions><speed>0.079151</speed><course>37.486649</course><hAcc>2.398643</hAcc><vAcc>0.473842</vAcc></extensions></trkpt>
      <trkpt lon="-3.041269" lat="52.705969"><ele>217.559601</ele><time>2022-01-15T09:36:56Z</time><extensions><speed>0.064935</speed><course>55.240597</course><hAcc>2.383215</hAcc><vAcc>0.476950</vAcc></extensions></trkpt>
      <trkpt lon="-3.041268" lat="52.705969"><ele>217.575470</ele><time>2022-01-15T09:36:57Z</time><extensions><speed>0.057464</speed><course>81.322113</course><hAcc>2.358999</hAcc><vAcc>0.480624</vAcc></extensions></trkpt>
      <trkpt lon="-3.041267" lat="52.705969"><ele>217.593277</ele><time>2022-01-15T09:36:58Z</time><extensions><speed>0.053367</speed><course>110.658249</course><hAcc>2.339035</hAcc><vAcc>0.484431</vAcc></extensions></trkpt>
      <trkpt lon="-3.041266" lat="52.705968"><ele>217.613342</ele><time>2022-01-15T09:36:59Z</time><extensions><speed>0.051078</speed><course>140.337570</course><hAcc>2.329420</hAcc><vAcc>0.487881</vAcc></extensions></trkpt>
      <trkpt lon="-3.041266" lat="52.705967"><ele>217.642014</ele><time>2022-01-15T09:37:00Z</time><extensions><speed>0.068065</speed><course>154.911697</course><hAcc>2.310160</hAcc><vAcc>0.490507</vAcc></extensions></trkpt>
      <trkpt lon="-3.041265" lat="52.705967"><ele>217.675079</ele><time>2022-01-15T09:37:01Z</time><extensions><speed>0.091459</speed><course>155.712631</course><hAcc>2.290608</hAcc><vAcc>0.492013</vAcc></extensions></trkpt>
      <trkpt lon="-3.041265" lat="52.705966"><ele>217.714066</ele><time>2022-01-15T09:37:02Z</time><extensions><speed>0.118759</speed><course>154.041214</course><hAcc>2.269930</hAcc><vAcc>0.492419</vAcc></extensions></trkpt>
      <trkpt lon="-3.041264" lat="52.705964"><ele>217.760406</ele><time>2022-01-15T09:37:03Z</time><extensions><speed>0.139819</speed><course>153.547607</course><hAcc>2.251926</hAcc><vAcc>0.491987</vAcc></extensions></trkpt>
      <trkpt lon="-3.041263" lat="52.705963"><ele>217.815323</ele><time>2022-01-15T09:37:04Z</time><extensions><speed>0.154556</speed><course>154.533569</course><hAcc>2.242930</hAcc><vAcc>0.491047</vAcc></extensions></trkpt>
      <trkpt lon="-3.041262" lat="52.705962"><ele>217.880936</ele><time>2022-01-15T09:37:05Z</time><extensions><speed>0.141533</speed><course>156.751419</course><hAcc>2.262282</hAcc><vAcc>0.489846</vAcc></extensions></trkpt>
      <trkpt lon="-3.041261" lat="52.705961"><ele>217.956116</ele><time>2022-01-15T09:37:06Z</time><extensions><speed>0.121395</speed><course>158.884079</course><hAcc>2.287459</hAcc><vAcc>0.488463</vAcc></extensions></trkpt>
      <trkpt lon="-3.041259" lat="52.705959"><ele>217.997635</ele><time>2022-01-15T09:37:07Z</time><extensions><speed>0.136558</speed><course>160.483932</course><hAcc>2.284855</hAcc><vAcc>0.486866</vAcc></extensions></trkpt>
      <trkpt lon="-3.041259" lat="52.705958"><ele>217.982925</ele><time>2022-01-15T09:37:08Z</time><extensions><speed>0.145836</speed><course>163.125275</course><hAcc>2.286530</hAcc><vAcc>0.484955</vAcc></extensions></trkpt>
      <trkpt lon="-3.041259" lat="52.705956"><ele>217.909134</ele><time>2022-01-15T09:37:09Z</time><extensions><speed>0.138607</speed><course>164.319855</course><hAcc>2.302845</hAcc><vAcc>0.482720</vAcc></extensions></trkpt>
      <trkpt lon="-3.041258" lat="52.705955"><ele>217.732697</ele><time>2022-01-15T09:37:10Z</time><extensions><speed>0.135385</speed><course>164.652008</course><hAcc>2.317990</hAcc><vAcc>0.480448</vAcc></extensions></trkpt>
      <trkpt lon="-3.041258" lat="52.705953"><ele>217.478531</ele><time>2022-01-15T09:37:11Z</time><extensions><speed>0.122842</speed><course>164.034149</course><hAcc>2.342881</hAcc><vAcc>0.478508</vAcc></extensions></trkpt>
      <trkpt lon="-3.041257" lat="52.705952"><ele>217.156082</ele><time>2022-01-15T09:37:12Z</time><extensions><speed>0.117065</speed><course>163.330948</course><hAcc>2.367159</hAcc><vAcc>0.477181</vAcc></extensions></trkpt>
      <trkpt lon="-3.041256" lat="52.705951"><ele>216.779388</ele><time>2022-01-15T09:37:13Z</time><extensions><speed>0.118246</speed><course>162.487488</course><hAcc>2.389525</hAcc><vAcc>0.476562</vAcc></extensions></trkpt>
      <trkpt lon="-3.041256" lat="52.705950"><ele>216.356552</ele><time>2022-01-15T09:37:14Z</time><extensions><speed>0.128053</speed><course>162.196289</course><hAcc>2.411832</hAcc><vAcc>0.476493</vAcc></extensions></trkpt>
      <trkpt lon="-3.041255" lat="52.705949"><ele>215.900848</ele><time>2022-01-15T09:37:15Z</time><extensions><speed>0.130823</speed><course>164.181625</course><hAcc>2.437762</hAcc><vAcc>0.476612</vAcc></extensions></trkpt>
      <trkpt lon="-3.041255" lat="52.705948"><ele>215.434418</ele><time>2022-01-15T09:37:16Z</time><extensions><speed>0.147969</speed><course>169.219223</course><hAcc>2.443236</hAcc><vAcc>0.476488</vAcc></extensions></trkpt>
      <trkpt lon="-3.041254" lat="52.705946"><ele>214.984131</ele><time>2022-01-15T09:37:17Z</time><extensions><speed>0.164210</speed><course>174.531967</course><hAcc>2.433324</hAcc><vAcc>0.475739</vAcc></extensions></trkpt>
      <trkpt lon="-3.041254" lat="52.705945"><ele>214.574844</ele><time>2022-01-15T09:37:18Z</time><extensions><speed>0.157068</speed><course>175.886597</course><hAcc>2.426372</hAcc><vAcc>0.474056</vAcc></extensions></trkpt>
      <trkpt lon="-3.041254" lat="52.705943"><ele>214.223785</ele><time>2022-01-15T09:37:19Z</time><extensions><speed>0.130814</speed><course>172.246521</course><hAcc>2.430967</hAcc><vAcc>0.471197</vAcc></extensions></trkpt>
      <trkpt lon="-3.041254" lat="52.705943"><ele>213.924057</ele><time>2022-01-15T09:37:20Z</time><extensions><speed>0.075037</speed><course>164.734512</course><hAcc>2.458900</hAcc><vAcc>0.467284</vAcc></extensions></trkpt>
      <trkpt lon="-3.041253" lat="52.705943"><ele>213.719086</ele><time>2022-01-15T09:37:21Z</time><extensions><speed>0.032159</speed><course>151.614120</course><hAcc>2.485970</hAcc><vAcc>0.462673</vAcc></extensions></trkpt>
      <trkpt lon="-3.041253" lat="52.705944"><ele>213.598419</ele><time>2022-01-15T09:37:22Z</time><extensions><speed>0.012026</speed><course>118.591393</course><hAcc>2.481647</hAcc><vAcc>0.457817</vAcc></extensions></trkpt>
      <trkpt lon="-3.041253" lat="52.705944"><ele>213.552078</ele><time>2022-01-15T09:37:23Z</time><extensions><speed>0.010354</speed><course>35.923920</course><hAcc>2.458756</hAcc><vAcc>0.453273</vAcc></extensions></trkpt>
      <trkpt lon="-3.041253" lat="52.705945"><ele>213.585861</ele><time>2022-01-15T09:37:24Z</time><extensions><speed>0.019766</speed><course>11.079466</course><hAcc>2.434324</hAcc><vAcc>0.449495</vAcc></extensions></trkpt>
      <trkpt lon="-3.041253" lat="52.705945"><ele>213.668121</ele><time>2022-01-15T09:37:25Z</time><extensions><speed>0.028548</speed><course>3.243556</course><hAcc>2.417798</hAcc><vAcc>0.446665</vAcc></extensions></trkpt>
      <trkpt lon="-3.041253" lat="52.705946"><ele>213.790131</ele><time>2022-01-15T09:37:26Z</time><extensions><speed>0.036910</speed><course>359.444366</course><hAcc>2.408043</hAcc><vAcc>0.444896</vAcc></extensions></trkpt>
      <trkpt lon="-3.041253" lat="52.705946"><ele>213.943787</ele><time>2022-01-15T09:37:27Z</time><extensions><speed>0.050895</speed><course>357.299225</course><hAcc>2.396956</hAcc><vAcc>0.444124</vAcc></extensions></trkpt>
      <trkpt lon="-3.041253" lat="52.705947"><ele>214.113937</ele><time>2022-01-15T09:37:28Z</time><extensions><speed>0.077594</speed><course>354.915070</course><hAcc>2.384895</hAcc><vAcc>0.444092</vAcc></extensions></trkpt>
      <trkpt lon="-3.041254" lat="52.705948"><ele>214.304092</ele><time>2022-01-15T09:37:29Z</time><extensions><speed>0.088090</speed><course>353.553467</course><hAcc>2.398872</hAcc><vAcc>0.444443</vAcc></extensions></trkpt>
      <trkpt lon="-3.041254" lat="52.705949"><ele>214.507736</ele><time>2022-01-15T09:37:30Z</time><extensions><speed>0.092051</speed><course>352.995148</course><hAcc>2.426012</hAcc><vAcc>0.444909</vAcc></extensions></trkpt>
      <trkpt lon="-3.041254" lat="52.705950"><ele>214.733429</ele><time>2022-01-15T09:37:31Z</time><extensions><speed>0.078835</speed><course>353.289246</course><hAcc>2.470021</hAcc><vAcc>0.445437</vAcc></extensions></trkpt>
      <trkpt lon="-3.041254" lat="52.705950"><ele>214.944580</ele><time>2022-01-15T09:37:32Z</time><extensions><speed>0.063617</speed><course>353.304871</course><hAcc>2.521797</hAcc><vAcc>0.446085</vAcc></extensions></trkpt>
      <trkpt lon="-3.041254" lat="52.705951"><ele>215.147293</ele><time>2022-01-15T09:37:33Z</time><extensions><speed>0.039286</speed><course>353.340454</course><hAcc>2.567327</hAcc><vAcc>0.447049</vAcc></extensions></trkpt>
      <trkpt lon="-3.041254" lat="52.705951"><ele>215.340881</ele><time>2022-01-15T09:37:34Z</time><extensions><speed>0.069994</speed><course>352.344452</course><hAcc>2.563251</hAcc><vAcc>0.448531</vAcc></extensions></trkpt>
      <trkpt lon="-3.041255" lat="52.705952"><ele>215.527847</ele><time>2022-01-15T09:37:35Z</time><extensions><speed>0.087166</speed><course>349.863861</course><hAcc>2.598639</hAcc><vAcc>0.450629</vAcc></extensions></trkpt>
      <trkpt lon="-3.041255" lat="52.705953"><ele>215.710861</ele><time>2022-01-15T09:37:36Z</time><extensions><speed>0.091618</speed><course>346.884460</course><hAcc>2.690201</hAcc><vAcc>0.453339</vAcc></extensions></trkpt>
      <trkpt lon="-3.041255" lat="52.705954"><ele>215.890564</ele><time>2022-01-15T09:37:37Z</time><extensions><speed>0.084353</speed><course>343.986237</course><hAcc>2.812808</hAcc><vAcc>0.456571</vAcc></extensions></trkpt>
      <trkpt lon="-3.041256" lat="52.705955"><ele>216.064713</ele><time>2022-01-15T09:37:38Z</time><extensions><speed>0.075658</speed><course>342.940826</course><hAcc>2.920184</hAcc><vAcc>0.460166</vAcc></extensions></trkpt>
      <trkpt lon="-3.041256" lat="52.705955"><ele>216.228210</ele><time>2022-01-15T09:37:39Z</time><extensions><speed>0.071122</speed><course>344.204620</course><hAcc>2.993976</hAcc><vAcc>0.463897</vAcc></extensions></trkpt>
      <trkpt lon="-3.041256" lat="52.705956"><ele>216.375961</ele><time>2022-01-15T09:37:40Z</time><extensions><speed>0.057553</speed><course>345.778351</course><hAcc>3.059446</hAcc><vAcc>0.467493</vAcc></extensions></trkpt>
      <trkpt lon="-3.041256" lat="52.705956"><ele>216.505127</ele><time>2022-01-15T09:37:41Z</time><extensions><speed>0.032594</speed><course>344.882843</course><hAcc>3.134418</hAcc><vAcc>0.470754</vAcc></extensions></trkpt>
      <trkpt lon="-3.041258" lat="52.705957"><ele>216.616791</ele><time>2022-01-15T09:37:42Z</time><extensions><speed>0.044567</speed><course>337.042084</course><hAcc>3.228715</hAcc><vAcc>0.473576</vAcc></extensions></trkpt>
      <trkpt lon="-3.041259" lat="52.705958"><ele>216.691849</ele><time>2022-01-15T09:37:43Z</time><extensions><speed>0.031722</speed><course>335.708618</course><hAcc>3.289873</hAcc><vAcc>0.475983</vAcc></extensions></trkpt>
      <trkpt lon="-3.041259" lat="52.705959"><ele>216.763336</ele><time>2022-01-15T09:37:44Z</time><extensions><speed>0.027300</speed><course>334.456604</course><hAcc>3.282097</hAcc><vAcc>0.478128</vAcc></extensions></trkpt>
      <trkpt lon="-3.041260" lat="52.705960"><ele>216.835251</ele><time>2022-01-15T09:37:45Z</time><extensions><speed>0.025918</speed><course>332.244263</course><hAcc>3.257622</hAcc><vAcc>0.480213</vAcc></extensions></trkpt>
      <trkpt lon="-3.041260" lat="52.705960"><ele>216.895599</ele><time>2022-01-15T09:37:46Z</time><extensions><speed>0.028351</speed><course>330.084229</course><hAcc>3.233159</hAcc><vAcc>0.482437</vAcc></extensions></trkpt>
      <trkpt lon="-3.041261" lat="52.705961"><ele>216.951416</ele><time>2022-01-15T09:37:47Z</time><extensions><speed>0.040875</speed><course>328.114075</course><hAcc>3.210922</hAcc><vAcc>0.484960</vAcc></extensions></trkpt>
      <trkpt lon="-3.041261" lat="52.705961"><ele>217.008255</ele><time>2022-01-15T09:37:48Z</time><extensions><speed>0.037806</speed><course>327.601135</course><hAcc>3.221353</hAcc><vAcc>0.487898</vAcc></extensions></trkpt>
      <trkpt lon="-3.041262" lat="52.705962"><ele>217.068436</ele><time>2022-01-15T09:37:49Z</time><extensions><speed>0.062037</speed><course>327.015686</course><hAcc>3.220642</hAcc><vAcc>0.491351</vAcc></extensions></trkpt>
      <trkpt lon="-3.041263" lat="52.705963"><ele>217.132309</ele><time>2022-01-15T09:37:50Z</time><extensions><speed>0.075863</speed><course>328.118164</course><hAcc>3.252691</hAcc><vAcc>0.495370</vAcc></extensions></trkpt>
      <trkpt lon="-3.041263" lat="52.705964"><ele>217.196213</ele><time>2022-01-15T09:37:51Z</time><extensions><speed>0.090835</speed><course>330.455383</course><hAcc>3.304664</hAcc><vAcc>0.499952</vAcc></extensions></trkpt>
      <trkpt lon="-3.041264" lat="52.705965"><ele>217.251724</ele><time>2022-01-15T09:37:52Z</time><extensions><speed>0.124400</speed><course>333.798096</course><hAcc>3.370359</hAcc><vAcc>0.505042</vAcc></extensions></trkpt>
      <trkpt lon="-3.041265" lat="52.705967"><ele>217.289490</ele><time>2022-01-15T09:37:53Z</time><extensions><speed>0.138504</speed><course>336.591278</course><hAcc>3.484894</hAcc><vAcc>0.510614</vAcc></extensions></trkpt>
      <trkpt lon="-3.041266" lat="52.705968"><ele>217.299973</ele><time>2022-01-15T09:37:54Z</time><extensions><speed>0.152116</speed><course>338.265076</course><hAcc>3.633036</hAcc><vAcc>0.516669</vAcc></extensions></trkpt>
      <trkpt lon="-3.041268" lat="52.705970"><ele>217.295776</ele><time>2022-01-15T09:37:55Z</time><extensions><speed>0.179738</speed><course>338.811279</course><hAcc>3.806937</hAcc><vAcc>0.523225</vAcc></extensions></trkpt>
      <trkpt lon="-3.041270" lat="52.705972"><ele>217.277008</ele><time>2022-01-15T09:37:56Z</time><extensions><speed>0.200036</speed><course>337.573669</course><hAcc>4.012545</hAcc><vAcc>0.530312</vAcc></extensions></trkpt>
      <trkpt lon="-3.041272" lat="52.705975"><ele>217.235718</ele><time>2022-01-15T09:37:57Z</time><extensions><speed>0.215363</speed><course>336.421204</course><hAcc>4.226429</hAcc><vAcc>0.537989</vAcc></extensions></trkpt>
      <trkpt lon="-3.041274" lat="52.705977"><ele>217.180191</ele><time>2022-01-15T09:37:58Z</time><extensions><speed>0.233600</speed><course>335.043976</course><hAcc>4.433802</hAcc><vAcc>0.546290</vAcc></extensions></trkpt>
      <trkpt lon="-3.041277" lat="52.705980"><ele>217.122070</ele><time>2022-01-15T09:37:59Z</time><extensions><speed>0.255628</speed><course>333.839569</course><hAcc>4.647806</hAcc><vAcc>0.555203</vAcc></extensions></trkpt>
      <trkpt lon="-3.041279" lat="52.705982"><ele>217.064789</ele><time>2022-01-15T09:38:00Z</time><extensions><speed>0.234493</speed><course>331.702484</course><hAcc>4.871821</hAcc><vAcc>0.564619</vAcc></extensions></trkpt>
      <trkpt lon="-3.041281" lat="52.705984"><ele>217.045685</ele><time>2022-01-15T09:38:01Z</time><extensions><speed>0.202980</speed><course>327.646271</course><hAcc>5.057683</hAcc><vAcc>0.574313</vAcc></extensions></trkpt>
      <trkpt lon="-3.041285" lat="52.705985"><ele>217.065262</ele><time>2022-01-15T09:38:02Z</time><extensions><speed>0.194313</speed><course>321.537170</course><hAcc>5.198728</hAcc><vAcc>0.583943</vAcc></extensions></trkpt>
      <trkpt lon="-3.041289" lat="52.705987"><ele>217.137039</ele><time>2022-01-15T09:38:03Z</time><extensions><speed>0.204278</speed><course>315.231476</course><hAcc>5.305371</hAcc><vAcc>0.593199</vAcc></extensions></trkpt>
      <trkpt lon="-3.041295" lat="52.705989"><ele>217.244202</ele><time>2022-01-15T09:38:04Z</time><extensions><speed>0.212317</speed><course>308.453308</course><hAcc>5.360861</hAcc><vAcc>0.601722</vAcc></extensions></trkpt>
      <trkpt lon="-3.041300" lat="52.705989"><ele>217.396530</ele><time>2022-01-15T09:38:05Z</time><extensions><speed>0.203500</speed><course>299.244720</course><hAcc>5.343966</hAcc><vAcc>0.609395</vAcc></extensions></trkpt>
      <trkpt lon="-3.041307" lat="52.705988"><ele>217.591217</ele><time>2022-01-15T09:38:06Z</time><extensions><speed>0.225009</speed><course>287.918518</course><hAcc>5.250140</hAcc><vAcc>0.616187</vAcc></extensions></trkpt>
      <trkpt lon="-3.041315" lat="52.705987"><ele>217.832443</ele><time>2022-01-15T09:38:07Z</time><extensions><speed>0.257151</speed><course>278.177979</course><hAcc>5.123235</hAcc><vAcc>0.622082</vAcc></extensions></trkpt>
      <trkpt lon="-3.041325" lat="52.705984"><ele>218.115479</ele><time>2022-01-15T09:38:08Z</time><extensions><speed>0.253742</speed><course>265.005127</course><hAcc>4.990171</hAcc><vAcc>0.627132</vAcc></extensions></trkpt>
      <trkpt lon="-3.041333" lat="52.705980"><ele>218.425476</ele><time>2022-01-15T09:38:09Z</time><extensions><speed>0.270565</speed><course>253.578995</course><hAcc>4.815042</hAcc><vAcc>0.631293</vAcc></extensions></trkpt>
      <trkpt lon="-3.041345" lat="52.705977"><ele>218.753754</ele><time>2022-01-15T09:38:10Z</time><extensions><speed>0.324746</speed><course>249.088959</course><hAcc>4.596954</hAcc><vAcc>0.634417</vAcc></extensions></trkpt>
      <trkpt lon="-3.041358" lat="52.705974"><ele>219.088394</ele><time>2022-01-15T09:38:11Z</time><extensions><speed>0.389295</speed><course>247.238083</course><hAcc>4.345250</hAcc><vAcc>0.636427</vAcc></extensions></trkpt>
      <trkpt lon="-3.041372" lat="52.705971"><ele>219.424545</ele><time>2022-01-15T09:38:12Z</time><extensions><speed>0.438912</speed><course>246.234756</course><hAcc>4.070917</hAcc><vAcc>0.637113</vAcc></extensions></trkpt>
      <trkpt lon="-3.041384" lat="52.705968"><ele>219.755112</ele><time>2022-01-15T09:38:13Z</time><extensions><speed>0.470992</speed><course>244.811157</course><hAcc>3.790856</hAcc><vAcc>0.636221</vAcc></extensions></trkpt>
      <trkpt lon="-3.041395" lat="52.705965"><ele>220.075897</ele><time>2022-01-15T09:38:14Z</time><extensions><speed>0.418510</speed><course>243.482101</course><hAcc>3.547777</hAcc><vAcc>0.633476</vAcc></extensions></trkpt>
      <trkpt lon="-3.041404" lat="52.705963"><ele>220.386185</ele><time>2022-01-15T09:38:15Z</time><extensions><speed>0.284108</speed><course>242.840469</course><hAcc>3.374901</hAcc><vAcc>0.628671</vAcc></extensions></trkpt>
      <trkpt lon="-3.041412" lat="52.705961"><ele>220.681427</ele><time>2022-01-15T09:38:16Z</time><extensions><speed>0.231882</speed><course>242.659409</course><hAcc>3.226861</hAcc><vAcc>0.621704</vAcc></extensions></trkpt>
      <trkpt lon="-3.041419" lat="52.705959"><ele>220.957977</ele><time>2022-01-15T09:38:17Z</time><extensions><speed>0.219057</speed><course>243.170425</course><hAcc>3.086297</hAcc><vAcc>0.612597</vAcc></extensions></trkpt>
      <trkpt lon="-3.041425" lat="52.705958"><ele>221.214905</ele><time>2022-01-15T09:38:18Z</time><extensions><speed>0.245760</speed><course>245.150940</course><hAcc>2.949812</hAcc><vAcc>0.601503</vAcc></extensions></trkpt>
      <trkpt lon="-3.041432" lat="52.705957"><ele>221.453964</ele><time>2022-01-15T09:38:19Z</time><extensions><speed>0.261983</speed><course>248.655258</course><hAcc>2.830647</hAcc><vAcc>0.588699</vAcc></extensions></trkpt>
      <trkpt lon="-3.041440" lat="52.705955"><ele>221.688400</ele><time>2022-01-15T09:38:20Z</time><extensions><speed>0.287245</speed><course>251.760376</course><hAcc>2.723691</hAcc><vAcc>0.574588</vAcc></extensions></trkpt>
      <trkpt lon="-3.041447" lat="52.705954"><ele>221.897339</ele><time>2022-01-15T09:38:21Z</time><extensions><speed>0.342467</speed><course>253.015961</course><hAcc>2.621827</hAcc><vAcc>0.559692</vAcc></extensions></trkpt>
      <trkpt lon="-3.041454" lat="52.705952"><ele>222.101349</ele><time>2022-01-15T09:38:22Z</time><extensions><speed>0.379602</speed><course>253.212006</course><hAcc>2.533017</hAcc><vAcc>0.544521</vAcc></extensions></trkpt>
      <trkpt lon="-3.041461" lat="52.705950"><ele>222.296310</ele><time>2022-01-15T09:38:23Z</time><extensions><speed>0.390399</speed><course>252.950272</course><hAcc>2.465857</hAcc><vAcc>0.529632</vAcc></extensions></trkpt>
      <trkpt lon="-3.041468" lat="52.705949"><ele>222.468781</ele><time>2022-01-15T09:38:24Z</time><extensions><speed>0.376656</speed><course>252.833618</course><hAcc>2.419740</hAcc><vAcc>0.515462</vAcc></extensions></trkpt>
      <trkpt lon="-3.041475" lat="52.705947"><ele>222.660004</ele><time>2022-01-15T09:38:25Z</time><extensions><speed>0.389262</speed><course>251.972153</course><hAcc>2.375637</hAcc><vAcc>0.502291</vAcc></extensions></trkpt>
      <trkpt lon="-3.041482" lat="52.705945"><ele>222.832886</ele><time>2022-01-15T09:38:26Z</time><extensions><speed>0.455452</speed><course>250.454681</course><hAcc>2.325651</hAcc><vAcc>0.490344</vAcc></extensions></trkpt>
      <trkpt lon="-3.041489" lat="52.705943"><ele>223.004547</ele><time>2022-01-15T09:38:27Z</time><extensions><speed>0.451570</speed><course>248.977509</course><hAcc>2.295892</hAcc><vAcc>0.479549</vAcc></extensions></trkpt>
      <trkpt lon="-3.041495" lat="52.705942"><ele>223.174561</ele><time>2022-01-15T09:38:28Z</time><extensions><speed>0.366677</speed><course>247.395706</course><hAcc>2.290824</hAcc><vAcc>0.469847</vAcc></extensions></trkpt>
      <trkpt lon="-3.041501" lat="52.705941"><ele>223.326706</ele><time>2022-01-15T09:38:29Z</time><extensions><speed>0.345976</speed><course>244.956070</course><hAcc>2.277861</hAcc><vAcc>0.461142</vAcc></extensions></trkpt>
      <trkpt lon="-3.041506" lat="52.705939"><ele>223.471649</ele><time>2022-01-15T09:38:30Z</time><extensions><speed>0.350104</speed><course>241.585632</course><hAcc>2.265196</hAcc><vAcc>0.453372</vAcc></extensions></trkpt>
      <trkpt lon="-3.041511" lat="52.705937"><ele>223.605316</ele><time>2022-01-15T09:38:31Z</time><extensions><speed>0.326520</speed><course>237.757278</course><hAcc>2.270920</hAcc><vAcc>0.446257</vAcc></extensions></trkpt>
      <trkpt lon="-3.041515" lat="52.705935"><ele>223.720551</ele><time>2022-01-15T09:38:32Z</time><extensions><speed>0.299559</speed><course>234.263657</course><hAcc>2.289323</hAcc><vAcc>0.439667</vAcc></extensions></trkpt>
      <trkpt lon="-3.041519" lat="52.705933"><ele>223.828659</ele><time>2022-01-15T09:38:33Z</time><extensions><speed>0.309915</speed><course>231.285614</course><hAcc>2.301809</hAcc><vAcc>0.433542</vAcc></extensions></trkpt>
      <trkpt lon="-3.041523" lat="52.705931"><ele>223.939224</ele><time>2022-01-15T09:38:34Z</time><extensions><speed>0.429255</speed><course>228.905655</course><hAcc>2.299795</hAcc><vAcc>0.427795</vAcc></extensions></trkpt>
      <trkpt lon="-3.041528" lat="52.705928"><ele>224.030136</ele><time>2022-01-15T09:38:35Z</time><extensions><speed>0.442166</speed><course>227.278046</course><hAcc>2.338059</hAcc><vAcc>0.422825</vAcc></extensions></trkpt>
      <trkpt lon="-3.041533" lat="52.705925"><ele>224.096329</ele><time>2022-01-15T09:38:36Z</time><extensions><speed>0.469687</speed><course>226.207367</course><hAcc>2.386007</hAcc><vAcc>0.418709</vAcc></extensions></trkpt>
      <trkpt lon="-3.041539" lat="52.705922"><ele>224.138794</ele><time>2022-01-15T09:38:37Z</time><extensions><speed>0.482861</speed><course>225.491547</course><hAcc>2.435780</hAcc><vAcc>0.415611</vAcc></extensions></trkpt>
      <trkpt lon="-3.041544" lat="52.705918"><ele>224.169250</ele><time>2022-01-15T09:38:38Z</time><extensions><speed>0.500331</speed><course>223.946991</course><hAcc>2.483853</hAcc><vAcc>0.413676</vAcc></extensions></trkpt>
      <trkpt lon="-3.041550" lat="52.705915"><ele>224.218277</ele><time>2022-01-15T09:38:39Z</time><extensions><speed>0.483793</speed><course>222.050797</course><hAcc>2.530171</hAcc><vAcc>0.412943</vAcc></extensions></trkpt>
      <trkpt lon="-3.041556" lat="52.705911"><ele>224.249054</ele><time>2022-01-15T09:38:40Z</time><extensions><speed>0.495158</speed><course>220.500076</course><hAcc>2.555358</hAcc><vAcc>0.413369</vAcc></extensions></trkpt>
      <trkpt lon="-3.041561" lat="52.705907"><ele>224.267654</ele><time>2022-01-15T09:38:41Z</time><extensions><speed>0.494733</speed><course>220.349045</course><hAcc>2.565993</hAcc><vAcc>0.414826</vAcc></extensions></trkpt>
      <trkpt lon="-3.041567" lat="52.705903"><ele>224.280685</ele><time>2022-01-15T09:38:42Z</time><extensions><speed>0.508046</speed><course>222.206741</course><hAcc>2.562215</hAcc><vAcc>0.417112</vAcc></extensions></trkpt>
      <trkpt lon="-3.041573" lat="52.705900"><ele>224.284409</ele><time>2022-01-15T09:38:43Z</time><extensions><speed>0.535707</speed><course>225.707108</course><hAcc>2.544187</hAcc><vAcc>0.419852</vAcc></extensions></trkpt>
      <trkpt lon="-3.041580" lat="52.705896"><ele>224.274872</ele><time>2022-01-15T09:38:44Z</time><extensions><speed>0.601236</speed><course>228.129898</course><hAcc>2.506932</hAcc><vAcc>0.422725</vAcc></extensions></trkpt>
      <trkpt lon="-3.041588" lat="52.705892"><ele>224.278595</ele><time>2022-01-15T09:38:45Z</time><extensions><speed>0.671088</speed><course>229.479675</course><hAcc>2.456404</hAcc><vAcc>0.425490</vAcc></extensions></trkpt>
      <trkpt lon="-3.041597" lat="52.705887"><ele>224.273773</ele><time>2022-01-15T09:38:46Z</time><extensions><speed>0.719305</speed><course>230.305954</course><hAcc>2.400910</hAcc><vAcc>0.427931</vAcc></extensions></trkpt>
      <trkpt lon="-3.041606" lat="52.705883"><ele>224.271484</ele><time>2022-01-15T09:38:47Z</time><extensions><speed>0.707761</speed><course>231.309494</course><hAcc>2.350229</hAcc><vAcc>0.429971</vAcc></extensions></trkpt>
      <trkpt lon="-3.041614" lat="52.705879"><ele>224.262039</ele><time>2022-01-15T09:38:48Z</time><extensions><speed>0.673607</speed><course>231.798325</course><hAcc>2.320956</hAcc><vAcc>0.431662</vAcc></extensions></trkpt>
      <trkpt lon="-3.041621" lat="52.705876"><ele>224.249542</ele><time>2022-01-15T09:38:49Z</time><extensions><speed>0.363549</speed><course>232.326859</course><hAcc>2.337181</hAcc><vAcc>0.433016</vAcc></extensions></trkpt>
      <trkpt lon="-3.041625" lat="52.705874"><ele>224.244720</ele><time>2022-01-15T09:38:50Z</time><extensions><speed>0.278799</speed><course>233.005920</course><hAcc>2.326198</hAcc><vAcc>0.434103</vAcc></extensions></trkpt>
      <trkpt lon="-3.041629" lat="52.705873"><ele>224.235474</ele><time>2022-01-15T09:38:51Z</time><extensions><speed>0.226506</speed><course>234.962341</course><hAcc>2.316276</hAcc><vAcc>0.435070</vAcc></extensions></trkpt>
      <trkpt lon="-3.041632" lat="52.705872"><ele>224.216583</ele><time>2022-01-15T09:38:52Z</time><extensions><speed>0.219901</speed><course>238.124191</course><hAcc>2.308584</hAcc><vAcc>0.436133</vAcc></extensions></trkpt>
      <trkpt lon="-3.041635" lat="52.705871"><ele>224.220520</ele><time>2022-01-15T09:38:53Z</time><extensions><speed>0.269648</speed><course>241.428253</course><hAcc>2.291962</hAcc><vAcc>0.437400</vAcc></extensions></trkpt>
      <trkpt lon="-3.041640" lat="52.705870"><ele>224.257233</ele><time>2022-01-15T09:38:54Z</time><extensions><speed>0.470802</speed><course>244.278778</course><hAcc>2.253545</hAcc><vAcc>0.438978</vAcc></extensions></trkpt>
      <trkpt lon="-3.041647" lat="52.705869"><ele>224.319733</ele><time>2022-01-15T09:38:55Z</time><extensions><speed>0.457241</speed><course>253.291260</course><hAcc>2.261369</hAcc><vAcc>0.441062</vAcc></extensions></trkpt>
      <trkpt lon="-3.041654" lat="52.705868"><ele>224.400192</ele><time>2022-01-15T09:38:56Z</time><extensions><speed>0.560906</speed><course>260.214905</course><hAcc>2.271537</hAcc><vAcc>0.443829</vAcc></extensions></trkpt>
      <trkpt lon="-3.041662" lat="52.705868"><ele>224.521500</ele><time>2022-01-15T09:38:57Z</time><extensions><speed>0.480121</speed><course>274.534515</course><hAcc>2.307659</hAcc><vAcc>0.447238</vAcc></extensions></trkpt>
      <trkpt lon="-3.041669" lat="52.705869"><ele>224.669601</ele><time>2022-01-15T09:38:58Z</time><extensions><speed>0.467745</speed><course>289.479828</course><hAcc>2.336840</hAcc><vAcc>0.450970</vAcc></extensions></trkpt>
      <trkpt lon="-3.041675" lat="52.705871"><ele>224.847015</ele><time>2022-01-15T09:38:59Z</time><extensions><speed>0.487984</speed><course>303.038971</course><hAcc>2.349887</hAcc><vAcc>0.454601</vAcc></extensions></trkpt>
      <trkpt lon="-3.041681" lat="52.705874"><ele>225.051468</ele><time>2022-01-15T09:39:00Z</time><extensions><speed>0.558479</speed><course>313.865509</course><hAcc>2.338806</hAcc><vAcc>0.457983</vAcc></extensions></trkpt>
      <trkpt lon="-3.041687" lat="52.705878"><ele>225.276230</ele><time>2022-01-15T09:39:01Z</time><extensions><speed>0.596259</speed><course>322.529449</course><hAcc>2.324724</hAcc><vAcc>0.461334</vAcc></extensions></trkpt>
      <trkpt lon="-3.041692" lat="52.705883"><ele>225.512451</ele><time>2022-01-15T09:39:02Z</time><extensions><speed>0.578154</speed><course>329.765533</course><hAcc>2.318823</hAcc><vAcc>0.464993</vAcc></extensions></trkpt>
      <trkpt lon="-3.041696" lat="52.705888"><ele>225.750259</ele><time>2022-01-15T09:39:03Z</time><extensions><speed>0.526737</speed><course>335.456146</course><hAcc>2.318832</hAcc><vAcc>0.469034</vAcc></extensions></trkpt>
      <trkpt lon="-3.041699" lat="52.705892"><ele>225.980499</ele><time>2022-01-15T09:39:04Z</time><extensions><speed>0.470806</speed><course>339.823761</course><hAcc>2.315002</hAcc><vAcc>0.473121</vAcc></extensions></trkpt>
      <trkpt lon="-3.041702" lat="52.705897"><ele>226.199615</ele><time>2022-01-15T09:39:05Z</time><extensions><speed>0.501152</speed><course>341.519684</course><hAcc>2.289966</hAcc><vAcc>0.476876</vAcc></extensions></trkpt>
      <trkpt lon="-3.041705" lat="52.705901"><ele>226.404251</ele><time>2022-01-15T09:39:06Z</time><extensions><speed>0.538371</speed><course>341.012756</course><hAcc>2.272956</hAcc><vAcc>0.480281</vAcc></extensions></trkpt>
      <trkpt lon="-3.041708" lat="52.705906"><ele>226.601196</ele><time>2022-01-15T09:39:07Z</time><extensions><speed>0.476886</speed><course>338.549896</course><hAcc>2.285385</hAcc><vAcc>0.483629</vAcc></extensions></trkpt>
      <trkpt lon="-3.041712" lat="52.705910"><ele>226.783783</ele><time>2022-01-15T09:39:08Z</time><extensions><speed>0.524149</speed><course>334.774780</course><hAcc>2.272075</hAcc><vAcc>0.487230</vAcc></extensions></trkpt>
      <trkpt lon="-3.041716" lat="52.705915"><ele>226.953583</ele><time>2022-01-15T09:39:09Z</time><extensions><speed>0.567696</speed><course>331.178131</course><hAcc>2.257411</hAcc><vAcc>0.491143</vAcc></extensions></trkpt>
      <trkpt lon="-3.041721" lat="52.705920"><ele>227.112122</ele><time>2022-01-15T09:39:10Z</time><extensions><speed>0.599212</speed><course>328.478882</course><hAcc>2.252072</hAcc><vAcc>0.495122</vAcc></extensions></trkpt>
      <trkpt lon="-3.041726" lat="52.705925"><ele>227.270065</ele><time>2022-01-15T09:39:11Z</time><extensions><speed>0.634616</speed><course>325.922211</course><hAcc>2.247630</hAcc><vAcc>0.498828</vAcc></extensions></trkpt>
      <trkpt lon="-3.041732" lat="52.705929"><ele>227.429947</ele><time>2022-01-15T09:39:12Z</time><extensions><speed>0.677579</speed><course>322.787415</course><hAcc>2.237766</hAcc><vAcc>0.502012</vAcc></extensions></trkpt>
      <trkpt lon="-3.041739" lat="52.705935"><ele>227.595657</ele><time>2022-01-15T09:39:13Z</time><extensions><speed>0.729605</speed><course>319.790314</course><hAcc>2.217477</hAcc><vAcc>0.504612</vAcc></extensions></trkpt>
      <trkpt lon="-3.041747" lat="52.705940"><ele>227.774216</ele><time>2022-01-15T09:39:14Z</time><extensions><speed>0.768882</speed><course>316.878448</course><hAcc>2.187051</hAcc><vAcc>0.506656</vAcc></extensions></trkpt>
      <trkpt lon="-3.041756" lat="52.705945"><ele>227.964111</ele><time>2022-01-15T09:39:15Z</time><extensions><speed>0.746841</speed><course>314.302948</course><hAcc>2.162360</hAcc><vAcc>0.508099</vAcc></extensions></trkpt>
      <trkpt lon="-3.041763" lat="52.705950"><ele>228.162231</ele><time>2022-01-15T09:39:16Z</time><extensions><speed>0.640284</speed><course>312.507660</course><hAcc>2.165776</hAcc><vAcc>0.508780</vAcc></extensions></trkpt>
      <trkpt lon="-3.041770" lat="52.705953"><ele>228.386993</ele><time>2022-01-15T09:39:17Z</time><extensions><speed>0.420651</speed><course>311.214630</course><hAcc>2.195580</hAcc><vAcc>0.508532</vAcc></extensions></trkpt>
      <trkpt lon="-3.041774" lat="52.705956"><ele>228.620667</ele><time>2022-01-15T09:39:18Z</time><extensions><speed>0.414494</speed><course>311.167114</course><hAcc>2.183258</hAcc><vAcc>0.507263</vAcc></extensions></trkpt>
      <trkpt lon="-3.041780" lat="52.705959"><ele>228.887894</ele><time>2022-01-15T09:39:19Z</time><extensions><speed>0.508549</speed><course>311.650970</course><hAcc>2.147248</hAcc><vAcc>0.504997</vAcc></extensions></trkpt>
      <trkpt lon="-3.041785" lat="52.705963"><ele>229.168640</ele><time>2022-01-15T09:39:20Z</time><extensions><speed>0.551572</speed><course>312.617218</course><hAcc>2.128224</hAcc><vAcc>0.501854</vAcc></extensions></trkpt>
      <trkpt lon="-3.041792" lat="52.705967"><ele>229.465057</ele><time>2022-01-15T09:39:21Z</time><extensions><speed>0.601500</speed><course>314.881348</course><hAcc>2.119196</hAcc><vAcc>0.497926</vAcc></extensions></trkpt>
      <trkpt lon="-3.041797" lat="52.705972"><ele>229.779434</ele><time>2022-01-15T09:39:22Z</time><extensions><speed>0.580789</speed><course>319.210663</course><hAcc>2.133733</hAcc><vAcc>0.493257</vAcc></extensions></trkpt>
      <trkpt lon="-3.041802" lat="52.705976"><ele>230.095444</ele><time>2022-01-15T09:39:23Z</time><extensions><speed>0.490080</speed><course>325.872437</course><hAcc>2.180125</hAcc><vAcc>0.487917</vAcc></extensions></trkpt>
      <trkpt lon="-3.041804" lat="52.705980"><ele>230.425690</ele><time>2022-01-15T09:39:24Z</time><extensions><speed>0.310608</speed><course>336.439301</course><hAcc>2.238521</hAcc><vAcc>0.481915</vAcc></extensions></trkpt>
      <trkpt lon="-3.041806" lat="52.705984"><ele>230.760788</ele><time>2022-01-15T09:39:25Z</time><extensions><speed>0.408821</speed><course>348.228577</course><hAcc>2.228205</hAcc><vAcc>0.475351</vAcc></extensions></trkpt>
      <trkpt lon="-3.041806" lat="52.705989"><ele>231.084778</ele><time>2022-01-15T09:39:26Z</time><extensions><speed>0.622640</speed><course>355.577362</course><hAcc>2.199117</hAcc><vAcc>0.468250</vAcc></extensions></trkpt>
      <trkpt lon="-3.041806" lat="52.705996"><ele>231.411011</ele><time>2022-01-15T09:39:27Z</time><extensions><speed>0.710164</speed><course>0.784109</course><hAcc>2.215239</hAcc><vAcc>0.460867</vAcc></extensions></trkpt>
      <trkpt lon="-3.041805" lat="52.706004"><ele>231.742661</ele><time>2022-01-15T09:39:28Z</time><extensions><speed>0.869621</speed><course>4.603379</course><hAcc>2.244462</hAcc><vAcc>0.453503</vAcc></extensions></trkpt>
      <trkpt lon="-3.041804" lat="52.706013"><ele>232.066925</ele><time>2022-01-15T09:39:29Z</time><extensions><speed>0.967268</speed><course>7.498753</course><hAcc>2.281311</hAcc><vAcc>0.446852</vAcc></extensions></trkpt>
      <trkpt lon="-3.041801" lat="52.706024"><ele>232.394089</ele><time>2022-01-15T09:39:30Z</time><extensions><speed>1.161430</speed><course>9.705010</course><hAcc>2.295431</hAcc><vAcc>0.441730</vAcc></extensions></trkpt>
      <trkpt lon="-3.041798" lat="52.706035"><ele>232.722931</ele><time>2022-01-15T09:39:31Z</time><extensions><speed>1.288914</speed><course>11.141918</course><hAcc>2.296227</hAcc><vAcc>0.438784</vAcc></extensions></trkpt>
      <trkpt lon="-3.041794" lat="52.706048"><ele>233.047073</ele><time>2022-01-15T09:39:32Z</time><extensions><speed>1.380219</speed><course>11.874114</course><hAcc>2.288183</hAcc><vAcc>0.438327</vAcc></extensions></trkpt>
      <trkpt lon="-3.041791" lat="52.706061"><ele>233.371475</ele><time>2022-01-15T09:39:33Z</time><extensions><speed>1.235228</speed><course>11.273094</course><hAcc>2.296324</hAcc><vAcc>0.440334</vAcc></extensions></trkpt>
      <trkpt lon="-3.041789" lat="52.706071"><ele>233.690155</ele><time>2022-01-15T09:39:34Z</time><extensions><speed>0.961671</speed><course>9.401993</course><hAcc>2.306077</hAcc><vAcc>0.444426</vAcc></extensions></trkpt>
      <trkpt lon="-3.041788" lat="52.706080"><ele>234.005661</ele><time>2022-01-15T09:39:35Z</time><extensions><speed>0.930855</speed><course>6.423010</course><hAcc>2.283279</hAcc><vAcc>0.449978</vAcc></extensions></trkpt>
      <trkpt lon="-3.041788" lat="52.706088"><ele>234.327225</ele><time>2022-01-15T09:39:36Z</time><extensions><speed>0.841948</speed><course>2.899487</course><hAcc>2.262553</hAcc><vAcc>0.456227</vAcc></extensions></trkpt>
      <trkpt lon="-3.041788" lat="52.706096"><ele>234.654572</ele><time>2022-01-15T09:39:37Z</time><extensions><speed>0.780658</speed><course>358.689270</course><hAcc>2.242842</hAcc><vAcc>0.462429</vAcc></extensions></trkpt>
      <trkpt lon="-3.041790" lat="52.706102"><ele>234.993530</ele><time>2022-01-15T09:39:38Z</time><extensions><speed>0.732279</speed><course>353.683746</course><hAcc>2.224321</hAcc><vAcc>0.468039</vAcc></extensions></trkpt>
      <trkpt lon="-3.041792" lat="52.706108"><ele>235.334473</ele><time>2022-01-15T09:39:39Z</time><extensions><speed>0.655741</speed><course>347.472198</course><hAcc>2.213873</hAcc><vAcc>0.472776</vAcc></extensions></trkpt>
      <trkpt lon="-3.041795" lat="52.706113"><ele>235.674988</ele><time>2022-01-15T09:39:40Z</time><extensions><speed>0.594552</speed><course>339.585083</course><hAcc>2.207306</hAcc><vAcc>0.476561</vAcc></extensions></trkpt>
      <trkpt lon="-3.041799" lat="52.706118"><ele>236.030579</ele><time>2022-01-15T09:39:41Z</time><extensions><speed>0.529464</speed><course>329.682037</course><hAcc>2.209153</hAcc><vAcc>0.479441</vAcc></extensions></trkpt>
      <trkpt lon="-3.041804" lat="52.706121"><ele>236.387009</ele><time>2022-01-15T09:39:42Z</time><extensions><speed>0.470803</speed><course>317.463257</course><hAcc>2.220934</hAcc><vAcc>0.481518</vAcc></extensions></trkpt>
      <trkpt lon="-3.041809" lat="52.706123"><ele>236.757324</ele><time>2022-01-15T09:39:43Z</time><extensions><speed>0.446863</speed><course>303.293732</course><hAcc>2.232779</hAcc><vAcc>0.482833</vAcc></extensions></trkpt>
      <trkpt lon="-3.041816" lat="52.706125"><ele>237.125412</ele><time>2022-01-15T09:39:44Z</time><extensions><speed>0.465017</speed><course>288.868530</course><hAcc>2.232713</hAcc><vAcc>0.483356</vAcc></extensions></trkpt>
      <trkpt lon="-3.041824" lat="52.706126"><ele>237.491028</ele><time>2022-01-15T09:39:45Z</time><extensions><speed>0.646480</speed><course>278.831818</course><hAcc>2.202886</hAcc><vAcc>0.483126</vAcc></extensions></trkpt>
      <trkpt lon="-3.041835" lat="52.706126"><ele>237.845673</ele><time>2022-01-15T09:39:46Z</time><extensions><speed>0.671628</speed><course>264.196808</course><hAcc>2.207844</hAcc><vAcc>0.482290</vAcc></extensions></trkpt>
      <trkpt lon="-3.041845" lat="52.706124"><ele>238.198196</ele><time>2022-01-15T09:39:47Z</time><extensions><speed>0.634042</speed><course>249.547043</course><hAcc>2.226396</hAcc><vAcc>0.480942</vAcc></extensions></trkpt>
      <trkpt lon="-3.041854" lat="52.706121"><ele>238.553986</ele><time>2022-01-15T09:39:48Z</time><extensions><speed>0.643432</speed><course>240.917770</course><hAcc>2.225920</hAcc><vAcc>0.478935</vAcc></extensions></trkpt>
      <trkpt lon="-3.041863" lat="52.706118"><ele>238.921173</ele><time>2022-01-15T09:39:49Z</time><extensions><speed>0.653035</speed><course>236.676315</course><hAcc>2.215875</hAcc><vAcc>0.476163</vAcc></extensions></trkpt>
      <trkpt lon="-3.041871" lat="52.706114"><ele>239.281387</ele><time>2022-01-15T09:39:50Z</time><extensions><speed>0.585556</speed><course>234.462204</course><hAcc>2.231980</hAcc><vAcc>0.472633</vAcc></extensions></trkpt>
      <trkpt lon="-3.041878" lat="52.706111"><ele>239.630157</ele><time>2022-01-15T09:39:51Z</time><extensions><speed>0.405852</speed><course>233.182785</course><hAcc>2.263424</hAcc><vAcc>0.468461</vAcc></extensions></trkpt>
      <trkpt lon="-3.041885" lat="52.706108"><ele>239.965729</ele><time>2022-01-15T09:39:52Z</time><extensions><speed>0.604220</speed><course>231.992050</course><hAcc>2.232953</hAcc><vAcc>0.464081</vAcc></extensions></trkpt>
      <trkpt lon="-3.041891" lat="52.706105"><ele>240.274658</ele><time>2022-01-15T09:39:53Z</time><extensions><speed>0.425960</speed><course>233.321091</course><hAcc>2.262322</hAcc><vAcc>0.459952</vAcc></extensions></trkpt>
      <trkpt lon="-3.041897" lat="52.706103"><ele>240.579834</ele><time>2022-01-15T09:39:54Z</time><extensions><speed>0.407058</speed><course>232.924515</course><hAcc>2.279980</hAcc><vAcc>0.456563</vAcc></extensions></trkpt>
      <trkpt lon="-3.041902" lat="52.706100"><ele>240.865097</ele><time>2022-01-15T09:39:55Z</time><extensions><speed>0.487497</speed><course>231.598740</course><hAcc>2.273507</hAcc><vAcc>0.454169</vAcc></extensions></trkpt>
      <trkpt lon="-3.041910" lat="52.706097"><ele>241.120178</ele><time>2022-01-15T09:39:56Z</time><extensions><speed>0.698556</speed><course>230.402832</course><hAcc>2.247986</hAcc><vAcc>0.452804</vAcc></extensions></trkpt>
      <trkpt lon="-3.041918" lat="52.706093"><ele>241.362106</ele><time>2022-01-15T09:39:57Z</time><extensions><speed>0.804826</speed><course>228.951950</course><hAcc>2.263578</hAcc><vAcc>0.452275</vAcc></extensions></trkpt>
      <trkpt lon="-3.041927" lat="52.706088"><ele>241.567123</ele><time>2022-01-15T09:39:58Z</time><extensions><speed>0.658097</speed><course>233.794510</course><hAcc>2.316034</hAcc><vAcc>0.452281</vAcc></extensions></trkpt>
      <trkpt lon="-3.041935" lat="52.706085"><ele>241.739227</ele><time>2022-01-15T09:39:59Z</time><extensions><speed>0.561672</speed><course>238.269073</course><hAcc>2.354513</hAcc><vAcc>0.452600</vAcc></extensions></trkpt>
      <trkpt lon="-3.041943" lat="52.706082"><ele>241.876785</ele><time>2022-01-15T09:40:00Z</time><extensions><speed>0.641273</speed><course>241.328812</course><hAcc>2.344503</hAcc><vAcc>0.453095</vAcc></extensions></trkpt>
      <trkpt lon="-3.041953" lat="52.706079"><ele>242.000626</ele><time>2022-01-15T09:40:01Z</time><extensions><speed>0.711103</speed><course>243.099533</course><hAcc>2.328152</hAcc><vAcc>0.453692</vAcc></extensions></trkpt>
      <trkpt lon="-3.041963" lat="52.706076"><ele>242.092880</ele><time>2022-01-15T09:40:02Z</time><extensions><speed>0.714980</speed><course>244.350037</course><hAcc>2.328072</hAcc><vAcc>0.454364</vAcc></extensions></trkpt>
      <trkpt lon="-3.041973" lat="52.706073"><ele>242.172424</ele><time>2022-01-15T09:40:03Z</time><extensions><speed>0.719521</speed><course>245.226471</course><hAcc>2.339779</hAcc><vAcc>0.455036</vAcc></extensions></trkpt>
      <trkpt lon="-3.041982" lat="52.706071"><ele>242.238449</ele><time>2022-01-15T09:40:04Z</time><extensions><speed>0.532797</speed><course>246.731705</course><hAcc>2.373257</hAcc><vAcc>0.455659</vAcc></extensions></trkpt>
      <trkpt lon="-3.041990" lat="52.706069"><ele>242.298691</ele><time>2022-01-15T09:40:05Z</time><extensions><speed>0.484153</speed><course>247.824051</course><hAcc>2.381603</hAcc><vAcc>0.456189</vAcc></extensions></trkpt>
      <trkpt lon="-3.041997" lat="52.706067"><ele>242.350159</ele><time>2022-01-15T09:40:06Z</time><extensions><speed>0.537447</speed><course>247.264938</course><hAcc>2.366779</hAcc><vAcc>0.456691</vAcc></extensions></trkpt>
      <trkpt lon="-3.042006" lat="52.706065"><ele>242.389862</ele><time>2022-01-15T09:40:07Z</time><extensions><speed>0.627758</speed><course>246.321075</course><hAcc>2.352073</hAcc><vAcc>0.457447</vAcc></extensions></trkpt>
      <trkpt lon="-3.042015" lat="52.706062"><ele>242.419846</ele><time>2022-01-15T09:40:08Z</time><extensions><speed>0.679165</speed><course>245.750519</course><hAcc>2.352730</hAcc><vAcc>0.458960</vAcc></extensions></trkpt>
      <trkpt lon="-3.042025" lat="52.706060"><ele>242.442871</ele><time>2022-01-15T09:40:09Z</time><extensions><speed>0.722130</speed><course>245.488144</course><hAcc>2.353857</hAcc><vAcc>0.461759</vAcc></extensions></trkpt>
      <trkpt lon="-3.042035" lat="52.706057"><ele>242.461121</ele><time>2022-01-15T09:40:10Z</time><extensions><speed>0.771091</speed><course>246.191284</course><hAcc>2.339895</hAcc><vAcc>0.466220</vAcc></extensions></trkpt>
      <trkpt lon="-3.042046" lat="52.706054"><ele>242.476257</ele><time>2022-01-15T09:40:11Z</time><extensions><speed>0.824447</speed><course>247.603653</course><hAcc>2.313592</hAcc><vAcc>0.472433</vAcc></extensions></trkpt>
      <trkpt lon="-3.042058" lat="52.706050"><ele>242.489868</ele><time>2022-01-15T09:40:13Z</time><extensions><speed>0.822918</speed><course>248.953384</course><hAcc>2.303266</hAcc><vAcc>0.480179</vAcc></extensions></trkpt>
      <trkpt lon="-3.042068" lat="52.706047"><ele>242.499588</ele><time>2022-01-15T09:40:14Z</time><extensions><speed>0.646038</speed><course>244.246078</course><hAcc>2.317571</hAcc><vAcc>0.489062</vAcc></extensions></trkpt>
      <trkpt lon="-3.042077" lat="52.706044"><ele>242.496918</ele><time>2022-01-15T09:40:15Z</time><extensions><speed>0.626770</speed><course>238.577454</course><hAcc>2.304633</hAcc><vAcc>0.498641</vAcc></extensions></trkpt>
      <trkpt lon="-3.042086" lat="52.706041"><ele>242.480820</ele><time>2022-01-15T09:40:16Z</time><extensions><speed>0.637719</speed><course>233.081909</course><hAcc>2.283955</hAcc><vAcc>0.508482</vAcc></extensions></trkpt>
      <trkpt lon="-3.042094" lat="52.706037"><ele>242.451050</ele><time>2022-01-15T09:40:17Z</time><extensions><speed>0.650615</speed><course>228.771332</course><hAcc>2.269338</hAcc><vAcc>0.518087</vAcc></extensions></trkpt>
      <trkpt lon="-3.042101" lat="52.706033"><ele>242.425903</ele><time>2022-01-15T09:40:18Z</time><extensions><speed>0.684257</speed><course>225.642929</course><hAcc>2.258019</hAcc><vAcc>0.526867</vAcc></extensions></trkpt>
      <trkpt lon="-3.042109" lat="52.706028"><ele>242.396011</ele><time>2022-01-15T09:40:19Z</time><extensions><speed>0.728006</speed><course>223.250031</course><hAcc>2.253450</hAcc><vAcc>0.534248</vAcc></extensions></trkpt>
      <trkpt lon="-3.042118" lat="52.706022"><ele>242.362793</ele><time>2022-01-15T09:40:20Z</time><extensions><speed>0.798448</speed><course>221.989075</course><hAcc>2.252164</hAcc><vAcc>0.539754</vAcc></extensions></trkpt>
      <trkpt lon="-3.042127" lat="52.706016"><ele>242.324036</ele><time>2022-01-15T09:40:21Z</time><extensions><speed>0.880733</speed><course>222.236252</course><hAcc>2.252671</hAcc><vAcc>0.543040</vAcc></extensions></trkpt>
      <trkpt lon="-3.042137" lat="52.706010"><ele>242.277390</ele><time>2022-01-15T09:40:22Z</time><extensions><speed>0.961355</speed><course>223.627426</course><hAcc>2.255100</hAcc><vAcc>0.543901</vAcc></extensions></trkpt>
      <trkpt lon="-3.042148" lat="52.706003"><ele>242.231674</ele><time>2022-01-15T09:40:23Z</time><extensions><speed>1.016515</speed><course>225.779022</course><hAcc>2.257107</hAcc><vAcc>0.542307</vAcc></extensions></trkpt>
      <trkpt lon="-3.042160" lat="52.705997"><ele>242.177017</ele><time>2022-01-15T09:40:24Z</time><extensions><speed>1.074092</speed><course>227.991180</course><hAcc>2.252781</hAcc><vAcc>0.538442</vAcc></extensions></trkpt>
      <trkpt lon="-3.042173" lat="52.705990"><ele>242.133560</ele><time>2022-01-15T09:40:25Z</time><extensions><speed>1.089733</speed><course>230.148605</course><hAcc>2.246140</hAcc><vAcc>0.532714</vAcc></extensions></trkpt>
      <trkpt lon="-3.042187" lat="52.705984"><ele>242.107574</ele><time>2022-01-15T09:40:26Z</time><extensions><speed>1.119939</speed><course>232.153473</course><hAcc>2.233835</hAcc><vAcc>0.525647</vAcc></extensions></trkpt>
      <trkpt lon="-3.042200" lat="52.705978"><ele>242.075729</ele><time>2022-01-15T09:40:27Z</time><extensions><speed>1.092887</speed><course>233.960739</course><hAcc>2.233351</hAcc><vAcc>0.517720</vAcc></extensions></trkpt>
      <trkpt lon="-3.042214" lat="52.705972"><ele>242.029373</ele><time>2022-01-15T09:40:28Z</time><extensions><speed>1.039826</speed><course>236.092743</course><hAcc>2.260300</hAcc><vAcc>0.509379</vAcc></extensions></trkpt>
      <trkpt lon="-3.042225" lat="52.705968"><ele>241.994644</ele><time>2022-01-15T09:40:29Z</time><extensions><speed>0.676518</speed><course>238.279984</course><hAcc>2.314895</hAcc><vAcc>0.500897</vAcc></extensions></trkpt>
      <trkpt lon="-3.042233" lat="52.705965"><ele>241.983673</ele><time>2022-01-15T09:40:30Z</time><extensions><speed>0.623974</speed><course>243.369156</course><hAcc>2.338248</hAcc><vAcc>0.492465</vAcc></extensions></trkpt>
      <trkpt lon="-3.042243" lat="52.705963"><ele>242.002716</ele><time>2022-01-15T09:40:31Z</time><extensions><speed>0.802924</speed><course>249.890747</course><hAcc>2.328969</hAcc><vAcc>0.484200</vAcc></extensions></trkpt>
      <trkpt lon="-3.042258" lat="52.705960"><ele>242.039093</ele><time>2022-01-15T09:40:32Z</time><extensions><speed>1.298422</speed><course>255.312729</course><hAcc>2.292223</hAcc><vAcc>0.476222</vAcc></extensions></trkpt>
      <trkpt lon="-3.042278" lat="52.705957"><ele>242.084259</ele><time>2022-01-15T09:40:33Z</time><extensions><speed>1.517516</speed><course>259.893372</course><hAcc>2.300038</hAcc><vAcc>0.468605</vAcc></extensions></trkpt>
      <trkpt lon="-3.042301" lat="52.705955"><ele>242.173294</ele><time>2022-01-15T09:40:34Z</time><extensions><speed>1.505854</speed><course>263.134430</course><hAcc>2.349387</hAcc><vAcc>0.461380</vAcc></extensions></trkpt>
      <trkpt lon="-3.042323" lat="52.705954"><ele>242.281677</ele><time>2022-01-15T09:40:35Z</time><extensions><speed>1.417386</speed><course>265.371277</course><hAcc>2.402765</hAcc><vAcc>0.454641</vAcc></extensions></trkpt>
      <trkpt lon="-3.042343" lat="52.705953"><ele>242.443436</ele><time>2022-01-15T09:40:36Z</time><extensions><speed>1.235571</speed><course>268.058319</course><hAcc>2.455843</hAcc><vAcc>0.448520</vAcc></extensions></trkpt>
      <trkpt lon="-3.042361" lat="52.705953"><ele>242.633972</ele><time>2022-01-15T09:40:37Z</time><extensions><speed>1.178864</speed><course>269.072174</course><hAcc>2.475629</hAcc><vAcc>0.443127</vAcc></extensions></trkpt>
      <trkpt lon="-3.042379" lat="52.705952"><ele>242.861267</ele><time>2022-01-15T09:40:38Z</time><extensions><speed>1.178955</speed><course>267.709930</course><hAcc>2.480465</hAcc><vAcc>0.438600</vAcc></extensions></trkpt>
      <trkpt lon="-3.042397" lat="52.705952"><ele>243.114639</ele><time>2022-01-15T09:40:39Z</time><extensions><speed>1.172721</speed><course>265.778870</course><hAcc>2.490007</hAcc><vAcc>0.435100</vAcc></extensions></trkpt>
      <trkpt lon="-3.042416" lat="52.705950"><ele>243.389206</ele><time>2022-01-15T09:40:40Z</time><extensions><speed>1.223049</speed><course>263.923981</course><hAcc>2.490458</hAcc><vAcc>0.432749</vAcc></extensions></trkpt>
      <trkpt lon="-3.042435" lat="52.705949"><ele>243.670090</ele><time>2022-01-15T09:40:41Z</time><extensions><speed>1.246312</speed><course>262.312744</course><hAcc>2.485110</hAcc><vAcc>0.431589</vAcc></extensions></trkpt>
      <trkpt lon="-3.042454" lat="52.705947"><ele>243.961456</ele><time>2022-01-15T09:40:42Z</time><extensions><speed>1.191806</speed><course>260.916077</course><hAcc>2.488519</hAcc><vAcc>0.431600</vAcc></extensions></trkpt>
      <trkpt lon="-3.042471" lat="52.705946"><ele>244.256256</ele><time>2022-01-15T09:40:43Z</time><extensions><speed>0.989133</speed><course>259.593567</course><hAcc>2.526184</hAcc><vAcc>0.432669</vAcc></extensions></trkpt>
      <trkpt lon="-3.042484" lat="52.705944"><ele>244.554031</ele><time>2022-01-15T09:40:44Z</time><extensions><speed>0.594861</speed><course>258.745087</course><hAcc>2.586936</hAcc><vAcc>0.434594</vAcc></extensions></trkpt>
      <trkpt lon="-3.042493" lat="52.705943"><ele>244.855957</ele><time>2022-01-15T09:40:45Z</time><extensions><speed>0.547069</speed><course>259.115051</course><hAcc>2.608360</hAcc><vAcc>0.437115</vAcc></extensions></trkpt>
      <trkpt lon="-3.042500" lat="52.705943"><ele>245.151810</ele><time>2022-01-15T09:40:46Z</time><extensions><speed>0.397184</speed><course>260.762421</course><hAcc>2.647600</hAcc><vAcc>0.440005</vAcc></extensions></trkpt>
      <trkpt lon="-3.042507" lat="52.705942"><ele>245.440796</ele><time>2022-01-15T09:40:47Z</time><extensions><speed>0.556737</speed><course>263.072235</course><hAcc>2.630405</hAcc><vAcc>0.443012</vAcc></extensions></trkpt>
      <trkpt lon="-3.042519" lat="52.705941"><ele>245.726700</ele><time>2022-01-15T09:40:48Z</time><extensions><speed>1.070599</speed><course>264.712555</course><hAcc>2.554909</hAcc><vAcc>0.445936</vAcc></extensions></trkpt>
      <trkpt lon="-3.042536" lat="52.705941"><ele>246.018036</ele><time>2022-01-15T09:40:49Z</time><extensions><speed>1.267392</speed><course>265.704376</course><hAcc>2.530082</hAcc><vAcc>0.448703</vAcc></extensions></trkpt>
      <trkpt lon="-3.042555" lat="52.705940"><ele>246.298080</ele><time>2022-01-15T09:40:50Z</time><extensions><speed>1.206358</speed><course>266.971405</course><hAcc>2.570488</hAcc><vAcc>0.451357</vAcc></extensions></trkpt>
      <trkpt lon="-3.042571" lat="52.705940"><ele>246.595016</ele><time>2022-01-15T09:40:51Z</time><extensions><speed>0.957130</speed><course>269.354523</course><hAcc>2.630169</hAcc><vAcc>0.453963</vAcc></extensions></trkpt>
      <trkpt lon="-3.042584" lat="52.705940"><ele>246.898300</ele><time>2022-01-15T09:40:52Z</time><extensions><speed>0.780529</speed><course>273.108307</course><hAcc>2.664071</hAcc><vAcc>0.456527</vAcc></extensions></trkpt>
      <trkpt lon="-3.042594" lat="52.705941"><ele>247.201431</ele><time>2022-01-15T09:40:53Z</time><extensions><speed>0.622152</speed><course>278.422333</course><hAcc>2.675751</hAcc><vAcc>0.458975</vAcc></extensions></trkpt>
      <trkpt lon="-3.042602" lat="52.705942"><ele>247.501389</ele><time>2022-01-15T09:40:54Z</time><extensions><speed>0.495273</speed><course>285.516357</course><hAcc>2.672191</hAcc><vAcc>0.461170</vAcc></extensions></trkpt>
      <trkpt lon="-3.042609" lat="52.705943"><ele>247.799774</ele><time>2022-01-15T09:40:55Z</time><extensions><speed>0.389956</speed><course>294.294250</course><hAcc>2.664928</hAcc><vAcc>0.462955</vAcc></extensions></trkpt>
      <trkpt lon="-3.042613" lat="52.705944"><ele>248.091476</ele><time>2022-01-15T09:40:56Z</time><extensions><speed>0.311111</speed><course>303.316010</course><hAcc>2.657829</hAcc><vAcc>0.464231</vAcc></extensions></trkpt>
      <trkpt lon="-3.042617" lat="52.705945"><ele>248.392014</ele><time>2022-01-15T09:40:57Z</time><extensions><speed>0.257484</speed><course>307.660736</course><hAcc>2.650192</hAcc><vAcc>0.464998</vAcc></extensions></trkpt>
      <trkpt lon="-3.042620" lat="52.705946"><ele>248.683594</ele><time>2022-01-15T09:40:58Z</time><extensions><speed>0.217061</speed><course>302.387634</course><hAcc>2.646847</hAcc><vAcc>0.465274</vAcc></extensions></trkpt>
      <trkpt lon="-3.042623" lat="52.705947"><ele>248.975708</ele><time>2022-01-15T09:40:59Z</time><extensions><speed>0.206362</speed><course>285.967743</course><hAcc>2.647718</hAcc><vAcc>0.465138</vAcc></extensions></trkpt>
      <trkpt lon="-3.042627" lat="52.705947"><ele>249.255615</ele><time>2022-01-15T09:41:00Z</time><extensions><speed>0.224859</speed><course>266.326996</course><hAcc>2.652213</hAcc><vAcc>0.464733</vAcc></extensions></trkpt>
      <trkpt lon="-3.042631" lat="52.705946"><ele>249.518448</ele><time>2022-01-15T09:41:01Z</time><extensions><speed>0.340638</speed><course>251.156036</course><hAcc>2.632038</hAcc><vAcc>0.464259</vAcc></extensions></trkpt>
      <trkpt lon="-3.042637" lat="52.705944"><ele>249.767197</ele><time>2022-01-15T09:41:02Z</time><extensions><speed>0.370611</speed><course>236.638687</course><hAcc>2.619363</hAcc><vAcc>0.463909</vAcc></extensions></trkpt>
      <trkpt lon="-3.042642" lat="52.705942"><ele>249.997559</ele><time>2022-01-15T09:41:03Z</time><extensions><speed>0.472658</speed><course>228.102600</course><hAcc>2.609986</hAcc><vAcc>0.463789</vAcc></extensions></trkpt>
      <trkpt lon="-3.042648" lat="52.705938"><ele>250.197296</ele><time>2022-01-15T09:41:04Z</time><extensions><speed>0.593907</speed><course>225.376984</course><hAcc>2.606996</hAcc><vAcc>0.463943</vAcc></extensions></trkpt>
      <trkpt lon="-3.042656" lat="52.705934"><ele>250.375946</ele><time>2022-01-15T09:41:05Z</time><extensions><speed>0.733942</speed><course>225.239288</course><hAcc>2.609922</hAcc><vAcc>0.464394</vAcc></extensions></trkpt>
      <trkpt lon="-3.042665" lat="52.705929"><ele>250.536713</ele><time>2022-01-15T09:41:06Z</time><extensions><speed>0.885144</speed><course>226.194077</course><hAcc>2.630316</hAcc><vAcc>0.465162</vAcc></extensions></trkpt>
      <trkpt lon="-3.042676" lat="52.705923"><ele>250.681870</ele><time>2022-01-15T09:41:07Z</time><extensions><speed>0.892399</speed><course>226.529419</course><hAcc>2.665035</hAcc><vAcc>0.466244</vAcc></extensions></trkpt>
      <trkpt lon="-3.042687" lat="52.705918"><ele>250.805206</ele><time>2022-01-15T09:41:08Z</time><extensions><speed>0.885732</speed><course>228.780380</course><hAcc>2.671612</hAcc><vAcc>0.467587</vAcc></extensions></trkpt>
      <trkpt lon="-3.042698" lat="52.705913"><ele>250.912216</ele><time>2022-01-15T09:41:09Z</time><extensions><speed>0.807070</speed><course>235.139435</course><hAcc>2.675376</hAcc><vAcc>0.469107</vAcc></extensions></trkpt>
      <trkpt lon="-3.042710" lat="52.705909"><ele>251.009140</ele><time>2022-01-15T09:41:10Z</time><extensions><speed>0.878595</speed><course>241.473007</course><hAcc>2.672068</hAcc><vAcc>0.470721</vAcc></extensions></trkpt>
      <trkpt lon="-3.042724" lat="52.705905"><ele>251.091629</ele><time>2022-01-15T09:41:11Z</time><extensions><speed>0.962126</speed><course>246.871826</course><hAcc>2.674188</hAcc><vAcc>0.472403</vAcc></extensions></trkpt>
      <trkpt lon="-3.042739" lat="52.705902"><ele>251.179489</ele><time>2022-01-15T09:41:12Z</time><extensions><speed>1.049264</speed><course>251.387405</course><hAcc>2.674874</hAcc><vAcc>0.474137</vAcc></extensions></trkpt>
      <trkpt lon="-3.042756" lat="52.705899"><ele>251.269989</ele><time>2022-01-15T09:41:13Z</time><extensions><speed>1.147521</speed><course>254.326096</course><hAcc>2.663283</hAcc><vAcc>0.475919</vAcc></extensions></trkpt>
      <trkpt lon="-3.042774" lat="52.705895"><ele>251.361633</ele><time>2022-01-15T09:41:14Z</time><extensions><speed>1.213302</speed><course>254.827682</course><hAcc>2.650243</hAcc><vAcc>0.477784</vAcc></extensions></trkpt>
      <trkpt lon="-3.042791" lat="52.705892"><ele>251.461456</ele><time>2022-01-15T09:41:15Z</time><extensions><speed>1.007469</speed><course>256.665649</course><hAcc>2.654127</hAcc><vAcc>0.479822</vAcc></extensions></trkpt>
      <trkpt lon="-3.042806" lat="52.705889"><ele>251.553497</ele><time>2022-01-15T09:41:16Z</time><extensions><speed>0.925359</speed><course>257.006348</course><hAcc>2.661653</hAcc><vAcc>0.482166</vAcc></extensions></trkpt>
      <trkpt lon="-3.042817" lat="52.705887"><ele>251.653946</ele><time>2022-01-15T09:41:17Z</time><extensions><speed>0.525521</speed><course>255.175720</course><hAcc>2.695898</hAcc><vAcc>0.484888</vAcc></extensions></trkpt>
      <trkpt lon="-3.042825" lat="52.705885"><ele>251.754150</ele><time>2022-01-15T09:41:18Z</time><extensions><speed>0.507611</speed><course>251.756927</course><hAcc>2.680208</hAcc><vAcc>0.487909</vAcc></extensions></trkpt>
      <trkpt lon="-3.042833" lat="52.705883"><ele>251.853638</ele><time>2022-01-15T09:41:19Z</time><extensions><speed>0.539966</speed><course>246.966156</course><hAcc>2.650568</hAcc><vAcc>0.490972</vAcc></extensions></trkpt>
      <trkpt lon="-3.042841" lat="52.705881"><ele>251.952759</ele><time>2022-01-15T09:41:20Z</time><extensions><speed>0.647131</speed><course>241.320480</course><hAcc>2.613405</hAcc><vAcc>0.493737</vAcc></extensions></trkpt>
      <trkpt lon="-3.042851" lat="52.705877"><ele>252.049500</ele><time>2022-01-15T09:41:21Z</time><extensions><speed>0.841076</speed><course>236.207367</course><hAcc>2.576645</hAcc><vAcc>0.495957</vAcc></extensions></trkpt>
      <trkpt lon="-3.042862" lat="52.705873"><ele>252.136826</ele><time>2022-01-15T09:41:22Z</time><extensions><speed>0.747181</speed><course>233.310425</course><hAcc>2.576722</hAcc><vAcc>0.497524</vAcc></extensions></trkpt>
      <trkpt lon="-3.042872" lat="52.705869"><ele>252.223434</ele><time>2022-01-15T09:41:23Z</time><extensions><speed>0.695795</speed><course>231.230148</course><hAcc>2.584429</hAcc><vAcc>0.498431</vAcc></extensions></trkpt>
      <trkpt lon="-3.042880" lat="52.705866"><ele>252.305710</ele><time>2022-01-15T09:41:24Z</time><extensions><speed>0.620008</speed><course>231.174347</course><hAcc>2.595068</hAcc><vAcc>0.498764</vAcc></extensions></trkpt>
      <trkpt lon="-3.042889" lat="52.705863"><ele>252.390640</ele><time>2022-01-15T09:41:25Z</time><extensions><speed>0.576133</speed><course>233.040649</course><hAcc>2.600534</hAcc><vAcc>0.498704</vAcc></extensions></trkpt>
      <trkpt lon="-3.042897" lat="52.705860"><ele>252.479477</ele><time>2022-01-15T09:41:26Z</time><extensions><speed>0.586260</speed><course>235.592697</course><hAcc>2.611116</hAcc><vAcc>0.498486</vAcc></extensions></trkpt>
      <trkpt lon="-3.042904" lat="52.705858"><ele>252.569138</ele><time>2022-01-15T09:41:27Z</time><extensions><speed>0.384388</speed><course>244.423019</course><hAcc>2.648302</hAcc><vAcc>0.498306</vAcc></extensions></trkpt>
      <trkpt lon="-3.042910" lat="52.705857"><ele>252.661621</ele><time>2022-01-15T09:41:28Z</time><extensions><speed>0.329800</speed><course>255.458557</course><hAcc>2.661947</hAcc><vAcc>0.498237</vAcc></extensions></trkpt>
      <trkpt lon="-3.042916" lat="52.705857"><ele>252.768494</ele><time>2022-01-15T09:41:29Z</time><extensions><speed>0.335663</speed><course>265.844238</course><hAcc>2.660684</hAcc><vAcc>0.498228</vAcc></extensions></trkpt>
      <trkpt lon="-3.042922" lat="52.705857"><ele>252.876526</ele><time>2022-01-15T09:41:30Z</time><extensions><speed>0.385951</speed><course>272.968506</course><hAcc>2.648943</hAcc><vAcc>0.498154</vAcc></extensions></trkpt>
      <trkpt lon="-3.042929" lat="52.705857"><ele>252.992981</ele><time>2022-01-15T09:41:31Z</time><extensions><speed>0.439597</speed><course>276.588928</course><hAcc>2.632904</hAcc><vAcc>0.497879</vAcc></extensions></trkpt>
      <trkpt lon="-3.042938" lat="52.705858"><ele>253.116135</ele><time>2022-01-15T09:41:32Z</time><extensions><speed>0.529350</speed><course>276.883270</course><hAcc>2.622497</hAcc><vAcc>0.497302</vAcc></extensions></trkpt>
      <trkpt lon="-3.042946" lat="52.705858"><ele>253.241684</ele><time>2022-01-15T09:41:33Z</time><extensions><speed>0.383555</speed><course>280.970184</course><hAcc>2.655715</hAcc><vAcc>0.496365</vAcc></extensions></trkpt>
      <trkpt lon="-3.042953" lat="52.705859"><ele>253.373886</ele><time>2022-01-15T09:41:34Z</time><extensions><speed>0.336960</speed><course>282.627014</course><hAcc>2.668059</hAcc><vAcc>0.495047</vAcc></extensions></trkpt>
      <trkpt lon="-3.042959" lat="52.705860"><ele>253.512283</ele><time>2022-01-15T09:41:35Z</time><extensions><speed>0.319515</speed><course>281.978790</course><hAcc>2.667655</hAcc><vAcc>0.493352</vAcc></extensions></trkpt>
      <trkpt lon="-3.042965" lat="52.705860"><ele>253.653961</ele><time>2022-01-15T09:41:36Z</time><extensions><speed>0.339919</speed><course>280.020355</course><hAcc>2.663438</hAcc><vAcc>0.491322</vAcc></extensions></trkpt>
      <trkpt lon="-3.042971" lat="52.705860"><ele>253.798340</ele><time>2022-01-15T09:41:37Z</time><extensions><speed>0.353196</speed><course>277.386017</course><hAcc>2.663834</hAcc><vAcc>0.489046</vAcc></extensions></trkpt>
      <trkpt lon="-3.042978" lat="52.705860"><ele>253.942734</ele><time>2022-01-15T09:41:38Z</time><extensions><speed>0.460131</speed><course>274.323273</course><hAcc>2.647125</hAcc><vAcc>0.486671</vAcc></extensions></trkpt>
      <trkpt lon="-3.042987" lat="52.705860"><ele>254.091812</ele><time>2022-01-15T09:41:39Z</time><extensions><speed>0.525358</speed><course>271.097931</course><hAcc>2.647932</hAcc><vAcc>0.484328</vAcc></extensions></trkpt>
      <trkpt lon="-3.042996" lat="52.705860"><ele>254.237991</ele><time>2022-01-15T09:41:40Z</time><extensions><speed>0.562689</speed><course>268.179413</course><hAcc>2.664715</hAcc><vAcc>0.482199</vAcc></extensions></trkpt>
      <trkpt lon="-3.043005" lat="52.705860"><ele>254.393524</ele><time>2022-01-15T09:41:41Z</time><extensions><speed>0.615578</speed><course>265.776703</course><hAcc>2.677653</hAcc><vAcc>0.480435</vAcc></extensions></trkpt>
      <trkpt lon="-3.043016" lat="52.705859"><ele>254.545425</ele><time>2022-01-15T09:41:42Z</time><extensions><speed>0.661189</speed><course>263.287201</course><hAcc>2.689350</hAcc><vAcc>0.479172</vAcc></extensions></trkpt>
      <trkpt lon="-3.043026" lat="52.705858"><ele>254.723267</ele><time>2022-01-15T09:41:43Z</time><extensions><speed>0.666779</speed><course>260.993805</course><hAcc>2.706239</hAcc><vAcc>0.478472</vAcc></extensions></trkpt>
      <trkpt lon="-3.043037" lat="52.705857"><ele>254.903381</ele><time>2022-01-15T09:41:44Z</time><extensions><speed>0.679178</speed><course>259.202911</course><hAcc>2.718949</hAcc><vAcc>0.478317</vAcc></extensions></trkpt>
      <trkpt lon="-3.043048" lat="52.705856"><ele>255.094772</ele><time>2022-01-15T09:41:45Z</time><extensions><speed>0.702270</speed><course>258.314148</course><hAcc>2.726451</hAcc><vAcc>0.478560</vAcc></extensions></trkpt>
      <trkpt lon="-3.043058" lat="52.705855"><ele>255.283264</ele><time>2022-01-15T09:41:46Z</time><extensions><speed>0.698162</speed><course>258.599945</course><hAcc>2.735302</hAcc><vAcc>0.478895</vAcc></extensions></trkpt>
      <trkpt lon="-3.043068" lat="52.705853"><ele>255.475983</ele><time>2022-01-15T09:41:47Z</time><extensions><speed>0.664099</speed><course>259.463226</course><hAcc>2.743570</hAcc><vAcc>0.479008</vAcc></extensions></trkpt>
      <trkpt lon="-3.043079" lat="52.705852"><ele>255.667984</ele><time>2022-01-15T09:41:48Z</time><extensions><speed>0.667119</speed><course>260.178314</course><hAcc>2.735273</hAcc><vAcc>0.478682</vAcc></extensions></trkpt>
      <trkpt lon="-3.043089" lat="52.705851"><ele>255.851608</ele><time>2022-01-15T09:41:49Z</time><extensions><speed>0.679122</speed><course>260.164001</course><hAcc>2.720812</hAcc><vAcc>0.477814</vAcc></extensions></trkpt>
      <trkpt lon="-3.043098" lat="52.705850"><ele>256.061432</ele><time>2022-01-15T09:41:50Z</time><extensions><speed>0.595974</speed><course>259.720520</course><hAcc>2.727523</hAcc><vAcc>0.476437</vAcc></extensions></trkpt>
      <trkpt lon="-3.043107" lat="52.705849"><ele>256.301544</ele><time>2022-01-15T09:41:51Z</time><extensions><speed>0.529990</speed><course>258.123352</course><hAcc>2.733754</hAcc><vAcc>0.474680</vAcc></extensions></trkpt>
      <trkpt lon="-3.043114" lat="52.705847"><ele>256.576385</ele><time>2022-01-15T09:41:52Z</time><extensions><speed>0.482099</speed><course>256.281708</course><hAcc>2.733463</hAcc><vAcc>0.472838</vAcc></extensions></trkpt>
      <trkpt lon="-3.043121" lat="52.705846"><ele>256.860687</ele><time>2022-01-15T09:41:53Z</time><extensions><speed>0.449017</speed><course>253.517609</course><hAcc>2.729866</hAcc><vAcc>0.471217</vAcc></extensions></trkpt>
      <trkpt lon="-3.043127" lat="52.705845"><ele>257.154358</ele><time>2022-01-15T09:41:54Z</time><extensions><speed>0.404005</speed><course>248.646118</course><hAcc>2.730906</hAcc><vAcc>0.470039</vAcc></extensions></trkpt>
      <trkpt lon="-3.043133" lat="52.705844"><ele>257.456390</ele><time>2022-01-15T09:41:55Z</time><extensions><speed>0.385398</speed><course>243.182922</course><hAcc>2.734136</hAcc><vAcc>0.469477</vAcc></extensions></trkpt>
      <trkpt lon="-3.043138" lat="52.705842"><ele>257.752380</ele><time>2022-01-15T09:41:56Z</time><extensions><speed>0.335350</speed><course>237.336731</course><hAcc>2.754769</hAcc><vAcc>0.469626</vAcc></extensions></trkpt>
      <trkpt lon="-3.043142" lat="52.705840"><ele>258.044708</ele><time>2022-01-15T09:41:57Z</time><extensions><speed>0.316708</speed><course>230.873566</course><hAcc>2.768974</hAcc><vAcc>0.470489</vAcc></extensions></trkpt>
      <trkpt lon="-3.043146" lat="52.705839"><ele>258.322205</ele><time>2022-01-15T09:41:58Z</time><extensions><speed>0.326869</speed><course>223.763672</course><hAcc>2.765533</hAcc><vAcc>0.471948</vAcc></extensions></trkpt>
      <trkpt lon="-3.043149" lat="52.705837"><ele>258.574493</ele><time>2022-01-15T09:41:59Z</time><extensions><speed>0.368877</speed><course>218.702240</course><hAcc>2.748062</hAcc><vAcc>0.473729</vAcc></extensions></trkpt>
      <trkpt lon="-3.043153" lat="52.705834"><ele>258.788055</ele><time>2022-01-15T09:42:00Z</time><extensions><speed>0.433716</speed><course>213.846909</course><hAcc>2.729924</hAcc><vAcc>0.475397</vAcc></extensions></trkpt>
      <trkpt lon="-3.043158" lat="52.705831"><ele>258.944550</ele><time>2022-01-15T09:42:01Z</time><extensions><speed>0.346896</speed><course>231.510864</course><hAcc>2.707251</hAcc><vAcc>0.476521</vAcc></extensions></trkpt>
      <trkpt lon="-3.043163" lat="52.705830"><ele>259.071503</ele><time>2022-01-15T09:42:02Z</time><extensions><speed>0.356798</speed><course>246.036392</course><hAcc>2.654274</hAcc><vAcc>0.476849</vAcc></extensions></trkpt>
      <trkpt lon="-3.043169" lat="52.705830"><ele>259.154999</ele><time>2022-01-15T09:42:03Z</time><extensions><speed>0.321626</speed><course>270.773346</course><hAcc>2.592295</hAcc><vAcc>0.476361</vAcc></extensions></trkpt>
      <trkpt lon="-3.043175" lat="52.705831"><ele>259.194763</ele><time>2022-01-15T09:42:04Z</time><extensions><speed>0.333067</speed><course>287.837646</course><hAcc>2.527993</hAcc><vAcc>0.475225</vAcc></extensions></trkpt>
      <trkpt lon="-3.043181" lat="52.705833"><ele>259.220795</ele><time>2022-01-15T09:42:05Z</time><extensions><speed>0.314263</speed><course>298.153717</course><hAcc>2.500543</hAcc><vAcc>0.473686</vAcc></extensions></trkpt>
      <trkpt lon="-3.043185" lat="52.705834"><ele>259.218597</ele><time>2022-01-15T09:42:06Z</time><extensions><speed>0.207986</speed><course>303.983185</course><hAcc>2.516784</hAcc><vAcc>0.471995</vAcc></extensions></trkpt>
      <trkpt lon="-3.043189" lat="52.705836"><ele>259.227997</ele><time>2022-01-15T09:42:07Z</time><extensions><speed>0.201132</speed><course>306.404144</course><hAcc>2.499328</hAcc><vAcc>0.470360</vAcc></extensions></trkpt>
      <trkpt lon="-3.043192" lat="52.705837"><ele>259.228729</ele><time>2022-01-15T09:42:08Z</time><extensions><speed>0.216863</speed><course>306.206451</course><hAcc>2.474152</hAcc><vAcc>0.468852</vAcc></extensions></trkpt>
      <trkpt lon="-3.043195" lat="52.705839"><ele>259.248840</ele><time>2022-01-15T09:42:09Z</time><extensions><speed>0.260725</speed><course>305.302612</course><hAcc>2.451210</hAcc><vAcc>0.467477</vAcc></extensions></trkpt>
      <trkpt lon="-3.043200" lat="52.705840"><ele>259.278717</ele><time>2022-01-15T09:42:10Z</time><extensions><speed>0.342245</speed><course>304.517731</course><hAcc>2.426224</hAcc><vAcc>0.466176</vAcc></extensions></trkpt>
      <trkpt lon="-3.043205" lat="52.705843"><ele>259.323303</ele><time>2022-01-15T09:42:11Z</time><extensions><speed>0.519665</speed><course>303.411682</course><hAcc>2.384911</hAcc><vAcc>0.464941</vAcc></extensions></trkpt>
      <trkpt lon="-3.043213" lat="52.705846"><ele>259.396820</ele><time>2022-01-15T09:42:12Z</time><extensions><speed>0.666583</speed><course>302.352753</course><hAcc>2.357606</hAcc><vAcc>0.463812</vAcc></extensions></trkpt>
      <trkpt lon="-3.043222" lat="52.705849"><ele>259.481079</ele><time>2022-01-15T09:42:13Z</time><extensions><speed>0.733679</speed><course>301.378052</course><hAcc>2.359200</hAcc><vAcc>0.462844</vAcc></extensions></trkpt>
      <trkpt lon="-3.043232" lat="52.705853"><ele>259.601624</ele><time>2022-01-15T09:42:14Z</time><extensions><speed>0.703715</speed><course>300.757812</course><hAcc>2.378155</hAcc><vAcc>0.462221</vAcc></extensions></trkpt>
      <trkpt lon="-3.043241" lat="52.705856"><ele>259.742798</ele><time>2022-01-15T09:42:15Z</time><extensions><speed>0.687350</speed><course>299.887573</course><hAcc>2.385156</hAcc><vAcc>0.462190</vAcc></extensions></trkpt>
      <trkpt lon="-3.043249" lat="52.705859"><ele>259.900452</ele><time>2022-01-15T09:42:16Z</time><extensions><speed>0.616110</speed><course>298.394653</course><hAcc>2.383744</hAcc><vAcc>0.463016</vAcc></extensions></trkpt>
      <trkpt lon="-3.043258" lat="52.705861"><ele>260.073456</ele><time>2022-01-15T09:42:17Z</time><extensions><speed>0.605008</speed><course>295.673004</course><hAcc>2.362758</hAcc><vAcc>0.464837</vAcc></extensions></trkpt>
      <trkpt lon="-3.043266" lat="52.705863"><ele>260.260895</ele><time>2022-01-15T09:42:18Z</time><extensions><speed>0.546421</speed><course>290.076324</course><hAcc>2.363543</hAcc><vAcc>0.467620</vAcc></extensions></trkpt>
      <trkpt lon="-3.043272" lat="52.705865"><ele>260.462372</ele><time>2022-01-15T09:42:19Z</time><extensions><speed>0.387147</speed><course>291.758057</course><hAcc>2.390220</hAcc><vAcc>0.471291</vAcc></extensions></trkpt>
      <trkpt lon="-3.043278" lat="52.705866"><ele>260.678131</ele><time>2022-01-15T09:42:20Z</time><extensions><speed>0.378050</speed><course>287.665894</course><hAcc>2.373605</hAcc><vAcc>0.475813</vAcc></extensions></trkpt>
      <trkpt lon="-3.043284" lat="52.705867"><ele>260.900818</ele><time>2022-01-15T09:42:21Z</time><extensions><speed>0.533273</speed><course>280.066895</course><hAcc>2.305093</hAcc><vAcc>0.481024</vAcc></extensions></trkpt>
      <trkpt lon="-3.043293" lat="52.705868"><ele>261.129547</ele><time>2022-01-15T09:42:22Z</time><extensions><speed>0.518062</speed><course>280.610352</course><hAcc>2.271909</hAcc><vAcc>0.486432</vAcc></extensions></trkpt>
      <trkpt lon="-3.043299" lat="52.705868"><ele>261.356995</ele><time>2022-01-15T09:42:23Z</time><extensions><speed>0.376108</speed><course>281.279602</course><hAcc>2.285020</hAcc><vAcc>0.491200</vAcc></extensions></trkpt>
      <trkpt lon="-3.043305" lat="52.705869"><ele>261.572083</ele><time>2022-01-15T09:42:24Z</time><extensions><speed>0.318084</speed><course>275.450897</course><hAcc>2.291465</hAcc><vAcc>0.494392</vAcc></extensions></trkpt>
      <trkpt lon="-3.043310" lat="52.705869"><ele>261.789795</ele><time>2022-01-15T09:42:25Z</time><extensions><speed>0.351785</speed><course>265.901337</course><hAcc>2.280190</hAcc><vAcc>0.495244</vAcc></extensions></trkpt>
      <trkpt lon="-3.043316" lat="52.705868"><ele>261.999390</ele><time>2022-01-15T09:42:26Z</time><extensions><speed>0.391144</speed><course>256.820038</course><hAcc>2.291665</hAcc><vAcc>0.493338</vAcc></extensions></trkpt>
      <trkpt lon="-3.043322" lat="52.705867"><ele>262.180878</ele><time>2022-01-15T09:42:27Z</time><extensions><speed>0.459972</speed><course>249.230804</course><hAcc>2.315777</hAcc><vAcc>0.488627</vAcc></extensions></trkpt>
      <trkpt lon="-3.043330" lat="52.705865"><ele>262.379913</ele><time>2022-01-15T09:42:28Z</time><extensions><speed>0.582969</speed><course>244.279114</course><hAcc>2.329353</hAcc><vAcc>0.481677</vAcc></extensions></trkpt>
      <trkpt lon="-3.043339" lat="52.705862"><ele>262.565186</ele><time>2022-01-15T09:42:29Z</time><extensions><speed>0.790494</speed><course>240.542618</course><hAcc>2.329656</hAcc><vAcc>0.473308</vAcc></extensions></trkpt>
      <trkpt lon="-3.043351" lat="52.705858"><ele>262.745026</ele><time>2022-01-15T09:42:30Z</time><extensions><speed>0.868538</speed><course>241.008911</course><hAcc>2.351282</hAcc><vAcc>0.464647</vAcc></extensions></trkpt>
      <trkpt lon="-3.043362" lat="52.705854"><ele>262.899353</ele><time>2022-01-15T09:42:31Z</time><extensions><speed>0.775042</speed><course>244.134033</course><hAcc>2.404613</hAcc><vAcc>0.456881</vAcc></extensions></trkpt>
      <trkpt lon="-3.043371" lat="52.705852"><ele>263.053497</ele><time>2022-01-15T09:42:32Z</time><extensions><speed>0.498058</speed><course>248.908844</course><hAcc>2.465591</hAcc><vAcc>0.451009</vAcc></extensions></trkpt>
      <trkpt lon="-3.043378" lat="52.705850"><ele>263.227966</ele><time>2022-01-15T09:42:33Z</time><extensions><speed>0.530472</speed><course>249.750748</course><hAcc>2.462527</hAcc><vAcc>0.447504</vAcc></extensions></trkpt>
      <trkpt lon="-3.043386" lat="52.705848"><ele>263.380829</ele><time>2022-01-15T09:42:34Z</time><extensions><speed>0.593640</speed><course>247.120117</course><hAcc>2.463608</hAcc><vAcc>0.446341</vAcc></extensions></trkpt>
      <trkpt lon="-3.043394" lat="52.705846"><ele>263.543884</ele><time>2022-01-15T09:42:35Z</time><extensions><speed>0.460522</speed><course>243.729630</course><hAcc>2.506142</hAcc><vAcc>0.447154</vAcc></extensions></trkpt>
      <trkpt lon="-3.043400" lat="52.705844"><ele>263.699371</ele><time>2022-01-15T09:42:36Z</time><extensions><speed>0.439923</speed><course>238.422150</course><hAcc>2.529388</hAcc><vAcc>0.449308</vAcc></extensions></trkpt>
      <trkpt lon="-3.043406" lat="52.705841"><ele>263.853607</ele><time>2022-01-15T09:42:37Z</time><extensions><speed>0.438994</speed><course>233.690857</course><hAcc>2.544410</hAcc><vAcc>0.452140</vAcc></extensions></trkpt>
      <trkpt lon="-3.043411" lat="52.705838"><ele>263.986938</ele><time>2022-01-15T09:42:38Z</time><extensions><speed>0.476506</speed><course>229.725891</course><hAcc>2.557430</hAcc><vAcc>0.455200</vAcc></extensions></trkpt>
      <trkpt lon="-3.043417" lat="52.705835"><ele>264.117188</ele><time>2022-01-15T09:42:39Z</time><extensions><speed>0.492467</speed><course>228.295242</course><hAcc>2.584722</hAcc><vAcc>0.458287</vAcc></extensions></trkpt>
      <trkpt lon="-3.043424" lat="52.705832"><ele>264.226105</ele><time>2022-01-15T09:42:40Z</time><extensions><speed>0.497459</speed><course>228.635254</course><hAcc>2.624247</hAcc><vAcc>0.461360</vAcc></extensions></trkpt>
      <trkpt lon="-3.043430" lat="52.705830"><ele>264.320679</ele><time>2022-01-15T09:42:41Z</time><extensions><speed>0.490499</speed><course>230.022003</course><hAcc>2.667731</hAcc><vAcc>0.464427</vAcc></extensions></trkpt>
      <trkpt lon="-3.043437" lat="52.705827"><ele>264.385773</ele><time>2022-01-15T09:42:42Z</time><extensions><speed>0.532327</speed><course>231.517838</course><hAcc>2.711091</hAcc><vAcc>0.467371</vAcc></extensions></trkpt>
      <trkpt lon="-3.043444" lat="52.705824"><ele>264.433594</ele><time>2022-01-15T09:42:43Z</time><extensions><speed>0.390112</speed><course>239.127609</course><hAcc>2.768772</hAcc><vAcc>0.469883</vAcc></extensions></trkpt>
      <trkpt lon="-3.043450" lat="52.705823"><ele>264.478760</ele><time>2022-01-15T09:42:44Z</time><extensions><speed>0.367631</speed><course>247.312302</course><hAcc>2.783210</hAcc><vAcc>0.471605</vAcc></extensions></trkpt>
      <trkpt lon="-3.043457" lat="52.705822"><ele>264.509277</ele><time>2022-01-15T09:42:45Z</time><extensions><speed>0.391488</speed><course>252.527496</course><hAcc>2.768122</hAcc><vAcc>0.472346</vAcc></extensions></trkpt>
      <trkpt lon="-3.043464" lat="52.705821"><ele>264.534637</ele><time>2022-01-15T09:42:46Z</time><extensions><speed>0.423039</speed><course>256.381226</course><hAcc>2.741210</hAcc><vAcc>0.472121</vAcc></extensions></trkpt>
      <trkpt lon="-3.043471" lat="52.705820"><ele>264.543610</ele><time>2022-01-15T09:42:47Z</time><extensions><speed>0.481582</speed><course>259.822205</course><hAcc>2.706484</hAcc><vAcc>0.471034</vAcc></extensions></trkpt>
      <trkpt lon="-3.043479" lat="52.705820"><ele>264.562622</ele><time>2022-01-15T09:42:48Z</time><extensions><speed>0.502799</speed><course>263.797607</course><hAcc>2.689628</hAcc><vAcc>0.469231</vAcc></extensions></trkpt>
      <trkpt lon="-3.043487" lat="52.705819"><ele>264.570221</ele><time>2022-01-15T09:42:49Z</time><extensions><speed>0.478997</speed><course>266.350708</course><hAcc>2.680052</hAcc><vAcc>0.466965</vAcc></extensions></trkpt>
      <trkpt lon="-3.043496" lat="52.705819"><ele>264.591675</ele><time>2022-01-15T09:42:50Z</time><extensions><speed>0.651389</speed><course>265.887817</course><hAcc>2.620687</hAcc><vAcc>0.464383</vAcc></extensions></trkpt>
      <trkpt lon="-3.043506" lat="52.705819"><ele>264.625671</ele><time>2022-01-15T09:42:51Z</time><extensions><speed>0.644421</speed><course>268.721741</course><hAcc>2.573918</hAcc><vAcc>0.461519</vAcc></extensions></trkpt>
      <trkpt lon="-3.043517" lat="52.705819"><ele>264.671936</ele><time>2022-01-15T09:42:52Z</time><extensions><speed>0.744005</speed><course>268.191284</course><hAcc>2.519081</hAcc><vAcc>0.458407</vAcc></extensions></trkpt>
      <trkpt lon="-3.043527" lat="52.705819"><ele>264.725372</ele><time>2022-01-15T09:42:53Z</time><extensions><speed>0.700961</speed><course>270.442108</course><hAcc>2.484456</hAcc><vAcc>0.455229</vAcc></extensions></trkpt>
      <trkpt lon="-3.043537" lat="52.705820"><ele>264.786743</ele><time>2022-01-15T09:42:54Z</time><extensions><speed>0.542526</speed><course>275.944214</course><hAcc>2.457973</hAcc><vAcc>0.452118</vAcc></extensions></trkpt>
      <trkpt lon="-3.043544" lat="52.705820"><ele>264.853577</ele><time>2022-01-15T09:42:55Z</time><extensions><speed>0.507332</speed><course>280.022430</course><hAcc>2.404036</hAcc><vAcc>0.449340</vAcc></extensions></trkpt>
      <trkpt lon="-3.043552" lat="52.705821"><ele>264.921783</ele><time>2022-01-15T09:42:56Z</time><extensions><speed>0.466424</speed><course>283.423248</course><hAcc>2.349191</hAcc><vAcc>0.447217</vAcc></extensions></trkpt>
      <trkpt lon="-3.043558" lat="52.705822"><ele>264.998627</ele><time>2022-01-15T09:42:57Z</time><extensions><speed>0.407672</speed><course>286.481079</course><hAcc>2.315454</hAcc><vAcc>0.446168</vAcc></extensions></trkpt>
      <trkpt lon="-3.043563" lat="52.705823"><ele>265.073944</ele><time>2022-01-15T09:42:58Z</time><extensions><speed>0.300929</speed><course>289.121307</course><hAcc>2.304699</hAcc><vAcc>0.446499</vAcc></extensions></trkpt>
      <trkpt lon="-3.043567" lat="52.705824"><ele>265.155426</ele><time>2022-01-15T09:42:59Z</time><extensions><speed>0.258580</speed><course>291.510712</course><hAcc>2.281534</hAcc><vAcc>0.448270</vAcc></extensions></trkpt>
      <trkpt lon="-3.043570" lat="52.705824"><ele>265.227814</ele><time>2022-01-15T09:43:00Z</time><extensions><speed>0.158809</speed><course>295.016357</course><hAcc>2.283834</hAcc><vAcc>0.451092</vAcc></extensions></trkpt>
      <trkpt lon="-3.043572" lat="52.705825"><ele>265.281281</ele><time>2022-01-15T09:43:01Z</time><extensions><speed>0.137746</speed><course>297.437164</course><hAcc>2.249578</hAcc><vAcc>0.454288</vAcc></extensions></trkpt>
      <trkpt lon="-3.043574" lat="52.705825"><ele>265.328339</ele><time>2022-01-15T09:43:02Z</time><extensions><speed>0.116345</speed><course>290.014618</course><hAcc>2.220587</hAcc><vAcc>0.457132</vAcc></extensions></trkpt>
      <trkpt lon="-3.043576" lat="52.705825"><ele>265.387573</ele><time>2022-01-15T09:43:03Z</time><extensions><speed>0.100130</speed><course>263.779053</course><hAcc>2.226226</hAcc><vAcc>0.459034</vAcc></extensions></trkpt>
      <trkpt lon="-3.043577" lat="52.705825"><ele>265.435425</ele><time>2022-01-15T09:43:04Z</time><extensions><speed>0.125321</speed><course>237.236496</course><hAcc>2.241364</hAcc><vAcc>0.459480</vAcc></extensions></trkpt>
      <trkpt lon="-3.043579" lat="52.705824"><ele>265.465790</ele><time>2022-01-15T09:43:05Z</time><extensions><speed>0.182601</speed><course>227.027481</course><hAcc>2.246578</hAcc><vAcc>0.458230</vAcc></extensions></trkpt>
      <trkpt lon="-3.043582" lat="52.705823"><ele>265.500183</ele><time>2022-01-15T09:43:06Z</time><extensions><speed>0.218603</speed><course>226.159317</course><hAcc>2.264278</hAcc><vAcc>0.455230</vAcc></extensions></trkpt>
      <trkpt lon="-3.043585" lat="52.705822"><ele>265.544067</ele><time>2022-01-15T09:43:07Z</time><extensions><speed>0.241728</speed><course>230.288651</course><hAcc>2.289186</hAcc><vAcc>0.450837</vAcc></extensions></trkpt>
      <trkpt lon="-3.043588" lat="52.705820"><ele>265.571167</ele><time>2022-01-15T09:43:08Z</time><extensions><speed>0.242756</speed><course>238.692749</course><hAcc>2.323508</hAcc><vAcc>0.445642</vAcc></extensions></trkpt>
      <trkpt lon="-3.043592" lat="52.705820"><ele>265.618744</ele><time>2022-01-15T09:43:09Z</time><extensions><speed>0.258670</speed><course>250.731125</course><hAcc>2.345352</hAcc><vAcc>0.440247</vAcc></extensions></trkpt>
      <trkpt lon="-3.043596" lat="52.705819"><ele>265.688171</ele><time>2022-01-15T09:43:10Z</time><extensions><speed>0.299542</speed><course>262.701904</course><hAcc>2.355963</hAcc><vAcc>0.435148</vAcc></extensions></trkpt>
      <trkpt lon="-3.043601" lat="52.705819"><ele>265.787323</ele><time>2022-01-15T09:43:11Z</time><extensions><speed>0.329436</speed><course>272.718201</course><hAcc>2.380227</hAcc><vAcc>0.430634</vAcc></extensions></trkpt>
      <trkpt lon="-3.043606" lat="52.705819"><ele>265.894470</ele><time>2022-01-15T09:43:12Z</time><extensions><speed>0.343075</speed><course>280.097839</course><hAcc>2.409848</hAcc><vAcc>0.426750</vAcc></extensions></trkpt>
      <trkpt lon="-3.043612" lat="52.705820"><ele>266.003723</ele><time>2022-01-15T09:43:13Z</time><extensions><speed>0.397431</speed><course>283.407227</course><hAcc>2.418124</hAcc><vAcc>0.423684</vAcc></extensions></trkpt>
      <trkpt lon="-3.043618" lat="52.705821"><ele>266.120728</ele><time>2022-01-15T09:43:14Z</time><extensions><speed>0.412267</speed><course>282.918793</course><hAcc>2.430339</hAcc><vAcc>0.421305</vAcc></extensions></trkpt>
      <trkpt lon="-3.043624" lat="52.705821"><ele>266.243164</ele><time>2022-01-15T09:43:14Z</time><extensions><speed>0.405397</speed><course>279.593262</course><hAcc>2.444034</hAcc><vAcc>0.419326</vAcc></extensions></trkpt>
      <trkpt lon="-3.043630" lat="52.705822"><ele>266.366119</ele><time>2022-01-15T09:43:15Z</time><extensions><speed>0.392342</speed><course>274.560638</course><hAcc>2.448416</hAcc><vAcc>0.417446</vAcc></extensions></trkpt>
      <trkpt lon="-3.043636" lat="52.705822"><ele>266.482910</ele><time>2022-01-15T09:43:16Z</time><extensions><speed>0.393323</speed><course>269.369263</course><hAcc>2.441798</hAcc><vAcc>0.415374</vAcc></extensions></trkpt>
      <trkpt lon="-3.043642" lat="52.705822"><ele>266.595001</ele><time>2022-01-15T09:43:17Z</time><extensions><speed>0.366541</speed><course>265.979462</course><hAcc>2.439971</hAcc><vAcc>0.413066</vAcc></extensions></trkpt>
      <trkpt lon="-3.043648" lat="52.705821"><ele>266.672943</ele><time>2022-01-15T09:43:18Z</time><extensions><speed>0.325042</speed><course>264.353058</course><hAcc>2.440468</hAcc><vAcc>0.410520</vAcc></extensions></trkpt>
      <trkpt lon="-3.043653" lat="52.705821"><ele>266.751556</ele><time>2022-01-15T09:43:19Z</time><extensions><speed>0.296750</speed><course>263.641327</course><hAcc>2.429455</hAcc><vAcc>0.408059</vAcc></extensions></trkpt>
      <trkpt lon="-3.043657" lat="52.705821"><ele>266.821289</ele><time>2022-01-15T09:43:20Z</time><extensions><speed>0.290890</speed><course>263.542908</course><hAcc>2.406682</hAcc><vAcc>0.405965</vAcc></extensions></trkpt>
      <trkpt lon="-3.043662" lat="52.705821"><ele>266.870117</ele><time>2022-01-15T09:43:21Z</time><extensions><speed>0.270604</speed><course>263.078583</course><hAcc>2.391903</hAcc><vAcc>0.404425</vAcc></extensions></trkpt>
      <trkpt lon="-3.043666" lat="52.705820"><ele>266.907867</ele><time>2022-01-15T09:43:22Z</time><extensions><speed>0.262083</speed><course>263.667267</course><hAcc>2.381809</hAcc><vAcc>0.403794</vAcc></extensions></trkpt>
      <trkpt lon="-3.043670" lat="52.705820"><ele>266.955170</ele><time>2022-01-15T09:43:23Z</time><extensions><speed>0.252457</speed><course>265.623169</course><hAcc>2.381756</hAcc><vAcc>0.404429</vAcc></extensions></trkpt>
      <trkpt lon="-3.043674" lat="52.705820"><ele>267.006470</ele><time>2022-01-15T09:43:24Z</time><extensions><speed>0.267329</speed><course>267.791321</course><hAcc>2.382582</hAcc><vAcc>0.406579</vAcc></extensions></trkpt>
      <trkpt lon="-3.043679" lat="52.705820"><ele>267.064789</ele><time>2022-01-15T09:43:25Z</time><extensions><speed>0.298461</speed><course>268.649078</course><hAcc>2.379952</hAcc><vAcc>0.410312</vAcc></extensions></trkpt>
      <trkpt lon="-3.043684" lat="52.705819"><ele>267.128448</ele><time>2022-01-15T09:43:26Z</time><extensions><speed>0.347441</speed><course>266.933350</course><hAcc>2.360975</hAcc><vAcc>0.415373</vAcc></extensions></trkpt>
      <trkpt lon="-3.043690" lat="52.705819"><ele>267.202087</ele><time>2022-01-15T09:43:27Z</time><extensions><speed>0.422851</speed><course>263.499664</course><hAcc>2.325599</hAcc><vAcc>0.421284</vAcc></extensions></trkpt>
      <trkpt lon="-3.043697" lat="52.705818"><ele>267.284485</ele><time>2022-01-15T09:43:28Z</time><extensions><speed>0.455552</speed><course>259.345917</course><hAcc>2.317919</hAcc><vAcc>0.427450</vAcc></extensions></trkpt>
      <trkpt lon="-3.043703" lat="52.705817"><ele>267.376160</ele><time>2022-01-15T09:43:29Z</time><extensions><speed>0.312746</speed><course>254.976028</course><hAcc>2.344699</hAcc><vAcc>0.433328</vAcc></extensions></trkpt>
      <trkpt lon="-3.043707" lat="52.705816"><ele>267.476471</ele><time>2022-01-15T09:43:30Z</time><extensions><speed>0.262723</speed><course>248.905563</course><hAcc>2.344664</hAcc><vAcc>0.438529</vAcc></extensions></trkpt>
      <trkpt lon="-3.043711" lat="52.705814"><ele>267.587738</ele><time>2022-01-15T09:43:31Z</time><extensions><speed>0.230680</speed><course>243.267761</course><hAcc>2.336673</hAcc><vAcc>0.442825</vAcc></extensions></trkpt>
      <trkpt lon="-3.043714" lat="52.705813"><ele>267.700745</ele><time>2022-01-15T09:43:32Z</time><extensions><speed>0.229842</speed><course>238.253540</course><hAcc>2.321222</hAcc><vAcc>0.446169</vAcc></extensions></trkpt>
      <trkpt lon="-3.043717" lat="52.705811"><ele>267.802277</ele><time>2022-01-15T09:43:33Z</time><extensions><speed>0.260733</speed><course>233.060425</course><hAcc>2.298947</hAcc><vAcc>0.448632</vAcc></extensions></trkpt>
      <trkpt lon="-3.043721" lat="52.705809"><ele>267.908325</ele><time>2022-01-15T09:43:34Z</time><extensions><speed>0.294344</speed><course>226.823349</course><hAcc>2.280978</hAcc><vAcc>0.450353</vAcc></extensions></trkpt>
      <trkpt lon="-3.043724" lat="52.705807"><ele>268.009155</ele><time>2022-01-15T09:43:35Z</time><extensions><speed>0.333636</speed><course>220.504791</course><hAcc>2.268438</hAcc><vAcc>0.451514</vAcc></extensions></trkpt>
      <trkpt lon="-3.043728" lat="52.705804"><ele>268.112732</ele><time>2022-01-15T09:43:36Z</time><extensions><speed>0.343732</speed><course>216.440994</course><hAcc>2.271077</hAcc><vAcc>0.452259</vAcc></extensions></trkpt>
      <trkpt lon="-3.043732" lat="52.705801"><ele>268.201660</ele><time>2022-01-15T09:43:37Z</time><extensions><speed>0.352233</speed><course>213.850510</course><hAcc>2.280876</hAcc><vAcc>0.452759</vAcc></extensions></trkpt>
      <trkpt lon="-3.043736" lat="52.705798"><ele>268.281311</ele><time>2022-01-15T09:43:38Z</time><extensions><speed>0.367287</speed><course>213.242844</course><hAcc>2.291663</hAcc><vAcc>0.453183</vAcc></extensions></trkpt>
      <trkpt lon="-3.043740" lat="52.705795"><ele>268.350861</ele><time>2022-01-15T09:43:39Z</time><extensions><speed>0.386531</speed><course>215.342758</course><hAcc>2.302799</hAcc><vAcc>0.453612</vAcc></extensions></trkpt>
      <trkpt lon="-3.043745" lat="52.705792"><ele>268.408630</ele><time>2022-01-15T09:43:40Z</time><extensions><speed>0.427240</speed><course>219.465256</course><hAcc>2.308153</hAcc><vAcc>0.454051</vAcc></extensions></trkpt>
      <trkpt lon="-3.043751" lat="52.705789"><ele>268.456268</ele><time>2022-01-15T09:43:41Z</time><extensions><speed>0.484870</speed><course>223.762802</course><hAcc>2.306586</hAcc><vAcc>0.454493</vAcc></extensions></trkpt>
      <trkpt lon="-3.043758" lat="52.705785"><ele>268.498474</ele><time>2022-01-15T09:43:42Z</time><extensions><speed>0.534995</speed><course>227.966507</course><hAcc>2.299903</hAcc><vAcc>0.454960</vAcc></extensions></trkpt>
      <trkpt lon="-3.043766" lat="52.705782"><ele>268.533844</ele><time>2022-01-15T09:43:43Z</time><extensions><speed>0.562804</speed><course>231.766052</course><hAcc>2.298804</hAcc><vAcc>0.455501</vAcc></extensions></trkpt>
      <trkpt lon="-3.043773" lat="52.705779"><ele>268.580322</ele><time>2022-01-15T09:43:44Z</time><extensions><speed>0.444732</speed><course>236.542099</course><hAcc>2.322089</hAcc><vAcc>0.456217</vAcc></extensions></trkpt>
      <trkpt lon="-3.043780" lat="52.705778"><ele>268.607605</ele><time>2022-01-15T09:43:45Z</time><extensions><speed>0.382480</speed><course>242.455185</course><hAcc>2.324604</hAcc><vAcc>0.457170</vAcc></extensions></trkpt>
      <trkpt lon="-3.043787" lat="52.705776"><ele>268.642792</ele><time>2022-01-15T09:43:46Z</time><extensions><speed>0.394490</speed><course>247.847488</course><hAcc>2.303822</hAcc><vAcc>0.458361</vAcc></extensions></trkpt>
      <trkpt lon="-3.043793" lat="52.705775"><ele>268.692444</ele><time>2022-01-15T09:43:47Z</time><extensions><speed>0.391662</speed><course>253.368973</course><hAcc>2.286784</hAcc><vAcc>0.459783</vAcc></extensions></trkpt>
      <trkpt lon="-3.043800" lat="52.705775"><ele>268.740662</ele><time>2022-01-15T09:43:48Z</time><extensions><speed>0.387217</speed><course>258.366882</course><hAcc>2.279326</hAcc><vAcc>0.461435</vAcc></extensions></trkpt>
      <trkpt lon="-3.043806" lat="52.705774"><ele>268.800507</ele><time>2022-01-15T09:43:49Z</time><extensions><speed>0.388967</speed><course>262.528687</course><hAcc>2.278446</hAcc><vAcc>0.463294</vAcc></extensions></trkpt>
      <trkpt lon="-3.043813" lat="52.705774"><ele>268.867920</ele><time>2022-01-15T09:43:50Z</time><extensions><speed>0.394887</speed><course>266.146820</course><hAcc>2.283913</hAcc><vAcc>0.465289</vAcc></extensions></trkpt>
      <trkpt lon="-3.043820" lat="52.705774"><ele>268.945007</ele><time>2022-01-15T09:43:51Z</time><extensions><speed>0.409703</speed><course>270.012604</course><hAcc>2.293645</hAcc><vAcc>0.467317</vAcc></extensions></trkpt>
      <trkpt lon="-3.043828" lat="52.705775"><ele>269.033752</ele><time>2022-01-15T09:43:52Z</time><extensions><speed>0.481341</speed><course>273.372223</course><hAcc>2.290868</hAcc><vAcc>0.469218</vAcc></extensions></trkpt>
      <trkpt lon="-3.043837" lat="52.705775"><ele>269.132416</ele><time>2022-01-15T09:43:53Z</time><extensions><speed>0.729246</speed><course>274.729370</course><hAcc>2.266320</hAcc><vAcc>0.470848</vAcc></extensions></trkpt>
      <trkpt lon="-3.043849" lat="52.705776"><ele>269.238403</ele><time>2022-01-15T09:43:54Z</time><extensions><speed>0.704750</speed><course>278.544586</course><hAcc>2.284040</hAcc><vAcc>0.472140</vAcc></extensions></trkpt>
      <trkpt lon="-3.043861" lat="52.705777"><ele>269.364532</ele><time>2022-01-15T09:43:55Z</time><extensions><speed>0.875878</speed><course>279.076630</course><hAcc>2.275204</hAcc><vAcc>0.473119</vAcc></extensions></trkpt>
      <trkpt lon="-3.043875" lat="52.705779"><ele>269.518158</ele><time>2022-01-15T09:43:56Z</time><extensions><speed>0.832867</speed><course>279.919525</course><hAcc>2.286786</hAcc><vAcc>0.473856</vAcc></extensions></trkpt>
      <trkpt lon="-3.043886" lat="52.705780"><ele>269.680542</ele><time>2022-01-15T09:43:57Z</time><extensions><speed>0.612824</speed><course>283.963684</course><hAcc>2.321558</hAcc><vAcc>0.474370</vAcc></extensions></trkpt>
      <trkpt lon="-3.043895" lat="52.705781"><ele>269.870422</ele><time>2022-01-15T09:43:58Z</time><extensions><speed>0.531316</speed><course>285.756012</course><hAcc>2.328691</hAcc><vAcc>0.474624</vAcc></extensions></trkpt>
      <trkpt lon="-3.043904" lat="52.705783"><ele>270.071167</ele><time>2022-01-15T09:43:59Z</time><extensions><speed>0.520784</speed><course>285.197296</course><hAcc>2.317164</hAcc><vAcc>0.474531</vAcc></extensions></trkpt>
      <trkpt lon="-3.043912" lat="52.705783"><ele>270.307159</ele><time>2022-01-15T09:44:00Z</time><extensions><speed>0.506716</speed><course>283.518066</course><hAcc>2.309200</hAcc><vAcc>0.473978</vAcc></extensions></trkpt>
      <trkpt lon="-3.043919" lat="52.705784"><ele>270.580963</ele><time>2022-01-15T09:44:01Z</time><extensions><speed>0.490457</speed><course>281.946655</course><hAcc>2.308898</hAcc><vAcc>0.472906</vAcc></extensions></trkpt>
      <trkpt lon="-3.043927" lat="52.705785"><ele>270.886963</ele><time>2022-01-15T09:44:02Z</time><extensions><speed>0.488755</speed><course>279.805695</course><hAcc>2.313105</hAcc><vAcc>0.471374</vAcc></extensions></trkpt>
      <trkpt lon="-3.043935" lat="52.705786"><ele>271.246643</ele><time>2022-01-15T09:44:03Z</time><extensions><speed>0.474461</speed><course>277.371979</course><hAcc>2.324298</hAcc><vAcc>0.469479</vAcc></extensions></trkpt>
      <trkpt lon="-3.043942" lat="52.705786"><ele>271.636780</ele><time>2022-01-15T09:44:04Z</time><extensions><speed>0.504094</speed><course>274.051727</course><hAcc>2.330010</hAcc><vAcc>0.467415</vAcc></extensions></trkpt>
      <trkpt lon="-3.043950" lat="52.705786"><ele>272.045837</ele><time>2022-01-15T09:44:05Z</time><extensions><speed>0.497218</speed><course>270.633148</course><hAcc>2.342717</hAcc><vAcc>0.465409</vAcc></extensions></trkpt>
      <trkpt lon="-3.043958" lat="52.705787"><ele>272.461151</ele><time>2022-01-15T09:44:06Z</time><extensions><speed>0.544001</speed><course>267.439697</course><hAcc>2.351418</hAcc><vAcc>0.463744</vAcc></extensions></trkpt>
      <trkpt lon="-3.043967" lat="52.705787"><ele>272.877289</ele><time>2022-01-15T09:44:07Z</time><extensions><speed>0.485172</speed><course>264.262939</course><hAcc>2.397563</hAcc><vAcc>0.462679</vAcc></extensions></trkpt>
      <trkpt lon="-3.043974" lat="52.705786"><ele>273.290009</ele><time>2022-01-15T09:44:08Z</time><extensions><speed>0.358660</speed><course>259.244659</course><hAcc>2.445517</hAcc><vAcc>0.462308</vAcc></extensions></trkpt>
      <trkpt lon="-3.043981" lat="52.705786"><ele>273.679321</ele><time>2022-01-15T09:44:09Z</time><extensions><speed>0.524204</speed><course>254.486328</course><hAcc>2.405776</hAcc><vAcc>0.462626</vAcc></extensions></trkpt>
      <trkpt lon="-3.043990" lat="52.705784"><ele>274.016083</ele><time>2022-01-15T09:44:10Z</time><extensions><speed>0.657184</speed><course>249.307159</course><hAcc>2.363507</hAcc><vAcc>0.463386</vAcc></extensions></trkpt>
      <trkpt lon="-3.044000" lat="52.705783"><ele>274.317566</ele><time>2022-01-15T09:44:11Z</time><extensions><speed>0.658668</speed><course>255.813843</course><hAcc>2.338801</hAcc><vAcc>0.464354</vAcc></extensions></trkpt>
      <trkpt lon="-3.044010" lat="52.705782"><ele>274.584961</ele><time>2022-01-15T09:44:12Z</time><extensions><speed>0.562226</speed><course>269.389923</course><hAcc>2.323098</hAcc><vAcc>0.465409</vAcc></extensions></trkpt>
      <trkpt lon="-3.044018" lat="52.705782"><ele>274.801422</ele><time>2022-01-15T09:44:13Z</time><extensions><speed>0.479820</speed><course>276.958740</course><hAcc>2.336685</hAcc><vAcc>0.466548</vAcc></extensions></trkpt>
      <trkpt lon="-3.044024" lat="52.705783"><ele>274.990997</ele><time>2022-01-15T09:44:14Z</time><extensions><speed>0.273169</speed><course>288.359283</course><hAcc>2.384533</hAcc><vAcc>0.467777</vAcc></extensions></trkpt>
      <trkpt lon="-3.044027" lat="52.705784"><ele>275.152771</ele><time>2022-01-15T09:44:15Z</time><extensions><speed>0.232483</speed><course>294.246613</course><hAcc>2.399495</hAcc><vAcc>0.469015</vAcc></extensions></trkpt>
      <trkpt lon="-3.044031" lat="52.705785"><ele>275.288452</ele><time>2022-01-15T09:44:16Z</time><extensions><speed>0.227887</speed><course>291.603455</course><hAcc>2.405584</hAcc><vAcc>0.470135</vAcc></extensions></trkpt>
      <trkpt lon="-3.044035" lat="52.705785"><ele>275.406677</ele><time>2022-01-15T09:44:17Z</time><extensions><speed>0.329632</speed><course>284.335205</course><hAcc>2.390163</hAcc><vAcc>0.470994</vAcc></extensions></trkpt>
      <trkpt lon="-3.044042" lat="52.705786"><ele>275.527679</ele><time>2022-01-15T09:44:18Z</time><extensions><speed>0.615608</speed><course>277.773193</course><hAcc>2.351443</hAcc><vAcc>0.471472</vAcc></extensions></trkpt>
      <trkpt lon="-3.044052" lat="52.705787"><ele>275.652100</ele><time>2022-01-15T09:44:19Z</time><extensions><speed>0.754284</speed><course>277.917633</course><hAcc>2.360395</hAcc><vAcc>0.471521</vAcc></extensions></trkpt>
      <trkpt lon="-3.044064" lat="52.705788"><ele>275.780609</ele><time>2022-01-15T09:44:20Z</time><extensions><speed>0.745483</speed><course>278.718933</course><hAcc>2.406336</hAcc><vAcc>0.471150</vAcc></extensions></trkpt>
      <trkpt lon="-3.044074" lat="52.705789"><ele>275.892303</ele><time>2022-01-15T09:44:21Z</time><extensions><speed>0.591640</speed><course>278.795319</course><hAcc>2.495508</hAcc><vAcc>0.470384</vAcc></extensions></trkpt>
      <trkpt lon="-3.044082" lat="52.705789"><ele>276.022003</ele><time>2022-01-15T09:44:22Z</time><extensions><speed>0.375447</speed><course>273.705261</course><hAcc>2.569748</hAcc><vAcc>0.469333</vAcc></extensions></trkpt>
      <trkpt lon="-3.044088" lat="52.705790"><ele>276.149353</ele><time>2022-01-15T09:44:23Z</time><extensions><speed>0.374886</speed><course>265.022827</course><hAcc>2.576955</hAcc><vAcc>0.468147</vAcc></extensions></trkpt>
      <trkpt lon="-3.044094" lat="52.705789"><ele>276.265839</ele><time>2022-01-15T09:44:24Z</time><extensions><speed>0.364916</speed><course>267.946411</course><hAcc>2.588869</hAcc><vAcc>0.466955</vAcc></extensions></trkpt>
      <trkpt lon="-3.044100" lat="52.705790"><ele>276.395111</ele><time>2022-01-15T09:44:25Z</time><extensions><speed>0.393533</speed><course>269.560089</course><hAcc>2.604996</hAcc><vAcc>0.465805</vAcc></extensions></trkpt>
      <trkpt lon="-3.044107" lat="52.705790"><ele>276.529419</ele><time>2022-01-15T09:44:26Z</time><extensions><speed>0.425556</speed><course>270.928253</course><hAcc>2.628419</hAcc><vAcc>0.464697</vAcc></extensions></trkpt>
      <trkpt lon="-3.044114" lat="52.705790"><ele>276.662903</ele><time>2022-01-15T09:44:27Z</time><extensions><speed>0.475984</speed><course>273.630005</course><hAcc>2.648256</hAcc><vAcc>0.463620</vAcc></extensions></trkpt>
      <trkpt lon="-3.044122" lat="52.705790"><ele>276.798523</ele><time>2022-01-15T09:44:28Z</time><extensions><speed>0.534407</speed><course>276.718323</course><hAcc>2.658513</hAcc><vAcc>0.462562</vAcc></extensions></trkpt>
      <trkpt lon="-3.044131" lat="52.705791"><ele>276.956696</ele><time>2022-01-15T09:44:29Z</time><extensions><speed>0.591836</speed><course>279.741882</course><hAcc>2.661059</hAcc><vAcc>0.461543</vAcc></extensions></trkpt>
      <trkpt lon="-3.044140" lat="52.705792"><ele>277.125977</ele><time>2022-01-15T09:44:30Z</time><extensions><speed>0.621539</speed><course>282.091370</course><hAcc>2.671927</hAcc><vAcc>0.460611</vAcc></extensions></trkpt>
      <trkpt lon="-3.044149" lat="52.705793"><ele>277.306519</ele><time>2022-01-15T09:44:31Z</time><extensions><speed>0.557729</speed><course>283.757782</course><hAcc>2.704560</hAcc><vAcc>0.459827</vAcc></extensions></trkpt>
      <trkpt lon="-3.044156" lat="52.705794"><ele>277.500519</ele><time>2022-01-15T09:44:32Z</time><extensions><speed>0.486313</speed><course>284.771118</course><hAcc>2.732334</hAcc><vAcc>0.459259</vAcc></extensions></trkpt>
      <trkpt lon="-3.044163" lat="52.705795"><ele>277.709473</ele><time>2022-01-15T09:44:33Z</time><extensions><speed>0.456422</speed><course>284.430176</course><hAcc>2.740673</hAcc><vAcc>0.458995</vAcc></extensions></trkpt>
      <trkpt lon="-3.044170" lat="52.705796"><ele>277.920380</ele><time>2022-01-15T09:44:34Z</time><extensions><speed>0.420312</speed><course>282.440460</course><hAcc>2.743010</hAcc><vAcc>0.459135</vAcc></extensions></trkpt>
      <trkpt lon="-3.044176" lat="52.705797"><ele>278.123199</ele><time>2022-01-15T09:44:35Z</time><extensions><speed>0.384646</speed><course>278.942047</course><hAcc>2.738692</hAcc><vAcc>0.459694</vAcc></extensions></trkpt>
      <trkpt lon="-3.044182" lat="52.705797"><ele>278.330994</ele><time>2022-01-15T09:44:36Z</time><extensions><speed>0.356480</speed><course>274.175934</course><hAcc>2.726298</hAcc><vAcc>0.460640</vAcc></extensions></trkpt>
      <trkpt lon="-3.044187" lat="52.705797"><ele>278.529144</ele><time>2022-01-15T09:44:37Z</time><extensions><speed>0.311438</speed><course>268.688354</course><hAcc>2.720368</hAcc><vAcc>0.461897</vAcc></extensions></trkpt>
      <trkpt lon="-3.044192" lat="52.705797"><ele>278.711609</ele><time>2022-01-15T09:44:38Z</time><extensions><speed>0.262825</speed><course>262.165619</course><hAcc>2.726269</hAcc><vAcc>0.463378</vAcc></extensions></trkpt>
      <trkpt lon="-3.044196" lat="52.705796"><ele>278.883789</ele><time>2022-01-15T09:44:39Z</time><extensions><speed>0.207039</speed><course>255.452332</course><hAcc>2.737624</hAcc><vAcc>0.465012</vAcc></extensions></trkpt>
      <trkpt lon="-3.044199" lat="52.705796"><ele>279.035248</ele><time>2022-01-15T09:44:40Z</time><extensions><speed>0.202222</speed><course>249.925171</course><hAcc>2.719420</hAcc><vAcc>0.466725</vAcc></extensions></trkpt>
      <trkpt lon="-3.044203" lat="52.705796"><ele>279.168793</ele><time>2022-01-15T09:44:41Z</time><extensions><speed>0.221011</speed><course>250.592773</course><hAcc>2.685861</hAcc><vAcc>0.468383</vAcc></extensions></trkpt>
      <trkpt lon="-3.044207" lat="52.705795"><ele>279.282776</ele><time>2022-01-15T09:44:42Z</time><extensions><speed>0.258439</speed><course>255.994537</course><hAcc>2.648897</hAcc><vAcc>0.469745</vAcc></extensions></trkpt>
      <trkpt lon="-3.044212" lat="52.705795"><ele>279.385834</ele><time>2022-01-15T09:44:43Z</time><extensions><speed>0.308502</speed><course>262.823090</course><hAcc>2.614188</hAcc><vAcc>0.470549</vAcc></extensions></trkpt>
      <trkpt lon="-3.044218" lat="52.705795"><ele>279.500854</ele><time>2022-01-15T09:44:44Z</time><extensions><speed>0.348046</speed><course>269.686096</course><hAcc>2.595339</hAcc><vAcc>0.470644</vAcc></extensions></trkpt>
      <trkpt lon="-3.044224" lat="52.705795"><ele>279.601990</ele><time>2022-01-15T09:44:45Z</time><extensions><speed>0.390503</speed><course>275.728210</course><hAcc>2.583484</hAcc><vAcc>0.470072</vAcc></extensions></trkpt>
      <trkpt lon="-3.044230" lat="52.705796"><ele>279.716217</ele><time>2022-01-15T09:44:46Z</time><extensions><speed>0.439271</speed><course>280.163757</course><hAcc>2.572377</hAcc><vAcc>0.468957</vAcc></extensions></trkpt>
      <trkpt lon="-3.044238" lat="52.705796"><ele>279.841919</ele><time>2022-01-15T09:44:47Z</time><extensions><speed>0.464616</speed><course>283.019043</course><hAcc>2.571087</hAcc><vAcc>0.467461</vAcc></extensions></trkpt>
      <trkpt lon="-3.044245" lat="52.705797"><ele>279.978790</ele><time>2022-01-15T09:44:48Z</time><extensions><speed>0.486984</speed><course>284.586548</course><hAcc>2.573219</hAcc><vAcc>0.465738</vAcc></extensions></trkpt>
      <trkpt lon="-3.044253" lat="52.705799"><ele>280.117432</ele><time>2022-01-15T09:44:49Z</time><extensions><speed>0.528474</speed><course>284.411102</course><hAcc>2.572488</hAcc><vAcc>0.463920</vAcc></extensions></trkpt>
      <trkpt lon="-3.044262" lat="52.705800"><ele>280.271576</ele><time>2022-01-15T09:44:50Z</time><extensions><speed>0.582652</speed><course>282.403900</course><hAcc>2.569392</hAcc><vAcc>0.462133</vAcc></extensions></trkpt>
      <trkpt lon="-3.044272" lat="52.705801"><ele>280.424072</ele><time>2022-01-15T09:44:51Z</time><extensions><speed>0.641432</speed><course>279.109253</course><hAcc>2.558764</hAcc><vAcc>0.460467</vAcc></extensions></trkpt>
      <trkpt lon="-3.044282" lat="52.705802"><ele>280.610413</ele><time>2022-01-15T09:44:52Z</time><extensions><speed>0.747334</speed><course>275.831818</course><hAcc>2.544102</hAcc><vAcc>0.458981</vAcc></extensions></trkpt>
      <trkpt lon="-3.044293" lat="52.705802"><ele>280.832092</ele><time>2022-01-15T09:44:53Z</time><extensions><speed>0.638981</speed><course>275.523407</course><hAcc>2.563223</hAcc><vAcc>0.457639</vAcc></extensions></trkpt>
      <trkpt lon="-3.044303" lat="52.705803"><ele>281.115234</ele><time>2022-01-15T09:44:54Z</time><extensions><speed>0.629587</speed><course>274.129547</course><hAcc>2.574634</hAcc><vAcc>0.456503</vAcc></extensions></trkpt>
      <trkpt lon="-3.044312" lat="52.705803"><ele>281.439941</ele><time>2022-01-15T09:44:55Z</time><extensions><speed>0.589550</speed><course>271.679688</course><hAcc>2.587070</hAcc><vAcc>0.455585</vAcc></extensions></trkpt>
      <trkpt lon="-3.044321" lat="52.705802"><ele>281.798065</ele><time>2022-01-15T09:44:56Z</time><extensions><speed>0.594429</speed><course>269.261078</course><hAcc>2.585972</hAcc><vAcc>0.454900</vAcc></extensions></trkpt>
      <trkpt lon="-3.044331" lat="52.705802"><ele>282.188293</ele><time>2022-01-15T09:44:57Z</time><extensions><speed>0.635297</speed><course>267.163940</course><hAcc>2.571713</hAcc><vAcc>0.454471</vAcc></extensions></trkpt>
      <trkpt lon="-3.044340" lat="52.705802"><ele>282.611053</ele><time>2022-01-15T09:44:58Z</time><extensions><speed>0.642887</speed><course>264.905975</course><hAcc>2.567935</hAcc><vAcc>0.454298</vAcc></extensions></trkpt>
      <trkpt lon="-3.044349" lat="52.705801"><ele>283.042877</ele><time>2022-01-15T09:44:59Z</time><extensions><speed>0.570900</speed><course>261.686157</course><hAcc>2.581756</hAcc><vAcc>0.454378</vAcc></extensions></trkpt>
      <trkpt lon="-3.044357" lat="52.705800"><ele>283.483887</ele><time>2022-01-15T09:45:00Z</time><extensions><speed>0.513866</speed><course>257.218231</course><hAcc>2.582891</hAcc><vAcc>0.454654</vAcc></extensions></trkpt>
      <trkpt lon="-3.044364" lat="52.705799"><ele>283.923340</ele><time>2022-01-15T09:45:02Z</time><extensions><speed>0.466872</speed><course>251.929184</course><hAcc>2.571582</hAcc><vAcc>0.454980</vAcc></extensions></trkpt>
      <trkpt lon="-3.044371" lat="52.705797"><ele>284.309387</ele><time>2022-01-15T09:45:03Z</time><extensions><speed>0.422097</speed><course>245.652695</course><hAcc>2.560884</hAcc><vAcc>0.455188</vAcc></extensions></trkpt>
      <trkpt lon="-3.044377" lat="52.705796"><ele>284.655273</ele><time>2022-01-15T09:45:04Z</time><extensions><speed>0.396243</speed><course>238.802368</course><hAcc>2.552764</hAcc><vAcc>0.455122</vAcc></extensions></trkpt>
      <trkpt lon="-3.044382" lat="52.705794"><ele>284.934418</ele><time>2022-01-15T09:45:05Z</time><extensions><speed>0.392511</speed><course>230.958328</course><hAcc>2.559888</hAcc><vAcc>0.454763</vAcc></extensions></trkpt>
      <trkpt lon="-3.044386" lat="52.705792"><ele>285.154236</ele><time>2022-01-15T09:45:06Z</time><extensions><speed>0.232147</speed><course>234.431473</course><hAcc>2.589114</hAcc><vAcc>0.454294</vAcc></extensions></trkpt>
      <trkpt lon="-3.044389" lat="52.705791"><ele>285.308624</ele><time>2022-01-15T09:45:07Z</time><extensions><speed>0.202841</speed><course>242.806824</course><hAcc>2.582594</hAcc><vAcc>0.453965</vAcc></extensions></trkpt>
      <trkpt lon="-3.044392" lat="52.705791"><ele>285.409515</ele><time>2022-01-15T09:45:08Z</time><extensions><speed>0.196337</speed><course>253.957062</course><hAcc>2.577241</hAcc><vAcc>0.454002</vAcc></extensions></trkpt>
      <trkpt lon="-3.044395" lat="52.705790"><ele>285.465118</ele><time>2022-01-15T09:45:09Z</time><extensions><speed>0.205071</speed><course>265.782928</course><hAcc>2.589568</hAcc><vAcc>0.454583</vAcc></extensions></trkpt>
      <trkpt lon="-3.044399" lat="52.705790"><ele>285.490479</ele><time>2022-01-15T09:45:10Z</time><extensions><speed>0.238923</speed><course>275.346649</course><hAcc>2.616585</hAcc><vAcc>0.455786</vAcc></extensions></trkpt>
      <trkpt lon="-3.044403" lat="52.705791"><ele>285.489899</ele><time>2022-01-15T09:45:11Z</time><extensions><speed>0.286188</speed><course>280.552460</course><hAcc>2.656443</hAcc><vAcc>0.457496</vAcc></extensions></trkpt>
      <trkpt lon="-3.044408" lat="52.705792"><ele>285.467499</ele><time>2022-01-15T09:45:12Z</time><extensions><speed>0.367692</speed><course>282.698792</course><hAcc>2.683726</hAcc><vAcc>0.459458</vAcc></extensions></trkpt>
      <trkpt lon="-3.044414" lat="52.705793"><ele>285.447235</ele><time>2022-01-15T09:45:13Z</time><extensions><speed>0.488417</speed><course>283.303314</course><hAcc>2.700154</hAcc><vAcc>0.461469</vAcc></extensions></trkpt>
      <trkpt lon="-3.044421" lat="52.705794"><ele>285.429199</ele><time>2022-01-15T09:45:14Z</time><extensions><speed>0.448949</speed><course>287.415863</course><hAcc>2.736889</hAcc><vAcc>0.463398</vAcc></extensions></trkpt>
      <trkpt lon="-3.044428" lat="52.705795"><ele>285.421875</ele><time>2022-01-15T09:45:15Z</time><extensions><speed>0.412989</speed><course>291.451355</course><hAcc>2.782532</hAcc><vAcc>0.465113</vAcc></extensions></trkpt>
      <trkpt lon="-3.044433" lat="52.705797"><ele>285.419617</ele><time>2022-01-15T09:45:16Z</time><extensions><speed>0.377617</speed><course>296.259491</course><hAcc>2.827494</hAcc><vAcc>0.466529</vAcc></extensions></trkpt>
      <trkpt lon="-3.044438" lat="52.705799"><ele>285.441193</ele><time>2022-01-15T09:45:17Z</time><extensions><speed>0.371348</speed><course>301.019775</course><hAcc>2.864422</hAcc><vAcc>0.467608</vAcc></extensions></trkpt>
      <trkpt lon="-3.044443" lat="52.705801"><ele>285.492096</ele><time>2022-01-15T09:45:18Z</time><extensions><speed>0.368967</speed><course>306.035461</course><hAcc>2.896019</hAcc><vAcc>0.468359</vAcc></extensions></trkpt>
      <trkpt lon="-3.044448" lat="52.705803"><ele>285.559814</ele><time>2022-01-15T09:45:19Z</time><extensions><speed>0.421954</speed><course>309.089447</course><hAcc>2.901520</hAcc><vAcc>0.468818</vAcc></extensions></trkpt>
      <trkpt lon="-3.044453" lat="52.705806"><ele>285.665131</ele><time>2022-01-15T09:45:20Z</time><extensions><speed>0.483188</speed><course>309.799805</course><hAcc>2.895228</hAcc><vAcc>0.469044</vAcc></extensions></trkpt>
      <trkpt lon="-3.044460" lat="52.705809"><ele>285.775543</ele><time>2022-01-15T09:45:21Z</time><extensions><speed>0.531229</speed><course>308.532013</course><hAcc>2.884123</hAcc><vAcc>0.469101</vAcc></extensions></trkpt>
      <trkpt lon="-3.044467" lat="52.705813"><ele>285.902496</ele><time>2022-01-15T09:45:22Z</time><extensions><speed>0.570907</speed><course>305.468781</course><hAcc>2.871865</hAcc><vAcc>0.469016</vAcc></extensions></trkpt>
      <trkpt lon="-3.044474" lat="52.705816"><ele>286.038727</ele><time>2022-01-15T09:45:23Z</time><extensions><speed>0.484678</speed><course>309.082947</course><hAcc>2.867339</hAcc><vAcc>0.468789</vAcc></extensions></trkpt>
      <trkpt lon="-3.044480" lat="52.705819"><ele>286.190521</ele><time>2022-01-15T09:45:24Z</time><extensions><speed>0.460584</speed><course>312.799500</course><hAcc>2.839539</hAcc><vAcc>0.468402</vAcc></extensions></trkpt>
      <trkpt lon="-3.044486" lat="52.705822"><ele>286.343170</ele><time>2022-01-15T09:45:25Z</time><extensions><speed>0.454644</speed><course>315.610565</course><hAcc>2.802036</hAcc><vAcc>0.467800</vAcc></extensions></trkpt>
      <trkpt lon="-3.044491" lat="52.705826"><ele>286.504089</ele><time>2022-01-15T09:45:26Z</time><extensions><speed>0.437182</speed><course>316.692993</course><hAcc>2.776572</hAcc><vAcc>0.466930</vAcc></extensions></trkpt>
      <trkpt lon="-3.044496" lat="52.705829"><ele>286.673035</ele><time>2022-01-15T09:45:27Z</time><extensions><speed>0.437955</speed><course>315.366730</course><hAcc>2.769906</hAcc><vAcc>0.465778</vAcc></extensions></trkpt>
      <trkpt lon="-3.044501" lat="52.705832"><ele>286.865692</ele><time>2022-01-15T09:45:28Z</time><extensions><speed>0.289750</speed><course>315.554382</course><hAcc>2.782002</hAcc><vAcc>0.464322</vAcc></extensions></trkpt>
      <trkpt lon="-3.044505" lat="52.705834"><ele>287.049164</ele><time>2022-01-15T09:45:28Z</time><extensions><speed>0.377794</speed><course>313.969635</course><hAcc>2.731768</hAcc><vAcc>0.462652</vAcc></extensions></trkpt>
      <trkpt lon="-3.044509" lat="52.705837"><ele>287.248474</ele><time>2022-01-15T09:45:29Z</time><extensions><speed>0.395692</speed><course>313.199768</course><hAcc>2.697967</hAcc><vAcc>0.460897</vAcc></extensions></trkpt>
      <trkpt lon="-3.044514" lat="52.705840"><ele>287.451050</ele><time>2022-01-15T09:45:30Z</time><extensions><speed>0.411505</speed><course>312.841095</course><hAcc>2.679605</hAcc><vAcc>0.459279</vAcc></extensions></trkpt>
      <trkpt lon="-3.044519" lat="52.705842"><ele>287.689880</ele><time>2022-01-15T09:45:31Z</time><extensions><speed>0.492060</speed><course>312.521973</course><hAcc>2.649098</hAcc><vAcc>0.458075</vAcc></extensions></trkpt>
      <trkpt lon="-3.044526" lat="52.705845"><ele>287.934753</ele><time>2022-01-15T09:45:32Z</time><extensions><speed>0.546558</speed><course>311.678131</course><hAcc>2.628879</hAcc><vAcc>0.457476</vAcc></extensions></trkpt>
      <trkpt lon="-3.044532" lat="52.705849"><ele>288.203827</ele><time>2022-01-15T09:45:33Z</time><extensions><speed>0.544565</speed><course>310.533966</course><hAcc>2.627485</hAcc><vAcc>0.457606</vAcc></extensions></trkpt>
      <trkpt lon="-3.044540" lat="52.705851"><ele>288.475616</ele><time>2022-01-15T09:45:34Z</time><extensions><speed>0.519147</speed><course>308.368683</course><hAcc>2.629641</hAcc><vAcc>0.458498</vAcc></extensions></trkpt>
      <trkpt lon="-3.044547" lat="52.705854"><ele>288.773834</ele><time>2022-01-15T09:45:35Z</time><extensions><speed>0.489556</speed><course>305.752533</course><hAcc>2.639017</hAcc><vAcc>0.460065</vAcc></extensions></trkpt>
      <trkpt lon="-3.044554" lat="52.705856"><ele>289.069489</ele><time>2022-01-15T09:45:36Z</time><extensions><speed>0.376598</speed><course>302.207733</course><hAcc>2.688169</hAcc><vAcc>0.462081</vAcc></extensions></trkpt>
      <trkpt lon="-3.044559" lat="52.705857"><ele>289.361023</ele><time>2022-01-15T09:45:37Z</time><extensions><speed>0.223600</speed><course>294.943726</course><hAcc>2.743245</hAcc><vAcc>0.464203</vAcc></extensions></trkpt>
      <trkpt lon="-3.044563" lat="52.705858"><ele>289.634399</ele><time>2022-01-15T09:45:38Z</time><extensions><speed>0.226767</speed><course>281.773346</course><hAcc>2.736481</hAcc><vAcc>0.466101</vAcc></extensions></trkpt>
      <trkpt lon="-3.044567" lat="52.705858"><ele>289.905365</ele><time>2022-01-15T09:45:39Z</time><extensions><speed>0.285069</speed><course>269.592072</course><hAcc>2.701715</hAcc><vAcc>0.467536</vAcc></extensions></trkpt>
      <trkpt lon="-3.044573" lat="52.705857"><ele>290.157013</ele><time>2022-01-15T09:45:40Z</time><extensions><speed>0.406638</speed><course>261.127106</course><hAcc>2.650720</hAcc><vAcc>0.468381</vAcc></extensions></trkpt>
      <trkpt lon="-3.044580" lat="52.705856"><ele>290.395142</ele><time>2022-01-15T09:45:41Z</time><extensions><speed>0.514074</speed><course>256.476471</course><hAcc>2.618114</hAcc><vAcc>0.468604</vAcc></extensions></trkpt>
      <trkpt lon="-3.044588" lat="52.705855"><ele>290.605438</ele><time>2022-01-15T09:45:42Z</time><extensions><speed>0.561264</speed><course>253.003754</course><hAcc>2.629774</hAcc><vAcc>0.468254</vAcc></extensions></trkpt>
      <trkpt lon="-3.044596" lat="52.705853"><ele>290.794525</ele><time>2022-01-15T09:45:43Z</time><extensions><speed>0.434551</speed><course>254.051971</course><hAcc>2.661741</hAcc><vAcc>0.467404</vAcc></extensions></trkpt>
      <trkpt lon="-3.044603" lat="52.705852"><ele>290.964691</ele><time>2022-01-15T09:45:44Z</time><extensions><speed>0.483144</speed><course>253.418152</course><hAcc>2.642730</hAcc><vAcc>0.466140</vAcc></extensions></trkpt>
      <trkpt lon="-3.044610" lat="52.705851"><ele>291.112152</ele><time>2022-01-15T09:45:45Z</time><extensions><speed>0.477058</speed><course>251.658203</course><hAcc>2.622476</hAcc><vAcc>0.464563</vAcc></extensions></trkpt>
      <trkpt lon="-3.044617" lat="52.705849"><ele>291.235718</ele><time>2022-01-15T09:45:46Z</time><extensions><speed>0.486109</speed><course>249.110107</course><hAcc>2.605592</hAcc><vAcc>0.462801</vAcc></extensions></trkpt>
      <trkpt lon="-3.044624" lat="52.705847"><ele>291.348969</ele><time>2022-01-15T09:45:47Z</time><extensions><speed>0.465425</speed><course>246.194992</course><hAcc>2.606385</hAcc><vAcc>0.460931</vAcc></extensions></trkpt>
      <trkpt lon="-3.044630" lat="52.705846"><ele>291.437531</ele><time>2022-01-15T09:45:48Z</time><extensions><speed>0.421230</speed><course>244.304428</course><hAcc>2.624340</hAcc><vAcc>0.458982</vAcc></extensions></trkpt>
      <trkpt lon="-3.044636" lat="52.705844"><ele>291.520874</ele><time>2022-01-15T09:45:49Z</time><extensions><speed>0.402579</speed><course>245.496490</course><hAcc>2.636167</hAcc><vAcc>0.456980</vAcc></extensions></trkpt>
      <trkpt lon="-3.044643" lat="52.705843"><ele>291.589081</ele><time>2022-01-15T09:45:50Z</time><extensions><speed>0.434458</speed><course>248.913101</course><hAcc>2.631613</hAcc><vAcc>0.454951</vAcc></extensions></trkpt>
      <trkpt lon="-3.044650" lat="52.705841"><ele>291.649719</ele><time>2022-01-15T09:45:51Z</time><extensions><speed>0.471160</speed><course>252.020645</course><hAcc>2.629675</hAcc><vAcc>0.452911</vAcc></extensions></trkpt>
      <trkpt lon="-3.044658" lat="52.705840"><ele>291.719879</ele><time>2022-01-15T09:45:52Z</time><extensions><speed>0.473897</speed><course>254.280350</course><hAcc>2.641335</hAcc><vAcc>0.450887</vAcc></extensions></trkpt>
      <trkpt lon="-3.044666" lat="52.705839"><ele>291.778748</ele><time>2022-01-15T09:45:53Z</time><extensions><speed>0.496750</speed><course>255.230682</course><hAcc>2.645385</hAcc><vAcc>0.449009</vAcc></extensions></trkpt>
      <trkpt lon="-3.044674" lat="52.705838"><ele>291.837219</ele><time>2022-01-15T09:45:54Z</time><extensions><speed>0.542872</speed><course>255.947983</course><hAcc>2.638859</hAcc><vAcc>0.447457</vAcc></extensions></trkpt>
      <trkpt lon="-3.044683" lat="52.705837"><ele>291.898621</ele><time>2022-01-15T09:45:55Z</time><extensions><speed>0.570698</speed><course>257.856537</course><hAcc>2.633214</hAcc><vAcc>0.446397</vAcc></extensions></trkpt>
      <trkpt lon="-3.044692" lat="52.705836"><ele>291.959412</ele><time>2022-01-15T09:45:56Z</time><extensions><speed>0.592431</speed><course>260.395264</course><hAcc>2.622800</hAcc><vAcc>0.445981</vAcc></extensions></trkpt>
      <trkpt lon="-3.044701" lat="52.705835"><ele>292.028046</ele><time>2022-01-15T09:45:57Z</time><extensions><speed>0.615594</speed><course>263.258789</course><hAcc>2.604455</hAcc><vAcc>0.446325</vAcc></extensions></trkpt>
      <trkpt lon="-3.044711" lat="52.705834"><ele>292.117096</ele><time>2022-01-15T09:45:58Z</time><extensions><speed>0.603694</speed><course>265.735199</course><hAcc>2.587274</hAcc><vAcc>0.447603</vAcc></extensions></trkpt>
      <trkpt lon="-3.044720" lat="52.705834"><ele>292.211334</ele><time>2022-01-15T09:45:59Z</time><extensions><speed>0.548332</speed><course>266.523010</course><hAcc>2.563272</hAcc><vAcc>0.449945</vAcc></extensions></trkpt>
      <trkpt lon="-3.044729" lat="52.705834"><ele>292.315216</ele><time>2022-01-15T09:46:00Z</time><extensions><speed>0.608669</speed><course>265.140106</course><hAcc>2.495301</hAcc><vAcc>0.453332</vAcc></extensions></trkpt>
      <trkpt lon="-3.044738" lat="52.705833"><ele>292.425751</ele><time>2022-01-15T09:46:01Z</time><extensions><speed>0.651738</speed><course>261.562622</course><hAcc>2.424596</hAcc><vAcc>0.457520</vAcc></extensions></trkpt>
      <trkpt lon="-3.044747" lat="52.705833"><ele>292.541138</ele><time>2022-01-15T09:46:02Z</time><extensions><speed>0.494280</speed><course>266.166656</course><hAcc>2.388345</hAcc><vAcc>0.462126</vAcc></extensions></trkpt>
      <trkpt lon="-3.044754" lat="52.705833"><ele>292.664459</ele><time>2022-01-15T09:46:03Z</time><extensions><speed>0.406883</speed><course>269.538452</course><hAcc>2.358243</hAcc><vAcc>0.466758</vAcc></extensions></trkpt>
      <trkpt lon="-3.044760" lat="52.705833"><ele>292.792969</ele><time>2022-01-15T09:46:04Z</time><extensions><speed>0.352791</speed><course>272.175964</course><hAcc>2.327671</hAcc><vAcc>0.471043</vAcc></extensions></trkpt>
      <trkpt lon="-3.044765" lat="52.705833"><ele>292.929443</ele><time>2022-01-15T09:46:05Z</time><extensions><speed>0.343582</speed><course>273.353943</course><hAcc>2.294975</hAcc><vAcc>0.474541</vAcc></extensions></trkpt>
      <trkpt lon="-3.044770" lat="52.705834"><ele>293.066742</ele><time>2022-01-15T09:46:06Z</time><extensions><speed>0.321460</speed><course>273.573212</course><hAcc>2.276049</hAcc><vAcc>0.476661</vAcc></extensions></trkpt>
      <trkpt lon="-3.044776" lat="52.705834"><ele>293.208069</ele><time>2022-01-15T09:46:07Z</time><extensions><speed>0.356449</speed><course>273.391602</course><hAcc>2.266077</hAcc><vAcc>0.476811</vAcc></extensions></trkpt>
      <trkpt lon="-3.044780" lat="52.705835"><ele>293.344818</ele><time>2022-01-15T09:46:08Z</time><extensions><speed>0.251830</speed><course>286.877136</course><hAcc>2.301816</hAcc><vAcc>0.474633</vAcc></extensions></trkpt>
      <trkpt lon="-3.044784" lat="52.705836"><ele>293.494781</ele><time>2022-01-15T09:46:09Z</time><extensions><speed>0.293936</speed><course>300.916748</course><hAcc>2.300166</hAcc><vAcc>0.470297</vAcc></extensions></trkpt>
      <trkpt lon="-3.044787" lat="52.705837"><ele>293.649902</ele><time>2022-01-15T09:46:10Z</time><extensions><speed>0.321400</speed><course>311.055847</course><hAcc>2.316840</hAcc><vAcc>0.464402</vAcc></extensions></trkpt>
      <trkpt lon="-3.044791" lat="52.705840"><ele>293.823669</ele><time>2022-01-15T09:46:11Z</time><extensions><speed>0.354918</speed><course>318.333893</course><hAcc>2.349425</hAcc><vAcc>0.457766</vAcc></extensions></trkpt>
      <trkpt lon="-3.044794" lat="52.705842"><ele>293.982971</ele><time>2022-01-15T09:46:12Z</time><extensions><speed>0.376132</speed><course>323.612457</course><hAcc>2.385488</hAcc><vAcc>0.451261</vAcc></extensions></trkpt>
      <trkpt lon="-3.044797" lat="52.705845"><ele>294.164581</ele><time>2022-01-15T09:46:13Z</time><extensions><speed>0.390143</speed><course>328.069458</course><hAcc>2.414033</hAcc><vAcc>0.445459</vAcc></extensions></trkpt>
      <trkpt lon="-3.044800" lat="52.705849"><ele>294.349579</ele><time>2022-01-15T09:46:14Z</time><extensions><speed>0.373215</speed><course>333.203888</course><hAcc>2.440525</hAcc><vAcc>0.440684</vAcc></extensions></trkpt>
      <trkpt lon="-3.044803" lat="52.705852"><ele>294.536224</ele><time>2022-01-15T09:46:15Z</time><extensions><speed>0.361089</speed><course>339.222229</course><hAcc>2.460163</hAcc><vAcc>0.436929</vAcc></extensions></trkpt>
      <trkpt lon="-3.044805" lat="52.705855"><ele>294.721985</ele><time>2022-01-15T09:46:16Z</time><extensions><speed>0.339931</speed><course>344.540955</course><hAcc>2.478127</hAcc><vAcc>0.433997</vAcc></extensions></trkpt>
      <trkpt lon="-3.044806" lat="52.705858"><ele>294.913757</ele><time>2022-01-15T09:46:17Z</time><extensions><speed>0.326983</speed><course>347.671448</course><hAcc>2.487466</hAcc><vAcc>0.431795</vAcc></extensions></trkpt>
      <trkpt lon="-3.044807" lat="52.705861"><ele>295.097931</ele><time>2022-01-15T09:46:18Z</time><extensions><speed>0.307676</speed><course>348.064270</course><hAcc>2.494116</hAcc><vAcc>0.430247</vAcc></extensions></trkpt>
      <trkpt lon="-3.044808" lat="52.705864"><ele>295.280548</ele><time>2022-01-15T09:46:19Z</time><extensions><speed>0.308671</speed><course>347.057922</course><hAcc>2.492796</hAcc><vAcc>0.429291</vAcc></extensions></trkpt>
      <trkpt lon="-3.044810" lat="52.705867"><ele>295.466187</ele><time>2022-01-15T09:46:20Z</time><extensions><speed>0.321768</speed><course>344.964661</course><hAcc>2.486605</hAcc><vAcc>0.428844</vAcc></extensions></trkpt>
      <trkpt lon="-3.044811" lat="52.705870"><ele>295.645233</ele><time>2022-01-15T09:46:21Z</time><extensions><speed>0.334261</speed><course>341.561462</course><hAcc>2.480678</hAcc><vAcc>0.428834</vAcc></extensions></trkpt>
      <trkpt lon="-3.044813" lat="52.705873"><ele>295.817780</ele><time>2022-01-15T09:46:22Z</time><extensions><speed>0.342798</speed><course>337.584015</course><hAcc>2.483072</hAcc><vAcc>0.429143</vAcc></extensions></trkpt>
      <trkpt lon="-3.044816" lat="52.705876"><ele>295.992584</ele><time>2022-01-15T09:46:23Z</time><extensions><speed>0.306893</speed><course>332.835938</course><hAcc>2.495724</hAcc><vAcc>0.429770</vAcc></extensions></trkpt>
      <trkpt lon="-3.044818" lat="52.705878"><ele>296.163452</ele><time>2022-01-15T09:46:24Z</time><extensions><speed>0.347590</speed><course>327.829376</course><hAcc>2.470784</hAcc><vAcc>0.430634</vAcc></extensions></trkpt>
      <trkpt lon="-3.044821" lat="52.705881"><ele>296.335327</ele><time>2022-01-15T09:46:25Z</time><extensions><speed>0.355422</speed><course>323.751129</course><hAcc>2.447543</hAcc><vAcc>0.431501</vAcc></extensions></trkpt>
      <trkpt lon="-3.044825" lat="52.705884"><ele>296.519775</ele><time>2022-01-15T09:46:26Z</time><extensions><speed>0.350862</speed><course>320.386810</course><hAcc>2.435547</hAcc><vAcc>0.432125</vAcc></extensions></trkpt>
      <trkpt lon="-3.044829" lat="52.705886"><ele>296.708649</ele><time>2022-01-15T09:46:27Z</time><extensions><speed>0.350890</speed><course>317.892090</course><hAcc>2.429013</hAcc><vAcc>0.432366</vAcc></extensions></trkpt>
      <trkpt lon="-3.044833" lat="52.705888"><ele>296.904236</ele><time>2022-01-15T09:46:28Z</time><extensions><speed>0.344422</speed><course>316.251953</course><hAcc>2.429635</hAcc><vAcc>0.432212</vAcc></extensions></trkpt>
      <trkpt lon="-3.044837" lat="52.705891"><ele>297.097656</ele><time>2022-01-15T09:46:29Z</time><extensions><speed>0.343824</speed><course>313.926849</course><hAcc>2.427982</hAcc><vAcc>0.431692</vAcc></extensions></trkpt>
      <trkpt lon="-3.044841" lat="52.705893"><ele>297.306824</ele><time>2022-01-15T09:46:30Z</time><extensions><speed>0.346666</speed><course>309.255981</course><hAcc>2.421910</hAcc><vAcc>0.430958</vAcc></extensions></trkpt>
      <trkpt lon="-3.044846" lat="52.705895"><ele>297.514832</ele><time>2022-01-15T09:46:31Z</time><extensions><speed>0.349717</speed><course>302.605225</course><hAcc>2.415327</hAcc><vAcc>0.430250</vAcc></extensions></trkpt>
      <trkpt lon="-3.044851" lat="52.705896"><ele>297.725555</ele><time>2022-01-15T09:46:32Z</time><extensions><speed>0.354669</speed><course>294.769287</course><hAcc>2.408298</hAcc><vAcc>0.429557</vAcc></extensions></trkpt>
      <trkpt lon="-3.044856" lat="52.705897"><ele>297.935486</ele><time>2022-01-15T09:46:33Z</time><extensions><speed>0.374609</speed><course>286.707245</course><hAcc>2.393588</hAcc><vAcc>0.428980</vAcc></extensions></trkpt>
      <trkpt lon="-3.044862" lat="52.705898"><ele>298.142365</ele><time>2022-01-15T09:46:34Z</time><extensions><speed>0.397104</speed><course>280.295471</course><hAcc>2.375480</hAcc><vAcc>0.428542</vAcc></extensions></trkpt>
      <trkpt lon="-3.044868" lat="52.705898"><ele>298.332611</ele><time>2022-01-15T09:46:35Z</time><extensions><speed>0.418612</speed><course>275.528625</course><hAcc>2.358794</hAcc><vAcc>0.428116</vAcc></extensions></trkpt>
      <trkpt lon="-3.044875" lat="52.705898"><ele>298.543396</ele><time>2022-01-15T09:46:36Z</time><extensions><speed>0.455548</speed><course>271.319672</course><hAcc>2.341971</hAcc><vAcc>0.427455</vAcc></extensions></trkpt>
      <trkpt lon="-3.044883" lat="52.705898"><ele>298.742035</ele><time>2022-01-15T09:46:37Z</time><extensions><speed>0.484788</speed><course>267.075317</course><hAcc>2.330459</hAcc><vAcc>0.426312</vAcc></extensions></trkpt>
      <trkpt lon="-3.044890" lat="52.705897"><ele>298.929291</ele><time>2022-01-15T09:46:38Z</time><extensions><speed>0.511433</speed><course>262.387024</course><hAcc>2.320826</hAcc><vAcc>0.424489</vAcc></extensions></trkpt>
      <trkpt lon="-3.044899" lat="52.705896"><ele>299.114136</ele><time>2022-01-15T09:46:39Z</time><extensions><speed>0.544673</speed><course>257.952515</course><hAcc>2.305651</hAcc><vAcc>0.421788</vAcc></extensions></trkpt>
      <trkpt lon="-3.044908" lat="52.705895"><ele>299.289825</ele><time>2022-01-15T09:46:40Z</time><extensions><speed>0.602665</speed><course>253.182495</course><hAcc>2.278911</hAcc><vAcc>0.418722</vAcc></extensions></trkpt>
      <trkpt lon="-3.044917" lat="52.705893"><ele>299.451263</ele><time>2022-01-15T09:46:41Z</time><extensions><speed>0.612276</speed><course>247.729736</course><hAcc>2.258323</hAcc><vAcc>0.415994</vAcc></extensions></trkpt>
      <trkpt lon="-3.044926" lat="52.705890"><ele>299.608215</ele><time>2022-01-15T09:46:42Z</time><extensions><speed>0.595341</speed><course>242.896393</course><hAcc>2.234540</hAcc><vAcc>0.414494</vAcc></extensions></trkpt>
      <trkpt lon="-3.044935" lat="52.705887"><ele>299.762085</ele><time>2022-01-15T09:46:43Z</time><extensions><speed>0.589056</speed><course>239.217636</course><hAcc>2.192213</hAcc><vAcc>0.414742</vAcc></extensions></trkpt>
      <trkpt lon="-3.044943" lat="52.705884"><ele>299.909119</ele><time>2022-01-15T09:46:44Z</time><extensions><speed>0.569998</speed><course>237.284973</course><hAcc>2.140121</hAcc><vAcc>0.417147</vAcc></extensions></trkpt>
      <trkpt lon="-3.044951" lat="52.705880"><ele>300.040710</ele><time>2022-01-15T09:46:45Z</time><extensions><speed>0.505309</speed><course>236.451401</course><hAcc>2.112894</hAcc><vAcc>0.421804</vAcc></extensions></trkpt>
      <trkpt lon="-3.044957" lat="52.705878"><ele>300.160583</ele><time>2022-01-15T09:46:46Z</time><extensions><speed>0.260657</speed><course>236.894257</course><hAcc>2.129648</hAcc><vAcc>0.428588</vAcc></extensions></trkpt>
      <trkpt lon="-3.044962" lat="52.705876"><ele>300.267120</ele><time>2022-01-15T09:46:47Z</time><extensions><speed>0.296384</speed><course>237.810349</course><hAcc>2.089899</hAcc><vAcc>0.437179</vAcc></extensions></trkpt>
      <trkpt lon="-3.044967" lat="52.705875"><ele>300.359619</ele><time>2022-01-15T09:46:48Z</time><extensions><speed>0.302691</speed><course>238.573166</course><hAcc>2.052419</hAcc><vAcc>0.446968</vAcc></extensions></trkpt>
      <trkpt lon="-3.044973" lat="52.705874"><ele>300.439728</ele><time>2022-01-15T09:46:49Z</time><extensions><speed>0.336542</speed><course>239.446655</course><hAcc>2.018734</hAcc><vAcc>0.457157</vAcc></extensions></trkpt>
      <trkpt lon="-3.044978" lat="52.705872"><ele>300.516754</ele><time>2022-01-15T09:46:50Z</time><extensions><speed>0.352087</speed><course>240.710815</course><hAcc>1.996442</hAcc><vAcc>0.467029</vAcc></extensions></trkpt>
      <trkpt lon="-3.044984" lat="52.705871"><ele>300.592804</ele><time>2022-01-15T09:46:51Z</time><extensions><speed>0.347753</speed><course>243.990250</course><hAcc>1.985669</hAcc><vAcc>0.476120</vAcc></extensions></trkpt>
      <trkpt lon="-3.044989" lat="52.705870"><ele>300.663300</ele><time>2022-01-15T09:46:52Z</time><extensions><speed>0.353137</speed><course>248.455063</course><hAcc>1.976711</hAcc><vAcc>0.484177</vAcc></extensions></trkpt>
      <trkpt lon="-3.044995" lat="52.705869"><ele>300.734497</ele><time>2022-01-15T09:46:53Z</time><extensions><speed>0.365299</speed><course>252.860733</course><hAcc>1.969067</hAcc><vAcc>0.491012</vAcc></extensions></trkpt>
      <trkpt lon="-3.045000" lat="52.705868"><ele>300.812805</ele><time>2022-01-15T09:46:54Z</time><extensions><speed>0.341115</speed><course>258.078705</course><hAcc>1.973441</hAcc><vAcc>0.496436</vAcc></extensions></trkpt>
      <trkpt lon="-3.045005" lat="52.705868"><ele>300.896454</ele><time>2022-01-15T09:46:55Z</time><extensions><speed>0.315848</speed><course>265.622406</course><hAcc>1.983773</hAcc><vAcc>0.500211</vAcc></extensions></trkpt>
      <trkpt lon="-3.045010" lat="52.705868"><ele>300.984528</ele><time>2022-01-15T09:46:56Z</time><extensions><speed>0.302307</speed><course>274.272522</course><hAcc>1.997111</hAcc><vAcc>0.502060</vAcc></extensions></trkpt>
      <trkpt lon="-3.045015" lat="52.705868"><ele>301.083862</ele><time>2022-01-15T09:46:57Z</time><extensions><speed>0.296837</speed><course>281.274292</course><hAcc>2.016336</hAcc><vAcc>0.501777</vAcc></extensions></trkpt>
      <trkpt lon="-3.045019" lat="52.705869"><ele>301.190033</ele><time>2022-01-15T09:46:59Z</time><extensions><speed>0.283139</speed><course>285.736694</course><hAcc>2.045312</hAcc><vAcc>0.499273</vAcc></extensions></trkpt>
      <trkpt lon="-3.045024" lat="52.705870"><ele>301.315247</ele><time>2022-01-15T09:47:00Z</time><extensions><speed>0.291790</speed><course>287.261871</course><hAcc>2.069455</hAcc><vAcc>0.494649</vAcc></extensions></trkpt>
      <trkpt lon="-3.045029" lat="52.705871"><ele>301.450867</ele><time>2022-01-15T09:47:01Z</time><extensions><speed>0.407555</speed><course>286.833282</course><hAcc>2.070533</hAcc><vAcc>0.488138</vAcc></extensions></trkpt>
      <trkpt lon="-3.045036" lat="52.705872"><ele>301.592987</ele><time>2022-01-15T09:47:02Z</time><extensions><speed>0.465938</speed><course>285.634430</course><hAcc>2.108580</hAcc><vAcc>0.480182</vAcc></extensions></trkpt>
      <trkpt lon="-3.045043" lat="52.705873"><ele>301.733002</ele><time>2022-01-15T09:47:03Z</time><extensions><speed>0.445004</speed><course>283.961945</course><hAcc>2.189866</hAcc><vAcc>0.471370</vAcc></extensions></trkpt>
      <trkpt lon="-3.045049" lat="52.705874"><ele>301.874390</ele><time>2022-01-15T09:47:04Z</time><extensions><speed>0.426681</speed><course>282.452484</course><hAcc>2.267927</hAcc><vAcc>0.462225</vAcc></extensions></trkpt>
      <trkpt lon="-3.045056" lat="52.705875"><ele>302.018463</ele><time>2022-01-15T09:47:05Z</time><extensions><speed>0.435765</speed><course>280.278168</course><hAcc>2.325369</hAcc><vAcc>0.453410</vAcc></extensions></trkpt>
      <trkpt lon="-3.045063" lat="52.705875"><ele>302.161011</ele><time>2022-01-15T09:47:06Z</time><extensions><speed>0.474985</speed><course>276.809937</course><hAcc>2.367176</hAcc><vAcc>0.445495</vAcc></extensions></trkpt>
      <trkpt lon="-3.045071" lat="52.705875"><ele>302.306458</ele><time>2022-01-15T09:47:07Z</time><extensions><speed>0.520875</speed><course>273.407196</course><hAcc>2.405531</hAcc><vAcc>0.438969</vAcc></extensions></trkpt>
      <trkpt lon="-3.045080" lat="52.705876"><ele>302.453156</ele><time>2022-01-15T09:47:08Z</time><extensions><speed>0.576337</speed><course>271.306976</course><hAcc>2.439558</hAcc><vAcc>0.434009</vAcc></extensions></trkpt>
      <trkpt lon="-3.045089" lat="52.705875"><ele>302.611450</ele><time>2022-01-15T09:47:09Z</time><extensions><speed>0.615315</speed><course>270.330017</course><hAcc>2.468918</hAcc><vAcc>0.430499</vAcc></extensions></trkpt>
      <trkpt lon="-3.045099" lat="52.705875"><ele>302.745514</ele><time>2022-01-15T09:47:10Z</time><extensions><speed>0.663353</speed><course>270.098083</course><hAcc>2.484050</hAcc><vAcc>0.428214</vAcc></extensions></trkpt>
      <trkpt lon="-3.045110" lat="52.705876"><ele>302.899292</ele><time>2022-01-15T09:47:11Z</time><extensions><speed>0.693400</speed><course>269.625793</course><hAcc>2.488606</hAcc><vAcc>0.426962</vAcc></extensions></trkpt>
      <trkpt lon="-3.045120" lat="52.705875"><ele>303.060028</ele><time>2022-01-15T09:47:12Z</time><extensions><speed>0.698402</speed><course>268.196594</course><hAcc>2.486810</hAcc><vAcc>0.426488</vAcc></extensions></trkpt>
      <trkpt lon="-3.045131" lat="52.705875"><ele>303.214539</ele><time>2022-01-15T09:47:13Z</time><extensions><speed>0.687041</speed><course>266.110352</course><hAcc>2.480975</hAcc><vAcc>0.426638</vAcc></extensions></trkpt>
      <trkpt lon="-3.045141" lat="52.705875"><ele>303.376953</ele><time>2022-01-15T09:47:14Z</time><extensions><speed>0.647626</speed><course>264.526764</course><hAcc>2.477265</hAcc><vAcc>0.427304</vAcc></extensions></trkpt>
      <trkpt lon="-3.045150" lat="52.705874"><ele>303.547150</ele><time>2022-01-15T09:47:15Z</time><extensions><speed>0.610374</speed><course>263.797028</course><hAcc>2.472726</hAcc><vAcc>0.428481</vAcc></extensions></trkpt>
      <trkpt lon="-3.045159" lat="52.705874"><ele>303.707794</ele><time>2022-01-15T09:47:16Z</time><extensions><speed>0.567952</speed><course>264.328827</course><hAcc>2.466585</hAcc><vAcc>0.430136</vAcc></extensions></trkpt>
      <trkpt lon="-3.045167" lat="52.705874"><ele>303.890808</ele><time>2022-01-15T09:47:17Z</time><extensions><speed>0.525586</speed><course>266.504150</course><hAcc>2.456175</hAcc><vAcc>0.432105</vAcc></extensions></trkpt>
      <trkpt lon="-3.045175" lat="52.705874"><ele>304.078339</ele><time>2022-01-15T09:47:18Z</time><extensions><speed>0.478463</speed><course>270.616425</course><hAcc>2.442891</hAcc><vAcc>0.434062</vAcc></extensions></trkpt>
      <trkpt lon="-3.045182" lat="52.705874"><ele>304.263214</ele><time>2022-01-15T09:47:19Z</time><extensions><speed>0.441990</speed><course>277.018250</course><hAcc>2.433300</hAcc><vAcc>0.435680</vAcc></extensions></trkpt>
      <trkpt lon="-3.045188" lat="52.705875"><ele>304.451996</ele><time>2022-01-15T09:47:20Z</time><extensions><speed>0.375783</speed><course>284.119751</course><hAcc>2.443257</hAcc><vAcc>0.436777</vAcc></extensions></trkpt>
      <trkpt lon="-3.045194" lat="52.705876"><ele>304.641510</ele><time>2022-01-15T09:47:21Z</time><extensions><speed>0.362224</speed><course>289.480347</course><hAcc>2.443020</hAcc><vAcc>0.437367</vAcc></extensions></trkpt>
      <trkpt lon="-3.045200" lat="52.705877"><ele>304.815033</ele><time>2022-01-15T09:47:22Z</time><extensions><speed>0.369080</speed><course>292.048157</course><hAcc>2.440671</hAcc><vAcc>0.437539</vAcc></extensions></trkpt>
      <trkpt lon="-3.045206" lat="52.705878"><ele>305.008270</ele><time>2022-01-15T09:47:23Z</time><extensions><speed>0.370582</speed><course>293.446625</course><hAcc>2.450495</hAcc><vAcc>0.437400</vAcc></extensions></trkpt>
      <trkpt lon="-3.045212" lat="52.705879"><ele>305.193481</ele><time>2022-01-15T09:47:24Z</time><extensions><speed>0.388926</speed><course>293.279083</course><hAcc>2.459397</hAcc><vAcc>0.437072</vAcc></extensions></trkpt>
      <trkpt lon="-3.045218" lat="52.705881"><ele>305.378906</ele><time>2022-01-15T09:47:24Z</time><extensions><speed>0.408191</speed><course>290.545441</course><hAcc>2.467784</hAcc><vAcc>0.436642</vAcc></extensions></trkpt>
      <trkpt lon="-3.045224" lat="52.705882"><ele>305.556885</ele><time>2022-01-15T09:47:25Z</time><extensions><speed>0.408789</speed><course>286.167389</course><hAcc>2.479763</hAcc><vAcc>0.436164</vAcc></extensions></trkpt>
      <trkpt lon="-3.045231" lat="52.705883"><ele>305.742004</ele><time>2022-01-15T09:47:26Z</time><extensions><speed>0.445675</speed><course>280.975220</course><hAcc>2.476487</hAcc><vAcc>0.435631</vAcc></extensions></trkpt>
      <trkpt lon="-3.045238" lat="52.705883"><ele>305.916382</ele><time>2022-01-15T09:47:27Z</time><extensions><speed>0.501318</speed><course>276.665894</course><hAcc>2.462435</hAcc><vAcc>0.435007</vAcc></extensions></trkpt>
      <trkpt lon="-3.045246" lat="52.705884"><ele>306.080078</ele><time>2022-01-15T09:47:29Z</time><extensions><speed>0.539980</speed><course>273.705536</course><hAcc>2.449941</hAcc><vAcc>0.434252</vAcc></extensions></trkpt>
      <trkpt lon="-3.045255" lat="52.705884"><ele>306.245972</ele><time>2022-01-15T09:47:30Z</time><extensions><speed>0.581887</speed><course>271.635132</course><hAcc>2.433821</hAcc><vAcc>0.433364</vAcc></extensions></trkpt>
      <trkpt lon="-3.045264" lat="52.705884"><ele>306.430817</ele><time>2022-01-15T09:47:30Z</time><extensions><speed>0.608490</speed><course>270.789520</course><hAcc>2.420731</hAcc><vAcc>0.432403</vAcc></extensions></trkpt>
      <trkpt lon="-3.045274" lat="52.705885"><ele>306.619415</ele><time>2022-01-15T09:47:31Z</time><extensions><speed>0.595565</speed><course>271.218140</course><hAcc>2.416904</hAcc><vAcc>0.431407</vAcc></extensions></trkpt>
      <trkpt lon="-3.045283" lat="52.705885"><ele>306.790527</ele><time>2022-01-15T09:47:32Z</time><extensions><speed>0.597471</speed><course>272.631073</course><hAcc>2.409735</hAcc><vAcc>0.430459</vAcc></extensions></trkpt>
      <trkpt lon="-3.045292" lat="52.705885"><ele>306.979370</ele><time>2022-01-15T09:47:33Z</time><extensions><speed>0.599495</speed><course>274.284576</course><hAcc>2.400698</hAcc><vAcc>0.429628</vAcc></extensions></trkpt>
      <trkpt lon="-3.045301" lat="52.705886"><ele>307.166779</ele><time>2022-01-15T09:47:34Z</time><extensions><speed>0.600012</speed><course>276.607574</course><hAcc>2.393858</hAcc><vAcc>0.428900</vAcc></extensions></trkpt>
      <trkpt lon="-3.045311" lat="52.705886"><ele>307.334351</ele><time>2022-01-15T09:47:35Z</time><extensions><speed>0.612988</speed><course>278.981750</course><hAcc>2.386596</hAcc><vAcc>0.428184</vAcc></extensions></trkpt>
      <trkpt lon="-3.045321" lat="52.705887"><ele>307.518524</ele><time>2022-01-15T09:47:37Z</time><extensions><speed>0.659976</speed><course>279.916992</course><hAcc>2.370687</hAcc><vAcc>0.427543</vAcc></extensions></trkpt>
      <trkpt lon="-3.045332" lat="52.705888"><ele>307.694794</ele><time>2022-01-15T09:47:38Z</time><extensions><speed>0.680230</speed><course>278.904144</course><hAcc>2.355173</hAcc><vAcc>0.426996</vAcc></extensions></trkpt>
      <trkpt lon="-3.045343" lat="52.705889"><ele>307.860626</ele><time>2022-01-15T09:47:39Z</time><extensions><speed>0.701524</speed><course>275.840057</course><hAcc>2.346650</hAcc><vAcc>0.426690</vAcc></extensions></trkpt>
      <trkpt lon="-3.045353" lat="52.705889"><ele>308.024475</ele><time>2022-01-15T09:47:40Z</time><extensions><speed>0.570021</speed><course>275.373932</course><hAcc>2.358636</hAcc><vAcc>0.426729</vAcc></extensions></trkpt>
      <trkpt lon="-3.045362" lat="52.705889"><ele>308.186157</ele><time>2022-01-15T09:47:41Z</time><extensions><speed>0.550488</speed><course>273.030945</course><hAcc>2.338618</hAcc><vAcc>0.427245</vAcc></extensions></trkpt>
      <trkpt lon="-3.045371" lat="52.705889"><ele>308.334808</ele><time>2022-01-15T09:47:42Z</time><extensions><speed>0.607537</speed><course>269.757416</course><hAcc>2.296109</hAcc><vAcc>0.428269</vAcc></extensions></trkpt>
      <trkpt lon="-3.045381" lat="52.705889"><ele>308.474701</ele><time>2022-01-15T09:47:43Z</time><extensions><speed>0.552824</speed><course>266.758209</course><hAcc>2.300575</hAcc><vAcc>0.429955</vAcc></extensions></trkpt>
      <trkpt lon="-3.045388" lat="52.705889"><ele>308.603210</ele><time>2022-01-15T09:47:44Z</time><extensions><speed>0.397034</speed><course>264.154968</course><hAcc>2.339251</hAcc><vAcc>0.432454</vAcc></extensions></trkpt>
      <trkpt lon="-3.045395" lat="52.705889"><ele>308.718658</ele><time>2022-01-15T09:47:45Z</time><extensions><speed>0.474948</speed><course>262.235687</course><hAcc>2.324378</hAcc><vAcc>0.435705</vAcc></extensions></trkpt>
      <trkpt lon="-3.045403" lat="52.705888"><ele>308.834503</ele><time>2022-01-15T09:47:46Z</time><extensions><speed>0.659904</speed><course>261.231995</course><hAcc>2.298798</hAcc><vAcc>0.439470</vAcc></extensions></trkpt>
      <trkpt lon="-3.045412" lat="52.705887"><ele>308.943695</ele><time>2022-01-15T09:47:47Z</time><extensions><speed>0.541055</speed><course>260.041870</course><hAcc>2.327930</hAcc><vAcc>0.443418</vAcc></extensions></trkpt>
      <trkpt lon="-3.045421" lat="52.705886"><ele>309.054291</ele><time>2022-01-15T09:47:48Z</time><extensions><speed>0.595426</speed><course>259.774323</course><hAcc>2.335119</hAcc><vAcc>0.447238</vAcc></extensions></trkpt>
      <trkpt lon="-3.045432" lat="52.705885"><ele>309.158936</ele><time>2022-01-15T09:47:49Z</time><extensions><speed>0.909066</speed><course>260.634216</course><hAcc>2.300086</hAcc><vAcc>0.450654</vAcc></extensions></trkpt>
      <trkpt lon="-3.045446" lat="52.705883"><ele>309.258270</ele><time>2022-01-15T09:47:50Z</time><extensions><speed>0.967044</speed><course>259.972656</course><hAcc>2.309462</hAcc><vAcc>0.453408</vAcc></extensions></trkpt>
      <trkpt lon="-3.045459" lat="52.705882"><ele>309.362061</ele><time>2022-01-15T09:47:51Z</time><extensions><speed>0.834065</speed><course>260.386536</course><hAcc>2.355866</hAcc><vAcc>0.455173</vAcc></extensions></trkpt>
      <trkpt lon="-3.045471" lat="52.705880"><ele>309.467529</ele><time>2022-01-15T09:47:52Z</time><extensions><speed>0.765502</speed><course>260.057587</course><hAcc>2.394929</hAcc><vAcc>0.455595</vAcc></extensions></trkpt>
      <trkpt lon="-3.045482" lat="52.705879"><ele>309.572205</ele><time>2022-01-15T09:47:53Z</time><extensions><speed>0.721915</speed><course>258.206390</course><hAcc>2.424848</hAcc><vAcc>0.454508</vAcc></extensions></trkpt>
      <trkpt lon="-3.045492" lat="52.705878"><ele>309.686035</ele><time>2022-01-15T09:47:54Z</time><extensions><speed>0.704698</speed><course>254.924835</course><hAcc>2.448485</hAcc><vAcc>0.452093</vAcc></extensions></trkpt>
      <trkpt lon="-3.045502" lat="52.705876"><ele>309.800049</ele><time>2022-01-15T09:47:55Z</time><extensions><speed>0.724452</speed><course>251.699280</course><hAcc>2.465518</hAcc><vAcc>0.448808</vAcc></extensions></trkpt>
      <trkpt lon="-3.045513" lat="52.705873"><ele>309.913422</ele><time>2022-01-15T09:47:56Z</time><extensions><speed>0.776627</speed><course>249.907928</course><hAcc>2.471933</hAcc><vAcc>0.445198</vAcc></extensions></trkpt>
      <trkpt lon="-3.045525" lat="52.705871"><ele>310.016144</ele><time>2022-01-15T09:47:57Z</time><extensions><speed>0.884009</speed><course>249.883591</course><hAcc>2.460462</hAcc><vAcc>0.441714</vAcc></extensions></trkpt>
      <trkpt lon="-3.045539" lat="52.705868"><ele>310.117523</ele><time>2022-01-15T09:47:58Z</time><extensions><speed>1.047033</speed><course>251.410126</course><hAcc>2.446386</hAcc><vAcc>0.438568</vAcc></extensions></trkpt>
      <trkpt lon="-3.045554" lat="52.705865"><ele>310.215851</ele><time>2022-01-15T09:47:59Z</time><extensions><speed>1.069797</speed><course>253.713959</course><hAcc>2.472443</hAcc><vAcc>0.435887</vAcc></extensions></trkpt>
      <trkpt lon="-3.045569" lat="52.705863"><ele>310.313995</ele><time>2022-01-15T09:48:00Z</time><extensions><speed>0.979658</speed><course>257.178467</course><hAcc>2.516376</hAcc><vAcc>0.433723</vAcc></extensions></trkpt>
      <trkpt lon="-3.045583" lat="52.705860"><ele>310.391937</ele><time>2022-01-15T09:48:01Z</time><extensions><speed>0.944504</speed><course>254.349762</course><hAcc>2.484423</hAcc><vAcc>0.432325</vAcc></extensions></trkpt>
      <trkpt lon="-3.045596" lat="52.705858"><ele>310.489105</ele><time>2022-01-15T09:48:02Z</time><extensions><speed>0.861461</speed><course>251.770905</course><hAcc>2.450780</hAcc><vAcc>0.431972</vAcc></extensions></trkpt>
      <trkpt lon="-3.045607" lat="52.705856"><ele>310.579102</ele><time>2022-01-15T09:48:03Z</time><extensions><speed>0.719498</speed><course>250.290771</course><hAcc>2.457052</hAcc><vAcc>0.432756</vAcc></extensions></trkpt>
      <trkpt lon="-3.045617" lat="52.705854"><ele>310.663483</ele><time>2022-01-15T09:48:04Z</time><extensions><speed>0.700190</speed><course>251.752563</course><hAcc>2.471371</hAcc><vAcc>0.434699</vAcc></extensions></trkpt>
      <trkpt lon="-3.045628" lat="52.705852"><ele>310.746857</ele><time>2022-01-15T09:48:05Z</time><extensions><speed>0.739331</speed><course>253.869995</course><hAcc>2.478966</hAcc><vAcc>0.437721</vAcc></extensions></trkpt>
      <trkpt lon="-3.045639" lat="52.705850"><ele>310.820801</ele><time>2022-01-15T09:48:06Z</time><extensions><speed>0.797680</speed><course>254.800735</course><hAcc>2.472576</hAcc><vAcc>0.441604</vAcc></extensions></trkpt>
      <trkpt lon="-3.045652" lat="52.705848"><ele>310.894287</ele><time>2022-01-15T09:48:07Z</time><extensions><speed>0.916755</speed><course>254.899811</course><hAcc>2.448483</hAcc><vAcc>0.445971</vAcc></extensions></trkpt>
      <trkpt lon="-3.045665" lat="52.705846"><ele>310.968079</ele><time>2022-01-15T09:48:08Z</time><extensions><speed>0.901138</speed><course>254.384354</course><hAcc>2.440022</hAcc><vAcc>0.450337</vAcc></extensions></trkpt>
      <trkpt lon="-3.045678" lat="52.705843"><ele>311.042480</ele><time>2022-01-15T09:48:09Z</time><extensions><speed>0.784341</speed><course>253.597519</course><hAcc>2.451725</hAcc><vAcc>0.454205</vAcc></extensions></trkpt>
      <trkpt lon="-3.045688" lat="52.705842"><ele>311.116882</ele><time>2022-01-15T09:48:10Z</time><extensions><speed>0.613597</speed><course>253.642517</course><hAcc>2.471613</hAcc><vAcc>0.457299</vAcc></extensions></trkpt>
      <trkpt lon="-3.045697" lat="52.705840"><ele>311.187744</ele><time>2022-01-15T09:48:11Z</time><extensions><speed>0.539425</speed><course>255.622879</course><hAcc>2.478562</hAcc><vAcc>0.459739</vAcc></extensions></trkpt>
      <trkpt lon="-3.045705" lat="52.705839"><ele>311.260193</ele><time>2022-01-15T09:48:12Z</time><extensions><speed>0.584507</speed><course>258.754059</course><hAcc>2.457517</hAcc><vAcc>0.461964</vAcc></extensions></trkpt>
      <trkpt lon="-3.045714" lat="52.705838"><ele>311.336731</ele><time>2022-01-15T09:48:13Z</time><extensions><speed>0.620409</speed><course>261.030304</course><hAcc>2.435640</hAcc><vAcc>0.464381</vAcc></extensions></trkpt>
      <trkpt lon="-3.045724" lat="52.705837"><ele>311.412933</ele><time>2022-01-15T09:48:14Z</time><extensions><speed>0.633837</speed><course>262.039886</course><hAcc>2.414268</hAcc><vAcc>0.467212</vAcc></extensions></trkpt>
      <trkpt lon="-3.045734" lat="52.705836"><ele>311.495789</ele><time>2022-01-15T09:48:15Z</time><extensions><speed>0.648843</speed><course>261.698669</course><hAcc>2.385458</hAcc><vAcc>0.470483</vAcc></extensions></trkpt>
      <trkpt lon="-3.045743" lat="52.705835"><ele>311.584503</ele><time>2022-01-15T09:48:16Z</time><extensions><speed>0.617782</speed><course>260.183746</course><hAcc>2.363389</hAcc><vAcc>0.473948</vAcc></extensions></trkpt>
      <trkpt lon="-3.045752" lat="52.705834"><ele>311.668945</ele><time>2022-01-15T09:48:17Z</time><extensions><speed>0.588639</speed><course>257.908203</course><hAcc>2.342462</hAcc><vAcc>0.477176</vAcc></extensions></trkpt>
      <trkpt lon="-3.045761" lat="52.705833"><ele>311.758026</ele><time>2022-01-15T09:48:18Z</time><extensions><speed>0.571389</speed><course>255.702530</course><hAcc>2.320434</hAcc><vAcc>0.479732</vAcc></extensions></trkpt>
      <trkpt lon="-3.045770" lat="52.705832"><ele>311.843048</ele><time>2022-01-15T09:48:19Z</time><extensions><speed>0.565564</speed><course>254.484512</course><hAcc>2.299489</hAcc><vAcc>0.481410</vAcc></extensions></trkpt>
      <trkpt lon="-3.045778" lat="52.705830"><ele>311.922272</ele><time>2022-01-15T09:48:20Z</time><extensions><speed>0.571977</speed><course>254.714035</course><hAcc>2.281976</hAcc><vAcc>0.482349</vAcc></extensions></trkpt>
      <trkpt lon="-3.045787" lat="52.705829"><ele>311.995239</ele><time>2022-01-15T09:48:21Z</time><extensions><speed>0.571238</speed><course>256.387665</course><hAcc>2.273863</hAcc><vAcc>0.482980</vAcc></extensions></trkpt>
      <trkpt lon="-3.045796" lat="52.705828"><ele>312.060150</ele><time>2022-01-15T09:48:22Z</time><extensions><speed>0.574612</speed><course>258.955414</course><hAcc>2.269562</hAcc><vAcc>0.483882</vAcc></extensions></trkpt>
      <trkpt lon="-3.045805" lat="52.705827"><ele>312.125366</ele><time>2022-01-15T09:48:23Z</time><extensions><speed>0.580667</speed><course>261.975494</course><hAcc>2.262829</hAcc><vAcc>0.485581</vAcc></extensions></trkpt>
      <trkpt lon="-3.045813" lat="52.705827"><ele>312.196442</ele><time>2022-01-15T09:48:24Z</time><extensions><speed>0.574869</speed><course>265.651978</course><hAcc>2.253159</hAcc><vAcc>0.488399</vAcc></extensions></trkpt>
      <trkpt lon="-3.045823" lat="52.705827"><ele>312.275940</ele><time>2022-01-15T09:48:25Z</time><extensions><speed>0.619841</speed><course>269.835297</course><hAcc>2.230333</hAcc><vAcc>0.492464</vAcc></extensions></trkpt>
      <trkpt lon="-3.045832" lat="52.705827"><ele>312.362335</ele><time>2022-01-15T09:48:26Z</time><extensions><speed>0.657323</speed><course>274.322540</course><hAcc>2.213049</hAcc><vAcc>0.497766</vAcc></extensions></trkpt>
      <trkpt lon="-3.045842" lat="52.705828"><ele>312.459198</ele><time>2022-01-15T09:48:27Z</time><extensions><speed>0.666487</speed><course>278.911224</course><hAcc>2.214826</hAcc><vAcc>0.504151</vAcc></extensions></trkpt>
      <trkpt lon="-3.045852" lat="52.705829"><ele>312.563690</ele><time>2022-01-15T09:48:28Z</time><extensions><speed>0.663358</speed><course>283.058960</course><hAcc>2.223593</hAcc><vAcc>0.511356</vAcc></extensions></trkpt>
      <trkpt lon="-3.045862" lat="52.705830"><ele>312.696503</ele><time>2022-01-15T09:48:29Z</time><extensions><speed>0.771016</speed><course>285.770081</course><hAcc>2.213184</hAcc><vAcc>0.519063</vAcc></extensions></trkpt>
      <trkpt lon="-3.045874" lat="52.705833"><ele>312.841034</ele><time>2022-01-15T09:48:30Z</time><extensions><speed>0.899101</speed><course>286.069641</course><hAcc>2.201499</hAcc><vAcc>0.526973</vAcc></extensions></trkpt>
      <trkpt lon="-3.045888" lat="52.705835"><ele>312.999207</ele><time>2022-01-15T09:48:31Z</time><extensions><speed>1.067037</speed><course>283.854889</course><hAcc>2.186560</hAcc><vAcc>0.534802</vAcc></extensions></trkpt>
      <trkpt lon="-3.045906" lat="52.705837"><ele>313.174561</ele><time>2022-01-15T09:48:32Z</time><extensions><speed>1.283863</speed><course>279.997681</course><hAcc>2.167495</hAcc><vAcc>0.542190</vAcc></extensions></trkpt>
      <trkpt lon="-3.045924" lat="52.705839"><ele>313.366425</ele><time>2022-01-15T09:48:33Z</time><extensions><speed>1.270031</speed><course>276.001312</course><hAcc>2.162887</hAcc><vAcc>0.548677</vAcc></extensions></trkpt>
      <trkpt lon="-3.045943" lat="52.705839"><ele>313.563690</ele><time>2022-01-15T09:48:34Z</time><extensions><speed>1.188164</speed><course>273.015259</course><hAcc>2.148338</hAcc><vAcc>0.553800</vAcc></extensions></trkpt>
      <trkpt lon="-3.045960" lat="52.705840"><ele>313.768951</ele><time>2022-01-15T09:48:35Z</time><extensions><speed>1.085048</speed><course>270.440765</course><hAcc>2.132099</hAcc><vAcc>0.557146</vAcc></extensions></trkpt>
      <trkpt lon="-3.045975" lat="52.705840"><ele>313.980713</ele><time>2022-01-15T09:48:36Z</time><extensions><speed>0.928225</speed><course>268.883240</course><hAcc>2.127439</hAcc><vAcc>0.558374</vAcc></extensions></trkpt>
      <trkpt lon="-3.045987" lat="52.705840"><ele>314.198090</ele><time>2022-01-15T09:48:37Z</time><extensions><speed>0.716641</speed><course>268.208069</course><hAcc>2.136256</hAcc><vAcc>0.557286</vAcc></extensions></trkpt>
      <trkpt lon="-3.045997" lat="52.705839"><ele>314.414490</ele><time>2022-01-15T09:48:38Z</time><extensions><speed>0.652421</speed><course>267.392365</course><hAcc>2.140094</hAcc><vAcc>0.553787</vAcc></extensions></trkpt>
      <trkpt lon="-3.046007" lat="52.705839"><ele>314.631012</ele><time>2022-01-15T09:48:39Z</time><extensions><speed>0.605636</speed><course>267.345886</course><hAcc>2.149406</hAcc><vAcc>0.547886</vAcc></extensions></trkpt>
      <trkpt lon="-3.046016" lat="52.705839"><ele>314.847290</ele><time>2022-01-15T09:48:40Z</time><extensions><speed>0.589087</speed><course>267.992218</course><hAcc>2.156211</hAcc><vAcc>0.539728</vAcc></extensions></trkpt>
      <trkpt lon="-3.046024" lat="52.705839"><ele>315.054962</ele><time>2022-01-15T09:48:41Z</time><extensions><speed>0.553626</speed><course>270.022156</course><hAcc>2.171569</hAcc><vAcc>0.529695</vAcc></extensions></trkpt>
      <trkpt lon="-3.046032" lat="52.705839"><ele>315.260345</ele><time>2022-01-15T09:48:42Z</time><extensions><speed>0.504596</speed><course>274.474792</course><hAcc>2.198985</hAcc><vAcc>0.518324</vAcc></extensions></trkpt>
      <trkpt lon="-3.046040" lat="52.705840"><ele>315.453918</ele><time>2022-01-15T09:48:43Z</time><extensions><speed>0.462840</speed><course>280.813477</course><hAcc>2.231684</hAcc><vAcc>0.506443</vAcc></extensions></trkpt>
      <trkpt lon="-3.046046" lat="52.705841"><ele>315.655518</ele><time>2022-01-15T09:48:44Z</time><extensions><speed>0.430061</speed><course>288.222839</course><hAcc>2.261711</hAcc><vAcc>0.494810</vAcc></extensions></trkpt>
      <trkpt lon="-3.046052" lat="52.705843"><ele>315.858734</ele><time>2022-01-15T09:48:45Z</time><extensions><speed>0.417782</speed><course>296.971313</course><hAcc>2.281243</hAcc><vAcc>0.484104</vAcc></extensions></trkpt>
      <trkpt lon="-3.046058" lat="52.705845"><ele>316.046356</ele><time>2022-01-15T09:48:46Z</time><extensions><speed>0.424671</speed><course>306.704773</course><hAcc>2.289999</hAcc><vAcc>0.474687</vAcc></extensions></trkpt>
      <trkpt lon="-3.046063" lat="52.705848"><ele>316.241638</ele><time>2022-01-15T09:48:47Z</time><extensions><speed>0.484324</speed><course>314.558746</course><hAcc>2.289433</hAcc><vAcc>0.466680</vAcc></extensions></trkpt>
      <trkpt lon="-3.046068" lat="52.705852"><ele>316.453033</ele><time>2022-01-15T09:48:48Z</time><extensions><speed>0.500226</speed><course>319.919647</course><hAcc>2.307045</hAcc><vAcc>0.459869</vAcc></extensions></trkpt>
      <trkpt lon="-3.046073" lat="52.705856"><ele>316.695099</ele><time>2022-01-15T09:48:49Z</time><extensions><speed>0.540814</speed><course>322.938782</course><hAcc>2.322623</hAcc><vAcc>0.454031</vAcc></extensions></trkpt>
      <trkpt lon="-3.046078" lat="52.705860"><ele>316.969543</ele><time>2022-01-15T09:48:50Z</time><extensions><speed>0.601110</speed><course>324.068939</course><hAcc>2.333251</hAcc><vAcc>0.449102</vAcc></extensions></trkpt>
      <trkpt lon="-3.046084" lat="52.705865"><ele>317.285950</ele><time>2022-01-15T09:48:51Z</time><extensions><speed>0.644383</speed><course>324.970428</course><hAcc>2.347402</hAcc><vAcc>0.445118</vAcc></extensions></trkpt>
      <trkpt lon="-3.046090" lat="52.705870"><ele>317.622650</ele><time>2022-01-15T09:48:52Z</time><extensions><speed>0.707007</speed><course>325.860168</course><hAcc>2.352933</hAcc><vAcc>0.442199</vAcc></extensions></trkpt>
      <trkpt lon="-3.046097" lat="52.705876"><ele>317.996582</ele><time>2022-01-15T09:48:53Z</time><extensions><speed>0.813715</speed><course>326.495148</course><hAcc>2.341247</hAcc><vAcc>0.440240</vAcc></extensions></trkpt>
      <trkpt lon="-3.046104" lat="52.705883"><ele>318.384033</ele><time>2022-01-15T09:48:54Z</time><extensions><speed>0.923687</speed><course>326.185516</course><hAcc>2.327084</hAcc><vAcc>0.438812</vAcc></extensions></trkpt>
      <trkpt lon="-3.046112" lat="52.705890"><ele>318.776123</ele><time>2022-01-15T09:48:55Z</time><extensions><speed>0.834805</speed><course>328.743591</course><hAcc>2.337936</hAcc><vAcc>0.437485</vAcc></extensions></trkpt>
      <trkpt lon="-3.046119" lat="52.705896"><ele>319.168365</ele><time>2022-01-15T09:48:56Z</time><extensions><speed>0.773691</speed><course>327.682953</course><hAcc>2.347775</hAcc><vAcc>0.435991</vAcc></extensions></trkpt>
      <trkpt lon="-3.046126" lat="52.705901"><ele>319.557373</ele><time>2022-01-15T09:48:57Z</time><extensions><speed>0.672739</speed><course>324.324799</course><hAcc>2.359977</hAcc><vAcc>0.434388</vAcc></extensions></trkpt>
      <trkpt lon="-3.046132" lat="52.705906"><ele>319.950928</ele><time>2022-01-15T09:48:58Z</time><extensions><speed>0.597536</speed><course>319.890259</course><hAcc>2.369599</hAcc><vAcc>0.432870</vAcc></extensions></trkpt>
      <trkpt lon="-3.046138" lat="52.705910"><ele>320.315125</ele><time>2022-01-15T09:48:59Z</time><extensions><speed>0.548100</speed><course>314.698334</course><hAcc>2.375686</hAcc><vAcc>0.431690</vAcc></extensions></trkpt>
      <trkpt lon="-3.046144" lat="52.705913"><ele>320.653412</ele><time>2022-01-15T09:49:00Z</time><extensions><speed>0.528617</speed><course>308.595703</course><hAcc>2.376525</hAcc><vAcc>0.430961</vAcc></extensions></trkpt>
      <trkpt lon="-3.046151" lat="52.705916"><ele>320.961853</ele><time>2022-01-15T09:49:01Z</time><extensions><speed>0.565742</speed><course>301.878174</course><hAcc>2.369878</hAcc><vAcc>0.430650</vAcc></extensions></trkpt>
      <trkpt lon="-3.046160" lat="52.705918"><ele>321.237732</ele><time>2022-01-15T09:49:02Z</time><extensions><speed>0.606365</speed><course>295.361725</course><hAcc>2.366793</hAcc><vAcc>0.430804</vAcc></extensions></trkpt>
      <trkpt lon="-3.046169" lat="52.705921"><ele>321.483185</ele><time>2022-01-15T09:49:03Z</time><extensions><speed>0.665176</speed><course>289.614868</course><hAcc>2.368566</hAcc><vAcc>0.431500</vAcc></extensions></trkpt>
      <trkpt lon="-3.046179" lat="52.705922"><ele>321.719391</ele><time>2022-01-15T09:49:04Z</time><extensions><speed>0.671606</speed><course>283.683533</course><hAcc>2.384487</hAcc><vAcc>0.432971</vAcc></extensions></trkpt>
      <trkpt lon="-3.046190" lat="52.705923"><ele>321.936401</ele><time>2022-01-15T09:49:05Z</time><extensions><speed>0.722707</speed><course>278.561218</course><hAcc>2.388043</hAcc><vAcc>0.435541</vAcc></extensions></trkpt>
      <trkpt lon="-3.046202" lat="52.705924"><ele>322.134766</ele><time>2022-01-15T09:49:06Z</time><extensions><speed>0.844923</speed><course>275.005615</course><hAcc>2.378535</hAcc><vAcc>0.439458</vAcc></extensions></trkpt>
      <trkpt lon="-3.046214" lat="52.705924"><ele>322.316376</ele><time>2022-01-15T09:49:07Z</time><extensions><speed>0.727938</speed><course>273.715485</course><hAcc>2.390743</hAcc><vAcc>0.444882</vAcc></extensions></trkpt>
      <trkpt lon="-3.046226" lat="52.705925"><ele>322.483429</ele><time>2022-01-15T09:49:08Z</time><extensions><speed>0.755010</speed><course>272.471283</course><hAcc>2.378363</hAcc><vAcc>0.451805</vAcc></extensions></trkpt>
      <trkpt lon="-3.046238" lat="52.705924"><ele>322.642120</ele><time>2022-01-15T09:49:09Z</time><extensions><speed>0.794207</speed><course>270.760223</course><hAcc>2.354606</hAcc><vAcc>0.460066</vAcc></extensions></trkpt>
      <trkpt lon="-3.046251" lat="52.705924"><ele>322.794220</ele><time>2022-01-15T09:49:10Z</time><extensions><speed>0.853648</speed><course>268.085419</course><hAcc>2.320905</hAcc><vAcc>0.469386</vAcc></extensions></trkpt>
      <trkpt lon="-3.046265" lat="52.705923"><ele>322.939728</ele><time>2022-01-15T09:49:11Z</time><extensions><speed>0.953295</speed><course>264.143585</course><hAcc>2.271085</hAcc><vAcc>0.479383</vAcc></extensions></trkpt>
      <trkpt lon="-3.046280" lat="52.705922"><ele>323.081909</ele><time>2022-01-15T09:49:12Z</time><extensions><speed>1.018574</speed><course>259.450195</course><hAcc>2.220049</hAcc><vAcc>0.489554</vAcc></extensions></trkpt>
      <trkpt lon="-3.046295" lat="52.705919"><ele>323.221222</ele><time>2022-01-15T09:49:13Z</time><extensions><speed>1.055740</speed><course>254.126389</course><hAcc>2.185825</hAcc><vAcc>0.499280</vAcc></extensions></trkpt>
      <trkpt lon="-3.046309" lat="52.705917"><ele>323.360748</ele><time>2022-01-15T09:49:14Z</time><extensions><speed>0.843856</speed><course>251.164749</course><hAcc>2.187266</hAcc><vAcc>0.507986</vAcc></extensions></trkpt>
      <trkpt lon="-3.046321" lat="52.705914"><ele>323.502625</ele><time>2022-01-15T09:49:15Z</time><extensions><speed>0.813832</speed><course>247.224380</course><hAcc>2.176375</hAcc><vAcc>0.515262</vAcc></extensions></trkpt>
      <trkpt lon="-3.046332" lat="52.705911"><ele>323.648468</ele><time>2022-01-15T09:49:16Z</time><extensions><speed>0.797083</speed><course>243.221100</course><hAcc>2.170508</hAcc><vAcc>0.520879</vAcc></extensions></trkpt>
      <trkpt lon="-3.046342" lat="52.705907"><ele>323.795959</ele><time>2022-01-15T09:49:17Z</time><extensions><speed>0.830720</speed><course>239.790558</course><hAcc>2.172037</hAcc><vAcc>0.524816</vAcc></extensions></trkpt>
      <trkpt lon="-3.046354" lat="52.705903"><ele>323.942810</ele><time>2022-01-15T09:49:18Z</time><extensions><speed>0.927304</speed><course>237.403214</course><hAcc>2.170413</hAcc><vAcc>0.527186</vAcc></extensions></trkpt>
      <trkpt lon="-3.046367" lat="52.705898"><ele>324.095886</ele><time>2022-01-15T09:49:19Z</time><extensions><speed>1.238309</speed><course>236.300568</course><hAcc>2.152196</hAcc><vAcc>0.528093</vAcc></extensions></trkpt>
      <trkpt lon="-3.046383" lat="52.705892"><ele>324.266541</ele><time>2022-01-15T09:49:20Z</time><extensions><speed>1.282133</speed><course>237.052887</course><hAcc>2.172693</hAcc><vAcc>0.527572</vAcc></extensions></trkpt>
      <trkpt lon="-3.046398" lat="52.705886"><ele>324.435089</ele><time>2022-01-15T09:49:21Z</time><extensions><speed>1.101517</speed><course>237.338013</course><hAcc>2.221863</hAcc><vAcc>0.525763</vAcc></extensions></trkpt>
      <trkpt lon="-3.046411" lat="52.705881"><ele>324.600494</ele><time>2022-01-15T09:49:22Z</time><extensions><speed>1.014174</speed><course>238.728363</course><hAcc>2.255198</hAcc><vAcc>0.522935</vAcc></extensions></trkpt>
      <trkpt lon="-3.046424" lat="52.705876"><ele>324.759064</ele><time>2022-01-15T09:49:23Z</time><extensions><speed>0.969304</speed><course>241.150574</course><hAcc>2.266649</hAcc><vAcc>0.519376</vAcc></extensions></trkpt>
      <trkpt lon="-3.046437" lat="52.705872"><ele>324.915741</ele><time>2022-01-15T09:49:24Z</time><extensions><speed>1.013285</speed><course>244.566666</course><hAcc>2.261654</hAcc><vAcc>0.515287</vAcc></extensions></trkpt>
      <trkpt lon="-3.046451" lat="52.705869"><ele>325.063873</ele><time>2022-01-15T09:49:25Z</time><extensions><speed>0.927191</speed><course>248.319092</course><hAcc>2.273993</hAcc><vAcc>0.510765</vAcc></extensions></trkpt>
      <trkpt lon="-3.046463" lat="52.705866"><ele>325.209015</ele><time>2022-01-15T09:49:26Z</time><extensions><speed>0.786515</speed><course>251.115494</course><hAcc>2.304365</hAcc><vAcc>0.505882</vAcc></extensions></trkpt>
      <trkpt lon="-3.046472" lat="52.705864"><ele>325.347015</ele><time>2022-01-15T09:49:27Z</time><extensions><speed>0.590585</speed><course>251.368454</course><hAcc>2.343696</hAcc><vAcc>0.500797</vAcc></extensions></trkpt>
      <trkpt lon="-3.046481" lat="52.705863"><ele>325.484985</ele><time>2022-01-15T09:49:28Z</time><extensions><speed>0.552123</speed><course>252.626892</course><hAcc>2.359156</hAcc><vAcc>0.495893</vAcc></extensions></trkpt>
      <trkpt lon="-3.046489" lat="52.705861"><ele>325.611603</ele><time>2022-01-15T09:49:29Z</time><extensions><speed>0.640094</speed><course>255.188797</course><hAcc>2.356446</hAcc><vAcc>0.491582</vAcc></extensions></trkpt>
      <trkpt lon="-3.046498" lat="52.705860"><ele>325.736298</ele><time>2022-01-15T09:49:30Z</time><extensions><speed>0.566397</speed><course>259.157501</course><hAcc>2.359855</hAcc><vAcc>0.488062</vAcc></extensions></trkpt>
      <trkpt lon="-3.046506" lat="52.705859"><ele>325.852936</ele><time>2022-01-15T09:49:31Z</time><extensions><speed>0.554172</speed><course>263.650238</course><hAcc>2.369565</hAcc><vAcc>0.485125</vAcc></extensions></trkpt>
      <trkpt lon="-3.046515" lat="52.705859"><ele>325.972931</ele><time>2022-01-15T09:49:32Z</time><extensions><speed>0.572564</speed><course>267.358612</course><hAcc>2.381961</hAcc><vAcc>0.482421</vAcc></extensions></trkpt>
      <trkpt lon="-3.046524" lat="52.705859"><ele>326.097778</ele><time>2022-01-15T09:49:33Z</time><extensions><speed>0.627987</speed><course>270.572113</course><hAcc>2.389298</hAcc><vAcc>0.479706</vAcc></extensions></trkpt>
      <trkpt lon="-3.046534" lat="52.705859"><ele>326.238861</ele><time>2022-01-15T09:49:34Z</time><extensions><speed>0.718185</speed><course>273.088104</course><hAcc>2.400346</hAcc><vAcc>0.476924</vAcc></extensions></trkpt>
      <trkpt lon="-3.046545" lat="52.705860"><ele>326.384705</ele><time>2022-01-15T09:49:35Z</time><extensions><speed>0.664580</speed><course>273.949463</course><hAcc>2.441686</hAcc><vAcc>0.474150</vAcc></extensions></trkpt>
      <trkpt lon="-3.046554" lat="52.705860"><ele>326.547424</ele><time>2022-01-15T09:49:36Z</time><extensions><speed>0.514890</speed><course>281.816223</course><hAcc>2.490559</hAcc><vAcc>0.471531</vAcc></extensions></trkpt>
      <trkpt lon="-3.046561" lat="52.705862"><ele>326.719635</ele><time>2022-01-15T09:49:36Z</time><extensions><speed>0.484072</speed><course>288.597290</course><hAcc>2.516352</hAcc><vAcc>0.469305</vAcc></extensions></trkpt>
      <trkpt lon="-3.046568" lat="52.705863"><ele>326.906708</ele><time>2022-01-15T09:49:37Z</time><extensions><speed>0.495020</speed><course>293.307037</course><hAcc>2.530510</hAcc><vAcc>0.467694</vAcc></extensions></trkpt>
      <trkpt lon="-3.046575" lat="52.705865"><ele>327.109192</ele><time>2022-01-15T09:49:39Z</time><extensions><speed>0.519740</speed><course>296.573456</course><hAcc>2.540984</hAcc><vAcc>0.466844</vAcc></extensions></trkpt>
      <trkpt lon="-3.046583" lat="52.705868"><ele>327.317322</ele><time>2022-01-15T09:49:40Z</time><extensions><speed>0.544597</speed><course>298.564789</course><hAcc>2.546638</hAcc><vAcc>0.466775</vAcc></extensions></trkpt>
      <trkpt lon="-3.046590" lat="52.705870"><ele>327.549255</ele><time>2022-01-15T09:49:41Z</time><extensions><speed>0.564942</speed><course>299.646515</course><hAcc>2.545542</hAcc><vAcc>0.467452</vAcc></extensions></trkpt>
      <trkpt lon="-3.046597" lat="52.705873"><ele>327.788574</ele><time>2022-01-15T09:49:42Z</time><extensions><speed>0.573645</speed><course>300.376770</course><hAcc>2.537878</hAcc><vAcc>0.468812</vAcc></extensions></trkpt>
      <trkpt lon="-3.046605" lat="52.705875"><ele>328.038788</ele><time>2022-01-15T09:49:42Z</time><extensions><speed>0.561851</speed><course>300.251648</course><hAcc>2.525802</hAcc><vAcc>0.470792</vAcc></extensions></trkpt>
      <trkpt lon="-3.046612" lat="52.705878"><ele>328.299133</ele><time>2022-01-15T09:49:43Z</time><extensions><speed>0.534866</speed><course>299.206207</course><hAcc>2.509903</hAcc><vAcc>0.473384</vAcc></extensions></trkpt>
      <trkpt lon="-3.046619" lat="52.705880"><ele>328.568542</ele><time>2022-01-15T09:49:44Z</time><extensions><speed>0.505841</speed><course>296.960236</course><hAcc>2.488456</hAcc><vAcc>0.476585</vAcc></extensions></trkpt>
      <trkpt lon="-3.046625" lat="52.705882"><ele>328.841827</ele><time>2022-01-15T09:49:45Z</time><extensions><speed>0.475169</speed><course>293.880859</course><hAcc>2.463370</hAcc><vAcc>0.480249</vAcc></extensions></trkpt>
      <trkpt lon="-3.046632" lat="52.705883"><ele>329.117035</ele><time>2022-01-15T09:49:46Z</time><extensions><speed>0.436406</speed><course>291.330963</course><hAcc>2.436360</hAcc><vAcc>0.484078</vAcc></extensions></trkpt>
      <trkpt lon="-3.046637" lat="52.705885"><ele>329.392670</ele><time>2022-01-15T09:49:47Z</time><extensions><speed>0.382552</speed><course>289.510437</course><hAcc>2.409610</hAcc><vAcc>0.487634</vAcc></extensions></trkpt>
      <trkpt lon="-3.046642" lat="52.705886"><ele>329.658844</ele><time>2022-01-15T09:49:48Z</time><extensions><speed>0.328465</speed><course>287.973206</course><hAcc>2.382617</hAcc><vAcc>0.490409</vAcc></extensions></trkpt>
      <trkpt lon="-3.046647" lat="52.705886"><ele>329.924866</ele><time>2022-01-15T09:49:49Z</time><extensions><speed>0.266612</speed><course>286.111023</course><hAcc>2.368170</hAcc><vAcc>0.491933</vAcc></extensions></trkpt>
      <trkpt lon="-3.046650" lat="52.705887"><ele>330.194397</ele><time>2022-01-15T09:49:50Z</time><extensions><speed>0.193793</speed><course>282.138031</course><hAcc>2.371653</hAcc><vAcc>0.491877</vAcc></extensions></trkpt>
      <trkpt lon="-3.046653" lat="52.705887"><ele>330.443512</ele><time>2022-01-15T09:49:51Z</time><extensions><speed>0.158131</speed><course>270.109070</course><hAcc>2.367238</hAcc><vAcc>0.490094</vAcc></extensions></trkpt>
      <trkpt lon="-3.046656" lat="52.705887"><ele>330.674866</ele><time>2022-01-15T09:49:52Z</time><extensions><speed>0.152240</speed><course>253.101639</course><hAcc>2.366487</hAcc><vAcc>0.486685</vAcc></extensions></trkpt>
      <trkpt lon="-3.046659" lat="52.705886"><ele>330.916412</ele><time>2022-01-15T09:49:53Z</time><extensions><speed>0.171574</speed><course>244.064850</course><hAcc>2.374379</hAcc><vAcc>0.482027</vAcc></extensions></trkpt>
      <trkpt lon="-3.046662" lat="52.705885"><ele>331.118225</ele><time>2022-01-15T09:49:54Z</time><extensions><speed>0.203791</speed><course>242.477692</course><hAcc>2.391442</hAcc><vAcc>0.476748</vAcc></extensions></trkpt>
      <trkpt lon="-3.046665" lat="52.705884"><ele>331.296356</ele><time>2022-01-15T09:49:55Z</time><extensions><speed>0.255759</speed><course>243.027725</course><hAcc>2.405761</hAcc><vAcc>0.471605</vAcc></extensions></trkpt>
      <trkpt lon="-3.046670" lat="52.705883"><ele>331.473022</ele><time>2022-01-15T09:49:56Z</time><extensions><speed>0.331514</speed><course>244.654633</course><hAcc>2.413524</hAcc><vAcc>0.467141</vAcc></extensions></trkpt>
      <trkpt lon="-3.046675" lat="52.705881"><ele>331.643005</ele><time>2022-01-15T09:49:57Z</time><extensions><speed>0.440094</speed><course>247.037933</course><hAcc>2.417527</hAcc><vAcc>0.463588</vAcc></extensions></trkpt>
      <trkpt lon="-3.046683" lat="52.705880"><ele>331.802338</ele><time>2022-01-15T09:49:58Z</time><extensions><speed>0.556598</speed><course>249.046570</course><hAcc>2.435071</hAcc><vAcc>0.461014</vAcc></extensions></trkpt>
      <trkpt lon="-3.046691" lat="52.705878"><ele>331.946777</ele><time>2022-01-15T09:49:59Z</time><extensions><speed>0.559647</speed><course>252.519547</course><hAcc>2.473387</hAcc><vAcc>0.459344</vAcc></extensions></trkpt>
      <trkpt lon="-3.046698" lat="52.705877"><ele>332.078613</ele><time>2022-01-15T09:50:00Z</time><extensions><speed>0.489397</speed><course>253.827240</course><hAcc>2.507325</hAcc><vAcc>0.458411</vAcc></extensions></trkpt>
      <trkpt lon="-3.046708" lat="52.705875"><ele>332.212921</ele><time>2022-01-15T09:50:01Z</time><extensions><speed>0.833114</speed><course>254.281921</course><hAcc>2.462942</hAcc><vAcc>0.457999</vAcc></extensions></trkpt>
      <trkpt lon="-3.046721" lat="52.705873"><ele>332.335175</ele><time>2022-01-15T09:50:02Z</time><extensions><speed>0.980307</speed><course>255.660339</course><hAcc>2.438091</hAcc><vAcc>0.457938</vAcc></extensions></trkpt>
      <trkpt lon="-3.046737" lat="52.705871"><ele>332.465912</ele><time>2022-01-15T09:50:03Z</time><extensions><speed>1.022952</speed><course>258.276031</course><hAcc>2.435869</hAcc><vAcc>0.458127</vAcc></extensions></trkpt>
      <trkpt lon="-3.046752" lat="52.705869"><ele>332.590820</ele><time>2022-01-15T09:50:04Z</time><extensions><speed>1.019190</speed><course>257.798645</course><hAcc>2.445018</hAcc><vAcc>0.458529</vAcc></extensions></trkpt>
      <trkpt lon="-3.046766" lat="52.705867"><ele>332.718872</ele><time>2022-01-15T09:50:05Z</time><extensions><speed>0.896055</speed><course>256.930084</course><hAcc>2.469465</hAcc><vAcc>0.459108</vAcc></extensions></trkpt>
      <trkpt lon="-3.046779" lat="52.705866"><ele>332.851440</ele><time>2022-01-15T09:50:06Z</time><extensions><speed>0.755911</speed><course>260.222015</course><hAcc>2.478790</hAcc><vAcc>0.459823</vAcc></extensions></trkpt>
      <trkpt lon="-3.046789" lat="52.705865"><ele>332.984650</ele><time>2022-01-15T09:50:07Z</time><extensions><speed>0.583318</speed><course>266.673035</course><hAcc>2.484151</hAcc><vAcc>0.460625</vAcc></extensions></trkpt>
      <trkpt lon="-3.046798" lat="52.705865"><ele>333.119812</ele><time>2022-01-15T09:50:08Z</time><extensions><speed>0.578874</speed><course>270.814606</course><hAcc>2.467651</hAcc><vAcc>0.461373</vAcc></extensions></trkpt>
      <trkpt lon="-3.046807" lat="52.705865"><ele>333.258179</ele><time>2022-01-15T09:50:09Z</time><extensions><speed>0.601308</speed><course>271.074615</course><hAcc>2.455601</hAcc><vAcc>0.462028</vAcc></extensions></trkpt>
      <trkpt lon="-3.046816" lat="52.705865"><ele>333.401672</ele><time>2022-01-15T09:50:10Z</time><extensions><speed>0.631624</speed><course>269.778625</course><hAcc>2.456227</hAcc><vAcc>0.462620</vAcc></extensions></trkpt>
      <trkpt lon="-3.046826" lat="52.705865"><ele>333.547455</ele><time>2022-01-15T09:50:11Z</time><extensions><speed>0.662829</speed><course>268.095825</course><hAcc>2.466392</hAcc><vAcc>0.463193</vAcc></extensions></trkpt>
      <trkpt lon="-3.046836" lat="52.705865"><ele>333.700470</ele><time>2022-01-15T09:50:12Z</time><extensions><speed>0.671826</speed><course>266.913666</course><hAcc>2.488103</hAcc><vAcc>0.463777</vAcc></extensions></trkpt>
      <trkpt lon="-3.046846" lat="52.705864"><ele>333.858246</ele><time>2022-01-15T09:50:13Z</time><extensions><speed>0.632548</speed><course>266.711792</course><hAcc>2.504385</hAcc><vAcc>0.464383</vAcc></extensions></trkpt>
      <trkpt lon="-3.046857" lat="52.705864"><ele>334.021057</ele><time>2022-01-15T09:50:14Z</time><extensions><speed>0.841712</speed><course>266.845337</course><hAcc>2.461195</hAcc><vAcc>0.464994</vAcc></extensions></trkpt>
      <trkpt lon="-3.046870" lat="52.705864"><ele>334.179016</ele><time>2022-01-15T09:50:15Z</time><extensions><speed>0.863804</speed><course>268.157104</course><hAcc>2.432706</hAcc><vAcc>0.465564</vAcc></extensions></trkpt>
      <trkpt lon="-3.046882" lat="52.705863"><ele>334.334991</ele><time>2022-01-15T09:50:16Z</time><extensions><speed>0.736869</speed><course>267.867462</course><hAcc>2.438540</hAcc><vAcc>0.466047</vAcc></extensions></trkpt>
      <trkpt lon="-3.046892" lat="52.705863"><ele>334.485321</ele><time>2022-01-15T09:50:17Z</time><extensions><speed>0.520727</speed><course>267.498413</course><hAcc>2.461668</hAcc><vAcc>0.466424</vAcc></extensions></trkpt>
      <trkpt lon="-3.046899" lat="52.705863"><ele>334.639374</ele><time>2022-01-15T09:50:18Z</time><extensions><speed>0.423256</speed><course>266.754852</course><hAcc>2.467844</hAcc><vAcc>0.466589</vAcc></extensions></trkpt>
      <trkpt lon="-3.046905" lat="52.705862"><ele>334.776917</ele><time>2022-01-15T09:50:19Z</time><extensions><speed>0.396200</speed><course>264.339569</course><hAcc>2.461112</hAcc><vAcc>0.466431</vAcc></extensions></trkpt>
      <trkpt lon="-3.046912" lat="52.705862"><ele>334.942719</ele><time>2022-01-15T09:50:20Z</time><extensions><speed>0.411491</speed><course>263.659363</course><hAcc>2.448087</hAcc><vAcc>0.465916</vAcc></extensions></trkpt>
      <trkpt lon="-3.046919" lat="52.705862"><ele>335.101471</ele><time>2022-01-15T09:50:21Z</time><extensions><speed>0.450744</speed><course>264.901581</course><hAcc>2.429558</hAcc><vAcc>0.465064</vAcc></extensions></trkpt>
      <trkpt lon="-3.046926" lat="52.705862"><ele>335.254089</ele><time>2022-01-15T09:50:22Z</time><extensions><speed>0.486457</speed><course>267.301483</course><hAcc>2.408473</hAcc><vAcc>0.463893</vAcc></extensions></trkpt>
      <trkpt lon="-3.046934" lat="52.705862"><ele>335.402802</ele><time>2022-01-15T09:50:23Z</time><extensions><speed>0.515394</speed><course>269.240021</course><hAcc>2.385323</hAcc><vAcc>0.462437</vAcc></extensions></trkpt>
      <trkpt lon="-3.046943" lat="52.705862"><ele>335.553589</ele><time>2022-01-15T09:50:24Z</time><extensions><speed>0.519151</speed><course>270.500732</course><hAcc>2.367440</hAcc><vAcc>0.460726</vAcc></extensions></trkpt>
      <trkpt lon="-3.046951" lat="52.705862"><ele>335.700531</ele><time>2022-01-15T09:50:25Z</time><extensions><speed>0.489550</speed><course>271.476105</course><hAcc>2.360428</hAcc><vAcc>0.458871</vAcc></extensions></trkpt>
      <trkpt lon="-3.046959" lat="52.705862"><ele>335.854370</ele><time>2022-01-15T09:50:26Z</time><extensions><speed>0.487005</speed><course>271.803040</course><hAcc>2.352216</hAcc><vAcc>0.457061</vAcc></extensions></trkpt>
      <trkpt lon="-3.046966" lat="52.705862"><ele>336.004486</ele><time>2022-01-15T09:50:27Z</time><extensions><speed>0.486007</speed><course>271.979919</course><hAcc>2.348184</hAcc><vAcc>0.455525</vAcc></extensions></trkpt>
      <trkpt lon="-3.046974" lat="52.705862"><ele>336.148407</ele><time>2022-01-15T09:50:28Z</time><extensions><speed>0.491787</speed><course>272.674744</course><hAcc>2.345807</hAcc><vAcc>0.454546</vAcc></extensions></trkpt>
      <trkpt lon="-3.046983" lat="52.705862"><ele>336.291077</ele><time>2022-01-15T09:50:29Z</time><extensions><speed>0.568511</speed><course>274.006439</course><hAcc>2.333167</hAcc><vAcc>0.454302</vAcc></extensions></trkpt>
      <trkpt lon="-3.046992" lat="52.705862"><ele>336.427521</ele><time>2022-01-15T09:50:30Z</time><extensions><speed>0.606721</speed><course>273.536255</course><hAcc>2.332386</hAcc><vAcc>0.454860</vAcc></extensions></trkpt>
      <trkpt lon="-3.047001" lat="52.705862"><ele>336.562561</ele><time>2022-01-15T09:50:31Z</time><extensions><speed>0.657745</speed><course>269.845276</course><hAcc>2.328700</hAcc><vAcc>0.456101</vAcc></extensions></trkpt>
      <trkpt lon="-3.047012" lat="52.705862"><ele>336.697693</ele><time>2022-01-15T09:50:32Z</time><extensions><speed>0.717888</speed><course>264.827148</course><hAcc>2.317729</hAcc><vAcc>0.457745</vAcc></extensions></trkpt>
      <trkpt lon="-3.047023" lat="52.705861"><ele>336.832367</ele><time>2022-01-15T09:50:33Z</time><extensions><speed>0.755799</speed><course>260.469574</course><hAcc>2.308574</hAcc><vAcc>0.459413</vAcc></extensions></trkpt>
      <trkpt lon="-3.047034" lat="52.705860"><ele>336.970886</ele><time>2022-01-15T09:50:34Z</time><extensions><speed>0.773038</speed><course>257.649658</course><hAcc>2.305068</hAcc><vAcc>0.460661</vAcc></extensions></trkpt>
      <trkpt lon="-3.047046" lat="52.705858"><ele>337.106995</ele><time>2022-01-15T09:50:35Z</time><extensions><speed>0.746419</speed><course>255.595367</course><hAcc>2.310002</hAcc><vAcc>0.461136</vAcc></extensions></trkpt>
      <trkpt lon="-3.047057" lat="52.705856"><ele>337.248718</ele><time>2022-01-15T09:50:36Z</time><extensions><speed>0.727601</speed><course>253.275406</course><hAcc>2.313821</hAcc><vAcc>0.460747</vAcc></extensions></trkpt>
      <trkpt lon="-3.047067" lat="52.705854"><ele>337.386169</ele><time>2022-01-15T09:50:37Z</time><extensions><speed>0.710268</speed><course>250.341400</course><hAcc>2.318929</hAcc><vAcc>0.459722</vAcc></extensions></trkpt>
      <trkpt lon="-3.047077" lat="52.705852"><ele>337.518494</ele><time>2022-01-15T09:50:38Z</time><extensions><speed>0.664634</speed><course>247.608658</course><hAcc>2.333966</hAcc><vAcc>0.458540</vAcc></extensions></trkpt>
      <trkpt lon="-3.047086" lat="52.705849"><ele>337.645416</ele><time>2022-01-15T09:50:39Z</time><extensions><speed>0.623188</speed><course>246.267578</course><hAcc>2.353190</hAcc><vAcc>0.457747</vAcc></extensions></trkpt>
      <trkpt lon="-3.047095" lat="52.705847"><ele>337.769073</ele><time>2022-01-15T09:50:40Z</time><extensions><speed>0.601777</speed><course>246.858734</course><hAcc>2.370286</hAcc><vAcc>0.457714</vAcc></extensions></trkpt>
      <trkpt lon="-3.047103" lat="52.705845"><ele>337.878662</ele><time>2022-01-15T09:50:41Z</time><extensions><speed>0.582385</speed><course>248.978256</course><hAcc>2.387649</hAcc><vAcc>0.458498</vAcc></extensions></trkpt>
      <trkpt lon="-3.047111" lat="52.705844"><ele>337.980103</ele><time>2022-01-15T09:50:42Z</time><extensions><speed>0.556261</speed><course>252.087418</course><hAcc>2.407210</hAcc><vAcc>0.459858</vAcc></extensions></trkpt>
      <trkpt lon="-3.047119" lat="52.705842"><ele>338.074310</ele><time>2022-01-15T09:50:43Z</time><extensions><speed>0.526852</speed><course>255.551727</course><hAcc>2.424926</hAcc><vAcc>0.461474</vAcc></extensions></trkpt>
      <trkpt lon="-3.047126" lat="52.705841"><ele>338.150726</ele><time>2022-01-15T09:50:44Z</time><extensions><speed>0.499497</speed><course>259.160248</course><hAcc>2.436215</hAcc><vAcc>0.463054</vAcc></extensions></trkpt>
      <trkpt lon="-3.047133" lat="52.705841"><ele>338.217834</ele><time>2022-01-15T09:50:45Z</time><extensions><speed>0.460380</speed><course>262.719543</course><hAcc>2.442753</hAcc><vAcc>0.464332</vAcc></extensions></trkpt>
      <trkpt lon="-3.047140" lat="52.705840"><ele>338.276428</ele><time>2022-01-15T09:50:46Z</time><extensions><speed>0.426975</speed><course>266.779480</course><hAcc>2.444561</hAcc><vAcc>0.465073</vAcc></extensions></trkpt>
      <trkpt lon="-3.047146" lat="52.705840"><ele>338.327576</ele><time>2022-01-15T09:50:47Z</time><extensions><speed>0.368158</speed><course>271.609192</course><hAcc>2.454528</hAcc><vAcc>0.465105</vAcc></extensions></trkpt>
      <trkpt lon="-3.047151" lat="52.705841"><ele>338.373352</ele><time>2022-01-15T09:50:48Z</time><extensions><speed>0.306153</speed><course>276.639313</course><hAcc>2.464786</hAcc><vAcc>0.464368</vAcc></extensions></trkpt>
      <trkpt lon="-3.047155" lat="52.705841"><ele>338.414490</ele><time>2022-01-15T09:50:49Z</time><extensions><speed>0.254278</speed><course>281.052948</course><hAcc>2.463110</hAcc><vAcc>0.462864</vAcc></extensions></trkpt>
      <trkpt lon="-3.047158" lat="52.705841"><ele>338.451294</ele><time>2022-01-15T09:50:50Z</time><extensions><speed>0.207631</speed><course>282.422852</course><hAcc>2.450214</hAcc><vAcc>0.460693</vAcc></extensions></trkpt>
      <trkpt lon="-3.047161" lat="52.705842"><ele>338.486298</ele><time>2022-01-15T09:50:51Z</time><extensions><speed>0.162299</speed><course>281.013306</course><hAcc>2.433211</hAcc><vAcc>0.458010</vAcc></extensions></trkpt>
      <trkpt lon="-3.047163" lat="52.705842"><ele>338.520355</ele><time>2022-01-15T09:50:52Z</time><extensions><speed>0.135324</speed><course>280.337646</course><hAcc>2.409960</hAcc><vAcc>0.455068</vAcc></extensions></trkpt>
      <trkpt lon="-3.047165" lat="52.705842"><ele>338.548767</ele><time>2022-01-15T09:50:53Z</time><extensions><speed>0.100961</speed><course>280.310944</course><hAcc>2.401277</hAcc><vAcc>0.452199</vAcc></extensions></trkpt>
      <trkpt lon="-3.047167" lat="52.705842"><ele>338.579956</ele><time>2022-01-15T09:50:54Z</time><extensions><speed>0.075432</speed><course>278.812256</course><hAcc>2.399302</hAcc><vAcc>0.449794</vAcc></extensions></trkpt>
      <trkpt lon="-3.047168" lat="52.705842"><ele>338.606049</ele><time>2022-01-15T09:50:55Z</time><extensions><speed>0.054826</speed><course>271.729034</course><hAcc>2.413866</hAcc><vAcc>0.448120</vAcc></extensions></trkpt>
      <trkpt lon="-3.047169" lat="52.705841"><ele>338.627411</ele><time>2022-01-15T09:50:56Z</time><extensions><speed>0.038102</speed><course>258.576263</course><hAcc>2.445229</hAcc><vAcc>0.447374</vAcc></extensions></trkpt>
      <trkpt lon="-3.047170" lat="52.705841"><ele>338.643982</ele><time>2022-01-15T09:50:57Z</time><extensions><speed>0.047998</speed><course>242.214096</course><hAcc>2.445640</hAcc><vAcc>0.447531</vAcc></extensions></trkpt>
      <trkpt lon="-3.047172" lat="52.705841"><ele>338.648041</ele><time>2022-01-15T09:50:58Z</time><extensions><speed>0.111517</speed><course>236.229767</course><hAcc>2.398430</hAcc><vAcc>0.448403</vAcc></extensions></trkpt>
      <trkpt lon="-3.047174" lat="52.705840"><ele>338.649231</ele><time>2022-01-15T09:50:59Z</time><extensions><speed>0.158979</speed><course>235.574112</course><hAcc>2.397560</hAcc><vAcc>0.449719</vAcc></extensions></trkpt>
      <trkpt lon="-3.047177" lat="52.705839"><ele>338.648346</ele><time>2022-01-15T09:51:00Z</time><extensions><speed>0.212859</speed><course>240.967728</course><hAcc>2.426309</hAcc><vAcc>0.451261</vAcc></extensions></trkpt>
      <trkpt lon="-3.047181" lat="52.705839"><ele>338.633331</ele><time>2022-01-15T09:51:01Z</time><extensions><speed>0.276346</speed><course>246.989380</course><hAcc>2.447123</hAcc><vAcc>0.452781</vAcc></extensions></trkpt>
      <trkpt lon="-3.047187" lat="52.705838"><ele>338.619720</ele><time>2022-01-15T09:51:02Z</time><extensions><speed>0.342111</speed><course>251.669769</course><hAcc>2.449885</hAcc><vAcc>0.454015</vAcc></extensions></trkpt>
      <trkpt lon="-3.047193" lat="52.705837"><ele>338.610260</ele><time>2022-01-15T09:51:03Z</time><extensions><speed>0.383982</speed><course>255.848877</course><hAcc>2.441936</hAcc><vAcc>0.454861</vAcc></extensions></trkpt>
      <trkpt lon="-3.047199" lat="52.705837"><ele>338.602844</ele><time>2022-01-15T09:51:04Z</time><extensions><speed>0.416651</speed><course>260.532257</course><hAcc>2.422186</hAcc><vAcc>0.455261</vAcc></extensions></trkpt>
      <trkpt lon="-3.047206" lat="52.705836"><ele>338.605927</ele><time>2022-01-15T09:51:06Z</time><extensions><speed>0.400390</speed><course>266.073944</course><hAcc>2.412363</hAcc><vAcc>0.455352</vAcc></extensions></trkpt>
      <trkpt lon="-3.047212" lat="52.705836"><ele>338.621277</ele><time>2022-01-15T09:51:07Z</time><extensions><speed>0.366898</speed><course>272.413727</course><hAcc>2.408137</hAcc><vAcc>0.455300</vAcc></extensions></trkpt>
      <trkpt lon="-3.047218" lat="52.705837"><ele>338.650116</ele><time>2022-01-15T09:51:08Z</time><extensions><speed>0.364306</speed><course>278.563782</course><hAcc>2.388637</hAcc><vAcc>0.455188</vAcc></extensions></trkpt>
      <trkpt lon="-3.047224" lat="52.705838"><ele>338.687744</ele><time>2022-01-15T09:51:09Z</time><extensions><speed>0.455647</speed><course>282.526672</course><hAcc>2.348788</hAcc><vAcc>0.454940</vAcc></extensions></trkpt>
      <trkpt lon="-3.047231" lat="52.705839"><ele>338.748871</ele><time>2022-01-15T09:51:10Z</time><extensions><speed>0.435594</speed><course>285.227814</course><hAcc>2.349648</hAcc><vAcc>0.454453</vAcc></extensions></trkpt>
      <trkpt lon="-3.047238" lat="52.705840"><ele>338.820557</ele><time>2022-01-15T09:51:11Z</time><extensions><speed>0.391691</speed><course>287.635651</course><hAcc>2.363984</hAcc><vAcc>0.453701</vAcc></extensions></trkpt>
      <trkpt lon="-3.047244" lat="52.705841"><ele>338.915619</ele><time>2022-01-15T09:51:12Z</time><extensions><speed>0.450639</speed><course>289.174194</course><hAcc>2.355681</hAcc><vAcc>0.452781</vAcc></extensions></trkpt>
      <trkpt lon="-3.047249" lat="52.705843"><ele>339.029510</ele><time>2022-01-15T09:51:13Z</time><extensions><speed>0.406831</speed><course>291.193451</course><hAcc>2.368208</hAcc><vAcc>0.451765</vAcc></extensions></trkpt>
      <trkpt lon="-3.047255" lat="52.705844"><ele>339.160004</ele><time>2022-01-15T09:51:14Z</time><extensions><speed>0.439521</speed><course>293.231110</course><hAcc>2.367775</hAcc><vAcc>0.450670</vAcc></extensions></trkpt>
      <trkpt lon="-3.047260" lat="52.705846"><ele>339.304749</ele><time>2022-01-15T09:51:15Z</time><extensions><speed>0.387277</speed><course>295.540466</course><hAcc>2.391433</hAcc><vAcc>0.449553</vAcc></extensions></trkpt>
      <trkpt lon="-3.047265" lat="52.705848"><ele>339.467834</ele><time>2022-01-15T09:51:16Z</time><extensions><speed>0.337497</speed><course>298.570923</course><hAcc>2.420647</hAcc><vAcc>0.448535</vAcc></extensions></trkpt>
      <trkpt lon="-3.047269" lat="52.705849"><ele>339.640808</ele><time>2022-01-15T09:51:17Z</time><extensions><speed>0.297334</speed><course>302.728455</course><hAcc>2.444313</hAcc><vAcc>0.447715</vAcc></extensions></trkpt>
      <trkpt lon="-3.047272" lat="52.705851"><ele>339.825409</ele><time>2022-01-15T09:51:18Z</time><extensions><speed>0.262675</speed><course>309.505737</course><hAcc>2.464028</hAcc><vAcc>0.447159</vAcc></extensions></trkpt>
      <trkpt lon="-3.047275" lat="52.705852"><ele>340.014832</ele><time>2022-01-15T09:51:19Z</time><extensions><speed>0.233421</speed><course>320.864960</course><hAcc>2.477854</hAcc><vAcc>0.446887</vAcc></extensions></trkpt>
      <trkpt lon="-3.047277" lat="52.705854"><ele>340.207275</ele><time>2022-01-15T09:51:20Z</time><extensions><speed>0.202375</speed><course>337.776825</course><hAcc>2.494705</hAcc><vAcc>0.446866</vAcc></extensions></trkpt>
      <trkpt lon="-3.047278" lat="52.705855"><ele>340.405701</ele><time>2022-01-15T09:51:21Z</time><extensions><speed>0.168181</speed><course>358.288849</course><hAcc>2.521523</hAcc><vAcc>0.447048</vAcc></extensions></trkpt>
      <trkpt lon="-3.047277" lat="52.705856"><ele>340.600494</ele><time>2022-01-15T09:51:22Z</time><extensions><speed>0.141074</speed><course>18.441246</course><hAcc>2.546338</hAcc><vAcc>0.447498</vAcc></extensions></trkpt>
      <trkpt lon="-3.047277" lat="52.705857"><ele>340.796021</ele><time>2022-01-15T09:51:23Z</time><extensions><speed>0.116011</speed><course>30.041376</course><hAcc>2.559510</hAcc><vAcc>0.448347</vAcc></extensions></trkpt>
      <trkpt lon="-3.047277" lat="52.705858"><ele>340.981964</ele><time>2022-01-15T09:51:24Z</time><extensions><speed>0.056382</speed><course>26.104874</course><hAcc>2.580996</hAcc><vAcc>0.449602</vAcc></extensions></trkpt>
      <trkpt lon="-3.047278" lat="52.705858"><ele>341.153839</ele><time>2022-01-15T09:51:25Z</time><extensions><speed>0.035319</speed><course>263.441650</course><hAcc>2.610231</hAcc><vAcc>0.451239</vAcc></extensions></trkpt>
      <trkpt lon="-3.047279" lat="52.705857"><ele>341.319672</ele><time>2022-01-15T09:51:26Z</time><extensions><speed>0.122325</speed><course>242.657104</course><hAcc>2.628712</hAcc><vAcc>0.453250</vAcc></extensions></trkpt>
      <trkpt lon="-3.047282" lat="52.705857"><ele>341.470917</ele><time>2022-01-15T09:51:27Z</time><extensions><speed>0.201333</speed><course>238.774261</course><hAcc>2.648357</hAcc><vAcc>0.455549</vAcc></extensions></trkpt>
      <trkpt lon="-3.047286" lat="52.705855"><ele>341.611816</ele><time>2022-01-15T09:51:28Z</time><extensions><speed>0.274674</speed><course>235.941910</course><hAcc>2.660656</hAcc><vAcc>0.458013</vAcc></extensions></trkpt>
      <trkpt lon="-3.047290" lat="52.705854"><ele>341.762543</ele><time>2022-01-15T09:51:29Z</time><extensions><speed>0.320456</speed><course>235.133865</course><hAcc>2.670015</hAcc><vAcc>0.460542</vAcc></extensions></trkpt>
      <trkpt lon="-3.047294" lat="52.705852"><ele>341.908813</ele><time>2022-01-15T09:51:30Z</time><extensions><speed>0.357671</speed><course>237.128738</course><hAcc>2.670715</hAcc><vAcc>0.463064</vAcc></extensions></trkpt>
      <trkpt lon="-3.047300" lat="52.705850"><ele>342.049988</ele><time>2022-01-15T09:51:31Z</time><extensions><speed>0.404335</speed><course>241.466034</course><hAcc>2.658195</hAcc><vAcc>0.465492</vAcc></extensions></trkpt>
      <trkpt lon="-3.047306" lat="52.705848"><ele>342.179657</ele><time>2022-01-15T09:51:32Z</time><extensions><speed>0.469693</speed><course>245.770966</course><hAcc>2.630121</hAcc><vAcc>0.467724</vAcc></extensions></trkpt>
      <trkpt lon="-3.047313" lat="52.705846"><ele>342.322083</ele><time>2022-01-15T09:51:33Z</time><extensions><speed>0.562162</speed><course>248.772644</course><hAcc>2.589861</hAcc><vAcc>0.469634</vAcc></extensions></trkpt>
      <trkpt lon="-3.047321" lat="52.705844"><ele>342.463074</ele><time>2022-01-15T09:51:34Z</time><extensions><speed>0.576783</speed><course>250.172424</course><hAcc>2.568291</hAcc><vAcc>0.471068</vAcc></extensions></trkpt>
      <trkpt lon="-3.047330" lat="52.705842"><ele>342.602753</ele><time>2022-01-15T09:51:34Z</time><extensions><speed>0.561935</speed><course>250.298599</course><hAcc>2.556882</hAcc><vAcc>0.471895</vAcc></extensions></trkpt>
      <trkpt lon="-3.047338" lat="52.705840"><ele>342.749176</ele><time>2022-01-15T09:51:35Z</time><extensions><speed>0.532859</speed><course>248.835922</course><hAcc>2.547225</hAcc><vAcc>0.472121</vAcc></extensions></trkpt>
      <trkpt lon="-3.047345" lat="52.705838"><ele>342.879364</ele><time>2022-01-15T09:51:36Z</time><extensions><speed>0.491247</speed><course>246.086960</course><hAcc>2.541824</hAcc><vAcc>0.471860</vAcc></extensions></trkpt>
      <trkpt lon="-3.047352" lat="52.705837"><ele>343.018860</ele><time>2022-01-15T09:51:37Z</time><extensions><speed>0.450877</speed><course>243.729248</course><hAcc>2.537832</hAcc><vAcc>0.471282</vAcc></extensions></trkpt>
      <trkpt lon="-3.047358" lat="52.705835"><ele>343.149506</ele><time>2022-01-15T09:51:38Z</time><extensions><speed>0.451214</speed><course>241.903854</course><hAcc>2.525213</hAcc><vAcc>0.470553</vAcc></extensions></trkpt>
      <trkpt lon="-3.047365" lat="52.705832"><ele>343.272888</ele><time>2022-01-15T09:51:39Z</time><extensions><speed>0.456772</speed><course>240.156387</course><hAcc>2.517125</hAcc><vAcc>0.469802</vAcc></extensions></trkpt>
      <trkpt lon="-3.047371" lat="52.705830"><ele>343.389099</ele><time>2022-01-15T09:51:40Z</time><extensions><speed>0.450266</speed><course>238.695618</course><hAcc>2.520442</hAcc><vAcc>0.469143</vAcc></extensions></trkpt>
      <trkpt lon="-3.047377" lat="52.705828"><ele>343.500214</ele><time>2022-01-15T09:51:41Z</time><extensions><speed>0.432688</speed><course>238.802429</course><hAcc>2.529594</hAcc><vAcc>0.468668</vAcc></extensions></trkpt>
      <trkpt lon="-3.047384" lat="52.705826"><ele>343.600952</ele><time>2022-01-15T09:51:42Z</time><extensions><speed>0.451751</speed><course>240.749100</course><hAcc>2.528371</hAcc><vAcc>0.468418</vAcc></extensions></trkpt>
      <trkpt lon="-3.047390" lat="52.705825"><ele>343.690491</ele><time>2022-01-15T09:51:43Z</time><extensions><speed>0.463306</speed><course>244.447433</course><hAcc>2.526136</hAcc><vAcc>0.468359</vAcc></extensions></trkpt>
      <trkpt lon="-3.047397" lat="52.705823"><ele>343.770813</ele><time>2022-01-15T09:51:44Z</time><extensions><speed>0.473787</speed><course>249.629684</course><hAcc>2.522967</hAcc><vAcc>0.468425</vAcc></extensions></trkpt>
      <trkpt lon="-3.047405" lat="52.705822"><ele>343.863922</ele><time>2022-01-15T09:51:45Z</time><extensions><speed>0.500640</speed><course>255.104019</course><hAcc>2.520610</hAcc><vAcc>0.468541</vAcc></extensions></trkpt>
      <trkpt lon="-3.047413" lat="52.705821"><ele>343.949677</ele><time>2022-01-15T09:51:46Z</time><extensions><speed>0.471771</speed><course>260.306702</course><hAcc>2.537323</hAcc><vAcc>0.468630</vAcc></extensions></trkpt>
      <trkpt lon="-3.047420" lat="52.705821"><ele>344.045898</ele><time>2022-01-15T09:51:47Z</time><extensions><speed>0.474851</speed><course>265.790436</course><hAcc>2.545238</hAcc><vAcc>0.468586</vAcc></extensions></trkpt>
      <trkpt lon="-3.047428" lat="52.705821"><ele>344.146240</ele><time>2022-01-15T09:51:48Z</time><extensions><speed>0.508576</speed><course>270.963989</course><hAcc>2.539955</hAcc><vAcc>0.468288</vAcc></extensions></trkpt>
      <trkpt lon="-3.047436" lat="52.705821"><ele>344.256348</ele><time>2022-01-15T09:51:49Z</time><extensions><speed>0.555308</speed><course>276.130554</course><hAcc>2.531715</hAcc><vAcc>0.467660</vAcc></extensions></trkpt>
      <trkpt lon="-3.047445" lat="52.705822"><ele>344.377258</ele><time>2022-01-15T09:51:50Z</time><extensions><speed>0.588241</speed><course>280.531555</course><hAcc>2.529593</hAcc><vAcc>0.466707</vAcc></extensions></trkpt>
      <trkpt lon="-3.047454" lat="52.705823"><ele>344.510162</ele><time>2022-01-15T09:51:51Z</time><extensions><speed>0.610480</speed><course>283.223816</course><hAcc>2.530228</hAcc><vAcc>0.465468</vAcc></extensions></trkpt>
      <trkpt lon="-3.047464" lat="52.705824"><ele>344.649841</ele><time>2022-01-15T09:51:52Z</time><extensions><speed>0.623963</speed><course>284.067688</course><hAcc>2.528478</hAcc><vAcc>0.464103</vAcc></extensions></trkpt>
      <trkpt lon="-3.047473" lat="52.705825"><ele>344.792389</ele><time>2022-01-15T09:51:53Z</time><extensions><speed>0.618811</speed><course>283.392334</course><hAcc>2.524969</hAcc><vAcc>0.462749</vAcc></extensions></trkpt>
      <trkpt lon="-3.047482" lat="52.705827"><ele>344.962860</ele><time>2022-01-15T09:51:54Z</time><extensions><speed>0.604800</speed><course>282.062683</course><hAcc>2.521218</hAcc><vAcc>0.461544</vAcc></extensions></trkpt>
      <trkpt lon="-3.047491" lat="52.705828"><ele>345.144073</ele><time>2022-01-15T09:51:55Z</time><extensions><speed>0.561441</speed><course>279.818146</course><hAcc>2.523647</hAcc><vAcc>0.460632</vAcc></extensions></trkpt>
      <trkpt lon="-3.047500" lat="52.705828"><ele>345.319275</ele><time>2022-01-15T09:51:56Z</time><extensions><speed>0.545496</speed><course>276.454132</course><hAcc>2.521436</hAcc><vAcc>0.460147</vAcc></extensions></trkpt>
      <trkpt lon="-3.047509" lat="52.705829"><ele>345.525879</ele><time>2022-01-15T09:51:57Z</time><extensions><speed>0.525285</speed><course>273.365082</course><hAcc>2.518143</hAcc><vAcc>0.460134</vAcc></extensions></trkpt>
      <trkpt lon="-3.047517" lat="52.705829"><ele>345.735748</ele><time>2022-01-15T09:51:58Z</time><extensions><speed>0.531023</speed><course>271.594086</course><hAcc>2.508351</hAcc><vAcc>0.460513</vAcc></extensions></trkpt>
      <trkpt lon="-3.047526" lat="52.705830"><ele>345.946930</ele><time>2022-01-15T09:51:59Z</time><extensions><speed>0.550967</speed><course>271.533752</course><hAcc>2.496879</hAcc><vAcc>0.461119</vAcc></extensions></trkpt>
      <trkpt lon="-3.047534" lat="52.705830"><ele>346.170105</ele><time>2022-01-15T09:52:00Z</time><extensions><speed>0.564612</speed><course>272.372955</course><hAcc>2.490074</hAcc><vAcc>0.461723</vAcc></extensions></trkpt>
      <trkpt lon="-3.047544" lat="52.705830"><ele>346.397644</ele><time>2022-01-15T09:52:02Z</time><extensions><speed>0.591299</speed><course>273.829132</course><hAcc>2.484918</hAcc><vAcc>0.462075</vAcc></extensions></trkpt>
      <trkpt lon="-3.047553" lat="52.705831"><ele>346.623260</ele><time>2022-01-15T09:52:03Z</time><extensions><speed>0.585348</speed><course>275.816193</course><hAcc>2.487321</hAcc><vAcc>0.461936</vAcc></extensions></trkpt>
      <trkpt lon="-3.047562" lat="52.705831"><ele>346.860657</ele><time>2022-01-15T09:52:04Z</time><extensions><speed>0.585076</speed><course>278.154480</course><hAcc>2.487093</hAcc><vAcc>0.461220</vAcc></extensions></trkpt>
      <trkpt lon="-3.047571" lat="52.705832"><ele>347.092712</ele><time>2022-01-15T09:52:05Z</time><extensions><speed>0.611147</speed><course>279.643005</course><hAcc>2.477991</hAcc><vAcc>0.459891</vAcc></extensions></trkpt>
      <trkpt lon="-3.047581" lat="52.705833"><ele>347.329346</ele><time>2022-01-15T09:52:06Z</time><extensions><speed>0.645971</speed><course>279.739746</course><hAcc>2.465474</hAcc><vAcc>0.458021</vAcc></extensions></trkpt>
      <trkpt lon="-3.047591" lat="52.705834"><ele>347.563568</ele><time>2022-01-15T09:52:07Z</time><extensions><speed>0.624326</speed><course>279.343933</course><hAcc>2.467623</hAcc><vAcc>0.455806</vAcc></extensions></trkpt>
      <trkpt lon="-3.047600" lat="52.705834"><ele>347.793365</ele><time>2022-01-15T09:52:08Z</time><extensions><speed>0.583174</speed><course>277.847656</course><hAcc>2.476818</hAcc><vAcc>0.453528</vAcc></extensions></trkpt>
      <trkpt lon="-3.047609" lat="52.705835"><ele>348.027344</ele><time>2022-01-15T09:52:09Z</time><extensions><speed>0.579380</speed><course>274.668060</course><hAcc>2.479061</hAcc><vAcc>0.451476</vAcc></extensions></trkpt>
      <trkpt lon="-3.047618" lat="52.705835"><ele>348.254791</ele><time>2022-01-15T09:52:10Z</time><extensions><speed>0.587118</speed><course>270.103516</course><hAcc>2.479003</hAcc><vAcc>0.449867</vAcc></extensions></trkpt>
      <trkpt lon="-3.047628" lat="52.705835"><ele>348.485840</ele><time>2022-01-15T09:52:11Z</time><extensions><speed>0.606597</speed><course>265.083069</course><hAcc>2.474590</hAcc><vAcc>0.448833</vAcc></extensions></trkpt>
      <trkpt lon="-3.047637" lat="52.705834"><ele>348.716553</ele><time>2022-01-15T09:52:12Z</time><extensions><speed>0.649166</speed><course>260.109344</course><hAcc>2.463008</hAcc><vAcc>0.448457</vAcc></extensions></trkpt>
      <trkpt lon="-3.047647" lat="52.705833"><ele>348.950714</ele><time>2022-01-15T09:52:13Z</time><extensions><speed>0.665533</speed><course>255.929169</course><hAcc>2.464111</hAcc><vAcc>0.448727</vAcc></extensions></trkpt>
      <trkpt lon="-3.047655" lat="52.705831"><ele>349.182617</ele><time>2022-01-15T09:52:14Z</time><extensions><speed>0.536673</speed><course>256.880951</course><hAcc>2.477814</hAcc><vAcc>0.449564</vAcc></extensions></trkpt>
      <trkpt lon="-3.047664" lat="52.705830"><ele>349.409119</ele><time>2022-01-15T09:52:15Z</time><extensions><speed>0.585388</speed><course>255.641724</course><hAcc>2.456162</hAcc><vAcc>0.450774</vAcc></extensions></trkpt>
      <trkpt lon="-3.047672" lat="52.705829"><ele>349.632233</ele><time>2022-01-15T09:52:16Z</time><extensions><speed>0.468695</speed><course>259.748505</course><hAcc>2.459919</hAcc><vAcc>0.452198</vAcc></extensions></trkpt>
      <trkpt lon="-3.047679" lat="52.705828"><ele>349.857178</ele><time>2022-01-15T09:52:17Z</time><extensions><speed>0.410133</speed><course>261.358917</course><hAcc>2.462073</hAcc><vAcc>0.453596</vAcc></extensions></trkpt>
      <trkpt lon="-3.047685" lat="52.705828"><ele>350.067596</ele><time>2022-01-15T09:52:18Z</time><extensions><speed>0.361748</speed><course>260.814240</course><hAcc>2.464270</hAcc><vAcc>0.454901</vAcc></extensions></trkpt>
      <trkpt lon="-3.047690" lat="52.705827"><ele>350.258606</ele><time>2022-01-15T09:52:19Z</time><extensions><speed>0.325410</speed><course>257.940918</course><hAcc>2.471184</hAcc><vAcc>0.456161</vAcc></extensions></trkpt>
      <trkpt lon="-3.047696" lat="52.705827"><ele>350.451813</ele><time>2022-01-15T09:52:20Z</time><extensions><speed>0.327457</speed><course>253.540268</course><hAcc>2.473959</hAcc><vAcc>0.457489</vAcc></extensions></trkpt>
      <trkpt lon="-3.047701" lat="52.705826"><ele>350.639648</ele><time>2022-01-15T09:52:21Z</time><extensions><speed>0.362578</speed><course>250.099564</course><hAcc>2.470506</hAcc><vAcc>0.458963</vAcc></extensions></trkpt>
      <trkpt lon="-3.047707" lat="52.705824"><ele>350.806885</ele><time>2022-01-15T09:52:22Z</time><extensions><speed>0.458761</speed><course>247.908417</course><hAcc>2.465054</hAcc><vAcc>0.460689</vAcc></extensions></trkpt>
      <trkpt lon="-3.047714" lat="52.705823"><ele>350.975067</ele><time>2022-01-15T09:52:23Z</time><extensions><speed>0.444444</speed><course>255.229553</course><hAcc>2.492069</hAcc><vAcc>0.462743</vAcc></extensions></trkpt>
      <trkpt lon="-3.047721" lat="52.705822"><ele>351.135254</ele><time>2022-01-15T09:52:24Z</time><extensions><speed>0.478232</speed><course>260.685303</course><hAcc>2.516193</hAcc><vAcc>0.465138</vAcc></extensions></trkpt>
      <trkpt lon="-3.047729" lat="52.705821"><ele>351.286102</ele><time>2022-01-15T09:52:25Z</time><extensions><speed>0.504645</speed><course>264.875153</course><hAcc>2.527349</hAcc><vAcc>0.467821</vAcc></extensions></trkpt>
      <trkpt lon="-3.047738" lat="52.705821"><ele>351.427734</ele><time>2022-01-15T09:52:26Z</time><extensions><speed>0.550334</speed><course>266.909729</course><hAcc>2.511672</hAcc><vAcc>0.470753</vAcc></extensions></trkpt>
      <trkpt lon="-3.047747" lat="52.705820"><ele>351.558228</ele><time>2022-01-15T09:52:27Z</time><extensions><speed>0.577852</speed><course>266.022919</course><hAcc>2.474571</hAcc><vAcc>0.473846</vAcc></extensions></trkpt>
      <trkpt lon="-3.047756" lat="52.705820"><ele>351.699463</ele><time>2022-01-15T09:52:28Z</time><extensions><speed>0.571846</speed><course>263.657898</course><hAcc>2.428569</hAcc><vAcc>0.476966</vAcc></extensions></trkpt>
      <trkpt lon="-3.047764" lat="52.705819"><ele>351.831207</ele><time>2022-01-15T09:52:29Z</time><extensions><speed>0.510235</speed><course>258.825470</course><hAcc>2.404659</hAcc><vAcc>0.479944</vAcc></extensions></trkpt>
      <trkpt lon="-3.047770" lat="52.705819"><ele>351.970367</ele><time>2022-01-15T09:52:30Z</time><extensions><speed>0.323962</speed><course>260.352783</course><hAcc>2.420095</hAcc><vAcc>0.482476</vAcc></extensions></trkpt>
      <trkpt lon="-3.047775" lat="52.705819"><ele>352.106689</ele><time>2022-01-15T09:52:31Z</time><extensions><speed>0.279920</speed><course>257.859406</course><hAcc>2.387946</hAcc><vAcc>0.484139</vAcc></extensions></trkpt>
      <trkpt lon="-3.047779" lat="52.705818"><ele>352.226257</ele><time>2022-01-15T09:52:32Z</time><extensions><speed>0.356128</speed><course>251.655197</course><hAcc>2.317019</hAcc><vAcc>0.484521</vAcc></extensions></trkpt>
      <trkpt lon="-3.047783" lat="52.705818"><ele>352.350006</ele><time>2022-01-15T09:52:33Z</time><extensions><speed>0.229993</speed><course>258.150970</course><hAcc>2.307127</hAcc><vAcc>0.483407</vAcc></extensions></trkpt>
      <trkpt lon="-3.047787" lat="52.705818"><ele>352.455627</ele><time>2022-01-15T09:52:34Z</time><extensions><speed>0.184791</speed><course>265.515472</course><hAcc>2.301995</hAcc><vAcc>0.480833</vAcc></extensions></trkpt>
      <trkpt lon="-3.047790" lat="52.705818"><ele>352.553528</ele><time>2022-01-15T09:52:35Z</time><extensions><speed>0.158728</speed><course>277.536896</course><hAcc>2.299764</hAcc><vAcc>0.476910</vAcc></extensions></trkpt>
      <trkpt lon="-3.047792" lat="52.705819"><ele>352.656799</ele><time>2022-01-15T09:52:36Z</time><extensions><speed>0.156956</speed><course>294.809265</course><hAcc>2.297695</hAcc><vAcc>0.471854</vAcc></extensions></trkpt>
      <trkpt lon="-3.047794" lat="52.705820"><ele>352.746246</ele><time>2022-01-15T09:52:37Z</time><extensions><speed>0.197327</speed><course>312.572937</course><hAcc>2.293788</hAcc><vAcc>0.466101</vAcc></extensions></trkpt>
      <trkpt lon="-3.047796" lat="52.705822"><ele>352.832062</ele><time>2022-01-15T09:52:38Z</time><extensions><speed>0.227343</speed><course>326.215210</course><hAcc>2.318419</hAcc><vAcc>0.459951</vAcc></extensions></trkpt>
      <trkpt lon="-3.047798" lat="52.705824"><ele>352.909058</ele><time>2022-01-15T09:52:39Z</time><extensions><speed>0.272075</speed><course>334.543213</course><hAcc>2.347440</hAcc><vAcc>0.453684</vAcc></extensions></trkpt>
      <trkpt lon="-3.047800" lat="52.705826"><ele>352.980377</ele><time>2022-01-15T09:52:40Z</time><extensions><speed>0.306471</speed><course>338.407532</course><hAcc>2.370817</hAcc><vAcc>0.447503</vAcc></extensions></trkpt>
      <trkpt lon="-3.047802" lat="52.705829"><ele>353.047333</ele><time>2022-01-15T09:52:41Z</time><extensions><speed>0.333764</speed><course>338.950317</course><hAcc>2.381160</hAcc><vAcc>0.441487</vAcc></extensions></trkpt>
      <trkpt lon="-3.047804" lat="52.705832"><ele>353.127716</ele><time>2022-01-15T09:52:42Z</time><extensions><speed>0.330238</speed><course>337.652740</course><hAcc>2.389684</hAcc><vAcc>0.435523</vAcc></extensions></trkpt>
      <trkpt lon="-3.047806" lat="52.705834"><ele>353.210297</ele><time>2022-01-15T09:52:43Z</time><extensions><speed>0.319480</speed><course>337.130951</course><hAcc>2.386561</hAcc><vAcc>0.429686</vAcc></extensions></trkpt>
      <trkpt lon="-3.047807" lat="52.705837"><ele>353.297760</ele><time>2022-01-15T09:52:44Z</time><extensions><speed>0.323778</speed><course>338.625122</course><hAcc>2.362463</hAcc><vAcc>0.424377</vAcc></extensions></trkpt>
      <trkpt lon="-3.047809" lat="52.705840"><ele>353.391968</ele><time>2022-01-15T09:52:45Z</time><extensions><speed>0.316862</speed><course>341.500824</course><hAcc>2.338087</hAcc><vAcc>0.419449</vAcc></extensions></trkpt>
      <trkpt lon="-3.047810" lat="52.705842"><ele>353.482269</ele><time>2022-01-15T09:52:46Z</time><extensions><speed>0.262293</speed><course>343.983368</course><hAcc>2.338206</hAcc><vAcc>0.415035</vAcc></extensions></trkpt>
      <trkpt lon="-3.047811" lat="52.705844"><ele>353.580200</ele><time>2022-01-15T09:52:47Z</time><extensions><speed>0.222706</speed><course>345.012238</course><hAcc>2.338256</hAcc><vAcc>0.411399</vAcc></extensions></trkpt>
      <trkpt lon="-3.047812" lat="52.705846"><ele>353.679443</ele><time>2022-01-15T09:52:48Z</time><extensions><speed>0.173638</speed><course>343.944000</course><hAcc>2.342423</hAcc><vAcc>0.408926</vAcc></extensions></trkpt>
      <trkpt lon="-3.047812" lat="52.705848"><ele>353.781708</ele><time>2022-01-15T09:52:49Z</time><extensions><speed>0.129981</speed><course>341.520508</course><hAcc>2.346689</hAcc><vAcc>0.407929</vAcc></extensions></trkpt>
      <trkpt lon="-3.047812" lat="52.705849"><ele>353.872467</ele><time>2022-01-15T09:52:50Z</time><extensions><speed>0.093534</speed><course>339.428101</course><hAcc>2.354302</hAcc><vAcc>0.408419</vAcc></extensions></trkpt>
      <trkpt lon="-3.047812" lat="52.705849"><ele>353.952362</ele><time>2022-01-15T09:52:51Z</time><extensions><speed>0.068111</speed><course>345.338623</course><hAcc>2.369684</hAcc><vAcc>0.410201</vAcc></extensions></trkpt>
      <trkpt lon="-3.047812" lat="52.705850"><ele>354.024536</ele><time>2022-01-15T09:52:52Z</time><extensions><speed>0.055153</speed><course>9.649282</course><hAcc>2.399943</hAcc><vAcc>0.412804</vAcc></extensions></trkpt>
      <trkpt lon="-3.047812" lat="52.705851"><ele>354.075714</ele><time>2022-01-15T09:52:53Z</time><extensions><speed>0.068170</speed><course>45.160587</course><hAcc>2.433179</hAcc><vAcc>0.416020</vAcc></extensions></trkpt>
      <trkpt lon="-3.047810" lat="52.705851"><ele>354.117249</ele><time>2022-01-15T09:52:54Z</time><extensions><speed>0.122315</speed><course>59.680637</course><hAcc>2.433683</hAcc><vAcc>0.419632</vAcc></extensions></trkpt>
      <trkpt lon="-3.047808" lat="52.705852"><ele>354.149353</ele><time>2022-01-15T09:52:55Z</time><extensions><speed>0.184233</speed><course>64.098389</course><hAcc>2.432555</hAcc><vAcc>0.423308</vAcc></extensions></trkpt>
      <trkpt lon="-3.047805" lat="52.705852"><ele>354.174774</ele><time>2022-01-15T09:52:56Z</time><extensions><speed>0.219621</speed><course>64.850647</course><hAcc>2.447249</hAcc><vAcc>0.426663</vAcc></extensions></trkpt>
      <trkpt lon="-3.047802" lat="52.705853"><ele>354.181366</ele><time>2022-01-15T09:52:57Z</time><extensions><speed>0.245881</speed><course>65.668701</course><hAcc>2.443310</hAcc><vAcc>0.429505</vAcc></extensions></trkpt>
      <trkpt lon="-3.047799" lat="52.705854"><ele>354.181122</ele><time>2022-01-15T09:52:58Z</time><extensions><speed>0.254808</speed><course>67.855377</course><hAcc>2.415164</hAcc><vAcc>0.431556</vAcc></extensions></trkpt>
      <trkpt lon="-3.047795" lat="52.705855"><ele>354.177094</ele><time>2022-01-15T09:52:59Z</time><extensions><speed>0.259919</speed><course>71.625740</course><hAcc>2.374292</hAcc><vAcc>0.432596</vAcc></extensions></trkpt>
      <trkpt lon="-3.047791" lat="52.705855"><ele>354.172272</ele><time>2022-01-15T09:53:00Z</time><extensions><speed>0.234751</speed><course>77.212791</course><hAcc>2.349794</hAcc><vAcc>0.432370</vAcc></extensions></trkpt>
      <trkpt lon="-3.047788" lat="52.705855"><ele>354.169006</ele><time>2022-01-15T09:53:01Z</time><extensions><speed>0.215689</speed><course>85.713890</course><hAcc>2.330729</hAcc><vAcc>0.430879</vAcc></extensions></trkpt>
      <trkpt lon="-3.047784" lat="52.705855"><ele>354.179932</ele><time>2022-01-15T09:53:02Z</time><extensions><speed>0.231582</speed><course>97.385551</course><hAcc>2.309829</hAcc><vAcc>0.428374</vAcc></extensions></trkpt>
      <trkpt lon="-3.047781" lat="52.705855"><ele>354.187988</ele><time>2022-01-15T09:53:03Z</time><extensions><speed>0.242433</speed><course>108.988960</course><hAcc>2.303687</hAcc><vAcc>0.425225</vAcc></extensions></trkpt>
      <trkpt lon="-3.047777" lat="52.705854"><ele>354.183319</ele><time>2022-01-15T09:53:04Z</time><extensions><speed>0.275074</speed><course>117.666763</course><hAcc>2.294669</hAcc><vAcc>0.421642</vAcc></extensions></trkpt>
      <trkpt lon="-3.047773" lat="52.705853"><ele>354.172821</ele><time>2022-01-15T09:53:05Z</time><extensions><speed>0.283323</speed><course>120.857101</course><hAcc>2.295117</hAcc><vAcc>0.417706</vAcc></extensions></trkpt>
      <trkpt lon="-3.047769" lat="52.705852"><ele>354.144897</ele><time>2022-01-15T09:53:06Z</time><extensions><speed>0.296371</speed><course>118.865623</course><hAcc>2.292342</hAcc><vAcc>0.413624</vAcc></extensions></trkpt>
      <trkpt lon="-3.047765" lat="52.705851"><ele>354.100861</ele><time>2022-01-15T09:53:07Z</time><extensions><speed>0.282046</speed><course>113.176422</course><hAcc>2.296908</hAcc><vAcc>0.409921</vAcc></extensions></trkpt>
      <trkpt lon="-3.047760" lat="52.705850"><ele>354.037598</ele><time>2022-01-15T09:53:08Z</time><extensions><speed>0.287660</speed><course>104.989899</course><hAcc>2.291185</hAcc><vAcc>0.407077</vAcc></extensions></trkpt>
      <trkpt lon="-3.047756" lat="52.705849"><ele>353.959106</ele><time>2022-01-15T09:53:09Z</time><extensions><speed>0.319883</speed><course>96.672226</course><hAcc>2.277459</hAcc><vAcc>0.405326</vAcc></extensions></trkpt>
      <trkpt lon="-3.047750" lat="52.705849"><ele>353.857849</ele><time>2022-01-15T09:53:10Z</time><extensions><speed>0.353249</speed><course>89.125961</course><hAcc>2.272575</hAcc><vAcc>0.404725</vAcc></extensions></trkpt>
      <trkpt lon="-3.047745" lat="52.705850"><ele>353.734619</ele><time>2022-01-15T09:53:11Z</time><extensions><speed>0.400313</speed><course>82.144592</course><hAcc>2.266896</hAcc><vAcc>0.405083</vAcc></extensions></trkpt>
      <trkpt lon="-3.047738" lat="52.705851"><ele>353.596680</ele><time>2022-01-15T09:53:12Z</time><extensions><speed>0.445040</speed><course>75.778984</course><hAcc>2.254470</hAcc><vAcc>0.406309</vAcc></extensions></trkpt>
      <trkpt lon="-3.047732" lat="52.705852"><ele>353.451996</ele><time>2022-01-15T09:53:13Z</time><extensions><speed>0.495357</speed><course>69.939583</course><hAcc>2.236577</hAcc><vAcc>0.408007</vAcc></extensions></trkpt>
      <trkpt lon="-3.047725" lat="52.705854"><ele>353.304840</ele><time>2022-01-15T09:53:14Z</time><extensions><speed>0.485818</speed><course>65.368248</course><hAcc>2.235703</hAcc><vAcc>0.409992</vAcc></extensions></trkpt>
      <trkpt lon="-3.047718" lat="52.705856"><ele>353.156189</ele><time>2022-01-15T09:53:15Z</time><extensions><speed>0.468009</speed><course>61.887562</course><hAcc>2.241596</hAcc><vAcc>0.412298</vAcc></extensions></trkpt>
      <trkpt lon="-3.047712" lat="52.705858"><ele>353.012634</ele><time>2022-01-15T09:53:16Z</time><extensions><speed>0.442791</speed><course>58.671703</course><hAcc>2.251096</hAcc><vAcc>0.415234</vAcc></extensions></trkpt>
      <trkpt lon="-3.047707" lat="52.705860"><ele>352.883789</ele><time>2022-01-15T09:53:17Z</time><extensions><speed>0.423967</speed><course>55.052116</course><hAcc>2.260232</hAcc><vAcc>0.419268</vAcc></extensions></trkpt>
      <trkpt lon="-3.047702" lat="52.705862"><ele>352.767548</ele><time>2022-01-15T09:53:18Z</time><extensions><speed>0.405968</speed><course>50.339485</course><hAcc>2.267250</hAcc><vAcc>0.424798</vAcc></extensions></trkpt>
      <trkpt lon="-3.047698" lat="52.705865"><ele>352.664551</ele><time>2022-01-15T09:53:19Z</time><extensions><speed>0.399681</speed><course>44.091225</course><hAcc>2.266945</hAcc><vAcc>0.432074</vAcc></extensions></trkpt>
      <trkpt lon="-3.047694" lat="52.705868"><ele>352.575165</ele><time>2022-01-15T09:53:20Z</time><extensions><speed>0.399382</speed><course>37.532398</course><hAcc>2.255584</hAcc><vAcc>0.441151</vAcc></extensions></trkpt>
      <trkpt lon="-3.047690" lat="52.705871"><ele>352.500671</ele><time>2022-01-15T09:53:21Z</time><extensions><speed>0.374014</speed><course>33.167156</course><hAcc>2.235888</hAcc><vAcc>0.451785</vAcc></extensions></trkpt>
      <trkpt lon="-3.047687" lat="52.705874"><ele>352.441742</ele><time>2022-01-15T09:53:22Z</time><extensions><speed>0.363666</speed><course>31.543106</course><hAcc>2.195903</hAcc><vAcc>0.463313</vAcc></extensions></trkpt>
      <trkpt lon="-3.047684" lat="52.705877"><ele>352.397522</ele><time>2022-01-15T09:53:23Z</time><extensions><speed>0.341414</speed><course>30.818949</course><hAcc>2.149345</hAcc><vAcc>0.474742</vAcc></extensions></trkpt>
      <trkpt lon="-3.047682" lat="52.705879"><ele>352.367218</ele><time>2022-01-15T09:53:24Z</time><extensions><speed>0.312378</speed><course>29.982267</course><hAcc>2.106214</hAcc><vAcc>0.485125</vAcc></extensions></trkpt>
      <trkpt lon="-3.047680" lat="52.705882"><ele>352.349518</ele><time>2022-01-15T09:53:25Z</time><extensions><speed>0.284593</speed><course>28.715317</course><hAcc>2.072685</hAcc><vAcc>0.493869</vAcc></extensions></trkpt>
      <trkpt lon="-3.047677" lat="52.705884"><ele>352.341370</ele><time>2022-01-15T09:53:26Z</time><extensions><speed>0.272625</speed><course>28.057974</course><hAcc>2.057266</hAcc><vAcc>0.500793</vAcc></extensions></trkpt>
      <trkpt lon="-3.047675" lat="52.705886"><ele>352.340881</ele><time>2022-01-15T09:53:27Z</time><extensions><speed>0.227101</speed><course>28.059477</course><hAcc>2.080478</hAcc><vAcc>0.506054</vAcc></extensions></trkpt>
      <trkpt lon="-3.047674" lat="52.705888"><ele>352.348053</ele><time>2022-01-15T09:53:28Z</time><extensions><speed>0.177761</speed><course>28.330141</course><hAcc>2.102817</hAcc><vAcc>0.509946</vAcc></extensions></trkpt>
      <trkpt lon="-3.047672" lat="52.705890"><ele>352.361115</ele><time>2022-01-15T09:53:29Z</time><extensions><speed>0.313942</speed><course>29.014196</course><hAcc>2.039924</hAcc><vAcc>0.512760</vAcc></extensions></trkpt>
      <trkpt lon="-3.047669" lat="52.705893"><ele>352.380157</ele><time>2022-01-15T09:53:30Z</time><extensions><speed>0.346628</speed><course>30.419361</course><hAcc>2.006127</hAcc><vAcc>0.514774</vAcc></extensions></trkpt>
      <trkpt lon="-3.047667" lat="52.705895"><ele>352.403473</ele><time>2022-01-15T09:53:31Z</time><extensions><speed>0.334163</speed><course>32.386799</course><hAcc>2.009128</hAcc><vAcc>0.516291</vAcc></extensions></trkpt>
      <trkpt lon="-3.047664" lat="52.705898"><ele>352.428711</ele><time>2022-01-15T09:53:32Z</time><extensions><speed>0.325072</speed><course>34.603031</course><hAcc>2.018470</hAcc><vAcc>0.517639</vAcc></extensions></trkpt>
      <trkpt lon="-3.047661" lat="52.705900"><ele>352.453888</ele><time>2022-01-15T09:53:33Z</time><extensions><speed>0.293525</speed><course>36.935093</course><hAcc>2.037964</hAcc><vAcc>0.519089</vAcc></extensions></trkpt>
      <trkpt lon="-3.047659" lat="52.705902"><ele>352.481049</ele><time>2022-01-15T09:53:34Z</time><extensions><speed>0.284294</speed><course>38.894390</course><hAcc>2.048118</hAcc><vAcc>0.520844</vAcc></extensions></trkpt>
      <trkpt lon="-3.047656" lat="52.705904"><ele>352.511017</ele><time>2022-01-15T09:53:35Z</time><extensions><speed>0.284561</speed><course>40.138142</course><hAcc>2.042231</hAcc><vAcc>0.522979</vAcc></extensions></trkpt>
      <trkpt lon="-3.047654" lat="52.705906"><ele>352.540222</ele><time>2022-01-15T09:53:36Z</time><extensions><speed>0.271988</speed><course>40.214050</course><hAcc>2.021421</hAcc><vAcc>0.525476</vAcc></extensions></trkpt>
      <trkpt lon="-3.047653" lat="52.705907"><ele>352.570923</ele><time>2022-01-15T09:53:37Z</time><extensions><speed>0.187567</speed><course>38.034676</course><hAcc>2.010090</hAcc><vAcc>0.528300</vAcc></extensions></trkpt>
      <trkpt lon="-3.047652" lat="52.705908"><ele>352.602631</ele><time>2022-01-15T09:53:38Z</time><extensions><speed>0.078271</speed><course>26.799664</course><hAcc>2.006845</hAcc><vAcc>0.531405</vAcc></extensions></trkpt>
      <trkpt lon="-3.047652" lat="52.705908"><ele>352.634247</ele><time>2022-01-15T09:53:39Z</time><extensions><speed>0.045631</speed><course>264.064209</course><hAcc>2.012182</hAcc><vAcc>0.534745</vAcc></extensions></trkpt>
      <trkpt lon="-3.047654" lat="52.705907"><ele>352.665771</ele><time>2022-01-15T09:53:40Z</time><extensions><speed>0.128875</speed><course>242.174210</course><hAcc>2.035187</hAcc><vAcc>0.538276</vAcc></extensions></trkpt>
      <trkpt lon="-3.047656" lat="52.705907"><ele>352.697021</ele><time>2022-01-15T09:53:41Z</time><extensions><speed>0.215713</speed><course>237.598602</course><hAcc>2.042697</hAcc><vAcc>0.541945</vAcc></extensions></trkpt>
      <trkpt lon="-3.047660" lat="52.705905"><ele>352.727905</ele><time>2022-01-15T09:53:42Z</time><extensions><speed>0.405748</speed><course>234.508102</course><hAcc>1.998044</hAcc><vAcc>0.545638</vAcc></extensions></trkpt>
      <trkpt lon="-3.047666" lat="52.705902"><ele>352.758331</ele><time>2022-01-15T09:53:43Z</time><extensions><speed>0.581943</speed><course>232.051605</course><hAcc>1.956649</hAcc><vAcc>0.549131</vAcc></extensions></trkpt>
      <trkpt lon="-3.047673" lat="52.705898"><ele>352.787689</ele><time>2022-01-15T09:53:44Z</time><extensions><speed>0.644410</speed><course>230.095184</course><hAcc>1.949318</hAcc><vAcc>0.552106</vAcc></extensions></trkpt>
      <trkpt lon="-3.047680" lat="52.705895"><ele>352.815277</ele><time>2022-01-15T09:53:45Z</time><extensions><speed>0.579850</speed><course>228.549805</course><hAcc>1.957981</hAcc><vAcc>0.554233</vAcc></extensions></trkpt>
      <trkpt lon="-3.047687" lat="52.705891"><ele>352.840546</ele><time>2022-01-15T09:53:46Z</time><extensions><speed>0.558821</speed><course>227.779037</course><hAcc>1.956983</hAcc><vAcc>0.555207</vAcc></extensions></trkpt>
      <trkpt lon="-3.047692" lat="52.705888"><ele>352.863617</ele><time>2022-01-15T09:53:47Z</time><extensions><speed>0.362859</speed><course>227.448410</course><hAcc>1.979186</hAcc><vAcc>0.554814</vAcc></extensions></trkpt>
      <trkpt lon="-3.047697" lat="52.705886"><ele>352.884644</ele><time>2022-01-15T09:53:48Z</time><extensions><speed>0.477005</speed><course>227.909363</course><hAcc>1.929449</hAcc><vAcc>0.553083</vAcc></extensions></trkpt>
      <trkpt lon="-3.047703" lat="52.705883"><ele>352.903381</ele><time>2022-01-15T09:53:49Z</time><extensions><speed>0.463839</speed><course>229.318665</course><hAcc>1.917925</hAcc><vAcc>0.550332</vAcc></extensions></trkpt>
      <trkpt lon="-3.047708" lat="52.705880"><ele>352.919861</ele><time>2022-01-15T09:53:50Z</time><extensions><speed>0.343493</speed><course>230.736130</course><hAcc>1.967104</hAcc><vAcc>0.547051</vAcc></extensions></trkpt>
      <trkpt lon="-3.047711" lat="52.705879"><ele>352.934052</ele><time>2022-01-15T09:53:50Z</time><extensions><speed>0.273700</speed><course>230.808853</course><hAcc>2.003242</hAcc><vAcc>0.543737</vAcc></extensions></trkpt>
      <trkpt lon="-3.047715" lat="52.705877"><ele>352.946136</ele><time>2022-01-15T09:53:51Z</time><extensions><speed>0.328554</speed><course>230.772659</course><hAcc>1.993893</hAcc><vAcc>0.540766</vAcc></extensions></trkpt>
      <trkpt lon="-3.047719" lat="52.705875"><ele>352.956360</ele><time>2022-01-15T09:53:52Z</time><extensions><speed>0.418298</speed><course>231.997482</course><hAcc>1.976877</hAcc><vAcc>0.538348</vAcc></extensions></trkpt>
      <trkpt lon="-3.047725" lat="52.705872"><ele>352.965820</ele><time>2022-01-15T09:53:53Z</time><extensions><speed>0.460829</speed><course>234.304642</course><hAcc>1.984723</hAcc><vAcc>0.536595</vAcc></extensions></trkpt>
      <trkpt lon="-3.047730" lat="52.705870"><ele>352.976013</ele><time>2022-01-15T09:53:54Z</time><extensions><speed>0.492552</speed><course>236.573669</course><hAcc>1.999383</hAcc><vAcc>0.535587</vAcc></extensions></trkpt>
      <trkpt lon="-3.047737" lat="52.705868"><ele>352.987427</ele><time>2022-01-15T09:53:55Z</time><extensions><speed>0.499772</speed><course>238.282471</course><hAcc>2.008870</hAcc><vAcc>0.535385</vAcc></extensions></trkpt>
      <trkpt lon="-3.047743" lat="52.705865"><ele>353.000183</ele><time>2022-01-15T09:53:56Z</time><extensions><speed>0.452557</speed><course>239.628784</course><hAcc>2.023012</hAcc><vAcc>0.535966</vAcc></extensions></trkpt>
      <trkpt lon="-3.047748" lat="52.705863"><ele>353.016602</ele><time>2022-01-15T09:53:57Z</time><extensions><speed>0.369382</speed><course>241.219177</course><hAcc>2.035616</hAcc><vAcc>0.537157</vAcc></extensions></trkpt>
      <trkpt lon="-3.047753" lat="52.705862"><ele>353.037262</ele><time>2022-01-15T09:53:58Z</time><extensions><speed>0.390373</speed><course>242.737885</course><hAcc>2.005946</hAcc><vAcc>0.538687</vAcc></extensions></trkpt>
      <trkpt lon="-3.047758" lat="52.705860"><ele>353.062317</ele><time>2022-01-15T09:53:59Z</time><extensions><speed>0.345086</speed><course>243.515839</course><hAcc>1.983492</hAcc><vAcc>0.540321</vAcc></extensions></trkpt>
      <trkpt lon="-3.047762" lat="52.705859"><ele>353.091858</ele><time>2022-01-15T09:54:00Z</time><extensions><speed>0.264526</speed><course>244.110336</course><hAcc>1.970435</hAcc><vAcc>0.541916</vAcc></extensions></trkpt>
      <trkpt lon="-3.047765" lat="52.705858"><ele>353.125824</ele><time>2022-01-15T09:54:01Z</time><extensions><speed>0.181943</speed><course>244.507721</course><hAcc>1.962506</hAcc><vAcc>0.543379</vAcc></extensions></trkpt>
      <trkpt lon="-3.047767" lat="52.705857"><ele>353.163788</ele><time>2022-01-15T09:54:02Z</time><extensions><speed>0.117149</speed><course>243.769058</course><hAcc>1.967974</hAcc><vAcc>0.544630</vAcc></extensions></trkpt>
      <trkpt lon="-3.047768" lat="52.705857"><ele>353.205078</ele><time>2022-01-15T09:54:03Z</time><extensions><speed>0.068937</speed><course>237.027496</course><hAcc>1.988680</hAcc><vAcc>0.545603</vAcc></extensions></trkpt>
      <trkpt lon="-3.047769" lat="52.705857"><ele>353.248627</ele><time>2022-01-15T09:54:04Z</time><extensions><speed>0.085407</speed><course>226.813080</course><hAcc>1.951652</hAcc><vAcc>0.546256</vAcc></extensions></trkpt>
      <trkpt lon="-3.047770" lat="52.705856"><ele>353.292694</ele><time>2022-01-15T09:54:05Z</time><extensions><speed>0.118883</speed><course>217.289886</course><hAcc>1.921762</hAcc><vAcc>0.546605</vAcc></extensions></trkpt>
      <trkpt lon="-3.047771" lat="52.705854"><ele>353.336029</ele><time>2022-01-15T09:54:06Z</time><extensions><speed>0.149063</speed><course>211.653046</course><hAcc>1.915194</hAcc><vAcc>0.546736</vAcc></extensions></trkpt>
      <trkpt lon="-3.047773" lat="52.705853"><ele>353.377441</ele><time>2022-01-15T09:54:07Z</time><extensions><speed>0.173010</speed><course>206.814545</course><hAcc>1.924737</hAcc><vAcc>0.546769</vAcc></extensions></trkpt>
      <trkpt lon="-3.047774" lat="52.705851"><ele>353.415619</ele><time>2022-01-15T09:54:08Z</time><extensions><speed>0.158602</speed><course>201.498215</course><hAcc>1.963864</hAcc><vAcc>0.546800</vAcc></extensions></trkpt>
      <trkpt lon="-3.047774" lat="52.705850"><ele>353.449646</ele><time>2022-01-15T09:54:09Z</time><extensions><speed>0.152964</speed><course>196.679764</course><hAcc>1.983902</hAcc><vAcc>0.546831</vAcc></extensions></trkpt>
      <trkpt lon="-3.047775" lat="52.705848"><ele>353.474670</ele><time>2022-01-15T09:54:10Z</time><extensions><speed>0.256827</speed><course>195.139801</course><hAcc>1.941984</hAcc><vAcc>0.546780</vAcc></extensions></trkpt>
      <trkpt lon="-3.047777" lat="52.705846"><ele>353.487457</ele><time>2022-01-15T09:54:11Z</time><extensions><speed>0.333584</speed><course>194.740036</course><hAcc>1.926196</hAcc><vAcc>0.546552</vAcc></extensions></trkpt>
      <trkpt lon="-3.047778" lat="52.705842"><ele>353.487915</ele><time>2022-01-15T09:54:12Z</time><extensions><speed>0.413279</speed><course>194.669907</course><hAcc>1.934072</hAcc><vAcc>0.546109</vAcc></extensions></trkpt>
      <trkpt lon="-3.047780" lat="52.705838"><ele>353.475739</ele><time>2022-01-15T09:54:13Z</time><extensions><speed>0.495459</speed><course>195.425446</course><hAcc>1.943074</hAcc><vAcc>0.545486</vAcc></extensions></trkpt>
      <trkpt lon="-3.047783" lat="52.705834"><ele>353.450958</ele><time>2022-01-15T09:54:14Z</time><extensions><speed>0.555069</speed><course>196.851395</course><hAcc>1.943615</hAcc><vAcc>0.544801</vAcc></extensions></trkpt>
      <trkpt lon="-3.047785" lat="52.705829"><ele>353.413910</ele><time>2022-01-15T09:54:15Z</time><extensions><speed>0.549309</speed><course>199.311874</course><hAcc>1.934673</hAcc><vAcc>0.544203</vAcc></extensions></trkpt>
      <trkpt lon="-3.047788" lat="52.705825"><ele>353.363190</ele><time>2022-01-15T09:54:16Z</time><extensions><speed>0.456041</speed><course>203.774719</course><hAcc>1.928930</hAcc><vAcc>0.543800</vAcc></extensions></trkpt>
      <trkpt lon="-3.047791" lat="52.705822"><ele>353.303955</ele><time>2022-01-15T09:54:17Z</time><extensions><speed>0.353645</speed><course>211.029312</course><hAcc>1.930797</hAcc><vAcc>0.543593</vAcc></extensions></trkpt>
      <trkpt lon="-3.047794" lat="52.705819"><ele>353.241913</ele><time>2022-01-15T09:54:18Z</time><extensions><speed>0.275086</speed><course>221.754745</course><hAcc>1.943720</hAcc><vAcc>0.543444</vAcc></extensions></trkpt>
      <trkpt lon="-3.047797" lat="52.705818"><ele>353.180237</ele><time>2022-01-15T09:54:19Z</time><extensions><speed>0.228865</speed><course>235.386459</course><hAcc>1.960509</hAcc><vAcc>0.543141</vAcc></extensions></trkpt>
      <trkpt lon="-3.047800" lat="52.705817"><ele>353.122223</ele><time>2022-01-15T09:54:20Z</time><extensions><speed>0.258076</speed><course>248.920868</course><hAcc>1.950912</hAcc><vAcc>0.542411</vAcc></extensions></trkpt>
      <trkpt lon="-3.047804" lat="52.705816"><ele>353.072052</ele><time>2022-01-15T09:54:21Z</time><extensions><speed>0.324760</speed><course>260.147797</course><hAcc>1.931159</hAcc><vAcc>0.540980</vAcc></extensions></trkpt>
      <trkpt lon="-3.047809" lat="52.705816"><ele>353.033173</ele><time>2022-01-15T09:54:22Z</time><extensions><speed>0.339774</speed><course>270.633728</course><hAcc>1.944504</hAcc><vAcc>0.538611</vAcc></extensions></trkpt>
      <trkpt lon="-3.047814" lat="52.705817"><ele>353.007538</ele><time>2022-01-15T09:54:23Z</time><extensions><speed>0.328444</speed><course>281.462738</course><hAcc>1.973342</hAcc><vAcc>0.535162</vAcc></extensions></trkpt>
      <trkpt lon="-3.047818" lat="52.705817"><ele>352.997101</ele><time>2022-01-15T09:54:24Z</time><extensions><speed>0.287074</speed><course>293.760559</course><hAcc>2.001680</hAcc><vAcc>0.530618</vAcc></extensions></trkpt>
      <trkpt lon="-3.047821" lat="52.705819"><ele>353.002075</ele><time>2022-01-15T09:54:25Z</time><extensions><speed>0.243097</speed><course>309.036407</course><hAcc>2.025151</hAcc><vAcc>0.525123</vAcc></extensions></trkpt>
      <trkpt lon="-3.047823" lat="52.705820"><ele>353.021851</ele><time>2022-01-15T09:54:26Z</time><extensions><speed>0.199178</speed><course>329.772217</course><hAcc>2.055830</hAcc><vAcc>0.518999</vAcc></extensions></trkpt>
      <trkpt lon="-3.047824" lat="52.705822"><ele>353.057922</ele><time>2022-01-15T09:54:27Z</time><extensions><speed>0.173794</speed><course>353.195129</course><hAcc>2.089435</hAcc><vAcc>0.512640</vAcc></extensions></trkpt>
      <trkpt lon="-3.047824" lat="52.705823"><ele>353.102631</ele><time>2022-01-15T09:54:28Z</time><extensions><speed>0.175175</speed><course>13.349512</course><hAcc>2.112311</hAcc><vAcc>0.506579</vAcc></extensions></trkpt>
      <trkpt lon="-3.047823" lat="52.705825"><ele>353.152130</ele><time>2022-01-15T09:54:29Z</time><extensions><speed>0.169252</speed><course>28.279495</course><hAcc>2.144818</hAcc><vAcc>0.501209</vAcc></extensions></trkpt>
      <trkpt lon="-3.047821" lat="52.705826"><ele>353.202789</ele><time>2022-01-15T09:54:30Z</time><extensions><speed>0.144856</speed><course>40.064972</course><hAcc>2.178210</hAcc><vAcc>0.496695</vAcc></extensions></trkpt>
      <trkpt lon="-3.047820" lat="52.705827"><ele>353.251617</ele><time>2022-01-15T09:54:31Z</time><extensions><speed>0.189649</speed><course>47.946945</course><hAcc>2.155904</hAcc><vAcc>0.492980</vAcc></extensions></trkpt>
      <trkpt lon="-3.047817" lat="52.705828"><ele>353.296326</ele><time>2022-01-15T09:54:32Z</time><extensions><speed>0.199655</speed><course>52.733578</course><hAcc>2.152009</hAcc><vAcc>0.489964</vAcc></extensions></trkpt>
      <trkpt lon="-3.047815" lat="52.705829"><ele>353.337769</ele><time>2022-01-15T09:54:33Z</time><extensions><speed>0.192058</speed><course>54.330708</course><hAcc>2.173960</hAcc><vAcc>0.487767</vAcc></extensions></trkpt>
      <trkpt lon="-3.047813" lat="52.705830"><ele>353.374512</ele><time>2022-01-15T09:54:34Z</time><extensions><speed>0.181455</speed><course>53.323833</course><hAcc>2.194394</hAcc><vAcc>0.486845</vAcc></extensions></trkpt>
      <trkpt lon="-3.047811" lat="52.705831"><ele>353.406403</ele><time>2022-01-15T09:54:35Z</time><extensions><speed>0.171821</speed><course>51.182472</course><hAcc>2.197057</hAcc><vAcc>0.487881</vAcc></extensions></trkpt>
      <trkpt lon="-3.047809" lat="52.705832"><ele>353.433685</ele><time>2022-01-15T09:54:36Z</time><extensions><speed>0.137503</speed><course>46.057976</course><hAcc>2.186640</hAcc><vAcc>0.491415</vAcc></extensions></trkpt>
      <trkpt lon="-3.047808" lat="52.705833"><ele>353.456757</ele><time>2022-01-15T09:54:37Z</time><extensions><speed>0.106495</speed><course>33.522522</course><hAcc>2.147046</hAcc><vAcc>0.497412</vAcc></extensions></trkpt>
      <trkpt lon="-3.047808" lat="52.705833"><ele>353.474182</ele><time>2022-01-15T09:54:38Z</time><extensions><speed>0.080318</speed><course>10.286158</course><hAcc>2.100279</hAcc><vAcc>0.505295</vAcc></extensions></trkpt>
      <trkpt lon="-3.047808" lat="52.705834"><ele>353.487793</ele><time>2022-01-15T09:54:39Z</time><extensions><speed>0.063076</speed><course>334.984558</course><hAcc>2.067219</hAcc><vAcc>0.514327</vAcc></extensions></trkpt>
      <trkpt lon="-3.047808" lat="52.705834"><ele>353.498352</ele><time>2022-01-15T09:54:41Z</time><extensions><speed>0.054332</speed><course>287.489258</course><hAcc>2.044105</hAcc><vAcc>0.523874</vAcc></extensions></trkpt>
      <trkpt lon="-3.047809" lat="52.705834"><ele>353.506195</ele><time>2022-01-15T09:54:42Z</time><extensions><speed>0.070804</speed><course>231.015701</course><hAcc>2.024454</hAcc><vAcc>0.533435</vAcc></extensions></trkpt>
      <trkpt lon="-3.047810" lat="52.705834"><ele>353.510620</ele><time>2022-01-15T09:54:43Z</time><extensions><speed>0.120731</speed><course>207.304443</course><hAcc>1.984658</hAcc><vAcc>0.542610</vAcc></extensions></trkpt>
      <trkpt lon="-3.047811" lat="52.705832"><ele>353.511230</ele><time>2022-01-15T09:54:44Z</time><extensions><speed>0.151951</speed><course>198.099350</course><hAcc>1.963391</hAcc><vAcc>0.551105</vAcc></extensions></trkpt>
      <trkpt lon="-3.047811" lat="52.705831"><ele>353.514832</ele><time>2022-01-15T09:54:45Z</time><extensions><speed>0.147382</speed><course>192.659973</course><hAcc>1.969186</hAcc><vAcc>0.558695</vAcc></extensions></trkpt>
      <trkpt lon="-3.047812" lat="52.705830"><ele>353.519775</ele><time>2022-01-15T09:54:46Z</time><extensions><speed>0.148954</speed><course>188.815781</course><hAcc>1.949106</hAcc><vAcc>0.565227</vAcc></extensions></trkpt>
      <trkpt lon="-3.047812" lat="52.705829"><ele>353.517303</ele><time>2022-01-15T09:54:47Z</time><extensions><speed>0.105618</speed><course>184.046539</course><hAcc>1.940926</hAcc><vAcc>0.570629</vAcc></extensions></trkpt>
      <trkpt lon="-3.047812" lat="52.705828"><ele>353.508698</ele><time>2022-01-15T09:54:48Z</time><extensions><speed>0.052300</speed><course>173.113998</course><hAcc>1.939098</hAcc><vAcc>0.574933</vAcc></extensions></trkpt>
      <trkpt lon="-3.047812" lat="52.705828"><ele>353.510651</ele><time>2022-01-15T09:54:49Z</time><extensions><speed>0.008424</speed><course>95.962151</course><hAcc>1.941048</hAcc><vAcc>0.578209</vAcc></extensions></trkpt>
      <trkpt lon="-3.047812" lat="52.705828"><ele>353.510315</ele><time>2022-01-15T09:54:50Z</time><extensions><speed>0.044160</speed><course>0.409301</course><hAcc>1.944091</hAcc><vAcc>0.580560</vAcc></extensions></trkpt>
      <trkpt lon="-3.047812" lat="52.705829"><ele>353.510895</ele><time>2022-01-15T09:54:51Z</time><extensions><speed>0.084652</speed><course>354.379883</course><hAcc>1.942417</hAcc><vAcc>0.582019</vAcc></extensions></trkpt>
      <trkpt lon="-3.047812" lat="52.705830"><ele>353.515717</ele><time>2022-01-15T09:54:52Z</time><extensions><speed>0.112869</speed><course>354.196930</course><hAcc>1.940260</hAcc><vAcc>0.582572</vAcc></extensions></trkpt>
      <trkpt lon="-3.047812" lat="52.705831"><ele>353.524872</ele><time>2022-01-15T09:54:53Z</time><extensions><speed>0.131741</speed><course>359.966278</course><hAcc>1.936433</hAcc><vAcc>0.582255</vAcc></extensions></trkpt>
      <trkpt lon="-3.047811" lat="52.705832"><ele>353.533264</ele><time>2022-01-15T09:54:54Z</time><extensions><speed>0.128961</speed><course>9.403000</course><hAcc>1.944267</hAcc><vAcc>0.581215</vAcc></extensions></trkpt>
      <trkpt lon="-3.047811" lat="52.705833"><ele>353.544037</ele><time>2022-01-15T09:54:55Z</time><extensions><speed>0.127632</speed><course>22.146797</course><hAcc>1.952255</hAcc><vAcc>0.579720</vAcc></extensions></trkpt>
      <trkpt lon="-3.047810" lat="52.705834"><ele>353.556335</ele><time>2022-01-15T09:54:56Z</time><extensions><speed>0.141288</speed><course>35.427536</course><hAcc>1.952499</hAcc><vAcc>0.578161</vAcc></extensions></trkpt>
      <trkpt lon="-3.047809" lat="52.705835"><ele>353.569214</ele><time>2022-01-15T09:54:57Z</time><extensions><speed>0.161103</speed><course>47.789772</course><hAcc>1.938640</hAcc><vAcc>0.576982</vAcc></extensions></trkpt>
      <trkpt lon="-3.047807" lat="52.705836"><ele>353.583801</ele><time>2022-01-15T09:54:58Z</time><extensions><speed>0.184635</speed><course>59.531143</course><hAcc>1.907301</hAcc><vAcc>0.576563</vAcc></extensions></trkpt>
      <trkpt lon="-3.047804" lat="52.705837"><ele>353.591553</ele><time>2022-01-15T09:54:59Z</time><extensions><speed>0.186339</speed><course>69.268265</course><hAcc>1.887005</hAcc><vAcc>0.577134</vAcc></extensions></trkpt>
      <trkpt lon="-3.047802" lat="52.705837"><ele>353.613037</ele><time>2022-01-15T09:55:00Z</time><extensions><speed>0.128361</speed><course>57.408058</course><hAcc>1.897433</hAcc><vAcc>0.578831</vAcc></extensions></trkpt>
      <trkpt lon="-3.047801" lat="52.705838"><ele>353.630798</ele><time>2022-01-15T09:55:01Z</time><extensions><speed>0.086270</speed><course>49.087444</course><hAcc>1.876721</hAcc><vAcc>0.581548</vAcc></extensions></trkpt>
      <trkpt lon="-3.047801" lat="52.705839"><ele>353.648407</ele><time>2022-01-15T09:55:02Z</time><extensions><speed>0.042677</speed><course>36.865963</course><hAcc>1.844720</hAcc><vAcc>0.584991</vAcc></extensions></trkpt>
      <trkpt lon="-3.047801" lat="52.705839"><ele>353.666321</ele><time>2022-01-15T09:55:03Z</time><extensions><speed>0.013230</speed><course>328.488007</course><hAcc>1.826255</hAcc><vAcc>0.588704</vAcc></extensions></trkpt>
      <trkpt lon="-3.047801" lat="52.705839"><ele>353.682861</ele><time>2022-01-15T09:55:04Z</time><extensions><speed>0.026392</speed><course>273.929626</course><hAcc>1.827566</hAcc><vAcc>0.592154</vAcc></extensions></trkpt>
      <trkpt lon="-3.047801" lat="52.705839"><ele>353.699951</ele><time>2022-01-15T09:55:05Z</time><extensions><speed>0.045124</speed><course>282.236115</course><hAcc>1.812427</hAcc><vAcc>0.594890</vAcc></extensions></trkpt>
      <trkpt lon="-3.047802" lat="52.705839"><ele>353.717285</ele><time>2022-01-15T09:55:06Z</time><extensions><speed>0.054915</speed><course>291.683960</course><hAcc>1.814939</hAcc><vAcc>0.596537</vAcc></extensions></trkpt>
      <trkpt lon="-3.047803" lat="52.705839"><ele>353.734589</ele><time>2022-01-15T09:55:07Z</time><extensions><speed>0.059010</speed><course>299.627350</course><hAcc>1.836032</hAcc><vAcc>0.596847</vAcc></extensions></trkpt>
      <trkpt lon="-3.047803" lat="52.705839"><ele>353.751678</ele><time>2022-01-15T09:55:08Z</time><extensions><speed>0.059572</speed><course>305.728973</course><hAcc>1.865564</hAcc><vAcc>0.595709</vAcc></extensions></trkpt>
      <trkpt lon="-3.047804" lat="52.705840"><ele>353.769775</ele><time>2022-01-15T09:55:09Z</time><extensions><speed>0.060358</speed><course>313.127228</course><hAcc>1.887675</hAcc><vAcc>0.593195</vAcc></extensions></trkpt>
      <trkpt lon="-3.047805" lat="52.705840"><ele>353.786530</ele><time>2022-01-15T09:55:10Z</time><extensions><speed>0.058560</speed><course>319.631287</course><hAcc>1.899961</hAcc><vAcc>0.589579</vAcc></extensions></trkpt>
      <trkpt lon="-3.047805" lat="52.705841"><ele>353.800690</ele><time>2022-01-15T09:55:11Z</time><extensions><speed>0.039295</speed><course>329.992889</course><hAcc>1.919054</hAcc><vAcc>0.585278</vAcc></extensions></trkpt>
      <trkpt lon="-3.047805" lat="52.705841"><ele>353.812103</ele><time>2022-01-15T09:55:12Z</time><extensions><speed>0.022084</speed><course>17.053421</course><hAcc>1.937020</hAcc><vAcc>0.580784</vAcc></extensions></trkpt>
      <trkpt lon="-3.047805" lat="52.705841"><ele>353.821075</ele><time>2022-01-15T09:55:13Z</time><extensions><speed>0.027642</speed><course>49.964344</course><hAcc>1.957254</hAcc><vAcc>0.576544</vAcc></extensions></trkpt>
      <trkpt lon="-3.047805" lat="52.705842"><ele>353.828552</ele><time>2022-01-15T09:55:14Z</time><extensions><speed>0.048427</speed><course>32.722012</course><hAcc>1.950194</hAcc><vAcc>0.572825</vAcc></extensions></trkpt>
      <trkpt lon="-3.047804" lat="52.705842"><ele>353.835388</ele><time>2022-01-15T09:55:15Z</time><extensions><speed>0.081813</speed><course>22.747637</course><hAcc>1.963622</hAcc><vAcc>0.569659</vAcc></extensions></trkpt>
      <trkpt lon="-3.047803" lat="52.705843"><ele>353.842896</ele><time>2022-01-15T09:55:16Z</time><extensions><speed>0.126777</speed><course>21.166859</course><hAcc>1.983738</hAcc><vAcc>0.566923</vAcc></extensions></trkpt>
      <trkpt lon="-3.047802" lat="52.705844"><ele>353.851318</ele><time>2022-01-15T09:55:17Z</time><extensions><speed>0.179132</speed><course>23.082970</course><hAcc>1.986401</hAcc><vAcc>0.564486</vAcc></extensions></trkpt>
      <trkpt lon="-3.047801" lat="52.705846"><ele>353.860840</ele><time>2022-01-15T09:55:18Z</time><extensions><speed>0.218681</speed><course>25.270658</course><hAcc>1.989135</hAcc><vAcc>0.562277</vAcc></extensions></trkpt>
      <trkpt lon="-3.047800" lat="52.705848"><ele>353.871765</ele><time>2022-01-15T09:55:19Z</time><extensions><speed>0.237896</speed><course>26.053457</course><hAcc>1.999891</hAcc><vAcc>0.560257</vAcc></extensions></trkpt>
      <trkpt lon="-3.047798" lat="52.705850"><ele>353.884308</ele><time>2022-01-15T09:55:20Z</time><extensions><speed>0.259830</speed><course>25.072855</course><hAcc>2.008335</hAcc><vAcc>0.558409</vAcc></extensions></trkpt>
      <trkpt lon="-3.047796" lat="52.705852"><ele>353.898773</ele><time>2022-01-15T09:55:21Z</time><extensions><speed>0.270787</speed><course>23.640705</course><hAcc>2.021637</hAcc><vAcc>0.556772</vAcc></extensions></trkpt>
      <trkpt lon="-3.047795" lat="52.705854"><ele>353.915283</ele><time>2022-01-15T09:55:22Z</time><extensions><speed>0.274039</speed><course>24.438255</course><hAcc>2.030498</hAcc><vAcc>0.555482</vAcc></extensions></trkpt>
      <trkpt lon="-3.047793" lat="52.705856"><ele>353.933685</ele><time>2022-01-15T09:55:23Z</time><extensions><speed>0.257845</speed><course>28.898224</course><hAcc>2.034713</hAcc><vAcc>0.554724</vAcc></extensions></trkpt>
      <trkpt lon="-3.047791" lat="52.705858"><ele>353.954346</ele><time>2022-01-15T09:55:24Z</time><extensions><speed>0.234019</speed><course>38.414608</course><hAcc>2.033090</hAcc><vAcc>0.554655</vAcc></extensions></trkpt>
      <trkpt lon="-3.047788" lat="52.705860"><ele>353.976074</ele><time>2022-01-15T09:55:25Z</time><extensions><speed>0.233255</speed><course>47.120827</course><hAcc>2.015204</hAcc><vAcc>0.555300</vAcc></extensions></trkpt>
      <trkpt lon="-3.047785" lat="52.705861"><ele>353.995422</ele><time>2022-01-15T09:55:26Z</time><extensions><speed>0.215533</speed><course>53.648399</course><hAcc>2.004648</hAcc><vAcc>0.556514</vAcc></extensions></trkpt>
      <trkpt lon="-3.047783" lat="52.705862"><ele>354.009613</ele><time>2022-01-15T09:55:27Z</time><extensions><speed>0.189231</speed><course>59.302917</course><hAcc>2.009028</hAcc><vAcc>0.558040</vAcc></extensions></trkpt>
      <trkpt lon="-3.047781" lat="52.705863"><ele>354.017792</ele><time>2022-01-15T09:55:28Z</time><extensions><speed>0.144772</speed><course>65.324997</course><hAcc>2.025610</hAcc><vAcc>0.559571</vAcc></extensions></trkpt>
      <trkpt lon="-3.047778" lat="52.705863"><ele>354.019531</ele><time>2022-01-15T09:55:29Z</time><extensions><speed>0.168886</speed><course>72.977180</course><hAcc>1.996971</hAcc><vAcc>0.560833</vAcc></extensions></trkpt>
      <trkpt lon="-3.047776" lat="52.705864"><ele>354.015991</ele><time>2022-01-15T09:55:30Z</time><extensions><speed>0.193115</speed><course>79.756203</course><hAcc>1.979707</hAcc><vAcc>0.561631</vAcc></extensions></trkpt>
      <trkpt lon="-3.047773" lat="52.705864"><ele>354.005798</ele><time>2022-01-15T09:55:31Z</time><extensions><speed>0.228009</speed><course>84.917618</course><hAcc>1.981738</hAcc><vAcc>0.561788</vAcc></extensions></trkpt>
      <trkpt lon="-3.047769" lat="52.705864"><ele>353.988129</ele><time>2022-01-15T09:55:32Z</time><extensions><speed>0.266540</speed><course>87.938637</course><hAcc>1.995977</hAcc><vAcc>0.561164</vAcc></extensions></trkpt>
      <trkpt lon="-3.047765" lat="52.705864"><ele>353.963013</ele><time>2022-01-15T09:55:33Z</time><extensions><speed>0.305795</speed><course>88.558670</course><hAcc>2.011906</hAcc><vAcc>0.559744</vAcc></extensions></trkpt>
      <trkpt lon="-3.047760" lat="52.705864"><ele>353.930267</ele><time>2022-01-15T09:55:34Z</time><extensions><speed>0.306970</speed><course>86.672104</course><hAcc>2.031353</hAcc><vAcc>0.557591</vAcc></extensions></trkpt>
      <trkpt lon="-3.047756" lat="52.705865"><ele>353.890564</ele><time>2022-01-15T09:55:35Z</time><extensions><speed>0.277542</speed><course>80.356842</course><hAcc>2.054931</hAcc><vAcc>0.554838</vAcc></extensions></trkpt>
      <trkpt lon="-3.047752" lat="52.705866"><ele>353.846588</ele><time>2022-01-15T09:55:36Z</time><extensions><speed>0.260317</speed><course>69.918556</course><hAcc>2.080058</hAcc><vAcc>0.551628</vAcc></extensions></trkpt>
      <trkpt lon="-3.047748" lat="52.705867"><ele>353.800079</ele><time>2022-01-15T09:55:37Z</time><extensions><speed>0.269289</speed><course>59.650776</course><hAcc>2.112390</hAcc><vAcc>0.548099</vAcc></extensions></trkpt>
      <trkpt lon="-3.047745" lat="52.705868"><ele>353.754242</ele><time>2022-01-15T09:55:38Z</time><extensions><speed>0.277149</speed><course>52.184319</course><hAcc>2.161603</hAcc><vAcc>0.544431</vAcc></extensions></trkpt>
      <trkpt lon="-3.047741" lat="52.705870"><ele>353.710510</ele><time>2022-01-15T09:55:39Z</time><extensions><speed>0.300667</speed><course>46.414284</course><hAcc>2.205826</hAcc><vAcc>0.540872</vAcc></extensions></trkpt>
      <trkpt lon="-3.047738" lat="52.705872"><ele>353.670044</ele><time>2022-01-15T09:55:40Z</time><extensions><speed>0.339752</speed><course>40.729816</course><hAcc>2.236381</hAcc><vAcc>0.537698</vAcc></extensions></trkpt>
      <trkpt lon="-3.047735" lat="52.705875"><ele>353.633698</ele><time>2022-01-15T09:55:41Z</time><extensions><speed>0.375547</speed><course>34.621548</course><hAcc>2.259445</hAcc><vAcc>0.535230</vAcc></extensions></trkpt>
      <trkpt lon="-3.047732" lat="52.705878"><ele>353.602295</ele><time>2022-01-15T09:55:42Z</time><extensions><speed>0.402685</speed><course>28.703369</course><hAcc>2.278127</hAcc><vAcc>0.533755</vAcc></extensions></trkpt>
      <trkpt lon="-3.047729" lat="52.705881"><ele>353.576508</ele><time>2022-01-15T09:55:43Z</time><extensions><speed>0.404918</speed><course>23.863968</course><hAcc>2.292116</hAcc><vAcc>0.533436</vAcc></extensions></trkpt>
      <trkpt lon="-3.047727" lat="52.705885"><ele>353.556732</ele><time>2022-01-15T09:55:44Z</time><extensions><speed>0.427436</speed><course>21.178879</course><hAcc>2.290678</hAcc><vAcc>0.534359</vAcc></extensions></trkpt>
      <trkpt lon="-3.047725" lat="52.705888"><ele>353.542847</ele><time>2022-01-15T09:55:45Z</time><extensions><speed>0.387555</speed><course>20.052242</course><hAcc>2.297474</hAcc><vAcc>0.536596</vAcc></extensions></trkpt>
      <trkpt lon="-3.047723" lat="52.705891"><ele>353.534302</ele><time>2022-01-15T09:55:46Z</time><extensions><speed>0.337773</speed><course>19.458534</course><hAcc>2.291955</hAcc><vAcc>0.540213</vAcc></extensions></trkpt>
      <trkpt lon="-3.047721" lat="52.705894"><ele>353.530243</ele><time>2022-01-15T09:55:46Z</time><extensions><speed>0.285245</speed><course>19.180264</course><hAcc>2.267696</hAcc><vAcc>0.545237</vAcc></extensions></trkpt>
      <trkpt lon="-3.047719" lat="52.705896"><ele>353.533722</ele><time>2022-01-15T09:55:47Z</time><extensions><speed>0.224280</speed><course>21.503883</course><hAcc>2.238310</hAcc><vAcc>0.551547</vAcc></extensions></trkpt>
      <trkpt lon="-3.047718" lat="52.705898"><ele>353.542480</ele><time>2022-01-15T09:55:48Z</time><extensions><speed>0.169644</speed><course>25.521364</course><hAcc>2.211140</hAcc><vAcc>0.558870</vAcc></extensions></trkpt>
      <trkpt lon="-3.047717" lat="52.705899"><ele>353.555756</ele><time>2022-01-15T09:55:49Z</time><extensions><speed>0.126029</speed><course>32.327202</course><hAcc>2.193261</hAcc><vAcc>0.566900</vAcc></extensions></trkpt>
      <trkpt lon="-3.047716" lat="52.705900"><ele>353.572937</ele><time>2022-01-15T09:55:51Z</time><extensions><speed>0.098515</speed><course>43.723129</course><hAcc>2.182352</hAcc><vAcc>0.575364</vAcc></extensions></trkpt>
      <trkpt lon="-3.047714" lat="52.705900"><ele>353.587524</ele><time>2022-01-15T09:55:52Z</time><extensions><speed>0.101157</speed><course>58.467056</course><hAcc>2.167361</hAcc><vAcc>0.583980</vAcc></extensions></trkpt>
      <trkpt lon="-3.047712" lat="52.705901"><ele>353.600616</ele><time>2022-01-15T09:55:52Z</time><extensions><speed>0.128580</speed><course>70.064545</course><hAcc>2.148681</hAcc><vAcc>0.592511</vAcc></extensions></trkpt>
      <trkpt lon="-3.047710" lat="52.705901"><ele>353.612579</ele><time>2022-01-15T09:55:53Z</time><extensions><speed>0.179003</speed><course>76.986710</course><hAcc>2.133161</hAcc><vAcc>0.600781</vAcc></extensions></trkpt>
      <trkpt lon="-3.047707" lat="52.705902"><ele>353.621063</ele><time>2022-01-15T09:55:55Z</time><extensions><speed>0.236461</speed><course>79.750320</course><hAcc>2.133811</hAcc><vAcc>0.608701</vAcc></extensions></trkpt>
      <trkpt lon="-3.047703" lat="52.705902"><ele>353.631653</ele><time>2022-01-15T09:55:56Z</time><extensions><speed>0.309811</speed><course>80.499390</course><hAcc>2.133430</hAcc><vAcc>0.616266</vAcc></extensions></trkpt>
      <trkpt lon="-3.047697" lat="52.705903"><ele>353.639038</ele><time>2022-01-15T09:55:56Z</time><extensions><speed>0.393417</speed><course>79.549522</course><hAcc>2.122145</hAcc><vAcc>0.623308</vAcc></extensions></trkpt>
      <trkpt lon="-3.047691" lat="52.705904"><ele>353.642487</ele><time>2022-01-15T09:55:57Z</time><extensions><speed>0.430055</speed><course>76.389191</course><hAcc>2.112401</hAcc><vAcc>0.629974</vAcc></extensions></trkpt>
      <trkpt lon="-3.047685" lat="52.705905"><ele>353.642181</ele><time>2022-01-15T09:55:59Z</time><extensions><speed>0.409427</speed><course>70.732872</course><hAcc>2.106358</hAcc><vAcc>0.635917</vAcc></extensions></trkpt>
      <trkpt lon="-3.047680" lat="52.705906"><ele>353.644012</ele><time>2022-01-15T09:56:00Z</time><extensions><speed>0.406825</speed><course>64.006500</course><hAcc>2.092163</hAcc><vAcc>0.640752</vAcc></extensions></trkpt>
      <trkpt lon="-3.047674" lat="52.705908"><ele>353.643036</ele><time>2022-01-15T09:56:00Z</time><extensions><speed>0.384314</speed><course>57.703327</course><hAcc>2.089679</hAcc><vAcc>0.644213</vAcc></extensions></trkpt>
      <trkpt lon="-3.047670" lat="52.705910"><ele>353.638550</ele><time>2022-01-15T09:56:01Z</time><extensions><speed>0.343870</speed><course>52.345657</course><hAcc>2.097679</hAcc><vAcc>0.646110</vAcc></extensions></trkpt>
      <trkpt lon="-3.047666" lat="52.705912"><ele>353.627258</ele><time>2022-01-15T09:56:02Z</time><extensions><speed>0.319869</speed><course>48.431740</course><hAcc>2.093447</hAcc><vAcc>0.646295</vAcc></extensions></trkpt>
      <trkpt lon="-3.047662" lat="52.705914"><ele>353.614014</ele><time>2022-01-15T09:56:03Z</time><extensions><speed>0.377614</speed><course>46.634602</course><hAcc>2.060540</hAcc><vAcc>0.644509</vAcc></extensions></trkpt>
      <trkpt lon="-3.047658" lat="52.705916"><ele>353.597687</ele><time>2022-01-15T09:56:04Z</time><extensions><speed>0.371152</speed><course>46.608028</course><hAcc>2.052686</hAcc><vAcc>0.640631</vAcc></extensions></trkpt>
      <trkpt lon="-3.047654" lat="52.705918"><ele>353.577209</ele><time>2022-01-15T09:56:05Z</time><extensions><speed>0.325463</speed><course>47.954437</course><hAcc>2.067650</hAcc><vAcc>0.634694</vAcc></extensions></trkpt>
      <trkpt lon="-3.047651" lat="52.705920"><ele>353.552094</ele><time>2022-01-15T09:56:06Z</time><extensions><speed>0.274920</speed><course>51.276745</course><hAcc>2.084894</hAcc><vAcc>0.626916</vAcc></extensions></trkpt>
      <trkpt lon="-3.047648" lat="52.705921"><ele>353.522278</ele><time>2022-01-15T09:56:07Z</time><extensions><speed>0.221908</speed><course>58.347240</course><hAcc>2.106814</hAcc><vAcc>0.617726</vAcc></extensions></trkpt>
      <trkpt lon="-3.047646" lat="52.705922"><ele>353.487701</ele><time>2022-01-15T09:56:08Z</time><extensions><speed>0.160673</speed><course>71.151443</course><hAcc>2.139755</hAcc><vAcc>0.607821</vAcc></extensions></trkpt>
      <trkpt lon="-3.047644" lat="52.705922"><ele>353.448242</ele><time>2022-01-15T09:56:09Z</time><extensions><speed>0.109875</speed><course>93.879005</course><hAcc>2.163145</hAcc><vAcc>0.598172</vAcc></extensions></trkpt>
      <trkpt lon="-3.047643" lat="52.705922"><ele>353.403900</ele><time>2022-01-15T09:56:10Z</time><extensions><speed>0.078700</speed><course>139.219971</course><hAcc>2.167262</hAcc><vAcc>0.589882</vAcc></extensions></trkpt>
      <trkpt lon="-3.047643" lat="52.705921"><ele>353.358093</ele><time>2022-01-15T09:56:11Z</time><extensions><speed>0.118270</speed><course>191.061966</course><hAcc>2.152601</hAcc><vAcc>0.583914</vAcc></extensions></trkpt>
      <trkpt lon="-3.047644" lat="52.705919"><ele>353.313141</ele><time>2022-01-15T09:56:12Z</time><extensions><speed>0.179030</speed><course>212.228729</course><hAcc>2.139940</hAcc><vAcc>0.580785</vAcc></extensions></trkpt>
      <trkpt lon="-3.047646" lat="52.705918"><ele>353.266937</ele><time>2022-01-15T09:56:13Z</time><extensions><speed>0.224972</speed><course>222.597137</course><hAcc>2.118505</hAcc><vAcc>0.580479</vAcc></extensions></trkpt>
      <trkpt lon="-3.047648" lat="52.705916"><ele>353.226532</ele><time>2022-01-15T09:56:14Z</time><extensions><speed>0.257175</speed><course>227.553314</course><hAcc>2.074921</hAcc><vAcc>0.582628</vAcc></extensions></trkpt>
      <trkpt lon="-3.047651" lat="52.705915"><ele>353.186859</ele><time>2022-01-15T09:56:15Z</time><extensions><speed>0.277249</speed><course>228.980057</course><hAcc>2.021371</hAcc><vAcc>0.586748</vAcc></extensions></trkpt>
      <trkpt lon="-3.047654" lat="52.705913"><ele>353.148071</ele><time>2022-01-15T09:56:16Z</time><extensions><speed>0.227179</speed><course>226.929169</course><hAcc>2.012839</hAcc><vAcc>0.592412</vAcc></extensions></trkpt>
      <trkpt lon="-3.047655" lat="52.705912"><ele>353.111298</ele><time>2022-01-15T09:56:17Z</time><extensions><speed>0.139491</speed><course>219.069641</course><hAcc>2.043146</hAcc><vAcc>0.599171</vAcc></extensions></trkpt>
      <trkpt lon="-3.047656" lat="52.705911"><ele>353.076508</ele><time>2022-01-15T09:56:18Z</time><extensions><speed>0.132144</speed><course>203.326187</course><hAcc>2.035676</hAcc><vAcc>0.606560</vAcc></extensions></trkpt>
      <trkpt lon="-3.047657" lat="52.705909"><ele>353.044250</ele><time>2022-01-15T09:56:19Z</time><extensions><speed>0.205377</speed><course>188.922455</course><hAcc>1.988600</hAcc><vAcc>0.614156</vAcc></extensions></trkpt>
      <trkpt lon="-3.047657" lat="52.705907"><ele>353.013733</ele><time>2022-01-15T09:56:20Z</time><extensions><speed>0.250824</speed><course>177.669662</course><hAcc>1.975535</hAcc><vAcc>0.621630</vAcc></extensions></trkpt>
      <trkpt lon="-3.047656" lat="52.705905"><ele>352.976959</ele><time>2022-01-15T09:56:21Z</time><extensions><speed>0.272146</speed><course>164.377396</course><hAcc>1.988138</hAcc><vAcc>0.628743</vAcc></extensions></trkpt>
      <trkpt lon="-3.047654" lat="52.705902"><ele>352.932861</ele><time>2022-01-15T09:56:22Z</time><extensions><speed>0.296787</speed><course>149.417526</course><hAcc>1.990829</hAcc><vAcc>0.635398</vAcc></extensions></trkpt>
      <trkpt lon="-3.047651" lat="52.705900"><ele>352.883179</ele><time>2022-01-15T09:56:23Z</time><extensions><speed>0.324662</speed><course>135.937820</course><hAcc>1.979930</hAcc><vAcc>0.641524</vAcc></extensions></trkpt>
      <trkpt lon="-3.047647" lat="52.705898"><ele>352.824310</ele><time>2022-01-15T09:56:24Z</time><extensions><speed>0.329464</speed><course>125.192551</course><hAcc>1.964409</hAcc><vAcc>0.647061</vAcc></extensions></trkpt>
      <trkpt lon="-3.047643" lat="52.705897"><ele>352.754150</ele><time>2022-01-15T09:56:25Z</time><extensions><speed>0.308520</speed><course>117.537437</course><hAcc>1.949814</hAcc><vAcc>0.652081</vAcc></extensions></trkpt>
      <trkpt lon="-3.047639" lat="52.705896"><ele>352.679626</ele><time>2022-01-15T09:56:26Z</time><extensions><speed>0.253793</speed><course>113.806992</course><hAcc>1.945863</hAcc><vAcc>0.656644</vAcc></extensions></trkpt>
      <trkpt lon="-3.047635" lat="52.705895"><ele>352.593872</ele><time>2022-01-15T09:56:27Z</time><extensions><speed>0.236175</speed><course>111.495132</course><hAcc>1.931825</hAcc><vAcc>0.660688</vAcc></extensions></trkpt>
      <trkpt lon="-3.047632" lat="52.705894"><ele>352.500977</ele><time>2022-01-15T09:56:28Z</time><extensions><speed>0.201099</speed><course>108.412384</course><hAcc>1.930928</hAcc><vAcc>0.664111</vAcc></extensions></trkpt>
      <trkpt lon="-3.047629" lat="52.705894"><ele>352.402191</ele><time>2022-01-15T09:56:29Z</time><extensions><speed>0.221159</speed><course>104.482178</course><hAcc>1.920379</hAcc><vAcc>0.666895</vAcc></extensions></trkpt>
      <trkpt lon="-3.047626" lat="52.705893"><ele>352.301575</ele><time>2022-01-15T09:56:30Z</time><extensions><speed>0.254620</speed><course>99.827599</course><hAcc>1.910343</hAcc><vAcc>0.669011</vAcc></extensions></trkpt>
      <trkpt lon="-3.047621" lat="52.705893"><ele>352.197571</ele><time>2022-01-15T09:56:31Z</time><extensions><speed>0.339305</speed><course>94.147705</course><hAcc>1.887697</hAcc><vAcc>0.670487</vAcc></extensions></trkpt>
      <trkpt lon="-3.047616" lat="52.705893"><ele>352.091064</ele><time>2022-01-15T09:56:32Z</time><extensions><speed>0.338528</speed><course>86.870430</course><hAcc>1.902032</hAcc><vAcc>0.671241</vAcc></extensions></trkpt>
      <trkpt lon="-3.047612" lat="52.705893"><ele>351.993011</ele><time>2022-01-15T09:56:33Z</time><extensions><speed>0.299396</speed><course>78.079376</course><hAcc>1.936883</hAcc><vAcc>0.671113</vAcc></extensions></trkpt>
      <trkpt lon="-3.047608" lat="52.705894"><ele>351.896881</ele><time>2022-01-15T09:56:34Z</time><extensions><speed>0.252635</speed><course>68.666588</course><hAcc>1.964091</hAcc><vAcc>0.670211</vAcc></extensions></trkpt>
      <trkpt lon="-3.047605" lat="52.705895"><ele>351.805664</ele><time>2022-01-15T09:56:36Z</time><extensions><speed>0.211555</speed><course>60.889248</course><hAcc>1.977677</hAcc><vAcc>0.668604</vAcc></extensions></trkpt>
      <trkpt lon="-3.047603" lat="52.705896"><ele>351.720825</ele><time>2022-01-15T09:56:36Z</time><extensions><speed>0.156074</speed><course>51.614166</course><hAcc>1.991170</hAcc><vAcc>0.666398</vAcc></extensions></trkpt>
      <trkpt lon="-3.047601" lat="52.705897"><ele>351.645416</ele><time>2022-01-15T09:56:37Z</time><extensions><speed>0.116059</speed><course>35.866318</course><hAcc>1.993161</hAcc><vAcc>0.663657</vAcc></extensions></trkpt>
      <trkpt lon="-3.047601" lat="52.705898"><ele>351.585083</ele><time>2022-01-15T09:56:39Z</time><extensions><speed>0.082264</speed><course>13.193851</course><hAcc>1.999066</hAcc><vAcc>0.660335</vAcc></extensions></trkpt>
      <trkpt lon="-3.047601" lat="52.705898"><ele>351.532532</ele><time>2022-01-15T09:56:40Z</time><extensions><speed>0.071484</speed><course>342.229095</course><hAcc>2.006688</hAcc><vAcc>0.656570</vAcc></extensions></trkpt>
      <trkpt lon="-3.047601" lat="52.705899"><ele>351.485321</ele><time>2022-01-15T09:56:41Z</time><extensions><speed>0.081703</speed><course>319.655212</course><hAcc>2.016955</hAcc><vAcc>0.652388</vAcc></extensions></trkpt>
      <trkpt lon="-3.047602" lat="52.705900"><ele>351.453644</ele><time>2022-01-15T09:56:42Z</time><extensions><speed>0.114975</speed><course>314.588379</course><hAcc>2.007604</hAcc><vAcc>0.647795</vAcc></extensions></trkpt>
      <trkpt lon="-3.047604" lat="52.705901"><ele>351.437469</ele><time>2022-01-15T09:56:43Z</time><extensions><speed>0.129445</speed><course>317.903625</course><hAcc>2.016237</hAcc><vAcc>0.642871</vAcc></extensions></trkpt>
      <trkpt lon="-3.047605" lat="52.705901"><ele>351.437683</ele><time>2022-01-15T09:56:44Z</time><extensions><speed>0.147948</speed><course>324.174286</course><hAcc>2.020235</hAcc><vAcc>0.637734</vAcc></extensions></trkpt>
      <trkpt lon="-3.047606" lat="52.705903"><ele>351.451569</ele><time>2022-01-15T09:56:45Z</time><extensions><speed>0.159595</speed><course>330.924713</course><hAcc>2.025440</hAcc><vAcc>0.632553</vAcc></extensions></trkpt>
      <trkpt lon="-3.047607" lat="52.705904"><ele>351.474609</ele><time>2022-01-15T09:56:46Z</time><extensions><speed>0.188427</speed><course>335.007690</course><hAcc>2.020752</hAcc><vAcc>0.627410</vAcc></extensions></trkpt>
      <trkpt lon="-3.047609" lat="52.705906"><ele>351.506531</ele><time>2022-01-15T09:56:47Z</time><extensions><speed>0.197311</speed><course>336.639252</course><hAcc>2.027665</hAcc><vAcc>0.622252</vAcc></extensions></trkpt>
      <trkpt lon="-3.047610" lat="52.705907"><ele>351.545959</ele><time>2022-01-15T09:56:48Z</time><extensions><speed>0.196579</speed><course>336.726227</course><hAcc>2.031906</hAcc><vAcc>0.616970</vAcc></extensions></trkpt>
      <trkpt lon="-3.047611" lat="52.705909"><ele>351.591370</ele><time>2022-01-15T09:56:49Z</time><extensions><speed>0.192211</speed><course>335.468811</course><hAcc>2.020996</hAcc><vAcc>0.611541</vAcc></extensions></trkpt>
      <trkpt lon="-3.047612" lat="52.705910"><ele>351.641205</ele><time>2022-01-15T09:56:50Z</time><extensions><speed>0.173755</speed><course>331.149841</course><hAcc>2.006399</hAcc><vAcc>0.606059</vAcc></extensions></trkpt>
      <trkpt lon="-3.047614" lat="52.705912"><ele>351.694000</ele><time>2022-01-15T09:56:51Z</time><extensions><speed>0.137926</speed><course>321.410248</course><hAcc>2.017136</hAcc><vAcc>0.600678</vAcc></extensions></trkpt>
      <trkpt lon="-3.047615" lat="52.705912"><ele>351.748077</ele><time>2022-01-15T09:56:52Z</time><extensions><speed>0.087085</speed><course>303.135101</course><hAcc>2.051120</hAcc><vAcc>0.595591</vAcc></extensions></trkpt>
      <trkpt lon="-3.047616" lat="52.705913"><ele>351.801086</ele><time>2022-01-15T09:56:53Z</time><extensions><speed>0.117322</speed><course>286.709717</course><hAcc>2.009581</hAcc><vAcc>0.590997</vAcc></extensions></trkpt>
      <trkpt lon="-3.047618" lat="52.705913"><ele>351.850494</ele><time>2022-01-15T09:56:54Z</time><extensions><speed>0.129863</speed><course>280.078491</course><hAcc>1.982814</hAcc><vAcc>0.587009</vAcc></extensions></trkpt>
      <trkpt lon="-3.047620" lat="52.705913"><ele>351.894440</ele><time>2022-01-15T09:56:55Z</time><extensions><speed>0.122806</speed><course>277.909668</course><hAcc>2.000730</hAcc><vAcc>0.583634</vAcc></extensions></trkpt>
      <trkpt lon="-3.047621" lat="52.705913"><ele>351.932129</ele><time>2022-01-15T09:56:56Z</time><extensions><speed>0.086946</speed><course>277.111450</course><hAcc>2.038503</hAcc><vAcc>0.580840</vAcc></extensions></trkpt>
      <trkpt lon="-3.047623" lat="52.705913"><ele>351.963562</ele><time>2022-01-15T09:56:57Z</time><extensions><speed>0.091510</speed><course>276.701141</course><hAcc>2.016589</hAcc><vAcc>0.578666</vAcc></extensions></trkpt>
      <trkpt lon="-3.047624" lat="52.705914"><ele>351.993286</ele><time>2022-01-15T09:56:58Z</time><extensions><speed>0.082083</speed><course>286.999146</course><hAcc>2.006166</hAcc><vAcc>0.577230</vAcc></extensions></trkpt>
      <trkpt lon="-3.047625" lat="52.705914"><ele>352.024750</ele><time>2022-01-15T09:56:59Z</time><extensions><speed>0.074876</speed><course>302.900208</course><hAcc>2.009882</hAcc><vAcc>0.576685</vAcc></extensions></trkpt>
      <trkpt lon="-3.047626" lat="52.705915"><ele>352.058655</ele><time>2022-01-15T09:57:00Z</time><extensions><speed>0.078115</speed><course>323.550262</course><hAcc>2.018367</hAcc><vAcc>0.577138</vAcc></extensions></trkpt>
      <trkpt lon="-3.047626" lat="52.705916"><ele>352.100800</ele><time>2022-01-15T09:57:01Z</time><extensions><speed>0.095614</speed><course>341.696686</course><hAcc>2.029005</hAcc><vAcc>0.578549</vAcc></extensions></trkpt>
      <trkpt lon="-3.047627" lat="52.705917"><ele>352.128876</ele><time>2022-01-15T09:57:02Z</time><extensions><speed>0.132751</speed><course>352.809662</course><hAcc>2.031999</hAcc><vAcc>0.580651</vAcc></extensions></trkpt>
      <trkpt lon="-3.047627" lat="52.705918"><ele>352.187958</ele><time>2022-01-15T09:57:03Z</time><extensions><speed>0.188915</speed><course>358.547333</course><hAcc>2.027879</hAcc><vAcc>0.582800</vAcc></extensions></trkpt>
      <trkpt lon="-3.047627" lat="52.705920"><ele>352.257263</ele><time>2022-01-15T09:57:04Z</time><extensions><speed>0.268902</speed><course>1.285499</course><hAcc>2.018748</hAcc><vAcc>0.584450</vAcc></extensions></trkpt>
      <trkpt lon="-3.047627" lat="52.705923"><ele>352.338806</ele><time>2022-01-15T09:57:05Z</time><extensions><speed>0.366373</speed><course>2.570723</course><hAcc>2.012252</hAcc><vAcc>0.584833</vAcc></extensions></trkpt>
      <trkpt lon="-3.047626" lat="52.705927"><ele>352.434692</ele><time>2022-01-15T09:57:06Z</time><extensions><speed>0.463665</speed><course>3.206120</course><hAcc>2.016451</hAcc><vAcc>0.583158</vAcc></extensions></trkpt>
      <trkpt lon="-3.047626" lat="52.705931"><ele>352.548676</ele><time>2022-01-15T09:57:07Z</time><extensions><speed>0.536254</speed><course>3.431971</course><hAcc>2.033792</hAcc><vAcc>0.578730</vAcc></extensions></trkpt>
      <trkpt lon="-3.047626" lat="52.705936"><ele>352.675140</ele><time>2022-01-15T09:57:08Z</time><extensions><speed>0.520759</speed><course>3.450117</course><hAcc>2.062288</hAcc><vAcc>0.571066</vAcc></extensions></trkpt>
      <trkpt lon="-3.047625" lat="52.705941"><ele>352.803741</ele><time>2022-01-15T09:57:09Z</time><extensions><speed>0.491801</speed><course>3.512673</course><hAcc>2.090073</hAcc><vAcc>0.560048</vAcc></extensions></trkpt>
      <trkpt lon="-3.047625" lat="52.705945"><ele>352.944092</ele><time>2022-01-15T09:57:10Z</time><extensions><speed>0.437773</speed><course>3.664926</course><hAcc>2.143689</hAcc><vAcc>0.545736</vAcc></extensions></trkpt>
      <trkpt lon="-3.047624" lat="52.705949"><ele>353.091675</ele><time>2022-01-15T09:57:11Z</time><extensions><speed>0.348166</speed><course>4.615053</course><hAcc>2.238316</hAcc><vAcc>0.528930</vAcc></extensions></trkpt>
      <trkpt lon="-3.047623" lat="52.705951"><ele>353.215179</ele><time>2022-01-15T09:57:12Z</time><extensions><speed>0.252269</speed><course>7.158823</course><hAcc>2.351810</hAcc><vAcc>0.510535</vAcc></extensions></trkpt>
      <trkpt lon="-3.047622" lat="52.705953"><ele>353.340027</ele><time>2022-01-15T09:57:13Z</time><extensions><speed>0.196224</speed><course>12.823324</course><hAcc>2.465003</hAcc><vAcc>0.492338</vAcc></extensions></trkpt>
      <trkpt lon="-3.047621" lat="52.705954"><ele>353.454559</ele><time>2022-01-15T09:57:14Z</time><extensions><speed>0.133824</speed><course>23.075375</course><hAcc>2.589127</hAcc><vAcc>0.476410</vAcc></extensions></trkpt>
      <trkpt lon="-3.047620" lat="52.705955"><ele>353.554291</ele><time>2022-01-15T09:57:15Z</time><extensions><speed>0.096893</speed><course>42.725243</course><hAcc>2.680264</hAcc><vAcc>0.464169</vAcc></extensions></trkpt>
      <trkpt lon="-3.047619" lat="52.705955"><ele>353.637756</ele><time>2022-01-15T09:57:16Z</time><extensions><speed>0.084668</speed><course>72.299660</course><hAcc>2.734727</hAcc><vAcc>0.456174</vAcc></extensions></trkpt>
      <trkpt lon="-3.047617" lat="52.705955"><ele>353.700989</ele><time>2022-01-15T09:57:17Z</time><extensions><speed>0.087533</speed><course>99.575623</course><hAcc>2.771021</hAcc><vAcc>0.452553</vAcc></extensions></trkpt>
      <trkpt lon="-3.047616" lat="52.705954"><ele>353.745880</ele><time>2022-01-15T09:57:18Z</time><extensions><speed>0.113883</speed><course>115.534386</course><hAcc>2.758476</hAcc><vAcc>0.453215</vAcc></extensions></trkpt>
      <trkpt lon="-3.047614" lat="52.705954"><ele>353.775055</ele><time>2022-01-15T09:57:19Z</time><extensions><speed>0.165573</speed><course>123.784370</course><hAcc>2.695846</hAcc><vAcc>0.457877</vAcc></extensions></trkpt>
      <trkpt lon="-3.047612" lat="52.705953"><ele>353.791138</ele><time>2022-01-15T09:57:20Z</time><extensions><speed>0.211326</speed><course>129.026901</course><hAcc>2.621843</hAcc><vAcc>0.465962</vAcc></extensions></trkpt>
      <trkpt lon="-3.047609" lat="52.705951"><ele>353.797211</ele><time>2022-01-15T09:57:21Z</time><extensions><speed>0.243590</speed><course>132.777084</course><hAcc>2.554996</hAcc><vAcc>0.476588</vAcc></extensions></trkpt>
      <trkpt lon="-3.047606" lat="52.705950"><ele>353.795593</ele><time>2022-01-15T09:57:22Z</time><extensions><speed>0.237700</speed><course>135.418991</course><hAcc>2.506021</hAcc><vAcc>0.488707</vAcc></extensions></trkpt>
      <trkpt lon="-3.047604" lat="52.705948"><ele>353.787262</ele><time>2022-01-15T09:57:23Z</time><extensions><speed>0.220463</speed><course>137.766891</course><hAcc>2.460844</hAcc><vAcc>0.501428</vAcc></extensions></trkpt>
      <trkpt lon="-3.047602" lat="52.705947"><ele>353.773071</ele><time>2022-01-15T09:57:24Z</time><extensions><speed>0.190063</speed><course>140.833527</course><hAcc>2.418436</hAcc><vAcc>0.514161</vAcc></extensions></trkpt>
      <trkpt lon="-3.047601" lat="52.705946"><ele>353.754395</ele><time>2022-01-15T09:57:25Z</time><extensions><speed>0.163365</speed><course>144.547516</course><hAcc>2.373321</hAcc><vAcc>0.526508</vAcc></extensions></trkpt>
      <trkpt lon="-3.047599" lat="52.705944"><ele>353.724213</ele><time>2022-01-15T09:57:26Z</time><extensions><speed>0.139477</speed><course>144.854019</course><hAcc>2.330199</hAcc><vAcc>0.538223</vAcc></extensions></trkpt>
      <trkpt lon="-3.047598" lat="52.705944"><ele>353.687958</ele><time>2022-01-15T09:57:27Z</time><extensions><speed>0.110002</speed><course>141.797699</course><hAcc>2.301327</hAcc><vAcc>0.549202</vAcc></extensions></trkpt>
      <trkpt lon="-3.047597" lat="52.705943"><ele>353.646545</ele><time>2022-01-15T09:57:28Z</time><extensions><speed>0.085319</speed><course>134.240997</course><hAcc>2.278975</hAcc><vAcc>0.559475</vAcc></extensions></trkpt>
      <trkpt lon="-3.047595" lat="52.705943"><ele>353.600891</ele><time>2022-01-15T09:57:29Z</time><extensions><speed>0.072892</speed><course>120.660271</course><hAcc>2.250084</hAcc><vAcc>0.569128</vAcc></extensions></trkpt>
      <trkpt lon="-3.047594" lat="52.705942"><ele>353.551544</ele><time>2022-01-15T09:57:30Z</time><extensions><speed>0.074146</speed><course>103.601418</course><hAcc>2.210979</hAcc><vAcc>0.578194</vAcc></extensions></trkpt>
      <trkpt lon="-3.047593" lat="52.705942"><ele>353.499023</ele><time>2022-01-15T09:57:31Z</time><extensions><speed>0.089835</speed><course>89.405449</course><hAcc>2.160886</hAcc><vAcc>0.586656</vAcc></extensions></trkpt>
      <trkpt lon="-3.047591" lat="52.705942"><ele>353.443726</ele><time>2022-01-15T09:57:32Z</time><extensions><speed>0.108829</speed><course>80.199532</course><hAcc>2.111294</hAcc><vAcc>0.594397</vAcc></extensions></trkpt>
      <trkpt lon="-3.047590" lat="52.705943"><ele>353.386200</ele><time>2022-01-15T09:57:33Z</time><extensions><speed>0.131070</speed><course>74.715813</course><hAcc>2.058367</hAcc><vAcc>0.601323</vAcc></extensions></trkpt>
      <trkpt lon="-3.047588" lat="52.705943"><ele>353.327148</ele><time>2022-01-15T09:57:34Z</time><extensions><speed>0.144070</speed><course>71.524216</course><hAcc>2.011655</hAcc><vAcc>0.607342</vAcc></extensions></trkpt>
      <trkpt lon="-3.047586" lat="52.705944"><ele>353.261932</ele><time>2022-01-15T09:57:35Z</time><extensions><speed>0.143108</speed><course>65.456863</course><hAcc>1.980179</hAcc><vAcc>0.612429</vAcc></extensions></trkpt>
      <trkpt lon="-3.047585" lat="52.705945"><ele>353.199799</ele><time>2022-01-15T09:57:36Z</time><extensions><speed>0.104462</speed><course>60.249607</course><hAcc>1.982218</hAcc><vAcc>0.616594</vAcc></extensions></trkpt>
      <trkpt lon="-3.047584" lat="52.705945"><ele>353.146545</ele><time>2022-01-15T09:57:37Z</time><extensions><speed>0.072246</speed><course>52.428661</course><hAcc>1.986502</hAcc><vAcc>0.619767</vAcc></extensions></trkpt>
      <trkpt lon="-3.047583" lat="52.705946"><ele>353.097351</ele><time>2022-01-15T09:57:38Z</time><extensions><speed>0.055343</speed><course>37.581417</course><hAcc>1.990474</hAcc><vAcc>0.621868</vAcc></extensions></trkpt>
      <trkpt lon="-3.047583" lat="52.705946"><ele>353.060913</ele><time>2022-01-15T09:57:39Z</time><extensions><speed>0.057215</speed><course>10.601394</course><hAcc>1.987511</hAcc><vAcc>0.622907</vAcc></extensions></trkpt>
      <trkpt lon="-3.047583" lat="52.705947"><ele>353.032745</ele><time>2022-01-15T09:57:40Z</time><extensions><speed>0.129484</speed><course>350.134766</course><hAcc>1.939737</hAcc><vAcc>0.622788</vAcc></extensions></trkpt>
      <trkpt lon="-3.047584" lat="52.705949"><ele>353.017456</ele><time>2022-01-15T09:57:41Z</time><extensions><speed>0.193341</speed><course>338.484497</course><hAcc>1.941548</hAcc><vAcc>0.621338</vAcc></extensions></trkpt>
      <trkpt lon="-3.047586" lat="52.705950"><ele>353.020447</ele><time>2022-01-15T09:57:42Z</time><extensions><speed>0.248565</speed><course>330.111176</course><hAcc>1.987307</hAcc><vAcc>0.618265</vAcc></extensions></trkpt>
      <trkpt lon="-3.047588" lat="52.705952"><ele>353.036957</ele><time>2022-01-15T09:57:43Z</time><extensions><speed>0.315234</speed><course>323.899750</course><hAcc>2.029661</hAcc><vAcc>0.613081</vAcc></extensions></trkpt>
      <trkpt lon="-3.047591" lat="52.705955"><ele>353.065979</ele><time>2022-01-15T09:57:44Z</time><extensions><speed>0.370049</speed><course>319.063110</course><hAcc>2.062420</hAcc><vAcc>0.605219</vAcc></extensions></trkpt>
      <trkpt lon="-3.047595" lat="52.705957"><ele>353.111542</ele><time>2022-01-15T09:57:45Z</time><extensions><speed>0.395033</speed><course>314.041229</course><hAcc>2.084339</hAcc><vAcc>0.594235</vAcc></extensions></trkpt>
      <trkpt lon="-3.047600" lat="52.705959"><ele>353.174988</ele><time>2022-01-15T09:57:46Z</time><extensions><speed>0.385536</speed><course>306.418884</course><hAcc>2.101031</hAcc><vAcc>0.579817</vAcc></extensions></trkpt>
      <trkpt lon="-3.047605" lat="52.705961"><ele>353.252625</ele><time>2022-01-15T09:57:47Z</time><extensions><speed>0.391861</speed><course>296.361786</course><hAcc>2.121146</hAcc><vAcc>0.562151</vAcc></extensions></trkpt>
      <trkpt lon="-3.047610" lat="52.705962"><ele>353.365143</ele><time>2022-01-15T09:57:48Z</time><extensions><speed>0.355608</speed><course>284.591919</course><hAcc>2.175070</hAcc><vAcc>0.541709</vAcc></extensions></trkpt>
      <trkpt lon="-3.047616" lat="52.705962"><ele>353.454590</ele><time>2022-01-15T09:57:49Z</time><extensions><speed>0.318343</speed><course>270.570526</course><hAcc>2.239875</hAcc><vAcc>0.519079</vAcc></extensions></trkpt>
      <trkpt lon="-3.047620" lat="52.705962"><ele>353.540741</ele><time>2022-01-15T09:57:50Z</time><extensions><speed>0.330747</speed><course>257.609741</course><hAcc>2.297143</hAcc><vAcc>0.495822</vAcc></extensions></trkpt>
      <trkpt lon="-3.047625" lat="52.705961"><ele>353.613556</ele><time>2022-01-15T09:57:51Z</time><extensions><speed>0.356819</speed><course>247.705353</course><hAcc>2.360394</hAcc><vAcc>0.473045</vAcc></extensions></trkpt>
      <trkpt lon="-3.047631" lat="52.705960"><ele>353.719147</ele><time>2022-01-15T09:57:52Z</time><extensions><speed>0.399514</speed><course>241.975021</course><hAcc>2.430307</hAcc><vAcc>0.452498</vAcc></extensions></trkpt>
      <trkpt lon="-3.047636" lat="52.705958"><ele>353.800201</ele><time>2022-01-15T09:57:53Z</time><extensions><speed>0.369168</speed><course>238.889648</course><hAcc>2.519450</hAcc><vAcc>0.436258</vAcc></extensions></trkpt>
      <trkpt lon="-3.047640" lat="52.705956"><ele>353.859436</ele><time>2022-01-15T09:57:54Z</time><extensions><speed>0.335754</speed><course>236.986771</course><hAcc>2.585731</hAcc><vAcc>0.424940</vAcc></extensions></trkpt>
      <trkpt lon="-3.047644" lat="52.705954"><ele>353.894867</ele><time>2022-01-15T09:57:54Z</time><extensions><speed>0.316046</speed><course>235.675568</course><hAcc>2.627681</hAcc><vAcc>0.418400</vAcc></extensions></trkpt>
      <trkpt lon="-3.047648" lat="52.705953"><ele>353.908142</ele><time>2022-01-15T09:57:55Z</time><extensions><speed>0.262886</speed><course>234.796692</course><hAcc>2.667463</hAcc><vAcc>0.415584</vAcc></extensions></trkpt>
      <trkpt lon="-3.047651" lat="52.705952"><ele>353.900665</ele><time>2022-01-15T09:57:56Z</time><extensions><speed>0.216252</speed><course>234.272232</course><hAcc>2.692931</hAcc><vAcc>0.415413</vAcc></extensions></trkpt>
      <trkpt lon="-3.047653" lat="52.705951"><ele>353.864441</ele><time>2022-01-15T09:57:57Z</time><extensions><speed>0.166998</speed><course>233.701447</course><hAcc>2.722549</hAcc><vAcc>0.416919</vAcc></extensions></trkpt>
      <trkpt lon="-3.047655" lat="52.705950"><ele>353.829193</ele><time>2022-01-15T09:57:58Z</time><extensions><speed>0.084067</speed><course>234.512344</course><hAcc>2.757231</hAcc><vAcc>0.419253</vAcc></extensions></trkpt>
      <trkpt lon="-3.047656" lat="52.705950"><ele>353.801392</ele><time>2022-01-15T09:57:59Z</time><extensions><speed>0.082819</speed><course>238.832520</course><hAcc>2.715608</hAcc><vAcc>0.421846</vAcc></extensions></trkpt>
      <trkpt lon="-3.047657" lat="52.705949"><ele>353.774445</ele><time>2022-01-15T09:58:00Z</time><extensions><speed>0.065366</speed><course>244.603683</course><hAcc>2.718812</hAcc><vAcc>0.424115</vAcc></extensions></trkpt>
      <trkpt lon="-3.047658" lat="52.705949"><ele>353.752014</ele><time>2022-01-15T09:58:01Z</time><extensions><speed>0.034698</speed><course>253.170471</course><hAcc>2.766424</hAcc><vAcc>0.425700</vAcc></extensions></trkpt>
      <trkpt lon="-3.047658" lat="52.705949"><ele>353.739929</ele><time>2022-01-15T09:58:02Z</time><extensions><speed>0.037920</speed><course>262.509949</course><hAcc>2.745855</hAcc><vAcc>0.426534</vAcc></extensions></trkpt>
      <trkpt lon="-3.047659" lat="52.705949"><ele>353.738495</ele><time>2022-01-15T09:58:03Z</time><extensions><speed>0.040886</speed><course>260.626434</course><hAcc>2.731311</hAcc><vAcc>0.426781</vAcc></extensions></trkpt>
      <trkpt lon="-3.047660" lat="52.705949"><ele>353.760529</ele><time>2022-01-15T09:58:04Z</time><extensions><speed>0.050817</speed><course>257.474609</course><hAcc>2.713528</hAcc><vAcc>0.426575</vAcc></extensions></trkpt>
      <trkpt lon="-3.047661" lat="52.705948"><ele>353.806030</ele><time>2022-01-15T09:58:05Z</time><extensions><speed>0.058743</speed><course>253.886871</course><hAcc>2.707840</hAcc><vAcc>0.425984</vAcc></extensions></trkpt>
      <trkpt lon="-3.047662" lat="52.705948"><ele>353.871948</ele><time>2022-01-15T09:58:06Z</time><extensions><speed>0.065575</speed><course>250.046005</course><hAcc>2.714225</hAcc><vAcc>0.425019</vAcc></extensions></trkpt>
      <trkpt lon="-3.047663" lat="52.705948"><ele>353.952362</ele><time>2022-01-15T09:58:07Z</time><extensions><speed>0.070452</speed><course>245.375244</course><hAcc>2.733394</hAcc><vAcc>0.423770</vAcc></extensions></trkpt>
      <trkpt lon="-3.047665" lat="52.705947"><ele>354.039886</ele><time>2022-01-15T09:58:08Z</time><extensions><speed>0.071753</speed><course>239.360519</course><hAcc>2.768282</hAcc><vAcc>0.422377</vAcc></extensions></trkpt>
      <trkpt lon="-3.047666" lat="52.705947"><ele>354.129059</ele><time>2022-01-15T09:58:09Z</time><extensions><speed>0.071734</speed><course>232.491348</course><hAcc>2.797529</hAcc><vAcc>0.421082</vAcc></extensions></trkpt>
      <trkpt lon="-3.047667" lat="52.705946"><ele>354.217255</ele><time>2022-01-15T09:58:10Z</time><extensions><speed>0.098892</speed><course>226.977936</course><hAcc>2.779907</hAcc><vAcc>0.420028</vAcc></extensions></trkpt>
      <trkpt lon="-3.047668" lat="52.705945"><ele>354.302948</ele><time>2022-01-15T09:58:11Z</time><extensions><speed>0.139333</speed><course>223.838364</course><hAcc>2.745816</hAcc><vAcc>0.419134</vAcc></extensions></trkpt>
      <trkpt lon="-3.047669" lat="52.705944"><ele>354.384583</ele><time>2022-01-15T09:58:12Z</time><extensions><speed>0.152994</speed><course>221.943771</course><hAcc>2.740529</hAcc><vAcc>0.418147</vAcc></extensions></trkpt>
      <trkpt lon="-3.047671" lat="52.705943"><ele>354.460510</ele><time>2022-01-15T09:58:13Z</time><extensions><speed>0.155265</speed><course>217.845398</course><hAcc>2.742488</hAcc><vAcc>0.416928</vAcc></extensions></trkpt>
      <trkpt lon="-3.047672" lat="52.705942"><ele>354.528229</ele><time>2022-01-15T09:58:14Z</time><extensions><speed>0.143683</speed><course>213.619110</course><hAcc>2.744816</hAcc><vAcc>0.415172</vAcc></extensions></trkpt>
      <trkpt lon="-3.047672" lat="52.705941"><ele>354.585510</ele><time>2022-01-15T09:58:15Z</time><extensions><speed>0.117682</speed><course>208.144501</course><hAcc>2.755761</hAcc><vAcc>0.413213</vAcc></extensions></trkpt>
      <trkpt lon="-3.047673" lat="52.705940"><ele>354.632172</ele><time>2022-01-15T09:58:16Z</time><extensions><speed>0.097204</speed><course>200.379547</course><hAcc>2.762301</hAcc><vAcc>0.411199</vAcc></extensions></trkpt>
      <trkpt lon="-3.047673" lat="52.705939"><ele>354.668457</ele><time>2022-01-15T09:58:17Z</time><extensions><speed>0.082408</speed><course>189.740540</course><hAcc>2.765090</hAcc><vAcc>0.409458</vAcc></extensions></trkpt>
      <trkpt lon="-3.047673" lat="52.705938"><ele>354.695160</ele><time>2022-01-15T09:58:19Z</time><extensions><speed>0.076590</speed><course>176.853073</course><hAcc>2.763491</hAcc><vAcc>0.408325</vAcc></extensions></trkpt>
      <trkpt lon="-3.047673" lat="52.705937"><ele>354.713379</ele><time>2022-01-15T09:58:20Z</time><extensions><speed>0.081478</speed><course>164.286484</course><hAcc>2.757017</hAcc><vAcc>0.408028</vAcc></extensions></trkpt>
      <trkpt lon="-3.047672" lat="52.705936"><ele>354.724365</ele><time>2022-01-15T09:58:21Z</time><extensions><speed>0.091819</speed><course>154.309464</course><hAcc>2.754288</hAcc><vAcc>0.408653</vAcc></extensions></trkpt>
      <trkpt lon="-3.047671" lat="52.705936"><ele>354.729462</ele><time>2022-01-15T09:58:22Z</time><extensions><speed>0.104913</speed><course>147.337509</course><hAcc>2.763764</hAcc><vAcc>0.410190</vAcc></extensions></trkpt>
      <trkpt lon="-3.047670" lat="52.705935"><ele>354.729950</ele><time>2022-01-15T09:58:23Z</time><extensions><speed>0.102806</speed><course>142.488632</course><hAcc>2.787972</hAcc><vAcc>0.412410</vAcc></extensions></trkpt>
      <trkpt lon="-3.047669" lat="52.705934"><ele>354.727112</ele><time>2022-01-15T09:58:24Z</time><extensions><speed>0.115478</speed><course>139.835220</course><hAcc>2.784800</hAcc><vAcc>0.414850</vAcc></extensions></trkpt>
      <trkpt lon="-3.047668" lat="52.705933"><ele>354.722137</ele><time>2022-01-15T09:58:25Z</time><extensions><speed>0.111243</speed><course>138.776657</course><hAcc>2.780763</hAcc><vAcc>0.416984</vAcc></extensions></trkpt>
      <trkpt lon="-3.047667" lat="52.705933"><ele>354.716003</ele><time>2022-01-15T09:58:26Z</time><extensions><speed>0.101115</speed><course>138.251495</course><hAcc>2.781501</hAcc><vAcc>0.418472</vAcc></extensions></trkpt>
      <trkpt lon="-3.047666" lat="52.705932"><ele>354.709412</ele><time>2022-01-15T09:58:27Z</time><extensions><speed>0.085402</speed><course>137.959137</course><hAcc>2.785016</hAcc><vAcc>0.419063</vAcc></extensions></trkpt>
      <trkpt lon="-3.047665" lat="52.705931"><ele>354.702942</ele><time>2022-01-15T09:58:28Z</time><extensions><speed>0.069385</speed><course>137.780228</course><hAcc>2.784419</hAcc><vAcc>0.418923</vAcc></extensions></trkpt>
      <trkpt lon="-3.047665" lat="52.705931"><ele>354.696960</ele><time>2022-01-15T09:58:29Z</time><extensions><speed>0.056732</speed><course>137.667984</course><hAcc>2.774829</hAcc><vAcc>0.418168</vAcc></extensions></trkpt>
      <trkpt lon="-3.047664" lat="52.705931"><ele>354.691620</ele><time>2022-01-15T09:58:30Z</time><extensions><speed>0.043595</speed><course>137.596741</course><hAcc>2.765986</hAcc><vAcc>0.417111</vAcc></extensions></trkpt>
      <trkpt lon="-3.047664" lat="52.705930"><ele>354.687103</ele><time>2022-01-15T09:58:31Z</time><extensions><speed>0.033306</speed><course>137.549530</course><hAcc>2.751799</hAcc><vAcc>0.416026</vAcc></extensions></trkpt>
      <trkpt lon="-3.047663" lat="52.705930"><ele>354.683350</ele><time>2022-01-15T09:58:32Z</time><extensions><speed>0.026759</speed><course>137.519791</course><hAcc>2.732248</hAcc><vAcc>0.415180</vAcc></extensions></trkpt>
      <trkpt lon="-3.047663" lat="52.705930"><ele>354.680389</ele><time>2022-01-15T09:58:33Z</time><extensions><speed>0.020292</speed><course>137.502014</course><hAcc>2.724663</hAcc><vAcc>0.414773</vAcc></extensions></trkpt>
      <trkpt lon="-3.047663" lat="52.705930"><ele>354.678131</ele><time>2022-01-15T09:58:34Z</time><extensions><speed>0.015030</speed><course>137.491211</course><hAcc>2.731772</hAcc><vAcc>0.414864</vAcc></extensions></trkpt>
      <trkpt lon="-3.047663" lat="52.705930"><ele>354.676483</ele><time>2022-01-15T09:58:35Z</time><extensions><speed>0.009862</speed><course>137.484283</course><hAcc>2.743695</hAcc><vAcc>0.415416</vAcc></extensions></trkpt>
      <trkpt lon="-3.047663" lat="52.705930"><ele>354.675354</ele><time>2022-01-15T09:58:36Z</time><extensions><speed>0.010269</speed><course>137.480423</course><hAcc>2.725871</hAcc><vAcc>0.416224</vAcc></extensions></trkpt>
      <trkpt lon="-3.047663" lat="52.705930"><ele>354.674622</ele><time>2022-01-15T09:58:37Z</time><extensions><speed>0.007567</speed><course>137.478714</course><hAcc>2.732855</hAcc><vAcc>0.417053</vAcc></extensions></trkpt>
      <trkpt lon="-3.047663" lat="52.705930"><ele>354.674225</ele><time>2022-01-15T09:58:38Z</time><extensions><speed>0.008728</speed><course>137.477859</course><hAcc>2.706429</hAcc><vAcc>0.417736</vAcc></extensions></trkpt>
      <trkpt lon="-3.047663" lat="52.705929"><ele>354.674072</ele><time>2022-01-15T09:58:39Z</time><extensions><speed>0.008119</speed><course>137.477524</course><hAcc>2.700523</hAcc><vAcc>0.418054</vAcc></extensions></trkpt>
      <trkpt lon="-3.047662" lat="52.705929"><ele>354.674103</ele><time>2022-01-15T09:58:40Z</time><extensions><speed>0.007315</speed><course>137.477341</course><hAcc>2.705554</hAcc><vAcc>0.417857</vAcc></extensions></trkpt>
      <trkpt lon="-3.047662" lat="52.705929"><ele>354.674225</ele><time>2022-01-15T09:58:41Z</time><extensions><speed>0.006551</speed><course>137.477249</course><hAcc>2.705717</hAcc><vAcc>0.417024</vAcc></extensions></trkpt>
      <trkpt lon="-3.047662" lat="52.705929"><ele>354.683594</ele><time>2022-01-15T09:58:42Z</time><extensions><speed>0.019132</speed><course>122.962456</course><hAcc>2.705519</hAcc><vAcc>0.415684</vAcc></extensions></trkpt>
      <trkpt lon="-3.047661" lat="52.705929"><ele>354.684418</ele><time>2022-01-15T09:58:43Z</time><extensions><speed>0.030859</speed><course>119.836472</course><hAcc>2.710751</hAcc><vAcc>0.413868</vAcc></extensions></trkpt>
      <trkpt lon="-3.047660" lat="52.705928"><ele>354.675720</ele><time>2022-01-15T09:58:44Z</time><extensions><speed>0.045623</speed><course>118.550056</course><hAcc>2.700536</hAcc><vAcc>0.411820</vAcc></extensions></trkpt>
      <trkpt lon="-3.047659" lat="52.705928"><ele>354.651184</ele><time>2022-01-15T09:58:45Z</time><extensions><speed>0.055188</speed><course>119.357773</course><hAcc>2.692442</hAcc><vAcc>0.409880</vAcc></extensions></trkpt>
      <trkpt lon="-3.047658" lat="52.705928"><ele>354.639221</ele><time>2022-01-15T09:58:46Z</time><extensions><speed>0.062320</speed><course>123.529549</course><hAcc>2.680738</hAcc><vAcc>0.408241</vAcc></extensions></trkpt>
      <trkpt lon="-3.047658" lat="52.705927"><ele>354.603333</ele><time>2022-01-15T09:58:47Z</time><extensions><speed>0.069768</speed><course>126.973579</course><hAcc>2.665549</hAcc><vAcc>0.407163</vAcc></extensions></trkpt>
      <trkpt lon="-3.047657" lat="52.705927"><ele>354.532257</ele><time>2022-01-15T09:58:48Z</time><extensions><speed>0.080012</speed><course>128.949219</course><hAcc>2.648861</hAcc><vAcc>0.407106</vAcc></extensions></trkpt>
      <trkpt lon="-3.047656" lat="52.705926"><ele>354.442108</ele><time>2022-01-15T09:58:49Z</time><extensions><speed>0.087883</speed><course>130.627243</course><hAcc>2.643397</hAcc><vAcc>0.408070</vAcc></extensions></trkpt>
      <trkpt lon="-3.047655" lat="52.705925"><ele>354.332062</ele><time>2022-01-15T09:58:50Z</time><extensions><speed>0.087834</speed><course>133.360092</course><hAcc>2.653082</hAcc><vAcc>0.410026</vAcc></extensions></trkpt>
      <trkpt lon="-3.047655" lat="52.705925"><ele>354.210632</ele><time>2022-01-15T09:58:51Z</time><extensions><speed>0.085228</speed><course>136.310822</course><hAcc>2.651218</hAcc><vAcc>0.412667</vAcc></extensions></trkpt>
      <trkpt lon="-3.047654" lat="52.705924"><ele>354.078430</ele><time>2022-01-15T09:58:52Z</time><extensions><speed>0.103653</speed><course>143.226242</course><hAcc>2.604525</hAcc><vAcc>0.415531</vAcc></extensions></trkpt>
      <trkpt lon="-3.047653" lat="52.705924"><ele>353.929199</ele><time>2022-01-15T09:58:53Z</time><extensions><speed>0.092538</speed><course>156.907516</course><hAcc>2.573495</hAcc><vAcc>0.418080</vAcc></extensions></trkpt>
      <trkpt lon="-3.047653" lat="52.705923"><ele>353.781464</ele><time>2022-01-15T09:58:54Z</time><extensions><speed>0.071320</speed><course>180.298691</course><hAcc>2.576781</hAcc><vAcc>0.419954</vAcc></extensions></trkpt>
      <trkpt lon="-3.047653" lat="52.705922"><ele>353.642365</ele><time>2022-01-15T09:58:55Z</time><extensions><speed>0.063039</speed><course>208.521133</course><hAcc>2.595046</hAcc><vAcc>0.421047</vAcc></extensions></trkpt>
      <trkpt lon="-3.047654" lat="52.705922"><ele>353.518524</ele><time>2022-01-15T09:58:56Z</time><extensions><speed>0.052999</speed><course>230.778183</course><hAcc>2.630402</hAcc><vAcc>0.421289</vAcc></extensions></trkpt>
      <trkpt lon="-3.047655" lat="52.705922"><ele>353.417328</ele><time>2022-01-15T09:58:57Z</time><extensions><speed>0.044559</speed><course>251.556290</course><hAcc>2.649319</hAcc><vAcc>0.420735</vAcc></extensions></trkpt>
      <trkpt lon="-3.047656" lat="52.705922"><ele>353.342133</ele><time>2022-01-15T09:58:58Z</time><extensions><speed>0.069198</speed><course>265.694946</course><hAcc>2.608040</hAcc><vAcc>0.419579</vAcc></extensions></trkpt>
      <trkpt lon="-3.047657" lat="52.705922"><ele>353.289307</ele><time>2022-01-15T09:58:59Z</time><extensions><speed>0.078575</speed><course>279.717468</course><hAcc>2.597272</hAcc><vAcc>0.418088</vAcc></extensions></trkpt>
      <trkpt lon="-3.047658" lat="52.705923"><ele>353.258759</ele><time>2022-01-15T09:59:00Z</time><extensions><speed>0.085683</speed><course>291.866577</course><hAcc>2.618289</hAcc><vAcc>0.416482</vAcc></extensions></trkpt>
      <trkpt lon="-3.047659" lat="52.705923"><ele>353.247681</ele><time>2022-01-15T09:59:01Z</time><extensions><speed>0.093866</speed><course>300.894287</course><hAcc>2.642288</hAcc><vAcc>0.414967</vAcc></extensions></trkpt>
      <trkpt lon="-3.047661" lat="52.705924"><ele>353.244202</ele><time>2022-01-15T09:59:02Z</time><extensions><speed>0.116743</speed><course>310.947357</course><hAcc>2.647492</hAcc><vAcc>0.413615</vAcc></extensions></trkpt>
      <trkpt lon="-3.047662" lat="52.705925"><ele>353.269287</ele><time>2022-01-15T09:59:03Z</time><extensions><speed>0.143656</speed><course>320.146210</course><hAcc>2.637924</hAcc><vAcc>0.412235</vAcc></extensions></trkpt>
      <trkpt lon="-3.047663" lat="52.705927"><ele>353.305786</ele><time>2022-01-15T09:59:04Z</time><extensions><speed>0.153728</speed><course>329.599823</course><hAcc>2.644493</hAcc><vAcc>0.410761</vAcc></extensions></trkpt>
      <trkpt lon="-3.047663" lat="52.705928"><ele>353.346130</ele><time>2022-01-15T09:59:05Z</time><extensions><speed>0.134557</speed><course>340.788330</course><hAcc>2.657048</hAcc><vAcc>0.409358</vAcc></extensions></trkpt>
      <trkpt lon="-3.047663" lat="52.705929"><ele>353.388611</ele><time>2022-01-15T09:59:06Z</time><extensions><speed>0.134491</speed><course>352.608154</course><hAcc>2.638586</hAcc><vAcc>0.407985</vAcc></extensions></trkpt>
      <trkpt lon="-3.047662" lat="52.705930"><ele>353.431030</ele><time>2022-01-15T09:59:07Z</time><extensions><speed>0.141947</speed><course>3.807140</course><hAcc>2.602554</hAcc><vAcc>0.406847</vAcc></extensions></trkpt>
      <trkpt lon="-3.047661" lat="52.705931"><ele>353.472137</ele><time>2022-01-15T09:59:08Z</time><extensions><speed>0.140628</speed><course>13.640424</course><hAcc>2.578184</hAcc><vAcc>0.406151</vAcc></extensions></trkpt>
      <trkpt lon="-3.047660" lat="52.705932"><ele>353.511230</ele><time>2022-01-15T09:59:09Z</time><extensions><speed>0.112549</speed><course>23.185375</course><hAcc>2.574309</hAcc><vAcc>0.406108</vAcc></extensions></trkpt>
      <trkpt lon="-3.047659" lat="52.705933"><ele>353.547272</ele><time>2022-01-15T09:59:10Z</time><extensions><speed>0.089667</speed><course>36.061386</course><hAcc>2.557919</hAcc><vAcc>0.406956</vAcc></extensions></trkpt>
      <trkpt lon="-3.047656" lat="52.705933"><ele>353.577911</ele><time>2022-01-15T09:59:11Z</time><extensions><speed>0.118418</speed><course>57.931026</course><hAcc>2.494051</hAcc><vAcc>0.408713</vAcc></extensions></trkpt>
      <trkpt lon="-3.047653" lat="52.705933"><ele>353.604126</ele><time>2022-01-15T09:59:12Z</time><extensions><speed>0.190800</speed><course>75.585960</course><hAcc>2.387854</hAcc><vAcc>0.411212</vAcc></extensions></trkpt>
      <trkpt lon="-3.047648" lat="52.705933"><ele>353.624664</ele><time>2022-01-15T09:59:13Z</time><extensions><speed>0.228361</speed><course>88.441147</course><hAcc>2.295789</hAcc><vAcc>0.414143</vAcc></extensions></trkpt>
      <trkpt lon="-3.047644" lat="52.705933"><ele>353.640137</ele><time>2022-01-15T09:59:14Z</time><extensions><speed>0.230835</speed><course>97.808182</course><hAcc>2.234395</hAcc><vAcc>0.417229</vAcc></extensions></trkpt>
      <trkpt lon="-3.047640" lat="52.705932"><ele>353.652100</ele><time>2022-01-15T09:59:15Z</time><extensions><speed>0.164268</speed><course>104.599670</course><hAcc>2.204651</hAcc><vAcc>0.420271</vAcc></extensions></trkpt>
      <trkpt lon="-3.047637" lat="52.705931"><ele>353.661957</ele><time>2022-01-15T09:59:16Z</time><extensions><speed>0.147637</speed><course>109.052483</course><hAcc>2.151772</hAcc><vAcc>0.423220</vAcc></extensions></trkpt>
      <trkpt lon="-3.047634" lat="52.705931"><ele>353.670837</ele><time>2022-01-15T09:59:17Z</time><extensions><speed>0.149827</speed><course>111.843895</course><hAcc>2.086474</hAcc><vAcc>0.426375</vAcc></extensions></trkpt>
      <trkpt lon="-3.047632" lat="52.705930"><ele>353.679565</ele><time>2022-01-15T09:59:18Z</time><extensions><speed>0.165826</speed><course>113.764290</course><hAcc>2.019362</hAcc><vAcc>0.430298</vAcc></extensions></trkpt>
      <trkpt lon="-3.047629" lat="52.705929"><ele>353.688721</ele><time>2022-01-15T09:59:19Z</time><extensions><speed>0.161150</speed><course>115.271561</course><hAcc>1.967206</hAcc><vAcc>0.435544</vAcc></extensions></trkpt>
      <trkpt lon="-3.047626" lat="52.705928"><ele>353.698425</ele><time>2022-01-15T09:59:20Z</time><extensions><speed>0.173522</speed><course>116.446419</course><hAcc>1.913095</hAcc><vAcc>0.442426</vAcc></extensions></trkpt>
      <trkpt lon="-3.047624" lat="52.705928"><ele>353.708496</ele><time>2022-01-15T09:59:21Z</time><extensions><speed>0.191896</speed><course>117.006096</course><hAcc>1.852574</hAcc><vAcc>0.450877</vAcc></extensions></trkpt>
      <trkpt lon="-3.047621" lat="52.705927"><ele>353.718353</ele><time>2022-01-15T09:59:22Z</time><extensions><speed>0.155628</speed><course>117.150459</course><hAcc>1.811065</hAcc><vAcc>0.460532</vAcc></extensions></trkpt>
      <trkpt lon="-3.047619" lat="52.705926"><ele>353.727539</ele><time>2022-01-15T09:59:23Z</time><extensions><speed>0.116740</speed><course>117.199738</course><hAcc>1.778875</hAcc><vAcc>0.470885</vAcc></extensions></trkpt>
      <trkpt lon="-3.047617" lat="52.705925"><ele>353.728424</ele><time>2022-01-15T09:59:24Z</time><extensions><speed>0.113527</speed><course>120.816315</course><hAcc>1.741861</hAcc><vAcc>0.481415</vAcc></extensions></trkpt>
      <trkpt lon="-3.047615" lat="52.705924"><ele>353.718842</ele><time>2022-01-15T09:59:25Z</time><extensions><speed>0.105802</speed><course>124.633690</course><hAcc>1.713816</hAcc><vAcc>0.491658</vAcc></extensions></trkpt>
      <trkpt lon="-3.047613" lat="52.705922"><ele>353.694336</ele><time>2022-01-15T09:59:26Z</time><extensions><speed>0.086282</speed><course>128.244110</course><hAcc>1.702226</hAcc><vAcc>0.501281</vAcc></extensions></trkpt>
      <trkpt lon="-3.047611" lat="52.705921"><ele>353.645691</ele><time>2022-01-15T09:59:27Z</time><extensions><speed>0.081139</speed><course>131.318085</course><hAcc>1.695721</hAcc><vAcc>0.510065</vAcc></extensions></trkpt>
      <trkpt lon="-3.047609" lat="52.705921"><ele>353.568115</ele><time>2022-01-15T09:59:28Z</time><extensions><speed>0.075975</speed><course>133.604584</course><hAcc>1.694265</hAcc><vAcc>0.517811</vAcc></extensions></trkpt>
      <trkpt lon="-3.047608" lat="52.705920"><ele>353.461487</ele><time>2022-01-15T09:59:29Z</time><extensions><speed>0.156042</speed><course>135.378525</course><hAcc>1.665978</hAcc><vAcc>0.524267</vAcc></extensions></trkpt>
      <trkpt lon="-3.047606" lat="52.705919"><ele>353.330872</ele><time>2022-01-15T09:59:30Z</time><extensions><speed>0.188016</speed><course>136.864243</course><hAcc>1.670438</hAcc><vAcc>0.529114</vAcc></extensions></trkpt>
      <trkpt lon="-3.047603" lat="52.705917"><ele>353.178375</ele><time>2022-01-15T09:59:31Z</time><extensions><speed>0.211390</speed><course>138.575470</course><hAcc>1.692943</hAcc><vAcc>0.531967</vAcc></extensions></trkpt>
      <trkpt lon="-3.047601" lat="52.705915"><ele>352.997070</ele><time>2022-01-15T09:59:32Z</time><extensions><speed>0.237993</speed><course>139.989136</course><hAcc>1.720698</hAcc><vAcc>0.532374</vAcc></extensions></trkpt>
      <trkpt lon="-3.047599" lat="52.705914"><ele>352.788940</ele><time>2022-01-15T09:59:33Z</time><extensions><speed>0.263110</speed><course>140.733963</course><hAcc>1.753114</hAcc><vAcc>0.529938</vAcc></extensions></trkpt>
      <trkpt lon="-3.047596" lat="52.705912"><ele>352.559814</ele><time>2022-01-15T09:59:34Z</time><extensions><speed>0.289508</speed><course>140.030777</course><hAcc>1.787950</hAcc><vAcc>0.524477</vAcc></extensions></trkpt>
      <trkpt lon="-3.047594" lat="52.705910"><ele>352.316132</ele><time>2022-01-15T09:59:35Z</time><extensions><speed>0.263463</speed><course>137.853516</course><hAcc>1.839728</hAcc><vAcc>0.515760</vAcc></extensions></trkpt>
      <trkpt lon="-3.047591" lat="52.705908"><ele>352.067810</ele><time>2022-01-15T09:59:36Z</time><extensions><speed>0.224686</speed><course>135.231766</course><hAcc>1.890342</hAcc><vAcc>0.504073</vAcc></extensions></trkpt>
      <trkpt lon="-3.047588" lat="52.705906"><ele>351.824219</ele><time>2022-01-15T09:59:37Z</time><extensions><speed>0.316215</speed><course>134.131729</course><hAcc>1.911122</hAcc><vAcc>0.489870</vAcc></extensions></trkpt>
      <trkpt lon="-3.047585" lat="52.705904"><ele>351.594452</ele><time>2022-01-15T09:59:38Z</time><extensions><speed>0.285776</speed><course>135.693253</course><hAcc>1.988344</hAcc><vAcc>0.474023</vAcc></extensions></trkpt>
      <trkpt lon="-3.047582" lat="52.705903"><ele>351.385040</ele><time>2022-01-15T09:59:39Z</time><extensions><speed>0.266157</speed><course>139.818039</course><hAcc>2.071937</hAcc><vAcc>0.457770</vAcc></extensions></trkpt>
      <trkpt lon="-3.047580" lat="52.705901"><ele>351.198792</ele><time>2022-01-15T09:59:40Z</time><extensions><speed>0.221665</speed><course>145.279800</course><hAcc>2.170359</hAcc><vAcc>0.442462</vAcc></extensions></trkpt>
      <trkpt lon="-3.047579" lat="52.705899"><ele>351.037140</ele><time>2022-01-15T09:59:41Z</time><extensions><speed>0.157488</speed><course>150.861984</course><hAcc>2.292018</hAcc><vAcc>0.429467</vAcc></extensions></trkpt>
      <trkpt lon="-3.047579" lat="52.705899"><ele>350.895508</ele><time>2022-01-15T09:59:42Z</time><extensions><speed>0.070734</speed><course>161.488846</course><hAcc>2.403811</hAcc><vAcc>0.419757</vAcc></extensions></trkpt>
      <trkpt lon="-3.047579" lat="52.705899"><ele>350.788086</ele><time>2022-01-15T09:59:43Z</time><extensions><speed>0.038442</speed><course>189.234711</course><hAcc>2.440177</hAcc><vAcc>0.413536</vAcc></extensions></trkpt>
      <trkpt lon="-3.047580" lat="52.705899"><ele>350.708282</ele><time>2022-01-15T09:59:44Z</time><extensions><speed>0.040143</speed><course>252.335617</course><hAcc>2.446934</hAcc><vAcc>0.410148</vAcc></extensions></trkpt>
      <trkpt lon="-3.047581" lat="52.705899"><ele>350.653900</ele><time>2022-01-15T09:59:45Z</time><extensions><speed>0.076086</speed><course>285.513153</course><hAcc>2.473847</hAcc><vAcc>0.408757</vAcc></extensions></trkpt>
      <trkpt lon="-3.047583" lat="52.705900"><ele>350.622070</ele><time>2022-01-15T09:59:46Z</time><extensions><speed>0.116927</speed><course>297.449402</course><hAcc>2.524409</hAcc><vAcc>0.408585</vAcc></extensions></trkpt>
      <trkpt lon="-3.047586" lat="52.705900"><ele>350.604553</ele><time>2022-01-15T09:59:47Z</time><extensions><speed>0.175218</speed><course>295.007751</course><hAcc>2.563599</hAcc><vAcc>0.409030</vAcc></extensions></trkpt>
      <trkpt lon="-3.047591" lat="52.705900"><ele>350.606781</ele><time>2022-01-15T09:59:48Z</time><extensions><speed>0.256410</speed><course>291.447693</course><hAcc>2.587593</hAcc><vAcc>0.409832</vAcc></extensions></trkpt>
      <trkpt lon="-3.047597" lat="52.705901"><ele>350.628143</ele><time>2022-01-15T09:59:49Z</time><extensions><speed>0.337707</speed><course>288.638672</course><hAcc>2.610463</hAcc><vAcc>0.410825</vAcc></extensions></trkpt>
      <trkpt lon="-3.047604" lat="52.705901"><ele>350.672058</ele><time>2022-01-15T09:59:50Z</time><extensions><speed>0.402597</speed><course>285.572723</course><hAcc>2.634557</hAcc><vAcc>0.411845</vAcc></extensions></trkpt>
      <trkpt lon="-3.047611" lat="52.705902"><ele>350.734985</ele><time>2022-01-15T09:59:51Z</time><extensions><speed>0.477349</speed><course>282.154236</course><hAcc>2.645401</hAcc><vAcc>0.412744</vAcc></extensions></trkpt>
      <trkpt lon="-3.047620" lat="52.705902"><ele>350.823975</ele><time>2022-01-15T09:59:52Z</time><extensions><speed>0.526554</speed><course>276.968933</course><hAcc>2.644078</hAcc><vAcc>0.413513</vAcc></extensions></trkpt>
      <trkpt lon="-3.047629" lat="52.705902"><ele>350.925323</ele><time>2022-01-15T09:59:53Z</time><extensions><speed>0.581736</speed><course>270.063446</course><hAcc>2.628218</hAcc><vAcc>0.413921</vAcc></extensions></trkpt>
      <trkpt lon="-3.047639" lat="52.705902"><ele>351.045410</ele><time>2022-01-15T09:59:54Z</time><extensions><speed>0.627686</speed><course>263.059143</course><hAcc>2.605606</hAcc><vAcc>0.413550</vAcc></extensions></trkpt>
      <trkpt lon="-3.047649" lat="52.705900"><ele>351.181519</ele><time>2022-01-15T09:59:55Z</time><extensions><speed>0.689681</speed><course>256.775421</course><hAcc>2.573750</hAcc><vAcc>0.412338</vAcc></extensions></trkpt>
      <trkpt lon="-3.047660" lat="52.705898"><ele>351.331024</ele><time>2022-01-15T09:59:56Z</time><extensions><speed>0.765483</speed><course>251.947144</course><hAcc>2.532063</hAcc><vAcc>0.410426</vAcc></extensions></trkpt>
      <trkpt lon="-3.047672" lat="52.705896"><ele>351.491089</ele><time>2022-01-15T09:59:57Z</time><extensions><speed>0.797753</speed><course>249.025772</course><hAcc>2.489059</hAcc><vAcc>0.408150</vAcc></extensions></trkpt>
      <trkpt lon="-3.047683" lat="52.705893"><ele>351.656708</ele><time>2022-01-15T09:59:58Z</time><extensions><speed>0.756347</speed><course>247.282532</course><hAcc>2.445168</hAcc><vAcc>0.405752</vAcc></extensions></trkpt>
      <trkpt lon="-3.047694" lat="52.705890"><ele>351.821075</ele><time>2022-01-15T09:59:59Z</time><extensions><speed>0.758769</speed><course>246.003769</course><hAcc>2.385426</hAcc><vAcc>0.403588</vAcc></extensions></trkpt>
      <trkpt lon="-3.047704" lat="52.705887"><ele>351.982086</ele><time>2022-01-15T10:00:00Z</time><extensions><speed>0.693197</speed><course>245.196045</course><hAcc>2.342968</hAcc><vAcc>0.401748</vAcc></extensions></trkpt>
      <trkpt lon="-3.047712" lat="52.705885"><ele>352.137787</ele><time>2022-01-15T10:00:01Z</time><extensions><speed>0.510960</speed><course>244.666855</course><hAcc>2.347845</hAcc><vAcc>0.400422</vAcc></extensions></trkpt>
      <trkpt lon="-3.047718" lat="52.705883"><ele>352.286896</ele><time>2022-01-15T10:00:02Z</time><extensions><speed>0.332005</speed><course>243.896927</course><hAcc>2.360577</hAcc><vAcc>0.399997</vAcc></extensions></trkpt>
      <trkpt lon="-3.047723" lat="52.705882"><ele>352.428009</ele><time>2022-01-15T10:00:03Z</time><extensions><speed>0.427661</speed><course>243.267044</course><hAcc>2.307513</hAcc><vAcc>0.400730</vAcc></extensions></trkpt>
      <trkpt lon="-3.047729" lat="52.705880"><ele>352.560974</ele><time>2022-01-15T10:00:04Z</time><extensions><speed>0.445241</speed><course>243.314835</course><hAcc>2.272430</hAcc><vAcc>0.402650</vAcc></extensions></trkpt>
      <trkpt lon="-3.047735" lat="52.705879"><ele>352.681854</ele><time>2022-01-15T10:00:05Z</time><extensions><speed>0.424016</speed><course>244.116791</course><hAcc>2.267257</hAcc><vAcc>0.405723</vAcc></extensions></trkpt>
      <trkpt lon="-3.047740" lat="52.705877"><ele>352.796906</ele><time>2022-01-15T10:00:06Z</time><extensions><speed>0.379381</speed><course>246.384598</course><hAcc>2.271542</hAcc><vAcc>0.410013</vAcc></extensions></trkpt>
      <trkpt lon="-3.047746" lat="52.705876"><ele>352.906433</ele><time>2022-01-15T10:00:07Z</time><extensions><speed>0.334178</speed><course>250.981247</course><hAcc>2.271307</hAcc><vAcc>0.415591</vAcc></extensions></trkpt>
      <trkpt lon="-3.047750" lat="52.705875"><ele>353.013611</ele><time>2022-01-15T10:00:08Z</time><extensions><speed>0.294585</speed><course>258.550659</course><hAcc>2.261952</hAcc><vAcc>0.422539</vAcc></extensions></trkpt>
      <trkpt lon="-3.047755" lat="52.705874"><ele>353.119659</ele><time>2022-01-15T10:00:09Z</time><extensions><speed>0.291924</speed><course>266.875916</course><hAcc>2.238976</hAcc><vAcc>0.430818</vAcc></extensions></trkpt>
      <trkpt lon="-3.047760" lat="52.705874"><ele>353.223724</ele><time>2022-01-15T10:00:10Z</time><extensions><speed>0.295145</speed><course>272.092072</course><hAcc>2.225284</hAcc><vAcc>0.440129</vAcc></extensions></trkpt>
      <trkpt lon="-3.047764" lat="52.705874"><ele>353.325287</ele><time>2022-01-15T10:00:11Z</time><extensions><speed>0.282639</speed><course>272.339386</course><hAcc>2.226121</hAcc><vAcc>0.449939</vAcc></extensions></trkpt>
      <trkpt lon="-3.047769" lat="52.705874"><ele>353.425995</ele><time>2022-01-15T10:00:12Z</time><extensions><speed>0.302806</speed><course>267.814941</course><hAcc>2.213978</hAcc><vAcc>0.459658</vAcc></extensions></trkpt>
      <trkpt lon="-3.047774" lat="52.705874"><ele>353.528381</ele><time>2022-01-15T10:00:13Z</time><extensions><speed>0.339061</speed><course>261.042847</course><hAcc>2.194306</hAcc><vAcc>0.468786</vAcc></extensions></trkpt>
      <trkpt lon="-3.047779" lat="52.705873"><ele>353.633362</ele><time>2022-01-15T10:00:14Z</time><extensions><speed>0.393100</speed><course>253.675430</course><hAcc>2.171713</hAcc><vAcc>0.476974</vAcc></extensions></trkpt>
      <trkpt lon="-3.047785" lat="52.705872"><ele>353.740479</ele><time>2022-01-15T10:00:15Z</time><extensions><speed>0.453802</speed><course>247.484161</course><hAcc>2.150007</hAcc><vAcc>0.484001</vAcc></extensions></trkpt>
      <trkpt lon="-3.047792" lat="52.705870"><ele>353.851196</ele><time>2022-01-15T10:00:16Z</time><extensions><speed>0.503233</speed><course>244.383163</course><hAcc>2.132457</hAcc><vAcc>0.489717</vAcc></extensions></trkpt>
      <trkpt lon="-3.047799" lat="52.705868"><ele>353.966766</ele><time>2022-01-15T10:00:17Z</time><extensions><speed>0.520937</speed><course>245.685699</course><hAcc>2.116307</hAcc><vAcc>0.494018</vAcc></extensions></trkpt>
      <trkpt lon="-3.047806" lat="52.705867"><ele>354.084656</ele><time>2022-01-15T10:00:18Z</time><extensions><speed>0.537909</speed><course>250.648636</course><hAcc>2.096101</hAcc><vAcc>0.496961</vAcc></extensions></trkpt>
      <trkpt lon="-3.047813" lat="52.705866"><ele>354.204193</ele><time>2022-01-15T10:00:19Z</time><extensions><speed>0.468120</speed><course>257.815308</course><hAcc>2.100749</hAcc><vAcc>0.498858</vAcc></extensions></trkpt>
      <trkpt lon="-3.047819" lat="52.705865"><ele>354.325409</ele><time>2022-01-15T10:00:20Z</time><extensions><speed>0.367678</speed><course>266.680145</course><hAcc>2.118932</hAcc><vAcc>0.500197</vAcc></extensions></trkpt>
      <trkpt lon="-3.047824" lat="52.705865"><ele>354.448486</ele><time>2022-01-15T10:00:20Z</time><extensions><speed>0.282094</speed><course>279.601166</course><hAcc>2.124725</hAcc><vAcc>0.501420</vAcc></extensions></trkpt>
      <trkpt lon="-3.047827" lat="52.705866"><ele>354.571991</ele><time>2022-01-15T10:00:21Z</time><extensions><speed>0.277072</speed><course>295.552948</course><hAcc>2.098513</hAcc><vAcc>0.502750</vAcc></extensions></trkpt>
      <trkpt lon="-3.047831" lat="52.705867"><ele>354.694000</ele><time>2022-01-15T10:00:22Z</time><extensions><speed>0.251620</speed><course>309.170044</course><hAcc>2.091922</hAcc><vAcc>0.504174</vAcc></extensions></trkpt>
      <trkpt lon="-3.047833" lat="52.705869"><ele>354.812866</ele><time>2022-01-15T10:00:23Z</time><extensions><speed>0.222775</speed><course>325.062042</course><hAcc>2.098530</hAcc><vAcc>0.505631</vAcc></extensions></trkpt>
      <trkpt lon="-3.047833" lat="52.705871"><ele>354.926208</ele><time>2022-01-15T10:00:24Z</time><extensions><speed>0.222070</speed><course>343.679901</course><hAcc>2.090360</hAcc><vAcc>0.507191</vAcc></extensions></trkpt>
      <trkpt lon="-3.047833" lat="52.705874"><ele>355.033447</ele><time>2022-01-15T10:00:25Z</time><extensions><speed>0.246988</speed><course>3.558128</course><hAcc>2.075920</hAcc><vAcc>0.509108</vAcc></extensions></trkpt>
      <trkpt lon="-3.047832" lat="52.705876"><ele>355.134033</ele><time>2022-01-15T10:00:26Z</time><extensions><speed>0.271215</speed><course>20.537968</course><hAcc>2.077149</hAcc><vAcc>0.511666</vAcc></extensions></trkpt>
      <trkpt lon="-3.047830" lat="52.705878"><ele>355.225800</ele><time>2022-01-15T10:00:27Z</time><extensions><speed>0.307446</speed><course>32.297367</course><hAcc>2.083241</hAcc><vAcc>0.514924</vAcc></extensions></trkpt>
      <trkpt lon="-3.047827" lat="52.705881"><ele>355.308746</ele><time>2022-01-15T10:00:28Z</time><extensions><speed>0.313831</speed><course>39.641659</course><hAcc>2.091098</hAcc><vAcc>0.518565</vAcc></extensions></trkpt>
      <trkpt lon="-3.047824" lat="52.705884"><ele>355.383118</ele><time>2022-01-15T10:00:29Z</time><extensions><speed>0.445402</speed><course>43.101059</course><hAcc>2.055304</hAcc><vAcc>0.521956</vAcc></extensions></trkpt>
      <trkpt lon="-3.047818" lat="52.705887"><ele>355.449249</ele><time>2022-01-15T10:00:30Z</time><extensions><speed>0.544732</speed><course>43.690968</course><hAcc>2.034760</hAcc><vAcc>0.524414</vAcc></extensions></trkpt>
      <trkpt lon="-3.047812" lat="52.705891"><ele>355.508850</ele><time>2022-01-15T10:00:31Z</time><extensions><speed>0.666681</speed><course>43.282387</course><hAcc>2.031822</hAcc><vAcc>0.525430</vAcc></extensions></trkpt>
      <trkpt lon="-3.047805" lat="52.705896"><ele>355.564697</ele><time>2022-01-15T10:00:32Z</time><extensions><speed>0.774347</speed><course>42.201889</course><hAcc>2.039683</hAcc><vAcc>0.524696</vAcc></extensions></trkpt>
      <trkpt lon="-3.047797" lat="52.705902"><ele>355.617706</ele><time>2022-01-15T10:00:33Z</time><extensions><speed>0.852846</speed><course>40.213196</course><hAcc>2.047078</hAcc><vAcc>0.522108</vAcc></extensions></trkpt>
      <trkpt lon="-3.047789" lat="52.705908"><ele>355.668915</ele><time>2022-01-15T10:00:35Z</time><extensions><speed>0.829098</speed><course>36.970375</course><hAcc>2.058903</hAcc><vAcc>0.517776</vAcc></extensions></trkpt>
      <trkpt lon="-3.047782" lat="52.705914"><ele>355.718689</ele><time>2022-01-15T10:00:36Z</time><extensions><speed>0.763118</speed><course>32.790432</course><hAcc>2.070757</hAcc><vAcc>0.511882</vAcc></extensions></trkpt>
      <trkpt lon="-3.047776" lat="52.705920"><ele>355.767120</ele><time>2022-01-15T10:00:37Z</time><extensions><speed>0.697685</speed><course>28.671375</course><hAcc>2.080441</hAcc><vAcc>0.504775</vAcc></extensions></trkpt>
      <trkpt lon="-3.047772" lat="52.705925"><ele>355.814789</ele><time>2022-01-15T10:00:38Z</time><extensions><speed>0.633612</speed><course>25.344685</course><hAcc>2.094598</hAcc><vAcc>0.496664</vAcc></extensions></trkpt>
      <trkpt lon="-3.047768" lat="52.705930"><ele>355.861816</ele><time>2022-01-15T10:00:39Z</time><extensions><speed>0.560101</speed><course>22.928955</course><hAcc>2.117836</hAcc><vAcc>0.487855</vAcc></extensions></trkpt>
      <trkpt lon="-3.047765" lat="52.705934"><ele>355.907867</ele><time>2022-01-15T10:00:40Z</time><extensions><speed>0.491838</speed><course>21.320232</course><hAcc>2.135790</hAcc><vAcc>0.478348</vAcc></extensions></trkpt>
      <trkpt lon="-3.047763" lat="52.705939"><ele>355.952118</ele><time>2022-01-15T10:00:41Z</time><extensions><speed>0.547901</speed><course>20.574697</course><hAcc>2.121227</hAcc><vAcc>0.467925</vAcc></extensions></trkpt>
      <trkpt lon="-3.047760" lat="52.705943"><ele>355.993225</ele><time>2022-01-15T10:00:42Z</time><extensions><speed>0.545566</speed><course>20.577057</course><hAcc>2.123014</hAcc><vAcc>0.456264</vAcc></extensions></trkpt>
      <trkpt lon="-3.047757" lat="52.705948"><ele>356.029968</ele><time>2022-01-15T10:00:43Z</time><extensions><speed>0.450352</speed><course>20.992907</course><hAcc>2.159899</hAcc><vAcc>0.443133</vAcc></extensions></trkpt>
      <trkpt lon="-3.047755" lat="52.705951"><ele>356.061493</ele><time>2022-01-15T10:00:44Z</time><extensions><speed>0.359136</speed><course>21.468491</course><hAcc>2.197142</hAcc><vAcc>0.428820</vAcc></extensions></trkpt>
      <trkpt lon="-3.047753" lat="52.705954"><ele>356.087677</ele><time>2022-01-15T10:00:45Z</time><extensions><speed>0.277422</speed><course>21.780632</course><hAcc>2.224719</hAcc><vAcc>0.413874</vAcc></extensions></trkpt>
      <trkpt lon="-3.047752" lat="52.705956"><ele>356.096375</ele><time>2022-01-15T10:00:46Z</time><extensions><speed>0.229528</speed><course>19.483862</course><hAcc>2.241850</hAcc><vAcc>0.399660</vAcc></extensions></trkpt>
      <trkpt lon="-3.047751" lat="52.705959"><ele>356.112183</ele><time>2022-01-15T10:00:47Z</time><extensions><speed>0.206478</speed><course>16.824886</course><hAcc>2.256762</hAcc><vAcc>0.387725</vAcc></extensions></trkpt>
      <trkpt lon="-3.047750" lat="52.705961"><ele>356.121521</ele><time>2022-01-15T10:00:48Z</time><extensions><speed>0.165459</speed><course>13.454326</course><hAcc>2.293338</hAcc><vAcc>0.378551</vAcc></extensions></trkpt>
      <trkpt lon="-3.047750" lat="52.705962"><ele>356.143188</ele><time>2022-01-15T10:00:49Z</time><extensions><speed>0.152388</speed><course>9.770041</course><hAcc>2.328905</hAcc><vAcc>0.372724</vAcc></extensions></trkpt>
      <trkpt lon="-3.047749" lat="52.705964"><ele>356.177948</ele><time>2022-01-15T10:00:50Z</time><extensions><speed>0.116724</speed><course>6.102355</course><hAcc>2.383406</hAcc><vAcc>0.370244</vAcc></extensions></trkpt>
      <trkpt lon="-3.047749" lat="52.705965"><ele>356.226807</ele><time>2022-01-15T10:00:51Z</time><extensions><speed>0.125405</speed><course>2.901651</course><hAcc>2.412104</hAcc><vAcc>0.370801</vAcc></extensions></trkpt>
      <trkpt lon="-3.047749" lat="52.705966"><ele>356.290741</ele><time>2022-01-15T10:00:52Z</time><extensions><speed>0.127282</speed><course>0.720941</course><hAcc>2.454368</hAcc><vAcc>0.373879</vAcc></extensions></trkpt>
      <trkpt lon="-3.047749" lat="52.705968"><ele>356.370514</ele><time>2022-01-15T10:00:53Z</time><extensions><speed>0.136312</speed><course>359.164520</course><hAcc>2.491592</hAcc><vAcc>0.378773</vAcc></extensions></trkpt>
      <trkpt lon="-3.047749" lat="52.705970"><ele>356.460785</ele><time>2022-01-15T10:00:54Z</time><extensions><speed>0.245422</speed><course>359.751923</course><hAcc>2.488943</hAcc><vAcc>0.384803</vAcc></extensions></trkpt>
      <trkpt lon="-3.047748" lat="52.705973"><ele>356.573822</ele><time>2022-01-15T10:00:55Z</time><extensions><speed>0.309006</speed><course>1.759051</course><hAcc>2.519014</hAcc><vAcc>0.391164</vAcc></extensions></trkpt>
      <trkpt lon="-3.047748" lat="52.705975"><ele>356.703094</ele><time>2022-01-15T10:00:56Z</time><extensions><speed>0.319798</speed><course>5.094710</course><hAcc>2.575944</hAcc><vAcc>0.397316</vAcc></extensions></trkpt>
      <trkpt lon="-3.047746" lat="52.705978"><ele>356.835632</ele><time>2022-01-15T10:00:57Z</time><extensions><speed>0.304791</speed><course>10.134822</course><hAcc>2.635115</hAcc><vAcc>0.402733</vAcc></extensions></trkpt>
      <trkpt lon="-3.047745" lat="52.705981"><ele>356.950897</ele><time>2022-01-15T10:00:58Z</time><extensions><speed>0.273803</speed><course>16.096390</course><hAcc>2.693573</hAcc><vAcc>0.407066</vAcc></extensions></trkpt>
      <trkpt lon="-3.047743" lat="52.705983"><ele>357.076233</ele><time>2022-01-15T10:00:59Z</time><extensions><speed>0.239220</speed><course>24.342466</course><hAcc>2.747554</hAcc><vAcc>0.410340</vAcc></extensions></trkpt>
      <trkpt lon="-3.047741" lat="52.705984"><ele>357.185730</ele><time>2022-01-15T10:01:00Z</time><extensions><speed>0.210835</speed><course>34.783924</course><hAcc>2.789565</hAcc><vAcc>0.412906</vAcc></extensions></trkpt>
      <trkpt lon="-3.047739" lat="52.705985"><ele>357.280640</ele><time>2022-01-15T10:01:01Z</time><extensions><speed>0.201413</speed><course>47.467628</course><hAcc>2.812756</hAcc><vAcc>0.415197</vAcc></extensions></trkpt>
      <trkpt lon="-3.047736" lat="52.705986"><ele>357.366180</ele><time>2022-01-15T10:01:02Z</time><extensions><speed>0.212750</speed><course>60.389923</course><hAcc>2.812999</hAcc><vAcc>0.417514</vAcc></extensions></trkpt>
      <trkpt lon="-3.047733" lat="52.705987"><ele>357.438324</ele><time>2022-01-15T10:01:03Z</time><extensions><speed>0.234392</speed><course>72.120216</course><hAcc>2.806574</hAcc><vAcc>0.420014</vAcc></extensions></trkpt>
      <trkpt lon="-3.047730" lat="52.705987"><ele>357.491638</ele><time>2022-01-15T10:01:04Z</time><extensions><speed>0.234017</speed><course>85.507004</course><hAcc>2.812604</hAcc><vAcc>0.422694</vAcc></extensions></trkpt>
      <trkpt lon="-3.047727" lat="52.705987"><ele>357.526489</ele><time>2022-01-15T10:01:05Z</time><extensions><speed>0.221986</speed><course>100.782333</course><hAcc>2.827348</hAcc><vAcc>0.425417</vAcc></extensions></trkpt>
      <trkpt lon="-3.047723" lat="52.705986"><ele>357.544220</ele><time>2022-01-15T10:01:06Z</time><extensions><speed>0.217372</speed><course>113.179939</course><hAcc>2.838983</hAcc><vAcc>0.427959</vAcc></extensions></trkpt>
      <trkpt lon="-3.047720" lat="52.705985"><ele>357.551147</ele><time>2022-01-15T10:01:07Z</time><extensions><speed>0.207344</speed><course>122.222992</course><hAcc>2.846666</hAcc><vAcc>0.430136</vAcc></extensions></trkpt>
      <trkpt lon="-3.047717" lat="52.705985"><ele>357.546661</ele><time>2022-01-15T10:01:08Z</time><extensions><speed>0.194757</speed><course>129.533798</course><hAcc>2.849787</hAcc><vAcc>0.431764</vAcc></extensions></trkpt>
      <trkpt lon="-3.047715" lat="52.705983"><ele>357.528961</ele><time>2022-01-15T10:01:09Z</time><extensions><speed>0.173760</speed><course>137.159790</course><hAcc>2.845298</hAcc><vAcc>0.432606</vAcc></extensions></trkpt>
      <trkpt lon="-3.047713" lat="52.705982"><ele>357.503540</ele><time>2022-01-15T10:01:10Z</time><extensions><speed>0.164839</speed><course>142.683640</course><hAcc>2.815713</hAcc><vAcc>0.432558</vAcc></extensions></trkpt>
      <trkpt lon="-3.047712" lat="52.705981"><ele>357.461029</ele><time>2022-01-15T10:01:11Z</time><extensions><speed>0.149247</speed><course>144.714630</course><hAcc>2.775941</hAcc><vAcc>0.431541</vAcc></extensions></trkpt>
      <trkpt lon="-3.047711" lat="52.705980"><ele>357.419769</ele><time>2022-01-15T10:01:12Z</time><extensions><speed>0.120502</speed><course>140.146149</course><hAcc>2.743596</hAcc><vAcc>0.429577</vAcc></extensions></trkpt>
      <trkpt lon="-3.047710" lat="52.705979"><ele>357.369873</ele><time>2022-01-15T10:01:13Z</time><extensions><speed>0.103845</speed><course>127.943192</course><hAcc>2.706361</hAcc><vAcc>0.426813</vAcc></extensions></trkpt>
      <trkpt lon="-3.047709" lat="52.705978"><ele>357.310638</ele><time>2022-01-15T10:01:14Z</time><extensions><speed>0.100112</speed><course>114.884796</course><hAcc>2.664954</hAcc><vAcc>0.423432</vAcc></extensions></trkpt>
      <trkpt lon="-3.047707" lat="52.705978"><ele>357.239655</ele><time>2022-01-15T10:01:15Z</time><extensions><speed>0.101928</speed><course>103.363289</course><hAcc>2.635219</hAcc><vAcc>0.419997</vAcc></extensions></trkpt>
      <trkpt lon="-3.047706" lat="52.705978"><ele>357.166809</ele><time>2022-01-15T10:01:16Z</time><extensions><speed>0.090548</speed><course>100.530579</course><hAcc>2.626360</hAcc><vAcc>0.417050</vAcc></extensions></trkpt>
      <trkpt lon="-3.047705" lat="52.705978"><ele>357.092224</ele><time>2022-01-15T10:01:17Z</time><extensions><speed>0.070100</speed><course>108.565941</course><hAcc>2.620442</hAcc><vAcc>0.415001</vAcc></extensions></trkpt>
      <trkpt lon="-3.047704" lat="52.705978"><ele>357.017059</ele><time>2022-01-15T10:01:18Z</time><extensions><speed>0.063372</speed><course>130.715668</course><hAcc>2.599358</hAcc><vAcc>0.414036</vAcc></extensions></trkpt>
      <trkpt lon="-3.047703" lat="52.705977"><ele>356.942596</ele><time>2022-01-15T10:01:19Z</time><extensions><speed>0.060349</speed><course>156.106155</course><hAcc>2.595090</hAcc><vAcc>0.414024</vAcc></extensions></trkpt>
      <trkpt lon="-3.047703" lat="52.705977"><ele>356.870331</ele><time>2022-01-15T10:01:20Z</time><extensions><speed>0.058529</speed><course>174.363556</course><hAcc>2.601449</hAcc><vAcc>0.414666</vAcc></extensions></trkpt>
      <trkpt lon="-3.047703" lat="52.705976"><ele>356.802124</ele><time>2022-01-15T10:01:21Z</time><extensions><speed>0.050464</speed><course>182.383286</course><hAcc>2.606978</hAcc><vAcc>0.415661</vAcc></extensions></trkpt>
      <trkpt lon="-3.047703" lat="52.705976"><ele>356.739777</ele><time>2022-01-15T10:01:22Z</time><extensions><speed>0.038799</speed><course>175.348999</course><hAcc>2.599494</hAcc><vAcc>0.416560</vAcc></extensions></trkpt>
      <trkpt lon="-3.047702" lat="52.705975"><ele>356.686005</ele><time>2022-01-15T10:01:23Z</time><extensions><speed>0.030829</speed><course>149.502823</course><hAcc>2.584459</hAcc><vAcc>0.416971</vAcc></extensions></trkpt>
      <trkpt lon="-3.047702" lat="52.705975"><ele>356.642731</ele><time>2022-01-15T10:01:24Z</time><extensions><speed>0.032795</speed><course>121.828773</course><hAcc>2.569717</hAcc><vAcc>0.416585</vAcc></extensions></trkpt>
      <trkpt lon="-3.047702" lat="52.705975"><ele>356.610138</ele><time>2022-01-15T10:01:25Z</time><extensions><speed>0.035012</speed><course>113.160683</course><hAcc>2.567951</hAcc><vAcc>0.415413</vAcc></extensions></trkpt>
      <trkpt lon="-3.047701" lat="52.705975"><ele>356.586884</ele><time>2022-01-15T10:01:26Z</time><extensions><speed>0.026954</speed><course>114.299644</course><hAcc>2.587058</hAcc><vAcc>0.413747</vAcc></extensions></trkpt>
      <trkpt lon="-3.047701" lat="52.705975"><ele>356.569672</ele><time>2022-01-15T10:01:27Z</time><extensions><speed>0.021922</speed><course>124.474258</course><hAcc>2.590189</hAcc><vAcc>0.412056</vAcc></extensions></trkpt>
      <trkpt lon="-3.047701" lat="52.705974"><ele>356.563812</ele><time>2022-01-15T10:01:28Z</time><extensions><speed>0.020321</speed><course>135.959503</course><hAcc>2.577031</hAcc><vAcc>0.410771</vAcc></extensions></trkpt>
      <trkpt lon="-3.047701" lat="52.705974"><ele>356.561218</ele><time>2022-01-15T10:01:29Z</time><extensions><speed>0.015544</speed><course>149.510483</course><hAcc>2.587723</hAcc><vAcc>0.410156</vAcc></extensions></trkpt>
      <trkpt lon="-3.047701" lat="52.705974"><ele>356.557098</ele><time>2022-01-15T10:01:30Z</time><extensions><speed>0.012959</speed><course>174.681366</course><hAcc>2.599509</hAcc><vAcc>0.410261</vAcc></extensions></trkpt>
      <trkpt lon="-3.047701" lat="52.705974"><ele>356.554260</ele><time>2022-01-15T10:01:31Z</time><extensions><speed>0.020329</speed><course>198.965622</course><hAcc>2.578180</hAcc><vAcc>0.410926</vAcc></extensions></trkpt>
      <trkpt lon="-3.047701" lat="52.705974"><ele>356.556183</ele><time>2022-01-15T10:01:32Z</time><extensions><speed>0.025947</speed><course>218.542938</course><hAcc>2.596386</hAcc><vAcc>0.411860</vAcc></extensions></trkpt>
      <trkpt lon="-3.047702" lat="52.705974"><ele>356.559357</ele><time>2022-01-15T10:01:33Z</time><extensions><speed>0.035531</speed><course>234.868469</course><hAcc>2.633234</hAcc><vAcc>0.412895</vAcc></extensions></trkpt>
      <trkpt lon="-3.047702" lat="52.705974"><ele>356.562836</ele><time>2022-01-15T10:01:34Z</time><extensions><speed>0.046546</speed><course>246.528412</course><hAcc>2.679306</hAcc><vAcc>0.414017</vAcc></extensions></trkpt>
      <trkpt lon="-3.047703" lat="52.705974"><ele>356.566284</ele><time>2022-01-15T10:01:35Z</time><extensions><speed>0.059248</speed><course>256.177795</course><hAcc>2.726509</hAcc><vAcc>0.415233</vAcc></extensions></trkpt>
      <trkpt lon="-3.047704" lat="52.705974"><ele>356.569489</ele><time>2022-01-15T10:01:36Z</time><extensions><speed>0.070032</speed><course>266.698608</course><hAcc>2.772824</hAcc><vAcc>0.416617</vAcc></extensions></trkpt>
      <trkpt lon="-3.047705" lat="52.705974"><ele>356.572388</ele><time>2022-01-15T10:01:37Z</time><extensions><speed>0.086772</speed><course>280.701111</course><hAcc>2.807024</hAcc><vAcc>0.418205</vAcc></extensions></trkpt>
      <trkpt lon="-3.047707" lat="52.705974"><ele>356.575226</ele><time>2022-01-15T10:01:38Z</time><extensions><speed>0.096803</speed><course>294.289948</course><hAcc>2.844204</hAcc><vAcc>0.419967</vAcc></extensions></trkpt>
      <trkpt lon="-3.047708" lat="52.705974"><ele>356.578491</ele><time>2022-01-15T10:01:39Z</time><extensions><speed>0.105356</speed><course>303.094482</course><hAcc>2.863991</hAcc><vAcc>0.421662</vAcc></extensions></trkpt>
      <trkpt lon="-3.047710" lat="52.705976"><ele>356.579712</ele><time>2022-01-15T10:01:40Z</time><extensions><speed>0.128133</speed><course>309.677734</course><hAcc>2.858225</hAcc><vAcc>0.422886</vAcc></extensions></trkpt>
      <trkpt lon="-3.047712" lat="52.705977"><ele>356.582092</ele><time>2022-01-15T10:01:41Z</time><extensions><speed>0.141239</speed><course>312.326752</course><hAcc>2.843297</hAcc><vAcc>0.423448</vAcc></extensions></trkpt>
      <trkpt lon="-3.047715" lat="52.705978"><ele>356.586304</ele><time>2022-01-15T10:01:42Z</time><extensions><speed>0.132899</speed><course>312.083618</course><hAcc>2.827424</hAcc><vAcc>0.423011</vAcc></extensions></trkpt>
      <trkpt lon="-3.047717" lat="52.705979"><ele>356.597229</ele><time>2022-01-15T10:01:43Z</time><extensions><speed>0.116840</speed><course>311.398071</course><hAcc>2.796708</hAcc><vAcc>0.421811</vAcc></extensions></trkpt>
      <trkpt lon="-3.047719" lat="52.705980"><ele>356.614777</ele><time>2022-01-15T10:01:44Z</time><extensions><speed>0.109936</speed><course>310.339722</course><hAcc>2.743595</hAcc><vAcc>0.420094</vAcc></extensions></trkpt>
      <trkpt lon="-3.047720" lat="52.705980"><ele>356.639343</ele><time>2022-01-15T10:01:45Z</time><extensions><speed>0.103975</speed><course>309.172150</course><hAcc>2.693769</hAcc><vAcc>0.418300</vAcc></extensions></trkpt>
      <trkpt lon="-3.047722" lat="52.705981"><ele>356.671234</ele><time>2022-01-15T10:01:46Z</time><extensions><speed>0.094024</speed><course>308.020721</course><hAcc>2.663985</hAcc><vAcc>0.416807</vAcc></extensions></trkpt>
      <trkpt lon="-3.047723" lat="52.705982"><ele>356.710388</ele><time>2022-01-15T10:01:47Z</time><extensions><speed>0.089073</speed><course>306.910278</course><hAcc>2.645970</hAcc><vAcc>0.415968</vAcc></extensions></trkpt>
      <trkpt lon="-3.047724" lat="52.705982"><ele>356.756531</ele><time>2022-01-15T10:01:48Z</time><extensions><speed>0.099713</speed><course>305.745636</course><hAcc>2.620301</hAcc><vAcc>0.415919</vAcc></extensions></trkpt>
      <trkpt lon="-3.047726" lat="52.705983"><ele>356.808563</ele><time>2022-01-15T10:01:49Z</time><extensions><speed>0.153774</speed><course>304.524841</course><hAcc>2.576467</hAcc><vAcc>0.416630</vAcc></extensions></trkpt>
      <trkpt lon="-3.047728" lat="52.705984"><ele>356.864532</ele><time>2022-01-15T10:01:50Z</time><extensions><speed>0.133624</speed><course>302.142670</course><hAcc>2.579010</hAcc><vAcc>0.417865</vAcc></extensions></trkpt>
      <trkpt lon="-3.047730" lat="52.705984"><ele>356.921722</ele><time>2022-01-15T10:01:51Z</time><extensions><speed>0.156742</speed><course>298.973267</course><hAcc>2.569629</hAcc><vAcc>0.419252</vAcc></extensions></trkpt>
      <trkpt lon="-3.047732" lat="52.705985"><ele>356.976959</ele><time>2022-01-15T10:01:52Z</time><extensions><speed>0.126403</speed><course>296.840759</course><hAcc>2.589017</hAcc><vAcc>0.420448</vAcc></extensions></trkpt>
      <trkpt lon="-3.047733" lat="52.705985"><ele>357.027710</ele><time>2022-01-15T10:01:53Z</time><extensions><speed>0.136003</speed><course>295.787018</course><hAcc>2.581779</hAcc><vAcc>0.421163</vAcc></extensions></trkpt>
      <trkpt lon="-3.047735" lat="52.705986"><ele>357.072449</ele><time>2022-01-15T10:01:54Z</time><extensions><speed>0.124501</speed><course>295.330292</course><hAcc>2.585508</hAcc><vAcc>0.421181</vAcc></extensions></trkpt>
      <trkpt lon="-3.047737" lat="52.705986"><ele>357.110382</ele><time>2022-01-15T10:01:55Z</time><extensions><speed>0.111342</speed><course>295.087738</course><hAcc>2.593295</hAcc><vAcc>0.420473</vAcc></extensions></trkpt>
      <trkpt lon="-3.047738" lat="52.705987"><ele>357.141449</ele><time>2022-01-15T10:01:56Z</time><extensions><speed>0.093877</speed><course>294.948517</course><hAcc>2.599394</hAcc><vAcc>0.419001</vAcc></extensions></trkpt>
      <trkpt lon="-3.047739" lat="52.705987"><ele>357.165955</ele><time>2022-01-15T10:01:57Z</time><extensions><speed>0.078861</speed><course>294.863098</course><hAcc>2.598801</hAcc><vAcc>0.416878</vAcc></extensions></trkpt>
      <trkpt lon="-3.047740" lat="52.705987"><ele>357.184540</ele><time>2022-01-15T10:01:58Z</time><extensions><speed>0.060987</speed><course>294.807953</course><hAcc>2.601873</hAcc><vAcc>0.414250</vAcc></extensions></trkpt>
      <trkpt lon="-3.047741" lat="52.705988"><ele>357.197998</ele><time>2022-01-15T10:01:59Z</time><extensions><speed>0.046483</speed><course>294.769043</course><hAcc>2.598976</hAcc><vAcc>0.411253</vAcc></extensions></trkpt>
      <trkpt lon="-3.047742" lat="52.705988"><ele>357.207184</ele><time>2022-01-15T10:02:00Z</time><extensions><speed>0.035916</speed><course>294.741394</course><hAcc>2.585954</hAcc><vAcc>0.408034</vAcc></extensions></trkpt>
      <trkpt lon="-3.047742" lat="52.705988"><ele>357.212891</ele><time>2022-01-15T10:02:01Z</time><extensions><speed>0.028128</speed><course>294.722168</course><hAcc>2.569253</hAcc><vAcc>0.404721</vAcc></extensions></trkpt>
      <trkpt lon="-3.047742" lat="52.705988"><ele>357.215942</ele><time>2022-01-15T10:02:02Z</time><extensions><speed>0.021157</speed><course>294.708679</course><hAcc>2.558048</hAcc><vAcc>0.401468</vAcc></extensions></trkpt>
      <trkpt lon="-3.047743" lat="52.705989"><ele>357.203644</ele><time>2022-01-15T10:02:03Z</time><extensions><speed>0.031802</speed><course>319.369720</course><hAcc>2.547294</hAcc><vAcc>0.398417</vAcc></extensions></trkpt>
      <trkpt lon="-3.047744" lat="52.705989"><ele>357.194061</ele><time>2022-01-15T10:02:04Z</time><extensions><speed>0.045223</speed><course>331.109528</course><hAcc>2.544111</hAcc><vAcc>0.395489</vAcc></extensions></trkpt>
      <trkpt lon="-3.047744" lat="52.705990"><ele>357.200287</ele><time>2022-01-15T10:02:05Z</time><extensions><speed>0.066531</speed><course>336.917358</course><hAcc>2.535414</hAcc><vAcc>0.392776</vAcc></extensions></trkpt>
      <trkpt lon="-3.047745" lat="52.705991"><ele>357.225372</ele><time>2022-01-15T10:02:06Z</time><extensions><speed>0.088154</speed><course>339.751160</course><hAcc>2.532014</hAcc><vAcc>0.390470</vAcc></extensions></trkpt>
      <trkpt lon="-3.047745" lat="52.705992"><ele>357.272614</ele><time>2022-01-15T10:02:07Z</time><extensions><speed>0.108107</speed><course>339.659332</course><hAcc>2.527117</hAcc><vAcc>0.388677</vAcc></extensions></trkpt>
      <trkpt lon="-3.047746" lat="52.705993"><ele>357.330627</ele><time>2022-01-15T10:02:08Z</time><extensions><speed>0.130597</speed><course>338.842560</course><hAcc>2.522200</hAcc><vAcc>0.387362</vAcc></extensions></trkpt>
      <trkpt lon="-3.047747" lat="52.705994"><ele>357.415222</ele><time>2022-01-15T10:02:09Z</time><extensions><speed>0.143715</speed><course>337.397522</course><hAcc>2.531542</hAcc><vAcc>0.386709</vAcc></extensions></trkpt>
      <trkpt lon="-3.047748" lat="52.705994"><ele>357.517883</ele><time>2022-01-15T10:02:10Z</time><extensions><speed>0.145857</speed><course>333.005249</course><hAcc>2.551455</hAcc><vAcc>0.386881</vAcc></extensions></trkpt>
      <trkpt lon="-3.047750" lat="52.705995"><ele>357.637543</ele><time>2022-01-15T10:02:11Z</time><extensions><speed>0.147053</speed><course>328.438110</course><hAcc>2.576041</hAcc><vAcc>0.388188</vAcc></extensions></trkpt>
      <trkpt lon="-3.047751" lat="52.705996"><ele>357.771362</ele><time>2022-01-15T10:02:12Z</time><extensions><speed>0.150352</speed><course>321.609955</course><hAcc>2.588614</hAcc><vAcc>0.390678</vAcc></extensions></trkpt>
      <trkpt lon="-3.047753" lat="52.705996"><ele>357.912720</ele><time>2022-01-15T10:02:13Z</time><extensions><speed>0.148740</speed><course>307.429352</course><hAcc>2.586161</hAcc><vAcc>0.394280</vAcc></extensions></trkpt>
      <trkpt lon="-3.047755" lat="52.705996"><ele>358.052551</ele><time>2022-01-15T10:02:14Z</time><extensions><speed>0.129777</speed><course>277.030853</course><hAcc>2.605405</hAcc><vAcc>0.398711</vAcc></extensions></trkpt>
      <trkpt lon="-3.047757" lat="52.705995"><ele>358.184753</ele><time>2022-01-15T10:02:15Z</time><extensions><speed>0.151540</speed><course>228.387756</course><hAcc>2.656946</hAcc><vAcc>0.403644</vAcc></extensions></trkpt>
      <trkpt lon="-3.047758" lat="52.705992"><ele>358.298462</ele><time>2022-01-15T10:02:16Z</time><extensions><speed>0.248520</speed><course>205.667007</course><hAcc>2.688885</hAcc><vAcc>0.408747</vAcc></extensions></trkpt>
      <trkpt lon="-3.047760" lat="52.705989"><ele>358.391113</ele><time>2022-01-15T10:02:17Z</time><extensions><speed>0.383121</speed><course>197.590042</course><hAcc>2.690722</hAcc><vAcc>0.413502</vAcc></extensions></trkpt>
      <trkpt lon="-3.047762" lat="52.705985"><ele>358.462006</ele><time>2022-01-15T10:02:18Z</time><extensions><speed>0.488369</speed><course>194.178391</course><hAcc>2.699310</hAcc><vAcc>0.417355</vAcc></extensions></trkpt>
      <trkpt lon="-3.047763" lat="52.705980"><ele>358.511841</ele><time>2022-01-15T10:02:19Z</time><extensions><speed>0.469259</speed><course>192.150116</course><hAcc>2.745300</hAcc><vAcc>0.419888</vAcc></extensions></trkpt>
      <trkpt lon="-3.047765" lat="52.705975"><ele>358.556702</ele><time>2022-01-15T10:02:20Z</time><extensions><speed>0.393292</speed><course>189.998703</course><hAcc>2.779207</hAcc><vAcc>0.421089</vAcc></extensions></trkpt>
      <trkpt lon="-3.047766" lat="52.705970"><ele>358.570496</ele><time>2022-01-15T10:02:21Z</time><extensions><speed>0.560389</speed><course>188.022232</course><hAcc>2.733623</hAcc><vAcc>0.421118</vAcc></extensions></trkpt>
      <trkpt lon="-3.047767" lat="52.705964"><ele>358.558014</ele><time>2022-01-15T10:02:22Z</time><extensions><speed>0.610232</speed><course>186.518829</course><hAcc>2.698878</hAcc><vAcc>0.419947</vAcc></extensions></trkpt>
      <trkpt lon="-3.047768" lat="52.705958"><ele>358.514587</ele><time>2022-01-15T10:02:23Z</time><extensions><speed>0.654817</speed><course>185.383499</course><hAcc>2.677407</hAcc><vAcc>0.417888</vAcc></extensions></trkpt>
      <trkpt lon="-3.047770" lat="52.705951"><ele>358.439209</ele><time>2022-01-15T10:02:24Z</time><extensions><speed>0.690229</speed><course>184.675003</course><hAcc>2.659353</hAcc><vAcc>0.415107</vAcc></extensions></trkpt>
      <trkpt lon="-3.047770" lat="52.705945"><ele>358.335693</ele><time>2022-01-15T10:02:25Z</time><extensions><speed>0.665344</speed><course>184.544418</course><hAcc>2.649726</hAcc><vAcc>0.411949</vAcc></extensions></trkpt>
      <trkpt lon="-3.047771" lat="52.705939"><ele>358.206329</ele><time>2022-01-15T10:02:26Z</time><extensions><speed>0.591969</speed><course>185.081589</course><hAcc>2.644858</hAcc><vAcc>0.408853</vAcc></extensions></trkpt>
      <trkpt lon="-3.047772" lat="52.705934"><ele>358.051086</ele><time>2022-01-15T10:02:27Z</time><extensions><speed>0.538332</speed><course>186.091309</course><hAcc>2.633389</hAcc><vAcc>0.406277</vAcc></extensions></trkpt>
      <trkpt lon="-3.047773" lat="52.705930"><ele>357.874023</ele><time>2022-01-15T10:02:28Z</time><extensions><speed>0.501801</speed><course>186.895203</course><hAcc>2.622894</hAcc><vAcc>0.404501</vAcc></extensions></trkpt>
      <trkpt lon="-3.047774" lat="52.705926"><ele>357.680389</ele><time>2022-01-15T10:02:29Z</time><extensions><speed>0.425944</speed><course>187.669678</course><hAcc>2.637951</hAcc><vAcc>0.403701</vAcc></extensions></trkpt>
      <trkpt lon="-3.047774" lat="52.705923"><ele>357.471527</ele><time>2022-01-15T10:02:30Z</time><extensions><speed>0.301685</speed><course>188.658096</course><hAcc>2.662708</hAcc><vAcc>0.403926</vAcc></extensions></trkpt>
      <trkpt lon="-3.047775" lat="52.705921"><ele>357.263489</ele><time>2022-01-15T10:02:31Z</time><extensions><speed>0.279013</speed><course>189.613876</course><hAcc>2.655465</hAcc><vAcc>0.405089</vAcc></extensions></trkpt>
      <trkpt lon="-3.047775" lat="52.705919"><ele>357.062256</ele><time>2022-01-15T10:02:32Z</time><extensions><speed>0.185952</speed><course>190.095490</course><hAcc>2.675102</hAcc><vAcc>0.407013</vAcc></extensions></trkpt>
      <trkpt lon="-3.047775" lat="52.705918"><ele>356.872131</ele><time>2022-01-15T10:02:33Z</time><extensions><speed>0.096339</speed><course>188.515244</course><hAcc>2.697729</hAcc><vAcc>0.409507</vAcc></extensions></trkpt>
      <trkpt lon="-3.047775" lat="52.705918"><ele>356.706787</ele><time>2022-01-15T10:02:34Z</time><extensions><speed>0.016264</speed><course>123.551224</course><hAcc>2.731091</hAcc><vAcc>0.412295</vAcc></extensions></trkpt>
      <trkpt lon="-3.047774" lat="52.705918"><ele>356.563507</ele><time>2022-01-15T10:02:35Z</time><extensions><speed>0.083225</speed><course>33.731674</course><hAcc>2.787905</hAcc><vAcc>0.415134</vAcc></extensions></trkpt>
      <trkpt lon="-3.047773" lat="52.705919"><ele>356.440430</ele><time>2022-01-15T10:02:36Z</time><extensions><speed>0.150044</speed><course>32.531776</course><hAcc>2.840351</hAcc><vAcc>0.417907</vAcc></extensions></trkpt>
      <trkpt lon="-3.047771" lat="52.705921"><ele>356.340240</ele><time>2022-01-15T10:02:37Z</time><extensions><speed>0.198903</speed><course>34.401485</course><hAcc>2.874565</hAcc><vAcc>0.420732</vAcc></extensions></trkpt>
      <trkpt lon="-3.047768" lat="52.705923"><ele>356.261017</ele><time>2022-01-15T10:02:38Z</time><extensions><speed>0.231115</speed><course>36.627621</course><hAcc>2.886926</hAcc><vAcc>0.423718</vAcc></extensions></trkpt>
      <trkpt lon="-3.047766" lat="52.705925"><ele>356.201721</ele><time>2022-01-15T10:02:39Z</time><extensions><speed>0.265585</speed><course>38.495853</course><hAcc>2.877053</hAcc><vAcc>0.426840</vAcc></extensions></trkpt>
      <trkpt lon="-3.047762" lat="52.705927"><ele>356.156464</ele><time>2022-01-15T10:02:40Z</time><extensions><speed>0.298368</speed><course>39.809689</course><hAcc>2.865807</hAcc><vAcc>0.429892</vAcc></extensions></trkpt>
      <trkpt lon="-3.047759" lat="52.705929"><ele>356.130249</ele><time>2022-01-15T10:02:41Z</time><extensions><speed>0.306706</speed><course>40.294994</course><hAcc>2.871207</hAcc><vAcc>0.432603</vAcc></extensions></trkpt>
      <trkpt lon="-3.047755" lat="52.705931"><ele>356.112427</ele><time>2022-01-15T10:02:42Z</time><extensions><speed>0.323202</speed><course>41.158993</course><hAcc>2.878437</hAcc><vAcc>0.434872</vAcc></extensions></trkpt>
      <trkpt lon="-3.047752" lat="52.705934"><ele>356.102875</ele><time>2022-01-15T10:02:43Z</time><extensions><speed>0.342722</speed><course>43.930611</course><hAcc>2.886334</hAcc><vAcc>0.436782</vAcc></extensions></trkpt>
      <trkpt lon="-3.047748" lat="52.705936"><ele>356.097382</ele><time>2022-01-15T10:02:44Z</time><extensions><speed>0.334121</speed><course>48.596874</course><hAcc>2.903571</hAcc><vAcc>0.438504</vAcc></extensions></trkpt>
      <trkpt lon="-3.047743" lat="52.705938"><ele>356.095032</ele><time>2022-01-15T10:02:45Z</time><extensions><speed>0.361067</speed><course>54.749481</course><hAcc>2.909717</hAcc><vAcc>0.440075</vAcc></extensions></trkpt>
      <trkpt lon="-3.047738" lat="52.705939"><ele>356.093170</ele><time>2022-01-15T10:02:46Z</time><extensions><speed>0.380758</speed><course>60.174122</course><hAcc>2.916104</hAcc><vAcc>0.441333</vAcc></extensions></trkpt>
      <trkpt lon="-3.047732" lat="52.705941"><ele>356.090790</ele><time>2022-01-15T10:02:47Z</time><extensions><speed>0.388621</speed><course>64.333565</course><hAcc>2.930607</hAcc><vAcc>0.442106</vAcc></extensions></trkpt>
      <trkpt lon="-3.047726" lat="52.705942"><ele>356.089264</ele><time>2022-01-15T10:02:48Z</time><extensions><speed>0.371811</speed><course>68.881203</course><hAcc>2.952430</hAcc><vAcc>0.442232</vAcc></extensions></trkpt>
      <trkpt lon="-3.047720" lat="52.705943"><ele>356.085175</ele><time>2022-01-15T10:02:49Z</time><extensions><speed>0.355919</speed><course>73.309784</course><hAcc>2.960581</hAcc><vAcc>0.441759</vAcc></extensions></trkpt>
      <trkpt lon="-3.047715" lat="52.705943"><ele>356.076141</ele><time>2022-01-15T10:02:50Z</time><extensions><speed>0.345745</speed><course>77.959595</course><hAcc>2.949981</hAcc><vAcc>0.440774</vAcc></extensions></trkpt>
      <trkpt lon="-3.047709" lat="52.705943"><ele>356.052612</ele><time>2022-01-15T10:02:51Z</time><extensions><speed>0.305152</speed><course>84.280327</course><hAcc>2.938404</hAcc><vAcc>0.439388</vAcc></extensions></trkpt>
      <trkpt lon="-3.047704" lat="52.705943"><ele>356.019867</ele><time>2022-01-15T10:02:52Z</time><extensions><speed>0.284437</speed><course>93.080528</course><hAcc>2.915427</hAcc><vAcc>0.437746</vAcc></extensions></trkpt>
      <trkpt lon="-3.047700" lat="52.705942"><ele>355.974152</ele><time>2022-01-15T10:02:53Z</time><extensions><speed>0.263647</speed><course>102.719444</course><hAcc>2.899558</hAcc><vAcc>0.436071</vAcc></extensions></trkpt>
      <trkpt lon="-3.047697" lat="52.705941"><ele>355.915924</ele><time>2022-01-15T10:02:54Z</time><extensions><speed>0.239673</speed><course>111.764030</course><hAcc>2.904353</hAcc><vAcc>0.434507</vAcc></extensions></trkpt>
      <trkpt lon="-3.047694" lat="52.705939"><ele>355.840271</ele><time>2022-01-15T10:02:55Z</time><extensions><speed>0.194694</speed><course>120.483871</course><hAcc>2.927671</hAcc><vAcc>0.433338</vAcc></extensions></trkpt>
      <trkpt lon="-3.047691" lat="52.705938"><ele>355.751526</ele><time>2022-01-15T10:02:56Z</time><extensions><speed>0.189866</speed><course>130.478348</course><hAcc>2.925954</hAcc><vAcc>0.432717</vAcc></extensions></trkpt>
      <trkpt lon="-3.047689" lat="52.705936"><ele>355.649109</ele><time>2022-01-15T10:02:57Z</time><extensions><speed>0.277439</speed><course>139.421997</course><hAcc>2.885006</hAcc><vAcc>0.432777</vAcc></extensions></trkpt>
      <trkpt lon="-3.047687" lat="52.705934"><ele>355.535919</ele><time>2022-01-15T10:02:58Z</time><extensions><speed>0.316776</speed><course>147.171692</course><hAcc>2.872454</hAcc><vAcc>0.433467</vAcc></extensions></trkpt>
      <trkpt lon="-3.047685" lat="52.705931"><ele>355.419586</ele><time>2022-01-15T10:02:59Z</time><extensions><speed>0.328677</speed><course>155.843735</course><hAcc>2.897247</hAcc><vAcc>0.434766</vAcc></extensions></trkpt>
      <trkpt lon="-3.047684" lat="52.705928"><ele>355.292419</ele><time>2022-01-15T10:03:00Z</time><extensions><speed>0.319702</speed><course>164.936890</course><hAcc>2.951021</hAcc><vAcc>0.436684</vAcc></extensions></trkpt>
      <trkpt lon="-3.047684" lat="52.705925"><ele>355.163818</ele><time>2022-01-15T10:03:01Z</time><extensions><speed>0.304211</speed><course>174.443237</course><hAcc>3.016665</hAcc><vAcc>0.439312</vAcc></extensions></trkpt>
      <trkpt lon="-3.047684" lat="52.705922"><ele>355.045013</ele><time>2022-01-15T10:03:02Z</time><extensions><speed>0.296272</speed><course>185.311783</course><hAcc>3.076946</hAcc><vAcc>0.442838</vAcc></extensions></trkpt>
      <trkpt lon="-3.047686" lat="52.705920"><ele>354.939117</ele><time>2022-01-15T10:03:03Z</time><extensions><speed>0.328875</speed><course>197.242737</course><hAcc>3.126666</hAcc><vAcc>0.447424</vAcc></extensions></trkpt>
      <trkpt lon="-3.047689" lat="52.705917"><ele>354.850647</ele><time>2022-01-15T10:03:04Z</time><extensions><speed>0.359664</speed><course>210.268234</course><hAcc>3.195915</hAcc><vAcc>0.453026</vAcc></extensions></trkpt>
      <trkpt lon="-3.047694" lat="52.705915"><ele>354.778717</ele><time>2022-01-15T10:03:05Z</time><extensions><speed>0.376634</speed><course>224.491791</course><hAcc>3.305799</hAcc><vAcc>0.459319</vAcc></extensions></trkpt>
      <trkpt lon="-3.047699" lat="52.705913"><ele>354.730194</ele><time>2022-01-15T10:03:06Z</time><extensions><speed>0.362185</speed><course>240.159683</course><hAcc>3.434858</hAcc><vAcc>0.465819</vAcc></extensions></trkpt>
      <trkpt lon="-3.047705" lat="52.705913"><ele>354.708649</ele><time>2022-01-15T10:03:07Z</time><extensions><speed>0.400964</speed><course>255.540665</course><hAcc>3.534061</hAcc><vAcc>0.472113</vAcc></extensions></trkpt>
      <trkpt lon="-3.047712" lat="52.705913"><ele>354.715149</ele><time>2022-01-15T10:03:08Z</time><extensions><speed>0.482434</speed><course>268.629456</course><hAcc>3.616696</hAcc><vAcc>0.477952</vAcc></extensions></trkpt>
      <trkpt lon="-3.047720" lat="52.705914"><ele>354.752167</ele><time>2022-01-15T10:03:09Z</time><extensions><speed>0.529070</speed><course>279.625854</course><hAcc>3.699137</hAcc><vAcc>0.483204</vAcc></extensions></trkpt>
      <trkpt lon="-3.047729" lat="52.705917"><ele>354.823456</ele><time>2022-01-15T10:03:10Z</time><extensions><speed>0.653664</speed><course>288.707214</course><hAcc>3.749316</hAcc><vAcc>0.487788</vAcc></extensions></trkpt>
      <trkpt lon="-3.047739" lat="52.705920"><ele>354.924103</ele><time>2022-01-15T10:03:11Z</time><extensions><speed>0.733016</speed><course>295.862823</course><hAcc>3.799362</hAcc><vAcc>0.491620</vAcc></extensions></trkpt>
      <trkpt lon="-3.047749" lat="52.705924"><ele>355.057037</ele><time>2022-01-15T10:03:12Z</time><extensions><speed>0.754624</speed><course>301.973846</course><hAcc>3.856327</hAcc><vAcc>0.494627</vAcc></extensions></trkpt>
      <trkpt lon="-3.047759" lat="52.705928"><ele>355.219147</ele><time>2022-01-15T10:03:13Z</time><extensions><speed>0.728637</speed><course>308.393646</course><hAcc>3.916275</hAcc><vAcc>0.496753</vAcc></extensions></trkpt>
      <trkpt lon="-3.047766" lat="52.705933"><ele>355.405762</ele><time>2022-01-15T10:03:14Z</time><extensions><speed>0.635291</speed><course>315.245392</course><hAcc>3.969885</hAcc><vAcc>0.497990</vAcc></extensions></trkpt>
      <trkpt lon="-3.047772" lat="52.705938"><ele>355.613129</ele><time>2022-01-15T10:03:15Z</time><extensions><speed>0.597594</speed><course>322.423523</course><hAcc>3.988181</hAcc><vAcc>0.498425</vAcc></extensions></trkpt>
      <trkpt lon="-3.047777" lat="52.705943"><ele>355.843231</ele><time>2022-01-15T10:03:16Z</time><extensions><speed>0.567725</speed><course>328.983795</course><hAcc>3.983504</hAcc><vAcc>0.498229</vAcc></extensions></trkpt>
      <trkpt lon="-3.047781" lat="52.705948"><ele>356.089111</ele><time>2022-01-15T10:03:17Z</time><extensions><speed>0.541472</speed><course>334.223480</course><hAcc>3.973144</hAcc><vAcc>0.497601</vAcc></extensions></trkpt>
      <trkpt lon="-3.047783" lat="52.705953"><ele>356.340454</ele><time>2022-01-15T10:03:18Z</time><extensions><speed>0.505581</speed><course>339.374054</course><hAcc>3.966318</hAcc><vAcc>0.496751</vAcc></extensions></trkpt>
      <trkpt lon="-3.047783" lat="52.705957"><ele>356.594574</ele><time>2022-01-15T10:03:19Z</time><extensions><speed>0.492401</speed><course>346.037933</course><hAcc>3.964106</hAcc><vAcc>0.495882</vAcc></extensions></trkpt>
      <trkpt lon="-3.047782" lat="52.705962"><ele>356.844818</ele><time>2022-01-15T10:03:20Z</time><extensions><speed>0.427079</speed><course>354.643585</course><hAcc>3.982904</hAcc><vAcc>0.495190</vAcc></extensions></trkpt>
      <trkpt lon="-3.047781" lat="52.705967"><ele>357.084778</ele><time>2022-01-15T10:03:21Z</time><extensions><speed>0.421247</speed><course>4.323121</course><hAcc>3.999416</hAcc><vAcc>0.494858</vAcc></extensions></trkpt>
      <trkpt lon="-3.047778" lat="52.705972"><ele>357.310730</ele><time>2022-01-15T10:03:22Z</time><extensions><speed>0.404221</speed><course>13.940798</course><hAcc>4.023764</hAcc><vAcc>0.495052</vAcc></extensions></trkpt>
      <trkpt lon="-3.047774" lat="52.705976"><ele>357.521179</ele><time>2022-01-15T10:03:23Z</time><extensions><speed>0.384520</speed><course>23.106829</course><hAcc>4.042177</hAcc><vAcc>0.495858</vAcc></extensions></trkpt>
      <trkpt lon="-3.047770" lat="52.705981"><ele>357.709473</ele><time>2022-01-15T10:03:24Z</time><extensions><speed>0.406362</speed><course>30.779324</course><hAcc>4.027045</hAcc><vAcc>0.497283</vAcc></extensions></trkpt>
      <trkpt lon="-3.047765" lat="52.705985"><ele>357.867126</ele><time>2022-01-15T10:03:25Z</time><extensions><speed>0.468420</speed><course>36.434757</course><hAcc>3.985152</hAcc><vAcc>0.499262</vAcc></extensions></trkpt>
      <trkpt lon="-3.047759" lat="52.705990"><ele>358.001465</ele><time>2022-01-15T10:03:26Z</time><extensions><speed>0.472333</speed><course>40.147961</course><hAcc>3.957464</hAcc><vAcc>0.501707</vAcc></extensions></trkpt>
      <trkpt lon="-3.047753" lat="52.705994"><ele>358.111664</ele><time>2022-01-15T10:03:27Z</time><extensions><speed>0.461844</speed><course>43.325241</course><hAcc>3.942060</hAcc><vAcc>0.504564</vAcc></extensions></trkpt>
      <trkpt lon="-3.047745" lat="52.705998"><ele>358.201355</ele><time>2022-01-15T10:03:28Z</time><extensions><speed>0.426827</speed><course>45.865734</course><hAcc>3.954844</hAcc><vAcc>0.507799</vAcc></extensions></trkpt>
      <trkpt lon="-3.047739" lat="52.706001"><ele>358.273499</ele><time>2022-01-15T10:03:29Z</time><extensions><speed>0.264041</speed><course>46.638355</course><hAcc>4.000759</hAcc><vAcc>0.511384</vAcc></extensions></trkpt>
      <trkpt lon="-3.047734" lat="52.706004"><ele>358.329681</ele><time>2022-01-15T10:03:30Z</time><extensions><speed>0.173906</speed><course>45.942722</course><hAcc>4.008780</hAcc><vAcc>0.515240</vAcc></extensions></trkpt>
      <trkpt lon="-3.047730" lat="52.706007"><ele>358.371338</ele><time>2022-01-15T10:03:31Z</time><extensions><speed>0.202955</speed><course>44.539192</course><hAcc>3.979177</hAcc><vAcc>0.519219</vAcc></extensions></trkpt>
      <trkpt lon="-3.047726" lat="52.706010"><ele>358.399231</ele><time>2022-01-15T10:03:32Z</time><extensions><speed>0.209147</speed><course>43.151142</course><hAcc>3.961855</hAcc><vAcc>0.523115</vAcc></extensions></trkpt>
      <trkpt lon="-3.047721" lat="52.706013"><ele>358.417389</ele><time>2022-01-15T10:03:33Z</time><extensions><speed>0.269221</speed><course>44.216667</course><hAcc>3.935524</hAcc><vAcc>0.526717</vAcc></extensions></trkpt>
      <trkpt lon="-3.047713" lat="52.706016"><ele>358.427704</ele><time>2022-01-15T10:03:34Z</time><extensions><speed>0.447806</speed><course>46.658993</course><hAcc>3.895276</hAcc><vAcc>0.529835</vAcc></extensions></trkpt>
      <trkpt lon="-3.047704" lat="52.706020"><ele>358.430145</ele><time>2022-01-15T10:03:35Z</time><extensions><speed>0.609819</speed><course>49.593216</course><hAcc>3.882612</hAcc><vAcc>0.532361</vAcc></extensions></trkpt>
      <trkpt lon="-3.047692" lat="52.706024"><ele>358.423218</ele><time>2022-01-15T10:03:36Z</time><extensions><speed>0.693231</speed><course>52.017792</course><hAcc>3.910752</hAcc><vAcc>0.534286</vAcc></extensions></trkpt>
      <trkpt lon="-3.047679" lat="52.706029"><ele>358.407349</ele><time>2022-01-15T10:03:37Z</time><extensions><speed>0.748217</speed><course>54.213181</course><hAcc>3.951558</hAcc><vAcc>0.535637</vAcc></extensions></trkpt>
      <trkpt lon="-3.047665" lat="52.706034"><ele>358.383362</ele><time>2022-01-15T10:03:38Z</time><extensions><speed>0.796026</speed><course>56.336834</course><hAcc>3.976866</hAcc><vAcc>0.536452</vAcc></extensions></trkpt>
      <trkpt lon="-3.047650" lat="52.706040"><ele>358.348602</ele><time>2022-01-15T10:03:39Z</time><extensions><speed>0.813269</speed><course>57.919647</course><hAcc>3.984123</hAcc><vAcc>0.536748</vAcc></extensions></trkpt>
      <trkpt lon="-3.047636" lat="52.706045"><ele>358.300171</ele><time>2022-01-15T10:03:40Z</time><extensions><speed>0.805678</speed><course>59.462730</course><hAcc>3.970359</hAcc><vAcc>0.536486</vAcc></extensions></trkpt>
      <trkpt lon="-3.047622" lat="52.706050"><ele>358.238922</ele><time>2022-01-15T10:03:41Z</time><extensions><speed>0.793259</speed><course>60.887093</course><hAcc>3.936325</hAcc><vAcc>0.535589</vAcc></extensions></trkpt>
      <trkpt lon="-3.047610" lat="52.706054"><ele>358.167297</ele><time>2022-01-15T10:03:42Z</time><extensions><speed>0.758700</speed><course>62.361546</course><hAcc>3.895971</hAcc><vAcc>0.533980</vAcc></extensions></trkpt>
      <trkpt lon="-3.047598" lat="52.706058"><ele>358.088989</ele><time>2022-01-15T10:03:43Z</time><extensions><speed>0.708262</speed><course>63.474220</course><hAcc>3.849713</hAcc><vAcc>0.531622</vAcc></extensions></trkpt>
      <trkpt lon="-3.047587" lat="52.706063"><ele>358.004944</ele><time>2022-01-15T10:03:44Z</time><extensions><speed>0.687011</speed><course>63.249546</course><hAcc>3.792704</hAcc><vAcc>0.528529</vAcc></extensions></trkpt>
      <trkpt lon="-3.047576" lat="52.706067"><ele>357.923767</ele><time>2022-01-15T10:03:45Z</time><extensions><speed>0.747441</speed><course>61.858845</course><hAcc>3.713513</hAcc><vAcc>0.524740</vAcc></extensions></trkpt>
      <trkpt lon="-3.047565" lat="52.706071"><ele>357.841187</ele><time>2022-01-15T10:03:46Z</time><extensions><speed>0.781564</speed><course>59.746090</course><hAcc>3.631721</hAcc><vAcc>0.520314</vAcc></extensions></trkpt>
      <trkpt lon="-3.047554" lat="52.706076"><ele>357.770721</ele><time>2022-01-15T10:03:47Z</time><extensions><speed>0.848210</speed><course>57.292713</course><hAcc>3.555778</hAcc><vAcc>0.515353</vAcc></extensions></trkpt>
      <trkpt lon="-3.047543" lat="52.706081"><ele>357.721771</ele><time>2022-01-15T10:03:48Z</time><extensions><speed>0.775166</speed><course>53.894455</course><hAcc>3.516491</hAcc><vAcc>0.510002</vAcc></extensions></trkpt>
      <trkpt lon="-3.047534" lat="52.706086"><ele>357.685852</ele><time>2022-01-15T10:03:49Z</time><extensions><speed>0.706608</speed><course>49.729103</course><hAcc>3.493957</hAcc><vAcc>0.504503</vAcc></extensions></trkpt>
      <trkpt lon="-3.047527" lat="52.706091"><ele>357.673462</ele><time>2022-01-15T10:03:50Z</time><extensions><speed>0.680116</speed><course>45.071537</course><hAcc>3.467324</hAcc><vAcc>0.499160</vAcc></extensions></trkpt>
      <trkpt lon="-3.047519" lat="52.706096"><ele>357.686523</ele><time>2022-01-15T10:03:51Z</time><extensions><speed>0.685996</speed><course>40.838356</course><hAcc>3.432073</hAcc><vAcc>0.494306</vAcc></extensions></trkpt>
      <trkpt lon="-3.047512" lat="52.706101"><ele>357.725922</ele><time>2022-01-15T10:03:52Z</time><extensions><speed>0.742509</speed><course>37.309933</course><hAcc>3.397388</hAcc><vAcc>0.490250</vAcc></extensions></trkpt>
      <trkpt lon="-3.047507" lat="52.706107"><ele>357.789551</ele><time>2022-01-15T10:03:53Z</time><extensions><speed>0.673269</speed><course>33.378986</course><hAcc>3.397806</hAcc><vAcc>0.487184</vAcc></extensions></trkpt>
      <trkpt lon="-3.047502" lat="52.706113"><ele>357.874542</ele><time>2022-01-15T10:03:54Z</time><extensions><speed>0.654355</speed><course>29.093233</course><hAcc>3.412977</hAcc><vAcc>0.485137</vAcc></extensions></trkpt>
      <trkpt lon="-3.047498" lat="52.706118"><ele>357.975006</ele><time>2022-01-15T10:03:55Z</time><extensions><speed>0.518110</speed><course>24.135159</course><hAcc>3.456443</hAcc><vAcc>0.484067</vAcc></extensions></trkpt>
      <trkpt lon="-3.047496" lat="52.706124"><ele>358.079163</ele><time>2022-01-15T10:03:56Z</time><extensions><speed>0.449923</speed><course>18.445509</course><hAcc>3.485254</hAcc><vAcc>0.483786</vAcc></extensions></trkpt>
      <trkpt lon="-3.047495" lat="52.706129"><ele>358.208252</ele><time>2022-01-15T10:03:57Z</time><extensions><speed>0.424767</speed><course>11.776595</course><hAcc>3.494034</hAcc><vAcc>0.483942</vAcc></extensions></trkpt>
      <trkpt lon="-3.047494" lat="52.706135"><ele>358.348053</ele><time>2022-01-15T10:03:58Z</time><extensions><speed>0.447248</speed><course>7.297881</course><hAcc>3.488025</hAcc><vAcc>0.484129</vAcc></extensions></trkpt>
      <trkpt lon="-3.047493" lat="52.706141"><ele>358.504028</ele><time>2022-01-15T10:03:59Z</time><extensions><speed>0.484169</speed><course>3.863981</course><hAcc>3.473429</hAcc><vAcc>0.484024</vAcc></extensions></trkpt>
      <trkpt lon="-3.047492" lat="52.706147"><ele>358.661713</ele><time>2022-01-15T10:04:00Z</time><extensions><speed>0.554020</speed><course>1.803237</course><hAcc>3.465999</hAcc><vAcc>0.483486</vAcc></extensions></trkpt>
      <trkpt lon="-3.047492" lat="52.706153"><ele>358.819763</ele><time>2022-01-15T10:04:01Z</time><extensions><speed>0.541456</speed><course>0.300184</course><hAcc>3.490457</hAcc><vAcc>0.482563</vAcc></extensions></trkpt>
      <trkpt lon="-3.047491" lat="52.706160"><ele>358.983124</ele><time>2022-01-15T10:04:02Z</time><extensions><speed>0.582273</speed><course>359.440399</course><hAcc>3.514888</hAcc><vAcc>0.481477</vAcc></extensions></trkpt>
      <trkpt lon="-3.047491" lat="52.706166"><ele>359.158752</ele><time>2022-01-15T10:04:03Z</time><extensions><speed>0.621526</speed><course>359.943451</course><hAcc>3.544657</hAcc><vAcc>0.480476</vAcc></extensions></trkpt>
      <trkpt lon="-3.047491" lat="52.706172"><ele>359.338745</ele><time>2022-01-15T10:04:04Z</time><extensions><speed>0.669343</speed><course>1.843341</course><hAcc>3.573652</hAcc><vAcc>0.479686</vAcc></extensions></trkpt>
      <trkpt lon="-3.047490" lat="52.706179"><ele>359.534943</ele><time>2022-01-15T10:04:05Z</time><extensions><speed>0.776429</speed><course>4.872679</course><hAcc>3.588573</hAcc><vAcc>0.479138</vAcc></extensions></trkpt>
      <trkpt lon="-3.047488" lat="52.706187"><ele>359.741211</ele><time>2022-01-15T10:04:06Z</time><extensions><speed>0.968758</speed><course>8.755531</course><hAcc>3.582871</hAcc><vAcc>0.478826</vAcc></extensions></trkpt>
      <trkpt lon="-3.047485" lat="52.706197"><ele>359.959991</ele><time>2022-01-15T10:04:07Z</time><extensions><speed>1.239175</speed><course>13.215065</course><hAcc>3.562274</hAcc><vAcc>0.478707</vAcc></extensions></trkpt>
      <trkpt lon="-3.047479" lat="52.706209"><ele>360.183624</ele><time>2022-01-15T10:04:08Z</time><extensions><speed>1.568277</speed><course>17.546495</course><hAcc>3.546330</hAcc><vAcc>0.478713</vAcc></extensions></trkpt>
      <trkpt lon="-3.047471" lat="52.706222"><ele>360.412445</ele><time>2022-01-15T10:04:09Z</time><extensions><speed>1.701264</speed><course>21.366951</course><hAcc>3.557781</hAcc><vAcc>0.478771</vAcc></extensions></trkpt>
      <trkpt lon="-3.047461" lat="52.706236"><ele>360.646515</ele><time>2022-01-15T10:04:10Z</time><extensions><speed>1.718985</speed><course>23.729460</course><hAcc>3.571975</hAcc><vAcc>0.478824</vAcc></extensions></trkpt>
      <trkpt lon="-3.047451" lat="52.706250"><ele>360.883636</ele><time>2022-01-15T10:04:11Z</time><extensions><speed>1.639924</speed><course>26.080353</course><hAcc>3.589391</hAcc><vAcc>0.478857</vAcc></extensions></trkpt>
      <trkpt lon="-3.047440" lat="52.706262"><ele>361.117126</ele><time>2022-01-15T10:04:12Z</time><extensions><speed>1.483335</speed><course>28.588171</course><hAcc>3.602484</hAcc><vAcc>0.478910</vAcc></extensions></trkpt>
      <trkpt lon="-3.047430" lat="52.706272"><ele>361.344330</ele><time>2022-01-15T10:04:13Z</time><extensions><speed>1.241559</speed><course>31.684818</course><hAcc>3.603716</hAcc><vAcc>0.479084</vAcc></extensions></trkpt>
      <trkpt lon="-3.047420" lat="52.706281"><ele>361.562836</ele><time>2022-01-15T10:04:14Z</time><extensions><speed>0.960746</speed><course>35.586300</course><hAcc>3.606480</hAcc><vAcc>0.479529</vAcc></extensions></trkpt>
      <trkpt lon="-3.047413" lat="52.706287"><ele>361.767029</ele><time>2022-01-15T10:04:15Z</time><extensions><speed>0.703198</speed><course>40.072380</course><hAcc>3.615263</hAcc><vAcc>0.480425</vAcc></extensions></trkpt>
      <trkpt lon="-3.047406" lat="52.706290"><ele>361.950348</ele><time>2022-01-15T10:04:16Z</time><extensions><speed>0.470066</speed><course>48.241180</course><hAcc>3.643804</hAcc><vAcc>0.481929</vAcc></extensions></trkpt>
      <trkpt lon="-3.047402" lat="52.706292"><ele>362.109222</ele><time>2022-01-15T10:04:17Z</time><extensions><speed>0.245834</speed><course>64.956978</course><hAcc>3.694421</hAcc><vAcc>0.484135</vAcc></extensions></trkpt>
      <trkpt lon="-3.047400" lat="52.706293"><ele>362.245605</ele><time>2022-01-15T10:04:18Z</time><extensions><speed>0.142294</speed><course>93.655632</course><hAcc>3.740695</hAcc><vAcc>0.487068</vAcc></extensions></trkpt>
      <trkpt lon="-3.047398" lat="52.706293"><ele>362.363098</ele><time>2022-01-15T10:04:18Z</time><extensions><speed>0.129660</speed><course>117.191139</course><hAcc>3.767619</hAcc><vAcc>0.490628</vAcc></extensions></trkpt>
      <trkpt lon="-3.047396" lat="52.706293"><ele>362.463165</ele><time>2022-01-15T10:04:19Z</time><extensions><speed>0.121487</speed><course>116.267136</course><hAcc>3.794656</hAcc><vAcc>0.494575</vAcc></extensions></trkpt>
      <trkpt lon="-3.047393" lat="52.706293"><ele>362.549561</ele><time>2022-01-15T10:04:20Z</time><extensions><speed>0.121481</speed><course>96.827332</course><hAcc>3.821496</hAcc><vAcc>0.498566</vAcc></extensions></trkpt>
      <trkpt lon="-3.047390" lat="52.706294"><ele>362.620453</ele><time>2022-01-15T10:04:21Z</time><extensions><speed>0.146635</speed><course>70.752266</course><hAcc>3.846581</hAcc><vAcc>0.502271</vAcc></extensions></trkpt>
      <trkpt lon="-3.047387" lat="52.706295"><ele>362.676575</ele><time>2022-01-15T10:04:22Z</time><extensions><speed>0.206141</speed><course>53.542358</course><hAcc>3.869374</hAcc><vAcc>0.505424</vAcc></extensions></trkpt>
      <trkpt lon="-3.047382" lat="52.706298"><ele>362.723877</ele><time>2022-01-15T10:04:23Z</time><extensions><speed>0.293211</speed><course>46.634281</course><hAcc>3.879438</hAcc><vAcc>0.507814</vAcc></extensions></trkpt>
      <trkpt lon="-3.047376" lat="52.706301"><ele>362.759003</ele><time>2022-01-15T10:04:24Z</time><extensions><speed>0.398766</speed><course>44.544090</course><hAcc>3.876890</hAcc><vAcc>0.509268</vAcc></extensions></trkpt>
      <trkpt lon="-3.047369" lat="52.706304"><ele>362.793243</ele><time>2022-01-15T10:04:25Z</time><extensions><speed>0.518899</speed><course>44.408901</course><hAcc>3.861346</hAcc><vAcc>0.509689</vAcc></extensions></trkpt>
      <trkpt lon="-3.047361" lat="52.706309"><ele>362.832977</ele><time>2022-01-15T10:04:26Z</time><extensions><speed>0.649947</speed><course>44.701149</course><hAcc>3.834690</hAcc><vAcc>0.509044</vAcc></extensions></trkpt>
      <trkpt lon="-3.047352" lat="52.706314"><ele>362.869446</ele><time>2022-01-15T10:04:27Z</time><extensions><speed>0.791079</speed><course>45.703236</course><hAcc>3.792857</hAcc><vAcc>0.507339</vAcc></extensions></trkpt>
      <trkpt lon="-3.047341" lat="52.706320"><ele>362.914520</ele><time>2022-01-15T10:04:28Z</time><extensions><speed>0.940295</speed><course>46.998608</course><hAcc>3.735986</hAcc><vAcc>0.504604</vAcc></extensions></trkpt>
      <trkpt lon="-3.047329" lat="52.706327"><ele>362.974274</ele><time>2022-01-15T10:04:29Z</time><extensions><speed>1.082360</speed><course>48.235855</course><hAcc>3.669421</hAcc><vAcc>0.500865</vAcc></extensions></trkpt>
      <trkpt lon="-3.047314" lat="52.706335"><ele>363.025482</ele><time>2022-01-15T10:04:30Z</time><extensions><speed>1.238543</speed><course>49.205811</course><hAcc>3.596224</hAcc><vAcc>0.496163</vAcc></extensions></trkpt>
      <trkpt lon="-3.047298" lat="52.706343"><ele>363.063049</ele><time>2022-01-15T10:04:31Z</time><extensions><speed>1.425128</speed><course>49.988918</course><hAcc>3.516542</hAcc><vAcc>0.490575</vAcc></extensions></trkpt>
      <trkpt lon="-3.047279" lat="52.706352"><ele>363.115509</ele><time>2022-01-15T10:04:32Z</time><extensions><speed>1.589353</speed><course>51.727421</course><hAcc>3.414339</hAcc><vAcc>0.484268</vAcc></extensions></trkpt>
      <trkpt lon="-3.047260" lat="52.706361"><ele>363.155060</ele><time>2022-01-15T10:04:33Z</time><extensions><speed>1.653226</speed><course>53.188946</course><hAcc>3.323071</hAcc><vAcc>0.477351</vAcc></extensions></trkpt>
      <trkpt lon="-3.047239" lat="52.706370"><ele>363.193054</ele><time>2022-01-15T10:04:34Z</time><extensions><speed>1.674276</speed><course>54.376453</course><hAcc>3.251738</hAcc><vAcc>0.469996</vAcc></extensions></trkpt>
      <trkpt lon="-3.047219" lat="52.706378"><ele>363.218811</ele><time>2022-01-15T10:04:35Z</time><extensions><speed>1.620200</speed><course>54.747269</course><hAcc>3.192504</hAcc><vAcc>0.462373</vAcc></extensions></trkpt>
      <trkpt lon="-3.047200" lat="52.706386"><ele>363.234985</ele><time>2022-01-15T10:04:36Z</time><extensions><speed>1.530621</speed><course>54.227764</course><hAcc>3.131148</hAcc><vAcc>0.454411</vAcc></extensions></trkpt>
      <trkpt lon="-3.047182" lat="52.706394"><ele>363.222473</ele><time>2022-01-15T10:04:37Z</time><extensions><speed>1.360146</speed><course>53.939369</course><hAcc>3.095009</hAcc><vAcc>0.446453</vAcc></extensions></trkpt>
      <trkpt lon="-3.047166" lat="52.706401"><ele>363.163940</ele><time>2022-01-15T10:04:38Z</time><extensions><speed>1.270144</speed><course>54.842064</course><hAcc>3.047651</hAcc><vAcc>0.438402</vAcc></extensions></trkpt>
      <trkpt lon="-3.047151" lat="52.706407"><ele>363.084473</ele><time>2022-01-15T10:04:39Z</time><extensions><speed>1.278231</speed><course>55.923710</course><hAcc>2.970989</hAcc><vAcc>0.430482</vAcc></extensions></trkpt>
      <trkpt lon="-3.047134" lat="52.706414"><ele>362.994446</ele><time>2022-01-15T10:04:40Z</time><extensions><speed>1.261922</speed><course>57.065578</course><hAcc>2.910755</hAcc><vAcc>0.422818</vAcc></extensions></trkpt>
      <trkpt lon="-3.047118" lat="52.706420"><ele>362.879181</ele><time>2022-01-15T10:04:41Z</time><extensions><speed>1.218188</speed><course>58.691055</course><hAcc>2.879694</hAcc><vAcc>0.415813</vAcc></extensions></trkpt>
      <trkpt lon="-3.047102" lat="52.706426"><ele>362.735962</ele><time>2022-01-15T10:04:42Z</time><extensions><speed>1.147306</speed><course>59.280792</course><hAcc>2.877722</hAcc><vAcc>0.409767</vAcc></extensions></trkpt>
      <trkpt lon="-3.047088" lat="52.706431"><ele>362.611725</ele><time>2022-01-15T10:04:43Z</time><extensions><speed>1.029667</speed><course>58.799049</course><hAcc>2.894379</hAcc><vAcc>0.405030</vAcc></extensions></trkpt>
      <trkpt lon="-3.047075" lat="52.706436"><ele>362.459930</ele><time>2022-01-15T10:04:44Z</time><extensions><speed>0.869637</speed><course>59.668522</course><hAcc>2.907210</hAcc><vAcc>0.401954</vAcc></extensions></trkpt>
      <trkpt lon="-3.047064" lat="52.706440"><ele>362.307007</ele><time>2022-01-15T10:04:45Z</time><extensions><speed>0.766568</speed><course>60.061897</course><hAcc>2.897088</hAcc><vAcc>0.400507</vAcc></extensions></trkpt>
      <trkpt lon="-3.047054" lat="52.706444"><ele>362.158142</ele><time>2022-01-15T10:04:46Z</time><extensions><speed>0.695510</speed><course>58.112965</course><hAcc>2.861933</hAcc><vAcc>0.400418</vAcc></extensions></trkpt>
      <trkpt lon="-3.047045" lat="52.706448"><ele>362.016296</ele><time>2022-01-15T10:04:47Z</time><extensions><speed>0.597146</speed><course>54.784309</course><hAcc>2.871607</hAcc><vAcc>0.401406</vAcc></extensions></trkpt>
      <trkpt lon="-3.047038" lat="52.706453"><ele>361.888184</ele><time>2022-01-15T10:04:48Z</time><extensions><speed>0.476130</speed><course>49.265694</course><hAcc>2.927663</hAcc><vAcc>0.402986</vAcc></extensions></trkpt>
      <trkpt lon="-3.047033" lat="52.706457"><ele>361.790161</ele><time>2022-01-15T10:04:49Z</time><extensions><speed>0.488425</speed><course>43.592678</course><hAcc>2.982648</hAcc><vAcc>0.404699</vAcc></extensions></trkpt>
      <trkpt lon="-3.047027" lat="52.706462"><ele>361.693878</ele><time>2022-01-15T10:04:50Z</time><extensions><speed>0.532483</speed><course>39.142284</course><hAcc>3.035957</hAcc><vAcc>0.406245</vAcc></extensions></trkpt>
      <trkpt lon="-3.047020" lat="52.706468"><ele>361.624115</ele><time>2022-01-15T10:04:51Z</time><extensions><speed>0.617812</speed><course>35.115696</course><hAcc>3.083397</hAcc><vAcc>0.407651</vAcc></extensions></trkpt>
      <trkpt lon="-3.047013" lat="52.706475"><ele>361.546509</ele><time>2022-01-15T10:04:52Z</time><extensions><speed>0.707781</speed><course>31.551126</course><hAcc>3.136525</hAcc><vAcc>0.408869</vAcc></extensions></trkpt>
      <trkpt lon="-3.047006" lat="52.706482"><ele>361.471771</ele><time>2022-01-15T10:04:53Z</time><extensions><speed>0.726943</speed><course>28.993078</course><hAcc>3.192310</hAcc><vAcc>0.410074</vAcc></extensions></trkpt>
      <trkpt lon="-3.046999" lat="52.706489"><ele>361.413727</ele><time>2022-01-15T10:04:54Z</time><extensions><speed>0.848207</speed><course>26.967960</course><hAcc>3.215848</hAcc><vAcc>0.411379</vAcc></extensions></trkpt>
      <trkpt lon="-3.046993" lat="52.706497"><ele>361.364960</ele><time>2022-01-15T10:04:55Z</time><extensions><speed>0.966223</speed><course>25.566685</course><hAcc>3.222600</hAcc><vAcc>0.412645</vAcc></extensions></trkpt>
      <trkpt lon="-3.046985" lat="52.706507"><ele>361.328827</ele><time>2022-01-15T10:04:56Z</time><extensions><speed>1.021472</speed><course>25.082830</course><hAcc>3.222166</hAcc><vAcc>0.413686</vAcc></extensions></trkpt>
      <trkpt lon="-3.046977" lat="52.706516"><ele>361.301178</ele><time>2022-01-15T10:04:57Z</time><extensions><speed>1.095977</speed><course>25.758913</course><hAcc>3.200074</hAcc><vAcc>0.414249</vAcc></extensions></trkpt>
      <trkpt lon="-3.046969" lat="52.706526"><ele>361.264526</ele><time>2022-01-15T10:04:59Z</time><extensions><speed>1.174674</speed><course>27.058781</course><hAcc>3.157566</hAcc><vAcc>0.414253</vAcc></extensions></trkpt>
      <trkpt lon="-3.046960" lat="52.706536"><ele>361.218140</ele><time>2022-01-15T10:05:00Z</time><extensions><speed>1.148706</speed><course>28.942034</course><hAcc>3.124138</hAcc><vAcc>0.413699</vAcc></extensions></trkpt>
      <trkpt lon="-3.046952" lat="52.706545"><ele>361.172546</ele><time>2022-01-15T10:05:01Z</time><extensions><speed>0.939681</speed><course>29.644972</course><hAcc>3.107183</hAcc><vAcc>0.412664</vAcc></extensions></trkpt>
      <trkpt lon="-3.046945" lat="52.706552"><ele>361.128082</ele><time>2022-01-15T10:05:02Z</time><extensions><speed>0.883465</speed><course>30.757479</course><hAcc>3.070285</hAcc><vAcc>0.411279</vAcc></extensions></trkpt>
      <trkpt lon="-3.046938" lat="52.706560"><ele>361.085205</ele><time>2022-01-15T10:05:03Z</time><extensions><speed>0.877575</speed><course>31.450264</course><hAcc>3.020019</hAcc><vAcc>0.409728</vAcc></extensions></trkpt>
      <trkpt lon="-3.046931" lat="52.706567"><ele>361.035980</ele><time>2022-01-15T10:05:04Z</time><extensions><speed>0.966953</speed><course>31.079090</course><hAcc>2.957518</hAcc><vAcc>0.407974</vAcc></extensions></trkpt>
      <trkpt lon="-3.046924" lat="52.706576"><ele>360.962433</ele><time>2022-01-15T10:05:05Z</time><extensions><speed>1.078244</speed><course>30.025122</course><hAcc>2.902666</hAcc><vAcc>0.405924</vAcc></extensions></trkpt>
      <trkpt lon="-3.046916" lat="52.706584"><ele>360.871552</ele><time>2022-01-15T10:05:06Z</time><extensions><speed>1.121030</speed><course>28.834793</course><hAcc>2.878646</hAcc><vAcc>0.403657</vAcc></extensions></trkpt>
      <trkpt lon="-3.046908" lat="52.706594"><ele>360.773285</ele><time>2022-01-15T10:05:07Z</time><extensions><speed>1.099432</speed><course>27.443783</course><hAcc>2.870814</hAcc><vAcc>0.401453</vAcc></extensions></trkpt>
      <trkpt lon="-3.046901" lat="52.706603"><ele>360.661041</ele><time>2022-01-15T10:05:08Z</time><extensions><speed>1.201275</speed><course>26.011345</course><hAcc>2.839720</hAcc><vAcc>0.399527</vAcc></extensions></trkpt>
      <trkpt lon="-3.046894" lat="52.706613"><ele>360.558533</ele><time>2022-01-15T10:05:09Z</time><extensions><speed>1.213755</speed><course>22.023172</course><hAcc>2.799199</hAcc><vAcc>0.398197</vAcc></extensions></trkpt>
      <trkpt lon="-3.046888" lat="52.706623"><ele>360.457672</ele><time>2022-01-15T10:05:10Z</time><extensions><speed>1.160218</speed><course>17.176018</course><hAcc>2.755159</hAcc><vAcc>0.397781</vAcc></extensions></trkpt>
      <trkpt lon="-3.046884" lat="52.706632"><ele>360.351166</ele><time>2022-01-15T10:05:11Z</time><extensions><speed>0.965714</speed><course>11.982885</course><hAcc>2.727551</hAcc><vAcc>0.398426</vAcc></extensions></trkpt>
      <trkpt lon="-3.046882" lat="52.706640"><ele>360.266235</ele><time>2022-01-15T10:05:12Z</time><extensions><speed>0.641278</speed><course>4.760617</course><hAcc>2.711504</hAcc><vAcc>0.400004</vAcc></extensions></trkpt>
      <trkpt lon="-3.046882" lat="52.706645"><ele>360.203278</ele><time>2022-01-15T10:05:13Z</time><extensions><speed>0.554002</speed><course>357.222382</course><hAcc>2.666458</hAcc><vAcc>0.402124</vAcc></extensions></trkpt>
      <trkpt lon="-3.046882" lat="52.706650"><ele>360.138885</ele><time>2022-01-15T10:05:14Z</time><extensions><speed>0.515040</speed><course>353.537567</course><hAcc>2.624093</hAcc><vAcc>0.404112</vAcc></extensions></trkpt>
      <trkpt lon="-3.046883" lat="52.706654"><ele>360.104645</ele><time>2022-01-15T10:05:15Z</time><extensions><speed>0.500542</speed><course>354.703766</course><hAcc>2.606286</hAcc><vAcc>0.405334</vAcc></extensions></trkpt>
      <trkpt lon="-3.046883" lat="52.706659"><ele>360.090942</ele><time>2022-01-15T10:05:16Z</time><extensions><speed>0.493016</speed><course>359.872833</course><hAcc>2.614350</hAcc><vAcc>0.405570</vAcc></extensions></trkpt>
      <trkpt lon="-3.046882" lat="52.706664"><ele>360.084412</ele><time>2022-01-15T10:05:17Z</time><extensions><speed>0.500734</speed><course>7.927239</course><hAcc>2.635027</hAcc><vAcc>0.404910</vAcc></extensions></trkpt>
      <trkpt lon="-3.046880" lat="52.706668"><ele>360.092621</ele><time>2022-01-15T10:05:18Z</time><extensions><speed>0.524208</speed><course>18.030714</course><hAcc>2.657841</hAcc><vAcc>0.403566</vAcc></extensions></trkpt>
      <trkpt lon="-3.046877" lat="52.706673"><ele>360.077301</ele><time>2022-01-15T10:05:19Z</time><extensions><speed>0.599318</speed><course>28.374237</course><hAcc>2.668750</hAcc><vAcc>0.401632</vAcc></extensions></trkpt>
      <trkpt lon="-3.046872" lat="52.706678"><ele>360.055878</ele><time>2022-01-15T10:05:20Z</time><extensions><speed>0.742217</speed><course>36.097885</course><hAcc>2.659788</hAcc><vAcc>0.399285</vAcc></extensions></trkpt>
      <trkpt lon="-3.046864" lat="52.706684"><ele>360.038605</ele><time>2022-01-15T10:05:21Z</time><extensions><speed>0.983109</speed><course>40.835892</course><hAcc>2.636964</hAcc><vAcc>0.396736</vAcc></extensions></trkpt>
      <trkpt lon="-3.046853" lat="52.706691"><ele>360.001648</ele><time>2022-01-15T10:05:22Z</time><extensions><speed>1.106255</speed><course>45.370781</course><hAcc>2.619896</hAcc><vAcc>0.394301</vAcc></extensions></trkpt>
      <trkpt lon="-3.046841" lat="52.706699"><ele>359.957733</ele><time>2022-01-15T10:05:23Z</time><extensions><speed>1.213331</speed><course>45.996197</course><hAcc>2.575541</hAcc><vAcc>0.392105</vAcc></extensions></trkpt>
      <trkpt lon="-3.046828" lat="52.706707"><ele>359.891785</ele><time>2022-01-15T10:05:24Z</time><extensions><speed>1.237432</speed><course>45.732815</course><hAcc>2.521486</hAcc><vAcc>0.390324</vAcc></extensions></trkpt>
      <trkpt lon="-3.046815" lat="52.706714"><ele>359.818604</ele><time>2022-01-15T10:05:25Z</time><extensions><speed>1.202804</speed><course>45.372246</course><hAcc>2.474991</hAcc><vAcc>0.388713</vAcc></extensions></trkpt>
      <trkpt lon="-3.046803" lat="52.706722"><ele>359.722443</ele><time>2022-01-15T10:05:26Z</time><extensions><speed>1.125355</speed><course>45.066959</course><hAcc>2.448509</hAcc><vAcc>0.387359</vAcc></extensions></trkpt>
      <trkpt lon="-3.046792" lat="52.706729"><ele>359.648346</ele><time>2022-01-15T10:05:27Z</time><extensions><speed>1.005955</speed><course>44.340851</course><hAcc>2.432110</hAcc><vAcc>0.386302</vAcc></extensions></trkpt>
      <trkpt lon="-3.046783" lat="52.706735"><ele>359.568512</ele><time>2022-01-15T10:05:28Z</time><extensions><speed>0.955145</speed><course>40.673885</course><hAcc>2.402490</hAcc><vAcc>0.385827</vAcc></extensions></trkpt>
      <trkpt lon="-3.046774" lat="52.706742"><ele>359.502686</ele><time>2022-01-15T10:05:29Z</time><extensions><speed>0.901966</speed><course>36.855728</course><hAcc>2.393971</hAcc><vAcc>0.385853</vAcc></extensions></trkpt>
      <trkpt lon="-3.046767" lat="52.706749"><ele>359.446808</ele><time>2022-01-15T10:05:30Z</time><extensions><speed>0.902821</speed><course>30.376554</course><hAcc>2.383206</hAcc><vAcc>0.386448</vAcc></extensions></trkpt>
      <trkpt lon="-3.046761" lat="52.706756"><ele>359.396820</ele><time>2022-01-15T10:05:31Z</time><extensions><speed>0.893658</speed><course>20.862665</course><hAcc>2.362841</hAcc><vAcc>0.387592</vAcc></extensions></trkpt>
      <trkpt lon="-3.046758" lat="52.706764"><ele>359.358612</ele><time>2022-01-15T10:05:32Z</time><extensions><speed>0.871036</speed><course>10.904952</course><hAcc>2.344445</hAcc><vAcc>0.389219</vAcc></extensions></trkpt>
      <trkpt lon="-3.046756" lat="52.706772"><ele>359.333527</ele><time>2022-01-15T10:05:33Z</time><extensions><speed>0.842885</speed><course>2.729398</course><hAcc>2.334496</hAcc><vAcc>0.391204</vAcc></extensions></trkpt>
      <trkpt lon="-3.046756" lat="52.706779"><ele>359.326202</ele><time>2022-01-15T10:05:34Z</time><extensions><speed>0.780596</speed><course>356.975098</course><hAcc>2.340443</hAcc><vAcc>0.393057</vAcc></extensions></trkpt>
      <trkpt lon="-3.046758" lat="52.706786"><ele>359.307892</ele><time>2022-01-15T10:05:35Z</time><extensions><speed>0.655041</speed><course>351.075745</course><hAcc>2.369283</hAcc><vAcc>0.394368</vAcc></extensions></trkpt>
      <trkpt lon="-3.046759" lat="52.706791"><ele>359.307739</ele><time>2022-01-15T10:05:36Z</time><extensions><speed>0.451890</speed><course>344.910400</course><hAcc>2.428513</hAcc><vAcc>0.395068</vAcc></extensions></trkpt>
      <trkpt lon="-3.046761" lat="52.706795"><ele>359.322083</ele><time>2022-01-15T10:05:37Z</time><extensions><speed>0.336237</speed><course>341.956696</course><hAcc>2.484545</hAcc><vAcc>0.395612</vAcc></extensions></trkpt>
      <trkpt lon="-3.046763" lat="52.706798"><ele>359.325134</ele><time>2022-01-15T10:05:38Z</time><extensions><speed>0.368586</speed><course>342.836609</course><hAcc>2.505387</hAcc><vAcc>0.396574</vAcc></extensions></trkpt>
      <trkpt lon="-3.046764" lat="52.706802"><ele>359.360352</ele><time>2022-01-15T10:05:39Z</time><extensions><speed>0.439254</speed><course>344.029877</course><hAcc>2.534779</hAcc><vAcc>0.398195</vAcc></extensions></trkpt>
      <trkpt lon="-3.046766" lat="52.706807"><ele>359.401764</ele><time>2022-01-15T10:05:40Z</time><extensions><speed>0.499397</speed><course>344.930176</course><hAcc>2.595039</hAcc><vAcc>0.400164</vAcc></extensions></trkpt>
      <trkpt lon="-3.046767" lat="52.706813"><ele>359.448975</ele><time>2022-01-15T10:05:41Z</time><extensions><speed>0.550660</speed><course>346.754608</course><hAcc>2.671062</hAcc><vAcc>0.402009</vAcc></extensions></trkpt>
      <trkpt lon="-3.046768" lat="52.706819"><ele>359.501892</ele><time>2022-01-15T10:05:42Z</time><extensions><speed>0.597142</speed><course>350.394104</course><hAcc>2.744269</hAcc><vAcc>0.403376</vAcc></extensions></trkpt>
      <trkpt lon="-3.046768" lat="52.706825"><ele>359.567719</ele><time>2022-01-15T10:05:43Z</time><extensions><speed>0.664776</speed><course>355.300171</course><hAcc>2.800660</hAcc><vAcc>0.404151</vAcc></extensions></trkpt>
      <trkpt lon="-3.046768" lat="52.706833"><ele>359.637360</ele><time>2022-01-15T10:05:44Z</time><extensions><speed>0.762432</speed><course>359.798737</course><hAcc>2.843895</hAcc><vAcc>0.404363</vAcc></extensions></trkpt>
      <trkpt lon="-3.046768" lat="52.706841"><ele>359.707275</ele><time>2022-01-15T10:05:45Z</time><extensions><speed>0.766509</speed><course>3.388303</course><hAcc>2.881656</hAcc><vAcc>0.404098</vAcc></extensions></trkpt>
      <trkpt lon="-3.046767" lat="52.706849"><ele>359.783997</ele><time>2022-01-15T10:05:46Z</time><extensions><speed>0.861787</speed><course>7.279064</course><hAcc>2.873658</hAcc><vAcc>0.403517</vAcc></extensions></trkpt>
      <trkpt lon="-3.046765" lat="52.706859"><ele>359.864532</ele><time>2022-01-15T10:05:47Z</time><extensions><speed>0.962765</speed><course>10.553998</course><hAcc>2.836348</hAcc><vAcc>0.402758</vAcc></extensions></trkpt>
      <trkpt lon="-3.046762" lat="52.706868"><ele>359.937622</ele><time>2022-01-15T10:05:48Z</time><extensions><speed>1.008231</speed><course>12.880827</course><hAcc>2.807838</hAcc><vAcc>0.401929</vAcc></extensions></trkpt>
      <trkpt lon="-3.046760" lat="52.706877"><ele>359.985809</ele><time>2022-01-15T10:05:49Z</time><extensions><speed>0.749129</speed><course>13.060966</course><hAcc>2.811108</hAcc><vAcc>0.401060</vAcc></extensions></trkpt>
      <trkpt lon="-3.046758" lat="52.706884"><ele>360.021332</ele><time>2022-01-15T10:05:50Z</time><extensions><speed>0.683544</speed><course>11.722840</course><hAcc>2.794479</hAcc><vAcc>0.400070</vAcc></extensions></trkpt>
      <trkpt lon="-3.046757" lat="52.706890"><ele>360.058502</ele><time>2022-01-15T10:05:51Z</time><extensions><speed>0.664827</speed><course>8.725663</course><hAcc>2.771403</hAcc><vAcc>0.398857</vAcc></extensions></trkpt>
      <trkpt lon="-3.046756" lat="52.706897"><ele>360.092834</ele><time>2022-01-15T10:05:52Z</time><extensions><speed>0.680101</speed><course>4.396553</course><hAcc>2.752226</hAcc><vAcc>0.397368</vAcc></extensions></trkpt>
      <trkpt lon="-3.046756" lat="52.706903"><ele>360.126404</ele><time>2022-01-15T10:05:53Z</time><extensions><speed>0.721509</speed><course>359.141632</course><hAcc>2.736668</hAcc><vAcc>0.395620</vAcc></extensions></trkpt>
      <trkpt lon="-3.046757" lat="52.706910"><ele>360.177734</ele><time>2022-01-15T10:05:54Z</time><extensions><speed>0.833340</speed><course>353.481354</course><hAcc>2.710412</hAcc><vAcc>0.393604</vAcc></extensions></trkpt>
      <trkpt lon="-3.046760" lat="52.706919"><ele>360.220154</ele><time>2022-01-15T10:05:55Z</time><extensions><speed>1.080484</speed><course>349.270660</course><hAcc>2.669402</hAcc><vAcc>0.391500</vAcc></extensions></trkpt>
      <trkpt lon="-3.046763" lat="52.706928"><ele>360.288788</ele><time>2022-01-15T10:05:56Z</time><extensions><speed>1.101783</speed><course>345.093842</course><hAcc>2.654558</hAcc><vAcc>0.389506</vAcc></extensions></trkpt>
      <trkpt lon="-3.046768" lat="52.706937"><ele>360.370880</ele><time>2022-01-15T10:05:57Z</time><extensions><speed>0.933062</speed><course>339.248901</course><hAcc>2.670784</hAcc><vAcc>0.387890</vAcc></extensions></trkpt>
      <trkpt lon="-3.046773" lat="52.706944"><ele>360.457489</ele><time>2022-01-15T10:05:58Z</time><extensions><speed>0.847553</speed><course>331.985443</course><hAcc>2.683545</hAcc><vAcc>0.386778</vAcc></extensions></trkpt>
      <trkpt lon="-3.046780" lat="52.706951"><ele>360.569000</ele><time>2022-01-15T10:05:59Z</time><extensions><speed>0.875172</speed><course>324.391266</course><hAcc>2.673193</hAcc><vAcc>0.386377</vAcc></extensions></trkpt>
      <trkpt lon="-3.046789" lat="52.706957"><ele>360.685486</ele><time>2022-01-15T10:06:00Z</time><extensions><speed>0.933516</speed><course>317.476135</course><hAcc>2.649597</hAcc><vAcc>0.386884</vAcc></extensions></trkpt>
      <trkpt lon="-3.046800" lat="52.706963"><ele>360.825287</ele><time>2022-01-15T10:06:01Z</time><extensions><speed>1.054949</speed><course>311.655701</course><hAcc>2.617848</hAcc><vAcc>0.388589</vAcc></extensions></trkpt>
      <trkpt lon="-3.046812" lat="52.706969"><ele>360.979858</ele><time>2022-01-15T10:06:02Z</time><extensions><speed>1.018148</speed><course>306.142609</course><hAcc>2.601805</hAcc><vAcc>0.391629</vAcc></extensions></trkpt>
      <trkpt lon="-3.046824" lat="52.706974"><ele>361.127075</ele><time>2022-01-15T10:06:03Z</time><extensions><speed>0.894226</speed><course>300.749298</course><hAcc>2.597152</hAcc><vAcc>0.395916</vAcc></extensions></trkpt>
      <trkpt lon="-3.046835" lat="52.706977"><ele>361.280640</ele><time>2022-01-15T10:06:04Z</time><extensions><speed>0.742970</speed><course>296.360657</course><hAcc>2.589080</hAcc><vAcc>0.401082</vAcc></extensions></trkpt>
      <trkpt lon="-3.046845" lat="52.706980"><ele>361.440247</ele><time>2022-01-15T10:06:05Z</time><extensions><speed>0.788855</speed><course>294.200470</course><hAcc>2.558693</hAcc><vAcc>0.406394</vAcc></extensions></trkpt>
      <trkpt lon="-3.046856" lat="52.706983"><ele>361.588196</ele><time>2022-01-15T10:06:06Z</time><extensions><speed>0.800574</speed><course>295.098419</course><hAcc>2.549563</hAcc><vAcc>0.410971</vAcc></extensions></trkpt>
      <trkpt lon="-3.046867" lat="52.706986"><ele>361.744843</ele><time>2022-01-15T10:06:07Z</time><extensions><speed>0.744029</speed><course>298.585175</course><hAcc>2.564519</hAcc><vAcc>0.414073</vAcc></extensions></trkpt>
      <trkpt lon="-3.046876" lat="52.706989"><ele>361.900177</ele><time>2022-01-15T10:06:08Z</time><extensions><speed>0.718643</speed><course>294.403351</course><hAcc>2.518234</hAcc><vAcc>0.415199</vAcc></extensions></trkpt>
      <trkpt lon="-3.046886" lat="52.706992"><ele>362.043793</ele><time>2022-01-15T10:06:09Z</time><extensions><speed>0.660983</speed><course>291.886902</course><hAcc>2.478624</hAcc><vAcc>0.414311</vAcc></extensions></trkpt>
      <trkpt lon="-3.046895" lat="52.706994"><ele>362.186066</ele><time>2022-01-15T10:06:10Z</time><extensions><speed>0.546105</speed><course>289.332214</course><hAcc>2.494143</hAcc><vAcc>0.411903</vAcc></extensions></trkpt>
      <trkpt lon="-3.046902" lat="52.706996"><ele>362.316742</ele><time>2022-01-15T10:06:11Z</time><extensions><speed>0.377013</speed><course>284.705261</course><hAcc>2.547383</hAcc><vAcc>0.408631</vAcc></extensions></trkpt>
      <trkpt lon="-3.046908" lat="52.706997"><ele>362.451477</ele><time>2022-01-15T10:06:12Z</time><extensions><speed>0.346564</speed><course>282.800079</course><hAcc>2.582921</hAcc><vAcc>0.405215</vAcc></extensions></trkpt>
      <trkpt lon="-3.046913" lat="52.706998"><ele>362.584320</ele><time>2022-01-15T10:06:12Z</time><extensions><speed>0.351848</speed><course>284.134918</course><hAcc>2.608982</hAcc><vAcc>0.402114</vAcc></extensions></trkpt>
      <trkpt lon="-3.046919" lat="52.706999"><ele>362.713013</ele><time>2022-01-15T10:06:13Z</time><extensions><speed>0.407985</speed><course>288.158661</course><hAcc>2.620159</hAcc><vAcc>0.399471</vAcc></extensions></trkpt>
      <trkpt lon="-3.046925" lat="52.707000"><ele>362.838074</ele><time>2022-01-15T10:06:15Z</time><extensions><speed>0.466753</speed><course>293.372070</course><hAcc>2.641487</hAcc><vAcc>0.397271</vAcc></extensions></trkpt>
      <trkpt lon="-3.046932" lat="52.707003"><ele>362.970215</ele><time>2022-01-15T10:06:16Z</time><extensions><speed>0.482029</speed><course>299.419189</course><hAcc>2.688195</hAcc><vAcc>0.395424</vAcc></extensions></trkpt>
      <trkpt lon="-3.046939" lat="52.707005"><ele>363.094452</ele><time>2022-01-15T10:06:16Z</time><extensions><speed>0.531575</speed><course>305.082092</course><hAcc>2.729138</hAcc><vAcc>0.393944</vAcc></extensions></trkpt>
      <trkpt lon="-3.046946" lat="52.707009"><ele>363.217346</ele><time>2022-01-15T10:06:17Z</time><extensions><speed>0.600489</speed><course>309.168304</course><hAcc>2.765565</hAcc><vAcc>0.392747</vAcc></extensions></trkpt>
      <trkpt lon="-3.046953" lat="52.707013"><ele>363.338470</ele><time>2022-01-15T10:06:18Z</time><extensions><speed>0.658853</speed><course>312.501923</course><hAcc>2.806494</hAcc><vAcc>0.391872</vAcc></extensions></trkpt>
      <trkpt lon="-3.046961" lat="52.707018"><ele>363.455597</ele><time>2022-01-15T10:06:19Z</time><extensions><speed>0.755839</speed><course>315.877319</course><hAcc>2.846313</hAcc><vAcc>0.391265</vAcc></extensions></trkpt>
      <trkpt lon="-3.046969" lat="52.707024"><ele>363.568298</ele><time>2022-01-15T10:06:21Z</time><extensions><speed>0.874489</speed><course>319.147400</course><hAcc>2.899576</hAcc><vAcc>0.390853</vAcc></extensions></trkpt>
      <trkpt lon="-3.046978" lat="52.707030"><ele>363.674225</ele><time>2022-01-15T10:06:22Z</time><extensions><speed>0.824392</speed><course>322.479614</course><hAcc>2.983926</hAcc><vAcc>0.390795</vAcc></extensions></trkpt>
      <trkpt lon="-3.046986" lat="52.707037"><ele>363.773315</ele><time>2022-01-15T10:06:23Z</time><extensions><speed>0.848700</speed><course>325.109558</course><hAcc>3.066822</hAcc><vAcc>0.391151</vAcc></extensions></trkpt>
      <trkpt lon="-3.046994" lat="52.707044"><ele>363.861389</ele><time>2022-01-15T10:06:24Z</time><extensions><speed>0.887526</speed><course>326.686707</course><hAcc>3.148372</hAcc><vAcc>0.392147</vAcc></extensions></trkpt>
      <trkpt lon="-3.047002" lat="52.707051"><ele>363.942444</ele><time>2022-01-15T10:06:25Z</time><extensions><speed>0.916693</speed><course>327.413483</course><hAcc>3.229055</hAcc><vAcc>0.393920</vAcc></extensions></trkpt>
      <trkpt lon="-3.047010" lat="52.707059"><ele>364.019012</ele><time>2022-01-15T10:06:26Z</time><extensions><speed>0.902230</speed><course>328.211792</course><hAcc>3.303681</hAcc><vAcc>0.396415</vAcc></extensions></trkpt>
      <trkpt lon="-3.047018" lat="52.707067"><ele>364.099121</ele><time>2022-01-15T10:06:27Z</time><extensions><speed>0.871395</speed><course>328.565430</course><hAcc>3.360147</hAcc><vAcc>0.399498</vAcc></extensions></trkpt>
      <trkpt lon="-3.047025" lat="52.707074"><ele>364.165131</ele><time>2022-01-15T10:06:28Z</time><extensions><speed>0.829993</speed><course>328.633606</course><hAcc>3.399043</hAcc><vAcc>0.403018</vAcc></extensions></trkpt>
      <trkpt lon="-3.047033" lat="52.707081"><ele>364.266663</ele><time>2022-01-15T10:06:29Z</time><extensions><speed>0.780982</speed><course>328.631592</course><hAcc>3.431517</hAcc><vAcc>0.406926</vAcc></extensions></trkpt>
      <trkpt lon="-3.047039" lat="52.707088"><ele>364.376740</ele><time>2022-01-15T10:06:30Z</time><extensions><speed>0.679308</speed><course>327.499969</course><hAcc>3.481315</hAcc><vAcc>0.411257</vAcc></extensions></trkpt>
      <trkpt lon="-3.047045" lat="52.707092"><ele>364.494873</ele><time>2022-01-15T10:06:31Z</time><extensions><speed>0.499858</speed><course>325.263275</course><hAcc>3.528923</hAcc><vAcc>0.415915</vAcc></extensions></trkpt>
      <trkpt lon="-3.047051" lat="52.707097"><ele>364.619385</ele><time>2022-01-15T10:06:32Z</time><extensions><speed>0.634923</speed><course>323.714111</course><hAcc>3.505429</hAcc><vAcc>0.420687</vAcc></extensions></trkpt>
      <trkpt lon="-3.047058" lat="52.707103"><ele>364.752197</ele><time>2022-01-15T10:06:33Z</time><extensions><speed>0.812330</speed><course>323.984558</course><hAcc>3.464865</hAcc><vAcc>0.425171</vAcc></extensions></trkpt>
      <trkpt lon="-3.047066" lat="52.707109"><ele>364.893463</ele><time>2022-01-15T10:06:34Z</time><extensions><speed>0.942697</speed><course>324.934387</course><hAcc>3.438325</hAcc><vAcc>0.429024</vAcc></extensions></trkpt>
      <trkpt lon="-3.047075" lat="52.707117"><ele>365.043945</ele><time>2022-01-15T10:06:35Z</time><extensions><speed>1.108453</speed><course>326.188080</course><hAcc>3.399749</hAcc><vAcc>0.431979</vAcc></extensions></trkpt>
      <trkpt lon="-3.047085" lat="52.707127"><ele>365.198273</ele><time>2022-01-15T10:06:36Z</time><extensions><speed>1.311783</speed><course>327.469025</course><hAcc>3.337050</hAcc><vAcc>0.433823</vAcc></extensions></trkpt>
      <trkpt lon="-3.047096" lat="52.707137"><ele>365.356384</ele><time>2022-01-15T10:06:37Z</time><extensions><speed>1.299047</speed><course>327.145752</course><hAcc>3.281706</hAcc><vAcc>0.434521</vAcc></extensions></trkpt>
      <trkpt lon="-3.047105" lat="52.707146"><ele>365.515686</ele><time>2022-01-15T10:06:38Z</time><extensions><speed>1.107296</speed><course>326.183319</course><hAcc>3.237696</hAcc><vAcc>0.434104</vAcc></extensions></trkpt>
      <trkpt lon="-3.047113" lat="52.707153"><ele>365.667603</ele><time>2022-01-15T10:06:39Z</time><extensions><speed>0.765213</speed><course>323.498291</course><hAcc>3.173890</hAcc><vAcc>0.432703</vAcc></extensions></trkpt>
      <trkpt lon="-3.047120" lat="52.707158"><ele>365.815796</ele><time>2022-01-15T10:06:40Z</time><extensions><speed>0.660804</speed><course>321.300415</course><hAcc>3.057032</hAcc><vAcc>0.430569</vAcc></extensions></trkpt>
      <trkpt lon="-3.047126" lat="52.707163"><ele>365.972748</ele><time>2022-01-15T10:06:41Z</time><extensions><speed>0.634063</speed><course>321.199005</course><hAcc>2.918389</hAcc><vAcc>0.428183</vAcc></extensions></trkpt>
      <trkpt lon="-3.047132" lat="52.707168"><ele>366.123474</ele><time>2022-01-15T10:06:42Z</time><extensions><speed>0.665380</speed><course>322.632660</course><hAcc>2.783476</hAcc><vAcc>0.426103</vAcc></extensions></trkpt>
      <trkpt lon="-3.047138" lat="52.707173"><ele>366.276520</ele><time>2022-01-15T10:06:43Z</time><extensions><speed>0.751117</speed><course>323.536896</course><hAcc>2.660325</hAcc><vAcc>0.424829</vAcc></extensions></trkpt>
      <trkpt lon="-3.047146" lat="52.707179"><ele>366.422211</ele><time>2022-01-15T10:06:44Z</time><extensions><speed>0.927037</speed><course>323.293488</course><hAcc>2.550737</hAcc><vAcc>0.424668</vAcc></extensions></trkpt>
      <trkpt lon="-3.047154" lat="52.707185"><ele>366.570923</ele><time>2022-01-15T10:06:45Z</time><extensions><speed>0.970361</speed><course>321.678894</course><hAcc>2.463428</hAcc><vAcc>0.425488</vAcc></extensions></trkpt>
      <trkpt lon="-3.047163" lat="52.707192"><ele>366.714050</ele><time>2022-01-15T10:06:46Z</time><extensions><speed>0.925068</speed><course>318.893311</course><hAcc>2.397429</hAcc><vAcc>0.426860</vAcc></extensions></trkpt>
      <trkpt lon="-3.047172" lat="52.707197"><ele>366.849274</ele><time>2022-01-15T10:06:47Z</time><extensions><speed>0.791250</speed><course>314.501099</course><hAcc>2.338216</hAcc><vAcc>0.428146</vAcc></extensions></trkpt>
      <trkpt lon="-3.047180" lat="52.707202"><ele>366.971802</ele><time>2022-01-15T10:06:48Z</time><extensions><speed>0.648550</speed><course>307.960114</course><hAcc>2.291704</hAcc><vAcc>0.428969</vAcc></extensions></trkpt>
      <trkpt lon="-3.047187" lat="52.707205"><ele>367.086121</ele><time>2022-01-15T10:06:49Z</time><extensions><speed>0.506924</speed><course>300.531708</course><hAcc>2.261149</hAcc><vAcc>0.429320</vAcc></extensions></trkpt>
      <trkpt lon="-3.047193" lat="52.707206"><ele>367.195099</ele><time>2022-01-15T10:06:50Z</time><extensions><speed>0.356835</speed><course>290.956818</course><hAcc>2.250443</hAcc><vAcc>0.429513</vAcc></extensions></trkpt>
      <trkpt lon="-3.047197" lat="52.707207"><ele>367.296295</ele><time>2022-01-15T10:06:51Z</time><extensions><speed>0.197364</speed><course>267.368683</course><hAcc>2.253716</hAcc><vAcc>0.430221</vAcc></extensions></trkpt>
      <trkpt lon="-3.047200" lat="52.707207"><ele>367.390656</ele><time>2022-01-15T10:06:52Z</time><extensions><speed>0.181608</speed><course>243.400772</course><hAcc>2.231483</hAcc><vAcc>0.432263</vAcc></extensions></trkpt>
      <trkpt lon="-3.047202" lat="52.707206"><ele>367.479584</ele><time>2022-01-15T10:06:53Z</time><extensions><speed>0.178801</speed><course>236.967438</course><hAcc>2.220159</hAcc><vAcc>0.436272</vAcc></extensions></trkpt>
      <trkpt lon="-3.047205" lat="52.707205"><ele>367.562500</ele><time>2022-01-15T10:06:54Z</time><extensions><speed>0.167258</speed><course>244.669876</course><hAcc>2.222978</hAcc><vAcc>0.442462</vAcc></extensions></trkpt>
      <trkpt lon="-3.047207" lat="52.707205"><ele>367.638428</ele><time>2022-01-15T10:06:55Z</time><extensions><speed>0.171786</speed><course>260.103302</course><hAcc>2.219240</hAcc><vAcc>0.450520</vAcc></extensions></trkpt>
      <trkpt lon="-3.047210" lat="52.707205"><ele>367.706696</ele><time>2022-01-15T10:06:56Z</time><extensions><speed>0.196899</speed><course>278.348999</course><hAcc>2.211991</hAcc><vAcc>0.459647</vAcc></extensions></trkpt>
      <trkpt lon="-3.047213" lat="52.707205"><ele>367.770203</ele><time>2022-01-15T10:06:57Z</time><extensions><speed>0.240786</speed><course>297.239807</course><hAcc>2.213473</hAcc><vAcc>0.468850</vAcc></extensions></trkpt>
      <trkpt lon="-3.047216" lat="52.707207"><ele>367.830322</ele><time>2022-01-15T10:06:58Z</time><extensions><speed>0.327044</speed><course>312.255737</course><hAcc>2.209708</hAcc><vAcc>0.477424</vAcc></extensions></trkpt>
      <trkpt lon="-3.047220" lat="52.707209"><ele>367.887970</ele><time>2022-01-15T10:06:59Z</time><extensions><speed>0.477873</speed><course>320.346130</course><hAcc>2.189966</hAcc><vAcc>0.485153</vAcc></extensions></trkpt>
      <trkpt lon="-3.047225" lat="52.707213"><ele>367.946075</ele><time>2022-01-15T10:07:00Z</time><extensions><speed>0.450087</speed><course>319.485474</course><hAcc>2.189062</hAcc><vAcc>0.492206</vAcc></extensions></trkpt>
      <trkpt lon="-3.047229" lat="52.707215"><ele>368.004944</ele><time>2022-01-15T10:07:01Z</time><extensions><speed>0.336794</speed><course>310.992462</course><hAcc>2.199116</hAcc><vAcc>0.498938</vAcc></extensions></trkpt>
      <trkpt lon="-3.047233" lat="52.707217"><ele>368.066437</ele><time>2022-01-15T10:07:02Z</time><extensions><speed>0.294276</speed><course>297.880127</course><hAcc>2.194779</hAcc><vAcc>0.505731</vAcc></extensions></trkpt>
      <trkpt lon="-3.047237" lat="52.707218"><ele>368.133057</ele><time>2022-01-15T10:07:03Z</time><extensions><speed>0.299820</speed><course>284.709839</course><hAcc>2.178669</hAcc><vAcc>0.512851</vAcc></extensions></trkpt>
      <trkpt lon="-3.047242" lat="52.707218"><ele>368.206604</ele><time>2022-01-15T10:07:04Z</time><extensions><speed>0.328274</speed><course>276.288116</course><hAcc>2.157597</hAcc><vAcc>0.520377</vAcc></extensions></trkpt>
      <trkpt lon="-3.047247" lat="52.707218"><ele>368.296265</ele><time>2022-01-15T10:07:05Z</time><extensions><speed>0.368936</speed><course>273.117004</course><hAcc>2.132237</hAcc><vAcc>0.528253</vAcc></extensions></trkpt>
      <trkpt lon="-3.047253" lat="52.707219"><ele>368.387634</ele><time>2022-01-15T10:07:06Z</time><extensions><speed>0.403653</speed><course>273.174835</course><hAcc>2.106454</hAcc><vAcc>0.536395</vAcc></extensions></trkpt>
      <trkpt lon="-3.047259" lat="52.707219"><ele>368.485962</ele><time>2022-01-15T10:07:07Z</time><extensions><speed>0.434305</speed><course>274.473175</course><hAcc>2.080355</hAcc><vAcc>0.544697</vAcc></extensions></trkpt>
      <trkpt lon="-3.047266" lat="52.707219"><ele>368.587158</ele><time>2022-01-15T10:07:08Z</time><extensions><speed>0.471480</speed><course>277.336395</course><hAcc>2.054466</hAcc><vAcc>0.553026</vAcc></extensions></trkpt>
      <trkpt lon="-3.047273" lat="52.707220"><ele>368.692841</ele><time>2022-01-15T10:07:09Z</time><extensions><speed>0.500893</speed><course>282.779205</course><hAcc>2.037297</hAcc><vAcc>0.561244</vAcc></extensions></trkpt>
      <trkpt lon="-3.047280" lat="52.707222"><ele>368.789337</ele><time>2022-01-15T10:07:10Z</time><extensions><speed>0.550369</speed><course>290.870422</course><hAcc>2.038326</hAcc><vAcc>0.569176</vAcc></extensions></trkpt>
      <trkpt lon="-3.047287" lat="52.707223"><ele>368.884674</ele><time>2022-01-15T10:07:11Z</time><extensions><speed>0.492883</speed><course>294.065826</course><hAcc>2.053766</hAcc><vAcc>0.576661</vAcc></extensions></trkpt>
      <trkpt lon="-3.047295" lat="52.707226"><ele>368.977783</ele><time>2022-01-15T10:07:12Z</time><extensions><speed>0.705849</speed><course>300.169067</course><hAcc>2.027931</hAcc><vAcc>0.583577</vAcc></extensions></trkpt>
      <trkpt lon="-3.047305" lat="52.707229"><ele>369.067902</ele><time>2022-01-15T10:07:13Z</time><extensions><speed>0.853263</speed><course>302.866455</course><hAcc>2.017711</hAcc><vAcc>0.589909</vAcc></extensions></trkpt>
      <trkpt lon="-3.047316" lat="52.707234"><ele>369.150940</ele><time>2022-01-15T10:07:14Z</time><extensions><speed>0.935622</speed><course>303.531433</course><hAcc>2.027792</hAcc><vAcc>0.595699</vAcc></extensions></trkpt>
      <trkpt lon="-3.047328" lat="52.707238"><ele>369.227997</ele><time>2022-01-15T10:07:15Z</time><extensions><speed>0.902648</speed><course>300.535583</course><hAcc>2.032050</hAcc><vAcc>0.601062</vAcc></extensions></trkpt>
      <trkpt lon="-3.047340" lat="52.707242"><ele>369.293671</ele><time>2022-01-15T10:07:16Z</time><extensions><speed>0.839872</speed><course>294.303894</course><hAcc>2.014400</hAcc><vAcc>0.606035</vAcc></extensions></trkpt>
      <trkpt lon="-3.047351" lat="52.707244"><ele>369.361694</ele><time>2022-01-15T10:07:17Z</time><extensions><speed>0.792242</speed><course>287.211151</course><hAcc>1.985022</hAcc><vAcc>0.610496</vAcc></extensions></trkpt>
      <trkpt lon="-3.047363" lat="52.707246"><ele>369.427002</ele><time>2022-01-15T10:07:18Z</time><extensions><speed>0.750809</speed><course>280.432892</course><hAcc>1.943264</hAcc><vAcc>0.614247</vAcc></extensions></trkpt>
      <trkpt lon="-3.047374" lat="52.707247"><ele>369.497925</ele><time>2022-01-15T10:07:19Z</time><extensions><speed>0.700595</speed><course>273.801636</course><hAcc>1.899619</hAcc><vAcc>0.617110</vAcc></extensions></trkpt>
      <trkpt lon="-3.047384" lat="52.707247"><ele>369.574219</ele><time>2022-01-15T10:07:20Z</time><extensions><speed>0.566996</speed><course>267.844604</course><hAcc>1.888482</hAcc><vAcc>0.618939</vAcc></extensions></trkpt>
      <trkpt lon="-3.047390" lat="52.707246"><ele>369.644958</ele><time>2022-01-15T10:07:21Z</time><extensions><speed>0.306596</speed><course>260.604584</course><hAcc>1.914786</hAcc><vAcc>0.619674</vAcc></extensions></trkpt>
      <trkpt lon="-3.047395" lat="52.707246"><ele>369.724762</ele><time>2022-01-15T10:07:22Z</time><extensions><speed>0.342062</speed><course>255.936752</course><hAcc>1.880240</hAcc><vAcc>0.619286</vAcc></extensions></trkpt>
      <trkpt lon="-3.047401" lat="52.707245"><ele>369.812164</ele><time>2022-01-15T10:07:23Z</time><extensions><speed>0.387743</speed><course>254.190796</course><hAcc>1.849604</hAcc><vAcc>0.617762</vAcc></extensions></trkpt>
      <trkpt lon="-3.047407" lat="52.707244"><ele>369.902985</ele><time>2022-01-15T10:07:24Z</time><extensions><speed>0.440861</speed><course>253.298370</course><hAcc>1.839210</hAcc><vAcc>0.615120</vAcc></extensions></trkpt>
      <trkpt lon="-3.047414" lat="52.707242"><ele>370.001617</ele><time>2022-01-15T10:07:25Z</time><extensions><speed>0.474616</speed><course>252.987091</course><hAcc>1.846486</hAcc><vAcc>0.611429</vAcc></extensions></trkpt>
      <trkpt lon="-3.047421" lat="52.707241"><ele>370.107819</ele><time>2022-01-15T10:07:26Z</time><extensions><speed>0.501567</speed><course>252.697571</course><hAcc>1.855902</hAcc><vAcc>0.606807</vAcc></extensions></trkpt>
      <trkpt lon="-3.047429" lat="52.707239"><ele>370.219971</ele><time>2022-01-15T10:07:27Z</time><extensions><speed>0.556706</speed><course>251.485443</course><hAcc>1.856929</hAcc><vAcc>0.601423</vAcc></extensions></trkpt>
      <trkpt lon="-3.047437" lat="52.707237"><ele>370.338501</ele><time>2022-01-15T10:07:28Z</time><extensions><speed>0.545959</speed><course>249.740250</course><hAcc>1.867765</hAcc><vAcc>0.595485</vAcc></extensions></trkpt>
      <trkpt lon="-3.047446" lat="52.707235"><ele>370.462799</ele><time>2022-01-15T10:07:29Z</time><extensions><speed>0.555186</speed><course>247.932693</course><hAcc>1.873894</hAcc><vAcc>0.589174</vAcc></extensions></trkpt>
      <trkpt lon="-3.047453" lat="52.707233"><ele>370.592224</ele><time>2022-01-15T10:07:30Z</time><extensions><speed>0.542226</speed><course>246.409973</course><hAcc>1.884522</hAcc><vAcc>0.582590</vAcc></extensions></trkpt>
      <trkpt lon="-3.047461" lat="52.707231"><ele>370.727844</ele><time>2022-01-15T10:07:31Z</time><extensions><speed>0.501608</speed><course>245.279495</course><hAcc>1.901893</hAcc><vAcc>0.575832</vAcc></extensions></trkpt>
      <trkpt lon="-3.047468" lat="52.707229"><ele>370.869202</ele><time>2022-01-15T10:07:32Z</time><extensions><speed>0.515926</speed><course>244.772125</course><hAcc>1.912829</hAcc><vAcc>0.569003</vAcc></extensions></trkpt>
      <trkpt lon="-3.047475" lat="52.707227"><ele>371.014313</ele><time>2022-01-15T10:07:33Z</time><extensions><speed>0.515560</speed><course>245.127518</course><hAcc>1.931718</hAcc><vAcc>0.562257</vAcc></extensions></trkpt>
      <trkpt lon="-3.047483" lat="52.707226"><ele>371.160248</ele><time>2022-01-15T10:07:34Z</time><extensions><speed>0.554473</speed><course>245.556076</course><hAcc>1.945129</hAcc><vAcc>0.555738</vAcc></extensions></trkpt>
      <trkpt lon="-3.047491" lat="52.707224"><ele>371.308228</ele><time>2022-01-15T10:07:35Z</time><extensions><speed>0.582859</speed><course>246.034653</course><hAcc>1.957203</hAcc><vAcc>0.549501</vAcc></extensions></trkpt>
      <trkpt lon="-3.047500" lat="52.707222"><ele>371.454132</ele><time>2022-01-15T10:07:36Z</time><extensions><speed>0.574472</speed><course>246.875534</course><hAcc>1.973387</hAcc><vAcc>0.543481</vAcc></extensions></trkpt>
      <trkpt lon="-3.047508" lat="52.707220"><ele>371.603363</ele><time>2022-01-15T10:07:37Z</time><extensions><speed>0.552224</speed><course>249.633499</course><hAcc>1.987981</hAcc><vAcc>0.537532</vAcc></extensions></trkpt>
      <trkpt lon="-3.047516" lat="52.707218"><ele>371.740570</ele><time>2022-01-15T10:07:38Z</time><extensions><speed>0.535843</speed><course>254.826767</course><hAcc>1.999973</hAcc><vAcc>0.531507</vAcc></extensions></trkpt>
      <trkpt lon="-3.047524" lat="52.707217"><ele>371.857788</ele><time>2022-01-15T10:07:39Z</time><extensions><speed>0.486976</speed><course>261.547028</course><hAcc>2.020121</hAcc><vAcc>0.525356</vAcc></extensions></trkpt>
      <trkpt lon="-3.047532" lat="52.707217"><ele>371.971832</ele><time>2022-01-15T10:07:40Z</time><extensions><speed>0.472348</speed><course>268.806335</course><hAcc>2.041960</hAcc><vAcc>0.519169</vAcc></extensions></trkpt>
      <trkpt lon="-3.047539" lat="52.707217"><ele>372.081757</ele><time>2022-01-15T10:07:41Z</time><extensions><speed>0.462361</speed><course>274.473877</course><hAcc>2.073378</hAcc><vAcc>0.513071</vAcc></extensions></trkpt>
      <trkpt lon="-3.047546" lat="52.707218"><ele>372.191223</ele><time>2022-01-15T10:07:42Z</time><extensions><speed>0.482035</speed><course>277.943054</course><hAcc>2.104125</hAcc><vAcc>0.507275</vAcc></extensions></trkpt>
      <trkpt lon="-3.047554" lat="52.707218"><ele>372.307220</ele><time>2022-01-15T10:07:43Z</time><extensions><speed>0.535105</speed><course>279.161621</course><hAcc>2.131070</hAcc><vAcc>0.501987</vAcc></extensions></trkpt>
      <trkpt lon="-3.047563" lat="52.707219"><ele>372.423706</ele><time>2022-01-15T10:07:44Z</time><extensions><speed>0.566893</speed><course>277.966278</course><hAcc>2.161338</hAcc><vAcc>0.497337</vAcc></extensions></trkpt>
      <trkpt lon="-3.047572" lat="52.707219"><ele>372.545105</ele><time>2022-01-15T10:07:45Z</time><extensions><speed>0.630236</speed><course>273.961578</course><hAcc>2.176342</hAcc><vAcc>0.493292</vAcc></extensions></trkpt>
      <trkpt lon="-3.047583" lat="52.707219"><ele>372.674011</ele><time>2022-01-15T10:07:46Z</time><extensions><speed>0.792534</speed><course>269.039429</course><hAcc>2.166861</hAcc><vAcc>0.489577</vAcc></extensions></trkpt>
      <trkpt lon="-3.047596" lat="52.707219"><ele>372.820282</ele><time>2022-01-15T10:07:47Z</time><extensions><speed>0.885785</speed><course>264.741669</course><hAcc>2.181069</hAcc><vAcc>0.485632</vAcc></extensions></trkpt>
      <trkpt lon="-3.047608" lat="52.707218"><ele>372.955078</ele><time>2022-01-15T10:07:48Z</time><extensions><speed>0.730748</speed><course>261.161377</course><hAcc>2.231257</hAcc><vAcc>0.480849</vAcc></extensions></trkpt>
      <trkpt lon="-3.047619" lat="52.707216"><ele>373.145111</ele><time>2022-01-15T10:07:49Z</time><extensions><speed>0.722587</speed><course>256.249756</course><hAcc>2.256464</hAcc><vAcc>0.474798</vAcc></extensions></trkpt>
      <trkpt lon="-3.047630" lat="52.707214"><ele>373.342072</ele><time>2022-01-15T10:07:50Z</time><extensions><speed>0.793560</speed><course>251.869461</course><hAcc>2.262972</hAcc><vAcc>0.467294</vAcc></extensions></trkpt>
      <trkpt lon="-3.047642" lat="52.707211"><ele>373.558502</ele><time>2022-01-15T10:07:51Z</time><extensions><speed>0.865514</speed><course>248.242264</course><hAcc>2.274615</hAcc><vAcc>0.458628</vAcc></extensions></trkpt>
      <trkpt lon="-3.047653" lat="52.707208"><ele>373.777649</ele><time>2022-01-15T10:07:52Z</time><extensions><speed>0.864704</speed><course>245.272217</course><hAcc>2.301176</hAcc><vAcc>0.449235</vAcc></extensions></trkpt>
      <trkpt lon="-3.047665" lat="52.707205"><ele>374.013489</ele><time>2022-01-15T10:07:53Z</time><extensions><speed>0.860912</speed><course>242.208572</course><hAcc>2.322522</hAcc><vAcc>0.439787</vAcc></extensions></trkpt>
      <trkpt lon="-3.047676" lat="52.707201"><ele>374.254913</ele><time>2022-01-15T10:07:54Z</time><extensions><speed>0.852208</speed><course>238.806534</course><hAcc>2.333008</hAcc><vAcc>0.430847</vAcc></extensions></trkpt>
      <trkpt lon="-3.047687" lat="52.707196"><ele>374.508179</ele><time>2022-01-15T10:07:55Z</time><extensions><speed>0.827012</speed><course>235.379669</course><hAcc>2.334712</hAcc><vAcc>0.422919</vAcc></extensions></trkpt>
      <trkpt lon="-3.047696" lat="52.707192"><ele>374.759583</ele><time>2022-01-15T10:07:56Z</time><extensions><speed>0.789271</speed><course>232.083191</course><hAcc>2.331581</hAcc><vAcc>0.416625</vAcc></extensions></trkpt>
      <trkpt lon="-3.047705" lat="52.707187"><ele>374.992340</ele><time>2022-01-15T10:07:57Z</time><extensions><speed>0.685356</speed><course>228.130920</course><hAcc>2.338035</hAcc><vAcc>0.412330</vAcc></extensions></trkpt>
      <trkpt lon="-3.047712" lat="52.707183"><ele>375.221802</ele><time>2022-01-15T10:07:58Z</time><extensions><speed>0.580835</speed><course>222.133240</course><hAcc>2.341372</hAcc><vAcc>0.410357</vAcc></extensions></trkpt>
      <trkpt lon="-3.047717" lat="52.707179"><ele>375.449280</ele><time>2022-01-15T10:07:59Z</time><extensions><speed>0.554335</speed><course>214.403610</course><hAcc>2.330786</hAcc><vAcc>0.410920</vAcc></extensions></trkpt>
      <trkpt lon="-3.047721" lat="52.707175"><ele>375.684601</ele><time>2022-01-15T10:08:00Z</time><extensions><speed>0.503470</speed><course>207.188126</course><hAcc>2.333349</hAcc><vAcc>0.414136</vAcc></extensions></trkpt>
      <trkpt lon="-3.047724" lat="52.707171"><ele>375.932587</ele><time>2022-01-15T10:08:01Z</time><extensions><speed>0.495976</speed><course>202.245941</course><hAcc>2.337574</hAcc><vAcc>0.419777</vAcc></extensions></trkpt>
      <trkpt lon="-3.047727" lat="52.707166"><ele>376.184875</ele><time>2022-01-15T10:08:02Z</time><extensions><speed>0.532450</speed><course>200.248322</course><hAcc>2.340343</hAcc><vAcc>0.427165</vAcc></extensions></trkpt>
      <trkpt lon="-3.047729" lat="52.707161"><ele>376.434235</ele><time>2022-01-15T10:08:03Z</time><extensions><speed>0.583272</speed><course>200.646210</course><hAcc>2.345050</hAcc><vAcc>0.435240</vAcc></extensions></trkpt>
      <trkpt lon="-3.047733" lat="52.707156"><ele>376.677277</ele><time>2022-01-15T10:08:04Z</time><extensions><speed>0.693240</speed><course>202.456284</course><hAcc>2.336152</hAcc><vAcc>0.442906</vAcc></extensions></trkpt>
      <trkpt lon="-3.047737" lat="52.707149"><ele>376.921265</ele><time>2022-01-15T10:08:05Z</time><extensions><speed>0.894202</speed><course>205.081421</course><hAcc>2.315762</hAcc><vAcc>0.449364</vAcc></extensions></trkpt>
      <trkpt lon="-3.047743" lat="52.707141"><ele>377.163086</ele><time>2022-01-15T10:08:06Z</time><extensions><speed>0.953895</speed><course>203.973663</course><hAcc>2.320280</hAcc><vAcc>0.454185</vAcc></extensions></trkpt>
      <trkpt lon="-3.047748" lat="52.707134"><ele>377.396210</ele><time>2022-01-15T10:08:07Z</time><extensions><speed>0.906885</speed><course>200.410355</course><hAcc>2.340590</hAcc><vAcc>0.457221</vAcc></extensions></trkpt>
      <trkpt lon="-3.047752" lat="52.707126"><ele>377.614929</ele><time>2022-01-15T10:08:08Z</time><extensions><speed>0.788418</speed><course>197.063065</course><hAcc>2.363870</hAcc><vAcc>0.458372</vAcc></extensions></trkpt>
      <trkpt lon="-3.047755" lat="52.707120"><ele>377.810608</ele><time>2022-01-15T10:08:09Z</time><extensions><speed>0.629762</speed><course>189.603256</course><hAcc>2.372244</hAcc><vAcc>0.457573</vAcc></extensions></trkpt>
      <trkpt lon="-3.047756" lat="52.707114"><ele>377.974762</ele><time>2022-01-15T10:08:10Z</time><extensions><speed>0.657563</speed><course>186.736786</course><hAcc>2.366210</hAcc><vAcc>0.454887</vAcc></extensions></trkpt>
      <trkpt lon="-3.047757" lat="52.707109"><ele>378.111115</ele><time>2022-01-15T10:08:11Z</time><extensions><speed>0.590280</speed><course>182.320251</course><hAcc>2.368875</hAcc><vAcc>0.450451</vAcc></extensions></trkpt>
      <trkpt lon="-3.047757" lat="52.707104"><ele>378.227692</ele><time>2022-01-15T10:08:12Z</time><extensions><speed>0.418015</speed><course>175.741470</course><hAcc>2.398156</hAcc><vAcc>0.444671</vAcc></extensions></trkpt>
      <trkpt lon="-3.047757" lat="52.707100"><ele>378.313141</ele><time>2022-01-15T10:08:13Z</time><extensions><speed>0.379835</speed><course>171.656494</course><hAcc>2.410276</hAcc><vAcc>0.437947</vAcc></extensions></trkpt>
      <trkpt lon="-3.047756" lat="52.707097"><ele>378.389648</ele><time>2022-01-15T10:08:14Z</time><extensions><speed>0.346958</speed><course>173.466125</course><hAcc>2.431695</hAcc><vAcc>0.430894</vAcc></extensions></trkpt>
      <trkpt lon="-3.047757" lat="52.707094"><ele>378.460358</ele><time>2022-01-15T10:08:15Z</time><extensions><speed>0.326226</speed><course>181.392227</course><hAcc>2.467699</hAcc><vAcc>0.424112</vAcc></extensions></trkpt>
      <trkpt lon="-3.047758" lat="52.707091"><ele>378.520508</ele><time>2022-01-15T10:08:16Z</time><extensions><speed>0.325858</speed><course>192.032730</course><hAcc>2.511251</hAcc><vAcc>0.418039</vAcc></extensions></trkpt>
      <trkpt lon="-3.047759" lat="52.707088"><ele>378.577759</ele><time>2022-01-15T10:08:17Z</time><extensions><speed>0.343773</speed><course>202.456223</course><hAcc>2.557597</hAcc><vAcc>0.412902</vAcc></extensions></trkpt>
      <trkpt lon="-3.047762" lat="52.707085"><ele>378.640198</ele><time>2022-01-15T10:08:18Z</time><extensions><speed>0.376320</speed><course>212.814514</course><hAcc>2.607584</hAcc><vAcc>0.408596</vAcc></extensions></trkpt>
      <trkpt lon="-3.047766" lat="52.707082"><ele>378.713501</ele><time>2022-01-15T10:08:19Z</time><extensions><speed>0.418403</speed><course>222.802582</course><hAcc>2.658600</hAcc><vAcc>0.404948</vAcc></extensions></trkpt>
      <trkpt lon="-3.047771" lat="52.707079"><ele>378.797119</ele><time>2022-01-15T10:08:20Z</time><extensions><speed>0.469752</speed><course>231.321747</course><hAcc>2.706657</hAcc><vAcc>0.401905</vAcc></extensions></trkpt>
      <trkpt lon="-3.047777" lat="52.707076"><ele>378.876404</ele><time>2022-01-15T10:08:21Z</time><extensions><speed>0.525247</speed><course>236.580063</course><hAcc>2.747338</hAcc><vAcc>0.399428</vAcc></extensions></trkpt>
      <trkpt lon="-3.047784" lat="52.707073"><ele>378.980713</ele><time>2022-01-15T10:08:22Z</time><extensions><speed>0.591167</speed><course>238.890961</course><hAcc>2.774742</hAcc><vAcc>0.397364</vAcc></extensions></trkpt>
      <trkpt lon="-3.047792" lat="52.707070"><ele>379.101166</ele><time>2022-01-15T10:08:23Z</time><extensions><speed>0.624987</speed><course>239.303253</course><hAcc>2.797064</hAcc><vAcc>0.395623</vAcc></extensions></trkpt>
      <trkpt lon="-3.047801" lat="52.707067"><ele>379.229828</ele><time>2022-01-15T10:08:24Z</time><extensions><speed>0.628461</speed><course>237.546738</course><hAcc>2.811352</hAcc><vAcc>0.394168</vAcc></extensions></trkpt>
      <trkpt lon="-3.047808" lat="52.707064"><ele>379.373566</ele><time>2022-01-15T10:08:25Z</time><extensions><speed>0.603688</speed><course>233.925262</course><hAcc>2.818221</hAcc><vAcc>0.393003</vAcc></extensions></trkpt>
      <trkpt lon="-3.047815" lat="52.707060"><ele>379.525085</ele><time>2022-01-15T10:08:26Z</time><extensions><speed>0.563446</speed><course>229.667282</course><hAcc>2.819298</hAcc><vAcc>0.392081</vAcc></extensions></trkpt>
      <trkpt lon="-3.047822" lat="52.707057"><ele>379.683563</ele><time>2022-01-15T10:08:27Z</time><extensions><speed>0.531746</speed><course>225.669891</course><hAcc>2.813565</hAcc><vAcc>0.391244</vAcc></extensions></trkpt>
      <trkpt lon="-3.047827" lat="52.707053"><ele>379.846100</ele><time>2022-01-15T10:08:28Z</time><extensions><speed>0.516969</speed><course>221.910080</course><hAcc>2.801158</hAcc><vAcc>0.390337</vAcc></extensions></trkpt>
      <trkpt lon="-3.047833" lat="52.707049"><ele>380.011108</ele><time>2022-01-15T10:08:29Z</time><extensions><speed>0.522144</speed><course>218.675827</course><hAcc>2.781523</hAcc><vAcc>0.389235</vAcc></extensions></trkpt>
      <trkpt lon="-3.047838" lat="52.707045"><ele>380.175354</ele><time>2022-01-15T10:08:30Z</time><extensions><speed>0.547031</speed><course>215.502777</course><hAcc>2.754864</hAcc><vAcc>0.387818</vAcc></extensions></trkpt>
      <trkpt lon="-3.047843" lat="52.707040"><ele>380.339935</ele><time>2022-01-15T10:08:31Z</time><extensions><speed>0.603798</speed><course>212.592407</course><hAcc>2.732754</hAcc><vAcc>0.386348</vAcc></extensions></trkpt>
      <trkpt lon="-3.047848" lat="52.707035"><ele>380.510254</ele><time>2022-01-15T10:08:32Z</time><extensions><speed>0.498329</speed><course>213.083069</course><hAcc>2.736884</hAcc><vAcc>0.385113</vAcc></extensions></trkpt>
      <trkpt lon="-3.047853" lat="52.707031"><ele>380.682220</ele><time>2022-01-15T10:08:33Z</time><extensions><speed>0.515143</speed><course>214.333099</course><hAcc>2.724319</hAcc><vAcc>0.384487</vAcc></extensions></trkpt>
      <trkpt lon="-3.047858" lat="52.707027"><ele>380.839569</ele><time>2022-01-15T10:08:34Z</time><extensions><speed>0.557412</speed><course>215.514404</course><hAcc>2.715100</hAcc><vAcc>0.384740</vAcc></extensions></trkpt>
      <trkpt lon="-3.047864" lat="52.707022"><ele>381.037750</ele><time>2022-01-15T10:08:35Z</time><extensions><speed>0.630188</speed><course>216.562790</course><hAcc>2.720417</hAcc><vAcc>0.386011</vAcc></extensions></trkpt>
      <trkpt lon="-3.047871" lat="52.707017"><ele>381.237823</ele><time>2022-01-15T10:08:36Z</time><extensions><speed>0.719991</speed><course>217.400589</course><hAcc>2.739868</hAcc><vAcc>0.388278</vAcc></extensions></trkpt>
      <trkpt lon="-3.047879" lat="52.707011"><ele>381.465698</ele><time>2022-01-15T10:08:37Z</time><extensions><speed>0.806122</speed><course>217.807892</course><hAcc>2.767903</hAcc><vAcc>0.391433</vAcc></extensions></trkpt>
      <trkpt lon="-3.047887" lat="52.707005"><ele>381.682373</ele><time>2022-01-15T10:08:38Z</time><extensions><speed>0.882127</speed><course>218.015244</course><hAcc>2.793999</hAcc><vAcc>0.395143</vAcc></extensions></trkpt>
      <trkpt lon="-3.047896" lat="52.706998"><ele>381.924683</ele><time>2022-01-15T10:08:39Z</time><extensions><speed>0.944061</speed><course>218.352722</course><hAcc>2.809857</hAcc><vAcc>0.398806</vAcc></extensions></trkpt>
      <trkpt lon="-3.047905" lat="52.706991"><ele>382.186523</ele><time>2022-01-15T10:08:40Z</time><extensions><speed>1.015292</speed><course>218.806976</course><hAcc>2.808104</hAcc><vAcc>0.401695</vAcc></extensions></trkpt>
      <trkpt lon="-3.047916" lat="52.706983"><ele>382.464417</ele><time>2022-01-15T10:08:41Z</time><extensions><speed>1.130065</speed><course>219.299576</course><hAcc>2.794465</hAcc><vAcc>0.403334</vAcc></extensions></trkpt>
      <trkpt lon="-3.047927" lat="52.706976"><ele>382.759460</ele><time>2022-01-15T10:08:42Z</time><extensions><speed>1.021030</speed><course>223.187164</course><hAcc>2.797620</hAcc><vAcc>0.403625</vAcc></extensions></trkpt>
      <trkpt lon="-3.047937" lat="52.706970"><ele>383.044769</ele><time>2022-01-15T10:08:43Z</time><extensions><speed>0.989528</speed><course>227.026840</course><hAcc>2.803110</hAcc><vAcc>0.402738</vAcc></extensions></trkpt>
      <trkpt lon="-3.047949" lat="52.706964"><ele>383.392670</ele><time>2022-01-15T10:08:44Z</time><extensions><speed>0.939442</speed><course>231.111496</course><hAcc>2.809426</hAcc><vAcc>0.401066</vAcc></extensions></trkpt>
      <trkpt lon="-3.047961" lat="52.706959"><ele>383.714050</ele><time>2022-01-15T10:08:45Z</time><extensions><speed>1.064638</speed><course>235.355286</course><hAcc>2.786052</hAcc><vAcc>0.398972</vAcc></extensions></trkpt>
      <trkpt lon="-3.047977" lat="52.706953"><ele>384.037018</ele><time>2022-01-15T10:08:46Z</time><extensions><speed>1.278953</speed><course>238.991562</course><hAcc>2.750250</hAcc><vAcc>0.396813</vAcc></extensions></trkpt>
      <trkpt lon="-3.047994" lat="52.706947"><ele>384.361053</ele><time>2022-01-15T10:08:47Z</time><extensions><speed>1.329893</speed><course>242.452744</course><hAcc>2.732283</hAcc><vAcc>0.394634</vAcc></extensions></trkpt>
      <trkpt lon="-3.048013" lat="52.706942"><ele>384.682251</ele><time>2022-01-15T10:08:48Z</time><extensions><speed>1.295391</speed><course>245.776932</course><hAcc>2.719631</hAcc><vAcc>0.392676</vAcc></extensions></trkpt>
      <trkpt lon="-3.048032" lat="52.706938"><ele>384.984192</ele><time>2022-01-15T10:08:49Z</time><extensions><speed>1.275336</speed><course>249.484604</course><hAcc>2.684148</hAcc><vAcc>0.391277</vAcc></extensions></trkpt>
      <trkpt lon="-3.048051" lat="52.706934"><ele>385.275482</ele><time>2022-01-15T10:08:50Z</time><extensions><speed>1.185517</speed><course>253.446259</course><hAcc>2.630658</hAcc><vAcc>0.390405</vAcc></extensions></trkpt>
      <trkpt lon="-3.048067" lat="52.706932"><ele>385.538544</ele><time>2022-01-15T10:08:51Z</time><extensions><speed>0.967009</speed><course>258.713623</course><hAcc>2.568115</hAcc><vAcc>0.389929</vAcc></extensions></trkpt>
      <trkpt lon="-3.048082" lat="52.706930"><ele>385.777985</ele><time>2022-01-15T10:08:52Z</time><extensions><speed>0.835693</speed><course>263.419037</course><hAcc>2.486759</hAcc><vAcc>0.389813</vAcc></extensions></trkpt>
      <trkpt lon="-3.048094" lat="52.706930"><ele>385.989014</ele><time>2022-01-15T10:08:53Z</time><extensions><speed>0.680317</speed><course>266.766815</course><hAcc>2.408740</hAcc><vAcc>0.389936</vAcc></extensions></trkpt>
      <trkpt lon="-3.048104" lat="52.706930"><ele>386.178589</ele><time>2022-01-15T10:08:54Z</time><extensions><speed>0.522785</speed><course>268.831055</course><hAcc>2.349719</hAcc><vAcc>0.390285</vAcc></extensions></trkpt>
      <trkpt lon="-3.048111" lat="52.706930"><ele>386.351440</ele><time>2022-01-15T10:08:55Z</time><extensions><speed>0.319496</speed><course>269.906769</course><hAcc>2.315081</hAcc><vAcc>0.390753</vAcc></extensions></trkpt>
      <trkpt lon="-3.048116" lat="52.706931"><ele>386.513428</ele><time>2022-01-15T10:08:56Z</time><extensions><speed>0.314854</speed><course>270.503082</course><hAcc>2.252819</hAcc><vAcc>0.390878</vAcc></extensions></trkpt>
      <trkpt lon="-3.048121" lat="52.706931"><ele>386.663208</ele><time>2022-01-15T10:08:57Z</time><extensions><speed>0.286516</speed><course>271.288940</course><hAcc>2.200946</hAcc><vAcc>0.390413</vAcc></extensions></trkpt>
      <trkpt lon="-3.048125" lat="52.706931"><ele>386.805481</ele><time>2022-01-15T10:08:58Z</time><extensions><speed>0.257429</speed><course>274.632507</course><hAcc>2.159944</hAcc><vAcc>0.389445</vAcc></extensions></trkpt>
      <trkpt lon="-3.048128" lat="52.706932"><ele>386.940155</ele><time>2022-01-15T10:08:59Z</time><extensions><speed>0.238626</speed><course>280.952087</course><hAcc>2.125291</hAcc><vAcc>0.388414</vAcc></extensions></trkpt>
      <trkpt lon="-3.048131" lat="52.706934"><ele>387.064392</ele><time>2022-01-15T10:09:00Z</time><extensions><speed>0.199923</speed><course>290.814697</course><hAcc>2.108694</hAcc><vAcc>0.387778</vAcc></extensions></trkpt>
      <trkpt lon="-3.048134" lat="52.706935"><ele>387.176361</ele><time>2022-01-15T10:09:01Z</time><extensions><speed>0.176015</speed><course>301.768585</course><hAcc>2.098730</hAcc><vAcc>0.388092</vAcc></extensions></trkpt>
      <trkpt lon="-3.048137" lat="52.706936"><ele>387.271057</ele><time>2022-01-15T10:09:02Z</time><extensions><speed>0.176034</speed><course>312.048859</course><hAcc>2.083380</hAcc><vAcc>0.389970</vAcc></extensions></trkpt>
      <trkpt lon="-3.048139" lat="52.706937"><ele>387.363373</ele><time>2022-01-15T10:09:03Z</time><extensions><speed>0.170900</speed><course>322.618439</course><hAcc>2.072555</hAcc><vAcc>0.393924</vAcc></extensions></trkpt>
      <trkpt lon="-3.048141" lat="52.706938"><ele>387.440002</ele><time>2022-01-15T10:09:04Z</time><extensions><speed>0.144937</speed><course>331.701538</course><hAcc>2.070104</hAcc><vAcc>0.400099</vAcc></extensions></trkpt>
      <trkpt lon="-3.048142" lat="52.706939"><ele>387.508514</ele><time>2022-01-15T10:09:05Z</time><extensions><speed>0.159054</speed><course>336.858246</course><hAcc>2.049626</hAcc><vAcc>0.408335</vAcc></extensions></trkpt>
      <trkpt lon="-3.048144" lat="52.706940"><ele>387.566467</ele><time>2022-01-15T10:09:06Z</time><extensions><speed>0.143257</speed><course>336.328552</course><hAcc>2.041188</hAcc><vAcc>0.418309</vAcc></extensions></trkpt>
      <trkpt lon="-3.048145" lat="52.706941"><ele>387.616516</ele><time>2022-01-15T10:09:07Z</time><extensions><speed>0.159558</speed><course>332.274017</course><hAcc>2.021769</hAcc><vAcc>0.429554</vAcc></extensions></trkpt>
      <trkpt lon="-3.048147" lat="52.706942"><ele>387.662292</ele><time>2022-01-15T10:09:08Z</time><extensions><speed>0.139684</speed><course>325.203308</course><hAcc>2.023276</hAcc><vAcc>0.441379</vAcc></extensions></trkpt>
      <trkpt lon="-3.048149" lat="52.706943"><ele>387.707947</ele><time>2022-01-15T10:09:09Z</time><extensions><speed>0.121361</speed><course>310.258270</course><hAcc>2.031833</hAcc><vAcc>0.452837</vAcc></extensions></trkpt>
      <trkpt lon="-3.048150" lat="52.706943"><ele>387.756042</ele><time>2022-01-15T10:09:10Z</time><extensions><speed>0.122567</speed><course>285.809174</course><hAcc>2.043075</hAcc><vAcc>0.463018</vAcc></extensions></trkpt>
      <trkpt lon="-3.048153" lat="52.706943"><ele>387.808075</ele><time>2022-01-15T10:09:11Z</time><extensions><speed>0.156603</speed><course>262.864838</course><hAcc>2.057806</hAcc><vAcc>0.471441</vAcc></extensions></trkpt>
      <trkpt lon="-3.048155" lat="52.706943"><ele>387.864197</ele><time>2022-01-15T10:09:12Z</time><extensions><speed>0.231678</speed><course>248.337875</course><hAcc>2.067243</hAcc><vAcc>0.478143</vAcc></extensions></trkpt>
      <trkpt lon="-3.048160" lat="52.706941"><ele>387.920593</ele><time>2022-01-15T10:09:13Z</time><extensions><speed>0.379786</speed><course>240.683014</course><hAcc>2.063033</hAcc><vAcc>0.483443</vAcc></extensions></trkpt>
      <trkpt lon="-3.048165" lat="52.706939"><ele>387.980652</ele><time>2022-01-15T10:09:14Z</time><extensions><speed>0.492866</speed><course>236.382538</course><hAcc>2.083185</hAcc><vAcc>0.487460</vAcc></extensions></trkpt>
      <trkpt lon="-3.048171" lat="52.706937"><ele>388.043915</ele><time>2022-01-15T10:09:15Z</time><extensions><speed>0.529176</speed><course>233.365875</course><hAcc>2.129791</hAcc><vAcc>0.489945</vAcc></extensions></trkpt>
      <trkpt lon="-3.048178" lat="52.706934"><ele>388.097778</ele><time>2022-01-15T10:09:16Z</time><extensions><speed>0.552462</speed><course>231.694580</course><hAcc>2.169399</hAcc><vAcc>0.490548</vAcc></extensions></trkpt>
      <trkpt lon="-3.048185" lat="52.706930"><ele>388.153137</ele><time>2022-01-15T10:09:17Z</time><extensions><speed>0.576366</speed><course>231.326691</course><hAcc>2.195121</hAcc><vAcc>0.489105</vAcc></extensions></trkpt>
      <trkpt lon="-3.048191" lat="52.706927"><ele>388.221191</ele><time>2022-01-15T10:09:18Z</time><extensions><speed>0.586221</speed><course>230.904205</course><hAcc>2.220100</hAcc><vAcc>0.485611</vAcc></extensions></trkpt>
      <trkpt lon="-3.048198" lat="52.706924"><ele>388.294403</ele><time>2022-01-15T10:09:19Z</time><extensions><speed>0.567489</speed><course>229.286743</course><hAcc>2.254191</hAcc><vAcc>0.480102</vAcc></extensions></trkpt>
      <trkpt lon="-3.048205" lat="52.706920"><ele>388.360138</ele><time>2022-01-15T10:09:20Z</time><extensions><speed>0.547837</speed><course>227.447311</course><hAcc>2.288324</hAcc><vAcc>0.472779</vAcc></extensions></trkpt>
      <trkpt lon="-3.048211" lat="52.706917"><ele>388.424835</ele><time>2022-01-15T10:09:21Z</time><extensions><speed>0.559674</speed><course>227.084396</course><hAcc>2.316666</hAcc><vAcc>0.464037</vAcc></extensions></trkpt>
      <trkpt lon="-3.048218" lat="52.706914"><ele>388.483368</ele><time>2022-01-15T10:09:22Z</time><extensions><speed>0.547912</speed><course>228.375931</course><hAcc>2.351178</hAcc><vAcc>0.454455</vAcc></extensions></trkpt>
      <trkpt lon="-3.048225" lat="52.706910"><ele>388.551910</ele><time>2022-01-15T10:09:23Z</time><extensions><speed>0.611757</speed><course>230.658142</course><hAcc>2.371942</hAcc><vAcc>0.444825</vAcc></extensions></trkpt>
      <trkpt lon="-3.048232" lat="52.706907"><ele>388.621185</ele><time>2022-01-15T10:09:24Z</time><extensions><speed>0.665639</speed><course>232.567993</course><hAcc>2.398168</hAcc><vAcc>0.435801</vAcc></extensions></trkpt>
      <trkpt lon="-3.048241" lat="52.706903"><ele>388.696228</ele><time>2022-01-15T10:09:25Z</time><extensions><speed>0.757944</speed><course>234.322800</course><hAcc>2.416812</hAcc><vAcc>0.428178</vAcc></extensions></trkpt>
      <trkpt lon="-3.048252" lat="52.706898"><ele>388.764496</ele><time>2022-01-15T10:09:26Z</time><extensions><speed>0.981596</speed><course>235.626465</course><hAcc>2.412303</hAcc><vAcc>0.422576</vAcc></extensions></trkpt>
      <trkpt lon="-3.048265" lat="52.706893"><ele>388.834686</ele><time>2022-01-15T10:09:27Z</time><extensions><speed>1.080568</speed><course>239.505127</course><hAcc>2.419873</hAcc><vAcc>0.419456</vAcc></extensions></trkpt>
      <trkpt lon="-3.048279" lat="52.706889"><ele>388.898041</ele><time>2022-01-15T10:09:28Z</time><extensions><speed>1.093906</speed><course>245.215729</course><hAcc>2.438989</hAcc><vAcc>0.418867</vAcc></extensions></trkpt>
      <trkpt lon="-3.048294" lat="52.706885"><ele>388.948853</ele><time>2022-01-15T10:09:29Z</time><extensions><speed>1.032640</speed><course>251.644638</course><hAcc>2.453733</hAcc><vAcc>0.419964</vAcc></extensions></trkpt>
      <trkpt lon="-3.048308" lat="52.706883"><ele>389.016846</ele><time>2022-01-15T10:09:30Z</time><extensions><speed>0.836770</speed><course>256.902161</course><hAcc>2.463012</hAcc><vAcc>0.421484</vAcc></extensions></trkpt>
      <trkpt lon="-3.048321" lat="52.706881"><ele>389.067352</ele><time>2022-01-15T10:09:31Z</time><extensions><speed>0.907916</speed><course>258.981750</course><hAcc>2.443894</hAcc><vAcc>0.422344</vAcc></extensions></trkpt>
      <trkpt lon="-3.048333" lat="52.706880"><ele>389.145264</ele><time>2022-01-15T10:09:32Z</time><extensions><speed>0.820624</speed><course>260.000916</course><hAcc>2.449252</hAcc><vAcc>0.422032</vAcc></extensions></trkpt>
      <trkpt lon="-3.048344" lat="52.706878"><ele>389.211639</ele><time>2022-01-15T10:09:33Z</time><extensions><speed>0.615222</speed><course>260.468018</course><hAcc>2.474696</hAcc><vAcc>0.420521</vAcc></extensions></trkpt>
      <trkpt lon="-3.048353" lat="52.706877"><ele>389.291870</ele><time>2022-01-15T10:09:34Z</time><extensions><speed>0.562616</speed><course>259.356964</course><hAcc>2.476346</hAcc><vAcc>0.418242</vAcc></extensions></trkpt>
      <trkpt lon="-3.048361" lat="52.706876"><ele>389.363251</ele><time>2022-01-15T10:09:35Z</time><extensions><speed>0.535191</speed><course>256.990875</course><hAcc>2.468218</hAcc><vAcc>0.415870</vAcc></extensions></trkpt>
      <trkpt lon="-3.048368" lat="52.706875"><ele>389.428680</ele><time>2022-01-15T10:09:36Z</time><extensions><speed>0.531975</speed><course>252.792236</course><hAcc>2.452918</hAcc><vAcc>0.413797</vAcc></extensions></trkpt>
      <trkpt lon="-3.048376" lat="52.706873"><ele>389.510986</ele><time>2022-01-15T10:09:37Z</time><extensions><speed>0.535101</speed><course>246.404388</course><hAcc>2.435216</hAcc><vAcc>0.412206</vAcc></extensions></trkpt>
      <trkpt lon="-3.048383" lat="52.706871"><ele>389.577576</ele><time>2022-01-15T10:09:38Z</time><extensions><speed>0.562536</speed><course>238.690750</course><hAcc>2.418936</hAcc><vAcc>0.411168</vAcc></extensions></trkpt>
      <trkpt lon="-3.048391" lat="52.706868"><ele>389.654022</ele><time>2022-01-15T10:09:39Z</time><extensions><speed>0.617395</speed><course>232.207565</course><hAcc>2.416443</hAcc><vAcc>0.410183</vAcc></extensions></trkpt>
      <trkpt lon="-3.048397" lat="52.706864"><ele>389.720032</ele><time>2022-01-15T10:09:40Z</time><extensions><speed>0.554021</speed><course>224.852005</course><hAcc>2.427560</hAcc><vAcc>0.409284</vAcc></extensions></trkpt>
      <trkpt lon="-3.048403" lat="52.706860"><ele>389.770630</ele><time>2022-01-15T10:09:41Z</time><extensions><speed>0.624657</speed><course>220.331696</course><hAcc>2.415269</hAcc><vAcc>0.408654</vAcc></extensions></trkpt>
      <trkpt lon="-3.048410" lat="52.706855"><ele>389.803833</ele><time>2022-01-15T10:09:42Z</time><extensions><speed>0.798517</speed><course>220.115021</course><hAcc>2.389229</hAcc><vAcc>0.408580</vAcc></extensions></trkpt>
      <trkpt lon="-3.048419" lat="52.706849"><ele>389.819855</ele><time>2022-01-15T10:09:43Z</time><extensions><speed>0.844847</speed><course>221.749405</course><hAcc>2.382237</hAcc><vAcc>0.409393</vAcc></extensions></trkpt>
      <trkpt lon="-3.048428" lat="52.706844"><ele>389.819702</ele><time>2022-01-15T10:09:44Z</time><extensions><speed>0.817417</speed><course>225.232635</course><hAcc>2.378874</hAcc><vAcc>0.411364</vAcc></extensions></trkpt>
      <trkpt lon="-3.048438" lat="52.706838"><ele>389.798492</ele><time>2022-01-15T10:09:45Z</time><extensions><speed>0.957646</speed><course>228.662521</course><hAcc>2.341782</hAcc><vAcc>0.414749</vAcc></extensions></trkpt>
      <trkpt lon="-3.048450" lat="52.706832"><ele>389.764862</ele><time>2022-01-15T10:09:46Z</time><extensions><speed>0.999258</speed><course>231.773041</course><hAcc>2.295698</hAcc><vAcc>0.419598</vAcc></extensions></trkpt>
      <trkpt lon="-3.048462" lat="52.706827"><ele>389.708252</ele><time>2022-01-15T10:09:47Z</time><extensions><speed>0.940744</speed><course>235.311813</course><hAcc>2.259311</hAcc><vAcc>0.425543</vAcc></extensions></trkpt>
      <trkpt lon="-3.048474" lat="52.706822"><ele>389.628052</ele><time>2022-01-15T10:09:48Z</time><extensions><speed>0.735590</speed><course>238.901077</course><hAcc>2.261857</hAcc><vAcc>0.431644</vAcc></extensions></trkpt>
      <trkpt lon="-3.048482" lat="52.706819"><ele>389.524506</ele><time>2022-01-15T10:09:49Z</time><extensions><speed>0.435650</speed><course>238.922012</course><hAcc>2.275404</hAcc><vAcc>0.436460</vAcc></extensions></trkpt>
      <trkpt lon="-3.048488" lat="52.706816"><ele>389.401031</ele><time>2022-01-15T10:09:50Z</time><extensions><speed>0.460799</speed><course>238.546234</course><hAcc>2.239764</hAcc><vAcc>0.438963</vAcc></extensions></trkpt>
      <trkpt lon="-3.048496" lat="52.706814"><ele>389.263672</ele><time>2022-01-15T10:09:51Z</time><extensions><speed>0.498999</speed><course>238.348862</course><hAcc>2.208323</hAcc><vAcc>0.439067</vAcc></extensions></trkpt>
      <trkpt lon="-3.048504" lat="52.706811"><ele>389.137665</ele><time>2022-01-15T10:09:52Z</time><extensions><speed>0.570551</speed><course>237.848053</course><hAcc>2.185304</hAcc><vAcc>0.437255</vAcc></extensions></trkpt>
      <trkpt lon="-3.048512" lat="52.706808"><ele>389.011963</ele><time>2022-01-15T10:09:53Z</time><extensions><speed>0.609505</speed><course>237.153992</course><hAcc>2.177635</hAcc><vAcc>0.434431</vAcc></extensions></trkpt>
      <trkpt lon="-3.048521" lat="52.706804"><ele>388.885284</ele><time>2022-01-15T10:09:54Z</time><extensions><speed>0.624245</speed><course>236.409805</course><hAcc>2.185222</hAcc><vAcc>0.431373</vAcc></extensions></trkpt>
      <trkpt lon="-3.048530" lat="52.706801"><ele>388.736359</ele><time>2022-01-15T10:09:55Z</time><extensions><speed>0.604972</speed><course>236.378845</course><hAcc>2.203506</hAcc><vAcc>0.428598</vAcc></extensions></trkpt>
      <trkpt lon="-3.048539" lat="52.706797"><ele>388.648773</ele><time>2022-01-15T10:09:56Z</time><extensions><speed>0.666300</speed><course>237.065094</course><hAcc>2.207923</hAcc><vAcc>0.426336</vAcc></extensions></trkpt>
      <trkpt lon="-3.048549" lat="52.706793"><ele>388.560608</ele><time>2022-01-15T10:09:57Z</time><extensions><speed>0.777936</speed><course>238.254807</course><hAcc>2.205491</hAcc><vAcc>0.424180</vAcc></extensions></trkpt>
      <trkpt lon="-3.048560" lat="52.706789"><ele>388.488068</ele><time>2022-01-15T10:09:58Z</time><extensions><speed>0.846052</speed><course>239.876312</course><hAcc>2.213305</hAcc><vAcc>0.422026</vAcc></extensions></trkpt>
      <trkpt lon="-3.048572" lat="52.706785"><ele>388.422119</ele><time>2022-01-15T10:09:59Z</time><extensions><speed>0.858554</speed><course>241.712082</course><hAcc>2.233224</hAcc><vAcc>0.420007</vAcc></extensions></trkpt>
      <trkpt lon="-3.048584" lat="52.706782"><ele>388.383514</ele><time>2022-01-15T10:10:00Z</time><extensions><speed>0.831505</speed><course>243.375473</course><hAcc>2.256920</hAcc><vAcc>0.418630</vAcc></extensions></trkpt>
      <trkpt lon="-3.048595" lat="52.706778"><ele>388.350281</ele><time>2022-01-15T10:10:01Z</time><extensions><speed>0.838726</speed><course>244.301392</course><hAcc>2.270001</hAcc><vAcc>0.418766</vAcc></extensions></trkpt>
      <trkpt lon="-3.048607" lat="52.706775"><ele>388.330078</ele><time>2022-01-15T10:10:02Z</time><extensions><speed>0.903055</speed><course>244.144730</course><hAcc>2.270511</hAcc><vAcc>0.421416</vAcc></extensions></trkpt>
      <trkpt lon="-3.048619" lat="52.706771"><ele>388.320129</ele><time>2022-01-15T10:10:03Z</time><extensions><speed>0.984118</speed><course>243.011337</course><hAcc>2.267896</hAcc><vAcc>0.427285</vAcc></extensions></trkpt>
      <trkpt lon="-3.048633" lat="52.706767"><ele>388.318573</ele><time>2022-01-15T10:10:04Z</time><extensions><speed>1.069201</speed><course>241.105469</course><hAcc>2.264311</hAcc><vAcc>0.436543</vAcc></extensions></trkpt>
      <trkpt lon="-3.048648" lat="52.706761"><ele>388.324738</ele><time>2022-01-15T10:10:05Z</time><extensions><speed>1.301406</speed><course>239.023224</course><hAcc>2.253488</hAcc><vAcc>0.448724</vAcc></extensions></trkpt>
      <trkpt lon="-3.048664" lat="52.706755"><ele>388.332214</ele><time>2022-01-15T10:10:06Z</time><extensions><speed>1.270139</speed><course>234.885498</course><hAcc>2.258030</hAcc><vAcc>0.462599</vAcc></extensions></trkpt>
      <trkpt lon="-3.048680" lat="52.706748"><ele>388.344849</ele><time>2022-01-15T10:10:07Z</time><extensions><speed>1.370738</speed><course>235.319199</course><hAcc>2.236299</hAcc><vAcc>0.476372</vAcc></extensions></trkpt>
      <trkpt lon="-3.048697" lat="52.706741"><ele>388.363770</ele><time>2022-01-15T10:10:08Z</time><extensions><speed>1.420607</speed><course>235.971497</course><hAcc>2.218091</hAcc><vAcc>0.488384</vAcc></extensions></trkpt>
      <trkpt lon="-3.048715" lat="52.706734"><ele>388.386261</ele><time>2022-01-15T10:10:09Z</time><extensions><speed>1.458138</speed><course>236.335403</course><hAcc>2.218266</hAcc><vAcc>0.497566</vAcc></extensions></trkpt>
      <trkpt lon="-3.048733" lat="52.706727"><ele>388.412811</ele><time>2022-01-15T10:10:10Z</time><extensions><speed>1.475422</speed><course>235.975296</course><hAcc>2.238626</hAcc><vAcc>0.503440</vAcc></extensions></trkpt>
      <trkpt lon="-3.048751" lat="52.706719"><ele>388.445038</ele><time>2022-01-15T10:10:11Z</time><extensions><speed>1.472215</speed><course>235.442276</course><hAcc>2.272440</hAcc><vAcc>0.506011</vAcc></extensions></trkpt>
      <trkpt lon="-3.048769" lat="52.706711"><ele>388.483429</ele><time>2022-01-15T10:10:12Z</time><extensions><speed>1.497538</speed><course>234.770737</course><hAcc>2.304335</hAcc><vAcc>0.505663</vAcc></extensions></trkpt>
      <trkpt lon="-3.048788" lat="52.706703"><ele>388.528259</ele><time>2022-01-15T10:10:13Z</time><extensions><speed>1.524437</speed><course>233.760208</course><hAcc>2.325455</hAcc><vAcc>0.503069</vAcc></extensions></trkpt>
      <trkpt lon="-3.048806" lat="52.706695"><ele>388.581665</ele><time>2022-01-15T10:10:14Z</time><extensions><speed>1.547766</speed><course>232.303024</course><hAcc>2.332803</hAcc><vAcc>0.499026</vAcc></extensions></trkpt>
      <trkpt lon="-3.048824" lat="52.706686"><ele>388.649475</ele><time>2022-01-15T10:10:15Z</time><extensions><speed>1.543813</speed><course>230.494568</course><hAcc>2.346295</hAcc><vAcc>0.494477</vAcc></extensions></trkpt>
      <trkpt lon="-3.048841" lat="52.706677"><ele>388.723999</ele><time>2022-01-15T10:10:16Z</time><extensions><speed>1.535794</speed><course>228.525528</course><hAcc>2.360793</hAcc><vAcc>0.490437</vAcc></extensions></trkpt>
      <trkpt lon="-3.048858" lat="52.706667"><ele>388.798309</ele><time>2022-01-15T10:10:17Z</time><extensions><speed>1.494866</speed><course>225.662766</course><hAcc>2.363165</hAcc><vAcc>0.487892</vAcc></extensions></trkpt>
      <trkpt lon="-3.048873" lat="52.706658"><ele>388.874847</ele><time>2022-01-15T10:10:18Z</time><extensions><speed>1.430819</speed><course>221.940796</course><hAcc>2.359299</hAcc><vAcc>0.487619</vAcc></extensions></trkpt>
      <trkpt lon="-3.048887" lat="52.706648"><ele>388.953918</ele><time>2022-01-15T10:10:19Z</time><extensions><speed>1.373137</speed><course>219.170807</course><hAcc>2.354758</hAcc><vAcc>0.490039</vAcc></extensions></trkpt>
      <trkpt lon="-3.048899" lat="52.706639"><ele>389.030334</ele><time>2022-01-15T10:10:20Z</time><extensions><speed>1.299204</speed><course>218.282761</course><hAcc>2.359189</hAcc><vAcc>0.495131</vAcc></extensions></trkpt>
      <trkpt lon="-3.048911" lat="52.706630"><ele>389.104584</ele><time>2022-01-15T10:10:21Z</time><extensions><speed>1.220653</speed><course>218.171783</course><hAcc>2.347416</hAcc><vAcc>0.502578</vAcc></extensions></trkpt>
      <trkpt lon="-3.048922" lat="52.706621"><ele>389.161224</ele><time>2022-01-15T10:10:22Z</time><extensions><speed>1.230875</speed><course>217.016861</course><hAcc>2.306541</hAcc><vAcc>0.511933</vAcc></extensions></trkpt>
      <trkpt lon="-3.048932" lat="52.706612"><ele>389.209045</ele><time>2022-01-15T10:10:23Z</time><extensions><speed>1.199516</speed><course>215.271759</course><hAcc>2.257051</hAcc><vAcc>0.522575</vAcc></extensions></trkpt>
      <trkpt lon="-3.048942" lat="52.706603"><ele>389.245453</ele><time>2022-01-15T10:10:24Z</time><extensions><speed>1.203895</speed><course>213.243607</course><hAcc>2.194583</hAcc><vAcc>0.533724</vAcc></extensions></trkpt>
      <trkpt lon="-3.048952" lat="52.706594"><ele>389.273468</ele><time>2022-01-15T10:10:25Z</time><extensions><speed>1.205685</speed><course>211.387924</course><hAcc>2.143383</hAcc><vAcc>0.544512</vAcc></extensions></trkpt>
      <trkpt lon="-3.048961" lat="52.706585"><ele>389.293365</ele><time>2022-01-15T10:10:26Z</time><extensions><speed>1.144872</speed><course>209.478210</course><hAcc>2.123719</hAcc><vAcc>0.554116</vAcc></extensions></trkpt>
      <trkpt lon="-3.048969" lat="52.706576"><ele>389.312927</ele><time>2022-01-15T10:10:27Z</time><extensions><speed>1.085128</speed><course>208.040527</course><hAcc>2.105448</hAcc><vAcc>0.561902</vAcc></extensions></trkpt>
      <trkpt lon="-3.048976" lat="52.706568"><ele>389.329590</ele><time>2022-01-15T10:10:28Z</time><extensions><speed>1.049157</speed><course>207.706512</course><hAcc>2.076265</hAcc><vAcc>0.567483</vAcc></extensions></trkpt>
      <trkpt lon="-3.048983" lat="52.706560"><ele>389.346039</ele><time>2022-01-15T10:10:29Z</time><extensions><speed>0.970429</speed><course>208.394958</course><hAcc>2.054397</hAcc><vAcc>0.570703</vAcc></extensions></trkpt>
      <trkpt lon="-3.048990" lat="52.706553"><ele>389.367096</ele><time>2022-01-15T10:10:30Z</time><extensions><speed>0.877488</speed><course>209.066132</course><hAcc>2.070004</hAcc><vAcc>0.571619</vAcc></extensions></trkpt>
      <trkpt lon="-3.048996" lat="52.706546"><ele>389.392181</ele><time>2022-01-15T10:10:31Z</time><extensions><speed>0.789276</speed><course>210.804352</course><hAcc>2.113877</hAcc><vAcc>0.570418</vAcc></extensions></trkpt>
      <trkpt lon="-3.049002" lat="52.706541"><ele>389.420197</ele><time>2022-01-15T10:10:32Z</time><extensions><speed>0.691882</speed><course>214.875763</course><hAcc>2.140492</hAcc><vAcc>0.567376</vAcc></extensions></trkpt>
      <trkpt lon="-3.049008" lat="52.706536"><ele>389.453674</ele><time>2022-01-15T10:10:33Z</time><extensions><speed>0.697386</speed><course>219.989914</course><hAcc>2.136505</hAcc><vAcc>0.562925</vAcc></extensions></trkpt>
      <trkpt lon="-3.049015" lat="52.706531"><ele>389.492279</ele><time>2022-01-15T10:10:34Z</time><extensions><speed>0.731440</speed><course>223.189240</course><hAcc>2.152637</hAcc><vAcc>0.557686</vAcc></extensions></trkpt>
      <trkpt lon="-3.049023" lat="52.706526"><ele>389.533569</ele><time>2022-01-15T10:10:35Z</time><extensions><speed>0.763542</speed><course>223.502213</course><hAcc>2.184341</hAcc><vAcc>0.552342</vAcc></extensions></trkpt>
      <trkpt lon="-3.049030" lat="52.706521"><ele>389.576721</ele><time>2022-01-15T10:10:36Z</time><extensions><speed>0.776974</speed><course>222.091843</course><hAcc>2.204609</hAcc><vAcc>0.547524</vAcc></extensions></trkpt>
      <trkpt lon="-3.049038" lat="52.706515"><ele>389.622253</ele><time>2022-01-15T10:10:37Z</time><extensions><speed>0.856519</speed><course>219.892502</course><hAcc>2.226586</hAcc><vAcc>0.543691</vAcc></extensions></trkpt>
      <trkpt lon="-3.049047" lat="52.706509"><ele>389.671326</ele><time>2022-01-15T10:10:38Z</time><extensions><speed>0.915576</speed><course>217.238922</course><hAcc>2.258245</hAcc><vAcc>0.541016</vAcc></extensions></trkpt>
      <trkpt lon="-3.049055" lat="52.706502"><ele>389.722260</ele><time>2022-01-15T10:10:39Z</time><extensions><speed>0.910583</speed><course>217.623840</course><hAcc>2.261558</hAcc><vAcc>0.539407</vAcc></extensions></trkpt>
      <trkpt lon="-3.049063" lat="52.706496"><ele>389.775482</ele><time>2022-01-15T10:10:40Z</time><extensions><speed>0.888694</speed><course>219.032608</course><hAcc>2.233907</hAcc><vAcc>0.538605</vAcc></extensions></trkpt>
      <trkpt lon="-3.049072" lat="52.706490"><ele>389.833313</ele><time>2022-01-15T10:10:41Z</time><extensions><speed>0.909096</speed><course>218.683716</course><hAcc>2.205500</hAcc><vAcc>0.538257</vAcc></extensions></trkpt>
      <trkpt lon="-3.049080" lat="52.706483"><ele>389.894653</ele><time>2022-01-15T10:10:42Z</time><extensions><speed>0.946586</speed><course>217.367645</course><hAcc>2.205648</hAcc><vAcc>0.538054</vAcc></extensions></trkpt>
      <trkpt lon="-3.049089" lat="52.706476"><ele>389.955170</ele><time>2022-01-15T10:10:43Z</time><extensions><speed>0.955373</speed><course>215.139984</course><hAcc>2.216622</hAcc><vAcc>0.537774</vAcc></extensions></trkpt>
      <trkpt lon="-3.049097" lat="52.706469"><ele>390.013977</ele><time>2022-01-15T10:10:44Z</time><extensions><speed>0.983233</speed><course>212.642487</course><hAcc>2.197161</hAcc><vAcc>0.537280</vAcc></extensions></trkpt>
      <trkpt lon="-3.049105" lat="52.706461"><ele>390.073639</ele><time>2022-01-15T10:10:45Z</time><extensions><speed>1.034893</speed><course>211.023468</course><hAcc>2.185922</hAcc><vAcc>0.536596</vAcc></extensions></trkpt>
      <trkpt lon="-3.049113" lat="52.706452"><ele>390.133820</ele><time>2022-01-15T10:10:46Z</time><extensions><speed>1.127400</speed><course>210.679779</course><hAcc>2.193383</hAcc><vAcc>0.535978</vAcc></extensions></trkpt>
      <trkpt lon="-3.049122" lat="52.706443"><ele>390.192108</ele><time>2022-01-15T10:10:47Z</time><extensions><speed>1.211739</speed><course>211.309128</course><hAcc>2.214078</hAcc><vAcc>0.535890</vAcc></extensions></trkpt>
      <trkpt lon="-3.049132" lat="52.706434"><ele>390.248230</ele><time>2022-01-15T10:10:48Z</time><extensions><speed>1.264187</speed><course>212.661728</course><hAcc>2.236638</hAcc><vAcc>0.536928</vAcc></extensions></trkpt>
      <trkpt lon="-3.049142" lat="52.706424"><ele>390.306305</ele><time>2022-01-15T10:10:49Z</time><extensions><speed>1.291290</speed><course>214.164215</course><hAcc>2.237494</hAcc><vAcc>0.539689</vAcc></extensions></trkpt>
      <trkpt lon="-3.049153" lat="52.706415"><ele>390.361053</ele><time>2022-01-15T10:10:50Z</time><extensions><speed>1.262028</speed><course>216.348083</course><hAcc>2.216586</hAcc><vAcc>0.544640</vAcc></extensions></trkpt>
      <trkpt lon="-3.049165" lat="52.706406"><ele>390.415833</ele><time>2022-01-15T10:10:51Z</time><extensions><speed>1.139698</speed><course>219.697113</course><hAcc>2.196867</hAcc><vAcc>0.551964</vAcc></extensions></trkpt>
      <trkpt lon="-3.049175" lat="52.706399"><ele>390.470184</ele><time>2022-01-15T10:10:52Z</time><extensions><speed>0.984726</speed><course>224.939102</course><hAcc>2.173993</hAcc><vAcc>0.561356</vAcc></extensions></trkpt>
      <trkpt lon="-3.049187" lat="52.706393"><ele>390.527679</ele><time>2022-01-15T10:10:53Z</time><extensions><speed>1.046334</speed><course>229.477158</course><hAcc>2.123438</hAcc><vAcc>0.572135</vAcc></extensions></trkpt>
      <trkpt lon="-3.049201" lat="52.706387"><ele>390.581207</ele><time>2022-01-15T10:10:54Z</time><extensions><speed>1.282451</speed><course>232.023300</course><hAcc>2.062490</hAcc><vAcc>0.583475</vAcc></extensions></trkpt>
      <trkpt lon="-3.049216" lat="52.706380"><ele>390.638824</ele><time>2022-01-15T10:10:55Z</time><extensions><speed>1.304350</speed><course>234.467255</course><hAcc>2.029200</hAcc><vAcc>0.594606</vAcc></extensions></trkpt>
      <trkpt lon="-3.049232" lat="52.706373"><ele>390.697662</ele><time>2022-01-15T10:10:56Z</time><extensions><speed>1.319657</speed><course>237.104263</course><hAcc>1.983009</hAcc><vAcc>0.604918</vAcc></extensions></trkpt>
      <trkpt lon="-3.049249" lat="52.706367"><ele>390.764252</ele><time>2022-01-15T10:10:57Z</time><extensions><speed>1.280495</speed><course>239.114578</course><hAcc>1.958602</hAcc><vAcc>0.614006</vAcc></extensions></trkpt>
      <trkpt lon="-3.049265" lat="52.706361"><ele>390.838501</ele><time>2022-01-15T10:10:58Z</time><extensions><speed>1.214742</speed><course>240.075455</course><hAcc>1.958023</hAcc><vAcc>0.621766</vAcc></extensions></trkpt>
      <trkpt lon="-3.049280" lat="52.706356"><ele>390.909851</ele><time>2022-01-15T10:10:59Z</time><extensions><speed>1.191635</speed><course>243.961166</course><hAcc>1.927917</hAcc><vAcc>0.628127</vAcc></extensions></trkpt>
      <trkpt lon="-3.049296" lat="52.706352"><ele>390.984863</ele><time>2022-01-15T10:11:00Z</time><extensions><speed>1.074798</speed><course>247.609146</course><hAcc>1.930335</hAcc><vAcc>0.633105</vAcc></extensions></trkpt>
      <trkpt lon="-3.049309" lat="52.706349"><ele>391.061707</ele><time>2022-01-15T10:11:01Z</time><extensions><speed>0.848821</speed><course>252.548355</course><hAcc>1.965314</hAcc><vAcc>0.636779</vAcc></extensions></trkpt>
      <trkpt lon="-3.049323" lat="52.706347"><ele>391.140656</ele><time>2022-01-15T10:11:02Z</time><extensions><speed>1.022127</speed><course>262.849915</course><hAcc>1.932927</hAcc><vAcc>0.639270</vAcc></extensions></trkpt>
      <trkpt lon="-3.049338" lat="52.706347"><ele>391.218384</ele><time>2022-01-15T10:11:03Z</time><extensions><speed>1.110685</speed><course>268.224854</course><hAcc>1.917814</hAcc><vAcc>0.640711</vAcc></extensions></trkpt>
      <trkpt lon="-3.049355" lat="52.706346"><ele>391.310974</ele><time>2022-01-15T10:11:04Z</time><extensions><speed>1.138817</speed><course>270.388458</course><hAcc>1.928752</hAcc><vAcc>0.641305</vAcc></extensions></trkpt>
      <trkpt lon="-3.049372" lat="52.706347"><ele>391.386292</ele><time>2022-01-15T10:11:05Z</time><extensions><speed>1.123254</speed><course>270.106262</course><hAcc>1.946301</hAcc><vAcc>0.641308</vAcc></extensions></trkpt>
      <trkpt lon="-3.049388" lat="52.706346"><ele>391.462433</ele><time>2022-01-15T10:11:06Z</time><extensions><speed>1.095362</speed><course>268.001892</course><hAcc>1.951911</hAcc><vAcc>0.641025</vAcc></extensions></trkpt>
      <trkpt lon="-3.049404" lat="52.706346"><ele>391.551849</ele><time>2022-01-15T10:11:07Z</time><extensions><speed>1.081071</speed><course>263.871429</course><hAcc>1.944756</hAcc><vAcc>0.640689</vAcc></extensions></trkpt>
      <trkpt lon="-3.049420" lat="52.706344"><ele>391.633820</ele><time>2022-01-15T10:11:08Z</time><extensions><speed>1.093102</speed><course>258.273773</course><hAcc>1.936381</hAcc><vAcc>0.640427</vAcc></extensions></trkpt>
      <trkpt lon="-3.049436" lat="52.706342"><ele>391.714539</ele><time>2022-01-15T10:11:09Z</time><extensions><speed>1.069714</speed><course>254.558990</course><hAcc>1.930009</hAcc><vAcc>0.640237</vAcc></extensions></trkpt>
      <trkpt lon="-3.049451" lat="52.706339"><ele>391.788025</ele><time>2022-01-15T10:11:10Z</time><extensions><speed>1.025655</speed><course>252.996964</course><hAcc>1.924577</hAcc><vAcc>0.639990</vAcc></extensions></trkpt>
      <trkpt lon="-3.049465" lat="52.706336"><ele>391.859161</ele><time>2022-01-15T10:11:11Z</time><extensions><speed>1.042213</speed><course>253.192429</course><hAcc>1.878533</hAcc><vAcc>0.639550</vAcc></extensions></trkpt>
      <trkpt lon="-3.049480" lat="52.706334"><ele>391.931885</ele><time>2022-01-15T10:11:12Z</time><extensions><speed>1.038400</speed><course>253.945129</course><hAcc>1.857810</hAcc><vAcc>0.638879</vAcc></extensions></trkpt>
      <trkpt lon="-3.049495" lat="52.706331"><ele>392.002930</ele><time>2022-01-15T10:11:13Z</time><extensions><speed>1.000857</speed><course>253.724945</course><hAcc>1.874517</hAcc><vAcc>0.637889</vAcc></extensions></trkpt>
      <trkpt lon="-3.049509" lat="52.706329"><ele>392.067413</ele><time>2022-01-15T10:11:14Z</time><extensions><speed>0.980966</speed><course>254.484802</course><hAcc>1.900276</hAcc><vAcc>0.636543</vAcc></extensions></trkpt>
      <trkpt lon="-3.049523" lat="52.706326"><ele>392.128448</ele><time>2022-01-15T10:11:15Z</time><extensions><speed>1.004537</speed><course>253.493591</course><hAcc>1.887368</hAcc><vAcc>0.634853</vAcc></extensions></trkpt>
      <trkpt lon="-3.049537" lat="52.706324"><ele>392.186859</ele><time>2022-01-15T10:11:16Z</time><extensions><speed>0.994763</speed><course>251.115189</course><hAcc>1.895165</hAcc><vAcc>0.632852</vAcc></extensions></trkpt>
      <trkpt lon="-3.049551" lat="52.706321"><ele>392.246735</ele><time>2022-01-15T10:11:17Z</time><extensions><speed>0.950105</speed><course>247.360657</course><hAcc>1.917222</hAcc><vAcc>0.630569</vAcc></extensions></trkpt>
      <trkpt lon="-3.049563" lat="52.706317"><ele>392.304932</ele><time>2022-01-15T10:11:18Z</time><extensions><speed>0.881333</speed><course>240.430801</course><hAcc>1.939656</hAcc><vAcc>0.628047</vAcc></extensions></trkpt>
      <trkpt lon="-3.049574" lat="52.706313"><ele>392.365814</ele><time>2022-01-15T10:11:19Z</time><extensions><speed>0.873568</speed><course>234.332520</course><hAcc>1.946683</hAcc><vAcc>0.625359</vAcc></extensions></trkpt>
      <trkpt lon="-3.049584" lat="52.706308"><ele>392.426208</ele><time>2022-01-15T10:11:20Z</time><extensions><speed>0.919149</speed><course>230.978439</course><hAcc>1.953699</hAcc><vAcc>0.622591</vAcc></extensions></trkpt>
      <trkpt lon="-3.049595" lat="52.706302"><ele>392.487762</ele><time>2022-01-15T10:11:21Z</time><extensions><speed>0.981191</speed><course>229.823227</course><hAcc>1.973685</hAcc><vAcc>0.619771</vAcc></extensions></trkpt>
      <trkpt lon="-3.049606" lat="52.706297"><ele>392.551239</ele><time>2022-01-15T10:11:22Z</time><extensions><speed>0.989872</speed><course>229.990173</course><hAcc>2.011543</hAcc><vAcc>0.616816</vAcc></extensions></trkpt>
      <trkpt lon="-3.049618" lat="52.706291"><ele>392.614685</ele><time>2022-01-15T10:11:23Z</time><extensions><speed>0.967381</speed><course>230.438507</course><hAcc>2.028719</hAcc><vAcc>0.613522</vAcc></extensions></trkpt>
      <trkpt lon="-3.049628" lat="52.706285"><ele>392.679535</ele><time>2022-01-15T10:11:24Z</time><extensions><speed>0.945292</speed><course>230.902725</course><hAcc>2.020169</hAcc><vAcc>0.609713</vAcc></extensions></trkpt>
      <trkpt lon="-3.049639" lat="52.706280"><ele>392.744507</ele><time>2022-01-15T10:11:25Z</time><extensions><speed>0.948912</speed><course>232.293289</course><hAcc>2.015486</hAcc><vAcc>0.605391</vAcc></extensions></trkpt>
      <trkpt lon="-3.049651" lat="52.706275"><ele>392.814117</ele><time>2022-01-15T10:11:26Z</time><extensions><speed>0.959028</speed><course>234.048264</course><hAcc>2.029099</hAcc><vAcc>0.600762</vAcc></extensions></trkpt>
      <trkpt lon="-3.049662" lat="52.706270"><ele>392.884705</ele><time>2022-01-15T10:11:27Z</time><extensions><speed>0.943560</speed><course>235.411545</course><hAcc>2.050520</hAcc><vAcc>0.596175</vAcc></extensions></trkpt>
      <trkpt lon="-3.049674" lat="52.706265"><ele>392.957672</ele><time>2022-01-15T10:11:28Z</time><extensions><speed>0.885785</speed><course>236.161728</course><hAcc>2.070114</hAcc><vAcc>0.592039</vAcc></extensions></trkpt>
      <trkpt lon="-3.049684" lat="52.706261"><ele>393.031525</ele><time>2022-01-15T10:11:29Z</time><extensions><speed>0.798819</speed><course>237.006256</course><hAcc>2.087509</hAcc><vAcc>0.588764</vAcc></extensions></trkpt>
      <trkpt lon="-3.049694" lat="52.706257"><ele>393.106750</ele><time>2022-01-15T10:11:30Z</time><extensions><speed>0.660794</speed><course>237.824310</course><hAcc>2.103601</hAcc><vAcc>0.586745</vAcc></extensions></trkpt>
      <trkpt lon="-3.049702" lat="52.706254"><ele>393.176941</ele><time>2022-01-15T10:11:31Z</time><extensions><speed>0.638991</speed><course>237.968552</course><hAcc>2.101093</hAcc><vAcc>0.586260</vAcc></extensions></trkpt>
      <trkpt lon="-3.049710" lat="52.706251"><ele>393.248505</ele><time>2022-01-15T10:11:32Z</time><extensions><speed>0.677993</speed><course>237.269302</course><hAcc>2.087284</hAcc><vAcc>0.587432</vAcc></extensions></trkpt>
      <trkpt lon="-3.049719" lat="52.706248"><ele>393.315033</ele><time>2022-01-15T10:11:33Z</time><extensions><speed>0.736171</speed><course>235.867767</course><hAcc>2.071766</hAcc><vAcc>0.590237</vAcc></extensions></trkpt>
      <trkpt lon="-3.049729" lat="52.706244"><ele>393.383514</ele><time>2022-01-15T10:11:34Z</time><extensions><speed>0.798794</speed><course>234.780106</course><hAcc>2.054166</hAcc><vAcc>0.594465</vAcc></extensions></trkpt>
      <trkpt lon="-3.049739" lat="52.706239"><ele>393.451691</ele><time>2022-01-15T10:11:35Z</time><extensions><speed>0.874679</speed><course>234.814331</course><hAcc>2.031733</hAcc><vAcc>0.599739</vAcc></extensions></trkpt>
      <trkpt lon="-3.049750" lat="52.706234"><ele>393.511230</ele><time>2022-01-15T10:11:36Z</time><extensions><speed>0.948754</speed><course>235.586380</course><hAcc>2.022812</hAcc><vAcc>0.605647</vAcc></extensions></trkpt>
      <trkpt lon="-3.049761" lat="52.706230"><ele>393.572296</ele><time>2022-01-15T10:11:37Z</time><extensions><speed>0.771827</speed><course>238.787354</course><hAcc>2.048368</hAcc><vAcc>0.611871</vAcc></extensions></trkpt>
      <trkpt lon="-3.049771" lat="52.706227"><ele>393.627289</ele><time>2022-01-15T10:11:38Z</time><extensions><speed>0.834678</speed><course>241.902451</course><hAcc>2.041475</hAcc><vAcc>0.618114</vAcc></extensions></trkpt>
      <trkpt lon="-3.049783" lat="52.706223"><ele>393.682739</ele><time>2022-01-15T10:11:39Z</time><extensions><speed>0.981497</speed><course>244.384155</course><hAcc>2.017646</hAcc><vAcc>0.624067</vAcc></extensions></trkpt>
      <trkpt lon="-3.049799" lat="52.706219"><ele>393.738525</ele><time>2022-01-15T10:11:40Z</time><extensions><speed>1.287335</speed><course>246.143936</course><hAcc>1.983417</hAcc><vAcc>0.629299</vAcc></extensions></trkpt>
      <trkpt lon="-3.049817" lat="52.706214"><ele>393.793945</ele><time>2022-01-15T10:11:41Z</time><extensions><speed>1.376281</speed><course>246.614029</course><hAcc>1.958259</hAcc><vAcc>0.633343</vAcc></extensions></trkpt>
      <trkpt lon="-3.049835" lat="52.706209"><ele>393.847504</ele><time>2022-01-15T10:11:42Z</time><extensions><speed>1.346034</speed><course>246.322662</course><hAcc>1.946017</hAcc><vAcc>0.635740</vAcc></extensions></trkpt>
      <trkpt lon="-3.049853" lat="52.706205"><ele>393.900909</ele><time>2022-01-15T10:11:43Z</time><extensions><speed>1.260206</speed><course>246.792130</course><hAcc>1.945720</hAcc><vAcc>0.636057</vAcc></extensions></trkpt>
      <trkpt lon="-3.049869" lat="52.706200"><ele>393.954956</ele><time>2022-01-15T10:11:44Z</time><extensions><speed>1.090899</speed><course>248.220291</course><hAcc>1.959141</hAcc><vAcc>0.634031</vAcc></extensions></trkpt>
      <trkpt lon="-3.049883" lat="52.706197"><ele>394.006836</ele><time>2022-01-15T10:11:45Z</time><extensions><speed>0.920630</speed><course>250.715164</course><hAcc>1.977373</hAcc><vAcc>0.629451</vAcc></extensions></trkpt>
      <trkpt lon="-3.049895" lat="52.706195"><ele>394.057922</ele><time>2022-01-15T10:11:46Z</time><extensions><speed>0.736052</speed><course>256.725647</course><hAcc>1.971999</hAcc><vAcc>0.622266</vAcc></extensions></trkpt>
      <trkpt lon="-3.049904" lat="52.706194"><ele>394.111420</ele><time>2022-01-15T10:11:47Z</time><extensions><speed>0.529320</speed><course>267.404938</course><hAcc>1.982435</hAcc><vAcc>0.612682</vAcc></extensions></trkpt>
      <trkpt lon="-3.049912" lat="52.706194"><ele>394.155212</ele><time>2022-01-15T10:11:48Z</time><extensions><speed>0.479560</speed><course>276.365570</course><hAcc>2.008819</hAcc><vAcc>0.601135</vAcc></extensions></trkpt>
      <trkpt lon="-3.049919" lat="52.706195"><ele>394.200165</ele><time>2022-01-15T10:11:49Z</time><extensions><speed>0.498005</speed><course>278.614563</course><hAcc>2.045527</hAcc><vAcc>0.588274</vAcc></extensions></trkpt>
      <trkpt lon="-3.049927" lat="52.706196"><ele>394.240234</ele><time>2022-01-15T10:11:50Z</time><extensions><speed>0.557898</speed><course>274.865753</course><hAcc>2.087276</hAcc><vAcc>0.574926</vAcc></extensions></trkpt>
      <trkpt lon="-3.049936" lat="52.706196"><ele>394.267914</ele><time>2022-01-15T10:11:51Z</time><extensions><speed>0.669567</speed><course>268.135345</course><hAcc>2.124369</hAcc><vAcc>0.562032</vAcc></extensions></trkpt>
      <trkpt lon="-3.049947" lat="52.706195"><ele>394.297424</ele><time>2022-01-15T10:11:52Z</time><extensions><speed>0.856917</speed><course>261.281921</course><hAcc>2.140886</hAcc><vAcc>0.550574</vAcc></extensions></trkpt>
      <trkpt lon="-3.049962" lat="52.706193"><ele>394.327057</ele><time>2022-01-15T10:11:53Z</time><extensions><speed>1.138512</speed><course>256.303894</course><hAcc>2.134516</hAcc><vAcc>0.541627</vAcc></extensions></trkpt>
      <trkpt lon="-3.049979" lat="52.706190"><ele>394.358521</ele><time>2022-01-15T10:11:54Z</time><extensions><speed>1.263075</speed><course>253.774078</course><hAcc>2.133868</hAcc><vAcc>0.536214</vAcc></extensions></trkpt>
      <trkpt lon="-3.049997" lat="52.706187"><ele>394.394226</ele><time>2022-01-15T10:11:55Z</time><extensions><speed>1.278520</speed><course>250.755936</course><hAcc>2.148100</hAcc><vAcc>0.534928</vAcc></extensions></trkpt>
      <trkpt lon="-3.050014" lat="52.706183"><ele>394.433472</ele><time>2022-01-15T10:11:56Z</time><extensions><speed>1.194706</speed><course>247.645416</course><hAcc>2.167184</hAcc><vAcc>0.537831</vAcc></extensions></trkpt>
      <trkpt lon="-3.050030" lat="52.706178"><ele>394.481567</ele><time>2022-01-15T10:11:57Z</time><extensions><speed>1.115072</speed><course>245.196762</course><hAcc>2.142729</hAcc><vAcc>0.544691</vAcc></extensions></trkpt>
      <trkpt lon="-3.050045" lat="52.706174"><ele>394.542542</ele><time>2022-01-15T10:11:58Z</time><extensions><speed>1.131262</speed><course>244.720169</course><hAcc>2.073975</hAcc><vAcc>0.555188</vAcc></extensions></trkpt>
      <trkpt lon="-3.050060" lat="52.706170"><ele>394.612427</ele><time>2022-01-15T10:11:59Z</time><extensions><speed>1.082666</speed><course>244.513046</course><hAcc>2.018023</hAcc><vAcc>0.568942</vAcc></extensions></trkpt>
      <trkpt lon="-3.050074" lat="52.706166"><ele>394.691925</ele><time>2022-01-15T10:12:00Z</time><extensions><speed>1.000297</speed><course>244.358322</course><hAcc>1.975732</hAcc><vAcc>0.585455</vAcc></extensions></trkpt>
      <trkpt lon="-3.050087" lat="52.706162"><ele>394.775452</ele><time>2022-01-15T10:12:01Z</time><extensions><speed>0.923092</speed><course>242.596985</course><hAcc>1.918777</hAcc><vAcc>0.603954</vAcc></extensions></trkpt>
      <trkpt lon="-3.050098" lat="52.706158"><ele>394.864960</ele><time>2022-01-15T10:12:02Z</time><extensions><speed>0.744813</speed><course>239.226395</course><hAcc>1.874051</hAcc><vAcc>0.623128</vAcc></extensions></trkpt>
      <trkpt lon="-3.050105" lat="52.706155"><ele>394.952362</ele><time>2022-01-15T10:12:03Z</time><extensions><speed>0.370916</speed><course>230.939728</course><hAcc>1.856261</hAcc><vAcc>0.641732</vAcc></extensions></trkpt>
      <trkpt lon="-3.050108" lat="52.706153"><ele>395.050323</ele><time>2022-01-15T10:12:04Z</time><extensions><speed>0.255799</speed><course>223.576294</course><hAcc>1.817259</hAcc><vAcc>0.659163</vAcc></extensions></trkpt>
      <trkpt lon="-3.050111" lat="52.706152"><ele>395.133636</ele><time>2022-01-15T10:12:05Z</time><extensions><speed>0.223134</speed><course>221.360352</course><hAcc>1.782307</hAcc><vAcc>0.674771</vAcc></extensions></trkpt>
      <trkpt lon="-3.050113" lat="52.706150"><ele>395.229523</ele><time>2022-01-15T10:12:06Z</time><extensions><speed>0.226572</speed><course>221.871613</course><hAcc>1.763423</hAcc><vAcc>0.688027</vAcc></extensions></trkpt>
      <trkpt lon="-3.050115" lat="52.706148"><ele>395.349091</ele><time>2022-01-15T10:12:07Z</time><extensions><speed>0.242444</speed><course>222.673889</course><hAcc>1.759483</hAcc><vAcc>0.698619</vAcc></extensions></trkpt>
      <trkpt lon="-3.050118" lat="52.706147"><ele>395.440948</ele><time>2022-01-15T10:12:08Z</time><extensions><speed>0.268376</speed><course>224.569855</course><hAcc>1.767773</hAcc><vAcc>0.706324</vAcc></extensions></trkpt>
      <trkpt lon="-3.050121" lat="52.706145"><ele>395.531769</ele><time>2022-01-15T10:12:09Z</time><extensions><speed>0.310763</speed><course>228.068466</course><hAcc>1.787287</hAcc><vAcc>0.710898</vAcc></extensions></trkpt>
      <trkpt lon="-3.050125" lat="52.706143"><ele>395.654480</ele><time>2022-01-15T10:12:10Z</time><extensions><speed>0.399932</speed><course>232.723450</course><hAcc>1.813596</hAcc><vAcc>0.711922</vAcc></extensions></trkpt>
      <trkpt lon="-3.050131" lat="52.706140"><ele>395.754791</ele><time>2022-01-15T10:12:11Z</time><extensions><speed>0.617813</speed><course>237.174362</course><hAcc>1.825015</hAcc><vAcc>0.709741</vAcc></extensions></trkpt>
      <trkpt lon="-3.050142" lat="52.706136"><ele>395.846100</ele><time>2022-01-15T10:12:12Z</time><extensions><speed>1.067019</speed><course>240.020325</course><hAcc>1.816308</hAcc><vAcc>0.704799</vAcc></extensions></trkpt>
      <trkpt lon="-3.050158" lat="52.706131"><ele>395.952545</ele><time>2022-01-15T10:12:13Z</time><extensions><speed>1.336216</speed><course>240.937347</course><hAcc>1.848947</hAcc><vAcc>0.696879</vAcc></extensions></trkpt>
      <trkpt lon="-3.050176" lat="52.706125"><ele>396.062561</ele><time>2022-01-15T10:12:14Z</time><extensions><speed>1.460846</speed><course>241.841446</course><hAcc>1.909571</hAcc><vAcc>0.685943</vAcc></extensions></trkpt>
      <trkpt lon="-3.050195" lat="52.706119"><ele>396.177551</ele><time>2022-01-15T10:12:15Z</time><extensions><speed>1.421920</speed><course>242.339569</course><hAcc>1.965264</hAcc><vAcc>0.672041</vAcc></extensions></trkpt>
      <trkpt lon="-3.050212" lat="52.706113"><ele>396.291382</ele><time>2022-01-15T10:12:16Z</time><extensions><speed>1.301220</speed><course>242.256668</course><hAcc>2.009098</hAcc><vAcc>0.655373</vAcc></extensions></trkpt>
      <trkpt lon="-3.050229" lat="52.706108"><ele>396.406860</ele><time>2022-01-15T10:12:17Z</time><extensions><speed>1.206859</speed><course>242.400650</course><hAcc>2.048280</hAcc><vAcc>0.636373</vAcc></extensions></trkpt>
      <trkpt lon="-3.050244" lat="52.706103"><ele>396.521210</ele><time>2022-01-15T10:12:18Z</time><extensions><speed>1.100771</speed><course>240.878174</course><hAcc>2.106111</hAcc><vAcc>0.615758</vAcc></extensions></trkpt>
      <trkpt lon="-3.050257" lat="52.706098"><ele>396.634094</ele><time>2022-01-15T10:12:19Z</time><extensions><speed>1.035845</speed><course>237.808304</course><hAcc>2.190497</hAcc><vAcc>0.594529</vAcc></extensions></trkpt>
      <trkpt lon="-3.050270" lat="52.706093"><ele>396.745148</ele><time>2022-01-15T10:12:20Z</time><extensions><speed>1.000821</speed><course>233.920349</course><hAcc>2.279761</hAcc><vAcc>0.573985</vAcc></extensions></trkpt>
      <trkpt lon="-3.050281" lat="52.706088"><ele>396.853821</ele><time>2022-01-15T10:12:21Z</time><extensions><speed>0.978476</speed><course>230.095322</course><hAcc>2.354719</hAcc><vAcc>0.555414</vAcc></extensions></trkpt>
      <trkpt lon="-3.050292" lat="52.706082"><ele>396.959290</ele><time>2022-01-15T10:12:22Z</time><extensions><speed>0.949597</speed><course>226.381210</course><hAcc>2.406964</hAcc><vAcc>0.539691</vAcc></extensions></trkpt>
      <trkpt lon="-3.050302" lat="52.706076"><ele>397.079224</ele><time>2022-01-15T10:12:23Z</time><extensions><speed>0.954285</speed><course>223.519180</course><hAcc>2.424386</hAcc><vAcc>0.526913</vAcc></extensions></trkpt>
      <trkpt lon="-3.050311" lat="52.706070"><ele>397.191772</ele><time>2022-01-15T10:12:24Z</time><extensions><speed>0.956405</speed><course>221.313446</course><hAcc>2.418650</hAcc><vAcc>0.516516</vAcc></extensions></trkpt>
      <trkpt lon="-3.050320" lat="52.706063"><ele>397.291718</ele><time>2022-01-15T10:12:25Z</time><extensions><speed>0.939404</speed><course>218.681274</course><hAcc>2.406158</hAcc><vAcc>0.507497</vAcc></extensions></trkpt>
      <trkpt lon="-3.050329" lat="52.706057"><ele>397.390900</ele><time>2022-01-15T10:12:26Z</time><extensions><speed>0.943529</speed><course>216.694794</course><hAcc>2.397954</hAcc><vAcc>0.499030</vAcc></extensions></trkpt>
      <trkpt lon="-3.050337" lat="52.706050"><ele>397.489990</ele><time>2022-01-15T10:12:27Z</time><extensions><speed>0.909062</speed><course>214.513565</course><hAcc>2.398581</hAcc><vAcc>0.490336</vAcc></extensions></trkpt>
      <trkpt lon="-3.050344" lat="52.706043"><ele>397.587463</ele><time>2022-01-15T10:12:28Z</time><extensions><speed>0.883609</speed><course>213.561630</course><hAcc>2.407630</hAcc><vAcc>0.480892</vAcc></extensions></trkpt>
      <trkpt lon="-3.050351" lat="52.706036"><ele>397.700104</ele><time>2022-01-15T10:12:29Z</time><extensions><speed>0.846113</speed><course>214.368668</course><hAcc>2.419458</hAcc><vAcc>0.470609</vAcc></extensions></trkpt>
      <trkpt lon="-3.050359" lat="52.706030"><ele>397.806305</ele><time>2022-01-15T10:12:30Z</time><extensions><speed>0.842162</speed><course>215.789230</course><hAcc>2.432070</hAcc><vAcc>0.459522</vAcc></extensions></trkpt>
      <trkpt lon="-3.050367" lat="52.706023"><ele>397.903320</ele><time>2022-01-15T10:12:31Z</time><extensions><speed>0.900633</speed><course>217.578751</course><hAcc>2.444504</hAcc><vAcc>0.448133</vAcc></extensions></trkpt>
      <trkpt lon="-3.050376" lat="52.706016"><ele>397.981384</ele><time>2022-01-15T10:12:32Z</time><extensions><speed>1.057385</speed><course>218.964798</course><hAcc>2.464192</hAcc><vAcc>0.437108</vAcc></extensions></trkpt>
      <trkpt lon="-3.050386" lat="52.706008"><ele>398.064331</ele><time>2022-01-15T10:12:33Z</time><extensions><speed>1.246307</speed><course>219.335327</course><hAcc>2.495656</hAcc><vAcc>0.426998</vAcc></extensions></trkpt>
      <trkpt lon="-3.050399" lat="52.705998"><ele>398.149109</ele><time>2022-01-15T10:12:34Z</time><extensions><speed>1.371495</speed><course>218.691406</course><hAcc>2.533379</hAcc><vAcc>0.418141</vAcc></extensions></trkpt>
      <trkpt lon="-3.050411" lat="52.705988"><ele>398.228424</ele><time>2022-01-15T10:12:35Z</time><extensions><speed>1.444848</speed><course>215.999084</course><hAcc>2.551044</hAcc><vAcc>0.410564</vAcc></extensions></trkpt>
      <trkpt lon="-3.050423" lat="52.705977"><ele>398.302917</ele><time>2022-01-15T10:12:36Z</time><extensions><speed>1.441598</speed><course>212.634094</course><hAcc>2.558864</hAcc><vAcc>0.404260</vAcc></extensions></trkpt>
      <trkpt lon="-3.050434" lat="52.705965"><ele>398.390411</ele><time>2022-01-15T10:12:37Z</time><extensions><speed>1.438269</speed><course>208.938065</course><hAcc>2.558941</hAcc><vAcc>0.398999</vAcc></extensions></trkpt>
      <trkpt lon="-3.050443" lat="52.705954"><ele>398.450165</ele><time>2022-01-15T10:12:38Z</time><extensions><speed>1.360605</speed><course>206.160172</course><hAcc>2.596825</hAcc><vAcc>0.394729</vAcc></extensions></trkpt>
      <trkpt lon="-3.050452" lat="52.705943"><ele>398.499878</ele><time>2022-01-15T10:12:39Z</time><extensions><speed>1.207563</speed><course>205.915680</course><hAcc>2.655615</hAcc><vAcc>0.391271</vAcc></extensions></trkpt>
      <trkpt lon="-3.050460" lat="52.705933"><ele>398.566010</ele><time>2022-01-15T10:12:40Z</time><extensions><speed>1.193295</speed><course>204.441406</course><hAcc>2.656257</hAcc><vAcc>0.388534</vAcc></extensions></trkpt>
      <trkpt lon="-3.050467" lat="52.705924"><ele>398.609741</ele><time>2022-01-15T10:12:41Z</time><extensions><speed>1.120656</speed><course>204.046906</course><hAcc>2.665618</hAcc><vAcc>0.386474</vAcc></extensions></trkpt>
      <trkpt lon="-3.050474" lat="52.705914"><ele>398.657104</ele><time>2022-01-15T10:12:42Z</time><extensions><speed>1.135621</speed><course>201.693024</course><hAcc>2.664278</hAcc><vAcc>0.385006</vAcc></extensions></trkpt>
      <trkpt lon="-3.050480" lat="52.705904"><ele>398.696442</ele><time>2022-01-15T10:12:43Z</time><extensions><speed>1.106036</speed><course>200.400253</course><hAcc>2.683984</hAcc><vAcc>0.384092</vAcc></extensions></trkpt>
      <trkpt lon="-3.050486" lat="52.705895"><ele>398.725830</ele><time>2022-01-15T10:12:44Z</time><extensions><speed>1.055372</speed><course>200.022568</course><hAcc>2.711594</hAcc><vAcc>0.383544</vAcc></extensions></trkpt>
      <trkpt lon="-3.050492" lat="52.705886"><ele>398.752533</ele><time>2022-01-15T10:12:45Z</time><extensions><speed>0.964468</speed><course>201.126740</course><hAcc>2.728891</hAcc><vAcc>0.383286</vAcc></extensions></trkpt>
      <trkpt lon="-3.050499" lat="52.705877"><ele>398.784882</ele><time>2022-01-15T10:12:46Z</time><extensions><speed>1.013696</speed><course>204.388657</course><hAcc>2.721228</hAcc><vAcc>0.382979</vAcc></extensions></trkpt>
      <trkpt lon="-3.050507" lat="52.705869"><ele>398.827698</ele><time>2022-01-15T10:12:47Z</time><extensions><speed>1.125488</speed><course>208.248489</course><hAcc>2.717986</hAcc><vAcc>0.382631</vAcc></extensions></trkpt>
      <trkpt lon="-3.050515" lat="52.705859"><ele>398.863678</ele><time>2022-01-15T10:12:48Z</time><extensions><speed>1.122660</speed><course>210.147232</course><hAcc>2.750815</hAcc><vAcc>0.382168</vAcc></extensions></trkpt>
      <trkpt lon="-3.050524" lat="52.705851"><ele>398.928192</ele><time>2022-01-15T10:12:49Z</time><extensions><speed>1.014879</speed><course>211.917191</course><hAcc>2.804323</hAcc><vAcc>0.381834</vAcc></extensions></trkpt>
      <trkpt lon="-3.050533" lat="52.705843"><ele>398.972992</ele><time>2022-01-15T10:12:50Z</time><extensions><speed>0.880636</speed><course>213.632172</course><hAcc>2.826692</hAcc><vAcc>0.381898</vAcc></extensions></trkpt>
      <trkpt lon="-3.050541" lat="52.705836"><ele>399.065338</ele><time>2022-01-15T10:12:51Z</time><extensions><speed>1.019985</speed><course>218.538010</course><hAcc>2.749091</hAcc><vAcc>0.382468</vAcc></extensions></trkpt>
      <trkpt lon="-3.050552" lat="52.705829"><ele>399.142273</ele><time>2022-01-15T10:12:52Z</time><extensions><speed>1.085338</speed><course>222.010971</course><hAcc>2.679204</hAcc><vAcc>0.383643</vAcc></extensions></trkpt>
      <trkpt lon="-3.050563" lat="52.705822"><ele>399.205475</ele><time>2022-01-15T10:12:53Z</time><extensions><speed>1.106282</speed><course>224.465652</course><hAcc>2.652148</hAcc><vAcc>0.385381</vAcc></extensions></trkpt>
      <trkpt lon="-3.050576" lat="52.705814"><ele>399.274628</ele><time>2022-01-15T10:12:54Z</time><extensions><speed>1.284054</speed><course>225.058273</course><hAcc>2.644645</hAcc><vAcc>0.387563</vAcc></extensions></trkpt>
      <trkpt lon="-3.050590" lat="52.705805"><ele>399.339874</ele><time>2022-01-15T10:12:55Z</time><extensions><speed>1.324516</speed><course>226.109833</course><hAcc>2.660192</hAcc><vAcc>0.389915</vAcc></extensions></trkpt>
      <trkpt lon="-3.050605" lat="52.705797"><ele>399.401001</ele><time>2022-01-15T10:12:56Z</time><extensions><speed>1.395677</speed><course>227.428680</course><hAcc>2.664717</hAcc><vAcc>0.392050</vAcc></extensions></trkpt>
      <trkpt lon="-3.050621" lat="52.705788"><ele>399.435760</ele><time>2022-01-15T10:12:57Z</time><extensions><speed>1.415502</speed><course>228.411957</course><hAcc>2.680376</hAcc><vAcc>0.393810</vAcc></extensions></trkpt>
      <trkpt lon="-3.050636" lat="52.705780"><ele>399.460083</ele><time>2022-01-15T10:12:58Z</time><extensions><speed>1.354566</speed><course>228.992538</course><hAcc>2.713030</hAcc><vAcc>0.395127</vAcc></extensions></trkpt>
      <trkpt lon="-3.050652" lat="52.705771"><ele>399.466553</ele><time>2022-01-15T10:12:59Z</time><extensions><speed>1.426707</speed><course>229.309341</course><hAcc>2.714281</hAcc><vAcc>0.396011</vAcc></extensions></trkpt>
      <trkpt lon="-3.050668" lat="52.705763"><ele>399.466064</ele><time>2022-01-15T10:13:00Z</time><extensions><speed>1.349663</speed><course>228.125885</course><hAcc>2.717963</hAcc><vAcc>0.396570</vAcc></extensions></trkpt>
      <trkpt lon="-3.050682" lat="52.705755"><ele>399.450195</ele><time>2022-01-15T10:13:01Z</time><extensions><speed>1.141500</speed><course>225.734589</course><hAcc>2.741733</hAcc><vAcc>0.396757</vAcc></extensions></trkpt>
      <trkpt lon="-3.050692" lat="52.705748"><ele>399.432556</ele><time>2022-01-15T10:13:02Z</time><extensions><speed>0.952177</speed><course>221.841751</course><hAcc>2.774808</hAcc><vAcc>0.396555</vAcc></extensions></trkpt>
      <trkpt lon="-3.050701" lat="52.705741"><ele>399.399048</ele><time>2022-01-15T10:13:03Z</time><extensions><speed>0.901453</speed><course>218.125565</course><hAcc>2.808455</hAcc><vAcc>0.395985</vAcc></extensions></trkpt>
      <trkpt lon="-3.050709" lat="52.705734"><ele>399.368805</ele><time>2022-01-15T10:13:04Z</time><extensions><speed>0.912289</speed><course>215.215683</course><hAcc>2.841899</hAcc><vAcc>0.395085</vAcc></extensions></trkpt>
      <trkpt lon="-3.050718" lat="52.705727"><ele>399.322021</ele><time>2022-01-15T10:13:05Z</time><extensions><speed>0.978400</speed><course>212.967361</course><hAcc>2.869081</hAcc><vAcc>0.393996</vAcc></extensions></trkpt>
      <trkpt lon="-3.050726" lat="52.705719"><ele>399.274536</ele><time>2022-01-15T10:13:06Z</time><extensions><speed>1.082511</speed><course>211.560532</course><hAcc>2.897727</hAcc><vAcc>0.392785</vAcc></extensions></trkpt>
      <trkpt lon="-3.050735" lat="52.705710"><ele>399.231049</ele><time>2022-01-15T10:13:07Z</time><extensions><speed>1.068801</speed><course>208.842316</course><hAcc>2.942151</hAcc><vAcc>0.391622</vAcc></extensions></trkpt>
      <trkpt lon="-3.050743" lat="52.705701"><ele>399.173767</ele><time>2022-01-15T10:13:08Z</time><extensions><speed>0.931951</speed><course>207.377884</course><hAcc>2.992727</hAcc><vAcc>0.390562</vAcc></extensions></trkpt>
      <trkpt lon="-3.050750" lat="52.705694"><ele>399.115112</ele><time>2022-01-15T10:13:09Z</time><extensions><speed>0.885086</speed><course>206.940628</course><hAcc>3.027293</hAcc><vAcc>0.389531</vAcc></extensions></trkpt>
      <trkpt lon="-3.050757" lat="52.705686"><ele>399.048767</ele><time>2022-01-15T10:13:10Z</time><extensions><speed>0.892250</speed><course>207.693329</course><hAcc>3.046995</hAcc><vAcc>0.388599</vAcc></extensions></trkpt>
      <trkpt lon="-3.050765" lat="52.705678"><ele>398.970093</ele><time>2022-01-15T10:13:11Z</time><extensions><speed>0.930992</speed><course>209.704453</course><hAcc>3.057057</hAcc><vAcc>0.387682</vAcc></extensions></trkpt>
      <trkpt lon="-3.050775" lat="52.705669"><ele>398.894135</ele><time>2022-01-15T10:13:12Z</time><extensions><speed>0.993779</speed><course>213.146912</course><hAcc>3.060201</hAcc><vAcc>0.386902</vAcc></extensions></trkpt>
      <trkpt lon="-3.050786" lat="52.705661"><ele>398.805878</ele><time>2022-01-15T10:13:13Z</time><extensions><speed>1.044427</speed><course>217.276520</course><hAcc>3.063997</hAcc><vAcc>0.386389</vAcc></extensions></trkpt>
      <trkpt lon="-3.050798" lat="52.705653"><ele>398.730988</ele><time>2022-01-15T10:13:14Z</time><extensions><speed>1.026501</speed><course>220.953049</course><hAcc>3.082263</hAcc><vAcc>0.386275</vAcc></extensions></trkpt>
      <trkpt lon="-3.050810" lat="52.705646"><ele>398.659424</ele><time>2022-01-15T10:13:15Z</time><extensions><speed>0.898755</speed><course>224.247574</course><hAcc>3.108577</hAcc><vAcc>0.386694</vAcc></extensions></trkpt>
      <trkpt lon="-3.050821" lat="52.705640"><ele>398.576691</ele><time>2022-01-15T10:13:16Z</time><extensions><speed>0.876398</speed><course>227.344116</course><hAcc>3.101950</hAcc><vAcc>0.387708</vAcc></extensions></trkpt>
      <trkpt lon="-3.050832" lat="52.705634"><ele>398.522736</ele><time>2022-01-15T10:13:17Z</time><extensions><speed>0.913375</speed><course>230.244781</course><hAcc>3.071230</hAcc><vAcc>0.389412</vAcc></extensions></trkpt>
      <trkpt lon="-3.050844" lat="52.705629"><ele>398.470459</ele><time>2022-01-15T10:13:18Z</time><extensions><speed>0.950944</speed><course>232.979126</course><hAcc>3.030621</hAcc><vAcc>0.391688</vAcc></extensions></trkpt>
      <trkpt lon="-3.050857" lat="52.705624"><ele>398.451111</ele><time>2022-01-15T10:13:19Z</time><extensions><speed>0.979532</speed><course>235.506775</course><hAcc>2.991842</hAcc><vAcc>0.394326</vAcc></extensions></trkpt>
      <trkpt lon="-3.050870" lat="52.705619"><ele>398.440155</ele><time>2022-01-15T10:13:20Z</time><extensions><speed>0.973445</speed><course>238.466476</course><hAcc>2.956915</hAcc><vAcc>0.396905</vAcc></extensions></trkpt>
      <trkpt lon="-3.050883" lat="52.705614"><ele>398.449921</ele><time>2022-01-15T10:13:21Z</time><extensions><speed>0.993389</speed><course>242.268066</course><hAcc>2.914914</hAcc><vAcc>0.398950</vAcc></extensions></trkpt>
      <trkpt lon="-3.050897" lat="52.705610"><ele>398.471527</ele><time>2022-01-15T10:13:22Z</time><extensions><speed>1.080815</speed><course>246.704514</course><hAcc>2.852165</hAcc><vAcc>0.400208</vAcc></extensions></trkpt>
      <trkpt lon="-3.050915" lat="52.705607"><ele>398.509064</ele><time>2022-01-15T10:13:23Z</time><extensions><speed>1.326347</speed><course>251.181259</course><hAcc>2.761288</hAcc><vAcc>0.400787</vAcc></extensions></trkpt>
      <trkpt lon="-3.050934" lat="52.705603"><ele>398.553406</ele><time>2022-01-15T10:13:24Z</time><extensions><speed>1.416031</speed><course>252.963837</course><hAcc>2.678669</hAcc><vAcc>0.401042</vAcc></extensions></trkpt>
      <trkpt lon="-3.050955" lat="52.705599"><ele>398.602448</ele><time>2022-01-15T10:13:25Z</time><extensions><speed>1.364873</speed><course>254.726913</course><hAcc>2.624628</hAcc><vAcc>0.401400</vAcc></extensions></trkpt>
      <trkpt lon="-3.050975" lat="52.705597"><ele>398.655548</ele><time>2022-01-15T10:13:26Z</time><extensions><speed>1.393975</speed><course>257.990051</course><hAcc>2.582771</hAcc><vAcc>0.402243</vAcc></extensions></trkpt>
      <trkpt lon="-3.050996" lat="52.705594"><ele>398.709320</ele><time>2022-01-15T10:13:27Z</time><extensions><speed>1.471575</speed><course>262.151398</course><hAcc>2.530547</hAcc><vAcc>0.403877</vAcc></extensions></trkpt>
      <trkpt lon="-3.051018" lat="52.705593"><ele>398.757263</ele><time>2022-01-15T10:13:28Z</time><extensions><speed>1.429790</speed><course>265.814026</course><hAcc>2.493578</hAcc><vAcc>0.406503</vAcc></extensions></trkpt>
      <trkpt lon="-3.051039" lat="52.705592"><ele>398.801056</ele><time>2022-01-15T10:13:29Z</time><extensions><speed>1.410328</speed><course>267.976044</course><hAcc>2.443908</hAcc><vAcc>0.409969</vAcc></extensions></trkpt>
      <trkpt lon="-3.051059" lat="52.705592"><ele>398.838898</ele><time>2022-01-15T10:13:30Z</time><extensions><speed>1.326776</speed><course>270.081451</course><hAcc>2.409873</hAcc><vAcc>0.413617</vAcc></extensions></trkpt>
      <trkpt lon="-3.051078" lat="52.705592"><ele>398.872925</ele><time>2022-01-15T10:13:31Z</time><extensions><speed>1.153620</speed><course>273.101227</course><hAcc>2.389887</hAcc><vAcc>0.416643</vAcc></extensions></trkpt>
      <trkpt lon="-3.051093" lat="52.705593"><ele>398.891022</ele><time>2022-01-15T10:13:32Z</time><extensions><speed>0.959535</speed><course>275.520203</course><hAcc>2.390297</hAcc><vAcc>0.418217</vAcc></extensions></trkpt>
      <trkpt lon="-3.051105" lat="52.705594"><ele>398.905975</ele><time>2022-01-15T10:13:33Z</time><extensions><speed>0.678481</speed><course>277.062317</course><hAcc>2.420098</hAcc><vAcc>0.417855</vAcc></extensions></trkpt>
      <trkpt lon="-3.051115" lat="52.705595"><ele>398.942993</ele><time>2022-01-15T10:13:34Z</time><extensions><speed>0.598103</speed><course>276.842346</course><hAcc>2.438963</hAcc><vAcc>0.415670</vAcc></extensions></trkpt>
      <trkpt lon="-3.051123" lat="52.705595"><ele>398.970947</ele><time>2022-01-15T10:13:35Z</time><extensions><speed>0.551431</speed><course>274.796112</course><hAcc>2.465049</hAcc><vAcc>0.411985</vAcc></extensions></trkpt>
      <trkpt lon="-3.051131" lat="52.705595"><ele>398.994720</ele><time>2022-01-15T10:13:36Z</time><extensions><speed>0.519924</speed><course>272.508331</course><hAcc>2.504024</hAcc><vAcc>0.407347</vAcc></extensions></trkpt>
      <trkpt lon="-3.051139" lat="52.705595"><ele>399.018921</ele><time>2022-01-15T10:13:37Z</time><extensions><speed>0.482438</speed><course>271.233459</course><hAcc>2.554252</hAcc><vAcc>0.402271</vAcc></extensions></trkpt>
      <trkpt lon="-3.051146" lat="52.705595"><ele>399.017944</ele><time>2022-01-15T10:13:38Z</time><extensions><speed>0.448913</speed><course>270.097260</course><hAcc>2.608806</hAcc><vAcc>0.397328</vAcc></extensions></trkpt>
      <trkpt lon="-3.051153" lat="52.705595"><ele>399.027893</ele><time>2022-01-15T10:13:39Z</time><extensions><speed>0.449387</speed><course>268.156097</course><hAcc>2.657032</hAcc><vAcc>0.393047</vAcc></extensions></trkpt>
      <trkpt lon="-3.051160" lat="52.705595"><ele>399.035583</ele><time>2022-01-15T10:13:40Z</time><extensions><speed>0.479547</speed><course>266.379333</course><hAcc>2.693584</hAcc><vAcc>0.389705</vAcc></extensions></trkpt>
      <trkpt lon="-3.051168" lat="52.705595"><ele>399.049683</ele><time>2022-01-15T10:13:41Z</time><extensions><speed>0.550610</speed><course>265.618896</course><hAcc>2.707450</hAcc><vAcc>0.387381</vAcc></extensions></trkpt>
      <trkpt lon="-3.051178" lat="52.705594"><ele>399.058472</ele><time>2022-01-15T10:13:42Z</time><extensions><speed>0.691128</speed><course>265.734894</course><hAcc>2.695281</hAcc><vAcc>0.386200</vAcc></extensions></trkpt>
      <trkpt lon="-3.051188" lat="52.705594"><ele>399.056396</ele><time>2022-01-15T10:13:43Z</time><extensions><speed>0.749680</speed><course>265.525330</course><hAcc>2.679290</hAcc><vAcc>0.386224</vAcc></extensions></trkpt>
      <trkpt lon="-3.051200" lat="52.705593"><ele>399.052917</ele><time>2022-01-15T10:13:44Z</time><extensions><speed>0.758726</speed><course>263.617096</course><hAcc>2.657807</hAcc><vAcc>0.387482</vAcc></extensions></trkpt>
      <trkpt lon="-3.051211" lat="52.705592"><ele>399.046753</ele><time>2022-01-15T10:13:45Z</time><extensions><speed>0.731481</speed><course>259.794586</course><hAcc>2.632391</hAcc><vAcc>0.389864</vAcc></extensions></trkpt>
      <trkpt lon="-3.051221" lat="52.705590"><ele>399.046997</ele><time>2022-01-15T10:13:46Z</time><extensions><speed>0.633066</speed><course>255.182602</course><hAcc>2.615870</hAcc><vAcc>0.393081</vAcc></extensions></trkpt>
      <trkpt lon="-3.051231" lat="52.705589"><ele>399.047333</ele><time>2022-01-15T10:13:47Z</time><extensions><speed>0.678187</speed><course>253.293396</course><hAcc>2.585700</hAcc><vAcc>0.396796</vAcc></extensions></trkpt>
      <trkpt lon="-3.051242" lat="52.705587"><ele>399.055969</ele><time>2022-01-15T10:13:48Z</time><extensions><speed>0.764424</speed><course>253.549591</course><hAcc>2.562591</hAcc><vAcc>0.400831</vAcc></extensions></trkpt>
      <trkpt lon="-3.051253" lat="52.705585"><ele>399.056824</ele><time>2022-01-15T10:13:49Z</time><extensions><speed>0.716380</speed><course>254.484543</course><hAcc>2.559054</hAcc><vAcc>0.405295</vAcc></extensions></trkpt>
      <trkpt lon="-3.051264" lat="52.705583"><ele>399.066132</ele><time>2022-01-15T10:13:50Z</time><extensions><speed>0.737546</speed><course>255.124100</course><hAcc>2.544004</hAcc><vAcc>0.410529</vAcc></extensions></trkpt>
      <trkpt lon="-3.051275" lat="52.705581"><ele>399.072418</ele><time>2022-01-15T10:13:51Z</time><extensions><speed>0.787124</speed><course>254.821014</course><hAcc>2.515231</hAcc><vAcc>0.416885</vAcc></extensions></trkpt>
      <trkpt lon="-3.051287" lat="52.705579"><ele>399.076080</ele><time>2022-01-15T10:13:52Z</time><extensions><speed>0.856934</speed><course>254.088638</course><hAcc>2.486245</hAcc><vAcc>0.424561</vAcc></extensions></trkpt>
      <trkpt lon="-3.051299" lat="52.705577"><ele>399.078888</ele><time>2022-01-15T10:13:53Z</time><extensions><speed>0.969902</speed><course>253.707138</course><hAcc>2.453725</hAcc><vAcc>0.433522</vAcc></extensions></trkpt>
      <trkpt lon="-3.051313" lat="52.705575"><ele>399.078613</ele><time>2022-01-15T10:13:54Z</time><extensions><speed>1.050336</speed><course>254.531250</course><hAcc>2.368315</hAcc><vAcc>0.443585</vAcc></extensions></trkpt>
      <trkpt lon="-3.051328" lat="52.705572"><ele>399.074799</ele><time>2022-01-15T10:13:55Z</time><extensions><speed>1.062875</speed><course>255.962845</course><hAcc>2.271389</hAcc><vAcc>0.454604</vAcc></extensions></trkpt>
      <trkpt lon="-3.051343" lat="52.705570"><ele>399.068024</ele><time>2022-01-15T10:13:56Z</time><extensions><speed>1.013964</speed><course>256.329285</course><hAcc>2.222914</hAcc><vAcc>0.466663</vAcc></extensions></trkpt>
      <trkpt lon="-3.051356" lat="52.705568"><ele>399.057434</ele><time>2022-01-15T10:13:57Z</time><extensions><speed>0.839986</speed><course>256.564728</course><hAcc>2.219259</hAcc><vAcc>0.480094</vAcc></extensions></trkpt>
      <trkpt lon="-3.051367" lat="52.705567"><ele>399.043488</ele><time>2022-01-15T10:13:58Z</time><extensions><speed>0.677878</speed><course>256.817078</course><hAcc>2.118354</hAcc><vAcc>0.495313</vAcc></extensions></trkpt>
      <trkpt lon="-3.051375" lat="52.705566"><ele>399.026428</ele><time>2022-01-15T10:13:59Z</time><extensions><speed>0.453578</speed><course>258.922729</course><hAcc>2.026729</hAcc><vAcc>0.512667</vAcc></extensions></trkpt>
      <trkpt lon="-3.051380" lat="52.705565"><ele>399.006622</ele><time>2022-01-15T10:14:00Z</time><extensions><speed>0.147913</speed><course>262.634918</course><hAcc>1.994527</hAcc><vAcc>0.532301</vAcc></extensions></trkpt>
      <trkpt lon="-3.051381" lat="52.705566"><ele>398.985107</ele><time>2022-01-15T10:14:01Z</time><extensions><speed>0.032865</speed><course>289.340118</course><hAcc>1.944820</hAcc><vAcc>0.554013</vAcc></extensions></trkpt>
      <trkpt lon="-3.051381" lat="52.705566"><ele>398.963226</ele><time>2022-01-15T10:14:02Z</time><extensions><speed>0.035076</speed><course>38.663761</course><hAcc>1.889661</hAcc><vAcc>0.577022</vAcc></extensions></trkpt>
      <trkpt lon="-3.051381" lat="52.705566"><ele>398.941650</ele><time>2022-01-15T10:14:03Z</time><extensions><speed>0.056683</speed><course>46.002792</course><hAcc>1.835236</hAcc><vAcc>0.600087</vAcc></extensions></trkpt>
      <trkpt lon="-3.051380" lat="52.705567"><ele>398.915558</ele><time>2022-01-15T10:14:04Z</time><extensions><speed>0.077403</speed><course>36.902458</course><hAcc>1.780318</hAcc><vAcc>0.621949</vAcc></extensions></trkpt>
      <trkpt lon="-3.051378" lat="52.705568"><ele>398.887299</ele><time>2022-01-15T10:14:05Z</time><extensions><speed>0.096119</speed><course>27.935064</course><hAcc>1.732126</hAcc><vAcc>0.641495</vAcc></extensions></trkpt>
      <trkpt lon="-3.051378" lat="52.705569"><ele>398.852478</ele><time>2022-01-15T10:14:06Z</time><extensions><speed>0.112023</speed><course>23.267260</course><hAcc>1.689452</hAcc><vAcc>0.658095</vAcc></extensions></trkpt>
      <trkpt lon="-3.051377" lat="52.705570"><ele>398.817780</ele><time>2022-01-15T10:14:07Z</time><extensions><speed>0.114206</speed><course>20.855904</course><hAcc>1.656642</hAcc><vAcc>0.671867</vAcc></extensions></trkpt>
      <trkpt lon="-3.051376" lat="52.705571"><ele>398.776062</ele><time>2022-01-15T10:14:08Z</time><extensions><speed>0.108403</speed><course>22.218157</course><hAcc>1.634302</hAcc><vAcc>0.682815</vAcc></extensions></trkpt>
      <trkpt lon="-3.051376" lat="52.705572"><ele>398.736633</ele><time>2022-01-15T10:14:09Z</time><extensions><speed>0.109860</speed><course>22.463484</course><hAcc>1.615523</hAcc><vAcc>0.691134</vAcc></extensions></trkpt>
      <trkpt lon="-3.051375" lat="52.705573"><ele>398.698944</ele><time>2022-01-15T10:14:10Z</time><extensions><speed>0.111903</speed><course>23.684784</course><hAcc>1.606741</hAcc><vAcc>0.697128</vAcc></extensions></trkpt>
      <trkpt lon="-3.051375" lat="52.705574"><ele>398.663879</ele><time>2022-01-15T10:14:11Z</time><extensions><speed>0.121115</speed><course>23.996197</course><hAcc>1.604477</hAcc><vAcc>0.701188</vAcc></extensions></trkpt>
      <trkpt lon="-3.051374" lat="52.705575"><ele>398.629761</ele><time>2022-01-15T10:14:12Z</time><extensions><speed>0.138143</speed><course>24.154963</course><hAcc>1.607036</hAcc><vAcc>0.703671</vAcc></extensions></trkpt>
      <trkpt lon="-3.051373" lat="52.705576"><ele>398.605011</ele><time>2022-01-15T10:14:13Z</time><extensions><speed>0.158959</speed><course>23.442278</course><hAcc>1.615823</hAcc><vAcc>0.704731</vAcc></extensions></trkpt>
      <trkpt lon="-3.051373" lat="52.705577"><ele>398.590546</ele><time>2022-01-15T10:14:14Z</time><extensions><speed>0.140131</speed><course>18.577106</course><hAcc>1.637616</hAcc><vAcc>0.704683</vAcc></extensions></trkpt>
      <trkpt lon="-3.051372" lat="52.705579"><ele>398.578552</ele><time>2022-01-15T10:14:15Z</time><extensions><speed>0.131039</speed><course>4.188279</course><hAcc>1.649926</hAcc><vAcc>0.704122</vAcc></extensions></trkpt>
      <trkpt lon="-3.051373" lat="52.705580"><ele>398.557495</ele><time>2022-01-15T10:14:16Z</time><extensions><speed>0.118331</speed><course>337.264679</course><hAcc>1.684846</hAcc><vAcc>0.703064</vAcc></extensions></trkpt>
      <trkpt lon="-3.051374" lat="52.705581"><ele>398.534027</ele><time>2022-01-15T10:14:17Z</time><extensions><speed>0.148333</speed><course>310.659790</course><hAcc>1.728541</hAcc><vAcc>0.701816</vAcc></extensions></trkpt>
      <trkpt lon="-3.051376" lat="52.705582"><ele>398.517731</ele><time>2022-01-15T10:14:18Z</time><extensions><speed>0.251436</speed><course>296.381317</course><hAcc>1.758255</hAcc><vAcc>0.700339</vAcc></extensions></trkpt>
      <trkpt lon="-3.051381" lat="52.705583"><ele>398.501007</ele><time>2022-01-15T10:14:19Z</time><extensions><speed>0.476525</speed><course>291.025421</course><hAcc>1.771092</hAcc><vAcc>0.698696</vAcc></extensions></trkpt>
      <trkpt lon="-3.051388" lat="52.705585"><ele>398.490784</ele><time>2022-01-15T10:14:20Z</time><extensions><speed>0.503414</speed><course>291.711914</course><hAcc>1.838538</hAcc><vAcc>0.697038</vAcc></extensions></trkpt>
      <trkpt lon="-3.051394" lat="52.705586"><ele>398.475403</ele><time>2022-01-15T10:14:21Z</time><extensions><speed>0.435871</speed><course>301.199066</course><hAcc>1.931524</hAcc><vAcc>0.695579</vAcc></extensions></trkpt>
      <trkpt lon="-3.051400" lat="52.705589"><ele>398.456787</ele><time>2022-01-15T10:14:22Z</time><extensions><speed>0.514032</speed><course>308.322510</course><hAcc>1.978152</hAcc><vAcc>0.694625</vAcc></extensions></trkpt>
      <trkpt lon="-3.051407" lat="52.705592"><ele>398.435150</ele><time>2022-01-15T10:14:23Z</time><extensions><speed>0.705973</speed><course>311.495331</course><hAcc>1.989296</hAcc><vAcc>0.694546</vAcc></extensions></trkpt>
      <trkpt lon="-3.051415" lat="52.705597"><ele>398.411346</ele><time>2022-01-15T10:14:24Z</time><extensions><speed>0.783710</speed><course>315.077026</course><hAcc>2.002874</hAcc><vAcc>0.695728</vAcc></extensions></trkpt>
      <trkpt lon="-3.051423" lat="52.705602"><ele>398.383179</ele><time>2022-01-15T10:14:25Z</time><extensions><speed>0.768826</speed><course>318.906860</course><hAcc>2.010378</hAcc><vAcc>0.698296</vAcc></extensions></trkpt>
      <trkpt lon="-3.051429" lat="52.705607"><ele>398.350037</ele><time>2022-01-15T10:14:26Z</time><extensions><speed>0.678509</speed><course>326.106903</course><hAcc>2.001294</hAcc><vAcc>0.702155</vAcc></extensions></trkpt>
      <trkpt lon="-3.051434" lat="52.705612"><ele>398.313171</ele><time>2022-01-15T10:14:27Z</time><extensions><speed>0.549042</speed><course>332.677979</course><hAcc>1.995204</hAcc><vAcc>0.706954</vAcc></extensions></trkpt>
      <trkpt lon="-3.051437" lat="52.705616"><ele>398.271881</ele><time>2022-01-15T10:14:28Z</time><extensions><speed>0.314999</speed><course>336.110474</course><hAcc>1.971531</hAcc><vAcc>0.712324</vAcc></extensions></trkpt>
      <trkpt lon="-3.051438" lat="52.705618"><ele>398.225342</ele><time>2022-01-15T10:14:29Z</time><extensions><speed>0.266459</speed><course>336.909271</course><hAcc>1.922138</hAcc><vAcc>0.717802</vAcc></extensions></trkpt>
      <trkpt lon="-3.051440" lat="52.705620"><ele>398.177887</ele><time>2022-01-15T10:14:30Z</time><extensions><speed>0.263648</speed><course>338.089447</course><hAcc>1.883777</hAcc><vAcc>0.722970</vAcc></extensions></trkpt>
      <trkpt lon="-3.051441" lat="52.705622"><ele>398.123413</ele><time>2022-01-15T10:14:31Z</time><extensions><speed>0.291457</speed><course>342.052338</course><hAcc>1.859777</hAcc><vAcc>0.727775</vAcc></extensions></trkpt>
      <trkpt lon="-3.051442" lat="52.705625"><ele>398.066010</ele><time>2022-01-15T10:14:32Z</time><extensions><speed>0.179099</speed><course>349.729523</course><hAcc>1.855500</hAcc><vAcc>0.732139</vAcc></extensions></trkpt>
      <trkpt lon="-3.051442" lat="52.705626"><ele>398.016113</ele><time>2022-01-15T10:14:33Z</time><extensions><speed>0.118254</speed><course>2.348298</course><hAcc>1.844216</hAcc><vAcc>0.736067</vAcc></extensions></trkpt>
      <trkpt lon="-3.051442" lat="52.705627"><ele>397.960754</ele><time>2022-01-15T10:14:34Z</time><extensions><speed>0.088932</speed><course>18.277721</course><hAcc>1.832606</hAcc><vAcc>0.739754</vAcc></extensions></trkpt>
      <trkpt lon="-3.051442" lat="52.705627"><ele>397.911407</ele><time>2022-01-15T10:14:35Z</time><extensions><speed>0.079702</speed><course>33.347824</course><hAcc>1.829083</hAcc><vAcc>0.743169</vAcc></extensions></trkpt>
      <trkpt lon="-3.051441" lat="52.705628"><ele>397.859894</ele><time>2022-01-15T10:14:36Z</time><extensions><speed>0.071071</speed><course>40.321701</course><hAcc>1.834541</hAcc><vAcc>0.746332</vAcc></extensions></trkpt>
      <trkpt lon="-3.051440" lat="52.705628"><ele>397.809662</ele><time>2022-01-15T10:14:37Z</time><extensions><speed>0.068433</speed><course>39.529751</course><hAcc>1.820216</hAcc><vAcc>0.749240</vAcc></extensions></trkpt>
      <trkpt lon="-3.051440" lat="52.705629"><ele>397.761292</ele><time>2022-01-15T10:14:38Z</time><extensions><speed>0.054729</speed><course>32.440025</course><hAcc>1.813932</hAcc><vAcc>0.751970</vAcc></extensions></trkpt>
      <trkpt lon="-3.051439" lat="52.705629"><ele>397.715393</ele><time>2022-01-15T10:14:39Z</time><extensions><speed>0.041477</speed><course>16.884876</course><hAcc>1.815102</hAcc><vAcc>0.754621</vAcc></extensions></trkpt>
      <trkpt lon="-3.051439" lat="52.705630"><ele>397.672516</ele><time>2022-01-15T10:14:40Z</time><extensions><speed>0.041889</speed><course>357.947174</course><hAcc>1.817279</hAcc><vAcc>0.757330</vAcc></extensions></trkpt>
      <trkpt lon="-3.051440" lat="52.705630"><ele>397.633240</ele><time>2022-01-15T10:14:41Z</time><extensions><speed>0.054778</speed><course>346.714081</course><hAcc>1.818610</hAcc><vAcc>0.760220</vAcc></extensions></trkpt>
      <trkpt lon="-3.051440" lat="52.705631"><ele>397.585083</ele><time>2022-01-15T10:14:42Z</time><extensions><speed>0.075434</speed><course>342.973480</course><hAcc>1.804480</hAcc><vAcc>0.763361</vAcc></extensions></trkpt>
      <trkpt lon="-3.051440" lat="52.705631"><ele>397.530975</ele><time>2022-01-15T10:14:43Z</time><extensions><speed>0.089022</speed><course>338.728577</course><hAcc>1.787668</hAcc><vAcc>0.766722</vAcc></extensions></trkpt>
      <trkpt lon="-3.051441" lat="52.705632"><ele>397.488861</ele><time>2022-01-15T10:14:44Z</time><extensions><speed>0.088768</speed><course>331.561432</course><hAcc>1.775045</hAcc><vAcc>0.770239</vAcc></extensions></trkpt>
      <trkpt lon="-3.051441" lat="52.705633"><ele>397.453156</ele><time>2022-01-15T10:14:45Z</time><extensions><speed>0.077265</speed><course>325.815796</course><hAcc>1.779663</hAcc><vAcc>0.773788</vAcc></extensions></trkpt>
      <trkpt lon="-3.051442" lat="52.705633"><ele>397.413727</ele><time>2022-01-15T10:14:46Z</time><extensions><speed>0.050791</speed><course>319.603973</course><hAcc>1.799870</hAcc><vAcc>0.777265</vAcc></extensions></trkpt>
      <trkpt lon="-3.051443" lat="52.705633"><ele>397.376556</ele><time>2022-01-15T10:14:47Z</time><extensions><speed>0.051293</speed><course>306.474640</course><hAcc>1.766185</hAcc><vAcc>0.780549</vAcc></extensions></trkpt>
      <trkpt lon="-3.051443" lat="52.705634"><ele>397.341858</ele><time>2022-01-15T10:14:48Z</time><extensions><speed>0.051937</speed><course>287.749817</course><hAcc>1.750736</hAcc><vAcc>0.783547</vAcc></extensions></trkpt>
      <trkpt lon="-3.051444" lat="52.705634"><ele>397.313812</ele><time>2022-01-15T10:14:49Z</time><extensions><speed>0.064064</speed><course>269.966156</course><hAcc>1.755587</hAcc><vAcc>0.786210</vAcc></extensions></trkpt>
      <trkpt lon="-3.051445" lat="52.705634"><ele>397.285217</ele><time>2022-01-15T10:14:50Z</time><extensions><speed>0.089209</speed><course>261.216705</course><hAcc>1.767256</hAcc><vAcc>0.788535</vAcc></extensions></trkpt>
      <trkpt lon="-3.051447" lat="52.705634"><ele>397.261505</ele><time>2022-01-15T10:14:51Z</time><extensions><speed>0.131778</speed><course>261.219299</course><hAcc>1.779362</hAcc><vAcc>0.790476</vAcc></extensions></trkpt>
      <trkpt lon="-3.051449" lat="52.705633"><ele>397.249237</ele><time>2022-01-15T10:14:52Z</time><extensions><speed>0.199879</speed><course>266.520142</course><hAcc>1.785973</hAcc><vAcc>0.792086</vAcc></extensions></trkpt>
      <trkpt lon="-3.051453" lat="52.705633"><ele>397.242310</ele><time>2022-01-15T10:14:53Z</time><extensions><speed>0.313376</speed><course>274.143372</course><hAcc>1.785620</hAcc><vAcc>0.793397</vAcc></extensions></trkpt>
      <trkpt lon="-3.051459" lat="52.705634"><ele>397.236877</ele><time>2022-01-15T10:14:54Z</time><extensions><speed>0.500603</speed><course>281.791901</course><hAcc>1.785635</hAcc><vAcc>0.794473</vAcc></extensions></trkpt>
      <trkpt lon="-3.051467" lat="52.705635"><ele>397.237640</ele><time>2022-01-15T10:14:55Z</time><extensions><speed>0.577481</speed><course>284.273895</course><hAcc>1.792271</hAcc><vAcc>0.795356</vAcc></extensions></trkpt>
      <trkpt lon="-3.051475" lat="52.705637"><ele>397.242981</ele><time>2022-01-15T10:14:56Z</time><extensions><speed>0.532215</speed><course>288.389862</course><hAcc>1.793374</hAcc><vAcc>0.796106</vAcc></extensions></trkpt>
      <trkpt lon="-3.051481" lat="52.705638"><ele>397.250366</ele><time>2022-01-15T10:14:57Z</time><extensions><speed>0.355788</speed><course>291.500183</course><hAcc>1.789462</hAcc><vAcc>0.796770</vAcc></extensions></trkpt>
      <trkpt lon="-3.051484" lat="52.705639"><ele>397.262207</ele><time>2022-01-15T10:14:58Z</time><extensions><speed>0.171104</speed><course>303.847290</course><hAcc>1.794956</hAcc><vAcc>0.797368</vAcc></extensions></trkpt>
      <trkpt lon="-3.051486" lat="52.705640"><ele>397.272675</ele><time>2022-01-15T10:14:59Z</time><extensions><speed>0.150913</speed><course>324.794617</course><hAcc>1.788179</hAcc><vAcc>0.797889</vAcc></extensions></trkpt>
      <trkpt lon="-3.051488" lat="52.705641"><ele>397.283691</ele><time>2022-01-15T10:15:00Z</time><extensions><speed>0.219702</speed><course>329.019562</course><hAcc>1.778600</hAcc><vAcc>0.798372</vAcc></extensions></trkpt>
      <trkpt lon="-3.051490" lat="52.705643"><ele>397.289185</ele><time>2022-01-15T10:15:01Z</time><extensions><speed>0.352302</speed><course>325.923157</course><hAcc>1.771233</hAcc><vAcc>0.798831</vAcc></extensions></trkpt>
      <trkpt lon="-3.051494" lat="52.705647"><ele>397.294220</ele><time>2022-01-15T10:15:02Z</time><extensions><speed>0.552441</speed><course>323.761108</course><hAcc>1.767412</hAcc><vAcc>0.799293</vAcc></extensions></trkpt>
      <trkpt lon="-3.051498" lat="52.705651"><ele>397.308197</ele><time>2022-01-15T10:15:03Z</time><extensions><speed>0.493458</speed><course>325.704865</course><hAcc>1.754342</hAcc><vAcc>0.799749</vAcc></extensions></trkpt>
      <trkpt lon="-3.051502" lat="52.705654"><ele>397.314087</ele><time>2022-01-15T10:15:04Z</time><extensions><speed>0.375097</speed><course>324.233521</course><hAcc>1.746957</hAcc><vAcc>0.800192</vAcc></extensions></trkpt>
      <trkpt lon="-3.051505" lat="52.705657"><ele>397.317780</ele><time>2022-01-15T10:15:05Z</time><extensions><speed>0.403926</speed><course>325.209381</course><hAcc>1.754072</hAcc><vAcc>0.800573</vAcc></extensions></trkpt>
      <trkpt lon="-3.051508" lat="52.705659"><ele>397.316010</ele><time>2022-01-15T10:15:06Z</time><extensions><speed>0.153531</speed><course>319.235138</course><hAcc>1.759492</hAcc><vAcc>0.800829</vAcc></extensions></trkpt>
      <trkpt lon="-3.051509" lat="52.705659"><ele>397.311401</ele><time>2022-01-15T10:15:07Z</time><extensions><speed>0.060127</speed><course>297.217560</course><hAcc>1.745091</hAcc><vAcc>0.800916</vAcc></extensions></trkpt>
      <trkpt lon="-3.051510" lat="52.705659"><ele>397.298462</ele><time>2022-01-15T10:15:08Z</time><extensions><speed>0.041764</speed><course>260.503601</course><hAcc>1.738865</hAcc><vAcc>0.800884</vAcc></extensions></trkpt>
      <trkpt lon="-3.051510" lat="52.705659"><ele>397.282288</ele><time>2022-01-15T10:15:09Z</time><extensions><speed>0.054073</speed><course>252.529755</course><hAcc>1.746869</hAcc><vAcc>0.800688</vAcc></extensions></trkpt>
      <trkpt lon="-3.051511" lat="52.705659"><ele>397.255554</ele><time>2022-01-15T10:15:10Z</time><extensions><speed>0.078279</speed><course>252.220505</course><hAcc>1.756031</hAcc><vAcc>0.800189</vAcc></extensions></trkpt>
      <trkpt lon="-3.051512" lat="52.705659"><ele>397.220337</ele><time>2022-01-15T10:15:11Z</time><extensions><speed>0.100205</speed><course>250.241638</course><hAcc>1.765486</hAcc><vAcc>0.799562</vAcc></extensions></trkpt>
      <trkpt lon="-3.051514" lat="52.705658"><ele>397.177582</ele><time>2022-01-15T10:15:12Z</time><extensions><speed>0.109495</speed><course>247.289215</course><hAcc>1.771714</hAcc><vAcc>0.798593</vAcc></extensions></trkpt>
      <trkpt lon="-3.051515" lat="52.705658"><ele>397.128387</ele><time>2022-01-15T10:15:13Z</time><extensions><speed>0.089965</speed><course>248.584442</course><hAcc>1.775071</hAcc><vAcc>0.797258</vAcc></extensions></trkpt>
      <trkpt lon="-3.051516" lat="52.705658"><ele>397.076263</ele><time>2022-01-15T10:15:14Z</time><extensions><speed>0.051507</speed><course>253.881012</course><hAcc>1.777135</hAcc><vAcc>0.795641</vAcc></extensions></trkpt>
      <trkpt lon="-3.051517" lat="52.705658"><ele>397.015717</ele><time>2022-01-15T10:15:15Z</time><extensions><speed>0.012822</speed><course>252.863892</course><hAcc>1.782469</hAcc><vAcc>0.793696</vAcc></extensions></trkpt>
      <trkpt lon="-3.051517" lat="52.705658"><ele>396.958160</ele><time>2022-01-15T10:15:16Z</time><extensions><speed>0.019059</speed><course>95.384476</course><hAcc>1.787543</hAcc><vAcc>0.791466</vAcc></extensions></trkpt>
      <trkpt lon="-3.051516" lat="52.705658"><ele>396.894104</ele><time>2022-01-15T10:15:17Z</time><extensions><speed>0.042531</speed><course>98.341522</course><hAcc>1.791723</hAcc><vAcc>0.788843</vAcc></extensions></trkpt>
      <trkpt lon="-3.051516" lat="52.705658"><ele>396.826996</ele><time>2022-01-15T10:15:18Z</time><extensions><speed>0.057236</speed><course>101.152603</course><hAcc>1.799172</hAcc><vAcc>0.786030</vAcc></extensions></trkpt>
      <trkpt lon="-3.051515" lat="52.705658"><ele>396.764526</ele><time>2022-01-15T10:15:19Z</time><extensions><speed>0.062393</speed><course>97.470444</course><hAcc>1.802784</hAcc><vAcc>0.782994</vAcc></extensions></trkpt>
      <trkpt lon="-3.051514" lat="52.705658"><ele>396.696869</ele><time>2022-01-15T10:15:20Z</time><extensions><speed>0.053904</speed><course>69.360519</course><hAcc>1.808017</hAcc><vAcc>0.779772</vAcc></extensions></trkpt>
      <trkpt lon="-3.051513" lat="52.705658"><ele>396.633820</ele><time>2022-01-15T10:15:21Z</time><extensions><speed>0.072500</speed><course>14.079557</course><hAcc>1.819993</hAcc><vAcc>0.776572</vAcc></extensions></trkpt>
      <trkpt lon="-3.051513" lat="52.705659"><ele>396.573639</ele><time>2022-01-15T10:15:22Z</time><extensions><speed>0.140936</speed><course>348.661530</course><hAcc>1.821831</hAcc><vAcc>0.773470</vAcc></extensions></trkpt>
      <trkpt lon="-3.051514" lat="52.705661"><ele>396.515930</ele><time>2022-01-15T10:15:23Z</time><extensions><speed>0.214044</speed><course>338.854309</course><hAcc>1.827452</hAcc><vAcc>0.770534</vAcc></extensions></trkpt>
      <trkpt lon="-3.051516" lat="52.705663"><ele>396.459686</ele><time>2022-01-15T10:15:24Z</time><extensions><speed>0.268395</speed><course>334.282837</course><hAcc>1.835081</hAcc><vAcc>0.767777</vAcc></extensions></trkpt>
      <trkpt lon="-3.051518" lat="52.705665"><ele>396.407623</ele><time>2022-01-15T10:15:25Z</time><extensions><speed>0.300163</speed><course>331.217682</course><hAcc>1.838738</hAcc><vAcc>0.765257</vAcc></extensions></trkpt>
      <trkpt lon="-3.051520" lat="52.705667"><ele>396.359955</ele><time>2022-01-15T10:15:26Z</time><extensions><speed>0.309605</speed><course>328.147095</course><hAcc>1.838511</hAcc><vAcc>0.763088</vAcc></extensions></trkpt>
      <trkpt lon="-3.051522" lat="52.705670"><ele>396.323639</ele><time>2022-01-15T10:15:27Z</time><extensions><speed>0.309793</speed><course>325.155182</course><hAcc>1.831098</hAcc><vAcc>0.761248</vAcc></extensions></trkpt>
      <trkpt lon="-3.051525" lat="52.705672"><ele>396.287750</ele><time>2022-01-15T10:15:28Z</time><extensions><speed>0.289812</speed><course>322.703369</course><hAcc>1.819215</hAcc><vAcc>0.759761</vAcc></extensions></trkpt>
      <trkpt lon="-3.051527" lat="52.705674"><ele>396.255493</ele><time>2022-01-15T10:15:29Z</time><extensions><speed>0.257164</speed><course>322.144257</course><hAcc>1.801529</hAcc><vAcc>0.758528</vAcc></extensions></trkpt>
      <trkpt lon="-3.051529" lat="52.705676"><ele>396.223816</ele><time>2022-01-15T10:15:30Z</time><extensions><speed>0.200486</speed><course>326.510498</course><hAcc>1.794362</hAcc><vAcc>0.757321</vAcc></extensions></trkpt>
      <trkpt lon="-3.051531" lat="52.705677"><ele>396.195068</ele><time>2022-01-15T10:15:31Z</time><extensions><speed>0.133893</speed><course>338.228943</course><hAcc>1.806708</hAcc><vAcc>0.756180</vAcc></extensions></trkpt>
      <trkpt lon="-3.051531" lat="52.705678"><ele>396.168976</ele><time>2022-01-15T10:15:32Z</time><extensions><speed>0.104394</speed><course>356.476654</course><hAcc>1.812350</hAcc><vAcc>0.755004</vAcc></extensions></trkpt>
      <trkpt lon="-3.051531" lat="52.705679"><ele>396.141876</ele><time>2022-01-15T10:15:33Z</time><extensions><speed>0.108202</speed><course>14.805037</course><hAcc>1.805198</hAcc><vAcc>0.753703</vAcc></extensions></trkpt>
      <trkpt lon="-3.051530" lat="52.705680"><ele>396.114960</ele><time>2022-01-15T10:15:34Z</time><extensions><speed>0.137558</speed><course>23.460789</course><hAcc>1.782437</hAcc><vAcc>0.752117</vAcc></extensions></trkpt>
      <trkpt lon="-3.051529" lat="52.705681"><ele>396.083435</ele><time>2022-01-15T10:15:35Z</time><extensions><speed>0.150847</speed><course>26.078768</course><hAcc>1.781415</hAcc><vAcc>0.750504</vAcc></extensions></trkpt>
      <trkpt lon="-3.051528" lat="52.705682"><ele>396.058197</ele><time>2022-01-15T10:15:36Z</time><extensions><speed>0.158288</speed><course>27.958012</course><hAcc>1.793586</hAcc><vAcc>0.748856</vAcc></extensions></trkpt>
      <trkpt lon="-3.051527" lat="52.705684"><ele>396.036896</ele><time>2022-01-15T10:15:37Z</time><extensions><speed>0.161959</speed><course>31.441824</course><hAcc>1.807032</hAcc><vAcc>0.747297</vAcc></extensions></trkpt>
      <trkpt lon="-3.051525" lat="52.705685"><ele>396.015625</ele><time>2022-01-15T10:15:38Z</time><extensions><speed>0.163345</speed><course>36.323841</course><hAcc>1.826409</hAcc><vAcc>0.746012</vAcc></extensions></trkpt>
      <trkpt lon="-3.051524" lat="52.705686"><ele>395.999786</ele><time>2022-01-15T10:15:39Z</time><extensions><speed>0.157639</speed><course>40.113167</course><hAcc>1.845341</hAcc><vAcc>0.745097</vAcc></extensions></trkpt>
      <trkpt lon="-3.051522" lat="52.705687"><ele>395.984894</ele><time>2022-01-15T10:15:40Z</time><extensions><speed>0.188164</speed><course>42.478756</course><hAcc>1.827249</hAcc><vAcc>0.744675</vAcc></extensions></trkpt>
      <trkpt lon="-3.051520" lat="52.705688"><ele>395.972198</ele><time>2022-01-15T10:15:41Z</time><extensions><speed>0.199832</speed><course>44.420044</course><hAcc>1.820474</hAcc><vAcc>0.744826</vAcc></extensions></trkpt>
      <trkpt lon="-3.051518" lat="52.705690"><ele>395.962036</ele><time>2022-01-15T10:15:42Z</time><extensions><speed>0.204428</speed><course>47.614788</course><hAcc>1.828606</hAcc><vAcc>0.745595</vAcc></extensions></trkpt>
      <trkpt lon="-3.051516" lat="52.705691"><ele>395.955597</ele><time>2022-01-15T10:15:43Z</time><extensions><speed>0.209083</speed><course>53.680725</course><hAcc>1.833442</hAcc><vAcc>0.747018</vAcc></extensions></trkpt>
      <trkpt lon="-3.051513" lat="52.705692"><ele>395.941528</ele><time>2022-01-15T10:15:44Z</time><extensions><speed>0.225399</speed><course>60.658768</course><hAcc>1.827397</hAcc><vAcc>0.749076</vAcc></extensions></trkpt>
      <trkpt lon="-3.051510" lat="52.705693"><ele>395.925110</ele><time>2022-01-15T10:15:45Z</time><extensions><speed>0.240388</speed><course>62.685188</course><hAcc>1.817640</hAcc><vAcc>0.751719</vAcc></extensions></trkpt>
      <trkpt lon="-3.051507" lat="52.705694"><ele>395.910492</ele><time>2022-01-15T10:15:46Z</time><extensions><speed>0.246313</speed><course>59.299397</course><hAcc>1.805991</hAcc><vAcc>0.754796</vAcc></extensions></trkpt>
      <trkpt lon="-3.051504" lat="52.705695"><ele>395.895142</ele><time>2022-01-15T10:15:47Z</time><extensions><speed>0.231630</speed><course>54.065132</course><hAcc>1.805345</hAcc><vAcc>0.758107</vAcc></extensions></trkpt>
      <trkpt lon="-3.051502" lat="52.705696"><ele>395.885498</ele><time>2022-01-15T10:15:48Z</time><extensions><speed>0.181023</speed><course>48.443935</course><hAcc>1.814921</hAcc><vAcc>0.761626</vAcc></extensions></trkpt>
      <trkpt lon="-3.051500" lat="52.705697"><ele>395.880280</ele><time>2022-01-15T10:15:49Z</time><extensions><speed>0.166554</speed><course>42.494884</course><hAcc>1.791710</hAcc><vAcc>0.765138</vAcc></extensions></trkpt>
      <trkpt lon="-3.051498" lat="52.705698"><ele>395.884613</ele><time>2022-01-15T10:15:50Z</time><extensions><speed>0.125294</speed><course>35.811054</course><hAcc>1.784105</hAcc><vAcc>0.768513</vAcc></extensions></trkpt>
      <trkpt lon="-3.051498" lat="52.705699"><ele>395.894928</ele><time>2022-01-15T10:15:51Z</time><extensions><speed>0.083007</speed><course>26.326403</course><hAcc>1.788997</hAcc><vAcc>0.771662</vAcc></extensions></trkpt>
      <trkpt lon="-3.051497" lat="52.705700"><ele>395.896881</ele><time>2022-01-15T10:15:52Z</time><extensions><speed>0.049520</speed><course>10.692817</course><hAcc>1.793608</hAcc><vAcc>0.774465</vAcc></extensions></trkpt>
      <trkpt lon="-3.051497" lat="52.705700"><ele>395.922577</ele><time>2022-01-15T10:15:53Z</time><extensions><speed>0.025749</speed><course>347.817383</course><hAcc>1.798450</hAcc><vAcc>0.776896</vAcc></extensions></trkpt>
      <trkpt lon="-3.051497" lat="52.705700"><ele>395.927917</ele><time>2022-01-15T10:15:54Z</time><extensions><speed>0.008453</speed><course>280.951569</course><hAcc>1.806382</hAcc><vAcc>0.779042</vAcc></extensions></trkpt>
      <trkpt lon="-3.051497" lat="52.705700"><ele>395.936951</ele><time>2022-01-15T10:15:55Z</time><extensions><speed>0.032346</speed><course>192.911697</course><hAcc>1.810796</hAcc><vAcc>0.780872</vAcc></extensions></trkpt>
      <trkpt lon="-3.051497" lat="52.705699"><ele>395.946960</ele><time>2022-01-15T10:15:56Z</time><extensions><speed>0.081742</speed><course>184.740936</course><hAcc>1.811246</hAcc><vAcc>0.782441</vAcc></extensions></trkpt>
      <trkpt lon="-3.051497" lat="52.705698"><ele>395.977509</ele><time>2022-01-15T10:15:57Z</time><extensions><speed>0.137141</speed><course>184.274551</course><hAcc>1.810419</hAcc><vAcc>0.783798</vAcc></extensions></trkpt>
      <trkpt lon="-3.051498" lat="52.705697"><ele>396.006500</ele><time>2022-01-15T10:15:58Z</time><extensions><speed>0.178756</speed><course>183.135498</course><hAcc>1.812320</hAcc><vAcc>0.784779</vAcc></extensions></trkpt>
      <trkpt lon="-3.051498" lat="52.705695"><ele>396.035583</ele><time>2022-01-15T10:15:59Z</time><extensions><speed>0.207217</speed><course>179.887268</course><hAcc>1.809506</hAcc><vAcc>0.785407</vAcc></extensions></trkpt>
      <trkpt lon="-3.051497" lat="52.705693"><ele>396.067261</ele><time>2022-01-15T10:16:00Z</time><extensions><speed>0.220719</speed><course>170.624405</course><hAcc>1.806348</hAcc><vAcc>0.785508</vAcc></extensions></trkpt>
      <trkpt lon="-3.051496" lat="52.705691"><ele>396.104767</ele><time>2022-01-15T10:16:01Z</time><extensions><speed>0.241923</speed><course>155.698669</course><hAcc>1.804493</hAcc><vAcc>0.785120</vAcc></extensions></trkpt>
      <trkpt lon="-3.051494" lat="52.705689"><ele>396.147675</ele><time>2022-01-15T10:16:02Z</time><extensions><speed>0.283499</speed><course>143.014343</course><hAcc>1.803855</hAcc><vAcc>0.784320</vAcc></extensions></trkpt>
      <trkpt lon="-3.051491" lat="52.705687"><ele>396.191254</ele><time>2022-01-15T10:16:03Z</time><extensions><speed>0.334937</speed><course>135.253143</course><hAcc>1.805418</hAcc><vAcc>0.783215</vAcc></extensions></trkpt>
      <trkpt lon="-3.051487" lat="52.705685"><ele>396.222992</ele><time>2022-01-15T10:16:04Z</time><extensions><speed>0.384523</speed><course>130.938232</course><hAcc>1.806170</hAcc><vAcc>0.781776</vAcc></extensions></trkpt>
      <trkpt lon="-3.051483" lat="52.705683"><ele>396.265533</ele><time>2022-01-15T10:16:05Z</time><extensions><speed>0.415957</speed><course>128.152786</course><hAcc>1.806058</hAcc><vAcc>0.780091</vAcc></extensions></trkpt>
      <trkpt lon="-3.051478" lat="52.705680"><ele>396.309845</ele><time>2022-01-15T10:16:06Z</time><extensions><speed>0.429104</speed><course>126.123512</course><hAcc>1.806942</hAcc><vAcc>0.778231</vAcc></extensions></trkpt>
      <trkpt lon="-3.051472" lat="52.705678"><ele>396.350159</ele><time>2022-01-15T10:16:07Z</time><extensions><speed>0.413832</speed><course>124.262794</course><hAcc>1.813425</hAcc><vAcc>0.776283</vAcc></extensions></trkpt>
      <trkpt lon="-3.051467" lat="52.705676"><ele>396.391205</ele><time>2022-01-15T10:16:08Z</time><extensions><speed>0.393761</speed><course>121.166649</course><hAcc>1.816712</hAcc><vAcc>0.774400</vAcc></extensions></trkpt>
      <trkpt lon="-3.051462" lat="52.705675"><ele>396.431641</ele><time>2022-01-15T10:16:09Z</time><extensions><speed>0.373125</speed><course>115.772141</course><hAcc>1.815769</hAcc><vAcc>0.772729</vAcc></extensions></trkpt>
      <trkpt lon="-3.051458" lat="52.705673"><ele>396.478546</ele><time>2022-01-15T10:16:10Z</time><extensions><speed>0.331133</speed><course>109.157852</course><hAcc>1.819449</hAcc><vAcc>0.771402</vAcc></extensions></trkpt>
      <trkpt lon="-3.051453" lat="52.705673"><ele>396.524994</ele><time>2022-01-15T10:16:11Z</time><extensions><speed>0.286003</speed><course>101.359207</course><hAcc>1.821953</hAcc><vAcc>0.770481</vAcc></extensions></trkpt>
      <trkpt lon="-3.051449" lat="52.705672"><ele>396.561127</ele><time>2022-01-15T10:16:12Z</time><extensions><speed>0.254760</speed><course>92.390320</course><hAcc>1.818193</hAcc><vAcc>0.770025</vAcc></extensions></trkpt>
      <trkpt lon="-3.051446" lat="52.705673"><ele>396.606262</ele><time>2022-01-15T10:16:13Z</time><extensions><speed>0.230097</speed><course>85.205490</course><hAcc>1.810715</hAcc><vAcc>0.769925</vAcc></extensions></trkpt>
      <trkpt lon="-3.051442" lat="52.705673"><ele>396.648895</ele><time>2022-01-15T10:16:14Z</time><extensions><speed>0.206369</speed><course>80.668861</course><hAcc>1.800666</hAcc><vAcc>0.769993</vAcc></extensions></trkpt>
      <trkpt lon="-3.051439" lat="52.705673"><ele>396.693359</ele><time>2022-01-15T10:16:15Z</time><extensions><speed>0.172159</speed><course>79.031441</course><hAcc>1.796864</hAcc><vAcc>0.770231</vAcc></extensions></trkpt>
      <trkpt lon="-3.051437" lat="52.705673"><ele>396.734161</ele><time>2022-01-15T10:16:16Z</time><extensions><speed>0.139643</speed><course>79.389923</course><hAcc>1.800188</hAcc><vAcc>0.770647</vAcc></extensions></trkpt>
      <trkpt lon="-3.051435" lat="52.705674"><ele>396.767822</ele><time>2022-01-15T10:16:17Z</time><extensions><speed>0.131291</speed><course>79.469368</course><hAcc>1.800317</hAcc><vAcc>0.771053</vAcc></extensions></trkpt>
      <trkpt lon="-3.051433" lat="52.705674"><ele>396.799866</ele><time>2022-01-15T10:16:18Z</time><extensions><speed>0.138445</speed><course>79.260239</course><hAcc>1.802072</hAcc><vAcc>0.771329</vAcc></extensions></trkpt>
      <trkpt lon="-3.051431" lat="52.705674"><ele>396.824127</ele><time>2022-01-15T10:16:19Z</time><extensions><speed>0.173019</speed><course>78.769028</course><hAcc>1.794596</hAcc><vAcc>0.771468</vAcc></extensions></trkpt>
      <trkpt lon="-3.051428" lat="52.705674"><ele>396.847809</ele><time>2022-01-15T10:16:20Z</time><extensions><speed>0.201291</speed><course>77.997360</course><hAcc>1.794896</hAcc><vAcc>0.771385</vAcc></extensions></trkpt>
      <trkpt lon="-3.051425" lat="52.705675"><ele>396.868256</ele><time>2022-01-15T10:16:21Z</time><extensions><speed>0.212933</speed><course>76.785660</course><hAcc>1.801801</hAcc><vAcc>0.770997</vAcc></extensions></trkpt>
      <trkpt lon="-3.051422" lat="52.705675"><ele>396.885101</ele><time>2022-01-15T10:16:22Z</time><extensions><speed>0.205174</speed><course>76.155952</course><hAcc>1.809963</hAcc><vAcc>0.770340</vAcc></extensions></trkpt>
      <trkpt lon="-3.051420" lat="52.705676"><ele>396.898376</ele><time>2022-01-15T10:16:23Z</time><extensions><speed>0.177491</speed><course>77.535881</course><hAcc>1.817873</hAcc><vAcc>0.769487</vAcc></extensions></trkpt>
      <trkpt lon="-3.051417" lat="52.705676"><ele>396.907990</ele><time>2022-01-15T10:16:24Z</time><extensions><speed>0.135369</speed><course>82.576904</course><hAcc>1.824971</hAcc><vAcc>0.768507</vAcc></extensions></trkpt>
      <trkpt lon="-3.051416" lat="52.705676"><ele>396.903778</ele><time>2022-01-15T10:16:25Z</time><extensions><speed>0.083332</speed><course>88.877831</course><hAcc>1.831005</hAcc><vAcc>0.767458</vAcc></extensions></trkpt>
      <trkpt lon="-3.051415" lat="52.705676"><ele>396.905365</ele><time>2022-01-15T10:16:26Z</time><extensions><speed>0.033541</speed><course>82.468048</course><hAcc>1.828481</hAcc><vAcc>0.766234</vAcc></extensions></trkpt>
      <trkpt lon="-3.051415" lat="52.705676"><ele>396.901794</ele><time>2022-01-15T10:16:27Z</time><extensions><speed>0.021180</speed><course>349.948212</course><hAcc>1.823574</hAcc><vAcc>0.764733</vAcc></extensions></trkpt>
      <trkpt lon="-3.051415" lat="52.705677"><ele>396.901703</ele><time>2022-01-15T10:16:28Z</time><extensions><speed>0.044436</speed><course>339.598999</course><hAcc>1.821280</hAcc><vAcc>0.762844</vAcc></extensions></trkpt>
      <trkpt lon="-3.051415" lat="52.705677"><ele>396.908569</ele><time>2022-01-15T10:16:29Z</time><extensions><speed>0.068153</speed><course>352.768158</course><hAcc>1.811464</hAcc><vAcc>0.760009</vAcc></extensions></trkpt>
      <trkpt lon="-3.051415" lat="52.705678"><ele>396.913483</ele><time>2022-01-15T10:16:30Z</time><extensions><speed>0.089898</speed><course>1.292853</course><hAcc>1.807925</hAcc><vAcc>0.757094</vAcc></extensions></trkpt>
      <trkpt lon="-3.051415" lat="52.705679"><ele>396.917206</ele><time>2022-01-15T10:16:31Z</time><extensions><speed>0.108102</speed><course>6.214379</course><hAcc>1.806112</hAcc><vAcc>0.753954</vAcc></extensions></trkpt>
      <trkpt lon="-3.051414" lat="52.705680"><ele>396.921326</ele><time>2022-01-15T10:16:32Z</time><extensions><speed>0.123507</speed><course>10.226376</course><hAcc>1.806970</hAcc><vAcc>0.750707</vAcc></extensions></trkpt>
      <trkpt lon="-3.051414" lat="52.705681"><ele>396.933289</ele><time>2022-01-15T10:16:33Z</time><extensions><speed>0.142527</speed><course>14.218280</course><hAcc>1.810234</hAcc><vAcc>0.747343</vAcc></extensions></trkpt>
      <trkpt lon="-3.051413" lat="52.705682"><ele>396.946716</ele><time>2022-01-15T10:16:34Z</time><extensions><speed>0.159248</speed><course>19.361784</course><hAcc>1.815079</hAcc><vAcc>0.743939</vAcc></extensions></trkpt>
      <trkpt lon="-3.051412" lat="52.705683"><ele>396.961761</ele><time>2022-01-15T10:16:35Z</time><extensions><speed>0.171140</speed><course>28.817465</course><hAcc>1.810576</hAcc><vAcc>0.740696</vAcc></extensions></trkpt>
      <trkpt lon="-3.051411" lat="52.705685"><ele>396.983856</ele><time>2022-01-15T10:16:36Z</time><extensions><speed>0.158065</speed><course>45.864601</course><hAcc>1.817494</hAcc><vAcc>0.737857</vAcc></extensions></trkpt>
      <trkpt lon="-3.051409" lat="52.705685"><ele>397.008881</ele><time>2022-01-15T10:16:37Z</time><extensions><speed>0.148250</speed><course>68.156952</course><hAcc>1.838022</hAcc><vAcc>0.735786</vAcc></extensions></trkpt>
      <trkpt lon="-3.051407" lat="52.705686"><ele>397.031311</ele><time>2022-01-15T10:16:38Z</time><extensions><speed>0.161088</speed><course>88.536522</course><hAcc>1.856283</hAcc><vAcc>0.734875</vAcc></extensions></trkpt>
      <trkpt lon="-3.051404" lat="52.705685"><ele>397.054138</ele><time>2022-01-15T10:16:39Z</time><extensions><speed>0.194315</speed><course>103.078049</course><hAcc>1.867456</hAcc><vAcc>0.735456</vAcc></extensions></trkpt>
      <trkpt lon="-3.051401" lat="52.705685"><ele>397.079895</ele><time>2022-01-15T10:16:40Z</time><extensions><speed>0.232228</speed><course>111.118378</course><hAcc>1.866480</hAcc><vAcc>0.737648</vAcc></extensions></trkpt>
      <trkpt lon="-3.051398" lat="52.705684"><ele>397.103546</ele><time>2022-01-15T10:16:41Z</time><extensions><speed>0.264592</speed><course>117.334702</course><hAcc>1.846114</hAcc><vAcc>0.741256</vAcc></extensions></trkpt>
      <trkpt lon="-3.051394" lat="52.705683"><ele>397.126526</ele><time>2022-01-15T10:16:42Z</time><extensions><speed>0.269453</speed><course>124.425705</course><hAcc>1.819510</hAcc><vAcc>0.745887</vAcc></extensions></trkpt>
      <trkpt lon="-3.051391" lat="52.705681"><ele>397.148132</ele><time>2022-01-15T10:16:43Z</time><extensions><speed>0.249437</speed><course>130.819717</course><hAcc>1.796626</hAcc><vAcc>0.751038</vAcc></extensions></trkpt>
      <trkpt lon="-3.051389" lat="52.705680"><ele>397.160004</ele><time>2022-01-15T10:16:44Z</time><extensions><speed>0.197487</speed><course>135.596893</course><hAcc>1.794601</hAcc><vAcc>0.756238</vAcc></extensions></trkpt>
      <trkpt lon="-3.051387" lat="52.705679"><ele>397.166229</ele><time>2022-01-15T10:16:45Z</time><extensions><speed>0.122786</speed><course>141.259552</course><hAcc>1.808887</hAcc><vAcc>0.761140</vAcc></extensions></trkpt>
      <trkpt lon="-3.051386" lat="52.705678"><ele>397.165161</ele><time>2022-01-15T10:16:46Z</time><extensions><speed>0.107506</speed><course>151.514587</course><hAcc>1.783191</hAcc><vAcc>0.765421</vAcc></extensions></trkpt>
      <trkpt lon="-3.051386" lat="52.705677"><ele>397.164917</ele><time>2022-01-15T10:16:47Z</time><extensions><speed>0.104075</speed><course>162.550781</course><hAcc>1.768944</hAcc><vAcc>0.769032</vAcc></extensions></trkpt>
      <trkpt lon="-3.051385" lat="52.705676"><ele>397.159058</ele><time>2022-01-15T10:16:48Z</time><extensions><speed>0.103563</speed><course>170.228546</course><hAcc>1.773186</hAcc><vAcc>0.771820</vAcc></extensions></trkpt>
      <trkpt lon="-3.051385" lat="52.705675"><ele>397.149780</ele><time>2022-01-15T10:16:49Z</time><extensions><speed>0.097837</speed><course>174.052109</course><hAcc>1.777090</hAcc><vAcc>0.773933</vAcc></extensions></trkpt>
      <trkpt lon="-3.051385" lat="52.705674"><ele>397.136322</ele><time>2022-01-15T10:16:50Z</time><extensions><speed>0.085988</speed><course>174.769775</course><hAcc>1.775945</hAcc><vAcc>0.775418</vAcc></extensions></trkpt>
      <trkpt lon="-3.051385" lat="52.705674"><ele>397.117767</ele><time>2022-01-15T10:16:51Z</time><extensions><speed>0.071108</speed><course>174.860504</course><hAcc>1.781095</hAcc><vAcc>0.776227</vAcc></extensions></trkpt>
      <trkpt lon="-3.051385" lat="52.705673"><ele>397.088745</ele><time>2022-01-15T10:16:52Z</time><extensions><speed>0.053961</speed><course>171.859177</course><hAcc>1.796829</hAcc><vAcc>0.776404</vAcc></extensions></trkpt>
      <trkpt lon="-3.051384" lat="52.705673"><ele>397.051117</ele><time>2022-01-15T10:16:53Z</time><extensions><speed>0.036778</speed><course>160.757309</course><hAcc>1.808896</hAcc><vAcc>0.776276</vAcc></extensions></trkpt>
      <trkpt lon="-3.051384" lat="52.705672"><ele>397.028961</ele><time>2022-01-15T10:16:54Z</time><extensions><speed>0.022851</speed><course>134.638412</course><hAcc>1.793359</hAcc><vAcc>0.775836</vAcc></extensions></trkpt>
      <trkpt lon="-3.051384" lat="52.705672"><ele>397.003387</ele><time>2022-01-15T10:16:55Z</time><extensions><speed>0.022155</speed><course>69.028519</course><hAcc>1.790885</hAcc><vAcc>0.775179</vAcc></extensions></trkpt>
      <trkpt lon="-3.051384" lat="52.705673"><ele>396.983734</ele><time>2022-01-15T10:16:56Z</time><extensions><speed>0.043923</speed><course>57.414062</course><hAcc>1.798918</hAcc><vAcc>0.774055</vAcc></extensions></trkpt>
      <trkpt lon="-3.051383" lat="52.705673"><ele>396.966827</ele><time>2022-01-15T10:16:57Z</time><extensions><speed>0.067504</speed><course>61.278221</course><hAcc>1.807623</hAcc><vAcc>0.772607</vAcc></extensions></trkpt>
      <trkpt lon="-3.051382" lat="52.705673"><ele>396.952606</ele><time>2022-01-15T10:16:58Z</time><extensions><speed>0.088180</speed><course>65.462379</course><hAcc>1.811554</hAcc><vAcc>0.770700</vAcc></extensions></trkpt>
      <trkpt lon="-3.051380" lat="52.705673"><ele>396.941467</ele><time>2022-01-15T10:16:59Z</time><extensions><speed>0.103672</speed><course>71.894684</course><hAcc>1.811371</hAcc><vAcc>0.768143</vAcc></extensions></trkpt>
      <trkpt lon="-3.051379" lat="52.705674"><ele>396.934235</ele><time>2022-01-15T10:17:00Z</time><extensions><speed>0.109558</speed><course>80.611992</course><hAcc>1.811130</hAcc><vAcc>0.764262</vAcc></extensions></trkpt>
      <trkpt lon="-3.051377" lat="52.705674"><ele>396.930664</ele><time>2022-01-15T10:17:01Z</time><extensions><speed>0.115117</speed><course>90.048859</course><hAcc>1.809865</hAcc><vAcc>0.759128</vAcc></extensions></trkpt>
      <trkpt lon="-3.051376" lat="52.705674"><ele>396.931000</ele><time>2022-01-15T10:17:02Z</time><extensions><speed>0.115963</speed><course>96.533440</course><hAcc>1.809693</hAcc><vAcc>0.752618</vAcc></extensions></trkpt>
      <trkpt lon="-3.051374" lat="52.705674"><ele>396.942902</ele><time>2022-01-15T10:17:03Z</time><extensions><speed>0.108697</speed><course>100.073875</course><hAcc>1.804284</hAcc><vAcc>0.744633</vAcc></extensions></trkpt>
      <trkpt lon="-3.051372" lat="52.705673"><ele>396.959717</ele><time>2022-01-15T10:17:04Z</time><extensions><speed>0.101455</speed><course>102.499405</course><hAcc>1.792497</hAcc><vAcc>0.735047</vAcc></extensions></trkpt>
      <trkpt lon="-3.051371" lat="52.705673"><ele>396.998932</ele><time>2022-01-15T10:17:05Z</time><extensions><speed>0.098912</speed><course>104.923622</course><hAcc>1.779097</hAcc><vAcc>0.723595</vAcc></extensions></trkpt>
      <trkpt lon="-3.051370" lat="52.705673"><ele>397.030579</ele><time>2022-01-15T10:17:06Z</time><extensions><speed>0.090204</speed><course>107.047829</course><hAcc>1.782988</hAcc><vAcc>0.710378</vAcc></extensions></trkpt>
      <trkpt lon="-3.051369" lat="52.705673"><ele>397.062622</ele><time>2022-01-15T10:17:07Z</time><extensions><speed>0.057643</speed><course>109.729980</course><hAcc>1.822536</hAcc><vAcc>0.695591</vAcc></extensions></trkpt>
      <trkpt lon="-3.051368" lat="52.705672"><ele>397.095703</ele><time>2022-01-15T10:17:08Z</time><extensions><speed>0.029912</speed><course>119.400513</course><hAcc>1.852570</hAcc><vAcc>0.679708</vAcc></extensions></trkpt>
      <trkpt lon="-3.051368" lat="52.705672"><ele>397.128784</ele><time>2022-01-15T10:17:09Z</time><extensions><speed>0.019492</speed><course>160.620193</course><hAcc>1.846863</hAcc><vAcc>0.663404</vAcc></extensions></trkpt>
      <trkpt lon="-3.051368" lat="52.705672"><ele>397.147644</ele><time>2022-01-15T10:17:10Z</time><extensions><speed>0.033599</speed><course>216.517075</course><hAcc>1.842218</hAcc><vAcc>0.647549</vAcc></extensions></trkpt>
      <trkpt lon="-3.051369" lat="52.705672"><ele>397.153717</ele><time>2022-01-15T10:17:11Z</time><extensions><speed>0.065784</speed><course>237.431564</course><hAcc>1.872466</hAcc><vAcc>0.633172</vAcc></extensions></trkpt>
      <trkpt lon="-3.051370" lat="52.705671"><ele>397.157654</ele><time>2022-01-15T10:17:12Z</time><extensions><speed>0.097698</speed><course>245.441254</course><hAcc>1.927931</hAcc><vAcc>0.621295</vAcc></extensions></trkpt>
      <trkpt lon="-3.051372" lat="52.705671"><ele>397.168518</ele><time>2022-01-15T10:17:13Z</time><extensions><speed>0.135471</speed><course>249.696945</course><hAcc>1.970646</hAcc><vAcc>0.612769</vAcc></extensions></trkpt>
      <trkpt lon="-3.051374" lat="52.705671"><ele>397.187195</ele><time>2022-01-15T10:17:14Z</time><extensions><speed>0.170806</speed><course>252.695557</course><hAcc>2.005719</hAcc><vAcc>0.608169</vAcc></extensions></trkpt>
      <trkpt lon="-3.051377" lat="52.705670"><ele>397.210785</ele><time>2022-01-15T10:17:15Z</time><extensions><speed>0.198482</speed><course>255.851547</course><hAcc>2.030990</hAcc><vAcc>0.607622</vAcc></extensions></trkpt>
      <trkpt lon="-3.051380" lat="52.705670"><ele>397.239838</ele><time>2022-01-15T10:17:16Z</time><extensions><speed>0.248329</speed><course>259.113983</course><hAcc>2.019070</hAcc><vAcc>0.610827</vAcc></extensions></trkpt>
      <trkpt lon="-3.051384" lat="52.705669"><ele>397.265717</ele><time>2022-01-15T10:17:17Z</time><extensions><speed>0.273239</speed><course>260.805328</course><hAcc>1.997440</hAcc><vAcc>0.616692</vAcc></extensions></trkpt>
      <trkpt lon="-3.051388" lat="52.705669"><ele>397.270172</ele><time>2022-01-15T10:17:18Z</time><extensions><speed>0.265885</speed><course>261.738159</course><hAcc>1.981878</hAcc><vAcc>0.623963</vAcc></extensions></trkpt>
      <trkpt lon="-3.051391" lat="52.705669"><ele>397.272278</ele><time>2022-01-15T10:17:19Z</time><extensions><speed>0.256809</speed><course>264.989441</course><hAcc>1.965393</hAcc><vAcc>0.631544</vAcc></extensions></trkpt>
      <trkpt lon="-3.051395" lat="52.705669"><ele>397.288300</ele><time>2022-01-15T10:17:20Z</time><extensions><speed>0.255055</speed><course>270.803467</course><hAcc>1.948461</hAcc><vAcc>0.638376</vAcc></extensions></trkpt>
      <trkpt lon="-3.051399" lat="52.705669"><ele>397.300690</ele><time>2022-01-15T10:17:21Z</time><extensions><speed>0.246625</speed><course>277.047821</course><hAcc>1.935537</hAcc><vAcc>0.643640</vAcc></extensions></trkpt>
      <trkpt lon="-3.051402" lat="52.705669"><ele>397.317017</ele><time>2022-01-15T10:17:22Z</time><extensions><speed>0.228502</speed><course>282.532990</course><hAcc>1.924772</hAcc><vAcc>0.646774</vAcc></extensions></trkpt>
      <trkpt lon="-3.051405" lat="52.705670"><ele>397.332001</ele><time>2022-01-15T10:17:23Z</time><extensions><speed>0.191569</speed><course>287.417023</course><hAcc>1.917065</hAcc><vAcc>0.647562</vAcc></extensions></trkpt>
      <trkpt lon="-3.051408" lat="52.705670"><ele>397.346130</ele><time>2022-01-15T10:17:24Z</time><extensions><speed>0.136320</speed><course>294.739594</course><hAcc>1.913603</hAcc><vAcc>0.645845</vAcc></extensions></trkpt>
      <trkpt lon="-3.051409" lat="52.705671"><ele>397.343506</ele><time>2022-01-15T10:17:25Z</time><extensions><speed>0.073141</speed><course>312.326324</course><hAcc>1.919204</hAcc><vAcc>0.641753</vAcc></extensions></trkpt>
      <trkpt lon="-3.051409" lat="52.705671"><ele>397.328430</ele><time>2022-01-15T10:17:26Z</time><extensions><speed>0.045198</speed><course>6.681203</course><hAcc>1.920674</hAcc><vAcc>0.635652</vAcc></extensions></trkpt>
      <trkpt lon="-3.051409" lat="52.705672"><ele>397.300690</ele><time>2022-01-15T10:17:27Z</time><extensions><speed>0.063166</speed><course>43.393196</course><hAcc>1.922420</hAcc><vAcc>0.628098</vAcc></extensions></trkpt>
      <trkpt lon="-3.051408" lat="52.705672"><ele>397.262207</ele><time>2022-01-15T10:17:28Z</time><extensions><speed>0.070950</speed><course>44.390633</course><hAcc>1.945519</hAcc><vAcc>0.619756</vAcc></extensions></trkpt>
      <trkpt lon="-3.051408" lat="52.705673"><ele>397.215790</ele><time>2022-01-15T10:17:29Z</time><extensions><speed>0.063315</speed><course>30.592297</course><hAcc>1.975970</hAcc><vAcc>0.611300</vAcc></extensions></trkpt>
      <trkpt lon="-3.051407" lat="52.705673"><ele>397.163788</ele><time>2022-01-15T10:17:30Z</time><extensions><speed>0.079737</speed><course>14.680759</course><hAcc>1.958942</hAcc><vAcc>0.603353</vAcc></extensions></trkpt>
      <trkpt lon="-3.051407" lat="52.705674"><ele>397.110168</ele><time>2022-01-15T10:17:31Z</time><extensions><speed>0.083700</speed><course>7.184505</course><hAcc>1.956133</hAcc><vAcc>0.596468</vAcc></extensions></trkpt>
      <trkpt lon="-3.051407" lat="52.705675"><ele>397.053101</ele><time>2022-01-15T10:17:32Z</time><extensions><speed>0.080912</speed><course>4.165067</course><hAcc>1.956876</hAcc><vAcc>0.590994</vAcc></extensions></trkpt>
      <trkpt lon="-3.051407" lat="52.705675"><ele>396.997101</ele><time>2022-01-15T10:17:33Z</time><extensions><speed>0.075689</speed><course>2.365343</course><hAcc>1.942657</hAcc><vAcc>0.586915</vAcc></extensions></trkpt>
      <trkpt lon="-3.051406" lat="52.705676"><ele>396.943481</ele><time>2022-01-15T10:17:34Z</time><extensions><speed>0.058771</speed><course>5.574781</course><hAcc>1.933252</hAcc><vAcc>0.583842</vAcc></extensions></trkpt>
      <trkpt lon="-3.051406" lat="52.705676"><ele>396.893005</ele><time>2022-01-15T10:17:35Z</time><extensions><speed>0.041990</speed><course>19.049385</course><hAcc>1.940968</hAcc><vAcc>0.581203</vAcc></extensions></trkpt>
      <trkpt lon="-3.051406" lat="52.705677"><ele>396.847504</ele><time>2022-01-15T10:17:36Z</time><extensions><speed>0.027454</speed><course>47.745316</course><hAcc>1.974119</hAcc><vAcc>0.578461</vAcc></extensions></trkpt>
      <trkpt lon="-3.051406" lat="52.705677"><ele>396.808472</ele><time>2022-01-15T10:17:37Z</time><extensions><speed>0.044443</speed><course>73.722198</course><hAcc>1.948200</hAcc><vAcc>0.575206</vAcc></extensions></trkpt>
      <trkpt lon="-3.051405" lat="52.705677"><ele>396.776642</ele><time>2022-01-15T10:17:38Z</time><extensions><speed>0.065555</speed><course>83.515366</course><hAcc>1.935025</hAcc><vAcc>0.571222</vAcc></extensions></trkpt>
      <trkpt lon="-3.051404" lat="52.705677"><ele>396.752197</ele><time>2022-01-15T10:17:39Z</time><extensions><speed>0.085196</speed><course>86.694099</course><hAcc>1.949636</hAcc><vAcc>0.566500</vAcc></extensions></trkpt>
      <trkpt lon="-3.051403" lat="52.705677"><ele>396.737122</ele><time>2022-01-15T10:17:40Z</time><extensions><speed>0.092627</speed><course>84.218246</course><hAcc>1.979426</hAcc><vAcc>0.561209</vAcc></extensions></trkpt>
      <trkpt lon="-3.051402" lat="52.705677"><ele>396.735748</ele><time>2022-01-15T10:17:41Z</time><extensions><speed>0.074845</speed><course>71.258896</course><hAcc>2.018301</hAcc><vAcc>0.555648</vAcc></extensions></trkpt>
      <trkpt lon="-3.051401" lat="52.705677"><ele>396.741425</ele><time>2022-01-15T10:17:42Z</time><extensions><speed>0.055418</speed><course>32.696091</course><hAcc>2.035098</hAcc><vAcc>0.550192</vAcc></extensions></trkpt>
      <trkpt lon="-3.051402" lat="52.705678"><ele>396.747040</ele><time>2022-01-15T10:17:43Z</time><extensions><speed>0.062791</speed><course>338.287415</course><hAcc>2.050232</hAcc><vAcc>0.545285</vAcc></extensions></trkpt>
      <trkpt lon="-3.051403" lat="52.705678"><ele>396.753723</ele><time>2022-01-15T10:17:44Z</time><extensions><speed>0.086581</speed><course>306.776398</course><hAcc>2.070855</hAcc><vAcc>0.541368</vAcc></extensions></trkpt>
      <trkpt lon="-3.051404" lat="52.705679"><ele>396.760864</ele><time>2022-01-15T10:17:45Z</time><extensions><speed>0.112425</speed><course>287.306610</course><hAcc>2.088502</hAcc><vAcc>0.538736</vAcc></extensions></trkpt>
      <trkpt lon="-3.051406" lat="52.705679"><ele>396.766663</ele><time>2022-01-15T10:17:46Z</time><extensions><speed>0.152795</speed><course>274.969086</course><hAcc>2.087730</hAcc><vAcc>0.537534</vAcc></extensions></trkpt>
      <trkpt lon="-3.051409" lat="52.705679"><ele>396.769714</ele><time>2022-01-15T10:17:47Z</time><extensions><speed>0.213330</speed><course>267.916290</course><hAcc>2.071616</hAcc><vAcc>0.537880</vAcc></extensions></trkpt>
      <trkpt lon="-3.051413" lat="52.705678"><ele>396.769012</ele><time>2022-01-15T10:17:48Z</time><extensions><speed>0.266140</speed><course>263.598816</course><hAcc>2.066521</hAcc><vAcc>0.539925</vAcc></extensions></trkpt>
      <trkpt lon="-3.051418" lat="52.705678"><ele>396.764587</ele><time>2022-01-15T10:17:49Z</time><extensions><speed>0.303106</speed><course>259.397003</course><hAcc>2.064034</hAcc><vAcc>0.543780</vAcc></extensions></trkpt>
      <trkpt lon="-3.051423" lat="52.705677"><ele>396.755798</ele><time>2022-01-15T10:17:50Z</time><extensions><speed>0.411422</speed><course>255.144882</course><hAcc>2.022054</hAcc><vAcc>0.549437</vAcc></extensions></trkpt>
      <trkpt lon="-3.051429" lat="52.705676"><ele>396.741333</ele><time>2022-01-15T10:17:51Z</time><extensions><speed>0.428784</speed><course>251.561691</course><hAcc>1.996669</hAcc><vAcc>0.556771</vAcc></extensions></trkpt>
      <trkpt lon="-3.051435" lat="52.705675"><ele>396.722656</ele><time>2022-01-15T10:17:52Z</time><extensions><speed>0.389351</speed><course>248.811356</course><hAcc>1.983804</hAcc><vAcc>0.565541</vAcc></extensions></trkpt>
      <trkpt lon="-3.051440" lat="52.705673"><ele>396.701752</ele><time>2022-01-15T10:17:53Z</time><extensions><speed>0.384609</speed><course>247.245941</course><hAcc>1.950729</hAcc><vAcc>0.575300</vAcc></extensions></trkpt>
      <trkpt lon="-3.051445" lat="52.705672"><ele>396.678528</ele><time>2022-01-15T10:17:54Z</time><extensions><speed>0.353153</speed><course>246.388794</course><hAcc>1.929800</hAcc><vAcc>0.585682</vAcc></extensions></trkpt>
      <trkpt lon="-3.051449" lat="52.705671"><ele>396.658630</ele><time>2022-01-15T10:17:55Z</time><extensions><speed>0.250051</speed><course>244.769272</course><hAcc>1.936777</hAcc><vAcc>0.596223</vAcc></extensions></trkpt>
      <trkpt lon="-3.051453" lat="52.705670"><ele>396.639465</ele><time>2022-01-15T10:17:56Z</time><extensions><speed>0.286550</speed><course>241.661133</course><hAcc>1.889879</hAcc><vAcc>0.606643</vAcc></extensions></trkpt>
      <trkpt lon="-3.051456" lat="52.705669"><ele>396.623901</ele><time>2022-01-15T10:17:57Z</time><extensions><speed>0.267642</speed><course>236.743622</course><hAcc>1.858808</hAcc><vAcc>0.616592</vAcc></extensions></trkpt>
      <trkpt lon="-3.051459" lat="52.705667"><ele>396.611786</ele><time>2022-01-15T10:17:58Z</time><extensions><speed>0.240015</speed><course>231.556763</course><hAcc>1.841755</hAcc><vAcc>0.625809</vAcc></extensions></trkpt>
      <trkpt lon="-3.051461" lat="52.705666"><ele>396.602203</ele><time>2022-01-15T10:17:59Z</time><extensions><speed>0.200838</speed><course>229.247620</course><hAcc>1.824712</hAcc><vAcc>0.634112</vAcc></extensions></trkpt>
      <trkpt lon="-3.051463" lat="52.705665"><ele>396.596344</ele><time>2022-01-15T10:18:00Z</time><extensions><speed>0.130245</speed><course>232.743973</course><hAcc>1.818388</hAcc><vAcc>0.641584</vAcc></extensions></trkpt>
      <trkpt lon="-3.051464" lat="52.705665"><ele>396.599945</ele><time>2022-01-15T10:18:01Z</time><extensions><speed>0.050319</speed><course>245.607330</course><hAcc>1.818547</hAcc><vAcc>0.648503</vAcc></extensions></trkpt>
      <trkpt lon="-3.051464" lat="52.705665"><ele>396.593323</ele><time>2022-01-15T10:18:02Z</time><extensions><speed>0.015272</speed><course>359.303375</course><hAcc>1.778160</hAcc><vAcc>0.655138</vAcc></extensions></trkpt>
      <trkpt lon="-3.051464" lat="52.705665"><ele>396.590637</ele><time>2022-01-15T10:18:03Z</time><extensions><speed>0.067218</speed><course>51.538677</course><hAcc>1.778816</hAcc><vAcc>0.661734</vAcc></extensions></trkpt>
      <trkpt lon="-3.051463" lat="52.705666"><ele>396.598785</ele><time>2022-01-15T10:18:04Z</time><extensions><speed>0.098171</speed><course>57.817520</course><hAcc>1.817177</hAcc><vAcc>0.668485</vAcc></extensions></trkpt>
      <trkpt lon="-3.051461" lat="52.705666"><ele>396.602814</ele><time>2022-01-15T10:18:05Z</time><extensions><speed>0.195141</speed><course>59.587399</course><hAcc>1.802535</hAcc><vAcc>0.675384</vAcc></extensions></trkpt>
      <trkpt lon="-3.051458" lat="52.705667"><ele>396.614349</ele><time>2022-01-15T10:18:06Z</time><extensions><speed>0.221090</speed><course>63.245155</course><hAcc>1.820692</hAcc><vAcc>0.682288</vAcc></extensions></trkpt>
      <trkpt lon="-3.051454" lat="52.705668"><ele>396.621246</ele><time>2022-01-15T10:18:07Z</time><extensions><speed>0.428193</speed><course>67.469879</course><hAcc>1.788777</hAcc><vAcc>0.688974</vAcc></extensions></trkpt>
      <trkpt lon="-3.051448" lat="52.705670"><ele>396.625854</ele><time>2022-01-15T10:18:08Z</time><extensions><speed>0.425437</speed><course>67.619064</course><hAcc>1.796763</hAcc><vAcc>0.695250</vAcc></extensions></trkpt>
      <trkpt lon="-3.051442" lat="52.705671"><ele>396.634003</ele><time>2022-01-15T10:18:09Z</time><extensions><speed>0.425576</speed><course>72.832047</course><hAcc>1.832964</hAcc><vAcc>0.700995</vAcc></extensions></trkpt>
      <trkpt lon="-3.051436" lat="52.705672"><ele>396.645386</ele><time>2022-01-15T10:18:10Z</time><extensions><speed>0.432982</speed><course>82.923790</course><hAcc>1.868784</hAcc><vAcc>0.706273</vAcc></extensions></trkpt>
      <trkpt lon="-3.051429" lat="52.705672"><ele>396.660278</ele><time>2022-01-15T10:18:11Z</time><extensions><speed>0.496209</speed><course>94.870132</course><hAcc>1.882496</hAcc><vAcc>0.711168</vAcc></extensions></trkpt>
      <trkpt lon="-3.051420" lat="52.705671"><ele>396.682129</ele><time>2022-01-15T10:18:12Z</time><extensions><speed>0.641196</speed><course>102.834518</course><hAcc>1.872405</hAcc><vAcc>0.715678</vAcc></extensions></trkpt>
      <trkpt lon="-3.051411" lat="52.705670"><ele>396.706726</ele><time>2022-01-15T10:18:13Z</time><extensions><speed>0.662426</speed><course>102.766251</course><hAcc>1.867155</hAcc><vAcc>0.719867</vAcc></extensions></trkpt>
      <trkpt lon="-3.051402" lat="52.705669"><ele>396.734192</ele><time>2022-01-15T10:18:14Z</time><extensions><speed>0.545623</speed><course>101.066849</course><hAcc>1.872676</hAcc><vAcc>0.723721</vAcc></extensions></trkpt>
      <trkpt lon="-3.051395" lat="52.705668"><ele>396.764282</ele><time>2022-01-15T10:18:15Z</time><extensions><speed>0.417206</speed><course>88.749329</course><hAcc>1.870975</hAcc><vAcc>0.727238</vAcc></extensions></trkpt>
      <trkpt lon="-3.051389" lat="52.705669"><ele>396.788055</ele><time>2022-01-15T10:18:16Z</time><extensions><speed>0.371562</speed><course>79.917976</course><hAcc>1.854349</hAcc><vAcc>0.730422</vAcc></extensions></trkpt>
      <trkpt lon="-3.051384" lat="52.705669"><ele>396.809021</ele><time>2022-01-15T10:18:17Z</time><extensions><speed>0.342326</speed><course>75.596611</course><hAcc>1.836377</hAcc><vAcc>0.733305</vAcc></extensions></trkpt>
      <trkpt lon="-3.051379" lat="52.705670"><ele>396.827026</ele><time>2022-01-15T10:18:18Z</time><extensions><speed>0.310324</speed><course>74.398918</course><hAcc>1.824817</hAcc><vAcc>0.735994</vAcc></extensions></trkpt>
      <trkpt lon="-3.051375" lat="52.705671"><ele>396.843567</ele><time>2022-01-15T10:18:19Z</time><extensions><speed>0.277136</speed><course>76.029289</course><hAcc>1.818521</hAcc><vAcc>0.738480</vAcc></extensions></trkpt>
      <trkpt lon="-3.051371" lat="52.705671"><ele>396.863525</ele><time>2022-01-15T10:18:20Z</time><extensions><speed>0.237602</speed><course>79.307503</course><hAcc>1.816349</hAcc><vAcc>0.740726</vAcc></extensions></trkpt>
      <trkpt lon="-3.051368" lat="52.705672"><ele>396.887451</ele><time>2022-01-15T10:18:21Z</time><extensions><speed>0.206334</speed><course>82.689468</course><hAcc>1.810348</hAcc><vAcc>0.742757</vAcc></extensions></trkpt>
      <trkpt lon="-3.051365" lat="52.705672"><ele>396.910645</ele><time>2022-01-15T10:18:22Z</time><extensions><speed>0.179482</speed><course>86.089233</course><hAcc>1.802653</hAcc><vAcc>0.744548</vAcc></extensions></trkpt>
      <trkpt lon="-3.051363" lat="52.705672"><ele>396.929535</ele><time>2022-01-15T10:18:23Z</time><extensions><speed>0.156864</speed><course>90.788788</course><hAcc>1.799102</hAcc><vAcc>0.746240</vAcc></extensions></trkpt>
      <trkpt lon="-3.051360" lat="52.705672"><ele>396.945312</ele><time>2022-01-15T10:18:24Z</time><extensions><speed>0.144455</speed><course>95.487267</course><hAcc>1.798304</hAcc><vAcc>0.747807</vAcc></extensions></trkpt>
      <trkpt lon="-3.051358" lat="52.705672"><ele>396.958191</ele><time>2022-01-15T10:18:25Z</time><extensions><speed>0.138715</speed><course>99.617599</course><hAcc>1.797973</hAcc><vAcc>0.749293</vAcc></extensions></trkpt>
      <trkpt lon="-3.051356" lat="52.705671"><ele>396.978577</ele><time>2022-01-15T10:18:26Z</time><extensions><speed>0.130033</speed><course>101.543190</course><hAcc>1.795699</hAcc><vAcc>0.750767</vAcc></extensions></trkpt>
      <trkpt lon="-3.051355" lat="52.705671"><ele>396.986877</ele><time>2022-01-15T10:18:27Z</time><extensions><speed>0.112589</speed><course>100.578491</course><hAcc>1.796588</hAcc><vAcc>0.752235</vAcc></extensions></trkpt>
      <trkpt lon="-3.051353" lat="52.705671"><ele>397.001373</ele><time>2022-01-15T10:18:28Z</time><extensions><speed>0.090565</speed><course>96.210579</course><hAcc>1.803278</hAcc><vAcc>0.753753</vAcc></extensions></trkpt>
      <trkpt lon="-3.051352" lat="52.705671"><ele>397.016479</ele><time>2022-01-15T10:18:29Z</time><extensions><speed>0.088048</speed><course>88.649742</course><hAcc>1.793677</hAcc><vAcc>0.755325</vAcc></extensions></trkpt>
      <trkpt lon="-3.051350" lat="52.705671"><ele>397.032349</ele><time>2022-01-15T10:18:30Z</time><extensions><speed>0.100159</speed><course>81.501915</course><hAcc>1.781888</hAcc><vAcc>0.756895</vAcc></extensions></trkpt>
      <trkpt lon="-3.051349" lat="52.705671"><ele>397.048798</ele><time>2022-01-15T10:18:31Z</time><extensions><speed>0.114207</speed><course>74.757584</course><hAcc>1.778117</hAcc><vAcc>0.758450</vAcc></extensions></trkpt>
      <trkpt lon="-3.051347" lat="52.705672"><ele>397.065521</ele><time>2022-01-15T10:18:32Z</time><extensions><speed>0.121963</speed><course>68.539749</course><hAcc>1.775168</hAcc><vAcc>0.759970</vAcc></extensions></trkpt>
      <trkpt lon="-3.051345" lat="52.705672"><ele>397.082184</ele><time>2022-01-15T10:18:33Z</time><extensions><speed>0.116813</speed><course>64.369514</course><hAcc>1.774514</hAcc><vAcc>0.761394</vAcc></extensions></trkpt>
      <trkpt lon="-3.051344" lat="52.705672"><ele>397.098694</ele><time>2022-01-15T10:18:34Z</time><extensions><speed>0.104479</speed><course>65.729774</course><hAcc>1.763359</hAcc><vAcc>0.762658</vAcc></extensions></trkpt>
      <trkpt lon="-3.051343" lat="52.705673"><ele>397.114838</ele><time>2022-01-15T10:18:35Z</time><extensions><speed>0.094955</speed><course>73.432968</course><hAcc>1.732788</hAcc><vAcc>0.763799</vAcc></extensions></trkpt>
      <trkpt lon="-3.051341" lat="52.705673"><ele>397.130402</ele><time>2022-01-15T10:18:36Z</time><extensions><speed>0.080163</speed><course>83.548729</course><hAcc>1.711271</hAcc><vAcc>0.764774</vAcc></extensions></trkpt>
      <trkpt lon="-3.051340" lat="52.705673"><ele>397.145172</ele><time>2022-01-15T10:18:37Z</time><extensions><speed>0.064158</speed><course>94.066093</course><hAcc>1.712255</hAcc><vAcc>0.765556</vAcc></extensions></trkpt>
      <trkpt lon="-3.051339" lat="52.705673"><ele>397.159119</ele><time>2022-01-15T10:18:38Z</time><extensions><speed>0.037604</speed><course>102.566017</course><hAcc>1.748701</hAcc><vAcc>0.766155</vAcc></extensions></trkpt>
      <trkpt lon="-3.051339" lat="52.705673"><ele>397.172028</ele><time>2022-01-15T10:18:39Z</time><extensions><speed>0.023660</speed><course>108.398659</course><hAcc>1.761615</hAcc><vAcc>0.766576</vAcc></extensions></trkpt>
      <trkpt lon="-3.051339" lat="52.705673"><ele>397.183807</ele><time>2022-01-15T10:18:40Z</time><extensions><speed>0.026121</speed><course>111.361984</course><hAcc>1.721960</hAcc><vAcc>0.766871</vAcc></extensions></trkpt>
      <trkpt lon="-3.051338" lat="52.705673"><ele>397.194397</ele><time>2022-01-15T10:18:41Z</time><extensions><speed>0.022913</speed><course>112.453751</course><hAcc>1.714174</hAcc><vAcc>0.767097</vAcc></extensions></trkpt>
      <trkpt lon="-3.051338" lat="52.705673"><ele>397.203796</ele><time>2022-01-15T10:18:42Z</time><extensions><speed>0.017678</speed><course>113.024651</course><hAcc>1.734849</hAcc><vAcc>0.767320</vAcc></extensions></trkpt>
      <trkpt lon="-3.051338" lat="52.705673"><ele>397.212158</ele><time>2022-01-15T10:18:43Z</time><extensions><speed>0.008774</speed><course>122.961006</course><hAcc>1.755652</hAcc><vAcc>0.767596</vAcc></extensions></trkpt>
      <trkpt lon="-3.051338" lat="52.705673"><ele>397.217072</ele><time>2022-01-15T10:18:44Z</time><extensions><speed>0.003604</speed><course>203.519669</course><hAcc>1.764758</hAcc><vAcc>0.767966</vAcc></extensions></trkpt>
      <trkpt lon="-3.051338" lat="52.705672"><ele>397.220428</ele><time>2022-01-15T10:18:45Z</time><extensions><speed>0.010953</speed><course>258.162445</course><hAcc>1.762172</hAcc><vAcc>0.768402</vAcc></extensions></trkpt>
      <trkpt lon="-3.051339" lat="52.705672"><ele>397.222412</ele><time>2022-01-15T10:18:46Z</time><extensions><speed>0.021284</speed><course>265.965271</course><hAcc>1.754684</hAcc><vAcc>0.768946</vAcc></extensions></trkpt>
      <trkpt lon="-3.051339" lat="52.705672"><ele>397.222992</ele><time>2022-01-15T10:18:47Z</time><extensions><speed>0.032900</speed><course>268.293976</course><hAcc>1.747229</hAcc><vAcc>0.769422</vAcc></extensions></trkpt>
      <trkpt lon="-3.051340" lat="52.705672"><ele>397.222382</ele><time>2022-01-15T10:18:48Z</time><extensions><speed>0.046337</speed><course>269.181244</course><hAcc>1.739223</hAcc><vAcc>0.769879</vAcc></extensions></trkpt>
      <trkpt lon="-3.051340" lat="52.705672"><ele>397.220673</ele><time>2022-01-15T10:18:49Z</time><extensions><speed>0.064666</speed><course>269.514709</course><hAcc>1.726859</hAcc><vAcc>0.770192</vAcc></extensions></trkpt>
      <trkpt lon="-3.051342" lat="52.705672"><ele>397.217926</ele><time>2022-01-15T10:18:50Z</time><extensions><speed>0.081454</speed><course>269.602905</course><hAcc>1.720420</hAcc><vAcc>0.770213</vAcc></extensions></trkpt>
      <trkpt lon="-3.051343" lat="52.705672"><ele>397.214355</ele><time>2022-01-15T10:18:51Z</time><extensions><speed>0.112292</speed><course>269.535950</course><hAcc>1.696389</hAcc><vAcc>0.769978</vAcc></extensions></trkpt>
      <trkpt lon="-3.051345" lat="52.705672"><ele>397.210052</ele><time>2022-01-15T10:18:52Z</time><extensions><speed>0.131360</speed><course>269.284058</course><hAcc>1.681657</hAcc><vAcc>0.769459</vAcc></extensions></trkpt>
      <trkpt lon="-3.051347" lat="52.705672"><ele>397.205231</ele><time>2022-01-15T10:18:53Z</time><extensions><speed>0.116111</speed><course>268.444763</course><hAcc>1.685290</hAcc><vAcc>0.768633</vAcc></extensions></trkpt>
      <trkpt lon="-3.051348" lat="52.705672"><ele>397.200012</ele><time>2022-01-15T10:18:54Z</time><extensions><speed>0.087676</speed><course>267.293823</course><hAcc>1.683323</hAcc><vAcc>0.767469</vAcc></extensions></trkpt>
      <trkpt lon="-3.051349" lat="52.705672"><ele>397.192169</ele><time>2022-01-15T10:18:55Z</time><extensions><speed>0.080780</speed><course>267.028046</course><hAcc>1.666126</hAcc><vAcc>0.766108</vAcc></extensions></trkpt>
      <trkpt lon="-3.051350" lat="52.705672"><ele>397.186249</ele><time>2022-01-15T10:18:56Z</time><extensions><speed>0.049006</speed><course>266.965759</course><hAcc>1.689384</hAcc><vAcc>0.764485</vAcc></extensions></trkpt>
      <trkpt lon="-3.051351" lat="52.705672"><ele>397.180481</ele><time>2022-01-15T10:18:57Z</time><extensions><speed>0.049546</speed><course>267.169434</course><hAcc>1.675724</hAcc><vAcc>0.762710</vAcc></extensions></trkpt>
      <trkpt lon="-3.051352" lat="52.705672"><ele>397.174988</ele><time>2022-01-15T10:18:58Z</time><extensions><speed>0.036693</speed><course>267.651001</course><hAcc>1.709047</hAcc><vAcc>0.760860</vAcc></extensions></trkpt>
      <trkpt lon="-3.051352" lat="52.705672"><ele>397.169861</ele><time>2022-01-15T10:18:59Z</time><extensions><speed>0.031906</speed><course>268.570953</course><hAcc>1.736812</hAcc><vAcc>0.759057</vAcc></extensions></trkpt>
      <trkpt lon="-3.051353" lat="52.705672"><ele>397.166962</ele><time>2022-01-15T10:19:00Z</time><extensions><speed>0.046418</speed><course>270.478027</course><hAcc>1.719376</hAcc><vAcc>0.757391</vAcc></extensions></trkpt>
      <trkpt lon="-3.051354" lat="52.705672"><ele>397.163818</ele><time>2022-01-15T10:19:01Z</time><extensions><speed>0.057354</speed><course>271.305298</course><hAcc>1.729507</hAcc><vAcc>0.755933</vAcc></extensions></trkpt>
      <trkpt lon="-3.051355" lat="52.705672"><ele>397.154480</ele><time>2022-01-15T10:19:02Z</time><extensions><speed>0.067583</speed><course>270.976868</course><hAcc>1.756632</hAcc><vAcc>0.754950</vAcc></extensions></trkpt>
      <trkpt lon="-3.051356" lat="52.705672"><ele>397.147339</ele><time>2022-01-15T10:19:03Z</time><extensions><speed>0.078833</speed><course>270.510498</course><hAcc>1.782165</hAcc><vAcc>0.754400</vAcc></extensions></trkpt>
      <trkpt lon="-3.051357" lat="52.705672"><ele>397.145966</ele><time>2022-01-15T10:19:04Z</time><extensions><speed>0.087368</speed><course>269.770905</course><hAcc>1.799144</hAcc><vAcc>0.754244</vAcc></extensions></trkpt>
      <trkpt lon="-3.051358" lat="52.705672"><ele>397.134827</ele><time>2022-01-15T10:19:05Z</time><extensions><speed>0.082449</speed><course>268.135193</course><hAcc>1.806933</hAcc><vAcc>0.754541</vAcc></extensions></trkpt>
      <trkpt lon="-3.051360" lat="52.705672"><ele>397.150879</ele><time>2022-01-15T10:19:06Z</time><extensions><speed>0.073360</speed><course>264.327393</course><hAcc>1.800991</hAcc><vAcc>0.755272</vAcc></extensions></trkpt>
      <trkpt lon="-3.051361" lat="52.705672"><ele>397.147369</ele><time>2022-01-15T10:19:06Z</time><extensions><speed>0.064530</speed><course>260.754395</course><hAcc>1.795488</hAcc><vAcc>0.756357</vAcc></extensions></trkpt>
      <trkpt lon="-3.051362" lat="52.705672"><ele>397.162415</ele><time>2022-01-15T10:19:07Z</time><extensions><speed>0.061148</speed><course>256.699188</course><hAcc>1.795649</hAcc><vAcc>0.757717</vAcc></extensions></trkpt>
      <trkpt lon="-3.051363" lat="52.705672"><ele>397.170715</ele><time>2022-01-15T10:19:08Z</time><extensions><speed>0.070006</speed><course>251.125031</course><hAcc>1.801572</hAcc><vAcc>0.759275</vAcc></extensions></trkpt>
      <trkpt lon="-3.051364" lat="52.705672"><ele>397.180695</ele><time>2022-01-15T10:19:09Z</time><extensions><speed>0.096860</speed><course>246.417526</course><hAcc>1.802495</hAcc><vAcc>0.760942</vAcc></extensions></trkpt>
      <trkpt lon="-3.051365" lat="52.705671"><ele>397.189545</ele><time>2022-01-15T10:19:10Z</time><extensions><speed>0.138756</speed><course>245.911911</course><hAcc>1.799742</hAcc><vAcc>0.762549</vAcc></extensions></trkpt>
      <trkpt lon="-3.051368" lat="52.705670"><ele>397.176575</ele><time>2022-01-15T10:19:11Z</time><extensions><speed>0.184944</speed><course>249.549728</course><hAcc>1.798138</hAcc><vAcc>0.763905</vAcc></extensions></trkpt>
      <trkpt lon="-3.051371" lat="52.705670"><ele>397.209351</ele><time>2022-01-15T10:19:12Z</time><extensions><speed>0.228397</speed><course>251.972290</course><hAcc>1.798744</hAcc><vAcc>0.764667</vAcc></extensions></trkpt>
      <trkpt lon="-3.051374" lat="52.705669"><ele>397.220093</ele><time>2022-01-15T10:19:13Z</time><extensions><speed>0.264826</speed><course>250.607391</course><hAcc>1.798251</hAcc><vAcc>0.764790</vAcc></extensions></trkpt>
      <trkpt lon="-3.051378" lat="52.705668"><ele>397.236420</ele><time>2022-01-15T10:19:14Z</time><extensions><speed>0.324773</speed><course>246.798981</course><hAcc>1.778887</hAcc><vAcc>0.764346</vAcc></extensions></trkpt>
      <trkpt lon="-3.051383" lat="52.705667"><ele>397.247131</ele><time>2022-01-15T10:19:15Z</time><extensions><speed>0.413694</speed><course>244.085175</course><hAcc>1.736991</hAcc><vAcc>0.763222</vAcc></extensions></trkpt>
      <trkpt lon="-3.051389" lat="52.705665"><ele>397.252716</ele><time>2022-01-15T10:19:16Z</time><extensions><speed>0.504227</speed><course>243.113495</course><hAcc>1.694028</hAcc><vAcc>0.761362</vAcc></extensions></trkpt>
      <trkpt lon="-3.051395" lat="52.705663"><ele>397.261841</ele><time>2022-01-15T10:19:17Z</time><extensions><speed>0.380531</speed><course>238.912338</course><hAcc>1.685648</hAcc><vAcc>0.758805</vAcc></extensions></trkpt>
      <trkpt lon="-3.051399" lat="52.705661"><ele>397.245819</ele><time>2022-01-15T10:19:18Z</time><extensions><speed>0.142135</speed><course>230.144226</course><hAcc>1.736990</hAcc><vAcc>0.755601</vAcc></extensions></trkpt>
      <trkpt lon="-3.051400" lat="52.705660"><ele>397.239624</ele><time>2022-01-15T10:19:19Z</time><extensions><speed>0.145229</speed><course>222.223358</course><hAcc>1.717894</hAcc><vAcc>0.751966</vAcc></extensions></trkpt>
      <trkpt lon="-3.051402" lat="52.705659"><ele>397.229736</ele><time>2022-01-15T10:19:20Z</time><extensions><speed>0.157751</speed><course>218.859375</course><hAcc>1.710716</hAcc><vAcc>0.748154</vAcc></extensions></trkpt>
      <trkpt lon="-3.051404" lat="52.705658"><ele>397.221893</ele><time>2022-01-15T10:19:21Z</time><extensions><speed>0.180645</speed><course>217.182556</course><hAcc>1.723075</hAcc><vAcc>0.744508</vAcc></extensions></trkpt>
      <trkpt lon="-3.051405" lat="52.705656"><ele>397.205139</ele><time>2022-01-15T10:19:22Z</time><extensions><speed>0.244777</speed><course>217.677856</course><hAcc>1.729838</hAcc><vAcc>0.741247</vAcc></extensions></trkpt>
      <trkpt lon="-3.051408" lat="52.705654"><ele>397.189331</ele><time>2022-01-15T10:19:23Z</time><extensions><speed>0.360530</speed><course>219.156326</course><hAcc>1.729334</hAcc><vAcc>0.738879</vAcc></extensions></trkpt>
      <trkpt lon="-3.051412" lat="52.705652"><ele>397.173523</ele><time>2022-01-15T10:19:24Z</time><extensions><speed>0.410955</speed><course>221.317841</course><hAcc>1.763417</hAcc><vAcc>0.737579</vAcc></extensions></trkpt>
      <trkpt lon="-3.051416" lat="52.705649"><ele>397.150757</ele><time>2022-01-15T10:19:25Z</time><extensions><speed>0.430922</speed><course>223.319260</course><hAcc>1.801643</hAcc><vAcc>0.737392</vAcc></extensions></trkpt>
      <trkpt lon="-3.051420" lat="52.705646"><ele>397.127319</ele><time>2022-01-15T10:19:26Z</time><extensions><speed>0.429156</speed><course>224.698624</course><hAcc>1.823624</hAcc><vAcc>0.738244</vAcc></extensions></trkpt>
      <trkpt lon="-3.051425" lat="52.705644"><ele>397.109619</ele><time>2022-01-15T10:19:27Z</time><extensions><speed>0.395088</speed><course>226.279297</course><hAcc>1.832164</hAcc><vAcc>0.739872</vAcc></extensions></trkpt>
      <trkpt lon="-3.051429" lat="52.705641"><ele>397.093903</ele><time>2022-01-15T10:19:28Z</time><extensions><speed>0.345673</speed><course>227.328201</course><hAcc>1.824687</hAcc><vAcc>0.742078</vAcc></extensions></trkpt>
      <trkpt lon="-3.051432" lat="52.705639"><ele>397.080872</ele><time>2022-01-15T10:19:29Z</time><extensions><speed>0.305192</speed><course>225.359344</course><hAcc>1.803132</hAcc><vAcc>0.744613</vAcc></extensions></trkpt>
      <trkpt lon="-3.051435" lat="52.705638"><ele>397.070465</ele><time>2022-01-15T10:19:30Z</time><extensions><speed>0.132216</speed><course>241.483185</course><hAcc>1.792853</hAcc><vAcc>0.747241</vAcc></extensions></trkpt>
      <trkpt lon="-3.051436" lat="52.705638"><ele>397.067627</ele><time>2022-01-15T10:19:31Z</time><extensions><speed>0.054804</speed><course>300.028625</course><hAcc>1.772638</hAcc><vAcc>0.749741</vAcc></extensions></trkpt>
      <trkpt lon="-3.051436" lat="52.705638"><ele>397.063080</ele><time>2022-01-15T10:19:32Z</time><extensions><speed>0.069744</speed><course>1.232384</course><hAcc>1.765131</hAcc><vAcc>0.752004</vAcc></extensions></trkpt>
      <trkpt lon="-3.051436" lat="52.705639"><ele>397.060211</ele><time>2022-01-15T10:19:33Z</time><extensions><speed>0.071192</speed><course>22.438244</course><hAcc>1.789233</hAcc><vAcc>0.753943</vAcc></extensions></trkpt>
      <trkpt lon="-3.051435" lat="52.705640"><ele>397.073151</ele><time>2022-01-15T10:19:34Z</time><extensions><speed>0.085366</speed><course>28.508282</course><hAcc>1.777671</hAcc><vAcc>0.755315</vAcc></extensions></trkpt>
      <trkpt lon="-3.051435" lat="52.705640"><ele>397.093170</ele><time>2022-01-15T10:19:35Z</time><extensions><speed>0.103140</speed><course>29.547281</course><hAcc>1.753917</hAcc><vAcc>0.756210</vAcc></extensions></trkpt>
      <trkpt lon="-3.051434" lat="52.705641"><ele>397.102539</ele><time>2022-01-15T10:19:36Z</time><extensions><speed>0.098660</speed><course>29.935070</course><hAcc>1.762535</hAcc><vAcc>0.756786</vAcc></extensions></trkpt>
      <trkpt lon="-3.051433" lat="52.705642"><ele>397.113892</ele><time>2022-01-15T10:19:37Z</time><extensions><speed>0.112252</speed><course>33.035599</course><hAcc>1.760781</hAcc><vAcc>0.757071</vAcc></extensions></trkpt>
      <trkpt lon="-3.051432" lat="52.705643"><ele>397.124481</ele><time>2022-01-15T10:19:38Z</time><extensions><speed>0.123702</speed><course>38.372540</course><hAcc>1.766248</hAcc><vAcc>0.756914</vAcc></extensions></trkpt>
      <trkpt lon="-3.051431" lat="52.705644"><ele>397.143921</ele><time>2022-01-15T10:19:39Z</time><extensions><speed>0.137934</speed><course>42.903870</course><hAcc>1.768451</hAcc><vAcc>0.756630</vAcc></extensions></trkpt>
      <trkpt lon="-3.051429" lat="52.705645"><ele>397.154663</ele><time>2022-01-15T10:19:40Z</time><extensions><speed>0.144406</speed><course>45.519299</course><hAcc>1.762691</hAcc><vAcc>0.756327</vAcc></extensions></trkpt>
      <trkpt lon="-3.051428" lat="52.705646"><ele>397.160339</ele><time>2022-01-15T10:19:41Z</time><extensions><speed>0.135979</speed><course>46.813717</course><hAcc>1.758366</hAcc><vAcc>0.756100</vAcc></extensions></trkpt>
      <trkpt lon="-3.051426" lat="52.705646"><ele>397.168732</ele><time>2022-01-15T10:19:42Z</time><extensions><speed>0.110964</speed><course>47.537148</course><hAcc>1.780105</hAcc><vAcc>0.756088</vAcc></extensions></trkpt>
      <trkpt lon="-3.051425" lat="52.705647"><ele>397.177795</ele><time>2022-01-15T10:19:43Z</time><extensions><speed>0.066599</speed><course>48.421291</course><hAcc>1.821049</hAcc><vAcc>0.756319</vAcc></extensions></trkpt>
      <trkpt lon="-3.051425" lat="52.705647"><ele>397.188049</ele><time>2022-01-15T10:19:44Z</time><extensions><speed>0.087384</speed><course>52.603344</course><hAcc>1.782551</hAcc><vAcc>0.756872</vAcc></extensions></trkpt>
      <trkpt lon="-3.051423" lat="52.705648"><ele>397.195312</ele><time>2022-01-15T10:19:45Z</time><extensions><speed>0.092720</speed><course>59.123222</course><hAcc>1.767541</hAcc><vAcc>0.757892</vAcc></extensions></trkpt>
      <trkpt lon="-3.051422" lat="52.705648"><ele>397.189941</ele><time>2022-01-15T10:19:46Z</time><extensions><speed>0.088144</speed><course>66.982971</course><hAcc>1.780090</hAcc><vAcc>0.759392</vAcc></extensions></trkpt>
      <trkpt lon="-3.051421" lat="52.705648"><ele>397.186523</ele><time>2022-01-15T10:19:47Z</time><extensions><speed>0.076499</speed><course>73.716682</course><hAcc>1.795220</hAcc><vAcc>0.761305</vAcc></extensions></trkpt>
      <trkpt lon="-3.051420" lat="52.705648"><ele>397.198761</ele><time>2022-01-15T10:19:48Z</time><extensions><speed>0.066691</speed><course>78.466423</course><hAcc>1.799630</hAcc><vAcc>0.763403</vAcc></extensions></trkpt>
      <trkpt lon="-3.051419" lat="52.705649"><ele>397.215973</ele><time>2022-01-15T10:19:49Z</time><extensions><speed>0.058163</speed><course>85.597328</course><hAcc>1.805626</hAcc><vAcc>0.765714</vAcc></extensions></trkpt>
      <trkpt lon="-3.051418" lat="52.705649"><ele>397.235870</ele><time>2022-01-15T10:19:50Z</time><extensions><speed>0.058312</speed><course>99.025345</course><hAcc>1.805784</hAcc><vAcc>0.768093</vAcc></extensions></trkpt>
      <trkpt lon="-3.051417" lat="52.705648"><ele>397.243927</ele><time>2022-01-15T10:19:51Z</time><extensions><speed>0.069090</speed><course>118.991814</course><hAcc>1.799856</hAcc><vAcc>0.770197</vAcc></extensions></trkpt>
      <trkpt lon="-3.051417" lat="52.705648"><ele>397.267639</ele><time>2022-01-15T10:19:52Z</time><extensions><speed>0.088479</speed><course>138.058914</course><hAcc>1.794738</hAcc><vAcc>0.771886</vAcc></extensions></trkpt>
      <trkpt lon="-3.051416" lat="52.705647"><ele>397.288910</ele><time>2022-01-15T10:19:53Z</time><extensions><speed>0.107573</speed><course>147.772034</course><hAcc>1.786047</hAcc><vAcc>0.773299</vAcc></extensions></trkpt>
      <trkpt lon="-3.051415" lat="52.705646"><ele>397.315979</ele><time>2022-01-15T10:19:54Z</time><extensions><speed>0.109200</speed><course>150.837372</course><hAcc>1.777793</hAcc><vAcc>0.774146</vAcc></extensions></trkpt>
      <trkpt lon="-3.051414" lat="52.705646"><ele>397.345612</ele><time>2022-01-15T10:19:55Z</time><extensions><speed>0.091896</speed><course>156.051987</course><hAcc>1.774453</hAcc><vAcc>0.774442</vAcc></extensions></trkpt>
      <trkpt lon="-3.051414" lat="52.705645"><ele>397.377563</ele><time>2022-01-15T10:19:56Z</time><extensions><speed>0.067728</speed><course>171.952728</course><hAcc>1.775729</hAcc><vAcc>0.774206</vAcc></extensions></trkpt>
      <trkpt lon="-3.051414" lat="52.705644"><ele>397.395691</ele><time>2022-01-15T10:19:57Z</time><extensions><speed>0.048235</speed><course>200.317749</course><hAcc>1.779192</hAcc><vAcc>0.773480</vAcc></extensions></trkpt>
      <trkpt lon="-3.051414" lat="52.705644"><ele>397.407013</ele><time>2022-01-15T10:19:58Z</time><extensions><speed>0.043360</speed><course>233.282761</course><hAcc>1.769734</hAcc><vAcc>0.772320</vAcc></extensions></trkpt>
      <trkpt lon="-3.051415" lat="52.705644"><ele>397.446960</ele><time>2022-01-15T10:19:59Z</time><extensions><speed>0.042634</speed><course>263.774078</course><hAcc>1.774260</hAcc><vAcc>0.770757</vAcc></extensions></trkpt>
      <trkpt lon="-3.051416" lat="52.705644"><ele>397.484375</ele><time>2022-01-15T10:20:00Z</time><extensions><speed>0.048567</speed><course>282.962738</course><hAcc>1.774266</hAcc><vAcc>0.768898</vAcc></extensions></trkpt>
      <trkpt lon="-3.051416" lat="52.705644"><ele>397.499847</ele><time>2022-01-15T10:20:01Z</time><extensions><speed>0.048576</speed><course>282.465942</course><hAcc>1.766723</hAcc><vAcc>0.766890</vAcc></extensions></trkpt>
      <trkpt lon="-3.051417" lat="52.705644"><ele>397.513977</ele><time>2022-01-15T10:20:02Z</time><extensions><speed>0.033858</speed><course>267.157623</course><hAcc>1.774258</hAcc><vAcc>0.764835</vAcc></extensions></trkpt>
      <trkpt lon="-3.051417" lat="52.705644"><ele>397.526245</ele><time>2022-01-15T10:20:03Z</time><extensions><speed>0.013575</speed><course>223.274811</course><hAcc>1.795824</hAcc><vAcc>0.762868</vAcc></extensions></trkpt>
      <trkpt lon="-3.051417" lat="52.705644"><ele>397.530365</ele><time>2022-01-15T10:20:04Z</time><extensions><speed>0.020654</speed><course>137.688522</course><hAcc>1.779356</hAcc><vAcc>0.761023</vAcc></extensions></trkpt>
      <trkpt lon="-3.051417" lat="52.705644"><ele>397.529907</ele><time>2022-01-15T10:20:05Z</time><extensions><speed>0.042342</speed><course>117.504242</course><hAcc>1.768049</hAcc><vAcc>0.759297</vAcc></extensions></trkpt>
      <trkpt lon="-3.051416" lat="52.705643"><ele>397.525055</ele><time>2022-01-15T10:20:06Z</time><extensions><speed>0.061299</speed><course>114.083824</course><hAcc>1.771669</hAcc><vAcc>0.757650</vAcc></extensions></trkpt>
      <trkpt lon="-3.051415" lat="52.705643"><ele>397.516357</ele><time>2022-01-15T10:20:07Z</time><extensions><speed>0.069611</speed><course>119.775826</course><hAcc>1.784300</hAcc><vAcc>0.756103</vAcc></extensions></trkpt>
      <trkpt lon="-3.051414" lat="52.705643"><ele>397.524017</ele><time>2022-01-15T10:20:08Z</time><extensions><speed>0.070827</speed><course>135.220367</course><hAcc>1.797435</hAcc><vAcc>0.754650</vAcc></extensions></trkpt>
      <trkpt lon="-3.051414" lat="52.705642"><ele>397.523010</ele><time>2022-01-15T10:20:09Z</time><extensions><speed>0.096074</speed><course>147.138443</course><hAcc>1.786666</hAcc><vAcc>0.753326</vAcc></extensions></trkpt>
      <trkpt lon="-3.051413" lat="52.705641"><ele>397.520569</ele><time>2022-01-15T10:20:10Z</time><extensions><speed>0.106027</speed><course>153.713348</course><hAcc>1.798973</hAcc><vAcc>0.752198</vAcc></extensions></trkpt>
      <trkpt lon="-3.051412" lat="52.705640"><ele>397.506592</ele><time>2022-01-15T10:20:11Z</time><extensions><speed>0.132156</speed><course>159.314514</course><hAcc>1.792642</hAcc><vAcc>0.751336</vAcc></extensions></trkpt>
      <trkpt lon="-3.051412" lat="52.705639"><ele>397.505463</ele><time>2022-01-15T10:20:12Z</time><extensions><speed>0.135003</speed><course>166.449402</course><hAcc>1.800694</hAcc><vAcc>0.750765</vAcc></extensions></trkpt>
      <trkpt lon="-3.051411" lat="52.705638"><ele>397.500275</ele><time>2022-01-15T10:20:13Z</time><extensions><speed>0.133036</speed><course>174.486252</course><hAcc>1.806801</hAcc><vAcc>0.750557</vAcc></extensions></trkpt>
      <trkpt lon="-3.051411" lat="52.705637"><ele>397.496277</ele><time>2022-01-15T10:20:14Z</time><extensions><speed>0.121738</speed><course>182.281448</course><hAcc>1.809657</hAcc><vAcc>0.750713</vAcc></extensions></trkpt>
      <trkpt lon="-3.051411" lat="52.705636"><ele>397.493835</ele><time>2022-01-15T10:20:15Z</time><extensions><speed>0.112461</speed><course>189.008408</course><hAcc>1.809800</hAcc><vAcc>0.751223</vAcc></extensions></trkpt>
      <trkpt lon="-3.051412" lat="52.705635"><ele>397.493073</ele><time>2022-01-15T10:20:16Z</time><extensions><speed>0.109946</speed><course>194.143478</course><hAcc>1.808854</hAcc><vAcc>0.752114</vAcc></extensions></trkpt>
      <trkpt lon="-3.051412" lat="52.705634"><ele>397.493774</ele><time>2022-01-15T10:20:17Z</time><extensions><speed>0.106498</speed><course>195.897202</course><hAcc>1.809963</hAcc><vAcc>0.753364</vAcc></extensions></trkpt>
      <trkpt lon="-3.051413" lat="52.705633"><ele>397.501892</ele><time>2022-01-15T10:20:18Z</time><extensions><speed>0.108193</speed><course>191.922577</course><hAcc>1.796303</hAcc><vAcc>0.754972</vAcc></extensions></trkpt>
      <trkpt lon="-3.051413" lat="52.705632"><ele>397.511658</ele><time>2022-01-15T10:20:19Z</time><extensions><speed>0.102967</speed><course>184.932693</course><hAcc>1.783335</hAcc><vAcc>0.756923</vAcc></extensions></trkpt>
      <trkpt lon="-3.051413" lat="52.705631"><ele>397.522949</ele><time>2022-01-15T10:20:20Z</time><extensions><speed>0.102139</speed><course>181.764648</course><hAcc>1.770501</hAcc><vAcc>0.759125</vAcc></extensions></trkpt>
      <trkpt lon="-3.051413" lat="52.705630"><ele>397.535706</ele><time>2022-01-15T10:20:21Z</time><extensions><speed>0.103224</speed><course>186.765488</course><hAcc>1.755999</hAcc><vAcc>0.761504</vAcc></extensions></trkpt>
      <trkpt lon="-3.051413" lat="52.705629"><ele>397.545715</ele><time>2022-01-15T10:20:22Z</time><extensions><speed>0.109008</speed><course>194.649948</course><hAcc>1.738299</hAcc><vAcc>0.763997</vAcc></extensions></trkpt>
      <trkpt lon="-3.051414" lat="52.705628"><ele>397.553894</ele><time>2022-01-15T10:20:23Z</time><extensions><speed>0.080629</speed><course>200.643234</course><hAcc>1.756732</hAcc><vAcc>0.766609</vAcc></extensions></trkpt>
      <trkpt lon="-3.051414" lat="52.705628"><ele>397.559814</ele><time>2022-01-15T10:20:24Z</time><extensions><speed>0.060108</speed><course>209.864273</course><hAcc>1.766782</hAcc><vAcc>0.769252</vAcc></extensions></trkpt>
      <trkpt lon="-3.051415" lat="52.705627"><ele>397.568970</ele><time>2022-01-15T10:20:25Z</time><extensions><speed>0.067047</speed><course>222.067642</course><hAcc>1.737318</hAcc><vAcc>0.771819</vAcc></extensions></trkpt>
      <trkpt lon="-3.051416" lat="52.705627"><ele>397.577942</ele><time>2022-01-15T10:20:26Z</time><extensions><speed>0.079173</speed><course>233.507446</course><hAcc>1.704393</hAcc><vAcc>0.774195</vAcc></extensions></trkpt>
      <trkpt lon="-3.051417" lat="52.705627"><ele>397.585663</ele><time>2022-01-15T10:20:27Z</time><extensions><speed>0.082089</speed><course>243.664520</course><hAcc>1.688009</hAcc><vAcc>0.776388</vAcc></extensions></trkpt>
      <trkpt lon="-3.051418" lat="52.705626"><ele>397.592438</ele><time>2022-01-15T10:20:28Z</time><extensions><speed>0.071499</speed><course>254.885803</course><hAcc>1.679563</hAcc><vAcc>0.778323</vAcc></extensions></trkpt>
      <trkpt lon="-3.051418" lat="52.705626"><ele>397.597992</ele><time>2022-01-15T10:20:29Z</time><extensions><speed>0.048690</speed><course>269.953125</course><hAcc>1.688064</hAcc><vAcc>0.780010</vAcc></extensions></trkpt>
      <trkpt lon="-3.051419" lat="52.705626"><ele>397.602081</ele><time>2022-01-15T10:20:30Z</time><extensions><speed>0.024773</speed><course>296.599426</course><hAcc>1.720255</hAcc><vAcc>0.781485</vAcc></extensions></trkpt>
      <trkpt lon="-3.051419" lat="52.705626"><ele>397.604706</ele><time>2022-01-15T10:20:31Z</time><extensions><speed>0.020908</speed><course>344.631042</course><hAcc>1.726322</hAcc><vAcc>0.782840</vAcc></extensions></trkpt>
      <trkpt lon="-3.051419" lat="52.705627"><ele>397.605988</ele><time>2022-01-15T10:20:32Z</time><extensions><speed>0.041371</speed><course>12.265503</course><hAcc>1.685790</hAcc><vAcc>0.784094</vAcc></extensions></trkpt>
      <trkpt lon="-3.051419" lat="52.705627"><ele>397.619110</ele><time>2022-01-15T10:20:33Z</time><extensions><speed>0.045649</speed><course>23.832148</course><hAcc>1.685952</hAcc><vAcc>0.785295</vAcc></extensions></trkpt>
      <trkpt lon="-3.051419" lat="52.705628"><ele>397.588593</ele><time>2022-01-15T10:20:34Z</time><extensions><speed>0.054896</speed><course>33.918507</course><hAcc>1.679909</hAcc><vAcc>0.786497</vAcc></extensions></trkpt>
      <trkpt lon="-3.051418" lat="52.705628"><ele>397.559479</ele><time>2022-01-15T10:20:35Z</time><extensions><speed>0.055681</speed><course>42.080757</course><hAcc>1.707367</hAcc><vAcc>0.787664</vAcc></extensions></trkpt>
      <trkpt lon="-3.051417" lat="52.705628"><ele>397.525543</ele><time>2022-01-15T10:20:36Z</time><extensions><speed>0.046276</speed><course>49.060665</course><hAcc>1.754251</hAcc><vAcc>0.788783</vAcc></extensions></trkpt>
      <trkpt lon="-3.051417" lat="52.705629"><ele>397.486969</ele><time>2022-01-15T10:20:37Z</time><extensions><speed>0.057565</speed><course>52.944458</course><hAcc>1.735986</hAcc><vAcc>0.789833</vAcc></extensions></trkpt>
      <trkpt lon="-3.051416" lat="52.705629"><ele>397.443848</ele><time>2022-01-15T10:20:38Z</time><extensions><speed>0.051898</speed><course>54.487022</course><hAcc>1.733534</hAcc><vAcc>0.790796</vAcc></extensions></trkpt>
      <trkpt lon="-3.051416" lat="52.705629"><ele>397.396393</ele><time>2022-01-15T10:20:39Z</time><extensions><speed>0.041655</speed><course>55.992607</course><hAcc>1.748327</hAcc><vAcc>0.791670</vAcc></extensions></trkpt>
      <trkpt lon="-3.051415" lat="52.705629"><ele>397.344940</ele><time>2022-01-15T10:20:40Z</time><extensions><speed>0.033202</speed><course>58.624355</course><hAcc>1.761950</hAcc><vAcc>0.792442</vAcc></extensions></trkpt>
      <trkpt lon="-3.051415" lat="52.705629"><ele>397.289886</ele><time>2022-01-15T10:20:41Z</time><extensions><speed>0.028963</speed><course>63.533447</course><hAcc>1.772638</hAcc><vAcc>0.793111</vAcc></extensions></trkpt>
      <trkpt lon="-3.051414" lat="52.705629"><ele>397.231934</ele><time>2022-01-15T10:20:42Z</time><extensions><speed>0.031574</speed><course>70.151085</course><hAcc>1.777905</hAcc><vAcc>0.793672</vAcc></extensions></trkpt>
      <trkpt lon="-3.051414" lat="52.705630"><ele>397.171936</ele><time>2022-01-15T10:20:43Z</time><extensions><speed>0.047427</speed><course>75.108643</course><hAcc>1.768910</hAcc><vAcc>0.794130</vAcc></extensions></trkpt>
      <trkpt lon="-3.051413" lat="52.705630"><ele>397.111237</ele><time>2022-01-15T10:20:44Z</time><extensions><speed>0.052954</speed><course>76.717743</course><hAcc>1.767902</hAcc><vAcc>0.794496</vAcc></extensions></trkpt>
      <trkpt lon="-3.051412" lat="52.705630"><ele>397.051605</ele><time>2022-01-15T10:20:45Z</time><extensions><speed>0.043442</speed><course>77.040291</course><hAcc>1.766903</hAcc><vAcc>0.794770</vAcc></extensions></trkpt>
      <trkpt lon="-3.051412" lat="52.705630"><ele>396.994415</ele><time>2022-01-15T10:20:46Z</time><extensions><speed>0.032628</speed><course>77.222916</course><hAcc>1.762517</hAcc><vAcc>0.794958</vAcc></extensions></trkpt>
      <trkpt lon="-3.051411" lat="52.705630"><ele>396.940643</ele><time>2022-01-15T10:20:47Z</time><extensions><speed>0.022853</speed><course>77.343315</course><hAcc>1.755184</hAcc><vAcc>0.795087</vAcc></extensions></trkpt>
      <trkpt lon="-3.051411" lat="52.705630"><ele>396.891022</ele><time>2022-01-15T10:20:48Z</time><extensions><speed>0.016181</speed><course>77.429451</course><hAcc>1.737748</hAcc><vAcc>0.795155</vAcc></extensions></trkpt>
      <trkpt lon="-3.051411" lat="52.705630"><ele>396.845917</ele><time>2022-01-15T10:20:49Z</time><extensions><speed>0.010825</speed><course>77.492577</course><hAcc>1.722384</hAcc><vAcc>0.795183</vAcc></extensions></trkpt>
      <trkpt lon="-3.051411" lat="52.705630"><ele>396.805511</ele><time>2022-01-15T10:20:50Z</time><extensions><speed>0.006797</speed><course>77.542625</course><hAcc>1.711996</hAcc><vAcc>0.795176</vAcc></extensions></trkpt>
      <trkpt lon="-3.051411" lat="52.705630"><ele>396.769806</ele><time>2022-01-15T10:20:51Z</time><extensions><speed>0.004110</speed><course>77.584610</course><hAcc>1.703717</hAcc><vAcc>0.795146</vAcc></extensions></trkpt>
      <trkpt lon="-3.051411" lat="52.705630"><ele>396.738647</ele><time>2022-01-15T10:20:52Z</time><extensions><speed>0.002476</speed><course>77.619659</course><hAcc>1.701205</hAcc><vAcc>0.795140</vAcc></extensions></trkpt>
      <trkpt lon="-3.051411" lat="52.705630"><ele>396.739258</ele><time>2022-01-15T10:20:53Z</time><extensions><speed>0.004028</speed><course>248.206619</course><hAcc>1.718291</hAcc><vAcc>0.795127</vAcc></extensions></trkpt>
      <trkpt lon="-3.051411" lat="52.705630"><ele>396.753082</ele><time>2022-01-15T10:20:55Z</time><extensions><speed>0.011280</speed><course>249.565872</course><hAcc>1.741555</hAcc><vAcc>0.795186</vAcc></extensions></trkpt>
      <trkpt lon="-3.051412" lat="52.705630"><ele>396.765900</ele><time>2022-01-15T10:20:56Z</time><extensions><speed>0.034977</speed><course>249.137131</course><hAcc>1.706881</hAcc><vAcc>0.795240</vAcc></extensions></trkpt>
      <trkpt lon="-3.051412" lat="52.705630"><ele>396.785828</ele><time>2022-01-15T10:20:56Z</time><extensions><speed>0.064147</speed><course>248.888336</course><hAcc>1.705490</hAcc><vAcc>0.795329</vAcc></extensions></trkpt>
      <trkpt lon="-3.051414" lat="52.705629"><ele>396.812439</ele><time>2022-01-15T10:20:57Z</time><extensions><speed>0.102380</speed><course>248.745682</course><hAcc>1.730890</hAcc><vAcc>0.795447</vAcc></extensions></trkpt>
      <trkpt lon="-3.051415" lat="52.705629"><ele>396.845245</ele><time>2022-01-15T10:20:59Z</time><extensions><speed>0.158739</speed><course>248.631683</course><hAcc>1.752186</hAcc><vAcc>0.795585</vAcc></extensions></trkpt>
      <trkpt lon="-3.051418" lat="52.705628"><ele>396.890839</ele><time>2022-01-15T10:21:00Z</time><extensions><speed>0.231117</speed><course>248.220001</course><hAcc>1.768618</hAcc><vAcc>0.795751</vAcc></extensions></trkpt>
      <trkpt lon="-3.051422" lat="52.705627"><ele>396.942352</ele><time>2022-01-15T10:21:00Z</time><extensions><speed>0.330497</speed><course>247.889038</course><hAcc>1.773549</hAcc><vAcc>0.795947</vAcc></extensions></trkpt>
      <trkpt lon="-3.051427" lat="52.705626"><ele>396.998810</ele><time>2022-01-15T10:21:01Z</time><extensions><speed>0.440802</speed><course>247.537384</course><hAcc>1.773072</hAcc><vAcc>0.796158</vAcc></extensions></trkpt>
      <trkpt lon="-3.051434" lat="52.705624"><ele>397.058868</ele><time>2022-01-15T10:21:03Z</time><extensions><speed>0.533289</speed><course>247.016327</course><hAcc>1.768186</hAcc><vAcc>0.796368</vAcc></extensions></trkpt>
      <trkpt lon="-3.051441" lat="52.705622"><ele>397.120941</ele><time>2022-01-15T10:21:04Z</time><extensions><speed>0.551136</speed><course>245.913712</course><hAcc>1.755141</hAcc><vAcc>0.796557</vAcc></extensions></trkpt>
      <trkpt lon="-3.051448" lat="52.705620"><ele>397.183258</ele><time>2022-01-15T10:21:05Z</time><extensions><speed>0.473997</speed><course>244.028320</course><hAcc>1.743626</hAcc><vAcc>0.796724</vAcc></extensions></trkpt>
      <trkpt lon="-3.051454" lat="52.705619"><ele>397.244385</ele><time>2022-01-15T10:21:06Z</time><extensions><speed>0.349978</speed><course>241.627701</course><hAcc>1.745017</hAcc><vAcc>0.796861</vAcc></extensions></trkpt>
      <trkpt lon="-3.051458" lat="52.705617"><ele>397.303375</ele><time>2022-01-15T10:21:06Z</time><extensions><speed>0.263790</speed><course>238.622742</course><hAcc>1.745237</hAcc><vAcc>0.796965</vAcc></extensions></trkpt>
      <trkpt lon="-3.051461" lat="52.705616"><ele>397.359619</ele><time>2022-01-15T10:21:07Z</time><extensions><speed>0.210560</speed><course>234.969681</course><hAcc>1.751269</hAcc><vAcc>0.797025</vAcc></extensions></trkpt>
      <trkpt lon="-3.051463" lat="52.705615"><ele>397.412506</ele><time>2022-01-15T10:21:08Z</time><extensions><speed>0.164779</speed><course>231.039124</course><hAcc>1.764675</hAcc><vAcc>0.797033</vAcc></extensions></trkpt>
      <trkpt lon="-3.051465" lat="52.705614"><ele>397.461609</ele><time>2022-01-15T10:21:09Z</time><extensions><speed>0.174409</speed><course>228.464935</course><hAcc>1.742103</hAcc><vAcc>0.797004</vAcc></extensions></trkpt>
      <trkpt lon="-3.051466" lat="52.705613"><ele>397.506531</ele><time>2022-01-15T10:21:10Z</time><extensions><speed>0.145835</speed><course>227.414230</course><hAcc>1.741268</hAcc><vAcc>0.796922</vAcc></extensions></trkpt>
      <trkpt lon="-3.051468" lat="52.705612"><ele>397.546997</ele><time>2022-01-15T10:21:11Z</time><extensions><speed>0.108613</speed><course>226.810196</course><hAcc>1.757136</hAcc><vAcc>0.796807</vAcc></extensions></trkpt>
      <trkpt lon="-3.051469" lat="52.705612"><ele>397.582947</ele><time>2022-01-15T10:21:12Z</time><extensions><speed>0.075659</speed><course>226.394623</course><hAcc>1.770255</hAcc><vAcc>0.796672</vAcc></extensions></trkpt>
      <trkpt lon="-3.051470" lat="52.705611"><ele>397.614441</ele><time>2022-01-15T10:21:13Z</time><extensions><speed>0.051475</speed><course>226.078354</course><hAcc>1.772603</hAcc><vAcc>0.796524</vAcc></extensions></trkpt>
      <trkpt lon="-3.051470" lat="52.705611"><ele>397.641693</ele><time>2022-01-15T10:21:14Z</time><extensions><speed>0.033791</speed><course>225.823059</course><hAcc>1.768475</hAcc><vAcc>0.796386</vAcc></extensions></trkpt>
      <trkpt lon="-3.051470" lat="52.705611"><ele>397.664917</ele><time>2022-01-15T10:21:15Z</time><extensions><speed>0.021186</speed><course>225.601074</course><hAcc>1.758294</hAcc><vAcc>0.796262</vAcc></extensions></trkpt>
      <trkpt lon="-3.051470" lat="52.705611"><ele>397.684418</ele><time>2022-01-15T10:21:16Z</time><extensions><speed>0.013317</speed><course>225.398087</course><hAcc>1.736513</hAcc><vAcc>0.796165</vAcc></extensions></trkpt>
      <trkpt lon="-3.051471" lat="52.705611"><ele>397.700562</ele><time>2022-01-15T10:21:17Z</time><extensions><speed>0.007880</speed><course>225.208710</course><hAcc>1.714900</hAcc><vAcc>0.796103</vAcc></extensions></trkpt>
      <trkpt lon="-3.051471" lat="52.705611"><ele>397.713623</ele><time>2022-01-15T10:21:18Z</time><extensions><speed>0.004410</speed><course>225.021576</course><hAcc>1.698847</hAcc><vAcc>0.796082</vAcc></extensions></trkpt>
      <trkpt lon="-3.051471" lat="52.705611"><ele>397.724030</ele><time>2022-01-15T10:21:19Z</time><extensions><speed>0.002200</speed><course>224.823135</course><hAcc>1.692236</hAcc><vAcc>0.796135</vAcc></extensions></trkpt>
      <trkpt lon="-3.051471" lat="52.705611"><ele>397.732086</ele><time>2022-01-15T10:21:20Z</time><extensions><speed>0.001225</speed><course>224.612305</course><hAcc>1.678444</hAcc><vAcc>0.796241</vAcc></extensions></trkpt>
      <trkpt lon="-3.051471" lat="52.705611"><ele>397.738098</ele><time>2022-01-15T10:21:21Z</time><extensions><speed>0.000659</speed><course>224.424545</course><hAcc>1.686097</hAcc><vAcc>0.796391</vAcc></extensions></trkpt>
      <trkpt lon="-3.051471" lat="52.705611"><ele>397.742432</ele><time>2022-01-15T10:21:22Z</time><extensions><speed>0.000335</speed><course>224.258987</course><hAcc>1.707353</hAcc><vAcc>0.796583</vAcc></extensions></trkpt>
      <trkpt lon="-3.051471" lat="52.705611"><ele>397.745300</ele><time>2022-01-15T10:21:23Z</time><extensions><speed>0.000270</speed><course>224.136246</course><hAcc>1.696177</hAcc><vAcc>0.796798</vAcc></extensions></trkpt>
      <trkpt lon="-3.051471" lat="52.705611"><ele>397.747009</ele><time>2022-01-15T10:21:24Z</time><extensions><speed>0.000260</speed><course>224.079437</course><hAcc>1.680251</hAcc><vAcc>0.797031</vAcc></extensions></trkpt>
      <trkpt lon="-3.051471" lat="52.705611"><ele>397.747742</ele><time>2022-01-15T10:21:25Z</time><extensions><speed>0.000210</speed><course>224.053268</course><hAcc>1.699556</hAcc><vAcc>0.797270</vAcc></extensions></trkpt>
      <trkpt lon="-3.051471" lat="52.705611"><ele>397.747742</ele><time>2022-01-15T10:21:26Z</time><extensions><speed>0.000156</speed><course>224.037659</course><hAcc>1.730420</hAcc><vAcc>0.797490</vAcc></extensions></trkpt>
      <trkpt lon="-3.051471" lat="52.705611"><ele>397.747192</ele><time>2022-01-15T10:21:27Z</time><extensions><speed>0.000109</speed><course>224.026871</course><hAcc>1.755360</hAcc><vAcc>0.797695</vAcc></extensions></trkpt>
      <trkpt lon="-3.051471" lat="52.705611"><ele>397.746185</ele><time>2022-01-15T10:21:28Z</time><extensions><speed>0.000072</speed><course>224.018524</course><hAcc>1.767778</hAcc><vAcc>0.797878</vAcc></extensions></trkpt>
      <trkpt lon="-3.051471" lat="52.705611"><ele>397.744873</ele><time>2022-01-15T10:21:29Z</time><extensions><speed>0.000048</speed><course>224.011673</course><hAcc>1.767428</hAcc><vAcc>0.798014</vAcc></extensions></trkpt>
      <trkpt lon="-3.051471" lat="52.705611"><ele>397.743378</ele><time>2022-01-15T10:21:30Z</time><extensions><speed>0.000030</speed><course>224.005798</course><hAcc>1.767919</hAcc><vAcc>0.798107</vAcc></extensions></trkpt>
      <trkpt lon="-3.051471" lat="52.705611"><ele>397.741791</ele><time>2022-01-15T10:21:31Z</time><extensions><speed>0.000018</speed><course>224.000259</course><hAcc>1.767470</hAcc><vAcc>0.798157</vAcc></extensions></trkpt>
      <trkpt lon="-3.051471" lat="52.705611"><ele>397.740143</ele><time>2022-01-15T10:21:32Z</time><extensions><speed>0.000011</speed><course>223.994705</course><hAcc>1.753851</hAcc><vAcc>0.798175</vAcc></extensions></trkpt>
      <trkpt lon="-3.051471" lat="52.705611"><ele>397.738525</ele><time>2022-01-15T10:21:33Z</time><extensions><speed>0.000007</speed><course>223.989182</course><hAcc>1.733417</hAcc><vAcc>0.798156</vAcc></extensions></trkpt>
      <trkpt lon="-3.051471" lat="52.705611"><ele>397.736938</ele><time>2022-01-15T10:21:34Z</time><extensions><speed>0.000004</speed><course>223.983551</course><hAcc>1.712242</hAcc><vAcc>0.798101</vAcc></extensions></trkpt>
      <trkpt lon="-3.051471" lat="52.705611"><ele>397.735443</ele><time>2022-01-15T10:21:35Z</time><extensions><speed>0.000002</speed><course>223.977554</course><hAcc>1.689314</hAcc><vAcc>0.798021</vAcc></extensions></trkpt>
      <trkpt lon="-3.051471" lat="52.705611"><ele>397.734070</ele><time>2022-01-15T10:21:36Z</time><extensions><speed>0.000001</speed><course>223.971100</course><hAcc>1.665628</hAcc><vAcc>0.797917</vAcc></extensions></trkpt>
      <trkpt lon="-3.051471" lat="52.705611"><ele>397.732819</ele><time>2022-01-15T10:21:37Z</time><extensions><speed>0.000001</speed><course>223.964417</course><hAcc>1.666699</hAcc><vAcc>0.797781</vAcc></extensions></trkpt>
      <trkpt lon="-3.051470" lat="52.705611"><ele>397.736816</ele><time>2022-01-15T10:21:38Z</time><extensions><speed>0.003530</speed><course>78.289505</course><hAcc>1.678674</hAcc><vAcc>0.797592</vAcc></extensions></trkpt>
      <trkpt lon="-3.051470" lat="52.705611"><ele>397.742706</ele><time>2022-01-15T10:21:39Z</time><extensions><speed>0.009270</speed><course>77.850876</course><hAcc>1.671046</hAcc><vAcc>0.797329</vAcc></extensions></trkpt>
      <trkpt lon="-3.051470" lat="52.705611"><ele>397.749756</ele><time>2022-01-15T10:21:40Z</time><extensions><speed>0.018079</speed><course>77.709595</course><hAcc>1.676263</hAcc><vAcc>0.796989</vAcc></extensions></trkpt>
      <trkpt lon="-3.051469" lat="52.705611"><ele>397.761444</ele><time>2022-01-15T10:21:41Z</time><extensions><speed>0.036201</speed><course>76.900345</course><hAcc>1.684940</hAcc><vAcc>0.796498</vAcc></extensions></trkpt>
      <trkpt lon="-3.051469" lat="52.705611"><ele>397.779541</ele><time>2022-01-15T10:21:42Z</time><extensions><speed>0.077118</speed><course>76.682617</course><hAcc>1.679527</hAcc><vAcc>0.795893</vAcc></extensions></trkpt>
      <trkpt lon="-3.051467" lat="52.705611"><ele>397.777100</ele><time>2022-01-15T10:21:43Z</time><extensions><speed>0.128126</speed><course>76.878380</course><hAcc>1.699346</hAcc><vAcc>0.795193</vAcc></extensions></trkpt>
      <trkpt lon="-3.051465" lat="52.705612"><ele>397.773254</ele><time>2022-01-15T10:21:44Z</time><extensions><speed>0.188393</speed><course>76.969536</course><hAcc>1.731281</hAcc><vAcc>0.794415</vAcc></extensions></trkpt>
      <trkpt lon="-3.051461" lat="52.705612"><ele>397.767822</ele><time>2022-01-15T10:21:45Z</time><extensions><speed>0.263245</speed><course>76.994476</course><hAcc>1.751463</hAcc><vAcc>0.793550</vAcc></extensions></trkpt>
      <trkpt lon="-3.051457" lat="52.705613"><ele>397.773132</ele><time>2022-01-15T10:21:46Z</time><extensions><speed>0.345371</speed><course>77.083282</course><hAcc>1.755249</hAcc><vAcc>0.792648</vAcc></extensions></trkpt>
      <trkpt lon="-3.051452" lat="52.705613"><ele>397.778259</ele><time>2022-01-15T10:21:47Z</time><extensions><speed>0.415281</speed><course>77.099876</course><hAcc>1.748728</hAcc><vAcc>0.791655</vAcc></extensions></trkpt>
      <trkpt lon="-3.051446" lat="52.705614"><ele>397.749695</ele><time>2022-01-15T10:21:48Z</time><extensions><speed>0.406100</speed><course>77.146561</course><hAcc>1.751692</hAcc><vAcc>0.790599</vAcc></extensions></trkpt>
      <trkpt lon="-3.051441" lat="52.705615"><ele>397.751434</ele><time>2022-01-15T10:21:49Z</time><extensions><speed>0.289896</speed><course>77.360580</course><hAcc>1.773827</hAcc><vAcc>0.789498</vAcc></extensions></trkpt>
      <trkpt lon="-3.051437" lat="52.705615"><ele>397.748230</ele><time>2022-01-15T10:21:50Z</time><extensions><speed>0.233703</speed><course>78.689705</course><hAcc>1.768083</hAcc><vAcc>0.788438</vAcc></extensions></trkpt>
      <trkpt lon="-3.051434" lat="52.705616"><ele>397.727753</ele><time>2022-01-15T10:21:51Z</time><extensions><speed>0.214409</speed><course>82.441856</course><hAcc>1.741830</hAcc><vAcc>0.787468</vAcc></extensions></trkpt>
      <trkpt lon="-3.051431" lat="52.705616"><ele>397.702118</ele><time>2022-01-15T10:21:52Z</time><extensions><speed>0.179164</speed><course>88.868546</course><hAcc>1.735423</hAcc><vAcc>0.786583</vAcc></extensions></trkpt>
      <trkpt lon="-3.051428" lat="52.705616"><ele>397.672943</ele><time>2022-01-15T10:21:53Z</time><extensions><speed>0.123757</speed><course>98.109154</course><hAcc>1.752685</hAcc><vAcc>0.785807</vAcc></extensions></trkpt>
      <trkpt lon="-3.051427" lat="52.705615"><ele>397.639526</ele><time>2022-01-15T10:21:54Z</time><extensions><speed>0.084366</speed><course>114.790176</course><hAcc>1.756897</hAcc><vAcc>0.785142</vAcc></extensions></trkpt>
      <trkpt lon="-3.051426" lat="52.705615"><ele>397.626617</ele><time>2022-01-15T10:21:55Z</time><extensions><speed>0.062076</speed><course>142.436157</course><hAcc>1.754257</hAcc><vAcc>0.784352</vAcc></extensions></trkpt>
      <trkpt lon="-3.051426" lat="52.705615"><ele>397.614014</ele><time>2022-01-15T10:21:56Z</time><extensions><speed>0.060007</speed><course>164.253555</course><hAcc>1.742855</hAcc><vAcc>0.782871</vAcc></extensions></trkpt>
      <trkpt lon="-3.051426" lat="52.705614"><ele>397.604095</ele><time>2022-01-15T10:21:57Z</time><extensions><speed>0.052813</speed><course>172.187698</course><hAcc>1.754314</hAcc><vAcc>0.780526</vAcc></extensions></trkpt>
      <trkpt lon="-3.051426" lat="52.705614"><ele>397.571350</ele><time>2022-01-15T10:21:58Z</time><extensions><speed>0.031252</speed><course>184.792053</course><hAcc>1.791541</hAcc><vAcc>0.775041</vAcc></extensions></trkpt>
      <trkpt lon="-3.051426" lat="52.705613"><ele>397.584961</ele><time>2022-01-15T10:21:59Z</time><extensions><speed>0.024614</speed><course>202.734802</course><hAcc>1.771938</hAcc><vAcc>0.768681</vAcc></extensions></trkpt>
      <trkpt lon="-3.051426" lat="52.705613"><ele>397.601410</ele><time>2022-01-15T10:22:00Z</time><extensions><speed>0.013011</speed><course>198.072418</course><hAcc>1.761594</hAcc><vAcc>0.760183</vAcc></extensions></trkpt>
      <trkpt lon="-3.051426" lat="52.705613"><ele>397.614868</ele><time>2022-01-15T10:22:01Z</time><extensions><speed>0.008076</speed><course>192.731384</course><hAcc>1.771138</hAcc><vAcc>0.749834</vAcc></extensions></trkpt>
      <trkpt lon="-3.051426" lat="52.705613"><ele>397.634338</ele><time>2022-01-15T10:22:02Z</time><extensions><speed>0.014036</speed><course>219.269165</course><hAcc>1.784214</hAcc><vAcc>0.736790</vAcc></extensions></trkpt>
      <trkpt lon="-3.051426" lat="52.705613"><ele>397.660614</ele><time>2022-01-15T10:22:03Z</time><extensions><speed>0.027096</speed><course>230.458572</course><hAcc>1.797216</hAcc><vAcc>0.720853</vAcc></extensions></trkpt>
      <trkpt lon="-3.051427" lat="52.705613"><ele>397.693420</ele><time>2022-01-15T10:22:04Z</time><extensions><speed>0.042308</speed><course>235.285706</course><hAcc>1.815634</hAcc><vAcc>0.702117</vAcc></extensions></trkpt>
      <trkpt lon="-3.051427" lat="52.705613"><ele>397.731781</ele><time>2022-01-15T10:22:05Z</time><extensions><speed>0.055065</speed><course>237.696838</course><hAcc>1.841578</hAcc><vAcc>0.680978</vAcc></extensions></trkpt>
      <trkpt lon="-3.051428" lat="52.705612"><ele>397.774231</ele><time>2022-01-15T10:22:06Z</time><extensions><speed>0.073191</speed><course>237.607880</course><hAcc>1.855754</hAcc><vAcc>0.658179</vAcc></extensions></trkpt>
      <trkpt lon="-3.051429" lat="52.705612"><ele>397.819702</ele><time>2022-01-15T10:22:07Z</time><extensions><speed>0.084547</speed><course>238.891281</course><hAcc>1.883625</hAcc><vAcc>0.634843</vAcc></extensions></trkpt>
      <trkpt lon="-3.051430" lat="52.705612"><ele>397.859680</ele><time>2022-01-15T10:22:08Z</time><extensions><speed>0.084492</speed><course>244.311737</course><hAcc>1.930035</hAcc><vAcc>0.612434</vAcc></extensions></trkpt>
      <trkpt lon="-3.051431" lat="52.705611"><ele>397.894348</ele><time>2022-01-15T10:22:09Z</time><extensions><speed>0.072874</speed><course>253.911896</course><hAcc>1.969904</hAcc><vAcc>0.592463</vAcc></extensions></trkpt>
      <trkpt lon="-3.051432" lat="52.705611"><ele>397.922546</ele><time>2022-01-15T10:22:10Z</time><extensions><speed>0.068276</speed><course>265.747833</course><hAcc>1.972633</hAcc><vAcc>0.576112</vAcc></extensions></trkpt>
      <trkpt lon="-3.051433" lat="52.705611"><ele>397.943207</ele><time>2022-01-15T10:22:11Z</time><extensions><speed>0.057094</speed><course>278.262634</course><hAcc>1.971838</hAcc><vAcc>0.564009</vAcc></extensions></trkpt>
      <trkpt lon="-3.051434" lat="52.705611"><ele>397.955719</ele><time>2022-01-15T10:22:12Z</time><extensions><speed>0.047759</speed><course>294.797394</course><hAcc>1.968598</hAcc><vAcc>0.556079</vAcc></extensions></trkpt>
      <trkpt lon="-3.051435" lat="52.705612"><ele>397.960144</ele><time>2022-01-15T10:22:13Z</time><extensions><speed>0.044659</speed><course>314.533722</course><hAcc>1.966593</hAcc><vAcc>0.551906</vAcc></extensions></trkpt>
      <trkpt lon="-3.051435" lat="52.705612"><ele>397.956970</ele><time>2022-01-15T10:22:14Z</time><extensions><speed>0.049214</speed><course>331.117554</course><hAcc>1.970531</hAcc><vAcc>0.551214</vAcc></extensions></trkpt>
      <trkpt lon="-3.051435" lat="52.705612"><ele>397.947113</ele><time>2022-01-15T10:22:15Z</time><extensions><speed>0.054427</speed><course>341.401337</course><hAcc>1.986674</hAcc><vAcc>0.553992</vAcc></extensions></trkpt>
      <trkpt lon="-3.051435" lat="52.705613"><ele>397.931885</ele><time>2022-01-15T10:22:16Z</time><extensions><speed>0.065037</speed><course>345.759766</course><hAcc>1.987814</hAcc><vAcc>0.560420</vAcc></extensions></trkpt>
      <trkpt lon="-3.051436" lat="52.705614"><ele>397.913116</ele><time>2022-01-15T10:22:17Z</time><extensions><speed>0.069412</speed><course>344.316986</course><hAcc>1.977573</hAcc><vAcc>0.570666</vAcc></extensions></trkpt>
      <trkpt lon="-3.051436" lat="52.705614"><ele>397.892792</ele><time>2022-01-15T10:22:18Z</time><extensions><speed>0.053201</speed><course>338.512299</course><hAcc>1.976680</hAcc><vAcc>0.584691</vAcc></extensions></trkpt>
      <trkpt lon="-3.051436" lat="52.705614"><ele>397.872345</ele><time>2022-01-15T10:22:19Z</time><extensions><speed>0.039693</speed><course>331.761383</course><hAcc>1.957314</hAcc><vAcc>0.601970</vAcc></extensions></trkpt>
      <trkpt lon="-3.051436" lat="52.705615"><ele>397.843628</ele><time>2022-01-15T10:22:20Z</time><extensions><speed>0.024743</speed><course>336.633636</course><hAcc>1.928258</hAcc><vAcc>0.621390</vAcc></extensions></trkpt>
      <trkpt lon="-3.051436" lat="52.705615"><ele>397.828491</ele><time>2022-01-15T10:22:21Z</time><extensions><speed>0.013093</speed><course>5.282382</course><hAcc>1.893374</hAcc><vAcc>0.641705</vAcc></extensions></trkpt>
      <trkpt lon="-3.051436" lat="52.705615"><ele>397.816345</ele><time>2022-01-15T10:22:22Z</time><extensions><speed>0.014687</speed><course>70.792000</course><hAcc>1.864760</hAcc><vAcc>0.661515</vAcc></extensions></trkpt>
      <trkpt lon="-3.051436" lat="52.705615"><ele>397.807129</ele><time>2022-01-15T10:22:23Z</time><extensions><speed>0.030017</speed><course>94.305237</course><hAcc>1.835756</hAcc><vAcc>0.679898</vAcc></extensions></trkpt>
      <trkpt lon="-3.051435" lat="52.705615"><ele>397.801025</ele><time>2022-01-15T10:22:24Z</time><extensions><speed>0.050735</speed><course>100.332161</course><hAcc>1.806856</hAcc><vAcc>0.696108</vAcc></extensions></trkpt>
      <trkpt lon="-3.051434" lat="52.705615"><ele>397.791046</ele><time>2022-01-15T10:22:25Z</time><extensions><speed>0.077438</speed><course>99.784630</course><hAcc>1.780508</hAcc><vAcc>0.710083</vAcc></extensions></trkpt>
      <trkpt lon="-3.051433" lat="52.705615"><ele>397.782837</ele><time>2022-01-15T10:22:26Z</time><extensions><speed>0.107912</speed><course>99.289642</course><hAcc>1.758190</hAcc><vAcc>0.721800</vAcc></extensions></trkpt>
      <trkpt lon="-3.051431" lat="52.705615"><ele>397.776245</ele><time>2022-01-15T10:22:28Z</time><extensions><speed>0.136607</speed><course>98.899467</course><hAcc>1.747648</hAcc><vAcc>0.731348</vAcc></extensions></trkpt>
      <trkpt lon="-3.051428" lat="52.705614"><ele>397.771149</ele><time>2022-01-15T10:22:29Z</time><extensions><speed>0.158313</speed><course>98.508614</course><hAcc>1.746791</hAcc><vAcc>0.738928</vAcc></extensions></trkpt>
      <trkpt lon="-3.051426" lat="52.705614"><ele>397.767334</ele><time>2022-01-15T10:22:30Z</time><extensions><speed>0.192627</speed><course>97.879166</course><hAcc>1.730189</hAcc><vAcc>0.744831</vAcc></extensions></trkpt>
      <trkpt lon="-3.051423" lat="52.705614"><ele>397.764618</ele><time>2022-01-15T10:22:31Z</time><extensions><speed>0.217829</speed><course>96.505493</course><hAcc>1.707512</hAcc><vAcc>0.749371</vAcc></extensions></trkpt>
      <trkpt lon="-3.051420" lat="52.705614"><ele>397.762665</ele><time>2022-01-15T10:22:32Z</time><extensions><speed>0.156842</speed><course>92.536713</course><hAcc>1.723533</hAcc><vAcc>0.752854</vAcc></extensions></trkpt>
      <trkpt lon="-3.051418" lat="52.705614"><ele>397.760895</ele><time>2022-01-15T10:22:33Z</time><extensions><speed>0.151327</speed><course>85.060318</course><hAcc>1.726219</hAcc><vAcc>0.755588</vAcc></extensions></trkpt>
      <trkpt lon="-3.051416" lat="52.705614"><ele>397.758850</ele><time>2022-01-15T10:22:34Z</time><extensions><speed>0.100987</speed><course>73.592827</course><hAcc>1.766703</hAcc><vAcc>0.757830</vAcc></extensions></trkpt>
      <trkpt lon="-3.051414" lat="52.705614"><ele>397.756317</ele><time>2022-01-15T10:22:35Z</time><extensions><speed>0.146034</speed><course>62.669571</course><hAcc>1.739292</hAcc><vAcc>0.759828</vAcc></extensions></trkpt>
      <trkpt lon="-3.051412" lat="52.705615"><ele>397.753235</ele><time>2022-01-15T10:22:36Z</time><extensions><speed>0.150330</speed><course>57.883507</course><hAcc>1.734818</hAcc><vAcc>0.761755</vAcc></extensions></trkpt>
      <trkpt lon="-3.051411" lat="52.705616"><ele>397.749817</ele><time>2022-01-15T10:22:37Z</time><extensions><speed>0.128061</speed><course>55.886360</course><hAcc>1.751446</hAcc><vAcc>0.763726</vAcc></extensions></trkpt>
      <trkpt lon="-3.051409" lat="52.705616"><ele>397.746185</ele><time>2022-01-15T10:22:38Z</time><extensions><speed>0.094619</speed><course>54.752884</course><hAcc>1.770251</hAcc><vAcc>0.765764</vAcc></extensions></trkpt>
      <trkpt lon="-3.051408" lat="52.705617"><ele>397.742523</ele><time>2022-01-15T10:22:39Z</time><extensions><speed>0.066911</speed><course>53.976559</course><hAcc>1.773679</hAcc><vAcc>0.767862</vAcc></extensions></trkpt>
      <trkpt lon="-3.051408" lat="52.705617"><ele>397.738953</ele><time>2022-01-15T10:22:40Z</time><extensions><speed>0.045527</speed><course>53.401615</course><hAcc>1.764045</hAcc><vAcc>0.769972</vAcc></extensions></trkpt>
      <trkpt lon="-3.051407" lat="52.705617"><ele>397.735535</ele><time>2022-01-15T10:22:41Z</time><extensions><speed>0.029835</speed><course>52.948196</course><hAcc>1.746590</hAcc><vAcc>0.772054</vAcc></extensions></trkpt>
      <trkpt lon="-3.051407" lat="52.705617"><ele>397.732330</ele><time>2022-01-15T10:22:42Z</time><extensions><speed>0.019075</speed><course>52.576950</course><hAcc>1.726916</hAcc><vAcc>0.774056</vAcc></extensions></trkpt>
      <trkpt lon="-3.051407" lat="52.705617"><ele>397.729370</ele><time>2022-01-15T10:22:43Z</time><extensions><speed>0.011022</speed><course>52.257088</course><hAcc>1.715738</hAcc><vAcc>0.775957</vAcc></extensions></trkpt>
      <trkpt lon="-3.051407" lat="52.705618"><ele>397.726715</ele><time>2022-01-15T10:22:44Z</time><extensions><speed>0.006561</speed><course>51.967743</course><hAcc>1.699994</hAcc><vAcc>0.777725</vAcc></extensions></trkpt>
      <trkpt lon="-3.051407" lat="52.705618"><ele>397.724335</ele><time>2022-01-15T10:22:45Z</time><extensions><speed>0.003894</speed><course>51.724895</course><hAcc>1.689429</hAcc><vAcc>0.779339</vAcc></extensions></trkpt>
      <trkpt lon="-3.051407" lat="52.705618"><ele>397.722260</ele><time>2022-01-15T10:22:46Z</time><extensions><speed>0.002382</speed><course>51.534550</course><hAcc>1.688607</hAcc><vAcc>0.780769</vAcc></extensions></trkpt>
      <trkpt lon="-3.051407" lat="52.705618"><ele>397.720459</ele><time>2022-01-15T10:22:47Z</time><extensions><speed>0.001473</speed><course>51.399509</course><hAcc>1.704792</hAcc><vAcc>0.782001</vAcc></extensions></trkpt>
      <trkpt lon="-3.051407" lat="52.705618"><ele>397.725250</ele><time>2022-01-15T10:22:48Z</time><extensions><speed>0.001304</speed><course>216.991257</course><hAcc>1.726900</hAcc><vAcc>0.782984</vAcc></extensions></trkpt>
      <trkpt lon="-3.051407" lat="52.705617"><ele>397.721619</ele><time>2022-01-15T10:22:49Z</time><extensions><speed>0.006869</speed><course>221.218353</course><hAcc>1.695453</hAcc><vAcc>0.783833</vAcc></extensions></trkpt>
      <trkpt lon="-3.051407" lat="52.705617"><ele>397.717621</ele><time>2022-01-15T10:22:50Z</time><extensions><speed>0.014372</speed><course>221.838730</course><hAcc>1.697960</hAcc><vAcc>0.784538</vAcc></extensions></trkpt>
      <trkpt lon="-3.051407" lat="52.705617"><ele>397.713226</ele><time>2022-01-15T10:22:51Z</time><extensions><speed>0.023616</speed><course>222.076920</course><hAcc>1.728375</hAcc><vAcc>0.785100</vAcc></extensions></trkpt>
      <trkpt lon="-3.051407" lat="52.705617"><ele>397.708923</ele><time>2022-01-15T10:22:52Z</time><extensions><speed>0.036971</speed><course>222.789749</course><hAcc>1.751632</hAcc><vAcc>0.785538</vAcc></extensions></trkpt>
      <trkpt lon="-3.051408" lat="52.705617"><ele>397.704224</ele><time>2022-01-15T10:22:53Z</time><extensions><speed>0.054524</speed><course>223.151886</course><hAcc>1.761906</hAcc><vAcc>0.785857</vAcc></extensions></trkpt>
      <trkpt lon="-3.051408" lat="52.705616"><ele>397.699066</ele><time>2022-01-15T10:22:54Z</time><extensions><speed>0.075902</speed><course>223.369644</course><hAcc>1.766385</hAcc><vAcc>0.786090</vAcc></extensions></trkpt>
      <trkpt lon="-3.051409" lat="52.705616"><ele>397.693451</ele><time>2022-01-15T10:22:55Z</time><extensions><speed>0.100828</speed><course>223.551178</course><hAcc>1.770561</hAcc><vAcc>0.786263</vAcc></extensions></trkpt>
      <trkpt lon="-3.051411" lat="52.705615"><ele>397.687378</ele><time>2022-01-15T10:22:56Z</time><extensions><speed>0.127622</speed><course>223.773773</course><hAcc>1.778213</hAcc><vAcc>0.786400</vAcc></extensions></trkpt>
      <trkpt lon="-3.051412" lat="52.705614"><ele>397.680786</ele><time>2022-01-15T10:22:57Z</time><extensions><speed>0.147727</speed><course>224.166061</course><hAcc>1.784133</hAcc><vAcc>0.786540</vAcc></extensions></trkpt>
      <trkpt lon="-3.051414" lat="52.705613"><ele>397.673767</ele><time>2022-01-15T10:22:58Z</time><extensions><speed>0.172299</speed><course>224.994293</course><hAcc>1.764490</hAcc><vAcc>0.786710</vAcc></extensions></trkpt>
      <trkpt lon="-3.051415" lat="52.705612"><ele>397.667084</ele><time>2022-01-15T10:22:59Z</time><extensions><speed>0.148608</speed><course>227.089722</course><hAcc>1.764131</hAcc><vAcc>0.786944</vAcc></extensions></trkpt>
      <trkpt lon="-3.051417" lat="52.705611"><ele>397.660400</ele><time>2022-01-15T10:23:00Z</time><extensions><speed>0.122872</speed><course>230.598419</course><hAcc>1.770461</hAcc><vAcc>0.787242</vAcc></extensions></trkpt>
      <trkpt lon="-3.051418" lat="52.705611"><ele>397.653992</ele><time>2022-01-15T10:23:01Z</time><extensions><speed>0.101842</speed><course>235.459122</course><hAcc>1.773433</hAcc><vAcc>0.787584</vAcc></extensions></trkpt>
      <trkpt lon="-3.051419" lat="52.705610"><ele>397.648041</ele><time>2022-01-15T10:23:02Z</time><extensions><speed>0.080263</speed><course>241.185135</course><hAcc>1.773694</hAcc><vAcc>0.787965</vAcc></extensions></trkpt>
      <trkpt lon="-3.051420" lat="52.705610"><ele>397.655060</ele><time>2022-01-15T10:23:03Z</time><extensions><speed>0.062144</speed><course>249.576294</course><hAcc>1.768357</hAcc><vAcc>0.788401</vAcc></extensions></trkpt>
      <trkpt lon="-3.051421" lat="52.705610"><ele>397.659271</ele><time>2022-01-15T10:23:04Z</time><extensions><speed>0.048476</speed><course>263.166351</course><hAcc>1.766392</hAcc><vAcc>0.788860</vAcc></extensions></trkpt>
      <trkpt lon="-3.051422" lat="52.705610"><ele>397.665375</ele><time>2022-01-15T10:23:05Z</time><extensions><speed>0.043121</speed><course>281.937775</course><hAcc>1.765516</hAcc><vAcc>0.789345</vAcc></extensions></trkpt>
      <trkpt lon="-3.051423" lat="52.705610"><ele>397.673340</ele><time>2022-01-15T10:23:06Z</time><extensions><speed>0.049099</speed><course>298.476654</course><hAcc>1.755321</hAcc><vAcc>0.789844</vAcc></extensions></trkpt>
      <trkpt lon="-3.051423" lat="52.705610"><ele>397.683167</ele><time>2022-01-15T10:23:07Z</time><extensions><speed>0.061418</speed><course>307.533447</course><hAcc>1.742848</hAcc><vAcc>0.790366</vAcc></extensions></trkpt>
      <trkpt lon="-3.051424" lat="52.705611"><ele>397.694702</ele><time>2022-01-15T10:23:08Z</time><extensions><speed>0.070708</speed><course>310.655823</course><hAcc>1.743312</hAcc><vAcc>0.790916</vAcc></extensions></trkpt>
      <trkpt lon="-3.051425" lat="52.705611"><ele>397.707794</ele><time>2022-01-15T10:23:08Z</time><extensions><speed>0.070612</speed><course>308.229156</course><hAcc>1.753616</hAcc><vAcc>0.791475</vAcc></extensions></trkpt>
      <trkpt lon="-3.051426" lat="52.705611"><ele>397.722168</ele><time>2022-01-15T10:23:09Z</time><extensions><speed>0.069667</speed><course>300.680206</course><hAcc>1.758889</hAcc><vAcc>0.792041</vAcc></extensions></trkpt>
      <trkpt lon="-3.051427" lat="52.705612"><ele>397.737549</ele><time>2022-01-15T10:23:10Z</time><extensions><speed>0.076816</speed><course>291.729156</course><hAcc>1.756790</hAcc><vAcc>0.792587</vAcc></extensions></trkpt>
      <trkpt lon="-3.051428" lat="52.705612"><ele>397.753479</ele><time>2022-01-15T10:23:11Z</time><extensions><speed>0.088749</speed><course>284.770325</course><hAcc>1.753684</hAcc><vAcc>0.793116</vAcc></extensions></trkpt>
      <trkpt lon="-3.051429" lat="52.705612"><ele>397.769470</ele><time>2022-01-15T10:23:13Z</time><extensions><speed>0.091877</speed><course>280.883575</course><hAcc>1.756284</hAcc><vAcc>0.793599</vAcc></extensions></trkpt>
      <trkpt lon="-3.051430" lat="52.705612"><ele>397.785034</ele><time>2022-01-15T10:23:14Z</time><extensions><speed>0.078865</speed><course>279.009491</course><hAcc>1.766453</hAcc><vAcc>0.794023</vAcc></extensions></trkpt>
      <trkpt lon="-3.051431" lat="52.705612"><ele>397.799774</ele><time>2022-01-15T10:23:14Z</time><extensions><speed>0.061007</speed><course>277.988098</course><hAcc>1.775235</hAcc><vAcc>0.794385</vAcc></extensions></trkpt>
      <trkpt lon="-3.051432" lat="52.705612"><ele>397.813477</ele><time>2022-01-15T10:23:15Z</time><extensions><speed>0.043805</speed><course>277.322510</course><hAcc>1.780698</hAcc><vAcc>0.794674</vAcc></extensions></trkpt>
      <trkpt lon="-3.051433" lat="52.705612"><ele>397.826019</ele><time>2022-01-15T10:23:16Z</time><extensions><speed>0.029759</speed><course>276.830322</course><hAcc>1.781668</hAcc><vAcc>0.794900</vAcc></extensions></trkpt>
      <trkpt lon="-3.051433" lat="52.705613"><ele>397.837341</ele><time>2022-01-15T10:23:17Z</time><extensions><speed>0.019701</speed><course>276.434570</course><hAcc>1.777263</hAcc><vAcc>0.795064</vAcc></extensions></trkpt>
      <trkpt lon="-3.051433" lat="52.705613"><ele>397.847412</ele><time>2022-01-15T10:23:18Z</time><extensions><speed>0.012393</speed><course>276.097351</course><hAcc>1.774893</hAcc><vAcc>0.795182</vAcc></extensions></trkpt>
      <trkpt lon="-3.051433" lat="52.705613"><ele>397.856232</ele><time>2022-01-15T10:23:19Z</time><extensions><speed>0.007337</speed><course>275.784332</course><hAcc>1.775095</hAcc><vAcc>0.795258</vAcc></extensions></trkpt>
      <trkpt lon="-3.051434" lat="52.705613"><ele>397.863892</ele><time>2022-01-15T10:23:20Z</time><extensions><speed>0.004369</speed><course>275.475830</course><hAcc>1.769065</hAcc><vAcc>0.795291</vAcc></extensions></trkpt>
      <trkpt lon="-3.051434" lat="52.705613"><ele>397.870392</ele><time>2022-01-15T10:23:21Z</time><extensions><speed>0.002578</speed><course>275.171387</course><hAcc>1.761241</hAcc><vAcc>0.795317</vAcc></extensions></trkpt>
      <trkpt lon="-3.051434" lat="52.705613"><ele>397.875854</ele><time>2022-01-15T10:23:22Z</time><extensions><speed>0.001512</speed><course>274.866241</course><hAcc>1.752139</hAcc><vAcc>0.795330</vAcc></extensions></trkpt>
      <trkpt lon="-3.051434" lat="52.705613"><ele>397.880402</ele><time>2022-01-15T10:23:23Z</time><extensions><speed>0.000894</speed><course>274.559509</course><hAcc>1.739729</hAcc><vAcc>0.795335</vAcc></extensions></trkpt>
      <trkpt lon="-3.051434" lat="52.705613"><ele>397.884064</ele><time>2022-01-15T10:23:24Z</time><extensions><speed>0.000528</speed><course>274.256348</course><hAcc>1.729019</hAcc><vAcc>0.795387</vAcc></extensions></trkpt>
      <trkpt lon="-3.051434" lat="52.705613"><ele>397.886993</ele><time>2022-01-15T10:23:25Z</time><extensions><speed>0.000289</speed><course>273.949310</course><hAcc>1.728353</hAcc><vAcc>0.795449</vAcc></extensions></trkpt>
      <trkpt lon="-3.051434" lat="52.705613"><ele>397.889252</ele><time>2022-01-15T10:23:26Z</time><extensions><speed>0.000156</speed><course>273.615784</course><hAcc>1.721966</hAcc><vAcc>0.795542</vAcc></extensions></trkpt>
      <trkpt lon="-3.051434" lat="52.705613"><ele>397.890961</ele><time>2022-01-15T10:23:27Z</time><extensions><speed>0.000095</speed><course>273.277161</course><hAcc>1.702102</hAcc><vAcc>0.795659</vAcc></extensions></trkpt>
      <trkpt lon="-3.051434" lat="52.705613"><ele>397.892181</ele><time>2022-01-15T10:23:28Z</time><extensions><speed>0.000054</speed><course>272.966370</course><hAcc>1.692692</hAcc><vAcc>0.795827</vAcc></extensions></trkpt>
      <trkpt lon="-3.051434" lat="52.705613"><ele>397.893005</ele><time>2022-01-15T10:23:29Z</time><extensions><speed>0.000033</speed><course>272.680878</course><hAcc>1.678074</hAcc><vAcc>0.796018</vAcc></extensions></trkpt>
      <trkpt lon="-3.051434" lat="52.705613"><ele>397.893494</ele><time>2022-01-15T10:23:30Z</time><extensions><speed>0.000021</speed><course>272.449829</course><hAcc>1.670670</hAcc><vAcc>0.796219</vAcc></extensions></trkpt>
      <trkpt lon="-3.051434" lat="52.705613"><ele>397.893707</ele><time>2022-01-15T10:23:31Z</time><extensions><speed>0.000011</speed><course>272.263672</course><hAcc>1.685423</hAcc><vAcc>0.796436</vAcc></extensions></trkpt>
      <trkpt lon="-3.051434" lat="52.705613"><ele>397.893738</ele><time>2022-01-15T10:23:32Z</time><extensions><speed>0.000007</speed><course>272.106873</course><hAcc>1.683979</hAcc><vAcc>0.796653</vAcc></extensions></trkpt>
      <trkpt lon="-3.051434" lat="52.705613"><ele>397.893585</ele><time>2022-01-15T10:23:33Z</time><extensions><speed>0.000006</speed><course>272.003845</course><hAcc>1.660461</hAcc><vAcc>0.796864</vAcc></extensions></trkpt>
      <trkpt lon="-3.051434" lat="52.705613"><ele>397.893311</ele><time>2022-01-15T10:23:34Z</time><extensions><speed>0.000005</speed><course>271.950043</course><hAcc>1.652245</hAcc><vAcc>0.797068</vAcc></extensions></trkpt>
      <trkpt lon="-3.051434" lat="52.705613"><ele>397.892944</ele><time>2022-01-15T10:23:35Z</time><extensions><speed>0.000003</speed><course>271.919067</course><hAcc>1.691632</hAcc><vAcc>0.797247</vAcc></extensions></trkpt>
      <trkpt lon="-3.051434" lat="52.705613"><ele>397.892517</ele><time>2022-01-15T10:23:36Z</time><extensions><speed>0.000002</speed><course>271.895477</course><hAcc>1.724453</hAcc><vAcc>0.797388</vAcc></extensions></trkpt>
      <trkpt lon="-3.051434" lat="52.705613"><ele>397.892090</ele><time>2022-01-15T10:23:37Z</time><extensions><speed>0.000001</speed><course>271.879425</course><hAcc>1.713372</hAcc><vAcc>0.797508</vAcc></extensions></trkpt>
      <trkpt lon="-3.051434" lat="52.705613"><ele>397.891632</ele><time>2022-01-15T10:23:38Z</time><extensions><speed>0.000001</speed><course>271.871277</course><hAcc>1.712653</hAcc><vAcc>0.797567</vAcc></extensions></trkpt>
      <trkpt lon="-3.051434" lat="52.705613"><ele>397.891174</ele><time>2022-01-15T10:23:39Z</time><extensions><speed>0.000001</speed><course>271.866547</course><hAcc>1.730347</hAcc><vAcc>0.797569</vAcc></extensions></trkpt>
      <trkpt lon="-3.051434" lat="52.705613"><ele>397.890747</ele><time>2022-01-15T10:23:40Z</time><extensions><speed>0.000001</speed><course>271.863312</course><hAcc>1.749459</hAcc><vAcc>0.797522</vAcc></extensions></trkpt>
      <trkpt lon="-3.051434" lat="52.705613"><ele>397.892029</ele><time>2022-01-15T10:23:41Z</time><extensions><speed>0.004161</speed><course>300.542664</course><hAcc>1.765376</hAcc><vAcc>0.797494</vAcc></extensions></trkpt>
      <trkpt lon="-3.051434" lat="52.705613"><ele>397.894043</ele><time>2022-01-15T10:23:42Z</time><extensions><speed>0.009689</speed><course>300.333527</course><hAcc>1.775088</hAcc><vAcc>0.797329</vAcc></extensions></trkpt>
      <trkpt lon="-3.051434" lat="52.705613"><ele>397.896545</ele><time>2022-01-15T10:23:43Z</time><extensions><speed>0.017104</speed><course>300.269440</course><hAcc>1.778129</hAcc><vAcc>0.796790</vAcc></extensions></trkpt>
      <trkpt lon="-3.051434" lat="52.705613"><ele>397.872681</ele><time>2022-01-15T10:23:44Z</time><extensions><speed>0.026981</speed><course>305.120819</course><hAcc>1.775633</hAcc><vAcc>0.795792</vAcc></extensions></trkpt>
      <trkpt lon="-3.051435" lat="52.705613"><ele>397.852051</ele><time>2022-01-15T10:23:45Z</time><extensions><speed>0.041079</speed><course>309.148224</course><hAcc>1.773401</hAcc><vAcc>0.794825</vAcc></extensions></trkpt>
      <trkpt lon="-3.051435" lat="52.705613"><ele>397.828827</ele><time>2022-01-15T10:23:46Z</time><extensions><speed>0.061235</speed><course>311.521301</course><hAcc>1.771898</hAcc><vAcc>0.793736</vAcc></extensions></trkpt>
      <trkpt lon="-3.051436" lat="52.705614"><ele>397.811035</ele><time>2022-01-15T10:23:47Z</time><extensions><speed>0.087154</speed><course>312.852722</course><hAcc>1.772057</hAcc><vAcc>0.792507</vAcc></extensions></trkpt>
      <trkpt lon="-3.051437" lat="52.705615"><ele>397.816528</ele><time>2022-01-15T10:23:48Z</time><extensions><speed>0.128062</speed><course>314.082031</course><hAcc>1.764700</hAcc><vAcc>0.791135</vAcc></extensions></trkpt>
      <trkpt lon="-3.051439" lat="52.705615"><ele>397.838898</ele><time>2022-01-15T10:23:49Z</time><extensions><speed>0.164965</speed><course>315.603821</course><hAcc>1.766913</hAcc><vAcc>0.789503</vAcc></extensions></trkpt>
      <trkpt lon="-3.051441" lat="52.705617"><ele>397.807220</ele><time>2022-01-15T10:23:50Z</time><extensions><speed>0.202658</speed><course>318.747070</course><hAcc>1.758828</hAcc><vAcc>0.787398</vAcc></extensions></trkpt>
      <trkpt lon="-3.051442" lat="52.705618"><ele>397.759583</ele><time>2022-01-15T10:23:51Z</time><extensions><speed>0.208011</speed><course>327.231750</course><hAcc>1.740080</hAcc><vAcc>0.785352</vAcc></extensions></trkpt>
      <trkpt lon="-3.051443" lat="52.705620"><ele>397.716125</ele><time>2022-01-15T10:23:52Z</time><extensions><speed>0.175923</speed><course>343.485748</course><hAcc>1.720593</hAcc><vAcc>0.783278</vAcc></extensions></trkpt>
      <trkpt lon="-3.051444" lat="52.705621"><ele>397.683594</ele><time>2022-01-15T10:23:53Z</time><extensions><speed>0.156303</speed><course>3.293655</course><hAcc>1.689044</hAcc><vAcc>0.781317</vAcc></extensions></trkpt>
      <trkpt lon="-3.051443" lat="52.705622"><ele>397.650909</ele><time>2022-01-15T10:23:54Z</time><extensions><speed>0.131043</speed><course>18.380640</course><hAcc>1.666956</hAcc><vAcc>0.779573</vAcc></extensions></trkpt>
      <trkpt lon="-3.051443" lat="52.705623"><ele>397.618347</ele><time>2022-01-15T10:23:55Z</time><extensions><speed>0.064072</speed><course>31.100327</course><hAcc>1.681952</hAcc><vAcc>0.778134</vAcc></extensions></trkpt>
      <trkpt lon="-3.051442" lat="52.705624"><ele>397.586945</ele><time>2022-01-15T10:23:56Z</time><extensions><speed>0.040947</speed><course>51.716759</course><hAcc>1.661050</hAcc><vAcc>0.777000</vAcc></extensions></trkpt>
      <trkpt lon="-3.051442" lat="52.705624"><ele>397.560669</ele><time>2022-01-15T10:23:57Z</time><extensions><speed>0.025795</speed><course>81.422157</course><hAcc>1.667367</hAcc><vAcc>0.776156</vAcc></extensions></trkpt>
      <trkpt lon="-3.051441" lat="52.705624"><ele>397.535431</ele><time>2022-01-15T10:23:58Z</time><extensions><speed>0.031338</speed><course>101.809494</course><hAcc>1.677786</hAcc><vAcc>0.775606</vAcc></extensions></trkpt>
      <trkpt lon="-3.051441" lat="52.705624"><ele>397.511078</ele><time>2022-01-15T10:23:59Z</time><extensions><speed>0.052380</speed><course>105.137894</course><hAcc>1.679522</hAcc><vAcc>0.775332</vAcc></extensions></trkpt>
      <trkpt lon="-3.051440" lat="52.705623"><ele>397.488342</ele><time>2022-01-15T10:24:00Z</time><extensions><speed>0.102345</speed><course>103.091400</course><hAcc>1.647376</hAcc><vAcc>0.775354</vAcc></extensions></trkpt>
      <trkpt lon="-3.051438" lat="52.705623"><ele>397.468903</ele><time>2022-01-15T10:24:01Z</time><extensions><speed>0.089024</speed><course>101.237892</course><hAcc>1.679144</hAcc><vAcc>0.775667</vAcc></extensions></trkpt>
      <trkpt lon="-3.051437" lat="52.705623"><ele>397.454041</ele><time>2022-01-15T10:24:02Z</time><extensions><speed>0.053253</speed><course>97.690804</course><hAcc>1.722809</hAcc><vAcc>0.776248</vAcc></extensions></trkpt>
      <trkpt lon="-3.051437" lat="52.705623"><ele>397.444122</ele><time>2022-01-15T10:24:03Z</time><extensions><speed>0.031567</speed><course>73.805847</course><hAcc>1.737576</hAcc><vAcc>0.777040</vAcc></extensions></trkpt>
      <trkpt lon="-3.051436" lat="52.705623"><ele>397.438843</ele><time>2022-01-15T10:24:04Z</time><extensions><speed>0.033842</speed><course>32.873226</course><hAcc>1.733759</hAcc><vAcc>0.777978</vAcc></extensions></trkpt>
      <trkpt lon="-3.051436" lat="52.705624"><ele>397.437622</ele><time>2022-01-15T10:24:05Z</time><extensions><speed>0.045322</speed><course>13.003260</course><hAcc>1.722021</hAcc><vAcc>0.778984</vAcc></extensions></trkpt>
      <trkpt lon="-3.051436" lat="52.705624"><ele>397.439819</ele><time>2022-01-15T10:24:06Z</time><extensions><speed>0.048671</speed><course>7.871998</course><hAcc>1.716174</hAcc><vAcc>0.780025</vAcc></extensions></trkpt>
      <trkpt lon="-3.051436" lat="52.705624"><ele>397.444672</ele><time>2022-01-15T10:24:07Z</time><extensions><speed>0.040430</speed><course>7.769552</course><hAcc>1.718075</hAcc><vAcc>0.781042</vAcc></extensions></trkpt>
      <trkpt lon="-3.051436" lat="52.705625"><ele>397.451477</ele><time>2022-01-15T10:24:08Z</time><extensions><speed>0.028828</speed><course>7.719236</course><hAcc>1.721713</hAcc><vAcc>0.782008</vAcc></extensions></trkpt>
      <trkpt lon="-3.051436" lat="52.705625"><ele>397.459595</ele><time>2022-01-15T10:24:09Z</time><extensions><speed>0.021096</speed><course>7.691009</course><hAcc>1.722003</hAcc><vAcc>0.782913</vAcc></extensions></trkpt>
      <trkpt lon="-3.051436" lat="52.705625"><ele>397.468475</ele><time>2022-01-15T10:24:10Z</time><extensions><speed>0.014861</speed><course>7.675111</course><hAcc>1.729535</hAcc><vAcc>0.783756</vAcc></extensions></trkpt>
      <trkpt lon="-3.051436" lat="52.705625"><ele>397.477722</ele><time>2022-01-15T10:24:11Z</time><extensions><speed>0.012184</speed><course>7.666126</course><hAcc>1.725387</hAcc><vAcc>0.784529</vAcc></extensions></trkpt>
      <trkpt lon="-3.051436" lat="52.705625"><ele>397.486969</ele><time>2022-01-15T10:24:12Z</time><extensions><speed>0.010731</speed><course>7.661630</course><hAcc>1.719149</hAcc><vAcc>0.785256</vAcc></extensions></trkpt>
      <trkpt lon="-3.051436" lat="52.705625"><ele>397.495941</ele><time>2022-01-15T10:24:13Z</time><extensions><speed>0.008251</speed><course>7.659249</course><hAcc>1.735606</hAcc><vAcc>0.785936</vAcc></extensions></trkpt>
      <trkpt lon="-3.051436" lat="52.705626"><ele>397.504486</ele><time>2022-01-15T10:24:14Z</time><extensions><speed>0.005937</speed><course>7.657708</course><hAcc>1.757204</hAcc><vAcc>0.786574</vAcc></extensions></trkpt>
      <trkpt lon="-3.051436" lat="52.705626"><ele>397.512451</ele><time>2022-01-15T10:24:15Z</time><extensions><speed>0.004069</speed><course>7.656591</course><hAcc>1.773033</hAcc><vAcc>0.787173</vAcc></extensions></trkpt>
      <trkpt lon="-3.051436" lat="52.705626"><ele>397.523468</ele><time>2022-01-15T10:24:16Z</time><extensions><speed>0.002850</speed><course>358.537964</course><hAcc>1.782140</hAcc><vAcc>0.787763</vAcc></extensions></trkpt>
      <trkpt lon="-3.051436" lat="52.705626"><ele>397.532288</ele><time>2022-01-15T10:24:17Z</time><extensions><speed>0.001455</speed><course>305.778076</course><hAcc>1.784304</hAcc><vAcc>0.788225</vAcc></extensions></trkpt>
      <trkpt lon="-3.051436" lat="52.705626"><ele>397.540985</ele><time>2022-01-15T10:24:18Z</time><extensions><speed>0.003193</speed><course>224.793182</course><hAcc>1.783859</hAcc><vAcc>0.787871</vAcc></extensions></trkpt>
      <trkpt lon="-3.051436" lat="52.705626"><ele>397.527069</ele><time>2022-01-15T10:24:19Z</time><extensions><speed>0.006787</speed><course>207.436523</course><hAcc>1.782529</hAcc><vAcc>0.785181</vAcc></extensions></trkpt>
      <trkpt lon="-3.051436" lat="52.705625"><ele>397.564331</ele><time>2022-01-15T10:24:20Z</time><extensions><speed>0.011963</speed><course>202.508606</course><hAcc>1.778169</hAcc><vAcc>0.780614</vAcc></extensions></trkpt>
      <trkpt lon="-3.051436" lat="52.705625"><ele>397.577759</ele><time>2022-01-15T10:24:21Z</time><extensions><speed>0.019138</speed><course>202.603653</course><hAcc>1.774935</hAcc><vAcc>0.775931</vAcc></extensions></trkpt>
      <trkpt lon="-3.051436" lat="52.705625"><ele>397.644470</ele><time>2022-01-15T10:24:22Z</time><extensions><speed>0.028408</speed><course>204.475021</course><hAcc>1.776394</hAcc><vAcc>0.769548</vAcc></extensions></trkpt>
      <trkpt lon="-3.051436" lat="52.705625"><ele>397.661987</ele><time>2022-01-15T10:24:23Z</time><extensions><speed>0.039475</speed><course>201.300308</course><hAcc>1.777138</hAcc><vAcc>0.761001</vAcc></extensions></trkpt>
      <trkpt lon="-3.051436" lat="52.705624"><ele>397.692139</ele><time>2022-01-15T10:24:24Z</time><extensions><speed>0.053997</speed><course>198.226791</course><hAcc>1.785019</hAcc><vAcc>0.750431</vAcc></extensions></trkpt>
      <trkpt lon="-3.051437" lat="52.705624"><ele>397.717285</ele><time>2022-01-15T10:24:25Z</time><extensions><speed>0.068430</speed><course>192.652725</course><hAcc>1.803174</hAcc><vAcc>0.737740</vAcc></extensions></trkpt>
      <trkpt lon="-3.051437" lat="52.705623"><ele>397.736633</ele><time>2022-01-15T10:24:26Z</time><extensions><speed>0.092805</speed><course>184.381287</course><hAcc>1.812935</hAcc><vAcc>0.723057</vAcc></extensions></trkpt>
      <trkpt lon="-3.051437" lat="52.705622"><ele>397.746948</ele><time>2022-01-15T10:24:27Z</time><extensions><speed>0.102347</speed><course>173.366562</course><hAcc>1.840199</hAcc><vAcc>0.706875</vAcc></extensions></trkpt>
      <trkpt lon="-3.051436" lat="52.705621"><ele>397.746033</ele><time>2022-01-15T10:24:28Z</time><extensions><speed>0.092937</speed><course>158.071960</course><hAcc>1.885979</hAcc><vAcc>0.689970</vAcc></extensions></trkpt>
      <trkpt lon="-3.051435" lat="52.705621"><ele>397.732330</ele><time>2022-01-15T10:24:29Z</time><extensions><speed>0.075192</speed><course>134.133408</course><hAcc>1.944293</hAcc><vAcc>0.673310</vAcc></extensions></trkpt>
      <trkpt lon="-3.051434" lat="52.705621"><ele>397.704956</ele><time>2022-01-15T10:24:30Z</time><extensions><speed>0.078875</speed><course>102.858002</course><hAcc>1.996938</hAcc><vAcc>0.657872</vAcc></extensions></trkpt>
      <trkpt lon="-3.051433" lat="52.705620"><ele>397.663208</ele><time>2022-01-15T10:24:31Z</time><extensions><speed>0.110982</speed><course>84.684494</course><hAcc>2.038496</hAcc><vAcc>0.644351</vAcc></extensions></trkpt>
      <trkpt lon="-3.051431" lat="52.705621"><ele>397.606567</ele><time>2022-01-15T10:24:32Z</time><extensions><speed>0.163244</speed><course>81.473602</course><hAcc>2.051015</hAcc><vAcc>0.633039</vAcc></extensions></trkpt>
      <trkpt lon="-3.051428" lat="52.705621"><ele>397.535431</ele><time>2022-01-15T10:24:33Z</time><extensions><speed>0.206475</speed><course>83.885841</course><hAcc>2.034467</hAcc><vAcc>0.623941</vAcc></extensions></trkpt>
      <trkpt lon="-3.051425" lat="52.705621"><ele>397.461548</ele><time>2022-01-15T10:24:34Z</time><extensions><speed>0.197483</speed><course>88.842987</course><hAcc>2.013045</hAcc><vAcc>0.616669</vAcc></extensions></trkpt>
      <trkpt lon="-3.051423" lat="52.705621"><ele>397.388458</ele><time>2022-01-15T10:24:35Z</time><extensions><speed>0.180094</speed><course>94.289909</course><hAcc>1.975436</hAcc><vAcc>0.610212</vAcc></extensions></trkpt>
      <trkpt lon="-3.051420" lat="52.705621"><ele>397.321045</ele><time>2022-01-15T10:24:36Z</time><extensions><speed>0.141045</speed><course>100.168259</course><hAcc>1.947891</hAcc><vAcc>0.603158</vAcc></extensions></trkpt>
      <trkpt lon="-3.051418" lat="52.705620"><ele>397.264465</ele><time>2022-01-15T10:24:37Z</time><extensions><speed>0.095938</speed><course>107.675735</course><hAcc>1.937533</hAcc><vAcc>0.594199</vAcc></extensions></trkpt>
      <trkpt lon="-3.051417" lat="52.705620"><ele>397.222961</ele><time>2022-01-15T10:24:38Z</time><extensions><speed>0.076075</speed><course>119.369560</course><hAcc>1.917415</hAcc><vAcc>0.582469</vAcc></extensions></trkpt>
      <trkpt lon="-3.051417" lat="52.705620"><ele>397.192413</ele><time>2022-01-15T10:24:39Z</time><extensions><speed>0.063557</speed><course>135.346878</course><hAcc>1.913702</hAcc><vAcc>0.567758</vAcc></extensions></trkpt>
      <trkpt lon="-3.051416" lat="52.705619"><ele>397.209473</ele><time>2022-01-15T10:24:40Z</time><extensions><speed>0.056260</speed><course>155.266190</course><hAcc>1.936476</hAcc><vAcc>0.550268</vAcc></extensions></trkpt>
      <trkpt lon="-3.051416" lat="52.705619"><ele>397.174713</ele><time>2022-01-15T10:24:41Z</time><extensions><speed>0.061747</speed><course>173.295395</course><hAcc>1.966134</hAcc><vAcc>0.530410</vAcc></extensions></trkpt>
      <trkpt lon="-3.051416" lat="52.705618"><ele>397.182343</ele><time>2022-01-15T10:24:42Z</time><extensions><speed>0.074103</speed><course>187.207596</course><hAcc>2.006539</hAcc><vAcc>0.509222</vAcc></extensions></trkpt>
      <trkpt lon="-3.051417" lat="52.705617"><ele>397.248535</ele><time>2022-01-15T10:24:43Z</time><extensions><speed>0.084707</speed><course>196.911423</course><hAcc>2.046751</hAcc><vAcc>0.487643</vAcc></extensions></trkpt>
      <trkpt lon="-3.051417" lat="52.705617"><ele>397.388885</ele><time>2022-01-15T10:24:44Z</time><extensions><speed>0.104379</speed><course>204.529999</course><hAcc>2.062506</hAcc><vAcc>0.466011</vAcc></extensions></trkpt>
      <trkpt lon="-3.051418" lat="52.705616"><ele>397.534424</ele><time>2022-01-15T10:24:45Z</time><extensions><speed>0.094891</speed><course>217.088989</course><hAcc>2.100147</hAcc><vAcc>0.445870</vAcc></extensions></trkpt>
      <trkpt lon="-3.051419" lat="52.705616"><ele>397.692780</ele><time>2022-01-15T10:24:46Z</time><extensions><speed>0.090871</speed><course>236.887787</course><hAcc>2.146888</hAcc><vAcc>0.428117</vAcc></extensions></trkpt>
      <trkpt lon="-3.051420" lat="52.705615"><ele>397.860443</ele><time>2022-01-15T10:24:47Z</time><extensions><speed>0.092639</speed><course>258.480682</course><hAcc>2.200341</hAcc><vAcc>0.414249</vAcc></extensions></trkpt>
      <trkpt lon="-3.051421" lat="52.705615"><ele>398.032043</ele><time>2022-01-15T10:24:48Z</time><extensions><speed>0.104939</speed><course>277.764740</course><hAcc>2.247043</hAcc><vAcc>0.405721</vAcc></extensions></trkpt>
      <trkpt lon="-3.051423" lat="52.705616"><ele>398.201935</ele><time>2022-01-15T10:24:49Z</time><extensions><speed>0.121466</speed><course>293.507690</course><hAcc>2.278584</hAcc><vAcc>0.403551</vAcc></extensions></trkpt>
      <trkpt lon="-3.051424" lat="52.705616"><ele>398.361328</ele><time>2022-01-15T10:24:50Z</time><extensions><speed>0.138052</speed><course>310.540802</course><hAcc>2.286830</hAcc><vAcc>0.408496</vAcc></extensions></trkpt>
      <trkpt lon="-3.051426" lat="52.705617"><ele>398.501801</ele><time>2022-01-15T10:24:51Z</time><extensions><speed>0.162676</speed><course>331.590454</course><hAcc>2.270692</hAcc><vAcc>0.420695</vAcc></extensions></trkpt>
      <trkpt lon="-3.051426" lat="52.705619"><ele>398.611969</ele><time>2022-01-15T10:24:52Z</time><extensions><speed>0.190009</speed><course>354.740234</course><hAcc>2.250028</hAcc><vAcc>0.439587</vAcc></extensions></trkpt>
      <trkpt lon="-3.051426" lat="52.705621"><ele>398.684601</ele><time>2022-01-15T10:24:53Z</time><extensions><speed>0.227848</speed><course>12.894542</course><hAcc>2.213807</hAcc><vAcc>0.463836</vAcc></extensions></trkpt>
      <trkpt lon="-3.051425" lat="52.705623"><ele>398.720520</ele><time>2022-01-15T10:24:54Z</time><extensions><speed>0.249890</speed><course>23.983751</course><hAcc>2.155480</hAcc><vAcc>0.491653</vAcc></extensions></trkpt>
      <trkpt lon="-3.051423" lat="52.705624"><ele>398.726440</ele><time>2022-01-15T10:24:55Z</time><extensions><speed>0.217203</speed><course>32.973827</course><hAcc>2.093808</hAcc><vAcc>0.521338</vAcc></extensions></trkpt>
      <trkpt lon="-3.051422" lat="52.705626"><ele>398.700226</ele><time>2022-01-15T10:24:56Z</time><extensions><speed>0.158940</speed><course>46.619244</course><hAcc>2.035174</hAcc><vAcc>0.551419</vAcc></extensions></trkpt>
      <trkpt lon="-3.051420" lat="52.705626"><ele>398.660004</ele><time>2022-01-15T10:24:57Z</time><extensions><speed>0.111829</speed><course>66.516769</course><hAcc>1.964476</hAcc><vAcc>0.580701</vAcc></extensions></trkpt>
      <trkpt lon="-3.051419" lat="52.705626"><ele>398.606323</ele><time>2022-01-15T10:24:58Z</time><extensions><speed>0.068819</speed><course>99.730408</course><hAcc>1.896055</hAcc><vAcc>0.608447</vAcc></extensions></trkpt>
      <trkpt lon="-3.051418" lat="52.705626"><ele>398.540344</ele><time>2022-01-15T10:24:59Z</time><extensions><speed>0.054802</speed><course>148.289764</course><hAcc>1.837639</hAcc><vAcc>0.634205</vAcc></extensions></trkpt>
      <trkpt lon="-3.051418" lat="52.705626"><ele>398.471100</ele><time>2022-01-15T10:25:00Z</time><extensions><speed>0.059391</speed><course>180.673477</course><hAcc>1.796106</hAcc><vAcc>0.657439</vAcc></extensions></trkpt>
      <trkpt lon="-3.051418" lat="52.705625"><ele>398.395386</ele><time>2022-01-15T10:25:01Z</time><extensions><speed>0.061130</speed><course>197.516251</course><hAcc>1.777205</hAcc><vAcc>0.677795</vAcc></extensions></trkpt>
      <trkpt lon="-3.051418" lat="52.705625"><ele>398.322540</ele><time>2022-01-15T10:25:02Z</time><extensions><speed>0.059132</speed><course>208.483093</course><hAcc>1.778853</hAcc><vAcc>0.695121</vAcc></extensions></trkpt>
      <trkpt lon="-3.051419" lat="52.705624"><ele>398.248932</ele><time>2022-01-15T10:25:03Z</time><extensions><speed>0.063786</speed><course>216.129333</course><hAcc>1.778066</hAcc><vAcc>0.709460</vAcc></extensions></trkpt>
      <trkpt lon="-3.051419" lat="52.705624"><ele>398.176147</ele><time>2022-01-15T10:25:04Z</time><extensions><speed>0.068101</speed><course>221.613998</course><hAcc>1.769396</hAcc><vAcc>0.721054</vAcc></extensions></trkpt>
      <trkpt lon="-3.051420" lat="52.705623"><ele>398.109253</ele><time>2022-01-15T10:25:05Z</time><extensions><speed>0.060718</speed><course>229.346924</course><hAcc>1.740032</hAcc><vAcc>0.730125</vAcc></extensions></trkpt>
      <trkpt lon="-3.051421" lat="52.705623"><ele>398.047577</ele><time>2022-01-15T10:25:07Z</time><extensions><speed>0.022946</speed><course>275.287231</course><hAcc>1.742350</hAcc><vAcc>0.736921</vAcc></extensions></trkpt>
      <trkpt lon="-3.051421" lat="52.705624"><ele>397.991852</ele><time>2022-01-15T10:25:08Z</time><extensions><speed>0.044936</speed><course>6.377989</course><hAcc>1.765164</hAcc><vAcc>0.741715</vAcc></extensions></trkpt>
      <trkpt lon="-3.051420" lat="52.705624"><ele>397.942993</ele><time>2022-01-15T10:25:09Z</time><extensions><speed>0.088428</speed><course>23.004662</course><hAcc>1.790091</hAcc><vAcc>0.745076</vAcc></extensions></trkpt>
      <trkpt lon="-3.051420" lat="52.705625"><ele>397.897308</ele><time>2022-01-15T10:25:10Z</time><extensions><speed>0.114897</speed><course>29.613428</course><hAcc>1.816097</hAcc><vAcc>0.747192</vAcc></extensions></trkpt>
      <trkpt lon="-3.051419" lat="52.705626"><ele>397.853668</ele><time>2022-01-15T10:25:11Z</time><extensions><speed>0.140946</speed><course>32.665184</course><hAcc>1.813998</hAcc><vAcc>0.748367</vAcc></extensions></trkpt>
      <trkpt lon="-3.051418" lat="52.705627"><ele>397.817352</ele><time>2022-01-15T10:25:12Z</time><extensions><speed>0.142305</speed><course>32.605633</course><hAcc>1.813089</hAcc><vAcc>0.748899</vAcc></extensions></trkpt>
      <trkpt lon="-3.051417" lat="52.705628"><ele>397.786682</ele><time>2022-01-15T10:25:12Z</time><extensions><speed>0.123440</speed><course>31.121794</course><hAcc>1.820798</hAcc><vAcc>0.749068</vAcc></extensions></trkpt>
      <trkpt lon="-3.051416" lat="52.705629"><ele>397.756989</ele><time>2022-01-15T10:25:13Z</time><extensions><speed>0.094100</speed><course>30.111429</course><hAcc>1.827801</hAcc><vAcc>0.749097</vAcc></extensions></trkpt>
      <trkpt lon="-3.051415" lat="52.705629"><ele>397.731476</ele><time>2022-01-15T10:25:14Z</time><extensions><speed>0.057522</speed><course>28.085165</course><hAcc>1.834841</hAcc><vAcc>0.749255</vAcc></extensions></trkpt>
      <trkpt lon="-3.051415" lat="52.705630"><ele>397.709259</ele><time>2022-01-15T10:25:15Z</time><extensions><speed>0.025904</speed><course>5.956382</course><hAcc>1.840984</hAcc><vAcc>0.749709</vAcc></extensions></trkpt>
      <trkpt lon="-3.051415" lat="52.705630"><ele>397.687805</ele><time>2022-01-15T10:25:16Z</time><extensions><speed>0.025231</speed><course>303.679657</course><hAcc>1.840346</hAcc><vAcc>0.750614</vAcc></extensions></trkpt>
      <trkpt lon="-3.051416" lat="52.705630"><ele>397.668091</ele><time>2022-01-15T10:25:17Z</time><extensions><speed>0.040537</speed><course>290.438629</course><hAcc>1.837647</hAcc><vAcc>0.752011</vAcc></extensions></trkpt>
      <trkpt lon="-3.051416" lat="52.705630"><ele>397.652618</ele><time>2022-01-15T10:25:18Z</time><extensions><speed>0.048293</speed><course>297.650391</course><hAcc>1.829906</hAcc><vAcc>0.753864</vAcc></extensions></trkpt>
      <trkpt lon="-3.051417" lat="52.705631"><ele>397.639648</ele><time>2022-01-15T10:25:19Z</time><extensions><speed>0.045661</speed><course>318.977417</course><hAcc>1.819300</hAcc><vAcc>0.756060</vAcc></extensions></trkpt>
      <trkpt lon="-3.051417" lat="52.705631"><ele>397.626343</ele><time>2022-01-15T10:25:20Z</time><extensions><speed>0.048952</speed><course>353.810547</course><hAcc>1.807018</hAcc><vAcc>0.758396</vAcc></extensions></trkpt>
      <trkpt lon="-3.051417" lat="52.705631"><ele>397.617035</ele><time>2022-01-15T10:25:21Z</time><extensions><speed>0.062113</speed><course>19.395233</course><hAcc>1.797135</hAcc><vAcc>0.760724</vAcc></extensions></trkpt>
      <trkpt lon="-3.051416" lat="52.705632"><ele>397.605804</ele><time>2022-01-15T10:25:23Z</time><extensions><speed>0.067043</speed><course>33.836563</course><hAcc>1.800697</hAcc><vAcc>0.762946</vAcc></extensions></trkpt>
      <trkpt lon="-3.051416" lat="52.705632"><ele>397.591064</ele><time>2022-01-15T10:25:24Z</time><extensions><speed>0.056162</speed><course>42.746735</course><hAcc>1.814338</hAcc><vAcc>0.764960</vAcc></extensions></trkpt>
      <trkpt lon="-3.051415" lat="52.705633"><ele>397.575714</ele><time>2022-01-15T10:25:24Z</time><extensions><speed>0.048150</speed><course>47.216343</course><hAcc>1.797839</hAcc><vAcc>0.766729</vAcc></extensions></trkpt>
      <trkpt lon="-3.051415" lat="52.705633"><ele>397.566956</ele><time>2022-01-15T10:25:25Z</time><extensions><speed>0.030248</speed><course>43.028019</course><hAcc>1.789644</hAcc><vAcc>0.768292</vAcc></extensions></trkpt>
      <trkpt lon="-3.051415" lat="52.705633"><ele>397.557465</ele><time>2022-01-15T10:25:26Z</time><extensions><speed>0.014273</speed><course>4.842559</course><hAcc>1.793048</hAcc><vAcc>0.769673</vAcc></extensions></trkpt>
      <trkpt lon="-3.051415" lat="52.705633"><ele>397.548828</ele><time>2022-01-15T10:25:27Z</time><extensions><speed>0.019183</speed><course>295.292786</course><hAcc>1.802539</hAcc><vAcc>0.770905</vAcc></extensions></trkpt>
      <trkpt lon="-3.051415" lat="52.705633"><ele>397.546753</ele><time>2022-01-15T10:25:28Z</time><extensions><speed>0.028838</speed><course>271.589996</course><hAcc>1.811250</hAcc><vAcc>0.772036</vAcc></extensions></trkpt>
      <trkpt lon="-3.051416" lat="52.705633"><ele>397.546478</ele><time>2022-01-15T10:25:29Z</time><extensions><speed>0.032895</speed><course>256.198395</course><hAcc>1.805007</hAcc><vAcc>0.773113</vAcc></extensions></trkpt>
      <trkpt lon="-3.051416" lat="52.705633"><ele>397.547943</ele><time>2022-01-15T10:25:30Z</time><extensions><speed>0.029030</speed><course>242.489380</course><hAcc>1.799822</hAcc><vAcc>0.774181</vAcc></extensions></trkpt>
      <trkpt lon="-3.051416" lat="52.705633"><ele>397.551178</ele><time>2022-01-15T10:25:31Z</time><extensions><speed>0.021102</speed><course>217.124252</course><hAcc>1.793641</hAcc><vAcc>0.775275</vAcc></extensions></trkpt>
      <trkpt lon="-3.051416" lat="52.705633"><ele>397.554474</ele><time>2022-01-15T10:25:32Z</time><extensions><speed>0.019973</speed><course>168.605499</course><hAcc>1.776912</hAcc><vAcc>0.776450</vAcc></extensions></trkpt>
      <trkpt lon="-3.051416" lat="52.705633"><ele>397.559082</ele><time>2022-01-15T10:25:33Z</time><extensions><speed>0.028546</speed><course>136.227478</course><hAcc>1.752401</hAcc><vAcc>0.777713</vAcc></extensions></trkpt>
      <trkpt lon="-3.051416" lat="52.705632"><ele>397.565277</ele><time>2022-01-15T10:25:34Z</time><extensions><speed>0.036253</speed><course>122.073059</course><hAcc>1.727719</hAcc><vAcc>0.779033</vAcc></extensions></trkpt>
      <trkpt lon="-3.051415" lat="52.705632"><ele>397.575562</ele><time>2022-01-15T10:25:35Z</time><extensions><speed>0.035907</speed><course>116.913681</course><hAcc>1.711070</hAcc><vAcc>0.780438</vAcc></extensions></trkpt>
      <trkpt lon="-3.051415" lat="52.705632"><ele>397.587463</ele><time>2022-01-15T10:25:36Z</time><extensions><speed>0.026127</speed><course>115.027794</course><hAcc>1.707717</hAcc><vAcc>0.781906</vAcc></extensions></trkpt>
      <trkpt lon="-3.051415" lat="52.705632"><ele>397.600616</ele><time>2022-01-15T10:25:37Z</time><extensions><speed>0.018864</speed><course>112.483704</course><hAcc>1.699612</hAcc><vAcc>0.783408</vAcc></extensions></trkpt>
      <trkpt lon="-3.051414" lat="52.705632"><ele>397.614563</ele><time>2022-01-15T10:25:38Z</time><extensions><speed>0.019182</speed><course>108.225533</course><hAcc>1.690609</hAcc><vAcc>0.784927</vAcc></extensions></trkpt>
      <trkpt lon="-3.051414" lat="52.705632"><ele>397.631714</ele><time>2022-01-15T10:25:39Z</time><extensions><speed>0.024385</speed><course>104.151016</course><hAcc>1.691570</hAcc><vAcc>0.786463</vAcc></extensions></trkpt>
      <trkpt lon="-3.051413" lat="52.705632"><ele>397.647064</ele><time>2022-01-15T10:25:40Z</time><extensions><speed>0.040864</speed><course>101.604576</course><hAcc>1.671178</hAcc><vAcc>0.787929</vAcc></extensions></trkpt>
      <trkpt lon="-3.051413" lat="52.705632"><ele>397.661652</ele><time>2022-01-15T10:25:41Z</time><extensions><speed>0.042260</speed><course>100.831413</course><hAcc>1.685176</hAcc><vAcc>0.789331</vAcc></extensions></trkpt>
      <trkpt lon="-3.051412" lat="52.705632"><ele>397.676361</ele><time>2022-01-15T10:25:42Z</time><extensions><speed>0.045338</speed><course>101.345589</course><hAcc>1.680075</hAcc><vAcc>0.790689</vAcc></extensions></trkpt>
      <trkpt lon="-3.051412" lat="52.705632"><ele>397.691620</ele><time>2022-01-15T10:25:43Z</time><extensions><speed>0.036167</speed><course>106.214470</course><hAcc>1.690916</hAcc><vAcc>0.791954</vAcc></extensions></trkpt>
      <trkpt lon="-3.051411" lat="52.705632"><ele>397.707031</ele><time>2022-01-15T10:25:44Z</time><extensions><speed>0.026253</speed><course>114.381546</course><hAcc>1.700605</hAcc><vAcc>0.793136</vAcc></extensions></trkpt>
      <trkpt lon="-3.051411" lat="52.705631"><ele>397.722229</ele><time>2022-01-15T10:25:45Z</time><extensions><speed>0.015106</speed><course>125.033112</course><hAcc>1.704407</hAcc><vAcc>0.794123</vAcc></extensions></trkpt>
      <trkpt lon="-3.051411" lat="52.705631"><ele>397.738464</ele><time>2022-01-15T10:25:46Z</time><extensions><speed>0.004206</speed><course>175.404526</course><hAcc>1.710569</hAcc><vAcc>0.794884</vAcc></extensions></trkpt>
      <trkpt lon="-3.051411" lat="52.705631"><ele>397.754608</ele><time>2022-01-15T10:25:47Z</time><extensions><speed>0.012124</speed><course>271.636841</course><hAcc>1.723037</hAcc><vAcc>0.795541</vAcc></extensions></trkpt>
      <trkpt lon="-3.051411" lat="52.705631"><ele>397.756531</ele><time>2022-01-15T10:25:48Z</time><extensions><speed>0.024354</speed><course>277.768188</course><hAcc>1.727243</hAcc><vAcc>0.796123</vAcc></extensions></trkpt>
      <trkpt lon="-3.051412" lat="52.705631"><ele>397.760437</ele><time>2022-01-15T10:25:49Z</time><extensions><speed>0.039471</speed><course>274.856262</course><hAcc>1.708650</hAcc><vAcc>0.796474</vAcc></extensions></trkpt>
      <trkpt lon="-3.051412" lat="52.705631"><ele>397.762024</ele><time>2022-01-15T10:25:50Z</time><extensions><speed>0.043630</speed><course>271.532227</course><hAcc>1.717974</hAcc><vAcc>0.796621</vAcc></extensions></trkpt>
      <trkpt lon="-3.051413" lat="52.705631"><ele>397.769409</ele><time>2022-01-15T10:25:51Z</time><extensions><speed>0.038610</speed><course>277.031952</course><hAcc>1.738076</hAcc><vAcc>0.796536</vAcc></extensions></trkpt>
      <trkpt lon="-3.051413" lat="52.705631"><ele>397.778259</ele><time>2022-01-15T10:25:52Z</time><extensions><speed>0.029605</speed><course>292.722626</course><hAcc>1.746879</hAcc><vAcc>0.796088</vAcc></extensions></trkpt>
      <trkpt lon="-3.051414" lat="52.705632"><ele>397.787048</ele><time>2022-01-15T10:25:53Z</time><extensions><speed>0.015159</speed><course>322.923096</course><hAcc>1.761168</hAcc><vAcc>0.795095</vAcc></extensions></trkpt>
      <trkpt lon="-3.051414" lat="52.705632"><ele>397.789581</ele><time>2022-01-15T10:25:54Z</time><extensions><speed>0.012978</speed><course>71.119766</course><hAcc>1.763111</hAcc><vAcc>0.793691</vAcc></extensions></trkpt>
      <trkpt lon="-3.051413" lat="52.705632"><ele>397.800598</ele><time>2022-01-15T10:25:55Z</time><extensions><speed>0.040151</speed><course>116.782295</course><hAcc>1.770829</hAcc><vAcc>0.791890</vAcc></extensions></trkpt>
      <trkpt lon="-3.051413" lat="52.705631"><ele>397.814301</ele><time>2022-01-15T10:25:56Z</time><extensions><speed>0.080648</speed><course>129.436478</course><hAcc>1.779230</hAcc><vAcc>0.789689</vAcc></extensions></trkpt>
      <trkpt lon="-3.051411" lat="52.705631"><ele>397.831329</ele><time>2022-01-15T10:25:57Z</time><extensions><speed>0.123942</speed><course>131.224960</course><hAcc>1.785488</hAcc><vAcc>0.787257</vAcc></extensions></trkpt>
      <trkpt lon="-3.051410" lat="52.705630"><ele>397.837341</ele><time>2022-01-15T10:25:58Z</time><extensions><speed>0.151155</speed><course>129.334091</course><hAcc>1.787592</hAcc><vAcc>0.784468</vAcc></extensions></trkpt>
      <trkpt lon="-3.051408" lat="52.705629"><ele>397.855164</ele><time>2022-01-15T10:25:59Z</time><extensions><speed>0.140122</speed><course>127.098145</course><hAcc>1.789955</hAcc><vAcc>0.781321</vAcc></extensions></trkpt>
      <trkpt lon="-3.051407" lat="52.705628"><ele>397.850311</ele><time>2022-01-15T10:26:00Z</time><extensions><speed>0.109317</speed><course>125.462425</course><hAcc>1.793974</hAcc><vAcc>0.777882</vAcc></extensions></trkpt>
      <trkpt lon="-3.051406" lat="52.705628"><ele>397.838348</ele><time>2022-01-15T10:26:01Z</time><extensions><speed>0.077908</speed><course>126.084366</course><hAcc>1.805895</hAcc><vAcc>0.774387</vAcc></extensions></trkpt>
      <trkpt lon="-3.051405" lat="52.705628"><ele>397.779327</ele><time>2022-01-15T10:26:02Z</time><extensions><speed>0.051753</speed><course>136.130142</course><hAcc>1.818433</hAcc><vAcc>0.770870</vAcc></extensions></trkpt>
      <trkpt lon="-3.051405" lat="52.705627"><ele>397.736145</ele><time>2022-01-15T10:26:03Z</time><extensions><speed>0.041921</speed><course>170.276321</course><hAcc>1.815076</hAcc><vAcc>0.767612</vAcc></extensions></trkpt>
      <trkpt lon="-3.051405" lat="52.705627"><ele>397.684937</ele><time>2022-01-15T10:26:04Z</time><extensions><speed>0.049026</speed><course>206.740845</course><hAcc>1.817449</hAcc><vAcc>0.764802</vAcc></extensions></trkpt>
      <trkpt lon="-3.051405" lat="52.705626"><ele>397.625336</ele><time>2022-01-15T10:26:05Z</time><extensions><speed>0.058834</speed><course>227.208328</course><hAcc>1.826571</hAcc><vAcc>0.762577</vAcc></extensions></trkpt>
      <trkpt lon="-3.051406" lat="52.705626"><ele>397.557190</ele><time>2022-01-15T10:26:06Z</time><extensions><speed>0.063114</speed><course>236.449356</course><hAcc>1.827103</hAcc><vAcc>0.761006</vAcc></extensions></trkpt>
      <trkpt lon="-3.051407" lat="52.705626"><ele>397.480865</ele><time>2022-01-15T10:26:07Z</time><extensions><speed>0.053521</speed><course>243.715805</course><hAcc>1.821318</hAcc><vAcc>0.760129</vAcc></extensions></trkpt>
      <trkpt lon="-3.051408" lat="52.705626"><ele>397.424652</ele><time>2022-01-15T10:26:08Z</time><extensions><speed>0.043444</speed><course>250.722290</course><hAcc>1.808158</hAcc><vAcc>0.759925</vAcc></extensions></trkpt>
      <trkpt lon="-3.051408" lat="52.705625"><ele>397.367065</ele><time>2022-01-15T10:26:09Z</time><extensions><speed>0.034871</speed><course>253.764893</course><hAcc>1.777614</hAcc><vAcc>0.760348</vAcc></extensions></trkpt>
      <trkpt lon="-3.051409" lat="52.705625"><ele>397.311584</ele><time>2022-01-15T10:26:10Z</time><extensions><speed>0.039102</speed><course>247.141708</course><hAcc>1.721741</hAcc><vAcc>0.761330</vAcc></extensions></trkpt>
      <trkpt lon="-3.051410" lat="52.705625"><ele>397.261200</ele><time>2022-01-15T10:26:11Z</time><extensions><speed>0.059776</speed><course>237.019577</course><hAcc>1.647890</hAcc><vAcc>0.762817</vAcc></extensions></trkpt>
      <trkpt lon="-3.051411" lat="52.705624"><ele>397.218903</ele><time>2022-01-15T10:26:12Z</time><extensions><speed>0.078828</speed><course>238.036682</course><hAcc>1.602823</hAcc><vAcc>0.764714</vAcc></extensions></trkpt>
      <trkpt lon="-3.051412" lat="52.705624"><ele>397.187012</ele><time>2022-01-15T10:26:13Z</time><extensions><speed>0.055024</speed><course>241.981964</course><hAcc>1.617658</hAcc><vAcc>0.766927</vAcc></extensions></trkpt>
      <trkpt lon="-3.051413" lat="52.705624"><ele>397.166534</ele><time>2022-01-15T10:26:14Z</time><extensions><speed>0.051591</speed><course>240.293823</course><hAcc>1.605770</hAcc><vAcc>0.769350</vAcc></extensions></trkpt>
      <trkpt lon="-3.051414" lat="52.705623"><ele>397.157837</ele><time>2022-01-15T10:26:15Z</time><extensions><speed>0.083312</speed><course>237.075836</course><hAcc>1.566903</hAcc><vAcc>0.771878</vAcc></extensions></trkpt>
      <trkpt lon="-3.051416" lat="52.705622"><ele>397.156860</ele><time>2022-01-15T10:26:16Z</time><extensions><speed>0.147558</speed><course>234.615891</course><hAcc>1.515756</hAcc><vAcc>0.774351</vAcc></extensions></trkpt>
      <trkpt lon="-3.051418" lat="52.705621"><ele>397.176422</ele><time>2022-01-15T10:26:17Z</time><extensions><speed>0.180918</speed><course>232.955948</course><hAcc>1.487860</hAcc><vAcc>0.776548</vAcc></extensions></trkpt>
      <trkpt lon="-3.051420" lat="52.705620"><ele>397.200592</ele><time>2022-01-15T10:26:18Z</time><extensions><speed>0.185813</speed><course>231.096054</course><hAcc>1.469390</hAcc><vAcc>0.778398</vAcc></extensions></trkpt>
      <trkpt lon="-3.051422" lat="52.705619"><ele>397.236389</ele><time>2022-01-15T10:26:19Z</time><extensions><speed>0.155636</speed><course>229.508713</course><hAcc>1.458541</hAcc><vAcc>0.780129</vAcc></extensions></trkpt>
      <trkpt lon="-3.051423" lat="52.705619"><ele>397.280914</ele><time>2022-01-15T10:26:20Z</time><extensions><speed>0.102289</speed><course>228.817093</course><hAcc>1.466518</hAcc><vAcc>0.781606</vAcc></extensions></trkpt>
      <trkpt lon="-3.051424" lat="52.705618"><ele>397.322937</ele><time>2022-01-15T10:26:21Z</time><extensions><speed>0.052793</speed><course>228.481888</course><hAcc>1.484812</hAcc><vAcc>0.782811</vAcc></extensions></trkpt>
      <trkpt lon="-3.051425" lat="52.705618"><ele>397.369080</ele><time>2022-01-15T10:26:22Z</time><extensions><speed>0.045750</speed><course>228.565308</course><hAcc>1.480515</hAcc><vAcc>0.783717</vAcc></extensions></trkpt>
      <trkpt lon="-3.051425" lat="52.705618"><ele>397.415771</ele><time>2022-01-15T10:26:23Z</time><extensions><speed>0.069505</speed><course>229.379059</course><hAcc>1.452123</hAcc><vAcc>0.784333</vAcc></extensions></trkpt>
      <trkpt lon="-3.051426" lat="52.705618"><ele>397.462585</ele><time>2022-01-15T10:26:24Z</time><extensions><speed>0.064194</speed><course>231.557220</course><hAcc>1.458664</hAcc><vAcc>0.784696</vAcc></extensions></trkpt>
      <trkpt lon="-3.051427" lat="52.705618"><ele>397.505493</ele><time>2022-01-15T10:26:25Z</time><extensions><speed>0.042855</speed><course>242.985336</course><hAcc>1.478892</hAcc><vAcc>0.784901</vAcc></extensions></trkpt>
      <trkpt lon="-3.051427" lat="52.705618"><ele>397.546478</ele><time>2022-01-15T10:26:26Z</time><extensions><speed>0.028111</speed><course>301.085083</course><hAcc>1.495944</hAcc><vAcc>0.784998</vAcc></extensions></trkpt>
      <trkpt lon="-3.051427" lat="52.705618"><ele>397.583649</ele><time>2022-01-15T10:26:27Z</time><extensions><speed>0.055053</speed><course>346.695343</course><hAcc>1.505513</hAcc><vAcc>0.785140</vAcc></extensions></trkpt>
      <trkpt lon="-3.051427" lat="52.705619"><ele>397.622864</ele><time>2022-01-15T10:26:28Z</time><extensions><speed>0.093571</speed><course>358.051453</course><hAcc>1.513245</hAcc><vAcc>0.785368</vAcc></extensions></trkpt>
      <trkpt lon="-3.051427" lat="52.705620"><ele>397.660248</ele><time>2022-01-15T10:26:29Z</time><extensions><speed>0.131393</speed><course>2.501749</course><hAcc>1.518002</hAcc><vAcc>0.785766</vAcc></extensions></trkpt>
      <trkpt lon="-3.051427" lat="52.705622"><ele>397.689789</ele><time>2022-01-15T10:26:30Z</time><extensions><speed>0.163968</speed><course>4.394428</course><hAcc>1.515294</hAcc><vAcc>0.786328</vAcc></extensions></trkpt>
      <trkpt lon="-3.051427" lat="52.705623"><ele>397.711243</ele><time>2022-01-15T10:26:31Z</time><extensions><speed>0.174587</speed><course>4.866599</course><hAcc>1.513322</hAcc><vAcc>0.787012</vAcc></extensions></trkpt>
      <trkpt lon="-3.051427" lat="52.705625"><ele>397.722900</ele><time>2022-01-15T10:26:32Z</time><extensions><speed>0.170765</speed><course>5.153417</course><hAcc>1.514371</hAcc><vAcc>0.787784</vAcc></extensions></trkpt>
      <trkpt lon="-3.051427" lat="52.705627"><ele>397.727661</ele><time>2022-01-15T10:26:33Z</time><extensions><speed>0.152473</speed><course>5.701601</course><hAcc>1.521508</hAcc><vAcc>0.788636</vAcc></extensions></trkpt>
      <trkpt lon="-3.051426" lat="52.705628"><ele>397.734314</ele><time>2022-01-15T10:26:34Z</time><extensions><speed>0.168572</speed><course>6.036743</course><hAcc>1.513090</hAcc><vAcc>0.789547</vAcc></extensions></trkpt>
      <trkpt lon="-3.051426" lat="52.705630"><ele>397.734467</ele><time>2022-01-15T10:26:35Z</time><extensions><speed>0.179423</speed><course>5.741618</course><hAcc>1.504049</hAcc><vAcc>0.790476</vAcc></extensions></trkpt>
      <trkpt lon="-3.051426" lat="52.705631"><ele>397.730957</ele><time>2022-01-15T10:26:36Z</time><extensions><speed>0.165559</speed><course>5.187856</course><hAcc>1.503042</hAcc><vAcc>0.791375</vAcc></extensions></trkpt>
      <trkpt lon="-3.051425" lat="52.705633"><ele>397.725098</ele><time>2022-01-15T10:26:37Z</time><extensions><speed>0.139432</speed><course>4.493428</course><hAcc>1.509028</hAcc><vAcc>0.792254</vAcc></extensions></trkpt>
      <trkpt lon="-3.051425" lat="52.705634"><ele>397.716522</ele><time>2022-01-15T10:26:38Z</time><extensions><speed>0.117111</speed><course>3.669994</course><hAcc>1.514857</hAcc><vAcc>0.793103</vAcc></extensions></trkpt>
      <trkpt lon="-3.051425" lat="52.705635"><ele>397.699432</ele><time>2022-01-15T10:26:39Z</time><extensions><speed>0.116488</speed><course>3.280285</course><hAcc>1.508130</hAcc><vAcc>0.793856</vAcc></extensions></trkpt>
      <trkpt lon="-3.051425" lat="52.705636"><ele>397.667114</ele><time>2022-01-15T10:26:40Z</time><extensions><speed>0.101308</speed><course>4.050076</course><hAcc>1.507723</hAcc><vAcc>0.794456</vAcc></extensions></trkpt>
      <trkpt lon="-3.051425" lat="52.705637"><ele>397.634094</ele><time>2022-01-15T10:26:41Z</time><extensions><speed>0.088860</speed><course>7.576500</course><hAcc>1.505893</hAcc><vAcc>0.794727</vAcc></extensions></trkpt>
      <trkpt lon="-3.051425" lat="52.705638"><ele>397.599884</ele><time>2022-01-15T10:26:43Z</time><extensions><speed>0.076216</speed><course>12.844127</course><hAcc>1.505256</hAcc><vAcc>0.794724</vAcc></extensions></trkpt>
      <trkpt lon="-3.051424" lat="52.705638"><ele>397.546906</ele><time>2022-01-15T10:26:44Z</time><extensions><speed>0.070346</speed><course>20.250429</course><hAcc>1.503768</hAcc><vAcc>0.794547</vAcc></extensions></trkpt>
      <trkpt lon="-3.051424" lat="52.705639"><ele>397.499084</ele><time>2022-01-15T10:26:45Z</time><extensions><speed>0.069240</speed><course>24.186537</course><hAcc>1.496605</hAcc><vAcc>0.794006</vAcc></extensions></trkpt>
      <trkpt lon="-3.051424" lat="52.705640"><ele>397.452423</ele><time>2022-01-15T10:26:46Z</time><extensions><speed>0.066077</speed><course>20.380941</course><hAcc>1.487556</hAcc><vAcc>0.792787</vAcc></extensions></trkpt>
      <trkpt lon="-3.051424" lat="52.705640"><ele>397.413696</ele><time>2022-01-15T10:26:47Z</time><extensions><speed>0.053562</speed><course>10.894086</course><hAcc>1.491870</hAcc><vAcc>0.791252</vAcc></extensions></trkpt>
      <trkpt lon="-3.051424" lat="52.705640"><ele>397.375092</ele><time>2022-01-15T10:26:48Z</time><extensions><speed>0.034076</speed><course>359.168457</course><hAcc>1.515683</hAcc><vAcc>0.789221</vAcc></extensions></trkpt>
      <trkpt lon="-3.051424" lat="52.705641"><ele>397.339722</ele><time>2022-01-15T10:26:49Z</time><extensions><speed>0.027622</speed><course>345.518066</course><hAcc>1.524517</hAcc><vAcc>0.786376</vAcc></extensions></trkpt>
      <trkpt lon="-3.051424" lat="52.705641"><ele>397.305267</ele><time>2022-01-15T10:26:50Z</time><extensions><speed>0.032709</speed><course>326.002472</course><hAcc>1.512851</hAcc><vAcc>0.783029</vAcc></extensions></trkpt>
      <trkpt lon="-3.051425" lat="52.705641"><ele>397.311462</ele><time>2022-01-15T10:26:51Z</time><extensions><speed>0.032355</speed><course>300.467651</course><hAcc>1.528712</hAcc><vAcc>0.779126</vAcc></extensions></trkpt>
      <trkpt lon="-3.051426" lat="52.705641"><ele>397.352570</ele><time>2022-01-15T10:26:52Z</time><extensions><speed>0.042750</speed><course>280.200195</course><hAcc>1.555145</hAcc><vAcc>0.774705</vAcc></extensions></trkpt>
      <trkpt lon="-3.051426" lat="52.705641"><ele>397.369141</ele><time>2022-01-15T10:26:53Z</time><extensions><speed>0.056249</speed><course>269.650421</course><hAcc>1.570246</hAcc><vAcc>0.770228</vAcc></extensions></trkpt>
      <trkpt lon="-3.051428" lat="52.705641"><ele>397.366486</ele><time>2022-01-15T10:26:54Z</time><extensions><speed>0.076889</speed><course>261.648193</course><hAcc>1.568855</hAcc><vAcc>0.765646</vAcc></extensions></trkpt>
      <trkpt lon="-3.051429" lat="52.705641"><ele>397.361145</ele><time>2022-01-15T10:26:55Z</time><extensions><speed>0.134118</speed><course>256.807526</course><hAcc>1.618875</hAcc><vAcc>0.761176</vAcc></extensions></trkpt>
      <trkpt lon="-3.051431" lat="52.705641"><ele>397.377197</ele><time>2022-01-15T10:26:56Z</time><extensions><speed>0.170576</speed><course>254.633209</course><hAcc>1.649604</hAcc><vAcc>0.757003</vAcc></extensions></trkpt>
      <trkpt lon="-3.051434" lat="52.705640"><ele>397.395172</ele><time>2022-01-15T10:26:57Z</time><extensions><speed>0.172863</speed><course>253.942169</course><hAcc>1.675821</hAcc><vAcc>0.753365</vAcc></extensions></trkpt>
      <trkpt lon="-3.051436" lat="52.705640"><ele>397.407135</ele><time>2022-01-15T10:26:58Z</time><extensions><speed>0.176109</speed><course>256.048798</course><hAcc>1.694389</hAcc><vAcc>0.750534</vAcc></extensions></trkpt>
      <trkpt lon="-3.051439" lat="52.705640"><ele>397.400665</ele><time>2022-01-15T10:26:59Z</time><extensions><speed>0.186262</speed><course>260.134827</course><hAcc>1.709704</hAcc><vAcc>0.748710</vAcc></extensions></trkpt>
      <trkpt lon="-3.051441" lat="52.705640"><ele>397.403992</ele><time>2022-01-15T10:27:00Z</time><extensions><speed>0.181724</speed><course>265.731323</course><hAcc>1.727754</hAcc><vAcc>0.747997</vAcc></extensions></trkpt>
      <trkpt lon="-3.051444" lat="52.705640"><ele>397.414581</ele><time>2022-01-15T10:27:01Z</time><extensions><speed>0.227829</speed><course>275.497131</course><hAcc>1.714275</hAcc><vAcc>0.748414</vAcc></extensions></trkpt>
      <trkpt lon="-3.051447" lat="52.705640"><ele>397.408539</ele><time>2022-01-15T10:27:02Z</time><extensions><speed>0.223394</speed><course>289.108704</course><hAcc>1.721478</hAcc><vAcc>0.749860</vAcc></extensions></trkpt>
      <trkpt lon="-3.051450" lat="52.705641"><ele>397.392609</ele><time>2022-01-15T10:27:03Z</time><extensions><speed>0.231310</speed><course>303.926178</course><hAcc>1.728006</hAcc><vAcc>0.752143</vAcc></extensions></trkpt>
      <trkpt lon="-3.051451" lat="52.705643"><ele>397.383942</ele><time>2022-01-15T10:27:04Z</time><extensions><speed>0.227015</speed><course>3.533688</course><hAcc>1.725459</hAcc><vAcc>0.754982</vAcc></extensions></trkpt>
      <trkpt lon="-3.051450" lat="52.705645"><ele>397.360718</ele><time>2022-01-15T10:27:05Z</time><extensions><speed>0.361344</speed><course>25.461637</course><hAcc>1.702248</hAcc><vAcc>0.758084</vAcc></extensions></trkpt>
      <trkpt lon="-3.051448" lat="52.705648"><ele>397.320526</ele><time>2022-01-15T10:27:06Z</time><extensions><speed>0.285132</speed><course>28.843681</course><hAcc>1.707279</hAcc><vAcc>0.761211</vAcc></extensions></trkpt>
      <trkpt lon="-3.051446" lat="52.705650"><ele>397.289703</ele><time>2022-01-15T10:27:07Z</time><extensions><speed>0.262113</speed><course>34.276775</course><hAcc>1.699458</hAcc><vAcc>0.764189</vAcc></extensions></trkpt>
      <trkpt lon="-3.051443" lat="52.705651"><ele>397.257202</ele><time>2022-01-15T10:27:08Z</time><extensions><speed>0.267136</speed><course>39.168434</course><hAcc>1.674901</hAcc><vAcc>0.766871</vAcc></extensions></trkpt>
      <trkpt lon="-3.051440" lat="52.705654"><ele>397.225281</ele><time>2022-01-15T10:27:09Z</time><extensions><speed>0.342936</speed><course>42.692081</course><hAcc>1.630792</hAcc><vAcc>0.769176</vAcc></extensions></trkpt>
      <trkpt lon="-3.051437" lat="52.705655"><ele>397.190430</ele><time>2022-01-15T10:27:10Z</time><extensions><speed>0.183700</speed><course>47.981838</course><hAcc>1.637981</hAcc><vAcc>0.771032</vAcc></extensions></trkpt>
      <trkpt lon="-3.051435" lat="52.705656"><ele>397.154236</ele><time>2022-01-15T10:27:11Z</time><extensions><speed>0.118497</speed><course>64.869202</course><hAcc>1.631177</hAcc><vAcc>0.772567</vAcc></extensions></trkpt>
      <trkpt lon="-3.051434" lat="52.705656"><ele>397.123230</ele><time>2022-01-15T10:27:12Z</time><extensions><speed>0.099998</speed><course>90.881874</course><hAcc>1.624035</hAcc><vAcc>0.773796</vAcc></extensions></trkpt>
      <trkpt lon="-3.051432" lat="52.705656"><ele>397.093048</ele><time>2022-01-15T10:27:13Z</time><extensions><speed>0.100396</speed><course>108.003166</course><hAcc>1.623189</hAcc><vAcc>0.774796</vAcc></extensions></trkpt>
      <trkpt lon="-3.051431" lat="52.705656"><ele>397.063965</ele><time>2022-01-15T10:27:14Z</time><extensions><speed>0.116934</speed><course>112.245483</course><hAcc>1.608524</hAcc><vAcc>0.775582</vAcc></extensions></trkpt>
      <trkpt lon="-3.051429" lat="52.705655"><ele>397.036133</ele><time>2022-01-15T10:27:15Z</time><extensions><speed>0.125432</speed><course>109.100517</course><hAcc>1.594867</hAcc><vAcc>0.776184</vAcc></extensions></trkpt>
      <trkpt lon="-3.051427" lat="52.705655"><ele>397.010010</ele><time>2022-01-15T10:27:16Z</time><extensions><speed>0.124181</speed><course>104.654213</course><hAcc>1.585777</hAcc><vAcc>0.776622</vAcc></extensions></trkpt>
      <trkpt lon="-3.051425" lat="52.705655"><ele>397.015228</ele><time>2022-01-15T10:27:17Z</time><extensions><speed>0.109316</speed><course>95.095634</course><hAcc>1.581604</hAcc><vAcc>0.776953</vAcc></extensions></trkpt>
      <trkpt lon="-3.051424" lat="52.705656"><ele>397.009766</ele><time>2022-01-15T10:27:18Z</time><extensions><speed>0.093232</speed><course>81.419998</course><hAcc>1.580532</hAcc><vAcc>0.777214</vAcc></extensions></trkpt>
      <trkpt lon="-3.051422" lat="52.705656"><ele>397.008514</ele><time>2022-01-15T10:27:19Z</time><extensions><speed>0.088627</speed><course>63.887920</course><hAcc>1.579007</hAcc><vAcc>0.777458</vAcc></extensions></trkpt>
      <trkpt lon="-3.051421" lat="52.705657"><ele>396.997955</ele><time>2022-01-15T10:27:20Z</time><extensions><speed>0.101717</speed><course>50.420227</course><hAcc>1.576170</hAcc><vAcc>0.777619</vAcc></extensions></trkpt>
      <trkpt lon="-3.051420" lat="52.705657"><ele>396.997467</ele><time>2022-01-15T10:27:21Z</time><extensions><speed>0.092871</speed><course>39.558117</course><hAcc>1.595379</hAcc><vAcc>0.777653</vAcc></extensions></trkpt>
      <trkpt lon="-3.051419" lat="52.705658"><ele>397.003571</ele><time>2022-01-15T10:27:22Z</time><extensions><speed>0.136226</speed><course>30.252155</course><hAcc>1.580836</hAcc><vAcc>0.777746</vAcc></extensions></trkpt>
      <trkpt lon="-3.051418" lat="52.705659"><ele>396.968170</ele><time>2022-01-15T10:27:23Z</time><extensions><speed>0.153664</speed><course>22.821732</course><hAcc>1.589590</hAcc><vAcc>0.777882</vAcc></extensions></trkpt>
      <trkpt lon="-3.051417" lat="52.705661"><ele>396.976318</ele><time>2022-01-15T10:27:24Z</time><extensions><speed>0.181112</speed><course>16.165314</course><hAcc>1.608366</hAcc><vAcc>0.778050</vAcc></extensions></trkpt>
      <trkpt lon="-3.051417" lat="52.705662"><ele>396.976135</ele><time>2022-01-15T10:27:25Z</time><extensions><speed>0.217019</speed><course>11.616006</course><hAcc>1.632342</hAcc><vAcc>0.778321</vAcc></extensions></trkpt>
      <trkpt lon="-3.051416" lat="52.705665"><ele>396.935638</ele><time>2022-01-15T10:27:26Z</time><extensions><speed>0.251611</speed><course>9.573226</course><hAcc>1.660692</hAcc><vAcc>0.778623</vAcc></extensions></trkpt>
      <trkpt lon="-3.051415" lat="52.705667"><ele>396.923431</ele><time>2022-01-15T10:27:27Z</time><extensions><speed>0.268885</speed><course>10.578752</course><hAcc>1.683136</hAcc><vAcc>0.779010</vAcc></extensions></trkpt>
      <trkpt lon="-3.051414" lat="52.705669"><ele>396.905792</ele><time>2022-01-15T10:27:28Z</time><extensions><speed>0.272745</speed><course>14.674598</course><hAcc>1.694332</hAcc><vAcc>0.779444</vAcc></extensions></trkpt>
      <trkpt lon="-3.051413" lat="52.705671"><ele>396.893188</ele><time>2022-01-15T10:27:29Z</time><extensions><speed>0.242592</speed><course>19.743702</course><hAcc>1.711776</hAcc><vAcc>0.779935</vAcc></extensions></trkpt>
      <trkpt lon="-3.051412" lat="52.705673"><ele>396.867706</ele><time>2022-01-15T10:27:30Z</time><extensions><speed>0.185140</speed><course>25.150002</course><hAcc>1.737505</hAcc><vAcc>0.780433</vAcc></extensions></trkpt>
      <trkpt lon="-3.051411" lat="52.705674"><ele>396.851379</ele><time>2022-01-15T10:27:31Z</time><extensions><speed>0.123913</speed><course>34.431252</course><hAcc>1.761764</hAcc><vAcc>0.780916</vAcc></extensions></trkpt>
      <trkpt lon="-3.051410" lat="52.705675"><ele>396.827026</ele><time>2022-01-15T10:27:32Z</time><extensions><speed>0.076695</speed><course>56.147442</course><hAcc>1.781757</hAcc><vAcc>0.781452</vAcc></extensions></trkpt>
      <trkpt lon="-3.051409" lat="52.705675"><ele>396.800323</ele><time>2022-01-15T10:27:33Z</time><extensions><speed>0.056754</speed><course>84.661583</course><hAcc>1.793119</hAcc><vAcc>0.781983</vAcc></extensions></trkpt>
      <trkpt lon="-3.051408" lat="52.705675"><ele>396.779022</ele><time>2022-01-15T10:27:34Z</time><extensions><speed>0.057061</speed><course>107.524658</course><hAcc>1.789391</hAcc><vAcc>0.782251</vAcc></extensions></trkpt>
      <trkpt lon="-3.051407" lat="52.705675"><ele>396.761322</ele><time>2022-01-15T10:27:35Z</time><extensions><speed>0.064714</speed><course>122.534775</course><hAcc>1.786404</hAcc><vAcc>0.782187</vAcc></extensions></trkpt>
      <trkpt lon="-3.051407" lat="52.705675"><ele>396.752289</ele><time>2022-01-15T10:27:36Z</time><extensions><speed>0.062196</speed><course>132.610107</course><hAcc>1.789303</hAcc><vAcc>0.781589</vAcc></extensions></trkpt>
      <trkpt lon="-3.051406" lat="52.705674"><ele>396.748322</ele><time>2022-01-15T10:27:37Z</time><extensions><speed>0.061439</speed><course>141.244293</course><hAcc>1.790387</hAcc><vAcc>0.780367</vAcc></extensions></trkpt>
      <trkpt lon="-3.051406" lat="52.705674"><ele>396.748383</ele><time>2022-01-15T10:27:38Z</time><extensions><speed>0.070131</speed><course>147.395905</course><hAcc>1.791677</hAcc><vAcc>0.778510</vAcc></extensions></trkpt>
      <trkpt lon="-3.051405" lat="52.705673"><ele>396.752014</ele><time>2022-01-15T10:27:39Z</time><extensions><speed>0.076099</speed><course>152.377838</course><hAcc>1.795334</hAcc><vAcc>0.775983</vAcc></extensions></trkpt>
      <trkpt lon="-3.051405" lat="52.705673"><ele>396.758911</ele><time>2022-01-15T10:27:40Z</time><extensions><speed>0.071147</speed><course>159.087555</course><hAcc>1.797547</hAcc><vAcc>0.772704</vAcc></extensions></trkpt>
      <trkpt lon="-3.051404" lat="52.705672"><ele>396.768768</ele><time>2022-01-15T10:27:41Z</time><extensions><speed>0.059979</speed><course>172.953873</course><hAcc>1.799562</hAcc><vAcc>0.768707</vAcc></extensions></trkpt>
      <trkpt lon="-3.051404" lat="52.705671"><ele>396.771545</ele><time>2022-01-15T10:27:42Z</time><extensions><speed>0.056788</speed><course>191.909317</course><hAcc>1.803913</hAcc><vAcc>0.763987</vAcc></extensions></trkpt>
      <trkpt lon="-3.051405" lat="52.705671"><ele>396.791016</ele><time>2022-01-15T10:27:43Z</time><extensions><speed>0.064854</speed><course>202.326111</course><hAcc>1.807466</hAcc><vAcc>0.758339</vAcc></extensions></trkpt>
      <trkpt lon="-3.051405" lat="52.705670"><ele>396.804596</ele><time>2022-01-15T10:27:44Z</time><extensions><speed>0.069467</speed><course>205.037262</course><hAcc>1.817300</hAcc><vAcc>0.751855</vAcc></extensions></trkpt>
      <trkpt lon="-3.051406" lat="52.705670"><ele>396.828796</ele><time>2022-01-15T10:27:45Z</time><extensions><speed>0.061271</speed><course>207.445618</course><hAcc>1.839278</hAcc><vAcc>0.745264</vAcc></extensions></trkpt>
      <trkpt lon="-3.051406" lat="52.705669"><ele>396.826477</ele><time>2022-01-15T10:27:46Z</time><extensions><speed>0.063698</speed><course>214.611725</course><hAcc>1.835820</hAcc><vAcc>0.738540</vAcc></extensions></trkpt>
      <trkpt lon="-3.051407" lat="52.705669"><ele>396.834045</ele><time>2022-01-15T10:27:47Z</time><extensions><speed>0.064334</speed><course>226.225891</course><hAcc>1.836170</hAcc><vAcc>0.731916</vAcc></extensions></trkpt>
      <trkpt lon="-3.051407" lat="52.705669"><ele>396.839417</ele><time>2022-01-15T10:27:48Z</time><extensions><speed>0.065036</speed><course>241.275482</course><hAcc>1.848092</hAcc><vAcc>0.725643</vAcc></extensions></trkpt>
      <trkpt lon="-3.051408" lat="52.705668"><ele>396.842163</ele><time>2022-01-15T10:27:49Z</time><extensions><speed>0.074756</speed><course>256.348663</course><hAcc>1.859575</hAcc><vAcc>0.719896</vAcc></extensions></trkpt>
      <trkpt lon="-3.051410" lat="52.705668"><ele>396.842102</ele><time>2022-01-15T10:27:50Z</time><extensions><speed>0.086105</speed><course>269.348083</course><hAcc>1.880931</hAcc><vAcc>0.714777</vAcc></extensions></trkpt>
      <trkpt lon="-3.051411" lat="52.705668"><ele>396.839233</ele><time>2022-01-15T10:27:51Z</time><extensions><speed>0.099021</speed><course>282.477570</course><hAcc>1.900764</hAcc><vAcc>0.710440</vAcc></extensions></trkpt>
      <trkpt lon="-3.051412" lat="52.705669"><ele>396.816467</ele><time>2022-01-15T10:27:52Z</time><extensions><speed>0.116797</speed><course>300.494720</course><hAcc>1.906828</hAcc><vAcc>0.706910</vAcc></extensions></trkpt>
      <trkpt lon="-3.051414" lat="52.705670"><ele>396.796112</ele><time>2022-01-15T10:27:53Z</time><extensions><speed>0.142821</speed><course>319.593475</course><hAcc>1.906279</hAcc><vAcc>0.704213</vAcc></extensions></trkpt>
      <trkpt lon="-3.051415" lat="52.705671"><ele>396.782104</ele><time>2022-01-15T10:27:54Z</time><extensions><speed>0.160677</speed><course>333.404633</course><hAcc>1.913197</hAcc><vAcc>0.702366</vAcc></extensions></trkpt>
      <trkpt lon="-3.051416" lat="52.705672"><ele>396.767487</ele><time>2022-01-15T10:27:55Z</time><extensions><speed>0.177335</speed><course>341.963440</course><hAcc>1.912451</hAcc><vAcc>0.701161</vAcc></extensions></trkpt>
      <trkpt lon="-3.051417" lat="52.705674"><ele>396.753113</ele><time>2022-01-15T10:27:56Z</time><extensions><speed>0.177034</speed><course>341.580383</course><hAcc>1.907034</hAcc><vAcc>0.700276</vAcc></extensions></trkpt>
      <trkpt lon="-3.051418" lat="52.705675"><ele>396.740326</ele><time>2022-01-15T10:27:57Z</time><extensions><speed>0.183331</speed><course>333.662994</course><hAcc>1.881787</hAcc><vAcc>0.699303</vAcc></extensions></trkpt>
      <trkpt lon="-3.051420" lat="52.705677"><ele>396.728119</ele><time>2022-01-15T10:27:58Z</time><extensions><speed>0.182116</speed><course>322.328949</course><hAcc>1.861645</hAcc><vAcc>0.697981</vAcc></extensions></trkpt>
      <trkpt lon="-3.051422" lat="52.705678"><ele>396.708008</ele><time>2022-01-15T10:27:59Z</time><extensions><speed>0.189815</speed><course>310.415009</course><hAcc>1.852167</hAcc><vAcc>0.696182</vAcc></extensions></trkpt>
      <trkpt lon="-3.051424" lat="52.705679"><ele>396.690186</ele><time>2022-01-15T10:28:00Z</time><extensions><speed>0.217113</speed><course>301.419617</course><hAcc>1.843656</hAcc><vAcc>0.693847</vAcc></extensions></trkpt>
      <trkpt lon="-3.051427" lat="52.705680"><ele>396.673218</ele><time>2022-01-15T10:28:01Z</time><extensions><speed>0.237458</speed><course>296.439423</course><hAcc>1.850649</hAcc><vAcc>0.691032</vAcc></extensions></trkpt>
      <trkpt lon="-3.051430" lat="52.705681"><ele>396.657379</ele><time>2022-01-15T10:28:02Z</time><extensions><speed>0.191754</speed><course>294.969513</course><hAcc>1.877654</hAcc><vAcc>0.687859</vAcc></extensions></trkpt>
      <trkpt lon="-3.051432" lat="52.705681"><ele>396.642822</ele><time>2022-01-15T10:28:03Z</time><extensions><speed>0.172560</speed><course>294.764130</course><hAcc>1.865425</hAcc><vAcc>0.684429</vAcc></extensions></trkpt>
      <trkpt lon="-3.051434" lat="52.705682"><ele>396.633057</ele><time>2022-01-15T10:28:04Z</time><extensions><speed>0.139212</speed><course>290.224915</course><hAcc>1.854219</hAcc><vAcc>0.680856</vAcc></extensions></trkpt>
      <trkpt lon="-3.051436" lat="52.705682"><ele>396.624817</ele><time>2022-01-15T10:28:05Z</time><extensions><speed>0.094980</speed><course>274.153900</course><hAcc>1.866878</hAcc><vAcc>0.677262</vAcc></extensions></trkpt>
      <trkpt lon="-3.051437" lat="52.705682"><ele>396.615173</ele><time>2022-01-15T10:28:06Z</time><extensions><speed>0.074529</speed><course>239.579468</course><hAcc>1.881619</hAcc><vAcc>0.673726</vAcc></extensions></trkpt>
      <trkpt lon="-3.051438" lat="52.705681"><ele>396.606781</ele><time>2022-01-15T10:28:07Z</time><extensions><speed>0.092869</speed><course>210.293076</course><hAcc>1.877965</hAcc><vAcc>0.670330</vAcc></extensions></trkpt>
      <trkpt lon="-3.051439" lat="52.705681"><ele>396.613708</ele><time>2022-01-15T10:28:08Z</time><extensions><speed>0.107728</speed><course>200.790009</course><hAcc>1.875327</hAcc><vAcc>0.667129</vAcc></extensions></trkpt>
      <trkpt lon="-3.051439" lat="52.705680"><ele>396.630554</ele><time>2022-01-15T10:28:09Z</time><extensions><speed>0.100302</speed><course>200.825378</course><hAcc>1.874179</hAcc><vAcc>0.664207</vAcc></extensions></trkpt>
      <trkpt lon="-3.051440" lat="52.705679"><ele>396.650269</ele><time>2022-01-15T10:28:10Z</time><extensions><speed>0.085541</speed><course>211.551682</course><hAcc>1.863855</hAcc><vAcc>0.661510</vAcc></extensions></trkpt>
      <trkpt lon="-3.051441" lat="52.705679"><ele>396.671967</ele><time>2022-01-15T10:28:11Z</time><extensions><speed>0.075505</speed><course>235.447876</course><hAcc>1.852182</hAcc><vAcc>0.658972</vAcc></extensions></trkpt>
      <trkpt lon="-3.051442" lat="52.705678"><ele>396.701172</ele><time>2022-01-15T10:28:12Z</time><extensions><speed>0.084751</speed><course>259.244385</course><hAcc>1.839905</hAcc><vAcc>0.656481</vAcc></extensions></trkpt>
      <trkpt lon="-3.051443" lat="52.705678"><ele>396.742035</ele><time>2022-01-15T10:28:13Z</time><extensions><speed>0.100787</speed><course>272.398071</course><hAcc>1.833685</hAcc><vAcc>0.653737</vAcc></extensions></trkpt>
      <trkpt lon="-3.051445" lat="52.705678"><ele>396.790802</ele><time>2022-01-15T10:28:14Z</time><extensions><speed>0.106917</speed><course>276.268158</course><hAcc>1.837967</hAcc><vAcc>0.650559</vAcc></extensions></trkpt>
      <trkpt lon="-3.051446" lat="52.705678"><ele>396.831207</ele><time>2022-01-15T10:28:15Z</time><extensions><speed>0.085941</speed><course>274.241516</course><hAcc>1.863123</hAcc><vAcc>0.646732</vAcc></extensions></trkpt>
      <trkpt lon="-3.051447" lat="52.705678"><ele>396.870117</ele><time>2022-01-15T10:28:16Z</time><extensions><speed>0.067952</speed><course>268.841064</course><hAcc>1.869173</hAcc><vAcc>0.642059</vAcc></extensions></trkpt>
      <trkpt lon="-3.051448" lat="52.705678"><ele>396.906494</ele><time>2022-01-15T10:28:17Z</time><extensions><speed>0.049533</speed><course>256.921906</course><hAcc>1.849906</hAcc><vAcc>0.636384</vAcc></extensions></trkpt>
      <trkpt lon="-3.051448" lat="52.705678"><ele>396.936676</ele><time>2022-01-15T10:28:18Z</time><extensions><speed>0.017502</speed><course>189.211899</course><hAcc>1.861861</hAcc><vAcc>0.629599</vAcc></extensions></trkpt>
      <trkpt lon="-3.051448" lat="52.705678"><ele>396.960541</ele><time>2022-01-15T10:28:19Z</time><extensions><speed>0.049270</speed><course>123.407524</course><hAcc>1.890760</hAcc><vAcc>0.621627</vAcc></extensions></trkpt>
      <trkpt lon="-3.051447" lat="52.705677"><ele>396.979584</ele><time>2022-01-15T10:28:20Z</time><extensions><speed>0.085950</speed><course>127.812386</course><hAcc>1.916905</hAcc><vAcc>0.612407</vAcc></extensions></trkpt>
      <trkpt lon="-3.051446" lat="52.705677"><ele>396.996704</ele><time>2022-01-15T10:28:21Z</time><extensions><speed>0.112495</speed><course>134.851151</course><hAcc>1.941550</hAcc><vAcc>0.602012</vAcc></extensions></trkpt>
      <trkpt lon="-3.051445" lat="52.705676"><ele>397.009491</ele><time>2022-01-15T10:28:22Z</time><extensions><speed>0.141200</speed><course>140.611526</course><hAcc>1.947692</hAcc><vAcc>0.590668</vAcc></extensions></trkpt>
      <trkpt lon="-3.051444" lat="52.705675"><ele>397.014343</ele><time>2022-01-15T10:28:23Z</time><extensions><speed>0.154272</speed><course>146.158569</course><hAcc>1.958576</hAcc><vAcc>0.578873</vAcc></extensions></trkpt>
      <trkpt lon="-3.051442" lat="52.705674"><ele>397.011719</ele><time>2022-01-15T10:28:24Z</time><extensions><speed>0.159309</speed><course>151.071259</course><hAcc>1.975989</hAcc><vAcc>0.567432</vAcc></extensions></trkpt>
      <trkpt lon="-3.051441" lat="52.705672"><ele>396.996887</ele><time>2022-01-15T10:28:25Z</time><extensions><speed>0.169956</speed><course>155.458450</course><hAcc>1.986442</hAcc><vAcc>0.557285</vAcc></extensions></trkpt>
      <trkpt lon="-3.051440" lat="52.705671"><ele>396.971680</ele><time>2022-01-15T10:28:26Z</time><extensions><speed>0.185904</speed><course>159.781372</course><hAcc>1.998150</hAcc><vAcc>0.549399</vAcc></extensions></trkpt>
      <trkpt lon="-3.051440" lat="52.705669"><ele>396.943939</ele><time>2022-01-15T10:28:27Z</time><extensions><speed>0.174567</speed><course>165.105667</course><hAcc>2.030158</hAcc><vAcc>0.544732</vAcc></extensions></trkpt>
      <trkpt lon="-3.051439" lat="52.705667"><ele>396.916870</ele><time>2022-01-15T10:28:28Z</time><extensions><speed>0.197743</speed><course>170.281769</course><hAcc>2.036674</hAcc><vAcc>0.544255</vAcc></extensions></trkpt>
      <trkpt lon="-3.051439" lat="52.705665"><ele>396.886536</ele><time>2022-01-15T10:28:29Z</time><extensions><speed>0.235936</speed><course>174.011230</course><hAcc>2.030248</hAcc><vAcc>0.548829</vAcc></extensions></trkpt>
      <trkpt lon="-3.051438" lat="52.705663"><ele>396.845978</ele><time>2022-01-15T10:28:30Z</time><extensions><speed>0.246196</speed><course>176.522369</course><hAcc>2.030149</hAcc><vAcc>0.558850</vAcc></extensions></trkpt>
      <trkpt lon="-3.051438" lat="52.705661"><ele>396.798370</ele><time>2022-01-15T10:28:31Z</time><extensions><speed>0.255858</speed><course>180.787689</course><hAcc>2.007905</hAcc><vAcc>0.573912</vAcc></extensions></trkpt>
      <trkpt lon="-3.051439" lat="52.705658"><ele>396.750275</ele><time>2022-01-15T10:28:32Z</time><extensions><speed>0.272065</speed><course>189.706741</course><hAcc>1.960448</hAcc><vAcc>0.592735</vAcc></extensions></trkpt>
      <trkpt lon="-3.051440" lat="52.705656"><ele>396.695526</ele><time>2022-01-15T10:28:33Z</time><extensions><speed>0.302949</speed><course>199.728607</course><hAcc>1.900216</hAcc><vAcc>0.613734</vAcc></extensions></trkpt>
      <trkpt lon="-3.051442" lat="52.705653"><ele>396.650757</ele><time>2022-01-15T10:28:34Z</time><extensions><speed>0.324669</speed><course>207.052780</course><hAcc>1.857571</hAcc><vAcc>0.635367</vAcc></extensions></trkpt>
      <trkpt lon="-3.051444" lat="52.705651"><ele>396.612885</ele><time>2022-01-15T10:28:35Z</time><extensions><speed>0.268432</speed><course>214.050201</course><hAcc>1.872555</hAcc><vAcc>0.656470</vAcc></extensions></trkpt>
      <trkpt lon="-3.051446" lat="52.705649"><ele>396.579163</ele><time>2022-01-15T10:28:36Z</time><extensions><speed>0.187570</speed><course>226.847946</course><hAcc>1.898534</hAcc><vAcc>0.676188</vAcc></extensions></trkpt>
      <trkpt lon="-3.051449" lat="52.705648"><ele>396.545471</ele><time>2022-01-15T10:28:37Z</time><extensions><speed>0.356909</speed><course>239.804871</course><hAcc>1.824224</hAcc><vAcc>0.693964</vAcc></extensions></trkpt>
      <trkpt lon="-3.051454" lat="52.705646"><ele>396.526917</ele><time>2022-01-15T10:28:38Z</time><extensions><speed>0.384699</speed><course>237.066711</course><hAcc>1.786559</hAcc><vAcc>0.709460</vAcc></extensions></trkpt>
      <trkpt lon="-3.051458" lat="52.705645"><ele>396.516876</ele><time>2022-01-15T10:28:39Z</time><extensions><speed>0.332742</speed><course>233.878967</course><hAcc>1.808198</hAcc><vAcc>0.722536</vAcc></extensions></trkpt>
      <trkpt lon="-3.051463" lat="52.705643"><ele>396.504364</ele><time>2022-01-15T10:28:40Z</time><extensions><speed>0.381047</speed><course>243.415665</course><hAcc>1.821302</hAcc><vAcc>0.733068</vAcc></extensions></trkpt>
      <trkpt lon="-3.051468" lat="52.705641"><ele>396.499664</ele><time>2022-01-15T10:28:41Z</time><extensions><speed>0.347586</speed><course>241.571609</course><hAcc>1.835578</hAcc><vAcc>0.741217</vAcc></extensions></trkpt>
      <trkpt lon="-3.051471" lat="52.705640"><ele>396.504150</ele><time>2022-01-15T10:28:42Z</time><extensions><speed>0.156444</speed><course>222.920059</course><hAcc>1.840264</hAcc><vAcc>0.747273</vAcc></extensions></trkpt>
      <trkpt lon="-3.051471" lat="52.705639"><ele>396.520325</ele><time>2022-01-15T10:28:43Z</time><extensions><speed>0.065615</speed><course>158.450974</course><hAcc>1.835539</hAcc><vAcc>0.751553</vAcc></extensions></trkpt>
      <trkpt lon="-3.051470" lat="52.705639"><ele>396.549896</ele><time>2022-01-15T10:28:44Z</time><extensions><speed>0.115317</speed><course>101.985329</course><hAcc>1.831676</hAcc><vAcc>0.754179</vAcc></extensions></trkpt>
      <trkpt lon="-3.051468" lat="52.705639"><ele>396.574646</ele><time>2022-01-15T10:28:45Z</time><extensions><speed>0.163092</speed><course>97.683632</course><hAcc>1.826850</hAcc><vAcc>0.755181</vAcc></extensions></trkpt>
      <trkpt lon="-3.051466" lat="52.705638"><ele>396.601654</ele><time>2022-01-15T10:28:46Z</time><extensions><speed>0.173466</speed><course>108.593666</course><hAcc>1.826779</hAcc><vAcc>0.754638</vAcc></extensions></trkpt>
      <trkpt lon="-3.051464" lat="52.705637"><ele>396.639160</ele><time>2022-01-15T10:28:47Z</time><extensions><speed>0.171196</speed><course>132.417053</course><hAcc>1.832906</hAcc><vAcc>0.752750</vAcc></extensions></trkpt>
      <trkpt lon="-3.051462" lat="52.705636"><ele>396.687439</ele><time>2022-01-15T10:28:48Z</time><extensions><speed>0.201184</speed><course>158.184387</course><hAcc>1.839401</hAcc><vAcc>0.749696</vAcc></extensions></trkpt>
      <trkpt lon="-3.051462" lat="52.705634"><ele>396.722260</ele><time>2022-01-15T10:28:49Z</time><extensions><speed>0.253439</speed><course>173.025558</course><hAcc>1.848281</hAcc><vAcc>0.745592</vAcc></extensions></trkpt>
      <trkpt lon="-3.051461" lat="52.705631"><ele>396.780884</ele><time>2022-01-15T10:28:50Z</time><extensions><speed>0.318771</speed><course>179.690277</course><hAcc>1.856025</hAcc><vAcc>0.740675</vAcc></extensions></trkpt>
      <trkpt lon="-3.051461" lat="52.705628"><ele>396.838440</ele><time>2022-01-15T10:28:51Z</time><extensions><speed>0.394579</speed><course>183.776993</course><hAcc>1.860479</hAcc><vAcc>0.735092</vAcc></extensions></trkpt>
      <trkpt lon="-3.051462" lat="52.705624"><ele>396.910889</ele><time>2022-01-15T10:28:52Z</time><extensions><speed>0.462667</speed><course>187.865646</course><hAcc>1.865227</hAcc><vAcc>0.729088</vAcc></extensions></trkpt>
      <trkpt lon="-3.051464" lat="52.705620"><ele>396.995270</ele><time>2022-01-15T10:28:53Z</time><extensions><speed>0.520735</speed><course>192.547318</course><hAcc>1.871552</hAcc><vAcc>0.722847</vAcc></extensions></trkpt>
      <trkpt lon="-3.051466" lat="52.705615"><ele>397.072693</ele><time>2022-01-15T10:28:54Z</time><extensions><speed>0.573094</speed><course>197.891815</course><hAcc>1.879823</hAcc><vAcc>0.716584</vAcc></extensions></trkpt>
      <trkpt lon="-3.051469" lat="52.705610"><ele>397.178040</ele><time>2022-01-15T10:28:55Z</time><extensions><speed>0.627874</speed><course>202.712418</course><hAcc>1.888810</hAcc><vAcc>0.710518</vAcc></extensions></trkpt>
      <trkpt lon="-3.051473" lat="52.705605"><ele>397.277954</ele><time>2022-01-15T10:28:56Z</time><extensions><speed>0.691405</speed><course>205.458664</course><hAcc>1.896331</hAcc><vAcc>0.705007</vAcc></extensions></trkpt>
      <trkpt lon="-3.051477" lat="52.705599"><ele>397.406158</ele><time>2022-01-15T10:28:57Z</time><extensions><speed>0.754121</speed><course>206.564850</course><hAcc>1.899540</hAcc><vAcc>0.700395</vAcc></extensions></trkpt>
      <trkpt lon="-3.051482" lat="52.705593"><ele>397.550049</ele><time>2022-01-15T10:28:58Z</time><extensions><speed>0.851130</speed><course>207.825424</course><hAcc>1.894337</hAcc><vAcc>0.696993</vAcc></extensions></trkpt>
      <trkpt lon="-3.051489" lat="52.705585"><ele>397.686340</ele><time>2022-01-15T10:28:59Z</time><extensions><speed>1.017042</speed><course>209.528809</course><hAcc>1.886014</hAcc><vAcc>0.694988</vAcc></extensions></trkpt>
      <trkpt lon="-3.051496" lat="52.705577"><ele>397.816589</ele><time>2022-01-15T10:29:00Z</time><extensions><speed>1.105300</speed><course>208.368240</course><hAcc>1.881782</hAcc><vAcc>0.694466</vAcc></extensions></trkpt>
      <trkpt lon="-3.051503" lat="52.705568"><ele>397.963623</ele><time>2022-01-15T10:29:01Z</time><extensions><speed>1.072784</speed><course>205.960007</course><hAcc>1.869544</hAcc><vAcc>0.695436</vAcc></extensions></trkpt>
      <trkpt lon="-3.051510" lat="52.705560"><ele>398.134796</ele><time>2022-01-15T10:29:02Z</time><extensions><speed>0.976379</speed><course>202.157410</course><hAcc>1.858100</hAcc><vAcc>0.697812</vAcc></extensions></trkpt>
      <trkpt lon="-3.051514" lat="52.705552"><ele>398.293610</ele><time>2022-01-15T10:29:03Z</time><extensions><speed>0.829214</speed><course>193.391830</course><hAcc>1.849431</hAcc><vAcc>0.701434</vAcc></extensions></trkpt>
      <trkpt lon="-3.051514" lat="52.705546"><ele>398.433777</ele><time>2022-01-15T10:29:04Z</time><extensions><speed>0.612364</speed><course>173.164658</course><hAcc>1.840457</hAcc><vAcc>0.706124</vAcc></extensions></trkpt>
      <trkpt lon="-3.051511" lat="52.705541"><ele>398.575867</ele><time>2022-01-15T10:29:05Z</time><extensions><speed>0.499565</speed><course>138.146820</course><hAcc>1.833990</hAcc><vAcc>0.711669</vAcc></extensions></trkpt>
      <trkpt lon="-3.051505" lat="52.705539"><ele>398.707550</ele><time>2022-01-15T10:29:06Z</time><extensions><speed>0.491080</speed><course>106.775383</course><hAcc>1.838242</hAcc><vAcc>0.717895</vAcc></extensions></trkpt>
      <trkpt lon="-3.051497" lat="52.705537"><ele>398.835632</ele><time>2022-01-15T10:29:07Z</time><extensions><speed>0.684277</speed><course>105.224838</course><hAcc>1.811353</hAcc><vAcc>0.724675</vAcc></extensions></trkpt>
      <trkpt lon="-3.051487" lat="52.705535"><ele>398.946716</ele><time>2022-01-15T10:29:08Z</time><extensions><speed>0.774598</speed><course>117.738632</course><hAcc>1.811060</hAcc><vAcc>0.731642</vAcc></extensions></trkpt>
      <trkpt lon="-3.051477" lat="52.705531"><ele>399.027924</ele><time>2022-01-15T10:29:09Z</time><extensions><speed>0.846772</speed><course>130.643021</course><hAcc>1.806336</hAcc><vAcc>0.738599</vAcc></extensions></trkpt>
      <trkpt lon="-3.051469" lat="52.705525"><ele>399.090973</ele><time>2022-01-15T10:29:10Z</time><extensions><speed>0.870416</speed><course>142.418915</course><hAcc>1.811865</hAcc><vAcc>0.745370</vAcc></extensions></trkpt>
      <trkpt lon="-3.051462" lat="52.705519"><ele>399.145599</ele><time>2022-01-15T10:29:11Z</time><extensions><speed>0.880818</speed><course>152.948318</course><hAcc>1.818500</hAcc><vAcc>0.751790</vAcc></extensions></trkpt>
      <trkpt lon="-3.051457" lat="52.705512"><ele>399.181183</ele><time>2022-01-15T10:29:12Z</time><extensions><speed>0.811023</speed><course>161.564972</course><hAcc>1.825336</hAcc><vAcc>0.757738</vAcc></extensions></trkpt>
      <trkpt lon="-3.051454" lat="52.705505"><ele>399.206604</ele><time>2022-01-15T10:29:13Z</time><extensions><speed>0.662777</speed><course>170.858521</course><hAcc>1.825714</hAcc><vAcc>0.763237</vAcc></extensions></trkpt>
      <trkpt lon="-3.051454" lat="52.705500"><ele>399.229523</ele><time>2022-01-15T10:29:14Z</time><extensions><speed>0.524649</speed><course>188.438187</course><hAcc>1.827698</hAcc><vAcc>0.768349</vAcc></extensions></trkpt>
      <trkpt lon="-3.051457" lat="52.705495"><ele>399.224915</ele><time>2022-01-15T10:29:15Z</time><extensions><speed>0.598696</speed><course>208.690308</course><hAcc>1.817639</hAcc><vAcc>0.773091</vAcc></extensions></trkpt>
      <trkpt lon="-3.051462" lat="52.705491"><ele>399.220673</ele><time>2022-01-15T10:29:16Z</time><extensions><speed>0.577973</speed><course>222.905090</course><hAcc>1.820560</hAcc><vAcc>0.777439</vAcc></extensions></trkpt>
      <trkpt lon="-3.051468" lat="52.705487"><ele>399.201477</ele><time>2022-01-15T10:29:17Z</time><extensions><speed>0.611247</speed><course>234.684937</course><hAcc>1.824227</hAcc><vAcc>0.781371</vAcc></extensions></trkpt>
      <trkpt lon="-3.051476" lat="52.705484"><ele>399.195038</ele><time>2022-01-15T10:29:18Z</time><extensions><speed>0.608804</speed><course>242.576706</course><hAcc>1.820112</hAcc><vAcc>0.784880</vAcc></extensions></trkpt>
      <trkpt lon="-3.051484" lat="52.705482"><ele>399.180786</ele><time>2022-01-15T10:29:19Z</time><extensions><speed>0.543641</speed><course>244.697769</course><hAcc>1.814715</hAcc><vAcc>0.787955</vAcc></extensions></trkpt>
      <trkpt lon="-3.051491" lat="52.705480"><ele>399.159058</ele><time>2022-01-15T10:29:20Z</time><extensions><speed>0.497633</speed><course>243.592026</course><hAcc>1.807028</hAcc><vAcc>0.790585</vAcc></extensions></trkpt>
      <trkpt lon="-3.051497" lat="52.705478"><ele>399.140259</ele><time>2022-01-15T10:29:21Z</time><extensions><speed>0.440542</speed><course>243.459946</course><hAcc>1.806822</hAcc><vAcc>0.792798</vAcc></extensions></trkpt>
      <trkpt lon="-3.051503" lat="52.705477"><ele>399.107208</ele><time>2022-01-15T10:29:22Z</time><extensions><speed>0.525094</speed><course>250.213242</course><hAcc>1.802354</hAcc><vAcc>0.794630</vAcc></extensions></trkpt>
      <trkpt lon="-3.051513" lat="52.705475"><ele>399.071259</ele><time>2022-01-15T10:29:23Z</time><extensions><speed>0.756889</speed><course>257.699921</course><hAcc>1.796742</hAcc><vAcc>0.796119</vAcc></extensions></trkpt>
      <trkpt lon="-3.051524" lat="52.705474"><ele>399.029602</ele><time>2022-01-15T10:29:24Z</time><extensions><speed>0.839141</speed><course>260.355713</course><hAcc>1.800323</hAcc><vAcc>0.797313</vAcc></extensions></trkpt>
      <trkpt lon="-3.051537" lat="52.705472"><ele>398.985626</ele><time>2022-01-15T10:29:24Z</time><extensions><speed>0.876691</speed><course>261.726654</course><hAcc>1.797672</hAcc><vAcc>0.798306</vAcc></extensions></trkpt>
      <trkpt lon="-3.051550" lat="52.705471"><ele>398.950439</ele><time>2022-01-15T10:29:25Z</time><extensions><speed>0.890976</speed><course>260.386749</course><hAcc>1.792717</hAcc><vAcc>0.799110</vAcc></extensions></trkpt>
      <trkpt lon="-3.051563" lat="52.705470"><ele>398.883636</ele><time>2022-01-15T10:29:26Z</time><extensions><speed>0.901263</speed><course>258.812347</course><hAcc>1.789766</hAcc><vAcc>0.799731</vAcc></extensions></trkpt>
      <trkpt lon="-3.051576" lat="52.705468"><ele>398.819122</ele><time>2022-01-15T10:29:27Z</time><extensions><speed>0.898198</speed><course>258.333649</course><hAcc>1.784543</hAcc><vAcc>0.800177</vAcc></extensions></trkpt>
      <trkpt lon="-3.051589" lat="52.705466"><ele>398.708710</ele><time>2022-01-15T10:29:28Z</time><extensions><speed>0.820757</speed><course>257.892120</course><hAcc>1.773209</hAcc><vAcc>0.800409</vAcc></extensions></trkpt>
      <trkpt lon="-3.051600" lat="52.705465"><ele>398.634857</ele><time>2022-01-15T10:29:29Z</time><extensions><speed>0.741057</speed><course>258.061829</course><hAcc>1.754415</hAcc><vAcc>0.800441</vAcc></extensions></trkpt>
      <trkpt lon="-3.051610" lat="52.705464"><ele>398.550842</ele><time>2022-01-15T10:29:30Z</time><extensions><speed>0.653600</speed><course>258.306274</course><hAcc>1.724902</hAcc><vAcc>0.800236</vAcc></extensions></trkpt>
      <trkpt lon="-3.051618" lat="52.705463"><ele>398.466522</ele><time>2022-01-15T10:29:31Z</time><extensions><speed>0.488934</speed><course>257.566681</course><hAcc>1.718651</hAcc><vAcc>0.799747</vAcc></extensions></trkpt>
      <trkpt lon="-3.051624" lat="52.705462"><ele>398.376282</ele><time>2022-01-15T10:29:32Z</time><extensions><speed>0.245954</speed><course>254.589050</course><hAcc>1.751513</hAcc><vAcc>0.798934</vAcc></extensions></trkpt>
      <trkpt lon="-3.051627" lat="52.705461"><ele>398.271973</ele><time>2022-01-15T10:29:33Z</time><extensions><speed>0.242940</speed><course>252.772522</course><hAcc>1.740395</hAcc><vAcc>0.797741</vAcc></extensions></trkpt>
      <trkpt lon="-3.051631" lat="52.705460"><ele>398.151398</ele><time>2022-01-15T10:29:35Z</time><extensions><speed>0.296053</speed><course>252.271805</course><hAcc>1.731301</hAcc><vAcc>0.796156</vAcc></extensions></trkpt>
      <trkpt lon="-3.051636" lat="52.705459"><ele>398.061676</ele><time>2022-01-15T10:29:36Z</time><extensions><speed>0.395099</speed><course>252.935104</course><hAcc>1.734974</hAcc><vAcc>0.794135</vAcc></extensions></trkpt>
      <trkpt lon="-3.051643" lat="52.705458"><ele>397.951050</ele><time>2022-01-15T10:29:36Z</time><extensions><speed>0.586287</speed><course>254.443665</course><hAcc>1.741425</hAcc><vAcc>0.791711</vAcc></extensions></trkpt>
      <trkpt lon="-3.051652" lat="52.705456"><ele>397.827728</ele><time>2022-01-15T10:29:37Z</time><extensions><speed>0.753116</speed><course>248.349792</course><hAcc>1.759539</hAcc><vAcc>0.788901</vAcc></extensions></trkpt>
      <trkpt lon="-3.051663" lat="52.705454"><ele>397.735077</ele><time>2022-01-15T10:29:38Z</time><extensions><speed>0.783374</speed><course>245.400192</course><hAcc>1.791825</hAcc><vAcc>0.785781</vAcc></extensions></trkpt>
      <trkpt lon="-3.051675" lat="52.705450"><ele>397.649017</ele><time>2022-01-15T10:29:39Z</time><extensions><speed>1.039743</speed><course>244.608353</course><hAcc>1.805370</hAcc><vAcc>0.782536</vAcc></extensions></trkpt>
      <trkpt lon="-3.051690" lat="52.705446"><ele>397.559906</ele><time>2022-01-15T10:29:40Z</time><extensions><speed>1.199171</speed><course>244.552383</course><hAcc>1.824476</hAcc><vAcc>0.779208</vAcc></extensions></trkpt>
      <trkpt lon="-3.051707" lat="52.705441"><ele>397.471161</ele><time>2022-01-15T10:29:41Z</time><extensions><speed>1.303303</speed><course>244.629639</course><hAcc>1.838173</hAcc><vAcc>0.775888</vAcc></extensions></trkpt>
      <trkpt lon="-3.051725" lat="52.705436"><ele>397.378967</ele><time>2022-01-15T10:29:42Z</time><extensions><speed>1.354100</speed><course>244.288452</course><hAcc>1.846061</hAcc><vAcc>0.772779</vAcc></extensions></trkpt>
      <trkpt lon="-3.051743" lat="52.705430"><ele>397.287384</ele><time>2022-01-15T10:29:43Z</time><extensions><speed>1.370646</speed><course>243.809143</course><hAcc>1.849768</hAcc><vAcc>0.769953</vAcc></extensions></trkpt>
      <trkpt lon="-3.051760" lat="52.705425"><ele>397.188354</ele><time>2022-01-15T10:29:44Z</time><extensions><speed>1.297660</speed><course>242.544495</course><hAcc>1.851711</hAcc><vAcc>0.767559</vAcc></extensions></trkpt>
      <trkpt lon="-3.051776" lat="52.705419"><ele>397.110016</ele><time>2022-01-15T10:29:45Z</time><extensions><speed>1.201582</speed><course>239.846222</course><hAcc>1.849469</hAcc><vAcc>0.765564</vAcc></extensions></trkpt>
      <trkpt lon="-3.051791" lat="52.705414"><ele>397.014954</ele><time>2022-01-15T10:29:47Z</time><extensions><speed>1.040718</speed><course>236.916321</course><hAcc>1.844579</hAcc><vAcc>0.764059</vAcc></extensions></trkpt>
      <trkpt lon="-3.051802" lat="52.705409"><ele>396.927460</ele><time>2022-01-15T10:29:47Z</time><extensions><speed>0.885474</speed><course>233.864670</course><hAcc>1.836571</hAcc><vAcc>0.763014</vAcc></extensions></trkpt>
      <trkpt lon="-3.051812" lat="52.705405"><ele>396.827087</ele><time>2022-01-15T10:29:48Z</time><extensions><speed>0.739009</speed><course>231.169174</course><hAcc>1.827689</hAcc><vAcc>0.762327</vAcc></extensions></trkpt>
      <trkpt lon="-3.051819" lat="52.705401"><ele>396.720093</ele><time>2022-01-15T10:29:49Z</time><extensions><speed>0.531975</speed><course>224.828552</course><hAcc>1.830768</hAcc><vAcc>0.762043</vAcc></extensions></trkpt>
      <trkpt lon="-3.051823" lat="52.705398"><ele>396.616364</ele><time>2022-01-15T10:29:50Z</time><extensions><speed>0.302915</speed><course>201.795212</course><hAcc>1.832192</hAcc><vAcc>0.761910</vAcc></extensions></trkpt>
      <trkpt lon="-3.051823" lat="52.705395"><ele>396.509705</ele><time>2022-01-15T10:29:52Z</time><extensions><speed>0.296891</speed><course>182.707565</course><hAcc>1.821008</hAcc><vAcc>0.761856</vAcc></extensions></trkpt>
      <trkpt lon="-3.051824" lat="52.705393"><ele>396.403656</ele><time>2022-01-15T10:29:53Z</time><extensions><speed>0.337327</speed><course>182.306686</course><hAcc>1.818653</hAcc><vAcc>0.761800</vAcc></extensions></trkpt>
      <trkpt lon="-3.051824" lat="52.705389"><ele>396.287933</ele><time>2022-01-15T10:29:54Z</time><extensions><speed>0.417962</speed><course>191.144516</course><hAcc>1.814715</hAcc><vAcc>0.761604</vAcc></extensions></trkpt>
      <trkpt lon="-3.051827" lat="52.705385"><ele>396.155701</ele><time>2022-01-15T10:29:55Z</time><extensions><speed>0.534382</speed><course>202.508301</course><hAcc>1.812684</hAcc><vAcc>0.761038</vAcc></extensions></trkpt>
      <trkpt lon="-3.051831" lat="52.705380"><ele>396.010132</ele><time>2022-01-15T10:29:56Z</time><extensions><speed>0.775905</speed><course>212.341797</course><hAcc>1.809676</hAcc><vAcc>0.759997</vAcc></extensions></trkpt>
      <trkpt lon="-3.051838" lat="52.705374"><ele>395.887543</ele><time>2022-01-15T10:29:57Z</time><extensions><speed>0.901138</speed><course>216.931168</course><hAcc>1.819894</hAcc><vAcc>0.758237</vAcc></extensions></trkpt>
      <trkpt lon="-3.051847" lat="52.705367"><ele>395.775574</ele><time>2022-01-15T10:29:58Z</time><extensions><speed>0.969613</speed><course>219.665207</course><hAcc>1.821084</hAcc><vAcc>0.755631</vAcc></extensions></trkpt>
      <trkpt lon="-3.051856" lat="52.705361"><ele>395.669067</ele><time>2022-01-15T10:29:59Z</time><extensions><speed>0.976722</speed><course>222.026978</course><hAcc>1.818625</hAcc><vAcc>0.752425</vAcc></extensions></trkpt>
      <trkpt lon="-3.051866" lat="52.705354"><ele>395.601074</ele><time>2022-01-15T10:30:00Z</time><extensions><speed>0.967585</speed><course>222.340698</course><hAcc>1.822271</hAcc><vAcc>0.748287</vAcc></extensions></trkpt>
      <trkpt lon="-3.051875" lat="52.705348"><ele>395.534515</ele><time>2022-01-15T10:30:01Z</time><extensions><speed>0.975679</speed><course>222.471237</course><hAcc>1.820450</hAcc><vAcc>0.743279</vAcc></extensions></trkpt>
      <trkpt lon="-3.051885" lat="52.705341"><ele>395.477753</ele><time>2022-01-15T10:30:02Z</time><extensions><speed>0.980391</speed><course>221.396545</course><hAcc>1.828047</hAcc><vAcc>0.737437</vAcc></extensions></trkpt>
      <trkpt lon="-3.051895" lat="52.705334"><ele>395.427368</ele><time>2022-01-15T10:30:03Z</time><extensions><speed>1.020844</speed><course>220.147736</course><hAcc>1.848999</hAcc><vAcc>0.730904</vAcc></extensions></trkpt>
      <trkpt lon="-3.051904" lat="52.705327"><ele>395.386414</ele><time>2022-01-15T10:30:04Z</time><extensions><speed>1.031667</speed><course>217.451859</course><hAcc>1.862383</hAcc><vAcc>0.723877</vAcc></extensions></trkpt>
      <trkpt lon="-3.051913" lat="52.705320"><ele>395.364899</ele><time>2022-01-15T10:30:05Z</time><extensions><speed>1.005845</speed><course>212.968506</course><hAcc>1.867592</hAcc><vAcc>0.716515</vAcc></extensions></trkpt>
      <trkpt lon="-3.051920" lat="52.705312"><ele>395.352875</ele><time>2022-01-15T10:30:06Z</time><extensions><speed>0.928105</speed><course>208.328140</course><hAcc>1.876992</hAcc><vAcc>0.709111</vAcc></extensions></trkpt>
      <trkpt lon="-3.051926" lat="52.705305"><ele>395.341766</ele><time>2022-01-15T10:30:07Z</time><extensions><speed>0.863118</speed><course>205.057343</course><hAcc>1.886283</hAcc><vAcc>0.701950</vAcc></extensions></trkpt>
      <trkpt lon="-3.051932" lat="52.705298"><ele>395.338074</ele><time>2022-01-15T10:30:08Z</time><extensions><speed>0.840524</speed><course>205.865692</course><hAcc>1.905127</hAcc><vAcc>0.695290</vAcc></extensions></trkpt>
      <trkpt lon="-3.051938" lat="52.705291"><ele>395.318970</ele><time>2022-01-15T10:30:09Z</time><extensions><speed>0.876928</speed><course>209.593048</course><hAcc>1.938356</hAcc><vAcc>0.689377</vAcc></extensions></trkpt>
      <trkpt lon="-3.051945" lat="52.705285"><ele>395.302795</ele><time>2022-01-15T10:30:10Z</time><extensions><speed>0.863063</speed><course>214.988434</course><hAcc>1.949805</hAcc><vAcc>0.684299</vAcc></extensions></trkpt>
      <trkpt lon="-3.051952" lat="52.705279"><ele>395.269287</ele><time>2022-01-15T10:30:11Z</time><extensions><speed>0.818428</speed><course>221.800232</course><hAcc>1.970552</hAcc><vAcc>0.680076</vAcc></extensions></trkpt>
      <trkpt lon="-3.051961" lat="52.705274"><ele>395.224060</ele><time>2022-01-15T10:30:12Z</time><extensions><speed>0.768360</speed><course>229.272095</course><hAcc>1.995073</hAcc><vAcc>0.676676</vAcc></extensions></trkpt>
      <trkpt lon="-3.051970" lat="52.705270"><ele>395.171478</ele><time>2022-01-15T10:30:13Z</time><extensions><speed>0.704150</speed><course>243.298325</course><hAcc>1.984581</hAcc><vAcc>0.673860</vAcc></extensions></trkpt>
      <trkpt lon="-3.051979" lat="52.705268"><ele>395.095245</ele><time>2022-01-15T10:30:14Z</time><extensions><speed>0.747371</speed><course>249.574219</course><hAcc>1.981887</hAcc><vAcc>0.671381</vAcc></extensions></trkpt>
      <trkpt lon="-3.051990" lat="52.705265"><ele>395.001434</ele><time>2022-01-15T10:30:15Z</time><extensions><speed>0.821923</speed><course>252.193588</course><hAcc>2.003103</hAcc><vAcc>0.669025</vAcc></extensions></trkpt>
      <trkpt lon="-3.052002" lat="52.705263"><ele>394.889069</ele><time>2022-01-15T10:30:16Z</time><extensions><speed>0.889713</speed><course>251.441467</course><hAcc>2.032178</hAcc><vAcc>0.666794</vAcc></extensions></trkpt>
      <trkpt lon="-3.052015" lat="52.705260"><ele>394.766846</ele><time>2022-01-15T10:30:17Z</time><extensions><speed>0.931220</speed><course>248.510498</course><hAcc>2.048020</hAcc><vAcc>0.664813</vAcc></extensions></trkpt>
      <trkpt lon="-3.052028" lat="52.705257"><ele>394.631317</ele><time>2022-01-15T10:30:18Z</time><extensions><speed>0.960737</speed><course>245.660324</course><hAcc>2.047679</hAcc><vAcc>0.663401</vAcc></extensions></trkpt>
      <trkpt lon="-3.052041" lat="52.705253"><ele>394.481384</ele><time>2022-01-15T10:30:19Z</time><extensions><speed>0.988175</speed><course>244.068008</course><hAcc>2.044590</hAcc><vAcc>0.662815</vAcc></extensions></trkpt>
      <trkpt lon="-3.052055" lat="52.705249"><ele>394.336456</ele><time>2022-01-15T10:30:20Z</time><extensions><speed>1.040378</speed><course>245.593567</course><hAcc>2.021926</hAcc><vAcc>0.663286</vAcc></extensions></trkpt>
      <trkpt lon="-3.052069" lat="52.705246"><ele>394.185822</ele><time>2022-01-15T10:30:21Z</time><extensions><speed>1.051449</speed><course>250.709473</course><hAcc>1.999060</hAcc><vAcc>0.664910</vAcc></extensions></trkpt>
      <trkpt lon="-3.052084" lat="52.705243"><ele>394.005493</ele><time>2022-01-15T10:30:22Z</time><extensions><speed>1.072194</speed><course>254.532623</course><hAcc>1.988091</hAcc><vAcc>0.667536</vAcc></extensions></trkpt>
      <trkpt lon="-3.052100" lat="52.705240"><ele>393.820740</ele><time>2022-01-15T10:30:23Z</time><extensions><speed>1.082001</speed><course>254.940552</course><hAcc>1.977801</hAcc><vAcc>0.670871</vAcc></extensions></trkpt>
      <trkpt lon="-3.052115" lat="52.705238"><ele>393.631378</ele><time>2022-01-15T10:30:24Z</time><extensions><speed>1.058375</speed><course>254.827057</course><hAcc>1.949953</hAcc><vAcc>0.674602</vAcc></extensions></trkpt>
      <trkpt lon="-3.052129" lat="52.705235"><ele>393.442230</ele><time>2022-01-15T10:30:25Z</time><extensions><speed>0.991486</speed><course>253.749680</course><hAcc>1.914331</hAcc><vAcc>0.678429</vAcc></extensions></trkpt>
      <trkpt lon="-3.052143" lat="52.705233"><ele>393.255463</ele><time>2022-01-15T10:30:26Z</time><extensions><speed>0.910131</speed><course>253.733780</course><hAcc>1.889157</hAcc><vAcc>0.682207</vAcc></extensions></trkpt>
      <trkpt lon="-3.052156" lat="52.705231"><ele>393.057953</ele><time>2022-01-15T10:30:27Z</time><extensions><speed>0.874587</speed><course>254.510880</course><hAcc>1.886205</hAcc><vAcc>0.685672</vAcc></extensions></trkpt>
      <trkpt lon="-3.052168" lat="52.705229"><ele>392.875671</ele><time>2022-01-15T10:30:28Z</time><extensions><speed>0.823820</speed><course>255.158554</course><hAcc>1.900540</hAcc><vAcc>0.688699</vAcc></extensions></trkpt>
      <trkpt lon="-3.052179" lat="52.705227"><ele>392.694061</ele><time>2022-01-15T10:30:29Z</time><extensions><speed>0.721458</speed><course>253.256531</course><hAcc>1.880520</hAcc><vAcc>0.691090</vAcc></extensions></trkpt>
      <trkpt lon="-3.052188" lat="52.705225"><ele>392.518555</ele><time>2022-01-15T10:30:30Z</time><extensions><speed>0.570257</speed><course>249.197479</course><hAcc>1.873818</hAcc><vAcc>0.692861</vAcc></extensions></trkpt>
      <trkpt lon="-3.052194" lat="52.705223"><ele>392.357056</ele><time>2022-01-15T10:30:31Z</time><extensions><speed>0.339700</speed><course>238.817917</course><hAcc>1.896322</hAcc><vAcc>0.694100</vAcc></extensions></trkpt>
      <trkpt lon="-3.052198" lat="52.705221"><ele>392.211182</ele><time>2022-01-15T10:30:32Z</time><extensions><speed>0.341651</speed><course>226.913193</course><hAcc>1.901705</hAcc><vAcc>0.694920</vAcc></extensions></trkpt>
      <trkpt lon="-3.052202" lat="52.705219"><ele>392.078247</ele><time>2022-01-15T10:30:33Z</time><extensions><speed>0.491477</speed><course>223.553238</course><hAcc>1.897210</hAcc><vAcc>0.695480</vAcc></extensions></trkpt>
      <trkpt lon="-3.052208" lat="52.705215"><ele>391.961304</ele><time>2022-01-15T10:30:34Z</time><extensions><speed>0.599947</speed><course>220.904053</course><hAcc>1.891471</hAcc><vAcc>0.696085</vAcc></extensions></trkpt>
      <trkpt lon="-3.052214" lat="52.705211"><ele>391.858795</ele><time>2022-01-15T10:30:35Z</time><extensions><speed>0.641311</speed><course>221.326920</course><hAcc>1.885725</hAcc><vAcc>0.696901</vAcc></extensions></trkpt>
      <trkpt lon="-3.052220" lat="52.705206"><ele>391.773193</ele><time>2022-01-15T10:30:36Z</time><extensions><speed>0.601633</speed><course>219.658813</course><hAcc>1.886817</hAcc><vAcc>0.698005</vAcc></extensions></trkpt>
      <trkpt lon="-3.052225" lat="52.705202"><ele>391.707855</ele><time>2022-01-15T10:30:37Z</time><extensions><speed>0.492964</speed><course>213.758270</course><hAcc>1.892334</hAcc><vAcc>0.699371</vAcc></extensions></trkpt>
      <trkpt lon="-3.052228" lat="52.705199"><ele>391.650940</ele><time>2022-01-15T10:30:38Z</time><extensions><speed>0.342443</speed><course>198.504654</course><hAcc>1.888344</hAcc><vAcc>0.700757</vAcc></extensions></trkpt>
      <trkpt lon="-3.052228" lat="52.705196"><ele>391.602661</ele><time>2022-01-15T10:30:39Z</time><extensions><speed>0.295716</speed><course>183.363678</course><hAcc>1.884059</hAcc><vAcc>0.702068</vAcc></extensions></trkpt>
      <trkpt lon="-3.052228" lat="52.705194"><ele>391.563904</ele><time>2022-01-15T10:30:40Z</time><extensions><speed>0.255946</speed><course>174.875946</course><hAcc>1.896162</hAcc><vAcc>0.703161</vAcc></extensions></trkpt>
      <trkpt lon="-3.052228" lat="52.705191"><ele>391.526611</ele><time>2022-01-15T10:30:41Z</time><extensions><speed>0.288893</speed><course>173.915390</course><hAcc>1.877029</hAcc><vAcc>0.703887</vAcc></extensions></trkpt>
      <trkpt lon="-3.052228" lat="52.705189"><ele>391.487091</ele><time>2022-01-15T10:30:42Z</time><extensions><speed>0.287747</speed><course>177.750580</course><hAcc>1.869552</hAcc><vAcc>0.704235</vAcc></extensions></trkpt>
      <trkpt lon="-3.052228" lat="52.705186"><ele>391.429504</ele><time>2022-01-15T10:30:43Z</time><extensions><speed>0.272819</speed><course>185.505539</course><hAcc>1.877771</hAcc><vAcc>0.704101</vAcc></extensions></trkpt>
      <trkpt lon="-3.052229" lat="52.705184"><ele>391.360809</ele><time>2022-01-15T10:30:44Z</time><extensions><speed>0.261731</speed><course>199.169800</course><hAcc>1.891794</hAcc><vAcc>0.703528</vAcc></extensions></trkpt>
      <trkpt lon="-3.052231" lat="52.705182"><ele>391.280151</ele><time>2022-01-15T10:30:45Z</time><extensions><speed>0.285929</speed><course>217.571045</course><hAcc>1.904125</hAcc><vAcc>0.702556</vAcc></extensions></trkpt>
      <trkpt lon="-3.052234" lat="52.705180"><ele>391.182587</ele><time>2022-01-15T10:30:46Z</time><extensions><speed>0.358413</speed><course>235.394348</course><hAcc>1.916829</hAcc><vAcc>0.701296</vAcc></extensions></trkpt>
      <trkpt lon="-3.052240" lat="52.705178"><ele>391.081543</ele><time>2022-01-15T10:30:47Z</time><extensions><speed>0.486937</speed><course>249.046738</course><hAcc>1.926805</hAcc><vAcc>0.699946</vAcc></extensions></trkpt>
      <trkpt lon="-3.052248" lat="52.705177"><ele>390.971619</ele><time>2022-01-15T10:30:48Z</time><extensions><speed>0.672402</speed><course>257.159119</course><hAcc>1.927976</hAcc><vAcc>0.698714</vAcc></extensions></trkpt>
      <trkpt lon="-3.052260" lat="52.705175"><ele>390.851471</ele><time>2022-01-15T10:30:49Z</time><extensions><speed>0.931229</speed><course>260.160278</course><hAcc>1.920044</hAcc><vAcc>0.697766</vAcc></extensions></trkpt>
      <trkpt lon="-3.052274" lat="52.705174"><ele>390.716522</ele><time>2022-01-15T10:30:50Z</time><extensions><speed>1.020736</speed><course>261.524292</course><hAcc>1.922843</hAcc><vAcc>0.697356</vAcc></extensions></trkpt>
      <trkpt lon="-3.052289" lat="52.705172"><ele>390.585785</ele><time>2022-01-15T10:30:51Z</time><extensions><speed>0.996132</speed><course>260.659058</course><hAcc>1.923329</hAcc><vAcc>0.697465</vAcc></extensions></trkpt>
      <trkpt lon="-3.052302" lat="52.705171"><ele>390.444550</ele><time>2022-01-15T10:30:52Z</time><extensions><speed>0.908731</speed><course>256.721863</course><hAcc>1.920734</hAcc><vAcc>0.698088</vAcc></extensions></trkpt>
      <trkpt lon="-3.052314" lat="52.705169"><ele>390.300232</ele><time>2022-01-15T10:30:53Z</time><extensions><speed>0.782341</speed><course>249.589630</course><hAcc>1.914279</hAcc><vAcc>0.699104</vAcc></extensions></trkpt>
      <trkpt lon="-3.052324" lat="52.705166"><ele>390.158661</ele><time>2022-01-15T10:30:54Z</time><extensions><speed>0.720975</speed><course>238.642731</course><hAcc>1.895148</hAcc><vAcc>0.700294</vAcc></extensions></trkpt>
      <trkpt lon="-3.052333" lat="52.705162"><ele>390.030823</ele><time>2022-01-15T10:30:55Z</time><extensions><speed>0.685221</speed><course>228.022202</course><hAcc>1.878770</hAcc><vAcc>0.701488</vAcc></extensions></trkpt>
      <trkpt lon="-3.052339" lat="52.705158"><ele>389.916748</ele><time>2022-01-15T10:30:56Z</time><extensions><speed>0.541668</speed><course>215.110336</course><hAcc>1.873146</hAcc><vAcc>0.702377</vAcc></extensions></trkpt>
      <trkpt lon="-3.052341" lat="52.705155"><ele>389.813904</ele><time>2022-01-15T10:30:57Z</time><extensions><speed>0.319380</speed><course>193.182541</course><hAcc>1.885197</hAcc><vAcc>0.703130</vAcc></extensions></trkpt>
      <trkpt lon="-3.052342" lat="52.705152"><ele>389.717316</ele><time>2022-01-15T10:30:58Z</time><extensions><speed>0.239934</speed><course>166.021103</course><hAcc>1.874087</hAcc><vAcc>0.703660</vAcc></extensions></trkpt>
      <trkpt lon="-3.052340" lat="52.705150"><ele>389.638245</ele><time>2022-01-15T10:30:59Z</time><extensions><speed>0.193442</speed><course>140.069031</course><hAcc>1.865402</hAcc><vAcc>0.703893</vAcc></extensions></trkpt>
      <trkpt lon="-3.052338" lat="52.705149"><ele>389.573364</ele><time>2022-01-15T10:31:00Z</time><extensions><speed>0.160773</speed><course>115.975349</course><hAcc>1.864663</hAcc><vAcc>0.703607</vAcc></extensions></trkpt>
      <trkpt lon="-3.052336" lat="52.705149"><ele>389.520325</ele><time>2022-01-15T10:31:01Z</time><extensions><speed>0.142985</speed><course>97.019005</course><hAcc>1.863272</hAcc><vAcc>0.702969</vAcc></extensions></trkpt>
      <trkpt lon="-3.052334" lat="52.705149"><ele>389.475647</ele><time>2022-01-15T10:31:02Z</time><extensions><speed>0.119334</speed><course>90.011833</course><hAcc>1.863040</hAcc><vAcc>0.702251</vAcc></extensions></trkpt>
      <trkpt lon="-3.052333" lat="52.705149"><ele>389.446350</ele><time>2022-01-15T10:31:03Z</time><extensions><speed>0.093460</speed><course>96.348114</course><hAcc>1.857787</hAcc><vAcc>0.701423</vAcc></extensions></trkpt>
      <trkpt lon="-3.052332" lat="52.705149"><ele>389.428741</ele><time>2022-01-15T10:31:04Z</time><extensions><speed>0.066792</speed><course>116.974556</course><hAcc>1.858630</hAcc><vAcc>0.700540</vAcc></extensions></trkpt>
      <trkpt lon="-3.052331" lat="52.705148"><ele>389.413239</ele><time>2022-01-15T10:31:05Z</time><extensions><speed>0.056791</speed><course>144.340958</course><hAcc>1.844953</hAcc><vAcc>0.699657</vAcc></extensions></trkpt>
      <trkpt lon="-3.052331" lat="52.705148"><ele>389.403778</ele><time>2022-01-15T10:31:06Z</time><extensions><speed>0.047850</speed><course>172.014023</course><hAcc>1.828451</hAcc><vAcc>0.698891</vAcc></extensions></trkpt>
      <trkpt lon="-3.052331" lat="52.705148"><ele>389.393585</ele><time>2022-01-15T10:31:07Z</time><extensions><speed>0.040523</speed><course>209.776108</course><hAcc>1.829378</hAcc><vAcc>0.698371</vAcc></extensions></trkpt>
      <trkpt lon="-3.052331" lat="52.705147"><ele>389.391724</ele><time>2022-01-15T10:31:08Z</time><extensions><speed>0.045109</speed><course>241.796600</course><hAcc>1.849664</hAcc><vAcc>0.698129</vAcc></extensions></trkpt>
      <trkpt lon="-3.052332" lat="52.705147"><ele>389.396545</ele><time>2022-01-15T10:31:09Z</time><extensions><speed>0.043143</speed><course>257.844666</course><hAcc>1.880080</hAcc><vAcc>0.698330</vAcc></extensions></trkpt>
      <trkpt lon="-3.052333" lat="52.705147"><ele>389.395477</ele><time>2022-01-15T10:31:10Z</time><extensions><speed>0.060675</speed><course>263.127167</course><hAcc>1.845353</hAcc><vAcc>0.699059</vAcc></extensions></trkpt>
      <trkpt lon="-3.052334" lat="52.705147"><ele>389.400757</ele><time>2022-01-15T10:31:11Z</time><extensions><speed>0.063174</speed><course>266.125977</course><hAcc>1.824189</hAcc><vAcc>0.700380</vAcc></extensions></trkpt>
      <trkpt lon="-3.052335" lat="52.705147"><ele>389.401459</ele><time>2022-01-15T10:31:12Z</time><extensions><speed>0.061949</speed><course>274.717346</course><hAcc>1.820262</hAcc><vAcc>0.702497</vAcc></extensions></trkpt>
      <trkpt lon="-3.052336" lat="52.705147"><ele>389.403687</ele><time>2022-01-15T10:31:13Z</time><extensions><speed>0.069970</speed><course>286.196930</course><hAcc>1.808742</hAcc><vAcc>0.705251</vAcc></extensions></trkpt>
      <trkpt lon="-3.052337" lat="52.705147"><ele>389.401276</ele><time>2022-01-15T10:31:14Z</time><extensions><speed>0.078871</speed><course>293.671265</course><hAcc>1.794654</hAcc><vAcc>0.708494</vAcc></extensions></trkpt>
      <trkpt lon="-3.052338" lat="52.705148"><ele>389.397186</ele><time>2022-01-15T10:31:15Z</time><extensions><speed>0.076051</speed><course>296.635834</course><hAcc>1.787843</hAcc><vAcc>0.712068</vAcc></extensions></trkpt>
      <trkpt lon="-3.052339" lat="52.705148"><ele>389.392120</ele><time>2022-01-15T10:31:16Z</time><extensions><speed>0.063846</speed><course>296.425140</course><hAcc>1.789980</hAcc><vAcc>0.715852</vAcc></extensions></trkpt>
      <trkpt lon="-3.052339" lat="52.705148"><ele>389.386261</ele><time>2022-01-15T10:31:17Z</time><extensions><speed>0.056261</speed><course>297.024231</course><hAcc>1.797191</hAcc><vAcc>0.719758</vAcc></extensions></trkpt>
      <trkpt lon="-3.052340" lat="52.705149"><ele>389.380096</ele><time>2022-01-15T10:31:18Z</time><extensions><speed>0.062295</speed><course>300.192444</course><hAcc>1.792158</hAcc><vAcc>0.723736</vAcc></extensions></trkpt>
      <trkpt lon="-3.052341" lat="52.705149"><ele>389.375275</ele><time>2022-01-15T10:31:19Z</time><extensions><speed>0.093997</speed><course>301.498505</course><hAcc>1.752628</hAcc><vAcc>0.727662</vAcc></extensions></trkpt>
      <trkpt lon="-3.052342" lat="52.705149"><ele>389.364716</ele><time>2022-01-15T10:31:20Z</time><extensions><speed>0.103428</speed><course>300.346649</course><hAcc>1.735330</hAcc><vAcc>0.731498</vAcc></extensions></trkpt>
      <trkpt lon="-3.052343" lat="52.705150"><ele>389.357330</ele><time>2022-01-15T10:31:21Z</time><extensions><speed>0.082405</speed><course>297.252960</course><hAcc>1.763367</hAcc><vAcc>0.735334</vAcc></extensions></trkpt>
      <trkpt lon="-3.052344" lat="52.705150"><ele>389.352783</ele><time>2022-01-15T10:31:22Z</time><extensions><speed>0.036574</speed><course>292.500336</course><hAcc>1.810023</hAcc><vAcc>0.739043</vAcc></extensions></trkpt>
      <trkpt lon="-3.052344" lat="52.705150"><ele>389.348785</ele><time>2022-01-15T10:31:23Z</time><extensions><speed>0.009322</speed><course>278.408661</course><hAcc>1.780449</hAcc><vAcc>0.742574</vAcc></extensions></trkpt>
      <trkpt lon="-3.052344" lat="52.705150"><ele>389.345490</ele><time>2022-01-15T10:31:24Z</time><extensions><speed>0.026911</speed><course>107.391464</course><hAcc>1.772146</hAcc><vAcc>0.745768</vAcc></extensions></trkpt>
      <trkpt lon="-3.052344" lat="52.705150"><ele>389.343231</ele><time>2022-01-15T10:31:25Z</time><extensions><speed>0.062687</speed><course>99.086723</course><hAcc>1.778217</hAcc><vAcc>0.748414</vAcc></extensions></trkpt>
      <trkpt lon="-3.052342" lat="52.705150"><ele>389.337799</ele><time>2022-01-15T10:31:26Z</time><extensions><speed>0.095546</speed><course>92.441010</course><hAcc>1.776563</hAcc><vAcc>0.750524</vAcc></extensions></trkpt>
      <trkpt lon="-3.052341" lat="52.705150"><ele>389.334045</ele><time>2022-01-15T10:31:27Z</time><extensions><speed>0.108534</speed><course>86.229462</course><hAcc>1.795075</hAcc><vAcc>0.752052</vAcc></extensions></trkpt>
      <trkpt lon="-3.052339" lat="52.705150"><ele>389.330994</ele><time>2022-01-15T10:31:28Z</time><extensions><speed>0.114417</speed><course>83.150032</course><hAcc>1.817355</hAcc><vAcc>0.753016</vAcc></extensions></trkpt>
      <trkpt lon="-3.052337" lat="52.705150"><ele>389.330750</ele><time>2022-01-15T10:31:29Z</time><extensions><speed>0.135679</speed><course>83.965004</course><hAcc>1.811310</hAcc><vAcc>0.753460</vAcc></extensions></trkpt>
      <trkpt lon="-3.052335" lat="52.705150"><ele>389.338013</ele><time>2022-01-15T10:31:30Z</time><extensions><speed>0.132110</speed><course>85.785835</course><hAcc>1.812346</hAcc><vAcc>0.753448</vAcc></extensions></trkpt>
      <trkpt lon="-3.052334" lat="52.705150"><ele>389.344879</ele><time>2022-01-15T10:31:31Z</time><extensions><speed>0.112155</speed><course>87.210335</course><hAcc>1.820665</hAcc><vAcc>0.753053</vAcc></extensions></trkpt>
      <trkpt lon="-3.052332" lat="52.705150"><ele>389.357452</ele><time>2022-01-15T10:31:32Z</time><extensions><speed>0.093335</speed><course>86.251968</course><hAcc>1.825830</hAcc><vAcc>0.752353</vAcc></extensions></trkpt>
      <trkpt lon="-3.052331" lat="52.705150"><ele>389.372528</ele><time>2022-01-15T10:31:33Z</time><extensions><speed>0.079742</speed><course>80.652634</course><hAcc>1.826551</hAcc><vAcc>0.751526</vAcc></extensions></trkpt>
      <trkpt lon="-3.052330" lat="52.705151"><ele>389.381622</ele><time>2022-01-15T10:31:34Z</time><extensions><speed>0.072906</speed><course>71.935631</course><hAcc>1.818649</hAcc><vAcc>0.750642</vAcc></extensions></trkpt>
      <trkpt lon="-3.052329" lat="52.705151"><ele>389.385651</ele><time>2022-01-15T10:31:35Z</time><extensions><speed>0.067986</speed><course>62.677315</course><hAcc>1.806748</hAcc><vAcc>0.749600</vAcc></extensions></trkpt>
      <trkpt lon="-3.052328" lat="52.705151"><ele>389.397400</ele><time>2022-01-15T10:31:36Z</time><extensions><speed>0.051491</speed><course>49.249332</course><hAcc>1.803086</hAcc><vAcc>0.748554</vAcc></extensions></trkpt>
      <trkpt lon="-3.052328" lat="52.705152"><ele>389.409760</ele><time>2022-01-15T10:31:37Z</time><extensions><speed>0.034247</speed><course>15.921599</course><hAcc>1.808000</hAcc><vAcc>0.747577</vAcc></extensions></trkpt>
      <trkpt lon="-3.052328" lat="52.705152"><ele>389.422455</ele><time>2022-01-15T10:31:38Z</time><extensions><speed>0.039203</speed><course>336.522339</course><hAcc>1.818776</hAcc><vAcc>0.746639</vAcc></extensions></trkpt>
      <trkpt lon="-3.052328" lat="52.705152"><ele>389.435303</ele><time>2022-01-15T10:31:39Z</time><extensions><speed>0.059899</speed><course>328.542725</course><hAcc>1.813942</hAcc><vAcc>0.745742</vAcc></extensions></trkpt>
      <trkpt lon="-3.052329" lat="52.705153"><ele>389.447876</ele><time>2022-01-15T10:31:40Z</time><extensions><speed>0.088547</speed><course>333.498993</course><hAcc>1.800933</hAcc><vAcc>0.744908</vAcc></extensions></trkpt>
      <trkpt lon="-3.052329" lat="52.705154"><ele>389.461182</ele><time>2022-01-15T10:31:41Z</time><extensions><speed>0.106479</speed><course>336.930634</course><hAcc>1.809519</hAcc><vAcc>0.744162</vAcc></extensions></trkpt>
      <trkpt lon="-3.052330" lat="52.705155"><ele>389.470032</ele><time>2022-01-15T10:31:42Z</time><extensions><speed>0.111338</speed><course>337.986938</course><hAcc>1.820606</hAcc><vAcc>0.743582</vAcc></extensions></trkpt>
      <trkpt lon="-3.052331" lat="52.705155"><ele>389.477081</ele><time>2022-01-15T10:31:42Z</time><extensions><speed>0.092351</speed><course>335.810638</course><hAcc>1.830311</hAcc><vAcc>0.743282</vAcc></extensions></trkpt>
      <trkpt lon="-3.052331" lat="52.705156"><ele>389.482422</ele><time>2022-01-15T10:31:43Z</time><extensions><speed>0.055898</speed><course>326.514496</course><hAcc>1.840751</hAcc><vAcc>0.743279</vAcc></extensions></trkpt>
      <trkpt lon="-3.052332" lat="52.705156"><ele>389.486420</ele><time>2022-01-15T10:31:44Z</time><extensions><speed>0.031965</speed><course>292.094177</course><hAcc>1.842128</hAcc><vAcc>0.743653</vAcc></extensions></trkpt>
      <trkpt lon="-3.052332" lat="52.705156"><ele>389.489258</ele><time>2022-01-15T10:31:45Z</time><extensions><speed>0.042264</speed><course>251.776535</course><hAcc>1.842448</hAcc><vAcc>0.744444</vAcc></extensions></trkpt>
      <trkpt lon="-3.052333" lat="52.705156"><ele>389.494141</ele><time>2022-01-15T10:31:46Z</time><extensions><speed>0.064472</speed><course>249.295166</course><hAcc>1.832063</hAcc><vAcc>0.745623</vAcc></extensions></trkpt>
      <trkpt lon="-3.052334" lat="52.705156"><ele>389.497894</ele><time>2022-01-15T10:31:47Z</time><extensions><speed>0.085502</speed><course>256.261200</course><hAcc>1.814430</hAcc><vAcc>0.747082</vAcc></extensions></trkpt>
      <trkpt lon="-3.052335" lat="52.705156"><ele>389.509460</ele><time>2022-01-15T10:31:48Z</time><extensions><speed>0.103766</speed><course>263.808167</course><hAcc>1.802720</hAcc><vAcc>0.748687</vAcc></extensions></trkpt>
      <trkpt lon="-3.052337" lat="52.705156"><ele>389.487915</ele><time>2022-01-15T10:31:49Z</time><extensions><speed>0.113603</speed><course>270.302673</course><hAcc>1.810745</hAcc><vAcc>0.750273</vAcc></extensions></trkpt>
      <trkpt lon="-3.052339" lat="52.705156"><ele>389.462372</ele><time>2022-01-15T10:31:50Z</time><extensions><speed>0.098345</speed><course>279.621002</course><hAcc>1.828845</hAcc><vAcc>0.751816</vAcc></extensions></trkpt>
      <trkpt lon="-3.052340" lat="52.705156"><ele>389.439880</ele><time>2022-01-15T10:31:51Z</time><extensions><speed>0.118722</speed><course>291.903809</course><hAcc>1.791925</hAcc><vAcc>0.753198</vAcc></extensions></trkpt>
      <trkpt lon="-3.052342" lat="52.705157"><ele>389.416443</ele><time>2022-01-15T10:31:52Z</time><extensions><speed>0.120844</speed><course>304.106659</course><hAcc>1.774233</hAcc><vAcc>0.754552</vAcc></extensions></trkpt>
      <trkpt lon="-3.052343" lat="52.705157"><ele>389.390320</ele><time>2022-01-15T10:31:53Z</time><extensions><speed>0.126478</speed><course>316.584045</course><hAcc>1.776010</hAcc><vAcc>0.755738</vAcc></extensions></trkpt>
      <trkpt lon="-3.052344" lat="52.705158"><ele>389.361725</ele><time>2022-01-15T10:31:54Z</time><extensions><speed>0.141345</speed><course>326.361328</course><hAcc>1.780490</hAcc><vAcc>0.756736</vAcc></extensions></trkpt>
      <trkpt lon="-3.052345" lat="52.705159"><ele>389.330933</ele><time>2022-01-15T10:31:55Z</time><extensions><speed>0.154355</speed><course>332.304749</course><hAcc>1.788438</hAcc><vAcc>0.757500</vAcc></extensions></trkpt>
      <trkpt lon="-3.052346" lat="52.705161"><ele>389.296967</ele><time>2022-01-15T10:31:56Z</time><extensions><speed>0.146944</speed><course>334.286682</course><hAcc>1.791846</hAcc><vAcc>0.758065</vAcc></extensions></trkpt>
      <trkpt lon="-3.052347" lat="52.705162"><ele>389.260193</ele><time>2022-01-15T10:31:57Z</time><extensions><speed>0.140922</speed><course>333.540070</course><hAcc>1.770027</hAcc><vAcc>0.758408</vAcc></extensions></trkpt>
      <trkpt lon="-3.052348" lat="52.705163"><ele>389.222382</ele><time>2022-01-15T10:31:58Z</time><extensions><speed>0.111050</speed><course>328.180603</course><hAcc>1.767435</hAcc><vAcc>0.758579</vAcc></extensions></trkpt>
      <trkpt lon="-3.052349" lat="52.705163"><ele>389.178345</ele><time>2022-01-15T10:31:59Z</time><extensions><speed>0.076639</speed><course>315.401886</course><hAcc>1.793876</hAcc><vAcc>0.758678</vAcc></extensions></trkpt>
      <trkpt lon="-3.052350" lat="52.705164"><ele>389.130493</ele><time>2022-01-15T10:32:00Z</time><extensions><speed>0.048509</speed><course>290.685822</course><hAcc>1.821128</hAcc><vAcc>0.758708</vAcc></extensions></trkpt>
      <trkpt lon="-3.052351" lat="52.705164"><ele>389.078613</ele><time>2022-01-15T10:32:01Z</time><extensions><speed>0.054270</speed><course>249.845551</course><hAcc>1.804103</hAcc><vAcc>0.758682</vAcc></extensions></trkpt>
      <trkpt lon="-3.052351" lat="52.705163"><ele>389.023010</ele><time>2022-01-15T10:32:02Z</time><extensions><speed>0.076197</speed><course>226.704102</course><hAcc>1.792101</hAcc><vAcc>0.758698</vAcc></extensions></trkpt>
      <trkpt lon="-3.052352" lat="52.705163"><ele>388.963837</ele><time>2022-01-15T10:32:03Z</time><extensions><speed>0.098015</speed><course>216.132370</course><hAcc>1.799003</hAcc><vAcc>0.758594</vAcc></extensions></trkpt>
      <trkpt lon="-3.052353" lat="52.705162"><ele>388.902771</ele><time>2022-01-15T10:32:04Z</time><extensions><speed>0.124733</speed><course>209.865967</course><hAcc>1.810437</hAcc><vAcc>0.758385</vAcc></extensions></trkpt>
      <trkpt lon="-3.052354" lat="52.705161"><ele>388.836975</ele><time>2022-01-15T10:32:05Z</time><extensions><speed>0.153026</speed><course>205.064056</course><hAcc>1.819258</hAcc><vAcc>0.758139</vAcc></extensions></trkpt>
      <trkpt lon="-3.052355" lat="52.705159"><ele>388.781036</ele><time>2022-01-15T10:32:06Z</time><extensions><speed>0.183541</speed><course>199.768463</course><hAcc>1.821984</hAcc><vAcc>0.757696</vAcc></extensions></trkpt>
      <trkpt lon="-3.052356" lat="52.705158"><ele>388.734772</ele><time>2022-01-15T10:32:07Z</time><extensions><speed>0.215736</speed><course>195.562927</course><hAcc>1.820444</hAcc><vAcc>0.756945</vAcc></extensions></trkpt>
      <trkpt lon="-3.052357" lat="52.705155"><ele>388.694550</ele><time>2022-01-15T10:32:08Z</time><extensions><speed>0.254071</speed><course>194.222443</course><hAcc>1.821063</hAcc><vAcc>0.755823</vAcc></extensions></trkpt>
      <trkpt lon="-3.052358" lat="52.705153"><ele>388.646393</ele><time>2022-01-15T10:32:09Z</time><extensions><speed>0.310273</speed><course>194.441437</course><hAcc>1.822164</hAcc><vAcc>0.754459</vAcc></extensions></trkpt>
      <trkpt lon="-3.052359" lat="52.705150"><ele>388.597107</ele><time>2022-01-15T10:32:10Z</time><extensions><speed>0.383207</speed><course>195.706802</course><hAcc>1.821839</hAcc><vAcc>0.752927</vAcc></extensions></trkpt>
      <trkpt lon="-3.052361" lat="52.705146"><ele>388.554077</ele><time>2022-01-15T10:32:11Z</time><extensions><speed>0.470888</speed><course>198.340149</course><hAcc>1.816684</hAcc><vAcc>0.751181</vAcc></extensions></trkpt>
      <trkpt lon="-3.052364" lat="52.705142"><ele>388.508240</ele><time>2022-01-15T10:32:12Z</time><extensions><speed>0.556345</speed><course>200.988297</course><hAcc>1.810862</hAcc><vAcc>0.749352</vAcc></extensions></trkpt>
      <trkpt lon="-3.052367" lat="52.705137"><ele>388.476654</ele><time>2022-01-15T10:32:13Z</time><extensions><speed>0.664643</speed><course>203.399948</course><hAcc>1.804974</hAcc><vAcc>0.747451</vAcc></extensions></trkpt>
      <trkpt lon="-3.052372" lat="52.705131"><ele>388.438171</ele><time>2022-01-15T10:32:14Z</time><extensions><speed>0.798563</speed><course>205.378326</course><hAcc>1.813813</hAcc><vAcc>0.745313</vAcc></extensions></trkpt>
      <trkpt lon="-3.052378" lat="52.705123"><ele>388.408020</ele><time>2022-01-15T10:32:15Z</time><extensions><speed>0.990701</speed><course>206.423477</course><hAcc>1.838593</hAcc><vAcc>0.742999</vAcc></extensions></trkpt>
      <trkpt lon="-3.052386" lat="52.705115"><ele>388.383392</ele><time>2022-01-15T10:32:16Z</time><extensions><speed>1.099526</speed><course>213.971176</course><hAcc>1.823340</hAcc><vAcc>0.740479</vAcc></extensions></trkpt>
      <trkpt lon="-3.052395" lat="52.705107"><ele>388.348633</ele><time>2022-01-15T10:32:17Z</time><extensions><speed>1.095174</speed><course>218.942001</course><hAcc>1.813090</hAcc><vAcc>0.737847</vAcc></extensions></trkpt>
      <trkpt lon="-3.052406" lat="52.705100"><ele>388.317200</ele><time>2022-01-15T10:32:18Z</time><extensions><speed>1.062325</speed><course>222.118164</course><hAcc>1.822579</hAcc><vAcc>0.735066</vAcc></extensions></trkpt>
      <trkpt lon="-3.052416" lat="52.705093"><ele>388.280701</ele><time>2022-01-15T10:32:19Z</time><extensions><speed>0.979233</speed><course>224.340439</course><hAcc>1.844501</hAcc><vAcc>0.732150</vAcc></extensions></trkpt>
      <trkpt lon="-3.052426" lat="52.705088"><ele>388.246399</ele><time>2022-01-15T10:32:20Z</time><extensions><speed>0.851771</speed><course>225.919968</course><hAcc>1.857342</hAcc><vAcc>0.729088</vAcc></extensions></trkpt>
      <trkpt lon="-3.052434" lat="52.705083"><ele>388.211792</ele><time>2022-01-15T10:32:21Z</time><extensions><speed>0.696780</speed><course>228.353348</course><hAcc>1.854272</hAcc><vAcc>0.725888</vAcc></extensions></trkpt>
      <trkpt lon="-3.052441" lat="52.705079"><ele>388.170044</ele><time>2022-01-15T10:32:22Z</time><extensions><speed>0.500995</speed><course>230.848083</course><hAcc>1.866552</hAcc><vAcc>0.722712</vAcc></extensions></trkpt>
      <trkpt lon="-3.052445" lat="52.705077"><ele>388.126282</ele><time>2022-01-15T10:32:23Z</time><extensions><speed>0.305691</speed><course>234.390427</course><hAcc>1.883484</hAcc><vAcc>0.719591</vAcc></extensions></trkpt>
      <trkpt lon="-3.052449" lat="52.705076"><ele>388.080750</ele><time>2022-01-15T10:32:24Z</time><extensions><speed>0.222458</speed><course>241.524582</course><hAcc>1.887236</hAcc><vAcc>0.716704</vAcc></extensions></trkpt>
      <trkpt lon="-3.052452" lat="52.705075"><ele>388.028595</ele><time>2022-01-15T10:32:25Z</time><extensions><speed>0.198306</speed><course>245.980026</course><hAcc>1.884670</hAcc><vAcc>0.714112</vAcc></extensions></trkpt>
      <trkpt lon="-3.052454" lat="52.705074"><ele>387.974854</ele><time>2022-01-15T10:32:26Z</time><extensions><speed>0.209616</speed><course>242.273071</course><hAcc>1.879756</hAcc><vAcc>0.711869</vAcc></extensions></trkpt>
      <trkpt lon="-3.052457" lat="52.705073"><ele>387.917877</ele><time>2022-01-15T10:32:27Z</time><extensions><speed>0.236967</speed><course>234.245789</course><hAcc>1.877737</hAcc><vAcc>0.709898</vAcc></extensions></trkpt>
      <trkpt lon="-3.052460" lat="52.705072"><ele>387.865601</ele><time>2022-01-15T10:32:28Z</time><extensions><speed>0.266146</speed><course>226.650192</course><hAcc>1.876163</hAcc><vAcc>0.708006</vAcc></extensions></trkpt>
      <trkpt lon="-3.052463" lat="52.705070"><ele>387.820129</ele><time>2022-01-15T10:32:29Z</time><extensions><speed>0.273341</speed><course>221.589645</course><hAcc>1.873435</hAcc><vAcc>0.706095</vAcc></extensions></trkpt>
      <trkpt lon="-3.052465" lat="52.705068"><ele>387.776093</ele><time>2022-01-15T10:32:30Z</time><extensions><speed>0.258030</speed><course>218.815842</course><hAcc>1.870318</hAcc><vAcc>0.703993</vAcc></extensions></trkpt>
      <trkpt lon="-3.052468" lat="52.705066"><ele>387.738586</ele><time>2022-01-15T10:32:31Z</time><extensions><speed>0.238585</speed><course>217.215515</course><hAcc>1.868927</hAcc><vAcc>0.701709</vAcc></extensions></trkpt>
      <trkpt lon="-3.052470" lat="52.705065"><ele>387.702545</ele><time>2022-01-15T10:32:32Z</time><extensions><speed>0.207822</speed><course>216.061356</course><hAcc>1.873454</hAcc><vAcc>0.699172</vAcc></extensions></trkpt>
      <trkpt lon="-3.052471" lat="52.705063"><ele>387.673706</ele><time>2022-01-15T10:32:33Z</time><extensions><speed>0.193169</speed><course>214.346268</course><hAcc>1.869247</hAcc><vAcc>0.696210</vAcc></extensions></trkpt>
      <trkpt lon="-3.052473" lat="52.705062"><ele>387.643158</ele><time>2022-01-15T10:32:34Z</time><extensions><speed>0.179398</speed><course>212.205597</course><hAcc>1.870266</hAcc><vAcc>0.692799</vAcc></extensions></trkpt>
      <trkpt lon="-3.052474" lat="52.705060"><ele>387.614655</ele><time>2022-01-15T10:32:35Z</time><extensions><speed>0.177393</speed><course>209.803391</course><hAcc>1.875567</hAcc><vAcc>0.688869</vAcc></extensions></trkpt>
      <trkpt lon="-3.052476" lat="52.705059"><ele>387.591370</ele><time>2022-01-15T10:32:36Z</time><extensions><speed>0.188142</speed><course>209.084885</course><hAcc>1.883926</hAcc><vAcc>0.684495</vAcc></extensions></trkpt>
      <trkpt lon="-3.052477" lat="52.705057"><ele>387.581238</ele><time>2022-01-15T10:32:37Z</time><extensions><speed>0.221751</speed><course>212.161179</course><hAcc>1.891956</hAcc><vAcc>0.679838</vAcc></extensions></trkpt>
      <trkpt lon="-3.052479" lat="52.705055"><ele>387.572815</ele><time>2022-01-15T10:32:38Z</time><extensions><speed>0.269286</speed><course>216.970978</course><hAcc>1.903379</hAcc><vAcc>0.675115</vAcc></extensions></trkpt>
      <trkpt lon="-3.052482" lat="52.705053"><ele>387.567230</ele><time>2022-01-15T10:32:39Z</time><extensions><speed>0.313427</speed><course>221.065399</course><hAcc>1.913973</hAcc><vAcc>0.670489</vAcc></extensions></trkpt>
      <trkpt lon="-3.052486" lat="52.705051"><ele>387.561554</ele><time>2022-01-15T10:32:40Z</time><extensions><speed>0.355875</speed><course>225.490952</course><hAcc>1.920174</hAcc><vAcc>0.666096</vAcc></extensions></trkpt>
      <trkpt lon="-3.052490" lat="52.705049"><ele>387.552368</ele><time>2022-01-15T10:32:41Z</time><extensions><speed>0.391568</speed><course>232.543839</course><hAcc>1.934884</hAcc><vAcc>0.661996</vAcc></extensions></trkpt>
      <trkpt lon="-3.052495" lat="52.705047"><ele>387.543976</ele><time>2022-01-15T10:32:42Z</time><extensions><speed>0.440052</speed><course>241.430466</course><hAcc>1.958838</hAcc><vAcc>0.658197</vAcc></extensions></trkpt>
      <trkpt lon="-3.052501" lat="52.705045"><ele>387.526825</ele><time>2022-01-15T10:32:43Z</time><extensions><speed>0.534299</speed><course>249.298080</course><hAcc>1.981866</hAcc><vAcc>0.654675</vAcc></extensions></trkpt>
      <trkpt lon="-3.052510" lat="52.705043"><ele>387.494629</ele><time>2022-01-15T10:32:44Z</time><extensions><speed>0.678025</speed><course>254.258194</course><hAcc>1.997532</hAcc><vAcc>0.651490</vAcc></extensions></trkpt>
      <trkpt lon="-3.052521" lat="52.705042"><ele>387.455139</ele><time>2022-01-15T10:32:45Z</time><extensions><speed>0.921369</speed><course>256.750763</course><hAcc>2.000052</hAcc><vAcc>0.648785</vAcc></extensions></trkpt>
      <trkpt lon="-3.052535" lat="52.705040"><ele>387.405365</ele><time>2022-01-15T10:32:46Z</time><extensions><speed>1.011155</speed><course>256.873077</course><hAcc>2.019155</hAcc><vAcc>0.646645</vAcc></extensions></trkpt>
      <trkpt lon="-3.052550" lat="52.705038"><ele>387.342834</ele><time>2022-01-15T10:32:47Z</time><extensions><speed>1.017804</speed><course>255.782791</course><hAcc>2.042916</hAcc><vAcc>0.645085</vAcc></extensions></trkpt>
      <trkpt lon="-3.052564" lat="52.705035"><ele>387.270447</ele><time>2022-01-15T10:32:48Z</time><extensions><speed>1.006445</speed><course>254.513412</course><hAcc>2.048514</hAcc><vAcc>0.644043</vAcc></extensions></trkpt>
      <trkpt lon="-3.052579" lat="52.705033"><ele>387.176025</ele><time>2022-01-15T10:32:49Z</time><extensions><speed>0.995927</speed><course>255.544006</course><hAcc>2.048108</hAcc><vAcc>0.643402</vAcc></extensions></trkpt>
      <trkpt lon="-3.052593" lat="52.705031"><ele>387.061981</ele><time>2022-01-15T10:32:50Z</time><extensions><speed>1.006556</speed><course>257.130768</course><hAcc>2.049826</hAcc><vAcc>0.643114</vAcc></extensions></trkpt>
      <trkpt lon="-3.052608" lat="52.705029"><ele>386.937073</ele><time>2022-01-15T10:32:51Z</time><extensions><speed>1.041772</speed><course>256.729889</course><hAcc>2.055314</hAcc><vAcc>0.643223</vAcc></extensions></trkpt>
      <trkpt lon="-3.052623" lat="52.705026"><ele>386.801788</ele><time>2022-01-15T10:32:52Z</time><extensions><speed>1.062188</speed><course>254.395599</course><hAcc>2.066984</hAcc><vAcc>0.643766</vAcc></extensions></trkpt>
      <trkpt lon="-3.052638" lat="52.705023"><ele>386.660767</ele><time>2022-01-15T10:32:53Z</time><extensions><speed>1.061692</speed><course>250.345062</course><hAcc>2.076510</hAcc><vAcc>0.644794</vAcc></extensions></trkpt>
      <trkpt lon="-3.052653" lat="52.705020"><ele>386.513550</ele><time>2022-01-15T10:32:54Z</time><extensions><speed>1.057669</speed><course>245.531189</course><hAcc>2.079470</hAcc><vAcc>0.646375</vAcc></extensions></trkpt>
      <trkpt lon="-3.052667" lat="52.705015"><ele>386.367554</ele><time>2022-01-15T10:32:55Z</time><extensions><speed>1.097043</speed><course>240.162277</course><hAcc>2.068295</hAcc><vAcc>0.648547</vAcc></extensions></trkpt>
      <trkpt lon="-3.052681" lat="52.705010"><ele>386.210022</ele><time>2022-01-15T10:32:56Z</time><extensions><speed>1.103789</speed><course>235.335907</course><hAcc>2.059142</hAcc><vAcc>0.651368</vAcc></extensions></trkpt>
      <trkpt lon="-3.052693" lat="52.705004"><ele>386.054626</ele><time>2022-01-15T10:32:57Z</time><extensions><speed>1.073510</speed><course>230.277969</course><hAcc>2.051819</hAcc><vAcc>0.654853</vAcc></extensions></trkpt>
      <trkpt lon="-3.052705" lat="52.704998"><ele>385.901917</ele><time>2022-01-15T10:32:58Z</time><extensions><speed>1.018013</speed><course>222.976913</course><hAcc>2.033806</hAcc><vAcc>0.659015</vAcc></extensions></trkpt>
      <trkpt lon="-3.052714" lat="52.704991"><ele>385.736023</ele><time>2022-01-15T10:32:59Z</time><extensions><speed>0.952983</speed><course>216.032089</course><hAcc>2.018084</hAcc><vAcc>0.663821</vAcc></extensions></trkpt>
      <trkpt lon="-3.052722" lat="52.704984"><ele>385.590210</ele><time>2022-01-15T10:33:00Z</time><extensions><speed>0.935690</speed><course>211.317154</course><hAcc>2.005387</hAcc><vAcc>0.669110</vAcc></extensions></trkpt>
      <trkpt lon="-3.052729" lat="52.704977"><ele>385.449219</ele><time>2022-01-15T10:33:01Z</time><extensions><speed>1.004855</speed><course>212.268082</course><hAcc>1.979257</hAcc><vAcc>0.674595</vAcc></extensions></trkpt>
      <trkpt lon="-3.052737" lat="52.704969"><ele>385.318756</ele><time>2022-01-15T10:33:02Z</time><extensions><speed>0.983026</speed><course>214.794205</course><hAcc>1.946326</hAcc><vAcc>0.680126</vAcc></extensions></trkpt>
      <trkpt lon="-3.052746" lat="52.704962"><ele>385.191498</ele><time>2022-01-15T10:33:03Z</time><extensions><speed>0.910457</speed><course>217.439270</course><hAcc>1.913323</hAcc><vAcc>0.685431</vAcc></extensions></trkpt>
      <trkpt lon="-3.052754" lat="52.704956"><ele>385.062317</ele><time>2022-01-15T10:33:04Z</time><extensions><speed>0.850253</speed><course>220.602524</course><hAcc>1.897055</hAcc><vAcc>0.690349</vAcc></extensions></trkpt>
      <trkpt lon="-3.052762" lat="52.704950"><ele>384.953278</ele><time>2022-01-15T10:33:05Z</time><extensions><speed>0.856732</speed><course>223.945160</course><hAcc>1.891870</hAcc><vAcc>0.694840</vAcc></extensions></trkpt>
      <trkpt lon="-3.052772" lat="52.704945"><ele>384.834351</ele><time>2022-01-15T10:33:06Z</time><extensions><speed>0.918681</speed><course>225.571854</course><hAcc>1.892579</hAcc><vAcc>0.698940</vAcc></extensions></trkpt>
      <trkpt lon="-3.052782" lat="52.704939"><ele>384.729401</ele><time>2022-01-15T10:33:07Z</time><extensions><speed>1.035743</speed><course>225.688873</course><hAcc>1.880387</hAcc><vAcc>0.702746</vAcc></extensions></trkpt>
      <trkpt lon="-3.052793" lat="52.704932"><ele>384.636444</ele><time>2022-01-15T10:33:08Z</time><extensions><speed>1.097471</speed><course>223.037888</course><hAcc>1.863683</hAcc><vAcc>0.706346</vAcc></extensions></trkpt>
      <trkpt lon="-3.052804" lat="52.704924"><ele>384.545471</ele><time>2022-01-15T10:33:09Z</time><extensions><speed>1.177241</speed><course>219.932068</course><hAcc>1.839194</hAcc><vAcc>0.709829</vAcc></extensions></trkpt>
      <trkpt lon="-3.052816" lat="52.704915"><ele>384.455383</ele><time>2022-01-15T10:33:10Z</time><extensions><speed>1.295187</speed><course>218.075623</course><hAcc>1.796566</hAcc><vAcc>0.713288</vAcc></extensions></trkpt>
      <trkpt lon="-3.052828" lat="52.704906"><ele>384.374573</ele><time>2022-01-15T10:33:11Z</time><extensions><speed>1.355788</speed><course>217.668701</course><hAcc>1.752081</hAcc><vAcc>0.716770</vAcc></extensions></trkpt>
      <trkpt lon="-3.052841" lat="52.704896"><ele>384.296356</ele><time>2022-01-15T10:33:12Z</time><extensions><speed>1.358856</speed><course>217.950256</course><hAcc>1.733639</hAcc><vAcc>0.720321</vAcc></extensions></trkpt>
      <trkpt lon="-3.052853" lat="52.704887"><ele>384.225403</ele><time>2022-01-15T10:33:13Z</time><extensions><speed>1.262055</speed><course>218.417526</course><hAcc>1.732973</hAcc><vAcc>0.723896</vAcc></extensions></trkpt>
      <trkpt lon="-3.052865" lat="52.704878"><ele>384.151215</ele><time>2022-01-15T10:33:14Z</time><extensions><speed>1.217143</speed><course>219.427689</course><hAcc>1.688562</hAcc><vAcc>0.727468</vAcc></extensions></trkpt>
      <trkpt lon="-3.052876" lat="52.704870"><ele>384.075836</ele><time>2022-01-15T10:33:15Z</time><extensions><speed>1.154143</speed><course>220.769958</course><hAcc>1.704704</hAcc><vAcc>0.730997</vAcc></extensions></trkpt>
      <trkpt lon="-3.052887" lat="52.704863"><ele>383.987885</ele><time>2022-01-15T10:33:16Z</time><extensions><speed>1.015598</speed><course>223.370956</course><hAcc>1.706396</hAcc><vAcc>0.734381</vAcc></extensions></trkpt>
      <trkpt lon="-3.052898" lat="52.704856"><ele>383.910858</ele><time>2022-01-15T10:33:17Z</time><extensions><speed>1.030490</speed><course>228.224960</course><hAcc>1.673155</hAcc><vAcc>0.737502</vAcc></extensions></trkpt>
      <trkpt lon="-3.052910" lat="52.704850"><ele>383.827972</ele><time>2022-01-15T10:33:18Z</time><extensions><speed>1.071491</speed><course>230.727264</course><hAcc>1.665771</hAcc><vAcc>0.740277</vAcc></extensions></trkpt>
      <trkpt lon="-3.052922" lat="52.704844"><ele>383.779327</ele><time>2022-01-15T10:33:19Z</time><extensions><speed>1.144136</speed><course>231.214157</course><hAcc>1.670112</hAcc><vAcc>0.742761</vAcc></extensions></trkpt>
      <trkpt lon="-3.052936" lat="52.704837"><ele>383.712128</ele><time>2022-01-15T10:33:20Z</time><extensions><speed>1.210099</speed><course>230.877121</course><hAcc>1.672227</hAcc><vAcc>0.744914</vAcc></extensions></trkpt>
      <trkpt lon="-3.052951" lat="52.704830"><ele>383.612244</ele><time>2022-01-15T10:33:21Z</time><extensions><speed>1.332077</speed><course>231.759247</course><hAcc>1.686878</hAcc><vAcc>0.746790</vAcc></extensions></trkpt>
      <trkpt lon="-3.052966" lat="52.704823"><ele>383.522034</ele><time>2022-01-15T10:33:22Z</time><extensions><speed>1.359447</speed><course>231.517258</course><hAcc>1.726336</hAcc><vAcc>0.748379</vAcc></extensions></trkpt>
      <trkpt lon="-3.052983" lat="52.704816"><ele>383.418243</ele><time>2022-01-15T10:33:23Z</time><extensions><speed>1.338375</speed><course>235.169678</course><hAcc>1.722299</hAcc><vAcc>0.749687</vAcc></extensions></trkpt>
      <trkpt lon="-3.052998" lat="52.704809"><ele>383.327850</ele><time>2022-01-15T10:33:24Z</time><extensions><speed>1.201854</speed><course>236.221146</course><hAcc>1.754981</hAcc><vAcc>0.750659</vAcc></extensions></trkpt>
      <trkpt lon="-3.053013" lat="52.704804"><ele>383.228241</ele><time>2022-01-15T10:33:25Z</time><extensions><speed>1.172192</speed><course>240.564117</course><hAcc>1.719105</hAcc><vAcc>0.751388</vAcc></extensions></trkpt>
      <trkpt lon="-3.053028" lat="52.704799"><ele>383.128784</ele><time>2022-01-15T10:33:26Z</time><extensions><speed>1.097983</speed><course>244.146332</course><hAcc>1.697926</hAcc><vAcc>0.751883</vAcc></extensions></trkpt>
      <trkpt lon="-3.053042" lat="52.704795"><ele>383.040985</ele><time>2022-01-15T10:33:27Z</time><extensions><speed>1.047714</speed><course>247.073044</course><hAcc>1.695489</hAcc><vAcc>0.752181</vAcc></extensions></trkpt>
      <trkpt lon="-3.053057" lat="52.704791"><ele>382.948730</ele><time>2022-01-15T10:33:28Z</time><extensions><speed>1.016370</speed><course>249.149094</course><hAcc>1.711311</hAcc><vAcc>0.752319</vAcc></extensions></trkpt>
      <trkpt lon="-3.053070" lat="52.704788"><ele>382.850739</ele><time>2022-01-15T10:33:29Z</time><extensions><speed>0.968259</speed><course>249.754532</course><hAcc>1.756766</hAcc><vAcc>0.752340</vAcc></extensions></trkpt>
      <trkpt lon="-3.053083" lat="52.704785"><ele>382.756653</ele><time>2022-01-15T10:33:31Z</time><extensions><speed>0.892200</speed><course>251.291595</course><hAcc>1.781399</hAcc><vAcc>0.752207</vAcc></extensions></trkpt>
      <trkpt lon="-3.053097" lat="52.704783"><ele>382.662842</ele><time>2022-01-15T10:33:32Z</time><extensions><speed>1.012154</speed><course>251.667068</course><hAcc>1.752396</hAcc><vAcc>0.751936</vAcc></extensions></trkpt>
      <trkpt lon="-3.053112" lat="52.704780"><ele>382.578827</ele><time>2022-01-15T10:33:33Z</time><extensions><speed>1.118446</speed><course>249.365372</course><hAcc>1.709381</hAcc><vAcc>0.751468</vAcc></extensions></trkpt>
      <trkpt lon="-3.053127" lat="52.704776"><ele>382.508148</ele><time>2022-01-15T10:33:34Z</time><extensions><speed>1.185148</speed><course>245.554214</course><hAcc>1.695920</hAcc><vAcc>0.750933</vAcc></extensions></trkpt>
      <trkpt lon="-3.053143" lat="52.704771"><ele>382.435272</ele><time>2022-01-15T10:33:34Z</time><extensions><speed>1.207418</speed><course>241.176514</course><hAcc>1.712319</hAcc><vAcc>0.750245</vAcc></extensions></trkpt>
      <trkpt lon="-3.053159" lat="52.704765"><ele>382.385223</ele><time>2022-01-15T10:33:35Z</time><extensions><speed>1.194222</speed><course>237.587128</course><hAcc>1.757921</hAcc><vAcc>0.749370</vAcc></extensions></trkpt>
      <trkpt lon="-3.053173" lat="52.704759"><ele>382.334412</ele><time>2022-01-15T10:33:37Z</time><extensions><speed>1.148396</speed><course>237.700455</course><hAcc>1.771119</hAcc><vAcc>0.748226</vAcc></extensions></trkpt>
      <trkpt lon="-3.053187" lat="52.704754"><ele>382.293549</ele><time>2022-01-15T10:33:38Z</time><extensions><speed>1.093131</speed><course>236.165222</course><hAcc>1.753396</hAcc><vAcc>0.746908</vAcc></extensions></trkpt>
      <trkpt lon="-3.053200" lat="52.704749"><ele>382.250275</ele><time>2022-01-15T10:33:39Z</time><extensions><speed>1.005587</speed><course>234.873444</course><hAcc>1.760440</hAcc><vAcc>0.745542</vAcc></extensions></trkpt>
      <trkpt lon="-3.053212" lat="52.704744"><ele>382.208557</ele><time>2022-01-15T10:33:40Z</time><extensions><speed>1.005848</speed><course>235.856796</course><hAcc>1.766408</hAcc><vAcc>0.744135</vAcc></extensions></trkpt>
      <trkpt lon="-3.053225" lat="52.704738"><ele>382.175659</ele><time>2022-01-15T10:33:40Z</time><extensions><speed>1.086793</speed><course>236.954727</course><hAcc>1.763375</hAcc><vAcc>0.742788</vAcc></extensions></trkpt>
      <trkpt lon="-3.053239" lat="52.704733"><ele>382.149200</ele><time>2022-01-15T10:33:41Z</time><extensions><speed>1.189825</speed><course>236.533508</course><hAcc>1.767115</hAcc><vAcc>0.741552</vAcc></extensions></trkpt>
      <trkpt lon="-3.053254" lat="52.704726"><ele>382.124329</ele><time>2022-01-15T10:33:42Z</time><extensions><speed>1.265813</speed><course>234.405823</course><hAcc>1.788499</hAcc><vAcc>0.740572</vAcc></extensions></trkpt>
      <trkpt lon="-3.053269" lat="52.704720"><ele>382.092926</ele><time>2022-01-15T10:33:43Z</time><extensions><speed>1.275141</speed><course>231.973923</course><hAcc>1.826168</hAcc><vAcc>0.739884</vAcc></extensions></trkpt>
      <trkpt lon="-3.053284" lat="52.704712"><ele>382.043091</ele><time>2022-01-15T10:33:44Z</time><extensions><speed>1.289569</speed><course>230.708542</course><hAcc>1.824245</hAcc><vAcc>0.739525</vAcc></extensions></trkpt>
      <trkpt lon="-3.053299" lat="52.704705"><ele>381.989502</ele><time>2022-01-15T10:33:45Z</time><extensions><speed>1.237202</speed><course>229.923416</course><hAcc>1.801278</hAcc><vAcc>0.739464</vAcc></extensions></trkpt>
      <trkpt lon="-3.053312" lat="52.704698"><ele>381.935669</ele><time>2022-01-15T10:33:46Z</time><extensions><speed>1.146317</speed><course>230.148148</course><hAcc>1.788669</hAcc><vAcc>0.739690</vAcc></extensions></trkpt>
      <trkpt lon="-3.053325" lat="52.704692"><ele>381.872986</ele><time>2022-01-15T10:33:47Z</time><extensions><speed>1.084780</speed><course>232.501068</course><hAcc>1.794077</hAcc><vAcc>0.740196</vAcc></extensions></trkpt>
      <trkpt lon="-3.053338" lat="52.704686"><ele>381.818878</ele><time>2022-01-15T10:33:48Z</time><extensions><speed>1.058066</speed><course>236.852371</course><hAcc>1.784895</hAcc><vAcc>0.740929</vAcc></extensions></trkpt>
      <trkpt lon="-3.053351" lat="52.704681"><ele>381.742615</ele><time>2022-01-15T10:33:49Z</time><extensions><speed>1.080237</speed><course>238.236679</course><hAcc>1.762139</hAcc><vAcc>0.741736</vAcc></extensions></trkpt>
      <trkpt lon="-3.053365" lat="52.704676"><ele>381.660919</ele><time>2022-01-15T10:33:50Z</time><extensions><speed>1.085919</speed><course>236.777573</course><hAcc>1.756292</hAcc><vAcc>0.742549</vAcc></extensions></trkpt>
      <trkpt lon="-3.053378" lat="52.704671"><ele>381.564423</ele><time>2022-01-15T10:33:51Z</time><extensions><speed>1.076405</speed><course>234.717850</course><hAcc>1.749100</hAcc><vAcc>0.743273</vAcc></extensions></trkpt>
      <trkpt lon="-3.053391" lat="52.704665"><ele>381.453888</ele><time>2022-01-15T10:33:52Z</time><extensions><speed>1.038672</speed><course>232.358383</course><hAcc>1.743360</hAcc><vAcc>0.743852</vAcc></extensions></trkpt>
      <trkpt lon="-3.053403" lat="52.704659"><ele>381.337891</ele><time>2022-01-15T10:33:53Z</time><extensions><speed>0.999732</speed><course>231.730545</course><hAcc>1.731117</hAcc><vAcc>0.744414</vAcc></extensions></trkpt>
      <trkpt lon="-3.053415" lat="52.704653"><ele>381.229340</ele><time>2022-01-15T10:33:54Z</time><extensions><speed>1.054048</speed><course>232.174698</course><hAcc>1.700617</hAcc><vAcc>0.744929</vAcc></extensions></trkpt>
      <trkpt lon="-3.053427" lat="52.704648"><ele>381.109344</ele><time>2022-01-15T10:33:55Z</time><extensions><speed>1.106159</speed><course>232.492447</course><hAcc>1.698277</hAcc><vAcc>0.745478</vAcc></extensions></trkpt>
      <trkpt lon="-3.053440" lat="52.704641"><ele>380.997375</ele><time>2022-01-15T10:33:56Z</time><extensions><speed>1.099916</speed><course>231.987625</course><hAcc>1.743208</hAcc><vAcc>0.746045</vAcc></extensions></trkpt>
      <trkpt lon="-3.053453" lat="52.704635"><ele>380.860779</ele><time>2022-01-15T10:33:57Z</time><extensions><speed>1.054135</speed><course>231.606232</course><hAcc>1.791810</hAcc><vAcc>0.746544</vAcc></extensions></trkpt>
      <trkpt lon="-3.053465" lat="52.704630"><ele>380.706818</ele><time>2022-01-15T10:33:58Z</time><extensions><speed>0.976024</speed><course>232.521133</course><hAcc>1.743228</hAcc><vAcc>0.746835</vAcc></extensions></trkpt>
      <trkpt lon="-3.053476" lat="52.704625"><ele>380.526947</ele><time>2022-01-15T10:33:59Z</time><extensions><speed>0.898854</speed><course>230.677795</course><hAcc>1.721414</hAcc><vAcc>0.746964</vAcc></extensions></trkpt>
      <trkpt lon="-3.053486" lat="52.704619"><ele>380.373871</ele><time>2022-01-15T10:34:00Z</time><extensions><speed>0.902647</speed><course>226.609604</course><hAcc>1.747716</hAcc><vAcc>0.746534</vAcc></extensions></trkpt>
      <trkpt lon="-3.053495" lat="52.704613"><ele>380.214813</ele><time>2022-01-15T10:34:01Z</time><extensions><speed>0.967875</speed><course>221.719788</course><hAcc>1.775413</hAcc><vAcc>0.746045</vAcc></extensions></trkpt>
      <trkpt lon="-3.053505" lat="52.704606"><ele>380.061859</ele><time>2022-01-15T10:34:02Z</time><extensions><speed>1.057664</speed><course>219.666214</course><hAcc>1.796775</hAcc><vAcc>0.745042</vAcc></extensions></trkpt>
      <trkpt lon="-3.053516" lat="52.704599"><ele>379.905518</ele><time>2022-01-15T10:34:03Z</time><extensions><speed>1.121044</speed><course>220.612015</course><hAcc>1.820618</hAcc><vAcc>0.743928</vAcc></extensions></trkpt>
      <trkpt lon="-3.053527" lat="52.704591"><ele>379.747498</ele><time>2022-01-15T10:34:04Z</time><extensions><speed>1.213125</speed><course>222.267395</course><hAcc>1.831545</hAcc><vAcc>0.742530</vAcc></extensions></trkpt>
      <trkpt lon="-3.053540" lat="52.704583"><ele>379.583221</ele><time>2022-01-15T10:34:05Z</time><extensions><speed>1.279181</speed><course>223.779816</course><hAcc>1.829734</hAcc><vAcc>0.740901</vAcc></extensions></trkpt>
      <trkpt lon="-3.053553" lat="52.704574"><ele>379.408020</ele><time>2022-01-15T10:34:06Z</time><extensions><speed>1.342098</speed><course>225.561264</course><hAcc>1.824011</hAcc><vAcc>0.739207</vAcc></extensions></trkpt>
      <trkpt lon="-3.053568" lat="52.704566"><ele>379.231232</ele><time>2022-01-15T10:34:07Z</time><extensions><speed>1.379568</speed><course>227.967438</course><hAcc>1.835327</hAcc><vAcc>0.737700</vAcc></extensions></trkpt>
      <trkpt lon="-3.053583" lat="52.704558"><ele>379.046082</ele><time>2022-01-15T10:34:08Z</time><extensions><speed>1.361906</speed><course>231.585678</course><hAcc>1.860381</hAcc><vAcc>0.736664</vAcc></extensions></trkpt>
      <trkpt lon="-3.053600" lat="52.704551"><ele>378.863495</ele><time>2022-01-15T10:34:09Z</time><extensions><speed>1.323341</speed><course>236.204010</course><hAcc>1.882147</hAcc><vAcc>0.736418</vAcc></extensions></trkpt>
      <trkpt lon="-3.053616" lat="52.704545"><ele>378.683716</ele><time>2022-01-15T10:34:10Z</time><extensions><speed>1.321594</speed><course>239.993851</course><hAcc>1.890573</hAcc><vAcc>0.737274</vAcc></extensions></trkpt>
      <trkpt lon="-3.053633" lat="52.704539"><ele>378.507141</ele><time>2022-01-15T10:34:11Z</time><extensions><speed>1.306971</speed><course>243.740509</course><hAcc>1.895304</hAcc><vAcc>0.739352</vAcc></extensions></trkpt>
      <trkpt lon="-3.053651" lat="52.704535"><ele>378.325256</ele><time>2022-01-15T10:34:12Z</time><extensions><speed>1.279781</speed><course>252.944519</course><hAcc>1.882331</hAcc><vAcc>0.742528</vAcc></extensions></trkpt>
      <trkpt lon="-3.053669" lat="52.704532"><ele>378.133209</ele><time>2022-01-15T10:34:13Z</time><extensions><speed>1.241850</speed><course>263.490662</course><hAcc>1.867589</hAcc><vAcc>0.746378</vAcc></extensions></trkpt>
      <trkpt lon="-3.053687" lat="52.704532"><ele>377.938843</ele><time>2022-01-15T10:34:14Z</time><extensions><speed>1.129700</speed><course>269.365448</course><hAcc>1.849994</hAcc><vAcc>0.750664</vAcc></extensions></trkpt>
      <trkpt lon="-3.053701" lat="52.704532"><ele>377.745636</ele><time>2022-01-15T10:34:15Z</time><extensions><speed>0.863885</speed><course>275.718689</course><hAcc>1.835456</hAcc><vAcc>0.754919</vAcc></extensions></trkpt>
      <trkpt lon="-3.053711" lat="52.704533"><ele>377.562042</ele><time>2022-01-15T10:34:16Z</time><extensions><speed>0.538215</speed><course>281.487976</course><hAcc>1.824155</hAcc><vAcc>0.758811</vAcc></extensions></trkpt>
      <trkpt lon="-3.053717" lat="52.704534"><ele>377.387970</ele><time>2022-01-15T10:34:17Z</time><extensions><speed>0.259366</speed><course>292.569916</course><hAcc>1.811845</hAcc><vAcc>0.762096</vAcc></extensions></trkpt>
      <trkpt lon="-3.053719" lat="52.704535"><ele>377.222168</ele><time>2022-01-15T10:34:18Z</time><extensions><speed>0.069706</speed><course>352.975250</course><hAcc>1.812210</hAcc><vAcc>0.764741</vAcc></extensions></trkpt>
      <trkpt lon="-3.053718" lat="52.704535"><ele>377.065094</ele><time>2022-01-15T10:34:19Z</time><extensions><speed>0.101738</speed><course>59.399364</course><hAcc>1.812719</hAcc><vAcc>0.766738</vAcc></extensions></trkpt>
      <trkpt lon="-3.053717" lat="52.704536"><ele>376.924072</ele><time>2022-01-15T10:34:20Z</time><extensions><speed>0.129222</speed><course>68.955055</course><hAcc>1.813388</hAcc><vAcc>0.768167</vAcc></extensions></trkpt>
      <trkpt lon="-3.053715" lat="52.704536"><ele>376.794067</ele><time>2022-01-15T10:34:21Z</time><extensions><speed>0.131872</speed><course>68.546577</course><hAcc>1.818678</hAcc><vAcc>0.769112</vAcc></extensions></trkpt>
      <trkpt lon="-3.053713" lat="52.704537"><ele>376.676544</ele><time>2022-01-15T10:34:22Z</time><extensions><speed>0.125103</speed><course>63.473747</course><hAcc>1.820834</hAcc><vAcc>0.769726</vAcc></extensions></trkpt>
      <trkpt lon="-3.053712" lat="52.704537"><ele>376.566711</ele><time>2022-01-15T10:34:23Z</time><extensions><speed>0.113831</speed><course>58.150387</course><hAcc>1.815768</hAcc><vAcc>0.770128</vAcc></extensions></trkpt>
      <trkpt lon="-3.053710" lat="52.704538"><ele>376.472015</ele><time>2022-01-15T10:34:24Z</time><extensions><speed>0.086957</speed><course>61.214222</course><hAcc>1.815741</hAcc><vAcc>0.770562</vAcc></extensions></trkpt>
      <trkpt lon="-3.053709" lat="52.704538"><ele>376.387878</ele><time>2022-01-15T10:34:25Z</time><extensions><speed>0.056808</speed><course>83.481628</course><hAcc>1.822513</hAcc><vAcc>0.771064</vAcc></extensions></trkpt>
      <trkpt lon="-3.053709" lat="52.704538"><ele>376.321533</ele><time>2022-01-15T10:34:26Z</time><extensions><speed>0.056042</speed><course>113.262245</course><hAcc>1.826731</hAcc><vAcc>0.771672</vAcc></extensions></trkpt>
      <trkpt lon="-3.053708" lat="52.704537"><ele>376.268768</ele><time>2022-01-15T10:34:27Z</time><extensions><speed>0.076482</speed><course>117.425354</course><hAcc>1.818091</hAcc><vAcc>0.772466</vAcc></extensions></trkpt>
      <trkpt lon="-3.053707" lat="52.704537"><ele>376.227020</ele><time>2022-01-15T10:34:28Z</time><extensions><speed>0.094907</speed><course>112.812515</course><hAcc>1.815713</hAcc><vAcc>0.773437</vAcc></extensions></trkpt>
      <trkpt lon="-3.053705" lat="52.704537"><ele>376.193085</ele><time>2022-01-15T10:34:29Z</time><extensions><speed>0.103258</speed><course>111.484077</course><hAcc>1.815329</hAcc><vAcc>0.774481</vAcc></extensions></trkpt>
      <trkpt lon="-3.053704" lat="52.704536"><ele>376.167236</ele><time>2022-01-15T10:34:30Z</time><extensions><speed>0.094311</speed><course>112.902557</course><hAcc>1.815276</hAcc><vAcc>0.775534</vAcc></extensions></trkpt>
      <trkpt lon="-3.053703" lat="52.704536"><ele>376.148224</ele><time>2022-01-15T10:34:31Z</time><extensions><speed>0.073938</speed><course>112.984146</course><hAcc>1.812787</hAcc><vAcc>0.776545</vAcc></extensions></trkpt>
      <trkpt lon="-3.053702" lat="52.704536"><ele>376.134949</ele><time>2022-01-15T10:34:32Z</time><extensions><speed>0.037535</speed><course>112.272606</course><hAcc>1.814173</hAcc><vAcc>0.777477</vAcc></extensions></trkpt>
      <trkpt lon="-3.053702" lat="52.704536"><ele>376.126587</ele><time>2022-01-15T10:34:33Z</time><extensions><speed>0.003699</speed><course>280.836090</course><hAcc>1.815577</hAcc><vAcc>0.778283</vAcc></extensions></trkpt>
      <trkpt lon="-3.053702" lat="52.704536"><ele>376.115631</ele><time>2022-01-15T10:34:34Z</time><extensions><speed>0.033737</speed><course>297.675140</course><hAcc>1.814235</hAcc><vAcc>0.778944</vAcc></extensions></trkpt>
      <trkpt lon="-3.053702" lat="52.704536"><ele>376.099243</ele><time>2022-01-15T10:34:35Z</time><extensions><speed>0.047604</speed><course>313.884399</course><hAcc>1.813209</hAcc><vAcc>0.779394</vAcc></extensions></trkpt>
      <trkpt lon="-3.053703" lat="52.704537"><ele>376.072937</ele><time>2022-01-15T10:34:36Z</time><extensions><speed>0.050420</speed><course>324.389038</course><hAcc>1.816242</hAcc><vAcc>0.779614</vAcc></extensions></trkpt>
      <trkpt lon="-3.053703" lat="52.704537"><ele>376.055420</ele><time>2022-01-15T10:34:37Z</time><extensions><speed>0.045900</speed><course>317.670105</course><hAcc>1.815493</hAcc><vAcc>0.779691</vAcc></extensions></trkpt>
      <trkpt lon="-3.053704" lat="52.704537"><ele>376.022125</ele><time>2022-01-15T10:34:38Z</time><extensions><speed>0.032724</speed><course>305.418396</course><hAcc>1.812790</hAcc><vAcc>0.779614</vAcc></extensions></trkpt>
      <trkpt lon="-3.053704" lat="52.704537"><ele>375.983246</ele><time>2022-01-15T10:34:39Z</time><extensions><speed>0.008188</speed><course>264.209381</course><hAcc>1.810781</hAcc><vAcc>0.779239</vAcc></extensions></trkpt>
      <trkpt lon="-3.053704" lat="52.704537"><ele>375.976288</ele><time>2022-01-15T10:34:40Z</time><extensions><speed>0.035309</speed><course>136.686691</course><hAcc>1.811024</hAcc><vAcc>0.778687</vAcc></extensions></trkpt>
      <trkpt lon="-3.053703" lat="52.704537"><ele>375.945282</ele><time>2022-01-15T10:34:41Z</time><extensions><speed>0.086967</speed><course>131.050888</course><hAcc>1.810738</hAcc><vAcc>0.777896</vAcc></extensions></trkpt>
      <trkpt lon="-3.053702" lat="52.704536"><ele>375.937408</ele><time>2022-01-15T10:34:42Z</time><extensions><speed>0.148346</speed><course>130.387650</course><hAcc>1.812741</hAcc><vAcc>0.776754</vAcc></extensions></trkpt>
      <trkpt lon="-3.053700" lat="52.704535"><ele>375.906494</ele><time>2022-01-15T10:34:44Z</time><extensions><speed>0.213071</speed><course>131.348434</course><hAcc>1.820406</hAcc><vAcc>0.775213</vAcc></extensions></trkpt>
      <trkpt lon="-3.053697" lat="52.704533"><ele>375.851105</ele><time>2022-01-15T10:34:45Z</time><extensions><speed>0.279879</speed><course>133.733765</course><hAcc>1.824926</hAcc><vAcc>0.773173</vAcc></extensions></trkpt>
      <trkpt lon="-3.053694" lat="52.704531"><ele>375.793915</ele><time>2022-01-15T10:34:46Z</time><extensions><speed>0.345893</speed><course>136.823822</course><hAcc>1.823841</hAcc><vAcc>0.770606</vAcc></extensions></trkpt>
      <trkpt lon="-3.053690" lat="52.704529"><ele>375.730438</ele><time>2022-01-15T10:34:47Z</time><extensions><speed>0.387692</speed><course>140.918915</course><hAcc>1.827494</hAcc><vAcc>0.767607</vAcc></extensions></trkpt>
      <trkpt lon="-3.053687" lat="52.704526"><ele>375.681793</ele><time>2022-01-15T10:34:48Z</time><extensions><speed>0.387530</speed><course>148.167542</course><hAcc>1.840081</hAcc><vAcc>0.764219</vAcc></extensions></trkpt>
      <trkpt lon="-3.053685" lat="52.704523"><ele>375.633728</ele><time>2022-01-15T10:34:49Z</time><extensions><speed>0.397325</speed><course>162.208252</course><hAcc>1.847030</hAcc><vAcc>0.760531</vAcc></extensions></trkpt>
      <trkpt lon="-3.053684" lat="52.704519"><ele>375.589600</ele><time>2022-01-15T10:34:50Z</time><extensions><speed>0.485534</speed><course>181.778473</course><hAcc>1.843394</hAcc><vAcc>0.756618</vAcc></extensions></trkpt>
      <trkpt lon="-3.053686" lat="52.704514"><ele>375.547363</ele><time>2022-01-15T10:34:51Z</time><extensions><speed>0.661007</speed><course>200.474121</course><hAcc>1.845192</hAcc><vAcc>0.752556</vAcc></extensions></trkpt>
      <trkpt lon="-3.053691" lat="52.704508"><ele>375.501038</ele><time>2022-01-15T10:34:52Z</time><extensions><speed>0.824083</speed><course>215.575546</course><hAcc>1.853590</hAcc><vAcc>0.748513</vAcc></extensions></trkpt>
      <trkpt lon="-3.053700" lat="52.704502"><ele>375.460236</ele><time>2022-01-15T10:34:53Z</time><extensions><speed>0.937782</speed><course>227.028000</course><hAcc>1.866414</hAcc><vAcc>0.744638</vAcc></extensions></trkpt>
      <trkpt lon="-3.053711" lat="52.704497"><ele>375.417053</ele><time>2022-01-15T10:34:54Z</time><extensions><speed>0.985059</speed><course>234.910202</course><hAcc>1.876816</hAcc><vAcc>0.741173</vAcc></extensions></trkpt>
      <trkpt lon="-3.053723" lat="52.704492"><ele>375.379761</ele><time>2022-01-15T10:34:55Z</time><extensions><speed>0.965365</speed><course>238.560196</course><hAcc>1.887663</hAcc><vAcc>0.738385</vAcc></extensions></trkpt>
      <trkpt lon="-3.053735" lat="52.704488"><ele>375.346954</ele><time>2022-01-15T10:34:56Z</time><extensions><speed>0.939194</speed><course>239.686279</course><hAcc>1.894954</hAcc><vAcc>0.736488</vAcc></extensions></trkpt>
      <trkpt lon="-3.053747" lat="52.704483"><ele>375.323669</ele><time>2022-01-15T10:34:57Z</time><extensions><speed>0.944025</speed><course>238.904892</course><hAcc>1.896761</hAcc><vAcc>0.735676</vAcc></extensions></trkpt>
      <trkpt lon="-3.053759" lat="52.704479"><ele>375.299744</ele><time>2022-01-15T10:34:58Z</time><extensions><speed>0.970128</speed><course>237.322357</course><hAcc>1.890882</hAcc><vAcc>0.736022</vAcc></extensions></trkpt>
      <trkpt lon="-3.053771" lat="52.704474"><ele>375.283813</ele><time>2022-01-15T10:34:59Z</time><extensions><speed>0.924672</speed><course>236.855667</course><hAcc>1.894013</hAcc><vAcc>0.737486</vAcc></extensions></trkpt>
      <trkpt lon="-3.053782" lat="52.704470"><ele>375.271606</ele><time>2022-01-15T10:35:00Z</time><extensions><speed>0.817679</speed><course>236.961731</course><hAcc>1.890997</hAcc><vAcc>0.739986</vAcc></extensions></trkpt>
      <trkpt lon="-3.053790" lat="52.704466"><ele>375.263824</ele><time>2022-01-15T10:35:01Z</time><extensions><speed>0.639786</speed><course>234.949249</course><hAcc>1.878691</hAcc><vAcc>0.743221</vAcc></extensions></trkpt>
      <trkpt lon="-3.053797" lat="52.704463"><ele>375.256805</ele><time>2022-01-15T10:35:02Z</time><extensions><speed>0.418472</speed><course>230.199265</course><hAcc>1.871715</hAcc><vAcc>0.746876</vAcc></extensions></trkpt>
      <trkpt lon="-3.053801" lat="52.704461"><ele>375.251862</ele><time>2022-01-15T10:35:03Z</time><extensions><speed>0.312066</speed><course>226.828323</course><hAcc>1.856306</hAcc><vAcc>0.750759</vAcc></extensions></trkpt>
      <trkpt lon="-3.053804" lat="52.704459"><ele>375.248505</ele><time>2022-01-15T10:35:04Z</time><extensions><speed>0.239351</speed><course>226.125748</course><hAcc>1.849131</hAcc><vAcc>0.754666</vAcc></extensions></trkpt>
      <trkpt lon="-3.053806" lat="52.704458"><ele>375.246399</ele><time>2022-01-15T10:35:05Z</time><extensions><speed>0.183793</speed><course>230.005035</course><hAcc>1.853568</hAcc><vAcc>0.758445</vAcc></extensions></trkpt>
      <trkpt lon="-3.053808" lat="52.704457"><ele>375.245178</ele><time>2022-01-15T10:35:06Z</time><extensions><speed>0.174115</speed><course>239.064331</course><hAcc>1.842536</hAcc><vAcc>0.761997</vAcc></extensions></trkpt>
      <trkpt lon="-3.053811" lat="52.704456"><ele>375.244476</ele><time>2022-01-15T10:35:07Z</time><extensions><speed>0.175059</speed><course>247.056564</course><hAcc>1.829719</hAcc><vAcc>0.765282</vAcc></extensions></trkpt>
      <trkpt lon="-3.053813" lat="52.704456"><ele>375.247528</ele><time>2022-01-15T10:35:08Z</time><extensions><speed>0.158435</speed><course>248.763824</course><hAcc>1.828964</hAcc><vAcc>0.768192</vAcc></extensions></trkpt>
      <trkpt lon="-3.053815" lat="52.704455"><ele>375.252747</ele><time>2022-01-15T10:35:09Z</time><extensions><speed>0.135976</speed><course>243.992554</course><hAcc>1.826438</hAcc><vAcc>0.770715</vAcc></extensions></trkpt>
      <trkpt lon="-3.053817" lat="52.704455"><ele>375.258942</ele><time>2022-01-15T10:35:10Z</time><extensions><speed>0.115516</speed><course>235.602463</course><hAcc>1.819277</hAcc><vAcc>0.773023</vAcc></extensions></trkpt>
      <trkpt lon="-3.053818" lat="52.704454"><ele>375.265961</ele><time>2022-01-15T10:35:11Z</time><extensions><speed>0.100049</speed><course>226.916733</course><hAcc>1.814913</hAcc><vAcc>0.775106</vAcc></extensions></trkpt>
      <trkpt lon="-3.053819" lat="52.704453"><ele>375.273804</ele><time>2022-01-15T10:35:12Z</time><extensions><speed>0.098026</speed><course>221.559113</course><hAcc>1.807303</hAcc><vAcc>0.776952</vAcc></extensions></trkpt>
      <trkpt lon="-3.053820" lat="52.704453"><ele>375.282410</ele><time>2022-01-15T10:35:13Z</time><extensions><speed>0.097662</speed><course>221.532501</course><hAcc>1.808339</hAcc><vAcc>0.778602</vAcc></extensions></trkpt>
      <trkpt lon="-3.053821" lat="52.704452"><ele>375.291809</ele><time>2022-01-15T10:35:14Z</time><extensions><speed>0.110966</speed><course>224.053772</course><hAcc>1.807115</hAcc><vAcc>0.780082</vAcc></extensions></trkpt>
      <trkpt lon="-3.053822" lat="52.704451"><ele>375.289978</ele><time>2022-01-15T10:35:15Z</time><extensions><speed>0.140809</speed><course>226.830551</course><hAcc>1.802827</hAcc><vAcc>0.781401</vAcc></extensions></trkpt>
      <trkpt lon="-3.053824" lat="52.704450"><ele>375.290100</ele><time>2022-01-15T10:35:16Z</time><extensions><speed>0.179133</speed><course>229.163727</course><hAcc>1.801811</hAcc><vAcc>0.782570</vAcc></extensions></trkpt>
      <trkpt lon="-3.053826" lat="52.704449"><ele>375.283447</ele><time>2022-01-15T10:35:17Z</time><extensions><speed>0.224358</speed><course>231.388626</course><hAcc>1.792622</hAcc><vAcc>0.783640</vAcc></extensions></trkpt>
      <trkpt lon="-3.053829" lat="52.704448"><ele>375.277588</ele><time>2022-01-15T10:35:18Z</time><extensions><speed>0.242258</speed><course>234.776276</course><hAcc>1.778180</hAcc><vAcc>0.784645</vAcc></extensions></trkpt>
      <trkpt lon="-3.053832" lat="52.704447"><ele>375.268433</ele><time>2022-01-15T10:35:19Z</time><extensions><speed>0.205132</speed><course>238.291122</course><hAcc>1.776874</hAcc><vAcc>0.785609</vAcc></extensions></trkpt>
      <trkpt lon="-3.053834" lat="52.704446"><ele>375.258881</ele><time>2022-01-15T10:35:20Z</time><extensions><speed>0.145001</speed><course>240.461884</course><hAcc>1.787479</hAcc><vAcc>0.786458</vAcc></extensions></trkpt>
      <trkpt lon="-3.053836" lat="52.704445"><ele>375.247437</ele><time>2022-01-15T10:35:21Z</time><extensions><speed>0.099325</speed><course>242.361069</course><hAcc>1.789584</hAcc><vAcc>0.787341</vAcc></extensions></trkpt>
      <trkpt lon="-3.053837" lat="52.704445"><ele>375.232178</ele><time>2022-01-15T10:35:22Z</time><extensions><speed>0.070346</speed><course>245.034729</course><hAcc>1.784760</hAcc><vAcc>0.788021</vAcc></extensions></trkpt>
      <trkpt lon="-3.053838" lat="52.704445"><ele>375.214172</ele><time>2022-01-15T10:35:23Z</time><extensions><speed>0.050425</speed><course>250.857132</course><hAcc>1.788268</hAcc><vAcc>0.788664</vAcc></extensions></trkpt>
      <trkpt lon="-3.053838" lat="52.704445"><ele>375.194366</ele><time>2022-01-15T10:35:24Z</time><extensions><speed>0.039396</speed><course>263.490051</course><hAcc>1.793503</hAcc><vAcc>0.789238</vAcc></extensions></trkpt>
      <trkpt lon="-3.053839" lat="52.704445"><ele>375.173981</ele><time>2022-01-15T10:35:25Z</time><extensions><speed>0.039973</speed><course>285.654510</course><hAcc>1.784653</hAcc><vAcc>0.789698</vAcc></extensions></trkpt>
      <trkpt lon="-3.053839" lat="52.704445"><ele>375.156067</ele><time>2022-01-15T10:35:26Z</time><extensions><speed>0.047748</speed><course>307.708954</course><hAcc>1.786543</hAcc><vAcc>0.790023</vAcc></extensions></trkpt>
      <trkpt lon="-3.053840" lat="52.704445"><ele>375.138916</ele><time>2022-01-15T10:35:27Z</time><extensions><speed>0.059472</speed><course>313.387207</course><hAcc>1.792807</hAcc><vAcc>0.790238</vAcc></extensions></trkpt>
      <trkpt lon="-3.053841" lat="52.704446"><ele>375.123016</ele><time>2022-01-15T10:35:28Z</time><extensions><speed>0.066735</speed><course>311.002747</course><hAcc>1.791595</hAcc><vAcc>0.790393</vAcc></extensions></trkpt>
      <trkpt lon="-3.053841" lat="52.704446"><ele>375.108765</ele><time>2022-01-15T10:35:29Z</time><extensions><speed>0.067441</speed><course>315.610596</course><hAcc>1.784562</hAcc><vAcc>0.790526</vAcc></extensions></trkpt>
      <trkpt lon="-3.053842" lat="52.704447"><ele>375.096344</ele><time>2022-01-15T10:35:30Z</time><extensions><speed>0.071055</speed><course>327.996887</course><hAcc>1.771764</hAcc><vAcc>0.790700</vAcc></extensions></trkpt>
      <trkpt lon="-3.053842" lat="52.704447"><ele>375.085876</ele><time>2022-01-15T10:35:31Z</time><extensions><speed>0.076424</speed><course>341.375549</course><hAcc>1.760876</hAcc><vAcc>0.790966</vAcc></extensions></trkpt>
      <trkpt lon="-3.053843" lat="52.704448"><ele>375.077393</ele><time>2022-01-15T10:35:32Z</time><extensions><speed>0.081629</speed><course>351.674469</course><hAcc>1.754309</hAcc><vAcc>0.791356</vAcc></extensions></trkpt>
      <trkpt lon="-3.053843" lat="52.704449"><ele>375.070892</ele><time>2022-01-15T10:35:33Z</time><extensions><speed>0.061025</speed><course>6.520854</course><hAcc>1.780258</hAcc><vAcc>0.791895</vAcc></extensions></trkpt>
      <trkpt lon="-3.053842" lat="52.704449"><ele>375.067108</ele><time>2022-01-15T10:35:34Z</time><extensions><speed>0.065546</speed><course>28.899651</course><hAcc>1.770532</hAcc><vAcc>0.792529</vAcc></extensions></trkpt>
      <trkpt lon="-3.053842" lat="52.704450"><ele>375.061829</ele><time>2022-01-15T10:35:35Z</time><extensions><speed>0.079580</speed><course>40.291561</course><hAcc>1.739202</hAcc><vAcc>0.793245</vAcc></extensions></trkpt>
      <trkpt lon="-3.053841" lat="52.704450"><ele>375.061646</ele><time>2022-01-15T10:35:36Z</time><extensions><speed>0.072451</speed><course>44.379795</course><hAcc>1.733318</hAcc><vAcc>0.793981</vAcc></extensions></trkpt>
      <trkpt lon="-3.053840" lat="52.704451"><ele>375.057098</ele><time>2022-01-15T10:35:37Z</time><extensions><speed>0.059650</speed><course>47.468987</course><hAcc>1.740769</hAcc><vAcc>0.794665</vAcc></extensions></trkpt>
      <trkpt lon="-3.053840" lat="52.704451"><ele>375.050537</ele><time>2022-01-15T10:35:38Z</time><extensions><speed>0.046849</speed><course>50.984467</course><hAcc>1.748823</hAcc><vAcc>0.795319</vAcc></extensions></trkpt>
      <trkpt lon="-3.053839" lat="52.704451"><ele>375.038971</ele><time>2022-01-15T10:35:39Z</time><extensions><speed>0.036675</speed><course>55.332413</course><hAcc>1.754740</hAcc><vAcc>0.795809</vAcc></extensions></trkpt>
      <trkpt lon="-3.053839" lat="52.704451"><ele>375.035095</ele><time>2022-01-15T10:35:40Z</time><extensions><speed>0.029820</speed><course>60.664089</course><hAcc>1.759495</hAcc><vAcc>0.796110</vAcc></extensions></trkpt>
      <trkpt lon="-3.053839" lat="52.704451"><ele>375.031799</ele><time>2022-01-15T10:35:41Z</time><extensions><speed>0.023208</speed><course>66.686409</course><hAcc>1.769953</hAcc><vAcc>0.796265</vAcc></extensions></trkpt>
      <trkpt lon="-3.053838" lat="52.704451"><ele>375.028473</ele><time>2022-01-15T10:35:42Z</time><extensions><speed>0.016496</speed><course>74.589455</course><hAcc>1.769396</hAcc><vAcc>0.796236</vAcc></extensions></trkpt>
      <trkpt lon="-3.053838" lat="52.704451"><ele>375.025085</ele><time>2022-01-15T10:35:42Z</time><extensions><speed>0.004712</speed><course>201.343506</course><hAcc>1.773893</hAcc><vAcc>0.795991</vAcc></extensions></trkpt>
      <trkpt lon="-3.053839" lat="52.704451"><ele>375.021698</ele><time>2022-01-15T10:35:43Z</time><extensions><speed>0.052429</speed><course>244.112091</course><hAcc>1.771310</hAcc><vAcc>0.795508</vAcc></extensions></trkpt>
      <trkpt lon="-3.053840" lat="52.704451"><ele>375.018341</ele><time>2022-01-15T10:35:45Z</time><extensions><speed>0.120664</speed><course>245.182693</course><hAcc>1.778432</hAcc><vAcc>0.794784</vAcc></extensions></trkpt>
      <trkpt lon="-3.053842" lat="52.704450"><ele>375.015228</ele><time>2022-01-15T10:35:46Z</time><extensions><speed>0.177551</speed><course>243.584335</course><hAcc>1.791314</hAcc><vAcc>0.793879</vAcc></extensions></trkpt>
      <trkpt lon="-3.053844" lat="52.704450"><ele>375.012543</ele><time>2022-01-15T10:35:46Z</time><extensions><speed>0.211437</speed><course>241.921158</course><hAcc>1.802796</hAcc><vAcc>0.792857</vAcc></extensions></trkpt>
      <trkpt lon="-3.053847" lat="52.704449"><ele>375.010590</ele><time>2022-01-15T10:35:47Z</time><extensions><speed>0.219527</speed><course>240.702911</course><hAcc>1.811070</hAcc><vAcc>0.791737</vAcc></extensions></trkpt>
      <trkpt lon="-3.053850" lat="52.704448"><ele>375.007660</ele><time>2022-01-15T10:35:48Z</time><extensions><speed>0.219029</speed><course>239.740936</course><hAcc>1.808800</hAcc><vAcc>0.790546</vAcc></extensions></trkpt>
      <trkpt lon="-3.053853" lat="52.704447"><ele>374.997253</ele><time>2022-01-15T10:35:49Z</time><extensions><speed>0.196229</speed><course>239.508926</course><hAcc>1.803473</hAcc><vAcc>0.789413</vAcc></extensions></trkpt>
      <trkpt lon="-3.053855" lat="52.704446"><ele>374.982361</ele><time>2022-01-15T10:35:50Z</time><extensions><speed>0.155810</speed><course>240.534760</course><hAcc>1.802075</hAcc><vAcc>0.788418</vAcc></extensions></trkpt>
      <trkpt lon="-3.053857" lat="52.704445"><ele>374.958527</ele><time>2022-01-15T10:35:51Z</time><extensions><speed>0.121426</speed><course>243.594482</course><hAcc>1.800229</hAcc><vAcc>0.787554</vAcc></extensions></trkpt>
      <trkpt lon="-3.053858" lat="52.704445"><ele>374.943665</ele><time>2022-01-15T10:35:52Z</time><extensions><speed>0.100939</speed><course>249.479843</course><hAcc>1.797393</hAcc><vAcc>0.786783</vAcc></extensions></trkpt>
      <trkpt lon="-3.053860" lat="52.704445"><ele>374.912384</ele><time>2022-01-15T10:35:53Z</time><extensions><speed>0.098329</speed><course>257.019043</course><hAcc>1.791446</hAcc><vAcc>0.786223</vAcc></extensions></trkpt>
      <trkpt lon="-3.053861" lat="52.704445"><ele>374.881927</ele><time>2022-01-15T10:35:55Z</time><extensions><speed>0.112230</speed><course>264.112885</course><hAcc>1.786521</hAcc><vAcc>0.785816</vAcc></extensions></trkpt>
      <trkpt lon="-3.053863" lat="52.704445"><ele>374.841095</ele><time>2022-01-15T10:35:56Z</time><extensions><speed>0.137379</speed><course>269.763184</course><hAcc>1.789848</hAcc><vAcc>0.785519</vAcc></extensions></trkpt>
      <trkpt lon="-3.053866" lat="52.704445"><ele>374.778015</ele><time>2022-01-15T10:35:57Z</time><extensions><speed>0.172784</speed><course>274.948029</course><hAcc>1.796485</hAcc><vAcc>0.785387</vAcc></extensions></trkpt>
      <trkpt lon="-3.053869" lat="52.704445"><ele>374.726776</ele><time>2022-01-15T10:35:58Z</time><extensions><speed>0.221447</speed><course>281.065002</course><hAcc>1.795414</hAcc><vAcc>0.785362</vAcc></extensions></trkpt>
      <trkpt lon="-3.053872" lat="52.704446"><ele>374.665131</ele><time>2022-01-15T10:35:59Z</time><extensions><speed>0.255024</speed><course>291.714600</course><hAcc>1.794088</hAcc><vAcc>0.785464</vAcc></extensions></trkpt>
      <trkpt lon="-3.053875" lat="52.704447"><ele>374.590790</ele><time>2022-01-15T10:36:00Z</time><extensions><speed>0.262897</speed><course>304.423126</course><hAcc>1.803035</hAcc><vAcc>0.785707</vAcc></extensions></trkpt>
      <trkpt lon="-3.053878" lat="52.704448"><ele>374.528564</ele><time>2022-01-15T10:36:01Z</time><extensions><speed>0.266107</speed><course>312.080200</course><hAcc>1.814510</hAcc><vAcc>0.786012</vAcc></extensions></trkpt>
      <trkpt lon="-3.053881" lat="52.704450"><ele>374.437347</ele><time>2022-01-15T10:36:02Z</time><extensions><speed>0.271703</speed><course>313.693939</course><hAcc>1.818546</hAcc><vAcc>0.786359</vAcc></extensions></trkpt>
      <trkpt lon="-3.053884" lat="52.704451"><ele>374.332977</ele><time>2022-01-15T10:36:03Z</time><extensions><speed>0.272415</speed><course>312.116455</course><hAcc>1.818324</hAcc><vAcc>0.786689</vAcc></extensions></trkpt>
      <trkpt lon="-3.053887" lat="52.704453"><ele>374.223541</ele><time>2022-01-15T10:36:04Z</time><extensions><speed>0.260819</speed><course>310.535645</course><hAcc>1.820821</hAcc><vAcc>0.786987</vAcc></extensions></trkpt>
      <trkpt lon="-3.053890" lat="52.704455"><ele>374.088196</ele><time>2022-01-15T10:36:05Z</time><extensions><speed>0.251769</speed><course>310.809570</course><hAcc>1.819294</hAcc><vAcc>0.787192</vAcc></extensions></trkpt>
      <trkpt lon="-3.053893" lat="52.704456"><ele>373.977234</ele><time>2022-01-15T10:36:06Z</time><extensions><speed>0.231362</speed><course>314.217072</course><hAcc>1.819114</hAcc><vAcc>0.787320</vAcc></extensions></trkpt>
      <trkpt lon="-3.053895" lat="52.704457"><ele>373.863953</ele><time>2022-01-15T10:36:07Z</time><extensions><speed>0.202957</speed><course>320.063385</course><hAcc>1.822128</hAcc><vAcc>0.787345</vAcc></extensions></trkpt>
      <trkpt lon="-3.053897" lat="52.704459"><ele>373.758698</ele><time>2022-01-15T10:36:08Z</time><extensions><speed>0.200485</speed><course>323.851776</course><hAcc>1.814430</hAcc><vAcc>0.787264</vAcc></extensions></trkpt>
      <trkpt lon="-3.053899" lat="52.704460"><ele>373.644623</ele><time>2022-01-15T10:36:09Z</time><extensions><speed>0.206579</speed><course>320.559509</course><hAcc>1.805120</hAcc><vAcc>0.787122</vAcc></extensions></trkpt>
      <trkpt lon="-3.053901" lat="52.704462"><ele>373.537903</ele><time>2022-01-15T10:36:10Z</time><extensions><speed>0.226065</speed><course>308.306000</course><hAcc>1.784582</hAcc><vAcc>0.786808</vAcc></extensions></trkpt>
      <trkpt lon="-3.053904" lat="52.704463"><ele>373.426666</ele><time>2022-01-15T10:36:11Z</time><extensions><speed>0.288607</speed><course>295.599670</course><hAcc>1.750067</hAcc><vAcc>0.786207</vAcc></extensions></trkpt>
      <trkpt lon="-3.053907" lat="52.704464"><ele>373.329224</ele><time>2022-01-15T10:36:12Z</time><extensions><speed>0.233984</speed><course>294.321045</course><hAcc>1.749673</hAcc><vAcc>0.785296</vAcc></extensions></trkpt>
      <trkpt lon="-3.053910" lat="52.704464"><ele>373.251221</ele><time>2022-01-15T10:36:13Z</time><extensions><speed>0.097964</speed><course>282.219116</course><hAcc>1.736409</hAcc><vAcc>0.784054</vAcc></extensions></trkpt>
      <trkpt lon="-3.053910" lat="52.704464"><ele>373.173950</ele><time>2022-01-15T10:36:14Z</time><extensions><speed>0.039005</speed><course>266.593811</course><hAcc>1.686501</hAcc><vAcc>0.782593</vAcc></extensions></trkpt>
      <trkpt lon="-3.053910" lat="52.704465"><ele>373.117096</ele><time>2022-01-15T10:36:15Z</time><extensions><speed>0.005506</speed><course>43.392139</course><hAcc>1.653987</hAcc><vAcc>0.780939</vAcc></extensions></trkpt>
      <trkpt lon="-3.053910" lat="52.704465"><ele>373.074432</ele><time>2022-01-15T10:36:16Z</time><extensions><speed>0.032332</speed><course>59.811630</course><hAcc>1.661730</hAcc><vAcc>0.779226</vAcc></extensions></trkpt>
      <trkpt lon="-3.053909" lat="52.704465"><ele>373.041718</ele><time>2022-01-15T10:36:17Z</time><extensions><speed>0.059903</speed><course>63.138454</course><hAcc>1.641328</hAcc><vAcc>0.777494</vAcc></extensions></trkpt>
      <trkpt lon="-3.053908" lat="52.704465"><ele>373.025696</ele><time>2022-01-15T10:36:18Z</time><extensions><speed>0.081261</speed><course>67.445862</course><hAcc>1.622007</hAcc><vAcc>0.775835</vAcc></extensions></trkpt>
      <trkpt lon="-3.053907" lat="52.704466"><ele>373.021271</ele><time>2022-01-15T10:36:19Z</time><extensions><speed>0.102453</speed><course>71.528770</course><hAcc>1.604427</hAcc><vAcc>0.774395</vAcc></extensions></trkpt>
      <trkpt lon="-3.053905" lat="52.704466"><ele>373.102905</ele><time>2022-01-15T10:36:20Z</time><extensions><speed>0.112867</speed><course>73.516609</course><hAcc>1.596078</hAcc><vAcc>0.773130</vAcc></extensions></trkpt>
      <trkpt lon="-3.053903" lat="52.704466"><ele>373.167633</ele><time>2022-01-15T10:36:21Z</time><extensions><speed>0.132953</speed><course>74.267349</course><hAcc>1.587881</hAcc><vAcc>0.772220</vAcc></extensions></trkpt>
      <trkpt lon="-3.053901" lat="52.704467"><ele>373.242310</ele><time>2022-01-15T10:36:22Z</time><extensions><speed>0.148821</speed><course>74.323639</course><hAcc>1.584559</hAcc><vAcc>0.771702</vAcc></extensions></trkpt>
      <trkpt lon="-3.053899" lat="52.704467"><ele>373.329529</ele><time>2022-01-15T10:36:23Z</time><extensions><speed>0.165681</speed><course>72.765984</course><hAcc>1.577517</hAcc><vAcc>0.771630</vAcc></extensions></trkpt>
      <trkpt lon="-3.053896" lat="52.704467"><ele>373.423492</ele><time>2022-01-15T10:36:24Z</time><extensions><speed>0.146272</speed><course>71.157730</course><hAcc>1.578612</hAcc><vAcc>0.771990</vAcc></extensions></trkpt>
      <trkpt lon="-3.053894" lat="52.704468"><ele>373.520752</ele><time>2022-01-15T10:36:25Z</time><extensions><speed>0.133392</speed><course>72.653610</course><hAcc>1.571808</hAcc><vAcc>0.772641</vAcc></extensions></trkpt>
      <trkpt lon="-3.053893" lat="52.704468"><ele>373.622742</ele><time>2022-01-15T10:36:26Z</time><extensions><speed>0.101744</speed><course>78.267487</course><hAcc>1.592203</hAcc><vAcc>0.773526</vAcc></extensions></trkpt>
      <trkpt lon="-3.053892" lat="52.704468"><ele>373.727234</ele><time>2022-01-15T10:36:27Z</time><extensions><speed>0.054561</speed><course>83.907059</course><hAcc>1.636328</hAcc><vAcc>0.774607</vAcc></extensions></trkpt>
      <trkpt lon="-3.053891" lat="52.704468"><ele>373.824738</ele><time>2022-01-15T10:36:28Z</time><extensions><speed>0.077756</speed><course>85.189842</course><hAcc>1.622111</hAcc><vAcc>0.775757</vAcc></extensions></trkpt>
      <trkpt lon="-3.053889" lat="52.704468"><ele>373.911591</ele><time>2022-01-15T10:36:29Z</time><extensions><speed>0.092309</speed><course>84.906296</course><hAcc>1.626020</hAcc><vAcc>0.776878</vAcc></extensions></trkpt>
      <trkpt lon="-3.053888" lat="52.704468"><ele>373.987396</ele><time>2022-01-15T10:36:30Z</time><extensions><speed>0.123604</speed><course>88.206841</course><hAcc>1.632646</hAcc><vAcc>0.777915</vAcc></extensions></trkpt>
      <trkpt lon="-3.053886" lat="52.704468"><ele>374.052734</ele><time>2022-01-15T10:36:31Z</time><extensions><speed>0.110754</speed><course>97.331253</course><hAcc>1.675293</hAcc><vAcc>0.778772</vAcc></extensions></trkpt>
      <trkpt lon="-3.053885" lat="52.704468"><ele>374.120636</ele><time>2022-01-15T10:36:32Z</time><extensions><speed>0.093554</speed><course>116.636131</course><hAcc>1.709020</hAcc><vAcc>0.779199</vAcc></extensions></trkpt>
      <trkpt lon="-3.053884" lat="52.704467"><ele>374.154633</ele><time>2022-01-15T10:36:33Z</time><extensions><speed>0.083478</speed><course>144.802216</course><hAcc>1.744941</hAcc><vAcc>0.779211</vAcc></extensions></trkpt>
      <trkpt lon="-3.053883" lat="52.704467"><ele>374.171295</ele><time>2022-01-15T10:36:34Z</time><extensions><speed>0.084277</speed><course>165.930618</course><hAcc>1.773149</hAcc><vAcc>0.778794</vAcc></extensions></trkpt>
      <trkpt lon="-3.053883" lat="52.704466"><ele>374.187744</ele><time>2022-01-15T10:36:35Z</time><extensions><speed>0.100399</speed><course>176.464462</course><hAcc>1.767279</hAcc><vAcc>0.778111</vAcc></extensions></trkpt>
      <trkpt lon="-3.053883" lat="52.704465"><ele>374.191589</ele><time>2022-01-15T10:36:36Z</time><extensions><speed>0.108858</speed><course>182.242157</course><hAcc>1.767551</hAcc><vAcc>0.776992</vAcc></extensions></trkpt>
      <trkpt lon="-3.053883" lat="52.704464"><ele>374.187805</ele><time>2022-01-15T10:36:37Z</time><extensions><speed>0.114051</speed><course>185.233551</course><hAcc>1.777599</hAcc><vAcc>0.775436</vAcc></extensions></trkpt>
      <trkpt lon="-3.053883" lat="52.704463"><ele>374.166992</ele><time>2022-01-15T10:36:38Z</time><extensions><speed>0.109289</speed><course>185.079971</course><hAcc>1.796044</hAcc><vAcc>0.773673</vAcc></extensions></trkpt>
      <trkpt lon="-3.053883" lat="52.704462"><ele>374.136688</ele><time>2022-01-15T10:36:39Z</time><extensions><speed>0.097453</speed><course>184.127365</course><hAcc>1.813094</hAcc><vAcc>0.771671</vAcc></extensions></trkpt>
      <trkpt lon="-3.053884" lat="52.704461"><ele>374.103119</ele><time>2022-01-15T10:36:40Z</time><extensions><speed>0.103851</speed><course>188.562973</course><hAcc>1.807066</hAcc><vAcc>0.769525</vAcc></extensions></trkpt>
      <trkpt lon="-3.053884" lat="52.704460"><ele>374.066681</ele><time>2022-01-15T10:36:41Z</time><extensions><speed>0.118026</speed><course>196.586945</course><hAcc>1.811165</hAcc><vAcc>0.767213</vAcc></extensions></trkpt>
      <trkpt lon="-3.053885" lat="52.704459"><ele>374.029449</ele><time>2022-01-15T10:36:42Z</time><extensions><speed>0.151271</speed><course>200.005157</course><hAcc>1.822466</hAcc><vAcc>0.765002</vAcc></extensions></trkpt>
      <trkpt lon="-3.053886" lat="52.704457"><ele>373.990784</ele><time>2022-01-15T10:36:43Z</time><extensions><speed>0.202114</speed><course>202.893936</course><hAcc>1.832271</hAcc><vAcc>0.763004</vAcc></extensions></trkpt>
      <trkpt lon="-3.053887" lat="52.704455"><ele>373.953125</ele><time>2022-01-15T10:36:44Z</time><extensions><speed>0.262583</speed><course>208.755676</course><hAcc>1.843831</hAcc><vAcc>0.761383</vAcc></extensions></trkpt>
      <trkpt lon="-3.053890" lat="52.704453"><ele>373.917633</ele><time>2022-01-15T10:36:45Z</time><extensions><speed>0.319387</speed><course>214.885834</course><hAcc>1.855656</hAcc><vAcc>0.760338</vAcc></extensions></trkpt>
      <trkpt lon="-3.053893" lat="52.704451"><ele>373.879700</ele><time>2022-01-15T10:36:46Z</time><extensions><speed>0.368830</speed><course>220.047226</course><hAcc>1.857311</hAcc><vAcc>0.759933</vAcc></extensions></trkpt>
      <trkpt lon="-3.053897" lat="52.704448"><ele>373.849091</ele><time>2022-01-15T10:36:47Z</time><extensions><speed>0.396216</speed><course>225.396423</course><hAcc>1.850977</hAcc><vAcc>0.760145</vAcc></extensions></trkpt>
      <trkpt lon="-3.053901" lat="52.704446"><ele>373.814575</ele><time>2022-01-15T10:36:48Z</time><extensions><speed>0.402894</speed><course>230.594788</course><hAcc>1.843021</hAcc><vAcc>0.760830</vAcc></extensions></trkpt>
      <trkpt lon="-3.053906" lat="52.704444"><ele>373.786926</ele><time>2022-01-15T10:36:49Z</time><extensions><speed>0.371090</speed><course>234.844925</course><hAcc>1.840119</hAcc><vAcc>0.761960</vAcc></extensions></trkpt>
      <trkpt lon="-3.053910" lat="52.704442"><ele>373.759613</ele><time>2022-01-15T10:36:50Z</time><extensions><speed>0.335572</speed><course>238.622650</course><hAcc>1.830387</hAcc><vAcc>0.763501</vAcc></extensions></trkpt>
      <trkpt lon="-3.053914" lat="52.704441"><ele>373.734558</ele><time>2022-01-15T10:36:51Z</time><extensions><speed>0.275036</speed><course>242.500763</course><hAcc>1.820745</hAcc><vAcc>0.765180</vAcc></extensions></trkpt>
      <trkpt lon="-3.053917" lat="52.704440"><ele>373.712158</ele><time>2022-01-15T10:36:52Z</time><extensions><speed>0.206786</speed><course>247.708145</course><hAcc>1.811462</hAcc><vAcc>0.766851</vAcc></extensions></trkpt>
      <trkpt lon="-3.053920" lat="52.704439"><ele>373.692963</ele><time>2022-01-15T10:36:53Z</time><extensions><speed>0.146830</speed><course>256.282379</course><hAcc>1.811592</hAcc><vAcc>0.768391</vAcc></extensions></trkpt>
      <trkpt lon="-3.053921" lat="52.704439"><ele>373.681732</ele><time>2022-01-15T10:36:54Z</time><extensions><speed>0.103373</speed><course>268.196136</course><hAcc>1.819906</hAcc><vAcc>0.769745</vAcc></extensions></trkpt>
      <trkpt lon="-3.053923" lat="52.704439"><ele>373.659088</ele><time>2022-01-15T10:36:55Z</time><extensions><speed>0.091935</speed><course>277.820831</course><hAcc>1.810458</hAcc><vAcc>0.770867</vAcc></extensions></trkpt>
      <trkpt lon="-3.053924" lat="52.704439"><ele>373.641052</ele><time>2022-01-15T10:36:56Z</time><extensions><speed>0.090066</speed><course>280.749878</course><hAcc>1.805287</hAcc><vAcc>0.771757</vAcc></extensions></trkpt>
      <trkpt lon="-3.053926" lat="52.704439"><ele>373.620300</ele><time>2022-01-15T10:36:57Z</time><extensions><speed>0.095594</speed><course>280.574341</course><hAcc>1.809013</hAcc><vAcc>0.772281</vAcc></extensions></trkpt>
      <trkpt lon="-3.053927" lat="52.704440"><ele>373.600830</ele><time>2022-01-15T10:36:58Z</time><extensions><speed>0.103195</speed><course>279.302948</course><hAcc>1.813888</hAcc><vAcc>0.772583</vAcc></extensions></trkpt>
      <trkpt lon="-3.053929" lat="52.704440"><ele>373.581482</ele><time>2022-01-15T10:36:59Z</time><extensions><speed>0.107524</speed><course>277.772034</course><hAcc>1.817397</hAcc><vAcc>0.772750</vAcc></extensions></trkpt>
      <trkpt lon="-3.053930" lat="52.704440"><ele>373.558258</ele><time>2022-01-15T10:37:00Z</time><extensions><speed>0.114720</speed><course>275.858002</course><hAcc>1.817835</hAcc><vAcc>0.772761</vAcc></extensions></trkpt>
      <trkpt lon="-3.053932" lat="52.704440"><ele>373.537994</ele><time>2022-01-15T10:37:01Z</time><extensions><speed>0.128126</speed><course>273.619110</course><hAcc>1.818804</hAcc><vAcc>0.772529</vAcc></extensions></trkpt>
      <trkpt lon="-3.053934" lat="52.704440"><ele>373.514038</ele><time>2022-01-15T10:37:02Z</time><extensions><speed>0.149810</speed><course>271.003143</course><hAcc>1.817772</hAcc><vAcc>0.771977</vAcc></extensions></trkpt>
      <trkpt lon="-3.053937" lat="52.704440"><ele>373.488739</ele><time>2022-01-15T10:37:03Z</time><extensions><speed>0.171202</speed><course>266.990356</course><hAcc>1.815660</hAcc><vAcc>0.771200</vAcc></extensions></trkpt>
      <trkpt lon="-3.053939" lat="52.704440"><ele>373.454987</ele><time>2022-01-15T10:37:04Z</time><extensions><speed>0.181527</speed><course>262.480804</course><hAcc>1.820084</hAcc><vAcc>0.770128</vAcc></extensions></trkpt>
      <trkpt lon="-3.053942" lat="52.704439"><ele>373.418060</ele><time>2022-01-15T10:37:05Z</time><extensions><speed>0.184916</speed><course>257.082306</course><hAcc>1.827630</hAcc><vAcc>0.768869</vAcc></extensions></trkpt>
      <trkpt lon="-3.053945" lat="52.704439"><ele>373.376373</ele><time>2022-01-15T10:37:06Z</time><extensions><speed>0.196069</speed><course>248.691223</course><hAcc>1.827381</hAcc><vAcc>0.767508</vAcc></extensions></trkpt>
      <trkpt lon="-3.053947" lat="52.704438"><ele>373.324799</ele><time>2022-01-15T10:37:07Z</time><extensions><speed>0.216835</speed><course>240.440079</course><hAcc>1.826634</hAcc><vAcc>0.766240</vAcc></extensions></trkpt>
      <trkpt lon="-3.053950" lat="52.704437"><ele>373.264709</ele><time>2022-01-15T10:37:08Z</time><extensions><speed>0.238520</speed><course>235.120300</course><hAcc>1.833148</hAcc><vAcc>0.765102</vAcc></extensions></trkpt>
      <trkpt lon="-3.053953" lat="52.704436"><ele>373.210236</ele><time>2022-01-15T10:37:09Z</time><extensions><speed>0.263095</speed><course>232.874573</course><hAcc>1.839482</hAcc><vAcc>0.764226</vAcc></extensions></trkpt>
      <trkpt lon="-3.053956" lat="52.704434"><ele>373.134796</ele><time>2022-01-15T10:37:10Z</time><extensions><speed>0.281131</speed><course>233.831558</course><hAcc>1.841773</hAcc><vAcc>0.763719</vAcc></extensions></trkpt>
      <trkpt lon="-3.053960" lat="52.704433"><ele>373.061676</ele><time>2022-01-15T10:37:11Z</time><extensions><speed>0.280077</speed><course>238.964737</course><hAcc>1.841450</hAcc><vAcc>0.763609</vAcc></extensions></trkpt>
      <trkpt lon="-3.053964" lat="52.704432"><ele>372.980194</ele><time>2022-01-15T10:37:12Z</time><extensions><speed>0.266481</speed><course>248.285324</course><hAcc>1.838855</hAcc><vAcc>0.763871</vAcc></extensions></trkpt>
      <trkpt lon="-3.053967" lat="52.704431"><ele>372.898926</ele><time>2022-01-15T10:37:13Z</time><extensions><speed>0.248801</speed><course>261.165070</course><hAcc>1.835362</hAcc><vAcc>0.764452</vAcc></extensions></trkpt>
      <trkpt lon="-3.053971" lat="52.704431"><ele>372.793091</ele><time>2022-01-15T10:37:14Z</time><extensions><speed>0.232843</speed><course>278.217468</course><hAcc>1.836035</hAcc><vAcc>0.765293</vAcc></extensions></trkpt>
      <trkpt lon="-3.053974" lat="52.704432"><ele>372.688660</ele><time>2022-01-15T10:37:15Z</time><extensions><speed>0.235977</speed><course>297.308563</course><hAcc>1.841786</hAcc><vAcc>0.766250</vAcc></extensions></trkpt>
      <trkpt lon="-3.053977" lat="52.704433"><ele>372.576385</ele><time>2022-01-15T10:37:16Z</time><extensions><speed>0.270756</speed><course>311.852478</course><hAcc>1.845461</hAcc><vAcc>0.767197</vAcc></extensions></trkpt>
      <trkpt lon="-3.053981" lat="52.704435"><ele>372.435669</ele><time>2022-01-15T10:37:17Z</time><extensions><speed>0.331061</speed><course>315.704834</course><hAcc>1.839321</hAcc><vAcc>0.768080</vAcc></extensions></trkpt>
      <trkpt lon="-3.053984" lat="52.704437"><ele>372.295654</ele><time>2022-01-15T10:37:18Z</time><extensions><speed>0.376992</speed><course>309.460266</course><hAcc>1.834489</hAcc><vAcc>0.768727</vAcc></extensions></trkpt>
      <trkpt lon="-3.053989" lat="52.704439"><ele>372.141144</ele><time>2022-01-15T10:37:19Z</time><extensions><speed>0.416662</speed><course>295.237061</course><hAcc>1.835012</hAcc><vAcc>0.768967</vAcc></extensions></trkpt>
      <trkpt lon="-3.053996" lat="52.704440"><ele>371.978180</ele><time>2022-01-15T10:37:20Z</time><extensions><speed>0.493452</speed><course>277.555145</course><hAcc>1.837627</hAcc><vAcc>0.768638</vAcc></extensions></trkpt>
      <trkpt lon="-3.054004" lat="52.704440"><ele>371.814514</ele><time>2022-01-15T10:37:21Z</time><extensions><speed>0.589551</speed><course>262.858978</course><hAcc>1.844063</hAcc><vAcc>0.767743</vAcc></extensions></trkpt>
      <trkpt lon="-3.054013" lat="52.704439"><ele>371.631104</ele><time>2022-01-15T10:37:22Z</time><extensions><speed>0.689070</speed><course>252.317429</course><hAcc>1.848172</hAcc><vAcc>0.766416</vAcc></extensions></trkpt>
      <trkpt lon="-3.054023" lat="52.704436"><ele>371.428314</ele><time>2022-01-15T10:37:23Z</time><extensions><speed>0.765247</speed><course>244.972610</course><hAcc>1.851446</hAcc><vAcc>0.764680</vAcc></extensions></trkpt>
      <trkpt lon="-3.054034" lat="52.704433"><ele>371.207916</ele><time>2022-01-15T10:37:24Z</time><extensions><speed>0.835563</speed><course>239.520111</course><hAcc>1.853925</hAcc><vAcc>0.762687</vAcc></extensions></trkpt>
      <trkpt lon="-3.054044" lat="52.704429"><ele>370.982178</ele><time>2022-01-15T10:37:25Z</time><extensions><speed>0.887212</speed><course>235.549820</course><hAcc>1.858144</hAcc><vAcc>0.760551</vAcc></extensions></trkpt>
      <trkpt lon="-3.054055" lat="52.704424"><ele>370.748505</ele><time>2022-01-15T10:37:26Z</time><extensions><speed>0.922758</speed><course>233.126572</course><hAcc>1.862184</hAcc><vAcc>0.758417</vAcc></extensions></trkpt>
      <trkpt lon="-3.054066" lat="52.704419"><ele>370.514954</ele><time>2022-01-15T10:37:27Z</time><extensions><speed>0.947994</speed><course>232.178711</course><hAcc>1.867432</hAcc><vAcc>0.756421</vAcc></extensions></trkpt>
      <trkpt lon="-3.054077" lat="52.704414"><ele>370.250763</ele><time>2022-01-15T10:37:28Z</time><extensions><speed>0.971266</speed><course>232.275879</course><hAcc>1.874059</hAcc><vAcc>0.754686</vAcc></extensions></trkpt>
      <trkpt lon="-3.054089" lat="52.704408"><ele>369.976654</ele><time>2022-01-15T10:37:29Z</time><extensions><speed>1.034874</speed><course>233.029572</course><hAcc>1.874251</hAcc><vAcc>0.753297</vAcc></extensions></trkpt>
      <trkpt lon="-3.054102" lat="52.704402"><ele>369.706024</ele><time>2022-01-15T10:37:30Z</time><extensions><speed>1.178360</speed><course>234.241959</course><hAcc>1.862420</hAcc><vAcc>0.752292</vAcc></extensions></trkpt>
      <trkpt lon="-3.054118" lat="52.704396"><ele>369.432922</ele><time>2022-01-15T10:37:31Z</time><extensions><speed>1.424443</speed><course>235.704559</course><hAcc>1.849806</hAcc><vAcc>0.751760</vAcc></extensions></trkpt>
      <trkpt lon="-3.054137" lat="52.704388"><ele>369.155853</ele><time>2022-01-15T10:37:32Z</time><extensions><speed>1.514790</speed><course>237.898682</course><hAcc>1.858317</hAcc><vAcc>0.751716</vAcc></extensions></trkpt>
      <trkpt lon="-3.054156" lat="52.704381"><ele>368.885040</ele><time>2022-01-15T10:37:33Z</time><extensions><speed>1.558037</speed><course>239.594238</course><hAcc>1.851563</hAcc><vAcc>0.752012</vAcc></extensions></trkpt>
      <trkpt lon="-3.054176" lat="52.704374"><ele>368.616791</ele><time>2022-01-15T10:37:34Z</time><extensions><speed>1.577791</speed><course>239.892776</course><hAcc>1.833107</hAcc><vAcc>0.752598</vAcc></extensions></trkpt>
      <trkpt lon="-3.054196" lat="52.704367"><ele>368.350037</ele><time>2022-01-15T10:37:35Z</time><extensions><speed>1.609452</speed><course>239.248077</course><hAcc>1.810362</hAcc><vAcc>0.753406</vAcc></extensions></trkpt>
      <trkpt lon="-3.054217" lat="52.704359"><ele>368.071014</ele><time>2022-01-15T10:37:36Z</time><extensions><speed>1.608944</speed><course>238.796921</course><hAcc>1.794111</hAcc><vAcc>0.754386</vAcc></extensions></trkpt>
      <trkpt lon="-3.054237" lat="52.704352"><ele>367.816986</ele><time>2022-01-15T10:37:37Z</time><extensions><speed>1.553559</speed><course>238.513412</course><hAcc>1.799228</hAcc><vAcc>0.755515</vAcc></extensions></trkpt>
      <trkpt lon="-3.054256" lat="52.704345"><ele>367.566101</ele><time>2022-01-15T10:37:38Z</time><extensions><speed>1.465588</speed><course>238.866623</course><hAcc>1.819108</hAcc><vAcc>0.756792</vAcc></extensions></trkpt>
      <trkpt lon="-3.054274" lat="52.704339"><ele>367.314728</ele><time>2022-01-15T10:37:39Z</time><extensions><speed>1.412991</speed><course>243.290375</course><hAcc>1.785575</hAcc><vAcc>0.758167</vAcc></extensions></trkpt>
      <trkpt lon="-3.054293" lat="52.704334"><ele>367.070404</ele><time>2022-01-15T10:37:40Z</time><extensions><speed>1.385299</speed><course>248.833084</course><hAcc>1.769516</hAcc><vAcc>0.759573</vAcc></extensions></trkpt>
      <trkpt lon="-3.054312" lat="52.704330"><ele>366.786835</ele><time>2022-01-15T10:37:41Z</time><extensions><speed>1.305630</speed><course>252.888397</course><hAcc>1.788209</hAcc><vAcc>0.760964</vAcc></extensions></trkpt>
      <trkpt lon="-3.054330" lat="52.704327"><ele>366.517731</ele><time>2022-01-15T10:37:42Z</time><extensions><speed>1.242194</speed><course>256.197784</course><hAcc>1.781218</hAcc><vAcc>0.762295</vAcc></extensions></trkpt>
      <trkpt lon="-3.054348" lat="52.704324"><ele>366.271790</ele><time>2022-01-15T10:37:42Z</time><extensions><speed>1.201041</speed><course>257.903473</course><hAcc>1.768796</hAcc><vAcc>0.763606</vAcc></extensions></trkpt>
      <trkpt lon="-3.054365" lat="52.704322"><ele>366.031952</ele><time>2022-01-15T10:37:43Z</time><extensions><speed>1.160064</speed><course>258.191833</course><hAcc>1.783443</hAcc><vAcc>0.764790</vAcc></extensions></trkpt>
      <trkpt lon="-3.054381" lat="52.704320"><ele>365.801941</ele><time>2022-01-15T10:37:45Z</time><extensions><speed>1.070798</speed><course>255.905289</course><hAcc>1.809755</hAcc><vAcc>0.765852</vAcc></extensions></trkpt>
      <trkpt lon="-3.054395" lat="52.704317"><ele>365.564453</ele><time>2022-01-15T10:37:46Z</time><extensions><speed>0.863288</speed><course>252.161026</course><hAcc>1.796999</hAcc><vAcc>0.766738</vAcc></extensions></trkpt>
      <trkpt lon="-3.054406" lat="52.704315"><ele>365.338593</ele><time>2022-01-15T10:37:47Z</time><extensions><speed>0.673002</speed><course>247.251114</course><hAcc>1.789764</hAcc><vAcc>0.767496</vAcc></extensions></trkpt>
      <trkpt lon="-3.054414" lat="52.704313"><ele>365.116119</ele><time>2022-01-15T10:37:48Z</time><extensions><speed>0.529179</speed><course>242.721725</course><hAcc>1.787758</hAcc><vAcc>0.768160</vAcc></extensions></trkpt>
      <trkpt lon="-3.054420" lat="52.704311"><ele>364.870148</ele><time>2022-01-15T10:37:49Z</time><extensions><speed>0.393164</speed><course>237.748688</course><hAcc>1.785613</hAcc><vAcc>0.768686</vAcc></extensions></trkpt>
      <trkpt lon="-3.054424" lat="52.704309"><ele>364.631256</ele><time>2022-01-15T10:37:50Z</time><extensions><speed>0.250272</speed><course>232.991257</course><hAcc>1.800170</hAcc><vAcc>0.769022</vAcc></extensions></trkpt>
      <trkpt lon="-3.054427" lat="52.704308"><ele>364.402344</ele><time>2022-01-15T10:37:50Z</time><extensions><speed>0.252783</speed><course>234.886337</course><hAcc>1.810221</hAcc><vAcc>0.769316</vAcc></extensions></trkpt>
      <trkpt lon="-3.054431" lat="52.704306"><ele>364.177795</ele><time>2022-01-15T10:37:51Z</time><extensions><speed>0.355722</speed><course>239.319260</course><hAcc>1.812002</hAcc><vAcc>0.769620</vAcc></extensions></trkpt>
      <trkpt lon="-3.054436" lat="52.704304"><ele>363.962280</ele><time>2022-01-15T10:37:52Z</time><extensions><speed>0.448890</speed><course>243.019562</course><hAcc>1.805181</hAcc><vAcc>0.770000</vAcc></extensions></trkpt>
      <trkpt lon="-3.054442" lat="52.704303"><ele>363.755066</ele><time>2022-01-15T10:37:53Z</time><extensions><speed>0.363330</speed><course>251.778366</course><hAcc>1.821911</hAcc><vAcc>0.770416</vAcc></extensions></trkpt>
      <trkpt lon="-3.054447" lat="52.704302"><ele>363.539459</ele><time>2022-01-15T10:37:54Z</time><extensions><speed>0.384218</speed><course>257.628510</course><hAcc>1.818482</hAcc><vAcc>0.770949</vAcc></extensions></trkpt>
      <trkpt lon="-3.054453" lat="52.704301"><ele>363.348389</ele><time>2022-01-15T10:37:55Z</time><extensions><speed>0.396125</speed><course>260.012665</course><hAcc>1.818864</hAcc><vAcc>0.771615</vAcc></extensions></trkpt>
      <trkpt lon="-3.054458" lat="52.704301"><ele>363.169556</ele><time>2022-01-15T10:37:57Z</time><extensions><speed>0.395993</speed><course>259.690826</course><hAcc>1.824537</hAcc><vAcc>0.772412</vAcc></extensions></trkpt>
      <trkpt lon="-3.054464" lat="52.704300"><ele>363.003967</ele><time>2022-01-15T10:37:58Z</time><extensions><speed>0.382459</speed><course>258.615906</course><hAcc>1.826495</hAcc><vAcc>0.773320</vAcc></extensions></trkpt>
      <trkpt lon="-3.054469" lat="52.704300"><ele>362.837952</ele><time>2022-01-15T10:37:59Z</time><extensions><speed>0.354138</speed><course>259.605896</course><hAcc>1.827938</hAcc><vAcc>0.774288</vAcc></extensions></trkpt>
      <trkpt lon="-3.054474" lat="52.704299"><ele>362.700226</ele><time>2022-01-15T10:38:00Z</time><extensions><speed>0.318239</speed><course>262.664673</course><hAcc>1.830430</hAcc><vAcc>0.775309</vAcc></extensions></trkpt>
      <trkpt lon="-3.054479" lat="52.704299"><ele>362.588257</ele><time>2022-01-15T10:38:01Z</time><extensions><speed>0.272587</speed><course>265.175110</course><hAcc>1.832998</hAcc><vAcc>0.776443</vAcc></extensions></trkpt>
      <trkpt lon="-3.054482" lat="52.704298"><ele>362.477234</ele><time>2022-01-15T10:38:02Z</time><extensions><speed>0.232955</speed><course>264.858002</course><hAcc>1.830933</hAcc><vAcc>0.777790</vAcc></extensions></trkpt>
      <trkpt lon="-3.054486" lat="52.704298"><ele>362.382233</ele><time>2022-01-15T10:38:03Z</time><extensions><speed>0.204667</speed><course>259.656982</course><hAcc>1.824748</hAcc><vAcc>0.779366</vAcc></extensions></trkpt>
      <trkpt lon="-3.054489" lat="52.704298"><ele>362.296967</ele><time>2022-01-15T10:38:04Z</time><extensions><speed>0.191019</speed><course>249.070709</course><hAcc>1.819328</hAcc><vAcc>0.781218</vAcc></extensions></trkpt>
      <trkpt lon="-3.054491" lat="52.704297"><ele>362.207672</ele><time>2022-01-15T10:38:05Z</time><extensions><speed>0.183961</speed><course>234.823105</course><hAcc>1.822181</hAcc><vAcc>0.783260</vAcc></extensions></trkpt>
      <trkpt lon="-3.054493" lat="52.704296"><ele>362.134125</ele><time>2022-01-15T10:38:06Z</time><extensions><speed>0.202407</speed><course>222.271896</course><hAcc>1.814841</hAcc><vAcc>0.785485</vAcc></extensions></trkpt>
      <trkpt lon="-3.054495" lat="52.704294"><ele>362.072693</ele><time>2022-01-15T10:38:07Z</time><extensions><speed>0.225154</speed><course>215.511215</course><hAcc>1.809653</hAcc><vAcc>0.787874</vAcc></extensions></trkpt>
      <trkpt lon="-3.054497" lat="52.704292"><ele>362.030029</ele><time>2022-01-15T10:38:08Z</time><extensions><speed>0.271953</speed><course>215.869598</course><hAcc>1.807942</hAcc><vAcc>0.790362</vAcc></extensions></trkpt>
      <trkpt lon="-3.054500" lat="52.704290"><ele>361.979431</ele><time>2022-01-15T10:38:09Z</time><extensions><speed>0.341897</speed><course>219.027771</course><hAcc>1.806154</hAcc><vAcc>0.792932</vAcc></extensions></trkpt>
      <trkpt lon="-3.054504" lat="52.704288"><ele>361.949463</ele><time>2022-01-15T10:38:10Z</time><extensions><speed>0.408676</speed><course>220.947052</course><hAcc>1.804286</hAcc><vAcc>0.795513</vAcc></extensions></trkpt>
      <trkpt lon="-3.054508" lat="52.704285"><ele>361.928436</ele><time>2022-01-15T10:38:11Z</time><extensions><speed>0.458169</speed><course>221.698883</course><hAcc>1.801371</hAcc><vAcc>0.798063</vAcc></extensions></trkpt>
      <trkpt lon="-3.054513" lat="52.704281"><ele>361.903473</ele><time>2022-01-15T10:38:12Z</time><extensions><speed>0.479741</speed><course>222.660858</course><hAcc>1.799098</hAcc><vAcc>0.800500</vAcc></extensions></trkpt>
      <trkpt lon="-3.054518" lat="52.704278"><ele>361.886993</ele><time>2022-01-15T10:38:13Z</time><extensions><speed>0.481950</speed><course>224.458786</course><hAcc>1.797468</hAcc><vAcc>0.802808</vAcc></extensions></trkpt>
      <trkpt lon="-3.054523" lat="52.704275"><ele>361.872955</ele><time>2022-01-15T10:38:14Z</time><extensions><speed>0.467394</speed><course>225.941177</course><hAcc>1.798467</hAcc><vAcc>0.804957</vAcc></extensions></trkpt>
      <trkpt lon="-3.054528" lat="52.704272"><ele>361.864532</ele><time>2022-01-15T10:38:15Z</time><extensions><speed>0.458141</speed><course>225.717270</course><hAcc>1.799013</hAcc><vAcc>0.807106</vAcc></extensions></trkpt>
      <trkpt lon="-3.054532" lat="52.704269"><ele>361.865936</ele><time>2022-01-15T10:38:16Z</time><extensions><speed>0.462439</speed><course>223.053726</course><hAcc>1.797156</hAcc><vAcc>0.809187</vAcc></extensions></trkpt>
      <trkpt lon="-3.054537" lat="52.704266"><ele>361.869904</ele><time>2022-01-15T10:38:17Z</time><extensions><speed>0.467329</speed><course>219.854294</course><hAcc>1.793243</hAcc><vAcc>0.811290</vAcc></extensions></trkpt>
      <trkpt lon="-3.054541" lat="52.704263"><ele>361.880341</ele><time>2022-01-15T10:38:18Z</time><extensions><speed>0.453104</speed><course>218.763351</course><hAcc>1.789291</hAcc><vAcc>0.813380</vAcc></extensions></trkpt>
      <trkpt lon="-3.054545" lat="52.704260"><ele>361.899170</ele><time>2022-01-15T10:38:19Z</time><extensions><speed>0.411539</speed><course>219.142746</course><hAcc>1.786443</hAcc><vAcc>0.815437</vAcc></extensions></trkpt>
      <trkpt lon="-3.054549" lat="52.704257"><ele>361.920715</ele><time>2022-01-15T10:38:20Z</time><extensions><speed>0.350654</speed><course>219.497772</course><hAcc>1.783582</hAcc><vAcc>0.817415</vAcc></extensions></trkpt>
      <trkpt lon="-3.054552" lat="52.704255"><ele>361.954651</ele><time>2022-01-15T10:38:21Z</time><extensions><speed>0.269710</speed><course>219.993866</course><hAcc>1.783352</hAcc><vAcc>0.819465</vAcc></extensions></trkpt>
      <trkpt lon="-3.054554" lat="52.704254"><ele>361.992462</ele><time>2022-01-15T10:38:22Z</time><extensions><speed>0.188148</speed><course>219.797699</course><hAcc>1.781489</hAcc><vAcc>0.821447</vAcc></extensions></trkpt>
      <trkpt lon="-3.054555" lat="52.704253"><ele>362.035492</ele><time>2022-01-15T10:38:23Z</time><extensions><speed>0.116035</speed><course>214.223297</course><hAcc>1.776150</hAcc><vAcc>0.823300</vAcc></extensions></trkpt>
      <trkpt lon="-3.054556" lat="52.704252"><ele>362.076752</ele><time>2022-01-15T10:38:24Z</time><extensions><speed>0.064417</speed><course>192.300827</course><hAcc>1.773826</hAcc><vAcc>0.825088</vAcc></extensions></trkpt>
      <trkpt lon="-3.054556" lat="52.704251"><ele>362.116425</ele><time>2022-01-15T10:38:25Z</time><extensions><speed>0.056215</speed><course>156.250946</course><hAcc>1.774379</hAcc><vAcc>0.826865</vAcc></extensions></trkpt>
      <trkpt lon="-3.054555" lat="52.704251"><ele>362.159729</ele><time>2022-01-15T10:38:26Z</time><extensions><speed>0.078684</speed><course>137.339233</course><hAcc>1.771024</hAcc><vAcc>0.828544</vAcc></extensions></trkpt>
      <trkpt lon="-3.054554" lat="52.704250"><ele>362.203522</ele><time>2022-01-15T10:38:27Z</time><extensions><speed>0.126913</speed><course>126.901115</course><hAcc>1.766751</hAcc><vAcc>0.830056</vAcc></extensions></trkpt>
      <trkpt lon="-3.054551" lat="52.704250"><ele>362.233856</ele><time>2022-01-15T10:38:28Z</time><extensions><speed>0.208790</speed><course>119.292076</course><hAcc>1.760514</hAcc><vAcc>0.831477</vAcc></extensions></trkpt>
      <trkpt lon="-3.054548" lat="52.704249"><ele>362.253204</ele><time>2022-01-15T10:38:29Z</time><extensions><speed>0.301429</speed><course>112.024612</course><hAcc>1.757295</hAcc><vAcc>0.832727</vAcc></extensions></trkpt>
      <trkpt lon="-3.054543" lat="52.704248"><ele>362.271240</ele><time>2022-01-15T10:38:30Z</time><extensions><speed>0.380215</speed><course>104.664833</course><hAcc>1.758979</hAcc><vAcc>0.833806</vAcc></extensions></trkpt>
      <trkpt lon="-3.054537" lat="52.704247"><ele>362.275055</ele><time>2022-01-15T10:38:31Z</time><extensions><speed>0.442180</speed><course>98.373184</course><hAcc>1.759081</hAcc><vAcc>0.834766</vAcc></extensions></trkpt>
      <trkpt lon="-3.054530" lat="52.704246"><ele>362.270569</ele><time>2022-01-15T10:38:32Z</time><extensions><speed>0.501687</speed><course>93.604736</course><hAcc>1.751274</hAcc><vAcc>0.835503</vAcc></extensions></trkpt>
      <trkpt lon="-3.054523" lat="52.704246"><ele>362.253967</ele><time>2022-01-15T10:38:33Z</time><extensions><speed>0.510883</speed><course>89.601112</course><hAcc>1.746851</hAcc><vAcc>0.835861</vAcc></extensions></trkpt>
      <trkpt lon="-3.054515" lat="52.704247"><ele>362.222382</ele><time>2022-01-15T10:38:34Z</time><extensions><speed>0.517496</speed><course>85.920647</course><hAcc>1.737725</hAcc><vAcc>0.835941</vAcc></extensions></trkpt>
      <trkpt lon="-3.054508" lat="52.704247"><ele>362.165100</ele><time>2022-01-15T10:38:35Z</time><extensions><speed>0.489681</speed><course>83.105507</course><hAcc>1.730580</hAcc><vAcc>0.835710</vAcc></extensions></trkpt>
      <trkpt lon="-3.054501" lat="52.704248"><ele>362.101685</ele><time>2022-01-15T10:38:36Z</time><extensions><speed>0.445407</speed><course>81.064377</course><hAcc>1.722437</hAcc><vAcc>0.835277</vAcc></extensions></trkpt>
      <trkpt lon="-3.054495" lat="52.704248"><ele>362.031036</ele><time>2022-01-15T10:38:37Z</time><extensions><speed>0.367061</speed><course>79.454208</course><hAcc>1.727036</hAcc><vAcc>0.834525</vAcc></extensions></trkpt>
      <trkpt lon="-3.054490" lat="52.704249"><ele>361.957214</ele><time>2022-01-15T10:38:38Z</time><extensions><speed>0.267836</speed><course>78.161690</course><hAcc>1.741867</hAcc><vAcc>0.833301</vAcc></extensions></trkpt>
      <trkpt lon="-3.054486" lat="52.704249"><ele>361.862274</ele><time>2022-01-15T10:38:39Z</time><extensions><speed>0.259545</speed><course>78.235832</course><hAcc>1.725508</hAcc><vAcc>0.831736</vAcc></extensions></trkpt>
      <trkpt lon="-3.054483" lat="52.704250"><ele>361.748688</ele><time>2022-01-15T10:38:40Z</time><extensions><speed>0.239778</speed><course>80.733917</course><hAcc>1.728393</hAcc><vAcc>0.829668</vAcc></extensions></trkpt>
      <trkpt lon="-3.054479" lat="52.704250"><ele>361.623199</ele><time>2022-01-15T10:38:41Z</time><extensions><speed>0.219268</speed><course>83.928406</course><hAcc>1.747918</hAcc><vAcc>0.827215</vAcc></extensions></trkpt>
      <trkpt lon="-3.054476" lat="52.704250"><ele>361.487793</ele><time>2022-01-15T10:38:42Z</time><extensions><speed>0.240694</speed><course>86.456902</course><hAcc>1.747483</hAcc><vAcc>0.824676</vAcc></extensions></trkpt>
      <trkpt lon="-3.054472" lat="52.704250"><ele>361.348175</ele><time>2022-01-15T10:38:43Z</time><extensions><speed>0.256679</speed><course>89.902122</course><hAcc>1.748118</hAcc><vAcc>0.822020</vAcc></extensions></trkpt>
      <trkpt lon="-3.054468" lat="52.704250"><ele>361.205444</ele><time>2022-01-15T10:38:44Z</time><extensions><speed>0.258511</speed><course>93.619354</course><hAcc>1.757575</hAcc><vAcc>0.819261</vAcc></extensions></trkpt>
      <trkpt lon="-3.054464" lat="52.704250"><ele>361.059174</ele><time>2022-01-15T10:38:45Z</time><extensions><speed>0.250614</speed><course>96.574028</course><hAcc>1.771653</hAcc><vAcc>0.816374</vAcc></extensions></trkpt>
      <trkpt lon="-3.054461" lat="52.704250"><ele>360.980621</ele><time>2022-01-15T10:38:46Z</time><extensions><speed>0.248865</speed><course>97.971664</course><hAcc>1.780110</hAcc><vAcc>0.811875</vAcc></extensions></trkpt>
      <trkpt lon="-3.054457" lat="52.704249"><ele>360.897522</ele><time>2022-01-15T10:38:47Z</time><extensions><speed>0.248435</speed><course>97.096176</course><hAcc>1.782065</hAcc><vAcc>0.807291</vAcc></extensions></trkpt>
      <trkpt lon="-3.054454" lat="52.704249"><ele>360.815674</ele><time>2022-01-15T10:38:48Z</time><extensions><speed>0.237983</speed><course>94.454369</course><hAcc>1.784107</hAcc><vAcc>0.802590</vAcc></extensions></trkpt>
      <trkpt lon="-3.054450" lat="52.704249"><ele>360.742493</ele><time>2022-01-15T10:38:49Z</time><extensions><speed>0.222401</speed><course>89.139183</course><hAcc>1.788725</hAcc><vAcc>0.797538</vAcc></extensions></trkpt>
      <trkpt lon="-3.054447" lat="52.704249"><ele>360.675598</ele><time>2022-01-15T10:38:50Z</time><extensions><speed>0.203507</speed><course>81.176811</course><hAcc>1.796392</hAcc><vAcc>0.792127</vAcc></extensions></trkpt>
      <trkpt lon="-3.054444" lat="52.704249"><ele>360.622101</ele><time>2022-01-15T10:38:51Z</time><extensions><speed>0.194967</speed><course>75.158455</course><hAcc>1.796344</hAcc><vAcc>0.786307</vAcc></extensions></trkpt>
      <trkpt lon="-3.054441" lat="52.704250"><ele>360.569214</ele><time>2022-01-15T10:38:52Z</time><extensions><speed>0.184199</speed><course>76.399460</course><hAcc>1.794800</hAcc><vAcc>0.780093</vAcc></extensions></trkpt>
      <trkpt lon="-3.054439" lat="52.704250"><ele>360.521240</ele><time>2022-01-15T10:38:53Z</time><extensions><speed>0.161676</speed><course>84.944313</course><hAcc>1.803795</hAcc><vAcc>0.773550</vAcc></extensions></trkpt>
      <trkpt lon="-3.054437" lat="52.704250"><ele>360.483612</ele><time>2022-01-15T10:38:54Z</time><extensions><speed>0.136490</speed><course>97.302963</course><hAcc>1.816391</hAcc><vAcc>0.766736</vAcc></extensions></trkpt>
      <trkpt lon="-3.054435" lat="52.704250"><ele>360.441498</ele><time>2022-01-15T10:38:55Z</time><extensions><speed>0.101838</speed><course>117.296722</course><hAcc>1.830771</hAcc><vAcc>0.759894</vAcc></extensions></trkpt>
      <trkpt lon="-3.054434" lat="52.704249"><ele>360.397552</ele><time>2022-01-15T10:38:56Z</time><extensions><speed>0.083431</speed><course>155.570023</course><hAcc>1.846181</hAcc><vAcc>0.753286</vAcc></extensions></trkpt>
      <trkpt lon="-3.054434" lat="52.704248"><ele>360.356018</ele><time>2022-01-15T10:38:57Z</time><extensions><speed>0.108316</speed><course>190.615433</course><hAcc>1.858623</hAcc><vAcc>0.747271</vAcc></extensions></trkpt>
      <trkpt lon="-3.054435" lat="52.704247"><ele>360.305847</ele><time>2022-01-15T10:38:58Z</time><extensions><speed>0.159139</speed><course>210.184799</course><hAcc>1.869370</hAcc><vAcc>0.742102</vAcc></extensions></trkpt>
      <trkpt lon="-3.054437" lat="52.704246"><ele>360.256622</ele><time>2022-01-15T10:38:59Z</time><extensions><speed>0.228260</speed><course>219.923920</course><hAcc>1.879865</hAcc><vAcc>0.737849</vAcc></extensions></trkpt>
      <trkpt lon="-3.054439" lat="52.704244"><ele>360.195709</ele><time>2022-01-15T10:39:00Z</time><extensions><speed>0.307661</speed><course>221.242081</course><hAcc>1.886536</hAcc><vAcc>0.734542</vAcc></extensions></trkpt>
      <trkpt lon="-3.054443" lat="52.704241"><ele>360.124542</ele><time>2022-01-15T10:39:01Z</time><extensions><speed>0.380918</speed><course>217.886612</course><hAcc>1.892468</hAcc><vAcc>0.732231</vAcc></extensions></trkpt>
      <trkpt lon="-3.054446" lat="52.704238"><ele>360.044525</ele><time>2022-01-15T10:39:02Z</time><extensions><speed>0.445438</speed><course>214.154221</course><hAcc>1.897608</hAcc><vAcc>0.730924</vAcc></extensions></trkpt>
      <trkpt lon="-3.054450" lat="52.704235"><ele>359.963043</ele><time>2022-01-15T10:39:03Z</time><extensions><speed>0.511131</speed><course>211.881226</course><hAcc>1.897100</hAcc><vAcc>0.730581</vAcc></extensions></trkpt>
      <trkpt lon="-3.054454" lat="52.704231"><ele>359.876312</ele><time>2022-01-15T10:39:04Z</time><extensions><speed>0.550387</speed><course>210.149887</course><hAcc>1.896028</hAcc><vAcc>0.731140</vAcc></extensions></trkpt>
      <trkpt lon="-3.054458" lat="52.704226"><ele>359.784607</ele><time>2022-01-15T10:39:05Z</time><extensions><speed>0.566502</speed><course>207.907608</course><hAcc>1.894776</hAcc><vAcc>0.732620</vAcc></extensions></trkpt>
      <trkpt lon="-3.054462" lat="52.704222"><ele>359.693939</ele><time>2022-01-15T10:39:06Z</time><extensions><speed>0.575149</speed><course>205.762543</course><hAcc>1.892529</hAcc><vAcc>0.735102</vAcc></extensions></trkpt>
      <trkpt lon="-3.054465" lat="52.704217"><ele>359.604675</ele><time>2022-01-15T10:39:07Z</time><extensions><speed>0.594953</speed><course>203.351379</course><hAcc>1.889429</hAcc><vAcc>0.738494</vAcc></extensions></trkpt>
      <trkpt lon="-3.054469" lat="52.704212"><ele>359.521820</ele><time>2022-01-15T10:39:08Z</time><extensions><speed>0.615411</speed><course>200.177231</course><hAcc>1.889940</hAcc><vAcc>0.742755</vAcc></extensions></trkpt>
      <trkpt lon="-3.054472" lat="52.704206"><ele>359.446838</ele><time>2022-01-15T10:39:09Z</time><extensions><speed>0.644991</speed><course>197.042938</course><hAcc>1.888771</hAcc><vAcc>0.747847</vAcc></extensions></trkpt>
      <trkpt lon="-3.054474" lat="52.704201"><ele>359.376984</ele><time>2022-01-15T10:39:10Z</time><extensions><speed>0.659804</speed><course>194.294067</course><hAcc>1.887128</hAcc><vAcc>0.753627</vAcc></extensions></trkpt>
      <trkpt lon="-3.054477" lat="52.704195"><ele>359.312164</ele><time>2022-01-15T10:39:11Z</time><extensions><speed>0.666136</speed><course>192.580322</course><hAcc>1.882898</hAcc><vAcc>0.759961</vAcc></extensions></trkpt>
      <trkpt lon="-3.054479" lat="52.704189"><ele>359.254852</ele><time>2022-01-15T10:39:12Z</time><extensions><speed>0.658526</speed><course>191.783340</course><hAcc>1.874624</hAcc><vAcc>0.766640</vAcc></extensions></trkpt>
      <trkpt lon="-3.054481" lat="52.704183"><ele>359.190613</ele><time>2022-01-15T10:39:13Z</time><extensions><speed>0.635967</speed><course>191.017059</course><hAcc>1.862025</hAcc><vAcc>0.773416</vAcc></extensions></trkpt>
      <trkpt lon="-3.054482" lat="52.704178"><ele>359.130188</ele><time>2022-01-15T10:39:14Z</time><extensions><speed>0.589072</speed><course>189.603073</course><hAcc>1.848106</hAcc><vAcc>0.780044</vAcc></extensions></trkpt>
      <trkpt lon="-3.054484" lat="52.704173"><ele>359.076172</ele><time>2022-01-15T10:39:15Z</time><extensions><speed>0.526522</speed><course>187.367859</course><hAcc>1.833901</hAcc><vAcc>0.786285</vAcc></extensions></trkpt>
      <trkpt lon="-3.054484" lat="52.704169"><ele>359.026917</ele><time>2022-01-15T10:39:16Z</time><extensions><speed>0.461558</speed><course>185.013046</course><hAcc>1.819809</hAcc><vAcc>0.792237</vAcc></extensions></trkpt>
      <trkpt lon="-3.054485" lat="52.704165"><ele>358.970367</ele><time>2022-01-15T10:39:17Z</time><extensions><speed>0.405527</speed><course>184.141312</course><hAcc>1.807339</hAcc><vAcc>0.797584</vAcc></extensions></trkpt>
      <trkpt lon="-3.054485" lat="52.704161"><ele>358.907867</ele><time>2022-01-15T10:39:18Z</time><extensions><speed>0.355717</speed><course>186.839188</course><hAcc>1.800768</hAcc><vAcc>0.802179</vAcc></extensions></trkpt>
      <trkpt lon="-3.054486" lat="52.704158"><ele>358.848389</ele><time>2022-01-15T10:39:19Z</time><extensions><speed>0.327418</speed><course>194.205276</course><hAcc>1.797930</hAcc><vAcc>0.805950</vAcc></extensions></trkpt>
      <trkpt lon="-3.054488" lat="52.704155"><ele>358.789642</ele><time>2022-01-15T10:39:20Z</time><extensions><speed>0.323334</speed><course>205.749374</course><hAcc>1.799674</hAcc><vAcc>0.808945</vAcc></extensions></trkpt>
      <trkpt lon="-3.054491" lat="52.704153"><ele>358.729675</ele><time>2022-01-15T10:39:21Z</time><extensions><speed>0.336411</speed><course>217.105499</course><hAcc>1.806040</hAcc><vAcc>0.811250</vAcc></extensions></trkpt>
      <trkpt lon="-3.054494" lat="52.704151"><ele>358.669739</ele><time>2022-01-15T10:39:22Z</time><extensions><speed>0.351298</speed><course>223.632065</course><hAcc>1.817292</hAcc><vAcc>0.812998</vAcc></extensions></trkpt>
      <trkpt lon="-3.054498" lat="52.704148"><ele>358.608429</ele><time>2022-01-15T10:39:23Z</time><extensions><speed>0.346806</speed><course>224.459671</course><hAcc>1.837522</hAcc><vAcc>0.814260</vAcc></extensions></trkpt>
      <trkpt lon="-3.054501" lat="52.704146"><ele>358.542725</ele><time>2022-01-15T10:39:24Z</time><extensions><speed>0.364974</speed><course>221.478287</course><hAcc>1.850007</hAcc><vAcc>0.815180</vAcc></extensions></trkpt>
      <trkpt lon="-3.054505" lat="52.704143"><ele>358.480652</ele><time>2022-01-15T10:39:25Z</time><extensions><speed>0.375160</speed><course>218.323730</course><hAcc>1.860260</hAcc><vAcc>0.815932</vAcc></extensions></trkpt>
      <trkpt lon="-3.054508" lat="52.704140"><ele>358.417664</ele><time>2022-01-15T10:39:26Z</time><extensions><speed>0.398243</speed><course>216.364151</course><hAcc>1.864667</hAcc><vAcc>0.816558</vAcc></extensions></trkpt>
      <trkpt lon="-3.054512" lat="52.704137"><ele>358.359650</ele><time>2022-01-15T10:39:27Z</time><extensions><speed>0.436983</speed><course>215.472534</course><hAcc>1.870710</hAcc><vAcc>0.817155</vAcc></extensions></trkpt>
      <trkpt lon="-3.054516" lat="52.704134"><ele>358.312073</ele><time>2022-01-15T10:39:28Z</time><extensions><speed>0.511864</speed><course>214.650757</course><hAcc>1.873215</hAcc><vAcc>0.817784</vAcc></extensions></trkpt>
      <trkpt lon="-3.054520" lat="52.704130"><ele>358.272247</ele><time>2022-01-15T10:39:29Z</time><extensions><speed>0.597008</speed><course>213.618301</course><hAcc>1.873119</hAcc><vAcc>0.818457</vAcc></extensions></trkpt>
      <trkpt lon="-3.054526" lat="52.704125"><ele>358.238770</ele><time>2022-01-15T10:39:30Z</time><extensions><speed>0.657378</speed><course>212.627884</course><hAcc>1.875557</hAcc><vAcc>0.819142</vAcc></extensions></trkpt>
      <trkpt lon="-3.054531" lat="52.704120"><ele>358.190552</ele><time>2022-01-15T10:39:31Z</time><extensions><speed>0.681942</speed><course>211.753159</course><hAcc>1.880357</hAcc><vAcc>0.819868</vAcc></extensions></trkpt>
      <trkpt lon="-3.054536" lat="52.704115"><ele>358.171722</ele><time>2022-01-15T10:39:32Z</time><extensions><speed>0.679575</speed><course>210.854660</course><hAcc>1.885207</hAcc><vAcc>0.820702</vAcc></extensions></trkpt>
      <trkpt lon="-3.054541" lat="52.704109"><ele>358.162659</ele><time>2022-01-15T10:39:33Z</time><extensions><speed>0.674566</speed><course>209.353531</course><hAcc>1.886964</hAcc><vAcc>0.821607</vAcc></extensions></trkpt>
      <trkpt lon="-3.054546" lat="52.704104"><ele>358.159424</ele><time>2022-01-15T10:39:34Z</time><extensions><speed>0.668440</speed><course>207.160034</course><hAcc>1.884771</hAcc><vAcc>0.822563</vAcc></extensions></trkpt>
      <trkpt lon="-3.054550" lat="52.704099"><ele>358.170502</ele><time>2022-01-15T10:39:35Z</time><extensions><speed>0.620431</speed><course>204.786285</course><hAcc>1.882954</hAcc><vAcc>0.823644</vAcc></extensions></trkpt>
      <trkpt lon="-3.054553" lat="52.704094"><ele>358.172516</ele><time>2022-01-15T10:39:36Z</time><extensions><speed>0.546089</speed><course>202.750992</course><hAcc>1.878065</hAcc><vAcc>0.824710</vAcc></extensions></trkpt>
      <trkpt lon="-3.054556" lat="52.704090"><ele>358.170654</ele><time>2022-01-15T10:39:37Z</time><extensions><speed>0.460209</speed><course>201.090591</course><hAcc>1.868843</hAcc><vAcc>0.825780</vAcc></extensions></trkpt>
      <trkpt lon="-3.054558" lat="52.704086"><ele>358.154572</ele><time>2022-01-15T10:39:38Z</time><extensions><speed>0.381903</speed><course>198.056885</course><hAcc>1.850952</hAcc><vAcc>0.826772</vAcc></extensions></trkpt>
      <trkpt lon="-3.054559" lat="52.704083"><ele>358.130554</ele><time>2022-01-15T10:39:39Z</time><extensions><speed>0.308161</speed><course>192.602402</course><hAcc>1.825063</hAcc><vAcc>0.827576</vAcc></extensions></trkpt>
      <trkpt lon="-3.054560" lat="52.704081"><ele>358.097839</ele><time>2022-01-15T10:39:40Z</time><extensions><speed>0.251655</speed><course>183.791000</course><hAcc>1.789051</hAcc><vAcc>0.828671</vAcc></extensions></trkpt>
      <trkpt lon="-3.054559" lat="52.704078"><ele>358.048401</ele><time>2022-01-15T10:39:41Z</time><extensions><speed>0.228870</speed><course>171.924942</course><hAcc>1.742830</hAcc><vAcc>0.829741</vAcc></extensions></trkpt>
      <trkpt lon="-3.054557" lat="52.704076"><ele>357.985229</ele><time>2022-01-15T10:39:42Z</time><extensions><speed>0.228499</speed><course>162.370163</course><hAcc>1.713833</hAcc><vAcc>0.830745</vAcc></extensions></trkpt>
      <trkpt lon="-3.054555" lat="52.704075"><ele>357.911713</ele><time>2022-01-15T10:39:43Z</time><extensions><speed>0.176171</speed><course>133.822327</course><hAcc>1.729271</hAcc><vAcc>0.831776</vAcc></extensions></trkpt>
      <trkpt lon="-3.054552" lat="52.704074"><ele>357.818481</ele><time>2022-01-15T10:39:44Z</time><extensions><speed>0.224050</speed><course>115.627922</course><hAcc>1.712053</hAcc><vAcc>0.832800</vAcc></extensions></trkpt>
      <trkpt lon="-3.054549" lat="52.704073"><ele>357.701904</ele><time>2022-01-15T10:39:45Z</time><extensions><speed>0.259529</speed><course>108.326241</course><hAcc>1.694589</hAcc><vAcc>0.833742</vAcc></extensions></trkpt>
      <trkpt lon="-3.054544" lat="52.704072"><ele>357.574951</ele><time>2022-01-15T10:39:46Z</time><extensions><speed>0.301717</speed><course>105.218704</course><hAcc>1.682069</hAcc><vAcc>0.834762</vAcc></extensions></trkpt>
      <trkpt lon="-3.054539" lat="52.704071"><ele>357.436707</ele><time>2022-01-15T10:39:47Z</time><extensions><speed>0.335790</speed><course>104.093903</course><hAcc>1.681414</hAcc><vAcc>0.835919</vAcc></extensions></trkpt>
      <trkpt lon="-3.054534" lat="52.704070"><ele>357.283203</ele><time>2022-01-15T10:39:48Z</time><extensions><speed>0.342363</speed><course>104.283348</course><hAcc>1.696011</hAcc><vAcc>0.837267</vAcc></extensions></trkpt>
      <trkpt lon="-3.054528" lat="52.704069"><ele>357.118011</ele><time>2022-01-15T10:39:49Z</time><extensions><speed>0.357660</speed><course>104.973129</course><hAcc>1.708526</hAcc><vAcc>0.838851</vAcc></extensions></trkpt>
      <trkpt lon="-3.054522" lat="52.704068"><ele>356.949310</ele><time>2022-01-15T10:39:50Z</time><extensions><speed>0.408658</speed><course>106.166313</course><hAcc>1.708461</hAcc><vAcc>0.840648</vAcc></extensions></trkpt>
      <trkpt lon="-3.054516" lat="52.704067"><ele>356.766785</ele><time>2022-01-15T10:39:51Z</time><extensions><speed>0.418453</speed><course>108.280334</course><hAcc>1.713053</hAcc><vAcc>0.842638</vAcc></extensions></trkpt>
      <trkpt lon="-3.054509" lat="52.704065"><ele>356.589386</ele><time>2022-01-15T10:39:52Z</time><extensions><speed>0.428972</speed><course>111.648170</course><hAcc>1.718558</hAcc><vAcc>0.844746</vAcc></extensions></trkpt>
      <trkpt lon="-3.054503" lat="52.704063"><ele>356.409882</ele><time>2022-01-15T10:39:52Z</time><extensions><speed>0.408636</speed><course>114.881752</course><hAcc>1.728775</hAcc><vAcc>0.846984</vAcc></extensions></trkpt>
      <trkpt lon="-3.054497" lat="52.704062"><ele>356.225128</ele><time>2022-01-15T10:39:53Z</time><extensions><speed>0.425796</speed><course>117.087212</course><hAcc>1.726151</hAcc><vAcc>0.849186</vAcc></extensions></trkpt>
      <trkpt lon="-3.054491" lat="52.704060"><ele>356.029144</ele><time>2022-01-15T10:39:54Z</time><extensions><speed>0.436538</speed><course>118.983818</course><hAcc>1.719779</hAcc><vAcc>0.851479</vAcc></extensions></trkpt>
      <trkpt lon="-3.054485" lat="52.704057"><ele>355.853882</ele><time>2022-01-15T10:39:55Z</time><extensions><speed>0.395428</speed><course>120.886238</course><hAcc>1.721157</hAcc><vAcc>0.853762</vAcc></extensions></trkpt>
      <trkpt lon="-3.054480" lat="52.704055"><ele>355.675354</ele><time>2022-01-15T10:39:56Z</time><extensions><speed>0.376759</speed><course>122.723190</course><hAcc>1.713892</hAcc><vAcc>0.855993</vAcc></extensions></trkpt>
      <trkpt lon="-3.054476" lat="52.704053"><ele>355.507202</ele><time>2022-01-15T10:39:57Z</time><extensions><speed>0.379358</speed><course>124.321396</course><hAcc>1.699267</hAcc><vAcc>0.858228</vAcc></extensions></trkpt>
      <trkpt lon="-3.054471" lat="52.704051"><ele>355.340454</ele><time>2022-01-15T10:39:59Z</time><extensions><speed>0.355059</speed><course>127.047348</course><hAcc>1.690250</hAcc><vAcc>0.860464</vAcc></extensions></trkpt>
      <trkpt lon="-3.054467" lat="52.704048"><ele>355.180573</ele><time>2022-01-15T10:40:00Z</time><extensions><speed>0.340318</speed><course>130.957672</course><hAcc>1.680248</hAcc><vAcc>0.862526</vAcc></extensions></trkpt>
      <trkpt lon="-3.054463" lat="52.704046"><ele>355.032288</ele><time>2022-01-15T10:40:01Z</time><extensions><speed>0.346243</speed><course>136.046967</course><hAcc>1.669381</hAcc><vAcc>0.864350</vAcc></extensions></trkpt>
      <trkpt lon="-3.054460" lat="52.704043"><ele>354.890747</ele><time>2022-01-15T10:40:02Z</time><extensions><speed>0.342479</speed><course>143.167145</course><hAcc>1.666416</hAcc><vAcc>0.865948</vAcc></extensions></trkpt>
      <trkpt lon="-3.054458" lat="52.704040"><ele>354.760895</ele><time>2022-01-15T10:40:02Z</time><extensions><speed>0.353755</speed><course>152.003708</course><hAcc>1.662899</hAcc><vAcc>0.867491</vAcc></extensions></trkpt>
      <trkpt lon="-3.054456" lat="52.704037"><ele>354.639923</ele><time>2022-01-15T10:40:03Z</time><extensions><speed>0.373232</speed><course>161.435104</course><hAcc>1.659361</hAcc><vAcc>0.868695</vAcc></extensions></trkpt>
      <trkpt lon="-3.054455" lat="52.704033"><ele>354.523804</ele><time>2022-01-15T10:40:04Z</time><extensions><speed>0.370200</speed><course>169.496262</course><hAcc>1.663294</hAcc><vAcc>0.869904</vAcc></extensions></trkpt>
      <trkpt lon="-3.054454" lat="52.704030"><ele>354.406830</ele><time>2022-01-15T10:40:05Z</time><extensions><speed>0.362494</speed><course>175.820663</course><hAcc>1.665992</hAcc><vAcc>0.870913</vAcc></extensions></trkpt>
      <trkpt lon="-3.054454" lat="52.704026"><ele>354.310455</ele><time>2022-01-15T10:40:06Z</time><extensions><speed>0.390296</speed><course>180.987946</course><hAcc>1.658361</hAcc><vAcc>0.871811</vAcc></extensions></trkpt>
      <trkpt lon="-3.054454" lat="52.704022"><ele>354.217773</ele><time>2022-01-15T10:40:07Z</time><extensions><speed>0.383680</speed><course>185.216568</course><hAcc>1.658235</hAcc><vAcc>0.872534</vAcc></extensions></trkpt>
      <trkpt lon="-3.054455" lat="52.704019"><ele>354.132050</ele><time>2022-01-15T10:40:08Z</time><extensions><speed>0.392417</speed><course>189.340042</course><hAcc>1.656073</hAcc><vAcc>0.873074</vAcc></extensions></trkpt>
      <trkpt lon="-3.054456" lat="52.704015"><ele>354.048828</ele><time>2022-01-15T10:40:09Z</time><extensions><speed>0.381725</speed><course>192.215744</course><hAcc>1.656003</hAcc><vAcc>0.873516</vAcc></extensions></trkpt>
      <trkpt lon="-3.054456" lat="52.704012"><ele>353.966248</ele><time>2022-01-15T10:40:10Z</time><extensions><speed>0.348022</speed><course>192.905792</course><hAcc>1.659193</hAcc><vAcc>0.873978</vAcc></extensions></trkpt>
      <trkpt lon="-3.054457" lat="52.704009"><ele>353.906860</ele><time>2022-01-15T10:40:11Z</time><extensions><speed>0.311470</speed><course>190.186371</course><hAcc>1.660062</hAcc><vAcc>0.868373</vAcc></extensions></trkpt>
      <trkpt lon="-3.054457" lat="52.704006"><ele>353.847778</ele><time>2022-01-15T10:40:12Z</time><extensions><speed>0.287523</speed><course>183.492050</course><hAcc>1.657784</hAcc><vAcc>0.860545</vAcc></extensions></trkpt>
      <trkpt lon="-3.054457" lat="52.704004"><ele>353.802399</ele><time>2022-01-15T10:40:13Z</time><extensions><speed>0.250067</speed><course>173.248306</course><hAcc>1.663390</hAcc><vAcc>0.851438</vAcc></extensions></trkpt>
      <trkpt lon="-3.054456" lat="52.704001"><ele>353.757690</ele><time>2022-01-15T10:40:14Z</time><extensions><speed>0.247147</speed><course>161.794495</course><hAcc>1.665810</hAcc><vAcc>0.840987</vAcc></extensions></trkpt>
      <trkpt lon="-3.054454" lat="52.703999"><ele>353.705078</ele><time>2022-01-15T10:40:15Z</time><extensions><speed>0.235392</speed><course>150.939087</course><hAcc>1.678022</hAcc><vAcc>0.828495</vAcc></extensions></trkpt>
      <trkpt lon="-3.054452" lat="52.703997"><ele>353.661255</ele><time>2022-01-15T10:40:16Z</time><extensions><speed>0.232276</speed><course>141.807037</course><hAcc>1.692749</hAcc><vAcc>0.813390</vAcc></extensions></trkpt>
      <trkpt lon="-3.054449" lat="52.703995"><ele>353.613220</ele><time>2022-01-15T10:40:17Z</time><extensions><speed>0.251492</speed><course>136.172607</course><hAcc>1.703039</hAcc><vAcc>0.795363</vAcc></extensions></trkpt>
      <trkpt lon="-3.054446" lat="52.703993"><ele>353.562195</ele><time>2022-01-15T10:40:18Z</time><extensions><speed>0.263720</speed><course>133.471817</course><hAcc>1.718303</hAcc><vAcc>0.774343</vAcc></extensions></trkpt>
      <trkpt lon="-3.054443" lat="52.703990"><ele>353.505249</ele><time>2022-01-15T10:40:19Z</time><extensions><speed>0.285124</speed><course>134.779633</course><hAcc>1.729475</hAcc><vAcc>0.750590</vAcc></extensions></trkpt>
      <trkpt lon="-3.054440" lat="52.703988"><ele>353.439178</ele><time>2022-01-15T10:40:20Z</time><extensions><speed>0.337943</speed><course>140.238754</course><hAcc>1.730922</hAcc><vAcc>0.724789</vAcc></extensions></trkpt>
      <trkpt lon="-3.054438" lat="52.703985"><ele>353.362610</ele><time>2022-01-15T10:40:21Z</time><extensions><speed>0.348705</speed><course>147.543411</course><hAcc>1.744970</hAcc><vAcc>0.698059</vAcc></extensions></trkpt>
      <trkpt lon="-3.054435" lat="52.703982"><ele>353.272125</ele><time>2022-01-15T10:40:22Z</time><extensions><speed>0.358944</speed><course>155.590027</course><hAcc>1.762108</hAcc><vAcc>0.671815</vAcc></extensions></trkpt>
      <trkpt lon="-3.054434" lat="52.703978"><ele>353.164429</ele><time>2022-01-15T10:40:23Z</time><extensions><speed>0.374452</speed><course>163.402771</course><hAcc>1.774864</hAcc><vAcc>0.647444</vAcc></extensions></trkpt>
      <trkpt lon="-3.054433" lat="52.703974"><ele>353.036591</ele><time>2022-01-15T10:40:24Z</time><extensions><speed>0.433887</speed><course>169.629532</course><hAcc>1.774458</hAcc><vAcc>0.626005</vAcc></extensions></trkpt>
      <trkpt lon="-3.054433" lat="52.703969"><ele>352.885162</ele><time>2022-01-15T10:40:25Z</time><extensions><speed>0.467882</speed><course>174.965088</course><hAcc>1.779461</hAcc><vAcc>0.608107</vAcc></extensions></trkpt>
      <trkpt lon="-3.054433" lat="52.703964"><ele>352.711548</ele><time>2022-01-15T10:40:26Z</time><extensions><speed>0.472763</speed><course>180.957306</course><hAcc>1.790962</hAcc><vAcc>0.593946</vAcc></extensions></trkpt>
      <trkpt lon="-3.054435" lat="52.703959"><ele>352.517578</ele><time>2022-01-15T10:40:27Z</time><extensions><speed>0.510025</speed><course>187.364716</course><hAcc>1.800820</hAcc><vAcc>0.583412</vAcc></extensions></trkpt>
      <trkpt lon="-3.054437" lat="52.703954"><ele>352.303223</ele><time>2022-01-15T10:40:29Z</time><extensions><speed>0.448166</speed><course>194.743164</course><hAcc>1.827169</hAcc><vAcc>0.576104</vAcc></extensions></trkpt>
      <trkpt lon="-3.054441" lat="52.703949"><ele>352.069641</ele><time>2022-01-15T10:40:30Z</time><extensions><speed>0.520820</speed><course>202.040588</course><hAcc>1.831711</hAcc><vAcc>0.571400</vAcc></extensions></trkpt>
      <trkpt lon="-3.054445" lat="52.703944"><ele>351.817657</ele><time>2022-01-15T10:40:31Z</time><extensions><speed>0.613358</speed><course>207.248001</course><hAcc>1.832809</hAcc><vAcc>0.568679</vAcc></extensions></trkpt>
      <trkpt lon="-3.054451" lat="52.703938"><ele>351.547424</ele><time>2022-01-15T10:40:32Z</time><extensions><speed>0.691309</speed><course>211.079483</course><hAcc>1.839925</hAcc><vAcc>0.567476</vAcc></extensions></trkpt>
      <trkpt lon="-3.054458" lat="52.703932"><ele>351.263733</ele><time>2022-01-15T10:40:33Z</time><extensions><speed>0.719917</speed><course>214.474426</course><hAcc>1.852617</hAcc><vAcc>0.567481</vAcc></extensions></trkpt>
      <trkpt lon="-3.054466" lat="52.703926"><ele>350.965454</ele><time>2022-01-15T10:40:34Z</time><extensions><speed>0.746093</speed><course>217.649994</course><hAcc>1.857650</hAcc><vAcc>0.568461</vAcc></extensions></trkpt>
      <trkpt lon="-3.054474" lat="52.703920"><ele>350.653961</ele><time>2022-01-15T10:40:35Z</time><extensions><speed>0.808403</speed><course>220.055542</course><hAcc>1.850840</hAcc><vAcc>0.570220</vAcc></extensions></trkpt>
      <trkpt lon="-3.054483" lat="52.703914"><ele>350.331268</ele><time>2022-01-15T10:40:36Z</time><extensions><speed>0.807791</speed><course>221.849762</course><hAcc>1.847230</hAcc><vAcc>0.572557</vAcc></extensions></trkpt>
      <trkpt lon="-3.054492" lat="52.703908"><ele>350.003937</ele><time>2022-01-15T10:40:37Z</time><extensions><speed>0.778050</speed><course>223.042252</course><hAcc>1.844096</hAcc><vAcc>0.575243</vAcc></extensions></trkpt>
      <trkpt lon="-3.054500" lat="52.703903"><ele>349.668976</ele><time>2022-01-15T10:40:38Z</time><extensions><speed>0.780248</speed><course>223.607727</course><hAcc>1.834504</hAcc><vAcc>0.578025</vAcc></extensions></trkpt>
      <trkpt lon="-3.054509" lat="52.703897"><ele>349.327637</ele><time>2022-01-15T10:40:39Z</time><extensions><speed>0.786050</speed><course>223.730118</course><hAcc>1.822264</hAcc><vAcc>0.580730</vAcc></extensions></trkpt>
      <trkpt lon="-3.054517" lat="52.703891"><ele>348.982880</ele><time>2022-01-15T10:40:40Z</time><extensions><speed>0.794125</speed><course>223.360992</course><hAcc>1.809644</hAcc><vAcc>0.583251</vAcc></extensions></trkpt>
      <trkpt lon="-3.054525" lat="52.703885"><ele>348.635895</ele><time>2022-01-15T10:40:41Z</time><extensions><speed>0.769101</speed><course>222.536758</course><hAcc>1.802059</hAcc><vAcc>0.585501</vAcc></extensions></trkpt>
      <trkpt lon="-3.054533" lat="52.703880"><ele>348.288788</ele><time>2022-01-15T10:40:42Z</time><extensions><speed>0.738770</speed><course>221.299774</course><hAcc>1.797520</hAcc><vAcc>0.587429</vAcc></extensions></trkpt>
      <trkpt lon="-3.054540" lat="52.703874"><ele>347.944244</ele><time>2022-01-15T10:40:43Z</time><extensions><speed>0.702211</speed><course>219.444946</course><hAcc>1.792991</hAcc><vAcc>0.589081</vAcc></extensions></trkpt>
      <trkpt lon="-3.054547" lat="52.703869"><ele>347.604004</ele><time>2022-01-15T10:40:44Z</time><extensions><speed>0.702480</speed><course>216.678909</course><hAcc>1.783707</hAcc><vAcc>0.590609</vAcc></extensions></trkpt>
      <trkpt lon="-3.054554" lat="52.703863"><ele>347.269379</ele><time>2022-01-15T10:40:45Z</time><extensions><speed>0.663895</speed><course>213.696838</course><hAcc>1.778989</hAcc><vAcc>0.592192</vAcc></extensions></trkpt>
      <trkpt lon="-3.054559" lat="52.703857"><ele>346.941467</ele><time>2022-01-15T10:40:46Z</time><extensions><speed>0.630580</speed><course>210.600632</course><hAcc>1.773240</hAcc><vAcc>0.593988</vAcc></extensions></trkpt>
      <trkpt lon="-3.054564" lat="52.703852"><ele>346.619324</ele><time>2022-01-15T10:40:47Z</time><extensions><speed>0.592510</speed><course>207.628754</course><hAcc>1.765615</hAcc><vAcc>0.596082</vAcc></extensions></trkpt>
      <trkpt lon="-3.054569" lat="52.703847"><ele>346.300201</ele><time>2022-01-15T10:40:48Z</time><extensions><speed>0.595404</speed><course>205.692947</course><hAcc>1.750747</hAcc><vAcc>0.598415</vAcc></extensions></trkpt>
      <trkpt lon="-3.054573" lat="52.703842"><ele>345.985413</ele><time>2022-01-15T10:40:49Z</time><extensions><speed>0.602955</speed><course>205.208328</course><hAcc>1.736246</hAcc><vAcc>0.600818</vAcc></extensions></trkpt>
      <trkpt lon="-3.054577" lat="52.703836"><ele>345.680756</ele><time>2022-01-15T10:40:50Z</time><extensions><speed>0.571628</speed><course>205.755798</course><hAcc>1.730792</hAcc><vAcc>0.603014</vAcc></extensions></trkpt>
      <trkpt lon="-3.054582" lat="52.703832"><ele>345.383911</ele><time>2022-01-15T10:40:51Z</time><extensions><speed>0.563919</speed><course>207.438736</course><hAcc>1.725766</hAcc><vAcc>0.604710</vAcc></extensions></trkpt>
      <trkpt lon="-3.054587" lat="52.703827"><ele>345.094910</ele><time>2022-01-15T10:40:52Z</time><extensions><speed>0.585149</speed><course>209.629532</course><hAcc>1.719442</hAcc><vAcc>0.605717</vAcc></extensions></trkpt>
      <trkpt lon="-3.054592" lat="52.703822"><ele>344.812897</ele><time>2022-01-15T10:40:53Z</time><extensions><speed>0.610604</speed><course>211.407974</course><hAcc>1.714355</hAcc><vAcc>0.606000</vAcc></extensions></trkpt>
      <trkpt lon="-3.054597" lat="52.703817"><ele>344.540466</ele><time>2022-01-15T10:40:54Z</time><extensions><speed>0.633847</speed><course>212.986877</course><hAcc>1.710354</hAcc><vAcc>0.605616</vAcc></extensions></trkpt>
      <trkpt lon="-3.054603" lat="52.703811"><ele>344.273376</ele><time>2022-01-15T10:40:55Z</time><extensions><speed>0.632137</speed><course>214.883865</course><hAcc>1.708534</hAcc><vAcc>0.604685</vAcc></extensions></trkpt>
      <trkpt lon="-3.054609" lat="52.703806"><ele>344.012695</ele><time>2022-01-15T10:40:56Z</time><extensions><speed>0.609255</speed><course>216.788208</course><hAcc>1.708328</hAcc><vAcc>0.603355</vAcc></extensions></trkpt>
      <trkpt lon="-3.054615" lat="52.703801"><ele>343.759033</ele><time>2022-01-15T10:40:57Z</time><extensions><speed>0.579983</speed><course>218.984222</course><hAcc>1.710424</hAcc><vAcc>0.601781</vAcc></extensions></trkpt>
      <trkpt lon="-3.054621" lat="52.703797"><ele>343.512909</ele><time>2022-01-15T10:40:58Z</time><extensions><speed>0.515415</speed><course>221.580994</course><hAcc>1.719070</hAcc><vAcc>0.600143</vAcc></extensions></trkpt>
      <trkpt lon="-3.054627" lat="52.703793"><ele>343.276093</ele><time>2022-01-15T10:40:59Z</time><extensions><speed>0.541946</speed><course>223.370529</course><hAcc>1.715576</hAcc><vAcc>0.598632</vAcc></extensions></trkpt>
      <trkpt lon="-3.054633" lat="52.703789"><ele>343.044403</ele><time>2022-01-15T10:41:00Z</time><extensions><speed>0.563454</speed><course>222.807114</course><hAcc>1.713315</hAcc><vAcc>0.597425</vAcc></extensions></trkpt>
      <trkpt lon="-3.054639" lat="52.703785"><ele>342.820587</ele><time>2022-01-15T10:41:01Z</time><extensions><speed>0.593250</speed><course>220.166122</course><hAcc>1.711610</hAcc><vAcc>0.596661</vAcc></extensions></trkpt>
      <trkpt lon="-3.054645" lat="52.703780"><ele>342.600769</ele><time>2022-01-15T10:41:02Z</time><extensions><speed>0.601902</speed><course>217.125763</course><hAcc>1.712224</hAcc><vAcc>0.596415</vAcc></extensions></trkpt>
      <trkpt lon="-3.054651" lat="52.703775"><ele>342.384674</ele><time>2022-01-15T10:41:03Z</time><extensions><speed>0.627729</speed><course>215.061844</course><hAcc>1.709066</hAcc><vAcc>0.596636</vAcc></extensions></trkpt>
      <trkpt lon="-3.054656" lat="52.703770"><ele>342.174408</ele><time>2022-01-15T10:41:04Z</time><extensions><speed>0.621104</speed><course>214.368378</course><hAcc>1.707885</hAcc><vAcc>0.597172</vAcc></extensions></trkpt>
      <trkpt lon="-3.054662" lat="52.703765"><ele>341.966644</ele><time>2022-01-15T10:41:05Z</time><extensions><speed>0.635479</speed><course>214.473480</course><hAcc>1.703307</hAcc><vAcc>0.597893</vAcc></extensions></trkpt>
      <trkpt lon="-3.054667" lat="52.703760"><ele>341.764252</ele><time>2022-01-15T10:41:06Z</time><extensions><speed>0.606950</speed><course>214.677643</course><hAcc>1.702841</hAcc><vAcc>0.598717</vAcc></extensions></trkpt>
      <trkpt lon="-3.054672" lat="52.703755"><ele>341.564972</ele><time>2022-01-15T10:41:07Z</time><extensions><speed>0.593950</speed><course>214.340240</course><hAcc>1.699787</hAcc><vAcc>0.599601</vAcc></extensions></trkpt>
      <trkpt lon="-3.054676" lat="52.703751"><ele>341.371490</ele><time>2022-01-15T10:41:08Z</time><extensions><speed>0.571902</speed><course>212.763748</course><hAcc>1.697169</hAcc><vAcc>0.600561</vAcc></extensions></trkpt>
      <trkpt lon="-3.054680" lat="52.703746"><ele>341.185394</ele><time>2022-01-15T10:41:09Z</time><extensions><speed>0.549096</speed><course>209.764679</course><hAcc>1.692762</hAcc><vAcc>0.601616</vAcc></extensions></trkpt>
      <trkpt lon="-3.054683" lat="52.703741"><ele>341.000885</ele><time>2022-01-15T10:41:10Z</time><extensions><speed>0.529507</speed><course>204.926971</course><hAcc>1.686058</hAcc><vAcc>0.602843</vAcc></extensions></trkpt>
      <trkpt lon="-3.054686" lat="52.703737"><ele>340.820435</ele><time>2022-01-15T10:41:11Z</time><extensions><speed>0.470987</speed><course>198.112946</course><hAcc>1.685572</hAcc><vAcc>0.604325</vAcc></extensions></trkpt>
      <trkpt lon="-3.054687" lat="52.703733"><ele>340.644928</ele><time>2022-01-15T10:41:12Z</time><extensions><speed>0.432298</speed><course>188.761444</course><hAcc>1.682281</hAcc><vAcc>0.606102</vAcc></extensions></trkpt>
      <trkpt lon="-3.054687" lat="52.703728"><ele>340.475952</ele><time>2022-01-15T10:41:13Z</time><extensions><speed>0.430045</speed><course>178.579239</course><hAcc>1.674850</hAcc><vAcc>0.608171</vAcc></extensions></trkpt>
      <trkpt lon="-3.054686" lat="52.703724"><ele>340.311371</ele><time>2022-01-15T10:41:14Z</time><extensions><speed>0.422694</speed><course>169.447449</course><hAcc>1.673944</hAcc><vAcc>0.610581</vAcc></extensions></trkpt>
      <trkpt lon="-3.054685" lat="52.703720"><ele>340.152435</ele><time>2022-01-15T10:41:15Z</time><extensions><speed>0.436010</speed><course>161.660294</course><hAcc>1.673141</hAcc><vAcc>0.613376</vAcc></extensions></trkpt>
      <trkpt lon="-3.054682" lat="52.703716"><ele>339.995270</ele><time>2022-01-15T10:41:16Z</time><extensions><speed>0.462772</speed><course>155.556854</course><hAcc>1.669702</hAcc><vAcc>0.616591</vAcc></extensions></trkpt>
      <trkpt lon="-3.054678" lat="52.703711"><ele>339.837799</ele><time>2022-01-15T10:41:17Z</time><extensions><speed>0.500707</speed><course>152.136673</course><hAcc>1.663750</hAcc><vAcc>0.620274</vAcc></extensions></trkpt>
      <trkpt lon="-3.054674" lat="52.703707"><ele>339.683563</ele><time>2022-01-15T10:41:18Z</time><extensions><speed>0.483606</speed><course>151.631378</course><hAcc>1.665100</hAcc><vAcc>0.624317</vAcc></extensions></trkpt>
      <trkpt lon="-3.054671" lat="52.703702"><ele>339.529022</ele><time>2022-01-15T10:41:19Z</time><extensions><speed>0.492515</speed><course>153.539154</course><hAcc>1.660061</hAcc><vAcc>0.628674</vAcc></extensions></trkpt>
      <trkpt lon="-3.054668" lat="52.703697"><ele>339.376282</ele><time>2022-01-15T10:41:20Z</time><extensions><speed>0.507123</speed><course>157.410614</course><hAcc>1.652922</hAcc><vAcc>0.633262</vAcc></extensions></trkpt>
      <trkpt lon="-3.054665" lat="52.703692"><ele>339.221008</ele><time>2022-01-15T10:41:21Z</time><extensions><speed>0.530397</speed><course>161.528793</course><hAcc>1.647708</hAcc><vAcc>0.637919</vAcc></extensions></trkpt>
      <trkpt lon="-3.054663" lat="52.703687"><ele>339.065979</ele><time>2022-01-15T10:41:22Z</time><extensions><speed>0.558868</speed><course>164.502136</course><hAcc>1.643625</hAcc><vAcc>0.642470</vAcc></extensions></trkpt>
      <trkpt lon="-3.054662" lat="52.703682"><ele>338.912781</ele><time>2022-01-15T10:41:23Z</time><extensions><speed>0.605741</speed><course>166.208893</course><hAcc>1.637562</hAcc><vAcc>0.646741</vAcc></extensions></trkpt>
      <trkpt lon="-3.054660" lat="52.703676"><ele>338.761841</ele><time>2022-01-15T10:41:24Z</time><extensions><speed>0.615115</speed><course>167.807556</course><hAcc>1.637607</hAcc><vAcc>0.650634</vAcc></extensions></trkpt>
      <trkpt lon="-3.054658" lat="52.703670"><ele>338.605804</ele><time>2022-01-15T10:41:25Z</time><extensions><speed>0.642104</speed><course>170.152405</course><hAcc>1.635545</hAcc><vAcc>0.654106</vAcc></extensions></trkpt>
      <trkpt lon="-3.054658" lat="52.703664"><ele>338.449371</ele><time>2022-01-15T10:41:26Z</time><extensions><speed>0.649011</speed><course>174.262222</course><hAcc>1.633771</hAcc><vAcc>0.657172</vAcc></extensions></trkpt>
      <trkpt lon="-3.054658" lat="52.703657"><ele>338.289703</ele><time>2022-01-15T10:41:27Z</time><extensions><speed>0.676973</speed><course>180.500610</course><hAcc>1.628869</hAcc><vAcc>0.659886</vAcc></extensions></trkpt>
      <trkpt lon="-3.054659" lat="52.703651"><ele>338.132019</ele><time>2022-01-15T10:41:28Z</time><extensions><speed>0.678380</speed><course>187.071548</course><hAcc>1.627095</hAcc><vAcc>0.662348</vAcc></extensions></trkpt>
      <trkpt lon="-3.054661" lat="52.703644"><ele>337.967224</ele><time>2022-01-15T10:41:29Z</time><extensions><speed>0.679719</speed><course>192.877945</course><hAcc>1.625489</hAcc><vAcc>0.664622</vAcc></extensions></trkpt>
      <trkpt lon="-3.054664" lat="52.703638"><ele>337.801483</ele><time>2022-01-15T10:41:30Z</time><extensions><speed>0.641854</speed><course>197.750397</course><hAcc>1.627373</hAcc><vAcc>0.666764</vAcc></extensions></trkpt>
      <trkpt lon="-3.054668" lat="52.703632"><ele>337.634949</ele><time>2022-01-15T10:41:31Z</time><extensions><speed>0.646173</speed><course>201.810944</course><hAcc>1.623212</hAcc><vAcc>0.668824</vAcc></extensions></trkpt>
      <trkpt lon="-3.054672" lat="52.703626"><ele>337.464020</ele><time>2022-01-15T10:41:32Z</time><extensions><speed>0.619193</speed><course>204.852432</course><hAcc>1.623773</hAcc><vAcc>0.670716</vAcc></extensions></trkpt>
      <trkpt lon="-3.054676" lat="52.703621"><ele>337.292542</ele><time>2022-01-15T10:41:33Z</time><extensions><speed>0.584906</speed><course>207.355164</course><hAcc>1.626378</hAcc><vAcc>0.672469</vAcc></extensions></trkpt>
      <trkpt lon="-3.054681" lat="52.703616"><ele>337.114777</ele><time>2022-01-15T10:41:34Z</time><extensions><speed>0.620640</speed><course>209.938278</course><hAcc>1.620313</hAcc><vAcc>0.674098</vAcc></extensions></trkpt>
      <trkpt lon="-3.054686" lat="52.703611"><ele>336.935211</ele><time>2022-01-15T10:41:35Z</time><extensions><speed>0.629650</speed><course>212.449112</course><hAcc>1.619298</hAcc><vAcc>0.675489</vAcc></extensions></trkpt>
      <trkpt lon="-3.054692" lat="52.703606"><ele>336.749969</ele><time>2022-01-15T10:41:36Z</time><extensions><speed>0.630482</speed><course>214.079193</course><hAcc>1.621888</hAcc><vAcc>0.676612</vAcc></extensions></trkpt>
      <trkpt lon="-3.054698" lat="52.703601"><ele>336.557678</ele><time>2022-01-15T10:41:37Z</time><extensions><speed>0.635886</speed><course>214.785660</course><hAcc>1.623705</hAcc><vAcc>0.677466</vAcc></extensions></trkpt>
      <trkpt lon="-3.054703" lat="52.703596"><ele>336.359375</ele><time>2022-01-15T10:41:38Z</time><extensions><speed>0.622679</speed><course>214.375931</course><hAcc>1.625767</hAcc><vAcc>0.678079</vAcc></extensions></trkpt>
      <trkpt lon="-3.054709" lat="52.703590"><ele>336.159882</ele><time>2022-01-15T10:41:39Z</time><extensions><speed>0.635956</speed><course>212.984070</course><hAcc>1.623435</hAcc><vAcc>0.678558</vAcc></extensions></trkpt>
      <trkpt lon="-3.054714" lat="52.703585"><ele>335.955627</ele><time>2022-01-15T10:41:40Z</time><extensions><speed>0.619646</speed><course>211.528519</course><hAcc>1.625072</hAcc><vAcc>0.678966</vAcc></extensions></trkpt>
      <trkpt lon="-3.054719" lat="52.703580"><ele>335.749939</ele><time>2022-01-15T10:41:41Z</time><extensions><speed>0.597901</speed><course>210.891724</course><hAcc>1.628292</hAcc><vAcc>0.679343</vAcc></extensions></trkpt>
      <trkpt lon="-3.054724" lat="52.703575"><ele>335.531555</ele><time>2022-01-15T10:41:42Z</time><extensions><speed>0.590090</speed><course>211.086609</course><hAcc>1.629108</hAcc><vAcc>0.679847</vAcc></extensions></trkpt>
      <trkpt lon="-3.054729" lat="52.703570"><ele>335.310181</ele><time>2022-01-15T10:41:43Z</time><extensions><speed>0.582154</speed><course>212.229156</course><hAcc>1.629769</hAcc><vAcc>0.680483</vAcc></extensions></trkpt>
      <trkpt lon="-3.054734" lat="52.703565"><ele>335.082123</ele><time>2022-01-15T10:41:44Z</time><extensions><speed>0.576875</speed><course>213.950256</course><hAcc>1.631152</hAcc><vAcc>0.681221</vAcc></extensions></trkpt>
      <trkpt lon="-3.054740" lat="52.703561"><ele>334.846863</ele><time>2022-01-15T10:41:45Z</time><extensions><speed>0.588838</speed><course>215.335648</course><hAcc>1.630076</hAcc><vAcc>0.682021</vAcc></extensions></trkpt>
      <trkpt lon="-3.054745" lat="52.703556"><ele>334.598328</ele><time>2022-01-15T10:41:46Z</time><extensions><speed>0.641190</speed><course>215.624176</course><hAcc>1.622963</hAcc><vAcc>0.682848</vAcc></extensions></trkpt>
      <trkpt lon="-3.054751" lat="52.703551"><ele>334.340729</ele><time>2022-01-15T10:41:47Z</time><extensions><speed>0.646285</speed><course>214.699066</course><hAcc>1.622564</hAcc><vAcc>0.683734</vAcc></extensions></trkpt>
      <trkpt lon="-3.054757" lat="52.703545"><ele>334.074066</ele><time>2022-01-15T10:41:48Z</time><extensions><speed>0.647329</speed><course>213.148071</course><hAcc>1.624008</hAcc><vAcc>0.684617</vAcc></extensions></trkpt>
      <trkpt lon="-3.054763" lat="52.703540"><ele>333.799408</ele><time>2022-01-15T10:41:49Z</time><extensions><speed>0.592994</speed><course>211.709091</course><hAcc>1.631235</hAcc><vAcc>0.685603</vAcc></extensions></trkpt>
      <trkpt lon="-3.054768" lat="52.703535"><ele>333.521698</ele><time>2022-01-15T10:41:50Z</time><extensions><speed>0.594114</speed><course>210.704346</course><hAcc>1.630167</hAcc><vAcc>0.686638</vAcc></extensions></trkpt>
      <trkpt lon="-3.054773" lat="52.703530"><ele>333.229065</ele><time>2022-01-15T10:41:51Z</time><extensions><speed>0.625930</speed><course>210.014526</course><hAcc>1.623901</hAcc><vAcc>0.687694</vAcc></extensions></trkpt>
      <trkpt lon="-3.054778" lat="52.703524"><ele>332.930695</ele><time>2022-01-15T10:41:52Z</time><extensions><speed>0.683754</speed><course>209.767838</course><hAcc>1.615031</hAcc><vAcc>0.688855</vAcc></extensions></trkpt>
      <trkpt lon="-3.054784" lat="52.703518"><ele>332.623566</ele><time>2022-01-15T10:41:53Z</time><extensions><speed>0.668867</speed><course>210.415588</course><hAcc>1.615883</hAcc><vAcc>0.690106</vAcc></extensions></trkpt>
      <trkpt lon="-3.054790" lat="52.703513"><ele>332.309387</ele><time>2022-01-15T10:41:54Z</time><extensions><speed>0.641063</speed><course>211.777222</course><hAcc>1.617971</hAcc><vAcc>0.691413</vAcc></extensions></trkpt>
      <trkpt lon="-3.054795" lat="52.703508"><ele>331.986725</ele><time>2022-01-15T10:41:55Z</time><extensions><speed>0.644269</speed><course>212.848251</course><hAcc>1.617152</hAcc><vAcc>0.692658</vAcc></extensions></trkpt>
      <trkpt lon="-3.054801" lat="52.703502"><ele>331.661743</ele><time>2022-01-15T10:41:56Z</time><extensions><speed>0.618044</speed><course>213.217896</course><hAcc>1.620669</hAcc><vAcc>0.693747</vAcc></extensions></trkpt>
      <trkpt lon="-3.054807" lat="52.703497"><ele>331.322144</ele><time>2022-01-15T10:41:57Z</time><extensions><speed>0.693333</speed><course>213.493881</course><hAcc>1.612646</hAcc><vAcc>0.694643</vAcc></extensions></trkpt>
      <trkpt lon="-3.054813" lat="52.703491"><ele>330.982147</ele><time>2022-01-15T10:41:58Z</time><extensions><speed>0.702361</speed><course>214.013474</course><hAcc>1.612796</hAcc><vAcc>0.695284</vAcc></extensions></trkpt>
      <trkpt lon="-3.054819" lat="52.703486"><ele>330.632751</ele><time>2022-01-15T10:41:59Z</time><extensions><speed>0.723667</speed><course>214.395065</course><hAcc>1.613707</hAcc><vAcc>0.695682</vAcc></extensions></trkpt>
      <trkpt lon="-3.054825" lat="52.703480"><ele>330.290802</ele><time>2022-01-15T10:42:00Z</time><extensions><speed>0.704694</speed><course>214.553589</course><hAcc>1.618160</hAcc><vAcc>0.695904</vAcc></extensions></trkpt>
      <trkpt lon="-3.054831" lat="52.703474"><ele>329.955109</ele><time>2022-01-15T10:42:00Z</time><extensions><speed>0.720508</speed><course>214.201233</course><hAcc>1.617471</hAcc><vAcc>0.696041</vAcc></extensions></trkpt>
      <trkpt lon="-3.054837" lat="52.703468"><ele>329.614960</ele><time>2022-01-15T10:42:01Z</time><extensions><speed>0.679385</speed><course>213.173447</course><hAcc>1.622061</hAcc><vAcc>0.695973</vAcc></extensions></trkpt>
      <trkpt lon="-3.054842" lat="52.703463"><ele>329.278259</ele><time>2022-01-15T10:42:03Z</time><extensions><speed>0.653896</speed><course>211.545563</course><hAcc>1.624382</hAcc><vAcc>0.695747</vAcc></extensions></trkpt>
      <trkpt lon="-3.054847" lat="52.703457"><ele>328.945312</ele><time>2022-01-15T10:42:04Z</time><extensions><speed>0.640860</speed><course>209.232651</course><hAcc>1.624436</hAcc><vAcc>0.695262</vAcc></extensions></trkpt>
      <trkpt lon="-3.054852" lat="52.703451"><ele>328.608459</ele><time>2022-01-15T10:42:04Z</time><extensions><speed>0.647963</speed><course>206.264618</course><hAcc>1.622999</hAcc><vAcc>0.694448</vAcc></extensions></trkpt>
      <trkpt lon="-3.054856" lat="52.703445"><ele>328.273010</ele><time>2022-01-15T10:42:05Z</time><extensions><speed>0.656700</speed><course>202.555054</course><hAcc>1.624533</hAcc><vAcc>0.693254</vAcc></extensions></trkpt>
      <trkpt lon="-3.054860" lat="52.703439"><ele>327.944397</ele><time>2022-01-15T10:42:06Z</time><extensions><speed>0.650901</speed><course>198.250183</course><hAcc>1.631638</hAcc><vAcc>0.691689</vAcc></extensions></trkpt>
      <trkpt lon="-3.054863" lat="52.703433"><ele>327.614563</ele><time>2022-01-15T10:42:07Z</time><extensions><speed>0.682514</speed><course>194.559906</course><hAcc>1.635499</hAcc><vAcc>0.689781</vAcc></extensions></trkpt>
      <trkpt lon="-3.054866" lat="52.703426"><ele>327.286987</ele><time>2022-01-15T10:42:09Z</time><extensions><speed>0.725215</speed><course>192.835938</course><hAcc>1.638987</hAcc><vAcc>0.687503</vAcc></extensions></trkpt>
      <trkpt lon="-3.054868" lat="52.703418"><ele>326.961456</ele><time>2022-01-15T10:42:10Z</time><extensions><speed>0.744432</speed><course>192.292145</course><hAcc>1.646792</hAcc><vAcc>0.684894</vAcc></extensions></trkpt>
      <trkpt lon="-3.054871" lat="52.703411"><ele>326.638611</ele><time>2022-01-15T10:42:10Z</time><extensions><speed>0.783027</speed><course>191.634155</course><hAcc>1.652880</hAcc><vAcc>0.682059</vAcc></extensions></trkpt>
      <trkpt lon="-3.054873" lat="52.703403"><ele>326.320984</ele><time>2022-01-15T10:42:11Z</time><extensions><speed>0.824880</speed><course>191.177429</course><hAcc>1.658256</hAcc><vAcc>0.679077</vAcc></extensions></trkpt>
      <trkpt lon="-3.054875" lat="52.703395"><ele>326.003845</ele><time>2022-01-15T10:42:13Z</time><extensions><speed>0.870382</speed><course>190.532211</course><hAcc>1.660907</hAcc><vAcc>0.676127</vAcc></extensions></trkpt>
      <trkpt lon="-3.054877" lat="52.703387"><ele>325.693512</ele><time>2022-01-15T10:42:14Z</time><extensions><speed>0.910965</speed><course>189.267578</course><hAcc>1.659815</hAcc><vAcc>0.673365</vAcc></extensions></trkpt>
      <trkpt lon="-3.054878" lat="52.703378"><ele>325.391144</ele><time>2022-01-15T10:42:15Z</time><extensions><speed>0.933745</speed><course>187.572586</course><hAcc>1.656474</hAcc><vAcc>0.671008</vAcc></extensions></trkpt>
      <trkpt lon="-3.054879" lat="52.703369"><ele>325.096863</ele><time>2022-01-15T10:42:16Z</time><extensions><speed>0.911031</speed><course>185.015457</course><hAcc>1.655270</hAcc><vAcc>0.669245</vAcc></extensions></trkpt>
      <trkpt lon="-3.054880" lat="52.703360"><ele>324.811249</ele><time>2022-01-15T10:42:17Z</time><extensions><speed>0.839601</speed><course>181.527939</course><hAcc>1.655171</hAcc><vAcc>0.668308</vAcc></extensions></trkpt>
      <trkpt lon="-3.054879" lat="52.703352"><ele>324.536591</ele><time>2022-01-15T10:42:18Z</time><extensions><speed>0.825748</speed><course>177.253876</course><hAcc>1.645701</hAcc><vAcc>0.668352</vAcc></extensions></trkpt>
      <trkpt lon="-3.054877" lat="52.703345"><ele>324.267761</ele><time>2022-01-15T10:42:19Z</time><extensions><speed>0.785888</speed><course>172.170593</course><hAcc>1.637573</hAcc><vAcc>0.669449</vAcc></extensions></trkpt>
      <trkpt lon="-3.054875" lat="52.703337"><ele>324.014984</ele><time>2022-01-15T10:42:20Z</time><extensions><speed>0.722198</speed><course>166.809189</course><hAcc>1.633244</hAcc><vAcc>0.671645</vAcc></extensions></trkpt>
      <trkpt lon="-3.054872" lat="52.703331"><ele>323.777832</ele><time>2022-01-15T10:42:21Z</time><extensions><speed>0.720049</speed><course>162.346481</course><hAcc>1.623848</hAcc><vAcc>0.674892</vAcc></extensions></trkpt>
      <trkpt lon="-3.054868" lat="52.703324"><ele>323.553406</ele><time>2022-01-15T10:42:22Z</time><extensions><speed>0.713096</speed><course>159.285095</course><hAcc>1.616205</hAcc><vAcc>0.678967</vAcc></extensions></trkpt>
      <trkpt lon="-3.054863" lat="52.703318"><ele>323.345123</ele><time>2022-01-15T10:42:23Z</time><extensions><speed>0.697991</speed><course>156.934540</course><hAcc>1.610342</hAcc><vAcc>0.683592</vAcc></extensions></trkpt>
      <trkpt lon="-3.054859" lat="52.703312"><ele>323.147980</ele><time>2022-01-15T10:42:24Z</time><extensions><speed>0.658466</speed><course>155.215149</course><hAcc>1.606420</hAcc><vAcc>0.688445</vAcc></extensions></trkpt>
      <trkpt lon="-3.054854" lat="52.703306"><ele>322.967682</ele><time>2022-01-15T10:42:25Z</time><extensions><speed>0.646222</speed><course>153.585785</course><hAcc>1.599317</hAcc><vAcc>0.693228</vAcc></extensions></trkpt>
      <trkpt lon="-3.054849" lat="52.703301"><ele>322.803894</ele><time>2022-01-15T10:42:26Z</time><extensions><speed>0.641546</speed><course>151.685699</course><hAcc>1.592365</hAcc><vAcc>0.697599</vAcc></extensions></trkpt>
      <trkpt lon="-3.054844" lat="52.703295"><ele>322.649933</ele><time>2022-01-15T10:42:27Z</time><extensions><speed>0.621610</speed><course>150.023468</course><hAcc>1.590479</hAcc><vAcc>0.701281</vAcc></extensions></trkpt>
      <trkpt lon="-3.054839" lat="52.703290"><ele>322.510315</ele><time>2022-01-15T10:42:28Z</time><extensions><speed>0.586716</speed><course>149.299957</course><hAcc>1.594602</hAcc><vAcc>0.704054</vAcc></extensions></trkpt>
      <trkpt lon="-3.054835" lat="52.703284"><ele>322.381378</ele><time>2022-01-15T10:42:29Z</time><extensions><speed>0.574484</speed><course>149.955353</course><hAcc>1.598328</hAcc><vAcc>0.705885</vAcc></extensions></trkpt>
      <trkpt lon="-3.054831" lat="52.703279"><ele>322.257629</ele><time>2022-01-15T10:42:30Z</time><extensions><speed>0.634181</speed><course>151.209030</course><hAcc>1.595931</hAcc><vAcc>0.706704</vAcc></extensions></trkpt>
      <trkpt lon="-3.054826" lat="52.703273"><ele>322.138855</ele><time>2022-01-15T10:42:31Z</time><extensions><speed>0.683386</speed><course>152.937927</course><hAcc>1.598816</hAcc><vAcc>0.706563</vAcc></extensions></trkpt>
      <trkpt lon="-3.054822" lat="52.703267"><ele>322.027222</ele><time>2022-01-15T10:42:32Z</time><extensions><speed>0.717323</speed><course>155.867722</course><hAcc>1.606575</hAcc><vAcc>0.705491</vAcc></extensions></trkpt>
      <trkpt lon="-3.054819" lat="52.703260"><ele>321.909912</ele><time>2022-01-15T10:42:33Z</time><extensions><speed>0.746880</speed><course>160.130035</course><hAcc>1.615502</hAcc><vAcc>0.703624</vAcc></extensions></trkpt>
      <trkpt lon="-3.054816" lat="52.703253"><ele>321.786926</ele><time>2022-01-15T10:42:34Z</time><extensions><speed>0.763936</speed><course>165.427505</course><hAcc>1.625273</hAcc><vAcc>0.701173</vAcc></extensions></trkpt>
      <trkpt lon="-3.054814" lat="52.703245"><ele>321.656616</ele><time>2022-01-15T10:42:35Z</time><extensions><speed>0.823637</speed><course>171.214783</course><hAcc>1.630717</hAcc><vAcc>0.698228</vAcc></extensions></trkpt>
      <trkpt lon="-3.054813" lat="52.703237"><ele>321.519135</ele><time>2022-01-15T10:42:36Z</time><extensions><speed>0.853427</speed><course>177.283936</course><hAcc>1.638767</hAcc><vAcc>0.694902</vAcc></extensions></trkpt>
      <trkpt lon="-3.054814" lat="52.703228"><ele>321.369598</ele><time>2022-01-15T10:42:37Z</time><extensions><speed>0.901158</speed><course>183.413086</course><hAcc>1.643533</hAcc><vAcc>0.691282</vAcc></extensions></trkpt>
      <trkpt lon="-3.054816" lat="52.703219"><ele>321.211182</ele><time>2022-01-15T10:42:38Z</time><extensions><speed>0.940813</speed><course>188.951981</course><hAcc>1.645990</hAcc><vAcc>0.687376</vAcc></extensions></trkpt>
      <trkpt lon="-3.054819" lat="52.703210"><ele>321.035889</ele><time>2022-01-15T10:42:39Z</time><extensions><speed>0.953837</speed><course>193.497314</course><hAcc>1.648855</hAcc><vAcc>0.683101</vAcc></extensions></trkpt>
      <trkpt lon="-3.054823" lat="52.703201"><ele>320.844208</ele><time>2022-01-15T10:42:40Z</time><extensions><speed>0.952915</speed><course>197.096405</course><hAcc>1.651480</hAcc><vAcc>0.678481</vAcc></extensions></trkpt>
      <trkpt lon="-3.054828" lat="52.703192"><ele>320.635010</ele><time>2022-01-15T10:42:41Z</time><extensions><speed>0.961092</speed><course>199.432693</course><hAcc>1.652022</hAcc><vAcc>0.673556</vAcc></extensions></trkpt>
      <trkpt lon="-3.054833" lat="52.703184"><ele>320.412262</ele><time>2022-01-15T10:42:42Z</time><extensions><speed>0.980266</speed><course>200.397964</course><hAcc>1.652612</hAcc><vAcc>0.668351</vAcc></extensions></trkpt>
      <trkpt lon="-3.054838" lat="52.703175"><ele>320.181152</ele><time>2022-01-15T10:42:43Z</time><extensions><speed>0.937463</speed><course>200.301056</course><hAcc>1.659316</hAcc><vAcc>0.662972</vAcc></extensions></trkpt>
      <trkpt lon="-3.054843" lat="52.703167"><ele>319.929321</ele><time>2022-01-15T10:42:44Z</time><extensions><speed>0.936788</speed><course>199.814606</course><hAcc>1.662706</hAcc><vAcc>0.657655</vAcc></extensions></trkpt>
      <trkpt lon="-3.054848" lat="52.703159"><ele>319.665344</ele><time>2022-01-15T10:42:45Z</time><extensions><speed>0.910886</speed><course>199.565460</course><hAcc>1.669521</hAcc><vAcc>0.652585</vAcc></extensions></trkpt>
      <trkpt lon="-3.054852" lat="52.703151"><ele>319.398132</ele><time>2022-01-15T10:42:46Z</time><extensions><speed>0.844742</speed><course>199.410889</course><hAcc>1.682185</hAcc><vAcc>0.647907</vAcc></extensions></trkpt>
      <trkpt lon="-3.054856" lat="52.703143"><ele>319.122040</ele><time>2022-01-15T10:42:47Z</time><extensions><speed>0.785183</speed><course>198.764206</course><hAcc>1.695525</hAcc><vAcc>0.643727</vAcc></extensions></trkpt>
      <trkpt lon="-3.054860" lat="52.703136"><ele>318.848236</ele><time>2022-01-15T10:42:48Z</time><extensions><speed>0.745418</speed><course>197.956345</course><hAcc>1.705986</hAcc><vAcc>0.640024</vAcc></extensions></trkpt>
      <trkpt lon="-3.054864" lat="52.703129"><ele>318.575745</ele><time>2022-01-15T10:42:49Z</time><extensions><speed>0.758824</speed><course>197.638702</course><hAcc>1.711349</hAcc><vAcc>0.636788</vAcc></extensions></trkpt>
      <trkpt lon="-3.054868" lat="52.703122"><ele>318.303436</ele><time>2022-01-15T10:42:50Z</time><extensions><speed>0.707028</speed><course>197.566803</course><hAcc>1.726334</hAcc><vAcc>0.633939</vAcc></extensions></trkpt>
      <trkpt lon="-3.054872" lat="52.703116"><ele>318.040649</ele><time>2022-01-15T10:42:51Z</time><extensions><speed>0.634812</speed><course>197.449005</course><hAcc>1.746234</hAcc><vAcc>0.631400</vAcc></extensions></trkpt>
      <trkpt lon="-3.054875" lat="52.703110"><ele>317.775299</ele><time>2022-01-15T10:42:52Z</time><extensions><speed>0.603092</speed><course>197.208496</course><hAcc>1.763883</hAcc><vAcc>0.629148</vAcc></extensions></trkpt>
      <trkpt lon="-3.054877" lat="52.703105"><ele>317.513824</ele><time>2022-01-15T10:42:53Z</time><extensions><speed>0.558599</speed><course>197.122421</course><hAcc>1.790713</hAcc><vAcc>0.627232</vAcc></extensions></trkpt>
      <trkpt lon="-3.054880" lat="52.703101"><ele>317.261292</ele><time>2022-01-15T10:42:54Z</time><extensions><speed>0.492810</speed><course>198.015671</course><hAcc>1.829167</hAcc><vAcc>0.625678</vAcc></extensions></trkpt>
      <trkpt lon="-3.054883" lat="52.703096"><ele>317.001404</ele><time>2022-01-15T10:42:55Z</time><extensions><speed>0.536272</speed><course>200.229172</course><hAcc>1.856738</hAcc><vAcc>0.624452</vAcc></extensions></trkpt>
      <trkpt lon="-3.054886" lat="52.703091"><ele>316.746155</ele><time>2022-01-15T10:42:56Z</time><extensions><speed>0.730588</speed><course>203.185104</course><hAcc>1.866793</hAcc><vAcc>0.623470</vAcc></extensions></trkpt>
      <trkpt lon="-3.054892" lat="52.703083"><ele>316.492096</ele><time>2022-01-15T10:42:57Z</time><extensions><speed>1.093213</speed><course>206.522858</course><hAcc>1.867875</hAcc><vAcc>0.622642</vAcc></extensions></trkpt>
      <trkpt lon="-3.054900" lat="52.703074"><ele>316.236389</ele><time>2022-01-15T10:42:58Z</time><extensions><speed>1.260415</speed><course>209.895752</course><hAcc>1.906056</hAcc><vAcc>0.621920</vAcc></extensions></trkpt>
      <trkpt lon="-3.054910" lat="52.703064"><ele>315.980103</ele><time>2022-01-15T10:42:59Z</time><extensions><speed>1.305712</speed><course>212.580231</course><hAcc>1.960370</hAcc><vAcc>0.621313</vAcc></extensions></trkpt>
      <trkpt lon="-3.054921" lat="52.703054"><ele>315.715851</ele><time>2022-01-15T10:43:00Z</time><extensions><speed>1.313468</speed><course>214.070358</course><hAcc>2.003030</hAcc><vAcc>0.620854</vAcc></extensions></trkpt>
      <trkpt lon="-3.054932" lat="52.703044"><ele>315.440369</ele><time>2022-01-15T10:43:01Z</time><extensions><speed>1.343636</speed><course>214.752396</course><hAcc>2.025147</hAcc><vAcc>0.620633</vAcc></extensions></trkpt>
      <trkpt lon="-3.054944" lat="52.703034"><ele>315.159973</ele><time>2022-01-15T10:43:02Z</time><extensions><speed>1.457757</speed><course>215.144699</course><hAcc>2.031096</hAcc><vAcc>0.620718</vAcc></extensions></trkpt>
      <trkpt lon="-3.054956" lat="52.703024"><ele>314.876129</ele><time>2022-01-15T10:43:03Z</time><extensions><speed>1.399881</speed><course>216.065628</course><hAcc>2.041395</hAcc><vAcc>0.621186</vAcc></extensions></trkpt>
      <trkpt lon="-3.054968" lat="52.703014"><ele>314.593323</ele><time>2022-01-15T10:43:04Z</time><extensions><speed>1.306771</speed><course>217.187805</course><hAcc>2.050767</hAcc><vAcc>0.622084</vAcc></extensions></trkpt>
      <trkpt lon="-3.054979" lat="52.703005"><ele>314.312805</ele><time>2022-01-15T10:43:05Z</time><extensions><speed>1.137111</speed><course>218.876999</course><hAcc>2.057390</hAcc><vAcc>0.623441</vAcc></extensions></trkpt>
      <trkpt lon="-3.054990" lat="52.702997"><ele>314.030518</ele><time>2022-01-15T10:43:06Z</time><extensions><speed>1.082906</speed><course>218.382812</course><hAcc>2.036092</hAcc><vAcc>0.625203</vAcc></extensions></trkpt>
      <trkpt lon="-3.054999" lat="52.702990"><ele>313.750397</ele><time>2022-01-15T10:43:07Z</time><extensions><speed>0.976016</speed><course>217.157974</course><hAcc>2.020205</hAcc><vAcc>0.627319</vAcc></extensions></trkpt>
      <trkpt lon="-3.055007" lat="52.702983"><ele>313.477509</ele><time>2022-01-15T10:43:08Z</time><extensions><speed>0.826799</speed><course>215.672653</course><hAcc>2.023366</hAcc><vAcc>0.629638</vAcc></extensions></trkpt>
      <trkpt lon="-3.055013" lat="52.702978"><ele>313.211029</ele><time>2022-01-15T10:43:09Z</time><extensions><speed>0.678068</speed><course>213.871872</course><hAcc>2.032260</hAcc><vAcc>0.632077</vAcc></extensions></trkpt>
      <trkpt lon="-3.055019" lat="52.702972"><ele>312.952515</ele><time>2022-01-15T10:43:10Z</time><extensions><speed>0.794946</speed><course>213.885742</course><hAcc>2.016363</hAcc><vAcc>0.634536</vAcc></extensions></trkpt>
      <trkpt lon="-3.055026" lat="52.702966"><ele>312.703430</ele><time>2022-01-15T10:43:11Z</time><extensions><speed>0.825045</speed><course>213.639374</course><hAcc>2.012316</hAcc><vAcc>0.636890</vAcc></extensions></trkpt>
      <trkpt lon="-3.055033" lat="52.702959"><ele>312.463501</ele><time>2022-01-15T10:43:12Z</time><extensions><speed>0.896279</speed><course>213.673462</course><hAcc>1.996475</hAcc><vAcc>0.639107</vAcc></extensions></trkpt>
      <trkpt lon="-3.055041" lat="52.702953"><ele>312.234955</ele><time>2022-01-15T10:43:13Z</time><extensions><speed>0.926973</speed><course>212.669785</course><hAcc>1.981292</hAcc><vAcc>0.641149</vAcc></extensions></trkpt>
      <trkpt lon="-3.055048" lat="52.702945"><ele>312.012177</ele><time>2022-01-15T10:43:14Z</time><extensions><speed>0.917975</speed><course>210.537796</course><hAcc>1.970863</hAcc><vAcc>0.643005</vAcc></extensions></trkpt>
      <trkpt lon="-3.055054" lat="52.702939"><ele>311.796967</ele><time>2022-01-15T10:43:15Z</time><extensions><speed>0.812885</speed><course>207.494598</course><hAcc>1.968433</hAcc><vAcc>0.644602</vAcc></extensions></trkpt>
      <trkpt lon="-3.055059" lat="52.702933"><ele>311.589020</ele><time>2022-01-15T10:43:16Z</time><extensions><speed>0.643943</speed><course>204.419922</course><hAcc>1.972566</hAcc><vAcc>0.645887</vAcc></extensions></trkpt>
      <trkpt lon="-3.055063" lat="52.702928"><ele>311.389435</ele><time>2022-01-15T10:43:17Z</time><extensions><speed>0.608876</speed><course>204.626831</course><hAcc>1.962290</hAcc><vAcc>0.646855</vAcc></extensions></trkpt>
      <trkpt lon="-3.055067" lat="52.702923"><ele>311.192596</ele><time>2022-01-15T10:43:18Z</time><extensions><speed>0.624763</speed><course>207.736633</course><hAcc>1.945074</hAcc><vAcc>0.647535</vAcc></extensions></trkpt>
      <trkpt lon="-3.055072" lat="52.702918"><ele>311.004395</ele><time>2022-01-15T10:43:19Z</time><extensions><speed>0.625484</speed><course>212.848007</course><hAcc>1.936351</hAcc><vAcc>0.647941</vAcc></extensions></trkpt>
      <trkpt lon="-3.055078" lat="52.702913"><ele>310.817902</ele><time>2022-01-15T10:43:20Z</time><extensions><speed>0.622423</speed><course>219.220581</course><hAcc>1.932586</hAcc><vAcc>0.648126</vAcc></extensions></trkpt>
      <trkpt lon="-3.055084" lat="52.702909"><ele>310.636322</ele><time>2022-01-15T10:43:21Z</time><extensions><speed>0.627059</speed><course>225.775009</course><hAcc>1.929281</hAcc><vAcc>0.648196</vAcc></extensions></trkpt>
      <trkpt lon="-3.055091" lat="52.702905"><ele>310.460480</ele><time>2022-01-15T10:43:22Z</time><extensions><speed>0.621886</speed><course>232.548141</course><hAcc>1.930666</hAcc><vAcc>0.648145</vAcc></extensions></trkpt>
      <trkpt lon="-3.055099" lat="52.702902"><ele>310.290833</ele><time>2022-01-15T10:43:23Z</time><extensions><speed>0.607711</speed><course>239.933746</course><hAcc>1.937928</hAcc><vAcc>0.647926</vAcc></extensions></trkpt>
      <trkpt lon="-3.055107" lat="52.702900"><ele>310.125153</ele><time>2022-01-15T10:43:24Z</time><extensions><speed>0.601261</speed><course>246.362656</course><hAcc>1.946719</hAcc><vAcc>0.647525</vAcc></extensions></trkpt>
      <trkpt lon="-3.055115" lat="52.702898"><ele>309.962036</ele><time>2022-01-15T10:43:25Z</time><extensions><speed>0.605519</speed><course>250.693222</course><hAcc>1.954648</hAcc><vAcc>0.646998</vAcc></extensions></trkpt>
      <trkpt lon="-3.055124" lat="52.702896"><ele>309.802917</ele><time>2022-01-15T10:43:26Z</time><extensions><speed>0.610675</speed><course>253.239166</course><hAcc>1.965088</hAcc><vAcc>0.646397</vAcc></extensions></trkpt>
      <trkpt lon="-3.055133" lat="52.702895"><ele>309.642792</ele><time>2022-01-15T10:43:27Z</time><extensions><speed>0.613054</speed><course>254.640915</course><hAcc>1.979745</hAcc><vAcc>0.645853</vAcc></extensions></trkpt>
      <trkpt lon="-3.055141" lat="52.702893"><ele>309.488037</ele><time>2022-01-15T10:43:28Z</time><extensions><speed>0.622900</speed><course>255.991943</course><hAcc>1.992399</hAcc><vAcc>0.645542</vAcc></extensions></trkpt>
      <trkpt lon="-3.055150" lat="52.702892"><ele>309.336914</ele><time>2022-01-15T10:43:29Z</time><extensions><speed>0.635250</speed><course>258.275024</course><hAcc>1.998014</hAcc><vAcc>0.645636</vAcc></extensions></trkpt>
      <trkpt lon="-3.055160" lat="52.702891"><ele>309.191986</ele><time>2022-01-15T10:43:30Z</time><extensions><speed>0.623936</speed><course>261.042633</course><hAcc>2.002021</hAcc><vAcc>0.646273</vAcc></extensions></trkpt>
      <trkpt lon="-3.055168" lat="52.702890"><ele>309.050415</ele><time>2022-01-15T10:43:31Z</time><extensions><speed>0.590373</speed><course>262.668915</course><hAcc>2.005802</hAcc><vAcc>0.647465</vAcc></extensions></trkpt>
      <trkpt lon="-3.055177" lat="52.702889"><ele>308.913849</ele><time>2022-01-15T10:43:32Z</time><extensions><speed>0.541280</speed><course>262.413879</course><hAcc>2.002021</hAcc><vAcc>0.649212</vAcc></extensions></trkpt>
      <trkpt lon="-3.055184" lat="52.702889"><ele>308.789429</ele><time>2022-01-15T10:43:33Z</time><extensions><speed>0.480622</speed><course>260.351776</course><hAcc>1.984257</hAcc><vAcc>0.651273</vAcc></extensions></trkpt>
      <trkpt lon="-3.055190" lat="52.702888"><ele>308.663940</ele><time>2022-01-15T10:43:34Z</time><extensions><speed>0.407607</speed><course>255.061325</course><hAcc>1.964706</hAcc><vAcc>0.653477</vAcc></extensions></trkpt>
      <trkpt lon="-3.055195" lat="52.702887"><ele>308.551147</ele><time>2022-01-15T10:43:35Z</time><extensions><speed>0.195290</speed><course>255.815552</course><hAcc>1.971110</hAcc><vAcc>0.655633</vAcc></extensions></trkpt>
      <trkpt lon="-3.055196" lat="52.702887"><ele>308.447601</ele><time>2022-01-15T10:43:36Z</time><extensions><speed>0.053515</speed><course>209.111649</course><hAcc>1.970442</hAcc><vAcc>0.657546</vAcc></extensions></trkpt>
      <trkpt lon="-3.055196" lat="52.702886"><ele>308.351379</ele><time>2022-01-15T10:43:37Z</time><extensions><speed>0.136566</speed><course>127.380981</course><hAcc>1.967913</hAcc><vAcc>0.659092</vAcc></extensions></trkpt>
      <trkpt lon="-3.055193" lat="52.702885"><ele>308.264435</ele><time>2022-01-15T10:43:38Z</time><extensions><speed>0.254977</speed><course>121.546669</course><hAcc>1.967405</hAcc><vAcc>0.660235</vAcc></extensions></trkpt>
      <trkpt lon="-3.055189" lat="52.702884"><ele>308.192200</ele><time>2022-01-15T10:43:39Z</time><extensions><speed>0.352583</speed><course>120.968697</course><hAcc>1.969461</hAcc><vAcc>0.661107</vAcc></extensions></trkpt>
      <trkpt lon="-3.055184" lat="52.702882"><ele>308.131622</ele><time>2022-01-15T10:43:40Z</time><extensions><speed>0.431117</speed><course>122.451897</course><hAcc>1.971422</hAcc><vAcc>0.661706</vAcc></extensions></trkpt>
      <trkpt lon="-3.055179" lat="52.702880"><ele>308.083771</ele><time>2022-01-15T10:43:41Z</time><extensions><speed>0.462197</speed><course>125.227280</course><hAcc>1.975751</hAcc><vAcc>0.662058</vAcc></extensions></trkpt>
      <trkpt lon="-3.055173" lat="52.702877"><ele>308.041443</ele><time>2022-01-15T10:43:42Z</time><extensions><speed>0.469510</speed><course>128.221329</course><hAcc>1.973228</hAcc><vAcc>0.662157</vAcc></extensions></trkpt>
      <trkpt lon="-3.055168" lat="52.702874"><ele>308.007690</ele><time>2022-01-15T10:43:43Z</time><extensions><speed>0.455003</speed><course>130.472733</course><hAcc>1.968943</hAcc><vAcc>0.661836</vAcc></extensions></trkpt>
      <trkpt lon="-3.055163" lat="52.702872"><ele>307.977753</ele><time>2022-01-15T10:43:44Z</time><extensions><speed>0.421424</speed><course>132.349564</course><hAcc>1.968007</hAcc><vAcc>0.661017</vAcc></extensions></trkpt>
      <trkpt lon="-3.055159" lat="52.702869"><ele>307.954102</ele><time>2022-01-15T10:43:45Z</time><extensions><speed>0.379237</speed><course>134.111603</course><hAcc>1.968722</hAcc><vAcc>0.659579</vAcc></extensions></trkpt>
      <trkpt lon="-3.055155" lat="52.702867"><ele>307.933624</ele><time>2022-01-15T10:43:46Z</time><extensions><speed>0.331083</speed><course>136.718399</course><hAcc>1.969825</hAcc><vAcc>0.657569</vAcc></extensions></trkpt>
      <trkpt lon="-3.055152" lat="52.702865"><ele>307.910583</ele><time>2022-01-15T10:43:47Z</time><extensions><speed>0.279254</speed><course>143.427826</course><hAcc>1.973413</hAcc><vAcc>0.655071</vAcc></extensions></trkpt>
      <trkpt lon="-3.055151" lat="52.702863"><ele>307.888519</ele><time>2022-01-15T10:43:48Z</time><extensions><speed>0.236139</speed><course>157.608612</course><hAcc>1.979389</hAcc><vAcc>0.652355</vAcc></extensions></trkpt>
      <trkpt lon="-3.055150" lat="52.702861"><ele>307.867035</ele><time>2022-01-15T10:43:49Z</time><extensions><speed>0.227535</speed><course>182.145630</course><hAcc>1.986403</hAcc><vAcc>0.649564</vAcc></extensions></trkpt>
      <trkpt lon="-3.055151" lat="52.702859"><ele>307.843781</ele><time>2022-01-15T10:43:50Z</time><extensions><speed>0.273849</speed><course>206.631851</course><hAcc>1.995860</hAcc><vAcc>0.646900</vAcc></extensions></trkpt>
      <trkpt lon="-3.055154" lat="52.702857"><ele>307.816620</ele><time>2022-01-15T10:43:51Z</time><extensions><speed>0.349236</speed><course>223.657562</course><hAcc>2.006446</hAcc><vAcc>0.644499</vAcc></extensions></trkpt>
      <trkpt lon="-3.055158" lat="52.702854"><ele>307.785187</ele><time>2022-01-15T10:43:52Z</time><extensions><speed>0.428431</speed><course>236.460983</course><hAcc>2.020066</hAcc><vAcc>0.642401</vAcc></extensions></trkpt>
      <trkpt lon="-3.055165" lat="52.702852"><ele>307.749359</ele><time>2022-01-15T10:43:53Z</time><extensions><speed>0.511048</speed><course>246.039261</course><hAcc>2.032723</hAcc><vAcc>0.640823</vAcc></extensions></trkpt>
      <trkpt lon="-3.055172" lat="52.702851"><ele>307.707367</ele><time>2022-01-15T10:43:54Z</time><extensions><speed>0.580103</speed><course>253.547699</course><hAcc>2.045021</hAcc><vAcc>0.639919</vAcc></extensions></trkpt>
      <trkpt lon="-3.055181" lat="52.702849"><ele>307.660309</ele><time>2022-01-15T10:43:55Z</time><extensions><speed>0.635633</speed><course>258.911285</course><hAcc>2.055268</hAcc><vAcc>0.639839</vAcc></extensions></trkpt>
      <trkpt lon="-3.055191" lat="52.702848"><ele>307.614258</ele><time>2022-01-15T10:43:56Z</time><extensions><speed>0.670526</speed><course>260.961914</course><hAcc>2.061410</hAcc><vAcc>0.640661</vAcc></extensions></trkpt>
      <trkpt lon="-3.055201" lat="52.702847"><ele>307.568268</ele><time>2022-01-15T10:43:57Z</time><extensions><speed>0.684643</speed><course>259.513000</course><hAcc>2.063123</hAcc><vAcc>0.642327</vAcc></extensions></trkpt>
      <trkpt lon="-3.055210" lat="52.702846"><ele>307.520691</ele><time>2022-01-15T10:43:58Z</time><extensions><speed>0.679490</speed><course>255.149414</course><hAcc>2.060516</hAcc><vAcc>0.644742</vAcc></extensions></trkpt>
      <trkpt lon="-3.055220" lat="52.702844"><ele>307.458130</ele><time>2022-01-15T10:43:59Z</time><extensions><speed>0.679732</speed><course>249.415848</course><hAcc>2.051253</hAcc><vAcc>0.647707</vAcc></extensions></trkpt>
      <trkpt lon="-3.055229" lat="52.702842"><ele>307.382538</ele><time>2022-01-15T10:44:00Z</time><extensions><speed>0.662266</speed><course>243.820618</course><hAcc>2.042227</hAcc><vAcc>0.651015</vAcc></extensions></trkpt>
      <trkpt lon="-3.055237" lat="52.702839"><ele>307.296021</ele><time>2022-01-15T10:44:01Z</time><extensions><speed>0.644035</speed><course>238.635406</course><hAcc>2.031988</hAcc><vAcc>0.654458</vAcc></extensions></trkpt>
      <trkpt lon="-3.055245" lat="52.702836"><ele>307.222595</ele><time>2022-01-15T10:44:02Z</time><extensions><speed>0.612974</speed><course>233.632935</course><hAcc>2.020893</hAcc><vAcc>0.657919</vAcc></extensions></trkpt>
      <trkpt lon="-3.055252" lat="52.702832"><ele>307.143616</ele><time>2022-01-15T10:44:03Z</time><extensions><speed>0.541711</speed><course>228.251770</course><hAcc>2.011981</hAcc><vAcc>0.661243</vAcc></extensions></trkpt>
      <trkpt lon="-3.055257" lat="52.702829"><ele>307.031738</ele><time>2022-01-15T10:44:04Z</time><extensions><speed>0.456220</speed><course>220.357544</course><hAcc>1.999962</hAcc><vAcc>0.664413</vAcc></extensions></trkpt>
      <trkpt lon="-3.055260" lat="52.702826"><ele>306.945099</ele><time>2022-01-15T10:44:05Z</time><extensions><speed>0.355912</speed><course>205.819672</course><hAcc>1.987696</hAcc><vAcc>0.667232</vAcc></extensions></trkpt>
      <trkpt lon="-3.055262" lat="52.702823"><ele>306.851288</ele><time>2022-01-15T10:44:06Z</time><extensions><speed>0.300588</speed><course>180.895142</course><hAcc>1.972494</hAcc><vAcc>0.669644</vAcc></extensions></trkpt>
      <trkpt lon="-3.055261" lat="52.702820"><ele>306.749268</ele><time>2022-01-15T10:44:07Z</time><extensions><speed>0.329827</speed><course>157.949387</course><hAcc>1.955678</hAcc><vAcc>0.671553</vAcc></extensions></trkpt>
      <trkpt lon="-3.055259" lat="52.702817"><ele>306.629700</ele><time>2022-01-15T10:44:08Z</time><extensions><speed>0.392409</speed><course>152.141220</course><hAcc>1.950701</hAcc><vAcc>0.672850</vAcc></extensions></trkpt>
      <trkpt lon="-3.055256" lat="52.702814"><ele>306.512787</ele><time>2022-01-15T10:44:09Z</time><extensions><speed>0.503012</speed><course>160.553909</course><hAcc>1.955883</hAcc><vAcc>0.673332</vAcc></extensions></trkpt>
      <trkpt lon="-3.055255" lat="52.702809"><ele>306.400421</ele><time>2022-01-15T10:44:10Z</time><extensions><speed>0.624016</speed><course>176.698166</course><hAcc>1.959929</hAcc><vAcc>0.672774</vAcc></extensions></trkpt>
      <trkpt lon="-3.055255" lat="52.702803"><ele>306.279449</ele><time>2022-01-15T10:44:10Z</time><extensions><speed>0.723465</speed><course>190.839645</course><hAcc>1.952440</hAcc><vAcc>0.671111</vAcc></extensions></trkpt>
      <trkpt lon="-3.055259" lat="52.702796"><ele>306.153503</ele><time>2022-01-15T10:44:11Z</time><extensions><speed>0.801481</speed><course>202.480606</course><hAcc>1.955640</hAcc><vAcc>0.668456</vAcc></extensions></trkpt>
      <trkpt lon="-3.055264" lat="52.702790"><ele>306.022644</ele><time>2022-01-15T10:44:12Z</time><extensions><speed>0.826657</speed><course>210.882919</course><hAcc>1.983168</hAcc><vAcc>0.664905</vAcc></extensions></trkpt>
      <trkpt lon="-3.055271" lat="52.702784"><ele>305.891205</ele><time>2022-01-15T10:44:13Z</time><extensions><speed>0.744874</speed><course>218.006821</course><hAcc>2.019248</hAcc><vAcc>0.660636</vAcc></extensions></trkpt>
      <trkpt lon="-3.055278" lat="52.702778"><ele>305.753326</ele><time>2022-01-15T10:44:14Z</time><extensions><speed>0.905147</speed><course>218.952637</course><hAcc>2.020296</hAcc><vAcc>0.655867</vAcc></extensions></trkpt>
      <trkpt lon="-3.055287" lat="52.702771"><ele>305.606232</ele><time>2022-01-15T10:44:15Z</time><extensions><speed>0.895873</speed><course>216.631226</course><hAcc>2.031142</hAcc><vAcc>0.650757</vAcc></extensions></trkpt>
      <trkpt lon="-3.055294" lat="52.702764"><ele>305.450256</ele><time>2022-01-15T10:44:16Z</time><extensions><speed>0.966639</speed><course>212.272278</course><hAcc>2.039485</hAcc><vAcc>0.645476</vAcc></extensions></trkpt>
      <trkpt lon="-3.055302" lat="52.702756"><ele>305.286682</ele><time>2022-01-15T10:44:17Z</time><extensions><speed>1.085387</speed><course>207.865860</course><hAcc>2.036626</hAcc><vAcc>0.640268</vAcc></extensions></trkpt>
      <trkpt lon="-3.055310" lat="52.702747"><ele>305.113312</ele><time>2022-01-15T10:44:18Z</time><extensions><speed>1.302012</speed><course>204.581909</course><hAcc>2.017089</hAcc><vAcc>0.635325</vAcc></extensions></trkpt>
      <trkpt lon="-3.055317" lat="52.702736"><ele>304.935730</ele><time>2022-01-15T10:44:19Z</time><extensions><speed>1.334086</speed><course>202.141159</course><hAcc>2.004841</hAcc><vAcc>0.630839</vAcc></extensions></trkpt>
      <trkpt lon="-3.055324" lat="52.702725"><ele>304.745697</ele><time>2022-01-15T10:44:20Z</time><extensions><speed>1.215731</speed><course>199.730270</course><hAcc>2.005067</hAcc><vAcc>0.626990</vAcc></extensions></trkpt>
      <trkpt lon="-3.055329" lat="52.702715"><ele>304.545654</ele><time>2022-01-15T10:44:21Z</time><extensions><speed>1.008250</speed><course>196.746048</course><hAcc>2.016855</hAcc><vAcc>0.623968</vAcc></extensions></trkpt>
      <trkpt lon="-3.055333" lat="52.702708"><ele>304.348785</ele><time>2022-01-15T10:44:22Z</time><extensions><speed>0.783880</speed><course>193.748672</course><hAcc>2.030364</hAcc><vAcc>0.621897</vAcc></extensions></trkpt>
      <trkpt lon="-3.055336" lat="52.702701"><ele>304.149353</ele><time>2022-01-15T10:44:23Z</time><extensions><speed>0.750708</speed><course>193.124847</course><hAcc>2.023690</hAcc><vAcc>0.620930</vAcc></extensions></trkpt>
      <trkpt lon="-3.055338" lat="52.702694"><ele>303.948212</ele><time>2022-01-15T10:44:24Z</time><extensions><speed>0.826158</speed><course>194.755096</course><hAcc>2.001771</hAcc><vAcc>0.621185</vAcc></extensions></trkpt>
      <trkpt lon="-3.055342" lat="52.702686"><ele>303.744049</ele><time>2022-01-15T10:44:25Z</time><extensions><speed>1.065705</speed><course>197.214478</course><hAcc>1.971718</hAcc><vAcc>0.622702</vAcc></extensions></trkpt>
      <trkpt lon="-3.055347" lat="52.702676"><ele>303.550476</ele><time>2022-01-15T10:44:26Z</time><extensions><speed>1.113735</speed><course>196.040070</course><hAcc>1.990929</hAcc><vAcc>0.625326</vAcc></extensions></trkpt>
      <trkpt lon="-3.055351" lat="52.702667"><ele>303.369904</ele><time>2022-01-15T10:44:27Z</time><extensions><speed>1.014729</speed><course>194.119171</course><hAcc>2.037671</hAcc><vAcc>0.628617</vAcc></extensions></trkpt>
      <trkpt lon="-3.055355" lat="52.702658"><ele>303.192291</ele><time>2022-01-15T10:44:28Z</time><extensions><speed>1.030717</speed><course>194.104080</course><hAcc>2.015419</hAcc><vAcc>0.631976</vAcc></extensions></trkpt>
      <trkpt lon="-3.055359" lat="52.702649"><ele>303.024811</ele><time>2022-01-15T10:44:29Z</time><extensions><speed>1.045064</speed><course>195.951080</course><hAcc>1.986033</hAcc><vAcc>0.634760</vAcc></extensions></trkpt>
      <trkpt lon="-3.055364" lat="52.702640"><ele>302.869995</ele><time>2022-01-15T10:44:30Z</time><extensions><speed>0.972243</speed><course>198.639191</course><hAcc>1.992392</hAcc><vAcc>0.636556</vAcc></extensions></trkpt>
      <trkpt lon="-3.055368" lat="52.702632"><ele>302.728577</ele><time>2022-01-15T10:44:31Z</time><extensions><speed>0.879372</speed><course>201.466797</course><hAcc>2.014074</hAcc><vAcc>0.637055</vAcc></extensions></trkpt>
      <trkpt lon="-3.055373" lat="52.702625"><ele>302.598053</ele><time>2022-01-15T10:44:32Z</time><extensions><speed>0.799144</speed><course>202.655655</course><hAcc>2.022681</hAcc><vAcc>0.636025</vAcc></extensions></trkpt>
      <trkpt lon="-3.055378" lat="52.702618"><ele>302.479340</ele><time>2022-01-15T10:44:33Z</time><extensions><speed>0.895512</speed><course>204.296234</course><hAcc>2.010048</hAcc><vAcc>0.633430</vAcc></extensions></trkpt>
      <trkpt lon="-3.055384" lat="52.702611"><ele>302.372131</ele><time>2022-01-15T10:44:34Z</time><extensions><speed>0.856611</speed><course>207.790939</course><hAcc>2.013143</hAcc><vAcc>0.629323</vAcc></extensions></trkpt>
      <trkpt lon="-3.055390" lat="52.702605"><ele>302.275299</ele><time>2022-01-15T10:44:35Z</time><extensions><speed>0.709278</speed><course>214.780609</course><hAcc>2.031986</hAcc><vAcc>0.623878</vAcc></extensions></trkpt>
      <trkpt lon="-3.055396" lat="52.702601"><ele>302.186676</ele><time>2022-01-15T10:44:36Z</time><extensions><speed>0.527252</speed><course>224.538025</course><hAcc>2.054541</hAcc><vAcc>0.617370</vAcc></extensions></trkpt>
      <trkpt lon="-3.055402" lat="52.702598"><ele>302.104095</ele><time>2022-01-15T10:44:37Z</time><extensions><speed>0.473668</speed><course>233.034058</course><hAcc>2.064088</hAcc><vAcc>0.610158</vAcc></extensions></trkpt>
      <trkpt lon="-3.055408" lat="52.702595"><ele>302.025574</ele><time>2022-01-15T10:44:38Z</time><extensions><speed>0.468281</speed><course>238.376022</course><hAcc>2.070558</hAcc><vAcc>0.602670</vAcc></extensions></trkpt>
      <trkpt lon="-3.055415" lat="52.702593"><ele>301.950134</ele><time>2022-01-15T10:44:39Z</time><extensions><speed>0.492299</speed><course>240.397461</course><hAcc>2.070798</hAcc><vAcc>0.595386</vAcc></extensions></trkpt>
      <trkpt lon="-3.055422" lat="52.702590"><ele>301.873535</ele><time>2022-01-15T10:44:40Z</time><extensions><speed>0.513142</speed><course>240.882385</course><hAcc>2.065299</hAcc><vAcc>0.588758</vAcc></extensions></trkpt>
      <trkpt lon="-3.055429" lat="52.702588"><ele>301.794922</ele><time>2022-01-15T10:44:41Z</time><extensions><speed>0.527733</speed><course>241.055313</course><hAcc>2.055596</hAcc><vAcc>0.583157</vAcc></extensions></trkpt>
      <trkpt lon="-3.055436" lat="52.702585"><ele>301.711792</ele><time>2022-01-15T10:44:42Z</time><extensions><speed>0.521143</speed><course>241.122681</course><hAcc>2.050093</hAcc><vAcc>0.578776</vAcc></extensions></trkpt>
      <trkpt lon="-3.055443" lat="52.702583"><ele>301.622864</ele><time>2022-01-15T10:44:43Z</time><extensions><speed>0.479952</speed><course>240.708679</course><hAcc>2.055930</hAcc><vAcc>0.575531</vAcc></extensions></trkpt>
      <trkpt lon="-3.055449" lat="52.702581"><ele>301.530212</ele><time>2022-01-15T10:44:44Z</time><extensions><speed>0.477294</speed><course>239.650162</course><hAcc>2.058580</hAcc><vAcc>0.573020</vAcc></extensions></trkpt>
      <trkpt lon="-3.055455" lat="52.702578"><ele>301.433838</ele><time>2022-01-15T10:44:45Z</time><extensions><speed>0.511014</speed><course>237.612183</course><hAcc>2.053155</hAcc><vAcc>0.570712</vAcc></extensions></trkpt>
      <trkpt lon="-3.055463" lat="52.702576"><ele>301.333954</ele><time>2022-01-15T10:44:46Z</time><extensions><speed>0.620615</speed><course>235.954834</course><hAcc>2.036963</hAcc><vAcc>0.568188</vAcc></extensions></trkpt>
      <trkpt lon="-3.055471" lat="52.702572"><ele>301.231232</ele><time>2022-01-15T10:44:47Z</time><extensions><speed>0.690984</speed><course>235.209641</course><hAcc>2.038119</hAcc><vAcc>0.565246</vAcc></extensions></trkpt>
      <trkpt lon="-3.055479" lat="52.702569"><ele>301.125885</ele><time>2022-01-15T10:44:48Z</time><extensions><speed>0.726196</speed><course>234.224136</course><hAcc>2.054749</hAcc><vAcc>0.561910</vAcc></extensions></trkpt>
      <trkpt lon="-3.055488" lat="52.702565"><ele>301.019165</ele><time>2022-01-15T10:44:49Z</time><extensions><speed>0.726295</speed><course>233.296265</course><hAcc>2.079323</hAcc><vAcc>0.558373</vAcc></extensions></trkpt>
      <trkpt lon="-3.055497" lat="52.702561"><ele>300.913940</ele><time>2022-01-15T10:44:50Z</time><extensions><speed>0.673414</speed><course>233.354660</course><hAcc>2.109586</hAcc><vAcc>0.554920</vAcc></extensions></trkpt>
      <trkpt lon="-3.055504" lat="52.702557"><ele>300.811523</ele><time>2022-01-15T10:44:51Z</time><extensions><speed>0.627726</speed><course>234.300674</course><hAcc>2.131289</hAcc><vAcc>0.551854</vAcc></extensions></trkpt>
      <trkpt lon="-3.055512" lat="52.702554"><ele>300.711243</ele><time>2022-01-15T10:44:52Z</time><extensions><speed>0.620150</speed><course>235.658661</course><hAcc>2.135741</hAcc><vAcc>0.549442</vAcc></extensions></trkpt>
      <trkpt lon="-3.055520" lat="52.702551"><ele>300.614014</ele><time>2022-01-15T10:44:53Z</time><extensions><speed>0.665080</speed><course>237.064682</course><hAcc>2.130644</hAcc><vAcc>0.547944</vAcc></extensions></trkpt>
      <trkpt lon="-3.055528" lat="52.702548"><ele>300.520203</ele><time>2022-01-15T10:44:54Z</time><extensions><speed>0.515737</speed><course>243.546860</course><hAcc>2.153574</hAcc><vAcc>0.547524</vAcc></extensions></trkpt>
      <trkpt lon="-3.055534" lat="52.702547"><ele>300.427002</ele><time>2022-01-15T10:44:55Z</time><extensions><speed>0.418702</speed><course>251.667892</course><hAcc>2.170695</hAcc><vAcc>0.548106</vAcc></extensions></trkpt>
      <trkpt lon="-3.055540" lat="52.702546"><ele>300.332947</ele><time>2022-01-15T10:44:56Z</time><extensions><speed>0.405706</speed><course>260.025452</course><hAcc>2.163949</hAcc><vAcc>0.549302</vAcc></extensions></trkpt>
      <trkpt lon="-3.055546" lat="52.702546"><ele>300.238251</ele><time>2022-01-15T10:44:57Z</time><extensions><speed>0.397732</speed><course>269.254303</course><hAcc>2.162889</hAcc><vAcc>0.550541</vAcc></extensions></trkpt>
      <trkpt lon="-3.055552" lat="52.702546"><ele>300.143951</ele><time>2022-01-15T10:44:58Z</time><extensions><speed>0.407387</speed><course>280.291046</course><hAcc>2.172089</hAcc><vAcc>0.551309</vAcc></extensions></trkpt>
      <trkpt lon="-3.055558" lat="52.702547"><ele>300.050751</ele><time>2022-01-15T10:44:59Z</time><extensions><speed>0.424857</speed><course>292.370697</course><hAcc>2.191720</hAcc><vAcc>0.551259</vAcc></extensions></trkpt>
      <trkpt lon="-3.055563" lat="52.702549"><ele>299.958221</ele><time>2022-01-15T10:45:00Z</time><extensions><speed>0.447288</speed><course>304.178070</course><hAcc>2.219459</hAcc><vAcc>0.550279</vAcc></extensions></trkpt>
      <trkpt lon="-3.055569" lat="52.702552"><ele>299.865143</ele><time>2022-01-15T10:45:01Z</time><extensions><speed>0.476279</speed><course>315.103088</course><hAcc>2.251028</hAcc><vAcc>0.548541</vAcc></extensions></trkpt>
      <trkpt lon="-3.055573" lat="52.702555"><ele>299.771515</ele><time>2022-01-15T10:45:02Z</time><extensions><speed>0.510456</speed><course>324.763123</course><hAcc>2.282874</hAcc><vAcc>0.546377</vAcc></extensions></trkpt>
      <trkpt lon="-3.055578" lat="52.702560"><ele>299.679352</ele><time>2022-01-15T10:45:03Z</time><extensions><speed>0.551970</speed><course>331.720917</course><hAcc>2.308175</hAcc><vAcc>0.544177</vAcc></extensions></trkpt>
      <trkpt lon="-3.055582" lat="52.702564"><ele>299.589294</ele><time>2022-01-15T10:45:05Z</time><extensions><speed>0.576212</speed><course>336.169830</course><hAcc>2.328191</hAcc><vAcc>0.542419</vAcc></extensions></trkpt>
      <trkpt lon="-3.055585" lat="52.702569"><ele>299.500366</ele><time>2022-01-15T10:45:06Z</time><extensions><speed>0.579442</speed><course>338.803009</course><hAcc>2.343290</hAcc><vAcc>0.541499</vAcc></extensions></trkpt>
      <trkpt lon="-3.055588" lat="52.702574"><ele>299.410950</ele><time>2022-01-15T10:45:07Z</time><extensions><speed>0.578867</speed><course>340.055939</course><hAcc>2.350591</hAcc><vAcc>0.541601</vAcc></extensions></trkpt>
      <trkpt lon="-3.055591" lat="52.702579"><ele>299.320709</ele><time>2022-01-15T10:45:08Z</time><extensions><speed>0.559001</speed><course>339.088867</course><hAcc>2.348323</hAcc><vAcc>0.542816</vAcc></extensions></trkpt>
      <trkpt lon="-3.055595" lat="52.702583"><ele>299.229919</ele><time>2022-01-15T10:45:09Z</time><extensions><speed>0.579538</speed><course>335.230560</course><hAcc>2.322614</hAcc><vAcc>0.545353</vAcc></extensions></trkpt>
      <trkpt lon="-3.055599" lat="52.702588"><ele>299.139069</ele><time>2022-01-15T10:45:10Z</time><extensions><speed>0.559601</speed><course>328.134705</course><hAcc>2.299655</hAcc><vAcc>0.549461</vAcc></extensions></trkpt>
      <trkpt lon="-3.055603" lat="52.702592"><ele>299.049927</ele><time>2022-01-15T10:45:11Z</time><extensions><speed>0.511024</speed><course>316.753387</course><hAcc>2.285874</hAcc><vAcc>0.555192</vAcc></extensions></trkpt>
      <trkpt lon="-3.055609" lat="52.702595"><ele>298.962524</ele><time>2022-01-15T10:45:12Z</time><extensions><speed>0.499604</speed><course>303.000183</course><hAcc>2.265060</hAcc><vAcc>0.562337</vAcc></extensions></trkpt>
      <trkpt lon="-3.055616" lat="52.702597"><ele>298.878296</ele><time>2022-01-15T10:45:13Z</time><extensions><speed>0.504227</speed><course>291.465454</course><hAcc>2.240647</hAcc><vAcc>0.570504</vAcc></extensions></trkpt>
      <trkpt lon="-3.055622" lat="52.702598"><ele>298.797089</ele><time>2022-01-15T10:45:14Z</time><extensions><speed>0.471619</speed><course>283.765015</course><hAcc>2.222771</hAcc><vAcc>0.579352</vAcc></extensions></trkpt>
      <trkpt lon="-3.055629" lat="52.702599"><ele>298.717346</ele><time>2022-01-15T10:45:15Z</time><extensions><speed>0.421222</speed><course>279.307434</course><hAcc>2.202828</hAcc><vAcc>0.588574</vAcc></extensions></trkpt>
      <trkpt lon="-3.055635" lat="52.702599"><ele>298.642273</ele><time>2022-01-15T10:45:16Z</time><extensions><speed>0.352790</speed><course>278.200836</course><hAcc>2.178465</hAcc><vAcc>0.597907</vAcc></extensions></trkpt>
      <trkpt lon="-3.055639" lat="52.702600"><ele>298.565491</ele><time>2022-01-15T10:45:17Z</time><extensions><speed>0.262677</speed><course>281.184387</course><hAcc>2.152916</hAcc><vAcc>0.607167</vAcc></extensions></trkpt>
      <trkpt lon="-3.055642" lat="52.702600"><ele>298.495422</ele><time>2022-01-15T10:45:18Z</time><extensions><speed>0.170118</speed><course>289.894867</course><hAcc>2.126673</hAcc><vAcc>0.616146</vAcc></extensions></trkpt>
      <trkpt lon="-3.055644" lat="52.702601"><ele>298.419983</ele><time>2022-01-15T10:45:19Z</time><extensions><speed>0.101118</speed><course>311.007782</course><hAcc>2.097240</hAcc><vAcc>0.624951</vAcc></extensions></trkpt>
      <trkpt lon="-3.055645" lat="52.702601"><ele>298.348724</ele><time>2022-01-15T10:45:20Z</time><extensions><speed>0.078921</speed><course>344.018555</course><hAcc>2.061973</hAcc><vAcc>0.633317</vAcc></extensions></trkpt>
      <trkpt lon="-3.055645" lat="52.702602"><ele>298.275818</ele><time>2022-01-15T10:45:21Z</time><extensions><speed>0.088955</speed><course>3.649065</course><hAcc>2.020400</hAcc><vAcc>0.640762</vAcc></extensions></trkpt>
      <trkpt lon="-3.055645" lat="52.702603"><ele>298.200684</ele><time>2022-01-15T10:45:22Z</time><extensions><speed>0.094903</speed><course>4.064292</course><hAcc>1.985223</hAcc><vAcc>0.646972</vAcc></extensions></trkpt>
      <trkpt lon="-3.055645" lat="52.702604"><ele>298.125549</ele><time>2022-01-15T10:45:23Z</time><extensions><speed>0.097471</speed><course>350.026093</course><hAcc>1.960803</hAcc><vAcc>0.651841</vAcc></extensions></trkpt>
      <trkpt lon="-3.055646" lat="52.702605"><ele>298.043365</ele><time>2022-01-15T10:45:24Z</time><extensions><speed>0.112127</speed><course>325.945526</course><hAcc>1.955048</hAcc><vAcc>0.655378</vAcc></extensions></trkpt>
      <trkpt lon="-3.055647" lat="52.702606"><ele>297.955719</ele><time>2022-01-15T10:45:25Z</time><extensions><speed>0.166495</speed><course>308.229828</course><hAcc>1.950694</hAcc><vAcc>0.657901</vAcc></extensions></trkpt>
      <trkpt lon="-3.055650" lat="52.702607"><ele>297.863586</ele><time>2022-01-15T10:45:26Z</time><extensions><speed>0.266078</speed><course>301.471008</course><hAcc>1.933868</hAcc><vAcc>0.659660</vAcc></extensions></trkpt>
      <trkpt lon="-3.055655" lat="52.702609"><ele>297.766174</ele><time>2022-01-15T10:45:27Z</time><extensions><speed>0.380885</speed><course>299.114777</course><hAcc>1.911691</hAcc><vAcc>0.661093</vAcc></extensions></trkpt>
      <trkpt lon="-3.055660" lat="52.702610"><ele>297.661530</ele><time>2022-01-15T10:45:28Z</time><extensions><speed>0.485409</speed><course>296.804932</course><hAcc>1.885432</hAcc><vAcc>0.662689</vAcc></extensions></trkpt>
      <trkpt lon="-3.055667" lat="52.702612"><ele>297.553986</ele><time>2022-01-15T10:45:29Z</time><extensions><speed>0.534424</speed><course>292.957764</course><hAcc>1.877489</hAcc><vAcc>0.664829</vAcc></extensions></trkpt>
      <trkpt lon="-3.055674" lat="52.702614"><ele>297.439880</ele><time>2022-01-15T10:45:30Z</time><extensions><speed>0.386616</speed><course>299.786438</course><hAcc>1.904190</hAcc><vAcc>0.667564</vAcc></extensions></trkpt>
      <trkpt lon="-3.055679" lat="52.702616"><ele>297.326263</ele><time>2022-01-15T10:45:31Z</time><extensions><speed>0.429502</speed><course>301.420593</course><hAcc>1.879740</hAcc><vAcc>0.670855</vAcc></extensions></trkpt>
      <trkpt lon="-3.055685" lat="52.702618"><ele>297.211304</ele><time>2022-01-15T10:45:32Z</time><extensions><speed>0.471552</speed><course>300.872650</course><hAcc>1.851742</hAcc><vAcc>0.674720</vAcc></extensions></trkpt>
      <trkpt lon="-3.055691" lat="52.702620"><ele>297.099121</ele><time>2022-01-15T10:45:33Z</time><extensions><speed>0.483779</speed><course>301.247528</course><hAcc>1.840488</hAcc><vAcc>0.679170</vAcc></extensions></trkpt>
      <trkpt lon="-3.055697" lat="52.702623"><ele>296.989655</ele><time>2022-01-15T10:45:34Z</time><extensions><speed>0.474672</speed><course>301.715271</course><hAcc>1.835651</hAcc><vAcc>0.684278</vAcc></extensions></trkpt>
      <trkpt lon="-3.055703" lat="52.702625"><ele>296.878418</ele><time>2022-01-15T10:45:35Z</time><extensions><speed>0.431877</speed><course>300.719849</course><hAcc>1.831604</hAcc><vAcc>0.689993</vAcc></extensions></trkpt>
      <trkpt lon="-3.055708" lat="52.702627"><ele>296.765625</ele><time>2022-01-15T10:45:36Z</time><extensions><speed>0.381477</speed><course>298.878540</course><hAcc>1.821811</hAcc><vAcc>0.696138</vAcc></extensions></trkpt>
      <trkpt lon="-3.055713" lat="52.702628"><ele>296.652222</ele><time>2022-01-15T10:45:37Z</time><extensions><speed>0.328756</speed><course>296.972443</course><hAcc>1.810251</hAcc><vAcc>0.702512</vAcc></extensions></trkpt>
      <trkpt lon="-3.055717" lat="52.702630"><ele>296.543640</ele><time>2022-01-15T10:45:38Z</time><extensions><speed>0.300008</speed><course>296.326660</course><hAcc>1.797627</hAcc><vAcc>0.708886</vAcc></extensions></trkpt>
      <trkpt lon="-3.055721" lat="52.702631"><ele>296.438019</ele><time>2022-01-15T10:45:39Z</time><extensions><speed>0.295299</speed><course>297.722473</course><hAcc>1.787804</hAcc><vAcc>0.715140</vAcc></extensions></trkpt>
      <trkpt lon="-3.055725" lat="52.702632"><ele>296.331299</ele><time>2022-01-15T10:45:40Z</time><extensions><speed>0.317469</speed><course>299.752197</course><hAcc>1.779294</hAcc><vAcc>0.721125</vAcc></extensions></trkpt>
      <trkpt lon="-3.055730" lat="52.702634"><ele>296.225006</ele><time>2022-01-15T10:45:41Z</time><extensions><speed>0.350531</speed><course>301.710724</course><hAcc>1.771547</hAcc><vAcc>0.726753</vAcc></extensions></trkpt>
      <trkpt lon="-3.055734" lat="52.702636"><ele>296.123230</ele><time>2022-01-15T10:45:42Z</time><extensions><speed>0.368545</speed><course>303.912354</course><hAcc>1.767105</hAcc><vAcc>0.731968</vAcc></extensions></trkpt>
      <trkpt lon="-3.055739" lat="52.702638"><ele>296.026428</ele><time>2022-01-15T10:45:43Z</time><extensions><speed>0.386550</speed><course>305.864655</course><hAcc>1.761002</hAcc><vAcc>0.736748</vAcc></extensions></trkpt>
      <trkpt lon="-3.055744" lat="52.702640"><ele>295.936035</ele><time>2022-01-15T10:45:44Z</time><extensions><speed>0.392776</speed><course>307.382141</course><hAcc>1.757152</hAcc><vAcc>0.741089</vAcc></extensions></trkpt>
      <trkpt lon="-3.055748" lat="52.702642"><ele>295.850464</ele><time>2022-01-15T10:45:45Z</time><extensions><speed>0.382439</speed><course>308.734924</course><hAcc>1.756385</hAcc><vAcc>0.745040</vAcc></extensions></trkpt>
      <trkpt lon="-3.055753" lat="52.702644"><ele>295.761261</ele><time>2022-01-15T10:45:46Z</time><extensions><speed>0.365693</speed><course>308.970490</course><hAcc>1.755384</hAcc><vAcc>0.748622</vAcc></extensions></trkpt>
      <trkpt lon="-3.055757" lat="52.702646"><ele>295.675415</ele><time>2022-01-15T10:45:47Z</time><extensions><speed>0.352354</speed><course>307.906555</course><hAcc>1.753010</hAcc><vAcc>0.751890</vAcc></extensions></trkpt>
      <trkpt lon="-3.055761" lat="52.702648"><ele>295.588226</ele><time>2022-01-15T10:45:48Z</time><extensions><speed>0.339539</speed><course>305.743774</course><hAcc>1.750805</hAcc><vAcc>0.754657</vAcc></extensions></trkpt>
      <trkpt lon="-3.055765" lat="52.702650"><ele>295.492950</ele><time>2022-01-15T10:45:49Z</time><extensions><speed>0.328469</speed><course>302.783234</course><hAcc>1.747632</hAcc><vAcc>0.756904</vAcc></extensions></trkpt>
      <trkpt lon="-3.055770" lat="52.702651"><ele>295.382812</ele><time>2022-01-15T10:45:50Z</time><extensions><speed>0.304766</speed><course>298.644745</course><hAcc>1.745476</hAcc><vAcc>0.758722</vAcc></extensions></trkpt>
      <trkpt lon="-3.055774" lat="52.702652"><ele>295.289490</ele><time>2022-01-15T10:45:51Z</time><extensions><speed>0.280247</speed><course>292.463959</course><hAcc>1.740655</hAcc><vAcc>0.759782</vAcc></extensions></trkpt>
      <trkpt lon="-3.055777" lat="52.702653"><ele>295.151764</ele><time>2022-01-15T10:45:52Z</time><extensions><speed>0.258619</speed><course>285.380157</course><hAcc>1.733309</hAcc><vAcc>0.759868</vAcc></extensions></trkpt>
      <trkpt lon="-3.055781" lat="52.702654"><ele>295.006775</ele><time>2022-01-15T10:45:53Z</time><extensions><speed>0.253388</speed><course>280.084991</course><hAcc>1.728673</hAcc><vAcc>0.758766</vAcc></extensions></trkpt>
      <trkpt lon="-3.055785" lat="52.702654"><ele>294.856750</ele><time>2022-01-15T10:45:54Z</time><extensions><speed>0.249586</speed><course>278.674744</course><hAcc>1.742944</hAcc><vAcc>0.756484</vAcc></extensions></trkpt>
      <trkpt lon="-3.055789" lat="52.702654"><ele>294.704803</ele><time>2022-01-15T10:45:55Z</time><extensions><speed>0.235518</speed><course>280.918976</course><hAcc>1.771529</hAcc><vAcc>0.752691</vAcc></extensions></trkpt>
      <trkpt lon="-3.055793" lat="52.702655"><ele>294.541321</ele><time>2022-01-15T10:45:56Z</time><extensions><speed>0.321088</speed><course>285.194885</course><hAcc>1.767371</hAcc><vAcc>0.747175</vAcc></extensions></trkpt>
      <trkpt lon="-3.055798" lat="52.702656"><ele>294.370422</ele><time>2022-01-15T10:45:57Z</time><extensions><speed>0.398685</speed><course>288.985504</course><hAcc>1.776427</hAcc><vAcc>0.740130</vAcc></extensions></trkpt>
      <trkpt lon="-3.055804" lat="52.702657"><ele>294.193176</ele><time>2022-01-15T10:45:58Z</time><extensions><speed>0.512044</speed><course>291.152771</course><hAcc>1.790049</hAcc><vAcc>0.731397</vAcc></extensions></trkpt>
      <trkpt lon="-3.055813" lat="52.702660"><ele>294.009369</ele><time>2022-01-15T10:45:59Z</time><extensions><speed>0.704718</speed><course>292.136200</course><hAcc>1.802919</hAcc><vAcc>0.720962</vAcc></extensions></trkpt>
      <trkpt lon="-3.055823" lat="52.702662"><ele>293.824158</ele><time>2022-01-15T10:46:00Z</time><extensions><speed>0.691797</speed><course>293.439667</course><hAcc>1.849782</hAcc><vAcc>0.708943</vAcc></extensions></trkpt>
      <trkpt lon="-3.055832" lat="52.702665"><ele>293.638458</ele><time>2022-01-15T10:46:01Z</time><extensions><speed>0.675762</speed><course>298.923279</course><hAcc>1.888448</hAcc><vAcc>0.695550</vAcc></extensions></trkpt>
      <trkpt lon="-3.055842" lat="52.702668"><ele>293.455017</ele><time>2022-01-15T10:46:02Z</time><extensions><speed>0.779346</speed><course>302.488312</course><hAcc>1.911649</hAcc><vAcc>0.681140</vAcc></extensions></trkpt>
      <trkpt lon="-3.055852" lat="52.702672"><ele>293.273529</ele><time>2022-01-15T10:46:03Z</time><extensions><speed>0.763451</speed><course>304.472351</course><hAcc>1.924573</hAcc><vAcc>0.666199</vAcc></extensions></trkpt>
      <trkpt lon="-3.055861" lat="52.702676"><ele>293.094940</ele><time>2022-01-15T10:46:04Z</time><extensions><speed>0.648008</speed><course>301.246735</course><hAcc>1.952923</hAcc><vAcc>0.651272</vAcc></extensions></trkpt>
      <trkpt lon="-3.055869" lat="52.702678"><ele>292.921509</ele><time>2022-01-15T10:46:05Z</time><extensions><speed>0.463409</speed><course>293.092560</course><hAcc>1.992668</hAcc><vAcc>0.636958</vAcc></extensions></trkpt>
      <trkpt lon="-3.055876" lat="52.702679"><ele>292.753876</ele><time>2022-01-15T10:46:06Z</time><extensions><speed>0.435385</speed><course>287.152252</course><hAcc>1.998656</hAcc><vAcc>0.623882</vAcc></extensions></trkpt>
      <trkpt lon="-3.055882" lat="52.702681"><ele>292.590759</ele><time>2022-01-15T10:46:07Z</time><extensions><speed>0.435749</speed><course>284.667603</course><hAcc>1.991040</hAcc><vAcc>0.612588</vAcc></extensions></trkpt>
      <trkpt lon="-3.055889" lat="52.702681"><ele>292.429413</ele><time>2022-01-15T10:46:08Z</time><extensions><speed>0.466629</speed><course>283.467346</course><hAcc>1.976111</hAcc><vAcc>0.603349</vAcc></extensions></trkpt>
      <trkpt lon="-3.055897" lat="52.702682"><ele>292.265869</ele><time>2022-01-15T10:46:09Z</time><extensions><speed>0.491778</speed><course>281.779388</course><hAcc>1.962877</hAcc><vAcc>0.596159</vAcc></extensions></trkpt>
      <trkpt lon="-3.055904" lat="52.702683"><ele>292.102325</ele><time>2022-01-15T10:46:10Z</time><extensions><speed>0.494319</speed><course>280.229462</course><hAcc>1.953952</hAcc><vAcc>0.590824</vAcc></extensions></trkpt>
      <trkpt lon="-3.055912" lat="52.702684"><ele>291.932800</ele><time>2022-01-15T10:46:11Z</time><extensions><speed>0.490650</speed><course>279.990387</course><hAcc>1.944124</hAcc><vAcc>0.587080</vAcc></extensions></trkpt>
      <trkpt lon="-3.055920" lat="52.702685"><ele>291.758942</ele><time>2022-01-15T10:46:12Z</time><extensions><speed>0.494416</speed><course>280.255615</course><hAcc>1.934834</hAcc><vAcc>0.584651</vAcc></extensions></trkpt>
      <trkpt lon="-3.055928" lat="52.702686"><ele>291.577911</ele><time>2022-01-15T10:46:12Z</time><extensions><speed>0.470263</speed><course>279.726898</course><hAcc>1.936488</hAcc><vAcc>0.583254</vAcc></extensions></trkpt>
      <trkpt lon="-3.055935" lat="52.702686"><ele>291.392670</ele><time>2022-01-15T10:46:13Z</time><extensions><speed>0.445017</speed><course>277.958130</course><hAcc>1.940181</hAcc><vAcc>0.582543</vAcc></extensions></trkpt>
      <trkpt lon="-3.055942" lat="52.702687"><ele>291.202332</ele><time>2022-01-15T10:46:15Z</time><extensions><speed>0.434703</speed><course>274.932068</course><hAcc>1.939590</hAcc><vAcc>0.582027</vAcc></extensions></trkpt>
      <trkpt lon="-3.055948" lat="52.702687"><ele>291.008972</ele><time>2022-01-15T10:46:16Z</time><extensions><speed>0.433545</speed><course>272.461700</course><hAcc>1.939181</hAcc><vAcc>0.581126</vAcc></extensions></trkpt>
      <trkpt lon="-3.055955" lat="52.702687"><ele>290.813263</ele><time>2022-01-15T10:46:16Z</time><extensions><speed>0.448766</speed><course>271.390045</course><hAcc>1.940304</hAcc><vAcc>0.579366</vAcc></extensions></trkpt>
      <trkpt lon="-3.055962" lat="52.702687"><ele>290.616821</ele><time>2022-01-15T10:46:17Z</time><extensions><speed>0.447733</speed><course>271.640625</course><hAcc>1.947424</hAcc><vAcc>0.576508</vAcc></extensions></trkpt>
      <trkpt lon="-3.055969" lat="52.702687"><ele>290.422607</ele><time>2022-01-15T10:46:18Z</time><extensions><speed>0.446965</speed><course>271.431885</course><hAcc>1.956505</hAcc><vAcc>0.572599</vAcc></extensions></trkpt>
      <trkpt lon="-3.055976" lat="52.702687"><ele>290.233307</ele><time>2022-01-15T10:46:19Z</time><extensions><speed>0.443798</speed><course>270.057526</course><hAcc>1.965782</hAcc><vAcc>0.567900</vAcc></extensions></trkpt>
      <trkpt lon="-3.055983" lat="52.702687"><ele>290.050751</ele><time>2022-01-15T10:46:20Z</time><extensions><speed>0.429541</speed><course>267.385620</course><hAcc>1.977315</hAcc><vAcc>0.562789</vAcc></extensions></trkpt>
      <trkpt lon="-3.055990" lat="52.702687"><ele>289.875214</ele><time>2022-01-15T10:46:21Z</time><extensions><speed>0.407931</speed><course>264.527710</course><hAcc>1.989198</hAcc><vAcc>0.557678</vAcc></extensions></trkpt>
      <trkpt lon="-3.055996" lat="52.702686"><ele>289.707489</ele><time>2022-01-15T10:46:22Z</time><extensions><speed>0.376445</speed><course>261.700592</course><hAcc>2.000529</hAcc><vAcc>0.552964</vAcc></extensions></trkpt>
      <trkpt lon="-3.056002" lat="52.702685"><ele>289.550140</ele><time>2022-01-15T10:46:23Z</time><extensions><speed>0.370376</speed><course>258.800537</course><hAcc>2.006071</hAcc><vAcc>0.548969</vAcc></extensions></trkpt>
      <trkpt lon="-3.056008" lat="52.702685"><ele>289.404449</ele><time>2022-01-15T10:46:24Z</time><extensions><speed>0.358230</speed><course>256.223328</course><hAcc>2.014392</hAcc><vAcc>0.545870</vAcc></extensions></trkpt>
      <trkpt lon="-3.056014" lat="52.702684"><ele>289.268677</ele><time>2022-01-15T10:46:25Z</time><extensions><speed>0.370921</speed><course>254.599442</course><hAcc>2.017999</hAcc><vAcc>0.543662</vAcc></extensions></trkpt>
      <trkpt lon="-3.056019" lat="52.702683"><ele>289.138519</ele><time>2022-01-15T10:46:27Z</time><extensions><speed>0.370836</speed><course>253.685532</course><hAcc>2.025001</hAcc><vAcc>0.542153</vAcc></extensions></trkpt>
      <trkpt lon="-3.056025" lat="52.702682"><ele>289.011108</ele><time>2022-01-15T10:46:28Z</time><extensions><speed>0.377227</speed><course>252.882202</course><hAcc>2.033882</hAcc><vAcc>0.541101</vAcc></extensions></trkpt>
      <trkpt lon="-3.056030" lat="52.702680"><ele>288.884888</ele><time>2022-01-15T10:46:29Z</time><extensions><speed>0.398012</speed><course>251.276520</course><hAcc>2.046005</hAcc><vAcc>0.540364</vAcc></extensions></trkpt>
      <trkpt lon="-3.056036" lat="52.702679"><ele>288.760010</ele><time>2022-01-15T10:46:30Z</time><extensions><speed>0.402277</speed><course>250.720398</course><hAcc>2.067165</hAcc><vAcc>0.539933</vAcc></extensions></trkpt>
      <trkpt lon="-3.056042" lat="52.702678"><ele>288.633636</ele><time>2022-01-15T10:46:31Z</time><extensions><speed>0.432213</speed><course>253.207230</course><hAcc>2.074813</hAcc><vAcc>0.539870</vAcc></extensions></trkpt>
      <trkpt lon="-3.056049" lat="52.702676"><ele>288.503540</ele><time>2022-01-15T10:46:32Z</time><extensions><speed>0.531089</speed><course>257.137451</course><hAcc>2.065528</hAcc><vAcc>0.540261</vAcc></extensions></trkpt>
      <trkpt lon="-3.056057" lat="52.702675"><ele>288.368286</ele><time>2022-01-15T10:46:33Z</time><extensions><speed>0.490674</speed><course>249.505447</course><hAcc>2.095975</hAcc><vAcc>0.541120</vAcc></extensions></trkpt>
      <trkpt lon="-3.056064" lat="52.702673"><ele>288.229065</ele><time>2022-01-15T10:46:34Z</time><extensions><speed>0.511855</speed><course>243.553391</course><hAcc>2.105260</hAcc><vAcc>0.542370</vAcc></extensions></trkpt>
      <trkpt lon="-3.056070" lat="52.702671"><ele>288.084503</ele><time>2022-01-15T10:46:35Z</time><extensions><speed>0.501811</speed><course>238.389542</course><hAcc>2.106680</hAcc><vAcc>0.543811</vAcc></extensions></trkpt>
      <trkpt lon="-3.056077" lat="52.702668"><ele>287.934814</ele><time>2022-01-15T10:46:36Z</time><extensions><speed>0.475742</speed><course>233.159698</course><hAcc>2.110219</hAcc><vAcc>0.545136</vAcc></extensions></trkpt>
      <trkpt lon="-3.056082" lat="52.702666"><ele>287.781738</ele><time>2022-01-15T10:46:37Z</time><extensions><speed>0.455479</speed><course>229.255844</course><hAcc>2.116770</hAcc><vAcc>0.546052</vAcc></extensions></trkpt>
      <trkpt lon="-3.056087" lat="52.702663"><ele>287.625732</ele><time>2022-01-15T10:46:38Z</time><extensions><speed>0.452227</speed><course>228.666245</course><hAcc>2.126517</hAcc><vAcc>0.546330</vAcc></extensions></trkpt>
      <trkpt lon="-3.056093" lat="52.702660"><ele>287.467499</ele><time>2022-01-15T10:46:39Z</time><extensions><speed>0.454269</speed><course>232.009613</course><hAcc>2.138404</hAcc><vAcc>0.545784</vAcc></extensions></trkpt>
      <trkpt lon="-3.056099" lat="52.702657"><ele>287.311188</ele><time>2022-01-15T10:46:40Z</time><extensions><speed>0.473395</speed><course>238.932510</course><hAcc>2.140814</hAcc><vAcc>0.544245</vAcc></extensions></trkpt>
      <trkpt lon="-3.056105" lat="52.702655"><ele>287.153137</ele><time>2022-01-15T10:46:41Z</time><extensions><speed>0.531156</speed><course>247.930923</course><hAcc>2.132479</hAcc><vAcc>0.541635</vAcc></extensions></trkpt>
      <trkpt lon="-3.056113" lat="52.702653"><ele>286.998840</ele><time>2022-01-15T10:46:42Z</time><extensions><speed>0.562394</speed><course>244.286316</course><hAcc>2.152000</hAcc><vAcc>0.538014</vAcc></extensions></trkpt>
      <trkpt lon="-3.056121" lat="52.702650"><ele>286.847931</ele><time>2022-01-15T10:46:43Z</time><extensions><speed>0.542117</speed><course>231.338669</course><hAcc>2.192042</hAcc><vAcc>0.533661</vAcc></extensions></trkpt>
      <trkpt lon="-3.056127" lat="52.702647"><ele>286.700775</ele><time>2022-01-15T10:46:44Z</time><extensions><speed>0.581938</speed><course>224.474762</course><hAcc>2.212683</hAcc><vAcc>0.529070</vAcc></extensions></trkpt>
      <trkpt lon="-3.056133" lat="52.702643"><ele>286.552460</ele><time>2022-01-15T10:46:45Z</time><extensions><speed>0.602466</speed><course>221.575333</course><hAcc>2.227661</hAcc><vAcc>0.524828</vAcc></extensions></trkpt>
      <trkpt lon="-3.056139" lat="52.702638"><ele>286.403687</ele><time>2022-01-15T10:46:46Z</time><extensions><speed>0.623604</speed><course>220.738327</course><hAcc>2.238637</hAcc><vAcc>0.521394</vAcc></extensions></trkpt>
      <trkpt lon="-3.056146" lat="52.702634"><ele>286.253082</ele><time>2022-01-15T10:46:47Z</time><extensions><speed>0.631204</speed><course>221.039825</course><hAcc>2.246242</hAcc><vAcc>0.518936</vAcc></extensions></trkpt>
      <trkpt lon="-3.056153" lat="52.702629"><ele>286.095306</ele><time>2022-01-15T10:46:48Z</time><extensions><speed>0.672713</speed><course>222.030090</course><hAcc>2.243576</hAcc><vAcc>0.517348</vAcc></extensions></trkpt>
      <trkpt lon="-3.056160" lat="52.702625"><ele>285.936768</ele><time>2022-01-15T10:46:49Z</time><extensions><speed>0.695942</speed><course>223.339218</course><hAcc>2.243316</hAcc><vAcc>0.516374</vAcc></extensions></trkpt>
      <trkpt lon="-3.056167" lat="52.702620"><ele>285.777222</ele><time>2022-01-15T10:46:50Z</time><extensions><speed>0.700378</speed><course>224.953003</course><hAcc>2.247988</hAcc><vAcc>0.515727</vAcc></extensions></trkpt>
      <trkpt lon="-3.056175" lat="52.702616"><ele>285.616852</ele><time>2022-01-15T10:46:51Z</time><extensions><speed>0.695737</speed><course>226.370316</course><hAcc>2.252518</hAcc><vAcc>0.515119</vAcc></extensions></trkpt>
      <trkpt lon="-3.056182" lat="52.702611"><ele>285.455261</ele><time>2022-01-15T10:46:52Z</time><extensions><speed>0.657029</speed><course>226.542130</course><hAcc>2.257905</hAcc><vAcc>0.514327</vAcc></extensions></trkpt>
      <trkpt lon="-3.056189" lat="52.702607"><ele>285.292267</ele><time>2022-01-15T10:46:53Z</time><extensions><speed>0.633906</speed><course>225.722672</course><hAcc>2.257563</hAcc><vAcc>0.513289</vAcc></extensions></trkpt>
      <trkpt lon="-3.056196" lat="52.702602"><ele>285.130096</ele><time>2022-01-15T10:46:54Z</time><extensions><speed>0.597296</speed><course>224.597626</course><hAcc>2.257709</hAcc><vAcc>0.512179</vAcc></extensions></trkpt>
      <trkpt lon="-3.056202" lat="52.702598"><ele>284.969849</ele><time>2022-01-15T10:46:55Z</time><extensions><speed>0.581825</speed><course>222.967590</course><hAcc>2.248605</hAcc><vAcc>0.511352</vAcc></extensions></trkpt>
      <trkpt lon="-3.056208" lat="52.702594"><ele>284.812347</ele><time>2022-01-15T10:46:56Z</time><extensions><speed>0.587703</speed><course>220.406830</course><hAcc>2.231336</hAcc><vAcc>0.511231</vAcc></extensions></trkpt>
      <trkpt lon="-3.056214" lat="52.702590"><ele>284.657684</ele><time>2022-01-15T10:46:57Z</time><extensions><speed>0.564526</speed><course>217.506195</course><hAcc>2.224611</hAcc><vAcc>0.512153</vAcc></extensions></trkpt>
      <trkpt lon="-3.056219" lat="52.702586"><ele>284.507019</ele><time>2022-01-15T10:46:58Z</time><extensions><speed>0.513222</speed><course>214.569611</course><hAcc>2.224211</hAcc><vAcc>0.514308</vAcc></extensions></trkpt>
      <trkpt lon="-3.056223" lat="52.702582"><ele>284.361908</ele><time>2022-01-15T10:46:59Z</time><extensions><speed>0.569340</speed><course>211.545883</course><hAcc>2.199743</hAcc><vAcc>0.517710</vAcc></extensions></trkpt>
      <trkpt lon="-3.056228" lat="52.702577"><ele>284.221802</ele><time>2022-01-15T10:47:00Z</time><extensions><speed>0.631668</speed><course>208.950150</course><hAcc>2.178514</hAcc><vAcc>0.522182</vAcc></extensions></trkpt>
      <trkpt lon="-3.056233" lat="52.702571"><ele>284.084961</ele><time>2022-01-15T10:47:01Z</time><extensions><speed>0.676579</speed><course>207.731674</course><hAcc>2.169261</hAcc><vAcc>0.527366</vAcc></extensions></trkpt>
      <trkpt lon="-3.056238" lat="52.702566"><ele>283.950134</ele><time>2022-01-15T10:47:02Z</time><extensions><speed>0.726268</speed><course>208.824051</course><hAcc>2.159263</hAcc><vAcc>0.532701</vAcc></extensions></trkpt>
      <trkpt lon="-3.056244" lat="52.702560"><ele>283.821136</ele><time>2022-01-15T10:47:03Z</time><extensions><speed>0.747429</speed><course>211.584335</course><hAcc>2.151670</hAcc><vAcc>0.537473</vAcc></extensions></trkpt>
      <trkpt lon="-3.056250" lat="52.702554"><ele>283.696686</ele><time>2022-01-15T10:47:04Z</time><extensions><speed>0.733294</speed><course>214.498993</course><hAcc>2.149448</hAcc><vAcc>0.541010</vAcc></extensions></trkpt>
      <trkpt lon="-3.056256" lat="52.702549"><ele>283.575470</ele><time>2022-01-15T10:47:05Z</time><extensions><speed>0.696235</speed><course>216.815552</course><hAcc>2.152044</hAcc><vAcc>0.542863</vAcc></extensions></trkpt>
      <trkpt lon="-3.056262" lat="52.702544"><ele>283.458923</ele><time>2022-01-15T10:47:06Z</time><extensions><speed>0.658709</speed><course>217.725464</course><hAcc>2.158671</hAcc><vAcc>0.542806</vAcc></extensions></trkpt>
      <trkpt lon="-3.056268" lat="52.702539"><ele>283.348785</ele><time>2022-01-15T10:47:07Z</time><extensions><speed>0.616862</speed><course>216.943039</course><hAcc>2.170716</hAcc><vAcc>0.540811</vAcc></extensions></trkpt>
      <trkpt lon="-3.056273" lat="52.702534"><ele>283.244995</ele><time>2022-01-15T10:47:08Z</time><extensions><speed>0.587614</speed><course>215.095932</course><hAcc>2.185414</hAcc><vAcc>0.537072</vAcc></extensions></trkpt>
      <trkpt lon="-3.056278" lat="52.702530"><ele>283.149597</ele><time>2022-01-15T10:47:09Z</time><extensions><speed>0.560214</speed><course>212.939606</course><hAcc>2.202346</hAcc><vAcc>0.531983</vAcc></extensions></trkpt>
      <trkpt lon="-3.056283" lat="52.702526"><ele>283.062256</ele><time>2022-01-15T10:47:10Z</time><extensions><speed>0.553593</speed><course>211.547424</course><hAcc>2.216775</hAcc><vAcc>0.526069</vAcc></extensions></trkpt>
      <trkpt lon="-3.056288" lat="52.702521"><ele>282.983093</ele><time>2022-01-15T10:47:11Z</time><extensions><speed>0.547463</speed><course>211.308914</course><hAcc>2.231086</hAcc><vAcc>0.519912</vAcc></extensions></trkpt>
      <trkpt lon="-3.056292" lat="52.702517"><ele>282.909393</ele><time>2022-01-15T10:47:12Z</time><extensions><speed>0.551818</speed><course>211.430756</course><hAcc>2.241466</hAcc><vAcc>0.513993</vAcc></extensions></trkpt>
      <trkpt lon="-3.056297" lat="52.702513"><ele>282.848999</ele><time>2022-01-15T10:47:13Z</time><extensions><speed>0.553865</speed><course>211.488312</course><hAcc>2.248661</hAcc><vAcc>0.508423</vAcc></extensions></trkpt>
      <trkpt lon="-3.056301" lat="52.702508"><ele>282.787384</ele><time>2022-01-15T10:47:14Z</time><extensions><speed>0.532071</speed><course>212.389511</course><hAcc>2.257660</hAcc><vAcc>0.502876</vAcc></extensions></trkpt>
      <trkpt lon="-3.056306" lat="52.702504"><ele>282.727661</ele><time>2022-01-15T10:47:15Z</time><extensions><speed>0.520460</speed><course>215.193665</course><hAcc>2.262326</hAcc><vAcc>0.496691</vAcc></extensions></trkpt>
      <trkpt lon="-3.056311" lat="52.702501"><ele>282.664490</ele><time>2022-01-15T10:47:16Z</time><extensions><speed>0.496084</speed><course>220.707260</course><hAcc>2.268161</hAcc><vAcc>0.489305</vAcc></extensions></trkpt>
      <trkpt lon="-3.056317" lat="52.702498"><ele>282.605103</ele><time>2022-01-15T10:47:17Z</time><extensions><speed>0.487538</speed><course>227.998825</course><hAcc>2.272007</hAcc><vAcc>0.480324</vAcc></extensions></trkpt>
      <trkpt lon="-3.056323" lat="52.702495"><ele>282.543671</ele><time>2022-01-15T10:47:18Z</time><extensions><speed>0.491582</speed><course>235.582153</course><hAcc>2.276169</hAcc><vAcc>0.469763</vAcc></extensions></trkpt>
      <trkpt lon="-3.056329" lat="52.702493"><ele>282.470734</ele><time>2022-01-15T10:47:19Z</time><extensions><speed>0.495638</speed><course>242.476089</course><hAcc>2.285241</hAcc><vAcc>0.458458</vAcc></extensions></trkpt>
      <trkpt lon="-3.056336" lat="52.702491"><ele>282.390839</ele><time>2022-01-15T10:47:20Z</time><extensions><speed>0.497828</speed><course>248.398087</course><hAcc>2.298376</hAcc><vAcc>0.446928</vAcc></extensions></trkpt>
      <trkpt lon="-3.056343" lat="52.702489"><ele>282.300842</ele><time>2022-01-15T10:47:21Z</time><extensions><speed>0.494111</speed><course>252.853943</course><hAcc>2.312800</hAcc><vAcc>0.436144</vAcc></extensions></trkpt>
      <trkpt lon="-3.056350" lat="52.702488"><ele>282.202271</ele><time>2022-01-15T10:47:22Z</time><extensions><speed>0.495101</speed><course>256.503510</course><hAcc>2.326469</hAcc><vAcc>0.427063</vAcc></extensions></trkpt>
      <trkpt lon="-3.056357" lat="52.702487"><ele>282.097260</ele><time>2022-01-15T10:47:23Z</time><extensions><speed>0.450783</speed><course>260.196716</course><hAcc>2.349416</hAcc><vAcc>0.420502</vAcc></extensions></trkpt>
      <trkpt lon="-3.056364" lat="52.702487"><ele>281.981903</ele><time>2022-01-15T10:47:24Z</time><extensions><speed>0.422659</speed><course>264.400238</course><hAcc>2.364956</hAcc><vAcc>0.416414</vAcc></extensions></trkpt>
      <trkpt lon="-3.056370" lat="52.702487"><ele>281.854401</ele><time>2022-01-15T10:47:25Z</time><extensions><speed>0.392855</speed><course>268.099274</course><hAcc>2.377812</hAcc><vAcc>0.413994</vAcc></extensions></trkpt>
      <trkpt lon="-3.056376" lat="52.702487"><ele>281.723755</ele><time>2022-01-15T10:47:26Z</time><extensions><speed>0.354791</speed><course>270.748840</course><hAcc>2.392003</hAcc><vAcc>0.412167</vAcc></extensions></trkpt>
      <trkpt lon="-3.056381" lat="52.702487"><ele>281.593964</ele><time>2022-01-15T10:47:27Z</time><extensions><speed>0.307867</speed><course>273.661346</course><hAcc>2.411788</hAcc><vAcc>0.410272</vAcc></extensions></trkpt>
      <trkpt lon="-3.056385" lat="52.702487"><ele>281.463226</ele><time>2022-01-15T10:47:28Z</time><extensions><speed>0.261255</speed><course>277.666748</course><hAcc>2.439401</hAcc><vAcc>0.408371</vAcc></extensions></trkpt>
      <trkpt lon="-3.056389" lat="52.702488"><ele>281.333069</ele><time>2022-01-15T10:47:29Z</time><extensions><speed>0.220757</speed><course>283.179169</course><hAcc>2.469797</hAcc><vAcc>0.407043</vAcc></extensions></trkpt>
      <trkpt lon="-3.056392" lat="52.702489"><ele>281.213379</ele><time>2022-01-15T10:47:30Z</time><extensions><speed>0.197096</speed><course>290.214355</course><hAcc>2.492231</hAcc><vAcc>0.406652</vAcc></extensions></trkpt>
      <trkpt lon="-3.056395" lat="52.702489"><ele>281.097778</ele><time>2022-01-15T10:47:31Z</time><extensions><speed>0.188510</speed><course>296.461639</course><hAcc>2.509721</hAcc><vAcc>0.407216</vAcc></extensions></trkpt>
      <trkpt lon="-3.056398" lat="52.702490"><ele>280.988342</ele><time>2022-01-15T10:47:32Z</time><extensions><speed>0.185237</speed><course>301.325043</course><hAcc>2.529644</hAcc><vAcc>0.408191</vAcc></extensions></trkpt>
      <trkpt lon="-3.056401" lat="52.702491"><ele>280.888519</ele><time>2022-01-15T10:47:33Z</time><extensions><speed>0.185799</speed><course>303.751465</course><hAcc>2.544971</hAcc><vAcc>0.409082</vAcc></extensions></trkpt>
      <trkpt lon="-3.056403" lat="52.702492"><ele>280.807800</ele><time>2022-01-15T10:47:34Z</time><extensions><speed>0.197372</speed><course>305.553986</course><hAcc>2.548115</hAcc><vAcc>0.409613</vAcc></extensions></trkpt>
      <trkpt lon="-3.056405" lat="52.702493"><ele>280.718140</ele><time>2022-01-15T10:47:35Z</time><extensions><speed>0.208222</speed><course>307.202484</course><hAcc>2.541458</hAcc><vAcc>0.409585</vAcc></extensions></trkpt>
      <trkpt lon="-3.056408" lat="52.702494"><ele>280.637573</ele><time>2022-01-15T10:47:36Z</time><extensions><speed>0.210312</speed><course>307.800629</course><hAcc>2.530699</hAcc><vAcc>0.408966</vAcc></extensions></trkpt>
      <trkpt lon="-3.056410" lat="52.702495"><ele>280.567902</ele><time>2022-01-15T10:47:37Z</time><extensions><speed>0.200628</speed><course>305.322662</course><hAcc>2.523010</hAcc><vAcc>0.407812</vAcc></extensions></trkpt>
      <trkpt lon="-3.056413" lat="52.702496"><ele>280.508759</ele><time>2022-01-15T10:47:38Z</time><extensions><speed>0.184276</speed><course>301.109528</course><hAcc>2.524589</hAcc><vAcc>0.406288</vAcc></extensions></trkpt>
      <trkpt lon="-3.056415" lat="52.702497"><ele>280.446716</ele><time>2022-01-15T10:47:39Z</time><extensions><speed>0.149893</speed><course>296.611633</course><hAcc>2.552667</hAcc><vAcc>0.404606</vAcc></extensions></trkpt>
      <trkpt lon="-3.056417" lat="52.702497"><ele>280.397308</ele><time>2022-01-15T10:47:40Z</time><extensions><speed>0.086612</speed><course>286.620270</course><hAcc>2.587209</hAcc><vAcc>0.403104</vAcc></extensions></trkpt>
      <trkpt lon="-3.056418" lat="52.702498"><ele>280.360291</ele><time>2022-01-15T10:47:41Z</time><extensions><speed>0.101927</speed><course>276.656097</course><hAcc>2.542017</hAcc><vAcc>0.402014</vAcc></extensions></trkpt>
      <trkpt lon="-3.056420" lat="52.702499"><ele>280.323975</ele><time>2022-01-15T10:47:42Z</time><extensions><speed>0.095790</speed><course>277.181793</course><hAcc>2.510046</hAcc><vAcc>0.401241</vAcc></extensions></trkpt>
      <trkpt lon="-3.056422" lat="52.702499"><ele>280.300385</ele><time>2022-01-15T10:47:43Z</time><extensions><speed>0.085749</speed><course>293.340698</course><hAcc>2.513237</hAcc><vAcc>0.400634</vAcc></extensions></trkpt>
      <trkpt lon="-3.056423" lat="52.702500"><ele>280.281281</ele><time>2022-01-15T10:47:44Z</time><extensions><speed>0.103670</speed><course>318.556610</course><hAcc>2.524861</hAcc><vAcc>0.400043</vAcc></extensions></trkpt>
      <trkpt lon="-3.056424" lat="52.702502"><ele>280.268707</ele><time>2022-01-15T10:47:45Z</time><extensions><speed>0.169764</speed><course>332.683350</course><hAcc>2.521569</hAcc><vAcc>0.399467</vAcc></extensions></trkpt>
      <trkpt lon="-3.056426" lat="52.702504"><ele>280.254303</ele><time>2022-01-15T10:47:46Z</time><extensions><speed>0.249573</speed><course>338.458374</course><hAcc>2.526787</hAcc><vAcc>0.398930</vAcc></extensions></trkpt>
      <trkpt lon="-3.056428" lat="52.702507"><ele>280.234711</ele><time>2022-01-15T10:47:47Z</time><extensions><speed>0.351177</speed><course>340.826599</course><hAcc>2.530038</hAcc><vAcc>0.398378</vAcc></extensions></trkpt>
      <trkpt lon="-3.056430" lat="52.702511"><ele>280.205292</ele><time>2022-01-15T10:47:48Z</time><extensions><speed>0.471493</speed><course>341.205444</course><hAcc>2.521373</hAcc><vAcc>0.397672</vAcc></extensions></trkpt>
      <trkpt lon="-3.056434" lat="52.702516"><ele>280.162628</ele><time>2022-01-15T10:47:49Z</time><extensions><speed>0.599233</speed><course>340.106598</course><hAcc>2.505496</hAcc><vAcc>0.396762</vAcc></extensions></trkpt>
      <trkpt lon="-3.056438" lat="52.702522"><ele>280.107056</ele><time>2022-01-15T10:47:50Z</time><extensions><speed>0.657953</speed><course>338.407562</course><hAcc>2.501076</hAcc><vAcc>0.395664</vAcc></extensions></trkpt>
      <trkpt lon="-3.056443" lat="52.702528"><ele>280.037323</ele><time>2022-01-15T10:47:51Z</time><extensions><speed>0.715520</speed><course>336.423676</course><hAcc>2.493585</hAcc><vAcc>0.394359</vAcc></extensions></trkpt>
      <trkpt lon="-3.056449" lat="52.702534"><ele>279.948334</ele><time>2022-01-15T10:47:52Z</time><extensions><speed>0.758382</speed><course>333.953217</course><hAcc>2.481181</hAcc><vAcc>0.393147</vAcc></extensions></trkpt>
      <trkpt lon="-3.056455" lat="52.702541"><ele>279.840790</ele><time>2022-01-15T10:47:53Z</time><extensions><speed>0.796125</speed><course>330.952789</course><hAcc>2.465439</hAcc><vAcc>0.392008</vAcc></extensions></trkpt>
      <trkpt lon="-3.056462" lat="52.702547"><ele>279.713623</ele><time>2022-01-15T10:47:54Z</time><extensions><speed>0.833625</speed><course>327.080353</course><hAcc>2.448603</hAcc><vAcc>0.391233</vAcc></extensions></trkpt>
      <trkpt lon="-3.056470" lat="52.702553"><ele>279.563568</ele><time>2022-01-15T10:47:55Z</time><extensions><speed>0.836786</speed><course>322.232971</course><hAcc>2.436322</hAcc><vAcc>0.391194</vAcc></extensions></trkpt>
      <trkpt lon="-3.056478" lat="52.702559"><ele>279.392609</ele><time>2022-01-15T10:47:56Z</time><extensions><speed>0.849342</speed><course>316.489197</course><hAcc>2.422284</hAcc><vAcc>0.392340</vAcc></extensions></trkpt>
      <trkpt lon="-3.056487" lat="52.702564"><ele>279.208374</ele><time>2022-01-15T10:47:57Z</time><extensions><speed>0.842254</speed><course>309.735077</course><hAcc>2.407994</hAcc><vAcc>0.395079</vAcc></extensions></trkpt>
      <trkpt lon="-3.056497" lat="52.702568"><ele>279.006317</ele><time>2022-01-15T10:47:58Z</time><extensions><speed>0.808533</speed><course>302.029449</course><hAcc>2.393777</hAcc><vAcc>0.399696</vAcc></extensions></trkpt>
      <trkpt lon="-3.056507" lat="52.702571"><ele>278.790833</ele><time>2022-01-15T10:47:59Z</time><extensions><speed>0.764688</speed><course>293.576782</course><hAcc>2.376249</hAcc><vAcc>0.406341</vAcc></extensions></trkpt>
      <trkpt lon="-3.056518" lat="52.702573"><ele>278.566162</ele><time>2022-01-15T10:48:00Z</time><extensions><speed>0.712909</speed><course>284.312988</course><hAcc>2.353308</hAcc><vAcc>0.414935</vAcc></extensions></trkpt>
      <trkpt lon="-3.056528" lat="52.702574"><ele>278.336700</ele><time>2022-01-15T10:48:01Z</time><extensions><speed>0.650095</speed><course>274.463745</course><hAcc>2.325321</hAcc><vAcc>0.425210</vAcc></extensions></trkpt>
      <trkpt lon="-3.056536" lat="52.702574"><ele>278.107880</ele><time>2022-01-15T10:48:02Z</time><extensions><speed>0.555487</speed><course>264.325531</course><hAcc>2.295593</hAcc><vAcc>0.436727</vAcc></extensions></trkpt>
      <trkpt lon="-3.056543" lat="52.702573"><ele>277.885864</ele><time>2022-01-15T10:48:03Z</time><extensions><speed>0.445179</speed><course>252.323471</course><hAcc>2.268819</hAcc><vAcc>0.448858</vAcc></extensions></trkpt>
      <trkpt lon="-3.056549" lat="52.702571"><ele>277.676208</ele><time>2022-01-15T10:48:04Z</time><extensions><speed>0.345339</speed><course>236.370255</course><hAcc>2.252285</hAcc><vAcc>0.461004</vAcc></extensions></trkpt>
      <trkpt lon="-3.056552" lat="52.702569"><ele>277.484283</ele><time>2022-01-15T10:48:05Z</time><extensions><speed>0.297071</speed><course>217.807510</course><hAcc>2.241311</hAcc><vAcc>0.472729</vAcc></extensions></trkpt>
      <trkpt lon="-3.056554" lat="52.702567"><ele>277.310944</ele><time>2022-01-15T10:48:06Z</time><extensions><speed>0.284432</speed><course>201.903381</course><hAcc>2.233414</hAcc><vAcc>0.483727</vAcc></extensions></trkpt>
      <trkpt lon="-3.056556" lat="52.702565"><ele>277.159454</ele><time>2022-01-15T10:48:07Z</time><extensions><speed>0.273813</speed><course>190.510086</course><hAcc>2.229748</hAcc><vAcc>0.493717</vAcc></extensions></trkpt>
      <trkpt lon="-3.056556" lat="52.702562"><ele>277.030670</ele><time>2022-01-15T10:48:08Z</time><extensions><speed>0.256339</speed><course>182.562790</course><hAcc>2.225471</hAcc><vAcc>0.502282</vAcc></extensions></trkpt>
      <trkpt lon="-3.056556" lat="52.702560"><ele>276.923920</ele><time>2022-01-15T10:48:09Z</time><extensions><speed>0.240910</speed><course>176.977692</course><hAcc>2.219160</hAcc><vAcc>0.508802</vAcc></extensions></trkpt>
      <trkpt lon="-3.056556" lat="52.702558"><ele>276.840271</ele><time>2022-01-15T10:48:10Z</time><extensions><speed>0.222803</speed><course>173.378296</course><hAcc>2.218372</hAcc><vAcc>0.512625</vAcc></extensions></trkpt>
      <trkpt lon="-3.056556" lat="52.702556"><ele>276.784607</ele><time>2022-01-15T10:48:11Z</time><extensions><speed>0.213143</speed><course>172.443268</course><hAcc>2.220634</hAcc><vAcc>0.513191</vAcc></extensions></trkpt>
      <trkpt lon="-3.056556" lat="52.702554"><ele>276.746613</ele><time>2022-01-15T10:48:12Z</time><extensions><speed>0.205645</speed><course>176.751587</course><hAcc>2.228698</hAcc><vAcc>0.510254</vAcc></extensions></trkpt>
      <trkpt lon="-3.056556" lat="52.702552"><ele>276.717224</ele><time>2022-01-15T10:48:13Z</time><extensions><speed>0.196160</speed><course>186.901810</course><hAcc>2.244593</hAcc><vAcc>0.503801</vAcc></extensions></trkpt>
      <trkpt lon="-3.056557" lat="52.702550"><ele>276.695984</ele><time>2022-01-15T10:48:14Z</time><extensions><speed>0.192069</speed><course>200.503540</course><hAcc>2.268209</hAcc><vAcc>0.494137</vAcc></extensions></trkpt>
      <trkpt lon="-3.056558" lat="52.702549"><ele>276.691803</ele><time>2022-01-15T10:48:15Z</time><extensions><speed>0.195047</speed><course>212.850403</course><hAcc>2.297232</hAcc><vAcc>0.481549</vAcc></extensions></trkpt>
      <trkpt lon="-3.056560" lat="52.702547"><ele>276.687927</ele><time>2022-01-15T10:48:16Z</time><extensions><speed>0.206764</speed><course>222.790359</course><hAcc>2.326077</hAcc><vAcc>0.466757</vAcc></extensions></trkpt>
      <trkpt lon="-3.056563" lat="52.702546"><ele>276.680389</ele><time>2022-01-15T10:48:17Z</time><extensions><speed>0.224035</speed><course>232.299576</course><hAcc>2.363997</hAcc><vAcc>0.450873</vAcc></extensions></trkpt>
      <trkpt lon="-3.056565" lat="52.702546"><ele>276.676208</ele><time>2022-01-15T10:48:18Z</time><extensions><speed>0.213846</speed><course>244.338058</course><hAcc>2.424074</hAcc><vAcc>0.435451</vAcc></extensions></trkpt>
      <trkpt lon="-3.056568" lat="52.702546"><ele>276.663208</ele><time>2022-01-15T10:48:19Z</time><extensions><speed>0.218428</speed><course>260.748016</course><hAcc>2.484556</hAcc><vAcc>0.422306</vAcc></extensions></trkpt>
      <trkpt lon="-3.056572" lat="52.702547"><ele>276.633026</ele><time>2022-01-15T10:48:20Z</time><extensions><speed>0.214425</speed><course>281.544952</course><hAcc>2.559216</hAcc><vAcc>0.412616</vAcc></extensions></trkpt>
      <trkpt lon="-3.056575" lat="52.702548"><ele>276.591187</ele><time>2022-01-15T10:48:21Z</time><extensions><speed>0.240257</speed><course>302.588654</course><hAcc>2.626377</hAcc><vAcc>0.406766</vAcc></extensions></trkpt>
      <trkpt lon="-3.056579" lat="52.702551"><ele>276.535248</ele><time>2022-01-15T10:48:22Z</time><extensions><speed>0.312040</speed><course>319.808563</course><hAcc>2.671930</hAcc><vAcc>0.404607</vAcc></extensions></trkpt>
      <trkpt lon="-3.056582" lat="52.702554"><ele>276.470398</ele><time>2022-01-15T10:48:23Z</time><extensions><speed>0.432089</speed><course>330.257111</course><hAcc>2.702005</hAcc><vAcc>0.405592</vAcc></extensions></trkpt>
      <trkpt lon="-3.056586" lat="52.702559"><ele>276.398682</ele><time>2022-01-15T10:48:24Z</time><extensions><speed>0.503094</speed><course>336.441803</course><hAcc>2.744763</hAcc><vAcc>0.408523</vAcc></extensions></trkpt>
      <trkpt lon="-3.056590" lat="52.702565"><ele>276.321503</ele><time>2022-01-15T10:48:25Z</time><extensions><speed>0.585043</speed><course>340.872009</course><hAcc>2.771819</hAcc><vAcc>0.412167</vAcc></extensions></trkpt>
      <trkpt lon="-3.056593" lat="52.702571"><ele>276.235718</ele><time>2022-01-15T10:48:26Z</time><extensions><speed>0.671818</speed><course>343.655273</course><hAcc>2.777686</hAcc><vAcc>0.415532</vAcc></extensions></trkpt>
      <trkpt lon="-3.056596" lat="52.702579"><ele>276.134033</ele><time>2022-01-15T10:48:27Z</time><extensions><speed>0.760556</speed><course>345.156860</course><hAcc>2.765933</hAcc><vAcc>0.418016</vAcc></extensions></trkpt>
      <trkpt lon="-3.056599" lat="52.702586"><ele>276.024963</ele><time>2022-01-15T10:48:28Z</time><extensions><speed>0.825162</speed><course>345.477386</course><hAcc>2.742907</hAcc><vAcc>0.419432</vAcc></extensions></trkpt>
      <trkpt lon="-3.056603" lat="52.702595"><ele>275.906525</ele><time>2022-01-15T10:48:29Z</time><extensions><speed>0.873006</speed><course>344.871918</course><hAcc>2.708387</hAcc><vAcc>0.419836</vAcc></extensions></trkpt>
      <trkpt lon="-3.056607" lat="52.702603"><ele>275.780029</ele><time>2022-01-15T10:48:30Z</time><extensions><speed>0.913034</speed><course>343.749481</course><hAcc>2.665577</hAcc><vAcc>0.419334</vAcc></extensions></trkpt>
      <trkpt lon="-3.056611" lat="52.702612"><ele>275.641968</ele><time>2022-01-15T10:48:31Z</time><extensions><speed>0.901817</speed><course>342.707489</course><hAcc>2.629282</hAcc><vAcc>0.418407</vAcc></extensions></trkpt>
      <trkpt lon="-3.056616" lat="52.702620"><ele>275.495392</ele><time>2022-01-15T10:48:32Z</time><extensions><speed>0.808569</speed><course>342.138977</course><hAcc>2.600251</hAcc><vAcc>0.417729</vAcc></extensions></trkpt>
      <trkpt lon="-3.056620" lat="52.702627"><ele>275.337097</ele><time>2022-01-15T10:48:33Z</time><extensions><speed>0.873596</speed><course>342.242249</course><hAcc>2.543779</hAcc><vAcc>0.417945</vAcc></extensions></trkpt>
      <trkpt lon="-3.056624" lat="52.702635"><ele>275.167999</ele><time>2022-01-15T10:48:34Z</time><extensions><speed>0.884022</speed><course>342.910461</course><hAcc>2.488629</hAcc><vAcc>0.419604</vAcc></extensions></trkpt>
      <trkpt lon="-3.056628" lat="52.702643"><ele>274.989746</ele><time>2022-01-15T10:48:35Z</time><extensions><speed>0.845382</speed><course>343.219208</course><hAcc>2.445300</hAcc><vAcc>0.423028</vAcc></extensions></trkpt>
      <trkpt lon="-3.056632" lat="52.702650"><ele>274.808441</ele><time>2022-01-15T10:48:36Z</time><extensions><speed>0.829450</speed><course>342.319794</course><hAcc>2.402410</hAcc><vAcc>0.428349</vAcc></extensions></trkpt>
      <trkpt lon="-3.056636" lat="52.702657"><ele>274.623993</ele><time>2022-01-15T10:48:37Z</time><extensions><speed>0.772573</speed><course>340.522369</course><hAcc>2.364841</hAcc><vAcc>0.435490</vAcc></extensions></trkpt>
      <trkpt lon="-3.056641" lat="52.702663"><ele>274.437988</ele><time>2022-01-15T10:48:38Z</time><extensions><speed>0.718436</speed><course>337.687866</course><hAcc>2.328644</hAcc><vAcc>0.444124</vAcc></extensions></trkpt>
      <trkpt lon="-3.056645" lat="52.702669"><ele>274.252319</ele><time>2022-01-15T10:48:39Z</time><extensions><speed>0.648890</speed><course>334.003326</course><hAcc>2.296562</hAcc><vAcc>0.453635</vAcc></extensions></trkpt>
      <trkpt lon="-3.056650" lat="52.702674"><ele>274.069672</ele><time>2022-01-15T10:48:40Z</time><extensions><speed>0.566042</speed><course>329.731964</course><hAcc>2.271017</hAcc><vAcc>0.463300</vAcc></extensions></trkpt>
      <trkpt lon="-3.056654" lat="52.702678"><ele>273.889832</ele><time>2022-01-15T10:48:41Z</time><extensions><speed>0.494385</speed><course>324.572937</course><hAcc>2.246738</hAcc><vAcc>0.472601</vAcc></extensions></trkpt>
      <trkpt lon="-3.056659" lat="52.702681"><ele>273.711639</ele><time>2022-01-15T10:48:42Z</time><extensions><speed>0.440159</speed><course>318.203888</course><hAcc>2.224667</hAcc><vAcc>0.481264</vAcc></extensions></trkpt>
      <trkpt lon="-3.056663" lat="52.702684"><ele>273.535065</ele><time>2022-01-15T10:48:43Z</time><extensions><speed>0.372518</speed><course>310.937927</course><hAcc>2.211727</hAcc><vAcc>0.489146</vAcc></extensions></trkpt>
      <trkpt lon="-3.056668" lat="52.702685"><ele>273.360596</ele><time>2022-01-15T10:48:44Z</time><extensions><speed>0.355120</speed><course>302.162170</course><hAcc>2.190506</hAcc><vAcc>0.496236</vAcc></extensions></trkpt>
      <trkpt lon="-3.056673" lat="52.702687"><ele>273.186279</ele><time>2022-01-15T10:48:45Z</time><extensions><speed>0.342611</speed><course>292.753357</course><hAcc>2.175694</hAcc><vAcc>0.502611</vAcc></extensions></trkpt>
      <trkpt lon="-3.056677" lat="52.702687"><ele>273.012878</ele><time>2022-01-15T10:48:46Z</time><extensions><speed>0.316543</speed><course>283.548431</course><hAcc>2.171111</hAcc><vAcc>0.508387</vAcc></extensions></trkpt>
      <trkpt lon="-3.056682" lat="52.702688"><ele>272.841766</ele><time>2022-01-15T10:48:47Z</time><extensions><speed>0.310333</speed><course>274.565277</course><hAcc>2.163559</hAcc><vAcc>0.513687</vAcc></extensions></trkpt>
      <trkpt lon="-3.056686" lat="52.702687"><ele>272.673676</ele><time>2022-01-15T10:48:48Z</time><extensions><speed>0.297958</speed><course>266.306610</course><hAcc>2.163196</hAcc><vAcc>0.518580</vAcc></extensions></trkpt>
      <trkpt lon="-3.056691" lat="52.702687"><ele>272.510284</ele><time>2022-01-15T10:48:49Z</time><extensions><speed>0.258108</speed><course>257.426117</course><hAcc>2.172721</hAcc><vAcc>0.523113</vAcc></extensions></trkpt>
      <trkpt lon="-3.056694" lat="52.702686"><ele>272.351898</ele><time>2022-01-15T10:48:50Z</time><extensions><speed>0.248783</speed><course>246.719467</course><hAcc>2.169567</hAcc><vAcc>0.527259</vAcc></extensions></trkpt>
      <trkpt lon="-3.056698" lat="52.702685"><ele>272.199432</ele><time>2022-01-15T10:48:51Z</time><extensions><speed>0.242774</speed><course>234.946640</course><hAcc>2.168616</hAcc><vAcc>0.530927</vAcc></extensions></trkpt>
      <trkpt lon="-3.056700" lat="52.702684"><ele>272.053131</ele><time>2022-01-15T10:48:52Z</time><extensions><speed>0.248058</speed><course>222.582794</course><hAcc>2.172035</hAcc><vAcc>0.534025</vAcc></extensions></trkpt>
      <trkpt lon="-3.056703" lat="52.702682"><ele>271.913696</ele><time>2022-01-15T10:48:53Z</time><extensions><speed>0.276376</speed><course>212.731812</course><hAcc>2.176860</hAcc><vAcc>0.536648</vAcc></extensions></trkpt>
      <trkpt lon="-3.056705" lat="52.702680"><ele>271.780396</ele><time>2022-01-15T10:48:54Z</time><extensions><speed>0.291615</speed><course>207.362762</course><hAcc>2.189526</hAcc><vAcc>0.539107</vAcc></extensions></trkpt>
      <trkpt lon="-3.056707" lat="52.702677"><ele>271.652313</ele><time>2022-01-15T10:48:55Z</time><extensions><speed>0.288424</speed><course>206.374680</course><hAcc>2.199211</hAcc><vAcc>0.541795</vAcc></extensions></trkpt>
      <trkpt lon="-3.056709" lat="52.702675"><ele>271.531250</ele><time>2022-01-15T10:48:56Z</time><extensions><speed>0.258888</speed><course>210.956985</course><hAcc>2.203683</hAcc><vAcc>0.544954</vAcc></extensions></trkpt>
      <trkpt lon="-3.056712" lat="52.702673"><ele>271.414673</ele><time>2022-01-15T10:48:57Z</time><extensions><speed>0.230767</speed><course>223.035873</course><hAcc>2.200713</hAcc><vAcc>0.548504</vAcc></extensions></trkpt>
      <trkpt lon="-3.056715" lat="52.702672"><ele>271.301422</ele><time>2022-01-15T10:48:58Z</time><extensions><speed>0.220375</speed><course>238.936829</course><hAcc>2.193078</hAcc><vAcc>0.552098</vAcc></extensions></trkpt>
      <trkpt lon="-3.056718" lat="52.702671"><ele>271.188599</ele><time>2022-01-15T10:48:59Z</time><extensions><speed>0.236013</speed><course>250.563141</course><hAcc>2.182353</hAcc><vAcc>0.555234</vAcc></extensions></trkpt>
      <trkpt lon="-3.056722" lat="52.702670"><ele>271.075653</ele><time>2022-01-15T10:49:00Z</time><extensions><speed>0.248669</speed><course>254.131683</course><hAcc>2.177835</hAcc><vAcc>0.557429</vAcc></extensions></trkpt>
      <trkpt lon="-3.056726" lat="52.702669"><ele>270.960876</ele><time>2022-01-15T10:49:01Z</time><extensions><speed>0.271123</speed><course>251.060043</course><hAcc>2.172773</hAcc><vAcc>0.558287</vAcc></extensions></trkpt>
      <trkpt lon="-3.056730" lat="52.702668"><ele>270.843323</ele><time>2022-01-15T10:49:02Z</time><extensions><speed>0.295148</speed><course>244.805695</course><hAcc>2.175415</hAcc><vAcc>0.557517</vAcc></extensions></trkpt>
      <trkpt lon="-3.056734" lat="52.702666"><ele>270.724518</ele><time>2022-01-15T10:49:03Z</time><extensions><speed>0.317656</speed><course>238.706635</course><hAcc>2.184479</hAcc><vAcc>0.554988</vAcc></extensions></trkpt>
      <trkpt lon="-3.056739" lat="52.702664"><ele>270.601990</ele><time>2022-01-15T10:49:04Z</time><extensions><speed>0.362155</speed><course>234.662766</course><hAcc>2.187123</hAcc><vAcc>0.550876</vAcc></extensions></trkpt>
      <trkpt lon="-3.056743" lat="52.702662"><ele>270.476898</ele><time>2022-01-15T10:49:05Z</time><extensions><speed>0.401667</speed><course>232.156906</course><hAcc>2.193388</hAcc><vAcc>0.545697</vAcc></extensions></trkpt>
      <trkpt lon="-3.056749" lat="52.702659"><ele>270.351105</ele><time>2022-01-15T10:49:06Z</time><extensions><speed>0.450602</speed><course>230.271103</course><hAcc>2.202899</hAcc><vAcc>0.540216</vAcc></extensions></trkpt>
      <trkpt lon="-3.056754" lat="52.702657"><ele>270.227539</ele><time>2022-01-15T10:49:07Z</time><extensions><speed>0.478056</speed><course>227.654526</course><hAcc>2.218755</hAcc><vAcc>0.535244</vAcc></extensions></trkpt>
      <trkpt lon="-3.056759" lat="52.702653"><ele>270.105438</ele><time>2022-01-15T10:49:08Z</time><extensions><speed>0.477533</speed><course>224.005737</course><hAcc>2.236873</hAcc><vAcc>0.531358</vAcc></extensions></trkpt>
      <trkpt lon="-3.056764" lat="52.702650"><ele>269.986481</ele><time>2022-01-15T10:49:09Z</time><extensions><speed>0.472432</speed><course>219.063583</course><hAcc>2.248784</hAcc><vAcc>0.528651</vAcc></extensions></trkpt>
      <trkpt lon="-3.056768" lat="52.702646"><ele>269.871155</ele><time>2022-01-15T10:49:10Z</time><extensions><speed>0.494183</speed><course>213.937500</course><hAcc>2.252088</hAcc><vAcc>0.526842</vAcc></extensions></trkpt>
      <trkpt lon="-3.056773" lat="52.702642"><ele>269.758392</ele><time>2022-01-15T10:49:11Z</time><extensions><speed>0.510009</speed><course>210.607498</course><hAcc>2.260272</hAcc><vAcc>0.525429</vAcc></extensions></trkpt>
      <trkpt lon="-3.056777" lat="52.702638"><ele>269.654419</ele><time>2022-01-15T10:49:12Z</time><extensions><speed>0.501324</speed><course>209.126587</course><hAcc>2.279165</hAcc><vAcc>0.523832</vAcc></extensions></trkpt>
      <trkpt lon="-3.056780" lat="52.702634"><ele>269.560089</ele><time>2022-01-15T10:49:13Z</time><extensions><speed>0.438414</speed><course>209.024750</course><hAcc>2.304475</hAcc><vAcc>0.521465</vAcc></extensions></trkpt>
      <trkpt lon="-3.056784" lat="52.702631"><ele>269.470490</ele><time>2022-01-15T10:49:14Z</time><extensions><speed>0.425251</speed><course>209.710724</course><hAcc>2.312479</hAcc><vAcc>0.517875</vAcc></extensions></trkpt>
      <trkpt lon="-3.056787" lat="52.702627"><ele>269.390656</ele><time>2022-01-15T10:49:15Z</time><extensions><speed>0.425249</speed><course>210.140076</course><hAcc>2.317322</hAcc><vAcc>0.512968</vAcc></extensions></trkpt>
      <trkpt lon="-3.056790" lat="52.702623"><ele>269.323486</ele><time>2022-01-15T10:49:16Z</time><extensions><speed>0.431404</speed><course>209.971664</course><hAcc>2.327364</hAcc><vAcc>0.507052</vAcc></extensions></trkpt>
      <trkpt lon="-3.056793" lat="52.702620"><ele>269.265411</ele><time>2022-01-15T10:49:17Z</time><extensions><speed>0.439571</speed><course>210.041748</course><hAcc>2.345229</hAcc><vAcc>0.500828</vAcc></extensions></trkpt>
      <trkpt lon="-3.056797" lat="52.702616"><ele>269.216034</ele><time>2022-01-15T10:49:18Z</time><extensions><speed>0.445949</speed><course>210.812927</course><hAcc>2.367882</hAcc><vAcc>0.494994</vAcc></extensions></trkpt>
      <trkpt lon="-3.056801" lat="52.702613"><ele>269.177765</ele><time>2022-01-15T10:49:19Z</time><extensions><speed>0.447037</speed><course>211.474670</course><hAcc>2.387728</hAcc><vAcc>0.489976</vAcc></extensions></trkpt>
      <trkpt lon="-3.056804" lat="52.702610"><ele>269.146301</ele><time>2022-01-15T10:49:20Z</time><extensions><speed>0.437275</speed><course>211.776779</course><hAcc>2.397887</hAcc><vAcc>0.485890</vAcc></extensions></trkpt>
      <trkpt lon="-3.056808" lat="52.702606"><ele>269.126160</ele><time>2022-01-15T10:49:21Z</time><extensions><speed>0.427662</speed><course>211.165970</course><hAcc>2.397326</hAcc><vAcc>0.482568</vAcc></extensions></trkpt>
      <trkpt lon="-3.056812" lat="52.702603"><ele>269.110443</ele><time>2022-01-15T10:49:22Z</time><extensions><speed>0.403517</speed><course>209.935776</course><hAcc>2.394803</hAcc><vAcc>0.479572</vAcc></extensions></trkpt>
      <trkpt lon="-3.056815" lat="52.702600"><ele>269.092682</ele><time>2022-01-15T10:49:23Z</time><extensions><speed>0.370157</speed><course>210.672089</course><hAcc>2.392380</hAcc><vAcc>0.476468</vAcc></extensions></trkpt>
      <trkpt lon="-3.056819" lat="52.702597"><ele>269.075195</ele><time>2022-01-15T10:49:24Z</time><extensions><speed>0.333732</speed><course>215.410461</course><hAcc>2.388364</hAcc><vAcc>0.472948</vAcc></extensions></trkpt>
      <trkpt lon="-3.056822" lat="52.702595"><ele>269.055389</ele><time>2022-01-15T10:49:25Z</time><extensions><speed>0.296067</speed><course>226.525467</course><hAcc>2.386992</hAcc><vAcc>0.468882</vAcc></extensions></trkpt>
      <trkpt lon="-3.056826" lat="52.702593"><ele>269.028778</ele><time>2022-01-15T10:49:26Z</time><extensions><speed>0.289847</speed><course>241.425430</course><hAcc>2.391278</hAcc><vAcc>0.464437</vAcc></extensions></trkpt>
      <trkpt lon="-3.056830" lat="52.702592"><ele>269.002777</ele><time>2022-01-15T10:49:27Z</time><extensions><speed>0.301189</speed><course>252.245941</course><hAcc>2.404194</hAcc><vAcc>0.460241</vAcc></extensions></trkpt>
      <trkpt lon="-3.056835" lat="52.702591"><ele>268.964844</ele><time>2022-01-15T10:49:28Z</time><extensions><speed>0.317806</speed><course>257.047211</course><hAcc>2.413469</hAcc><vAcc>0.457146</vAcc></extensions></trkpt>
      <trkpt lon="-3.056841" lat="52.702589"><ele>268.922150</ele><time>2022-01-15T10:49:29Z</time><extensions><speed>0.355890</speed><course>256.170898</course><hAcc>2.407161</hAcc><vAcc>0.455899</vAcc></extensions></trkpt>
      <trkpt lon="-3.056847" lat="52.702588"><ele>268.876282</ele><time>2022-01-15T10:49:30Z</time><extensions><speed>0.374248</speed><course>250.819229</course><hAcc>2.402910</hAcc><vAcc>0.456953</vAcc></extensions></trkpt>
      <trkpt lon="-3.056853" lat="52.702586"><ele>268.829620</ele><time>2022-01-15T10:49:31Z</time><extensions><speed>0.428326</speed><course>243.207870</course><hAcc>2.391404</hAcc><vAcc>0.460457</vAcc></extensions></trkpt>
      <trkpt lon="-3.056860" lat="52.702584"><ele>268.782562</ele><time>2022-01-15T10:49:32Z</time><extensions><speed>0.494282</speed><course>236.396484</course><hAcc>2.379907</hAcc><vAcc>0.466209</vAcc></extensions></trkpt>
      <trkpt lon="-3.056867" lat="52.702581"><ele>268.736389</ele><time>2022-01-15T10:49:33Z</time><extensions><speed>0.562794</speed><course>231.333267</course><hAcc>2.373369</hAcc><vAcc>0.473739</vAcc></extensions></trkpt>
      <trkpt lon="-3.056874" lat="52.702577"><ele>268.691315</ele><time>2022-01-15T10:49:34Z</time><extensions><speed>0.649017</speed><course>227.986389</course><hAcc>2.368605</hAcc><vAcc>0.482503</vAcc></extensions></trkpt>
      <trkpt lon="-3.056883" lat="52.702572"><ele>268.648865</ele><time>2022-01-15T10:49:35Z</time><extensions><speed>0.744916</speed><course>226.107239</course><hAcc>2.362935</hAcc><vAcc>0.491955</vAcc></extensions></trkpt>
      <trkpt lon="-3.056892" lat="52.702567"><ele>268.604767</ele><time>2022-01-15T10:49:36Z</time><extensions><speed>0.863793</speed><course>225.797852</course><hAcc>2.352115</hAcc><vAcc>0.501553</vAcc></extensions></trkpt>
      <trkpt lon="-3.056902" lat="52.702561"><ele>268.563293</ele><time>2022-01-15T10:49:37Z</time><extensions><speed>0.927268</speed><course>226.919632</course><hAcc>2.352788</hAcc><vAcc>0.510698</vAcc></extensions></trkpt>
      <trkpt lon="-3.056912" lat="52.702555"><ele>268.522461</ele><time>2022-01-15T10:49:38Z</time><extensions><speed>0.864945</speed><course>229.028107</course><hAcc>2.367672</hAcc><vAcc>0.518723</vAcc></extensions></trkpt>
      <trkpt lon="-3.056923" lat="52.702550"><ele>268.480438</ele><time>2022-01-15T10:49:39Z</time><extensions><speed>0.941213</speed><course>231.268311</course><hAcc>2.360101</hAcc><vAcc>0.525067</vAcc></extensions></trkpt>
      <trkpt lon="-3.056935" lat="52.702544"><ele>268.437164</ele><time>2022-01-15T10:49:40Z</time><extensions><speed>0.967508</speed><course>232.563309</course><hAcc>2.352703</hAcc><vAcc>0.529419</vAcc></extensions></trkpt>
      <trkpt lon="-3.056947" lat="52.702539"><ele>268.391724</ele><time>2022-01-15T10:49:41Z</time><extensions><speed>1.022897</speed><course>232.593491</course><hAcc>2.346590</hAcc><vAcc>0.531730</vAcc></extensions></trkpt>
      <trkpt lon="-3.056959" lat="52.702533"><ele>268.343506</ele><time>2022-01-15T10:49:42Z</time><extensions><speed>0.996610</speed><course>232.091339</course><hAcc>2.356663</hAcc><vAcc>0.532200</vAcc></extensions></trkpt>
      <trkpt lon="-3.056971" lat="52.702527"><ele>268.296326</ele><time>2022-01-15T10:49:43Z</time><extensions><speed>0.946263</speed><course>231.645462</course><hAcc>2.373445</hAcc><vAcc>0.531192</vAcc></extensions></trkpt>
      <trkpt lon="-3.056981" lat="52.702522"><ele>268.248688</ele><time>2022-01-15T10:49:44Z</time><extensions><speed>0.914862</speed><course>231.016815</course><hAcc>2.385053</hAcc><vAcc>0.529075</vAcc></extensions></trkpt>
      <trkpt lon="-3.056992" lat="52.702516"><ele>268.207886</ele><time>2022-01-15T10:49:45Z</time><extensions><speed>0.886292</speed><course>229.453659</course><hAcc>2.389791</hAcc><vAcc>0.526182</vAcc></extensions></trkpt>
      <trkpt lon="-3.057002" lat="52.702510"><ele>268.168213</ele><time>2022-01-15T10:49:46Z</time><extensions><speed>0.882244</speed><course>226.401535</course><hAcc>2.381921</hAcc><vAcc>0.522720</vAcc></extensions></trkpt>
      <trkpt lon="-3.057011" lat="52.702504"><ele>268.133240</ele><time>2022-01-15T10:49:47Z</time><extensions><speed>0.944003</speed><course>222.042358</course><hAcc>2.361774</hAcc><vAcc>0.518727</vAcc></extensions></trkpt>
      <trkpt lon="-3.057020" lat="52.702497"><ele>268.094910</ele><time>2022-01-15T10:49:48Z</time><extensions><speed>0.922036</speed><course>217.324326</course><hAcc>2.359270</hAcc><vAcc>0.514138</vAcc></extensions></trkpt>
      <trkpt lon="-3.057029" lat="52.702490"><ele>268.057129</ele><time>2022-01-15T10:49:49Z</time><extensions><speed>0.901371</speed><course>213.255768</course><hAcc>2.365113</hAcc><vAcc>0.508843</vAcc></extensions></trkpt>
      <trkpt lon="-3.057036" lat="52.702483"><ele>268.036926</ele><time>2022-01-15T10:49:50Z</time><extensions><speed>0.901923</speed><course>210.158508</course><hAcc>2.370747</hAcc><vAcc>0.502814</vAcc></extensions></trkpt>
      <trkpt lon="-3.057043" lat="52.702476"><ele>268.013153</ele><time>2022-01-15T10:49:51Z</time><extensions><speed>0.888680</speed><course>208.122177</course><hAcc>2.378165</hAcc><vAcc>0.496143</vAcc></extensions></trkpt>
      <trkpt lon="-3.057049" lat="52.702468"><ele>267.987976</ele><time>2022-01-15T10:49:52Z</time><extensions><speed>0.913052</speed><course>206.674255</course><hAcc>2.380766</hAcc><vAcc>0.489182</vAcc></extensions></trkpt>
      <trkpt lon="-3.057056" lat="52.702461"><ele>267.948273</ele><time>2022-01-15T10:49:53Z</time><extensions><speed>0.919376</speed><course>205.821899</course><hAcc>2.384854</hAcc><vAcc>0.482449</vAcc></extensions></trkpt>
      <trkpt lon="-3.057062" lat="52.702453"><ele>267.906250</ele><time>2022-01-15T10:49:54Z</time><extensions><speed>0.944884</speed><course>206.030930</course><hAcc>2.389098</hAcc><vAcc>0.476450</vAcc></extensions></trkpt>
      <trkpt lon="-3.057069" lat="52.702445"><ele>267.859772</ele><time>2022-01-15T10:49:55Z</time><extensions><speed>0.897615</speed><course>207.838531</course><hAcc>2.406476</hAcc><vAcc>0.471369</vAcc></extensions></trkpt>
      <trkpt lon="-3.057075" lat="52.702438"><ele>267.814636</ele><time>2022-01-15T10:49:56Z</time><extensions><speed>0.856258</speed><course>211.169205</course><hAcc>2.423472</hAcc><vAcc>0.467204</vAcc></extensions></trkpt>
      <trkpt lon="-3.057083" lat="52.702432"><ele>267.773346</ele><time>2022-01-15T10:49:57Z</time><extensions><speed>0.878485</speed><course>215.049561</course><hAcc>2.429351</hAcc><vAcc>0.463875</vAcc></extensions></trkpt>
      <trkpt lon="-3.057091" lat="52.702425"><ele>267.723785</ele><time>2022-01-15T10:49:58Z</time><extensions><speed>0.943666</speed><course>218.713699</course><hAcc>2.427400</hAcc><vAcc>0.461527</vAcc></extensions></trkpt>
      <trkpt lon="-3.057101" lat="52.702418"><ele>267.683807</ele><time>2022-01-15T10:49:59Z</time><extensions><speed>1.076029</speed><course>221.323151</course><hAcc>2.420834</hAcc><vAcc>0.460483</vAcc></extensions></trkpt>
      <trkpt lon="-3.057112" lat="52.702411"><ele>267.642181</ele><time>2022-01-15T10:50:00Z</time><extensions><speed>1.130713</speed><course>223.124588</course><hAcc>2.426353</hAcc><vAcc>0.460984</vAcc></extensions></trkpt>
      <trkpt lon="-3.057124" lat="52.702403"><ele>267.602295</ele><time>2022-01-15T10:50:01Z</time><extensions><speed>1.296917</speed><course>224.573410</course><hAcc>2.420359</hAcc><vAcc>0.462997</vAcc></extensions></trkpt>
      <trkpt lon="-3.057139" lat="52.702394"><ele>267.562714</ele><time>2022-01-15T10:50:02Z</time><extensions><speed>1.391618</speed><course>225.932404</course><hAcc>2.407226</hAcc><vAcc>0.466276</vAcc></extensions></trkpt>
      <trkpt lon="-3.057154" lat="52.702385"><ele>267.523285</ele><time>2022-01-15T10:50:03Z</time><extensions><speed>1.406617</speed><course>227.737762</course><hAcc>2.392260</hAcc><vAcc>0.470536</vAcc></extensions></trkpt>
      <trkpt lon="-3.057170" lat="52.702377"><ele>267.483978</ele><time>2022-01-15T10:50:04Z</time><extensions><speed>1.325188</speed><course>228.733582</course><hAcc>2.379741</hAcc><vAcc>0.475474</vAcc></extensions></trkpt>
      <trkpt lon="-3.057184" lat="52.702370"><ele>267.434479</ele><time>2022-01-15T10:50:05Z</time><extensions><speed>1.198183</speed><course>229.684341</course><hAcc>2.370406</hAcc><vAcc>0.480798</vAcc></extensions></trkpt>
      <trkpt lon="-3.057197" lat="52.702363"><ele>267.371368</ele><time>2022-01-15T10:50:06Z</time><extensions><speed>0.984803</speed><course>231.087708</course><hAcc>2.363849</hAcc><vAcc>0.486310</vAcc></extensions></trkpt>
      <trkpt lon="-3.057208" lat="52.702358"><ele>267.293365</ele><time>2022-01-15T10:50:07Z</time><extensions><speed>0.944614</speed><course>232.920227</course><hAcc>2.341372</hAcc><vAcc>0.491905</vAcc></extensions></trkpt>
      <trkpt lon="-3.057220" lat="52.702353"><ele>267.205505</ele><time>2022-01-15T10:50:08Z</time><extensions><speed>0.979321</speed><course>234.671936</course><hAcc>2.321357</hAcc><vAcc>0.497578</vAcc></extensions></trkpt>
      <trkpt lon="-3.057231" lat="52.702348"><ele>267.109528</ele><time>2022-01-15T10:50:09Z</time><extensions><speed>0.831344</speed><course>235.120789</course><hAcc>2.327168</hAcc><vAcc>0.503366</vAcc></extensions></trkpt>
      <trkpt lon="-3.057241" lat="52.702344"><ele>267.006836</ele><time>2022-01-15T10:50:10Z</time><extensions><speed>0.787055</speed><course>236.044312</course><hAcc>2.330551</hAcc><vAcc>0.509271</vAcc></extensions></trkpt>
      <trkpt lon="-3.057251" lat="52.702340"><ele>266.903625</ele><time>2022-01-15T10:50:11Z</time><extensions><speed>0.789085</speed><course>237.685501</course><hAcc>2.327142</hAcc><vAcc>0.515233</vAcc></extensions></trkpt>
      <trkpt lon="-3.057262" lat="52.702336"><ele>266.796570</ele><time>2022-01-15T10:50:12Z</time><extensions><speed>0.856489</speed><course>239.650024</course><hAcc>2.311305</hAcc><vAcc>0.521132</vAcc></extensions></trkpt>
      <trkpt lon="-3.057274" lat="52.702332"><ele>266.694946</ele><time>2022-01-15T10:50:13Z</time><extensions><speed>1.004111</speed><course>241.199615</course><hAcc>2.290882</hAcc><vAcc>0.526833</vAcc></extensions></trkpt>
      <trkpt lon="-3.057286" lat="52.702327"><ele>266.604004</ele><time>2022-01-15T10:50:14Z</time><extensions><speed>0.923428</speed><course>239.867859</course><hAcc>2.306364</hAcc><vAcc>0.532210</vAcc></extensions></trkpt>
      <trkpt lon="-3.057298" lat="52.702323"><ele>266.522614</ele><time>2022-01-15T10:50:15Z</time><extensions><speed>0.892425</speed><course>238.310928</course><hAcc>2.326736</hAcc><vAcc>0.537094</vAcc></extensions></trkpt>
      <trkpt lon="-3.057309" lat="52.702319"><ele>266.453979</ele><time>2022-01-15T10:50:16Z</time><extensions><speed>0.908745</speed><course>236.613037</course><hAcc>2.337361</hAcc><vAcc>0.541259</vAcc></extensions></trkpt>
      <trkpt lon="-3.057321" lat="52.702314"><ele>266.399536</ele><time>2022-01-15T10:50:17Z</time><extensions><speed>0.977543</speed><course>234.121140</course><hAcc>2.334213</hAcc><vAcc>0.544484</vAcc></extensions></trkpt>
      <trkpt lon="-3.057333" lat="52.702308"><ele>266.359161</ele><time>2022-01-15T10:50:18Z</time><extensions><speed>1.101083</speed><course>230.807098</course><hAcc>2.320779</hAcc><vAcc>0.546627</vAcc></extensions></trkpt>
      <trkpt lon="-3.057345" lat="52.702301"><ele>266.332794</ele><time>2022-01-15T10:50:18Z</time><extensions><speed>1.107801</speed><course>226.359161</course><hAcc>2.308903</hAcc><vAcc>0.547579</vAcc></extensions></trkpt>
      <trkpt lon="-3.057356" lat="52.702294"><ele>266.321320</ele><time>2022-01-15T10:50:19Z</time><extensions><speed>1.014868</speed><course>220.268845</course><hAcc>2.305832</hAcc><vAcc>0.547257</vAcc></extensions></trkpt>
      <trkpt lon="-3.057364" lat="52.702287"><ele>266.325226</ele><time>2022-01-15T10:50:21Z</time><extensions><speed>0.870014</speed><course>213.424088</course><hAcc>2.311363</hAcc><vAcc>0.545634</vAcc></extensions></trkpt>
      <trkpt lon="-3.057369" lat="52.702280"><ele>266.345581</ele><time>2022-01-15T10:50:22Z</time><extensions><speed>0.688381</speed><course>202.621735</course><hAcc>2.315615</hAcc><vAcc>0.542838</vAcc></extensions></trkpt>
      <trkpt lon="-3.057373" lat="52.702274"><ele>266.386932</ele><time>2022-01-15T10:50:23Z</time><extensions><speed>0.832400</speed><course>195.118317</course><hAcc>2.276638</hAcc><vAcc>0.539136</vAcc></extensions></trkpt>
      <trkpt lon="-3.057376" lat="52.702266"><ele>266.442474</ele><time>2022-01-15T10:50:24Z</time><extensions><speed>0.952438</speed><course>192.176971</course><hAcc>2.249033</hAcc><vAcc>0.534853</vAcc></extensions></trkpt>
      <trkpt lon="-3.057379" lat="52.702257"><ele>266.510773</ele><time>2022-01-15T10:50:25Z</time><extensions><speed>0.914436</speed><course>190.948349</course><hAcc>2.260858</hAcc><vAcc>0.530240</vAcc></extensions></trkpt>
      <trkpt lon="-3.057382" lat="52.702248"><ele>266.597839</ele><time>2022-01-15T10:50:26Z</time><extensions><speed>1.085528</speed><course>194.392746</course><hAcc>2.299793</hAcc><vAcc>0.525372</vAcc></extensions></trkpt>
      <trkpt lon="-3.057387" lat="52.702239"><ele>266.715363</ele><time>2022-01-15T10:50:27Z</time><extensions><speed>1.066045</speed><course>201.252655</course><hAcc>2.370417</hAcc><vAcc>0.520102</vAcc></extensions></trkpt>
      <trkpt lon="-3.057392" lat="52.702229"><ele>266.836853</ele><time>2022-01-15T10:50:28Z</time><extensions><speed>1.261528</speed><course>194.378555</course><hAcc>2.342073</hAcc><vAcc>0.514303</vAcc></extensions></trkpt>
      <trkpt lon="-3.057397" lat="52.702217"><ele>266.969818</ele><time>2022-01-15T10:50:29Z</time><extensions><speed>1.420258</speed><course>191.347290</course><hAcc>2.319337</hAcc><vAcc>0.508009</vAcc></extensions></trkpt>
      <trkpt lon="-3.057401" lat="52.702204"><ele>267.114624</ele><time>2022-01-15T10:50:30Z</time><extensions><speed>1.534802</speed><course>190.059097</course><hAcc>2.327513</hAcc><vAcc>0.501528</vAcc></extensions></trkpt>
      <trkpt lon="-3.057406" lat="52.702190"><ele>267.272858</ele><time>2022-01-15T10:50:31Z</time><extensions><speed>1.602433</speed><course>190.654617</course><hAcc>2.350148</hAcc><vAcc>0.495447</vAcc></extensions></trkpt>
      <trkpt lon="-3.057411" lat="52.702175"><ele>267.430573</ele><time>2022-01-15T10:50:32Z</time><extensions><speed>1.673189</speed><course>193.267502</course><hAcc>2.356309</hAcc><vAcc>0.490618</vAcc></extensions></trkpt>
      <trkpt lon="-3.057418" lat="52.702160"><ele>267.588074</ele><time>2022-01-15T10:50:32Z</time><extensions><speed>1.699446</speed><course>196.795425</course><hAcc>2.335395</hAcc><vAcc>0.487952</vAcc></extensions></trkpt>
      <trkpt lon="-3.057426" lat="52.702146"><ele>267.743134</ele><time>2022-01-15T10:50:33Z</time><extensions><speed>1.673200</speed><course>200.558319</course><hAcc>2.297538</hAcc><vAcc>0.488127</vAcc></extensions></trkpt>
      <trkpt lon="-3.057435" lat="52.702132"><ele>267.894379</ele><time>2022-01-15T10:50:35Z</time><extensions><speed>1.588032</speed><course>203.975693</course><hAcc>2.275430</hAcc><vAcc>0.491387</vAcc></extensions></trkpt>
      <trkpt lon="-3.057445" lat="52.702119"><ele>268.045837</ele><time>2022-01-15T10:50:36Z</time><extensions><speed>1.403476</speed><course>207.345657</course><hAcc>2.272869</hAcc><vAcc>0.497384</vAcc></extensions></trkpt>
      <trkpt lon="-3.057454" lat="52.702108"><ele>268.193573</ele><time>2022-01-15T10:50:37Z</time><extensions><speed>1.329850</speed><course>210.689819</course><hAcc>2.223208</hAcc><vAcc>0.505322</vAcc></extensions></trkpt>
      <trkpt lon="-3.057465" lat="52.702098"><ele>268.341492</ele><time>2022-01-15T10:50:38Z</time><extensions><speed>1.233135</speed><course>214.958160</course><hAcc>2.178012</hAcc><vAcc>0.514357</vAcc></extensions></trkpt>
      <trkpt lon="-3.057476" lat="52.702089"><ele>268.484436</ele><time>2022-01-15T10:50:39Z</time><extensions><speed>1.205525</speed><course>218.683029</course><hAcc>2.131703</hAcc><vAcc>0.523817</vAcc></extensions></trkpt>
      <trkpt lon="-3.057487" lat="52.702081"><ele>268.620117</ele><time>2022-01-15T10:50:40Z</time><extensions><speed>1.032931</speed><course>221.830338</course><hAcc>2.133419</hAcc><vAcc>0.533216</vAcc></extensions></trkpt>
      <trkpt lon="-3.057497" lat="52.702074"><ele>268.750519</ele><time>2022-01-15T10:50:41Z</time><extensions><speed>1.066035</speed><course>219.001282</course><hAcc>2.068909</hAcc><vAcc>0.542191</vAcc></extensions></trkpt>
      <trkpt lon="-3.057507" lat="52.702066"><ele>268.879761</ele><time>2022-01-15T10:50:42Z</time><extensions><speed>1.060964</speed><course>216.132599</course><hAcc>2.026983</hAcc><vAcc>0.550553</vAcc></extensions></trkpt>
      <trkpt lon="-3.057517" lat="52.702058"><ele>269.004364</ele><time>2022-01-15T10:50:43Z</time><extensions><speed>1.091106</speed><course>212.928223</course><hAcc>2.027162</hAcc><vAcc>0.558228</vAcc></extensions></trkpt>
      <trkpt lon="-3.057525" lat="52.702050"><ele>269.123810</ele><time>2022-01-15T10:50:44Z</time><extensions><speed>1.018420</speed><course>211.541534</course><hAcc>2.062459</hAcc><vAcc>0.565240</vAcc></extensions></trkpt>
      <trkpt lon="-3.057533" lat="52.702042"><ele>269.231995</ele><time>2022-01-15T10:50:45Z</time><extensions><speed>1.107686</speed><course>209.347687</course><hAcc>2.037271</hAcc><vAcc>0.571611</vAcc></extensions></trkpt>
      <trkpt lon="-3.057542" lat="52.702033"><ele>269.328278</ele><time>2022-01-15T10:50:46Z</time><extensions><speed>1.138098</speed><course>210.084305</course><hAcc>2.040771</hAcc><vAcc>0.577287</vAcc></extensions></trkpt>
      <trkpt lon="-3.057550" lat="52.702024"><ele>269.410767</ele><time>2022-01-15T10:50:47Z</time><extensions><speed>1.053807</speed><course>212.998932</course><hAcc>2.084384</hAcc><vAcc>0.582189</vAcc></extensions></trkpt>
      <trkpt lon="-3.057560" lat="52.702016"><ele>269.481110</ele><time>2022-01-15T10:50:48Z</time><extensions><speed>1.120118</speed><course>218.272934</course><hAcc>2.071223</hAcc><vAcc>0.586101</vAcc></extensions></trkpt>
      <trkpt lon="-3.057571" lat="52.702009"><ele>269.532379</ele><time>2022-01-15T10:50:49Z</time><extensions><speed>1.156524</speed><course>223.608673</course><hAcc>2.064936</hAcc><vAcc>0.588836</vAcc></extensions></trkpt>
      <trkpt lon="-3.057583" lat="52.702002"><ele>269.572998</ele><time>2022-01-15T10:50:50Z</time><extensions><speed>1.090813</speed><course>229.579971</course><hAcc>2.090916</hAcc><vAcc>0.590255</vAcc></extensions></trkpt>
      <trkpt lon="-3.057595" lat="52.701996"><ele>269.597412</ele><time>2022-01-15T10:50:51Z</time><extensions><speed>0.885631</speed><course>236.302368</course><hAcc>2.139609</hAcc><vAcc>0.590294</vAcc></extensions></trkpt>
      <trkpt lon="-3.057606" lat="52.701992"><ele>269.605713</ele><time>2022-01-15T10:50:52Z</time><extensions><speed>0.932233</speed><course>240.060440</course><hAcc>2.157795</hAcc><vAcc>0.588928</vAcc></extensions></trkpt>
      <trkpt lon="-3.057619" lat="52.701987"><ele>269.603668</ele><time>2022-01-15T10:50:53Z</time><extensions><speed>1.014702</speed><course>239.888550</course><hAcc>2.165422</hAcc><vAcc>0.586094</vAcc></extensions></trkpt>
      <trkpt lon="-3.057632" lat="52.701982"><ele>269.595001</ele><time>2022-01-15T10:50:54Z</time><extensions><speed>1.154107</speed><course>236.837357</course><hAcc>2.171278</hAcc><vAcc>0.581645</vAcc></extensions></trkpt>
      <trkpt lon="-3.057646" lat="52.701976"><ele>269.582916</ele><time>2022-01-15T10:50:55Z</time><extensions><speed>1.156542</speed><course>233.163925</course><hAcc>2.188325</hAcc><vAcc>0.575673</vAcc></extensions></trkpt>
      <trkpt lon="-3.057660" lat="52.701970"><ele>269.566956</ele><time>2022-01-15T10:50:56Z</time><extensions><speed>1.113898</speed><course>230.720901</course><hAcc>2.205681</hAcc><vAcc>0.568462</vAcc></extensions></trkpt>
      <trkpt lon="-3.057671" lat="52.701964"><ele>269.549866</ele><time>2022-01-15T10:50:57Z</time><extensions><speed>0.999680</speed><course>228.818298</course><hAcc>2.230170</hAcc><vAcc>0.560454</vAcc></extensions></trkpt>
      <trkpt lon="-3.057681" lat="52.701958"><ele>269.528442</ele><time>2022-01-15T10:50:58Z</time><extensions><speed>0.814505</speed><course>226.891113</course><hAcc>2.259420</hAcc><vAcc>0.552175</vAcc></extensions></trkpt>
      <trkpt lon="-3.057689" lat="52.701953"><ele>269.516296</ele><time>2022-01-15T10:50:59Z</time><extensions><speed>0.743249</speed><course>222.949173</course><hAcc>2.275143</hAcc><vAcc>0.544167</vAcc></extensions></trkpt>
      <trkpt lon="-3.057696" lat="52.701948"><ele>269.515900</ele><time>2022-01-15T10:51:00Z</time><extensions><speed>0.739302</speed><course>218.830460</course><hAcc>2.275271</hAcc><vAcc>0.536950</vAcc></extensions></trkpt>
      <trkpt lon="-3.057703" lat="52.701942"><ele>269.526794</ele><time>2022-01-15T10:51:01Z</time><extensions><speed>0.791578</speed><course>215.359634</course><hAcc>2.256174</hAcc><vAcc>0.531035</vAcc></extensions></trkpt>
      <trkpt lon="-3.057710" lat="52.701936"><ele>269.548859</ele><time>2022-01-15T10:51:02Z</time><extensions><speed>0.903400</speed><course>212.774109</course><hAcc>2.219895</hAcc><vAcc>0.526952</vAcc></extensions></trkpt>
      <trkpt lon="-3.057718" lat="52.701928"><ele>269.581573</ele><time>2022-01-15T10:51:03Z</time><extensions><speed>1.094570</speed><course>211.627029</course><hAcc>2.191530</hAcc><vAcc>0.525141</vAcc></extensions></trkpt>
      <trkpt lon="-3.057727" lat="52.701920"><ele>269.626862</ele><time>2022-01-15T10:51:04Z</time><extensions><speed>1.146577</speed><course>210.498474</course><hAcc>2.215805</hAcc><vAcc>0.525609</vAcc></extensions></trkpt>
      <trkpt lon="-3.057735" lat="52.701911"><ele>269.686249</ele><time>2022-01-15T10:51:05Z</time><extensions><speed>1.126034</speed><course>209.060013</course><hAcc>2.242950</hAcc><vAcc>0.527804</vAcc></extensions></trkpt>
      <trkpt lon="-3.057742" lat="52.701901"><ele>269.756378</ele><time>2022-01-15T10:51:06Z</time><extensions><speed>1.150623</speed><course>202.104156</course><hAcc>2.165649</hAcc><vAcc>0.530996</vAcc></extensions></trkpt>
      <trkpt lon="-3.057747" lat="52.701892"><ele>269.834839</ele><time>2022-01-15T10:51:07Z</time><extensions><speed>1.139467</speed><course>199.332382</course><hAcc>2.095190</hAcc><vAcc>0.534593</vAcc></extensions></trkpt>
      <trkpt lon="-3.057752" lat="52.701882"><ele>269.919342</ele><time>2022-01-15T10:51:08Z</time><extensions><speed>1.107223</speed><course>198.816635</course><hAcc>2.052868</hAcc><vAcc>0.538166</vAcc></extensions></trkpt>
      <trkpt lon="-3.057756" lat="52.701873"><ele>270.011749</ele><time>2022-01-15T10:51:09Z</time><extensions><speed>1.051218</speed><course>199.796310</course><hAcc>2.031497</hAcc><vAcc>0.541422</vAcc></extensions></trkpt>
      <trkpt lon="-3.057761" lat="52.701864"><ele>270.113159</ele><time>2022-01-15T10:51:10Z</time><extensions><speed>0.987333</speed><course>202.952652</course><hAcc>2.025281</hAcc><vAcc>0.544181</vAcc></extensions></trkpt>
      <trkpt lon="-3.057766" lat="52.701857"><ele>270.222748</ele><time>2022-01-15T10:51:11Z</time><extensions><speed>0.941385</speed><course>205.087219</course><hAcc>2.024249</hAcc><vAcc>0.546363</vAcc></extensions></trkpt>
      <trkpt lon="-3.057772" lat="52.701849"><ele>270.339203</ele><time>2022-01-15T10:51:12Z</time><extensions><speed>0.909034</speed><course>205.694550</course><hAcc>2.000481</hAcc><vAcc>0.547955</vAcc></extensions></trkpt>
      <trkpt lon="-3.057778" lat="52.701842"><ele>270.461243</ele><time>2022-01-15T10:51:13Z</time><extensions><speed>0.905704</speed><course>201.973129</course><hAcc>1.946328</hAcc><vAcc>0.549031</vAcc></extensions></trkpt>
      <trkpt lon="-3.057783" lat="52.701834"><ele>270.588165</ele><time>2022-01-15T10:51:14Z</time><extensions><speed>0.916095</speed><course>200.485733</course><hAcc>1.942678</hAcc><vAcc>0.549699</vAcc></extensions></trkpt>
      <trkpt lon="-3.057787" lat="52.701827"><ele>270.722565</ele><time>2022-01-15T10:51:15Z</time><extensions><speed>0.932876</speed><course>198.995361</course><hAcc>1.962409</hAcc><vAcc>0.550043</vAcc></extensions></trkpt>
      <trkpt lon="-3.057792" lat="52.701819"><ele>270.855835</ele><time>2022-01-15T10:51:16Z</time><extensions><speed>0.939626</speed><course>199.263245</course><hAcc>2.006697</hAcc><vAcc>0.550088</vAcc></extensions></trkpt>
      <trkpt lon="-3.057795" lat="52.701811"><ele>270.987946</ele><time>2022-01-15T10:51:17Z</time><extensions><speed>0.892574</speed><course>193.975449</course><hAcc>2.019850</hAcc><vAcc>0.549757</vAcc></extensions></trkpt>
      <trkpt lon="-3.057798" lat="52.701804"><ele>271.122772</ele><time>2022-01-15T10:51:18Z</time><extensions><speed>0.818664</speed><course>186.135727</course><hAcc>1.996531</hAcc><vAcc>0.548852</vAcc></extensions></trkpt>
      <trkpt lon="-3.057799" lat="52.701797"><ele>271.261353</ele><time>2022-01-15T10:51:19Z</time><extensions><speed>0.733235</speed><course>182.430725</course><hAcc>1.982949</hAcc><vAcc>0.547005</vAcc></extensions></trkpt>
      <trkpt lon="-3.057799" lat="52.701791"><ele>271.391602</ele><time>2022-01-15T10:51:20Z</time><extensions><speed>0.665536</speed><course>185.798492</course><hAcc>2.019407</hAcc><vAcc>0.543796</vAcc></extensions></trkpt>
      <trkpt lon="-3.057801" lat="52.701785"><ele>271.522583</ele><time>2022-01-15T10:51:21Z</time><extensions><speed>0.603181</speed><course>193.080933</course><hAcc>2.085874</hAcc><vAcc>0.538791</vAcc></extensions></trkpt>
      <trkpt lon="-3.057803" lat="52.701780"><ele>271.657104</ele><time>2022-01-15T10:51:22Z</time><extensions><speed>0.629671</speed><course>202.098785</course><hAcc>2.194925</hAcc><vAcc>0.531753</vAcc></extensions></trkpt>
      <trkpt lon="-3.057808" lat="52.701775"><ele>271.780914</ele><time>2022-01-15T10:51:23Z</time><extensions><speed>0.658224</speed><course>209.294373</course><hAcc>2.257565</hAcc><vAcc>0.522583</vAcc></extensions></trkpt>
      <trkpt lon="-3.057812" lat="52.701770"><ele>271.891571</ele><time>2022-01-15T10:51:24Z</time><extensions><speed>0.584201</speed><course>211.446411</course><hAcc>2.249743</hAcc><vAcc>0.511426</vAcc></extensions></trkpt>
      <trkpt lon="-3.057816" lat="52.701765"><ele>271.989441</ele><time>2022-01-15T10:51:25Z</time><extensions><speed>0.538586</speed><course>210.352295</course><hAcc>2.254101</hAcc><vAcc>0.498959</vAcc></extensions></trkpt>
      <trkpt lon="-3.057820" lat="52.701761"><ele>272.086243</ele><time>2022-01-15T10:51:26Z</time><extensions><speed>0.524223</speed><course>208.229218</course><hAcc>2.273844</hAcc><vAcc>0.486394</vAcc></extensions></trkpt>
      <trkpt lon="-3.057824" lat="52.701757"><ele>272.169464</ele><time>2022-01-15T10:51:27Z</time><extensions><speed>0.552623</speed><course>207.851364</course><hAcc>2.289046</hAcc><vAcc>0.475429</vAcc></extensions></trkpt>
      <trkpt lon="-3.057829" lat="52.701752"><ele>272.247467</ele><time>2022-01-15T10:51:28Z</time><extensions><speed>0.621124</speed><course>208.409042</course><hAcc>2.285553</hAcc><vAcc>0.467849</vAcc></extensions></trkpt>
      <trkpt lon="-3.057834" lat="52.701747"><ele>272.319122</ele><time>2022-01-15T10:51:29Z</time><extensions><speed>0.714672</speed><course>208.764938</course><hAcc>2.284395</hAcc><vAcc>0.464968</vAcc></extensions></trkpt>
      <trkpt lon="-3.057839" lat="52.701741"><ele>272.382355</ele><time>2022-01-15T10:51:30Z</time><extensions><speed>0.819031</speed><course>207.672836</course><hAcc>2.310391</hAcc><vAcc>0.466849</vAcc></extensions></trkpt>
      <trkpt lon="-3.057845" lat="52.701734"><ele>272.441315</ele><time>2022-01-15T10:51:31Z</time><extensions><speed>0.867379</speed><course>207.126022</course><hAcc>2.304132</hAcc><vAcc>0.472356</vAcc></extensions></trkpt>
      <trkpt lon="-3.057851" lat="52.701727"><ele>272.497528</ele><time>2022-01-15T10:51:32Z</time><extensions><speed>0.854595</speed><course>207.157059</course><hAcc>2.234494</hAcc><vAcc>0.480017</vAcc></extensions></trkpt>
      <trkpt lon="-3.057857" lat="52.701720"><ele>272.552734</ele><time>2022-01-15T10:51:33Z</time><extensions><speed>0.839644</speed><course>207.008881</course><hAcc>2.217911</hAcc><vAcc>0.488629</vAcc></extensions></trkpt>
      <trkpt lon="-3.057863" lat="52.701713"><ele>272.610748</ele><time>2022-01-15T10:51:34Z</time><extensions><speed>0.838444</speed><course>208.146469</course><hAcc>2.221442</hAcc><vAcc>0.497284</vAcc></extensions></trkpt>
      <trkpt lon="-3.057869" lat="52.701707"><ele>272.673340</ele><time>2022-01-15T10:51:35Z</time><extensions><speed>0.858585</speed><course>209.212433</course><hAcc>2.186466</hAcc><vAcc>0.505420</vAcc></extensions></trkpt>
      <trkpt lon="-3.057875" lat="52.701700"><ele>272.739990</ele><time>2022-01-15T10:51:36Z</time><extensions><speed>0.883655</speed><course>211.979080</course><hAcc>2.161501</hAcc><vAcc>0.512759</vAcc></extensions></trkpt>
      <trkpt lon="-3.057882" lat="52.701693"><ele>272.808838</ele><time>2022-01-15T10:51:37Z</time><extensions><speed>0.875549</speed><course>213.803391</course><hAcc>2.180568</hAcc><vAcc>0.519192</vAcc></extensions></trkpt>
      <trkpt lon="-3.057890" lat="52.701687"><ele>272.878906</ele><time>2022-01-15T10:51:38Z</time><extensions><speed>0.877454</speed><course>213.415588</course><hAcc>2.179547</hAcc><vAcc>0.524703</vAcc></extensions></trkpt>
      <trkpt lon="-3.057897" lat="52.701680"><ele>272.948822</ele><time>2022-01-15T10:51:39Z</time><extensions><speed>0.914665</speed><course>210.941528</course><hAcc>2.160542</hAcc><vAcc>0.529417</vAcc></extensions></trkpt>
      <trkpt lon="-3.057903" lat="52.701672"><ele>273.018829</ele><time>2022-01-15T10:51:40Z</time><extensions><speed>0.954802</speed><course>208.047592</course><hAcc>2.153123</hAcc><vAcc>0.533608</vAcc></extensions></trkpt>
      <trkpt lon="-3.057910" lat="52.701664"><ele>273.088226</ele><time>2022-01-15T10:51:41Z</time><extensions><speed>0.986102</speed><course>205.642319</course><hAcc>2.166497</hAcc><vAcc>0.537587</vAcc></extensions></trkpt>
      <trkpt lon="-3.057915" lat="52.701656"><ele>273.151733</ele><time>2022-01-15T10:51:42Z</time><extensions><speed>0.971807</speed><course>203.472321</course><hAcc>2.185391</hAcc><vAcc>0.541547</vAcc></extensions></trkpt>
      <trkpt lon="-3.057921" lat="52.701648"><ele>273.214294</ele><time>2022-01-15T10:51:43Z</time><extensions><speed>1.024683</speed><course>201.788849</course><hAcc>2.152815</hAcc><vAcc>0.545503</vAcc></extensions></trkpt>
      <trkpt lon="-3.057927" lat="52.701639"><ele>273.271179</ele><time>2022-01-15T10:51:44Z</time><extensions><speed>1.042529</speed><course>201.732712</course><hAcc>2.122014</hAcc><vAcc>0.549414</vAcc></extensions></trkpt>
      <trkpt lon="-3.057933" lat="52.701630"><ele>273.320160</ele><time>2022-01-15T10:51:45Z</time><extensions><speed>1.048738</speed><course>201.571228</course><hAcc>2.101787</hAcc><vAcc>0.553259</vAcc></extensions></trkpt>
      <trkpt lon="-3.057938" lat="52.701621"><ele>273.352936</ele><time>2022-01-15T10:51:46Z</time><extensions><speed>1.046836</speed><course>200.270172</course><hAcc>2.092439</hAcc><vAcc>0.557027</vAcc></extensions></trkpt>
      <trkpt lon="-3.057944" lat="52.701612"><ele>273.375610</ele><time>2022-01-15T10:51:47Z</time><extensions><speed>1.028764</speed><course>199.060577</course><hAcc>2.091938</hAcc><vAcc>0.560726</vAcc></extensions></trkpt>
      <trkpt lon="-3.057949" lat="52.701602"><ele>273.382263</ele><time>2022-01-15T10:51:48Z</time><extensions><speed>1.077395</speed><course>197.657700</course><hAcc>2.046538</hAcc><vAcc>0.564374</vAcc></extensions></trkpt>
      <trkpt lon="-3.057955" lat="52.701592"><ele>273.377838</ele><time>2022-01-15T10:51:49Z</time><extensions><speed>1.119116</speed><course>197.577957</course><hAcc>2.007265</hAcc><vAcc>0.567952</vAcc></extensions></trkpt>
      <trkpt lon="-3.057960" lat="52.701582"><ele>273.361206</ele><time>2022-01-15T10:51:50Z</time><extensions><speed>1.191873</speed><course>197.430756</course><hAcc>1.955495</hAcc><vAcc>0.571374</vAcc></extensions></trkpt>
      <trkpt lon="-3.057966" lat="52.701572"><ele>273.331329</ele><time>2022-01-15T10:51:51Z</time><extensions><speed>1.187760</speed><course>198.287018</course><hAcc>1.937860</hAcc><vAcc>0.574487</vAcc></extensions></trkpt>
      <trkpt lon="-3.057971" lat="52.701561"><ele>273.286835</ele><time>2022-01-15T10:51:52Z</time><extensions><speed>1.137128</speed><course>199.926270</course><hAcc>1.948270</hAcc><vAcc>0.577131</vAcc></extensions></trkpt>
      <trkpt lon="-3.057978" lat="52.701552"><ele>273.233154</ele><time>2022-01-15T10:51:53Z</time><extensions><speed>1.091735</speed><course>203.489502</course><hAcc>1.970732</hAcc><vAcc>0.579156</vAcc></extensions></trkpt>
      <trkpt lon="-3.057985" lat="52.701543"><ele>273.159973</ele><time>2022-01-15T10:51:54Z</time><extensions><speed>1.132132</speed><course>206.768845</course><hAcc>1.989120</hAcc><vAcc>0.580473</vAcc></extensions></trkpt>
      <trkpt lon="-3.057993" lat="52.701533"><ele>273.073730</ele><time>2022-01-15T10:51:55Z</time><extensions><speed>1.191058</speed><course>208.931763</course><hAcc>1.989272</hAcc><vAcc>0.581092</vAcc></extensions></trkpt>
      <trkpt lon="-3.058003" lat="52.701523"><ele>272.970428</ele><time>2022-01-15T10:51:56Z</time><extensions><speed>1.378732</speed><course>210.531418</course><hAcc>1.948891</hAcc><vAcc>0.581099</vAcc></extensions></trkpt>
      <trkpt lon="-3.058014" lat="52.701512"><ele>272.849457</ele><time>2022-01-15T10:51:57Z</time><extensions><speed>1.467445</speed><course>211.729080</course><hAcc>1.965184</hAcc><vAcc>0.580574</vAcc></extensions></trkpt>
      <trkpt lon="-3.058026" lat="52.701501"><ele>272.713318</ele><time>2022-01-15T10:51:58Z</time><extensions><speed>1.512846</speed><course>211.726868</course><hAcc>2.017602</hAcc><vAcc>0.579593</vAcc></extensions></trkpt>
      <trkpt lon="-3.058038" lat="52.701489"><ele>272.563354</ele><time>2022-01-15T10:51:59Z</time><extensions><speed>1.545714</speed><course>210.633438</course><hAcc>2.050778</hAcc><vAcc>0.578234</vAcc></extensions></trkpt>
      <trkpt lon="-3.058049" lat="52.701477"><ele>272.398651</ele><time>2022-01-15T10:52:00Z</time><extensions><speed>1.527641</speed><course>209.959442</course><hAcc>2.046963</hAcc><vAcc>0.576588</vAcc></extensions></trkpt>
      <trkpt lon="-3.058060" lat="52.701465"><ele>272.219147</ele><time>2022-01-15T10:52:01Z</time><extensions><speed>1.439844</speed><course>209.562790</course><hAcc>2.062989</hAcc><vAcc>0.574764</vAcc></extensions></trkpt>
      <trkpt lon="-3.058070" lat="52.701455"><ele>272.029083</ele><time>2022-01-15T10:52:02Z</time><extensions><speed>1.290687</speed><course>208.717072</course><hAcc>2.113073</hAcc><vAcc>0.572777</vAcc></extensions></trkpt>
      <trkpt lon="-3.058079" lat="52.701445"><ele>271.832977</ele><time>2022-01-15T10:52:03Z</time><extensions><speed>1.172183</speed><course>208.812744</course><hAcc>2.149562</hAcc><vAcc>0.570445</vAcc></extensions></trkpt>
      <trkpt lon="-3.058088" lat="52.701436"><ele>271.634216</ele><time>2022-01-15T10:52:04Z</time><extensions><speed>1.129007</speed><course>209.868698</course><hAcc>2.161263</hAcc><vAcc>0.567431</vAcc></extensions></trkpt>
      <trkpt lon="-3.058096" lat="52.701427"><ele>271.435913</ele><time>2022-01-15T10:52:05Z</time><extensions><speed>1.091944</speed><course>211.229416</course><hAcc>2.173600</hAcc><vAcc>0.563331</vAcc></extensions></trkpt>
      <trkpt lon="-3.058105" lat="52.701419"><ele>271.234589</ele><time>2022-01-15T10:52:06Z</time><extensions><speed>1.074926</speed><course>212.609665</course><hAcc>2.179368</hAcc><vAcc>0.557791</vAcc></extensions></trkpt>
      <trkpt lon="-3.058113" lat="52.701410"><ele>271.041687</ele><time>2022-01-15T10:52:07Z</time><extensions><speed>1.034788</speed><course>212.397049</course><hAcc>2.234116</hAcc><vAcc>0.550599</vAcc></extensions></trkpt>
      <trkpt lon="-3.058121" lat="52.701403"><ele>270.844360</ele><time>2022-01-15T10:52:08Z</time><extensions><speed>0.930217</speed><course>210.418686</course><hAcc>2.329172</hAcc><vAcc>0.541631</vAcc></extensions></trkpt>
      <trkpt lon="-3.058128" lat="52.701395"><ele>270.670898</ele><time>2022-01-15T10:52:09Z</time><extensions><speed>0.910511</speed><course>209.396393</course><hAcc>2.359405</hAcc><vAcc>0.530849</vAcc></extensions></trkpt>
      <trkpt lon="-3.058134" lat="52.701388"><ele>270.506195</ele><time>2022-01-15T10:52:10Z</time><extensions><speed>0.844374</speed><course>208.058014</course><hAcc>2.399814</hAcc><vAcc>0.518521</vAcc></extensions></trkpt>
      <trkpt lon="-3.058140" lat="52.701382"><ele>270.356323</ele><time>2022-01-15T10:52:11Z</time><extensions><speed>0.733555</speed><course>208.876587</course><hAcc>2.419960</hAcc><vAcc>0.505229</vAcc></extensions></trkpt>
      <trkpt lon="-3.058145" lat="52.701376"><ele>270.215210</ele><time>2022-01-15T10:52:12Z</time><extensions><speed>0.579307</speed><course>209.840469</course><hAcc>2.452014</hAcc><vAcc>0.492020</vAcc></extensions></trkpt>
      <trkpt lon="-3.058149" lat="52.701372"><ele>270.081940</ele><time>2022-01-15T10:52:13Z</time><extensions><speed>0.515962</speed><course>209.959991</course><hAcc>2.485652</hAcc><vAcc>0.480366</vAcc></extensions></trkpt>
      <trkpt lon="-3.058153" lat="52.701368"><ele>269.955597</ele><time>2022-01-15T10:52:14Z</time><extensions><speed>0.507858</speed><course>210.275955</course><hAcc>2.502800</hAcc><vAcc>0.471864</vAcc></extensions></trkpt>
      <trkpt lon="-3.058157" lat="52.701364"><ele>269.836426</ele><time>2022-01-15T10:52:15Z</time><extensions><speed>0.514110</speed><course>211.648209</course><hAcc>2.501739</hAcc><vAcc>0.467868</vAcc></extensions></trkpt>
      <trkpt lon="-3.058162" lat="52.701360"><ele>269.725464</ele><time>2022-01-15T10:52:16Z</time><extensions><speed>0.531749</speed><course>212.213669</course><hAcc>2.476635</hAcc><vAcc>0.468997</vAcc></extensions></trkpt>
      <trkpt lon="-3.058166" lat="52.701356"><ele>269.621490</ele><time>2022-01-15T10:52:17Z</time><extensions><speed>0.536663</speed><course>211.542984</course><hAcc>2.435287</hAcc><vAcc>0.474847</vAcc></extensions></trkpt>
      <trkpt lon="-3.058170" lat="52.701352"><ele>269.523041</ele><time>2022-01-15T10:52:18Z</time><extensions><speed>0.501703</speed><course>210.544846</course><hAcc>2.390301</hAcc><vAcc>0.484088</vAcc></extensions></trkpt>
      <trkpt lon="-3.058174" lat="52.701348"><ele>269.427734</ele><time>2022-01-15T10:52:19Z</time><extensions><speed>0.483575</speed><course>210.106216</course><hAcc>2.334696</hAcc><vAcc>0.495064</vAcc></extensions></trkpt>
      <trkpt lon="-3.058178" lat="52.701344"><ele>269.335785</ele><time>2022-01-15T10:52:20Z</time><extensions><speed>0.464057</speed><course>211.082565</course><hAcc>2.282430</hAcc><vAcc>0.506404</vAcc></extensions></trkpt>
      <trkpt lon="-3.058181" lat="52.701340"><ele>269.250732</ele><time>2022-01-15T10:52:21Z</time><extensions><speed>0.426486</speed><course>213.483414</course><hAcc>2.245214</hAcc><vAcc>0.517272</vAcc></extensions></trkpt>
      <trkpt lon="-3.058185" lat="52.701337"><ele>269.169495</ele><time>2022-01-15T10:52:22Z</time><extensions><speed>0.413938</speed><course>216.604919</course><hAcc>2.207670</hAcc><vAcc>0.527359</vAcc></extensions></trkpt>
      <trkpt lon="-3.058189" lat="52.701334"><ele>269.088348</ele><time>2022-01-15T10:52:23Z</time><extensions><speed>0.423125</speed><course>220.095871</course><hAcc>2.166956</hAcc><vAcc>0.536696</vAcc></extensions></trkpt>
      <trkpt lon="-3.058193" lat="52.701331"><ele>269.010895</ele><time>2022-01-15T10:52:24Z</time><extensions><speed>0.445027</speed><course>222.384796</course><hAcc>2.129922</hAcc><vAcc>0.545408</vAcc></extensions></trkpt>
      <trkpt lon="-3.058198" lat="52.701328"><ele>268.942230</ele><time>2022-01-15T10:52:24Z</time><extensions><speed>0.462919</speed><course>221.766159</course><hAcc>2.101865</hAcc><vAcc>0.553555</vAcc></extensions></trkpt>
      <trkpt lon="-3.058202" lat="52.701324"><ele>268.875000</ele><time>2022-01-15T10:52:25Z</time><extensions><speed>0.489936</speed><course>217.962311</course><hAcc>2.086411</hAcc><vAcc>0.561063</vAcc></extensions></trkpt>
      <trkpt lon="-3.058206" lat="52.701320"><ele>268.810577</ele><time>2022-01-15T10:52:27Z</time><extensions><speed>0.473494</speed><course>211.954376</course><hAcc>2.090334</hAcc><vAcc>0.567733</vAcc></extensions></trkpt>
      <trkpt lon="-3.058210" lat="52.701316"><ele>268.748901</ele><time>2022-01-15T10:52:28Z</time><extensions><speed>0.603911</speed><course>205.897964</course><hAcc>2.065390</hAcc><vAcc>0.573396</vAcc></extensions></trkpt>
      <trkpt lon="-3.058214" lat="52.701311"><ele>268.687927</ele><time>2022-01-15T10:52:28Z</time><extensions><speed>0.667480</speed><course>201.815582</course><hAcc>2.060466</hAcc><vAcc>0.577928</vAcc></extensions></trkpt>
      <trkpt lon="-3.058218" lat="52.701305"><ele>268.640778</ele><time>2022-01-15T10:52:29Z</time><extensions><speed>0.675171</speed><course>199.402267</course><hAcc>2.079751</hAcc><vAcc>0.581326</vAcc></extensions></trkpt>
      <trkpt lon="-3.058221" lat="52.701299"><ele>268.590485</ele><time>2022-01-15T10:52:31Z</time><extensions><speed>0.721886</speed><course>198.559692</course><hAcc>2.093187</hAcc><vAcc>0.583694</vAcc></extensions></trkpt>
      <trkpt lon="-3.058225" lat="52.701292"><ele>268.545593</ele><time>2022-01-15T10:52:32Z</time><extensions><speed>0.788136</speed><course>198.863358</course><hAcc>2.094968</hAcc><vAcc>0.585209</vAcc></extensions></trkpt>
      <trkpt lon="-3.058229" lat="52.701285"><ele>268.502228</ele><time>2022-01-15T10:52:32Z</time><extensions><speed>0.867058</speed><course>199.533813</course><hAcc>2.086222</hAcc><vAcc>0.586046</vAcc></extensions></trkpt>
      <trkpt lon="-3.058234" lat="52.701277"><ele>268.452393</ele><time>2022-01-15T10:52:33Z</time><extensions><speed>0.898556</speed><course>199.846390</course><hAcc>2.076296</hAcc><vAcc>0.586284</vAcc></extensions></trkpt>
      <trkpt lon="-3.058239" lat="52.701269"><ele>268.405182</ele><time>2022-01-15T10:52:35Z</time><extensions><speed>0.939519</speed><course>200.087891</course><hAcc>2.067463</hAcc><vAcc>0.585891</vAcc></extensions></trkpt>
      <trkpt lon="-3.058243" lat="52.701262"><ele>268.363892</ele><time>2022-01-15T10:52:36Z</time><extensions><speed>0.754527</speed><course>201.526291</course><hAcc>2.077510</hAcc><vAcc>0.584795</vAcc></extensions></trkpt>
      <trkpt lon="-3.058247" lat="52.701255"><ele>268.321320</ele><time>2022-01-15T10:52:37Z</time><extensions><speed>0.761272</speed><course>202.781876</course><hAcc>2.049133</hAcc><vAcc>0.582945</vAcc></extensions></trkpt>
      <trkpt lon="-3.058251" lat="52.701248"><ele>268.274048</ele><time>2022-01-15T10:52:38Z</time><extensions><speed>0.769147</speed><course>202.951416</course><hAcc>2.006498</hAcc><vAcc>0.580304</vAcc></extensions></trkpt>
      <trkpt lon="-3.058256" lat="52.701241"><ele>268.225433</ele><time>2022-01-15T10:52:39Z</time><extensions><speed>0.778130</speed><course>201.790436</course><hAcc>1.966972</hAcc><vAcc>0.576865</vAcc></extensions></trkpt>
      <trkpt lon="-3.058260" lat="52.701234"><ele>268.177399</ele><time>2022-01-15T10:52:40Z</time><extensions><speed>0.745919</speed><course>199.680466</course><hAcc>1.957408</hAcc><vAcc>0.572695</vAcc></extensions></trkpt>
      <trkpt lon="-3.058262" lat="52.701229"><ele>268.129761</ele><time>2022-01-15T10:52:41Z</time><extensions><speed>0.453073</speed><course>196.726639</course><hAcc>1.998824</hAcc><vAcc>0.567983</vAcc></extensions></trkpt>
      <trkpt lon="-3.058264" lat="52.701225"><ele>268.084503</ele><time>2022-01-15T10:52:42Z</time><extensions><speed>0.354660</speed><course>191.836960</course><hAcc>2.015760</hAcc><vAcc>0.562970</vAcc></extensions></trkpt>
      <trkpt lon="-3.058265" lat="52.701222"><ele>268.041565</ele><time>2022-01-15T10:52:42Z</time><extensions><speed>0.343990</speed><course>186.242813</course><hAcc>2.023723</hAcc><vAcc>0.557920</vAcc></extensions></trkpt>
      <trkpt lon="-3.058265" lat="52.701219"><ele>268.001648</ele><time>2022-01-15T10:52:43Z</time><extensions><speed>0.383273</speed><course>181.323883</course><hAcc>2.033098</hAcc><vAcc>0.553058</vAcc></extensions></trkpt>
      <trkpt lon="-3.058265" lat="52.701214"><ele>267.965027</ele><time>2022-01-15T10:52:44Z</time><extensions><speed>0.628544</speed><course>178.729691</course><hAcc>2.016907</hAcc><vAcc>0.548598</vAcc></extensions></trkpt>
      <trkpt lon="-3.058265" lat="52.701207"><ele>267.931519</ele><time>2022-01-15T10:52:45Z</time><extensions><speed>0.898954</speed><course>178.138763</course><hAcc>2.025269</hAcc><vAcc>0.544803</vAcc></extensions></trkpt>
      <trkpt lon="-3.058264" lat="52.701199"><ele>267.904205</ele><time>2022-01-15T10:52:46Z</time><extensions><speed>0.858307</speed><course>179.921371</course><hAcc>2.094076</hAcc><vAcc>0.541907</vAcc></extensions></trkpt>
      <trkpt lon="-3.058265" lat="52.701191"><ele>267.884491</ele><time>2022-01-15T10:52:47Z</time><extensions><speed>0.941571</speed><course>183.584915</course><hAcc>2.145315</hAcc><vAcc>0.540025</vAcc></extensions></trkpt>
      <trkpt lon="-3.058266" lat="52.701181"><ele>267.872437</ele><time>2022-01-15T10:52:48Z</time><extensions><speed>1.139403</speed><course>187.924545</course><hAcc>2.175485</hAcc><vAcc>0.539053</vAcc></extensions></trkpt>
      <trkpt lon="-3.058269" lat="52.701171"><ele>267.864532</ele><time>2022-01-15T10:52:49Z</time><extensions><speed>1.193450</speed><course>191.618790</course><hAcc>2.210658</hAcc><vAcc>0.538645</vAcc></extensions></trkpt>
      <trkpt lon="-3.058273" lat="52.701160"><ele>267.860687</ele><time>2022-01-15T10:52:50Z</time><extensions><speed>1.251665</speed><course>192.347870</course><hAcc>2.221583</hAcc><vAcc>0.538288</vAcc></extensions></trkpt>
      <trkpt lon="-3.058277" lat="52.701149"><ele>267.859192</ele><time>2022-01-15T10:52:51Z</time><extensions><speed>1.220409</speed><course>192.786728</course><hAcc>2.234628</hAcc><vAcc>0.537493</vAcc></extensions></trkpt>
      <trkpt lon="-3.058281" lat="52.701138"><ele>267.855042</ele><time>2022-01-15T10:52:52Z</time><extensions><speed>1.218346</speed><course>192.004333</course><hAcc>2.233690</hAcc><vAcc>0.535801</vAcc></extensions></trkpt>
      <trkpt lon="-3.058285" lat="52.701127"><ele>267.850159</ele><time>2022-01-15T10:52:53Z</time><extensions><speed>1.187624</speed><course>190.618103</course><hAcc>2.231329</hAcc><vAcc>0.532914</vAcc></extensions></trkpt>
      <trkpt lon="-3.058288" lat="52.701117"><ele>267.846741</ele><time>2022-01-15T10:52:54Z</time><extensions><speed>1.070560</speed><course>190.287216</course><hAcc>2.245389</hAcc><vAcc>0.528736</vAcc></extensions></trkpt>
      <trkpt lon="-3.058291" lat="52.701108"><ele>267.847778</ele><time>2022-01-15T10:52:55Z</time><extensions><speed>1.005133</speed><course>189.652405</course><hAcc>2.244242</hAcc><vAcc>0.523369</vAcc></extensions></trkpt>
      <trkpt lon="-3.058294" lat="52.701099"><ele>267.841003</ele><time>2022-01-15T10:52:56Z</time><extensions><speed>0.832825</speed><course>190.751526</course><hAcc>2.249310</hAcc><vAcc>0.517151</vAcc></extensions></trkpt>
      <trkpt lon="-3.058297" lat="52.701091"><ele>267.829346</ele><time>2022-01-15T10:52:57Z</time><extensions><speed>0.902566</speed><course>192.807205</course><hAcc>2.236719</hAcc><vAcc>0.510579</vAcc></extensions></trkpt>
      <trkpt lon="-3.058300" lat="52.701084"><ele>267.796906</ele><time>2022-01-15T10:52:58Z</time><extensions><speed>0.777052</speed><course>196.303513</course><hAcc>2.254588</hAcc><vAcc>0.504173</vAcc></extensions></trkpt>
      <trkpt lon="-3.058304" lat="52.701077"><ele>267.746521</ele><time>2022-01-15T10:52:59Z</time><extensions><speed>0.768929</speed><course>200.715958</course><hAcc>2.267820</hAcc><vAcc>0.498433</vAcc></extensions></trkpt>
      <trkpt lon="-3.058308" lat="52.701071"><ele>267.680725</ele><time>2022-01-15T10:53:00Z</time><extensions><speed>0.816805</speed><course>204.400375</course><hAcc>2.275810</hAcc><vAcc>0.493841</vAcc></extensions></trkpt>
      <trkpt lon="-3.058314" lat="52.701064"><ele>267.595795</ele><time>2022-01-15T10:53:01Z</time><extensions><speed>0.884633</speed><course>207.108551</course><hAcc>2.290651</hAcc><vAcc>0.490923</vAcc></extensions></trkpt>
      <trkpt lon="-3.058320" lat="52.701056"><ele>267.482391</ele><time>2022-01-15T10:53:02Z</time><extensions><speed>0.938151</speed><course>209.247559</course><hAcc>2.311874</hAcc><vAcc>0.490155</vAcc></extensions></trkpt>
      <trkpt lon="-3.058328" lat="52.701048"><ele>267.346527</ele><time>2022-01-15T10:53:03Z</time><extensions><speed>1.074244</speed><course>210.910751</course><hAcc>2.313664</hAcc><vAcc>0.491665</vAcc></extensions></trkpt>
      <trkpt lon="-3.058337" lat="52.701039"><ele>267.188995</ele><time>2022-01-15T10:53:04Z</time><extensions><speed>1.347332</speed><course>211.878830</course><hAcc>2.295067</hAcc><vAcc>0.495157</vAcc></extensions></trkpt>
      <trkpt lon="-3.058348" lat="52.701028"><ele>267.007751</ele><time>2022-01-15T10:53:05Z</time><extensions><speed>1.416944</speed><course>210.790329</course><hAcc>2.293100</hAcc><vAcc>0.500097</vAcc></extensions></trkpt>
      <trkpt lon="-3.058358" lat="52.701017"><ele>266.814301</ele><time>2022-01-15T10:53:06Z</time><extensions><speed>1.417565</speed><course>208.656906</course><hAcc>2.299783</hAcc><vAcc>0.505966</vAcc></extensions></trkpt>
      <trkpt lon="-3.058368" lat="52.701006"><ele>266.608826</ele><time>2022-01-15T10:53:07Z</time><extensions><speed>1.343581</speed><course>207.261047</course><hAcc>2.300549</hAcc><vAcc>0.512375</vAcc></extensions></trkpt>
      <trkpt lon="-3.058377" lat="52.700995"><ele>266.391876</ele><time>2022-01-15T10:53:08Z</time><extensions><speed>1.268012</speed><course>206.609192</course><hAcc>2.287570</hAcc><vAcc>0.519049</vAcc></extensions></trkpt>
      <trkpt lon="-3.058385" lat="52.700985"><ele>266.171387</ele><time>2022-01-15T10:53:09Z</time><extensions><speed>1.166033</speed><course>206.616943</course><hAcc>2.270720</hAcc><vAcc>0.525744</vAcc></extensions></trkpt>
      <trkpt lon="-3.058393" lat="52.700975"><ele>265.950653</ele><time>2022-01-15T10:53:10Z</time><extensions><speed>1.276421</speed><course>208.668274</course><hAcc>2.255240</hAcc><vAcc>0.532150</vAcc></extensions></trkpt>
      <trkpt lon="-3.058403" lat="52.700965"><ele>265.729828</ele><time>2022-01-15T10:53:11Z</time><extensions><speed>1.264603</speed><course>210.518082</course><hAcc>2.265927</hAcc><vAcc>0.537857</vAcc></extensions></trkpt>
      <trkpt lon="-3.058411" lat="52.700955"><ele>265.513092</ele><time>2022-01-15T10:53:12Z</time><extensions><speed>1.248499</speed><course>206.172409</course><hAcc>2.248603</hAcc><vAcc>0.542406</vAcc></extensions></trkpt>
      <trkpt lon="-3.058419" lat="52.700944"><ele>265.303619</ele><time>2022-01-15T10:53:13Z</time><extensions><speed>1.203094</speed><course>204.105652</course><hAcc>2.226719</hAcc><vAcc>0.545413</vAcc></extensions></trkpt>
      <trkpt lon="-3.058426" lat="52.700934"><ele>265.104767</ele><time>2022-01-15T10:53:14Z</time><extensions><speed>1.173368</speed><course>201.555817</course><hAcc>2.198511</hAcc><vAcc>0.546621</vAcc></extensions></trkpt>
      <trkpt lon="-3.058431" lat="52.700924"><ele>264.918457</ele><time>2022-01-15T10:53:15Z</time><extensions><speed>1.054553</speed><course>198.477768</course><hAcc>2.186909</hAcc><vAcc>0.545922</vAcc></extensions></trkpt>
      <trkpt lon="-3.058435" lat="52.700914"><ele>264.738525</ele><time>2022-01-15T10:53:16Z</time><extensions><speed>1.020213</speed><course>193.900085</course><hAcc>2.175943</hAcc><vAcc>0.543419</vAcc></extensions></trkpt>
      <trkpt lon="-3.058438" lat="52.700905"><ele>264.579102</ele><time>2022-01-15T10:53:17Z</time><extensions><speed>0.865907</speed><course>187.542175</course><hAcc>2.176952</hAcc><vAcc>0.539366</vAcc></extensions></trkpt>
      <trkpt lon="-3.058438" lat="52.700897"><ele>264.425812</ele><time>2022-01-15T10:53:18Z</time><extensions><speed>0.766207</speed><course>182.112900</course><hAcc>2.182390</hAcc><vAcc>0.534131</vAcc></extensions></trkpt>
      <trkpt lon="-3.058438" lat="52.700890"><ele>264.276978</ele><time>2022-01-15T10:53:19Z</time><extensions><speed>0.575681</speed><course>177.294601</course><hAcc>2.200246</hAcc><vAcc>0.528170</vAcc></extensions></trkpt>
      <trkpt lon="-3.058436" lat="52.700884"><ele>264.139954</ele><time>2022-01-15T10:53:20Z</time><extensions><speed>0.565152</speed><course>172.659714</course><hAcc>2.183032</hAcc><vAcc>0.521966</vAcc></extensions></trkpt>
      <trkpt lon="-3.058435" lat="52.700878"><ele>264.016968</ele><time>2022-01-15T10:53:21Z</time><extensions><speed>0.628359</speed><course>169.956345</course><hAcc>2.149990</hAcc><vAcc>0.515843</vAcc></extensions></trkpt>
      <trkpt lon="-3.058433" lat="52.700872"><ele>263.913940</ele><time>2022-01-15T10:53:23Z</time><extensions><speed>0.637018</speed><course>169.176208</course><hAcc>2.134196</hAcc><vAcc>0.509940</vAcc></extensions></trkpt>
      <trkpt lon="-3.058432" lat="52.700866"><ele>263.828644</ele><time>2022-01-15T10:53:24Z</time><extensions><speed>0.616684</speed><course>168.997269</course><hAcc>2.133294</hAcc><vAcc>0.504204</vAcc></extensions></trkpt>
      <trkpt lon="-3.058430" lat="52.700859"><ele>263.742737</ele><time>2022-01-15T10:53:25Z</time><extensions><speed>0.617626</speed><course>169.014725</course><hAcc>2.132874</hAcc><vAcc>0.498427</vAcc></extensions></trkpt>
      <trkpt lon="-3.058428" lat="52.700853"><ele>263.674103</ele><time>2022-01-15T10:53:26Z</time><extensions><speed>0.643327</speed><course>169.380341</course><hAcc>2.125889</hAcc><vAcc>0.492336</vAcc></extensions></trkpt>
      <trkpt lon="-3.058427" lat="52.700846"><ele>263.605804</ele><time>2022-01-15T10:53:27Z</time><extensions><speed>0.778522</speed><course>170.036819</course><hAcc>2.117396</hAcc><vAcc>0.485602</vAcc></extensions></trkpt>
      <trkpt lon="-3.058425" lat="52.700840"><ele>263.549286</ele><time>2022-01-15T10:53:28Z</time><extensions><speed>0.581747</speed><course>171.289398</course><hAcc>2.162261</hAcc><vAcc>0.477762</vAcc></extensions></trkpt>
      <trkpt lon="-3.058425" lat="52.700834"><ele>263.490784</ele><time>2022-01-15T10:53:29Z</time><extensions><speed>0.637609</speed><course>173.791306</course><hAcc>2.180192</hAcc><vAcc>0.468521</vAcc></extensions></trkpt>
      <trkpt lon="-3.058424" lat="52.700828"><ele>263.434265</ele><time>2022-01-15T10:53:30Z</time><extensions><speed>0.657007</speed><course>177.308426</course><hAcc>2.211099</hAcc><vAcc>0.457776</vAcc></extensions></trkpt>
      <trkpt lon="-3.058424" lat="52.700821"><ele>263.362885</ele><time>2022-01-15T10:53:31Z</time><extensions><speed>0.653077</speed><course>181.365845</course><hAcc>2.265152</hAcc><vAcc>0.446189</vAcc></extensions></trkpt>
      <trkpt lon="-3.058425" lat="52.700815"><ele>263.274292</ele><time>2022-01-15T10:53:32Z</time><extensions><speed>0.636632</speed><course>185.349503</course><hAcc>2.335170</hAcc><vAcc>0.434743</vAcc></extensions></trkpt>
      <trkpt lon="-3.058426" lat="52.700809"><ele>263.169617</ele><time>2022-01-15T10:53:33Z</time><extensions><speed>0.629271</speed><course>188.628403</course><hAcc>2.410311</hAcc><vAcc>0.424426</vAcc></extensions></trkpt>
      <trkpt lon="-3.058428" lat="52.700802"><ele>263.033020</ele><time>2022-01-15T10:53:34Z</time><extensions><speed>0.633357</speed><course>191.365402</course><hAcc>2.488699</hAcc><vAcc>0.416049</vAcc></extensions></trkpt>
      <trkpt lon="-3.058431" lat="52.700796"><ele>262.872833</ele><time>2022-01-15T10:53:35Z</time><extensions><speed>0.629103</speed><course>193.936340</course><hAcc>2.570333</hAcc><vAcc>0.409701</vAcc></extensions></trkpt>
      <trkpt lon="-3.058434" lat="52.700789"><ele>262.700500</ele><time>2022-01-15T10:53:36Z</time><extensions><speed>0.639363</speed><course>195.681015</course><hAcc>2.648575</hAcc><vAcc>0.405271</vAcc></extensions></trkpt>
      <trkpt lon="-3.058437" lat="52.700782"><ele>262.508759</ele><time>2022-01-15T10:53:37Z</time><extensions><speed>0.647898</speed><course>196.489944</course><hAcc>2.721617</hAcc><vAcc>0.402355</vAcc></extensions></trkpt>
      <trkpt lon="-3.058440" lat="52.700775"><ele>262.295990</ele><time>2022-01-15T10:53:38Z</time><extensions><speed>0.663031</speed><course>196.292618</course><hAcc>2.785819</hAcc><vAcc>0.400543</vAcc></extensions></trkpt>
      <trkpt lon="-3.058443" lat="52.700768"><ele>262.071259</ele><time>2022-01-15T10:53:39Z</time><extensions><speed>0.672179</speed><course>195.295609</course><hAcc>2.842502</hAcc><vAcc>0.399505</vAcc></extensions></trkpt>
      <trkpt lon="-3.058446" lat="52.700761"><ele>261.842163</ele><time>2022-01-15T10:53:40Z</time><extensions><speed>0.653538</speed><course>194.095459</course><hAcc>2.890522</hAcc><vAcc>0.398923</vAcc></extensions></trkpt>
      <trkpt lon="-3.058448" lat="52.700754"><ele>261.608643</ele><time>2022-01-15T10:53:41Z</time><extensions><speed>0.684070</speed><course>192.938751</course><hAcc>2.916990</hAcc><vAcc>0.398543</vAcc></extensions></trkpt>
      <trkpt lon="-3.058451" lat="52.700747"><ele>261.378815</ele><time>2022-01-15T10:53:42Z</time><extensions><speed>0.699844</speed><course>192.056732</course><hAcc>2.935679</hAcc><vAcc>0.398320</vAcc></extensions></trkpt>
      <trkpt lon="-3.058453" lat="52.700740"><ele>261.150330</ele><time>2022-01-15T10:53:43Z</time><extensions><speed>0.688240</speed><course>191.739304</course><hAcc>2.951933</hAcc><vAcc>0.398185</vAcc></extensions></trkpt>
      <trkpt lon="-3.058456" lat="52.700732"><ele>260.925049</ele><time>2022-01-15T10:53:44Z</time><extensions><speed>0.690944</speed><course>191.703537</course><hAcc>2.963862</hAcc><vAcc>0.398153</vAcc></extensions></trkpt>
      <trkpt lon="-3.058459" lat="52.700725"><ele>260.704041</ele><time>2022-01-15T10:53:45Z</time><extensions><speed>0.679757</speed><course>191.869827</course><hAcc>2.976817</hAcc><vAcc>0.398157</vAcc></extensions></trkpt>
      <trkpt lon="-3.058463" lat="52.700718"><ele>260.486572</ele><time>2022-01-15T10:53:46Z</time><extensions><speed>0.696643</speed><course>192.145065</course><hAcc>2.985805</hAcc><vAcc>0.398308</vAcc></extensions></trkpt>
      <trkpt lon="-3.058466" lat="52.700711"><ele>260.267487</ele><time>2022-01-15T10:53:47Z</time><extensions><speed>0.713271</speed><course>192.825409</course><hAcc>2.998465</hAcc><vAcc>0.398475</vAcc></extensions></trkpt>
      <trkpt lon="-3.058470" lat="52.700703"><ele>260.054810</ele><time>2022-01-15T10:53:48Z</time><extensions><speed>0.683584</speed><course>194.245224</course><hAcc>3.021446</hAcc><vAcc>0.398637</vAcc></extensions></trkpt>
      <trkpt lon="-3.058474" lat="52.700696"><ele>259.843872</ele><time>2022-01-15T10:53:49Z</time><extensions><speed>0.664395</speed><course>196.676117</course><hAcc>3.045138</hAcc><vAcc>0.398861</vAcc></extensions></trkpt>
      <trkpt lon="-3.058478" lat="52.700690"><ele>259.629364</ele><time>2022-01-15T10:53:50Z</time><extensions><speed>0.618265</speed><course>199.395386</course><hAcc>3.068638</hAcc><vAcc>0.399292</vAcc></extensions></trkpt>
      <trkpt lon="-3.058482" lat="52.700683"><ele>259.409454</ele><time>2022-01-15T10:53:51Z</time><extensions><speed>0.664756</speed><course>201.682816</course><hAcc>3.078179</hAcc><vAcc>0.400200</vAcc></extensions></trkpt>
      <trkpt lon="-3.058487" lat="52.700676"><ele>259.179230</ele><time>2022-01-15T10:53:52Z</time><extensions><speed>0.660706</speed><course>203.910828</course><hAcc>3.097756</hAcc><vAcc>0.401921</vAcc></extensions></trkpt>
      <trkpt lon="-3.058491" lat="52.700669"><ele>258.943146</ele><time>2022-01-15T10:53:53Z</time><extensions><speed>0.696573</speed><course>205.650940</course><hAcc>3.115516</hAcc><vAcc>0.404624</vAcc></extensions></trkpt>
      <trkpt lon="-3.058496" lat="52.700661"><ele>258.696411</ele><time>2022-01-15T10:53:54Z</time><extensions><speed>0.737843</speed><course>206.315521</course><hAcc>3.136877</hAcc><vAcc>0.408267</vAcc></extensions></trkpt>
      <trkpt lon="-3.058501" lat="52.700654"><ele>258.436798</ele><time>2022-01-15T10:53:55Z</time><extensions><speed>0.709697</speed><course>205.968903</course><hAcc>3.171534</hAcc><vAcc>0.412599</vAcc></extensions></trkpt>
      <trkpt lon="-3.058506" lat="52.700647"><ele>258.161682</ele><time>2022-01-15T10:53:56Z</time><extensions><speed>0.669927</speed><course>204.826279</course><hAcc>3.206501</hAcc><vAcc>0.417136</vAcc></extensions></trkpt>
      <trkpt lon="-3.058510" lat="52.700641"><ele>257.886536</ele><time>2022-01-15T10:53:57Z</time><extensions><speed>0.626373</speed><course>202.872421</course><hAcc>3.234744</hAcc><vAcc>0.421340</vAcc></extensions></trkpt>
      <trkpt lon="-3.058514" lat="52.700634"><ele>257.600189</ele><time>2022-01-15T10:53:58Z</time><extensions><speed>0.628752</speed><course>200.446243</course><hAcc>3.251969</hAcc><vAcc>0.424794</vAcc></extensions></trkpt>
      <trkpt lon="-3.058518" lat="52.700627"><ele>257.310089</ele><time>2022-01-15T10:53:59Z</time><extensions><speed>0.592103</speed><course>197.460175</course><hAcc>3.264228</hAcc><vAcc>0.427324</vAcc></extensions></trkpt>
      <trkpt lon="-3.058521" lat="52.700620"><ele>257.022583</ele><time>2022-01-15T10:54:00Z</time><extensions><speed>0.649660</speed><course>194.432648</course><hAcc>3.258735</hAcc><vAcc>0.429039</vAcc></extensions></trkpt>
      <trkpt lon="-3.058523" lat="52.700613"><ele>256.730896</ele><time>2022-01-15T10:54:01Z</time><extensions><speed>0.625021</speed><course>192.417816</course><hAcc>3.262657</hAcc><vAcc>0.430094</vAcc></extensions></trkpt>
      <trkpt lon="-3.058526" lat="52.700606"><ele>256.450378</ele><time>2022-01-15T10:54:02Z</time><extensions><speed>0.619033</speed><course>191.376068</course><hAcc>3.264150</hAcc><vAcc>0.430675</vAcc></extensions></trkpt>
      <trkpt lon="-3.058529" lat="52.700599"><ele>256.173492</ele><time>2022-01-15T10:54:03Z</time><extensions><speed>0.608544</speed><course>191.401917</course><hAcc>3.265330</hAcc><vAcc>0.430810</vAcc></extensions></trkpt>
      <trkpt lon="-3.058532" lat="52.700592"><ele>255.911377</ele><time>2022-01-15T10:54:04Z</time><extensions><speed>0.564876</speed><course>192.477493</course><hAcc>3.277494</hAcc><vAcc>0.430532</vAcc></extensions></trkpt>
      <trkpt lon="-3.058536" lat="52.700586"><ele>255.672058</ele><time>2022-01-15T10:54:05Z</time><extensions><speed>0.463497</speed><course>193.940735</course><hAcc>3.287245</hAcc><vAcc>0.429834</vAcc></extensions></trkpt>
      <trkpt lon="-3.058539" lat="52.700579"><ele>255.440231</ele><time>2022-01-15T10:54:06Z</time><extensions><speed>0.533600</speed><course>195.711395</course><hAcc>3.252655</hAcc><vAcc>0.428633</vAcc></extensions></trkpt>
      <trkpt lon="-3.058543" lat="52.700573"><ele>255.230988</ele><time>2022-01-15T10:54:07Z</time><extensions><speed>0.599403</speed><course>197.134628</course><hAcc>3.206491</hAcc><vAcc>0.426946</vAcc></extensions></trkpt>
      <trkpt lon="-3.058546" lat="52.700566"><ele>255.040771</ele><time>2022-01-15T10:54:08Z</time><extensions><speed>0.629998</speed><course>197.962616</course><hAcc>3.167636</hAcc><vAcc>0.424778</vAcc></extensions></trkpt>
      <trkpt lon="-3.058550" lat="52.700559"><ele>254.843369</ele><time>2022-01-15T10:54:09Z</time><extensions><speed>0.631985</speed><course>199.093430</course><hAcc>3.134317</hAcc><vAcc>0.422171</vAcc></extensions></trkpt>
      <trkpt lon="-3.058555" lat="52.700551"><ele>254.651535</ele><time>2022-01-15T10:54:10Z</time><extensions><speed>0.670366</speed><course>200.480774</course><hAcc>3.097165</hAcc><vAcc>0.419189</vAcc></extensions></trkpt>
      <trkpt lon="-3.058560" lat="52.700544"><ele>254.457947</ele><time>2022-01-15T10:54:11Z</time><extensions><speed>0.672315</speed><course>201.812790</course><hAcc>3.062066</hAcc><vAcc>0.416016</vAcc></extensions></trkpt>
      <trkpt lon="-3.058565" lat="52.700536"><ele>254.261658</ele><time>2022-01-15T10:54:12Z</time><extensions><speed>0.734172</speed><course>202.501663</course><hAcc>3.017596</hAcc><vAcc>0.412873</vAcc></extensions></trkpt>
      <trkpt lon="-3.058570" lat="52.700527"><ele>254.070892</ele><time>2022-01-15T10:54:13Z</time><extensions><speed>0.734593</speed><course>202.431473</course><hAcc>2.976440</hAcc><vAcc>0.409790</vAcc></extensions></trkpt>
      <trkpt lon="-3.058575" lat="52.700518"><ele>253.868835</ele><time>2022-01-15T10:54:14Z</time><extensions><speed>0.769832</speed><course>201.825851</course><hAcc>2.928143</hAcc><vAcc>0.406899</vAcc></extensions></trkpt>
      <trkpt lon="-3.058581" lat="52.700510"><ele>253.665161</ele><time>2022-01-15T10:54:15Z</time><extensions><speed>0.798489</speed><course>200.946411</course><hAcc>2.879401</hAcc><vAcc>0.404226</vAcc></extensions></trkpt>
      <trkpt lon="-3.058586" lat="52.700501"><ele>253.435974</ele><time>2022-01-15T10:54:16Z</time><extensions><speed>0.748318</speed><course>200.218048</course><hAcc>2.844680</hAcc><vAcc>0.401892</vAcc></extensions></trkpt>
      <trkpt lon="-3.058591" lat="52.700493"><ele>253.200836</ele><time>2022-01-15T10:54:17Z</time><extensions><speed>0.742364</speed><course>199.237427</course><hAcc>2.808963</hAcc><vAcc>0.400098</vAcc></extensions></trkpt>
      <trkpt lon="-3.058595" lat="52.700485"><ele>252.951752</ele><time>2022-01-15T10:54:18Z</time><extensions><speed>0.780001</speed><course>198.612595</course><hAcc>2.769232</hAcc><vAcc>0.398995</vAcc></extensions></trkpt>
      <trkpt lon="-3.058599" lat="52.700477"><ele>252.687805</ele><time>2022-01-15T10:54:19Z</time><extensions><speed>0.792951</speed><course>198.089920</course><hAcc>2.734433</hAcc><vAcc>0.398598</vAcc></extensions></trkpt>
      <trkpt lon="-3.058604" lat="52.700468"><ele>252.414001</ele><time>2022-01-15T10:54:20Z</time><extensions><speed>0.863985</speed><course>197.776398</course><hAcc>2.696798</hAcc><vAcc>0.398895</vAcc></extensions></trkpt>
      <trkpt lon="-3.058609" lat="52.700459"><ele>252.131531</ele><time>2022-01-15T10:54:21Z</time><extensions><speed>0.891966</speed><course>197.530487</course><hAcc>2.665254</hAcc><vAcc>0.399621</vAcc></extensions></trkpt>
      <trkpt lon="-3.058614" lat="52.700450"><ele>251.846878</ele><time>2022-01-15T10:54:22Z</time><extensions><speed>0.895936</speed><course>197.475433</course><hAcc>2.637292</hAcc><vAcc>0.400481</vAcc></extensions></trkpt>
      <trkpt lon="-3.058618" lat="52.700442"><ele>251.548981</ele><time>2022-01-15T10:54:23Z</time><extensions><speed>0.899084</speed><course>197.563461</course><hAcc>2.607756</hAcc><vAcc>0.401039</vAcc></extensions></trkpt>
      <trkpt lon="-3.058623" lat="52.700433"><ele>251.232407</ele><time>2022-01-15T10:54:24Z</time><extensions><speed>0.877666</speed><course>197.679031</course><hAcc>2.579993</hAcc><vAcc>0.401006</vAcc></extensions></trkpt>
      <trkpt lon="-3.058627" lat="52.700425"><ele>250.910553</ele><time>2022-01-15T10:54:25Z</time><extensions><speed>0.846499</speed><course>197.673080</course><hAcc>2.557189</hAcc><vAcc>0.400311</vAcc></extensions></trkpt>
      <trkpt lon="-3.058631" lat="52.700417"><ele>250.575974</ele><time>2022-01-15T10:54:26Z</time><extensions><speed>0.776206</speed><course>197.371216</course><hAcc>2.541258</hAcc><vAcc>0.399070</vAcc></extensions></trkpt>
      <trkpt lon="-3.058634" lat="52.700409"><ele>250.239777</ele><time>2022-01-15T10:54:27Z</time><extensions><speed>0.780648</speed><course>197.293671</course><hAcc>2.520494</hAcc><vAcc>0.397398</vAcc></extensions></trkpt>
      <trkpt lon="-3.058638" lat="52.700402"><ele>249.893127</ele><time>2022-01-15T10:54:28Z</time><extensions><speed>0.757695</speed><course>197.704330</course><hAcc>2.510481</hAcc><vAcc>0.395552</vAcc></extensions></trkpt>
      <trkpt lon="-3.058642" lat="52.700395"><ele>249.548996</ele><time>2022-01-15T10:54:29Z</time><extensions><speed>0.718616</speed><course>198.537674</course><hAcc>2.513344</hAcc><vAcc>0.393674</vAcc></extensions></trkpt>
      <trkpt lon="-3.058646" lat="52.700388"><ele>249.208435</ele><time>2022-01-15T10:54:30Z</time><extensions><speed>0.693268</speed><course>198.931625</course><hAcc>2.522981</hAcc><vAcc>0.391919</vAcc></extensions></trkpt>
      <trkpt lon="-3.058650" lat="52.700381"><ele>248.873749</ele><time>2022-01-15T10:54:31Z</time><extensions><speed>0.657704</speed><course>198.238419</course><hAcc>2.541747</hAcc><vAcc>0.390387</vAcc></extensions></trkpt>
      <trkpt lon="-3.058653" lat="52.700375"><ele>248.552094</ele><time>2022-01-15T10:54:32Z</time><extensions><speed>0.628625</speed><course>196.650696</course><hAcc>2.562880</hAcc><vAcc>0.389099</vAcc></extensions></trkpt>
      <trkpt lon="-3.058655" lat="52.700368"><ele>248.233002</ele><time>2022-01-15T10:54:33Z</time><extensions><speed>0.686006</speed><course>195.040237</course><hAcc>2.578105</hAcc><vAcc>0.388043</vAcc></extensions></trkpt>
      <trkpt lon="-3.058658" lat="52.700362"><ele>247.933014</ele><time>2022-01-15T10:54:34Z</time><extensions><speed>0.667469</speed><course>194.027145</course><hAcc>2.608857</hAcc><vAcc>0.387229</vAcc></extensions></trkpt>
      <trkpt lon="-3.058661" lat="52.700355"><ele>247.646545</ele><time>2022-01-15T10:54:35Z</time><extensions><speed>0.702165</speed><course>193.804260</course><hAcc>2.634528</hAcc><vAcc>0.386621</vAcc></extensions></trkpt>
      <trkpt lon="-3.058664" lat="52.700348"><ele>247.375809</ele><time>2022-01-15T10:54:36Z</time><extensions><speed>0.723645</speed><course>193.664215</course><hAcc>2.665789</hAcc><vAcc>0.385973</vAcc></extensions></trkpt>
      <trkpt lon="-3.058666" lat="52.700340"><ele>247.121201</ele><time>2022-01-15T10:54:36Z</time><extensions><speed>0.698987</speed><course>193.451019</course><hAcc>2.710211</hAcc><vAcc>0.385551</vAcc></extensions></trkpt>
      <trkpt lon="-3.058669" lat="52.700333"><ele>246.877823</ele><time>2022-01-15T10:54:37Z</time><extensions><speed>0.646176</speed><course>193.170456</course><hAcc>2.758890</hAcc><vAcc>0.385238</vAcc></extensions></trkpt>
      <trkpt lon="-3.058672" lat="52.700326"><ele>246.644913</ele><time>2022-01-15T10:54:38Z</time><extensions><speed>0.636058</speed><course>192.593460</course><hAcc>2.798410</hAcc><vAcc>0.385425</vAcc></extensions></trkpt>
      <trkpt lon="-3.058674" lat="52.700320"><ele>246.421326</ele><time>2022-01-15T10:54:39Z</time><extensions><speed>0.634913</speed><course>191.619629</course><hAcc>2.834919</hAcc><vAcc>0.386131</vAcc></extensions></trkpt>
      <trkpt lon="-3.058677" lat="52.700313"><ele>246.197296</ele><time>2022-01-15T10:54:40Z</time><extensions><speed>0.656085</speed><course>190.973236</course><hAcc>2.869510</hAcc><vAcc>0.387561</vAcc></extensions></trkpt>
      <trkpt lon="-3.058679" lat="52.700306"><ele>245.975388</ele><time>2022-01-15T10:54:41Z</time><extensions><speed>0.668322</speed><course>190.565628</course><hAcc>2.908120</hAcc><vAcc>0.389848</vAcc></extensions></trkpt>
      <trkpt lon="-3.058681" lat="52.700298"><ele>245.753876</ele><time>2022-01-15T10:54:42Z</time><extensions><speed>0.661306</speed><course>190.951218</course><hAcc>2.949525</hAcc><vAcc>0.392986</vAcc></extensions></trkpt>
      <trkpt lon="-3.058684" lat="52.700291"><ele>245.533432</ele><time>2022-01-15T10:54:43Z</time><extensions><speed>0.711700</speed><course>191.637054</course><hAcc>2.981608</hAcc><vAcc>0.396874</vAcc></extensions></trkpt>
      <trkpt lon="-3.058686" lat="52.700284"><ele>245.311920</ele><time>2022-01-15T10:54:44Z</time><extensions><speed>0.745784</speed><course>192.178986</course><hAcc>3.012877</hAcc><vAcc>0.401201</vAcc></extensions></trkpt>
      <trkpt lon="-3.058690" lat="52.700276"><ele>245.087143</ele><time>2022-01-15T10:54:45Z</time><extensions><speed>0.787170</speed><course>192.827194</course><hAcc>3.041765</hAcc><vAcc>0.405655</vAcc></extensions></trkpt>
      <trkpt lon="-3.058693" lat="52.700268"><ele>244.857544</ele><time>2022-01-15T10:54:46Z</time><extensions><speed>0.789494</speed><course>193.534134</course><hAcc>3.071452</hAcc><vAcc>0.410032</vAcc></extensions></trkpt>
      <trkpt lon="-3.058696" lat="52.700260"><ele>244.624527</ele><time>2022-01-15T10:54:47Z</time><extensions><speed>0.776202</speed><course>194.131165</course><hAcc>3.092661</hAcc><vAcc>0.414112</vAcc></extensions></trkpt>
      <trkpt lon="-3.058700" lat="52.700252"><ele>244.380371</ele><time>2022-01-15T10:54:48Z</time><extensions><speed>0.774747</speed><course>194.680115</course><hAcc>3.100382</hAcc><vAcc>0.417594</vAcc></extensions></trkpt>
      <trkpt lon="-3.058704" lat="52.700244"><ele>244.135391</ele><time>2022-01-15T10:54:49Z</time><extensions><speed>0.757205</speed><course>195.410583</course><hAcc>3.101218</hAcc><vAcc>0.420166</vAcc></extensions></trkpt>
      <trkpt lon="-3.058708" lat="52.700236"><ele>243.893082</ele><time>2022-01-15T10:54:50Z</time><extensions><speed>0.703830</speed><course>196.304031</course><hAcc>3.100779</hAcc><vAcc>0.421648</vAcc></extensions></trkpt>
      <trkpt lon="-3.058712" lat="52.700229"><ele>243.639725</ele><time>2022-01-15T10:54:51Z</time><extensions><speed>0.673112</speed><course>197.917694</course><hAcc>3.091585</hAcc><vAcc>0.422060</vAcc></extensions></trkpt>
      <trkpt lon="-3.058716" lat="52.700222"><ele>243.382416</ele><time>2022-01-15T10:54:52Z</time><extensions><speed>0.627596</speed><course>199.604843</course><hAcc>3.079306</hAcc><vAcc>0.421643</vAcc></extensions></trkpt>
      <trkpt lon="-3.058720" lat="52.700216"><ele>243.126114</ele><time>2022-01-15T10:54:53Z</time><extensions><speed>0.622071</speed><course>201.153641</course><hAcc>3.059444</hAcc><vAcc>0.420718</vAcc></extensions></trkpt>
      <trkpt lon="-3.058725" lat="52.700209"><ele>242.872620</ele><time>2022-01-15T10:54:54Z</time><extensions><speed>0.618986</speed><course>202.318558</course><hAcc>3.040970</hAcc><vAcc>0.419480</vAcc></extensions></trkpt>
      <trkpt lon="-3.058729" lat="52.700203"><ele>242.617004</ele><time>2022-01-15T10:54:55Z</time><extensions><speed>0.585446</speed><course>203.003922</course><hAcc>3.029553</hAcc><vAcc>0.418142</vAcc></extensions></trkpt>
      <trkpt lon="-3.058733" lat="52.700197"><ele>242.363846</ele><time>2022-01-15T10:54:56Z</time><extensions><speed>0.627082</speed><course>203.381378</course><hAcc>3.010027</hAcc><vAcc>0.416812</vAcc></extensions></trkpt>
      <trkpt lon="-3.058738" lat="52.700191"><ele>242.116150</ele><time>2022-01-15T10:54:57Z</time><extensions><speed>0.601034</speed><course>203.988876</course><hAcc>3.002976</hAcc><vAcc>0.415561</vAcc></extensions></trkpt>
      <trkpt lon="-3.058743" lat="52.700185"><ele>241.874008</ele><time>2022-01-15T10:54:58Z</time><extensions><speed>0.596171</speed><course>204.505432</course><hAcc>2.997680</hAcc><vAcc>0.414413</vAcc></extensions></trkpt>
      <trkpt lon="-3.058747" lat="52.700178"><ele>241.634399</ele><time>2022-01-15T10:55:00Z</time><extensions><speed>0.601118</speed><course>204.510269</course><hAcc>2.992051</hAcc><vAcc>0.413431</vAcc></extensions></trkpt>
      <trkpt lon="-3.058752" lat="52.700172"><ele>241.398102</ele><time>2022-01-15T10:55:01Z</time><extensions><speed>0.626605</speed><course>204.212143</course><hAcc>2.989136</hAcc><vAcc>0.412614</vAcc></extensions></trkpt>
      <trkpt lon="-3.058756" lat="52.700165"><ele>241.161713</ele><time>2022-01-15T10:55:02Z</time><extensions><speed>0.608164</speed><course>203.353058</course><hAcc>2.997277</hAcc><vAcc>0.411925</vAcc></extensions></trkpt>
      <trkpt lon="-3.058759" lat="52.700159"><ele>240.926422</ele><time>2022-01-15T10:55:03Z</time><extensions><speed>0.628095</speed><course>202.131851</course><hAcc>3.003539</hAcc><vAcc>0.411434</vAcc></extensions></trkpt>
      <trkpt lon="-3.058763" lat="52.700153"><ele>240.688553</ele><time>2022-01-15T10:55:04Z</time><extensions><speed>0.660255</speed><course>200.872101</course><hAcc>3.010790</hAcc><vAcc>0.411204</vAcc></extensions></trkpt>
      <trkpt lon="-3.058766" lat="52.700146"><ele>240.450516</ele><time>2022-01-15T10:55:05Z</time><extensions><speed>0.671524</speed><course>199.591736</course><hAcc>3.024633</hAcc><vAcc>0.411344</vAcc></extensions></trkpt>
      <trkpt lon="-3.058769" lat="52.700139"><ele>240.209824</ele><time>2022-01-15T10:55:06Z</time><extensions><speed>0.680651</speed><course>198.357193</course><hAcc>3.040753</hAcc><vAcc>0.411997</vAcc></extensions></trkpt>
      <trkpt lon="-3.058773" lat="52.700132"><ele>239.973923</ele><time>2022-01-15T10:55:07Z</time><extensions><speed>0.679726</speed><course>197.048370</course><hAcc>3.058619</hAcc><vAcc>0.413305</vAcc></extensions></trkpt>
      <trkpt lon="-3.058777" lat="52.700124"><ele>239.742050</ele><time>2022-01-15T10:55:08Z</time><extensions><speed>0.664423</speed><course>195.359421</course><hAcc>3.074504</hAcc><vAcc>0.415324</vAcc></extensions></trkpt>
      <trkpt lon="-3.058780" lat="52.700117"><ele>239.512131</ele><time>2022-01-15T10:55:09Z</time><extensions><speed>0.684214</speed><course>192.929001</course><hAcc>3.080046</hAcc><vAcc>0.417990</vAcc></extensions></trkpt>
      <trkpt lon="-3.058782" lat="52.700109"><ele>239.279816</ele><time>2022-01-15T10:55:10Z</time><extensions><speed>0.696318</speed><course>190.532410</course><hAcc>3.083426</hAcc><vAcc>0.421120</vAcc></extensions></trkpt>
      <trkpt lon="-3.058784" lat="52.700101"><ele>239.047104</ele><time>2022-01-15T10:55:11Z</time><extensions><speed>0.703216</speed><course>188.836792</course><hAcc>3.090191</hAcc><vAcc>0.424386</vAcc></extensions></trkpt>
      <trkpt lon="-3.058786" lat="52.700093"><ele>238.815338</ele><time>2022-01-15T10:55:12Z</time><extensions><speed>0.717497</speed><course>187.992889</course><hAcc>3.104486</hAcc><vAcc>0.427369</vAcc></extensions></trkpt>
      <trkpt lon="-3.058788" lat="52.700086"><ele>238.581055</ele><time>2022-01-15T10:55:13Z</time><extensions><speed>0.700643</speed><course>188.313187</course><hAcc>3.129196</hAcc><vAcc>0.429832</vAcc></extensions></trkpt>
      <trkpt lon="-3.058791" lat="52.700077"><ele>238.344269</ele><time>2022-01-15T10:55:14Z</time><extensions><speed>0.748767</speed><course>189.301056</course><hAcc>3.147774</hAcc><vAcc>0.431625</vAcc></extensions></trkpt>
      <trkpt lon="-3.058793" lat="52.700069"><ele>238.099701</ele><time>2022-01-15T10:55:15Z</time><extensions><speed>0.793258</speed><course>190.259750</course><hAcc>3.165897</hAcc><vAcc>0.432642</vAcc></extensions></trkpt>
      <trkpt lon="-3.058796" lat="52.700061"><ele>237.845398</ele><time>2022-01-15T10:55:16Z</time><extensions><speed>0.827377</speed><course>190.914993</course><hAcc>3.176623</hAcc><vAcc>0.432791</vAcc></extensions></trkpt>
      <trkpt lon="-3.058799" lat="52.700052"><ele>237.583679</ele><time>2022-01-15T10:55:17Z</time><extensions><speed>0.949126</speed><course>191.181580</course><hAcc>3.164423</hAcc><vAcc>0.432050</vAcc></extensions></trkpt>
      <trkpt lon="-3.058802" lat="52.700042"><ele>237.310211</ele><time>2022-01-15T10:55:18Z</time><extensions><speed>1.030293</speed><course>191.369736</course><hAcc>3.148583</hAcc><vAcc>0.430469</vAcc></extensions></trkpt>
      <trkpt lon="-3.058806" lat="52.700032"><ele>237.026321</ele><time>2022-01-15T10:55:19Z</time><extensions><speed>1.039157</speed><course>191.507202</course><hAcc>3.139485</hAcc><vAcc>0.428215</vAcc></extensions></trkpt>
      <trkpt lon="-3.058810" lat="52.700021"><ele>236.731979</ele><time>2022-01-15T10:55:20Z</time><extensions><speed>1.011386</speed><course>191.838638</course><hAcc>3.130021</hAcc><vAcc>0.425423</vAcc></extensions></trkpt>
      <trkpt lon="-3.058813" lat="52.700011"><ele>236.439545</ele><time>2022-01-15T10:55:21Z</time><extensions><speed>0.985669</speed><course>192.527939</course><hAcc>3.112005</hAcc><vAcc>0.422157</vAcc></extensions></trkpt>
      <trkpt lon="-3.058817" lat="52.700002"><ele>236.145676</ele><time>2022-01-15T10:55:22Z</time><extensions><speed>0.959619</speed><course>193.541397</course><hAcc>3.088189</hAcc><vAcc>0.418561</vAcc></extensions></trkpt>
      <trkpt lon="-3.058821" lat="52.699993"><ele>235.854279</ele><time>2022-01-15T10:55:23Z</time><extensions><speed>0.922951</speed><course>194.714081</course><hAcc>3.063467</hAcc><vAcc>0.414639</vAcc></extensions></trkpt>
      <trkpt lon="-3.058826" lat="52.699983"><ele>235.564499</ele><time>2022-01-15T10:55:24Z</time><extensions><speed>0.899345</speed><course>195.715424</course><hAcc>3.036427</hAcc><vAcc>0.410617</vAcc></extensions></trkpt>
      <trkpt lon="-3.058829" lat="52.699975"><ele>235.280151</ele><time>2022-01-15T10:55:25Z</time><extensions><speed>0.898622</speed><course>196.306000</course><hAcc>3.005852</hAcc><vAcc>0.406622</vAcc></extensions></trkpt>
      <trkpt lon="-3.058833" lat="52.699965"><ele>234.997543</ele><time>2022-01-15T10:55:26Z</time><extensions><speed>0.910562</speed><course>196.492249</course><hAcc>2.977762</hAcc><vAcc>0.402911</vAcc></extensions></trkpt>
      <trkpt lon="-3.058837" lat="52.699956"><ele>234.727386</ele><time>2022-01-15T10:55:27Z</time><extensions><speed>0.916031</speed><course>196.097443</course><hAcc>2.958176</hAcc><vAcc>0.399727</vAcc></extensions></trkpt>
      <trkpt lon="-3.058840" lat="52.699947"><ele>234.467117</ele><time>2022-01-15T10:55:28Z</time><extensions><speed>0.904853</speed><course>194.840775</course><hAcc>2.942979</hAcc><vAcc>0.396992</vAcc></extensions></trkpt>
      <trkpt lon="-3.058843" lat="52.699938"><ele>234.215317</ele><time>2022-01-15T10:55:29Z</time><extensions><speed>0.926034</speed><course>193.062286</course><hAcc>2.918558</hAcc><vAcc>0.394914</vAcc></extensions></trkpt>
      <trkpt lon="-3.058846" lat="52.699929"><ele>233.970764</ele><time>2022-01-15T10:55:30Z</time><extensions><speed>0.944609</speed><course>190.985641</course><hAcc>2.888374</hAcc><vAcc>0.393473</vAcc></extensions></trkpt>
      <trkpt lon="-3.058848" lat="52.699920"><ele>233.733826</ele><time>2022-01-15T10:55:31Z</time><extensions><speed>0.942884</speed><course>188.681366</course><hAcc>2.854163</hAcc><vAcc>0.392982</vAcc></extensions></trkpt>
      <trkpt lon="-3.058849" lat="52.699911"><ele>233.503036</ele><time>2022-01-15T10:55:32Z</time><extensions><speed>0.954763</speed><course>185.956711</course><hAcc>2.812809</hAcc><vAcc>0.394049</vAcc></extensions></trkpt>
      <trkpt lon="-3.058850" lat="52.699901"><ele>233.277573</ele><time>2022-01-15T10:55:33Z</time><extensions><speed>0.953274</speed><course>182.715225</course><hAcc>2.768990</hAcc><vAcc>0.397463</vAcc></extensions></trkpt>
      <trkpt lon="-3.058850" lat="52.699892"><ele>233.056854</ele><time>2022-01-15T10:55:34Z</time><extensions><speed>0.971517</speed><course>179.403656</course><hAcc>2.722015</hAcc><vAcc>0.404116</vAcc></extensions></trkpt>
      <trkpt lon="-3.058849" lat="52.699883"><ele>232.842224</ele><time>2022-01-15T10:55:35Z</time><extensions><speed>1.012639</speed><course>176.671082</course><hAcc>2.667052</hAcc><vAcc>0.414869</vAcc></extensions></trkpt>
      <trkpt lon="-3.058847" lat="52.699873"><ele>232.636047</ele><time>2022-01-15T10:55:36Z</time><extensions><speed>1.141089</speed><course>174.830078</course><hAcc>2.587526</hAcc><vAcc>0.430169</vAcc></extensions></trkpt>
      <trkpt lon="-3.058844" lat="52.699861"><ele>232.437180</ele><time>2022-01-15T10:55:37Z</time><extensions><speed>1.446715</speed><course>174.332626</course><hAcc>2.477670</hAcc><vAcc>0.449602</vAcc></extensions></trkpt>
      <trkpt lon="-3.058841" lat="52.699847"><ele>232.251526</ele><time>2022-01-15T10:55:38Z</time><extensions><speed>1.513682</speed><course>174.066422</course><hAcc>2.397001</hAcc><vAcc>0.471803</vAcc></extensions></trkpt>
      <trkpt lon="-3.058839" lat="52.699834"><ele>232.075302</ele><time>2022-01-15T10:55:39Z</time><extensions><speed>1.361892</speed><course>175.030991</course><hAcc>2.358068</hAcc><vAcc>0.495199</vAcc></extensions></trkpt>
      <trkpt lon="-3.058836" lat="52.699822"><ele>231.907959</ele><time>2022-01-15T10:55:40Z</time><extensions><speed>1.250999</speed><course>174.145676</course><hAcc>2.304059</hAcc><vAcc>0.518194</vAcc></extensions></trkpt>
      <trkpt lon="-3.058833" lat="52.699810"><ele>231.754440</ele><time>2022-01-15T10:55:41Z</time><extensions><speed>1.291058</speed><course>171.402847</course><hAcc>2.199351</hAcc><vAcc>0.539585</vAcc></extensions></trkpt>
      <trkpt lon="-3.058830" lat="52.699799"><ele>231.606583</ele><time>2022-01-15T10:55:42Z</time><extensions><speed>1.234801</speed><course>170.241318</course><hAcc>2.122799</hAcc><vAcc>0.558738</vAcc></extensions></trkpt>
      <trkpt lon="-3.058827" lat="52.699788"><ele>231.466675</ele><time>2022-01-15T10:55:43Z</time><extensions><speed>1.006419</speed><course>174.101273</course><hAcc>2.139483</hAcc><vAcc>0.575156</vAcc></extensions></trkpt>
      <trkpt lon="-3.058826" lat="52.699780"><ele>231.327957</ele><time>2022-01-15T10:55:44Z</time><extensions><speed>0.884578</speed><course>177.952438</course><hAcc>2.162042</hAcc><vAcc>0.588705</vAcc></extensions></trkpt>
      <trkpt lon="-3.058825" lat="52.699771"><ele>231.198196</ele><time>2022-01-15T10:55:45Z</time><extensions><speed>0.934874</speed><course>174.077499</course><hAcc>2.131413</hAcc><vAcc>0.599608</vAcc></extensions></trkpt>
      <trkpt lon="-3.058824" lat="52.699763"><ele>231.069382</ele><time>2022-01-15T10:55:46Z</time><extensions><speed>0.979837</speed><course>170.768234</course><hAcc>2.098867</hAcc><vAcc>0.607836</vAcc></extensions></trkpt>
      <trkpt lon="-3.058821" lat="52.699754"><ele>230.941498</ele><time>2022-01-15T10:55:47Z</time><extensions><speed>1.078046</speed><course>169.552170</course><hAcc>2.056522</hAcc><vAcc>0.613655</vAcc></extensions></trkpt>
      <trkpt lon="-3.058818" lat="52.699744"><ele>230.807068</ele><time>2022-01-15T10:55:48Z</time><extensions><speed>1.107217</speed><course>171.426300</course><hAcc>2.083855</hAcc><vAcc>0.617421</vAcc></extensions></trkpt>
      <trkpt lon="-3.058817" lat="52.699734"><ele>230.666351</ele><time>2022-01-15T10:55:49Z</time><extensions><speed>1.001874</speed><course>176.202820</course><hAcc>2.155646</hAcc><vAcc>0.619585</vAcc></extensions></trkpt>
      <trkpt lon="-3.058816" lat="52.699725"><ele>230.516647</ele><time>2022-01-15T10:55:50Z</time><extensions><speed>1.080018</speed><course>176.463394</course><hAcc>2.118815</hAcc><vAcc>0.620627</vAcc></extensions></trkpt>
      <trkpt lon="-3.058815" lat="52.699715"><ele>230.347702</ele><time>2022-01-15T10:55:51Z</time><extensions><speed>1.113497</speed><course>178.216949</course><hAcc>2.074045</hAcc><vAcc>0.621130</vAcc></extensions></trkpt>
      <trkpt lon="-3.058814" lat="52.699704"><ele>230.169357</ele><time>2022-01-15T10:55:52Z</time><extensions><speed>1.080133</speed><course>180.583481</course><hAcc>2.042062</hAcc><vAcc>0.621647</vAcc></extensions></trkpt>
      <trkpt lon="-3.058815" lat="52.699695"><ele>229.973984</ele><time>2022-01-15T10:55:53Z</time><extensions><speed>1.064129</speed><course>182.964691</course><hAcc>2.016593</hAcc><vAcc>0.622562</vAcc></extensions></trkpt>
      <trkpt lon="-3.058815" lat="52.699685"><ele>229.765884</ele><time>2022-01-15T10:55:54Z</time><extensions><speed>1.011022</speed><course>184.719391</course><hAcc>2.044077</hAcc><vAcc>0.624059</vAcc></extensions></trkpt>
      <trkpt lon="-3.058816" lat="52.699677"><ele>229.548157</ele><time>2022-01-15T10:55:55Z</time><extensions><speed>0.862667</speed><course>186.482315</course><hAcc>2.101972</hAcc><vAcc>0.626200</vAcc></extensions></trkpt>
      <trkpt lon="-3.058818" lat="52.699669"><ele>229.316833</ele><time>2022-01-15T10:55:56Z</time><extensions><speed>0.895107</speed><course>186.083313</course><hAcc>2.046553</hAcc><vAcc>0.628517</vAcc></extensions></trkpt>
      <trkpt lon="-3.058819" lat="52.699660"><ele>229.080368</ele><time>2022-01-15T10:55:57Z</time><extensions><speed>0.888001</speed><course>186.258057</course><hAcc>2.031320</hAcc><vAcc>0.630695</vAcc></extensions></trkpt>
      <trkpt lon="-3.058820" lat="52.699652"><ele>228.827560</ele><time>2022-01-15T10:55:58Z</time><extensions><speed>0.874775</speed><course>184.187683</course><hAcc>2.066965</hAcc><vAcc>0.632158</vAcc></extensions></trkpt>
      <trkpt lon="-3.058821" lat="52.699645"><ele>228.569305</ele><time>2022-01-15T10:55:59Z</time><extensions><speed>0.831133</speed><course>182.375153</course><hAcc>2.124032</hAcc><vAcc>0.632592</vAcc></extensions></trkpt>
      <trkpt lon="-3.058821" lat="52.699637"><ele>228.302612</ele><time>2022-01-15T10:56:00Z</time><extensions><speed>0.939333</speed><course>176.513474</course><hAcc>2.093982</hAcc><vAcc>0.631809</vAcc></extensions></trkpt>
      <trkpt lon="-3.058820" lat="52.699628"><ele>228.041565</ele><time>2022-01-15T10:56:01Z</time><extensions><speed>0.969555</speed><course>172.933075</course><hAcc>2.104421</hAcc><vAcc>0.629809</vAcc></extensions></trkpt>
      <trkpt lon="-3.058818" lat="52.699619"><ele>227.773972</ele><time>2022-01-15T10:56:02Z</time><extensions><speed>1.027011</speed><course>170.981705</course><hAcc>2.143683</hAcc><vAcc>0.626770</vAcc></extensions></trkpt>
      <trkpt lon="-3.058815" lat="52.699610"><ele>227.507187</ele><time>2022-01-15T10:56:03Z</time><extensions><speed>1.064415</speed><course>170.666412</course><hAcc>2.208461</hAcc><vAcc>0.623093</vAcc></extensions></trkpt>
      <trkpt lon="-3.058813" lat="52.699600"><ele>227.238831</ele><time>2022-01-15T10:56:04Z</time><extensions><speed>1.082893</speed><course>171.570343</course><hAcc>2.272635</hAcc><vAcc>0.619255</vAcc></extensions></trkpt>
      <trkpt lon="-3.058810" lat="52.699590"><ele>226.975937</ele><time>2022-01-15T10:56:05Z</time><extensions><speed>1.096365</speed><course>173.411011</course><hAcc>2.321392</hAcc><vAcc>0.615478</vAcc></extensions></trkpt>
      <trkpt lon="-3.058809" lat="52.699580"><ele>226.711029</ele><time>2022-01-15T10:56:06Z</time><extensions><speed>1.065580</speed><course>175.293091</course><hAcc>2.363522</hAcc><vAcc>0.611628</vAcc></extensions></trkpt>
      <trkpt lon="-3.058808" lat="52.699571"><ele>226.447800</ele><time>2022-01-15T10:56:07Z</time><extensions><speed>0.983494</speed><course>177.590759</course><hAcc>2.402397</hAcc><vAcc>0.607024</vAcc></extensions></trkpt>
      <trkpt lon="-3.058808" lat="52.699562"><ele>226.186569</ele><time>2022-01-15T10:56:08Z</time><extensions><speed>0.951316</speed><course>179.659271</course><hAcc>2.410080</hAcc><vAcc>0.600599</vAcc></extensions></trkpt>
      <trkpt lon="-3.058808" lat="52.699553"><ele>225.926620</ele><time>2022-01-15T10:56:09Z</time><extensions><speed>0.886388</speed><course>181.926514</course><hAcc>2.413930</hAcc><vAcc>0.591500</vAcc></extensions></trkpt>
      <trkpt lon="-3.058809" lat="52.699545"><ele>225.677521</ele><time>2022-01-15T10:56:10Z</time><extensions><speed>0.828398</speed><course>182.920914</course><hAcc>2.384052</hAcc><vAcc>0.578997</vAcc></extensions></trkpt>
      <trkpt lon="-3.058810" lat="52.699538"><ele>225.429718</ele><time>2022-01-15T10:56:11Z</time><extensions><speed>0.690967</speed><course>185.246933</course><hAcc>2.385485</hAcc><vAcc>0.563192</vAcc></extensions></trkpt>
      <trkpt lon="-3.058812" lat="52.699533"><ele>225.180542</ele><time>2022-01-15T10:56:12Z</time><extensions><speed>0.398124</speed><course>188.582291</course><hAcc>2.441058</hAcc><vAcc>0.544733</vAcc></extensions></trkpt>
      <trkpt lon="-3.058813" lat="52.699529"><ele>224.931595</ele><time>2022-01-15T10:56:13Z</time><extensions><speed>0.395484</speed><course>192.430496</course><hAcc>2.461050</hAcc><vAcc>0.524786</vAcc></extensions></trkpt>
      <trkpt lon="-3.058815" lat="52.699525"><ele>224.686966</ele><time>2022-01-15T10:56:14Z</time><extensions><speed>0.468231</speed><course>195.582977</course><hAcc>2.469925</hAcc><vAcc>0.505087</vAcc></extensions></trkpt>
      <trkpt lon="-3.058818" lat="52.699521"><ele>224.423340</ele><time>2022-01-15T10:56:15Z</time><extensions><speed>0.630733</speed><course>197.774719</course><hAcc>2.456267</hAcc><vAcc>0.487809</vAcc></extensions></trkpt>
      <trkpt lon="-3.058822" lat="52.699514"><ele>224.151001</ele><time>2022-01-15T10:56:16Z</time><extensions><speed>0.902017</speed><course>198.353592</course><hAcc>2.416324</hAcc><vAcc>0.475199</vAcc></extensions></trkpt>
      <trkpt lon="-3.058827" lat="52.699506"><ele>223.870224</ele><time>2022-01-15T10:56:17Z</time><extensions><speed>1.014328</speed><course>198.448029</course><hAcc>2.404038</hAcc><vAcc>0.469175</vAcc></extensions></trkpt>
      <trkpt lon="-3.058831" lat="52.699497"><ele>223.580276</ele><time>2022-01-15T10:56:18Z</time><extensions><speed>1.017457</speed><course>196.291870</course><hAcc>2.449382</hAcc><vAcc>0.470261</vAcc></extensions></trkpt>
      <trkpt lon="-3.058835" lat="52.699488"><ele>223.285690</ele><time>2022-01-15T10:56:19Z</time><extensions><speed>0.908719</speed><course>190.493881</course><hAcc>2.528516</hAcc><vAcc>0.477177</vAcc></extensions></trkpt>
      <trkpt lon="-3.058837" lat="52.699480"><ele>222.985992</ele><time>2022-01-15T10:56:20Z</time><extensions><speed>0.854810</speed><course>191.483078</course><hAcc>2.527904</hAcc><vAcc>0.487451</vAcc></extensions></trkpt>
      <trkpt lon="-3.058840" lat="52.699473"><ele>222.686478</ele><time>2022-01-15T10:56:21Z</time><extensions><speed>0.866022</speed><course>196.094589</course><hAcc>2.470467</hAcc><vAcc>0.498554</vAcc></extensions></trkpt>
      <trkpt lon="-3.058844" lat="52.699465"><ele>222.384979</ele><time>2022-01-15T10:56:22Z</time><extensions><speed>0.862774</speed><course>199.941269</course><hAcc>2.417405</hAcc><vAcc>0.508507</vAcc></extensions></trkpt>
      <trkpt lon="-3.058849" lat="52.699458"><ele>222.081802</ele><time>2022-01-15T10:56:23Z</time><extensions><speed>0.857136</speed><course>205.548218</course><hAcc>2.383519</hAcc><vAcc>0.515966</vAcc></extensions></trkpt>
      <trkpt lon="-3.058855" lat="52.699451"><ele>221.786484</ele><time>2022-01-15T10:56:24Z</time><extensions><speed>0.801159</speed><course>209.171555</course><hAcc>2.401816</hAcc><vAcc>0.520125</vAcc></extensions></trkpt>
      <trkpt lon="-3.058861" lat="52.699445"><ele>221.494873</ele><time>2022-01-15T10:56:25Z</time><extensions><speed>0.729692</speed><course>210.362427</course><hAcc>2.435422</hAcc><vAcc>0.520568</vAcc></extensions></trkpt>
      <trkpt lon="-3.058866" lat="52.699439"><ele>221.225830</ele><time>2022-01-15T10:56:26Z</time><extensions><speed>0.632495</speed><course>210.652145</course><hAcc>2.438296</hAcc><vAcc>0.517167</vAcc></extensions></trkpt>
      <trkpt lon="-3.058870" lat="52.699435"><ele>220.963852</ele><time>2022-01-15T10:56:27Z</time><extensions><speed>0.481519</speed><course>207.613434</course><hAcc>2.474988</hAcc><vAcc>0.510159</vAcc></extensions></trkpt>
      <trkpt lon="-3.058871" lat="52.699431"><ele>220.703369</ele><time>2022-01-15T10:56:28Z</time><extensions><speed>0.254719</speed><course>199.738007</course><hAcc>2.543429</hAcc><vAcc>0.500107</vAcc></extensions></trkpt>
      <trkpt lon="-3.058872" lat="52.699429"><ele>220.463516</ele><time>2022-01-15T10:56:29Z</time><extensions><speed>0.214792</speed><course>187.286133</course><hAcc>2.575954</hAcc><vAcc>0.487944</vAcc></extensions></trkpt>
      <trkpt lon="-3.058872" lat="52.699427"><ele>220.231613</ele><time>2022-01-15T10:56:30Z</time><extensions><speed>0.227654</speed><course>178.322617</course><hAcc>2.597739</hAcc><vAcc>0.474799</vAcc></extensions></trkpt>
      <trkpt lon="-3.058871" lat="52.699424"><ele>220.014572</ele><time>2022-01-15T10:56:31Z</time><extensions><speed>0.269932</speed><course>172.987106</course><hAcc>2.624015</hAcc><vAcc>0.461978</vAcc></extensions></trkpt>
      <trkpt lon="-3.058870" lat="52.699421"><ele>219.804184</ele><time>2022-01-15T10:56:32Z</time><extensions><speed>0.347880</speed><course>170.336304</course><hAcc>2.673806</hAcc><vAcc>0.450513</vAcc></extensions></trkpt>
      <trkpt lon="-3.058869" lat="52.699418"><ele>219.604797</ele><time>2022-01-15T10:56:33Z</time><extensions><speed>0.276232</speed><course>166.503891</course><hAcc>2.770797</hAcc><vAcc>0.440978</vAcc></extensions></trkpt>
      <trkpt lon="-3.058868" lat="52.699415"><ele>219.408539</ele><time>2022-01-15T10:56:34Z</time><extensions><speed>0.286014</speed><course>163.433075</course><hAcc>2.839134</hAcc><vAcc>0.433516</vAcc></extensions></trkpt>
      <trkpt lon="-3.058867" lat="52.699412"><ele>219.221512</ele><time>2022-01-15T10:56:35Z</time><extensions><speed>0.401418</speed><course>162.252136</course><hAcc>2.855927</hAcc><vAcc>0.427897</vAcc></extensions></trkpt>
      <trkpt lon="-3.058864" lat="52.699407"><ele>219.020660</ele><time>2022-01-15T10:56:36Z</time><extensions><speed>0.711379</speed><course>162.561783</course><hAcc>2.823294</hAcc><vAcc>0.423776</vAcc></extensions></trkpt>
      <trkpt lon="-3.058861" lat="52.699399"><ele>218.825150</ele><time>2022-01-15T10:56:37Z</time><extensions><speed>0.880290</speed><course>160.972244</course><hAcc>2.812123</hAcc><vAcc>0.420767</vAcc></extensions></trkpt>
      <trkpt lon="-3.058857" lat="52.699391"><ele>218.631149</ele><time>2022-01-15T10:56:38Z</time><extensions><speed>0.923257</speed><course>161.124557</course><hAcc>2.819271</hAcc><vAcc>0.418449</vAcc></extensions></trkpt>
      <trkpt lon="-3.058852" lat="52.699382"><ele>218.435089</ele><time>2022-01-15T10:56:39Z</time><extensions><speed>1.126224</speed><course>161.647675</course><hAcc>2.804597</hAcc><vAcc>0.416635</vAcc></extensions></trkpt>
      <trkpt lon="-3.058847" lat="52.699372"><ele>218.234344</ele><time>2022-01-15T10:56:40Z</time><extensions><speed>1.210939</speed><course>162.311996</course><hAcc>2.781218</hAcc><vAcc>0.415275</vAcc></extensions></trkpt>
      <trkpt lon="-3.058841" lat="52.699361"><ele>218.022400</ele><time>2022-01-15T10:56:41Z</time><extensions><speed>1.236692</speed><course>165.451538</course><hAcc>2.717557</hAcc><vAcc>0.414507</vAcc></extensions></trkpt>
      <trkpt lon="-3.058837" lat="52.699350"><ele>217.804581</ele><time>2022-01-15T10:56:42Z</time><extensions><speed>1.203195</speed><course>169.829605</course><hAcc>2.677636</hAcc><vAcc>0.414663</vAcc></extensions></trkpt>
      <trkpt lon="-3.058835" lat="52.699339"><ele>217.581223</ele><time>2022-01-15T10:56:43Z</time><extensions><speed>1.095975</speed><course>174.008240</course><hAcc>2.684837</hAcc><vAcc>0.416245</vAcc></extensions></trkpt>
      <trkpt lon="-3.058833" lat="52.699329"><ele>217.346283</ele><time>2022-01-15T10:56:44Z</time><extensions><speed>1.059728</speed><course>179.107086</course><hAcc>2.640293</hAcc><vAcc>0.419808</vAcc></extensions></trkpt>
      <trkpt lon="-3.058833" lat="52.699319"><ele>217.102905</ele><time>2022-01-15T10:56:45Z</time><extensions><speed>1.066699</speed><course>182.429581</course><hAcc>2.571594</hAcc><vAcc>0.425650</vAcc></extensions></trkpt>
      <trkpt lon="-3.058834" lat="52.699309"><ele>216.849899</ele><time>2022-01-15T10:56:46Z</time><extensions><speed>1.032739</speed><course>183.505798</course><hAcc>2.525052</hAcc><vAcc>0.433546</vAcc></extensions></trkpt>
      <trkpt lon="-3.058834" lat="52.699300"><ele>216.584183</ele><time>2022-01-15T10:56:47Z</time><extensions><speed>0.985984</speed><course>184.956329</course><hAcc>2.499420</hAcc><vAcc>0.442744</vAcc></extensions></trkpt>
      <trkpt lon="-3.058836" lat="52.699291"><ele>216.305618</ele><time>2022-01-15T10:56:48Z</time><extensions><speed>0.902959</speed><course>186.488037</course><hAcc>2.493487</hAcc><vAcc>0.452231</vAcc></extensions></trkpt>
      <trkpt lon="-3.058837" lat="52.699283"><ele>216.028778</ele><time>2022-01-15T10:56:49Z</time><extensions><speed>0.830108</speed><course>185.587997</course><hAcc>2.506457</hAcc><vAcc>0.461001</vAcc></extensions></trkpt>
      <trkpt lon="-3.058838" lat="52.699276"><ele>215.750290</ele><time>2022-01-15T10:56:50Z</time><extensions><speed>0.811208</speed><course>184.139862</course><hAcc>2.512120</hAcc><vAcc>0.468226</vAcc></extensions></trkpt>
      <trkpt lon="-3.058839" lat="52.699268"><ele>215.473892</ele><time>2022-01-15T10:56:51Z</time><extensions><speed>0.759335</speed><course>182.138947</course><hAcc>2.515869</hAcc><vAcc>0.473388</vAcc></extensions></trkpt>
      <trkpt lon="-3.058839" lat="52.699261"><ele>215.202515</ele><time>2022-01-15T10:56:52Z</time><extensions><speed>0.792348</speed><course>179.939743</course><hAcc>2.479829</hAcc><vAcc>0.476318</vAcc></extensions></trkpt>
      <trkpt lon="-3.058839" lat="52.699254"><ele>214.941879</ele><time>2022-01-15T10:56:53Z</time><extensions><speed>0.780440</speed><course>179.251083</course><hAcc>2.484885</hAcc><vAcc>0.477191</vAcc></extensions></trkpt>
      <trkpt lon="-3.058839" lat="52.699247"><ele>214.684723</ele><time>2022-01-15T10:56:54Z</time><extensions><speed>0.701379</speed><course>178.128922</course><hAcc>2.529490</hAcc><vAcc>0.476491</vAcc></extensions></trkpt>
      <trkpt lon="-3.058839" lat="52.699241"><ele>214.435516</ele><time>2022-01-15T10:56:55Z</time><extensions><speed>0.586705</speed><course>178.714920</course><hAcc>2.593045</hAcc><vAcc>0.474883</vAcc></extensions></trkpt>
      <trkpt lon="-3.058839" lat="52.699235"><ele>214.204254</ele><time>2022-01-15T10:56:56Z</time><extensions><speed>0.676813</speed><course>180.939529</course><hAcc>2.639900</hAcc><vAcc>0.472803</vAcc></extensions></trkpt>
      <trkpt lon="-3.058839" lat="52.699229"><ele>213.983337</ele><time>2022-01-15T10:56:57Z</time><extensions><speed>0.689720</speed><course>184.072769</course><hAcc>2.686452</hAcc><vAcc>0.470073</vAcc></extensions></trkpt>
      <trkpt lon="-3.058840" lat="52.699223"><ele>213.777512</ele><time>2022-01-15T10:56:58Z</time><extensions><speed>0.707511</speed><course>185.348526</course><hAcc>2.683573</hAcc><vAcc>0.466059</vAcc></extensions></trkpt>
      <trkpt lon="-3.058841" lat="52.699216"><ele>213.571991</ele><time>2022-01-15T10:56:59Z</time><extensions><speed>0.645826</speed><course>184.617538</course><hAcc>2.683459</hAcc><vAcc>0.460338</vAcc></extensions></trkpt>
      <trkpt lon="-3.058841" lat="52.699211"><ele>213.375626</ele><time>2022-01-15T10:57:00Z</time><extensions><speed>0.500733</speed><course>182.003098</course><hAcc>2.702232</hAcc><vAcc>0.453027</vAcc></extensions></trkpt>
      <trkpt lon="-3.058841" lat="52.699206"><ele>213.187195</ele><time>2022-01-15T10:57:01Z</time><extensions><speed>0.450934</speed><course>179.564209</course><hAcc>2.718330</hAcc><vAcc>0.444660</vAcc></extensions></trkpt>
      <trkpt lon="-3.058841" lat="52.699202"><ele>213.006393</ele><time>2022-01-15T10:57:02Z</time><extensions><speed>0.443724</speed><course>177.934998</course><hAcc>2.731591</hAcc><vAcc>0.436032</vAcc></extensions></trkpt>
      <trkpt lon="-3.058841" lat="52.699198"><ele>212.827545</ele><time>2022-01-15T10:57:03Z</time><extensions><speed>0.458841</speed><course>177.088165</course><hAcc>2.744116</hAcc><vAcc>0.428000</vAcc></extensions></trkpt>
      <trkpt lon="-3.058841" lat="52.699194"><ele>212.651093</ele><time>2022-01-15T10:57:04Z</time><extensions><speed>0.489428</speed><course>176.700287</course><hAcc>2.755956</hAcc><vAcc>0.421077</vAcc></extensions></trkpt>
      <trkpt lon="-3.058840" lat="52.699189"><ele>212.476440</ele><time>2022-01-15T10:57:05Z</time><extensions><speed>0.511443</speed><course>176.479355</course><hAcc>2.767071</hAcc><vAcc>0.415473</vAcc></extensions></trkpt>
      <trkpt lon="-3.058839" lat="52.699184"><ele>212.300415</ele><time>2022-01-15T10:57:06Z</time><extensions><speed>0.530646</speed><course>176.284271</course><hAcc>2.772818</hAcc><vAcc>0.411169</vAcc></extensions></trkpt>
      <trkpt lon="-3.058838" lat="52.699179"><ele>212.119293</ele><time>2022-01-15T10:57:07Z</time><extensions><speed>0.557064</speed><course>176.811722</course><hAcc>2.767069</hAcc><vAcc>0.407872</vAcc></extensions></trkpt>
      <trkpt lon="-3.058838" lat="52.699173"><ele>211.939056</ele><time>2022-01-15T10:57:08Z</time><extensions><speed>0.595412</speed><course>179.453125</course><hAcc>2.745039</hAcc><vAcc>0.405117</vAcc></extensions></trkpt>
      <trkpt lon="-3.058837" lat="52.699167"><ele>211.760269</ele><time>2022-01-15T10:57:09Z</time><extensions><speed>0.666590</speed><course>183.611481</course><hAcc>2.699602</hAcc><vAcc>0.402772</vAcc></extensions></trkpt>
      <trkpt lon="-3.058838" lat="52.699160"><ele>211.591248</ele><time>2022-01-15T10:57:10Z</time><extensions><speed>0.786562</speed><course>188.099380</course><hAcc>2.630725</hAcc><vAcc>0.400604</vAcc></extensions></trkpt>
      <trkpt lon="-3.058840" lat="52.699152"><ele>211.411728</ele><time>2022-01-15T10:57:11Z</time><extensions><speed>0.961282</speed><course>192.447189</course><hAcc>2.566919</hAcc><vAcc>0.398280</vAcc></extensions></trkpt>
      <trkpt lon="-3.058843" lat="52.699143"><ele>211.217819</ele><time>2022-01-15T10:57:12Z</time><extensions><speed>0.987163</speed><course>198.113647</course><hAcc>2.561916</hAcc><vAcc>0.395867</vAcc></extensions></trkpt>
      <trkpt lon="-3.058848" lat="52.699134"><ele>211.010925</ele><time>2022-01-15T10:57:13Z</time><extensions><speed>0.941406</speed><course>203.500839</course><hAcc>2.576735</hAcc><vAcc>0.393835</vAcc></extensions></trkpt>
      <trkpt lon="-3.058852" lat="52.699126"><ele>210.799713</ele><time>2022-01-15T10:57:14Z</time><extensions><speed>0.978783</speed><course>197.003403</course><hAcc>2.521925</hAcc><vAcc>0.392904</vAcc></extensions></trkpt>
      <trkpt lon="-3.058855" lat="52.699117"><ele>210.582703</ele><time>2022-01-15T10:57:15Z</time><extensions><speed>0.954850</speed><course>192.786530</course><hAcc>2.498982</hAcc><vAcc>0.393857</vAcc></extensions></trkpt>
      <trkpt lon="-3.058858" lat="52.699108"><ele>210.362366</ele><time>2022-01-15T10:57:16Z</time><extensions><speed>0.880603</speed><course>188.634796</course><hAcc>2.496208</hAcc><vAcc>0.397365</vAcc></extensions></trkpt>
      <trkpt lon="-3.058858" lat="52.699099"><ele>210.139893</ele><time>2022-01-15T10:57:17Z</time><extensions><speed>0.993621</speed><course>177.228622</course><hAcc>2.415648</hAcc><vAcc>0.403868</vAcc></extensions></trkpt>
      <trkpt lon="-3.058857" lat="52.699089"><ele>209.912491</ele><time>2022-01-15T10:57:18Z</time><extensions><speed>1.066266</speed><course>171.571289</course><hAcc>2.344765</hAcc><vAcc>0.413510</vAcc></extensions></trkpt>
      <trkpt lon="-3.058855" lat="52.699079"><ele>209.681320</ele><time>2022-01-15T10:57:19Z</time><extensions><speed>1.004121</speed><course>168.860443</course><hAcc>2.328539</hAcc><vAcc>0.426006</vAcc></extensions></trkpt>
      <trkpt lon="-3.058853" lat="52.699070"><ele>209.452545</ele><time>2022-01-15T10:57:20Z</time><extensions><speed>0.753901</speed><course>167.567337</course><hAcc>2.344230</hAcc><vAcc>0.440392</vAcc></extensions></trkpt>
      <trkpt lon="-3.058852" lat="52.699063"><ele>209.228149</ele><time>2022-01-15T10:57:21Z</time><extensions><speed>0.715509</speed><course>169.915131</course><hAcc>2.322606</hAcc><vAcc>0.455269</vAcc></extensions></trkpt>
      <trkpt lon="-3.058851" lat="52.699057"><ele>209.008209</ele><time>2022-01-15T10:57:22Z</time><extensions><speed>0.790796</speed><course>174.521088</course><hAcc>2.278001</hAcc><vAcc>0.469470</vAcc></extensions></trkpt>
      <trkpt lon="-3.058852" lat="52.699050"><ele>208.798508</ele><time>2022-01-15T10:57:23Z</time><extensions><speed>0.666704</speed><course>178.235962</course><hAcc>2.255877</hAcc><vAcc>0.482434</vAcc></extensions></trkpt>
      <trkpt lon="-3.058852" lat="52.699044"><ele>208.596786</ele><time>2022-01-15T10:57:24Z</time><extensions><speed>0.616829</speed><course>184.269180</course><hAcc>2.231551</hAcc><vAcc>0.494117</vAcc></extensions></trkpt>
      <trkpt lon="-3.058854" lat="52.699039"><ele>208.412430</ele><time>2022-01-15T10:57:25Z</time><extensions><speed>0.589404</speed><course>192.143509</course><hAcc>2.203580</hAcc><vAcc>0.504690</vAcc></extensions></trkpt>
      <trkpt lon="-3.058857" lat="52.699034"><ele>208.232956</ele><time>2022-01-15T10:57:26Z</time><extensions><speed>0.557042</speed><course>202.017975</course><hAcc>2.181438</hAcc><vAcc>0.514284</vAcc></extensions></trkpt>
      <trkpt lon="-3.058861" lat="52.699030"><ele>208.063232</ele><time>2022-01-15T10:57:27Z</time><extensions><speed>0.537921</speed><course>214.060425</course><hAcc>2.166102</hAcc><vAcc>0.522890</vAcc></extensions></trkpt>
      <trkpt lon="-3.058867" lat="52.699027"><ele>207.907211</ele><time>2022-01-15T10:57:28Z</time><extensions><speed>0.519077</speed><course>228.756775</course><hAcc>2.160203</hAcc><vAcc>0.530385</vAcc></extensions></trkpt>
      <trkpt lon="-3.058873" lat="52.699024"><ele>207.762909</ele><time>2022-01-15T10:57:29Z</time><extensions><speed>0.528648</speed><course>247.656662</course><hAcc>2.157014</hAcc><vAcc>0.536621</vAcc></extensions></trkpt>
      <trkpt lon="-3.058882" lat="52.699023"><ele>207.634048</ele><time>2022-01-15T10:57:30Z</time><extensions><speed>0.661311</speed><course>269.686066</course><hAcc>2.141310</hAcc><vAcc>0.541499</vAcc></extensions></trkpt>
      <trkpt lon="-3.058894" lat="52.699025"><ele>207.516876</ele><time>2022-01-15T10:57:31Z</time><extensions><speed>0.974489</speed><course>288.102234</course><hAcc>2.118590</hAcc><vAcc>0.545014</vAcc></extensions></trkpt>
      <trkpt lon="-3.058909" lat="52.699029"><ele>207.415146</ele><time>2022-01-15T10:57:32Z</time><extensions><speed>1.183574</speed><course>299.113312</course><hAcc>2.123366</hAcc><vAcc>0.547303</vAcc></extensions></trkpt>
      <trkpt lon="-3.058925" lat="52.699035"><ele>207.324951</ele><time>2022-01-15T10:57:33Z</time><extensions><speed>1.349167</speed><course>305.507324</course><hAcc>2.141613</hAcc><vAcc>0.548671</vAcc></extensions></trkpt>
      <trkpt lon="-3.058942" lat="52.699043"><ele>207.246170</ele><time>2022-01-15T10:57:34Z</time><extensions><speed>1.466444</speed><course>309.263763</course><hAcc>2.162571</hAcc><vAcc>0.549557</vAcc></extensions></trkpt>
      <trkpt lon="-3.058959" lat="52.699051"><ele>207.177322</ele><time>2022-01-15T10:57:35Z</time><extensions><speed>1.510376</speed><course>311.598236</course><hAcc>2.179853</hAcc><vAcc>0.550505</vAcc></extensions></trkpt>
      <trkpt lon="-3.058976" lat="52.699060"><ele>207.114594</ele><time>2022-01-15T10:57:36Z</time><extensions><speed>1.519311</speed><course>311.127808</course><hAcc>2.177883</hAcc><vAcc>0.552063</vAcc></extensions></trkpt>
      <trkpt lon="-3.058993" lat="52.699069"><ele>207.052567</ele><time>2022-01-15T10:57:37Z</time><extensions><speed>1.444545</speed><course>309.307892</course><hAcc>2.161423</hAcc><vAcc>0.554609</vAcc></extensions></trkpt>
      <trkpt lon="-3.059009" lat="52.699077"><ele>206.990433</ele><time>2022-01-15T10:57:38Z</time><extensions><speed>1.302094</speed><course>306.364258</course><hAcc>2.136077</hAcc><vAcc>0.558305</vAcc></extensions></trkpt>
      <trkpt lon="-3.059025" lat="52.699083"><ele>206.946976</ele><time>2022-01-15T10:57:39Z</time><extensions><speed>1.138288</speed><course>299.381683</course><hAcc>2.105274</hAcc><vAcc>0.563180</vAcc></extensions></trkpt>
      <trkpt lon="-3.059039" lat="52.699087"><ele>206.898056</ele><time>2022-01-15T10:57:40Z</time><extensions><speed>0.963883</speed><course>290.097137</course><hAcc>2.083469</hAcc><vAcc>0.569088</vAcc></extensions></trkpt>
      <trkpt lon="-3.059054" lat="52.699090"><ele>206.853073</ele><time>2022-01-15T10:57:41Z</time><extensions><speed>1.006521</speed><course>285.220886</course><hAcc>2.056416</hAcc><vAcc>0.575842</vAcc></extensions></trkpt>
      <trkpt lon="-3.059067" lat="52.699092"><ele>206.816681</ele><time>2022-01-15T10:57:42Z</time><extensions><speed>0.847972</speed><course>280.454681</course><hAcc>2.060842</hAcc><vAcc>0.583191</vAcc></extensions></trkpt>
      <trkpt lon="-3.059080" lat="52.699093"><ele>206.794601</ele><time>2022-01-15T10:57:43Z</time><extensions><speed>0.865613</speed><course>280.471252</course><hAcc>2.056850</hAcc><vAcc>0.590791</vAcc></extensions></trkpt>
      <trkpt lon="-3.059093" lat="52.699095"><ele>206.775787</ele><time>2022-01-15T10:57:44Z</time><extensions><speed>0.793302</speed><course>284.820160</course><hAcc>2.067065</hAcc><vAcc>0.598283</vAcc></extensions></trkpt>
      <trkpt lon="-3.059105" lat="52.699097"><ele>206.761246</ele><time>2022-01-15T10:57:45Z</time><extensions><speed>0.936558</speed><course>291.382935</course><hAcc>2.053303</hAcc><vAcc>0.605316</vAcc></extensions></trkpt>
      <trkpt lon="-3.059119" lat="52.699101"><ele>206.766708</ele><time>2022-01-15T10:57:46Z</time><extensions><speed>1.098633</speed><course>298.136993</course><hAcc>2.041520</hAcc><vAcc>0.611632</vAcc></extensions></trkpt>
      <trkpt lon="-3.059135" lat="52.699107"><ele>206.781387</ele><time>2022-01-15T10:57:47Z</time><extensions><speed>1.303170</speed><course>304.599304</course><hAcc>2.041945</hAcc><vAcc>0.617068</vAcc></extensions></trkpt>
      <trkpt lon="-3.059151" lat="52.699115"><ele>206.826294</ele><time>2022-01-15T10:57:48Z</time><extensions><speed>1.491643</speed><course>311.432251</course><hAcc>2.069030</hAcc><vAcc>0.621452</vAcc></extensions></trkpt>
      <trkpt lon="-3.059168" lat="52.699124"><ele>206.875809</ele><time>2022-01-15T10:57:49Z</time><extensions><speed>1.511367</speed><course>312.547882</course><hAcc>2.111329</hAcc><vAcc>0.624640</vAcc></extensions></trkpt>
      <trkpt lon="-3.059186" lat="52.699133"><ele>206.935760</ele><time>2022-01-15T10:57:50Z</time><extensions><speed>1.678226</speed><course>308.558075</course><hAcc>2.113673</hAcc><vAcc>0.626519</vAcc></extensions></trkpt>
      <trkpt lon="-3.059207" lat="52.699143"><ele>206.995438</ele><time>2022-01-15T10:57:51Z</time><extensions><speed>1.801726</speed><course>306.303589</course><hAcc>2.112026</hAcc><vAcc>0.627144</vAcc></extensions></trkpt>
      <trkpt lon="-3.059229" lat="52.699152"><ele>207.060211</ele><time>2022-01-15T10:57:52Z</time><extensions><speed>1.910580</speed><course>305.748108</course><hAcc>2.117716</hAcc><vAcc>0.626584</vAcc></extensions></trkpt>
      <trkpt lon="-3.059253" lat="52.699162"><ele>207.124023</ele><time>2022-01-15T10:57:53Z</time><extensions><speed>1.904308</speed><course>304.443573</course><hAcc>2.127307</hAcc><vAcc>0.624972</vAcc></extensions></trkpt>
      <trkpt lon="-3.059276" lat="52.699172"><ele>207.184631</ele><time>2022-01-15T10:57:54Z</time><extensions><speed>1.831970</speed><course>303.476501</course><hAcc>2.136272</hAcc><vAcc>0.622463</vAcc></extensions></trkpt>
      <trkpt lon="-3.059298" lat="52.699180"><ele>207.237289</ele><time>2022-01-15T10:57:55Z</time><extensions><speed>1.734695</speed><course>302.879761</course><hAcc>2.145559</hAcc><vAcc>0.619235</vAcc></extensions></trkpt>
      <trkpt lon="-3.059319" lat="52.699189"><ele>207.277771</ele><time>2022-01-15T10:57:56Z</time><extensions><speed>1.633099</speed><course>302.372528</course><hAcc>2.156427</hAcc><vAcc>0.615479</vAcc></extensions></trkpt>
      <trkpt lon="-3.059340" lat="52.699196"><ele>207.296158</ele><time>2022-01-15T10:57:57Z</time><extensions><speed>1.549657</speed><course>301.916229</course><hAcc>2.169029</hAcc><vAcc>0.611401</vAcc></extensions></trkpt>
      <trkpt lon="-3.059359" lat="52.699203"><ele>207.301605</ele><time>2022-01-15T10:57:58Z</time><extensions><speed>1.496413</speed><course>300.233276</course><hAcc>2.181287</hAcc><vAcc>0.607247</vAcc></extensions></trkpt>
      <trkpt lon="-3.059378" lat="52.699210"><ele>207.290817</ele><time>2022-01-15T10:57:59Z</time><extensions><speed>1.469347</speed><course>297.278595</course><hAcc>2.189943</hAcc><vAcc>0.603301</vAcc></extensions></trkpt>
      <trkpt lon="-3.059398" lat="52.699215"><ele>207.255157</ele><time>2022-01-15T10:58:00Z</time><extensions><speed>1.397579</speed><course>292.840546</course><hAcc>2.202041</hAcc><vAcc>0.599844</vAcc></extensions></trkpt>
      <trkpt lon="-3.059416" lat="52.699219"><ele>207.194763</ele><time>2022-01-15T10:58:01Z</time><extensions><speed>1.298463</speed><course>286.158295</course><hAcc>2.213097</hAcc><vAcc>0.597021</vAcc></extensions></trkpt>
      <trkpt lon="-3.059435" lat="52.699221"><ele>207.109787</ele><time>2022-01-15T10:58:02Z</time><extensions><speed>1.263149</speed><course>278.462341</course><hAcc>2.213885</hAcc><vAcc>0.594752</vAcc></extensions></trkpt>
      <trkpt lon="-3.059453" lat="52.699222"><ele>207.003143</ele><time>2022-01-15T10:58:03Z</time><extensions><speed>1.220693</speed><course>272.926636</course><hAcc>2.212466</hAcc><vAcc>0.592831</vAcc></extensions></trkpt>
      <trkpt lon="-3.059471" lat="52.699223"><ele>206.878677</ele><time>2022-01-15T10:58:04Z</time><extensions><speed>1.149330</speed><course>267.544403</course><hAcc>2.209817</hAcc><vAcc>0.590981</vAcc></extensions></trkpt>
      <trkpt lon="-3.059488" lat="52.699222"><ele>206.733261</ele><time>2022-01-15T10:58:05Z</time><extensions><speed>1.050526</speed><course>262.392670</course><hAcc>2.206999</hAcc><vAcc>0.588900</vAcc></extensions></trkpt>
      <trkpt lon="-3.059502" lat="52.699220"><ele>206.576233</ele><time>2022-01-15T10:58:06Z</time><extensions><speed>0.931455</speed><course>256.643036</course><hAcc>2.206634</hAcc><vAcc>0.586319</vAcc></extensions></trkpt>
      <trkpt lon="-3.059515" lat="52.699218"><ele>206.405807</ele><time>2022-01-15T10:58:07Z</time><extensions><speed>0.791220</speed><course>252.016235</course><hAcc>2.200693</hAcc><vAcc>0.583035</vAcc></extensions></trkpt>
      <trkpt lon="-3.059526" lat="52.699216"><ele>206.215378</ele><time>2022-01-15T10:58:08Z</time><extensions><speed>0.855011</speed><course>253.520309</course><hAcc>2.169006</hAcc><vAcc>0.578969</vAcc></extensions></trkpt>
      <trkpt lon="-3.059538" lat="52.699215"><ele>206.007324</ele><time>2022-01-15T10:58:09Z</time><extensions><speed>0.769781</speed><course>257.644928</course><hAcc>2.168999</hAcc><vAcc>0.574167</vAcc></extensions></trkpt>
      <trkpt lon="-3.059548" lat="52.699214"><ele>205.785614</ele><time>2022-01-15T10:58:10Z</time><extensions><speed>0.549570</speed><course>263.885254</course><hAcc>2.199521</hAcc><vAcc>0.568784</vAcc></extensions></trkpt>
      <trkpt lon="-3.059556" lat="52.699214"><ele>205.544373</ele><time>2022-01-15T10:58:11Z</time><extensions><speed>0.524417</speed><course>272.905975</course><hAcc>2.200808</hAcc><vAcc>0.563038</vAcc></extensions></trkpt>
      <trkpt lon="-3.059564" lat="52.699214"><ele>205.290329</ele><time>2022-01-15T10:58:12Z</time><extensions><speed>0.544275</speed><course>281.580292</course><hAcc>2.197028</hAcc><vAcc>0.557222</vAcc></extensions></trkpt>
      <trkpt lon="-3.059573" lat="52.699216"><ele>205.034958</ele><time>2022-01-15T10:58:13Z</time><extensions><speed>0.581678</speed><course>290.807343</course><hAcc>2.201525</hAcc><vAcc>0.551572</vAcc></extensions></trkpt>
      <trkpt lon="-3.059581" lat="52.699219"><ele>204.778427</ele><time>2022-01-15T10:58:14Z</time><extensions><speed>0.672007</speed><course>300.179779</course><hAcc>2.204791</hAcc><vAcc>0.546210</vAcc></extensions></trkpt>
      <trkpt lon="-3.059591" lat="52.699223"><ele>204.523422</ele><time>2022-01-15T10:58:15Z</time><extensions><speed>0.788914</speed><course>306.740875</course><hAcc>2.203268</hAcc><vAcc>0.541223</vAcc></extensions></trkpt>
      <trkpt lon="-3.059602" lat="52.699228"><ele>204.274521</ele><time>2022-01-15T10:58:16Z</time><extensions><speed>0.980185</speed><course>309.387726</course><hAcc>2.191909</hAcc><vAcc>0.536726</vAcc></extensions></trkpt>
      <trkpt lon="-3.059613" lat="52.699234"><ele>204.044540</ele><time>2022-01-15T10:58:17Z</time><extensions><speed>0.978825</speed><course>312.118408</course><hAcc>2.204759</hAcc><vAcc>0.532813</vAcc></extensions></trkpt>
      <trkpt lon="-3.059624" lat="52.699239"><ele>203.838455</ele><time>2022-01-15T10:58:18Z</time><extensions><speed>0.825948</speed><course>313.837952</course><hAcc>2.233218</hAcc><vAcc>0.529481</vAcc></extensions></trkpt>
      <trkpt lon="-3.059633" lat="52.699244"><ele>203.659317</ele><time>2022-01-15T10:58:19Z</time><extensions><speed>0.777372</speed><course>311.310425</course><hAcc>2.244583</hAcc><vAcc>0.526711</vAcc></extensions></trkpt>
      <trkpt lon="-3.059642" lat="52.699249"><ele>203.510391</ele><time>2022-01-15T10:58:20Z</time><extensions><speed>0.789367</speed><course>307.284393</course><hAcc>2.245276</hAcc><vAcc>0.524483</vAcc></extensions></trkpt>
      <trkpt lon="-3.059652" lat="52.699253"><ele>203.392715</ele><time>2022-01-15T10:58:21Z</time><extensions><speed>0.816977</speed><course>304.310242</course><hAcc>2.246350</hAcc><vAcc>0.522675</vAcc></extensions></trkpt>
      <trkpt lon="-3.059663" lat="52.699258"><ele>203.300446</ele><time>2022-01-15T10:58:22Z</time><extensions><speed>0.882859</speed><course>302.903564</course><hAcc>2.244695</hAcc><vAcc>0.521005</vAcc></extensions></trkpt>
      <trkpt lon="-3.059674" lat="52.699262"><ele>203.236908</ele><time>2022-01-15T10:58:23Z</time><extensions><speed>0.936049</speed><course>302.588745</course><hAcc>2.247899</hAcc><vAcc>0.519054</vAcc></extensions></trkpt>
      <trkpt lon="-3.059687" lat="52.699267"><ele>203.200348</ele><time>2022-01-15T10:58:24Z</time><extensions><speed>0.952971</speed><course>302.443634</course><hAcc>2.261167</hAcc><vAcc>0.516350</vAcc></extensions></trkpt>
      <trkpt lon="-3.059699" lat="52.699272"><ele>203.182770</ele><time>2022-01-15T10:58:25Z</time><extensions><speed>0.968263</speed><course>302.209900</course><hAcc>2.280516</hAcc><vAcc>0.512568</vAcc></extensions></trkpt>
      <trkpt lon="-3.059711" lat="52.699276"><ele>203.181992</ele><time>2022-01-15T10:58:26Z</time><extensions><speed>1.004512</speed><course>302.504181</course><hAcc>2.304384</hAcc><vAcc>0.507844</vAcc></extensions></trkpt>
      <trkpt lon="-3.059724" lat="52.699281"><ele>203.190643</ele><time>2022-01-15T10:58:27Z</time><extensions><speed>0.988476</speed><course>303.170746</course><hAcc>2.343376</hAcc><vAcc>0.502714</vAcc></extensions></trkpt>
      <trkpt lon="-3.059737" lat="52.699286"><ele>203.202591</ele><time>2022-01-15T10:58:28Z</time><extensions><speed>0.955283</speed><course>303.960693</course><hAcc>2.383667</hAcc><vAcc>0.497996</vAcc></extensions></trkpt>
      <trkpt lon="-3.059749" lat="52.699291"><ele>203.214218</ele><time>2022-01-15T10:58:29Z</time><extensions><speed>0.964684</speed><course>305.102020</course><hAcc>2.406358</hAcc><vAcc>0.494458</vAcc></extensions></trkpt>
      <trkpt lon="-3.059762" lat="52.699296"><ele>203.219299</ele><time>2022-01-15T10:58:30Z</time><extensions><speed>1.017279</speed><course>306.762299</course><hAcc>2.403421</hAcc><vAcc>0.492629</vAcc></extensions></trkpt>
      <trkpt lon="-3.059775" lat="52.699303"><ele>203.213791</ele><time>2022-01-15T10:58:31Z</time><extensions><speed>1.176681</speed><course>308.973389</course><hAcc>2.369207</hAcc><vAcc>0.492847</vAcc></extensions></trkpt>
      <trkpt lon="-3.059789" lat="52.699310"><ele>203.191727</ele><time>2022-01-15T10:58:32Z</time><extensions><speed>1.263636</speed><course>312.820282</course><hAcc>2.323626</hAcc><vAcc>0.495132</vAcc></extensions></trkpt>
      <trkpt lon="-3.059803" lat="52.699318"><ele>203.150177</ele><time>2022-01-15T10:58:33Z</time><extensions><speed>1.242163</speed><course>315.556702</course><hAcc>2.295128</hAcc><vAcc>0.499101</vAcc></extensions></trkpt>
      <trkpt lon="-3.059815" lat="52.699326"><ele>203.090652</ele><time>2022-01-15T10:58:34Z</time><extensions><speed>1.087078</speed><course>319.482880</course><hAcc>2.296603</hAcc><vAcc>0.503939</vAcc></extensions></trkpt>
      <trkpt lon="-3.059825" lat="52.699333"><ele>203.011673</ele><time>2022-01-15T10:58:35Z</time><extensions><speed>1.025933</speed><course>319.625916</course><hAcc>2.302527</hAcc><vAcc>0.508584</vAcc></extensions></trkpt>
      <trkpt lon="-3.059834" lat="52.699340"><ele>202.914047</ele><time>2022-01-15T10:58:36Z</time><extensions><speed>0.874647</speed><course>325.438477</course><hAcc>2.344363</hAcc><vAcc>0.512109</vAcc></extensions></trkpt>
      <trkpt lon="-3.059842" lat="52.699346"><ele>202.789337</ele><time>2022-01-15T10:58:37Z</time><extensions><speed>1.007866</speed><course>317.374969</course><hAcc>2.279292</hAcc><vAcc>0.513841</vAcc></extensions></trkpt>
      <trkpt lon="-3.059853" lat="52.699353"><ele>202.642303</ele><time>2022-01-15T10:58:38Z</time><extensions><speed>1.099091</speed><course>313.704620</course><hAcc>2.238485</hAcc><vAcc>0.513418</vAcc></extensions></trkpt>
      <trkpt lon="-3.059865" lat="52.699360"><ele>202.484818</ele><time>2022-01-15T10:58:39Z</time><extensions><speed>1.076811</speed><course>313.926208</course><hAcc>2.302826</hAcc><vAcc>0.510778</vAcc></extensions></trkpt>
      <trkpt lon="-3.059876" lat="52.699367"><ele>202.319824</ele><time>2022-01-15T10:58:40Z</time><extensions><speed>0.969886</speed><course>317.255219</course><hAcc>2.395876</hAcc><vAcc>0.505982</vAcc></extensions></trkpt>
      <trkpt lon="-3.059886" lat="52.699373"><ele>202.166443</ele><time>2022-01-15T10:58:41Z</time><extensions><speed>1.008955</speed><course>318.475128</course><hAcc>2.393096</hAcc><vAcc>0.499240</vAcc></extensions></trkpt>
      <trkpt lon="-3.059895" lat="52.699380"><ele>202.008667</ele><time>2022-01-15T10:58:42Z</time><extensions><speed>1.022967</speed><course>320.459656</course><hAcc>2.403493</hAcc><vAcc>0.491006</vAcc></extensions></trkpt>
      <trkpt lon="-3.059905" lat="52.699387"><ele>201.866516</ele><time>2022-01-15T10:58:43Z</time><extensions><speed>1.038251</speed><course>322.001495</course><hAcc>2.456406</hAcc><vAcc>0.482100</vAcc></extensions></trkpt>
      <trkpt lon="-3.059914" lat="52.699395"><ele>201.741348</ele><time>2022-01-15T10:58:44Z</time><extensions><speed>1.032397</speed><course>323.898926</course><hAcc>2.553704</hAcc><vAcc>0.473601</vAcc></extensions></trkpt>
      <trkpt lon="-3.059923" lat="52.699403"><ele>201.628464</ele><time>2022-01-15T10:58:45Z</time><extensions><speed>1.025647</speed><course>325.835602</course><hAcc>2.667443</hAcc><vAcc>0.466509</vAcc></extensions></trkpt>
      <trkpt lon="-3.059932" lat="52.699411"><ele>201.539658</ele><time>2022-01-15T10:58:46Z</time><extensions><speed>1.051965</speed><course>327.906464</course><hAcc>2.771414</hAcc><vAcc>0.461347</vAcc></extensions></trkpt>
      <trkpt lon="-3.059940" lat="52.699419"><ele>201.472000</ele><time>2022-01-15T10:58:47Z</time><extensions><speed>1.104559</speed><course>329.469666</course><hAcc>2.853995</hAcc><vAcc>0.458159</vAcc></extensions></trkpt>
      <trkpt lon="-3.059948" lat="52.699428"><ele>201.428604</ele><time>2022-01-15T10:58:48Z</time><extensions><speed>1.162821</speed><course>330.759949</course><hAcc>2.920348</hAcc><vAcc>0.456668</vAcc></extensions></trkpt>
      <trkpt lon="-3.059957" lat="52.699437"><ele>201.399399</ele><time>2022-01-15T10:58:49Z</time><extensions><speed>1.217272</speed><course>332.062195</course><hAcc>2.977504</hAcc><vAcc>0.456489</vAcc></extensions></trkpt>
      <trkpt lon="-3.059966" lat="52.699447"><ele>201.380066</ele><time>2022-01-15T10:58:50Z</time><extensions><speed>1.280999</speed><course>332.672760</course><hAcc>3.027002</hAcc><vAcc>0.457244</vAcc></extensions></trkpt>
      <trkpt lon="-3.059975" lat="52.699458"><ele>201.365540</ele><time>2022-01-15T10:58:51Z</time><extensions><speed>1.334662</speed><course>332.914276</course><hAcc>3.060412</hAcc><vAcc>0.458633</vAcc></extensions></trkpt>
      <trkpt lon="-3.059984" lat="52.699469"><ele>201.354660</ele><time>2022-01-15T10:58:52Z</time><extensions><speed>1.369375</speed><course>332.716461</course><hAcc>3.075668</hAcc><vAcc>0.460401</vAcc></extensions></trkpt>
      <trkpt lon="-3.059994" lat="52.699480"><ele>201.344543</ele><time>2022-01-15T10:58:53Z</time><extensions><speed>1.355089</speed><course>331.667603</course><hAcc>3.078680</hAcc><vAcc>0.462333</vAcc></extensions></trkpt>
      <trkpt lon="-3.060004" lat="52.699491"><ele>201.333679</ele><time>2022-01-15T10:58:54Z</time><extensions><speed>1.340014</speed><course>330.442444</course><hAcc>3.075040</hAcc><vAcc>0.464289</vAcc></extensions></trkpt>
      <trkpt lon="-3.060013" lat="52.699501"><ele>201.316528</ele><time>2022-01-15T10:58:55Z</time><extensions><speed>1.326539</speed><course>330.264160</course><hAcc>3.080074</hAcc><vAcc>0.466205</vAcc></extensions></trkpt>
      <trkpt lon="-3.060023" lat="52.699512"><ele>201.289108</ele><time>2022-01-15T10:58:56Z</time><extensions><speed>1.306050</speed><course>330.956390</course><hAcc>3.093117</hAcc><vAcc>0.468052</vAcc></extensions></trkpt>
      <trkpt lon="-3.060032" lat="52.699523"><ele>201.256760</ele><time>2022-01-15T10:58:57Z</time><extensions><speed>1.277082</speed><course>331.785736</course><hAcc>3.102876</hAcc><vAcc>0.469866</vAcc></extensions></trkpt>
      <trkpt lon="-3.060040" lat="52.699533"><ele>201.212540</ele><time>2022-01-15T10:58:58Z</time><extensions><speed>1.210224</speed><course>333.333374</course><hAcc>3.101394</hAcc><vAcc>0.471731</vAcc></extensions></trkpt>
      <trkpt lon="-3.060047" lat="52.699543"><ele>201.156952</ele><time>2022-01-15T10:58:59Z</time><extensions><speed>1.139957</speed><course>335.559692</course><hAcc>3.092930</hAcc><vAcc>0.473742</vAcc></extensions></trkpt>
      <trkpt lon="-3.060054" lat="52.699553"><ele>201.097961</ele><time>2022-01-15T10:59:00Z</time><extensions><speed>1.039489</speed><course>338.232117</course><hAcc>3.082104</hAcc><vAcc>0.475959</vAcc></extensions></trkpt>
      <trkpt lon="-3.060059" lat="52.699561"><ele>201.041870</ele><time>2022-01-15T10:59:01Z</time><extensions><speed>0.897050</speed><course>342.657654</course><hAcc>3.085361</hAcc><vAcc>0.478399</vAcc></extensions></trkpt>
      <trkpt lon="-3.060062" lat="52.699569"><ele>200.991669</ele><time>2022-01-15T10:59:02Z</time><extensions><speed>0.699772</speed><course>350.148987</course><hAcc>3.092239</hAcc><vAcc>0.481027</vAcc></extensions></trkpt>
      <trkpt lon="-3.060063" lat="52.699576"><ele>200.945831</ele><time>2022-01-15T10:59:03Z</time><extensions><speed>0.718977</speed><course>357.054779</course><hAcc>3.059682</hAcc><vAcc>0.483717</vAcc></extensions></trkpt>
      <trkpt lon="-3.060064" lat="52.699583"><ele>200.912766</ele><time>2022-01-15T10:59:04Z</time><extensions><speed>0.800743</speed><course>0.591730</course><hAcc>3.000527</hAcc><vAcc>0.486248</vAcc></extensions></trkpt>
      <trkpt lon="-3.060064" lat="52.699591"><ele>200.890152</ele><time>2022-01-15T10:59:05Z</time><extensions><speed>0.916460</speed><course>1.537243</course><hAcc>2.920321</hAcc><vAcc>0.488311</vAcc></extensions></trkpt>
      <trkpt lon="-3.060065" lat="52.699601"><ele>200.879730</ele><time>2022-01-15T10:59:06Z</time><extensions><speed>1.070435</speed><course>1.212933</course><hAcc>2.826371</hAcc><vAcc>0.489583</vAcc></extensions></trkpt>
      <trkpt lon="-3.060065" lat="52.699612"><ele>200.898209</ele><time>2022-01-15T10:59:07Z</time><extensions><speed>1.255403</speed><course>0.671489</course><hAcc>2.751341</hAcc><vAcc>0.489873</vAcc></extensions></trkpt>
      <trkpt lon="-3.060066" lat="52.699624"><ele>200.925140</ele><time>2022-01-15T10:59:08Z</time><extensions><speed>1.225184</speed><course>0.549689</course><hAcc>2.731719</hAcc><vAcc>0.489201</vAcc></extensions></trkpt>
      <trkpt lon="-3.060067" lat="52.699635"><ele>200.968246</ele><time>2022-01-15T10:59:09Z</time><extensions><speed>1.160318</speed><course>358.890808</course><hAcc>2.711601</hAcc><vAcc>0.487758</vAcc></extensions></trkpt>
      <trkpt lon="-3.060069" lat="52.699646"><ele>201.019165</ele><time>2022-01-15T10:59:10Z</time><extensions><speed>1.081526</speed><course>356.817200</course><hAcc>2.697372</hAcc><vAcc>0.485812</vAcc></extensions></trkpt>
      <trkpt lon="-3.060071" lat="52.699656"><ele>201.076920</ele><time>2022-01-15T10:59:11Z</time><extensions><speed>1.015032</speed><course>357.163483</course><hAcc>2.697008</hAcc><vAcc>0.483624</vAcc></extensions></trkpt>
      <trkpt lon="-3.060072" lat="52.699665"><ele>201.143448</ele><time>2022-01-15T10:59:12Z</time><extensions><speed>1.142520</speed><course>352.330444</course><hAcc>2.625207</hAcc><vAcc>0.481403</vAcc></extensions></trkpt>
      <trkpt lon="-3.060075" lat="52.699676"><ele>201.205765</ele><time>2022-01-15T10:59:13Z</time><extensions><speed>1.182881</speed><course>349.413849</course><hAcc>2.579882</hAcc><vAcc>0.479327</vAcc></extensions></trkpt>
      <trkpt lon="-3.060079" lat="52.699686"><ele>201.263367</ele><time>2022-01-15T10:59:14Z</time><extensions><speed>1.193380</speed><course>345.684906</course><hAcc>2.580754</hAcc><vAcc>0.477525</vAcc></extensions></trkpt>
      <trkpt lon="-3.060083" lat="52.699696"><ele>201.299606</ele><time>2022-01-15T10:59:15Z</time><extensions><speed>1.111150</speed><course>343.867950</course><hAcc>2.621132</hAcc><vAcc>0.476046</vAcc></extensions></trkpt>
      <trkpt lon="-3.060089" lat="52.699706"><ele>201.327515</ele><time>2022-01-15T10:59:16Z</time><extensions><speed>1.107971</speed><course>339.254456</course><hAcc>2.617160</hAcc><vAcc>0.474897</vAcc></extensions></trkpt>
      <trkpt lon="-3.060095" lat="52.699715"><ele>201.358612</ele><time>2022-01-15T10:59:17Z</time><extensions><speed>1.055046</speed><course>335.042847</course><hAcc>2.621835</hAcc><vAcc>0.474035</vAcc></extensions></trkpt>
      <trkpt lon="-3.060103" lat="52.699723"><ele>201.373932</ele><time>2022-01-15T10:59:18Z</time><extensions><speed>0.932166</speed><course>329.992950</course><hAcc>2.664747</hAcc><vAcc>0.473413</vAcc></extensions></trkpt>
      <trkpt lon="-3.060110" lat="52.699730"><ele>201.398666</ele><time>2022-01-15T10:59:19Z</time><extensions><speed>0.689929</speed><course>325.017944</course><hAcc>2.735893</hAcc><vAcc>0.472965</vAcc></extensions></trkpt>
      <trkpt lon="-3.060116" lat="52.699735"><ele>201.418320</ele><time>2022-01-15T10:59:20Z</time><extensions><speed>0.657567</speed><course>322.885315</course><hAcc>2.781696</hAcc><vAcc>0.472613</vAcc></extensions></trkpt>
      <trkpt lon="-3.060122" lat="52.699740"><ele>201.435303</ele><time>2022-01-15T10:59:21Z</time><extensions><speed>0.731551</speed><course>323.874481</course><hAcc>2.805827</hAcc><vAcc>0.472310</vAcc></extensions></trkpt>
      <trkpt lon="-3.060130" lat="52.699746"><ele>201.454391</ele><time>2022-01-15T10:59:22Z</time><extensions><speed>0.924887</speed><course>325.534210</course><hAcc>2.810492</hAcc><vAcc>0.472042</vAcc></extensions></trkpt>
      <trkpt lon="-3.060139" lat="52.699754"><ele>201.453674</ele><time>2022-01-15T10:59:23Z</time><extensions><speed>1.080913</speed><course>326.812744</course><hAcc>2.803636</hAcc><vAcc>0.471901</vAcc></extensions></trkpt>
      <trkpt lon="-3.060148" lat="52.699762"><ele>201.444046</ele><time>2022-01-15T10:59:24Z</time><extensions><speed>1.199303</speed><course>325.630554</course><hAcc>2.787721</hAcc><vAcc>0.472060</vAcc></extensions></trkpt>
      <trkpt lon="-3.060160" lat="52.699772"><ele>201.424561</ele><time>2022-01-15T10:59:25Z</time><extensions><speed>1.302234</speed><course>321.591492</course><hAcc>2.758953</hAcc><vAcc>0.472845</vAcc></extensions></trkpt>
      <trkpt lon="-3.060173" lat="52.699781"><ele>201.389664</ele><time>2022-01-15T10:59:26Z</time><extensions><speed>1.322140</speed><course>317.953491</course><hAcc>2.718503</hAcc><vAcc>0.474618</vAcc></extensions></trkpt>
      <trkpt lon="-3.060188" lat="52.699790"><ele>201.336014</ele><time>2022-01-15T10:59:27Z</time><extensions><speed>1.388446</speed><course>316.391602</course><hAcc>2.650171</hAcc><vAcc>0.477658</vAcc></extensions></trkpt>
      <trkpt lon="-3.060203" lat="52.699799"><ele>201.253494</ele><time>2022-01-15T10:59:28Z</time><extensions><speed>1.414028</speed><course>315.298096</course><hAcc>2.569622</hAcc><vAcc>0.482115</vAcc></extensions></trkpt>
      <trkpt lon="-3.060218" lat="52.699808"><ele>201.136230</ele><time>2022-01-15T10:59:29Z</time><extensions><speed>1.480688</speed><course>314.568176</course><hAcc>2.472980</hAcc><vAcc>0.487932</vAcc></extensions></trkpt>
      <trkpt lon="-3.060234" lat="52.699818"><ele>200.987778</ele><time>2022-01-15T10:59:30Z</time><extensions><speed>1.496686</speed><course>314.851044</course><hAcc>2.392677</hAcc><vAcc>0.494796</vAcc></extensions></trkpt>
      <trkpt lon="-3.060250" lat="52.699828"><ele>200.812531</ele><time>2022-01-15T10:59:31Z</time><extensions><speed>1.467562</speed><course>315.267792</course><hAcc>2.343727</hAcc><vAcc>0.502199</vAcc></extensions></trkpt>
      <trkpt lon="-3.060264" lat="52.699837"><ele>200.618835</ele><time>2022-01-15T10:59:32Z</time><extensions><speed>1.306575</speed><course>315.194061</course><hAcc>2.351185</hAcc><vAcc>0.509525</vAcc></extensions></trkpt>
      <trkpt lon="-3.060277" lat="52.699844"><ele>200.413193</ele><time>2022-01-15T10:59:33Z</time><extensions><speed>0.977906</speed><course>315.682800</course><hAcc>2.397573</hAcc><vAcc>0.516173</vAcc></extensions></trkpt>
      <trkpt lon="-3.060287" lat="52.699851"><ele>200.196213</ele><time>2022-01-15T10:59:34Z</time><extensions><speed>1.016928</speed><course>314.941406</course><hAcc>2.354073</hAcc><vAcc>0.521691</vAcc></extensions></trkpt>
      <trkpt lon="-3.060299" lat="52.699858"><ele>199.968628</ele><time>2022-01-15T10:59:35Z</time><extensions><speed>1.178387</speed><course>313.005005</course><hAcc>2.277816</hAcc><vAcc>0.525909</vAcc></extensions></trkpt>
      <trkpt lon="-3.060312" lat="52.699866"><ele>199.733566</ele><time>2022-01-15T10:59:36Z</time><extensions><speed>1.288349</speed><course>313.485077</course><hAcc>2.249085</hAcc><vAcc>0.528985</vAcc></extensions></trkpt>
      <trkpt lon="-3.060326" lat="52.699874"><ele>199.495102</ele><time>2022-01-15T10:59:37Z</time><extensions><speed>1.309189</speed><course>315.044342</course><hAcc>2.272042</hAcc><vAcc>0.531317</vAcc></extensions></trkpt>
      <trkpt lon="-3.060339" lat="52.699882"><ele>199.258347</ele><time>2022-01-15T10:59:38Z</time><extensions><speed>1.260236</speed><course>318.236969</course><hAcc>2.299887</hAcc><vAcc>0.533406</vAcc></extensions></trkpt>
      <trkpt lon="-3.060351" lat="52.699891"><ele>199.024933</ele><time>2022-01-15T10:59:39Z</time><extensions><speed>1.260339</speed><course>321.017731</course><hAcc>2.314369</hAcc><vAcc>0.535733</vAcc></extensions></trkpt>
      <trkpt lon="-3.060363" lat="52.699900"><ele>198.801437</ele><time>2022-01-15T10:59:40Z</time><extensions><speed>1.197985</speed><course>322.202209</course><hAcc>2.336187</hAcc><vAcc>0.538616</vAcc></extensions></trkpt>
      <trkpt lon="-3.060374" lat="52.699908"><ele>198.591614</ele><time>2022-01-15T10:59:41Z</time><extensions><speed>1.217451</speed><course>322.488708</course><hAcc>2.323982</hAcc><vAcc>0.542157</vAcc></extensions></trkpt>
      <trkpt lon="-3.060385" lat="52.699917"><ele>198.389267</ele><time>2022-01-15T10:59:42Z</time><extensions><speed>1.237017</speed><course>321.438507</course><hAcc>2.299936</hAcc><vAcc>0.546360</vAcc></extensions></trkpt>
      <trkpt lon="-3.060397" lat="52.699926"><ele>198.196869</ele><time>2022-01-15T10:59:43Z</time><extensions><speed>1.190449</speed><course>320.703461</course><hAcc>2.292655</hAcc><vAcc>0.551213</vAcc></extensions></trkpt>
      <trkpt lon="-3.060407" lat="52.699934"><ele>198.014557</ele><time>2022-01-15T10:59:44Z</time><extensions><speed>1.121420</speed><course>321.423676</course><hAcc>2.284761</hAcc><vAcc>0.556655</vAcc></extensions></trkpt>
      <trkpt lon="-3.060417" lat="52.699942"><ele>197.841293</ele><time>2022-01-15T10:59:45Z</time><extensions><speed>1.053326</speed><course>322.675079</course><hAcc>2.275992</hAcc><vAcc>0.562464</vAcc></extensions></trkpt>
      <trkpt lon="-3.060427" lat="52.699949"><ele>197.672531</ele><time>2022-01-15T10:59:46Z</time><extensions><speed>1.048333</speed><course>323.511536</course><hAcc>2.263319</hAcc><vAcc>0.568313</vAcc></extensions></trkpt>
      <trkpt lon="-3.060436" lat="52.699957"><ele>197.511765</ele><time>2022-01-15T10:59:47Z</time><extensions><speed>1.083674</speed><course>323.924927</course><hAcc>2.248591</hAcc><vAcc>0.573814</vAcc></extensions></trkpt>
      <trkpt lon="-3.060446" lat="52.699965"><ele>197.354233</ele><time>2022-01-15T10:59:48Z</time><extensions><speed>1.123523</speed><course>323.623352</course><hAcc>2.240005</hAcc><vAcc>0.578596</vAcc></extensions></trkpt>
      <trkpt lon="-3.060456" lat="52.699973"><ele>197.198486</ele><time>2022-01-15T10:59:49Z</time><extensions><speed>1.160931</speed><course>322.856903</course><hAcc>2.239928</hAcc><vAcc>0.582355</vAcc></extensions></trkpt>
      <trkpt lon="-3.060467" lat="52.699981"><ele>197.040039</ele><time>2022-01-15T10:59:50Z</time><extensions><speed>1.181009</speed><course>320.666473</course><hAcc>2.237442</hAcc><vAcc>0.584942</vAcc></extensions></trkpt>
      <trkpt lon="-3.060478" lat="52.699989"><ele>196.887314</ele><time>2022-01-15T10:59:51Z</time><extensions><speed>1.164248</speed><course>318.467987</course><hAcc>2.231607</hAcc><vAcc>0.586387</vAcc></extensions></trkpt>
      <trkpt lon="-3.060490" lat="52.699997"><ele>196.738922</ele><time>2022-01-15T10:59:52Z</time><extensions><speed>1.114877</speed><course>316.906616</course><hAcc>2.224429</hAcc><vAcc>0.586864</vAcc></extensions></trkpt>
      <trkpt lon="-3.060501" lat="52.700004"><ele>196.589630</ele><time>2022-01-15T10:59:53Z</time><extensions><speed>1.063433</speed><course>316.818604</course><hAcc>2.224616</hAcc><vAcc>0.586607</vAcc></extensions></trkpt>
      <trkpt lon="-3.060511" lat="52.700011"><ele>196.444687</ele><time>2022-01-15T10:59:54Z</time><extensions><speed>1.010032</speed><course>317.034424</course><hAcc>2.218506</hAcc><vAcc>0.585803</vAcc></extensions></trkpt>
      <trkpt lon="-3.060521" lat="52.700018"><ele>196.298645</ele><time>2022-01-15T10:59:55Z</time><extensions><speed>0.952650</speed><course>318.328979</course><hAcc>2.218176</hAcc><vAcc>0.584562</vAcc></extensions></trkpt>
      <trkpt lon="-3.060530" lat="52.700024"><ele>196.147980</ele><time>2022-01-15T10:59:56Z</time><extensions><speed>0.942966</speed><course>319.955200</course><hAcc>2.223442</hAcc><vAcc>0.582932</vAcc></extensions></trkpt>
      <trkpt lon="-3.060539" lat="52.700031"><ele>195.997818</ele><time>2022-01-15T10:59:57Z</time><extensions><speed>0.958018</speed><course>321.282623</course><hAcc>2.233009</hAcc><vAcc>0.580903</vAcc></extensions></trkpt>
      <trkpt lon="-3.060548" lat="52.700038"><ele>195.851151</ele><time>2022-01-15T10:59:58Z</time><extensions><speed>1.001499</speed><course>322.188812</course><hAcc>2.247626</hAcc><vAcc>0.578432</vAcc></extensions></trkpt>
      <trkpt lon="-3.060558" lat="52.700045"><ele>195.709167</ele><time>2022-01-15T10:59:59Z</time><extensions><speed>0.978887</speed><course>321.739441</course><hAcc>2.256807</hAcc><vAcc>0.575500</vAcc></extensions></trkpt>
      <trkpt lon="-3.060567" lat="52.700052"><ele>195.571304</ele><time>2022-01-15T11:00:00Z</time><extensions><speed>0.934133</speed><course>320.527435</course><hAcc>2.263446</hAcc><vAcc>0.572108</vAcc></extensions></trkpt>
      <trkpt lon="-3.060576" lat="52.700058"><ele>195.436340</ele><time>2022-01-15T11:00:01Z</time><extensions><speed>0.921028</speed><course>319.283234</course><hAcc>2.277841</hAcc><vAcc>0.568261</vAcc></extensions></trkpt>
      <trkpt lon="-3.060585" lat="52.700064"><ele>195.301849</ele><time>2022-01-15T11:00:02Z</time><extensions><speed>0.901173</speed><course>318.072906</course><hAcc>2.304226</hAcc><vAcc>0.564001</vAcc></extensions></trkpt>
      <trkpt lon="-3.060594" lat="52.700070"><ele>195.164124</ele><time>2022-01-15T11:00:03Z</time><extensions><speed>0.880536</speed><course>316.931488</course><hAcc>2.338024</hAcc><vAcc>0.559441</vAcc></extensions></trkpt>
      <trkpt lon="-3.060603" lat="52.700076"><ele>195.022568</ele><time>2022-01-15T11:00:04Z</time><extensions><speed>0.863497</speed><course>315.445709</course><hAcc>2.367498</hAcc><vAcc>0.554780</vAcc></extensions></trkpt>
      <trkpt lon="-3.060613" lat="52.700082"><ele>194.876236</ele><time>2022-01-15T11:00:05Z</time><extensions><speed>1.059851</speed><course>315.431854</course><hAcc>2.379727</hAcc><vAcc>0.550301</vAcc></extensions></trkpt>
      <trkpt lon="-3.060625" lat="52.700089"><ele>194.727814</ele><time>2022-01-15T11:00:06Z</time><extensions><speed>1.189258</speed><course>315.035858</course><hAcc>2.397977</hAcc><vAcc>0.546357</vAcc></extensions></trkpt>
      <trkpt lon="-3.060638" lat="52.700098"><ele>194.580414</ele><time>2022-01-15T11:00:07Z</time><extensions><speed>1.284128</speed><course>315.737671</course><hAcc>2.413656</hAcc><vAcc>0.543263</vAcc></extensions></trkpt>
      <trkpt lon="-3.060651" lat="52.700106"><ele>194.433777</ele><time>2022-01-15T11:00:08Z</time><extensions><speed>1.306384</speed><course>317.755829</course><hAcc>2.428063</hAcc><vAcc>0.541149</vAcc></extensions></trkpt>
      <trkpt lon="-3.060664" lat="52.700115"><ele>194.287537</ele><time>2022-01-15T11:00:09Z</time><extensions><speed>1.291820</speed><course>319.457336</course><hAcc>2.436614</hAcc><vAcc>0.539898</vAcc></extensions></trkpt>
      <trkpt lon="-3.060676" lat="52.700124"><ele>194.139694</ele><time>2022-01-15T11:00:10Z</time><extensions><speed>1.281835</speed><course>320.214478</course><hAcc>2.438159</hAcc><vAcc>0.539292</vAcc></extensions></trkpt>
      <trkpt lon="-3.060689" lat="52.700133"><ele>193.985672</ele><time>2022-01-15T11:00:11Z</time><extensions><speed>1.275914</speed><course>320.261566</course><hAcc>2.436947</hAcc><vAcc>0.539057</vAcc></extensions></trkpt>
      <trkpt lon="-3.060701" lat="52.700142"><ele>193.826553</ele><time>2022-01-15T11:00:12Z</time><extensions><speed>1.248935</speed><course>319.941071</course><hAcc>2.434705</hAcc><vAcc>0.538897</vAcc></extensions></trkpt>
      <trkpt lon="-3.060713" lat="52.700150"><ele>193.666321</ele><time>2022-01-15T11:00:13Z</time><extensions><speed>1.246816</speed><course>318.513580</course><hAcc>2.417574</hAcc><vAcc>0.538548</vAcc></extensions></trkpt>
      <trkpt lon="-3.060726" lat="52.700159"><ele>193.502686</ele><time>2022-01-15T11:00:14Z</time><extensions><speed>1.223639</speed><course>316.726318</course><hAcc>2.402424</hAcc><vAcc>0.537896</vAcc></extensions></trkpt>
      <trkpt lon="-3.060738" lat="52.700166"><ele>193.336395</ele><time>2022-01-15T11:00:15Z</time><extensions><speed>1.171358</speed><course>315.045502</course><hAcc>2.396298</hAcc><vAcc>0.537032</vAcc></extensions></trkpt>
      <trkpt lon="-3.060751" lat="52.700174"><ele>193.162567</ele><time>2022-01-15T11:00:16Z</time><extensions><speed>1.064765</speed><course>313.779266</course><hAcc>2.401016</hAcc><vAcc>0.536261</vAcc></extensions></trkpt>
      <trkpt lon="-3.060761" lat="52.700180"><ele>192.977585</ele><time>2022-01-15T11:00:17Z</time><extensions><speed>0.879667</speed><course>312.154694</course><hAcc>2.413547</hAcc><vAcc>0.536047</vAcc></extensions></trkpt>
      <trkpt lon="-3.060771" lat="52.700185"><ele>192.781036</ele><time>2022-01-15T11:00:18Z</time><extensions><speed>0.871646</speed><course>311.134277</course><hAcc>2.411374</hAcc><vAcc>0.536812</vAcc></extensions></trkpt>
      <trkpt lon="-3.060781" lat="52.700190"><ele>192.578140</ele><time>2022-01-15T11:00:19Z</time><extensions><speed>0.945828</speed><course>310.538574</course><hAcc>2.400757</hAcc><vAcc>0.538756</vAcc></extensions></trkpt>
      <trkpt lon="-3.060793" lat="52.700196"><ele>192.370987</ele><time>2022-01-15T11:00:20Z</time><extensions><speed>1.099785</speed><course>310.431519</course><hAcc>2.384134</hAcc><vAcc>0.541837</vAcc></extensions></trkpt>
      <trkpt lon="-3.060807" lat="52.700204"><ele>192.170456</ele><time>2022-01-15T11:00:21Z</time><extensions><speed>1.338848</speed><course>311.410309</course><hAcc>2.362278</hAcc><vAcc>0.545956</vAcc></extensions></trkpt>
      <trkpt lon="-3.060823" lat="52.700212"><ele>191.963852</ele><time>2022-01-15T11:00:22Z</time><extensions><speed>1.430823</speed><course>309.732727</course><hAcc>2.339784</hAcc><vAcc>0.551041</vAcc></extensions></trkpt>
      <trkpt lon="-3.060839" lat="52.700220"><ele>191.750961</ele><time>2022-01-15T11:00:23Z</time><extensions><speed>1.401973</speed><course>311.256744</course><hAcc>2.324945</hAcc><vAcc>0.557061</vAcc></extensions></trkpt>
      <trkpt lon="-3.060854" lat="52.700228"><ele>191.534210</ele><time>2022-01-15T11:00:24Z</time><extensions><speed>1.353355</speed><course>313.446472</course><hAcc>2.311041</hAcc><vAcc>0.564010</vAcc></extensions></trkpt>
      <trkpt lon="-3.060869" lat="52.700237"><ele>191.321777</ele><time>2022-01-15T11:00:25Z</time><extensions><speed>1.313817</speed><course>315.116516</course><hAcc>2.298592</hAcc><vAcc>0.571798</vAcc></extensions></trkpt>
      <trkpt lon="-3.060882" lat="52.700245"><ele>191.110703</ele><time>2022-01-15T11:00:26Z</time><extensions><speed>1.241745</speed><course>315.849091</course><hAcc>2.287963</hAcc><vAcc>0.580171</vAcc></extensions></trkpt>
      <trkpt lon="-3.060896" lat="52.700253"><ele>190.903366</ele><time>2022-01-15T11:00:27Z</time><extensions><speed>1.246157</speed><course>312.791321</course><hAcc>2.263018</hAcc><vAcc>0.588796</vAcc></extensions></trkpt>
      <trkpt lon="-3.060911" lat="52.700260"><ele>190.697769</ele><time>2022-01-15T11:00:28Z</time><extensions><speed>1.244965</speed><course>307.844727</course><hAcc>2.240604</hAcc><vAcc>0.597363</vAcc></extensions></trkpt>
      <trkpt lon="-3.060926" lat="52.700267"><ele>190.494446</ele><time>2022-01-15T11:00:29Z</time><extensions><speed>1.300815</speed><course>302.918121</course><hAcc>2.218274</hAcc><vAcc>0.605668</vAcc></extensions></trkpt>
      <trkpt lon="-3.060943" lat="52.700273"><ele>190.290283</ele><time>2022-01-15T11:00:30Z</time><extensions><speed>1.310679</speed><course>299.277374</course><hAcc>2.200796</hAcc><vAcc>0.613635</vAcc></extensions></trkpt>
      <trkpt lon="-3.060960" lat="52.700278"><ele>190.081192</ele><time>2022-01-15T11:00:31Z</time><extensions><speed>1.263096</speed><course>297.260315</course><hAcc>2.189357</hAcc><vAcc>0.621143</vAcc></extensions></trkpt>
      <trkpt lon="-3.060977" lat="52.700283"><ele>189.869904</ele><time>2022-01-15T11:00:32Z</time><extensions><speed>1.160690</speed><course>294.277191</course><hAcc>2.174063</hAcc><vAcc>0.628016</vAcc></extensions></trkpt>
      <trkpt lon="-3.060991" lat="52.700287"><ele>189.661392</ele><time>2022-01-15T11:00:33Z</time><extensions><speed>0.992468</speed><course>292.124542</course><hAcc>2.170467</hAcc><vAcc>0.633982</vAcc></extensions></trkpt>
      <trkpt lon="-3.061004" lat="52.700290"><ele>189.457626</ele><time>2022-01-15T11:00:34Z</time><extensions><speed>0.724735</speed><course>287.149323</course><hAcc>2.177438</hAcc><vAcc>0.638805</vAcc></extensions></trkpt>
      <trkpt lon="-3.061014" lat="52.700292"><ele>189.254852</ele><time>2022-01-15T11:00:35Z</time><extensions><speed>0.730830</speed><course>285.316376</course><hAcc>2.159109</hAcc><vAcc>0.642360</vAcc></extensions></trkpt>
      <trkpt lon="-3.061025" lat="52.700294"><ele>189.053558</ele><time>2022-01-15T11:00:36Z</time><extensions><speed>0.780573</speed><course>286.250061</course><hAcc>2.143521</hAcc><vAcc>0.644506</vAcc></extensions></trkpt>
      <trkpt lon="-3.061036" lat="52.700296"><ele>188.853424</ele><time>2022-01-15T11:00:37Z</time><extensions><speed>0.809174</speed><course>289.045410</course><hAcc>2.143369</hAcc><vAcc>0.645336</vAcc></extensions></trkpt>
      <trkpt lon="-3.061048" lat="52.700299"><ele>188.668747</ele><time>2022-01-15T11:00:38Z</time><extensions><speed>0.891472</speed><course>293.416351</course><hAcc>2.138176</hAcc><vAcc>0.645010</vAcc></extensions></trkpt>
      <trkpt lon="-3.061061" lat="52.700303"><ele>188.483765</ele><time>2022-01-15T11:00:39Z</time><extensions><speed>1.063642</speed><course>298.226898</course><hAcc>2.124454</hAcc><vAcc>0.643794</vAcc></extensions></trkpt>
      <trkpt lon="-3.061075" lat="52.700307"><ele>188.325348</ele><time>2022-01-15T11:00:40Z</time><extensions><speed>1.073225</speed><course>302.720734</course><hAcc>2.125894</hAcc><vAcc>0.641874</vAcc></extensions></trkpt>
      <trkpt lon="-3.061087" lat="52.700313"><ele>188.159317</ele><time>2022-01-15T11:00:41Z</time><extensions><speed>0.999087</speed><course>306.520782</course><hAcc>2.130926</hAcc><vAcc>0.639397</vAcc></extensions></trkpt>
      <trkpt lon="-3.061099" lat="52.700318"><ele>188.008789</ele><time>2022-01-15T11:00:42Z</time><extensions><speed>0.915636</speed><course>309.632721</course><hAcc>2.129597</hAcc><vAcc>0.636546</vAcc></extensions></trkpt>
      <trkpt lon="-3.061109" lat="52.700323"><ele>187.873886</ele><time>2022-01-15T11:00:43Z</time><extensions><speed>0.833536</speed><course>311.956757</course><hAcc>2.130127</hAcc><vAcc>0.633557</vAcc></extensions></trkpt>
      <trkpt lon="-3.061117" lat="52.700328"><ele>187.745132</ele><time>2022-01-15T11:00:44Z</time><extensions><speed>0.689652</speed><course>313.036835</course><hAcc>2.144090</hAcc><vAcc>0.630659</vAcc></extensions></trkpt>
      <trkpt lon="-3.061124" lat="52.700332"><ele>187.645157</ele><time>2022-01-15T11:00:45Z</time><extensions><speed>0.666496</speed><course>314.806458</course><hAcc>2.151736</hAcc><vAcc>0.628055</vAcc></extensions></trkpt>
      <trkpt lon="-3.061132" lat="52.700337"><ele>187.541489</ele><time>2022-01-15T11:00:46Z</time><extensions><speed>0.765308</speed><course>317.391235</course><hAcc>2.143928</hAcc><vAcc>0.625856</vAcc></extensions></trkpt>
      <trkpt lon="-3.061141" lat="52.700343"><ele>187.447250</ele><time>2022-01-15T11:00:47Z</time><extensions><speed>1.000578</speed><course>320.670105</course><hAcc>2.125039</hAcc><vAcc>0.624147</vAcc></extensions></trkpt>
      <trkpt lon="-3.061150" lat="52.700351"><ele>187.365311</ele><time>2022-01-15T11:00:48Z</time><extensions><speed>1.178946</speed><course>324.347260</course><hAcc>2.119367</hAcc><vAcc>0.622822</vAcc></extensions></trkpt>
      <trkpt lon="-3.061161" lat="52.700360"><ele>187.292984</ele><time>2022-01-15T11:00:49Z</time><extensions><speed>1.301874</speed><course>328.389740</course><hAcc>2.131490</hAcc><vAcc>0.621717</vAcc></extensions></trkpt>
      <trkpt lon="-3.061171" lat="52.700370"><ele>187.225677</ele><time>2022-01-15T11:00:50Z</time><extensions><speed>1.356240</speed><course>328.868958</course><hAcc>2.139527</hAcc><vAcc>0.620540</vAcc></extensions></trkpt>
      <trkpt lon="-3.061181" lat="52.700380"><ele>187.160034</ele><time>2022-01-15T11:00:51Z</time><extensions><speed>1.283188</speed><course>327.425720</course><hAcc>2.138790</hAcc><vAcc>0.618974</vAcc></extensions></trkpt>
      <trkpt lon="-3.061192" lat="52.700390"><ele>187.099304</ele><time>2022-01-15T11:00:52Z</time><extensions><speed>1.252064</speed><course>325.442047</course><hAcc>2.136538</hAcc><vAcc>0.616738</vAcc></extensions></trkpt>
      <trkpt lon="-3.061203" lat="52.700399"><ele>187.032043</ele><time>2022-01-15T11:00:53Z</time><extensions><speed>1.186929</speed><course>322.853027</course><hAcc>2.136880</hAcc><vAcc>0.613584</vAcc></extensions></trkpt>
      <trkpt lon="-3.061213" lat="52.700407"><ele>186.960632</ele><time>2022-01-15T11:00:54Z</time><extensions><speed>1.127837</speed><course>321.474731</course><hAcc>2.152673</hAcc><vAcc>0.609347</vAcc></extensions></trkpt>
      <trkpt lon="-3.061223" lat="52.700415"><ele>186.888107</ele><time>2022-01-15T11:00:55Z</time><extensions><speed>1.064497</speed><course>321.272461</course><hAcc>2.179960</hAcc><vAcc>0.603995</vAcc></extensions></trkpt>
      <trkpt lon="-3.061233" lat="52.700422"><ele>186.816681</ele><time>2022-01-15T11:00:56Z</time><extensions><speed>1.011545</speed><course>320.982635</course><hAcc>2.194258</hAcc><vAcc>0.597627</vAcc></extensions></trkpt>
      <trkpt lon="-3.061243" lat="52.700429"><ele>186.747284</ele><time>2022-01-15T11:00:57Z</time><extensions><speed>1.032629</speed><course>320.858337</course><hAcc>2.200480</hAcc><vAcc>0.590460</vAcc></extensions></trkpt>
      <trkpt lon="-3.061253" lat="52.700437"><ele>186.676224</ele><time>2022-01-15T11:00:58Z</time><extensions><speed>1.126193</speed><course>321.071991</course><hAcc>2.202911</hAcc><vAcc>0.582767</vAcc></extensions></trkpt>
      <trkpt lon="-3.061264" lat="52.700445"><ele>186.596252</ele><time>2022-01-15T11:00:59Z</time><extensions><speed>1.165646</speed><course>321.425903</course><hAcc>2.214161</hAcc><vAcc>0.574827</vAcc></extensions></trkpt>
      <trkpt lon="-3.061275" lat="52.700453"><ele>186.511902</ele><time>2022-01-15T11:01:00Z</time><extensions><speed>1.201693</speed><course>322.307404</course><hAcc>2.230262</hAcc><vAcc>0.566907</vAcc></extensions></trkpt>
      <trkpt lon="-3.061286" lat="52.700462"><ele>186.425110</ele><time>2022-01-15T11:01:00Z</time><extensions><speed>1.221802</speed><course>322.864471</course><hAcc>2.252402</hAcc><vAcc>0.559286</vAcc></extensions></trkpt>
      <trkpt lon="-3.061297" lat="52.700471"><ele>186.334671</ele><time>2022-01-15T11:01:02Z</time><extensions><speed>1.210105</speed><course>321.810059</course><hAcc>2.270912</hAcc><vAcc>0.552290</vAcc></extensions></trkpt>
      <trkpt lon="-3.061308" lat="52.700479"><ele>186.238388</ele><time>2022-01-15T11:01:02Z</time><extensions><speed>1.163661</speed><course>320.612701</course><hAcc>2.283741</hAcc><vAcc>0.546310</vAcc></extensions></trkpt>
      <trkpt lon="-3.061319" lat="52.700487"><ele>186.133133</ele><time>2022-01-15T11:01:03Z</time><extensions><speed>1.154408</speed><course>319.535645</course><hAcc>2.287634</hAcc><vAcc>0.541705</vAcc></extensions></trkpt>
      <trkpt lon="-3.061330" lat="52.700495"><ele>186.018265</ele><time>2022-01-15T11:01:04Z</time><extensions><speed>1.154995</speed><course>319.366943</course><hAcc>2.295080</hAcc><vAcc>0.538707</vAcc></extensions></trkpt>
      <trkpt lon="-3.061341" lat="52.700503"><ele>185.895340</ele><time>2022-01-15T11:01:05Z</time><extensions><speed>1.150158</speed><course>319.479584</course><hAcc>2.304376</hAcc><vAcc>0.537362</vAcc></extensions></trkpt>
      <trkpt lon="-3.061353" lat="52.700511"><ele>185.766052</ele><time>2022-01-15T11:01:06Z</time><extensions><speed>1.176279</speed><course>319.042816</course><hAcc>2.309947</hAcc><vAcc>0.537548</vAcc></extensions></trkpt>
      <trkpt lon="-3.061364" lat="52.700519"><ele>185.630234</ele><time>2022-01-15T11:01:07Z</time><extensions><speed>1.160247</speed><course>317.851074</course><hAcc>2.314395</hAcc><vAcc>0.539025</vAcc></extensions></trkpt>
      <trkpt lon="-3.061377" lat="52.700527"><ele>185.482147</ele><time>2022-01-15T11:01:08Z</time><extensions><speed>1.194155</speed><course>314.817566</course><hAcc>2.300299</hAcc><vAcc>0.541509</vAcc></extensions></trkpt>
      <trkpt lon="-3.061389" lat="52.700534"><ele>185.325668</ele><time>2022-01-15T11:01:09Z</time><extensions><speed>1.187721</speed><course>312.153625</course><hAcc>2.285988</hAcc><vAcc>0.544775</vAcc></extensions></trkpt>
      <trkpt lon="-3.061402" lat="52.700541"><ele>185.160492</ele><time>2022-01-15T11:01:10Z</time><extensions><speed>1.138361</speed><course>310.824463</course><hAcc>2.274640</hAcc><vAcc>0.548703</vAcc></extensions></trkpt>
      <trkpt lon="-3.061415" lat="52.700547"><ele>184.982956</ele><time>2022-01-15T11:01:11Z</time><extensions><speed>1.091576</speed><course>309.975983</course><hAcc>2.263464</hAcc><vAcc>0.553197</vAcc></extensions></trkpt>
      <trkpt lon="-3.061428" lat="52.700553"><ele>184.800217</ele><time>2022-01-15T11:01:12Z</time><extensions><speed>1.035129</speed><course>308.278900</course><hAcc>2.250700</hAcc><vAcc>0.558160</vAcc></extensions></trkpt>
      <trkpt lon="-3.061440" lat="52.700559"><ele>184.602097</ele><time>2022-01-15T11:01:14Z</time><extensions><speed>1.001276</speed><course>305.075348</course><hAcc>2.238115</hAcc><vAcc>0.563572</vAcc></extensions></trkpt>
      <trkpt lon="-3.061452" lat="52.700564"><ele>184.392181</ele><time>2022-01-15T11:01:15Z</time><extensions><speed>0.986804</speed><course>301.676819</course><hAcc>2.224823</hAcc><vAcc>0.569350</vAcc></extensions></trkpt>
      <trkpt lon="-3.061465" lat="52.700568"><ele>184.175552</ele><time>2022-01-15T11:01:16Z</time><extensions><speed>0.970450</speed><course>298.198547</course><hAcc>2.210804</hAcc><vAcc>0.575397</vAcc></extensions></trkpt>
      <trkpt lon="-3.061477" lat="52.700572"><ele>183.956223</ele><time>2022-01-15T11:01:17Z</time><extensions><speed>0.928253</speed><course>294.795380</course><hAcc>2.197138</hAcc><vAcc>0.581603</vAcc></extensions></trkpt>
      <trkpt lon="-3.061489" lat="52.700575"><ele>183.726105</ele><time>2022-01-15T11:01:18Z</time><extensions><speed>0.837089</speed><course>293.342926</course><hAcc>2.186047</hAcc><vAcc>0.587947</vAcc></extensions></trkpt>
      <trkpt lon="-3.061501" lat="52.700579"><ele>183.493515</ele><time>2022-01-15T11:01:19Z</time><extensions><speed>0.903712</speed><course>297.146454</course><hAcc>2.163186</hAcc><vAcc>0.594461</vAcc></extensions></trkpt>
      <trkpt lon="-3.061514" lat="52.700583"><ele>183.251343</ele><time>2022-01-15T11:01:20Z</time><extensions><speed>1.099651</speed><course>303.765259</course><hAcc>2.140227</hAcc><vAcc>0.601169</vAcc></extensions></trkpt>
      <trkpt lon="-3.061528" lat="52.700589"><ele>182.984161</ele><time>2022-01-15T11:01:21Z</time><extensions><speed>1.191837</speed><course>307.769745</course><hAcc>2.138066</hAcc><vAcc>0.608025</vAcc></extensions></trkpt>
      <trkpt lon="-3.061541" lat="52.700596"><ele>182.712708</ele><time>2022-01-15T11:01:22Z</time><extensions><speed>1.183307</speed><course>308.760956</course><hAcc>2.131254</hAcc><vAcc>0.614839</vAcc></extensions></trkpt>
      <trkpt lon="-3.061555" lat="52.700603"><ele>182.441315</ele><time>2022-01-15T11:01:23Z</time><extensions><speed>1.147307</speed><course>308.976593</course><hAcc>2.124140</hAcc><vAcc>0.621456</vAcc></extensions></trkpt>
      <trkpt lon="-3.061568" lat="52.700609"><ele>182.171478</ele><time>2022-01-15T11:01:24Z</time><extensions><speed>1.063607</speed><course>310.500214</course><hAcc>2.119335</hAcc><vAcc>0.627818</vAcc></extensions></trkpt>
      <trkpt lon="-3.061579" lat="52.700615"><ele>181.910080</ele><time>2022-01-15T11:01:25Z</time><extensions><speed>1.027516</speed><course>312.257629</course><hAcc>2.108597</hAcc><vAcc>0.633908</vAcc></extensions></trkpt>
      <trkpt lon="-3.061590" lat="52.700621"><ele>181.656464</ele><time>2022-01-15T11:01:26Z</time><extensions><speed>1.016093</speed><course>314.573517</course><hAcc>2.102001</hAcc><vAcc>0.639703</vAcc></extensions></trkpt>
      <trkpt lon="-3.061601" lat="52.700628"><ele>181.391098</ele><time>2022-01-15T11:01:27Z</time><extensions><speed>1.039964</speed><course>316.481873</course><hAcc>2.094051</hAcc><vAcc>0.645272</vAcc></extensions></trkpt>
      <trkpt lon="-3.061612" lat="52.700635"><ele>181.125687</ele><time>2022-01-15T11:01:28Z</time><extensions><speed>1.114335</speed><course>319.527679</course><hAcc>2.083151</hAcc><vAcc>0.650603</vAcc></extensions></trkpt>
      <trkpt lon="-3.061622" lat="52.700643"><ele>180.857727</ele><time>2022-01-15T11:01:29Z</time><extensions><speed>1.157768</speed><course>322.711060</course><hAcc>2.080128</hAcc><vAcc>0.655676</vAcc></extensions></trkpt>
      <trkpt lon="-3.061632" lat="52.700652"><ele>180.593536</ele><time>2022-01-15T11:01:30Z</time><extensions><speed>1.155289</speed><course>325.509247</course><hAcc>2.080707</hAcc><vAcc>0.660378</vAcc></extensions></trkpt>
      <trkpt lon="-3.061642" lat="52.700660"><ele>180.333740</ele><time>2022-01-15T11:01:31Z</time><extensions><speed>1.099036</speed><course>327.920746</course><hAcc>2.083139</hAcc><vAcc>0.664670</vAcc></extensions></trkpt>
      <trkpt lon="-3.061650" lat="52.700668"><ele>180.075363</ele><time>2022-01-15T11:01:32Z</time><extensions><speed>1.025850</speed><course>326.290558</course><hAcc>2.067853</hAcc><vAcc>0.668582</vAcc></extensions></trkpt>
      <trkpt lon="-3.061659" lat="52.700675"><ele>179.821701</ele><time>2022-01-15T11:01:33Z</time><extensions><speed>0.972742</speed><course>322.091858</course><hAcc>2.049103</hAcc><vAcc>0.672263</vAcc></extensions></trkpt>
      <trkpt lon="-3.061668" lat="52.700682"><ele>179.569626</ele><time>2022-01-15T11:01:34Z</time><extensions><speed>0.960901</speed><course>318.368713</course><hAcc>2.045863</hAcc><vAcc>0.675971</vAcc></extensions></trkpt>
      <trkpt lon="-3.061678" lat="52.700688"><ele>179.320297</ele><time>2022-01-15T11:01:35Z</time><extensions><speed>0.957449</speed><course>314.703979</course><hAcc>2.055750</hAcc><vAcc>0.679978</vAcc></extensions></trkpt>
      <trkpt lon="-3.061688" lat="52.700694"><ele>179.078735</ele><time>2022-01-15T11:01:36Z</time><extensions><speed>0.947151</speed><course>311.586060</course><hAcc>2.070410</hAcc><vAcc>0.684448</vAcc></extensions></trkpt>
      <trkpt lon="-3.061699" lat="52.700700"><ele>178.816620</ele><time>2022-01-15T11:01:37Z</time><extensions><speed>0.907984</speed><course>307.422668</course><hAcc>2.076671</hAcc><vAcc>0.689493</vAcc></extensions></trkpt>
      <trkpt lon="-3.061709" lat="52.700704"><ele>178.568924</ele><time>2022-01-15T11:01:38Z</time><extensions><speed>0.861487</speed><course>302.647980</course><hAcc>2.073905</hAcc><vAcc>0.695201</vAcc></extensions></trkpt>
      <trkpt lon="-3.061720" lat="52.700708"><ele>178.325150</ele><time>2022-01-15T11:01:39Z</time><extensions><speed>0.793969</speed><course>298.302795</course><hAcc>2.062955</hAcc><vAcc>0.701372</vAcc></extensions></trkpt>
      <trkpt lon="-3.061731" lat="52.700711"><ele>178.087723</ele><time>2022-01-15T11:01:40Z</time><extensions><speed>0.837421</speed><course>297.023834</course><hAcc>2.041939</hAcc><vAcc>0.707758</vAcc></extensions></trkpt>
      <trkpt lon="-3.061742" lat="52.700715"><ele>177.854248</ele><time>2022-01-15T11:01:41Z</time><extensions><speed>0.876254</speed><course>296.702423</course><hAcc>2.022465</hAcc><vAcc>0.714173</vAcc></extensions></trkpt>
      <trkpt lon="-3.061754" lat="52.700719"><ele>177.629486</ele><time>2022-01-15T11:01:42Z</time><extensions><speed>0.910957</speed><course>298.439117</course><hAcc>2.006585</hAcc><vAcc>0.720380</vAcc></extensions></trkpt>
      <trkpt lon="-3.061766" lat="52.700723"><ele>177.415100</ele><time>2022-01-15T11:01:43Z</time><extensions><speed>0.929318</speed><course>300.245026</course><hAcc>1.992715</hAcc><vAcc>0.726135</vAcc></extensions></trkpt>
      <trkpt lon="-3.061777" lat="52.700727"><ele>177.213806</ele><time>2022-01-15T11:01:44Z</time><extensions><speed>0.901463</speed><course>301.329620</course><hAcc>1.970295</hAcc><vAcc>0.731404</vAcc></extensions></trkpt>
      <trkpt lon="-3.061788" lat="52.700731"><ele>177.021942</ele><time>2022-01-15T11:01:45Z</time><extensions><speed>0.781957</speed><course>302.152649</course><hAcc>1.942486</hAcc><vAcc>0.736060</vAcc></extensions></trkpt>
      <trkpt lon="-3.061797" lat="52.700734"><ele>176.846909</ele><time>2022-01-15T11:01:46Z</time><extensions><speed>0.659087</speed><course>304.526093</course><hAcc>1.916151</hAcc><vAcc>0.740016</vAcc></extensions></trkpt>
      <trkpt lon="-3.061804" lat="52.700738"><ele>176.684677</ele><time>2022-01-15T11:01:47Z</time><extensions><speed>0.567040</speed><course>311.621887</course><hAcc>1.912650</hAcc><vAcc>0.743254</vAcc></extensions></trkpt>
      <trkpt lon="-3.061811" lat="52.700742"><ele>176.534668</ele><time>2022-01-15T11:01:48Z</time><extensions><speed>0.713384</speed><course>318.353577</course><hAcc>1.908297</hAcc><vAcc>0.745822</vAcc></extensions></trkpt>
      <trkpt lon="-3.061817" lat="52.700747"><ele>176.398392</ele><time>2022-01-15T11:01:49Z</time><extensions><speed>0.733052</speed><course>322.913055</course><hAcc>1.888438</hAcc><vAcc>0.747746</vAcc></extensions></trkpt>
      <trkpt lon="-3.061823" lat="52.700752"><ele>176.274216</ele><time>2022-01-15T11:01:50Z</time><extensions><speed>0.631419</speed><course>327.311523</course><hAcc>1.873355</hAcc><vAcc>0.749222</vAcc></extensions></trkpt>
      <trkpt lon="-3.061827" lat="52.700756"><ele>176.160934</ele><time>2022-01-15T11:01:51Z</time><extensions><speed>0.430133</speed><course>329.708130</course><hAcc>1.870179</hAcc><vAcc>0.750189</vAcc></extensions></trkpt>
      <trkpt lon="-3.061830" lat="52.700758"><ele>176.054626</ele><time>2022-01-15T11:01:52Z</time><extensions><speed>0.211594</speed><course>325.396149</course><hAcc>1.879601</hAcc><vAcc>0.750746</vAcc></extensions></trkpt>
      <trkpt lon="-3.061832" lat="52.700760"><ele>175.945190</ele><time>2022-01-15T11:01:53Z</time><extensions><speed>0.129071</speed><course>311.833710</course><hAcc>1.886297</hAcc><vAcc>0.751004</vAcc></extensions></trkpt>
      <trkpt lon="-3.061833" lat="52.700760"><ele>175.836090</ele><time>2022-01-15T11:01:54Z</time><extensions><speed>0.110677</speed><course>294.762787</course><hAcc>1.894755</hAcc><vAcc>0.751108</vAcc></extensions></trkpt>
      <trkpt lon="-3.061835" lat="52.700760"><ele>175.758713</ele><time>2022-01-15T11:01:55Z</time><extensions><speed>0.121571</speed><course>285.405212</course><hAcc>1.898286</hAcc><vAcc>0.751065</vAcc></extensions></trkpt>
      <trkpt lon="-3.061837" lat="52.700761"><ele>175.688034</ele><time>2022-01-15T11:01:56Z</time><extensions><speed>0.135604</speed><course>281.614838</course><hAcc>1.900468</hAcc><vAcc>0.750937</vAcc></extensions></trkpt>
      <trkpt lon="-3.061839" lat="52.700761"><ele>175.673462</ele><time>2022-01-15T11:01:57Z</time><extensions><speed>0.148011</speed><course>281.122162</course><hAcc>1.896676</hAcc><vAcc>0.750855</vAcc></extensions></trkpt>
      <trkpt lon="-3.061841" lat="52.700761"><ele>175.672272</ele><time>2022-01-15T11:01:58Z</time><extensions><speed>0.146955</speed><course>284.468445</course><hAcc>1.889495</hAcc><vAcc>0.750918</vAcc></extensions></trkpt>
      <trkpt lon="-3.061843" lat="52.700762"><ele>175.667831</ele><time>2022-01-15T11:01:59Z</time><extensions><speed>0.136423</speed><course>290.844543</course><hAcc>1.877571</hAcc><vAcc>0.751172</vAcc></extensions></trkpt>
      <trkpt lon="-3.061844" lat="52.700762"><ele>175.674942</ele><time>2022-01-15T11:02:00Z</time><extensions><speed>0.123345</speed><course>298.275177</course><hAcc>1.859691</hAcc><vAcc>0.751718</vAcc></extensions></trkpt>
      <trkpt lon="-3.061846" lat="52.700763"><ele>175.688446</ele><time>2022-01-15T11:02:01Z</time><extensions><speed>0.115893</speed><course>305.048584</course><hAcc>1.827698</hAcc><vAcc>0.752529</vAcc></extensions></trkpt>
      <trkpt lon="-3.061847" lat="52.700764"><ele>175.704163</ele><time>2022-01-15T11:02:02Z</time><extensions><speed>0.095123</speed><course>311.588287</course><hAcc>1.782935</hAcc><vAcc>0.753480</vAcc></extensions></trkpt>
      <trkpt lon="-3.061848" lat="52.700764"><ele>175.720093</ele><time>2022-01-15T11:02:03Z</time><extensions><speed>0.060790</speed><course>321.371826</course><hAcc>1.739748</hAcc><vAcc>0.754500</vAcc></extensions></trkpt>
      <trkpt lon="-3.061848" lat="52.700765"><ele>175.753052</ele><time>2022-01-15T11:02:04Z</time><extensions><speed>0.035826</speed><course>340.406982</course><hAcc>1.724476</hAcc><vAcc>0.755520</vAcc></extensions></trkpt>
      <trkpt lon="-3.061848" lat="52.700765"><ele>175.780075</ele><time>2022-01-15T11:02:05Z</time><extensions><speed>0.024115</speed><course>8.585857</course><hAcc>1.761791</hAcc><vAcc>0.756538</vAcc></extensions></trkpt>
      <trkpt lon="-3.061848" lat="52.700765"><ele>175.802979</ele><time>2022-01-15T11:02:06Z</time><extensions><speed>0.040086</speed><course>14.004768</course><hAcc>1.752958</hAcc><vAcc>0.757487</vAcc></extensions></trkpt>
      <trkpt lon="-3.061848" lat="52.700766"><ele>175.831009</ele><time>2022-01-15T11:02:07Z</time><extensions><speed>0.086731</speed><course>7.978391</course><hAcc>1.706619</hAcc><vAcc>0.758300</vAcc></extensions></trkpt>
      <trkpt lon="-3.061848" lat="52.700767"><ele>175.864395</ele><time>2022-01-15T11:02:08Z</time><extensions><speed>0.098948</speed><course>1.838202</course><hAcc>1.722335</hAcc><vAcc>0.758826</vAcc></extensions></trkpt>
      <trkpt lon="-3.061848" lat="52.700768"><ele>175.879166</ele><time>2022-01-15T11:02:09Z</time><extensions><speed>0.147038</speed><course>359.874634</course><hAcc>1.725786</hAcc><vAcc>0.758981</vAcc></extensions></trkpt>
      <trkpt lon="-3.061848" lat="52.700769"><ele>175.878448</ele><time>2022-01-15T11:02:10Z</time><extensions><speed>0.176970</speed><course>1.230296</course><hAcc>1.743486</hAcc><vAcc>0.758722</vAcc></extensions></trkpt>
      <trkpt lon="-3.061848" lat="52.700771"><ele>175.864929</ele><time>2022-01-15T11:02:11Z</time><extensions><speed>0.171016</speed><course>4.490453</course><hAcc>1.778303</hAcc><vAcc>0.758136</vAcc></extensions></trkpt>
      <trkpt lon="-3.061848" lat="52.700772"><ele>175.841583</ele><time>2022-01-15T11:02:12Z</time><extensions><speed>0.144783</speed><course>7.391684</course><hAcc>1.810721</hAcc><vAcc>0.757280</vAcc></extensions></trkpt>
      <trkpt lon="-3.061847" lat="52.700773"><ele>175.814499</ele><time>2022-01-15T11:02:13Z</time><extensions><speed>0.100719</speed><course>4.760466</course><hAcc>1.837937</hAcc><vAcc>0.756155</vAcc></extensions></trkpt>
      <trkpt lon="-3.061848" lat="52.700774"><ele>175.779785</ele><time>2022-01-15T11:02:14Z</time><extensions><speed>0.055316</speed><course>349.127075</course><hAcc>1.851588</hAcc><vAcc>0.754866</vAcc></extensions></trkpt>
      <trkpt lon="-3.061848" lat="52.700774"><ele>175.740112</ele><time>2022-01-15T11:02:15Z</time><extensions><speed>0.036776</speed><course>279.796021</course><hAcc>1.859511</hAcc><vAcc>0.753457</vAcc></extensions></trkpt>
      <trkpt lon="-3.061849" lat="52.700774"><ele>175.685608</ele><time>2022-01-15T11:02:16Z</time><extensions><speed>0.076082</speed><course>239.910782</course><hAcc>1.874678</hAcc><vAcc>0.751888</vAcc></extensions></trkpt>
      <trkpt lon="-3.061850" lat="52.700773"><ele>175.635391</ele><time>2022-01-15T11:02:17Z</time><extensions><speed>0.116178</speed><course>233.459808</course><hAcc>1.889691</hAcc><vAcc>0.750211</vAcc></extensions></trkpt>
      <trkpt lon="-3.061852" lat="52.700773"><ele>175.584030</ele><time>2022-01-15T11:02:18Z</time><extensions><speed>0.147073</speed><course>231.207535</course><hAcc>1.897089</hAcc><vAcc>0.748653</vAcc></extensions></trkpt>
      <trkpt lon="-3.061853" lat="52.700772"><ele>175.520782</ele><time>2022-01-15T11:02:19Z</time><extensions><speed>0.174816</speed><course>229.422211</course><hAcc>1.891887</hAcc><vAcc>0.747160</vAcc></extensions></trkpt>
      <trkpt lon="-3.061855" lat="52.700771"><ele>175.472046</ele><time>2022-01-15T11:02:20Z</time><extensions><speed>0.195082</speed><course>227.102295</course><hAcc>1.884272</hAcc><vAcc>0.745661</vAcc></extensions></trkpt>
      <trkpt lon="-3.061857" lat="52.700769"><ele>175.417953</ele><time>2022-01-15T11:02:21Z</time><extensions><speed>0.207652</speed><course>225.394012</course><hAcc>1.876237</hAcc><vAcc>0.744155</vAcc></extensions></trkpt>
      <trkpt lon="-3.061859" lat="52.700768"><ele>175.369675</ele><time>2022-01-15T11:02:22Z</time><extensions><speed>0.196857</speed><course>224.625977</course><hAcc>1.873774</hAcc><vAcc>0.742640</vAcc></extensions></trkpt>
      <trkpt lon="-3.061861" lat="52.700767"><ele>175.332062</ele><time>2022-01-15T11:02:23Z</time><extensions><speed>0.189056</speed><course>222.904663</course><hAcc>1.869811</hAcc><vAcc>0.740934</vAcc></extensions></trkpt>
      <trkpt lon="-3.061863" lat="52.700765"><ele>175.291275</ele><time>2022-01-15T11:02:24Z</time><extensions><speed>0.135561</speed><course>220.029007</course><hAcc>1.893428</hAcc><vAcc>0.739183</vAcc></extensions></trkpt>
      <trkpt lon="-3.061864" lat="52.700764"><ele>175.258224</ele><time>2022-01-15T11:02:25Z</time><extensions><speed>0.116505</speed><course>213.922150</course><hAcc>1.891763</hAcc><vAcc>0.737250</vAcc></extensions></trkpt>
      <trkpt lon="-3.061865" lat="52.700763"><ele>175.236130</ele><time>2022-01-15T11:02:26Z</time><extensions><speed>0.124927</speed><course>200.433792</course><hAcc>1.869896</hAcc><vAcc>0.735220</vAcc></extensions></trkpt>
      <trkpt lon="-3.061865" lat="52.700762"><ele>175.218842</ele><time>2022-01-15T11:02:27Z</time><extensions><speed>0.144398</speed><course>176.791092</course><hAcc>1.869135</hAcc><vAcc>0.732922</vAcc></extensions></trkpt>
      <trkpt lon="-3.061864" lat="52.700761"><ele>175.207062</ele><time>2022-01-15T11:02:28Z</time><extensions><speed>0.211006</speed><course>156.109329</course><hAcc>1.882241</hAcc><vAcc>0.730311</vAcc></extensions></trkpt>
      <trkpt lon="-3.061862" lat="52.700759"><ele>175.202744</ele><time>2022-01-15T11:02:29Z</time><extensions><speed>0.315456</speed><course>148.747787</course><hAcc>1.898657</hAcc><vAcc>0.727246</vAcc></extensions></trkpt>
      <trkpt lon="-3.061859" lat="52.700756"><ele>175.211624</ele><time>2022-01-15T11:02:30Z</time><extensions><speed>0.426612</speed><course>148.408478</course><hAcc>1.915495</hAcc><vAcc>0.723632</vAcc></extensions></trkpt>
      <trkpt lon="-3.061856" lat="52.700752"><ele>175.228424</ele><time>2022-01-15T11:02:31Z</time><extensions><speed>0.512753</speed><course>148.889679</course><hAcc>1.932296</hAcc><vAcc>0.719560</vAcc></extensions></trkpt>
      <trkpt lon="-3.061852" lat="52.700748"><ele>175.247345</ele><time>2022-01-15T11:02:32Z</time><extensions><speed>0.554861</speed><course>148.164337</course><hAcc>1.948550</hAcc><vAcc>0.715007</vAcc></extensions></trkpt>
      <trkpt lon="-3.061847" lat="52.700744"><ele>175.270569</ele><time>2022-01-15T11:02:33Z</time><extensions><speed>0.545077</speed><course>146.100143</course><hAcc>1.964913</hAcc><vAcc>0.710203</vAcc></extensions></trkpt>
      <trkpt lon="-3.061843" lat="52.700740"><ele>175.296906</ele><time>2022-01-15T11:02:34Z</time><extensions><speed>0.510222</speed><course>143.653091</course><hAcc>1.981376</hAcc><vAcc>0.705310</vAcc></extensions></trkpt>
      <trkpt lon="-3.061838" lat="52.700737"><ele>175.325882</ele><time>2022-01-15T11:02:35Z</time><extensions><speed>0.427588</speed><course>140.941559</course><hAcc>2.005866</hAcc><vAcc>0.700422</vAcc></extensions></trkpt>
      <trkpt lon="-3.061835" lat="52.700734"><ele>175.356628</ele><time>2022-01-15T11:02:36Z</time><extensions><speed>0.350205</speed><course>136.190735</course><hAcc>2.020212</hAcc><vAcc>0.695585</vAcc></extensions></trkpt>
      <trkpt lon="-3.061831" lat="52.700732"><ele>175.388153</ele><time>2022-01-15T11:02:37Z</time><extensions><speed>0.288733</speed><course>128.820312</course><hAcc>2.021040</hAcc><vAcc>0.690798</vAcc></extensions></trkpt>
      <trkpt lon="-3.061828" lat="52.700731"><ele>175.419556</ele><time>2022-01-15T11:02:38Z</time><extensions><speed>0.247124</speed><course>122.114410</course><hAcc>2.019225</hAcc><vAcc>0.686061</vAcc></extensions></trkpt>
      <trkpt lon="-3.061825" lat="52.700729"><ele>175.449966</ele><time>2022-01-15T11:02:39Z</time><extensions><speed>0.205504</speed><course>119.943657</course><hAcc>2.029773</hAcc><vAcc>0.681411</vAcc></extensions></trkpt>
      <trkpt lon="-3.061823" lat="52.700729"><ele>175.478531</ele><time>2022-01-15T11:02:40Z</time><extensions><speed>0.176852</speed><course>122.387039</course><hAcc>2.037786</hAcc><vAcc>0.676941</vAcc></extensions></trkpt>
      <trkpt lon="-3.061821" lat="52.700728"><ele>175.504410</ele><time>2022-01-15T11:02:41Z</time><extensions><speed>0.150191</speed><course>126.006287</course><hAcc>2.035572</hAcc><vAcc>0.672794</vAcc></extensions></trkpt>
      <trkpt lon="-3.061819" lat="52.700727"><ele>175.527130</ele><time>2022-01-15T11:02:42Z</time><extensions><speed>0.126679</speed><course>127.883980</course><hAcc>2.022412</hAcc><vAcc>0.669084</vAcc></extensions></trkpt>
      <trkpt lon="-3.061818" lat="52.700726"><ele>175.546585</ele><time>2022-01-15T11:02:43Z</time><extensions><speed>0.094046</speed><course>128.238373</course><hAcc>2.018247</hAcc><vAcc>0.665911</vAcc></extensions></trkpt>
      <trkpt lon="-3.061817" lat="52.700726"><ele>175.562927</ele><time>2022-01-15T11:02:44Z</time><extensions><speed>0.065787</speed><course>128.446518</course><hAcc>2.013396</hAcc><vAcc>0.663301</vAcc></extensions></trkpt>
      <trkpt lon="-3.061816" lat="52.700726"><ele>175.576370</ele><time>2022-01-15T11:02:45Z</time><extensions><speed>0.043503</speed><course>128.613892</course><hAcc>2.005551</hAcc><vAcc>0.661188</vAcc></extensions></trkpt>
      <trkpt lon="-3.061816" lat="52.700725"><ele>175.587204</ele><time>2022-01-15T11:02:46Z</time><extensions><speed>0.028065</speed><course>128.758301</course><hAcc>1.991509</hAcc><vAcc>0.659509</vAcc></extensions></trkpt>
      <trkpt lon="-3.061815" lat="52.700725"><ele>175.595718</ele><time>2022-01-15T11:02:47Z</time><extensions><speed>0.018541</speed><course>128.885666</course><hAcc>1.964533</hAcc><vAcc>0.658231</vAcc></extensions></trkpt>
      <trkpt lon="-3.061815" lat="52.700725"><ele>175.602234</ele><time>2022-01-15T11:02:48Z</time><extensions><speed>0.012877</speed><course>128.992813</course><hAcc>1.926062</hAcc><vAcc>0.657355</vAcc></extensions></trkpt>
      <trkpt lon="-3.061815" lat="52.700725"><ele>175.607010</ele><time>2022-01-15T11:02:49Z</time><extensions><speed>0.008463</speed><course>129.079727</course><hAcc>1.898293</hAcc><vAcc>0.656903</vAcc></extensions></trkpt>
      <trkpt lon="-3.061815" lat="52.700725"><ele>175.610352</ele><time>2022-01-15T11:02:50Z</time><extensions><speed>0.004987</speed><course>129.155655</course><hAcc>1.889996</hAcc><vAcc>0.656885</vAcc></extensions></trkpt>
      <trkpt lon="-3.061815" lat="52.700725"><ele>175.612503</ele><time>2022-01-15T11:02:51Z</time><extensions><speed>0.002749</speed><course>129.229019</course><hAcc>1.885913</hAcc><vAcc>0.657311</vAcc></extensions></trkpt>
      <trkpt lon="-3.061815" lat="52.700725"><ele>175.613708</ele><time>2022-01-15T11:02:52Z</time><extensions><speed>0.001730</speed><course>129.296402</course><hAcc>1.872499</hAcc><vAcc>0.658130</vAcc></extensions></trkpt>
      <trkpt lon="-3.061815" lat="52.700725"><ele>175.614151</ele><time>2022-01-15T11:02:53Z</time><extensions><speed>0.001045</speed><course>129.349060</course><hAcc>1.878488</hAcc><vAcc>0.659302</vAcc></extensions></trkpt>
      <trkpt lon="-3.061815" lat="52.700725"><ele>175.614044</ele><time>2022-01-15T11:02:54Z</time><extensions><speed>0.000639</speed><course>129.391159</course><hAcc>1.886559</hAcc><vAcc>0.660763</vAcc></extensions></trkpt>
      <trkpt lon="-3.061815" lat="52.700725"><ele>175.613495</ele><time>2022-01-15T11:02:55Z</time><extensions><speed>0.000601</speed><course>129.418518</course><hAcc>1.856944</hAcc><vAcc>0.662428</vAcc></extensions></trkpt>
      <trkpt lon="-3.061815" lat="52.700725"><ele>175.612656</ele><time>2022-01-15T11:02:56Z</time><extensions><speed>0.000502</speed><course>129.431671</course><hAcc>1.850153</hAcc><vAcc>0.664229</vAcc></extensions></trkpt>
      <trkpt lon="-3.061815" lat="52.700725"><ele>175.611633</ele><time>2022-01-15T11:02:57Z</time><extensions><speed>0.000376</speed><course>129.439514</course><hAcc>1.865937</hAcc><vAcc>0.666058</vAcc></extensions></trkpt>
      <trkpt lon="-3.061815" lat="52.700725"><ele>175.610504</ele><time>2022-01-15T11:02:58Z</time><extensions><speed>0.000274</speed><course>129.444885</course><hAcc>1.876753</hAcc><vAcc>0.667824</vAcc></extensions></trkpt>
      <trkpt lon="-3.061815" lat="52.700725"><ele>175.609344</ele><time>2022-01-15T11:02:59Z</time><extensions><speed>0.000189</speed><course>129.448837</course><hAcc>1.882305</hAcc><vAcc>0.669428</vAcc></extensions></trkpt>
      <trkpt lon="-3.061815" lat="52.700725"><ele>175.608185</ele><time>2022-01-15T11:03:00Z</time><extensions><speed>0.000127</speed><course>129.451965</course><hAcc>1.882557</hAcc><vAcc>0.670786</vAcc></extensions></trkpt>
      <trkpt lon="-3.061815" lat="52.700725"><ele>175.607056</ele><time>2022-01-15T11:03:00Z</time><extensions><speed>0.000080</speed><course>129.454620</course><hAcc>1.880886</hAcc><vAcc>0.671828</vAcc></extensions></trkpt>
      <trkpt lon="-3.061815" lat="52.700725"><ele>175.606018</ele><time>2022-01-15T11:03:01Z</time><extensions><speed>0.000053</speed><course>129.456970</course><hAcc>1.866235</hAcc><vAcc>0.672500</vAcc></extensions></trkpt>
      <trkpt lon="-3.061815" lat="52.700725"><ele>175.605057</ele><time>2022-01-15T11:03:02Z</time><extensions><speed>0.000034</speed><course>129.458984</course><hAcc>1.857651</hAcc><vAcc>0.672777</vAcc></extensions></trkpt>
      <trkpt lon="-3.061815" lat="52.700725"><ele>175.604202</ele><time>2022-01-15T11:03:03Z</time><extensions><speed>0.000020</speed><course>129.460846</course><hAcc>1.856987</hAcc><vAcc>0.672630</vAcc></extensions></trkpt>
      <trkpt lon="-3.061815" lat="52.700725"><ele>175.603439</ele><time>2022-01-15T11:03:04Z</time><extensions><speed>0.000013</speed><course>129.462646</course><hAcc>1.851848</hAcc><vAcc>0.672077</vAcc></extensions></trkpt>
      <trkpt lon="-3.061815" lat="52.700725"><ele>175.602783</ele><time>2022-01-15T11:03:05Z</time><extensions><speed>0.000008</speed><course>129.464355</course><hAcc>1.859590</hAcc><vAcc>0.671205</vAcc></extensions></trkpt>
      <trkpt lon="-3.061815" lat="52.700725"><ele>175.602219</ele><time>2022-01-15T11:03:06Z</time><extensions><speed>0.000004</speed><course>129.466095</course><hAcc>1.874089</hAcc><vAcc>0.670089</vAcc></extensions></trkpt>
      <trkpt lon="-3.061815" lat="52.700725"><ele>175.601761</ele><time>2022-01-15T11:03:07Z</time><extensions><speed>0.000003</speed><course>129.467911</course><hAcc>1.871000</hAcc><vAcc>0.668790</vAcc></extensions></trkpt>
      <trkpt lon="-3.061815" lat="52.700725"><ele>175.601364</ele><time>2022-01-15T11:03:08Z</time><extensions><speed>0.000002</speed><course>129.469574</course><hAcc>1.865064</hAcc><vAcc>0.667330</vAcc></extensions></trkpt>
      <trkpt lon="-3.061815" lat="52.700725"><ele>175.601059</ele><time>2022-01-15T11:03:09Z</time><extensions><speed>0.000002</speed><course>129.471085</course><hAcc>1.866927</hAcc><vAcc>0.665788</vAcc></extensions></trkpt>
      <trkpt lon="-3.061815" lat="52.700725"><ele>175.600830</ele><time>2022-01-15T11:03:10Z</time><extensions><speed>0.000001</speed><course>129.472626</course><hAcc>1.879388</hAcc><vAcc>0.664247</vAcc></extensions></trkpt>
      <trkpt lon="-3.061815" lat="52.700725"><ele>175.600647</ele><time>2022-01-15T11:03:11Z</time><extensions><speed>0.000001</speed><course>129.474564</course><hAcc>1.883002</hAcc><vAcc>0.662772</vAcc></extensions></trkpt>
      <trkpt lon="-3.061815" lat="52.700725"><ele>175.600510</ele><time>2022-01-15T11:03:13Z</time><extensions><speed>0.000000</speed><course>129.476501</course><hAcc>1.889484</hAcc><vAcc>0.661428</vAcc></extensions></trkpt>
      <trkpt lon="-3.061815" lat="52.700725"><ele>175.600418</ele><time>2022-01-15T11:03:14Z</time><extensions><speed>0.000000</speed><course>129.478485</course><hAcc>1.894430</hAcc><vAcc>0.660295</vAcc></extensions></trkpt>
      <trkpt lon="-3.061815" lat="52.700725"><ele>175.600357</ele><time>2022-01-15T11:03:15Z</time><extensions><speed>0.000000</speed><course>129.480759</course><hAcc>1.890138</hAcc><vAcc>0.659465</vAcc></extensions></trkpt>
      <trkpt lon="-3.061815" lat="52.700725"><ele>175.600327</ele><time>2022-01-15T11:03:16Z</time><extensions><speed>0.000000</speed><course>129.487381</course><hAcc>1.885305</hAcc><vAcc>0.659005</vAcc></extensions></trkpt>
      <trkpt lon="-3.061815" lat="52.700725"><ele>175.600327</ele><time>2022-01-15T11:03:17Z</time><extensions><speed>0.000000</speed><course>129.502060</course><hAcc>1.875671</hAcc><vAcc>0.658891</vAcc></extensions></trkpt>
      <trkpt lon="-3.061815" lat="52.700725"><ele>175.600327</ele><time>2022-01-15T11:03:18Z</time><extensions><speed>0.000000</speed><course>129.521027</course><hAcc>1.869152</hAcc><vAcc>0.659129</vAcc></extensions></trkpt>
      <trkpt lon="-3.061815" lat="52.700725"><ele>175.600342</ele><time>2022-01-15T11:03:19Z</time><extensions><speed>0.000000</speed><course>129.531021</course><hAcc>1.861198</hAcc><vAcc>0.659723</vAcc></extensions></trkpt>
      <trkpt lon="-3.061815" lat="52.700725"><ele>175.600372</ele><time>2022-01-15T11:03:20Z</time><extensions><speed>0.000000</speed><course>129.506088</course><hAcc>1.854637</hAcc><vAcc>0.660686</vAcc></extensions></trkpt>
      <trkpt lon="-3.061815" lat="52.700725"><ele>175.600403</ele><time>2022-01-15T11:03:21Z</time><extensions><speed>0.000000</speed><course>129.448044</course><hAcc>1.843581</hAcc><vAcc>0.661981</vAcc></extensions></trkpt>
      <trkpt lon="-3.061815" lat="52.700725"><ele>175.600449</ele><time>2022-01-15T11:03:22Z</time><extensions><speed>0.000000</speed><course>129.357498</course><hAcc>1.821492</hAcc><vAcc>0.663524</vAcc></extensions></trkpt>
      <trkpt lon="-3.061815" lat="52.700725"><ele>175.600479</ele><time>2022-01-15T11:03:23Z</time><extensions><speed>0.000000</speed><course>129.219879</course><hAcc>1.800761</hAcc><vAcc>0.665244</vAcc></extensions></trkpt>
      <trkpt lon="-3.061815" lat="52.700725"><ele>175.600510</ele><time>2022-01-15T11:03:24Z</time><extensions><speed>0.000000</speed><course>128.935165</course><hAcc>1.804356</hAcc><vAcc>0.667077</vAcc></extensions></trkpt>
      <trkpt lon="-3.061814" lat="52.700725"><ele>175.606094</ele><time>2022-01-15T11:03:25Z</time><extensions><speed>0.011628</speed><course>89.082657</course><hAcc>1.837869</hAcc><vAcc>0.668919</vAcc></extensions></trkpt>
      <trkpt lon="-3.061814" lat="52.700725"><ele>175.613663</ele><time>2022-01-15T11:03:26Z</time><extensions><speed>0.031355</speed><course>89.082657</course><hAcc>1.841595</hAcc><vAcc>0.670740</vAcc></extensions></trkpt>
      <trkpt lon="-3.061812" lat="52.700725"><ele>175.623184</ele><time>2022-01-15T11:03:27Z</time><extensions><speed>0.081668</speed><course>89.082657</course><hAcc>1.806407</hAcc><vAcc>0.672552</vAcc></extensions></trkpt>
      <trkpt lon="-3.061811" lat="52.700725"><ele>175.634598</ele><time>2022-01-15T11:03:28Z</time><extensions><speed>0.137522</speed><course>89.082657</course><hAcc>1.806467</hAcc><vAcc>0.674404</vAcc></extensions></trkpt>
      <trkpt lon="-3.061808" lat="52.700725"><ele>175.647934</ele><time>2022-01-15T11:03:29Z</time><extensions><speed>0.211157</speed><course>89.082657</course><hAcc>1.818330</hAcc><vAcc>0.676311</vAcc></extensions></trkpt>
      <trkpt lon="-3.061804" lat="52.700725"><ele>175.663116</ele><time>2022-01-15T11:03:30Z</time><extensions><speed>0.305282</speed><course>89.082657</course><hAcc>1.820503</hAcc><vAcc>0.678263</vAcc></extensions></trkpt>
      <trkpt lon="-3.061798" lat="52.700725"><ele>175.680038</ele><time>2022-01-15T11:03:31Z</time><extensions><speed>0.402845</speed><course>89.082664</course><hAcc>1.814616</hAcc><vAcc>0.680229</vAcc></extensions></trkpt>
      <trkpt lon="-3.061792" lat="52.700725"><ele>175.698502</ele><time>2022-01-15T11:03:32Z</time><extensions><speed>0.517687</speed><course>89.082672</course><hAcc>1.794433</hAcc><vAcc>0.682103</vAcc></extensions></trkpt>
      <trkpt lon="-3.061783" lat="52.700725"><ele>175.718246</ele><time>2022-01-15T11:03:33Z</time><extensions><speed>0.614176</speed><course>89.082680</course><hAcc>1.777344</hAcc><vAcc>0.683808</vAcc></extensions></trkpt>
      <trkpt lon="-3.061774" lat="52.700725"><ele>175.738800</ele><time>2022-01-15T11:03:34Z</time><extensions><speed>0.593141</speed><course>89.082687</course><hAcc>1.793669</hAcc><vAcc>0.685209</vAcc></extensions></trkpt>
      <trkpt lon="-3.061767" lat="52.700726"><ele>175.784958</ele><time>2022-01-15T11:03:35Z</time><extensions><speed>0.421230</speed><course>88.998863</course><hAcc>1.827198</hAcc><vAcc>0.686121</vAcc></extensions></trkpt>
      <trkpt lon="-3.061761" lat="52.700726"><ele>175.837021</ele><time>2022-01-15T11:03:36Z</time><extensions><speed>0.392186</speed><course>88.836967</course><hAcc>1.817522</hAcc><vAcc>0.686517</vAcc></extensions></trkpt>
      <trkpt lon="-3.061755" lat="52.700726"><ele>175.886246</ele><time>2022-01-15T11:03:37Z</time><extensions><speed>0.441405</speed><course>88.564827</course><hAcc>1.784270</hAcc><vAcc>0.686470</vAcc></extensions></trkpt>
      <trkpt lon="-3.061748" lat="52.700726"><ele>175.952805</ele><time>2022-01-15T11:03:38Z</time><extensions><speed>0.388433</speed><course>88.160408</course><hAcc>1.785606</hAcc><vAcc>0.686075</vAcc></extensions></trkpt>
      <trkpt lon="-3.061743" lat="52.700726"><ele>176.038696</ele><time>2022-01-15T11:03:39Z</time><extensions><speed>0.299975</speed><course>87.519585</course><hAcc>1.807567</hAcc><vAcc>0.685420</vAcc></extensions></trkpt>
      <trkpt lon="-3.061740" lat="52.700726"><ele>176.115967</ele><time>2022-01-15T11:03:40Z</time><extensions><speed>0.200290</speed><course>85.506714</course><hAcc>1.833611</hAcc><vAcc>0.684570</vAcc></extensions></trkpt>
      <trkpt lon="-3.061738" lat="52.700726"><ele>176.196671</ele><time>2022-01-15T11:03:41Z</time><extensions><speed>0.099860</speed><course>77.783279</course><hAcc>1.861044</hAcc><vAcc>0.683625</vAcc></extensions></trkpt>
      <trkpt lon="-3.061737" lat="52.700726"><ele>176.277344</ele><time>2022-01-15T11:03:42Z</time><extensions><speed>0.033189</speed><course>15.849482</course><hAcc>1.877406</hAcc><vAcc>0.682773</vAcc></extensions></trkpt>
      <trkpt lon="-3.061738" lat="52.700727"><ele>176.346451</ele><time>2022-01-15T11:03:43Z</time><extensions><speed>0.091194</speed><course>302.891113</course><hAcc>1.887020</hAcc><vAcc>0.682194</vAcc></extensions></trkpt>
      <trkpt lon="-3.061740" lat="52.700727"><ele>176.407898</ele><time>2022-01-15T11:03:44Z</time><extensions><speed>0.187807</speed><course>294.376434</course><hAcc>1.891508</hAcc><vAcc>0.682074</vAcc></extensions></trkpt>
      <trkpt lon="-3.061743" lat="52.700728"><ele>176.463837</ele><time>2022-01-15T11:03:45Z</time><extensions><speed>0.286018</speed><course>293.037445</course><hAcc>1.900747</hAcc><vAcc>0.682589</vAcc></extensions></trkpt>
      <trkpt lon="-3.061748" lat="52.700730"><ele>176.516418</ele><time>2022-01-15T11:03:46Z</time><extensions><speed>0.413749</speed><course>295.323059</course><hAcc>1.900310</hAcc><vAcc>0.684191</vAcc></extensions></trkpt>
      <trkpt lon="-3.061754" lat="52.700732"><ele>176.561493</ele><time>2022-01-15T11:03:47Z</time><extensions><speed>0.571618</speed><course>300.720612</course><hAcc>1.898273</hAcc><vAcc>0.686965</vAcc></extensions></trkpt>
      <trkpt lon="-3.061762" lat="52.700735"><ele>176.600113</ele><time>2022-01-15T11:03:48Z</time><extensions><speed>0.749662</speed><course>308.768555</course><hAcc>1.899603</hAcc><vAcc>0.690838</vAcc></extensions></trkpt>
      <trkpt lon="-3.061771" lat="52.700741"><ele>176.610718</ele><time>2022-01-15T11:03:49Z</time><extensions><speed>1.041238</speed><course>318.629852</course><hAcc>1.890920</hAcc><vAcc>0.695564</vAcc></extensions></trkpt>
      <trkpt lon="-3.061781" lat="52.700749"><ele>176.604462</ele><time>2022-01-15T11:03:50Z</time><extensions><speed>1.257111</speed><course>328.225098</course><hAcc>1.884908</hAcc><vAcc>0.700761</vAcc></extensions></trkpt>
      <trkpt lon="-3.061791" lat="52.700760"><ele>176.600006</ele><time>2022-01-15T11:03:51Z</time><extensions><speed>1.443991</speed><course>334.813446</course><hAcc>1.877636</hAcc><vAcc>0.705953</vAcc></extensions></trkpt>
      <trkpt lon="-3.061799" lat="52.700772"><ele>176.601227</ele><time>2022-01-15T11:03:52Z</time><extensions><speed>1.532814</speed><course>339.259491</course><hAcc>1.868482</hAcc><vAcc>0.710686</vAcc></extensions></trkpt>
      <trkpt lon="-3.061807" lat="52.700785"><ele>176.597610</ele><time>2022-01-15T11:03:53Z</time><extensions><speed>1.505240</speed><course>342.441254</course><hAcc>1.859160</hAcc><vAcc>0.714571</vAcc></extensions></trkpt>
      <trkpt lon="-3.061813" lat="52.700798"><ele>176.606522</ele><time>2022-01-15T11:03:54Z</time><extensions><speed>1.420256</speed><course>345.029724</course><hAcc>1.852709</hAcc><vAcc>0.717530</vAcc></extensions></trkpt>
      <trkpt lon="-3.061817" lat="52.700810"><ele>176.621613</ele><time>2022-01-15T11:03:55Z</time><extensions><speed>1.415753</speed><course>349.349762</course><hAcc>1.854530</hAcc><vAcc>0.719286</vAcc></extensions></trkpt>
      <trkpt lon="-3.061820" lat="52.700822"><ele>176.645401</ele><time>2022-01-15T11:03:56Z</time><extensions><speed>1.375874</speed><course>354.449341</course><hAcc>1.864546</hAcc><vAcc>0.719743</vAcc></extensions></trkpt>
      <trkpt lon="-3.061821" lat="52.700834"><ele>176.666412</ele><time>2022-01-15T11:03:57Z</time><extensions><speed>1.277650</speed><course>0.249931</course><hAcc>1.866980</hAcc><vAcc>0.718780</vAcc></extensions></trkpt>
      <trkpt lon="-3.061820" lat="52.700845"><ele>176.695938</ele><time>2022-01-15T11:03:58Z</time><extensions><speed>1.211021</speed><course>6.713161</course><hAcc>1.863026</hAcc><vAcc>0.716246</vAcc></extensions></trkpt>
      <trkpt lon="-3.061817" lat="52.700856"><ele>176.742477</ele><time>2022-01-15T11:03:59Z</time><extensions><speed>1.188546</speed><course>15.277207</course><hAcc>1.859781</hAcc><vAcc>0.711969</vAcc></extensions></trkpt>
      <trkpt lon="-3.061811" lat="52.700866"><ele>176.802948</ele><time>2022-01-15T11:04:00Z</time><extensions><speed>1.130936</speed><course>21.971268</course><hAcc>1.859406</hAcc><vAcc>0.705893</vAcc></extensions></trkpt>
      <trkpt lon="-3.061804" lat="52.700875"><ele>176.876694</ele><time>2022-01-15T11:04:01Z</time><extensions><speed>1.098536</speed><course>30.001062</course><hAcc>1.860505</hAcc><vAcc>0.698075</vAcc></extensions></trkpt>
      <trkpt lon="-3.061795" lat="52.700883"><ele>176.968399</ele><time>2022-01-15T11:04:02Z</time><extensions><speed>1.120904</speed><course>37.031006</course><hAcc>1.866579</hAcc><vAcc>0.688724</vAcc></extensions></trkpt>
      <trkpt lon="-3.061784" lat="52.700891"><ele>177.070572</ele><time>2022-01-15T11:04:03Z</time><extensions><speed>1.137318</speed><course>43.437691</course><hAcc>1.877070</hAcc><vAcc>0.678220</vAcc></extensions></trkpt>
      <trkpt lon="-3.061772" lat="52.700898"><ele>177.190826</ele><time>2022-01-15T11:04:04Z</time><extensions><speed>1.133120</speed><course>48.523708</course><hAcc>1.892230</hAcc><vAcc>0.667061</vAcc></extensions></trkpt>
      <trkpt lon="-3.061760" lat="52.700905"><ele>177.320419</ele><time>2022-01-15T11:04:05Z</time><extensions><speed>1.100413</speed><course>51.612038</course><hAcc>1.898214</hAcc><vAcc>0.655809</vAcc></extensions></trkpt>
      <trkpt lon="-3.061747" lat="52.700911"><ele>177.461594</ele><time>2022-01-15T11:04:06Z</time><extensions><speed>1.074480</speed><course>52.069794</course><hAcc>1.899808</hAcc><vAcc>0.645002</vAcc></extensions></trkpt>
      <trkpt lon="-3.061735" lat="52.700916"><ele>177.609650</ele><time>2022-01-15T11:04:07Z</time><extensions><speed>1.012400</speed><course>52.278278</course><hAcc>1.901100</hAcc><vAcc>0.635080</vAcc></extensions></trkpt>
      <trkpt lon="-3.061723" lat="52.700922"><ele>177.765244</ele><time>2022-01-15T11:04:08Z</time><extensions><speed>0.975598</speed><course>51.404243</course><hAcc>1.901540</hAcc><vAcc>0.626408</vAcc></extensions></trkpt>
      <trkpt lon="-3.061712" lat="52.700927"><ele>177.925674</ele><time>2022-01-15T11:04:09Z</time><extensions><speed>0.941493</speed><course>49.893589</course><hAcc>1.896959</hAcc><vAcc>0.619254</vAcc></extensions></trkpt>
      <trkpt lon="-3.061702" lat="52.700933"><ele>178.089569</ele><time>2022-01-15T11:04:10Z</time><extensions><speed>0.922036</speed><course>48.837933</course><hAcc>1.899796</hAcc><vAcc>0.613789</vAcc></extensions></trkpt>
      <trkpt lon="-3.061691" lat="52.700939"><ele>178.254074</ele><time>2022-01-15T11:04:11Z</time><extensions><speed>0.978807</speed><course>46.041462</course><hAcc>1.893964</hAcc><vAcc>0.610122</vAcc></extensions></trkpt>
      <trkpt lon="-3.061681" lat="52.700945"><ele>178.415909</ele><time>2022-01-15T11:04:12Z</time><extensions><speed>1.030501</speed><course>42.661789</course><hAcc>1.893182</hAcc><vAcc>0.608335</vAcc></extensions></trkpt>
      <trkpt lon="-3.061671" lat="52.700952"><ele>178.572479</ele><time>2022-01-15T11:04:13Z</time><extensions><speed>1.080212</speed><course>40.515564</course><hAcc>1.902172</hAcc><vAcc>0.608525</vAcc></extensions></trkpt>
      <trkpt lon="-3.061661" lat="52.700960"><ele>178.722458</ele><time>2022-01-15T11:04:14Z</time><extensions><speed>1.026249</speed><course>37.745937</course><hAcc>1.911296</hAcc><vAcc>0.610761</vAcc></extensions></trkpt>
      <trkpt lon="-3.061652" lat="52.700967"><ele>178.863297</ele><time>2022-01-15T11:04:15Z</time><extensions><speed>0.913350</speed><course>35.122852</course><hAcc>1.907794</hAcc><vAcc>0.615098</vAcc></extensions></trkpt>
      <trkpt lon="-3.061645" lat="52.700973"><ele>178.993866</ele><time>2022-01-15T11:04:16Z</time><extensions><speed>0.784512</speed><course>34.534645</course><hAcc>1.893936</hAcc><vAcc>0.621517</vAcc></extensions></trkpt>
      <trkpt lon="-3.061639" lat="52.700978"><ele>179.108231</ele><time>2022-01-15T11:04:17Z</time><extensions><speed>0.629303</speed><course>35.177769</course><hAcc>1.894736</hAcc><vAcc>0.629803</vAcc></extensions></trkpt>
      <trkpt lon="-3.061635" lat="52.700982"><ele>179.215027</ele><time>2022-01-15T11:04:18Z</time><extensions><speed>0.405162</speed><course>30.287699</course><hAcc>1.905828</hAcc><vAcc>0.639380</vAcc></extensions></trkpt>
      <trkpt lon="-3.061632" lat="52.700985"><ele>179.315674</ele><time>2022-01-15T11:04:19Z</time><extensions><speed>0.319924</speed><course>26.679998</course><hAcc>1.895349</hAcc><vAcc>0.649322</vAcc></extensions></trkpt>
      <trkpt lon="-3.061630" lat="52.700988"><ele>179.431870</ele><time>2022-01-15T11:04:20Z</time><extensions><speed>0.282209</speed><course>24.756298</course><hAcc>1.875887</hAcc><vAcc>0.658351</vAcc></extensions></trkpt>
      <trkpt lon="-3.061629" lat="52.700990"><ele>179.559738</ele><time>2022-01-15T11:04:21Z</time><extensions><speed>0.266197</speed><course>23.057781</course><hAcc>1.861052</hAcc><vAcc>0.665873</vAcc></extensions></trkpt>
      <trkpt lon="-3.061627" lat="52.700992"><ele>179.659851</ele><time>2022-01-15T11:04:22Z</time><extensions><speed>0.251195</speed><course>21.019985</course><hAcc>1.861947</hAcc><vAcc>0.671278</vAcc></extensions></trkpt>
      <trkpt lon="-3.061626" lat="52.700994"><ele>179.761932</ele><time>2022-01-15T11:04:23Z</time><extensions><speed>0.232867</speed><course>18.376429</course><hAcc>1.870629</hAcc><vAcc>0.674016</vAcc></extensions></trkpt>
      <trkpt lon="-3.061625" lat="52.700996"><ele>179.868317</ele><time>2022-01-15T11:04:24Z</time><extensions><speed>0.256835</speed><course>16.711025</course><hAcc>1.864727</hAcc><vAcc>0.673771</vAcc></extensions></trkpt>
      <trkpt lon="-3.061624" lat="52.700998"><ele>179.971497</ele><time>2022-01-15T11:04:25Z</time><extensions><speed>0.273215</speed><course>17.975716</course><hAcc>1.881622</hAcc><vAcc>0.670193</vAcc></extensions></trkpt>
      <trkpt lon="-3.061622" lat="52.701001"><ele>180.078232</ele><time>2022-01-15T11:04:26Z</time><extensions><speed>0.333234</speed><course>22.395782</course><hAcc>1.907372</hAcc><vAcc>0.663231</vAcc></extensions></trkpt>
      <trkpt lon="-3.061620" lat="52.701004"><ele>180.190186</ele><time>2022-01-15T11:04:27Z</time><extensions><speed>0.487010</speed><course>28.749678</course><hAcc>1.922093</hAcc><vAcc>0.653098</vAcc></extensions></trkpt>
      <trkpt lon="-3.061615" lat="52.701009"><ele>180.310547</ele><time>2022-01-15T11:04:28Z</time><extensions><speed>0.738953</speed><course>34.623013</course><hAcc>1.940409</hAcc><vAcc>0.640310</vAcc></extensions></trkpt>
      <trkpt lon="-3.061608" lat="52.701015"><ele>180.443436</ele><time>2022-01-15T11:04:29Z</time><extensions><speed>0.914276</speed><course>36.619019</course><hAcc>1.985104</hAcc><vAcc>0.625687</vAcc></extensions></trkpt>
      <trkpt lon="-3.061599" lat="52.701022"><ele>180.589432</ele><time>2022-01-15T11:04:30Z</time><extensions><speed>1.007659</speed><course>36.870277</course><hAcc>2.037404</hAcc><vAcc>0.610325</vAcc></extensions></trkpt>
      <trkpt lon="-3.061590" lat="52.701029"><ele>180.743790</ele><time>2022-01-15T11:04:31Z</time><extensions><speed>1.032477</speed><course>36.610249</course><hAcc>2.069445</hAcc><vAcc>0.595497</vAcc></extensions></trkpt>
      <trkpt lon="-3.061581" lat="52.701037"><ele>180.906372</ele><time>2022-01-15T11:04:32Z</time><extensions><speed>1.063050</speed><course>35.907890</course><hAcc>2.075241</hAcc><vAcc>0.582422</vAcc></extensions></trkpt>
      <trkpt lon="-3.061571" lat="52.701045"><ele>181.079178</ele><time>2022-01-15T11:04:33Z</time><extensions><speed>1.150794</speed><course>34.632748</course><hAcc>2.074870</hAcc><vAcc>0.572047</vAcc></extensions></trkpt>
      <trkpt lon="-3.061561" lat="52.701054"><ele>181.258377</ele><time>2022-01-15T11:04:34Z</time><extensions><speed>1.219592</speed><course>34.787079</course><hAcc>2.085332</hAcc><vAcc>0.564897</vAcc></extensions></trkpt>
      <trkpt lon="-3.061551" lat="52.701063"><ele>181.443878</ele><time>2022-01-15T11:04:35Z</time><extensions><speed>1.252398</speed><course>35.384342</course><hAcc>2.087860</hAcc><vAcc>0.561040</vAcc></extensions></trkpt>
      <trkpt lon="-3.061540" lat="52.701073"><ele>181.632858</ele><time>2022-01-15T11:04:36Z</time><extensions><speed>1.235779</speed><course>36.010811</course><hAcc>2.081664</hAcc><vAcc>0.560267</vAcc></extensions></trkpt>
      <trkpt lon="-3.061529" lat="52.701082"><ele>181.828812</ele><time>2022-01-15T11:04:37Z</time><extensions><speed>1.296985</speed><course>36.496201</course><hAcc>2.061218</hAcc><vAcc>0.562222</vAcc></extensions></trkpt>
      <trkpt lon="-3.061517" lat="52.701092"><ele>182.030579</ele><time>2022-01-15T11:04:38Z</time><extensions><speed>1.324777</speed><course>34.323444</course><hAcc>2.035495</hAcc><vAcc>0.566512</vAcc></extensions></trkpt>
      <trkpt lon="-3.061507" lat="52.701102"><ele>182.230042</ele><time>2022-01-15T11:04:39Z</time><extensions><speed>1.336992</speed><course>32.585567</course><hAcc>2.015371</hAcc><vAcc>0.572696</vAcc></extensions></trkpt>
      <trkpt lon="-3.061496" lat="52.701112"><ele>182.432495</ele><time>2022-01-15T11:04:40Z</time><extensions><speed>1.362736</speed><course>31.382038</course><hAcc>1.998378</hAcc><vAcc>0.580299</vAcc></extensions></trkpt>
      <trkpt lon="-3.061486" lat="52.701123"><ele>182.622269</ele><time>2022-01-15T11:04:41Z</time><extensions><speed>1.384177</speed><course>30.039577</course><hAcc>1.980341</hAcc><vAcc>0.588930</vAcc></extensions></trkpt>
      <trkpt lon="-3.061475" lat="52.701134"><ele>182.802307</ele><time>2022-01-15T11:04:42Z</time><extensions><speed>1.396167</speed><course>29.319433</course><hAcc>1.960509</hAcc><vAcc>0.598150</vAcc></extensions></trkpt>
      <trkpt lon="-3.061465" lat="52.701145"><ele>182.975861</ele><time>2022-01-15T11:04:43Z</time><extensions><speed>1.421685</speed><course>29.874418</course><hAcc>1.937586</hAcc><vAcc>0.607562</vAcc></extensions></trkpt>
      <trkpt lon="-3.061454" lat="52.701156"><ele>183.158188</ele><time>2022-01-15T11:04:44Z</time><extensions><speed>1.442781</speed><course>30.854801</course><hAcc>1.912573</hAcc><vAcc>0.616752</vAcc></extensions></trkpt>
      <trkpt lon="-3.061443" lat="52.701167"><ele>183.330170</ele><time>2022-01-15T11:04:45Z</time><extensions><speed>1.420807</speed><course>30.891226</course><hAcc>1.887781</hAcc><vAcc>0.625407</vAcc></extensions></trkpt>
      <trkpt lon="-3.061433" lat="52.701178"><ele>183.500732</ele><time>2022-01-15T11:04:46Z</time><extensions><speed>1.352970</speed><course>29.673964</course><hAcc>1.858674</hAcc><vAcc>0.633298</vAcc></extensions></trkpt>
      <trkpt lon="-3.061423" lat="52.701188"><ele>183.669464</ele><time>2022-01-15T11:04:47Z</time><extensions><speed>1.287653</speed><course>27.606989</course><hAcc>1.833355</hAcc><vAcc>0.640158</vAcc></extensions></trkpt>
      <trkpt lon="-3.061415" lat="52.701198"><ele>183.835739</ele><time>2022-01-15T11:04:48Z</time><extensions><speed>1.193472</speed><course>27.074612</course><hAcc>1.839879</hAcc><vAcc>0.646000</vAcc></extensions></trkpt>
      <trkpt lon="-3.061407" lat="52.701208"><ele>183.999817</ele><time>2022-01-15T11:04:49Z</time><extensions><speed>1.135544</speed><course>27.949097</course><hAcc>1.846506</hAcc><vAcc>0.650680</vAcc></extensions></trkpt>
      <trkpt lon="-3.061399" lat="52.701217"><ele>184.157211</ele><time>2022-01-15T11:04:50Z</time><extensions><speed>1.198017</speed><course>28.811838</course><hAcc>1.827935</hAcc><vAcc>0.654260</vAcc></extensions></trkpt>
      <trkpt lon="-3.061390" lat="52.701226"><ele>184.309311</ele><time>2022-01-15T11:04:51Z</time><extensions><speed>1.192113</speed><course>30.882307</course><hAcc>1.843390</hAcc><vAcc>0.656801</vAcc></extensions></trkpt>
      <trkpt lon="-3.061380" lat="52.701236"><ele>184.474228</ele><time>2022-01-15T11:04:52Z</time><extensions><speed>1.273397</speed><course>31.382166</course><hAcc>1.828685</hAcc><vAcc>0.658246</vAcc></extensions></trkpt>
      <trkpt lon="-3.061370" lat="52.701246"><ele>184.643631</ele><time>2022-01-15T11:04:53Z</time><extensions><speed>1.292347</speed><course>31.460228</course><hAcc>1.832472</hAcc><vAcc>0.658658</vAcc></extensions></trkpt>
      <trkpt lon="-3.061361" lat="52.701256"><ele>184.798523</ele><time>2022-01-15T11:04:54Z</time><extensions><speed>1.282064</speed><course>30.439947</course><hAcc>1.855320</hAcc><vAcc>0.658118</vAcc></extensions></trkpt>
      <trkpt lon="-3.061351" lat="52.701265"><ele>184.964264</ele><time>2022-01-15T11:04:55Z</time><extensions><speed>1.256898</speed><course>29.660864</course><hAcc>1.885832</hAcc><vAcc>0.656767</vAcc></extensions></trkpt>
      <trkpt lon="-3.061342" lat="52.701275"><ele>185.134338</ele><time>2022-01-15T11:04:56Z</time><extensions><speed>1.212161</speed><course>28.787031</course><hAcc>1.918565</hAcc><vAcc>0.654783</vAcc></extensions></trkpt>
      <trkpt lon="-3.061334" lat="52.701285"><ele>185.312576</ele><time>2022-01-15T11:04:57Z</time><extensions><speed>1.159124</speed><course>29.154222</course><hAcc>1.942644</hAcc><vAcc>0.652396</vAcc></extensions></trkpt>
      <trkpt lon="-3.061326" lat="52.701293"><ele>185.494644</ele><time>2022-01-15T11:04:58Z</time><extensions><speed>1.085848</speed><course>29.965221</course><hAcc>1.970218</hAcc><vAcc>0.649898</vAcc></extensions></trkpt>
      <trkpt lon="-3.061317" lat="52.701302"><ele>185.679520</ele><time>2022-01-15T11:04:59Z</time><extensions><speed>1.120862</speed><course>29.993967</course><hAcc>1.972069</hAcc><vAcc>0.647567</vAcc></extensions></trkpt>
      <trkpt lon="-3.061309" lat="52.701311"><ele>185.868347</ele><time>2022-01-15T11:05:00Z</time><extensions><speed>1.159227</speed><course>29.707870</course><hAcc>1.977559</hAcc><vAcc>0.645593</vAcc></extensions></trkpt>
      <trkpt lon="-3.061300" lat="52.701320"><ele>186.058960</ele><time>2022-01-15T11:05:01Z</time><extensions><speed>1.221633</speed><course>29.440828</course><hAcc>1.989940</hAcc><vAcc>0.644065</vAcc></extensions></trkpt>
      <trkpt lon="-3.061291" lat="52.701330"><ele>186.250824</ele><time>2022-01-15T11:05:02Z</time><extensions><speed>1.242247</speed><course>29.146761</course><hAcc>2.007685</hAcc><vAcc>0.642873</vAcc></extensions></trkpt>
      <trkpt lon="-3.061282" lat="52.701340"><ele>186.441544</ele><time>2022-01-15T11:05:03Z</time><extensions><speed>1.249653</speed><course>28.693928</course><hAcc>2.016471</hAcc><vAcc>0.641828</vAcc></extensions></trkpt>
      <trkpt lon="-3.061274" lat="52.701349"><ele>186.637329</ele><time>2022-01-15T11:05:04Z</time><extensions><speed>1.147763</speed><course>28.649235</course><hAcc>2.029481</hAcc><vAcc>0.640653</vAcc></extensions></trkpt>
      <trkpt lon="-3.061266" lat="52.701358"><ele>186.821259</ele><time>2022-01-15T11:05:05Z</time><extensions><speed>1.023643</speed><course>29.039934</course><hAcc>2.040827</hAcc><vAcc>0.639089</vAcc></extensions></trkpt>
      <trkpt lon="-3.061258" lat="52.701366"><ele>187.006149</ele><time>2022-01-15T11:05:06Z</time><extensions><speed>1.091101</speed><course>29.897621</course><hAcc>2.017746</hAcc><vAcc>0.636869</vAcc></extensions></trkpt>
      <trkpt lon="-3.061250" lat="52.701375"><ele>187.181946</ele><time>2022-01-15T11:05:07Z</time><extensions><speed>1.141569</speed><course>29.488115</course><hAcc>2.016089</hAcc><vAcc>0.633807</vAcc></extensions></trkpt>
      <trkpt lon="-3.061242" lat="52.701384"><ele>187.349075</ele><time>2022-01-15T11:05:08Z</time><extensions><speed>1.148564</speed><course>28.098162</course><hAcc>2.039701</hAcc><vAcc>0.629782</vAcc></extensions></trkpt>
      <trkpt lon="-3.061234" lat="52.701393"><ele>187.506119</ele><time>2022-01-15T11:05:09Z</time><extensions><speed>1.128481</speed><course>26.620890</course><hAcc>2.063871</hAcc><vAcc>0.624756</vAcc></extensions></trkpt>
      <trkpt lon="-3.061226" lat="52.701402"><ele>187.652817</ele><time>2022-01-15T11:05:10Z</time><extensions><speed>1.155081</speed><course>25.652964</course><hAcc>2.074553</hAcc><vAcc>0.618774</vAcc></extensions></trkpt>
      <trkpt lon="-3.061219" lat="52.701412"><ele>187.792114</ele><time>2022-01-15T11:05:11Z</time><extensions><speed>1.195926</speed><course>24.765381</course><hAcc>2.089740</hAcc><vAcc>0.611967</vAcc></extensions></trkpt>
      <trkpt lon="-3.061211" lat="52.701422"><ele>187.927673</ele><time>2022-01-15T11:05:12Z</time><extensions><speed>1.285448</speed><course>24.611010</course><hAcc>2.096853</hAcc><vAcc>0.604551</vAcc></extensions></trkpt>
      <trkpt lon="-3.061203" lat="52.701433"><ele>188.059799</ele><time>2022-01-15T11:05:13Z</time><extensions><speed>1.343499</speed><course>24.770800</course><hAcc>2.112894</hAcc><vAcc>0.596789</vAcc></extensions></trkpt>
      <trkpt lon="-3.061195" lat="52.701444"><ele>188.187607</ele><time>2022-01-15T11:05:14Z</time><extensions><speed>1.363661</speed><course>25.543123</course><hAcc>2.140771</hAcc><vAcc>0.588939</vAcc></extensions></trkpt>
      <trkpt lon="-3.061186" lat="52.701455"><ele>188.312454</ele><time>2022-01-15T11:05:15Z</time><extensions><speed>1.332933</speed><course>26.450905</course><hAcc>2.172187</hAcc><vAcc>0.581181</vAcc></extensions></trkpt>
      <trkpt lon="-3.061177" lat="52.701465"><ele>188.439575</ele><time>2022-01-15T11:05:16Z</time><extensions><speed>1.317136</speed><course>27.001541</course><hAcc>2.196077</hAcc><vAcc>0.573618</vAcc></extensions></trkpt>
      <trkpt lon="-3.061168" lat="52.701476"><ele>188.569382</ele><time>2022-01-15T11:05:17Z</time><extensions><speed>1.310403</speed><course>28.400269</course><hAcc>2.211168</hAcc><vAcc>0.566313</vAcc></extensions></trkpt>
      <trkpt lon="-3.061158" lat="52.701486"><ele>188.704300</ele><time>2022-01-15T11:05:18Z</time><extensions><speed>1.288712</speed><course>29.627708</course><hAcc>2.221295</hAcc><vAcc>0.559347</vAcc></extensions></trkpt>
      <trkpt lon="-3.061149" lat="52.701496"><ele>188.845322</ele><time>2022-01-15T11:05:19Z</time><extensions><speed>1.242261</speed><course>29.097969</course><hAcc>2.226943</hAcc><vAcc>0.552896</vAcc></extensions></trkpt>
      <trkpt lon="-3.061140" lat="52.701506"><ele>188.992142</ele><time>2022-01-15T11:05:20Z</time><extensions><speed>1.223002</speed><course>29.044256</course><hAcc>2.224243</hAcc><vAcc>0.547305</vAcc></extensions></trkpt>
      <trkpt lon="-3.061131" lat="52.701516"><ele>189.145828</ele><time>2022-01-15T11:05:21Z</time><extensions><speed>1.229197</speed><course>28.821165</course><hAcc>2.228958</hAcc><vAcc>0.543073</vAcc></extensions></trkpt>
      <trkpt lon="-3.061122" lat="52.701526"><ele>189.307800</ele><time>2022-01-15T11:05:22Z</time><extensions><speed>1.250376</speed><course>29.180101</course><hAcc>2.223160</hAcc><vAcc>0.540707</vAcc></extensions></trkpt>
      <trkpt lon="-3.061113" lat="52.701536"><ele>189.477280</ele><time>2022-01-15T11:05:23Z</time><extensions><speed>1.242498</speed><course>29.791431</course><hAcc>2.202139</hAcc><vAcc>0.540593</vAcc></extensions></trkpt>
      <trkpt lon="-3.061104" lat="52.701545"><ele>189.655746</ele><time>2022-01-15T11:05:24Z</time><extensions><speed>1.165043</speed><course>29.571342</course><hAcc>2.175282</hAcc><vAcc>0.542834</vAcc></extensions></trkpt>
      <trkpt lon="-3.061096" lat="52.701554"><ele>189.835403</ele><time>2022-01-15T11:05:25Z</time><extensions><speed>1.087318</speed><course>27.867399</course><hAcc>2.159646</hAcc><vAcc>0.547155</vAcc></extensions></trkpt>
      <trkpt lon="-3.061089" lat="52.701563"><ele>190.027008</ele><time>2022-01-15T11:05:26Z</time><extensions><speed>1.052261</speed><course>28.199816</course><hAcc>2.158966</hAcc><vAcc>0.552967</vAcc></extensions></trkpt>
      <trkpt lon="-3.061082" lat="52.701571"><ele>190.215424</ele><time>2022-01-15T11:05:27Z</time><extensions><speed>0.983271</speed><course>27.558119</course><hAcc>2.164474</hAcc><vAcc>0.559570</vAcc></extensions></trkpt>
      <trkpt lon="-3.061075" lat="52.701579"><ele>190.408539</ele><time>2022-01-15T11:05:28Z</time><extensions><speed>1.082347</speed><course>25.842503</course><hAcc>2.114610</hAcc><vAcc>0.566336</vAcc></extensions></trkpt>
      <trkpt lon="-3.061068" lat="52.701589"><ele>190.594650</ele><time>2022-01-15T11:05:29Z</time><extensions><speed>1.159905</speed><course>23.551395</course><hAcc>2.084663</hAcc><vAcc>0.572804</vAcc></extensions></trkpt>
      <trkpt lon="-3.061061" lat="52.701599"><ele>190.777557</ele><time>2022-01-15T11:05:30Z</time><extensions><speed>1.257419</speed><course>21.692335</course><hAcc>2.072657</hAcc><vAcc>0.578733</vAcc></extensions></trkpt>
      <trkpt lon="-3.061054" lat="52.701610"><ele>190.946136</ele><time>2022-01-15T11:05:31Z</time><extensions><speed>1.361576</speed><course>19.926044</course><hAcc>2.056517</hAcc><vAcc>0.584118</vAcc></extensions></trkpt>
      <trkpt lon="-3.061047" lat="52.701622"><ele>191.118591</ele><time>2022-01-15T11:05:32Z</time><extensions><speed>1.478404</speed><course>18.782274</course><hAcc>2.040475</hAcc><vAcc>0.589083</vAcc></extensions></trkpt>
      <trkpt lon="-3.061040" lat="52.701635"><ele>191.285095</ele><time>2022-01-15T11:05:33Z</time><extensions><speed>1.565976</speed><course>17.656816</course><hAcc>2.026072</hAcc><vAcc>0.593750</vAcc></extensions></trkpt>
      <trkpt lon="-3.061033" lat="52.701648"><ele>191.446411</ele><time>2022-01-15T11:05:34Z</time><extensions><speed>1.556065</speed><course>15.727642</course><hAcc>2.016022</hAcc><vAcc>0.598193</vAcc></extensions></trkpt>
      <trkpt lon="-3.061027" lat="52.701662"><ele>191.599762</ele><time>2022-01-15T11:05:35Z</time><extensions><speed>1.424278</speed><course>13.985606</course><hAcc>2.011471</hAcc><vAcc>0.602383</vAcc></extensions></trkpt>
      <trkpt lon="-3.061023" lat="52.701673"><ele>191.743637</ele><time>2022-01-15T11:05:36Z</time><extensions><speed>1.224424</speed><course>14.228710</course><hAcc>2.011838</hAcc><vAcc>0.606259</vAcc></extensions></trkpt>
      <trkpt lon="-3.061018" lat="52.701683"><ele>191.888687</ele><time>2022-01-15T11:05:37Z</time><extensions><speed>1.087980</speed><course>17.816483</course><hAcc>2.012234</hAcc><vAcc>0.609708</vAcc></extensions></trkpt>
      <trkpt lon="-3.061012" lat="52.701692"><ele>192.031738</ele><time>2022-01-15T11:05:38Z</time><extensions><speed>1.054739</speed><course>22.738001</course><hAcc>2.001801</hAcc><vAcc>0.612662</vAcc></extensions></trkpt>
      <trkpt lon="-3.061006" lat="52.701701"><ele>192.170349</ele><time>2022-01-15T11:05:39Z</time><extensions><speed>1.110299</speed><course>26.239485</course><hAcc>1.969872</hAcc><vAcc>0.615165</vAcc></extensions></trkpt>
      <trkpt lon="-3.060998" lat="52.701710"><ele>192.311615</ele><time>2022-01-15T11:05:40Z</time><extensions><speed>1.143496</speed><course>28.019030</course><hAcc>1.962841</hAcc><vAcc>0.617174</vAcc></extensions></trkpt>
      <trkpt lon="-3.060990" lat="52.701719"><ele>192.456070</ele><time>2022-01-15T11:05:41Z</time><extensions><speed>1.173751</speed><course>29.319981</course><hAcc>1.973120</hAcc><vAcc>0.618695</vAcc></extensions></trkpt>
      <trkpt lon="-3.060981" lat="52.701729"><ele>192.605850</ele><time>2022-01-15T11:05:42Z</time><extensions><speed>1.253606</speed><course>29.711815</course><hAcc>1.976424</hAcc><vAcc>0.619707</vAcc></extensions></trkpt>
      <trkpt lon="-3.060972" lat="52.701739"><ele>192.754959</ele><time>2022-01-15T11:05:43Z</time><extensions><speed>1.291185</speed><course>29.539633</course><hAcc>1.980348</hAcc><vAcc>0.620212</vAcc></extensions></trkpt>
      <trkpt lon="-3.060962" lat="52.701749"><ele>192.900635</ele><time>2022-01-15T11:05:44Z</time><extensions><speed>1.316570</speed><course>28.893017</course><hAcc>1.990226</hAcc><vAcc>0.620259</vAcc></extensions></trkpt>
      <trkpt lon="-3.060953" lat="52.701760"><ele>193.054596</ele><time>2022-01-15T11:05:45Z</time><extensions><speed>1.343991</speed><course>27.156572</course><hAcc>1.989287</hAcc><vAcc>0.619911</vAcc></extensions></trkpt>
      <trkpt lon="-3.060944" lat="52.701770"><ele>193.210480</ele><time>2022-01-15T11:05:46Z</time><extensions><speed>1.326494</speed><course>25.371140</course><hAcc>1.978807</hAcc><vAcc>0.619257</vAcc></extensions></trkpt>
      <trkpt lon="-3.060936" lat="52.701781"><ele>193.360001</ele><time>2022-01-15T11:05:47Z</time><extensions><speed>1.259002</speed><course>24.155306</course><hAcc>1.969063</hAcc><vAcc>0.618450</vAcc></extensions></trkpt>
      <trkpt lon="-3.060929" lat="52.701791"><ele>193.505890</ele><time>2022-01-15T11:05:48Z</time><extensions><speed>1.157532</speed><course>25.065676</course><hAcc>1.977777</hAcc><vAcc>0.617633</vAcc></extensions></trkpt>
      <trkpt lon="-3.060922" lat="52.701800"><ele>193.638382</ele><time>2022-01-15T11:05:49Z</time><extensions><speed>1.008583</speed><course>27.586697</course><hAcc>1.997680</hAcc><vAcc>0.616924</vAcc></extensions></trkpt>
      <trkpt lon="-3.060915" lat="52.701808"><ele>193.765457</ele><time>2022-01-15T11:05:50Z</time><extensions><speed>1.014370</speed><course>26.451084</course><hAcc>1.974108</hAcc><vAcc>0.616335</vAcc></extensions></trkpt>
      <trkpt lon="-3.060908" lat="52.701816"><ele>193.882004</ele><time>2022-01-15T11:05:51Z</time><extensions><speed>1.066816</speed><course>25.193913</course><hAcc>1.954965</hAcc><vAcc>0.615814</vAcc></extensions></trkpt>
      <trkpt lon="-3.060902" lat="52.701825"><ele>193.998734</ele><time>2022-01-15T11:05:52Z</time><extensions><speed>1.113278</speed><course>23.197536</course><hAcc>1.943660</hAcc><vAcc>0.615330</vAcc></extensions></trkpt>
      <trkpt lon="-3.060895" lat="52.701834"><ele>194.104156</ele><time>2022-01-15T11:05:53Z</time><extensions><speed>1.122603</speed><course>21.925514</course><hAcc>1.939431</hAcc><vAcc>0.614853</vAcc></extensions></trkpt>
      <trkpt lon="-3.060889" lat="52.701844"><ele>194.198837</ele><time>2022-01-15T11:05:54Z</time><extensions><speed>1.136750</speed><course>21.071913</course><hAcc>1.948197</hAcc><vAcc>0.614335</vAcc></extensions></trkpt>
      <trkpt lon="-3.060883" lat="52.701853"><ele>194.280151</ele><time>2022-01-15T11:05:55Z</time><extensions><speed>1.190645</speed><course>20.277735</course><hAcc>1.958854</hAcc><vAcc>0.613696</vAcc></extensions></trkpt>
      <trkpt lon="-3.060877" lat="52.701863"><ele>194.358353</ele><time>2022-01-15T11:05:56Z</time><extensions><speed>1.184226</speed><course>20.546614</course><hAcc>1.937880</hAcc><vAcc>0.612862</vAcc></extensions></trkpt>
      <trkpt lon="-3.060871" lat="52.701873"><ele>194.426163</ele><time>2022-01-15T11:05:57Z</time><extensions><speed>1.181871</speed><course>20.877016</course><hAcc>1.928111</hAcc><vAcc>0.611779</vAcc></extensions></trkpt>
      <trkpt lon="-3.060864" lat="52.701883"><ele>194.491547</ele><time>2022-01-15T11:05:58Z</time><extensions><speed>1.169899</speed><course>21.494961</course><hAcc>1.924183</hAcc><vAcc>0.610424</vAcc></extensions></trkpt>
      <trkpt lon="-3.060858" lat="52.701893"><ele>194.551651</ele><time>2022-01-15T11:05:59Z</time><extensions><speed>1.168114</speed><course>22.289761</course><hAcc>1.937013</hAcc><vAcc>0.608836</vAcc></extensions></trkpt>
      <trkpt lon="-3.060851" lat="52.701903"><ele>194.614716</ele><time>2022-01-15T11:06:00Z</time><extensions><speed>1.162483</speed><course>23.420475</course><hAcc>1.947068</hAcc><vAcc>0.607104</vAcc></extensions></trkpt>
      <trkpt lon="-3.060844" lat="52.701912"><ele>194.691757</ele><time>2022-01-15T11:06:01Z</time><extensions><speed>1.109055</speed><course>24.697458</course><hAcc>1.938409</hAcc><vAcc>0.605382</vAcc></extensions></trkpt>
      <trkpt lon="-3.060837" lat="52.701921"><ele>194.772705</ele><time>2022-01-15T11:06:02Z</time><extensions><speed>1.067800</speed><course>25.190712</course><hAcc>1.945983</hAcc><vAcc>0.603863</vAcc></extensions></trkpt>
      <trkpt lon="-3.060830" lat="52.701930"><ele>194.861816</ele><time>2022-01-15T11:06:03Z</time><extensions><speed>1.053454</speed><course>27.451788</course><hAcc>1.957945</hAcc><vAcc>0.602714</vAcc></extensions></trkpt>
      <trkpt lon="-3.060822" lat="52.701938"><ele>194.962784</ele><time>2022-01-15T11:06:04Z</time><extensions><speed>1.081960</speed><course>30.694380</course><hAcc>1.959342</hAcc><vAcc>0.602033</vAcc></extensions></trkpt>
      <trkpt lon="-3.060813" lat="52.701947"><ele>195.067734</ele><time>2022-01-15T11:06:05Z</time><extensions><speed>1.128971</speed><course>33.321907</course><hAcc>1.944885</hAcc><vAcc>0.601837</vAcc></extensions></trkpt>
      <trkpt lon="-3.060803" lat="52.701955"><ele>195.180359</ele><time>2022-01-15T11:06:06Z</time><extensions><speed>1.188195</speed><course>35.787521</course><hAcc>1.924425</hAcc><vAcc>0.602071</vAcc></extensions></trkpt>
      <trkpt lon="-3.060792" lat="52.701964"><ele>195.317459</ele><time>2022-01-15T11:06:07Z</time><extensions><speed>1.218117</speed><course>38.609619</course><hAcc>1.905282</hAcc><vAcc>0.602605</vAcc></extensions></trkpt>
      <trkpt lon="-3.060780" lat="52.701973"><ele>195.470215</ele><time>2022-01-15T11:06:08Z</time><extensions><speed>1.243282</speed><course>38.725861</course><hAcc>1.907750</hAcc><vAcc>0.603323</vAcc></extensions></trkpt>
      <trkpt lon="-3.060769" lat="52.701981"><ele>195.635880</ele><time>2022-01-15T11:06:09Z</time><extensions><speed>1.232757</speed><course>37.158089</course><hAcc>1.926288</hAcc><vAcc>0.604113</vAcc></extensions></trkpt>
      <trkpt lon="-3.060757" lat="52.701990"><ele>195.812866</ele><time>2022-01-15T11:06:10Z</time><extensions><speed>1.328661</speed><course>39.172470</course><hAcc>1.865646</hAcc><vAcc>0.604915</vAcc></extensions></trkpt>
      <trkpt lon="-3.060744" lat="52.702000"><ele>196.004974</ele><time>2022-01-15T11:06:11Z</time><extensions><speed>1.375170</speed><course>40.394909</course><hAcc>1.820806</hAcc><vAcc>0.605711</vAcc></extensions></trkpt>
      <trkpt lon="-3.060731" lat="52.702009"><ele>196.200119</ele><time>2022-01-15T11:06:12Z</time><extensions><speed>1.358979</speed><course>41.161610</course><hAcc>1.806926</hAcc><vAcc>0.606494</vAcc></extensions></trkpt>
      <trkpt lon="-3.060718" lat="52.702018"><ele>196.406784</ele><time>2022-01-15T11:06:13Z</time><extensions><speed>1.255434</speed><course>40.914551</course><hAcc>1.813777</hAcc><vAcc>0.607266</vAcc></extensions></trkpt>
      <trkpt lon="-3.060706" lat="52.702027"><ele>196.616379</ele><time>2022-01-15T11:06:14Z</time><extensions><speed>1.303626</speed><course>40.581146</course><hAcc>1.798758</hAcc><vAcc>0.608050</vAcc></extensions></trkpt>
      <trkpt lon="-3.060693" lat="52.702036"><ele>196.837570</ele><time>2022-01-15T11:06:15Z</time><extensions><speed>1.314144</speed><course>39.707951</course><hAcc>1.766233</hAcc><vAcc>0.608871</vAcc></extensions></trkpt>
      <trkpt lon="-3.060681" lat="52.702045"><ele>197.074768</ele><time>2022-01-15T11:06:16Z</time><extensions><speed>1.296008</speed><course>37.508598</course><hAcc>1.755585</hAcc><vAcc>0.609797</vAcc></extensions></trkpt>
      <trkpt lon="-3.060669" lat="52.702054"><ele>197.316620</ele><time>2022-01-15T11:06:17Z</time><extensions><speed>1.276961</speed><course>37.390503</course><hAcc>1.742539</hAcc><vAcc>0.610877</vAcc></extensions></trkpt>
      <trkpt lon="-3.060658" lat="52.702063"><ele>197.562271</ele><time>2022-01-15T11:06:18Z</time><extensions><speed>1.200970</speed><course>39.005428</course><hAcc>1.734809</hAcc><vAcc>0.612128</vAcc></extensions></trkpt>
      <trkpt lon="-3.060647" lat="52.702071"><ele>197.808578</ele><time>2022-01-15T11:06:19Z</time><extensions><speed>1.144693</speed><course>39.272839</course><hAcc>1.727777</hAcc><vAcc>0.613523</vAcc></extensions></trkpt>
      <trkpt lon="-3.060636" lat="52.702078"><ele>198.055573</ele><time>2022-01-15T11:06:20Z</time><extensions><speed>1.079188</speed><course>39.463318</course><hAcc>1.705638</hAcc><vAcc>0.614965</vAcc></extensions></trkpt>
      <trkpt lon="-3.060626" lat="52.702086"><ele>198.293930</ele><time>2022-01-15T11:06:21Z</time><extensions><speed>1.016189</speed><course>37.780178</course><hAcc>1.711948</hAcc><vAcc>0.616365</vAcc></extensions></trkpt>
      <trkpt lon="-3.060616" lat="52.702093"><ele>198.543091</ele><time>2022-01-15T11:06:22Z</time><extensions><speed>1.111125</speed><course>39.699665</course><hAcc>1.695129</hAcc><vAcc>0.617644</vAcc></extensions></trkpt>
      <trkpt lon="-3.060605" lat="52.702101"><ele>198.784668</ele><time>2022-01-15T11:06:23Z</time><extensions><speed>1.131941</speed><course>38.464527</course><hAcc>1.716503</hAcc><vAcc>0.618799</vAcc></extensions></trkpt>
      <trkpt lon="-3.060595" lat="52.702109"><ele>199.021194</ele><time>2022-01-15T11:06:24Z</time><extensions><speed>1.142066</speed><course>37.616482</course><hAcc>1.743399</hAcc><vAcc>0.619927</vAcc></extensions></trkpt>
      <trkpt lon="-3.060584" lat="52.702117"><ele>199.254105</ele><time>2022-01-15T11:06:25Z</time><extensions><speed>1.186562</speed><course>38.731499</course><hAcc>1.697067</hAcc><vAcc>0.621092</vAcc></extensions></trkpt>
      <trkpt lon="-3.060573" lat="52.702126"><ele>199.477585</ele><time>2022-01-15T11:06:26Z</time><extensions><speed>1.203975</speed><course>38.800610</course><hAcc>1.686648</hAcc><vAcc>0.622370</vAcc></extensions></trkpt>
      <trkpt lon="-3.060562" lat="52.702134"><ele>199.690079</ele><time>2022-01-15T11:06:27Z</time><extensions><speed>1.201795</speed><course>37.507687</course><hAcc>1.708847</hAcc><vAcc>0.623780</vAcc></extensions></trkpt>
      <trkpt lon="-3.060551" lat="52.702143"><ele>199.890671</ele><time>2022-01-15T11:06:28Z</time><extensions><speed>1.185219</speed><course>38.484562</course><hAcc>1.730066</hAcc><vAcc>0.625335</vAcc></extensions></trkpt>
      <trkpt lon="-3.060540" lat="52.702151"><ele>200.087082</ele><time>2022-01-15T11:06:29Z</time><extensions><speed>1.161746</speed><course>37.039333</course><hAcc>1.772364</hAcc><vAcc>0.627003</vAcc></extensions></trkpt>
      <trkpt lon="-3.060529" lat="52.702159"><ele>200.265289</ele><time>2022-01-15T11:06:30Z</time><extensions><speed>1.175703</speed><course>40.934341</course><hAcc>1.749834</hAcc><vAcc>0.628756</vAcc></extensions></trkpt>
      <trkpt lon="-3.060517" lat="52.702167"><ele>200.440842</ele><time>2022-01-15T11:06:31Z</time><extensions><speed>1.205216</speed><course>41.488327</course><hAcc>1.738273</hAcc><vAcc>0.630592</vAcc></extensions></trkpt>
      <trkpt lon="-3.060506" lat="52.702176"><ele>200.607086</ele><time>2022-01-15T11:06:32Z</time><extensions><speed>1.217132</speed><course>40.317337</course><hAcc>1.734563</hAcc><vAcc>0.632525</vAcc></extensions></trkpt>
      <trkpt lon="-3.060494" lat="52.702184"><ele>200.773148</ele><time>2022-01-15T11:06:33Z</time><extensions><speed>1.226787</speed><course>39.344296</course><hAcc>1.724237</hAcc><vAcc>0.634574</vAcc></extensions></trkpt>
      <trkpt lon="-3.060483" lat="52.702193"><ele>200.937057</ele><time>2022-01-15T11:06:34Z</time><extensions><speed>1.187958</speed><course>37.987606</course><hAcc>1.732150</hAcc><vAcc>0.636744</vAcc></extensions></trkpt>
      <trkpt lon="-3.060472" lat="52.702201"><ele>201.095627</ele><time>2022-01-15T11:06:35Z</time><extensions><speed>1.195415</speed><course>38.496574</course><hAcc>1.742246</hAcc><vAcc>0.639019</vAcc></extensions></trkpt>
      <trkpt lon="-3.060460" lat="52.702210"><ele>201.249420</ele><time>2022-01-15T11:06:36Z</time><extensions><speed>1.301604</speed><course>39.061806</course><hAcc>1.712094</hAcc><vAcc>0.641381</vAcc></extensions></trkpt>
      <trkpt lon="-3.060447" lat="52.702220"><ele>201.398972</ele><time>2022-01-15T11:06:37Z</time><extensions><speed>1.430128</speed><course>40.102180</course><hAcc>1.682833</hAcc><vAcc>0.643831</vAcc></extensions></trkpt>
      <trkpt lon="-3.060433" lat="52.702230"><ele>201.526443</ele><time>2022-01-15T11:06:38Z</time><extensions><speed>1.509066</speed><course>39.395954</course><hAcc>1.693386</hAcc><vAcc>0.646399</vAcc></extensions></trkpt>
      <trkpt lon="-3.060419" lat="52.702240"><ele>201.669022</ele><time>2022-01-15T11:06:39Z</time><extensions><speed>1.443258</speed><course>37.245964</course><hAcc>1.702668</hAcc><vAcc>0.649061</vAcc></extensions></trkpt>
      <trkpt lon="-3.060407" lat="52.702250"><ele>201.798325</ele><time>2022-01-15T11:06:40Z</time><extensions><speed>1.363727</speed><course>35.420364</course><hAcc>1.713445</hAcc><vAcc>0.651843</vAcc></extensions></trkpt>
      <trkpt lon="-3.060395" lat="52.702260"><ele>201.913086</ele><time>2022-01-15T11:06:41Z</time><extensions><speed>1.396133</speed><course>35.569035</course><hAcc>1.691422</hAcc><vAcc>0.654695</vAcc></extensions></trkpt>
      <trkpt lon="-3.060383" lat="52.702271"><ele>202.035294</ele><time>2022-01-15T11:06:42Z</time><extensions><speed>1.424953</speed><course>35.588474</course><hAcc>1.697157</hAcc><vAcc>0.657594</vAcc></extensions></trkpt>
      <trkpt lon="-3.060371" lat="52.702281"><ele>202.159012</ele><time>2022-01-15T11:06:43Z</time><extensions><speed>1.361608</speed><course>36.200603</course><hAcc>1.714114</hAcc><vAcc>0.660454</vAcc></extensions></trkpt>
      <trkpt lon="-3.060359" lat="52.702290"><ele>202.267654</ele><time>2022-01-15T11:06:44Z</time><extensions><speed>1.298638</speed><course>38.316036</course><hAcc>1.708271</hAcc><vAcc>0.663238</vAcc></extensions></trkpt>
      <trkpt lon="-3.060347" lat="52.702299"><ele>202.360809</ele><time>2022-01-15T11:06:45Z</time><extensions><speed>1.260136</speed><course>41.514271</course><hAcc>1.725131</hAcc><vAcc>0.665864</vAcc></extensions></trkpt>
      <trkpt lon="-3.060334" lat="52.702308"><ele>202.460388</ele><time>2022-01-15T11:06:46Z</time><extensions><speed>1.237441</speed><course>43.129406</course><hAcc>1.751611</hAcc><vAcc>0.668246</vAcc></extensions></trkpt>
      <trkpt lon="-3.060321" lat="52.702316"><ele>202.557327</ele><time>2022-01-15T11:06:47Z</time><extensions><speed>1.224962</speed><course>43.943443</course><hAcc>1.744781</hAcc><vAcc>0.670272</vAcc></extensions></trkpt>
      <trkpt lon="-3.060309" lat="52.702324"><ele>202.651596</ele><time>2022-01-15T11:06:48Z</time><extensions><speed>1.217738</speed><course>44.176216</course><hAcc>1.740091</hAcc><vAcc>0.671975</vAcc></extensions></trkpt>
      <trkpt lon="-3.060296" lat="52.702332"><ele>202.750046</ele><time>2022-01-15T11:06:49Z</time><extensions><speed>1.242373</speed><course>43.066597</course><hAcc>1.731403</hAcc><vAcc>0.673303</vAcc></extensions></trkpt>
      <trkpt lon="-3.060284" lat="52.702340"><ele>202.848099</ele><time>2022-01-15T11:06:50Z</time><extensions><speed>1.270180</speed><course>43.775875</course><hAcc>1.738352</hAcc><vAcc>0.674229</vAcc></extensions></trkpt>
      <trkpt lon="-3.060270" lat="52.702348"><ele>202.934555</ele><time>2022-01-15T11:06:51Z</time><extensions><speed>1.308255</speed><course>45.510704</course><hAcc>1.734743</hAcc><vAcc>0.674849</vAcc></extensions></trkpt>
      <trkpt lon="-3.060256" lat="52.702357"><ele>203.046478</ele><time>2022-01-15T11:06:52Z</time><extensions><speed>1.329246</speed><course>46.423260</course><hAcc>1.765650</hAcc><vAcc>0.675132</vAcc></extensions></trkpt>
      <trkpt lon="-3.060242" lat="52.702365"><ele>203.134506</ele><time>2022-01-15T11:06:53Z</time><extensions><speed>1.397221</speed><course>45.795963</course><hAcc>1.760853</hAcc><vAcc>0.675223</vAcc></extensions></trkpt>
      <trkpt lon="-3.060227" lat="52.702374"><ele>203.238464</ele><time>2022-01-15T11:06:54Z</time><extensions><speed>1.417343</speed><course>44.238308</course><hAcc>1.751871</hAcc><vAcc>0.675229</vAcc></extensions></trkpt>
      <trkpt lon="-3.060213" lat="52.702384"><ele>203.338074</ele><time>2022-01-15T11:06:55Z</time><extensions><speed>1.425771</speed><course>41.943424</course><hAcc>1.763288</hAcc><vAcc>0.675287</vAcc></extensions></trkpt>
      <trkpt lon="-3.060199" lat="52.702394"><ele>203.439896</ele><time>2022-01-15T11:06:56Z</time><extensions><speed>1.484402</speed><course>38.875675</course><hAcc>1.770854</hAcc><vAcc>0.675551</vAcc></extensions></trkpt>
      <trkpt lon="-3.060186" lat="52.702405"><ele>203.542984</ele><time>2022-01-15T11:06:57Z</time><extensions><speed>1.519606</speed><course>36.366154</course><hAcc>1.777581</hAcc><vAcc>0.676193</vAcc></extensions></trkpt>
      <trkpt lon="-3.060173" lat="52.702416"><ele>203.645294</ele><time>2022-01-15T11:06:58Z</time><extensions><speed>1.535825</speed><course>34.561352</course><hAcc>1.786428</hAcc><vAcc>0.677355</vAcc></extensions></trkpt>
      <trkpt lon="-3.060160" lat="52.702428"><ele>203.745392</ele><time>2022-01-15T11:06:59Z</time><extensions><speed>1.575460</speed><course>31.954008</course><hAcc>1.771933</hAcc><vAcc>0.679168</vAcc></extensions></trkpt>
      <trkpt lon="-3.060148" lat="52.702441"><ele>203.816925</ele><time>2022-01-15T11:07:00Z</time><extensions><speed>1.627016</speed><course>30.811205</course><hAcc>1.744496</hAcc><vAcc>0.681682</vAcc></extensions></trkpt>
      <trkpt lon="-3.060136" lat="52.702453"><ele>203.913284</ele><time>2022-01-15T11:07:01Z</time><extensions><speed>1.683629</speed><course>31.321684</course><hAcc>1.720712</hAcc><vAcc>0.684899</vAcc></extensions></trkpt>
      <trkpt lon="-3.060123" lat="52.702467"><ele>203.994812</ele><time>2022-01-15T11:07:02Z</time><extensions><speed>1.844406</speed><course>30.164808</course><hAcc>1.669899</hAcc><vAcc>0.688757</vAcc></extensions></trkpt>
      <trkpt lon="-3.060108" lat="52.702482"><ele>204.058670</ele><time>2022-01-15T11:07:03Z</time><extensions><speed>1.966022</speed><course>33.188194</course><hAcc>1.646463</hAcc><vAcc>0.693136</vAcc></extensions></trkpt>
      <trkpt lon="-3.060092" lat="52.702497"><ele>204.117783</ele><time>2022-01-15T11:07:04Z</time><extensions><speed>2.016212</speed><course>33.683826</course><hAcc>1.612980</hAcc><vAcc>0.697884</vAcc></extensions></trkpt>
      <trkpt lon="-3.060077" lat="52.702512"><ele>204.154785</ele><time>2022-01-15T11:07:05Z</time><extensions><speed>1.968512</speed><course>31.854992</course><hAcc>1.577834</hAcc><vAcc>0.702834</vAcc></extensions></trkpt>
      <trkpt lon="-3.060062" lat="52.702527"><ele>204.167786</ele><time>2022-01-15T11:07:06Z</time><extensions><speed>1.937334</speed><course>29.122408</course><hAcc>1.542947</hAcc><vAcc>0.707853</vAcc></extensions></trkpt>
      <trkpt lon="-3.060048" lat="52.702542"><ele>204.133255</ele><time>2022-01-15T11:07:07Z</time><extensions><speed>1.893705</speed><course>27.021790</course><hAcc>1.528493</hAcc><vAcc>0.712762</vAcc></extensions></trkpt>
      <trkpt lon="-3.060036" lat="52.702557"><ele>204.122513</ele><time>2022-01-15T11:07:08Z</time><extensions><speed>1.882994</speed><course>25.566309</course><hAcc>1.510064</hAcc><vAcc>0.717457</vAcc></extensions></trkpt>
      <trkpt lon="-3.060024" lat="52.702572"><ele>204.107162</ele><time>2022-01-15T11:07:09Z</time><extensions><speed>1.865185</speed><course>25.594669</course><hAcc>1.489280</hAcc><vAcc>0.721833</vAcc></extensions></trkpt>
      <trkpt lon="-3.060012" lat="52.702587"><ele>204.076477</ele><time>2022-01-15T11:07:10Z</time><extensions><speed>1.846722</speed><course>25.766243</course><hAcc>1.480667</hAcc><vAcc>0.725799</vAcc></extensions></trkpt>
      <trkpt lon="-3.060000" lat="52.702602"><ele>204.031555</ele><time>2022-01-15T11:07:11Z</time><extensions><speed>1.816790</speed><course>27.568951</course><hAcc>1.480837</hAcc><vAcc>0.729302</vAcc></extensions></trkpt>
      <trkpt lon="-3.059988" lat="52.702616"><ele>203.982880</ele><time>2022-01-15T11:07:12Z</time><extensions><speed>1.839731</speed><course>26.920645</course><hAcc>1.468824</hAcc><vAcc>0.732327</vAcc></extensions></trkpt>
      <trkpt lon="-3.059976" lat="52.702631"><ele>203.917801</ele><time>2022-01-15T11:07:13Z</time><extensions><speed>1.846259</speed><course>24.804518</course><hAcc>1.473676</hAcc><vAcc>0.734904</vAcc></extensions></trkpt>
      <trkpt lon="-3.059965" lat="52.702646"><ele>203.826492</ele><time>2022-01-15T11:07:14Z</time><extensions><speed>1.833950</speed><course>24.189140</course><hAcc>1.466412</hAcc><vAcc>0.737070</vAcc></extensions></trkpt>
      <trkpt lon="-3.059954" lat="52.702661"><ele>203.740677</ele><time>2022-01-15T11:07:15Z</time><extensions><speed>1.827814</speed><course>23.765245</course><hAcc>1.476299</hAcc><vAcc>0.738904</vAcc></extensions></trkpt>
      <trkpt lon="-3.059942" lat="52.702676"><ele>203.658371</ele><time>2022-01-15T11:07:16Z</time><extensions><speed>1.782574</speed><course>28.135237</course><hAcc>1.475643</hAcc><vAcc>0.740488</vAcc></extensions></trkpt>
      <trkpt lon="-3.059929" lat="52.702689"><ele>203.582977</ele><time>2022-01-15T11:07:17Z</time><extensions><speed>1.723728</speed><course>32.047703</course><hAcc>1.469352</hAcc><vAcc>0.741893</vAcc></extensions></trkpt>
      <trkpt lon="-3.059916" lat="52.702702"><ele>203.514236</ele><time>2022-01-15T11:07:18Z</time><extensions><speed>1.818520</speed><course>31.379744</course><hAcc>1.476134</hAcc><vAcc>0.743173</vAcc></extensions></trkpt>
      <trkpt lon="-3.059902" lat="52.702716"><ele>203.441086</ele><time>2022-01-15T11:07:19Z</time><extensions><speed>1.795711</speed><course>32.012157</course><hAcc>1.477880</hAcc><vAcc>0.744368</vAcc></extensions></trkpt>
      <trkpt lon="-3.059888" lat="52.702730"><ele>203.372589</ele><time>2022-01-15T11:07:20Z</time><extensions><speed>1.814135</speed><course>31.359964</course><hAcc>1.475305</hAcc><vAcc>0.745491</vAcc></extensions></trkpt>
      <trkpt lon="-3.059875" lat="52.702743"><ele>203.306137</ele><time>2022-01-15T11:07:21Z</time><extensions><speed>1.788307</speed><course>30.072151</course><hAcc>1.469318</hAcc><vAcc>0.746552</vAcc></extensions></trkpt>
      <trkpt lon="-3.059862" lat="52.702757"><ele>203.216675</ele><time>2022-01-15T11:07:22Z</time><extensions><speed>1.770177</speed><course>29.536877</course><hAcc>1.472124</hAcc><vAcc>0.747552</vAcc></extensions></trkpt>
      <trkpt lon="-3.059849" lat="52.702770"><ele>203.140228</ele><time>2022-01-15T11:07:23Z</time><extensions><speed>1.715450</speed><course>29.557877</course><hAcc>1.456552</hAcc><vAcc>0.748470</vAcc></extensions></trkpt>
      <trkpt lon="-3.059837" lat="52.702784"><ele>203.051514</ele><time>2022-01-15T11:07:24Z</time><extensions><speed>1.719774</speed><course>28.860367</course><hAcc>1.463097</hAcc><vAcc>0.749341</vAcc></extensions></trkpt>
      <trkpt lon="-3.059825" lat="52.702797"><ele>202.994751</ele><time>2022-01-15T11:07:25Z</time><extensions><speed>1.758526</speed><course>26.180378</course><hAcc>1.465886</hAcc><vAcc>0.750137</vAcc></extensions></trkpt>
      <trkpt lon="-3.059814" lat="52.702811"><ele>202.955719</ele><time>2022-01-15T11:07:26Z</time><extensions><speed>1.739257</speed><course>23.837717</course><hAcc>1.458592</hAcc><vAcc>0.750891</vAcc></extensions></trkpt>
      <trkpt lon="-3.059804" lat="52.702825"><ele>202.934860</ele><time>2022-01-15T11:07:27Z</time><extensions><speed>1.730774</speed><course>23.720936</course><hAcc>1.458045</hAcc><vAcc>0.751626</vAcc></extensions></trkpt>
      <trkpt lon="-3.059794" lat="52.702839"><ele>202.903534</ele><time>2022-01-15T11:07:28Z</time><extensions><speed>1.735662</speed><course>24.062513</course><hAcc>1.457596</hAcc><vAcc>0.752340</vAcc></extensions></trkpt>
      <trkpt lon="-3.059783" lat="52.702853"><ele>202.886444</ele><time>2022-01-15T11:07:29Z</time><extensions><speed>1.723483</speed><course>24.600065</course><hAcc>1.452664</hAcc><vAcc>0.753023</vAcc></extensions></trkpt>
      <trkpt lon="-3.059772" lat="52.702867"><ele>202.864090</ele><time>2022-01-15T11:07:30Z</time><extensions><speed>1.729260</speed><course>24.041767</course><hAcc>1.454130</hAcc><vAcc>0.753698</vAcc></extensions></trkpt>
      <trkpt lon="-3.059761" lat="52.702880"><ele>202.866943</ele><time>2022-01-15T11:07:31Z</time><extensions><speed>1.739171</speed><course>27.666203</course><hAcc>1.457026</hAcc><vAcc>0.754400</vAcc></extensions></trkpt>
      <trkpt lon="-3.059750" lat="52.702894"><ele>202.860107</ele><time>2022-01-15T11:07:32Z</time><extensions><speed>1.691927</speed><course>27.292965</course><hAcc>1.458768</hAcc><vAcc>0.755156</vAcc></extensions></trkpt>
      <trkpt lon="-3.059739" lat="52.702907"><ele>202.877365</ele><time>2022-01-15T11:07:33Z</time><extensions><speed>1.745404</speed><course>25.301109</course><hAcc>1.459283</hAcc><vAcc>0.755985</vAcc></extensions></trkpt>
      <trkpt lon="-3.059727" lat="52.702921"><ele>202.876205</ele><time>2022-01-15T11:07:34Z</time><extensions><speed>1.713499</speed><course>26.768772</course><hAcc>1.453251</hAcc><vAcc>0.756877</vAcc></extensions></trkpt>
      <trkpt lon="-3.059717" lat="52.702935"><ele>202.903931</ele><time>2022-01-15T11:07:35Z</time><extensions><speed>1.766130</speed><course>23.590549</course><hAcc>1.457409</hAcc><vAcc>0.757831</vAcc></extensions></trkpt>
      <trkpt lon="-3.059707" lat="52.702949"><ele>202.950470</ele><time>2022-01-15T11:07:36Z</time><extensions><speed>1.682841</speed><course>22.186476</course><hAcc>1.454829</hAcc><vAcc>0.758842</vAcc></extensions></trkpt>
      <trkpt lon="-3.059698" lat="52.702963"><ele>202.985992</ele><time>2022-01-15T11:07:37Z</time><extensions><speed>1.684520</speed><course>21.502762</course><hAcc>1.456581</hAcc><vAcc>0.759885</vAcc></extensions></trkpt>
      <trkpt lon="-3.059689" lat="52.702977"><ele>203.022751</ele><time>2022-01-15T11:07:38Z</time><extensions><speed>1.726643</speed><course>22.655865</course><hAcc>1.456632</hAcc><vAcc>0.760959</vAcc></extensions></trkpt>
      <trkpt lon="-3.059679" lat="52.702991"><ele>203.064621</ele><time>2022-01-15T11:07:39Z</time><extensions><speed>1.726326</speed><course>25.043343</course><hAcc>1.456138</hAcc><vAcc>0.762057</vAcc></extensions></trkpt>
      <trkpt lon="-3.059668" lat="52.703004"><ele>203.106781</ele><time>2022-01-15T11:07:40Z</time><extensions><speed>1.684700</speed><course>27.299185</course><hAcc>1.450393</hAcc><vAcc>0.763154</vAcc></extensions></trkpt>
      <trkpt lon="-3.059657" lat="52.703017"><ele>203.101501</ele><time>2022-01-15T11:07:41Z</time><extensions><speed>1.697646</speed><course>26.347231</course><hAcc>1.453442</hAcc><vAcc>0.764225</vAcc></extensions></trkpt>
      <trkpt lon="-3.059646" lat="52.703030"><ele>203.107452</ele><time>2022-01-15T11:07:42Z</time><extensions><speed>1.641412</speed><course>28.647179</course><hAcc>1.446238</hAcc><vAcc>0.765247</vAcc></extensions></trkpt>
      <trkpt lon="-3.059635" lat="52.703043"><ele>203.118042</ele><time>2022-01-15T11:07:43Z</time><extensions><speed>1.660271</speed><course>27.414434</course><hAcc>1.455120</hAcc><vAcc>0.766247</vAcc></extensions></trkpt>
      <trkpt lon="-3.059624" lat="52.703056"><ele>203.136292</ele><time>2022-01-15T11:07:44Z</time><extensions><speed>1.642302</speed><course>25.188507</course><hAcc>1.453388</hAcc><vAcc>0.767206</vAcc></extensions></trkpt>
      <trkpt lon="-3.059615" lat="52.703069"><ele>203.145203</ele><time>2022-01-15T11:07:45Z</time><extensions><speed>1.658749</speed><course>20.614258</course><hAcc>1.454738</hAcc><vAcc>0.768138</vAcc></extensions></trkpt>
      <trkpt lon="-3.059607" lat="52.703083"><ele>203.139145</ele><time>2022-01-15T11:07:46Z</time><extensions><speed>1.636919</speed><course>18.607492</course><hAcc>1.454265</hAcc><vAcc>0.769028</vAcc></extensions></trkpt>
      <trkpt lon="-3.059599" lat="52.703096"><ele>203.120529</ele><time>2022-01-15T11:07:47Z</time><extensions><speed>1.601000</speed><course>20.203764</course><hAcc>1.449970</hAcc><vAcc>0.769876</vAcc></extensions></trkpt>
      <trkpt lon="-3.059591" lat="52.703110"><ele>203.091370</ele><time>2022-01-15T11:07:48Z</time><extensions><speed>1.600117</speed><course>17.647417</course><hAcc>1.459986</hAcc><vAcc>0.770665</vAcc></extensions></trkpt>
      <trkpt lon="-3.059584" lat="52.703123"><ele>203.068100</ele><time>2022-01-15T11:07:49Z</time><extensions><speed>1.582164</speed><course>16.434502</course><hAcc>1.459786</hAcc><vAcc>0.771360</vAcc></extensions></trkpt>
      <trkpt lon="-3.059577" lat="52.703136"><ele>203.028046</ele><time>2022-01-15T11:07:50Z</time><extensions><speed>1.546836</speed><course>19.720869</course><hAcc>1.458128</hAcc><vAcc>0.771928</vAcc></extensions></trkpt>
      <trkpt lon="-3.059569" lat="52.703149"><ele>202.983322</ele><time>2022-01-15T11:07:51Z</time><extensions><speed>1.570047</speed><course>25.059711</course><hAcc>1.473292</hAcc><vAcc>0.772335</vAcc></extensions></trkpt>
      <trkpt lon="-3.059558" lat="52.703162"><ele>202.943314</ele><time>2022-01-15T11:07:52Z</time><extensions><speed>1.677496</speed><course>24.631624</course><hAcc>1.484794</hAcc><vAcc>0.772607</vAcc></extensions></trkpt>
      <trkpt lon="-3.059549" lat="52.703175"><ele>202.908279</ele><time>2022-01-15T11:07:53Z</time><extensions><speed>1.574021</speed><course>23.792505</course><hAcc>1.476774</hAcc><vAcc>0.772783</vAcc></extensions></trkpt>
      <trkpt lon="-3.059540" lat="52.703187"><ele>202.862885</ele><time>2022-01-15T11:07:54Z</time><extensions><speed>1.497684</speed><course>21.143808</course><hAcc>1.472958</hAcc><vAcc>0.772824</vAcc></extensions></trkpt>
      <trkpt lon="-3.059532" lat="52.703199"><ele>202.823364</ele><time>2022-01-15T11:07:55Z</time><extensions><speed>1.533703</speed><course>20.846016</course><hAcc>1.488300</hAcc><vAcc>0.772752</vAcc></extensions></trkpt>
      <trkpt lon="-3.059524" lat="52.703212"><ele>202.778839</ele><time>2022-01-15T11:07:56Z</time><extensions><speed>1.594781</speed><course>23.252274</course><hAcc>1.498295</hAcc><vAcc>0.772581</vAcc></extensions></trkpt>
      <trkpt lon="-3.059514" lat="52.703225"><ele>202.737701</ele><time>2022-01-15T11:07:57Z</time><extensions><speed>1.627889</speed><course>24.982754</course><hAcc>1.505417</hAcc><vAcc>0.772329</vAcc></extensions></trkpt>
      <trkpt lon="-3.059504" lat="52.703238"><ele>202.675247</ele><time>2022-01-15T11:07:58Z</time><extensions><speed>1.610275</speed><course>25.528324</course><hAcc>1.502942</hAcc><vAcc>0.772008</vAcc></extensions></trkpt>
      <trkpt lon="-3.059494" lat="52.703251"><ele>202.626389</ele><time>2022-01-15T11:07:59Z</time><extensions><speed>1.597164</speed><course>27.933659</course><hAcc>1.498020</hAcc><vAcc>0.771622</vAcc></extensions></trkpt>
      <trkpt lon="-3.059482" lat="52.703263"><ele>202.566742</ele><time>2022-01-15T11:08:00Z</time><extensions><speed>1.605658</speed><course>29.927351</course><hAcc>1.493150</hAcc><vAcc>0.771163</vAcc></extensions></trkpt>
      <trkpt lon="-3.059470" lat="52.703275"><ele>202.508377</ele><time>2022-01-15T11:08:01Z</time><extensions><speed>1.627586</speed><course>31.345299</course><hAcc>1.491689</hAcc><vAcc>0.770639</vAcc></extensions></trkpt>
      <trkpt lon="-3.059458" lat="52.703288"><ele>202.451111</ele><time>2022-01-15T11:08:02Z</time><extensions><speed>1.631546</speed><course>28.901381</course><hAcc>1.488229</hAcc><vAcc>0.770060</vAcc></extensions></trkpt>
      <trkpt lon="-3.059447" lat="52.703300"><ele>202.425568</ele><time>2022-01-15T11:08:03Z</time><extensions><speed>1.654564</speed><course>28.322493</course><hAcc>1.491522</hAcc><vAcc>0.769399</vAcc></extensions></trkpt>
      <trkpt lon="-3.059435" lat="52.703313"><ele>202.404465</ele><time>2022-01-15T11:08:04Z</time><extensions><speed>1.728037</speed><course>28.917408</course><hAcc>1.502235</hAcc><vAcc>0.768619</vAcc></extensions></trkpt>
      <trkpt lon="-3.059423" lat="52.703327"><ele>202.376297</ele><time>2022-01-15T11:08:05Z</time><extensions><speed>1.691784</speed><course>28.688967</course><hAcc>1.490713</hAcc><vAcc>0.767698</vAcc></extensions></trkpt>
      <trkpt lon="-3.059412" lat="52.703339"><ele>202.338470</ele><time>2022-01-15T11:08:06Z</time><extensions><speed>1.645370</speed><course>28.506075</course><hAcc>1.478290</hAcc><vAcc>0.766631</vAcc></extensions></trkpt>
      <trkpt lon="-3.059400" lat="52.703352"><ele>202.309128</ele><time>2022-01-15T11:08:07Z</time><extensions><speed>1.660427</speed><course>27.315962</course><hAcc>1.489004</hAcc><vAcc>0.765438</vAcc></extensions></trkpt>
      <trkpt lon="-3.059389" lat="52.703365"><ele>202.293442</ele><time>2022-01-15T11:08:08Z</time><extensions><speed>1.623558</speed><course>28.710608</course><hAcc>1.495602</hAcc><vAcc>0.764116</vAcc></extensions></trkpt>
      <trkpt lon="-3.059378" lat="52.703378"><ele>202.279968</ele><time>2022-01-15T11:08:09Z</time><extensions><speed>1.614429</speed><course>28.135586</course><hAcc>1.505321</hAcc><vAcc>0.762671</vAcc></extensions></trkpt>
      <trkpt lon="-3.059367" lat="52.703390"><ele>202.273010</ele><time>2022-01-15T11:08:10Z</time><extensions><speed>1.620918</speed><course>26.816418</course><hAcc>1.509664</hAcc><vAcc>0.761106</vAcc></extensions></trkpt>
      <trkpt lon="-3.059357" lat="52.703403"><ele>202.269363</ele><time>2022-01-15T11:08:11Z</time><extensions><speed>1.597782</speed><course>25.599257</course><hAcc>1.503924</hAcc><vAcc>0.759446</vAcc></extensions></trkpt>
      <trkpt lon="-3.059347" lat="52.703415"><ele>202.290359</ele><time>2022-01-15T11:08:12Z</time><extensions><speed>1.576440</speed><course>25.492338</course><hAcc>1.506823</hAcc><vAcc>0.757742</vAcc></extensions></trkpt>
      <trkpt lon="-3.059337" lat="52.703428"><ele>202.315353</ele><time>2022-01-15T11:08:13Z</time><extensions><speed>1.595772</speed><course>26.338476</course><hAcc>1.520234</hAcc><vAcc>0.756061</vAcc></extensions></trkpt>
      <trkpt lon="-3.059326" lat="52.703440"><ele>202.349030</ele><time>2022-01-15T11:08:14Z</time><extensions><speed>1.586882</speed><course>27.643400</course><hAcc>1.520999</hAcc><vAcc>0.754433</vAcc></extensions></trkpt>
      <trkpt lon="-3.059315" lat="52.703453"><ele>202.389679</ele><time>2022-01-15T11:08:15Z</time><extensions><speed>1.599279</speed><course>29.303244</course><hAcc>1.513660</hAcc><vAcc>0.752930</vAcc></extensions></trkpt>
      <trkpt lon="-3.059303" lat="52.703465"><ele>202.428238</ele><time>2022-01-15T11:08:16Z</time><extensions><speed>1.644740</speed><course>29.114332</course><hAcc>1.516057</hAcc><vAcc>0.751540</vAcc></extensions></trkpt>
      <trkpt lon="-3.059292" lat="52.703478"><ele>202.473404</ele><time>2022-01-15T11:08:17Z</time><extensions><speed>1.651025</speed><course>26.732834</course><hAcc>1.519053</hAcc><vAcc>0.750324</vAcc></extensions></trkpt>
      <trkpt lon="-3.059282" lat="52.703491"><ele>202.519806</ele><time>2022-01-15T11:08:18Z</time><extensions><speed>1.694866</speed><course>24.291079</course><hAcc>1.526653</hAcc><vAcc>0.749208</vAcc></extensions></trkpt>
      <trkpt lon="-3.059272" lat="52.703505"><ele>202.566513</ele><time>2022-01-15T11:08:19Z</time><extensions><speed>1.712520</speed><course>25.687258</course><hAcc>1.525168</hAcc><vAcc>0.748225</vAcc></extensions></trkpt>
      <trkpt lon="-3.059261" lat="52.703518"><ele>202.614883</ele><time>2022-01-15T11:08:20Z</time><extensions><speed>1.642597</speed><course>28.713112</course><hAcc>1.511752</hAcc><vAcc>0.747355</vAcc></extensions></trkpt>
      <trkpt lon="-3.059249" lat="52.703530"><ele>202.645248</ele><time>2022-01-15T11:08:21Z</time><extensions><speed>1.643384</speed><course>31.649996</course><hAcc>1.512013</hAcc><vAcc>0.746564</vAcc></extensions></trkpt>
      <trkpt lon="-3.059236" lat="52.703542"><ele>202.684769</ele><time>2022-01-15T11:08:22Z</time><extensions><speed>1.640125</speed><course>32.137962</course><hAcc>1.512222</hAcc><vAcc>0.745811</vAcc></extensions></trkpt>
      <trkpt lon="-3.059224" lat="52.703555"><ele>202.701935</ele><time>2022-01-15T11:08:23Z</time><extensions><speed>1.603807</speed><course>29.280537</course><hAcc>1.507832</hAcc><vAcc>0.745037</vAcc></extensions></trkpt>
      <trkpt lon="-3.059212" lat="52.703567"><ele>202.720139</ele><time>2022-01-15T11:08:24Z</time><extensions><speed>1.646125</speed><course>29.394897</course><hAcc>1.516495</hAcc><vAcc>0.744214</vAcc></extensions></trkpt>
      <trkpt lon="-3.059201" lat="52.703580"><ele>202.731705</ele><time>2022-01-15T11:08:25Z</time><extensions><speed>1.672311</speed><course>29.412485</course><hAcc>1.521182</hAcc><vAcc>0.743315</vAcc></extensions></trkpt>
      <trkpt lon="-3.059189" lat="52.703592"><ele>202.695923</ele><time>2022-01-15T11:08:26Z</time><extensions><speed>1.662504</speed><course>28.284378</course><hAcc>1.517176</hAcc><vAcc>0.742242</vAcc></extensions></trkpt>
      <trkpt lon="-3.059178" lat="52.703605"><ele>202.695541</ele><time>2022-01-15T11:08:27Z</time><extensions><speed>1.678076</speed><course>25.897358</course><hAcc>1.521242</hAcc><vAcc>0.740808</vAcc></extensions></trkpt>
      <trkpt lon="-3.059167" lat="52.703619"><ele>202.695480</ele><time>2022-01-15T11:08:28Z</time><extensions><speed>1.659646</speed><course>23.148767</course><hAcc>1.522638</hAcc><vAcc>0.738777</vAcc></extensions></trkpt>
      <trkpt lon="-3.059158" lat="52.703632"><ele>202.725586</ele><time>2022-01-15T11:08:29Z</time><extensions><speed>1.641639</speed><course>21.829378</course><hAcc>1.525922</hAcc><vAcc>0.736042</vAcc></extensions></trkpt>
      <trkpt lon="-3.059149" lat="52.703646"><ele>202.719315</ele><time>2022-01-15T11:08:30Z</time><extensions><speed>1.599778</speed><course>21.536518</course><hAcc>1.536927</hAcc><vAcc>0.733221</vAcc></extensions></trkpt>
      <trkpt lon="-3.059140" lat="52.703659"><ele>202.725845</ele><time>2022-01-15T11:08:31Z</time><extensions><speed>1.574557</speed><course>23.659311</course><hAcc>1.558698</hAcc><vAcc>0.730020</vAcc></extensions></trkpt>
      <trkpt lon="-3.059130" lat="52.703672"><ele>202.744843</ele><time>2022-01-15T11:08:32Z</time><extensions><speed>1.620432</speed><course>25.114038</course><hAcc>1.581305</hAcc><vAcc>0.726388</vAcc></extensions></trkpt>
      <trkpt lon="-3.059120" lat="52.703685"><ele>202.781723</ele><time>2022-01-15T11:08:33Z</time><extensions><speed>1.590167</speed><course>25.447353</course><hAcc>1.605281</hAcc><vAcc>0.722375</vAcc></extensions></trkpt>
      <trkpt lon="-3.059110" lat="52.703697"><ele>202.822525</ele><time>2022-01-15T11:08:34Z</time><extensions><speed>1.536311</speed><course>27.056814</course><hAcc>1.637020</hAcc><vAcc>0.717935</vAcc></extensions></trkpt>
      <trkpt lon="-3.059100" lat="52.703709"><ele>202.882523</ele><time>2022-01-15T11:08:35Z</time><extensions><speed>1.353635</speed><course>28.522791</course><hAcc>1.677624</hAcc><vAcc>0.713094</vAcc></extensions></trkpt>
      <trkpt lon="-3.059091" lat="52.703718"><ele>202.958176</ele><time>2022-01-15T11:08:36Z</time><extensions><speed>0.997829</speed><course>39.385311</course><hAcc>1.680096</hAcc><vAcc>0.707986</vAcc></extensions></trkpt>
      <trkpt lon="-3.059082" lat="52.703723"><ele>203.053360</ele><time>2022-01-15T11:08:37Z</time><extensions><speed>0.752395</speed><course>50.363224</course><hAcc>1.715847</hAcc><vAcc>0.702840</vAcc></extensions></trkpt>
      <trkpt lon="-3.059073" lat="52.703727"><ele>203.152634</ele><time>2022-01-15T11:08:38Z</time><extensions><speed>0.641814</speed><course>62.797966</course><hAcc>1.778760</hAcc><vAcc>0.697848</vAcc></extensions></trkpt>
      <trkpt lon="-3.059065" lat="52.703729"><ele>203.266266</ele><time>2022-01-15T11:08:39Z</time><extensions><speed>0.618819</speed><course>69.418465</course><hAcc>1.844582</hAcc><vAcc>0.693219</vAcc></extensions></trkpt>
      <trkpt lon="-3.059056" lat="52.703731"><ele>203.401337</ele><time>2022-01-15T11:08:40Z</time><extensions><speed>0.648048</speed><course>68.788544</course><hAcc>1.894122</hAcc><vAcc>0.689038</vAcc></extensions></trkpt>
      <trkpt lon="-3.059047" lat="52.703734"><ele>203.534195</ele><time>2022-01-15T11:08:41Z</time><extensions><speed>0.704535</speed><course>62.628769</course><hAcc>1.917156</hAcc><vAcc>0.685177</vAcc></extensions></trkpt>
      <trkpt lon="-3.059037" lat="52.703737"><ele>203.666000</ele><time>2022-01-15T11:08:42Z</time><extensions><speed>0.802489</speed><course>56.289829</course><hAcc>1.924678</hAcc><vAcc>0.681468</vAcc></extensions></trkpt>
      <trkpt lon="-3.059027" lat="52.703742"><ele>203.814651</ele><time>2022-01-15T11:08:43Z</time><extensions><speed>0.960087</speed><course>49.087021</course><hAcc>1.954303</hAcc><vAcc>0.677749</vAcc></extensions></trkpt>
      <trkpt lon="-3.059016" lat="52.703748"><ele>203.970917</ele><time>2022-01-15T11:08:44Z</time><extensions><speed>1.094307</speed><course>44.252987</course><hAcc>1.956049</hAcc><vAcc>0.673885</vAcc></extensions></trkpt>
      <trkpt lon="-3.059005" lat="52.703756"><ele>204.130310</ele><time>2022-01-15T11:08:45Z</time><extensions><speed>1.109073</speed><course>39.274563</course><hAcc>1.948420</hAcc><vAcc>0.669810</vAcc></extensions></trkpt>
      <trkpt lon="-3.058996" lat="52.703764"><ele>204.300644</ele><time>2022-01-15T11:08:46Z</time><extensions><speed>1.099887</speed><course>34.418945</course><hAcc>1.952854</hAcc><vAcc>0.665547</vAcc></extensions></trkpt>
      <trkpt lon="-3.058987" lat="52.703772"><ele>204.475098</ele><time>2022-01-15T11:08:47Z</time><extensions><speed>1.106991</speed><course>30.797028</course><hAcc>1.962862</hAcc><vAcc>0.661027</vAcc></extensions></trkpt>
      <trkpt lon="-3.058979" lat="52.703780"><ele>204.657181</ele><time>2022-01-15T11:08:48Z</time><extensions><speed>1.088699</speed><course>27.975533</course><hAcc>1.968209</hAcc><vAcc>0.656244</vAcc></extensions></trkpt>
      <trkpt lon="-3.058972" lat="52.703789"><ele>204.840347</ele><time>2022-01-15T11:08:49Z</time><extensions><speed>1.068526</speed><course>25.343590</course><hAcc>1.974374</hAcc><vAcc>0.651193</vAcc></extensions></trkpt>
      <trkpt lon="-3.058965" lat="52.703798"><ele>205.025375</ele><time>2022-01-15T11:08:50Z</time><extensions><speed>1.095697</speed><course>22.956734</course><hAcc>1.980171</hAcc><vAcc>0.645967</vAcc></extensions></trkpt>
      <trkpt lon="-3.058959" lat="52.703807"><ele>205.206192</ele><time>2022-01-15T11:08:51Z</time><extensions><speed>1.136627</speed><course>21.066999</course><hAcc>1.977492</hAcc><vAcc>0.640675</vAcc></extensions></trkpt>
      <trkpt lon="-3.058954" lat="52.703817"><ele>205.387299</ele><time>2022-01-15T11:08:52Z</time><extensions><speed>1.154695</speed><course>18.707575</course><hAcc>1.982750</hAcc><vAcc>0.635483</vAcc></extensions></trkpt>
      <trkpt lon="-3.058949" lat="52.703827"><ele>205.562286</ele><time>2022-01-15T11:08:53Z</time><extensions><speed>1.156491</speed><course>14.752513</course><hAcc>1.993086</hAcc><vAcc>0.630613</vAcc></extensions></trkpt>
      <trkpt lon="-3.058945" lat="52.703837"><ele>205.727249</ele><time>2022-01-15T11:08:54Z</time><extensions><speed>1.144174</speed><course>11.092590</course><hAcc>2.010902</hAcc><vAcc>0.626354</vAcc></extensions></trkpt>
      <trkpt lon="-3.058942" lat="52.703847"><ele>205.864532</ele><time>2022-01-15T11:08:55Z</time><extensions><speed>1.126774</speed><course>7.129208</course><hAcc>2.027910</hAcc><vAcc>0.623052</vAcc></extensions></trkpt>
      <trkpt lon="-3.058941" lat="52.703857"><ele>205.972458</ele><time>2022-01-15T11:08:56Z</time><extensions><speed>1.094476</speed><course>2.639572</course><hAcc>2.032240</hAcc><vAcc>0.621044</vAcc></extensions></trkpt>
      <trkpt lon="-3.058941" lat="52.703867"><ele>206.070923</ele><time>2022-01-15T11:08:57Z</time><extensions><speed>1.077469</speed><course>358.140656</course><hAcc>2.032556</hAcc><vAcc>0.620576</vAcc></extensions></trkpt>
      <trkpt lon="-3.058942" lat="52.703877"><ele>206.149063</ele><time>2022-01-15T11:08:58Z</time><extensions><speed>1.120579</speed><course>356.007965</course><hAcc>2.030389</hAcc><vAcc>0.621771</vAcc></extensions></trkpt>
      <trkpt lon="-3.058943" lat="52.703888"><ele>206.190674</ele><time>2022-01-15T11:08:59Z</time><extensions><speed>1.207641</speed><course>355.907501</course><hAcc>2.023200</hAcc><vAcc>0.624404</vAcc></extensions></trkpt>
      <trkpt lon="-3.058944" lat="52.703899"><ele>206.206131</ele><time>2022-01-15T11:09:00Z</time><extensions><speed>1.325798</speed><course>357.457153</course><hAcc>2.013167</hAcc><vAcc>0.628020</vAcc></extensions></trkpt>
      <trkpt lon="-3.058945" lat="52.703911"><ele>206.207184</ele><time>2022-01-15T11:09:01Z</time><extensions><speed>1.391784</speed><course>358.219635</course><hAcc>1.999931</hAcc><vAcc>0.631885</vAcc></extensions></trkpt>
      <trkpt lon="-3.058946" lat="52.703924"><ele>206.164154</ele><time>2022-01-15T11:09:02Z</time><extensions><speed>1.360329</speed><course>357.912994</course><hAcc>1.990940</hAcc><vAcc>0.635312</vAcc></extensions></trkpt>
      <trkpt lon="-3.058947" lat="52.703936"><ele>206.103455</ele><time>2022-01-15T11:09:03Z</time><extensions><speed>1.312070</speed><course>357.120209</course><hAcc>1.995376</hAcc><vAcc>0.637728</vAcc></extensions></trkpt>
      <trkpt lon="-3.058948" lat="52.703947"><ele>206.024200</ele><time>2022-01-15T11:09:04Z</time><extensions><speed>1.256205</speed><course>356.349304</course><hAcc>1.997720</hAcc><vAcc>0.638655</vAcc></extensions></trkpt>
      <trkpt lon="-3.058949" lat="52.703959"><ele>205.932190</ele><time>2022-01-15T11:09:05Z</time><extensions><speed>1.254672</speed><course>356.778900</course><hAcc>1.993712</hAcc><vAcc>0.637844</vAcc></extensions></trkpt>
      <trkpt lon="-3.058950" lat="52.703970"><ele>205.831772</ele><time>2022-01-15T11:09:06Z</time><extensions><speed>1.324423</speed><course>358.398956</course><hAcc>1.998013</hAcc><vAcc>0.635185</vAcc></extensions></trkpt>
      <trkpt lon="-3.058950" lat="52.703983"><ele>205.720398</ele><time>2022-01-15T11:09:07Z</time><extensions><speed>1.404884</speed><course>359.618500</course><hAcc>2.019401</hAcc><vAcc>0.630689</vAcc></extensions></trkpt>
      <trkpt lon="-3.058950" lat="52.703996"><ele>205.599625</ele><time>2022-01-15T11:09:08Z</time><extensions><speed>1.477227</speed><course>0.265473</course><hAcc>2.046947</hAcc><vAcc>0.624517</vAcc></extensions></trkpt>
      <trkpt lon="-3.058950" lat="52.704009"><ele>205.471237</ele><time>2022-01-15T11:09:09Z</time><extensions><speed>1.569897</speed><course>0.130648</course><hAcc>2.057954</hAcc><vAcc>0.617021</vAcc></extensions></trkpt>
      <trkpt lon="-3.058950" lat="52.704024"><ele>205.340530</ele><time>2022-01-15T11:09:10Z</time><extensions><speed>1.627197</speed><course>359.265991</course><hAcc>2.079655</hAcc><vAcc>0.608710</vAcc></extensions></trkpt>
      <trkpt lon="-3.058951" lat="52.704039"><ele>205.206085</ele><time>2022-01-15T11:09:11Z</time><extensions><speed>1.668508</speed><course>358.501434</course><hAcc>2.107040</hAcc><vAcc>0.600219</vAcc></extensions></trkpt>
      <trkpt lon="-3.058953" lat="52.704054"><ele>205.065063</ele><time>2022-01-15T11:09:12Z</time><extensions><speed>1.659181</speed><course>357.277802</course><hAcc>2.122219</hAcc><vAcc>0.592261</vAcc></extensions></trkpt>
      <trkpt lon="-3.058954" lat="52.704068"><ele>204.914673</ele><time>2022-01-15T11:09:13Z</time><extensions><speed>1.685823</speed><course>357.266998</course><hAcc>2.126476</hAcc><vAcc>0.585596</vAcc></extensions></trkpt>
      <trkpt lon="-3.058956" lat="52.704084"><ele>204.751556</ele><time>2022-01-15T11:09:14Z</time><extensions><speed>1.720088</speed><course>357.600708</course><hAcc>2.115240</hAcc><vAcc>0.581009</vAcc></extensions></trkpt>
      <trkpt lon="-3.058957" lat="52.704099"><ele>204.584442</ele><time>2022-01-15T11:09:15Z</time><extensions><speed>1.745341</speed><course>357.576080</course><hAcc>2.087366</hAcc><vAcc>0.579223</vAcc></extensions></trkpt>
      <trkpt lon="-3.058959" lat="52.704115"><ele>204.423157</ele><time>2022-01-15T11:09:16Z</time><extensions><speed>1.802466</speed><course>357.872833</course><hAcc>2.042496</hAcc><vAcc>0.580728</vAcc></extensions></trkpt>
      <trkpt lon="-3.058960" lat="52.704132"><ele>204.267197</ele><time>2022-01-15T11:09:17Z</time><extensions><speed>1.854289</speed><course>358.530060</course><hAcc>2.003976</hAcc><vAcc>0.585613</vAcc></extensions></trkpt>
      <trkpt lon="-3.058961" lat="52.704148"><ele>204.110870</ele><time>2022-01-15T11:09:18Z</time><extensions><speed>1.898724</speed><course>359.980682</course><hAcc>1.996337</hAcc><vAcc>0.593490</vAcc></extensions></trkpt>
      <trkpt lon="-3.058961" lat="52.704165"><ele>203.959076</ele><time>2022-01-15T11:09:18Z</time><extensions><speed>1.926440</speed><course>358.986053</course><hAcc>1.973207</hAcc><vAcc>0.603532</vAcc></extensions></trkpt>
      <trkpt lon="-3.058962" lat="52.704182"><ele>203.812042</ele><time>2022-01-15T11:09:19Z</time><extensions><speed>1.927848</speed><course>355.172302</course><hAcc>1.928796</hAcc><vAcc>0.614806</vAcc></extensions></trkpt>
      <trkpt lon="-3.058965" lat="52.704200"><ele>203.658783</ele><time>2022-01-15T11:09:20Z</time><extensions><speed>1.914598</speed><course>353.745300</course><hAcc>1.887907</hAcc><vAcc>0.626431</vAcc></extensions></trkpt>
      <trkpt lon="-3.058969" lat="52.704216"><ele>203.536530</ele><time>2022-01-15T11:09:21Z</time><extensions><speed>1.897863</speed><course>352.717590</course><hAcc>1.857357</hAcc><vAcc>0.637662</vAcc></extensions></trkpt>
      <trkpt lon="-3.058972" lat="52.704233"><ele>203.418472</ele><time>2022-01-15T11:09:22Z</time><extensions><speed>1.872914</speed><course>353.084656</course><hAcc>1.844169</hAcc><vAcc>0.648049</vAcc></extensions></trkpt>
      <trkpt lon="-3.058975" lat="52.704250"><ele>203.313065</ele><time>2022-01-15T11:09:23Z</time><extensions><speed>1.821863</speed><course>355.255249</course><hAcc>1.837084</hAcc><vAcc>0.657273</vAcc></extensions></trkpt>
      <trkpt lon="-3.058976" lat="52.704266"><ele>203.217300</ele><time>2022-01-15T11:09:24Z</time><extensions><speed>1.757263</speed><course>358.016235</course><hAcc>1.854150</hAcc><vAcc>0.665196</vAcc></extensions></trkpt>
      <trkpt lon="-3.058977" lat="52.704280"><ele>203.138290</ele><time>2022-01-15T11:09:25Z</time><extensions><speed>1.471320</speed><course>359.738342</course><hAcc>1.882003</hAcc><vAcc>0.671746</vAcc></extensions></trkpt>
      <trkpt lon="-3.058977" lat="52.704293"><ele>203.081360</ele><time>2022-01-15T11:09:26Z</time><extensions><speed>1.355785</speed><course>359.215790</course><hAcc>1.859859</hAcc><vAcc>0.676927</vAcc></extensions></trkpt>
      <trkpt lon="-3.058977" lat="52.704305"><ele>203.040680</ele><time>2022-01-15T11:09:27Z</time><extensions><speed>1.278811</speed><course>0.666810</course><hAcc>1.866369</hAcc><vAcc>0.680809</vAcc></extensions></trkpt>
      <trkpt lon="-3.058976" lat="52.704316"><ele>203.013260</ele><time>2022-01-15T11:09:28Z</time><extensions><speed>1.224354</speed><course>2.128693</course><hAcc>1.898270</hAcc><vAcc>0.683619</vAcc></extensions></trkpt>
      <trkpt lon="-3.058975" lat="52.704327"><ele>202.997940</ele><time>2022-01-15T11:09:30Z</time><extensions><speed>1.251891</speed><course>2.692219</course><hAcc>1.939801</hAcc><vAcc>0.685569</vAcc></extensions></trkpt>
      <trkpt lon="-3.058975" lat="52.704339"><ele>202.970016</ele><time>2022-01-15T11:09:31Z</time><extensions><speed>1.272012</speed><course>1.833280</course><hAcc>1.970561</hAcc><vAcc>0.686869</vAcc></extensions></trkpt>
      <trkpt lon="-3.058974" lat="52.704350"><ele>202.961136</ele><time>2022-01-15T11:09:32Z</time><extensions><speed>1.306178</speed><course>1.085395</course><hAcc>1.994751</hAcc><vAcc>0.687757</vAcc></extensions></trkpt>
      <trkpt lon="-3.058974" lat="52.704362"><ele>202.963974</ele><time>2022-01-15T11:09:33Z</time><extensions><speed>1.353210</speed><course>0.976662</course><hAcc>2.013462</hAcc><vAcc>0.688447</vAcc></extensions></trkpt>
      <trkpt lon="-3.058974" lat="52.704375"><ele>202.973053</ele><time>2022-01-15T11:09:34Z</time><extensions><speed>1.410603</speed><course>359.969360</course><hAcc>2.026668</hAcc><vAcc>0.689032</vAcc></extensions></trkpt>
      <trkpt lon="-3.058973" lat="52.704387"><ele>202.987274</ele><time>2022-01-15T11:09:35Z</time><extensions><speed>1.446125</speed><course>1.030133</course><hAcc>2.043665</hAcc><vAcc>0.689567</vAcc></extensions></trkpt>
      <trkpt lon="-3.058973" lat="52.704401"><ele>202.994568</ele><time>2022-01-15T11:09:36Z</time><extensions><speed>1.496472</speed><course>2.935995</course><hAcc>2.053674</hAcc><vAcc>0.690010</vAcc></extensions></trkpt>
      <trkpt lon="-3.058971" lat="52.704414"><ele>203.026810</ele><time>2022-01-15T11:09:37Z</time><extensions><speed>1.515681</speed><course>4.223448</course><hAcc>2.052198</hAcc><vAcc>0.690370</vAcc></extensions></trkpt>
      <trkpt lon="-3.058969" lat="52.704428"><ele>203.055099</ele><time>2022-01-15T11:09:38Z</time><extensions><speed>1.526902</speed><course>4.809461</course><hAcc>2.062323</hAcc><vAcc>0.690674</vAcc></extensions></trkpt>
      <trkpt lon="-3.058967" lat="52.704441"><ele>203.079575</ele><time>2022-01-15T11:09:39Z</time><extensions><speed>1.499044</speed><course>5.062760</course><hAcc>2.083623</hAcc><vAcc>0.691014</vAcc></extensions></trkpt>
      <trkpt lon="-3.058966" lat="52.704454"><ele>203.112137</ele><time>2022-01-15T11:09:40Z</time><extensions><speed>1.467613</speed><course>4.400371</course><hAcc>2.096625</hAcc><vAcc>0.691523</vAcc></extensions></trkpt>
      <trkpt lon="-3.058964" lat="52.704467"><ele>203.144089</ele><time>2022-01-15T11:09:41Z</time><extensions><speed>1.417915</speed><course>4.771168</course><hAcc>2.105745</hAcc><vAcc>0.692340</vAcc></extensions></trkpt>
      <trkpt lon="-3.058962" lat="52.704480"><ele>203.175354</ele><time>2022-01-15T11:09:42Z</time><extensions><speed>1.386154</speed><course>6.357149</course><hAcc>2.112371</hAcc><vAcc>0.693625</vAcc></extensions></trkpt>
      <trkpt lon="-3.058959" lat="52.704492"><ele>203.221695</ele><time>2022-01-15T11:09:43Z</time><extensions><speed>1.401610</speed><course>8.641204</course><hAcc>2.124664</hAcc><vAcc>0.695339</vAcc></extensions></trkpt>
      <trkpt lon="-3.058956" lat="52.704505"><ele>203.252808</ele><time>2022-01-15T11:09:44Z</time><extensions><speed>1.418729</speed><course>9.252565</course><hAcc>2.141864</hAcc><vAcc>0.697389</vAcc></extensions></trkpt>
      <trkpt lon="-3.058953" lat="52.704518"><ele>203.271698</ele><time>2022-01-15T11:09:45Z</time><extensions><speed>1.464063</speed><course>8.664540</course><hAcc>2.153159</hAcc><vAcc>0.699622</vAcc></extensions></trkpt>
      <trkpt lon="-3.058949" lat="52.704531"><ele>203.298401</ele><time>2022-01-15T11:09:46Z</time><extensions><speed>1.426111</speed><course>8.973515</course><hAcc>2.148040</hAcc><vAcc>0.701973</vAcc></extensions></trkpt>
      <trkpt lon="-3.058946" lat="52.704543"><ele>203.348999</ele><time>2022-01-15T11:09:47Z</time><extensions><speed>1.420555</speed><course>8.952363</course><hAcc>2.162925</hAcc><vAcc>0.704253</vAcc></extensions></trkpt>
      <trkpt lon="-3.058943" lat="52.704556"><ele>203.392059</ele><time>2022-01-15T11:09:48Z</time><extensions><speed>1.422604</speed><course>8.582541</course><hAcc>2.182649</hAcc><vAcc>0.706394</vAcc></extensions></trkpt>
      <trkpt lon="-3.058940" lat="52.704568"><ele>203.430374</ele><time>2022-01-15T11:09:49Z</time><extensions><speed>1.361587</speed><course>8.378777</course><hAcc>2.187653</hAcc><vAcc>0.708347</vAcc></extensions></trkpt>
      <trkpt lon="-3.058937" lat="52.704581"><ele>203.473938</ele><time>2022-01-15T11:09:50Z</time><extensions><speed>1.381056</speed><course>9.425406</course><hAcc>2.188099</hAcc><vAcc>0.710097</vAcc></extensions></trkpt>
      <trkpt lon="-3.058933" lat="52.704593"><ele>203.509323</ele><time>2022-01-15T11:09:51Z</time><extensions><speed>1.413552</speed><course>10.629511</course><hAcc>2.195834</hAcc><vAcc>0.711686</vAcc></extensions></trkpt>
      <trkpt lon="-3.058930" lat="52.704606"><ele>203.560501</ele><time>2022-01-15T11:09:52Z</time><extensions><speed>1.475566</speed><course>10.682221</course><hAcc>2.205029</hAcc><vAcc>0.713192</vAcc></extensions></trkpt>
      <trkpt lon="-3.058926" lat="52.704619"><ele>203.611313</ele><time>2022-01-15T11:09:53Z</time><extensions><speed>1.491131</speed><course>11.060652</course><hAcc>2.189913</hAcc><vAcc>0.714738</vAcc></extensions></trkpt>
      <trkpt lon="-3.058922" lat="52.704631"><ele>203.669815</ele><time>2022-01-15T11:09:54Z</time><extensions><speed>1.450100</speed><course>11.381657</course><hAcc>2.160795</hAcc><vAcc>0.716463</vAcc></extensions></trkpt>
      <trkpt lon="-3.058918" lat="52.704644"><ele>203.707626</ele><time>2022-01-15T11:09:55Z</time><extensions><speed>1.432927</speed><course>10.088907</course><hAcc>2.123664</hAcc><vAcc>0.718499</vAcc></extensions></trkpt>
      <trkpt lon="-3.058915" lat="52.704657"><ele>203.743347</ele><time>2022-01-15T11:09:56Z</time><extensions><speed>1.497732</speed><course>8.754813</course><hAcc>2.085143</hAcc><vAcc>0.720907</vAcc></extensions></trkpt>
      <trkpt lon="-3.058912" lat="52.704670"><ele>203.792603</ele><time>2022-01-15T11:09:57Z</time><extensions><speed>1.635718</speed><course>8.372118</course><hAcc>2.054914</hAcc><vAcc>0.723698</vAcc></extensions></trkpt>
      <trkpt lon="-3.058909" lat="52.704685"><ele>203.843658</ele><time>2022-01-15T11:09:58Z</time><extensions><speed>1.770230</speed><course>8.891240</course><hAcc>2.040396</hAcc><vAcc>0.726845</vAcc></extensions></trkpt>
      <trkpt lon="-3.058907" lat="52.704701"><ele>203.879166</ele><time>2022-01-15T11:09:59Z</time><extensions><speed>1.813117</speed><course>8.119987</course><hAcc>2.008919</hAcc><vAcc>0.730242</vAcc></extensions></trkpt>
      <trkpt lon="-3.058904" lat="52.704716"><ele>203.913528</ele><time>2022-01-15T11:10:00Z</time><extensions><speed>1.815796</speed><course>8.942943</course><hAcc>1.971026</hAcc><vAcc>0.733766</vAcc></extensions></trkpt>
      <trkpt lon="-3.058900" lat="52.704732"><ele>203.933441</ele><time>2022-01-15T11:10:01Z</time><extensions><speed>1.802961</speed><course>10.245489</course><hAcc>1.940798</hAcc><vAcc>0.737301</vAcc></extensions></trkpt>
      <trkpt lon="-3.058897" lat="52.704747"><ele>203.939651</ele><time>2022-01-15T11:10:02Z</time><extensions><speed>1.787100</speed><course>8.368205</course><hAcc>1.909525</hAcc><vAcc>0.740768</vAcc></extensions></trkpt>
      <trkpt lon="-3.058895" lat="52.704763"><ele>203.935013</ele><time>2022-01-15T11:10:03Z</time><extensions><speed>1.782781</speed><course>6.386480</course><hAcc>1.888599</hAcc><vAcc>0.744080</vAcc></extensions></trkpt>
      <trkpt lon="-3.058893" lat="52.704778"><ele>203.920700</ele><time>2022-01-15T11:10:04Z</time><extensions><speed>1.763832</speed><course>5.859537</course><hAcc>1.870241</hAcc><vAcc>0.747212</vAcc></extensions></trkpt>
      <trkpt lon="-3.058892" lat="52.704793"><ele>203.896240</ele><time>2022-01-15T11:10:05Z</time><extensions><speed>1.717781</speed><course>4.280529</course><hAcc>1.841254</hAcc><vAcc>0.750127</vAcc></extensions></trkpt>
      <trkpt lon="-3.058891" lat="52.704808"><ele>203.859253</ele><time>2022-01-15T11:10:06Z</time><extensions><speed>1.727755</speed><course>4.211543</course><hAcc>1.821118</hAcc><vAcc>0.752863</vAcc></extensions></trkpt>
      <trkpt lon="-3.058891" lat="52.704823"><ele>203.813812</ele><time>2022-01-15T11:10:07Z</time><extensions><speed>1.728255</speed><course>4.606678</course><hAcc>1.801601</hAcc><vAcc>0.755435</vAcc></extensions></trkpt>
      <trkpt lon="-3.058891" lat="52.704838"><ele>203.768906</ele><time>2022-01-15T11:10:08Z</time><extensions><speed>1.701176</speed><course>2.956852</course><hAcc>1.780459</hAcc><vAcc>0.757881</vAcc></extensions></trkpt>
      <trkpt lon="-3.058891" lat="52.704853"><ele>203.707565</ele><time>2022-01-15T11:10:09Z</time><extensions><speed>1.703185</speed><course>3.881442</course><hAcc>1.756630</hAcc><vAcc>0.760207</vAcc></extensions></trkpt>
      <trkpt lon="-3.058890" lat="52.704867"><ele>203.594681</ele><time>2022-01-15T11:10:10Z</time><extensions><speed>1.643252</speed><course>6.327199</course><hAcc>1.722970</hAcc><vAcc>0.762405</vAcc></extensions></trkpt>
      <trkpt lon="-3.058887" lat="52.704881"><ele>203.494339</ele><time>2022-01-15T11:10:11Z</time><extensions><speed>1.624979</speed><course>8.208929</course><hAcc>1.691622</hAcc><vAcc>0.764491</vAcc></extensions></trkpt>
      <trkpt lon="-3.058885" lat="52.704896"><ele>203.383499</ele><time>2022-01-15T11:10:12Z</time><extensions><speed>1.653684</speed><course>7.007077</course><hAcc>1.667754</hAcc><vAcc>0.766475</vAcc></extensions></trkpt>
      <trkpt lon="-3.058883" lat="52.704910"><ele>203.286972</ele><time>2022-01-15T11:10:13Z</time><extensions><speed>1.666101</speed><course>6.947704</course><hAcc>1.645199</hAcc><vAcc>0.768322</vAcc></extensions></trkpt>
      <trkpt lon="-3.058881" lat="52.704924"><ele>203.177139</ele><time>2022-01-15T11:10:14Z</time><extensions><speed>1.583277</speed><course>5.487758</course><hAcc>1.610769</hAcc><vAcc>0.770013</vAcc></extensions></trkpt>
      <trkpt lon="-3.058879" lat="52.704939"><ele>203.064987</ele><time>2022-01-15T11:10:15Z</time><extensions><speed>1.617722</speed><course>4.796413</course><hAcc>1.587687</hAcc><vAcc>0.771508</vAcc></extensions></trkpt>
      <trkpt lon="-3.058877" lat="52.704953"><ele>202.964035</ele><time>2022-01-15T11:10:16Z</time><extensions><speed>1.646313</speed><course>6.280036</course><hAcc>1.578389</hAcc><vAcc>0.772801</vAcc></extensions></trkpt>
      <trkpt lon="-3.058875" lat="52.704968"><ele>202.864594</ele><time>2022-01-15T11:10:17Z</time><extensions><speed>1.682292</speed><course>4.330166</course><hAcc>1.561202</hAcc><vAcc>0.773892</vAcc></extensions></trkpt>
      <trkpt lon="-3.058874" lat="52.704982"><ele>202.754456</ele><time>2022-01-15T11:10:18Z</time><extensions><speed>1.665661</speed><course>5.117247</course><hAcc>1.547176</hAcc><vAcc>0.774781</vAcc></extensions></trkpt>
      <trkpt lon="-3.058872" lat="52.704997"><ele>202.659790</ele><time>2022-01-15T11:10:19Z</time><extensions><speed>1.684696</speed><course>6.805539</course><hAcc>1.538250</hAcc><vAcc>0.775481</vAcc></extensions></trkpt>
      <trkpt lon="-3.058869" lat="52.705012"><ele>202.580841</ele><time>2022-01-15T11:10:20Z</time><extensions><speed>1.596450</speed><course>8.151967</course><hAcc>1.527053</hAcc><vAcc>0.776012</vAcc></extensions></trkpt>
      <trkpt lon="-3.058866" lat="52.705026"><ele>202.505447</ele><time>2022-01-15T11:10:21Z</time><extensions><speed>1.661069</speed><course>10.669769</course><hAcc>1.523627</hAcc><vAcc>0.776400</vAcc></extensions></trkpt>
      <trkpt lon="-3.058862" lat="52.705040"><ele>202.440582</ele><time>2022-01-15T11:10:22Z</time><extensions><speed>1.676080</speed><course>10.366752</course><hAcc>1.518132</hAcc><vAcc>0.776690</vAcc></extensions></trkpt>
      <trkpt lon="-3.058857" lat="52.705055"><ele>202.372452</ele><time>2022-01-15T11:10:23Z</time><extensions><speed>1.689184</speed><course>12.068057</course><hAcc>1.519000</hAcc><vAcc>0.776904</vAcc></extensions></trkpt>
      <trkpt lon="-3.058852" lat="52.705070"><ele>202.301941</ele><time>2022-01-15T11:10:24Z</time><extensions><speed>1.703817</speed><course>14.019816</course><hAcc>1.519011</hAcc><vAcc>0.777051</vAcc></extensions></trkpt>
      <trkpt lon="-3.058846" lat="52.705084"><ele>202.237289</ele><time>2022-01-15T11:10:25Z</time><extensions><speed>1.733177</speed><course>13.838193</course><hAcc>1.517592</hAcc><vAcc>0.777165</vAcc></extensions></trkpt>
      <trkpt lon="-3.058841" lat="52.705099"><ele>202.177612</ele><time>2022-01-15T11:10:26Z</time><extensions><speed>1.713041</speed><course>13.536627</course><hAcc>1.512201</hAcc><vAcc>0.777304</vAcc></extensions></trkpt>
      <trkpt lon="-3.058836" lat="52.705114"><ele>202.141541</ele><time>2022-01-15T11:10:27Z</time><extensions><speed>1.745805</speed><course>10.801987</course><hAcc>1.517412</hAcc><vAcc>0.777414</vAcc></extensions></trkpt>
      <trkpt lon="-3.058832" lat="52.705129"><ele>202.122910</ele><time>2022-01-15T11:10:28Z</time><extensions><speed>1.707442</speed><course>7.616580</course><hAcc>1.511402</hAcc><vAcc>0.777580</vAcc></extensions></trkpt>
      <trkpt lon="-3.058829" lat="52.705144"><ele>202.110718</ele><time>2022-01-15T11:10:29Z</time><extensions><speed>1.742174</speed><course>7.212654</course><hAcc>1.513030</hAcc><vAcc>0.777783</vAcc></extensions></trkpt>
      <trkpt lon="-3.058826" lat="52.705160"><ele>202.097183</ele><time>2022-01-15T11:10:30Z</time><extensions><speed>1.732345</speed><course>8.103701</course><hAcc>1.512475</hAcc><vAcc>0.778022</vAcc></extensions></trkpt>
      <trkpt lon="-3.058823" lat="52.705175"><ele>202.077133</ele><time>2022-01-15T11:10:31Z</time><extensions><speed>1.689302</speed><course>6.804957</course><hAcc>1.506620</hAcc><vAcc>0.778307</vAcc></extensions></trkpt>
      <trkpt lon="-3.058819" lat="52.705189"><ele>202.061234</ele><time>2022-01-15T11:10:32Z</time><extensions><speed>1.648937</speed><course>8.884770</course><hAcc>1.511882</hAcc><vAcc>0.778630</vAcc></extensions></trkpt>
      <trkpt lon="-3.058815" lat="52.705204"><ele>202.065140</ele><time>2022-01-15T11:10:33Z</time><extensions><speed>1.704025</speed><course>9.757678</course><hAcc>1.516182</hAcc><vAcc>0.778965</vAcc></extensions></trkpt>
      <trkpt lon="-3.058811" lat="52.705218"><ele>202.054108</ele><time>2022-01-15T11:10:34Z</time><extensions><speed>1.682600</speed><course>10.219076</course><hAcc>1.511474</hAcc><vAcc>0.779290</vAcc></extensions></trkpt>
      <trkpt lon="-3.058806" lat="52.705233"><ele>202.056442</ele><time>2022-01-15T11:10:35Z</time><extensions><speed>1.680269</speed><course>12.086249</course><hAcc>1.511908</hAcc><vAcc>0.779596</vAcc></extensions></trkpt>
      <trkpt lon="-3.058801" lat="52.705247"><ele>202.074799</ele><time>2022-01-15T11:10:36Z</time><extensions><speed>1.671378</speed><course>10.679430</course><hAcc>1.514582</hAcc><vAcc>0.779872</vAcc></extensions></trkpt>
      <trkpt lon="-3.058797" lat="52.705262"><ele>202.100922</ele><time>2022-01-15T11:10:37Z</time><extensions><speed>1.702070</speed><course>9.196170</course><hAcc>1.518637</hAcc><vAcc>0.780120</vAcc></extensions></trkpt>
      <trkpt lon="-3.058793" lat="52.705277"><ele>202.129547</ele><time>2022-01-15T11:10:38Z</time><extensions><speed>1.681741</speed><course>8.399159</course><hAcc>1.516582</hAcc><vAcc>0.780306</vAcc></extensions></trkpt>
      <trkpt lon="-3.058789" lat="52.705291"><ele>202.160141</ele><time>2022-01-15T11:10:39Z</time><extensions><speed>1.709842</speed><course>9.122827</course><hAcc>1.520519</hAcc><vAcc>0.780436</vAcc></extensions></trkpt>
      <trkpt lon="-3.058785" lat="52.705306"><ele>202.193588</ele><time>2022-01-15T11:10:40Z</time><extensions><speed>1.730652</speed><course>12.098001</course><hAcc>1.527159</hAcc><vAcc>0.780487</vAcc></extensions></trkpt>
      <trkpt lon="-3.058779" lat="52.705321"><ele>202.219467</ele><time>2022-01-15T11:10:41Z</time><extensions><speed>1.730230</speed><course>18.493505</course><hAcc>1.528652</hAcc><vAcc>0.780477</vAcc></extensions></trkpt>
      <trkpt lon="-3.058770" lat="52.705335"><ele>202.240875</ele><time>2022-01-15T11:10:42Z</time><extensions><speed>1.710181</speed><course>23.436432</course><hAcc>1.524029</hAcc><vAcc>0.780406</vAcc></extensions></trkpt>
      <trkpt lon="-3.058761" lat="52.705349"><ele>202.274963</ele><time>2022-01-15T11:10:43Z</time><extensions><speed>1.696912</speed><course>25.793791</course><hAcc>1.520756</hAcc><vAcc>0.780277</vAcc></extensions></trkpt>
      <trkpt lon="-3.058751" lat="52.705362"><ele>202.313232</ele><time>2022-01-15T11:10:44Z</time><extensions><speed>1.711642</speed><course>26.988192</course><hAcc>1.523420</hAcc><vAcc>0.780124</vAcc></extensions></trkpt>
      <trkpt lon="-3.058741" lat="52.705375"><ele>202.344055</ele><time>2022-01-15T11:10:45Z</time><extensions><speed>1.696776</speed><course>25.763279</course><hAcc>1.519634</hAcc><vAcc>0.779974</vAcc></extensions></trkpt>
      <trkpt lon="-3.058732" lat="52.705389"><ele>202.373810</ele><time>2022-01-15T11:10:46Z</time><extensions><speed>1.655538</speed><course>21.117912</course><hAcc>1.510722</hAcc><vAcc>0.779851</vAcc></extensions></trkpt>
      <trkpt lon="-3.058725" lat="52.705403"><ele>202.405487</ele><time>2022-01-15T11:10:47Z</time><extensions><speed>1.654666</speed><course>17.397490</course><hAcc>1.507832</hAcc><vAcc>0.779773</vAcc></extensions></trkpt>
      <trkpt lon="-3.058719" lat="52.705416"><ele>202.413269</ele><time>2022-01-15T11:10:48Z</time><extensions><speed>1.637689</speed><course>17.001247</course><hAcc>1.505075</hAcc><vAcc>0.779754</vAcc></extensions></trkpt>
      <trkpt lon="-3.058713" lat="52.705430"><ele>202.412064</ele><time>2022-01-15T11:10:49Z</time><extensions><speed>1.640187</speed><course>16.059553</course><hAcc>1.499974</hAcc><vAcc>0.779770</vAcc></extensions></trkpt>
      <trkpt lon="-3.058708" lat="52.705444"><ele>202.401657</ele><time>2022-01-15T11:10:50Z</time><extensions><speed>1.657633</speed><course>13.688470</course><hAcc>1.489160</hAcc><vAcc>0.779843</vAcc></extensions></trkpt>
      <trkpt lon="-3.058703" lat="52.705458"><ele>202.380325</ele><time>2022-01-15T11:10:51Z</time><extensions><speed>1.638557</speed><course>11.450849</course><hAcc>1.476280</hAcc><vAcc>0.779980</vAcc></extensions></trkpt>
      <trkpt lon="-3.058699" lat="52.705472"><ele>202.353897</ele><time>2022-01-15T11:10:52Z</time><extensions><speed>1.558203</speed><course>10.172297</course><hAcc>1.461103</hAcc><vAcc>0.780148</vAcc></extensions></trkpt>
      <trkpt lon="-3.058696" lat="52.705486"><ele>202.311707</ele><time>2022-01-15T11:10:53Z</time><extensions><speed>1.661898</speed><course>9.698606</course><hAcc>1.463647</hAcc><vAcc>0.780315</vAcc></extensions></trkpt>
      <trkpt lon="-3.058693" lat="52.705501"><ele>202.247925</ele><time>2022-01-15T11:10:54Z</time><extensions><speed>1.669455</speed><course>6.447209</course><hAcc>1.459094</hAcc><vAcc>0.780472</vAcc></extensions></trkpt>
      <trkpt lon="-3.058692" lat="52.705516"><ele>202.158051</ele><time>2022-01-15T11:10:55Z</time><extensions><speed>1.690237</speed><course>1.262348</course><hAcc>1.448895</hAcc><vAcc>0.780592</vAcc></extensions></trkpt>
      <trkpt lon="-3.058692" lat="52.705531"><ele>202.071426</ele><time>2022-01-15T11:10:56Z</time><extensions><speed>1.684537</speed><course>0.702297</course><hAcc>1.447546</hAcc><vAcc>0.780665</vAcc></extensions></trkpt>
      <trkpt lon="-3.058692" lat="52.705546"><ele>201.990356</ele><time>2022-01-15T11:10:57Z</time><extensions><speed>1.722845</speed><course>358.400818</course><hAcc>1.451577</hAcc><vAcc>0.780670</vAcc></extensions></trkpt>
      <trkpt lon="-3.058693" lat="52.705561"><ele>201.901123</ele><time>2022-01-15T11:10:58Z</time><extensions><speed>1.702647</speed><course>359.649689</course><hAcc>1.448844</hAcc><vAcc>0.780596</vAcc></extensions></trkpt>
      <trkpt lon="-3.058694" lat="52.705576"><ele>201.794067</ele><time>2022-01-15T11:10:59Z</time><extensions><speed>1.660786</speed><course>358.519958</course><hAcc>1.446311</hAcc><vAcc>0.780432</vAcc></extensions></trkpt>
      <trkpt lon="-3.058694" lat="52.705591"><ele>201.687073</ele><time>2022-01-15T11:11:00Z</time><extensions><speed>1.656984</speed><course>1.395201</course><hAcc>1.453704</hAcc><vAcc>0.780161</vAcc></extensions></trkpt>
      <trkpt lon="-3.058692" lat="52.705605"><ele>201.576401</ele><time>2022-01-15T11:11:01Z</time><extensions><speed>1.625057</speed><course>8.055816</course><hAcc>1.460187</hAcc><vAcc>0.779781</vAcc></extensions></trkpt>
      <trkpt lon="-3.058688" lat="52.705619"><ele>201.466629</ele><time>2022-01-15T11:11:02Z</time><extensions><speed>1.656293</speed><course>12.081136</course><hAcc>1.466375</hAcc><vAcc>0.779294</vAcc></extensions></trkpt>
      <trkpt lon="-3.058683" lat="52.705634"><ele>201.348282</ele><time>2022-01-15T11:11:03Z</time><extensions><speed>1.693254</speed><course>11.159640</course><hAcc>1.468312</hAcc><vAcc>0.778690</vAcc></extensions></trkpt>
      <trkpt lon="-3.058678" lat="52.705648"><ele>201.250076</ele><time>2022-01-15T11:11:04Z</time><extensions><speed>1.644125</speed><course>10.880647</course><hAcc>1.471199</hAcc><vAcc>0.778027</vAcc></extensions></trkpt>
      <trkpt lon="-3.058674" lat="52.705663"><ele>201.147110</ele><time>2022-01-15T11:11:05Z</time><extensions><speed>1.707858</speed><course>8.384794</course><hAcc>1.488275</hAcc><vAcc>0.777318</vAcc></extensions></trkpt>
      <trkpt lon="-3.058671" lat="52.705678"><ele>201.063370</ele><time>2022-01-15T11:11:06Z</time><extensions><speed>1.680979</speed><course>7.215246</course><hAcc>1.481517</hAcc><vAcc>0.776587</vAcc></extensions></trkpt>
      <trkpt lon="-3.058668" lat="52.705692"><ele>200.980927</ele><time>2022-01-15T11:11:07Z</time><extensions><speed>1.701275</speed><course>6.787961</course><hAcc>1.488632</hAcc><vAcc>0.775883</vAcc></extensions></trkpt>
      <trkpt lon="-3.058664" lat="52.705707"><ele>200.903351</ele><time>2022-01-15T11:11:08Z</time><extensions><speed>1.693513</speed><course>8.028459</course><hAcc>1.492511</hAcc><vAcc>0.775228</vAcc></extensions></trkpt>
      <trkpt lon="-3.058660" lat="52.705721"><ele>200.830566</ele><time>2022-01-15T11:11:09Z</time><extensions><speed>1.624008</speed><course>9.998178</course><hAcc>1.490258</hAcc><vAcc>0.774653</vAcc></extensions></trkpt>
      <trkpt lon="-3.058655" lat="52.705735"><ele>200.762894</ele><time>2022-01-15T11:11:10Z</time><extensions><speed>1.672071</speed><course>13.746025</course><hAcc>1.501675</hAcc><vAcc>0.774160</vAcc></extensions></trkpt>
      <trkpt lon="-3.058649" lat="52.705749"><ele>200.687180</ele><time>2022-01-15T11:11:11Z</time><extensions><speed>1.696889</speed><course>16.554449</course><hAcc>1.499727</hAcc><vAcc>0.773756</vAcc></extensions></trkpt>
      <trkpt lon="-3.058641" lat="52.705763"><ele>200.637405</ele><time>2022-01-15T11:11:12Z</time><extensions><speed>1.624671</speed><course>19.836409</course><hAcc>1.481460</hAcc><vAcc>0.773412</vAcc></extensions></trkpt>
      <trkpt lon="-3.058633" lat="52.705777"><ele>200.591766</ele><time>2022-01-15T11:11:13Z</time><extensions><speed>1.683140</speed><course>22.008606</course><hAcc>1.485074</hAcc><vAcc>0.773160</vAcc></extensions></trkpt>
      <trkpt lon="-3.058624" lat="52.705790"><ele>200.552612</ele><time>2022-01-15T11:11:14Z</time><extensions><speed>1.660194</speed><course>21.866482</course><hAcc>1.487089</hAcc><vAcc>0.772989</vAcc></extensions></trkpt>
      <trkpt lon="-3.058615" lat="52.705803"><ele>200.514160</ele><time>2022-01-15T11:11:15Z</time><extensions><speed>1.679175</speed><course>22.641180</course><hAcc>1.485855</hAcc><vAcc>0.772746</vAcc></extensions></trkpt>
      <trkpt lon="-3.058605" lat="52.705817"><ele>200.473709</ele><time>2022-01-15T11:11:16Z</time><extensions><speed>1.599015</speed><course>24.572313</course><hAcc>1.477150</hAcc><vAcc>0.772537</vAcc></extensions></trkpt>
      <trkpt lon="-3.058594" lat="52.705829"><ele>200.461288</ele><time>2022-01-15T11:11:17Z</time><extensions><speed>1.647374</speed><course>28.395550</course><hAcc>1.485607</hAcc><vAcc>0.772276</vAcc></extensions></trkpt>
      <trkpt lon="-3.058582" lat="52.705842"><ele>200.420898</ele><time>2022-01-15T11:11:18Z</time><extensions><speed>1.655481</speed><course>30.771891</course><hAcc>1.498706</hAcc><vAcc>0.771798</vAcc></extensions></trkpt>
      <trkpt lon="-3.058570" lat="52.705854"><ele>200.382248</ele><time>2022-01-15T11:11:19Z</time><extensions><speed>1.630405</speed><course>29.978085</course><hAcc>1.503180</hAcc><vAcc>0.771042</vAcc></extensions></trkpt>
      <trkpt lon="-3.058559" lat="52.705867"><ele>200.332901</ele><time>2022-01-15T11:11:20Z</time><extensions><speed>1.509664</speed><course>27.615419</course><hAcc>1.505757</hAcc><vAcc>0.770046</vAcc></extensions></trkpt>
      <trkpt lon="-3.058549" lat="52.705879"><ele>200.291214</ele><time>2022-01-15T11:11:21Z</time><extensions><speed>1.485230</speed><course>24.259344</course><hAcc>1.527878</hAcc><vAcc>0.768696</vAcc></extensions></trkpt>
      <trkpt lon="-3.058540" lat="52.705891"><ele>200.274124</ele><time>2022-01-15T11:11:22Z</time><extensions><speed>1.552282</speed><course>21.719833</course><hAcc>1.561929</hAcc><vAcc>0.766978</vAcc></extensions></trkpt>
      <trkpt lon="-3.058532" lat="52.705903"><ele>200.249054</ele><time>2022-01-15T11:11:23Z</time><extensions><speed>1.262359</speed><course>22.981138</course><hAcc>1.576295</hAcc><vAcc>0.764871</vAcc></extensions></trkpt>
      <trkpt lon="-3.058525" lat="52.705912"><ele>200.222107</ele><time>2022-01-15T11:11:24Z</time><extensions><speed>0.976109</speed><course>28.320738</course><hAcc>1.581787</hAcc><vAcc>0.762417</vAcc></extensions></trkpt>
      <trkpt lon="-3.058519" lat="52.705919"><ele>200.188934</ele><time>2022-01-15T11:11:25Z</time><extensions><speed>0.816682</speed><course>31.358585</course><hAcc>1.636196</hAcc><vAcc>0.759600</vAcc></extensions></trkpt>
      <trkpt lon="-3.058513" lat="52.705925"><ele>200.150879</ele><time>2022-01-15T11:11:26Z</time><extensions><speed>0.784272</speed><course>32.198067</course><hAcc>1.695125</hAcc><vAcc>0.756450</vAcc></extensions></trkpt>
      <trkpt lon="-3.058506" lat="52.705931"><ele>200.108215</ele><time>2022-01-15T11:11:27Z</time><extensions><speed>0.743538</speed><course>38.523010</course><hAcc>1.699515</hAcc><vAcc>0.752990</vAcc></extensions></trkpt>
      <trkpt lon="-3.058499" lat="52.705936"><ele>200.063095</ele><time>2022-01-15T11:11:28Z</time><extensions><speed>0.738538</speed><course>41.789921</course><hAcc>1.707613</hAcc><vAcc>0.749329</vAcc></extensions></trkpt>
      <trkpt lon="-3.058492" lat="52.705941"><ele>200.006592</ele><time>2022-01-15T11:11:29Z</time><extensions><speed>0.778665</speed><course>37.832172</course><hAcc>1.740785</hAcc><vAcc>0.745552</vAcc></extensions></trkpt>
      <trkpt lon="-3.058485" lat="52.705947"><ele>199.959671</ele><time>2022-01-15T11:11:30Z</time><extensions><speed>0.800650</speed><course>31.546761</course><hAcc>1.778625</hAcc><vAcc>0.741770</vAcc></extensions></trkpt>
      <trkpt lon="-3.058480" lat="52.705953"><ele>199.928772</ele><time>2022-01-15T11:11:31Z</time><extensions><speed>0.824342</speed><course>26.172539</course><hAcc>1.798912</hAcc><vAcc>0.738049</vAcc></extensions></trkpt>
      <trkpt lon="-3.058474" lat="52.705960"><ele>199.895844</ele><time>2022-01-15T11:11:32Z</time><extensions><speed>0.917444</speed><course>26.021040</course><hAcc>1.802092</hAcc><vAcc>0.734645</vAcc></extensions></trkpt>
      <trkpt lon="-3.058467" lat="52.705968"><ele>199.847275</ele><time>2022-01-15T11:11:33Z</time><extensions><speed>1.065412</speed><course>27.160122</course><hAcc>1.791725</hAcc><vAcc>0.731558</vAcc></extensions></trkpt>
      <trkpt lon="-3.058460" lat="52.705977"><ele>199.801636</ele><time>2022-01-15T11:11:34Z</time><extensions><speed>1.149953</speed><course>28.337765</course><hAcc>1.779595</hAcc><vAcc>0.728851</vAcc></extensions></trkpt>
      <trkpt lon="-3.058451" lat="52.705987"><ele>199.751526</ele><time>2022-01-15T11:11:35Z</time><extensions><speed>1.187173</speed><course>28.854242</course><hAcc>1.779768</hAcc><vAcc>0.726581</vAcc></extensions></trkpt>
      <trkpt lon="-3.058443" lat="52.705996"><ele>199.701233</ele><time>2022-01-15T11:11:36Z</time><extensions><speed>1.209958</speed><course>28.936390</course><hAcc>1.793506</hAcc><vAcc>0.724797</vAcc></extensions></trkpt>
      <trkpt lon="-3.058434" lat="52.706006"><ele>199.641418</ele><time>2022-01-15T11:11:36Z</time><extensions><speed>1.225862</speed><course>28.651077</course><hAcc>1.768368</hAcc><vAcc>0.723504</vAcc></extensions></trkpt>
      <trkpt lon="-3.058425" lat="52.706016"><ele>199.579941</ele><time>2022-01-15T11:11:37Z</time><extensions><speed>1.371333</speed><course>26.263880</course><hAcc>1.722638</hAcc><vAcc>0.722724</vAcc></extensions></trkpt>
      <trkpt lon="-3.058416" lat="52.706028"><ele>199.518707</ele><time>2022-01-15T11:11:38Z</time><extensions><speed>1.545409</speed><course>24.584425</course><hAcc>1.682051</hAcc><vAcc>0.722451</vAcc></extensions></trkpt>
      <trkpt lon="-3.058406" lat="52.706041"><ele>199.450668</ele><time>2022-01-15T11:11:39Z</time><extensions><speed>1.665193</speed><course>24.147659</course><hAcc>1.643258</hAcc><vAcc>0.722653</vAcc></extensions></trkpt>
      <trkpt lon="-3.058396" lat="52.706055"><ele>199.387177</ele><time>2022-01-15T11:11:40Z</time><extensions><speed>1.754051</speed><course>24.865536</course><hAcc>1.615997</hAcc><vAcc>0.723267</vAcc></extensions></trkpt>
      <trkpt lon="-3.058384" lat="52.706069"><ele>199.318741</ele><time>2022-01-15T11:11:41Z</time><extensions><speed>1.860642</speed><course>25.093040</course><hAcc>1.629580</hAcc><vAcc>0.724164</vAcc></extensions></trkpt>
      <trkpt lon="-3.058373" lat="52.706085"><ele>199.246796</ele><time>2022-01-15T11:11:42Z</time><extensions><speed>1.866666</speed><course>25.418419</course><hAcc>1.593223</hAcc><vAcc>0.725260</vAcc></extensions></trkpt>
      <trkpt lon="-3.058362" lat="52.706100"><ele>199.180374</ele><time>2022-01-15T11:11:43Z</time><extensions><speed>1.866993</speed><course>24.860159</course><hAcc>1.543754</hAcc><vAcc>0.726374</vAcc></extensions></trkpt>
      <trkpt lon="-3.058350" lat="52.706115"><ele>199.108200</ele><time>2022-01-15T11:11:44Z</time><extensions><speed>1.855040</speed><course>23.965851</course><hAcc>1.523537</hAcc><vAcc>0.727351</vAcc></extensions></trkpt>
      <trkpt lon="-3.058339" lat="52.706130"><ele>199.033737</ele><time>2022-01-15T11:11:46Z</time><extensions><speed>1.834871</speed><course>24.816772</course><hAcc>1.505701</hAcc><vAcc>0.728031</vAcc></extensions></trkpt>
      <trkpt lon="-3.058328" lat="52.706145"><ele>198.958466</ele><time>2022-01-15T11:11:47Z</time><extensions><speed>1.819064</speed><course>27.568106</course><hAcc>1.507082</hAcc><vAcc>0.728353</vAcc></extensions></trkpt>
      <trkpt lon="-3.058315" lat="52.706159"><ele>198.867126</ele><time>2022-01-15T11:11:48Z</time><extensions><speed>1.789206</speed><course>30.790503</course><hAcc>1.498986</hAcc><vAcc>0.728304</vAcc></extensions></trkpt>
      <trkpt lon="-3.058301" lat="52.706172"><ele>198.791504</ele><time>2022-01-15T11:11:49Z</time><extensions><speed>1.818882</speed><course>33.087574</course><hAcc>1.490333</hAcc><vAcc>0.727848</vAcc></extensions></trkpt>
      <trkpt lon="-3.058286" lat="52.706186"><ele>198.714020</ele><time>2022-01-15T11:11:50Z</time><extensions><speed>1.813410</speed><course>35.287342</course><hAcc>1.488787</hAcc><vAcc>0.726982</vAcc></extensions></trkpt>
      <trkpt lon="-3.058270" lat="52.706198"><ele>198.634232</ele><time>2022-01-15T11:11:51Z</time><extensions><speed>1.752540</speed><course>38.644760</course><hAcc>1.485505</hAcc><vAcc>0.725778</vAcc></extensions></trkpt>
      <trkpt lon="-3.058254" lat="52.706211"><ele>198.545502</ele><time>2022-01-15T11:11:52Z</time><extensions><speed>1.766022</speed><course>37.797977</course><hAcc>1.490604</hAcc><vAcc>0.724326</vAcc></extensions></trkpt>
      <trkpt lon="-3.058238" lat="52.706223"><ele>198.466248</ele><time>2022-01-15T11:11:53Z</time><extensions><speed>1.774469</speed><course>35.276165</course><hAcc>1.498193</hAcc><vAcc>0.722783</vAcc></extensions></trkpt>
      <trkpt lon="-3.058224" lat="52.706237"><ele>198.386139</ele><time>2022-01-15T11:11:54Z</time><extensions><speed>1.764874</speed><course>32.277279</course><hAcc>1.500606</hAcc><vAcc>0.721206</vAcc></extensions></trkpt>
      <trkpt lon="-3.058210" lat="52.706250"><ele>198.319321</ele><time>2022-01-15T11:11:55Z</time><extensions><speed>1.789590</speed><course>30.698040</course><hAcc>1.508615</hAcc><vAcc>0.719721</vAcc></extensions></trkpt>
      <trkpt lon="-3.058197" lat="52.706264"><ele>198.266586</ele><time>2022-01-15T11:11:56Z</time><extensions><speed>1.807227</speed><course>27.440083</course><hAcc>1.501373</hAcc><vAcc>0.718409</vAcc></extensions></trkpt>
      <trkpt lon="-3.058185" lat="52.706278"><ele>198.216736</ele><time>2022-01-15T11:11:57Z</time><extensions><speed>1.819513</speed><course>27.055311</course><hAcc>1.506818</hAcc><vAcc>0.717368</vAcc></extensions></trkpt>
      <trkpt lon="-3.058172" lat="52.706292"><ele>198.160492</ele><time>2022-01-15T11:11:58Z</time><extensions><speed>1.772929</speed><course>31.465456</course><hAcc>1.509833</hAcc><vAcc>0.716679</vAcc></extensions></trkpt>
      <trkpt lon="-3.058157" lat="52.706306"><ele>198.113708</ele><time>2022-01-15T11:11:59Z</time><extensions><speed>1.807817</speed><course>35.437378</course><hAcc>1.508031</hAcc><vAcc>0.716307</vAcc></extensions></trkpt>
      <trkpt lon="-3.058142" lat="52.706318"><ele>198.078842</ele><time>2022-01-15T11:12:00Z</time><extensions><speed>1.818639</speed><course>37.346569</course><hAcc>1.508514</hAcc><vAcc>0.716235</vAcc></extensions></trkpt>
      <trkpt lon="-3.058125" lat="52.706331"><ele>198.042282</ele><time>2022-01-15T11:12:01Z</time><extensions><speed>1.809822</speed><course>39.019920</course><hAcc>1.507597</hAcc><vAcc>0.716419</vAcc></extensions></trkpt>
      <trkpt lon="-3.058108" lat="52.706343"><ele>198.012253</ele><time>2022-01-15T11:12:02Z</time><extensions><speed>1.782606</speed><course>41.182861</course><hAcc>1.500702</hAcc><vAcc>0.716790</vAcc></extensions></trkpt>
      <trkpt lon="-3.058091" lat="52.706355"><ele>198.001846</ele><time>2022-01-15T11:12:03Z</time><extensions><speed>1.766945</speed><course>40.461952</course><hAcc>1.506982</hAcc><vAcc>0.717229</vAcc></extensions></trkpt>
      <trkpt lon="-3.058074" lat="52.706367"><ele>197.996063</ele><time>2022-01-15T11:12:04Z</time><extensions><speed>1.784263</speed><course>40.062248</course><hAcc>1.513597</hAcc><vAcc>0.717678</vAcc></extensions></trkpt>
      <trkpt lon="-3.058057" lat="52.706379"><ele>197.994904</ele><time>2022-01-15T11:12:05Z</time><extensions><speed>1.778620</speed><course>39.667950</course><hAcc>1.517047</hAcc><vAcc>0.718047</vAcc></extensions></trkpt>
      <trkpt lon="-3.058041" lat="52.706391"><ele>197.992691</ele><time>2022-01-15T11:12:06Z</time><extensions><speed>1.744195</speed><course>38.774483</course><hAcc>1.508898</hAcc><vAcc>0.718257</vAcc></extensions></trkpt>
      <trkpt lon="-3.058025" lat="52.706403"><ele>197.972183</ele><time>2022-01-15T11:12:07Z</time><extensions><speed>1.704079</speed><course>39.213169</course><hAcc>1.502785</hAcc><vAcc>0.718270</vAcc></extensions></trkpt>
      <trkpt lon="-3.058009" lat="52.706414"><ele>197.948364</ele><time>2022-01-15T11:12:08Z</time><extensions><speed>1.714231</speed><course>40.775684</course><hAcc>1.515633</hAcc><vAcc>0.718049</vAcc></extensions></trkpt>
      <trkpt lon="-3.057993" lat="52.706425"><ele>197.920898</ele><time>2022-01-15T11:12:09Z</time><extensions><speed>1.685495</speed><course>40.569740</course><hAcc>1.506868</hAcc><vAcc>0.717590</vAcc></extensions></trkpt>
      <trkpt lon="-3.057977" lat="52.706437"><ele>197.920609</ele><time>2022-01-15T11:12:10Z</time><extensions><speed>1.708609</speed><course>39.913498</course><hAcc>1.506297</hAcc><vAcc>0.716857</vAcc></extensions></trkpt>
      <trkpt lon="-3.057960" lat="52.706448"><ele>197.917313</ele><time>2022-01-15T11:12:11Z</time><extensions><speed>1.735963</speed><course>40.693161</course><hAcc>1.507617</hAcc><vAcc>0.715876</vAcc></extensions></trkpt>
      <trkpt lon="-3.057944" lat="52.706460"><ele>197.904556</ele><time>2022-01-15T11:12:12Z</time><extensions><speed>1.709994</speed><course>40.127388</course><hAcc>1.504292</hAcc><vAcc>0.714666</vAcc></extensions></trkpt>
      <trkpt lon="-3.057928" lat="52.706472"><ele>197.896255</ele><time>2022-01-15T11:12:13Z</time><extensions><speed>1.712100</speed><course>37.416527</course><hAcc>1.505895</hAcc><vAcc>0.713281</vAcc></extensions></trkpt>
      <trkpt lon="-3.057913" lat="52.706484"><ele>197.883957</ele><time>2022-01-15T11:12:14Z</time><extensions><speed>1.720961</speed><course>34.867069</course><hAcc>1.505336</hAcc><vAcc>0.711835</vAcc></extensions></trkpt>
      <trkpt lon="-3.057899" lat="52.706496"><ele>197.872482</ele><time>2022-01-15T11:12:15Z</time><extensions><speed>1.726883</speed><course>32.908413</course><hAcc>1.502839</hAcc><vAcc>0.710346</vAcc></extensions></trkpt>
      <trkpt lon="-3.057886" lat="52.706509"><ele>197.865494</ele><time>2022-01-15T11:12:16Z</time><extensions><speed>1.698968</speed><course>31.968485</course><hAcc>1.495712</hAcc><vAcc>0.708863</vAcc></extensions></trkpt>
      <trkpt lon="-3.057872" lat="52.706522"><ele>197.870987</ele><time>2022-01-15T11:12:17Z</time><extensions><speed>1.694956</speed><course>32.868553</course><hAcc>1.497655</hAcc><vAcc>0.707439</vAcc></extensions></trkpt>
      <trkpt lon="-3.057858" lat="52.706534"><ele>197.891602</ele><time>2022-01-15T11:12:18Z</time><extensions><speed>1.704755</speed><course>37.412746</course><hAcc>1.500594</hAcc><vAcc>0.706089</vAcc></extensions></trkpt>
      <trkpt lon="-3.057842" lat="52.706546"><ele>197.919479</ele><time>2022-01-15T11:12:19Z</time><extensions><speed>1.723442</speed><course>38.976826</course><hAcc>1.502595</hAcc><vAcc>0.704811</vAcc></extensions></trkpt>
      <trkpt lon="-3.057827" lat="52.706557"><ele>197.939758</ele><time>2022-01-15T11:12:20Z</time><extensions><speed>1.637677</speed><course>36.541229</course><hAcc>1.496414</hAcc><vAcc>0.703566</vAcc></extensions></trkpt>
      <trkpt lon="-3.057812" lat="52.706569"><ele>197.948669</ele><time>2022-01-15T11:12:21Z</time><extensions><speed>1.711019</speed><course>36.298042</course><hAcc>1.500012</hAcc><vAcc>0.702375</vAcc></extensions></trkpt>
      <trkpt lon="-3.057797" lat="52.706582"><ele>197.978210</ele><time>2022-01-15T11:12:22Z</time><extensions><speed>1.740679</speed><course>36.574276</course><hAcc>1.495433</hAcc><vAcc>0.701240</vAcc></extensions></trkpt>
      <trkpt lon="-3.057782" lat="52.706594"><ele>198.020081</ele><time>2022-01-15T11:12:23Z</time><extensions><speed>1.759519</speed><course>37.088455</course><hAcc>1.495380</hAcc><vAcc>0.700152</vAcc></extensions></trkpt>
      <trkpt lon="-3.057766" lat="52.706606"><ele>198.061813</ele><time>2022-01-15T11:12:24Z</time><extensions><speed>1.723440</speed><course>39.434303</course><hAcc>1.490699</hAcc><vAcc>0.699015</vAcc></extensions></trkpt>
      <trkpt lon="-3.057749" lat="52.706617"><ele>198.113525</ele><time>2022-01-15T11:12:25Z</time><extensions><speed>1.727280</speed><course>40.001053</course><hAcc>1.500747</hAcc><vAcc>0.697780</vAcc></extensions></trkpt>
      <trkpt lon="-3.057733" lat="52.706629"><ele>198.159103</ele><time>2022-01-15T11:12:26Z</time><extensions><speed>1.715057</speed><course>40.044735</course><hAcc>1.498955</hAcc><vAcc>0.696447</vAcc></extensions></trkpt>
      <trkpt lon="-3.057716" lat="52.706640"><ele>198.206985</ele><time>2022-01-15T11:12:27Z</time><extensions><speed>1.702277</speed><course>41.606937</course><hAcc>1.499482</hAcc><vAcc>0.695011</vAcc></extensions></trkpt>
      <trkpt lon="-3.057700" lat="52.706651"><ele>198.258011</ele><time>2022-01-15T11:12:28Z</time><extensions><speed>1.690386</speed><course>40.622589</course><hAcc>1.507821</hAcc><vAcc>0.693513</vAcc></extensions></trkpt>
      <trkpt lon="-3.057683" lat="52.706662"><ele>198.313187</ele><time>2022-01-15T11:12:29Z</time><extensions><speed>1.718944</speed><course>38.849270</course><hAcc>1.510934</hAcc><vAcc>0.692047</vAcc></extensions></trkpt>
      <trkpt lon="-3.057667" lat="52.706674"><ele>198.370972</ele><time>2022-01-15T11:12:30Z</time><extensions><speed>1.750849</speed><course>38.983059</course><hAcc>1.508963</hAcc><vAcc>0.690723</vAcc></extensions></trkpt>
      <trkpt lon="-3.057651" lat="52.706685"><ele>198.429703</ele><time>2022-01-15T11:12:31Z</time><extensions><speed>1.699930</speed><course>40.978577</course><hAcc>1.507130</hAcc><vAcc>0.689614</vAcc></extensions></trkpt>
      <trkpt lon="-3.057634" lat="52.706696"><ele>198.479996</ele><time>2022-01-15T11:12:32Z</time><extensions><speed>1.712863</speed><course>41.579105</course><hAcc>1.515578</hAcc><vAcc>0.688730</vAcc></extensions></trkpt>
      <trkpt lon="-3.057617" lat="52.706707"><ele>198.520645</ele><time>2022-01-15T11:12:33Z</time><extensions><speed>1.711744</speed><course>42.790840</course><hAcc>1.525401</hAcc><vAcc>0.688046</vAcc></extensions></trkpt>
      <trkpt lon="-3.057600" lat="52.706718"><ele>198.540512</ele><time>2022-01-15T11:12:34Z</time><extensions><speed>1.678467</speed><course>43.751633</course><hAcc>1.519933</hAcc><vAcc>0.687452</vAcc></extensions></trkpt>
      <trkpt lon="-3.057584" lat="52.706729"><ele>198.577011</ele><time>2022-01-15T11:12:35Z</time><extensions><speed>1.695137</speed><course>42.740265</course><hAcc>1.525180</hAcc><vAcc>0.686846</vAcc></extensions></trkpt>
      <trkpt lon="-3.057567" lat="52.706740"><ele>198.619125</ele><time>2022-01-15T11:12:36Z</time><extensions><speed>1.699563</speed><course>42.294113</course><hAcc>1.525012</hAcc><vAcc>0.686073</vAcc></extensions></trkpt>
      <trkpt lon="-3.057550" lat="52.706750"><ele>198.640366</ele><time>2022-01-15T11:12:37Z</time><extensions><speed>1.638526</speed><course>41.438938</course><hAcc>1.518976</hAcc><vAcc>0.685050</vAcc></extensions></trkpt>
      <trkpt lon="-3.057535" lat="52.706762"><ele>198.668289</ele><time>2022-01-15T11:12:38Z</time><extensions><speed>1.705548</speed><course>39.538494</course><hAcc>1.528541</hAcc><vAcc>0.683664</vAcc></extensions></trkpt>
      <trkpt lon="-3.057519" lat="52.706773"><ele>198.682266</ele><time>2022-01-15T11:12:39Z</time><extensions><speed>1.702052</speed><course>39.660610</course><hAcc>1.531102</hAcc><vAcc>0.681868</vAcc></extensions></trkpt>
      <trkpt lon="-3.057503" lat="52.706784"><ele>198.692108</ele><time>2022-01-15T11:12:40Z</time><extensions><speed>1.630606</speed><course>39.507378</course><hAcc>1.525608</hAcc><vAcc>0.679737</vAcc></extensions></trkpt>
      <trkpt lon="-3.057488" lat="52.706795"><ele>198.700607</ele><time>2022-01-15T11:12:41Z</time><extensions><speed>1.666196</speed><course>39.018333</course><hAcc>1.531219</hAcc><vAcc>0.677339</vAcc></extensions></trkpt>
      <trkpt lon="-3.057472" lat="52.706806"><ele>198.718109</ele><time>2022-01-15T11:12:42Z</time><extensions><speed>1.674561</speed><course>39.230709</course><hAcc>1.534891</hAcc><vAcc>0.674822</vAcc></extensions></trkpt>
      <trkpt lon="-3.057456" lat="52.706817"><ele>198.732758</ele><time>2022-01-15T11:12:43Z</time><extensions><speed>1.677286</speed><course>39.142300</course><hAcc>1.537109</hAcc><vAcc>0.672349</vAcc></extensions></trkpt>
      <trkpt lon="-3.057442" lat="52.706829"><ele>198.740311</ele><time>2022-01-15T11:12:44Z</time><extensions><speed>1.607786</speed><course>37.610580</course><hAcc>1.532469</hAcc><vAcc>0.670058</vAcc></extensions></trkpt>
      <trkpt lon="-3.057427" lat="52.706839"><ele>198.733414</ele><time>2022-01-15T11:12:45Z</time><extensions><speed>1.589019</speed><course>37.296406</course><hAcc>1.533637</hAcc><vAcc>0.668041</vAcc></extensions></trkpt>
      <trkpt lon="-3.057413" lat="52.706850"><ele>198.747375</ele><time>2022-01-15T11:12:46Z</time><extensions><speed>1.573855</speed><course>38.236401</course><hAcc>1.535913</hAcc><vAcc>0.666310</vAcc></extensions></trkpt>
      <trkpt lon="-3.057399" lat="52.706861"><ele>198.762619</ele><time>2022-01-15T11:12:47Z</time><extensions><speed>1.652237</speed><course>37.911785</course><hAcc>1.534399</hAcc><vAcc>0.664819</vAcc></extensions></trkpt>
      <trkpt lon="-3.057384" lat="52.706872"><ele>198.780289</ele><time>2022-01-15T11:12:48Z</time><extensions><speed>1.620778</speed><course>36.854946</course><hAcc>1.529778</hAcc><vAcc>0.663464</vAcc></extensions></trkpt>
      <trkpt lon="-3.057370" lat="52.706884"><ele>198.790695</ele><time>2022-01-15T11:12:49Z</time><extensions><speed>1.660103</speed><course>36.897240</course><hAcc>1.530494</hAcc><vAcc>0.662127</vAcc></extensions></trkpt>
      <trkpt lon="-3.057355" lat="52.706895"><ele>198.816330</ele><time>2022-01-15T11:12:50Z</time><extensions><speed>1.641770</speed><course>38.554417</course><hAcc>1.529451</hAcc><vAcc>0.660723</vAcc></extensions></trkpt>
      <trkpt lon="-3.057340" lat="52.706906"><ele>198.838013</ele><time>2022-01-15T11:12:51Z</time><extensions><speed>1.631460</speed><course>38.134327</course><hAcc>1.533541</hAcc><vAcc>0.659171</vAcc></extensions></trkpt>
      <trkpt lon="-3.057325" lat="52.706917"><ele>198.863235</ele><time>2022-01-15T11:12:52Z</time><extensions><speed>1.611565</speed><course>36.644493</course><hAcc>1.544295</hAcc><vAcc>0.657473</vAcc></extensions></trkpt>
      <trkpt lon="-3.057311" lat="52.706928"><ele>198.894897</ele><time>2022-01-15T11:12:53Z</time><extensions><speed>1.638107</speed><course>33.746258</course><hAcc>1.558843</hAcc><vAcc>0.655649</vAcc></extensions></trkpt>
      <trkpt lon="-3.057297" lat="52.706940"><ele>198.931091</ele><time>2022-01-15T11:12:54Z</time><extensions><speed>1.617999</speed><course>32.098392</course><hAcc>1.564857</hAcc><vAcc>0.653731</vAcc></extensions></trkpt>
      <trkpt lon="-3.057284" lat="52.706952"><ele>198.976044</ele><time>2022-01-15T11:12:55Z</time><extensions><speed>1.568979</speed><course>33.922878</course><hAcc>1.579582</hAcc><vAcc>0.651829</vAcc></extensions></trkpt>
      <trkpt lon="-3.057271" lat="52.706963"><ele>199.030182</ele><time>2022-01-15T11:12:56Z</time><extensions><speed>1.602667</speed><course>34.889454</course><hAcc>1.607920</hAcc><vAcc>0.650105</vAcc></extensions></trkpt>
      <trkpt lon="-3.057257" lat="52.706974"><ele>199.096436</ele><time>2022-01-15T11:12:57Z</time><extensions><speed>1.566188</speed><course>36.315296</course><hAcc>1.636033</hAcc><vAcc>0.648611</vAcc></extensions></trkpt>
      <trkpt lon="-3.057243" lat="52.706985"><ele>199.169357</ele><time>2022-01-15T11:12:58Z</time><extensions><speed>1.489588</speed><course>38.308937</course><hAcc>1.659494</hAcc><vAcc>0.647475</vAcc></extensions></trkpt>
      <trkpt lon="-3.057229" lat="52.706994"><ele>199.249130</ele><time>2022-01-15T11:12:59Z</time><extensions><speed>1.304182</speed><course>44.203449</course><hAcc>1.672232</hAcc><vAcc>0.646704</vAcc></extensions></trkpt>
      <trkpt lon="-3.057215" lat="52.707001"><ele>199.322540</ele><time>2022-01-15T11:13:00Z</time><extensions><speed>1.195457</speed><course>54.121719</course><hAcc>1.689306</hAcc><vAcc>0.646257</vAcc></extensions></trkpt>
      <trkpt lon="-3.057199" lat="52.707006"><ele>199.410507</ele><time>2022-01-15T11:13:01Z</time><extensions><speed>1.201955</speed><course>67.709389</course><hAcc>1.705505</hAcc><vAcc>0.646014</vAcc></extensions></trkpt>
      <trkpt lon="-3.057183" lat="52.707010"><ele>199.505173</ele><time>2022-01-15T11:13:02Z</time><extensions><speed>1.228478</speed><course>68.658539</course><hAcc>1.741079</hAcc><vAcc>0.645812</vAcc></extensions></trkpt>
      <trkpt lon="-3.057165" lat="52.707013"><ele>199.620987</ele><time>2022-01-15T11:13:03Z</time><extensions><speed>1.249384</speed><course>71.978905</course><hAcc>1.747335</hAcc><vAcc>0.645494</vAcc></extensions></trkpt>
      <trkpt lon="-3.057147" lat="52.707016"><ele>199.730774</ele><time>2022-01-15T11:13:04Z</time><extensions><speed>1.246795</speed><course>82.717522</course><hAcc>1.715682</hAcc><vAcc>0.644949</vAcc></extensions></trkpt>
      <trkpt lon="-3.057129" lat="52.707017"><ele>199.855255</ele><time>2022-01-15T11:13:05Z</time><extensions><speed>1.237518</speed><course>82.715050</course><hAcc>1.715991</hAcc><vAcc>0.644076</vAcc></extensions></trkpt>
      <trkpt lon="-3.057112" lat="52.707018"><ele>199.974930</ele><time>2022-01-15T11:13:06Z</time><extensions><speed>1.183730</speed><course>73.654686</course><hAcc>1.742021</hAcc><vAcc>0.642796</vAcc></extensions></trkpt>
      <trkpt lon="-3.057094" lat="52.707021"><ele>200.104324</ele><time>2022-01-15T11:13:07Z</time><extensions><speed>1.216085</speed><course>77.653915</course><hAcc>1.720699</hAcc><vAcc>0.641026</vAcc></extensions></trkpt>
      <trkpt lon="-3.057077" lat="52.707023"><ele>200.243958</ele><time>2022-01-15T11:13:08Z</time><extensions><speed>1.226349</speed><course>71.216103</course><hAcc>1.717523</hAcc><vAcc>0.638761</vAcc></extensions></trkpt>
      <trkpt lon="-3.057060" lat="52.707026"><ele>200.394562</ele><time>2022-01-15T11:13:09Z</time><extensions><speed>1.157671</speed><course>75.668701</course><hAcc>1.671776</hAcc><vAcc>0.636037</vAcc></extensions></trkpt>
      <trkpt lon="-3.057044" lat="52.707029"><ele>200.551590</ele><time>2022-01-15T11:13:10Z</time><extensions><speed>1.145516</speed><course>69.069527</course><hAcc>1.663032</hAcc><vAcc>0.632943</vAcc></extensions></trkpt>
      <trkpt lon="-3.057029" lat="52.707033"><ele>200.718887</ele><time>2022-01-15T11:13:11Z</time><extensions><speed>1.117370</speed><course>59.726021</course><hAcc>1.679813</hAcc><vAcc>0.629614</vAcc></extensions></trkpt>
      <trkpt lon="-3.057015" lat="52.707038"><ele>200.887726</ele><time>2022-01-15T11:13:12Z</time><extensions><speed>1.161326</speed><course>54.464352</course><hAcc>1.692868</hAcc><vAcc>0.626200</vAcc></extensions></trkpt>
      <trkpt lon="-3.057001" lat="52.707044"><ele>201.056198</ele><time>2022-01-15T11:13:13Z</time><extensions><speed>1.137689</speed><course>52.825565</course><hAcc>1.685509</hAcc><vAcc>0.622814</vAcc></extensions></trkpt>
      <trkpt lon="-3.056988" lat="52.707050"><ele>201.237701</ele><time>2022-01-15T11:13:14Z</time><extensions><speed>1.038602</speed><course>59.271034</course><hAcc>1.656716</hAcc><vAcc>0.619500</vAcc></extensions></trkpt>
      <trkpt lon="-3.056975" lat="52.707054"><ele>201.421249</ele><time>2022-01-15T11:13:15Z</time><extensions><speed>0.991261</speed><course>59.393547</course><hAcc>1.661918</hAcc><vAcc>0.616197</vAcc></extensions></trkpt>
      <trkpt lon="-3.056963" lat="52.707059"><ele>201.604034</ele><time>2022-01-15T11:13:16Z</time><extensions><speed>0.978334</speed><course>59.079735</course><hAcc>1.683423</hAcc><vAcc>0.612763</vAcc></extensions></trkpt>
      <trkpt lon="-3.056951" lat="52.707063"><ele>201.795502</ele><time>2022-01-15T11:13:17Z</time><extensions><speed>0.902806</speed><course>63.114155</course><hAcc>1.672576</hAcc><vAcc>0.609021</vAcc></extensions></trkpt>
      <trkpt lon="-3.056939" lat="52.707067"><ele>201.984497</ele><time>2022-01-15T11:13:18Z</time><extensions><speed>0.932035</speed><course>57.806202</course><hAcc>1.713037</hAcc><vAcc>0.604806</vAcc></extensions></trkpt>
      <trkpt lon="-3.056928" lat="52.707072"><ele>202.169785</ele><time>2022-01-15T11:13:19Z</time><extensions><speed>0.925024</speed><course>53.550373</course><hAcc>1.746965</hAcc><vAcc>0.600015</vAcc></extensions></trkpt>
      <trkpt lon="-3.056917" lat="52.707077"><ele>202.349182</ele><time>2022-01-15T11:13:20Z</time><extensions><speed>0.916999</speed><course>52.811069</course><hAcc>1.742806</hAcc><vAcc>0.594640</vAcc></extensions></trkpt>
      <trkpt lon="-3.056906" lat="52.707082"><ele>202.523178</ele><time>2022-01-15T11:13:21Z</time><extensions><speed>0.943520</speed><course>51.280445</course><hAcc>1.710694</hAcc><vAcc>0.588787</vAcc></extensions></trkpt>
      <trkpt lon="-3.056896" lat="52.707088"><ele>202.691193</ele><time>2022-01-15T11:13:22Z</time><extensions><speed>0.991792</speed><course>47.137978</course><hAcc>1.710811</hAcc><vAcc>0.582685</vAcc></extensions></trkpt>
      <trkpt lon="-3.056885" lat="52.707094"><ele>202.851700</ele><time>2022-01-15T11:13:23Z</time><extensions><speed>1.031714</speed><course>43.169395</course><hAcc>1.733894</hAcc><vAcc>0.576658</vAcc></extensions></trkpt>
      <trkpt lon="-3.056875" lat="52.707101"><ele>203.001526</ele><time>2022-01-15T11:13:24Z</time><extensions><speed>1.045558</speed><course>40.164047</course><hAcc>1.767063</hAcc><vAcc>0.571088</vAcc></extensions></trkpt>
      <trkpt lon="-3.056866" lat="52.707109"><ele>203.136749</ele><time>2022-01-15T11:13:25Z</time><extensions><speed>1.016690</speed><course>37.966064</course><hAcc>1.747438</hAcc><vAcc>0.566346</vAcc></extensions></trkpt>
      <trkpt lon="-3.056857" lat="52.707116"><ele>203.256165</ele><time>2022-01-15T11:13:26Z</time><extensions><speed>0.998279</speed><course>35.630997</course><hAcc>1.747594</hAcc><vAcc>0.562754</vAcc></extensions></trkpt>
      <trkpt lon="-3.056849" lat="52.707123"><ele>203.365128</ele><time>2022-01-15T11:13:27Z</time><extensions><speed>0.991628</speed><course>33.676895</course><hAcc>1.750439</hAcc><vAcc>0.560550</vAcc></extensions></trkpt>
      <trkpt lon="-3.056840" lat="52.707131"><ele>203.466339</ele><time>2022-01-15T11:13:28Z</time><extensions><speed>0.997786</speed><course>32.514965</course><hAcc>1.741772</hAcc><vAcc>0.559861</vAcc></extensions></trkpt>
      <trkpt lon="-3.056833" lat="52.707139"><ele>203.555771</ele><time>2022-01-15T11:13:29Z</time><extensions><speed>1.009878</speed><course>26.423340</course><hAcc>1.710428</hAcc><vAcc>0.560695</vAcc></extensions></trkpt>
      <trkpt lon="-3.056827" lat="52.707147"><ele>203.643860</ele><time>2022-01-15T11:13:30Z</time><extensions><speed>0.999110</speed><course>20.519768</course><hAcc>1.704410</hAcc><vAcc>0.562927</vAcc></extensions></trkpt>
      <trkpt lon="-3.056822" lat="52.707156"><ele>203.724808</ele><time>2022-01-15T11:13:31Z</time><extensions><speed>0.964983</speed><course>18.071081</course><hAcc>1.713272</hAcc><vAcc>0.566313</vAcc></extensions></trkpt>
      <trkpt lon="-3.056817" lat="52.707164"><ele>203.786667</ele><time>2022-01-15T11:13:32Z</time><extensions><speed>0.949662</speed><course>19.941362</course><hAcc>1.714686</hAcc><vAcc>0.570480</vAcc></extensions></trkpt>
      <trkpt lon="-3.056812" lat="52.707172"><ele>203.847946</ele><time>2022-01-15T11:13:33Z</time><extensions><speed>0.915031</speed><course>26.184183</course><hAcc>1.747732</hAcc><vAcc>0.574989</vAcc></extensions></trkpt>
      <trkpt lon="-3.056806" lat="52.707180"><ele>203.907654</ele><time>2022-01-15T11:13:34Z</time><extensions><speed>1.006088</speed><course>24.921623</course><hAcc>1.705662</hAcc><vAcc>0.579407</vAcc></extensions></trkpt>
      <trkpt lon="-3.056800" lat="52.707188"><ele>203.971588</ele><time>2022-01-15T11:13:34Z</time><extensions><speed>1.052617</speed><course>26.044710</course><hAcc>1.721032</hAcc><vAcc>0.583369</vAcc></extensions></trkpt>
      <trkpt lon="-3.056793" lat="52.707197"><ele>204.030777</ele><time>2022-01-15T11:13:35Z</time><extensions><speed>1.081358</speed><course>26.890610</course><hAcc>1.754970</hAcc><vAcc>0.586623</vAcc></extensions></trkpt>
      <trkpt lon="-3.056785" lat="52.707206"><ele>204.083191</ele><time>2022-01-15T11:13:37Z</time><extensions><speed>1.212583</speed><course>28.981813</course><hAcc>1.724102</hAcc><vAcc>0.589039</vAcc></extensions></trkpt>
      <trkpt lon="-3.056775" lat="52.707216"><ele>204.116806</ele><time>2022-01-15T11:13:38Z</time><extensions><speed>1.278325</speed><course>30.440941</course><hAcc>1.729134</hAcc><vAcc>0.590633</vAcc></extensions></trkpt>
      <trkpt lon="-3.056766" lat="52.707226"><ele>204.129471</ele><time>2022-01-15T11:13:39Z</time><extensions><speed>1.325222</speed><course>29.438484</course><hAcc>1.745859</hAcc><vAcc>0.591554</vAcc></extensions></trkpt>
      <trkpt lon="-3.056756" lat="52.707237"><ele>204.115952</ele><time>2022-01-15T11:13:40Z</time><extensions><speed>1.375376</speed><course>27.734560</course><hAcc>1.745369</hAcc><vAcc>0.592012</vAcc></extensions></trkpt>
      <trkpt lon="-3.056747" lat="52.707248"><ele>204.093933</ele><time>2022-01-15T11:13:40Z</time><extensions><speed>1.370120</speed><course>26.665756</course><hAcc>1.757145</hAcc><vAcc>0.592272</vAcc></extensions></trkpt>
      <trkpt lon="-3.056738" lat="52.707259"><ele>204.051559</ele><time>2022-01-15T11:13:41Z</time><extensions><speed>1.341128</speed><course>25.020775</course><hAcc>1.762995</hAcc><vAcc>0.592604</vAcc></extensions></trkpt>
      <trkpt lon="-3.056730" lat="52.707270"><ele>203.996567</ele><time>2022-01-15T11:13:43Z</time><extensions><speed>1.320577</speed><course>22.858141</course><hAcc>1.783036</hAcc><vAcc>0.593247</vAcc></extensions></trkpt>
      <trkpt lon="-3.056723" lat="52.707281"><ele>203.935486</ele><time>2022-01-15T11:13:44Z</time><extensions><speed>1.317844</speed><course>23.026251</course><hAcc>1.794565</hAcc><vAcc>0.594372</vAcc></extensions></trkpt>
      <trkpt lon="-3.056715" lat="52.707292"><ele>203.874008</ele><time>2022-01-15T11:13:45Z</time><extensions><speed>1.369154</speed><course>22.426229</course><hAcc>1.778988</hAcc><vAcc>0.596079</vAcc></extensions></trkpt>
      <trkpt lon="-3.056707" lat="52.707304"><ele>203.795898</ele><time>2022-01-15T11:13:46Z</time><extensions><speed>1.396932</speed><course>22.988537</course><hAcc>1.778622</hAcc><vAcc>0.598436</vAcc></extensions></trkpt>
      <trkpt lon="-3.056698" lat="52.707315"><ele>203.716171</ele><time>2022-01-15T11:13:47Z</time><extensions><speed>1.401476</speed><course>23.750240</course><hAcc>1.787854</hAcc><vAcc>0.601494</vAcc></extensions></trkpt>
      <trkpt lon="-3.056690" lat="52.707327"><ele>203.650970</ele><time>2022-01-15T11:13:48Z</time><extensions><speed>1.409041</speed><course>24.459003</course><hAcc>1.783313</hAcc><vAcc>0.605257</vAcc></extensions></trkpt>
      <trkpt lon="-3.056681" lat="52.707338"><ele>203.602646</ele><time>2022-01-15T11:13:49Z</time><extensions><speed>1.389891</speed><course>24.348190</course><hAcc>1.780488</hAcc><vAcc>0.609623</vAcc></extensions></trkpt>
      <trkpt lon="-3.056673" lat="52.707350"><ele>203.563034</ele><time>2022-01-15T11:13:50Z</time><extensions><speed>1.355609</speed><course>23.946857</course><hAcc>1.785957</hAcc><vAcc>0.614409</vAcc></extensions></trkpt>
      <trkpt lon="-3.056665" lat="52.707361"><ele>203.534958</ele><time>2022-01-15T11:13:51Z</time><extensions><speed>1.259606</speed><course>22.050003</course><hAcc>1.803051</hAcc><vAcc>0.619422</vAcc></extensions></trkpt>
      <trkpt lon="-3.056658" lat="52.707371"><ele>203.536896</ele><time>2022-01-15T11:13:52Z</time><extensions><speed>1.269549</speed><course>24.340759</course><hAcc>1.783510</hAcc><vAcc>0.624347</vAcc></extensions></trkpt>
      <trkpt lon="-3.056650" lat="52.707381"><ele>203.565369</ele><time>2022-01-15T11:13:53Z</time><extensions><speed>1.239034</speed><course>25.556635</course><hAcc>1.779208</hAcc><vAcc>0.628860</vAcc></extensions></trkpt>
      <trkpt lon="-3.056641" lat="52.707392"><ele>203.623657</ele><time>2022-01-15T11:13:54Z</time><extensions><speed>1.283828</speed><course>28.005344</course><hAcc>1.754864</hAcc><vAcc>0.632671</vAcc></extensions></trkpt>
      <trkpt lon="-3.056632" lat="52.707402"><ele>203.699371</ele><time>2022-01-15T11:13:55Z</time><extensions><speed>1.303301</speed><course>29.969656</course><hAcc>1.731570</hAcc><vAcc>0.635597</vAcc></extensions></trkpt>
      <trkpt lon="-3.056621" lat="52.707412"><ele>203.763367</ele><time>2022-01-15T11:13:56Z</time><extensions><speed>1.336588</speed><course>32.497532</course><hAcc>1.712520</hAcc><vAcc>0.637532</vAcc></extensions></trkpt>
      <trkpt lon="-3.056611" lat="52.707423"><ele>203.859467</ele><time>2022-01-15T11:13:57Z</time><extensions><speed>1.332133</speed><course>32.493099</course><hAcc>1.701837</hAcc><vAcc>0.638476</vAcc></extensions></trkpt>
      <trkpt lon="-3.056600" lat="52.707433"><ele>203.972809</ele><time>2022-01-15T11:13:58Z</time><extensions><speed>1.358186</speed><course>32.644436</course><hAcc>1.701823</hAcc><vAcc>0.638489</vAcc></extensions></trkpt>
      <trkpt lon="-3.056588" lat="52.707444"><ele>204.088745</ele><time>2022-01-15T11:13:59Z</time><extensions><speed>1.383272</speed><course>33.728848</course><hAcc>1.708714</hAcc><vAcc>0.637639</vAcc></extensions></trkpt>
      <trkpt lon="-3.056576" lat="52.707454"><ele>204.215927</ele><time>2022-01-15T11:14:00Z</time><extensions><speed>1.390052</speed><course>34.141872</course><hAcc>1.698539</hAcc><vAcc>0.636016</vAcc></extensions></trkpt>
      <trkpt lon="-3.056564" lat="52.707465"><ele>204.350876</ele><time>2022-01-15T11:14:01Z</time><extensions><speed>1.421897</speed><course>34.159420</course><hAcc>1.671973</hAcc><vAcc>0.633673</vAcc></extensions></trkpt>
      <trkpt lon="-3.056552" lat="52.707475"><ele>204.492661</ele><time>2022-01-15T11:14:02Z</time><extensions><speed>1.393295</speed><course>34.596066</course><hAcc>1.667631</hAcc><vAcc>0.630637</vAcc></extensions></trkpt>
      <trkpt lon="-3.056540" lat="52.707485"><ele>204.647675</ele><time>2022-01-15T11:14:03Z</time><extensions><speed>1.425015</speed><course>35.668671</course><hAcc>1.651526</hAcc><vAcc>0.626926</vAcc></extensions></trkpt>
      <trkpt lon="-3.056527" lat="52.707496"><ele>204.807800</ele><time>2022-01-15T11:14:04Z</time><extensions><speed>1.377149</speed><course>36.092945</course><hAcc>1.668351</hAcc><vAcc>0.622561</vAcc></extensions></trkpt>
      <trkpt lon="-3.056515" lat="52.707506"><ele>204.962769</ele><time>2022-01-15T11:14:05Z</time><extensions><speed>1.415826</speed><course>37.234154</course><hAcc>1.673911</hAcc><vAcc>0.617572</vAcc></extensions></trkpt>
      <trkpt lon="-3.056502" lat="52.707516"><ele>205.116302</ele><time>2022-01-15T11:14:06Z</time><extensions><speed>1.471706</speed><course>37.400238</course><hAcc>1.662686</hAcc><vAcc>0.612011</vAcc></extensions></trkpt>
      <trkpt lon="-3.056489" lat="52.707526"><ele>205.270340</ele><time>2022-01-15T11:14:07Z</time><extensions><speed>1.402279</speed><course>36.457550</course><hAcc>1.704178</hAcc><vAcc>0.605951</vAcc></extensions></trkpt>
      <trkpt lon="-3.056476" lat="52.707537"><ele>205.425690</ele><time>2022-01-15T11:14:08Z</time><extensions><speed>1.441373</speed><course>39.095371</course><hAcc>1.705323</hAcc><vAcc>0.599468</vAcc></extensions></trkpt>
      <trkpt lon="-3.056462" lat="52.707546"><ele>205.583954</ele><time>2022-01-15T11:14:09Z</time><extensions><speed>1.371872</speed><course>41.192230</course><hAcc>1.730568</hAcc><vAcc>0.592645</vAcc></extensions></trkpt>
      <trkpt lon="-3.056448" lat="52.707555"><ele>205.744385</ele><time>2022-01-15T11:14:10Z</time><extensions><speed>1.419484</speed><course>45.984959</course><hAcc>1.723808</hAcc><vAcc>0.585561</vAcc></extensions></trkpt>
      <trkpt lon="-3.056433" lat="52.707564"><ele>205.904160</ele><time>2022-01-15T11:14:11Z</time><extensions><speed>1.433915</speed><course>49.230511</course><hAcc>1.749156</hAcc><vAcc>0.578283</vAcc></extensions></trkpt>
      <trkpt lon="-3.056416" lat="52.707572"><ele>206.063400</ele><time>2022-01-15T11:14:12Z</time><extensions><speed>1.425726</speed><course>49.952705</course><hAcc>1.783376</hAcc><vAcc>0.570846</vAcc></extensions></trkpt>
      <trkpt lon="-3.056400" lat="52.707581"><ele>206.216339</ele><time>2022-01-15T11:14:13Z</time><extensions><speed>1.422882</speed><course>48.819958</course><hAcc>1.799274</hAcc><vAcc>0.563281</vAcc></extensions></trkpt>
      <trkpt lon="-3.056385" lat="52.707589"><ele>206.368011</ele><time>2022-01-15T11:14:14Z</time><extensions><speed>1.403271</speed><course>47.567265</course><hAcc>1.823198</hAcc><vAcc>0.555629</vAcc></extensions></trkpt>
      <trkpt lon="-3.056370" lat="52.707598"><ele>206.518677</ele><time>2022-01-15T11:14:15Z</time><extensions><speed>1.394026</speed><course>46.485115</course><hAcc>1.842559</hAcc><vAcc>0.547978</vAcc></extensions></trkpt>
      <trkpt lon="-3.056355" lat="52.707607"><ele>206.667160</ele><time>2022-01-15T11:14:16Z</time><extensions><speed>1.407206</speed><course>45.818825</course><hAcc>1.851491</hAcc><vAcc>0.540478</vAcc></extensions></trkpt>
      <trkpt lon="-3.056339" lat="52.707616"><ele>206.811447</ele><time>2022-01-15T11:14:17Z</time><extensions><speed>1.460838</speed><course>45.396957</course><hAcc>1.853019</hAcc><vAcc>0.533365</vAcc></extensions></trkpt>
      <trkpt lon="-3.056324" lat="52.707625"><ele>206.950699</ele><time>2022-01-15T11:14:18Z</time><extensions><speed>1.489068</speed><course>44.292809</course><hAcc>1.878645</hAcc><vAcc>0.526955</vAcc></extensions></trkpt>
      <trkpt lon="-3.056308" lat="52.707635"><ele>207.068481</ele><time>2022-01-15T11:14:19Z</time><extensions><speed>1.486773</speed><course>42.107342</course><hAcc>1.903820</hAcc><vAcc>0.521597</vAcc></extensions></trkpt>
      <trkpt lon="-3.056294" lat="52.707645"><ele>207.175583</ele><time>2022-01-15T11:14:20Z</time><extensions><speed>1.465820</speed><course>41.317711</course><hAcc>1.907447</hAcc><vAcc>0.517634</vAcc></extensions></trkpt>
      <trkpt lon="-3.056279" lat="52.707655"><ele>207.280228</ele><time>2022-01-15T11:14:21Z</time><extensions><speed>1.474959</speed><course>40.649181</course><hAcc>1.864186</hAcc><vAcc>0.515347</vAcc></extensions></trkpt>
      <trkpt lon="-3.056265" lat="52.707665"><ele>207.381546</ele><time>2022-01-15T11:14:22Z</time><extensions><speed>1.442971</speed><course>40.375771</course><hAcc>1.840160</hAcc><vAcc>0.514862</vAcc></extensions></trkpt>
      <trkpt lon="-3.056251" lat="52.707675"><ele>207.478119</ele><time>2022-01-15T11:14:23Z</time><extensions><speed>1.404898</speed><course>40.644199</course><hAcc>1.832719</hAcc><vAcc>0.516066</vAcc></extensions></trkpt>
      <trkpt lon="-3.056238" lat="52.707684"><ele>207.573807</ele><time>2022-01-15T11:14:24Z</time><extensions><speed>1.339649</speed><course>41.854259</course><hAcc>1.828492</hAcc><vAcc>0.518608</vAcc></extensions></trkpt>
      <trkpt lon="-3.056224" lat="52.707693"><ele>207.670944</ele><time>2022-01-15T11:14:25Z</time><extensions><speed>1.258445</speed><course>43.918865</course><hAcc>1.843746</hAcc><vAcc>0.522011</vAcc></extensions></trkpt>
      <trkpt lon="-3.056212" lat="52.707700"><ele>207.766525</ele><time>2022-01-15T11:14:26Z</time><extensions><speed>1.136245</speed><course>45.288334</course><hAcc>1.882308</hAcc><vAcc>0.525788</vAcc></extensions></trkpt>
      <trkpt lon="-3.056199" lat="52.707708"><ele>207.864014</ele><time>2022-01-15T11:14:27Z</time><extensions><speed>1.222369</speed><course>49.031239</course><hAcc>1.843973</hAcc><vAcc>0.529559</vAcc></extensions></trkpt>
      <trkpt lon="-3.056185" lat="52.707715"><ele>207.973221</ele><time>2022-01-15T11:14:28Z</time><extensions><speed>1.245458</speed><course>52.230106</course><hAcc>1.842218</hAcc><vAcc>0.533113</vAcc></extensions></trkpt>
      <trkpt lon="-3.056170" lat="52.707722"><ele>208.099930</ele><time>2022-01-15T11:14:29Z</time><extensions><speed>1.283467</speed><course>54.519413</course><hAcc>1.825824</hAcc><vAcc>0.536380</vAcc></extensions></trkpt>
      <trkpt lon="-3.056154" lat="52.707728"><ele>208.245544</ele><time>2022-01-15T11:14:30Z</time><extensions><speed>1.240590</speed><course>55.639534</course><hAcc>1.838421</hAcc><vAcc>0.539375</vAcc></extensions></trkpt>
      <trkpt lon="-3.056139" lat="52.707734"><ele>208.406281</ele><time>2022-01-15T11:14:31Z</time><extensions><speed>1.181978</speed><course>56.678612</course><hAcc>1.865953</hAcc><vAcc>0.542150</vAcc></extensions></trkpt>
      <trkpt lon="-3.056124" lat="52.707740"><ele>208.569931</ele><time>2022-01-15T11:14:32Z</time><extensions><speed>1.204166</speed><course>57.313286</course><hAcc>1.870601</hAcc><vAcc>0.544775</vAcc></extensions></trkpt>
      <trkpt lon="-3.056109" lat="52.707746"><ele>208.742905</ele><time>2022-01-15T11:14:33Z</time><extensions><speed>1.223254</speed><course>56.215485</course><hAcc>1.867151</hAcc><vAcc>0.547319</vAcc></extensions></trkpt>
      <trkpt lon="-3.056094" lat="52.707753"><ele>208.924652</ele><time>2022-01-15T11:14:34Z</time><extensions><speed>1.253014</speed><course>54.072865</course><hAcc>1.867460</hAcc><vAcc>0.549828</vAcc></extensions></trkpt>
      <trkpt lon="-3.056079" lat="52.707760"><ele>209.117142</ele><time>2022-01-15T11:14:35Z</time><extensions><speed>1.291820</speed><course>52.460815</course><hAcc>1.857197</hAcc><vAcc>0.552317</vAcc></extensions></trkpt>
      <trkpt lon="-3.056064" lat="52.707767"><ele>209.316162</ele><time>2022-01-15T11:14:36Z</time><extensions><speed>1.331838</speed><course>52.436054</course><hAcc>1.843860</hAcc><vAcc>0.554800</vAcc></extensions></trkpt>
      <trkpt lon="-3.056048" lat="52.707774"><ele>209.524017</ele><time>2022-01-15T11:14:37Z</time><extensions><speed>1.347046</speed><course>52.918583</course><hAcc>1.853628</hAcc><vAcc>0.557285</vAcc></extensions></trkpt>
      <trkpt lon="-3.056032" lat="52.707781"><ele>209.738312</ele><time>2022-01-15T11:14:38Z</time><extensions><speed>1.294991</speed><course>52.838436</course><hAcc>1.858040</hAcc><vAcc>0.559767</vAcc></extensions></trkpt>
      <trkpt lon="-3.056017" lat="52.707788"><ele>209.954178</ele><time>2022-01-15T11:14:39Z</time><extensions><speed>1.290161</speed><course>52.252663</course><hAcc>1.850544</hAcc><vAcc>0.562232</vAcc></extensions></trkpt>
      <trkpt lon="-3.056002" lat="52.707795"><ele>210.168716</ele><time>2022-01-15T11:14:40Z</time><extensions><speed>1.262634</speed><course>51.917027</course><hAcc>1.816108</hAcc><vAcc>0.564683</vAcc></extensions></trkpt>
      <trkpt lon="-3.055987" lat="52.707802"><ele>210.383026</ele><time>2022-01-15T11:14:41Z</time><extensions><speed>1.204765</speed><course>52.519093</course><hAcc>1.795136</hAcc><vAcc>0.567117</vAcc></extensions></trkpt>
      <trkpt lon="-3.055973" lat="52.707808"><ele>210.599747</ele><time>2022-01-15T11:14:42Z</time><extensions><speed>1.176965</speed><course>55.068897</course><hAcc>1.782134</hAcc><vAcc>0.569449</vAcc></extensions></trkpt>
      <trkpt lon="-3.055959" lat="52.707814"><ele>210.826111</ele><time>2022-01-15T11:14:43Z</time><extensions><speed>1.153754</speed><course>55.814663</course><hAcc>1.784762</hAcc><vAcc>0.571506</vAcc></extensions></trkpt>
      <trkpt lon="-3.055945" lat="52.707820"><ele>211.063980</ele><time>2022-01-15T11:14:44Z</time><extensions><speed>1.121157</speed><course>54.999359</course><hAcc>1.804219</hAcc><vAcc>0.573114</vAcc></extensions></trkpt>
      <trkpt lon="-3.055931" lat="52.707826"><ele>211.315033</ele><time>2022-01-15T11:14:45Z</time><extensions><speed>1.100588</speed><course>54.313725</course><hAcc>1.793982</hAcc><vAcc>0.574156</vAcc></extensions></trkpt>
      <trkpt lon="-3.055918" lat="52.707832"><ele>211.571579</ele><time>2022-01-15T11:14:46Z</time><extensions><speed>1.100486</speed><course>55.546886</course><hAcc>1.808173</hAcc><vAcc>0.574591</vAcc></extensions></trkpt>
      <trkpt lon="-3.055904" lat="52.707837"><ele>211.836258</ele><time>2022-01-15T11:14:47Z</time><extensions><speed>1.121540</speed><course>56.848293</course><hAcc>1.814402</hAcc><vAcc>0.574470</vAcc></extensions></trkpt>
      <trkpt lon="-3.055890" lat="52.707843"><ele>212.106140</ele><time>2022-01-15T11:14:48Z</time><extensions><speed>1.179392</speed><course>57.475723</course><hAcc>1.788900</hAcc><vAcc>0.573943</vAcc></extensions></trkpt>
      <trkpt lon="-3.055875" lat="52.707849"><ele>212.377640</ele><time>2022-01-15T11:14:49Z</time><extensions><speed>1.243142</speed><course>57.448689</course><hAcc>1.792230</hAcc><vAcc>0.573210</vAcc></extensions></trkpt>
      <trkpt lon="-3.055859" lat="52.707855"><ele>212.648956</ele><time>2022-01-15T11:14:50Z</time><extensions><speed>1.321778</speed><course>57.403229</course><hAcc>1.811127</hAcc><vAcc>0.572430</vAcc></extensions></trkpt>
      <trkpt lon="-3.055842" lat="52.707862"><ele>212.923294</ele><time>2022-01-15T11:14:51Z</time><extensions><speed>1.400698</speed><course>56.795563</course><hAcc>1.820644</hAcc><vAcc>0.571643</vAcc></extensions></trkpt>
      <trkpt lon="-3.055824" lat="52.707869"><ele>213.202515</ele><time>2022-01-15T11:14:52Z</time><extensions><speed>1.444544</speed><course>55.494583</course><hAcc>1.828906</hAcc><vAcc>0.570807</vAcc></extensions></trkpt>
      <trkpt lon="-3.055806" lat="52.707876"><ele>213.482697</ele><time>2022-01-15T11:14:53Z</time><extensions><speed>1.432537</speed><course>53.448959</course><hAcc>1.846878</hAcc><vAcc>0.569900</vAcc></extensions></trkpt>
      <trkpt lon="-3.055790" lat="52.707884"><ele>213.755707</ele><time>2022-01-15T11:14:54Z</time><extensions><speed>1.378902</speed><course>51.793373</course><hAcc>1.847120</hAcc><vAcc>0.568962</vAcc></extensions></trkpt>
      <trkpt lon="-3.055774" lat="52.707892"><ele>214.020035</ele><time>2022-01-15T11:14:55Z</time><extensions><speed>1.335089</speed><course>51.042324</course><hAcc>1.827619</hAcc><vAcc>0.568110</vAcc></extensions></trkpt>
      <trkpt lon="-3.055759" lat="52.707899"><ele>214.280655</ele><time>2022-01-15T11:14:56Z</time><extensions><speed>1.265929</speed><course>51.678951</course><hAcc>1.817669</hAcc><vAcc>0.567548</vAcc></extensions></trkpt>
      <trkpt lon="-3.055745" lat="52.707906"><ele>214.533005</ele><time>2022-01-15T11:14:57Z</time><extensions><speed>1.178002</speed><course>53.073109</course><hAcc>1.826111</hAcc><vAcc>0.567496</vAcc></extensions></trkpt>
      <trkpt lon="-3.055731" lat="52.707912"><ele>214.777573</ele><time>2022-01-15T11:14:58Z</time><extensions><speed>1.074646</speed><course>54.310112</course><hAcc>1.872952</hAcc><vAcc>0.568115</vAcc></extensions></trkpt>
      <trkpt lon="-3.055718" lat="52.707917"><ele>215.016388</ele><time>2022-01-15T11:14:59Z</time><extensions><speed>1.059854</speed><course>58.015594</course><hAcc>1.872027</hAcc><vAcc>0.569487</vAcc></extensions></trkpt>
      <trkpt lon="-3.055704" lat="52.707922"><ele>215.253036</ele><time>2022-01-15T11:15:00Z</time><extensions><speed>1.111323</speed><course>60.642429</course><hAcc>1.840640</hAcc><vAcc>0.571633</vAcc></extensions></trkpt>
      <trkpt lon="-3.055690" lat="52.707927"><ele>215.487045</ele><time>2022-01-15T11:15:01Z</time><extensions><speed>1.139880</speed><course>60.279552</course><hAcc>1.837007</hAcc><vAcc>0.574530</vAcc></extensions></trkpt>
      <trkpt lon="-3.055675" lat="52.707932"><ele>215.723282</ele><time>2022-01-15T11:15:02Z</time><extensions><speed>1.177578</speed><course>59.672138</course><hAcc>1.843037</hAcc><vAcc>0.578108</vAcc></extensions></trkpt>
      <trkpt lon="-3.055660" lat="52.707938"><ele>215.959427</ele><time>2022-01-15T11:15:03Z</time><extensions><speed>1.193380</speed><course>58.403069</course><hAcc>1.845498</hAcc><vAcc>0.582201</vAcc></extensions></trkpt>
      <trkpt lon="-3.055645" lat="52.707944"><ele>216.197784</ele><time>2022-01-15T11:15:04Z</time><extensions><speed>1.200201</speed><course>57.090660</course><hAcc>1.843750</hAcc><vAcc>0.586572</vAcc></extensions></trkpt>
      <trkpt lon="-3.055630" lat="52.707949"><ele>216.427567</ele><time>2022-01-15T11:15:05Z</time><extensions><speed>1.184801</speed><course>55.244541</course><hAcc>1.828335</hAcc><vAcc>0.590930</vAcc></extensions></trkpt>
      <trkpt lon="-3.055615" lat="52.707956"><ele>216.647751</ele><time>2022-01-15T11:15:06Z</time><extensions><speed>1.185035</speed><course>54.399746</course><hAcc>1.795883</hAcc><vAcc>0.595015</vAcc></extensions></trkpt>
      <trkpt lon="-3.055601" lat="52.707962"><ele>216.860275</ele><time>2022-01-15T11:15:07Z</time><extensions><speed>1.189849</speed><course>54.904133</course><hAcc>1.773149</hAcc><vAcc>0.598597</vAcc></extensions></trkpt>
      <trkpt lon="-3.055586" lat="52.707968"><ele>217.063034</ele><time>2022-01-15T11:15:08Z</time><extensions><speed>1.170059</speed><course>54.106216</course><hAcc>1.780076</hAcc><vAcc>0.601552</vAcc></extensions></trkpt>
      <trkpt lon="-3.055572" lat="52.707974"><ele>217.271606</ele><time>2022-01-15T11:15:09Z</time><extensions><speed>1.172928</speed><course>54.331436</course><hAcc>1.789105</hAcc><vAcc>0.603806</vAcc></extensions></trkpt>
      <trkpt lon="-3.055558" lat="52.707980"><ele>217.468323</ele><time>2022-01-15T11:15:10Z</time><extensions><speed>1.154280</speed><course>52.497501</course><hAcc>1.800757</hAcc><vAcc>0.605312</vAcc></extensions></trkpt>
      <trkpt lon="-3.055544" lat="52.707987"><ele>217.671112</ele><time>2022-01-15T11:15:11Z</time><extensions><speed>1.223242</speed><course>52.720535</course><hAcc>1.773030</hAcc><vAcc>0.606030</vAcc></extensions></trkpt>
      <trkpt lon="-3.055530" lat="52.707993"><ele>217.862061</ele><time>2022-01-15T11:15:12Z</time><extensions><speed>1.228405</speed><course>53.091175</course><hAcc>1.767608</hAcc><vAcc>0.605929</vAcc></extensions></trkpt>
      <trkpt lon="-3.055515" lat="52.708000"><ele>218.054688</ele><time>2022-01-15T11:15:13Z</time><extensions><speed>1.247137</speed><course>55.216816</course><hAcc>1.764040</hAcc><vAcc>0.605001</vAcc></extensions></trkpt>
      <trkpt lon="-3.055499" lat="52.708006"><ele>218.249634</ele><time>2022-01-15T11:15:14Z</time><extensions><speed>1.239743</speed><course>56.980736</course><hAcc>1.781582</hAcc><vAcc>0.603253</vAcc></extensions></trkpt>
      <trkpt lon="-3.055484" lat="52.708012"><ele>218.449524</ele><time>2022-01-15T11:15:15Z</time><extensions><speed>1.189325</speed><course>59.255245</course><hAcc>1.807634</hAcc><vAcc>0.600699</vAcc></extensions></trkpt>
      <trkpt lon="-3.055469" lat="52.708017"><ele>218.654526</ele><time>2022-01-15T11:15:16Z</time><extensions><speed>1.144683</speed><course>61.299103</course><hAcc>1.836669</hAcc><vAcc>0.597354</vAcc></extensions></trkpt>
      <trkpt lon="-3.055454" lat="52.708022"><ele>218.865662</ele><time>2022-01-15T11:15:17Z</time><extensions><speed>1.115190</speed><course>62.214184</course><hAcc>1.852343</hAcc><vAcc>0.593248</vAcc></extensions></trkpt>
      <trkpt lon="-3.055439" lat="52.708026"><ele>219.077194</ele><time>2022-01-15T11:15:18Z</time><extensions><speed>1.176261</speed><course>65.788803</course><hAcc>1.835780</hAcc><vAcc>0.588445</vAcc></extensions></trkpt>
      <trkpt lon="-3.055423" lat="52.708031"><ele>219.290634</ele><time>2022-01-15T11:15:19Z</time><extensions><speed>1.186262</speed><course>67.504166</course><hAcc>1.833858</hAcc><vAcc>0.583046</vAcc></extensions></trkpt>
      <trkpt lon="-3.055407" lat="52.708035"><ele>219.510345</ele><time>2022-01-15T11:15:20Z</time><extensions><speed>1.155715</speed><course>67.960747</course><hAcc>1.841675</hAcc><vAcc>0.577160</vAcc></extensions></trkpt>
      <trkpt lon="-3.055391" lat="52.708039"><ele>219.736053</ele><time>2022-01-15T11:15:21Z</time><extensions><speed>1.142420</speed><course>67.225494</course><hAcc>1.854551</hAcc><vAcc>0.570913</vAcc></extensions></trkpt>
      <trkpt lon="-3.055376" lat="52.708042"><ele>219.966751</ele><time>2022-01-15T11:15:22Z</time><extensions><speed>1.108124</speed><course>65.963364</course><hAcc>1.867383</hAcc><vAcc>0.564437</vAcc></extensions></trkpt>
      <trkpt lon="-3.055361" lat="52.708047"><ele>220.197342</ele><time>2022-01-15T11:15:23Z</time><extensions><speed>1.083894</speed><course>64.573372</course><hAcc>1.881271</hAcc><vAcc>0.557831</vAcc></extensions></trkpt>
      <trkpt lon="-3.055347" lat="52.708051"><ele>220.428101</ele><time>2022-01-15T11:15:24Z</time><extensions><speed>1.084479</speed><course>64.191895</course><hAcc>1.894947</hAcc><vAcc>0.551127</vAcc></extensions></trkpt>
      <trkpt lon="-3.055332" lat="52.708055"><ele>220.655792</ele><time>2022-01-15T11:15:25Z</time><extensions><speed>1.086727</speed><course>65.010719</course><hAcc>1.899784</hAcc><vAcc>0.544287</vAcc></extensions></trkpt>
      <trkpt lon="-3.055317" lat="52.708059"><ele>220.870850</ele><time>2022-01-15T11:15:26Z</time><extensions><speed>1.055849</speed><course>66.981659</course><hAcc>1.887937</hAcc><vAcc>0.537245</vAcc></extensions></trkpt>
      <trkpt lon="-3.055303" lat="52.708062"><ele>221.078796</ele><time>2022-01-15T11:15:27Z</time><extensions><speed>1.002977</speed><course>68.899986</course><hAcc>1.896721</hAcc><vAcc>0.529935</vAcc></extensions></trkpt>
      <trkpt lon="-3.055290" lat="52.708065"><ele>221.285950</ele><time>2022-01-15T11:15:28Z</time><extensions><speed>0.959076</speed><course>70.771698</course><hAcc>1.921223</hAcc><vAcc>0.522302</vAcc></extensions></trkpt>
      <trkpt lon="-3.055276" lat="52.708068"><ele>221.503845</ele><time>2022-01-15T11:15:29Z</time><extensions><speed>0.920394</speed><course>71.350586</course><hAcc>1.943721</hAcc><vAcc>0.514268</vAcc></extensions></trkpt>
      <trkpt lon="-3.055263" lat="52.708071"><ele>221.740143</ele><time>2022-01-15T11:15:30Z</time><extensions><speed>0.901500</speed><course>72.460052</course><hAcc>1.961460</hAcc><vAcc>0.505742</vAcc></extensions></trkpt>
      <trkpt lon="-3.055250" lat="52.708073"><ele>221.965164</ele><time>2022-01-15T11:15:31Z</time><extensions><speed>0.913142</speed><course>75.246536</course><hAcc>1.966666</hAcc><vAcc>0.496616</vAcc></extensions></trkpt>
      <trkpt lon="-3.055237" lat="52.708075"><ele>222.188034</ele><time>2022-01-15T11:15:32Z</time><extensions><speed>0.950420</speed><course>77.082420</course><hAcc>1.962688</hAcc><vAcc>0.486871</vAcc></extensions></trkpt>
      <trkpt lon="-3.055222" lat="52.708077"><ele>222.416809</ele><time>2022-01-15T11:15:33Z</time><extensions><speed>1.050377</speed><course>76.731087</course><hAcc>1.959555</hAcc><vAcc>0.476451</vAcc></extensions></trkpt>
      <trkpt lon="-3.055207" lat="52.708079"><ele>222.631027</ele><time>2022-01-15T11:15:34Z</time><extensions><speed>1.106404</speed><course>75.616371</course><hAcc>1.974799</hAcc><vAcc>0.465557</vAcc></extensions></trkpt>
      <trkpt lon="-3.055191" lat="52.708082"><ele>222.847626</ele><time>2022-01-15T11:15:35Z</time><extensions><speed>1.114553</speed><course>73.808693</course><hAcc>1.981917</hAcc><vAcc>0.454633</vAcc></extensions></trkpt>
      <trkpt lon="-3.055175" lat="52.708085"><ele>223.085251</ele><time>2022-01-15T11:15:36Z</time><extensions><speed>1.104914</speed><course>71.718765</course><hAcc>1.969457</hAcc><vAcc>0.444159</vAcc></extensions></trkpt>
      <trkpt lon="-3.055160" lat="52.708088"><ele>223.330139</ele><time>2022-01-15T11:15:37Z</time><extensions><speed>1.051116</speed><course>69.795601</course><hAcc>1.985994</hAcc><vAcc>0.434667</vAcc></extensions></trkpt>
      <trkpt lon="-3.055145" lat="52.708092"><ele>223.574966</ele><time>2022-01-15T11:15:38Z</time><extensions><speed>1.036345</speed><course>67.666695</course><hAcc>2.006432</hAcc><vAcc>0.426895</vAcc></extensions></trkpt>
      <trkpt lon="-3.055131" lat="52.708095"><ele>223.794891</ele><time>2022-01-15T11:15:39Z</time><extensions><speed>1.031319</speed><course>67.670815</course><hAcc>2.015736</hAcc><vAcc>0.421530</vAcc></extensions></trkpt>
      <trkpt lon="-3.055117" lat="52.708099"><ele>224.020996</ele><time>2022-01-15T11:15:40Z</time><extensions><speed>1.039852</speed><course>67.665138</course><hAcc>1.998353</hAcc><vAcc>0.419042</vAcc></extensions></trkpt>
      <trkpt lon="-3.055102" lat="52.708102"><ele>224.244629</ele><time>2022-01-15T11:15:40Z</time><extensions><speed>1.072060</speed><course>68.241425</course><hAcc>1.996515</hAcc><vAcc>0.419698</vAcc></extensions></trkpt>
      <trkpt lon="-3.055087" lat="52.708106"><ele>224.470581</ele><time>2022-01-15T11:15:41Z</time><extensions><speed>1.100248</speed><course>68.169838</course><hAcc>2.019281</hAcc><vAcc>0.423509</vAcc></extensions></trkpt>
      <trkpt lon="-3.055072" lat="52.708109"><ele>224.697601</ele><time>2022-01-15T11:15:43Z</time><extensions><speed>1.150516</speed><course>68.840652</course><hAcc>2.003758</hAcc><vAcc>0.430169</vAcc></extensions></trkpt>
      <trkpt lon="-3.055056" lat="52.708113"><ele>224.924591</ele><time>2022-01-15T11:15:44Z</time><extensions><speed>1.171356</speed><course>68.381546</course><hAcc>1.998195</hAcc><vAcc>0.439180</vAcc></extensions></trkpt>
      <trkpt lon="-3.055040" lat="52.708117"><ele>225.149612</ele><time>2022-01-15T11:15:44Z</time><extensions><speed>1.178735</speed><course>67.174019</course><hAcc>2.021246</hAcc><vAcc>0.449931</vAcc></extensions></trkpt>
      <trkpt lon="-3.055024" lat="52.708121"><ele>225.365829</ele><time>2022-01-15T11:15:45Z</time><extensions><speed>1.189310</speed><course>65.078903</course><hAcc>2.053394</hAcc><vAcc>0.461701</vAcc></extensions></trkpt>
      <trkpt lon="-3.055008" lat="52.708125"><ele>225.576889</ele><time>2022-01-15T11:15:46Z</time><extensions><speed>1.138899</speed><course>68.860191</course><hAcc>2.019846</hAcc><vAcc>0.473782</vAcc></extensions></trkpt>
      <trkpt lon="-3.054992" lat="52.708129"><ele>225.785675</ele><time>2022-01-15T11:15:47Z</time><extensions><speed>1.100152</speed><course>72.545830</course><hAcc>1.991468</hAcc><vAcc>0.485653</vAcc></extensions></trkpt>
      <trkpt lon="-3.054977" lat="52.708132"><ele>225.995636</ele><time>2022-01-15T11:15:48Z</time><extensions><speed>1.094506</speed><course>73.969505</course><hAcc>1.986966</hAcc><vAcc>0.496983</vAcc></extensions></trkpt>
      <trkpt lon="-3.054961" lat="52.708134"><ele>226.201950</ele><time>2022-01-15T11:15:49Z</time><extensions><speed>1.104692</speed><course>73.696487</course><hAcc>1.981164</hAcc><vAcc>0.507537</vAcc></extensions></trkpt>
      <trkpt lon="-3.054946" lat="52.708137"><ele>226.403625</ele><time>2022-01-15T11:15:50Z</time><extensions><speed>1.084572</speed><course>71.918762</course><hAcc>1.970037</hAcc><vAcc>0.517136</vAcc></extensions></trkpt>
      <trkpt lon="-3.054931" lat="52.708141"><ele>226.594864</ele><time>2022-01-15T11:15:51Z</time><extensions><speed>1.050142</speed><course>68.174713</course><hAcc>1.957972</hAcc><vAcc>0.525684</vAcc></extensions></trkpt>
      <trkpt lon="-3.054917" lat="52.708144"><ele>226.785370</ele><time>2022-01-15T11:15:52Z</time><extensions><speed>0.974027</speed><course>64.917099</course><hAcc>1.938911</hAcc><vAcc>0.533190</vAcc></extensions></trkpt>
      <trkpt lon="-3.054905" lat="52.708148"><ele>226.965500</ele><time>2022-01-15T11:15:53Z</time><extensions><speed>0.890440</speed><course>60.488579</course><hAcc>1.924819</hAcc><vAcc>0.539762</vAcc></extensions></trkpt>
      <trkpt lon="-3.054894" lat="52.708152"><ele>227.130997</ele><time>2022-01-15T11:15:54Z</time><extensions><speed>0.844259</speed><course>55.500965</course><hAcc>1.917491</hAcc><vAcc>0.545554</vAcc></extensions></trkpt>
      <trkpt lon="-3.054884" lat="52.708157"><ele>227.282394</ele><time>2022-01-15T11:15:55Z</time><extensions><speed>0.845958</speed><course>50.980362</course><hAcc>1.918395</hAcc><vAcc>0.550732</vAcc></extensions></trkpt>
      <trkpt lon="-3.054874" lat="52.708162"><ele>227.418259</ele><time>2022-01-15T11:15:56Z</time><extensions><speed>0.893406</speed><course>48.091324</course><hAcc>1.894753</hAcc><vAcc>0.555425</vAcc></extensions></trkpt>
      <trkpt lon="-3.054864" lat="52.708167"><ele>227.554672</ele><time>2022-01-15T11:15:57Z</time><extensions><speed>0.902032</speed><course>46.662468</course><hAcc>1.898207</hAcc><vAcc>0.559649</vAcc></extensions></trkpt>
      <trkpt lon="-3.054855" lat="52.708173"><ele>227.675873</ele><time>2022-01-15T11:15:58Z</time><extensions><speed>0.866736</speed><course>44.414398</course><hAcc>1.913998</hAcc><vAcc>0.563321</vAcc></extensions></trkpt>
      <trkpt lon="-3.054845" lat="52.708179"><ele>227.789703</ele><time>2022-01-15T11:15:59Z</time><extensions><speed>0.976641</speed><course>44.792824</course><hAcc>1.884043</hAcc><vAcc>0.566389</vAcc></extensions></trkpt>
      <trkpt lon="-3.054834" lat="52.708185"><ele>227.898499</ele><time>2022-01-15T11:16:00Z</time><extensions><speed>1.069979</speed><course>46.095596</course><hAcc>1.865286</hAcc><vAcc>0.568938</vAcc></extensions></trkpt>
      <trkpt lon="-3.054823" lat="52.708192"><ele>227.998398</ele><time>2022-01-15T11:16:01Z</time><extensions><speed>1.080731</speed><course>47.319916</course><hAcc>1.865799</hAcc><vAcc>0.571180</vAcc></extensions></trkpt>
      <trkpt lon="-3.054811" lat="52.708198"><ele>228.093399</ele><time>2022-01-15T11:16:02Z</time><extensions><speed>1.087924</speed><course>48.913887</course><hAcc>1.874573</hAcc><vAcc>0.573351</vAcc></extensions></trkpt>
      <trkpt lon="-3.054799" lat="52.708204"><ele>228.186432</ele><time>2022-01-15T11:16:03Z</time><extensions><speed>1.021760</speed><course>50.254673</course><hAcc>1.878219</hAcc><vAcc>0.575628</vAcc></extensions></trkpt>
      <trkpt lon="-3.054787" lat="52.708210"><ele>228.271866</ele><time>2022-01-15T11:16:04Z</time><extensions><speed>0.987064</speed><course>52.765697</course><hAcc>1.870085</hAcc><vAcc>0.578088</vAcc></extensions></trkpt>
      <trkpt lon="-3.054775" lat="52.708215"><ele>228.361359</ele><time>2022-01-15T11:16:05Z</time><extensions><speed>0.972460</speed><course>53.152584</course><hAcc>1.869877</hAcc><vAcc>0.580760</vAcc></extensions></trkpt>
      <trkpt lon="-3.054764" lat="52.708221"><ele>228.460526</ele><time>2022-01-15T11:16:06Z</time><extensions><speed>0.943047</speed><course>52.897076</course><hAcc>1.824312</hAcc><vAcc>0.583691</vAcc></extensions></trkpt>
      <trkpt lon="-3.054753" lat="52.708226"><ele>228.562805</ele><time>2022-01-15T11:16:07Z</time><extensions><speed>0.893186</speed><course>51.800720</course><hAcc>1.781644</hAcc><vAcc>0.586950</vAcc></extensions></trkpt>
      <trkpt lon="-3.054743" lat="52.708231"><ele>228.666000</ele><time>2022-01-15T11:16:08Z</time><extensions><speed>0.868798</speed><course>50.076675</course><hAcc>1.782731</hAcc><vAcc>0.590642</vAcc></extensions></trkpt>
      <trkpt lon="-3.054733" lat="52.708236"><ele>228.770950</ele><time>2022-01-15T11:16:09Z</time><extensions><speed>0.866752</speed><course>48.130253</course><hAcc>1.848473</hAcc><vAcc>0.594742</vAcc></extensions></trkpt>
      <trkpt lon="-3.054724" lat="52.708241"><ele>228.878342</ele><time>2022-01-15T11:16:10Z</time><extensions><speed>0.848079</speed><course>46.697258</course><hAcc>1.859007</hAcc><vAcc>0.599054</vAcc></extensions></trkpt>
      <trkpt lon="-3.054714" lat="52.708246"><ele>228.984940</ele><time>2022-01-15T11:16:11Z</time><extensions><speed>0.991488</speed><course>50.525723</course><hAcc>1.800094</hAcc><vAcc>0.603225</vAcc></extensions></trkpt>
      <trkpt lon="-3.054701" lat="52.708252"><ele>229.098679</ele><time>2022-01-15T11:16:12Z</time><extensions><speed>1.089049</speed><course>52.057312</course><hAcc>1.778440</hAcc><vAcc>0.606923</vAcc></extensions></trkpt>
      <trkpt lon="-3.054688" lat="52.708258"><ele>229.216766</ele><time>2022-01-15T11:16:13Z</time><extensions><speed>1.121641</speed><course>52.116062</course><hAcc>1.785625</hAcc><vAcc>0.609900</vAcc></extensions></trkpt>
      <trkpt lon="-3.054675" lat="52.708265"><ele>229.336548</ele><time>2022-01-15T11:16:14Z</time><extensions><speed>1.134174</speed><course>52.495518</course><hAcc>1.796331</hAcc><vAcc>0.612053</vAcc></extensions></trkpt>
      <trkpt lon="-3.054662" lat="52.708271"><ele>229.465225</ele><time>2022-01-15T11:16:15Z</time><extensions><speed>1.159258</speed><course>52.952145</course><hAcc>1.802519</hAcc><vAcc>0.613376</vAcc></extensions></trkpt>
      <trkpt lon="-3.054648" lat="52.708277"><ele>229.584183</ele><time>2022-01-15T11:16:16Z</time><extensions><speed>1.172936</speed><course>52.959389</course><hAcc>1.801102</hAcc><vAcc>0.613924</vAcc></extensions></trkpt>
      <trkpt lon="-3.054634" lat="52.708284"><ele>229.710770</ele><time>2022-01-15T11:16:17Z</time><extensions><speed>1.183686</speed><course>53.812073</course><hAcc>1.793047</hAcc><vAcc>0.613781</vAcc></extensions></trkpt>
      <trkpt lon="-3.054620" lat="52.708290"><ele>229.836914</ele><time>2022-01-15T11:16:18Z</time><extensions><speed>1.166796</speed><course>54.026310</course><hAcc>1.806602</hAcc><vAcc>0.613057</vAcc></extensions></trkpt>
      <trkpt lon="-3.054606" lat="52.708296"><ele>229.967957</ele><time>2022-01-15T11:16:20Z</time><extensions><speed>1.152507</speed><course>54.259594</course><hAcc>1.776486</hAcc><vAcc>0.611870</vAcc></extensions></trkpt>
      <trkpt lon="-3.054592" lat="52.708302"><ele>230.107025</ele><time>2022-01-15T11:16:21Z</time><extensions><speed>1.131778</speed><course>55.114216</course><hAcc>1.778413</hAcc><vAcc>0.610289</vAcc></extensions></trkpt>
      <trkpt lon="-3.054578" lat="52.708308"><ele>230.250427</ele><time>2022-01-15T11:16:22Z</time><extensions><speed>1.143041</speed><course>57.069992</course><hAcc>1.757542</hAcc><vAcc>0.608340</vAcc></extensions></trkpt>
      <trkpt lon="-3.054563" lat="52.708313"><ele>230.392975</ele><time>2022-01-15T11:16:23Z</time><extensions><speed>1.135164</speed><course>57.957909</course><hAcc>1.768016</hAcc><vAcc>0.606014</vAcc></extensions></trkpt>
      <trkpt lon="-3.054549" lat="52.708319"><ele>230.532013</ele><time>2022-01-15T11:16:24Z</time><extensions><speed>1.093775</speed><course>56.870510</course><hAcc>1.776188</hAcc><vAcc>0.603298</vAcc></extensions></trkpt>
      <trkpt lon="-3.054536" lat="52.708324"><ele>230.671585</ele><time>2022-01-15T11:16:25Z</time><extensions><speed>1.059568</speed><course>55.996967</course><hAcc>1.738220</hAcc><vAcc>0.600160</vAcc></extensions></trkpt>
      <trkpt lon="-3.054523" lat="52.708330"><ele>230.812302</ele><time>2022-01-15T11:16:26Z</time><extensions><speed>1.046241</speed><course>54.660923</course><hAcc>1.717715</hAcc><vAcc>0.596555</vAcc></extensions></trkpt>
      <trkpt lon="-3.054510" lat="52.708335"><ele>230.954163</ele><time>2022-01-15T11:16:27Z</time><extensions><speed>1.000766</speed><course>53.656418</course><hAcc>1.716426</hAcc><vAcc>0.592448</vAcc></extensions></trkpt>
      <trkpt lon="-3.054498" lat="52.708340"><ele>231.097916</ele><time>2022-01-15T11:16:28Z</time><extensions><speed>0.967201</speed><course>55.256157</course><hAcc>1.721823</hAcc><vAcc>0.587821</vAcc></extensions></trkpt>
      <trkpt lon="-3.054486" lat="52.708345"><ele>231.241364</ele><time>2022-01-15T11:16:29Z</time><extensions><speed>0.977300</speed><course>58.023674</course><hAcc>1.739453</hAcc><vAcc>0.582675</vAcc></extensions></trkpt>
      <trkpt lon="-3.054474" lat="52.708350"><ele>231.380859</ele><time>2022-01-15T11:16:30Z</time><extensions><speed>0.943250</speed><course>60.072968</course><hAcc>1.747490</hAcc><vAcc>0.577042</vAcc></extensions></trkpt>
      <trkpt lon="-3.054461" lat="52.708354"><ele>231.513428</ele><time>2022-01-15T11:16:31Z</time><extensions><speed>1.028544</speed><course>61.125820</course><hAcc>1.726726</hAcc><vAcc>0.570976</vAcc></extensions></trkpt>
      <trkpt lon="-3.054448" lat="52.708358"><ele>231.637405</ele><time>2022-01-15T11:16:32Z</time><extensions><speed>0.998639</speed><course>61.359699</course><hAcc>1.750568</hAcc><vAcc>0.564517</vAcc></extensions></trkpt>
      <trkpt lon="-3.054435" lat="52.708363"><ele>231.757507</ele><time>2022-01-15T11:16:33Z</time><extensions><speed>1.042600</speed><course>60.566898</course><hAcc>1.759403</hAcc><vAcc>0.557661</vAcc></extensions></trkpt>
      <trkpt lon="-3.054421" lat="52.708367"><ele>231.872406</ele><time>2022-01-15T11:16:34Z</time><extensions><speed>1.048010</speed><course>60.416565</course><hAcc>1.795426</hAcc><vAcc>0.550331</vAcc></extensions></trkpt>
      <trkpt lon="-3.054407" lat="52.708372"><ele>231.982437</ele><time>2022-01-15T11:16:35Z</time><extensions><speed>1.109986</speed><course>60.580986</course><hAcc>1.800644</hAcc><vAcc>0.542370</vAcc></extensions></trkpt>
      <trkpt lon="-3.054392" lat="52.708377"><ele>232.110703</ele><time>2022-01-15T11:16:36Z</time><extensions><speed>1.131482</speed><course>61.216316</course><hAcc>1.834910</hAcc><vAcc>0.533548</vAcc></extensions></trkpt>
      <trkpt lon="-3.054378" lat="52.708382"><ele>232.208145</ele><time>2022-01-15T11:16:37Z</time><extensions><speed>1.129841</speed><course>60.999969</course><hAcc>1.873452</hAcc><vAcc>0.523667</vAcc></extensions></trkpt>
      <trkpt lon="-3.054363" lat="52.708387"><ele>232.309845</ele><time>2022-01-15T11:16:38Z</time><extensions><speed>1.133466</speed><course>61.748600</course><hAcc>1.889098</hAcc><vAcc>0.512434</vAcc></extensions></trkpt>
      <trkpt lon="-3.054348" lat="52.708392"><ele>232.388916</ele><time>2022-01-15T11:16:39Z</time><extensions><speed>1.147793</speed><course>62.769337</course><hAcc>1.904910</hAcc><vAcc>0.499843</vAcc></extensions></trkpt>
      <trkpt lon="-3.054333" lat="52.708396"><ele>232.492279</ele><time>2022-01-15T11:16:40Z</time><extensions><speed>1.139333</speed><course>64.094383</course><hAcc>1.932857</hAcc><vAcc>0.486078</vAcc></extensions></trkpt>
      <trkpt lon="-3.054317" lat="52.708401"><ele>232.612442</ele><time>2022-01-15T11:16:41Z</time><extensions><speed>1.109131</speed><course>65.082344</course><hAcc>1.951316</hAcc><vAcc>0.471417</vAcc></extensions></trkpt>
      <trkpt lon="-3.054302" lat="52.708405"><ele>232.729340</ele><time>2022-01-15T11:16:42Z</time><extensions><speed>1.109668</speed><course>65.462372</course><hAcc>1.953388</hAcc><vAcc>0.456278</vAcc></extensions></trkpt>
      <trkpt lon="-3.054288" lat="52.708409"><ele>232.847351</ele><time>2022-01-15T11:16:43Z</time><extensions><speed>1.087799</speed><course>65.457222</course><hAcc>1.988068</hAcc><vAcc>0.441278</vAcc></extensions></trkpt>
      <trkpt lon="-3.054273" lat="52.708413"><ele>232.955048</ele><time>2022-01-15T11:16:44Z</time><extensions><speed>1.027644</speed><course>64.786491</course><hAcc>2.038730</hAcc><vAcc>0.427118</vAcc></extensions></trkpt>
      <trkpt lon="-3.054260" lat="52.708417"><ele>233.051758</ele><time>2022-01-15T11:16:45Z</time><extensions><speed>0.977976</speed><course>64.410118</course><hAcc>2.067308</hAcc><vAcc>0.414413</vAcc></extensions></trkpt>
      <trkpt lon="-3.054247" lat="52.708421"><ele>233.155548</ele><time>2022-01-15T11:16:46Z</time><extensions><speed>0.994884</speed><course>62.608067</course><hAcc>2.065428</hAcc><vAcc>0.403759</vAcc></extensions></trkpt>
      <trkpt lon="-3.054234" lat="52.708426"><ele>233.263367</ele><time>2022-01-15T11:16:47Z</time><extensions><speed>0.983777</speed><course>59.945145</course><hAcc>2.099600</hAcc><vAcc>0.395359</vAcc></extensions></trkpt>
      <trkpt lon="-3.054222" lat="52.708430"><ele>233.367065</ele><time>2022-01-15T11:16:48Z</time><extensions><speed>0.963468</speed><course>56.117889</course><hAcc>2.158036</hAcc><vAcc>0.388995</vAcc></extensions></trkpt>
      <trkpt lon="-3.054210" lat="52.708435"><ele>233.453064</ele><time>2022-01-15T11:16:49Z</time><extensions><speed>0.963849</speed><course>54.034294</course><hAcc>2.229426</hAcc><vAcc>0.384301</vAcc></extensions></trkpt>
      <trkpt lon="-3.054198" lat="52.708441"><ele>233.525146</ele><time>2022-01-15T11:16:50Z</time><extensions><speed>0.987380</speed><course>52.966518</course><hAcc>2.273731</hAcc><vAcc>0.381246</vAcc></extensions></trkpt>
      <trkpt lon="-3.054186" lat="52.708446"><ele>233.598801</ele><time>2022-01-15T11:16:51Z</time><extensions><speed>1.004948</speed><course>51.255241</course><hAcc>2.284553</hAcc><vAcc>0.379545</vAcc></extensions></trkpt>
      <trkpt lon="-3.054174" lat="52.708452"><ele>233.668808</ele><time>2022-01-15T11:16:52Z</time><extensions><speed>1.047850</speed><course>49.856884</course><hAcc>2.275098</hAcc><vAcc>0.379162</vAcc></extensions></trkpt>
      <trkpt lon="-3.054162" lat="52.708458"><ele>233.735001</ele><time>2022-01-15T11:16:53Z</time><extensions><speed>1.098636</speed><course>48.999134</course><hAcc>2.254564</hAcc><vAcc>0.380078</vAcc></extensions></trkpt>
      <trkpt lon="-3.054149" lat="52.708465"><ele>233.799118</ele><time>2022-01-15T11:16:54Z</time><extensions><speed>1.152928</speed><course>49.171188</course><hAcc>2.230473</hAcc><vAcc>0.382326</vAcc></extensions></trkpt>
      <trkpt lon="-3.054136" lat="52.708472"><ele>233.859329</ele><time>2022-01-15T11:16:55Z</time><extensions><speed>1.207353</speed><course>50.248592</course><hAcc>2.209576</hAcc><vAcc>0.385929</vAcc></extensions></trkpt>
      <trkpt lon="-3.054122" lat="52.708479"><ele>233.936646</ele><time>2022-01-15T11:16:56Z</time><extensions><speed>1.234141</speed><course>51.517578</course><hAcc>2.189369</hAcc><vAcc>0.390774</vAcc></extensions></trkpt>
      <trkpt lon="-3.054107" lat="52.708486"><ele>234.010712</ele><time>2022-01-15T11:16:57Z</time><extensions><speed>1.262526</speed><course>52.709667</course><hAcc>2.149652</hAcc><vAcc>0.396479</vAcc></extensions></trkpt>
      <trkpt lon="-3.054092" lat="52.708493"><ele>234.078598</ele><time>2022-01-15T11:16:58Z</time><extensions><speed>1.282125</speed><course>54.021553</course><hAcc>2.131376</hAcc><vAcc>0.402590</vAcc></extensions></trkpt>
      <trkpt lon="-3.054076" lat="52.708500"><ele>234.151505</ele><time>2022-01-15T11:16:59Z</time><extensions><speed>1.305263</speed><course>55.511665</course><hAcc>2.105725</hAcc><vAcc>0.408777</vAcc></extensions></trkpt>
      <trkpt lon="-3.054060" lat="52.708506"><ele>234.227844</ele><time>2022-01-15T11:17:00Z</time><extensions><speed>1.319832</speed><course>57.068298</course><hAcc>2.064643</hAcc><vAcc>0.414952</vAcc></extensions></trkpt>
      <trkpt lon="-3.054044" lat="52.708513"><ele>234.305237</ele><time>2022-01-15T11:17:01Z</time><extensions><speed>1.273611</speed><course>57.668507</course><hAcc>2.042909</hAcc><vAcc>0.421050</vAcc></extensions></trkpt>
      <trkpt lon="-3.054027" lat="52.708519"><ele>234.380051</ele><time>2022-01-15T11:17:02Z</time><extensions><speed>1.262899</speed><course>58.054863</course><hAcc>2.042261</hAcc><vAcc>0.426949</vAcc></extensions></trkpt>
      <trkpt lon="-3.054012" lat="52.708525"><ele>234.454803</ele><time>2022-01-15T11:17:03Z</time><extensions><speed>1.215920</speed><course>56.272705</course><hAcc>2.049421</hAcc><vAcc>0.432400</vAcc></extensions></trkpt>
      <trkpt lon="-3.053997" lat="52.708531"><ele>234.533508</ele><time>2022-01-15T11:17:04Z</time><extensions><speed>1.191662</speed><course>53.673218</course><hAcc>2.030843</hAcc><vAcc>0.437151</vAcc></extensions></trkpt>
      <trkpt lon="-3.053982" lat="52.708537"><ele>234.606796</ele><time>2022-01-15T11:17:05Z</time><extensions><speed>1.175182</speed><course>52.823807</course><hAcc>2.019687</hAcc><vAcc>0.441133</vAcc></extensions></trkpt>
      <trkpt lon="-3.053968" lat="52.708544"><ele>234.672256</ele><time>2022-01-15T11:17:06Z</time><extensions><speed>1.112643</speed><course>53.539700</course><hAcc>2.030718</hAcc><vAcc>0.444408</vAcc></extensions></trkpt>
      <trkpt lon="-3.053955" lat="52.708550"><ele>234.736710</ele><time>2022-01-15T11:17:07Z</time><extensions><speed>1.100013</speed><course>53.210739</course><hAcc>2.020420</hAcc><vAcc>0.447075</vAcc></extensions></trkpt>
      <trkpt lon="-3.053942" lat="52.708556"><ele>234.802353</ele><time>2022-01-15T11:17:08Z</time><extensions><speed>1.052549</speed><course>53.221111</course><hAcc>2.031665</hAcc><vAcc>0.449255</vAcc></extensions></trkpt>
      <trkpt lon="-3.053929" lat="52.708561"><ele>234.863739</ele><time>2022-01-15T11:17:09Z</time><extensions><speed>1.072634</speed><course>54.484695</course><hAcc>2.025365</hAcc><vAcc>0.451074</vAcc></extensions></trkpt>
      <trkpt lon="-3.053916" lat="52.708567"><ele>234.918472</ele><time>2022-01-15T11:17:10Z</time><extensions><speed>1.065232</speed><course>56.209667</course><hAcc>2.035493</hAcc><vAcc>0.452694</vAcc></extensions></trkpt>
      <trkpt lon="-3.053903" lat="52.708572"><ele>234.973846</ele><time>2022-01-15T11:17:11Z</time><extensions><speed>1.072556</speed><course>58.345272</course><hAcc>2.048943</hAcc><vAcc>0.454327</vAcc></extensions></trkpt>
      <trkpt lon="-3.053889" lat="52.708577"><ele>235.025024</ele><time>2022-01-15T11:17:12Z</time><extensions><speed>1.042107</speed><course>59.897160</course><hAcc>2.052240</hAcc><vAcc>0.456250</vAcc></extensions></trkpt>
      <trkpt lon="-3.053875" lat="52.708582"><ele>235.065887</ele><time>2022-01-15T11:17:13Z</time><extensions><speed>1.131339</speed><course>61.191673</course><hAcc>2.018507</hAcc><vAcc>0.458713</vAcc></extensions></trkpt>
      <trkpt lon="-3.053860" lat="52.708587"><ele>235.094055</ele><time>2022-01-15T11:17:14Z</time><extensions><speed>1.221324</speed><course>60.357006</course><hAcc>2.002603</hAcc><vAcc>0.461884</vAcc></extensions></trkpt>
      <trkpt lon="-3.053844" lat="52.708593"><ele>235.118500</ele><time>2022-01-15T11:17:15Z</time><extensions><speed>1.265749</speed><course>58.496494</course><hAcc>2.011751</hAcc><vAcc>0.465829</vAcc></extensions></trkpt>
      <trkpt lon="-3.053828" lat="52.708599"><ele>235.140533</ele><time>2022-01-15T11:17:16Z</time><extensions><speed>1.297176</speed><course>56.148914</course><hAcc>1.996035</hAcc><vAcc>0.470438</vAcc></extensions></trkpt>
      <trkpt lon="-3.053812" lat="52.708606"><ele>235.157791</ele><time>2022-01-15T11:17:17Z</time><extensions><speed>1.268133</speed><course>55.342415</course><hAcc>1.986692</hAcc><vAcc>0.475377</vAcc></extensions></trkpt>
      <trkpt lon="-3.053797" lat="52.708612"><ele>235.169235</ele><time>2022-01-15T11:17:18Z</time><extensions><speed>1.156806</speed><course>56.510197</course><hAcc>2.001858</hAcc><vAcc>0.480170</vAcc></extensions></trkpt>
      <trkpt lon="-3.053782" lat="52.708618"><ele>235.176331</ele><time>2022-01-15T11:17:19Z</time><extensions><speed>1.209746</speed><course>55.877491</course><hAcc>1.968108</hAcc><vAcc>0.484351</vAcc></extensions></trkpt>
      <trkpt lon="-3.053767" lat="52.708624"><ele>235.187317</ele><time>2022-01-15T11:17:20Z</time><extensions><speed>1.254333</speed><course>55.265278</course><hAcc>1.953047</hAcc><vAcc>0.487593</vAcc></extensions></trkpt>
      <trkpt lon="-3.053752" lat="52.708631"><ele>235.194412</ele><time>2022-01-15T11:17:21Z</time><extensions><speed>1.292358</speed><course>55.338963</course><hAcc>1.962262</hAcc><vAcc>0.489751</vAcc></extensions></trkpt>
      <trkpt lon="-3.053735" lat="52.708637"><ele>235.194611</ele><time>2022-01-15T11:17:22Z</time><extensions><speed>1.317097</speed><course>56.319496</course><hAcc>1.986045</hAcc><vAcc>0.490834</vAcc></extensions></trkpt>
      <trkpt lon="-3.053719" lat="52.708644"><ele>235.202698</ele><time>2022-01-15T11:17:23Z</time><extensions><speed>1.347867</speed><course>57.596645</course><hAcc>2.010901</hAcc><vAcc>0.490941</vAcc></extensions></trkpt>
      <trkpt lon="-3.053701" lat="52.708651"><ele>235.216660</ele><time>2022-01-15T11:17:24Z</time><extensions><speed>1.413972</speed><course>57.872566</course><hAcc>2.008413</hAcc><vAcc>0.490231</vAcc></extensions></trkpt>
      <trkpt lon="-3.053684" lat="52.708657"><ele>235.238739</ele><time>2022-01-15T11:17:25Z</time><extensions><speed>1.422162</speed><course>57.679028</course><hAcc>1.991850</hAcc><vAcc>0.488903</vAcc></extensions></trkpt>
      <trkpt lon="-3.053666" lat="52.708664"><ele>235.262970</ele><time>2022-01-15T11:17:26Z</time><extensions><speed>1.419821</speed><course>56.964584</course><hAcc>1.987803</hAcc><vAcc>0.487213</vAcc></extensions></trkpt>
      <trkpt lon="-3.053648" lat="52.708671"><ele>235.294464</ele><time>2022-01-15T11:17:27Z</time><extensions><speed>1.434335</speed><course>56.039249</course><hAcc>1.986611</hAcc><vAcc>0.485472</vAcc></extensions></trkpt>
      <trkpt lon="-3.053631" lat="52.708679"><ele>235.331284</ele><time>2022-01-15T11:17:28Z</time><extensions><speed>1.454722</speed><course>54.449741</course><hAcc>1.985721</hAcc><vAcc>0.483989</vAcc></extensions></trkpt>
      <trkpt lon="-3.053613" lat="52.708687"><ele>235.376297</ele><time>2022-01-15T11:17:29Z</time><extensions><speed>1.449572</speed><course>52.767265</course><hAcc>1.992564</hAcc><vAcc>0.483049</vAcc></extensions></trkpt>
      <trkpt lon="-3.053596" lat="52.708694"><ele>235.425949</ele><time>2022-01-15T11:17:30Z</time><extensions><speed>1.381648</speed><course>51.679127</course><hAcc>1.995602</hAcc><vAcc>0.482830</vAcc></extensions></trkpt>
      <trkpt lon="-3.053581" lat="52.708702"><ele>235.480667</ele><time>2022-01-15T11:17:31Z</time><extensions><speed>1.319332</speed><course>49.889698</course><hAcc>1.968028</hAcc><vAcc>0.483396</vAcc></extensions></trkpt>
      <trkpt lon="-3.053566" lat="52.708709"><ele>235.539154</ele><time>2022-01-15T11:17:32Z</time><extensions><speed>1.277167</speed><course>50.667534</course><hAcc>1.953122</hAcc><vAcc>0.484799</vAcc></extensions></trkpt>
      <trkpt lon="-3.053552" lat="52.708716"><ele>235.600327</ele><time>2022-01-15T11:17:33Z</time><extensions><speed>1.222850</speed><course>51.105927</course><hAcc>1.954227</hAcc><vAcc>0.487129</vAcc></extensions></trkpt>
      <trkpt lon="-3.053538" lat="52.708723"><ele>235.663147</ele><time>2022-01-15T11:17:34Z</time><extensions><speed>1.138587</speed><course>51.926712</course><hAcc>1.964834</hAcc><vAcc>0.490520</vAcc></extensions></trkpt>
      <trkpt lon="-3.053526" lat="52.708728"><ele>235.726212</ele><time>2022-01-15T11:17:35Z</time><extensions><speed>0.994675</speed><course>54.773342</course><hAcc>1.975570</hAcc><vAcc>0.495151</vAcc></extensions></trkpt>
      <trkpt lon="-3.053514" lat="52.708733"><ele>235.787155</ele><time>2022-01-15T11:17:36Z</time><extensions><speed>0.848049</speed><course>61.253838</course><hAcc>1.958350</hAcc><vAcc>0.501241</vAcc></extensions></trkpt>
      <trkpt lon="-3.053504" lat="52.708736"><ele>235.846924</ele><time>2022-01-15T11:17:37Z</time><extensions><speed>0.711899</speed><course>70.675560</course><hAcc>1.957086</hAcc><vAcc>0.509008</vAcc></extensions></trkpt>
      <trkpt lon="-3.053495" lat="52.708737"><ele>235.904373</ele><time>2022-01-15T11:17:38Z</time><extensions><speed>0.513474</speed><course>81.313713</course><hAcc>1.977936</hAcc><vAcc>0.518585</vAcc></extensions></trkpt>
      <trkpt lon="-3.053490" lat="52.708737"><ele>235.959061</ele><time>2022-01-15T11:17:39Z</time><extensions><speed>0.248553</speed><course>124.747681</course><hAcc>1.999530</hAcc><vAcc>0.529986</vAcc></extensions></trkpt>
      <trkpt lon="-3.053488" lat="52.708735"><ele>236.012344</ele><time>2022-01-15T11:17:40Z</time><extensions><speed>0.299901</speed><course>164.916138</course><hAcc>1.998008</hAcc><vAcc>0.542995</vAcc></extensions></trkpt>
      <trkpt lon="-3.053487" lat="52.708732"><ele>236.070435</ele><time>2022-01-15T11:17:41Z</time><extensions><speed>0.354001</speed><course>176.390244</course><hAcc>2.006187</hAcc><vAcc>0.557084</vAcc></extensions></trkpt>
      <trkpt lon="-3.053487" lat="52.708729"><ele>236.130615</ele><time>2022-01-15T11:17:42Z</time><extensions><speed>0.360789</speed><course>178.789169</course><hAcc>2.027351</hAcc><vAcc>0.571524</vAcc></extensions></trkpt>
      <trkpt lon="-3.053486" lat="52.708725"><ele>236.179977</ele><time>2022-01-15T11:17:42Z</time><extensions><speed>0.327505</speed><course>176.832382</course><hAcc>2.060847</hAcc><vAcc>0.585415</vAcc></extensions></trkpt>
      <trkpt lon="-3.053486" lat="52.708723"><ele>236.231125</ele><time>2022-01-15T11:17:43Z</time><extensions><speed>0.274371</speed><course>171.560654</course><hAcc>2.100724</hAcc><vAcc>0.597941</vAcc></extensions></trkpt>
      <trkpt lon="-3.053485" lat="52.708721"><ele>236.269226</ele><time>2022-01-15T11:17:44Z</time><extensions><speed>0.208822</speed><course>160.140549</course><hAcc>2.135488</hAcc><vAcc>0.608518</vAcc></extensions></trkpt>
      <trkpt lon="-3.053484" lat="52.708719"><ele>236.313095</ele><time>2022-01-15T11:17:45Z</time><extensions><speed>0.151616</speed><course>131.482483</course><hAcc>2.155008</hAcc><vAcc>0.616646</vAcc></extensions></trkpt>
      <trkpt lon="-3.053482" lat="52.708719"><ele>236.348801</ele><time>2022-01-15T11:17:46Z</time><extensions><speed>0.177161</speed><course>80.424225</course><hAcc>2.151425</hAcc><vAcc>0.621768</vAcc></extensions></trkpt>
      <trkpt lon="-3.053478" lat="52.708720"><ele>236.388443</ele><time>2022-01-15T11:17:47Z</time><extensions><speed>0.344837</speed><course>51.711842</course><hAcc>2.128306</hAcc><vAcc>0.623598</vAcc></extensions></trkpt>
      <trkpt lon="-3.053474" lat="52.708723"><ele>236.428162</ele><time>2022-01-15T11:17:49Z</time><extensions><speed>0.493863</speed><course>32.839844</course><hAcc>2.112417</hAcc><vAcc>0.622049</vAcc></extensions></trkpt>
      <trkpt lon="-3.053471" lat="52.708727"><ele>236.462616</ele><time>2022-01-15T11:17:50Z</time><extensions><speed>0.612161</speed><course>25.427000</course><hAcc>2.082932</hAcc><vAcc>0.617294</vAcc></extensions></trkpt>
      <trkpt lon="-3.053467" lat="52.708733"><ele>236.491379</ele><time>2022-01-15T11:17:51Z</time><extensions><speed>0.653140</speed><course>24.860291</course><hAcc>2.048275</hAcc><vAcc>0.609782</vAcc></extensions></trkpt>
      <trkpt lon="-3.053462" lat="52.708738"><ele>236.516525</ele><time>2022-01-15T11:17:52Z</time><extensions><speed>0.641752</speed><course>27.547451</course><hAcc>2.021734</hAcc><vAcc>0.600208</vAcc></extensions></trkpt>
      <trkpt lon="-3.053458" lat="52.708743"><ele>236.536514</ele><time>2022-01-15T11:17:53Z</time><extensions><speed>0.595199</speed><course>31.515396</course><hAcc>2.001637</hAcc><vAcc>0.589428</vAcc></extensions></trkpt>
      <trkpt lon="-3.053452" lat="52.708748"><ele>236.555634</ele><time>2022-01-15T11:17:54Z</time><extensions><speed>0.785692</speed><course>34.626591</course><hAcc>1.970743</hAcc><vAcc>0.578350</vAcc></extensions></trkpt>
      <trkpt lon="-3.053445" lat="52.708754"><ele>236.574463</ele><time>2022-01-15T11:17:54Z</time><extensions><speed>0.914367</speed><course>37.073269</course><hAcc>1.968548</hAcc><vAcc>0.567772</vAcc></extensions></trkpt>
      <trkpt lon="-3.053436" lat="52.708761"><ele>236.592377</ele><time>2022-01-15T11:17:55Z</time><extensions><speed>1.021909</speed><course>38.777271</course><hAcc>1.986245</hAcc><vAcc>0.558189</vAcc></extensions></trkpt>
      <trkpt lon="-3.053426" lat="52.708769"><ele>236.607483</ele><time>2022-01-15T11:17:56Z</time><extensions><speed>1.111342</speed><course>38.215710</course><hAcc>1.971526</hAcc><vAcc>0.549814</vAcc></extensions></trkpt>
      <trkpt lon="-3.053416" lat="52.708777"><ele>236.621964</ele><time>2022-01-15T11:17:57Z</time><extensions><speed>1.154719</speed><course>37.605461</course><hAcc>1.960805</hAcc><vAcc>0.542695</vAcc></extensions></trkpt>
      <trkpt lon="-3.053406" lat="52.708785"><ele>236.636963</ele><time>2022-01-15T11:17:58Z</time><extensions><speed>1.120051</speed><course>36.817120</course><hAcc>1.953341</hAcc><vAcc>0.536802</vAcc></extensions></trkpt>
      <trkpt lon="-3.053396" lat="52.708793"><ele>236.649734</ele><time>2022-01-15T11:17:59Z</time><extensions><speed>1.065144</speed><course>37.178822</course><hAcc>1.949722</hAcc><vAcc>0.532016</vAcc></extensions></trkpt>
      <trkpt lon="-3.053386" lat="52.708800"><ele>236.665955</ele><time>2022-01-15T11:18:00Z</time><extensions><speed>1.067798</speed><course>38.342552</course><hAcc>1.949746</hAcc><vAcc>0.528121</vAcc></extensions></trkpt>
      <trkpt lon="-3.053376" lat="52.708808"><ele>236.688065</ele><time>2022-01-15T11:18:01Z</time><extensions><speed>1.062322</speed><course>38.628963</course><hAcc>1.950245</hAcc><vAcc>0.524852</vAcc></extensions></trkpt>
      <trkpt lon="-3.053366" lat="52.708815"><ele>236.717819</ele><time>2022-01-15T11:18:02Z</time><extensions><speed>1.068613</speed><course>39.751404</course><hAcc>1.956699</hAcc><vAcc>0.521971</vAcc></extensions></trkpt>
      <trkpt lon="-3.053356" lat="52.708823"><ele>236.751450</ele><time>2022-01-15T11:18:03Z</time><extensions><speed>1.092932</speed><course>39.904942</course><hAcc>1.953388</hAcc><vAcc>0.519328</vAcc></extensions></trkpt>
      <trkpt lon="-3.053345" lat="52.708831"><ele>236.779907</ele><time>2022-01-15T11:18:04Z</time><extensions><speed>1.151660</speed><course>39.034531</course><hAcc>1.933057</hAcc><vAcc>0.516882</vAcc></extensions></trkpt>
      <trkpt lon="-3.053335" lat="52.708839"><ele>236.810486</ele><time>2022-01-15T11:18:05Z</time><extensions><speed>1.145346</speed><course>38.135647</course><hAcc>1.921573</hAcc><vAcc>0.514701</vAcc></extensions></trkpt>
      <trkpt lon="-3.053324" lat="52.708847"><ele>236.847183</ele><time>2022-01-15T11:18:06Z</time><extensions><speed>1.148690</speed><course>38.056309</course><hAcc>1.924238</hAcc><vAcc>0.512901</vAcc></extensions></trkpt>
      <trkpt lon="-3.053313" lat="52.708855"><ele>236.890900</ele><time>2022-01-15T11:18:07Z</time><extensions><speed>1.172604</speed><course>39.067463</course><hAcc>1.945186</hAcc><vAcc>0.511570</vAcc></extensions></trkpt>
      <trkpt lon="-3.053302" lat="52.708864"><ele>236.935013</ele><time>2022-01-15T11:18:08Z</time><extensions><speed>1.171323</speed><course>39.167259</course><hAcc>1.940439</hAcc><vAcc>0.510712</vAcc></extensions></trkpt>
      <trkpt lon="-3.053292" lat="52.708872"><ele>236.976898</ele><time>2022-01-15T11:18:09Z</time><extensions><speed>1.172979</speed><course>38.867931</course><hAcc>1.901785</hAcc><vAcc>0.510209</vAcc></extensions></trkpt>
      <trkpt lon="-3.053280" lat="52.708880"><ele>237.022995</ele><time>2022-01-15T11:18:10Z</time><extensions><speed>1.184397</speed><course>39.550606</course><hAcc>1.872385</hAcc><vAcc>0.509788</vAcc></extensions></trkpt>
      <trkpt lon="-3.053269" lat="52.708888"><ele>237.071426</ele><time>2022-01-15T11:18:11Z</time><extensions><speed>1.163386</speed><course>40.446857</course><hAcc>1.859639</hAcc><vAcc>0.509052</vAcc></extensions></trkpt>
      <trkpt lon="-3.053258" lat="52.708896"><ele>237.117035</ele><time>2022-01-15T11:18:12Z</time><extensions><speed>1.100481</speed><course>40.713951</course><hAcc>1.881209</hAcc><vAcc>0.507495</vAcc></extensions></trkpt>
      <trkpt lon="-3.053248" lat="52.708903"><ele>237.156265</ele><time>2022-01-15T11:18:13Z</time><extensions><speed>0.992539</speed><course>41.283501</course><hAcc>1.918627</hAcc><vAcc>0.504540</vAcc></extensions></trkpt>
      <trkpt lon="-3.053238" lat="52.708910"><ele>237.224915</ele><time>2022-01-15T11:18:14Z</time><extensions><speed>1.022161</speed><course>42.439632</course><hAcc>1.913930</hAcc><vAcc>0.499667</vAcc></extensions></trkpt>
      <trkpt lon="-3.053228" lat="52.708916"><ele>237.278931</ele><time>2022-01-15T11:18:15Z</time><extensions><speed>1.031569</speed><course>43.911652</course><hAcc>1.921104</hAcc><vAcc>0.492560</vAcc></extensions></trkpt>
      <trkpt lon="-3.053217" lat="52.708923"><ele>237.342270</ele><time>2022-01-15T11:18:16Z</time><extensions><speed>1.055325</speed><course>45.064861</course><hAcc>1.960004</hAcc><vAcc>0.483133</vAcc></extensions></trkpt>
      <trkpt lon="-3.053206" lat="52.708930"><ele>237.415344</ele><time>2022-01-15T11:18:18Z</time><extensions><speed>1.077640</speed><course>45.204464</course><hAcc>1.980400</hAcc><vAcc>0.471623</vAcc></extensions></trkpt>
      <trkpt lon="-3.053194" lat="52.708937"><ele>237.476044</ele><time>2022-01-15T11:18:19Z</time><extensions><speed>1.089220</speed><course>45.461067</course><hAcc>2.029886</hAcc><vAcc>0.458616</vAcc></extensions></trkpt>
      <trkpt lon="-3.053183" lat="52.708943"><ele>237.571823</ele><time>2022-01-15T11:18:20Z</time><extensions><speed>1.060563</speed><course>45.859409</course><hAcc>2.107920</hAcc><vAcc>0.445001</vAcc></extensions></trkpt>
      <trkpt lon="-3.053172" lat="52.708950"><ele>237.672394</ele><time>2022-01-15T11:18:21Z</time><extensions><speed>1.007066</speed><course>46.380905</course><hAcc>2.184990</hAcc><vAcc>0.431697</vAcc></extensions></trkpt>
      <trkpt lon="-3.053161" lat="52.708956"><ele>237.773529</ele><time>2022-01-15T11:18:22Z</time><extensions><speed>0.983376</speed><course>47.142944</course><hAcc>2.235390</hAcc><vAcc>0.419656</vAcc></extensions></trkpt>
      <trkpt lon="-3.053150" lat="52.708962"><ele>237.877197</ele><time>2022-01-15T11:18:23Z</time><extensions><speed>0.986562</speed><course>47.303814</course><hAcc>2.275123</hAcc><vAcc>0.409459</vAcc></extensions></trkpt>
      <trkpt lon="-3.053139" lat="52.708968"><ele>237.979370</ele><time>2022-01-15T11:18:24Z</time><extensions><speed>0.984109</speed><course>47.361729</course><hAcc>2.303381</hAcc><vAcc>0.401285</vAcc></extensions></trkpt>
      <trkpt lon="-3.053128" lat="52.708974"><ele>238.092575</ele><time>2022-01-15T11:18:25Z</time><extensions><speed>0.973122</speed><course>48.543056</course><hAcc>2.327580</hAcc><vAcc>0.395000</vAcc></extensions></trkpt>
      <trkpt lon="-3.053117" lat="52.708980"><ele>238.194748</ele><time>2022-01-15T11:18:26Z</time><extensions><speed>0.992997</speed><course>49.429504</course><hAcc>2.345599</hAcc><vAcc>0.390245</vAcc></extensions></trkpt>
      <trkpt lon="-3.053106" lat="52.708986"><ele>238.290573</ele><time>2022-01-15T11:18:27Z</time><extensions><speed>1.001494</speed><course>49.633465</course><hAcc>2.359525</hAcc><vAcc>0.386649</vAcc></extensions></trkpt>
      <trkpt lon="-3.053095" lat="52.708992"><ele>238.401764</ele><time>2022-01-15T11:18:28Z</time><extensions><speed>1.003729</speed><course>48.782894</course><hAcc>2.394772</hAcc><vAcc>0.384010</vAcc></extensions></trkpt>
      <trkpt lon="-3.053084" lat="52.708998"><ele>238.506592</ele><time>2022-01-15T11:18:29Z</time><extensions><speed>1.045414</speed><course>47.353901</course><hAcc>2.384415</hAcc><vAcc>0.382044</vAcc></extensions></trkpt>
      <trkpt lon="-3.053072" lat="52.709005"><ele>238.600540</ele><time>2022-01-15T11:18:30Z</time><extensions><speed>1.130726</speed><course>46.115871</course><hAcc>2.362005</hAcc><vAcc>0.380600</vAcc></extensions></trkpt>
      <trkpt lon="-3.053060" lat="52.709012"><ele>238.700272</ele><time>2022-01-15T11:18:31Z</time><extensions><speed>1.200565</speed><course>44.955360</course><hAcc>2.364879</hAcc><vAcc>0.379571</vAcc></extensions></trkpt>
      <trkpt lon="-3.053047" lat="52.709020"><ele>238.798965</ele><time>2022-01-15T11:18:32Z</time><extensions><speed>1.193187</speed><course>44.958279</course><hAcc>2.363607</hAcc><vAcc>0.378958</vAcc></extensions></trkpt>
      <trkpt lon="-3.053035" lat="52.709027"><ele>238.882095</ele><time>2022-01-15T11:18:33Z</time><extensions><speed>1.138264</speed><course>45.001026</course><hAcc>2.380249</hAcc><vAcc>0.378536</vAcc></extensions></trkpt>
      <trkpt lon="-3.053023" lat="52.709034"><ele>238.969696</ele><time>2022-01-15T11:18:34Z</time><extensions><speed>1.030577</speed><course>47.499084</course><hAcc>2.359327</hAcc><vAcc>0.378294</vAcc></extensions></trkpt>
      <trkpt lon="-3.053011" lat="52.709040"><ele>239.047226</ele><time>2022-01-15T11:18:35Z</time><extensions><speed>1.026516</speed><course>48.008038</course><hAcc>2.323843</hAcc><vAcc>0.378191</vAcc></extensions></trkpt>
      <trkpt lon="-3.053000" lat="52.709046"><ele>239.139191</ele><time>2022-01-15T11:18:36Z</time><extensions><speed>1.010772</speed><course>48.292439</course><hAcc>2.305319</hAcc><vAcc>0.378233</vAcc></extensions></trkpt>
      <trkpt lon="-3.052989" lat="52.709052"><ele>239.211517</ele><time>2022-01-15T11:18:37Z</time><extensions><speed>0.978763</speed><course>47.948895</course><hAcc>2.287265</hAcc><vAcc>0.378368</vAcc></extensions></trkpt>
      <trkpt lon="-3.052978" lat="52.709057"><ele>239.288559</ele><time>2022-01-15T11:18:38Z</time><extensions><speed>0.915714</speed><course>48.943443</course><hAcc>2.276364</hAcc><vAcc>0.378834</vAcc></extensions></trkpt>
      <trkpt lon="-3.052967" lat="52.709062"><ele>239.367447</ele><time>2022-01-15T11:18:39Z</time><extensions><speed>0.901768</speed><course>52.156002</course><hAcc>2.224475</hAcc><vAcc>0.379759</vAcc></extensions></trkpt>
      <trkpt lon="-3.052956" lat="52.709067"><ele>239.450027</ele><time>2022-01-15T11:18:40Z</time><extensions><speed>0.888038</speed><course>54.912296</course><hAcc>2.211327</hAcc><vAcc>0.381218</vAcc></extensions></trkpt>
      <trkpt lon="-3.052945" lat="52.709071"><ele>239.533844</ele><time>2022-01-15T11:18:41Z</time><extensions><speed>0.878531</speed><course>57.329834</course><hAcc>2.231967</hAcc><vAcc>0.383114</vAcc></extensions></trkpt>
      <trkpt lon="-3.052933" lat="52.709075"><ele>239.634491</ele><time>2022-01-15T11:18:42Z</time><extensions><speed>0.899859</speed><course>62.767059</course><hAcc>2.182640</hAcc><vAcc>0.385212</vAcc></extensions></trkpt>
      <trkpt lon="-3.052920" lat="52.709078"><ele>239.730164</ele><time>2022-01-15T11:18:43Z</time><extensions><speed>0.911065</speed><course>66.613945</course><hAcc>2.160240</hAcc><vAcc>0.386953</vAcc></extensions></trkpt>
      <trkpt lon="-3.052908" lat="52.709081"><ele>239.840408</ele><time>2022-01-15T11:18:44Z</time><extensions><speed>0.877364</speed><course>65.733139</course><hAcc>2.198190</hAcc><vAcc>0.388046</vAcc></extensions></trkpt>
      <trkpt lon="-3.052895" lat="52.709084"><ele>239.975891</ele><time>2022-01-15T11:18:45Z</time><extensions><speed>0.897765</speed><course>72.430626</course><hAcc>2.168298</hAcc><vAcc>0.388475</vAcc></extensions></trkpt>
      <trkpt lon="-3.052883" lat="52.709086"><ele>240.115723</ele><time>2022-01-15T11:18:46Z</time><extensions><speed>0.875324</speed><course>75.082314</course><hAcc>2.169500</hAcc><vAcc>0.388308</vAcc></extensions></trkpt>
      <trkpt lon="-3.052869" lat="52.709087"><ele>240.269989</ele><time>2022-01-15T11:18:47Z</time><extensions><speed>0.930627</speed><course>81.089638</course><hAcc>2.151147</hAcc><vAcc>0.387697</vAcc></extensions></trkpt>
      <trkpt lon="-3.052855" lat="52.709089"><ele>240.429871</ele><time>2022-01-15T11:18:48Z</time><extensions><speed>0.972779</speed><course>84.311874</course><hAcc>2.161386</hAcc><vAcc>0.386918</vAcc></extensions></trkpt>
      <trkpt lon="-3.052841" lat="52.709089"><ele>240.606689</ele><time>2022-01-15T11:18:49Z</time><extensions><speed>0.966018</speed><course>85.233833</course><hAcc>2.204231</hAcc><vAcc>0.386216</vAcc></extensions></trkpt>
      <trkpt lon="-3.052827" lat="52.709090"><ele>240.783707</ele><time>2022-01-15T11:18:50Z</time><extensions><speed>0.987184</speed><course>85.376404</course><hAcc>2.250131</hAcc><vAcc>0.385661</vAcc></extensions></trkpt>
      <trkpt lon="-3.052812" lat="52.709091"><ele>240.969330</ele><time>2022-01-15T11:18:51Z</time><extensions><speed>0.972174</speed><course>85.903183</course><hAcc>2.279435</hAcc><vAcc>0.385198</vAcc></extensions></trkpt>
      <trkpt lon="-3.052798" lat="52.709092"><ele>241.171356</ele><time>2022-01-15T11:18:52Z</time><extensions><speed>0.985397</speed><course>88.031998</course><hAcc>2.277503</hAcc><vAcc>0.384744</vAcc></extensions></trkpt>
      <trkpt lon="-3.052783" lat="52.709092"><ele>241.348618</ele><time>2022-01-15T11:18:53Z</time><extensions><speed>0.943958</speed><course>87.849518</course><hAcc>2.310411</hAcc><vAcc>0.384131</vAcc></extensions></trkpt>
      <trkpt lon="-3.052769" lat="52.709093"><ele>241.533432</ele><time>2022-01-15T11:18:54Z</time><extensions><speed>0.911393</speed><course>85.973831</course><hAcc>2.356287</hAcc><vAcc>0.383295</vAcc></extensions></trkpt>
      <trkpt lon="-3.052756" lat="52.709094"><ele>241.726379</ele><time>2022-01-15T11:18:55Z</time><extensions><speed>0.913718</speed><course>83.856812</course><hAcc>2.371536</hAcc><vAcc>0.382285</vAcc></extensions></trkpt>
      <trkpt lon="-3.052742" lat="52.709095"><ele>241.897369</ele><time>2022-01-15T11:18:56Z</time><extensions><speed>0.904402</speed><course>80.660774</course><hAcc>2.405566</hAcc><vAcc>0.381144</vAcc></extensions></trkpt>
      <trkpt lon="-3.052729" lat="52.709096"><ele>242.052521</ele><time>2022-01-15T11:18:57Z</time><extensions><speed>0.898770</speed><course>77.679527</course><hAcc>2.453497</hAcc><vAcc>0.379834</vAcc></extensions></trkpt>
      <trkpt lon="-3.052716" lat="52.709098"><ele>242.193207</ele><time>2022-01-15T11:18:58Z</time><extensions><speed>0.881295</speed><course>74.389305</course><hAcc>2.493845</hAcc><vAcc>0.378552</vAcc></extensions></trkpt>
      <trkpt lon="-3.052704" lat="52.709101"><ele>242.325958</ele><time>2022-01-15T11:18:59Z</time><extensions><speed>0.870363</speed><course>71.022362</course><hAcc>2.500238</hAcc><vAcc>0.377305</vAcc></extensions></trkpt>
      <trkpt lon="-3.052692" lat="52.709103"><ele>242.422974</ele><time>2022-01-15T11:19:00Z</time><extensions><speed>0.876186</speed><course>69.707001</course><hAcc>2.498337</hAcc><vAcc>0.376273</vAcc></extensions></trkpt>
      <trkpt lon="-3.052679" lat="52.709106"><ele>242.514771</ele><time>2022-01-15T11:19:01Z</time><extensions><speed>0.860725</speed><course>70.792091</course><hAcc>2.504303</hAcc><vAcc>0.375580</vAcc></extensions></trkpt>
      <trkpt lon="-3.052667" lat="52.709108"><ele>242.604218</ele><time>2022-01-15T11:19:02Z</time><extensions><speed>0.877288</speed><course>72.352562</course><hAcc>2.510830</hAcc><vAcc>0.375391</vAcc></extensions></trkpt>
      <trkpt lon="-3.052655" lat="52.709110"><ele>242.690857</ele><time>2022-01-15T11:19:03Z</time><extensions><speed>0.900999</speed><course>75.264977</course><hAcc>2.532427</hAcc><vAcc>0.375899</vAcc></extensions></trkpt>
      <trkpt lon="-3.052641" lat="52.709112"><ele>242.754974</ele><time>2022-01-15T11:19:04Z</time><extensions><speed>0.949583</speed><course>76.982040</course><hAcc>2.515918</hAcc><vAcc>0.377118</vAcc></extensions></trkpt>
      <trkpt lon="-3.052627" lat="52.709114"><ele>242.831009</ele><time>2022-01-15T11:19:05Z</time><extensions><speed>1.009487</speed><course>79.498894</course><hAcc>2.494114</hAcc><vAcc>0.379090</vAcc></extensions></trkpt>
      <trkpt lon="-3.052612" lat="52.709115"><ele>242.902664</ele><time>2022-01-15T11:19:06Z</time><extensions><speed>1.088727</speed><course>81.854584</course><hAcc>2.487867</hAcc><vAcc>0.381623</vAcc></extensions></trkpt>
      <trkpt lon="-3.052596" lat="52.709117"><ele>242.973206</ele><time>2022-01-15T11:19:07Z</time><extensions><speed>1.099027</speed><course>83.371803</course><hAcc>2.483927</hAcc><vAcc>0.384525</vAcc></extensions></trkpt>
      <trkpt lon="-3.052580" lat="52.709118"><ele>243.064346</ele><time>2022-01-15T11:19:08Z</time><extensions><speed>1.040484</speed><course>84.636841</course><hAcc>2.501002</hAcc><vAcc>0.387469</vAcc></extensions></trkpt>
      <trkpt lon="-3.052565" lat="52.709118"><ele>243.149445</ele><time>2022-01-15T11:19:09Z</time><extensions><speed>0.950922</speed><course>86.438614</course><hAcc>2.521704</hAcc><vAcc>0.390053</vAcc></extensions></trkpt>
      <trkpt lon="-3.052551" lat="52.709119"><ele>243.240158</ele><time>2022-01-15T11:19:10Z</time><extensions><speed>0.880959</speed><course>87.444084</course><hAcc>2.533428</hAcc><vAcc>0.391968</vAcc></extensions></trkpt>
      <trkpt lon="-3.052538" lat="52.709119"><ele>243.331406</ele><time>2022-01-15T11:19:11Z</time><extensions><speed>0.838692</speed><course>88.216133</course><hAcc>2.544486</hAcc><vAcc>0.393021</vAcc></extensions></trkpt>
      <trkpt lon="-3.052526" lat="52.709119"><ele>243.409210</ele><time>2022-01-15T11:19:12Z</time><extensions><speed>0.825448</speed><course>88.596085</course><hAcc>2.564994</hAcc><vAcc>0.393339</vAcc></extensions></trkpt>
      <trkpt lon="-3.052513" lat="52.709120"><ele>243.499832</ele><time>2022-01-15T11:19:13Z</time><extensions><speed>0.840336</speed><course>87.860123</course><hAcc>2.581944</hAcc><vAcc>0.393031</vAcc></extensions></trkpt>
      <trkpt lon="-3.052500" lat="52.709120"><ele>243.602936</ele><time>2022-01-15T11:19:14Z</time><extensions><speed>0.880575</speed><course>86.862389</course><hAcc>2.609887</hAcc><vAcc>0.392261</vAcc></extensions></trkpt>
      <trkpt lon="-3.052486" lat="52.709121"><ele>243.696060</ele><time>2022-01-15T11:19:15Z</time><extensions><speed>0.957789</speed><course>86.829010</course><hAcc>2.628395</hAcc><vAcc>0.391097</vAcc></extensions></trkpt>
      <trkpt lon="-3.052471" lat="52.709121"><ele>243.790741</ele><time>2022-01-15T11:19:16Z</time><extensions><speed>1.020753</speed><course>86.600777</course><hAcc>2.645038</hAcc><vAcc>0.389660</vAcc></extensions></trkpt>
      <trkpt lon="-3.052456" lat="52.709122"><ele>243.901657</ele><time>2022-01-15T11:19:17Z</time><extensions><speed>1.061204</speed><course>86.210503</course><hAcc>2.653424</hAcc><vAcc>0.388106</vAcc></extensions></trkpt>
      <trkpt lon="-3.052440" lat="52.709123"><ele>244.004700</ele><time>2022-01-15T11:19:18Z</time><extensions><speed>1.089641</speed><course>85.816277</course><hAcc>2.639448</hAcc><vAcc>0.386479</vAcc></extensions></trkpt>
      <trkpt lon="-3.052423" lat="52.709123"><ele>244.114807</ele><time>2022-01-15T11:19:19Z</time><extensions><speed>1.093445</speed><course>85.155876</course><hAcc>2.622778</hAcc><vAcc>0.384875</vAcc></extensions></trkpt>
      <trkpt lon="-3.052407" lat="52.709124"><ele>244.239136</ele><time>2022-01-15T11:19:20Z</time><extensions><speed>1.044373</speed><course>84.356590</course><hAcc>2.597613</hAcc><vAcc>0.383478</vAcc></extensions></trkpt>
      <trkpt lon="-3.052392" lat="52.709125"><ele>244.367966</ele><time>2022-01-15T11:19:21Z</time><extensions><speed>1.043237</speed><course>81.428009</course><hAcc>2.538131</hAcc><vAcc>0.382516</vAcc></extensions></trkpt>
      <trkpt lon="-3.052376" lat="52.709127"><ele>244.512466</ele><time>2022-01-15T11:19:22Z</time><extensions><speed>1.054353</speed><course>79.805046</course><hAcc>2.476003</hAcc><vAcc>0.382336</vAcc></extensions></trkpt>
      <trkpt lon="-3.052360" lat="52.709129"><ele>244.656601</ele><time>2022-01-15T11:19:23Z</time><extensions><speed>1.082119</speed><course>78.916206</course><hAcc>2.413527</hAcc><vAcc>0.383316</vAcc></extensions></trkpt>
      <trkpt lon="-3.052344" lat="52.709131"><ele>244.803055</ele><time>2022-01-15T11:19:24Z</time><extensions><speed>1.100012</speed><course>79.234428</course><hAcc>2.370909</hAcc><vAcc>0.385709</vAcc></extensions></trkpt>
      <trkpt lon="-3.052328" lat="52.709132"><ele>244.952377</ele><time>2022-01-15T11:19:25Z</time><extensions><speed>1.087530</speed><course>79.784691</course><hAcc>2.353386</hAcc><vAcc>0.389804</vAcc></extensions></trkpt>
      <trkpt lon="-3.052312" lat="52.709134"><ele>245.105606</ele><time>2022-01-15T11:19:26Z</time><extensions><speed>1.040453</speed><course>80.417786</course><hAcc>2.346562</hAcc><vAcc>0.395834</vAcc></extensions></trkpt>
      <trkpt lon="-3.052297" lat="52.709136"><ele>245.268448</ele><time>2022-01-15T11:19:27Z</time><extensions><speed>1.055305</speed><course>80.183662</course><hAcc>2.294290</hAcc><vAcc>0.403707</vAcc></extensions></trkpt>
      <trkpt lon="-3.052281" lat="52.709137"><ele>245.437408</ele><time>2022-01-15T11:19:28Z</time><extensions><speed>1.082165</speed><course>80.017479</course><hAcc>2.231873</hAcc><vAcc>0.412997</vAcc></extensions></trkpt>
      <trkpt lon="-3.052265" lat="52.709139"><ele>245.608459</ele><time>2022-01-15T11:19:29Z</time><extensions><speed>1.117337</speed><course>80.719864</course><hAcc>2.186772</hAcc><vAcc>0.423206</vAcc></extensions></trkpt>
      <trkpt lon="-3.052248" lat="52.709141"><ele>245.783676</ele><time>2022-01-15T11:19:30Z</time><extensions><speed>1.141779</speed><course>80.925034</course><hAcc>2.177579</hAcc><vAcc>0.434023</vAcc></extensions></trkpt>
      <trkpt lon="-3.052232" lat="52.709142"><ele>245.958374</ele><time>2022-01-15T11:19:31Z</time><extensions><speed>1.090091</speed><course>80.163803</course><hAcc>2.197785</hAcc><vAcc>0.445350</vAcc></extensions></trkpt>
      <trkpt lon="-3.052216" lat="52.709144"><ele>246.132614</ele><time>2022-01-15T11:19:32Z</time><extensions><speed>1.152704</speed><course>78.547981</course><hAcc>2.164982</hAcc><vAcc>0.457183</vAcc></extensions></trkpt>
      <trkpt lon="-3.052199" lat="52.709146"><ele>246.309387</ele><time>2022-01-15T11:19:33Z</time><extensions><speed>1.144487</speed><course>77.490311</course><hAcc>2.141650</hAcc><vAcc>0.469334</vAcc></extensions></trkpt>
      <trkpt lon="-3.052182" lat="52.709149"><ele>246.485779</ele><time>2022-01-15T11:19:34Z</time><extensions><speed>1.168279</speed><course>76.403984</course><hAcc>2.108146</hAcc><vAcc>0.481296</vAcc></extensions></trkpt>
      <trkpt lon="-3.052165" lat="52.709151"><ele>246.660706</ele><time>2022-01-15T11:19:35Z</time><extensions><speed>1.129873</speed><course>75.889954</course><hAcc>2.093691</hAcc><vAcc>0.492422</vAcc></extensions></trkpt>
      <trkpt lon="-3.052149" lat="52.709154"><ele>246.835403</ele><time>2022-01-15T11:19:36Z</time><extensions><speed>1.093675</speed><course>75.273125</course><hAcc>2.087310</hAcc><vAcc>0.502166</vAcc></extensions></trkpt>
      <trkpt lon="-3.052134" lat="52.709156"><ele>247.009430</ele><time>2022-01-15T11:19:37Z</time><extensions><speed>1.097380</speed><course>75.856514</course><hAcc>2.073510</hAcc><vAcc>0.510157</vAcc></extensions></trkpt>
      <trkpt lon="-3.052117" lat="52.709158"><ele>247.182007</ele><time>2022-01-15T11:19:38Z</time><extensions><speed>1.114522</speed><course>77.042229</course><hAcc>2.054580</hAcc><vAcc>0.516190</vAcc></extensions></trkpt>
      <trkpt lon="-3.052101" lat="52.709161"><ele>247.352173</ele><time>2022-01-15T11:19:39Z</time><extensions><speed>1.132167</speed><course>78.520630</course><hAcc>2.036002</hAcc><vAcc>0.520178</vAcc></extensions></trkpt>
      <trkpt lon="-3.052084" lat="52.709162"><ele>247.517929</ele><time>2022-01-15T11:19:40Z</time><extensions><speed>1.111543</speed><course>79.865883</course><hAcc>2.015177</hAcc><vAcc>0.522131</vAcc></extensions></trkpt>
      <trkpt lon="-3.052068" lat="52.709164"><ele>247.677979</ele><time>2022-01-15T11:19:41Z</time><extensions><speed>1.031304</speed><course>81.039619</course><hAcc>2.000220</hAcc><vAcc>0.522119</vAcc></extensions></trkpt>
      <trkpt lon="-3.052053" lat="52.709165"><ele>247.827698</ele><time>2022-01-15T11:19:42Z</time><extensions><speed>1.024638</speed><course>81.281052</course><hAcc>1.983477</hAcc><vAcc>0.520287</vAcc></extensions></trkpt>
      <trkpt lon="-3.052038" lat="52.709167"><ele>247.979340</ele><time>2022-01-15T11:19:43Z</time><extensions><speed>0.976559</speed><course>80.467590</course><hAcc>1.998483</hAcc><vAcc>0.516895</vAcc></extensions></trkpt>
      <trkpt lon="-3.052024" lat="52.709168"><ele>248.127258</ele><time>2022-01-15T11:19:44Z</time><extensions><speed>0.968084</speed><course>79.951195</course><hAcc>1.983263</hAcc><vAcc>0.512301</vAcc></extensions></trkpt>
      <trkpt lon="-3.052009" lat="52.709170"><ele>248.275848</ele><time>2022-01-15T11:19:44Z</time><extensions><speed>1.039948</speed><course>80.743240</course><hAcc>1.956091</hAcc><vAcc>0.506960</vAcc></extensions></trkpt>
      <trkpt lon="-3.051993" lat="52.709171"><ele>248.421432</ele><time>2022-01-15T11:19:45Z</time><extensions><speed>1.056605</speed><course>80.169296</course><hAcc>1.989509</hAcc><vAcc>0.501400</vAcc></extensions></trkpt>
      <trkpt lon="-3.051978" lat="52.709173"><ele>248.564987</ele><time>2022-01-15T11:19:47Z</time><extensions><speed>1.076853</speed><course>81.621284</course><hAcc>2.017488</hAcc><vAcc>0.496182</vAcc></extensions></trkpt>
      <trkpt lon="-3.051961" lat="52.709174"><ele>248.711700</ele><time>2022-01-15T11:19:48Z</time><extensions><speed>1.179832</speed><course>84.767113</course><hAcc>1.999339</hAcc><vAcc>0.491815</vAcc></extensions></trkpt>
      <trkpt lon="-3.051943" lat="52.709175"><ele>248.858459</ele><time>2022-01-15T11:19:49Z</time><extensions><speed>1.241585</speed><course>86.292809</course><hAcc>2.010546</hAcc><vAcc>0.488634</vAcc></extensions></trkpt>
      <trkpt lon="-3.051924" lat="52.709175"><ele>249.006363</ele><time>2022-01-15T11:19:50Z</time><extensions><speed>1.286156</speed><course>85.650131</course><hAcc>2.055738</hAcc><vAcc>0.486758</vAcc></extensions></trkpt>
      <trkpt lon="-3.051905" lat="52.709177"><ele>249.155151</ele><time>2022-01-15T11:19:51Z</time><extensions><speed>1.340888</speed><course>83.659515</course><hAcc>2.095861</hAcc><vAcc>0.486148</vAcc></extensions></trkpt>
      <trkpt lon="-3.051885" lat="52.709178"><ele>249.313019</ele><time>2022-01-15T11:19:52Z</time><extensions><speed>1.400374</speed><course>81.793083</course><hAcc>2.101066</hAcc><vAcc>0.486687</vAcc></extensions></trkpt>
      <trkpt lon="-3.051864" lat="52.709180"><ele>249.480057</ele><time>2022-01-15T11:19:53Z</time><extensions><speed>1.404737</speed><course>79.529808</course><hAcc>2.106370</hAcc><vAcc>0.488304</vAcc></extensions></trkpt>
      <trkpt lon="-3.051844" lat="52.709183"><ele>249.657379</ele><time>2022-01-15T11:19:54Z</time><extensions><speed>1.401672</speed><course>78.344551</course><hAcc>2.107802</hAcc><vAcc>0.490986</vAcc></extensions></trkpt>
      <trkpt lon="-3.051824" lat="52.709185"><ele>249.840591</ele><time>2022-01-15T11:19:55Z</time><extensions><speed>1.345262</speed><course>77.002579</course><hAcc>2.104779</hAcc><vAcc>0.494713</vAcc></extensions></trkpt>
      <trkpt lon="-3.051805" lat="52.709188"><ele>250.027466</ele><time>2022-01-15T11:19:56Z</time><extensions><speed>1.301813</speed><course>75.270599</course><hAcc>2.100267</hAcc><vAcc>0.499391</vAcc></extensions></trkpt>
      <trkpt lon="-3.051787" lat="52.709191"><ele>250.219711</ele><time>2022-01-15T11:19:57Z</time><extensions><speed>1.247836</speed><course>73.262474</course><hAcc>2.094998</hAcc><vAcc>0.504813</vAcc></extensions></trkpt>
      <trkpt lon="-3.051769" lat="52.709194"><ele>250.414886</ele><time>2022-01-15T11:19:58Z</time><extensions><speed>1.216472</speed><course>72.631516</course><hAcc>2.080823</hAcc><vAcc>0.510682</vAcc></extensions></trkpt>
      <trkpt lon="-3.051752" lat="52.709198"><ele>250.607361</ele><time>2022-01-15T11:19:59Z</time><extensions><speed>1.206882</speed><course>72.261116</course><hAcc>2.057376</hAcc><vAcc>0.516638</vAcc></extensions></trkpt>
      <trkpt lon="-3.051735" lat="52.709201"><ele>250.795334</ele><time>2022-01-15T11:20:00Z</time><extensions><speed>1.176533</speed><course>72.053482</course><hAcc>2.014156</hAcc><vAcc>0.522345</vAcc></extensions></trkpt>
      <trkpt lon="-3.051719" lat="52.709204"><ele>251.016541</ele><time>2022-01-15T11:20:00Z</time><extensions><speed>1.120288</speed><course>71.244316</course><hAcc>1.981326</hAcc><vAcc>0.527591</vAcc></extensions></trkpt>
      <trkpt lon="-3.051704" lat="52.709208"><ele>251.267609</ele><time>2022-01-15T11:20:01Z</time><extensions><speed>1.067460</speed><course>69.877647</course><hAcc>1.967635</hAcc><vAcc>0.532226</vAcc></extensions></trkpt>
      <trkpt lon="-3.051689" lat="52.709211"><ele>251.535736</ele><time>2022-01-15T11:20:02Z</time><extensions><speed>1.035893</speed><course>66.748589</course><hAcc>1.980328</hAcc><vAcc>0.536110</vAcc></extensions></trkpt>
      <trkpt lon="-3.051675" lat="52.709215"><ele>251.814438</ele><time>2022-01-15T11:20:03Z</time><extensions><speed>0.988417</speed><course>64.585495</course><hAcc>1.969744</hAcc><vAcc>0.539175</vAcc></extensions></trkpt>
      <trkpt lon="-3.051662" lat="52.709219"><ele>252.102203</ele><time>2022-01-15T11:20:04Z</time><extensions><speed>1.011035</speed><course>65.160675</course><hAcc>1.942724</hAcc><vAcc>0.541436</vAcc></extensions></trkpt>
      <trkpt lon="-3.051648" lat="52.709223"><ele>252.397186</ele><time>2022-01-15T11:20:05Z</time><extensions><speed>0.982311</speed><course>64.374329</course><hAcc>1.939393</hAcc><vAcc>0.543000</vAcc></extensions></trkpt>
      <trkpt lon="-3.051635" lat="52.709226"><ele>252.693771</ele><time>2022-01-15T11:20:06Z</time><extensions><speed>0.954439</speed><course>65.434357</course><hAcc>1.944950</hAcc><vAcc>0.544078</vAcc></extensions></trkpt>
      <trkpt lon="-3.051622" lat="52.709230"><ele>252.988388</ele><time>2022-01-15T11:20:07Z</time><extensions><speed>0.978331</speed><course>67.035255</course><hAcc>1.927464</hAcc><vAcc>0.544970</vAcc></extensions></trkpt>
      <trkpt lon="-3.051608" lat="52.709233"><ele>253.280182</ele><time>2022-01-15T11:20:08Z</time><extensions><speed>1.017012</speed><course>67.753677</course><hAcc>1.940603</hAcc><vAcc>0.546039</vAcc></extensions></trkpt>
      <trkpt lon="-3.051594" lat="52.709237"><ele>253.565659</ele><time>2022-01-15T11:20:09Z</time><extensions><speed>1.018827</speed><course>67.595428</course><hAcc>1.969840</hAcc><vAcc>0.547637</vAcc></extensions></trkpt>
      <trkpt lon="-3.051580" lat="52.709241"><ele>253.829269</ele><time>2022-01-15T11:20:10Z</time><extensions><speed>1.030225</speed><course>65.980194</course><hAcc>1.961008</hAcc><vAcc>0.550061</vAcc></extensions></trkpt>
      <trkpt lon="-3.051565" lat="52.709244"><ele>254.065338</ele><time>2022-01-15T11:20:11Z</time><extensions><speed>1.138129</speed><course>66.520149</course><hAcc>1.983735</hAcc><vAcc>0.553566</vAcc></extensions></trkpt>
      <trkpt lon="-3.051549" lat="52.709249"><ele>254.268356</ele><time>2022-01-15T11:20:12Z</time><extensions><speed>1.253290</speed><course>64.254974</course><hAcc>1.960017</hAcc><vAcc>0.558302</vAcc></extensions></trkpt>
      <trkpt lon="-3.051533" lat="52.709254"><ele>254.439606</ele><time>2022-01-15T11:20:13Z</time><extensions><speed>1.248983</speed><course>62.170258</course><hAcc>1.936079</hAcc><vAcc>0.564223</vAcc></extensions></trkpt>
      <trkpt lon="-3.051517" lat="52.709259"><ele>254.577225</ele><time>2022-01-15T11:20:14Z</time><extensions><speed>1.210178</speed><course>61.716183</course><hAcc>1.920124</hAcc><vAcc>0.571037</vAcc></extensions></trkpt>
      <trkpt lon="-3.051501" lat="52.709264"><ele>254.694351</ele><time>2022-01-15T11:20:16Z</time><extensions><speed>1.147562</speed><course>62.602562</course><hAcc>1.906095</hAcc><vAcc>0.578371</vAcc></extensions></trkpt>
      <trkpt lon="-3.051486" lat="52.709269"><ele>254.797775</ele><time>2022-01-15T11:20:17Z</time><extensions><speed>1.092721</speed><course>64.989090</course><hAcc>1.890771</hAcc><vAcc>0.585807</vAcc></extensions></trkpt>
      <trkpt lon="-3.051472" lat="52.709272"><ele>254.897644</ele><time>2022-01-15T11:20:18Z</time><extensions><speed>1.016082</speed><course>65.962173</course><hAcc>1.885375</hAcc><vAcc>0.592903</vAcc></extensions></trkpt>
      <trkpt lon="-3.051459" lat="52.709276"><ele>254.993790</ele><time>2022-01-15T11:20:19Z</time><extensions><speed>0.926381</speed><course>64.397133</course><hAcc>1.879835</hAcc><vAcc>0.599279</vAcc></extensions></trkpt>
      <trkpt lon="-3.051447" lat="52.709279"><ele>255.065338</ele><time>2022-01-15T11:20:20Z</time><extensions><speed>0.864111</speed><course>65.663429</course><hAcc>1.851118</hAcc><vAcc>0.604639</vAcc></extensions></trkpt>
      <trkpt lon="-3.051435" lat="52.709282"><ele>255.145370</ele><time>2022-01-15T11:20:21Z</time><extensions><speed>0.802150</speed><course>67.010178</course><hAcc>1.828749</hAcc><vAcc>0.608909</vAcc></extensions></trkpt>
      <trkpt lon="-3.051424" lat="52.709285"><ele>255.225433</ele><time>2022-01-15T11:20:22Z</time><extensions><speed>0.806695</speed><course>66.923882</course><hAcc>1.817174</hAcc><vAcc>0.612093</vAcc></extensions></trkpt>
      <trkpt lon="-3.051413" lat="52.709288"><ele>255.303040</ele><time>2022-01-15T11:20:23Z</time><extensions><speed>0.857183</speed><course>66.175072</course><hAcc>1.833863</hAcc><vAcc>0.614279</vAcc></extensions></trkpt>
      <trkpt lon="-3.051401" lat="52.709291"><ele>255.368073</ele><time>2022-01-15T11:20:24Z</time><extensions><speed>0.887022</speed><course>67.773590</course><hAcc>1.812663</hAcc><vAcc>0.615554</vAcc></extensions></trkpt>
      <trkpt lon="-3.051388" lat="52.709294"><ele>255.449387</ele><time>2022-01-15T11:20:25Z</time><extensions><speed>0.908588</speed><course>68.752731</course><hAcc>1.827663</hAcc><vAcc>0.615945</vAcc></extensions></trkpt>
      <trkpt lon="-3.051375" lat="52.709297"><ele>255.536484</ele><time>2022-01-15T11:20:26Z</time><extensions><speed>0.940828</speed><course>69.258331</course><hAcc>1.839908</hAcc><vAcc>0.615470</vAcc></extensions></trkpt>
      <trkpt lon="-3.051361" lat="52.709300"><ele>255.630859</ele><time>2022-01-15T11:20:27Z</time><extensions><speed>1.086493</speed><course>72.231224</course><hAcc>1.808119</hAcc><vAcc>0.614113</vAcc></extensions></trkpt>
      <trkpt lon="-3.051345" lat="52.709303"><ele>255.725693</ele><time>2022-01-15T11:20:28Z</time><extensions><speed>1.145432</speed><course>73.299850</course><hAcc>1.789497</hAcc><vAcc>0.611863</vAcc></extensions></trkpt>
      <trkpt lon="-3.051329" lat="52.709306"><ele>255.826950</ele><time>2022-01-15T11:20:29Z</time><extensions><speed>1.101985</speed><course>72.773972</course><hAcc>1.786896</hAcc><vAcc>0.608746</vAcc></extensions></trkpt>
      <trkpt lon="-3.051314" lat="52.709309"><ele>255.938370</ele><time>2022-01-15T11:20:30Z</time><extensions><speed>1.002103</speed><course>72.034676</course><hAcc>1.792950</hAcc><vAcc>0.604836</vAcc></extensions></trkpt>
      <trkpt lon="-3.051301" lat="52.709312"><ele>256.055420</ele><time>2022-01-15T11:20:31Z</time><extensions><speed>0.909126</speed><course>69.461304</course><hAcc>1.826403</hAcc><vAcc>0.600214</vAcc></extensions></trkpt>
      <trkpt lon="-3.051288" lat="52.709315"><ele>256.179901</ele><time>2022-01-15T11:20:32Z</time><extensions><speed>0.861207</speed><course>69.624458</course><hAcc>1.856920</hAcc><vAcc>0.594955</vAcc></extensions></trkpt>
      <trkpt lon="-3.051276" lat="52.709318"><ele>256.312958</ele><time>2022-01-15T11:20:33Z</time><extensions><speed>0.857203</speed><course>70.584961</course><hAcc>1.866947</hAcc><vAcc>0.589180</vAcc></extensions></trkpt>
      <trkpt lon="-3.051263" lat="52.709320"><ele>256.456757</ele><time>2022-01-15T11:20:34Z</time><extensions><speed>1.040486</speed><course>72.443787</course><hAcc>1.831425</hAcc><vAcc>0.583119</vAcc></extensions></trkpt>
      <trkpt lon="-3.051247" lat="52.709323"><ele>256.608063</ele><time>2022-01-15T11:20:35Z</time><extensions><speed>1.233962</speed><course>72.482079</course><hAcc>1.825770</hAcc><vAcc>0.577094</vAcc></extensions></trkpt>
      <trkpt lon="-3.051229" lat="52.709327"><ele>256.761719</ele><time>2022-01-15T11:20:36Z</time><extensions><speed>1.320402</speed><course>71.139084</course><hAcc>1.854016</hAcc><vAcc>0.571452</vAcc></extensions></trkpt>
      <trkpt lon="-3.051210" lat="52.709331"><ele>256.915924</ele><time>2022-01-15T11:20:37Z</time><extensions><speed>1.344893</speed><course>69.014694</course><hAcc>1.884911</hAcc><vAcc>0.566482</vAcc></extensions></trkpt>
      <trkpt lon="-3.051192" lat="52.709335"><ele>257.067291</ele><time>2022-01-15T11:20:38Z</time><extensions><speed>1.320776</speed><course>66.731842</course><hAcc>1.926004</hAcc><vAcc>0.562356</vAcc></extensions></trkpt>
      <trkpt lon="-3.051174" lat="52.709340"><ele>257.217651</ele><time>2022-01-15T11:20:39Z</time><extensions><speed>1.245570</speed><course>65.627022</course><hAcc>1.953734</hAcc><vAcc>0.559160</vAcc></extensions></trkpt>
      <trkpt lon="-3.051158" lat="52.709345"><ele>257.369965</ele><time>2022-01-15T11:20:40Z</time><extensions><speed>1.194105</speed><course>64.677872</course><hAcc>1.930399</hAcc><vAcc>0.556912</vAcc></extensions></trkpt>
      <trkpt lon="-3.051142" lat="52.709349"><ele>257.524811</ele><time>2022-01-15T11:20:41Z</time><extensions><speed>1.117260</speed><course>64.940857</course><hAcc>1.913706</hAcc><vAcc>0.555581</vAcc></extensions></trkpt>
      <trkpt lon="-3.051127" lat="52.709353"><ele>257.677734</ele><time>2022-01-15T11:20:42Z</time><extensions><speed>1.075409</speed><course>65.744278</course><hAcc>1.924188</hAcc><vAcc>0.555066</vAcc></extensions></trkpt>
      <trkpt lon="-3.051113" lat="52.709357"><ele>257.831787</ele><time>2022-01-15T11:20:43Z</time><extensions><speed>1.027945</speed><course>65.633591</course><hAcc>1.949702</hAcc><vAcc>0.555215</vAcc></extensions></trkpt>
      <trkpt lon="-3.051099" lat="52.709361"><ele>257.985962</ele><time>2022-01-15T11:20:44Z</time><extensions><speed>1.057925</speed><course>66.631004</course><hAcc>1.934238</hAcc><vAcc>0.555876</vAcc></extensions></trkpt>
      <trkpt lon="-3.051084" lat="52.709365"><ele>258.138367</ele><time>2022-01-15T11:20:45Z</time><extensions><speed>1.052630</speed><course>65.748100</course><hAcc>1.923435</hAcc><vAcc>0.556937</vAcc></extensions></trkpt>
      <trkpt lon="-3.051070" lat="52.709369"><ele>258.283020</ele><time>2022-01-15T11:20:46Z</time><extensions><speed>1.080791</speed><course>64.164215</course><hAcc>1.911602</hAcc><vAcc>0.558361</vAcc></extensions></trkpt>
      <trkpt lon="-3.051056" lat="52.709373"><ele>258.431915</ele><time>2022-01-15T11:20:47Z</time><extensions><speed>1.057809</speed><course>62.571842</course><hAcc>1.912214</hAcc><vAcc>0.560174</vAcc></extensions></trkpt>
      <trkpt lon="-3.051042" lat="52.709378"><ele>258.583038</ele><time>2022-01-15T11:20:48Z</time><extensions><speed>1.006708</speed><course>62.302074</course><hAcc>1.923238</hAcc><vAcc>0.562408</vAcc></extensions></trkpt>
      <trkpt lon="-3.051029" lat="52.709382"><ele>258.735931</ele><time>2022-01-15T11:20:49Z</time><extensions><speed>1.045097</speed><course>62.616356</course><hAcc>1.926122</hAcc><vAcc>0.565031</vAcc></extensions></trkpt>
      <trkpt lon="-3.051014" lat="52.709387"><ele>258.896515</ele><time>2022-01-15T11:20:50Z</time><extensions><speed>1.114899</speed><course>62.475250</course><hAcc>1.901794</hAcc><vAcc>0.567987</vAcc></extensions></trkpt>
      <trkpt lon="-3.051000" lat="52.709391"><ele>259.041565</ele><time>2022-01-15T11:20:51Z</time><extensions><speed>1.128559</speed><course>61.840832</course><hAcc>1.888693</hAcc><vAcc>0.571229</vAcc></extensions></trkpt>
      <trkpt lon="-3.050985" lat="52.709396"><ele>259.188141</ele><time>2022-01-15T11:20:52Z</time><extensions><speed>1.149325</speed><course>60.779667</course><hAcc>1.894200</hAcc><vAcc>0.574754</vAcc></extensions></trkpt>
      <trkpt lon="-3.050970" lat="52.709401"><ele>259.337860</ele><time>2022-01-15T11:20:53Z</time><extensions><speed>1.154463</speed><course>59.091049</course><hAcc>1.910822</hAcc><vAcc>0.578533</vAcc></extensions></trkpt>
      <trkpt lon="-3.050955" lat="52.709407"><ele>259.486053</ele><time>2022-01-15T11:20:54Z</time><extensions><speed>1.178795</speed><course>57.896881</course><hAcc>1.908833</hAcc><vAcc>0.582494</vAcc></extensions></trkpt>
      <trkpt lon="-3.050941" lat="52.709413"><ele>259.626678</ele><time>2022-01-15T11:20:55Z</time><extensions><speed>1.193361</speed><course>57.000149</course><hAcc>1.905285</hAcc><vAcc>0.586536</vAcc></extensions></trkpt>
      <trkpt lon="-3.050926" lat="52.709419"><ele>259.770447</ele><time>2022-01-15T11:20:56Z</time><extensions><speed>1.214533</speed><course>56.508465</course><hAcc>1.902431</hAcc><vAcc>0.590504</vAcc></extensions></trkpt>
      <trkpt lon="-3.050911" lat="52.709425"><ele>259.915222</ele><time>2022-01-15T11:20:57Z</time><extensions><speed>1.217019</speed><course>55.893036</course><hAcc>1.896757</hAcc><vAcc>0.594136</vAcc></extensions></trkpt>
      <trkpt lon="-3.050896" lat="52.709431"><ele>260.053253</ele><time>2022-01-15T11:20:58Z</time><extensions><speed>1.148103</speed><course>55.132076</course><hAcc>1.884903</hAcc><vAcc>0.597155</vAcc></extensions></trkpt>
      <trkpt lon="-3.050883" lat="52.709437"><ele>260.193451</ele><time>2022-01-15T11:20:59Z</time><extensions><speed>1.062075</speed><course>54.405361</course><hAcc>1.865388</hAcc><vAcc>0.599358</vAcc></extensions></trkpt>
      <trkpt lon="-3.050870" lat="52.709442"><ele>260.328766</ele><time>2022-01-15T11:21:00Z</time><extensions><speed>1.046348</speed><course>54.749332</course><hAcc>1.864311</hAcc><vAcc>0.600624</vAcc></extensions></trkpt>
      <trkpt lon="-3.050857" lat="52.709448"><ele>260.458923</ele><time>2022-01-15T11:21:01Z</time><extensions><speed>1.085433</speed><course>54.051624</course><hAcc>1.853621</hAcc><vAcc>0.600904</vAcc></extensions></trkpt>
      <trkpt lon="-3.050844" lat="52.709454"><ele>260.589020</ele><time>2022-01-15T11:21:02Z</time><extensions><speed>1.156873</speed><course>54.255486</course><hAcc>1.863333</hAcc><vAcc>0.600238</vAcc></extensions></trkpt>
      <trkpt lon="-3.050830" lat="52.709460"><ele>260.712402</ele><time>2022-01-15T11:21:03Z</time><extensions><speed>1.105970</speed><course>53.841705</course><hAcc>1.876025</hAcc><vAcc>0.598765</vAcc></extensions></trkpt>
      <trkpt lon="-3.050817" lat="52.709466"><ele>260.824097</ele><time>2022-01-15T11:21:04Z</time><extensions><speed>1.107747</speed><course>53.210361</course><hAcc>1.846968</hAcc><vAcc>0.596692</vAcc></extensions></trkpt>
      <trkpt lon="-3.050803" lat="52.709472"><ele>260.927368</ele><time>2022-01-15T11:21:05Z</time><extensions><speed>1.112740</speed><course>53.523460</course><hAcc>1.842219</hAcc><vAcc>0.594235</vAcc></extensions></trkpt>
      <trkpt lon="-3.050790" lat="52.709478"><ele>261.023621</ele><time>2022-01-15T11:21:06Z</time><extensions><speed>1.116019</speed><course>54.844273</course><hAcc>1.851715</hAcc><vAcc>0.591558</vAcc></extensions></trkpt>
      <trkpt lon="-3.050776" lat="52.709483"><ele>261.120178</ele><time>2022-01-15T11:21:07Z</time><extensions><speed>1.106454</speed><course>55.192970</course><hAcc>1.851115</hAcc><vAcc>0.588764</vAcc></extensions></trkpt>
      <trkpt lon="-3.050763" lat="52.709489"><ele>261.218384</ele><time>2022-01-15T11:21:08Z</time><extensions><speed>1.122967</speed><course>56.462559</course><hAcc>1.859346</hAcc><vAcc>0.585922</vAcc></extensions></trkpt>
      <trkpt lon="-3.050749" lat="52.709495"><ele>261.311707</ele><time>2022-01-15T11:21:09Z</time><extensions><speed>1.115334</speed><course>57.996052</course><hAcc>1.883825</hAcc><vAcc>0.583106</vAcc></extensions></trkpt>
      <trkpt lon="-3.050734" lat="52.709500"><ele>261.401642</ele><time>2022-01-15T11:21:10Z</time><extensions><speed>1.121140</speed><course>57.356346</course><hAcc>1.867324</hAcc><vAcc>0.580415</vAcc></extensions></trkpt>
      <trkpt lon="-3.050721" lat="52.709505"><ele>261.490326</ele><time>2022-01-15T11:21:11Z</time><extensions><speed>1.083357</speed><course>57.315411</course><hAcc>1.869680</hAcc><vAcc>0.578003</vAcc></extensions></trkpt>
      <trkpt lon="-3.050707" lat="52.709511"><ele>261.577789</ele><time>2022-01-15T11:21:12Z</time><extensions><speed>1.024783</speed><course>58.885117</course><hAcc>1.900862</hAcc><vAcc>0.576061</vAcc></extensions></trkpt>
      <trkpt lon="-3.050694" lat="52.709515"><ele>261.662506</ele><time>2022-01-15T11:21:13Z</time><extensions><speed>1.041710</speed><course>59.516132</course><hAcc>1.910609</hAcc><vAcc>0.574769</vAcc></extensions></trkpt>
      <trkpt lon="-3.050680" lat="52.709520"><ele>261.751221</ele><time>2022-01-15T11:21:14Z</time><extensions><speed>1.111854</speed><course>59.978813</course><hAcc>1.903029</hAcc><vAcc>0.574294</vAcc></extensions></trkpt>
      <trkpt lon="-3.050666" lat="52.709525"><ele>261.846344</ele><time>2022-01-15T11:21:15Z</time><extensions><speed>1.189355</speed><course>60.710339</course><hAcc>1.902563</hAcc><vAcc>0.574781</vAcc></extensions></trkpt>
      <trkpt lon="-3.050650" lat="52.709531"><ele>261.948547</ele><time>2022-01-15T11:21:16Z</time><extensions><speed>1.234815</speed><course>59.777702</course><hAcc>1.904111</hAcc><vAcc>0.576318</vAcc></extensions></trkpt>
      <trkpt lon="-3.050634" lat="52.709537"><ele>262.053833</ele><time>2022-01-15T11:21:17Z</time><extensions><speed>1.273427</speed><course>58.329941</course><hAcc>1.908686</hAcc><vAcc>0.578948</vAcc></extensions></trkpt>
      <trkpt lon="-3.050618" lat="52.709543"><ele>262.162170</ele><time>2022-01-15T11:21:18Z</time><extensions><speed>1.308832</speed><course>57.140888</course><hAcc>1.910445</hAcc><vAcc>0.582653</vAcc></extensions></trkpt>
      <trkpt lon="-3.050602" lat="52.709549"><ele>262.268066</ele><time>2022-01-15T11:21:19Z</time><extensions><speed>1.277559</speed><course>56.626625</course><hAcc>1.905166</hAcc><vAcc>0.587298</vAcc></extensions></trkpt>
      <trkpt lon="-3.050586" lat="52.709555"><ele>262.359772</ele><time>2022-01-15T11:21:20Z</time><extensions><speed>1.269324</speed><course>56.391964</course><hAcc>1.902897</hAcc><vAcc>0.592712</vAcc></extensions></trkpt>
      <trkpt lon="-3.050570" lat="52.709562"><ele>262.461273</ele><time>2022-01-15T11:21:21Z</time><extensions><speed>1.234638</speed><course>56.774490</course><hAcc>1.906373</hAcc><vAcc>0.598639</vAcc></extensions></trkpt>
      <trkpt lon="-3.050555" lat="52.709568"><ele>262.564301</ele><time>2022-01-15T11:21:22Z</time><extensions><speed>1.201411</speed><course>58.174297</course><hAcc>1.911957</hAcc><vAcc>0.604820</vAcc></extensions></trkpt>
      <trkpt lon="-3.050540" lat="52.709573"><ele>262.679321</ele><time>2022-01-15T11:21:23Z</time><extensions><speed>1.138519</speed><course>59.081467</course><hAcc>1.894658</hAcc><vAcc>0.611035</vAcc></extensions></trkpt>
      <trkpt lon="-3.050526" lat="52.709578"><ele>262.779785</ele><time>2022-01-15T11:21:24Z</time><extensions><speed>1.085178</speed><course>60.007938</course><hAcc>1.892208</hAcc><vAcc>0.617068</vAcc></extensions></trkpt>
      <trkpt lon="-3.050513" lat="52.709583"><ele>262.884186</ele><time>2022-01-15T11:21:25Z</time><extensions><speed>0.995234</speed><course>62.052608</course><hAcc>1.904560</hAcc><vAcc>0.622710</vAcc></extensions></trkpt>
      <trkpt lon="-3.050500" lat="52.709587"><ele>262.993011</ele><time>2022-01-15T11:21:26Z</time><extensions><speed>0.966603</speed><course>65.605545</course><hAcc>1.904038</hAcc><vAcc>0.627784</vAcc></extensions></trkpt>
      <trkpt lon="-3.050486" lat="52.709590"><ele>263.102509</ele><time>2022-01-15T11:21:27Z</time><extensions><speed>0.989145</speed><course>70.188782</course><hAcc>1.897090</hAcc><vAcc>0.632114</vAcc></extensions></trkpt>
      <trkpt lon="-3.050472" lat="52.709593"><ele>263.189453</ele><time>2022-01-15T11:21:28Z</time><extensions><speed>1.048092</speed><course>72.702705</course><hAcc>1.895256</hAcc><vAcc>0.635554</vAcc></extensions></trkpt>
      <trkpt lon="-3.050456" lat="52.709596"><ele>263.288483</ele><time>2022-01-15T11:21:29Z</time><extensions><speed>1.131540</speed><course>73.299248</course><hAcc>1.891852</hAcc><vAcc>0.637972</vAcc></extensions></trkpt>
      <trkpt lon="-3.050440" lat="52.709599"><ele>263.390808</ele><time>2022-01-15T11:21:30Z</time><extensions><speed>1.144899</speed><course>73.105667</course><hAcc>1.893560</hAcc><vAcc>0.639293</vAcc></extensions></trkpt>
      <trkpt lon="-3.050424" lat="52.709602"><ele>263.495972</ele><time>2022-01-15T11:21:31Z</time><extensions><speed>1.193437</speed><course>71.476692</course><hAcc>1.889321</hAcc><vAcc>0.639489</vAcc></extensions></trkpt>
      <trkpt lon="-3.050407" lat="52.709606"><ele>263.603424</ele><time>2022-01-15T11:21:32Z</time><extensions><speed>1.199172</speed><course>68.429665</course><hAcc>1.879487</hAcc><vAcc>0.638576</vAcc></extensions></trkpt>
      <trkpt lon="-3.050391" lat="52.709610"><ele>263.707275</ele><time>2022-01-15T11:21:33Z</time><extensions><speed>1.112451</speed><course>64.364876</course><hAcc>1.886971</hAcc><vAcc>0.636588</vAcc></extensions></trkpt>
      <trkpt lon="-3.050376" lat="52.709614"><ele>263.817078</ele><time>2022-01-15T11:21:34Z</time><extensions><speed>1.102933</speed><course>62.589092</course><hAcc>1.888638</hAcc><vAcc>0.633608</vAcc></extensions></trkpt>
      <trkpt lon="-3.050361" lat="52.709619"><ele>263.925476</ele><time>2022-01-15T11:21:35Z</time><extensions><speed>1.199064</speed><course>62.808968</course><hAcc>1.870075</hAcc><vAcc>0.629730</vAcc></extensions></trkpt>
      <trkpt lon="-3.050345" lat="52.709624"><ele>264.032776</ele><time>2022-01-15T11:21:36Z</time><extensions><speed>1.235694</speed><course>63.126781</course><hAcc>1.869593</hAcc><vAcc>0.625054</vAcc></extensions></trkpt>
      <trkpt lon="-3.050328" lat="52.709629"><ele>264.141266</ele><time>2022-01-15T11:21:37Z</time><extensions><speed>1.295251</speed><course>63.753941</course><hAcc>1.873526</hAcc><vAcc>0.619701</vAcc></extensions></trkpt>
      <trkpt lon="-3.050311" lat="52.709635"><ele>264.248749</ele><time>2022-01-15T11:21:38Z</time><extensions><speed>1.340202</speed><course>63.447777</course><hAcc>1.873892</hAcc><vAcc>0.613822</vAcc></extensions></trkpt>
      <trkpt lon="-3.050293" lat="52.709640"><ele>264.351013</ele><time>2022-01-15T11:21:39Z</time><extensions><speed>1.396581</speed><course>61.881409</course><hAcc>1.868533</hAcc><vAcc>0.607594</vAcc></extensions></trkpt>
      <trkpt lon="-3.050275" lat="52.709647"><ele>264.453674</ele><time>2022-01-15T11:21:40Z</time><extensions><speed>1.377328</speed><course>59.082596</course><hAcc>1.875896</hAcc><vAcc>0.601198</vAcc></extensions></trkpt>
      <trkpt lon="-3.050258" lat="52.709653"><ele>264.557068</ele><time>2022-01-15T11:21:41Z</time><extensions><speed>1.350735</speed><course>56.650215</course><hAcc>1.901238</hAcc><vAcc>0.594816</vAcc></extensions></trkpt>
      <trkpt lon="-3.050241" lat="52.709660"><ele>264.660339</ele><time>2022-01-15T11:21:42Z</time><extensions><speed>1.353853</speed><course>55.580498</course><hAcc>1.892663</hAcc><vAcc>0.588623</vAcc></extensions></trkpt>
      <trkpt lon="-3.050224" lat="52.709667"><ele>264.760620</ele><time>2022-01-15T11:21:43Z</time><extensions><speed>1.331573</speed><course>55.962036</course><hAcc>1.900844</hAcc><vAcc>0.582788</vAcc></extensions></trkpt>
      <trkpt lon="-3.050208" lat="52.709674"><ele>264.860931</ele><time>2022-01-15T11:21:44Z</time><extensions><speed>1.348569</speed><course>55.339355</course><hAcc>1.896109</hAcc><vAcc>0.577489</vAcc></extensions></trkpt>
      <trkpt lon="-3.050192" lat="52.709680"><ele>264.960083</ele><time>2022-01-15T11:21:45Z</time><extensions><speed>1.312622</speed><course>54.570435</course><hAcc>1.897251</hAcc><vAcc>0.572874</vAcc></extensions></trkpt>
      <trkpt lon="-3.050176" lat="52.709687"><ele>265.053070</ele><time>2022-01-15T11:21:46Z</time><extensions><speed>1.265984</speed><course>56.345764</course><hAcc>1.908816</hAcc><vAcc>0.569034</vAcc></extensions></trkpt>
      <trkpt lon="-3.050160" lat="52.709693"><ele>265.142609</ele><time>2022-01-15T11:21:47Z</time><extensions><speed>1.198377</speed><course>59.991383</course><hAcc>1.929372</hAcc><vAcc>0.565967</vAcc></extensions></trkpt>
      <trkpt lon="-3.050145" lat="52.709698"><ele>265.231140</ele><time>2022-01-15T11:21:48Z</time><extensions><speed>1.167062</speed><course>61.881477</course><hAcc>1.937699</hAcc><vAcc>0.563608</vAcc></extensions></trkpt>
      <trkpt lon="-3.050129" lat="52.709703"><ele>265.323975</ele><time>2022-01-15T11:21:49Z</time><extensions><speed>1.200082</speed><course>62.539875</course><hAcc>1.926566</hAcc><vAcc>0.561897</vAcc></extensions></trkpt>
      <trkpt lon="-3.050113" lat="52.709708"><ele>265.419159</ele><time>2022-01-15T11:21:50Z</time><extensions><speed>1.301655</speed><course>63.239208</course><hAcc>1.917300</hAcc><vAcc>0.560826</vAcc></extensions></trkpt>
      <trkpt lon="-3.050095" lat="52.709714"><ele>265.518250</ele><time>2022-01-15T11:21:51Z</time><extensions><speed>1.346039</speed><course>63.926247</course><hAcc>1.915843</hAcc><vAcc>0.560425</vAcc></extensions></trkpt>
      <trkpt lon="-3.050077" lat="52.709719"><ele>265.613190</ele><time>2022-01-15T11:21:52Z</time><extensions><speed>1.370463</speed><course>65.117737</course><hAcc>1.922205</hAcc><vAcc>0.560746</vAcc></extensions></trkpt>
      <trkpt lon="-3.050059" lat="52.709724"><ele>265.702148</ele><time>2022-01-15T11:21:53Z</time><extensions><speed>1.351998</speed><course>65.670097</course><hAcc>1.932082</hAcc><vAcc>0.561823</vAcc></extensions></trkpt>
      <trkpt lon="-3.050041" lat="52.709729"><ele>265.792297</ele><time>2022-01-15T11:21:54Z</time><extensions><speed>1.297608</speed><course>64.975677</course><hAcc>1.919288</hAcc><vAcc>0.563607</vAcc></extensions></trkpt>
      <trkpt lon="-3.050024" lat="52.709734"><ele>265.885742</ele><time>2022-01-15T11:21:55Z</time><extensions><speed>1.210421</speed><course>63.988815</course><hAcc>1.919149</hAcc><vAcc>0.565943</vAcc></extensions></trkpt>
      <trkpt lon="-3.050008" lat="52.709739"><ele>265.974518</ele><time>2022-01-15T11:21:56Z</time><extensions><speed>1.178825</speed><course>63.307945</course><hAcc>1.912948</hAcc><vAcc>0.568599</vAcc></extensions></trkpt>
      <trkpt lon="-3.049993" lat="52.709743"><ele>266.055206</ele><time>2022-01-15T11:21:56Z</time><extensions><speed>1.180308</speed><course>63.003666</course><hAcc>1.920116</hAcc><vAcc>0.571338</vAcc></extensions></trkpt>
      <trkpt lon="-3.049977" lat="52.709748"><ele>266.143799</ele><time>2022-01-15T11:21:57Z</time><extensions><speed>1.178080</speed><course>63.351181</course><hAcc>1.934244</hAcc><vAcc>0.573979</vAcc></extensions></trkpt>
      <trkpt lon="-3.049962" lat="52.709753"><ele>266.236572</ele><time>2022-01-15T11:21:58Z</time><extensions><speed>1.140221</speed><course>64.448120</course><hAcc>1.933088</hAcc><vAcc>0.576440</vAcc></extensions></trkpt>
      <trkpt lon="-3.049947" lat="52.709757"><ele>266.318604</ele><time>2022-01-15T11:21:59Z</time><extensions><speed>1.090035</speed><course>65.750687</course><hAcc>1.931798</hAcc><vAcc>0.578741</vAcc></extensions></trkpt>
      <trkpt lon="-3.049932" lat="52.709761"><ele>266.398071</ele><time>2022-01-15T11:22:00Z</time><extensions><speed>1.077714</speed><course>66.236115</course><hAcc>1.937796</hAcc><vAcc>0.580957</vAcc></extensions></trkpt>
      <trkpt lon="-3.049918" lat="52.709765"><ele>266.478973</ele><time>2022-01-15T11:22:01Z</time><extensions><speed>1.061166</speed><course>66.174187</course><hAcc>1.942317</hAcc><vAcc>0.583091</vAcc></extensions></trkpt>
      <trkpt lon="-3.049903" lat="52.709769"><ele>266.551544</ele><time>2022-01-15T11:22:02Z</time><extensions><speed>1.038565</speed><course>65.034927</course><hAcc>1.941748</hAcc><vAcc>0.585116</vAcc></extensions></trkpt>
      <trkpt lon="-3.049890" lat="52.709773"><ele>266.615631</ele><time>2022-01-15T11:22:03Z</time><extensions><speed>1.011658</speed><course>62.476147</course><hAcc>1.937648</hAcc><vAcc>0.586879</vAcc></extensions></trkpt>
      <trkpt lon="-3.049877" lat="52.709778"><ele>266.671417</ele><time>2022-01-15T11:22:04Z</time><extensions><speed>0.948982</speed><course>58.872917</course><hAcc>1.933159</hAcc><vAcc>0.588120</vAcc></extensions></trkpt>
      <trkpt lon="-3.049866" lat="52.709782"><ele>266.719177</ele><time>2022-01-15T11:22:05Z</time><extensions><speed>0.859555</speed><course>53.301880</course><hAcc>1.929040</hAcc><vAcc>0.588503</vAcc></extensions></trkpt>
      <trkpt lon="-3.049857" lat="52.709787"><ele>266.756836</ele><time>2022-01-15T11:22:06Z</time><extensions><speed>0.753399</speed><course>45.577103</course><hAcc>1.926613</hAcc><vAcc>0.587720</vAcc></extensions></trkpt>
      <trkpt lon="-3.049850" lat="52.709792"><ele>266.785614</ele><time>2022-01-15T11:22:07Z</time><extensions><speed>0.724800</speed><course>36.561783</course><hAcc>1.915396</hAcc><vAcc>0.585610</vAcc></extensions></trkpt>
      <trkpt lon="-3.049844" lat="52.709797"><ele>266.800659</ele><time>2022-01-15T11:22:08Z</time><extensions><speed>0.682839</speed><course>29.371367</course><hAcc>1.908920</hAcc><vAcc>0.582206</vAcc></extensions></trkpt>
      <trkpt lon="-3.049840" lat="52.709803"><ele>266.798889</ele><time>2022-01-15T11:22:09Z</time><extensions><speed>0.602310</speed><course>20.881920</course><hAcc>1.915562</hAcc><vAcc>0.577743</vAcc></extensions></trkpt>
      <trkpt lon="-3.049838" lat="52.709807"><ele>266.781403</ele><time>2022-01-15T11:22:10Z</time><extensions><speed>0.485697</speed><course>11.661143</course><hAcc>1.938775</hAcc><vAcc>0.572647</vAcc></extensions></trkpt>
      <trkpt lon="-3.049836" lat="52.709812"><ele>266.748779</ele><time>2022-01-15T11:22:12Z</time><extensions><speed>0.521995</speed><course>9.412350</course><hAcc>1.939613</hAcc><vAcc>0.567410</vAcc></extensions></trkpt>
      <trkpt lon="-3.049835" lat="52.709817"><ele>266.702454</ele><time>2022-01-15T11:22:13Z</time><extensions><speed>0.677185</speed><course>11.884090</course><hAcc>1.928250</hAcc><vAcc>0.562519</vAcc></extensions></trkpt>
      <trkpt lon="-3.049833" lat="52.709823"><ele>266.645538</ele><time>2022-01-15T11:22:14Z</time><extensions><speed>0.677948</speed><course>9.917796</course><hAcc>1.960546</hAcc><vAcc>0.558299</vAcc></extensions></trkpt>
      <trkpt lon="-3.049832" lat="52.709828"><ele>266.578583</ele><time>2022-01-15T11:22:15Z</time><extensions><speed>0.545257</speed><course>5.932686</course><hAcc>2.009764</hAcc><vAcc>0.554840</vAcc></extensions></trkpt>
      <trkpt lon="-3.049831" lat="52.709834"><ele>266.500610</ele><time>2022-01-15T11:22:16Z</time><extensions><speed>0.799182</speed><course>5.436065</course><hAcc>1.990466</hAcc><vAcc>0.552011</vAcc></extensions></trkpt>
      <trkpt lon="-3.049829" lat="52.709842"><ele>266.413910</ele><time>2022-01-15T11:22:17Z</time><extensions><speed>0.908018</speed><course>6.399370</course><hAcc>1.987302</hAcc><vAcc>0.549561</vAcc></extensions></trkpt>
      <trkpt lon="-3.049827" lat="52.709851"><ele>266.323273</ele><time>2022-01-15T11:22:18Z</time><extensions><speed>0.982646</speed><course>7.881833</course><hAcc>2.002832</hAcc><vAcc>0.547211</vAcc></extensions></trkpt>
      <trkpt lon="-3.049825" lat="52.709859"><ele>266.231201</ele><time>2022-01-15T11:22:19Z</time><extensions><speed>1.004874</speed><course>9.853388</course><hAcc>2.023537</hAcc><vAcc>0.544709</vAcc></extensions></trkpt>
      <trkpt lon="-3.049822" lat="52.709868"><ele>266.140991</ele><time>2022-01-15T11:22:20Z</time><extensions><speed>0.982682</speed><course>11.930729</course><hAcc>2.039208</hAcc><vAcc>0.541801</vAcc></extensions></trkpt>
      <trkpt lon="-3.049819" lat="52.709877"><ele>266.052429</ele><time>2022-01-15T11:22:21Z</time><extensions><speed>0.958055</speed><course>14.054722</course><hAcc>2.044478</hAcc><vAcc>0.538266</vAcc></extensions></trkpt>
      <trkpt lon="-3.049815" lat="52.709885"><ele>265.965210</ele><time>2022-01-15T11:22:22Z</time><extensions><speed>0.923612</speed><course>15.548497</course><hAcc>2.041741</hAcc><vAcc>0.534006</vAcc></extensions></trkpt>
      <trkpt lon="-3.049812" lat="52.709893"><ele>265.883179</ele><time>2022-01-15T11:22:23Z</time><extensions><speed>0.901744</speed><course>16.328524</course><hAcc>2.028058</hAcc><vAcc>0.529122</vAcc></extensions></trkpt>
      <trkpt lon="-3.049808" lat="52.709901"><ele>265.807220</ele><time>2022-01-15T11:22:24Z</time><extensions><speed>0.850806</speed><course>17.084055</course><hAcc>2.005721</hAcc><vAcc>0.524024</vAcc></extensions></trkpt>
      <trkpt lon="-3.049804" lat="52.709908"><ele>265.731567</ele><time>2022-01-15T11:22:25Z</time><extensions><speed>0.774296</speed><course>18.253098</course><hAcc>1.987027</hAcc><vAcc>0.519416</vAcc></extensions></trkpt>
      <trkpt lon="-3.049801" lat="52.709914"><ele>265.662079</ele><time>2022-01-15T11:22:26Z</time><extensions><speed>0.632438</speed><course>19.750116</course><hAcc>1.993599</hAcc><vAcc>0.516101</vAcc></extensions></trkpt>
      <trkpt lon="-3.049798" lat="52.709918"><ele>265.593292</ele><time>2022-01-15T11:22:27Z</time><extensions><speed>0.427721</speed><course>20.493082</course><hAcc>2.019565</hAcc><vAcc>0.514820</vAcc></extensions></trkpt>
      <trkpt lon="-3.049796" lat="52.709922"><ele>265.526550</ele><time>2022-01-15T11:22:28Z</time><extensions><speed>0.461951</speed><course>19.012449</course><hAcc>2.008226</hAcc><vAcc>0.516187</vAcc></extensions></trkpt>
      <trkpt lon="-3.049794" lat="52.709927"><ele>265.462555</ele><time>2022-01-15T11:22:29Z</time><extensions><speed>0.561603</speed><course>16.244984</course><hAcc>1.993057</hAcc><vAcc>0.520650</vAcc></extensions></trkpt>
      <trkpt lon="-3.049791" lat="52.709932"><ele>265.402161</ele><time>2022-01-15T11:22:30Z</time><extensions><speed>0.750226</speed><course>13.282106</course><hAcc>1.972748</hAcc><vAcc>0.528330</vAcc></extensions></trkpt>
      <trkpt lon="-3.049789" lat="52.709941"><ele>265.335815</ele><time>2022-01-15T11:22:31Z</time><extensions><speed>1.118811</speed><course>10.908628</course><hAcc>1.938107</hAcc><vAcc>0.538835</vAcc></extensions></trkpt>
      <trkpt lon="-3.049786" lat="52.709951"><ele>265.268890</ele><time>2022-01-15T11:22:32Z</time><extensions><speed>1.232056</speed><course>9.085279</course><hAcc>1.930523</hAcc><vAcc>0.551316</vAcc></extensions></trkpt>
      <trkpt lon="-3.049783" lat="52.709962"><ele>265.201416</ele><time>2022-01-15T11:22:33Z</time><extensions><speed>1.260456</speed><course>7.236234</course><hAcc>1.933042</hAcc><vAcc>0.564563</vAcc></extensions></trkpt>
      <trkpt lon="-3.049781" lat="52.709973"><ele>265.131470</ele><time>2022-01-15T11:22:34Z</time><extensions><speed>1.245149</speed><course>5.558991</course><hAcc>1.932691</hAcc><vAcc>0.577221</vAcc></extensions></trkpt>
      <trkpt lon="-3.049779" lat="52.709985"><ele>265.062347</ele><time>2022-01-15T11:22:35Z</time><extensions><speed>1.262271</speed><course>3.517259</course><hAcc>1.926186</hAcc><vAcc>0.588327</vAcc></extensions></trkpt>
      <trkpt lon="-3.049779" lat="52.709996"><ele>264.994659</ele><time>2022-01-15T11:22:36Z</time><extensions><speed>1.269189</speed><course>1.881991</course><hAcc>1.918174</hAcc><vAcc>0.597212</vAcc></extensions></trkpt>
      <trkpt lon="-3.049778" lat="52.710007"><ele>264.926788</ele><time>2022-01-15T11:22:37Z</time><extensions><speed>1.235885</speed><course>1.073931</course><hAcc>1.919979</hAcc><vAcc>0.603628</vAcc></extensions></trkpt>
      <trkpt lon="-3.049778" lat="52.710018"><ele>264.865601</ele><time>2022-01-15T11:22:38Z</time><extensions><speed>1.191909</speed><course>0.460426</course><hAcc>1.932707</hAcc><vAcc>0.607595</vAcc></extensions></trkpt>
      <trkpt lon="-3.049778" lat="52.710028"><ele>264.802155</ele><time>2022-01-15T11:22:39Z</time><extensions><speed>1.111308</speed><course>358.875305</course><hAcc>1.951267</hAcc><vAcc>0.609420</vAcc></extensions></trkpt>
      <trkpt lon="-3.049778" lat="52.710038"><ele>264.746338</ele><time>2022-01-15T11:22:40Z</time><extensions><speed>1.033898</speed><course>358.416840</course><hAcc>1.955464</hAcc><vAcc>0.609560</vAcc></extensions></trkpt>
      <trkpt lon="-3.049779" lat="52.710047"><ele>264.700348</ele><time>2022-01-15T11:22:41Z</time><extensions><speed>0.972594</speed><course>358.291809</course><hAcc>1.958231</hAcc><vAcc>0.608599</vAcc></extensions></trkpt>
      <trkpt lon="-3.049779" lat="52.710056"><ele>264.658936</ele><time>2022-01-15T11:22:42Z</time><extensions><speed>0.944815</speed><course>358.566284</course><hAcc>1.961022</hAcc><vAcc>0.607104</vAcc></extensions></trkpt>
      <trkpt lon="-3.049779" lat="52.710064"><ele>264.622009</ele><time>2022-01-15T11:22:43Z</time><extensions><speed>0.937956</speed><course>359.867279</course><hAcc>1.966531</hAcc><vAcc>0.605568</vAcc></extensions></trkpt>
      <trkpt lon="-3.049779" lat="52.710073"><ele>264.591766</ele><time>2022-01-15T11:22:44Z</time><extensions><speed>0.993671</speed><course>1.380778</course><hAcc>1.968720</hAcc><vAcc>0.604351</vAcc></extensions></trkpt>
      <trkpt lon="-3.049779" lat="52.710082"><ele>264.566925</ele><time>2022-01-15T11:22:45Z</time><extensions><speed>1.044625</speed><course>2.838107</course><hAcc>1.971776</hAcc><vAcc>0.603665</vAcc></extensions></trkpt>
      <trkpt lon="-3.049778" lat="52.710092"><ele>264.545044</ele><time>2022-01-15T11:22:46Z</time><extensions><speed>1.063295</speed><course>3.780115</course><hAcc>1.964776</hAcc><vAcc>0.603534</vAcc></extensions></trkpt>
      <trkpt lon="-3.049777" lat="52.710101"><ele>264.534790</ele><time>2022-01-15T11:22:47Z</time><extensions><speed>1.079299</speed><course>3.818988</course><hAcc>1.955284</hAcc><vAcc>0.603839</vAcc></extensions></trkpt>
      <trkpt lon="-3.049776" lat="52.710111"><ele>264.526947</ele><time>2022-01-15T11:22:48Z</time><extensions><speed>1.103419</speed><course>4.044744</course><hAcc>1.942245</hAcc><vAcc>0.604382</vAcc></extensions></trkpt>
      <trkpt lon="-3.049774" lat="52.710121"><ele>264.520325</ele><time>2022-01-15T11:22:49Z</time><extensions><speed>1.095759</speed><course>3.964014</course><hAcc>1.931221</hAcc><vAcc>0.604965</vAcc></extensions></trkpt>
      <trkpt lon="-3.049773" lat="52.710131"><ele>264.516846</ele><time>2022-01-15T11:22:50Z</time><extensions><speed>1.069525</speed><course>4.595985</course><hAcc>1.934720</hAcc><vAcc>0.605417</vAcc></extensions></trkpt>
      <trkpt lon="-3.049772" lat="52.710140"><ele>264.513275</ele><time>2022-01-15T11:22:51Z</time><extensions><speed>1.039869</speed><course>5.020113</course><hAcc>1.952400</hAcc><vAcc>0.605590</vAcc></extensions></trkpt>
      <trkpt lon="-3.049771" lat="52.710149"><ele>264.509430</ele><time>2022-01-15T11:22:52Z</time><extensions><speed>0.977666</speed><course>4.723233</course><hAcc>1.944585</hAcc><vAcc>0.605415</vAcc></extensions></trkpt>
      <trkpt lon="-3.049769" lat="52.710158"><ele>264.506317</ele><time>2022-01-15T11:22:53Z</time><extensions><speed>0.911918</speed><course>4.804526</course><hAcc>1.942950</hAcc><vAcc>0.604863</vAcc></extensions></trkpt>
      <trkpt lon="-3.049768" lat="52.710166"><ele>264.513611</ele><time>2022-01-15T11:22:54Z</time><extensions><speed>0.893898</speed><course>5.858303</course><hAcc>1.952249</hAcc><vAcc>0.603968</vAcc></extensions></trkpt>
      <trkpt lon="-3.049767" lat="52.710174"><ele>264.514923</ele><time>2022-01-15T11:22:55Z</time><extensions><speed>0.918175</speed><course>6.950838</course><hAcc>1.975063</hAcc><vAcc>0.602859</vAcc></extensions></trkpt>
      <trkpt lon="-3.049765" lat="52.710182"><ele>264.513031</ele><time>2022-01-15T11:22:56Z</time><extensions><speed>0.934877</speed><course>7.825681</course><hAcc>1.989768</hAcc><vAcc>0.601688</vAcc></extensions></trkpt>
      <trkpt lon="-3.049763" lat="52.710190"><ele>264.508240</ele><time>2022-01-15T11:22:57Z</time><extensions><speed>0.949164</speed><course>7.437792</course><hAcc>1.992371</hAcc><vAcc>0.600615</vAcc></extensions></trkpt>
      <trkpt lon="-3.049761" lat="52.710199"><ele>264.496643</ele><time>2022-01-15T11:22:58Z</time><extensions><speed>0.955673</speed><course>6.673188</course><hAcc>1.994661</hAcc><vAcc>0.599767</vAcc></extensions></trkpt>
      <trkpt lon="-3.049760" lat="52.710208"><ele>264.480713</ele><time>2022-01-15T11:22:59Z</time><extensions><speed>0.965396</speed><course>6.280683</course><hAcc>1.997362</hAcc><vAcc>0.599229</vAcc></extensions></trkpt>
      <trkpt lon="-3.049758" lat="52.710216"><ele>264.466766</ele><time>2022-01-15T11:23:00Z</time><extensions><speed>0.938012</speed><course>6.700188</course><hAcc>1.999555</hAcc><vAcc>0.599038</vAcc></extensions></trkpt>
      <trkpt lon="-3.049757" lat="52.710224"><ele>264.453491</ele><time>2022-01-15T11:23:01Z</time><extensions><speed>0.885600</speed><course>6.875583</course><hAcc>2.001308</hAcc><vAcc>0.599207</vAcc></extensions></trkpt>
      <trkpt lon="-3.049755" lat="52.710232"><ele>264.435242</ele><time>2022-01-15T11:23:02Z</time><extensions><speed>0.826613</speed><course>5.471286</course><hAcc>2.002862</hAcc><vAcc>0.599794</vAcc></extensions></trkpt>
      <trkpt lon="-3.049754" lat="52.710240"><ele>264.418762</ele><time>2022-01-15T11:23:03Z</time><extensions><speed>0.920290</speed><course>3.903402</course><hAcc>1.992714</hAcc><vAcc>0.600881</vAcc></extensions></trkpt>
      <trkpt lon="-3.049753" lat="52.710249"><ele>264.402374</ele><time>2022-01-15T11:23:04Z</time><extensions><speed>1.109144</speed><course>3.022312</course><hAcc>1.984796</hAcc><vAcc>0.602553</vAcc></extensions></trkpt>
      <trkpt lon="-3.049752" lat="52.710259"><ele>264.380157</ele><time>2022-01-15T11:23:05Z</time><extensions><speed>1.105710</speed><course>3.385546</course><hAcc>1.999155</hAcc><vAcc>0.604697</vAcc></extensions></trkpt>
      <trkpt lon="-3.049752" lat="52.710269"><ele>264.356750</ele><time>2022-01-15T11:23:06Z</time><extensions><speed>1.129958</speed><course>0.834395</course><hAcc>1.988843</hAcc><vAcc>0.607117</vAcc></extensions></trkpt>
      <trkpt lon="-3.049752" lat="52.710279"><ele>264.333954</ele><time>2022-01-15T11:23:07Z</time><extensions><speed>1.160231</speed><course>358.831299</course><hAcc>1.975433</hAcc><vAcc>0.609583</vAcc></extensions></trkpt>
      <trkpt lon="-3.049752" lat="52.710290"><ele>264.310852</ele><time>2022-01-15T11:23:08Z</time><extensions><speed>1.189314</speed><course>357.769165</course><hAcc>1.969715</hAcc><vAcc>0.611855</vAcc></extensions></trkpt>
      <trkpt lon="-3.049753" lat="52.710301"><ele>264.289886</ele><time>2022-01-15T11:23:09Z</time><extensions><speed>1.237685</speed><course>356.866333</course><hAcc>1.971279</hAcc><vAcc>0.613645</vAcc></extensions></trkpt>
      <trkpt lon="-3.049754" lat="52.710312"><ele>264.261505</ele><time>2022-01-15T11:23:10Z</time><extensions><speed>1.304962</speed><course>356.228394</course><hAcc>1.977482</hAcc><vAcc>0.614639</vAcc></extensions></trkpt>
      <trkpt lon="-3.049756" lat="52.710324"><ele>264.236084</ele><time>2022-01-15T11:23:11Z</time><extensions><speed>1.373794</speed><course>356.021088</course><hAcc>1.973673</hAcc><vAcc>0.614526</vAcc></extensions></trkpt>
      <trkpt lon="-3.049757" lat="52.710337"><ele>264.211151</ele><time>2022-01-15T11:23:12Z</time><extensions><speed>1.369276</speed><course>356.528046</course><hAcc>1.971333</hAcc><vAcc>0.612998</vAcc></extensions></trkpt>
      <trkpt lon="-3.049758" lat="52.710348"><ele>264.183929</ele><time>2022-01-15T11:23:13Z</time><extensions><speed>1.287925</speed><course>357.576141</course><hAcc>1.980258</hAcc><vAcc>0.609760</vAcc></extensions></trkpt>
      <trkpt lon="-3.049759" lat="52.710359"><ele>264.153748</ele><time>2022-01-15T11:23:14Z</time><extensions><speed>1.177965</speed><course>359.428345</course><hAcc>1.992819</hAcc><vAcc>0.604549</vAcc></extensions></trkpt>
      <trkpt lon="-3.049759" lat="52.710370"><ele>264.120453</ele><time>2022-01-15T11:23:15Z</time><extensions><speed>1.153748</speed><course>0.010197</course><hAcc>1.986608</hAcc><vAcc>0.597252</vAcc></extensions></trkpt>
      <trkpt lon="-3.049759" lat="52.710380"><ele>264.092804</ele><time>2022-01-15T11:23:16Z</time><extensions><speed>1.102617</speed><course>359.740356</course><hAcc>1.992847</hAcc><vAcc>0.587974</vAcc></extensions></trkpt>
      <trkpt lon="-3.049759" lat="52.710390"><ele>264.061279</ele><time>2022-01-15T11:23:17Z</time><extensions><speed>1.046811</speed><course>358.307922</course><hAcc>2.013814</hAcc><vAcc>0.577080</vAcc></extensions></trkpt>
      <trkpt lon="-3.049760" lat="52.710399"><ele>264.027924</ele><time>2022-01-15T11:23:18Z</time><extensions><speed>0.956107</speed><course>356.232391</course><hAcc>2.050322</hAcc><vAcc>0.565216</vAcc></extensions></trkpt>
      <trkpt lon="-3.049761" lat="52.710407"><ele>263.995117</ele><time>2022-01-15T11:23:19Z</time><extensions><speed>0.817570</speed><course>352.351562</course><hAcc>2.097390</hAcc><vAcc>0.553262</vAcc></extensions></trkpt>
      <trkpt lon="-3.049763" lat="52.710415"><ele>263.961060</ele><time>2022-01-15T11:23:20Z</time><extensions><speed>0.875589</speed><course>349.745850</course><hAcc>2.127312</hAcc><vAcc>0.542205</vAcc></extensions></trkpt>
      <trkpt lon="-3.049766" lat="52.710423"><ele>263.921021</ele><time>2022-01-15T11:23:21Z</time><extensions><speed>1.015274</speed><course>348.487549</course><hAcc>2.142256</hAcc><vAcc>0.532973</vAcc></extensions></trkpt>
      <trkpt lon="-3.049769" lat="52.710433"><ele>263.882751</ele><time>2022-01-15T11:23:22Z</time><extensions><speed>1.219391</speed><course>348.335052</course><hAcc>2.133206</hAcc><vAcc>0.526237</vAcc></extensions></trkpt>
      <trkpt lon="-3.049773" lat="52.710445"><ele>263.848358</ele><time>2022-01-15T11:23:23Z</time><extensions><speed>1.484994</speed><course>349.314178</course><hAcc>2.101582</hAcc><vAcc>0.522273</vAcc></extensions></trkpt>
      <trkpt lon="-3.049777" lat="52.710458"><ele>263.816284</ele><time>2022-01-15T11:23:24Z</time><extensions><speed>1.541605</speed><course>350.711182</course><hAcc>2.080435</hAcc><vAcc>0.520909</vAcc></extensions></trkpt>
      <trkpt lon="-3.049780" lat="52.710472"><ele>263.783600</ele><time>2022-01-15T11:23:25Z</time><extensions><speed>1.492226</speed><course>353.914307</course><hAcc>2.075870</hAcc><vAcc>0.521573</vAcc></extensions></trkpt>
      <trkpt lon="-3.049781" lat="52.710485"><ele>263.750885</ele><time>2022-01-15T11:23:26Z</time><extensions><speed>1.308470</speed><course>359.436401</course><hAcc>2.080231</hAcc><vAcc>0.523463</vAcc></extensions></trkpt>
      <trkpt lon="-3.049780" lat="52.710496"><ele>263.718933</ele><time>2022-01-15T11:23:27Z</time><extensions><speed>1.295515</speed><course>6.173956</course><hAcc>2.049255</hAcc><vAcc>0.525723</vAcc></extensions></trkpt>
      <trkpt lon="-3.049777" lat="52.710508"><ele>263.688171</ele><time>2022-01-15T11:23:28Z</time><extensions><speed>1.348926</speed><course>11.207231</course><hAcc>2.008392</hAcc><vAcc>0.527598</vAcc></extensions></trkpt>
      <trkpt lon="-3.049772" lat="52.710520"><ele>263.657471</ele><time>2022-01-15T11:23:29Z</time><extensions><speed>1.368615</speed><course>14.864072</course><hAcc>1.989588</hAcc><vAcc>0.528509</vAcc></extensions></trkpt>
      <trkpt lon="-3.049767" lat="52.710532"><ele>263.623108</ele><time>2022-01-15T11:23:30Z</time><extensions><speed>1.326652</speed><course>17.940483</course><hAcc>2.001509</hAcc><vAcc>0.527974</vAcc></extensions></trkpt>
      <trkpt lon="-3.049760" lat="52.710543"><ele>263.589233</ele><time>2022-01-15T11:23:31Z</time><extensions><speed>1.358892</speed><course>20.324488</course><hAcc>2.009149</hAcc><vAcc>0.525588</vAcc></extensions></trkpt>
      <trkpt lon="-3.049753" lat="52.710555"><ele>263.556946</ele><time>2022-01-15T11:23:32Z</time><extensions><speed>1.336825</speed><course>23.428238</course><hAcc>2.031852</hAcc><vAcc>0.521111</vAcc></extensions></trkpt>
      <trkpt lon="-3.049744" lat="52.710566"><ele>263.534271</ele><time>2022-01-15T11:23:33Z</time><extensions><speed>1.344768</speed><course>25.519178</course><hAcc>2.044661</hAcc><vAcc>0.514413</vAcc></extensions></trkpt>
      <trkpt lon="-3.049736" lat="52.710576"><ele>263.506317</ele><time>2022-01-15T11:23:34Z</time><extensions><speed>1.308026</speed><course>26.557350</course><hAcc>2.055086</hAcc><vAcc>0.505709</vAcc></extensions></trkpt>
      <trkpt lon="-3.049727" lat="52.710587"><ele>263.474579</ele><time>2022-01-15T11:23:35Z</time><extensions><speed>1.238254</speed><course>26.894846</course><hAcc>2.069846</hAcc><vAcc>0.495456</vAcc></extensions></trkpt>
      <trkpt lon="-3.049719" lat="52.710596"><ele>263.441071</ele><time>2022-01-15T11:23:36Z</time><extensions><speed>1.107535</speed><course>26.722635</course><hAcc>2.109463</hAcc><vAcc>0.484349</vAcc></extensions></trkpt>
      <trkpt lon="-3.049713" lat="52.710604"><ele>263.409485</ele><time>2022-01-15T11:23:37Z</time><extensions><speed>0.884525</speed><course>25.606993</course><hAcc>2.162096</hAcc><vAcc>0.473225</vAcc></extensions></trkpt>
      <trkpt lon="-3.049707" lat="52.710612"><ele>263.374695</ele><time>2022-01-15T11:23:38Z</time><extensions><speed>0.934851</speed><course>24.684534</course><hAcc>2.178578</hAcc><vAcc>0.462933</vAcc></extensions></trkpt>
      <trkpt lon="-3.049701" lat="52.710620"><ele>263.328156</ele><time>2022-01-15T11:23:39Z</time><extensions><speed>1.043468</speed><course>23.873817</course><hAcc>2.184575</hAcc><vAcc>0.454337</vAcc></extensions></trkpt>
      <trkpt lon="-3.049694" lat="52.710629"><ele>263.257324</ele><time>2022-01-15T11:23:40Z</time><extensions><speed>1.189005</speed><course>23.024513</course><hAcc>2.186139</hAcc><vAcc>0.447984</vAcc></extensions></trkpt>
      <trkpt lon="-3.049687" lat="52.710640"><ele>263.181580</ele><time>2022-01-15T11:23:41Z</time><extensions><speed>1.411099</speed><course>22.789598</course><hAcc>2.180043</hAcc><vAcc>0.444023</vAcc></extensions></trkpt>
      <trkpt lon="-3.049679" lat="52.710652"><ele>263.098663</ele><time>2022-01-15T11:23:42Z</time><extensions><speed>1.479056</speed><course>22.039536</course><hAcc>2.181802</hAcc><vAcc>0.441690</vAcc></extensions></trkpt>
      <trkpt lon="-3.049671" lat="52.710665"><ele>263.029663</ele><time>2022-01-15T11:23:43Z</time><extensions><speed>1.492654</speed><course>21.366470</course><hAcc>2.188139</hAcc><vAcc>0.439664</vAcc></extensions></trkpt>
      <trkpt lon="-3.049663" lat="52.710677"><ele>262.944336</ele><time>2022-01-15T11:23:44Z</time><extensions><speed>1.504313</speed><course>20.630201</course><hAcc>2.187588</hAcc><vAcc>0.436721</vAcc></extensions></trkpt>
      <trkpt lon="-3.049655" lat="52.710690"><ele>262.852264</ele><time>2022-01-15T11:23:45Z</time><extensions><speed>1.500312</speed><course>19.516552</course><hAcc>2.186072</hAcc><vAcc>0.432302</vAcc></extensions></trkpt>
      <trkpt lon="-3.049648" lat="52.710703"><ele>262.781036</ele><time>2022-01-15T11:23:46Z</time><extensions><speed>1.448118</speed><course>17.557867</course><hAcc>2.192742</hAcc><vAcc>0.426507</vAcc></extensions></trkpt>
      <trkpt lon="-3.049643" lat="52.710715"><ele>262.703308</ele><time>2022-01-15T11:23:47Z</time><extensions><speed>1.376329</speed><course>15.257114</course><hAcc>2.206196</hAcc><vAcc>0.419950</vAcc></extensions></trkpt>
      <trkpt lon="-3.049638" lat="52.710727"><ele>262.620300</ele><time>2022-01-15T11:23:48Z</time><extensions><speed>1.333978</speed><course>12.054894</course><hAcc>2.220458</hAcc><vAcc>0.413497</vAcc></extensions></trkpt>
      <trkpt lon="-3.049634" lat="52.710739"><ele>262.542633</ele><time>2022-01-15T11:23:49Z</time><extensions><speed>1.313265</speed><course>8.762086</course><hAcc>2.231484</hAcc><vAcc>0.407922</vAcc></extensions></trkpt>
      <trkpt lon="-3.049632" lat="52.710751"><ele>262.473785</ele><time>2022-01-15T11:23:50Z</time><extensions><speed>1.335118</speed><course>6.185803</course><hAcc>2.232799</hAcc><vAcc>0.403689</vAcc></extensions></trkpt>
      <trkpt lon="-3.049630" lat="52.710763"><ele>262.410492</ele><time>2022-01-15T11:23:51Z</time><extensions><speed>1.409416</speed><course>4.054824</course><hAcc>2.220586</hAcc><vAcc>0.401056</vAcc></extensions></trkpt>
      <trkpt lon="-3.049629" lat="52.710776"><ele>262.343201</ele><time>2022-01-15T11:23:52Z</time><extensions><speed>1.471371</speed><course>3.161588</course><hAcc>2.215109</hAcc><vAcc>0.400312</vAcc></extensions></trkpt>
      <trkpt lon="-3.049628" lat="52.710790"><ele>262.277374</ele><time>2022-01-15T11:23:53Z</time><extensions><speed>1.554522</speed><course>2.242896</course><hAcc>2.205390</hAcc><vAcc>0.401817</vAcc></extensions></trkpt>
      <trkpt lon="-3.049627" lat="52.710804"><ele>262.216248</ele><time>2022-01-15T11:23:54Z</time><extensions><speed>1.625258</speed><course>1.076619</course><hAcc>2.189888</hAcc><vAcc>0.405885</vAcc></extensions></trkpt>
      <trkpt lon="-3.049627" lat="52.710819"><ele>262.160095</ele><time>2022-01-15T11:23:55Z</time><extensions><speed>1.637548</speed><course>359.736633</course><hAcc>2.173592</hAcc><vAcc>0.412597</vAcc></extensions></trkpt>
      <trkpt lon="-3.049627" lat="52.710833"><ele>262.106873</ele><time>2022-01-15T11:23:56Z</time><extensions><speed>1.606575</speed><course>358.993225</course><hAcc>2.156713</hAcc><vAcc>0.421685</vAcc></extensions></trkpt>
      <trkpt lon="-3.049628" lat="52.710848"><ele>262.060822</ele><time>2022-01-15T11:23:57Z</time><extensions><speed>1.594581</speed><course>358.209869</course><hAcc>2.140504</hAcc><vAcc>0.432526</vAcc></extensions></trkpt>
      <trkpt lon="-3.049628" lat="52.710862"><ele>262.027802</ele><time>2022-01-15T11:23:58Z</time><extensions><speed>1.594063</speed><course>357.473755</course><hAcc>2.122390</hAcc><vAcc>0.444267</vAcc></extensions></trkpt>
      <trkpt lon="-3.049630" lat="52.710876"><ele>262.006256</ele><time>2022-01-15T11:23:59Z</time><extensions><speed>1.541630</speed><course>356.804962</course><hAcc>2.104970</hAcc><vAcc>0.456101</vAcc></extensions></trkpt>
      <trkpt lon="-3.049631" lat="52.710890"><ele>261.998627</ele><time>2022-01-15T11:24:00Z</time><extensions><speed>1.438428</speed><course>355.480408</course><hAcc>2.091537</hAcc><vAcc>0.467445</vAcc></extensions></trkpt>
      <trkpt lon="-3.049633" lat="52.710902"><ele>262.006927</ele><time>2022-01-15T11:24:01Z</time><extensions><speed>1.322224</speed><course>352.360107</course><hAcc>2.078185</hAcc><vAcc>0.477990</vAcc></extensions></trkpt>
      <trkpt lon="-3.049637" lat="52.710913"><ele>262.028839</ele><time>2022-01-15T11:24:02Z</time><extensions><speed>1.253585</speed><course>348.287567</course><hAcc>2.060262</hAcc><vAcc>0.487673</vAcc></extensions></trkpt>
      <trkpt lon="-3.049641" lat="52.710924"><ele>262.063385</ele><time>2022-01-15T11:24:03Z</time><extensions><speed>1.243638</speed><course>343.823273</course><hAcc>2.037594</hAcc><vAcc>0.496594</vAcc></extensions></trkpt>
      <trkpt lon="-3.049647" lat="52.710935"><ele>262.111633</ele><time>2022-01-15T11:24:04Z</time><extensions><speed>1.269539</speed><course>340.486786</course><hAcc>2.028887</hAcc><vAcc>0.504894</vAcc></extensions></trkpt>
      <trkpt lon="-3.049654" lat="52.710946"><ele>262.174683</ele><time>2022-01-15T11:24:05Z</time><extensions><speed>1.305275</speed><course>337.036316</course><hAcc>2.027900</hAcc><vAcc>0.512594</vAcc></extensions></trkpt>
      <trkpt lon="-3.049662" lat="52.710957"><ele>262.250854</ele><time>2022-01-15T11:24:06Z</time><extensions><speed>1.368087</speed><course>335.444031</course><hAcc>2.009185</hAcc><vAcc>0.519526</vAcc></extensions></trkpt>
      <trkpt lon="-3.049670" lat="52.710968"><ele>262.333710</ele><time>2022-01-15T11:24:07Z</time><extensions><speed>1.390550</speed><course>334.243988</course><hAcc>1.990042</hAcc><vAcc>0.525479</vAcc></extensions></trkpt>
      <trkpt lon="-3.049679" lat="52.710979"><ele>262.426239</ele><time>2022-01-15T11:24:08Z</time><extensions><speed>1.365229</speed><course>332.419098</course><hAcc>1.977468</hAcc><vAcc>0.530352</vAcc></extensions></trkpt>
      <trkpt lon="-3.049689" lat="52.710990"><ele>262.526306</ele><time>2022-01-15T11:24:09Z</time><extensions><speed>1.323998</speed><course>331.962799</course><hAcc>1.970736</hAcc><vAcc>0.534174</vAcc></extensions></trkpt>
      <trkpt lon="-3.049698" lat="52.711001"><ele>262.635620</ele><time>2022-01-15T11:24:10Z</time><extensions><speed>1.298763</speed><course>332.254547</course><hAcc>1.970186</hAcc><vAcc>0.537091</vAcc></extensions></trkpt>
      <trkpt lon="-3.049707" lat="52.711011"><ele>262.750763</ele><time>2022-01-15T11:24:11Z</time><extensions><speed>1.269313</speed><course>333.083771</course><hAcc>1.966608</hAcc><vAcc>0.539280</vAcc></extensions></trkpt>
      <trkpt lon="-3.049715" lat="52.711021"><ele>262.872437</ele><time>2022-01-15T11:24:12Z</time><extensions><speed>1.241295</speed><course>333.437897</course><hAcc>1.961704</hAcc><vAcc>0.540886</vAcc></extensions></trkpt>
      <trkpt lon="-3.049723" lat="52.711031"><ele>263.001129</ele><time>2022-01-15T11:24:13Z</time><extensions><speed>1.205177</speed><course>333.123352</course><hAcc>1.959738</hAcc><vAcc>0.542010</vAcc></extensions></trkpt>
      <trkpt lon="-3.049731" lat="52.711040"><ele>263.134705</ele><time>2022-01-15T11:24:14Z</time><extensions><speed>1.184007</speed><course>331.960052</course><hAcc>1.962185</hAcc><vAcc>0.542726</vAcc></extensions></trkpt>
      <trkpt lon="-3.049740" lat="52.711050"><ele>263.271179</ele><time>2022-01-15T11:24:15Z</time><extensions><speed>1.155192</speed><course>330.699249</course><hAcc>1.961573</hAcc><vAcc>0.543086</vAcc></extensions></trkpt>
      <trkpt lon="-3.049748" lat="52.711058"><ele>263.408936</ele><time>2022-01-15T11:24:16Z</time><extensions><speed>1.126742</speed><course>329.278473</course><hAcc>1.959696</hAcc><vAcc>0.543241</vAcc></extensions></trkpt>
      <trkpt lon="-3.049757" lat="52.711067"><ele>263.551239</ele><time>2022-01-15T11:24:17Z</time><extensions><speed>1.105830</speed><course>328.303040</course><hAcc>1.963146</hAcc><vAcc>0.543471</vAcc></extensions></trkpt>
      <trkpt lon="-3.049765" lat="52.711075"><ele>263.697479</ele><time>2022-01-15T11:24:18Z</time><extensions><speed>1.088732</speed><course>328.067963</course><hAcc>1.969902</hAcc><vAcc>0.544107</vAcc></extensions></trkpt>
      <trkpt lon="-3.049774" lat="52.711084"><ele>263.850891</ele><time>2022-01-15T11:24:19Z</time><extensions><speed>1.095885</speed><course>328.548615</course><hAcc>1.968211</hAcc><vAcc>0.545443</vAcc></extensions></trkpt>
      <trkpt lon="-3.049782" lat="52.711092"><ele>264.010712</ele><time>2022-01-15T11:24:20Z</time><extensions><speed>1.063416</speed><course>328.486206</course><hAcc>1.964352</hAcc><vAcc>0.547684</vAcc></extensions></trkpt>
      <trkpt lon="-3.049790" lat="52.711100"><ele>264.167419</ele><time>2022-01-15T11:24:21Z</time><extensions><speed>0.947355</speed><course>327.387115</course><hAcc>1.956475</hAcc><vAcc>0.550976</vAcc></extensions></trkpt>
      <trkpt lon="-3.049798" lat="52.711107"><ele>264.323242</ele><time>2022-01-15T11:24:22Z</time><extensions><speed>0.942471</speed><course>325.330963</course><hAcc>1.960827</hAcc><vAcc>0.555417</vAcc></extensions></trkpt>
      <trkpt lon="-3.049806" lat="52.711114"><ele>264.478088</ele><time>2022-01-15T11:24:23Z</time><extensions><speed>0.944499</speed><course>323.059143</course><hAcc>1.962855</hAcc><vAcc>0.560984</vAcc></extensions></trkpt>
      <trkpt lon="-3.049815" lat="52.711120"><ele>264.637848</ele><time>2022-01-15T11:24:24Z</time><extensions><speed>0.934712</speed><course>320.773224</course><hAcc>1.952811</hAcc><vAcc>0.567577</vAcc></extensions></trkpt>
      <trkpt lon="-3.049824" lat="52.711127"><ele>264.795868</ele><time>2022-01-15T11:24:25Z</time><extensions><speed>0.950443</speed><course>320.186249</course><hAcc>1.946674</hAcc><vAcc>0.575049</vAcc></extensions></trkpt>
      <trkpt lon="-3.049833" lat="52.711133"><ele>264.959991</ele><time>2022-01-15T11:24:26Z</time><extensions><speed>0.945592</speed><course>318.957642</course><hAcc>1.943090</hAcc><vAcc>0.583170</vAcc></extensions></trkpt>
      <trkpt lon="-3.049842" lat="52.711140"><ele>265.119690</ele><time>2022-01-15T11:24:27Z</time><extensions><speed>0.958798</speed><course>318.280853</course><hAcc>1.941379</hAcc><vAcc>0.591640</vAcc></extensions></trkpt>
      <trkpt lon="-3.049852" lat="52.711146"><ele>265.277374</ele><time>2022-01-15T11:24:28Z</time><extensions><speed>0.963656</speed><course>319.141968</course><hAcc>1.941954</hAcc><vAcc>0.600060</vAcc></extensions></trkpt>
      <trkpt lon="-3.049861" lat="52.711153"><ele>265.428467</ele><time>2022-01-15T11:24:29Z</time><extensions><speed>0.926899</speed><course>321.958649</course><hAcc>1.938172</hAcc><vAcc>0.607927</vAcc></extensions></trkpt>
      <trkpt lon="-3.049869" lat="52.711159"><ele>265.571899</ele><time>2022-01-15T11:24:30Z</time><extensions><speed>0.899850</speed><course>325.521545</course><hAcc>1.930556</hAcc><vAcc>0.614727</vAcc></extensions></trkpt>
      <trkpt lon="-3.049876" lat="52.711166"><ele>265.732910</ele><time>2022-01-15T11:24:31Z</time><extensions><speed>0.889058</speed><course>329.090088</course><hAcc>1.917280</hAcc><vAcc>0.620061</vAcc></extensions></trkpt>
      <trkpt lon="-3.049882" lat="52.711173"><ele>265.890869</ele><time>2022-01-15T11:24:32Z</time><extensions><speed>0.915860</speed><course>330.986633</course><hAcc>1.917117</hAcc><vAcc>0.623606</vAcc></extensions></trkpt>
      <trkpt lon="-3.049889" lat="52.711181"><ele>266.050446</ele><time>2022-01-15T11:24:33Z</time><extensions><speed>0.943070</speed><course>330.029724</course><hAcc>1.930556</hAcc><vAcc>0.625199</vAcc></extensions></trkpt>
      <trkpt lon="-3.049896" lat="52.711188"><ele>266.212189</ele><time>2022-01-15T11:24:34Z</time><extensions><speed>0.945945</speed><course>328.171936</course><hAcc>1.943589</hAcc><vAcc>0.624746</vAcc></extensions></trkpt>
      <trkpt lon="-3.049904" lat="52.711195"><ele>266.366302</ele><time>2022-01-15T11:24:35Z</time><extensions><speed>0.935324</speed><course>325.762665</course><hAcc>1.948921</hAcc><vAcc>0.622245</vAcc></extensions></trkpt>
      <trkpt lon="-3.049912" lat="52.711202"><ele>266.511810</ele><time>2022-01-15T11:24:36Z</time><extensions><speed>0.901630</speed><course>322.922882</course><hAcc>1.948354</hAcc><vAcc>0.617788</vAcc></extensions></trkpt>
      <trkpt lon="-3.049920" lat="52.711208"><ele>266.652802</ele><time>2022-01-15T11:24:37Z</time><extensions><speed>0.903996</speed><course>320.952576</course><hAcc>1.941774</hAcc><vAcc>0.611580</vAcc></extensions></trkpt>
      <trkpt lon="-3.049929" lat="52.711214"><ele>266.790405</ele><time>2022-01-15T11:24:38Z</time><extensions><speed>0.914906</speed><course>320.402557</course><hAcc>1.951746</hAcc><vAcc>0.603948</vAcc></extensions></trkpt>
      <trkpt lon="-3.049937" lat="52.711221"><ele>266.927795</ele><time>2022-01-15T11:24:39Z</time><extensions><speed>0.911486</speed><course>321.355225</course><hAcc>1.977375</hAcc><vAcc>0.595337</vAcc></extensions></trkpt>
      <trkpt lon="-3.049946" lat="52.711227"><ele>267.069916</ele><time>2022-01-15T11:24:40Z</time><extensions><speed>0.879549</speed><course>322.157013</course><hAcc>1.991349</hAcc><vAcc>0.586304</vAcc></extensions></trkpt>
      <trkpt lon="-3.049953" lat="52.711233"><ele>267.211060</ele><time>2022-01-15T11:24:41Z</time><extensions><speed>0.846676</speed><course>323.619385</course><hAcc>2.002222</hAcc><vAcc>0.577500</vAcc></extensions></trkpt>
      <trkpt lon="-3.049961" lat="52.711240"><ele>267.351257</ele><time>2022-01-15T11:24:42Z</time><extensions><speed>0.886904</speed><course>323.282532</course><hAcc>1.997310</hAcc><vAcc>0.569582</vAcc></extensions></trkpt>
      <trkpt lon="-3.049970" lat="52.711246"><ele>267.493042</ele><time>2022-01-15T11:24:43Z</time><extensions><speed>0.953703</speed><course>322.590271</course><hAcc>2.005363</hAcc><vAcc>0.563173</vAcc></extensions></trkpt>
      <trkpt lon="-3.049979" lat="52.711253"><ele>267.632629</ele><time>2022-01-15T11:24:44Z</time><extensions><speed>1.031505</speed><course>321.226318</course><hAcc>2.020056</hAcc><vAcc>0.558817</vAcc></extensions></trkpt>
      <trkpt lon="-3.049989" lat="52.711261"><ele>267.770508</ele><time>2022-01-15T11:24:45Z</time><extensions><speed>1.130258</speed><course>317.716705</course><hAcc>2.010983</hAcc><vAcc>0.556946</vAcc></extensions></trkpt>
      <trkpt lon="-3.050002" lat="52.711268"><ele>267.914795</ele><time>2022-01-15T11:24:46Z</time><extensions><speed>1.221729</speed><course>314.584137</course><hAcc>2.000162</hAcc><vAcc>0.557868</vAcc></extensions></trkpt>
      <trkpt lon="-3.050015" lat="52.711276"><ele>268.064362</ele><time>2022-01-15T11:24:47Z</time><extensions><speed>1.277066</speed><course>311.971344</course><hAcc>1.990706</hAcc><vAcc>0.561775</vAcc></extensions></trkpt>
      <trkpt lon="-3.050030" lat="52.711283"><ele>268.224365</ele><time>2022-01-15T11:24:48Z</time><extensions><speed>1.307183</speed><course>308.707214</course><hAcc>1.970837</hAcc><vAcc>0.568715</vAcc></extensions></trkpt>
      <trkpt lon="-3.050046" lat="52.711290"><ele>268.393280</ele><time>2022-01-15T11:24:49Z</time><extensions><speed>1.293240</speed><course>306.101898</course><hAcc>1.951898</hAcc><vAcc>0.578577</vAcc></extensions></trkpt>
      <trkpt lon="-3.050062" lat="52.711297"><ele>268.565918</ele><time>2022-01-15T11:24:50Z</time><extensions><speed>1.308231</speed><course>300.953949</course><hAcc>1.921139</hAcc><vAcc>0.591043</vAcc></extensions></trkpt>
      <trkpt lon="-3.050079" lat="52.711302"><ele>268.741119</ele><time>2022-01-15T11:24:51Z</time><extensions><speed>1.281751</speed><course>297.514343</course><hAcc>1.912358</hAcc><vAcc>0.605558</vAcc></extensions></trkpt>
      <trkpt lon="-3.050095" lat="52.711307"><ele>268.922180</ele><time>2022-01-15T11:24:52Z</time><extensions><speed>1.199420</speed><course>294.531952</course><hAcc>1.917527</hAcc><vAcc>0.621445</vAcc></extensions></trkpt>
      <trkpt lon="-3.050112" lat="52.711311"><ele>269.102509</ele><time>2022-01-15T11:24:53Z</time><extensions><speed>1.256241</speed><course>286.965363</course><hAcc>1.885959</hAcc><vAcc>0.637975</vAcc></extensions></trkpt>
      <trkpt lon="-3.050131" lat="52.711314"><ele>269.291656</ele><time>2022-01-15T11:24:54Z</time><extensions><speed>1.297261</speed><course>282.500549</course><hAcc>1.860223</hAcc><vAcc>0.654524</vAcc></extensions></trkpt>
      <trkpt lon="-3.050150" lat="52.711316"><ele>269.484497</ele><time>2022-01-15T11:24:55Z</time><extensions><speed>1.334419</speed><course>280.083466</course><hAcc>1.849664</hAcc><vAcc>0.670679</vAcc></extensions></trkpt>
      <trkpt lon="-3.050169" lat="52.711318"><ele>269.685730</ele><time>2022-01-15T11:24:56Z</time><extensions><speed>1.284903</speed><course>275.825134</course><hAcc>1.846617</hAcc><vAcc>0.686078</vAcc></extensions></trkpt>
      <trkpt lon="-3.050188" lat="52.711318"><ele>269.883728</ele><time>2022-01-15T11:24:57Z</time><extensions><speed>1.199265</speed><course>270.350677</course><hAcc>1.843131</hAcc><vAcc>0.700514</vAcc></extensions></trkpt>
      <trkpt lon="-3.050205" lat="52.711318"><ele>270.077515</ele><time>2022-01-15T11:24:58Z</time><extensions><speed>1.139015</speed><course>265.806274</course><hAcc>1.835153</hAcc><vAcc>0.713746</vAcc></extensions></trkpt>
      <trkpt lon="-3.050221" lat="52.711317"><ele>270.255219</ele><time>2022-01-15T11:24:59Z</time><extensions><speed>1.078610</speed><course>262.050873</course><hAcc>1.823279</hAcc><vAcc>0.725645</vAcc></extensions></trkpt>
      <trkpt lon="-3.050237" lat="52.711315"><ele>270.443634</ele><time>2022-01-15T11:25:00Z</time><extensions><speed>1.043857</speed><course>257.934906</course><hAcc>1.808271</hAcc><vAcc>0.736066</vAcc></extensions></trkpt>
      <trkpt lon="-3.050251" lat="52.711313"><ele>270.640106</ele><time>2022-01-15T11:25:01Z</time><extensions><speed>0.926778</speed><course>256.612671</course><hAcc>1.818581</hAcc><vAcc>0.744886</vAcc></extensions></trkpt>
      <trkpt lon="-3.050263" lat="52.711311"><ele>270.828308</ele><time>2022-01-15T11:25:02Z</time><extensions><speed>0.721697</speed><course>254.469666</course><hAcc>1.843398</hAcc><vAcc>0.752082</vAcc></extensions></trkpt>
      <trkpt lon="-3.050275" lat="52.711310"><ele>271.019470</ele><time>2022-01-15T11:25:03Z</time><extensions><speed>0.908109</speed><course>258.875671</course><hAcc>1.819321</hAcc><vAcc>0.757659</vAcc></extensions></trkpt>
      <trkpt lon="-3.050288" lat="52.711308"><ele>271.200409</ele><time>2022-01-15T11:25:04Z</time><extensions><speed>0.930301</speed><course>261.851501</course><hAcc>1.811041</hAcc><vAcc>0.761292</vAcc></extensions></trkpt>
      <trkpt lon="-3.050302" lat="52.711307"><ele>271.389557</ele><time>2022-01-15T11:25:05Z</time><extensions><speed>0.882435</speed><course>266.028625</course><hAcc>1.813395</hAcc><vAcc>0.763013</vAcc></extensions></trkpt>
      <trkpt lon="-3.050314" lat="52.711307"><ele>271.578979</ele><time>2022-01-15T11:25:06Z</time><extensions><speed>0.845468</speed><course>273.615814</course><hAcc>1.810192</hAcc><vAcc>0.762905</vAcc></extensions></trkpt>
      <trkpt lon="-3.050326" lat="52.711309"><ele>271.763977</ele><time>2022-01-15T11:25:07Z</time><extensions><speed>0.783012</speed><course>286.261963</course><hAcc>1.822165</hAcc><vAcc>0.761123</vAcc></extensions></trkpt>
      <trkpt lon="-3.050337" lat="52.711311"><ele>271.940186</ele><time>2022-01-15T11:25:08Z</time><extensions><speed>0.773315</speed><course>294.337677</course><hAcc>1.832849</hAcc><vAcc>0.757722</vAcc></extensions></trkpt>
      <trkpt lon="-3.050347" lat="52.711314"><ele>272.129333</ele><time>2022-01-15T11:25:09Z</time><extensions><speed>0.751675</speed><course>298.298615</course><hAcc>1.829242</hAcc><vAcc>0.752606</vAcc></extensions></trkpt>
      <trkpt lon="-3.050357" lat="52.711318"><ele>272.323120</ele><time>2022-01-15T11:25:10Z</time><extensions><speed>0.715231</speed><course>303.213593</course><hAcc>1.820809</hAcc><vAcc>0.745674</vAcc></extensions></trkpt>
      <trkpt lon="-3.050365" lat="52.711321"><ele>272.511810</ele><time>2022-01-15T11:25:11Z</time><extensions><speed>0.648372</speed><course>305.423950</course><hAcc>1.827732</hAcc><vAcc>0.737044</vAcc></extensions></trkpt>
      <trkpt lon="-3.050372" lat="52.711324"><ele>272.699280</ele><time>2022-01-15T11:25:12Z</time><extensions><speed>0.522534</speed><course>303.118042</course><hAcc>1.848090</hAcc><vAcc>0.726751</vAcc></extensions></trkpt>
      <trkpt lon="-3.050379" lat="52.711327"><ele>272.892029</ele><time>2022-01-15T11:25:13Z</time><extensions><speed>0.531828</speed><course>303.136658</course><hAcc>1.854872</hAcc><vAcc>0.714952</vAcc></extensions></trkpt>
      <trkpt lon="-3.050386" lat="52.711330"><ele>273.081055</ele><time>2022-01-15T11:25:14Z</time><extensions><speed>0.572077</speed><course>304.156555</course><hAcc>1.857276</hAcc><vAcc>0.701888</vAcc></extensions></trkpt>
      <trkpt lon="-3.050393" lat="52.711333"><ele>273.267548</ele><time>2022-01-15T11:25:15Z</time><extensions><speed>0.595763</speed><course>304.700562</course><hAcc>1.858338</hAcc><vAcc>0.687902</vAcc></extensions></trkpt>
      <trkpt lon="-3.050401" lat="52.711336"><ele>273.451080</ele><time>2022-01-15T11:25:16Z</time><extensions><speed>0.618427</speed><course>303.750214</course><hAcc>1.846530</hAcc><vAcc>0.673392</vAcc></extensions></trkpt>
      <trkpt lon="-3.050409" lat="52.711339"><ele>273.631012</ele><time>2022-01-15T11:25:17Z</time><extensions><speed>0.606182</speed><course>302.447235</course><hAcc>1.828146</hAcc><vAcc>0.658738</vAcc></extensions></trkpt>
      <trkpt lon="-3.050417" lat="52.711341"><ele>273.804779</ele><time>2022-01-15T11:25:18Z</time><extensions><speed>0.538056</speed><course>300.891724</course><hAcc>1.820771</hAcc><vAcc>0.644281</vAcc></extensions></trkpt>
      <trkpt lon="-3.050423" lat="52.711344"><ele>273.972809</ele><time>2022-01-15T11:25:19Z</time><extensions><speed>0.383131</speed><course>298.439270</course><hAcc>1.834857</hAcc><vAcc>0.630345</vAcc></extensions></trkpt>
      <trkpt lon="-3.050428" lat="52.711345"><ele>274.137909</ele><time>2022-01-15T11:25:20Z</time><extensions><speed>0.348674</speed><course>294.883301</course><hAcc>1.820701</hAcc><vAcc>0.617265</vAcc></extensions></trkpt>
      <trkpt lon="-3.050433" lat="52.711346"><ele>274.299622</ele><time>2022-01-15T11:25:21Z</time><extensions><speed>0.339995</speed><course>292.229858</course><hAcc>1.801281</hAcc><vAcc>0.605358</vAcc></extensions></trkpt>
      <trkpt lon="-3.050438" lat="52.711348"><ele>274.456116</ele><time>2022-01-15T11:25:22Z</time><extensions><speed>0.353466</speed><course>290.533997</course><hAcc>1.783442</hAcc><vAcc>0.594895</vAcc></extensions></trkpt>
      <trkpt lon="-3.050443" lat="52.711349"><ele>274.609253</ele><time>2022-01-15T11:25:23Z</time><extensions><speed>0.342898</speed><course>288.825378</course><hAcc>1.779458</hAcc><vAcc>0.586097</vAcc></extensions></trkpt>
      <trkpt lon="-3.050448" lat="52.711350"><ele>274.762970</ele><time>2022-01-15T11:25:24Z</time><extensions><speed>0.334378</speed><course>287.505707</course><hAcc>1.782117</hAcc><vAcc>0.579020</vAcc></extensions></trkpt>
      <trkpt lon="-3.050453" lat="52.711351"><ele>274.915344</ele><time>2022-01-15T11:25:25Z</time><extensions><speed>0.327206</speed><course>287.657684</course><hAcc>1.790290</hAcc><vAcc>0.573554</vAcc></extensions></trkpt>
      <trkpt lon="-3.050457" lat="52.711352"><ele>275.063934</ele><time>2022-01-15T11:25:26Z</time><extensions><speed>0.321625</speed><course>288.992584</course><hAcc>1.805199</hAcc><vAcc>0.569500</vAcc></extensions></trkpt>
      <trkpt lon="-3.050462" lat="52.711352"><ele>275.209900</ele><time>2022-01-15T11:25:27Z</time><extensions><speed>0.316275</speed><course>290.228088</course><hAcc>1.830800</hAcc><vAcc>0.566616</vAcc></extensions></trkpt>
      <trkpt lon="-3.050466" lat="52.711354"><ele>275.353333</ele><time>2022-01-15T11:25:28Z</time><extensions><speed>0.308593</speed><course>291.810303</course><hAcc>1.867807</hAcc><vAcc>0.564587</vAcc></extensions></trkpt>
      <trkpt lon="-3.050470" lat="52.711355"><ele>275.492615</ele><time>2022-01-15T11:25:29Z</time><extensions><speed>0.369766</speed><course>295.932861</course><hAcc>1.889501</hAcc><vAcc>0.563042</vAcc></extensions></trkpt>
      <trkpt lon="-3.050477" lat="52.711357"><ele>275.631256</ele><time>2022-01-15T11:25:30Z</time><extensions><speed>0.599245</speed><course>301.035583</course><hAcc>1.881892</hAcc><vAcc>0.561626</vAcc></extensions></trkpt>
      <trkpt lon="-3.050485" lat="52.711360"><ele>275.768921</ele><time>2022-01-15T11:25:31Z</time><extensions><speed>0.720943</speed><course>305.778198</course><hAcc>1.906332</hAcc><vAcc>0.559990</vAcc></extensions></trkpt>
      <trkpt lon="-3.050493" lat="52.711364"><ele>275.901428</ele><time>2022-01-15T11:25:32Z</time><extensions><speed>0.712072</speed><course>310.092712</course><hAcc>1.946869</hAcc><vAcc>0.557805</vAcc></extensions></trkpt>
      <trkpt lon="-3.050500" lat="52.711368"><ele>276.029938</ele><time>2022-01-15T11:25:33Z</time><extensions><speed>0.606508</speed><course>314.751556</course><hAcc>1.972985</hAcc><vAcc>0.554855</vAcc></extensions></trkpt>
      <trkpt lon="-3.050505" lat="52.711372"><ele>276.152496</ele><time>2022-01-15T11:25:34Z</time><extensions><speed>0.458963</speed><course>326.055206</course><hAcc>2.006837</hAcc><vAcc>0.551253</vAcc></extensions></trkpt>
      <trkpt lon="-3.050508" lat="52.711375"><ele>276.268372</ele><time>2022-01-15T11:25:35Z</time><extensions><speed>0.327218</speed><course>347.909210</course><hAcc>2.055431</hAcc><vAcc>0.547376</vAcc></extensions></trkpt>
      <trkpt lon="-3.050508" lat="52.711378"><ele>276.387909</ele><time>2022-01-15T11:25:36Z</time><extensions><speed>0.322708</speed><course>4.602782</course><hAcc>2.087456</hAcc><vAcc>0.543713</vAcc></extensions></trkpt>
      <trkpt lon="-3.050507" lat="52.711382"><ele>276.511200</ele><time>2022-01-15T11:25:37Z</time><extensions><speed>0.409395</speed><course>11.019457</course><hAcc>2.093293</hAcc><vAcc>0.540733</vAcc></extensions></trkpt>
      <trkpt lon="-3.050506" lat="52.711386"><ele>276.637756</ele><time>2022-01-15T11:25:38Z</time><extensions><speed>0.516194</speed><course>13.968479</course><hAcc>2.099589</hAcc><vAcc>0.538793</vAcc></extensions></trkpt>
      <trkpt lon="-3.050503" lat="52.711391"><ele>276.769714</ele><time>2022-01-15T11:25:39Z</time><extensions><speed>0.680046</speed><course>17.311094</course><hAcc>2.104161</hAcc><vAcc>0.538025</vAcc></extensions></trkpt>
      <trkpt lon="-3.050499" lat="52.711398"><ele>276.910614</ele><time>2022-01-15T11:25:40Z</time><extensions><speed>0.956364</speed><course>21.024517</course><hAcc>2.103339</hAcc><vAcc>0.538298</vAcc></extensions></trkpt>
      <trkpt lon="-3.050494" lat="52.711407"><ele>277.060303</ele><time>2022-01-15T11:25:41Z</time><extensions><speed>1.131888</speed><course>19.296251</course><hAcc>2.098155</hAcc><vAcc>0.539328</vAcc></extensions></trkpt>
      <trkpt lon="-3.050489" lat="52.711417"><ele>277.215149</ele><time>2022-01-15T11:25:42Z</time><extensions><speed>1.232236</speed><course>18.039066</course><hAcc>2.093696</hAcc><vAcc>0.540756</vAcc></extensions></trkpt>
      <trkpt lon="-3.050483" lat="52.711428"><ele>277.380402</ele><time>2022-01-15T11:25:43Z</time><extensions><speed>1.315685</speed><course>16.932095</course><hAcc>2.083693</hAcc><vAcc>0.542140</vAcc></extensions></trkpt>
      <trkpt lon="-3.050477" lat="52.711439"><ele>277.559509</ele><time>2022-01-15T11:25:44Z</time><extensions><speed>1.355207</speed><course>16.912529</course><hAcc>2.074273</hAcc><vAcc>0.542983</vAcc></extensions></trkpt>
      <trkpt lon="-3.050472" lat="52.711451"><ele>277.750977</ele><time>2022-01-15T11:25:45Z</time><extensions><speed>1.266749</speed><course>15.955095</course><hAcc>2.074255</hAcc><vAcc>0.542893</vAcc></extensions></trkpt>
      <trkpt lon="-3.050467" lat="52.711461"><ele>277.949982</ele><time>2022-01-15T11:25:46Z</time><extensions><speed>1.107708</speed><course>15.184071</course><hAcc>2.090904</hAcc><vAcc>0.541563</vAcc></extensions></trkpt>
      <trkpt lon="-3.050463" lat="52.711470"><ele>278.159668</ele><time>2022-01-15T11:25:47Z</time><extensions><speed>0.967498</speed><course>15.400369</course><hAcc>2.110275</hAcc><vAcc>0.538737</vAcc></extensions></trkpt>
      <trkpt lon="-3.050459" lat="52.711478"><ele>278.377960</ele><time>2022-01-15T11:25:48Z</time><extensions><speed>0.872949</speed><course>16.145958</course><hAcc>2.129464</hAcc><vAcc>0.534220</vAcc></extensions></trkpt>
      <trkpt lon="-3.050456" lat="52.711485"><ele>278.598969</ele><time>2022-01-15T11:25:49Z</time><extensions><speed>0.819915</speed><course>16.475901</course><hAcc>2.147077</hAcc><vAcc>0.527923</vAcc></extensions></trkpt>
      <trkpt lon="-3.050452" lat="52.711492"><ele>278.814209</ele><time>2022-01-15T11:25:50Z</time><extensions><speed>0.788917</speed><course>16.274387</course><hAcc>2.176112</hAcc><vAcc>0.519974</vAcc></extensions></trkpt>
      <trkpt lon="-3.050449" lat="52.711499"><ele>279.022736</ele><time>2022-01-15T11:25:51Z</time><extensions><speed>0.786510</speed><course>16.130533</course><hAcc>2.209097</hAcc><vAcc>0.510737</vAcc></extensions></trkpt>
      <trkpt lon="-3.050446" lat="52.711506"><ele>279.223877</ele><time>2022-01-15T11:25:52Z</time><extensions><speed>0.806432</speed><course>16.659357</course><hAcc>2.259018</hAcc><vAcc>0.500719</vAcc></extensions></trkpt>
      <trkpt lon="-3.050442" lat="52.711513"><ele>279.424316</ele><time>2022-01-15T11:25:53Z</time><extensions><speed>0.831064</speed><course>18.641483</course><hAcc>2.323146</hAcc><vAcc>0.490573</vAcc></extensions></trkpt>
      <trkpt lon="-3.050438" lat="52.711520"><ele>279.615479</ele><time>2022-01-15T11:25:54Z</time><extensions><speed>0.819851</speed><course>22.100582</course><hAcc>2.369020</hAcc><vAcc>0.480883</vAcc></extensions></trkpt>
      <trkpt lon="-3.050433" lat="52.711527"><ele>279.803864</ele><time>2022-01-15T11:25:55Z</time><extensions><speed>0.855653</speed><course>23.969320</course><hAcc>2.379227</hAcc><vAcc>0.472238</vAcc></extensions></trkpt>
      <trkpt lon="-3.050427" lat="52.711534"><ele>279.992737</ele><time>2022-01-15T11:25:56Z</time><extensions><speed>0.911110</speed><course>25.025230</course><hAcc>2.389448</hAcc><vAcc>0.465160</vAcc></extensions></trkpt>
      <trkpt lon="-3.050421" lat="52.711542"><ele>280.161865</ele><time>2022-01-15T11:25:57Z</time><extensions><speed>0.985888</speed><course>25.391733</course><hAcc>2.409555</hAcc><vAcc>0.459883</vAcc></extensions></trkpt>
      <trkpt lon="-3.050415" lat="52.711550"><ele>280.324890</ele><time>2022-01-15T11:25:58Z</time><extensions><speed>1.033451</speed><course>25.446257</course><hAcc>2.438835</hAcc><vAcc>0.456281</vAcc></extensions></trkpt>
      <trkpt lon="-3.050408" lat="52.711559"><ele>280.477692</ele><time>2022-01-15T11:25:59Z</time><extensions><speed>1.048744</speed><course>25.302984</course><hAcc>2.451271</hAcc><vAcc>0.453861</vAcc></extensions></trkpt>
      <trkpt lon="-3.050402" lat="52.711567"><ele>280.629333</ele><time>2022-01-15T11:26:00Z</time><extensions><speed>1.041338</speed><course>23.244053</course><hAcc>2.451669</hAcc><vAcc>0.452074</vAcc></extensions></trkpt>
      <trkpt lon="-3.050396" lat="52.711576"><ele>280.781403</ele><time>2022-01-15T11:26:01Z</time><extensions><speed>1.022105</speed><course>21.640280</course><hAcc>2.451517</hAcc><vAcc>0.450593</vAcc></extensions></trkpt>
      <trkpt lon="-3.050391" lat="52.711584"><ele>280.932220</ele><time>2022-01-15T11:26:02Z</time><extensions><speed>0.984477</speed><course>19.829937</course><hAcc>2.455599</hAcc><vAcc>0.449374</vAcc></extensions></trkpt>
      <trkpt lon="-3.050386" lat="52.711593"><ele>281.077057</ele><time>2022-01-15T11:26:03Z</time><extensions><speed>0.992075</speed><course>19.257236</course><hAcc>2.472139</hAcc><vAcc>0.448510</vAcc></extensions></trkpt>
      <trkpt lon="-3.050381" lat="52.711601"><ele>281.213440</ele><time>2022-01-15T11:26:04Z</time><extensions><speed>0.974104</speed><course>20.709215</course><hAcc>2.494189</hAcc><vAcc>0.448079</vAcc></extensions></trkpt>
      <trkpt lon="-3.050376" lat="52.711609"><ele>281.342102</ele><time>2022-01-15T11:26:05Z</time><extensions><speed>0.979838</speed><course>21.529718</course><hAcc>2.518026</hAcc><vAcc>0.448053</vAcc></extensions></trkpt>
      <trkpt lon="-3.050370" lat="52.711618"><ele>281.469147</ele><time>2022-01-15T11:26:06Z</time><extensions><speed>1.022134</speed><course>22.027927</course><hAcc>2.534152</hAcc><vAcc>0.448313</vAcc></extensions></trkpt>
      <trkpt lon="-3.050365" lat="52.711626"><ele>281.587677</ele><time>2022-01-15T11:26:07Z</time><extensions><speed>1.052154</speed><course>22.018490</course><hAcc>2.551947</hAcc><vAcc>0.448709</vAcc></extensions></trkpt>
      <trkpt lon="-3.050359" lat="52.711635"><ele>281.702423</ele><time>2022-01-15T11:26:08Z</time><extensions><speed>1.058598</speed><course>21.620680</course><hAcc>2.572478</hAcc><vAcc>0.449142</vAcc></extensions></trkpt>
      <trkpt lon="-3.050353" lat="52.711644"><ele>281.816132</ele><time>2022-01-15T11:26:09Z</time><extensions><speed>1.018682</speed><course>21.101002</course><hAcc>2.590836</hAcc><vAcc>0.449545</vAcc></extensions></trkpt>
      <trkpt lon="-3.050348" lat="52.711652"><ele>281.917603</ele><time>2022-01-15T11:26:10Z</time><extensions><speed>0.948489</speed><course>19.848230</course><hAcc>2.601242</hAcc><vAcc>0.449809</vAcc></extensions></trkpt>
      <trkpt lon="-3.050344" lat="52.711660"><ele>282.006561</ele><time>2022-01-15T11:26:11Z</time><extensions><speed>0.890619</speed><course>18.119606</course><hAcc>2.597438</hAcc><vAcc>0.449825</vAcc></extensions></trkpt>
      <trkpt lon="-3.050340" lat="52.711668"><ele>282.080078</ele><time>2022-01-15T11:26:12Z</time><extensions><speed>0.872457</speed><course>17.126694</course><hAcc>2.578407</hAcc><vAcc>0.449450</vAcc></extensions></trkpt>
      <trkpt lon="-3.050336" lat="52.711675"><ele>282.141357</ele><time>2022-01-15T11:26:13Z</time><extensions><speed>0.878518</speed><course>16.740559</course><hAcc>2.575079</hAcc><vAcc>0.448731</vAcc></extensions></trkpt>
      <trkpt lon="-3.050332" lat="52.711683"><ele>282.195801</ele><time>2022-01-15T11:26:14Z</time><extensions><speed>0.903425</speed><course>17.167889</course><hAcc>2.591961</hAcc><vAcc>0.447676</vAcc></extensions></trkpt>
      <trkpt lon="-3.050328" lat="52.711691"><ele>282.241486</ele><time>2022-01-15T11:26:15Z</time><extensions><speed>0.911119</speed><course>18.930685</course><hAcc>2.601682</hAcc><vAcc>0.446259</vAcc></extensions></trkpt>
      <trkpt lon="-3.050323" lat="52.711698"><ele>282.272278</ele><time>2022-01-15T11:26:16Z</time><extensions><speed>0.904860</speed><course>18.852699</course><hAcc>2.580395</hAcc><vAcc>0.444568</vAcc></extensions></trkpt>
      <trkpt lon="-3.050319" lat="52.711706"><ele>282.281830</ele><time>2022-01-15T11:26:17Z</time><extensions><speed>0.909063</speed><course>18.655806</course><hAcc>2.554809</hAcc><vAcc>0.442629</vAcc></extensions></trkpt>
      <trkpt lon="-3.050315" lat="52.711714"><ele>282.274170</ele><time>2022-01-15T11:26:18Z</time><extensions><speed>0.948858</speed><course>18.531984</course><hAcc>2.549838</hAcc><vAcc>0.440631</vAcc></extensions></trkpt>
      <trkpt lon="-3.050310" lat="52.711723"><ele>282.266327</ele><time>2022-01-15T11:26:19Z</time><extensions><speed>1.028228</speed><course>19.824131</course><hAcc>2.547503</hAcc><vAcc>0.438734</vAcc></extensions></trkpt>
      <trkpt lon="-3.050304" lat="52.711732"><ele>282.252502</ele><time>2022-01-15T11:26:20Z</time><extensions><speed>1.073773</speed><course>20.620234</course><hAcc>2.536785</hAcc><vAcc>0.437010</vAcc></extensions></trkpt>
      <trkpt lon="-3.050298" lat="52.711741"><ele>282.245087</ele><time>2022-01-15T11:26:21Z</time><extensions><speed>1.048654</speed><course>20.694357</course><hAcc>2.533116</hAcc><vAcc>0.435480</vAcc></extensions></trkpt>
      <trkpt lon="-3.050293" lat="52.711749"><ele>282.199432</ele><time>2022-01-15T11:26:22Z</time><extensions><speed>0.990660</speed><course>21.371275</course><hAcc>2.530695</hAcc><vAcc>0.434231</vAcc></extensions></trkpt>
      <trkpt lon="-3.050288" lat="52.711757"><ele>282.157227</ele><time>2022-01-15T11:26:23Z</time><extensions><speed>0.910671</speed><course>22.116335</course><hAcc>2.515351</hAcc><vAcc>0.433351</vAcc></extensions></trkpt>
      <trkpt lon="-3.050283" lat="52.711765"><ele>282.101349</ele><time>2022-01-15T11:26:24Z</time><extensions><speed>0.855951</speed><course>23.229042</course><hAcc>2.494587</hAcc><vAcc>0.432893</vAcc></extensions></trkpt>
      <trkpt lon="-3.050278" lat="52.711772"><ele>282.040314</ele><time>2022-01-15T11:26:25Z</time><extensions><speed>0.876055</speed><course>23.456194</course><hAcc>2.492039</hAcc><vAcc>0.432778</vAcc></extensions></trkpt>
      <trkpt lon="-3.050273" lat="52.711780"><ele>281.981323</ele><time>2022-01-15T11:26:26Z</time><extensions><speed>0.947817</speed><course>23.244759</course><hAcc>2.510309</hAcc><vAcc>0.432781</vAcc></extensions></trkpt>
      <trkpt lon="-3.050267" lat="52.711788"><ele>281.913605</ele><time>2022-01-15T11:26:27Z</time><extensions><speed>1.057804</speed><course>22.527372</course><hAcc>2.517359</hAcc><vAcc>0.432668</vAcc></extensions></trkpt>
      <trkpt lon="-3.050261" lat="52.711797"><ele>281.856506</ele><time>2022-01-15T11:26:28Z</time><extensions><speed>1.141939</speed><course>21.398842</course><hAcc>2.506899</hAcc><vAcc>0.432396</vAcc></extensions></trkpt>
      <trkpt lon="-3.050255" lat="52.711807"><ele>281.797638</ele><time>2022-01-15T11:26:29Z</time><extensions><speed>1.157954</speed><course>20.376783</course><hAcc>2.491550</hAcc><vAcc>0.432231</vAcc></extensions></trkpt>
      <trkpt lon="-3.050250" lat="52.711817"><ele>281.747528</ele><time>2022-01-15T11:26:30Z</time><extensions><speed>1.144358</speed><course>18.204386</course><hAcc>2.480863</hAcc><vAcc>0.432529</vAcc></extensions></trkpt>
      <trkpt lon="-3.050245" lat="52.711827"><ele>281.707367</ele><time>2022-01-15T11:26:31Z</time><extensions><speed>1.109108</speed><course>15.671675</course><hAcc>2.467730</hAcc><vAcc>0.433824</vAcc></extensions></trkpt>
      <trkpt lon="-3.050241" lat="52.711836"><ele>281.684296</ele><time>2022-01-15T11:26:32Z</time><extensions><speed>1.096714</speed><course>12.573717</course><hAcc>2.451213</hAcc><vAcc>0.436694</vAcc></extensions></trkpt>
      <trkpt lon="-3.050238" lat="52.711846"><ele>281.678833</ele><time>2022-01-15T11:26:33Z</time><extensions><speed>1.105989</speed><course>9.977535</course><hAcc>2.436771</hAcc><vAcc>0.441569</vAcc></extensions></trkpt>
      <trkpt lon="-3.050236" lat="52.711856"><ele>281.688385</ele><time>2022-01-15T11:26:34Z</time><extensions><speed>1.133058</speed><course>9.096329</course><hAcc>2.427480</hAcc><vAcc>0.448570</vAcc></extensions></trkpt>
      <trkpt lon="-3.050233" lat="52.711866"><ele>281.713593</ele><time>2022-01-15T11:26:35Z</time><extensions><speed>1.129884</speed><course>8.794868</course><hAcc>2.414870</hAcc><vAcc>0.457372</vAcc></extensions></trkpt>
      <trkpt lon="-3.050231" lat="52.711876"><ele>281.756531</ele><time>2022-01-15T11:26:36Z</time><extensions><speed>1.119574</speed><course>8.252343</course><hAcc>2.390681</hAcc><vAcc>0.467233</vAcc></extensions></trkpt>
      <trkpt lon="-3.050228" lat="52.711886"><ele>281.811188</ele><time>2022-01-15T11:26:37Z</time><extensions><speed>1.087472</speed><course>6.965455</course><hAcc>2.363796</hAcc><vAcc>0.477237</vAcc></extensions></trkpt>
      <trkpt lon="-3.050227" lat="52.711896"><ele>281.874298</ele><time>2022-01-15T11:26:38Z</time><extensions><speed>1.100881</speed><course>5.672912</course><hAcc>2.325321</hAcc><vAcc>0.486640</vAcc></extensions></trkpt>
      <trkpt lon="-3.050225" lat="52.711906"><ele>281.946320</ele><time>2022-01-15T11:26:39Z</time><extensions><speed>1.118207</speed><course>5.329921</course><hAcc>2.294191</hAcc><vAcc>0.495043</vAcc></extensions></trkpt>
      <trkpt lon="-3.050224" lat="52.711916"><ele>282.022522</ele><time>2022-01-15T11:26:40Z</time><extensions><speed>1.097161</speed><course>6.519104</course><hAcc>2.272097</hAcc><vAcc>0.502358</vAcc></extensions></trkpt>
      <trkpt lon="-3.050222" lat="52.711926"><ele>282.101746</ele><time>2022-01-15T11:26:41Z</time><extensions><speed>1.025355</speed><course>9.480980</course><hAcc>2.252959</hAcc><vAcc>0.508730</vAcc></extensions></trkpt>
      <trkpt lon="-3.050219" lat="52.711935"><ele>282.183990</ele><time>2022-01-15T11:26:42Z</time><extensions><speed>1.034032</speed><course>11.810952</course><hAcc>2.237466</hAcc><vAcc>0.514430</vAcc></extensions></trkpt>
      <trkpt lon="-3.050215" lat="52.711944"><ele>282.273407</ele><time>2022-01-15T11:26:43Z</time><extensions><speed>1.059409</speed><course>13.479723</course><hAcc>2.229006</hAcc><vAcc>0.519747</vAcc></extensions></trkpt>
      <trkpt lon="-3.050212" lat="52.711953"><ele>282.364288</ele><time>2022-01-15T11:26:44Z</time><extensions><speed>1.080230</speed><course>13.887109</course><hAcc>2.205148</hAcc><vAcc>0.524905</vAcc></extensions></trkpt>
      <trkpt lon="-3.050208" lat="52.711963"><ele>282.454742</ele><time>2022-01-15T11:26:45Z</time><extensions><speed>1.109015</speed><course>14.093254</course><hAcc>2.182177</hAcc><vAcc>0.530041</vAcc></extensions></trkpt>
      <trkpt lon="-3.050204" lat="52.711973"><ele>282.548492</ele><time>2022-01-15T11:26:46Z</time><extensions><speed>1.173364</speed><course>12.881793</course><hAcc>2.160049</hAcc><vAcc>0.535192</vAcc></extensions></trkpt>
      <trkpt lon="-3.050200" lat="52.711984"><ele>282.641418</ele><time>2022-01-15T11:26:47Z</time><extensions><speed>1.211421</speed><course>10.455761</course><hAcc>2.140682</hAcc><vAcc>0.540323</vAcc></extensions></trkpt>
      <trkpt lon="-3.050197" lat="52.711995"><ele>282.732208</ele><time>2022-01-15T11:26:48Z</time><extensions><speed>1.283949</speed><course>8.178202</course><hAcc>2.125264</hAcc><vAcc>0.545335</vAcc></extensions></trkpt>
      <trkpt lon="-3.050195" lat="52.712006"><ele>282.826233</ele><time>2022-01-15T11:26:49Z</time><extensions><speed>1.307624</speed><course>6.089085</course><hAcc>2.110660</hAcc><vAcc>0.550058</vAcc></extensions></trkpt>
      <trkpt lon="-3.050193" lat="52.712018"><ele>282.925812</ele><time>2022-01-15T11:26:50Z</time><extensions><speed>1.290276</speed><course>5.492219</course><hAcc>2.098062</hAcc><vAcc>0.554317</vAcc></extensions></trkpt>
      <trkpt lon="-3.050191" lat="52.712029"><ele>283.027466</ele><time>2022-01-15T11:26:51Z</time><extensions><speed>1.227934</speed><course>6.158902</course><hAcc>2.084973</hAcc><vAcc>0.558007</vAcc></extensions></trkpt>
      <trkpt lon="-3.050189" lat="52.712040"><ele>283.130920</ele><time>2022-01-15T11:26:52Z</time><extensions><speed>1.164165</speed><course>8.784361</course><hAcc>2.076121</hAcc><vAcc>0.561122</vAcc></extensions></trkpt>
      <trkpt lon="-3.050186" lat="52.712050"><ele>283.233551</ele><time>2022-01-15T11:26:53Z</time><extensions><speed>1.112911</speed><course>11.831264</course><hAcc>2.066639</hAcc><vAcc>0.563737</vAcc></extensions></trkpt>
      <trkpt lon="-3.050182" lat="52.712059"><ele>283.337677</ele><time>2022-01-15T11:26:54Z</time><extensions><speed>1.072762</speed><course>15.634765</course><hAcc>2.052565</hAcc><vAcc>0.565982</vAcc></extensions></trkpt>
      <trkpt lon="-3.050177" lat="52.712069"><ele>283.447174</ele><time>2022-01-15T11:26:55Z</time><extensions><speed>1.115546</speed><course>18.618721</course><hAcc>2.030489</hAcc><vAcc>0.568041</vAcc></extensions></trkpt>
      <trkpt lon="-3.050171" lat="52.712079"><ele>283.557617</ele><time>2022-01-15T11:26:56Z</time><extensions><speed>1.181332</speed><course>19.468979</course><hAcc>2.023155</hAcc><vAcc>0.570154</vAcc></extensions></trkpt>
      <trkpt lon="-3.050166" lat="52.712089"><ele>283.668091</ele><time>2022-01-15T11:26:57Z</time><extensions><speed>1.255805</speed><course>18.539824</course><hAcc>2.020211</hAcc><vAcc>0.572553</vAcc></extensions></trkpt>
      <trkpt lon="-3.050160" lat="52.712100"><ele>283.783356</ele><time>2022-01-15T11:26:58Z</time><extensions><speed>1.334683</speed><course>16.921898</course><hAcc>2.011831</hAcc><vAcc>0.575460</vAcc></extensions></trkpt>
      <trkpt lon="-3.050154" lat="52.712112"><ele>283.901855</ele><time>2022-01-15T11:26:59Z</time><extensions><speed>1.336396</speed><course>15.391765</course><hAcc>2.002061</hAcc><vAcc>0.579033</vAcc></extensions></trkpt>
      <trkpt lon="-3.050149" lat="52.712123"><ele>284.025024</ele><time>2022-01-15T11:27:00Z</time><extensions><speed>1.282464</speed><course>13.798793</course><hAcc>1.993291</hAcc><vAcc>0.583282</vAcc></extensions></trkpt>
      <trkpt lon="-3.050145" lat="52.712134"><ele>284.151733</ele><time>2022-01-15T11:27:01Z</time><extensions><speed>1.222285</speed><course>11.361683</course><hAcc>1.979936</hAcc><vAcc>0.588104</vAcc></extensions></trkpt>
      <trkpt lon="-3.050142" lat="52.712144"><ele>284.284546</ele><time>2022-01-15T11:27:02Z</time><extensions><speed>1.151699</speed><course>9.819748</course><hAcc>1.970715</hAcc><vAcc>0.593320</vAcc></extensions></trkpt>
      <trkpt lon="-3.050139" lat="52.712154"><ele>284.426300</ele><time>2022-01-15T11:27:03Z</time><extensions><speed>1.071443</speed><course>9.542718</course><hAcc>1.967206</hAcc><vAcc>0.598694</vAcc></extensions></trkpt>
      <trkpt lon="-3.050137" lat="52.712164"><ele>284.576843</ele><time>2022-01-15T11:27:04Z</time><extensions><speed>1.045956</speed><course>9.057855</course><hAcc>1.961485</hAcc><vAcc>0.604093</vAcc></extensions></trkpt>
      <trkpt lon="-3.050134" lat="52.712173"><ele>284.734924</ele><time>2022-01-15T11:27:05Z</time><extensions><speed>1.044162</speed><course>7.852847</course><hAcc>1.957714</hAcc><vAcc>0.609322</vAcc></extensions></trkpt>
      <trkpt lon="-3.050132" lat="52.712182"><ele>284.887573</ele><time>2022-01-15T11:27:06Z</time><extensions><speed>1.085128</speed><course>6.821033</course><hAcc>1.950141</hAcc><vAcc>0.614170</vAcc></extensions></trkpt>
      <trkpt lon="-3.050131" lat="52.712192"><ele>285.049194</ele><time>2022-01-15T11:27:07Z</time><extensions><speed>1.094246</speed><course>6.079727</course><hAcc>1.943651</hAcc><vAcc>0.618463</vAcc></extensions></trkpt>
      <trkpt lon="-3.050129" lat="52.712202"><ele>285.212524</ele><time>2022-01-15T11:27:08Z</time><extensions><speed>1.130229</speed><course>5.666244</course><hAcc>1.946458</hAcc><vAcc>0.622138</vAcc></extensions></trkpt>
      <trkpt lon="-3.050127" lat="52.712212"><ele>285.382599</ele><time>2022-01-15T11:27:09Z</time><extensions><speed>1.186953</speed><course>6.002172</course><hAcc>1.949052</hAcc><vAcc>0.625165</vAcc></extensions></trkpt>
      <trkpt lon="-3.050125" lat="52.712223"><ele>285.557739</ele><time>2022-01-15T11:27:10Z</time><extensions><speed>1.183168</speed><course>6.898332</course><hAcc>1.948537</hAcc><vAcc>0.627550</vAcc></extensions></trkpt>
      <trkpt lon="-3.050123" lat="52.712234"><ele>285.722931</ele><time>2022-01-15T11:27:11Z</time><extensions><speed>1.179574</speed><course>7.751610</course><hAcc>1.956411</hAcc><vAcc>0.629383</vAcc></extensions></trkpt>
      <trkpt lon="-3.050120" lat="52.712244"><ele>285.888062</ele><time>2022-01-15T11:27:12Z</time><extensions><speed>1.112841</speed><course>9.799946</course><hAcc>1.967249</hAcc><vAcc>0.630735</vAcc></extensions></trkpt>
      <trkpt lon="-3.050117" lat="52.712253"><ele>286.053162</ele><time>2022-01-15T11:27:13Z</time><extensions><speed>1.021076</speed><course>13.486696</course><hAcc>1.973286</hAcc><vAcc>0.631619</vAcc></extensions></trkpt>
      <trkpt lon="-3.050113" lat="52.712262"><ele>286.213287</ele><time>2022-01-15T11:27:14Z</time><extensions><speed>0.904383</speed><course>19.340149</course><hAcc>1.987134</hAcc><vAcc>0.632008</vAcc></extensions></trkpt>
      <trkpt lon="-3.050109" lat="52.712269"><ele>286.360504</ele><time>2022-01-15T11:27:15Z</time><extensions><speed>0.850200</speed><course>21.938160</course><hAcc>1.992981</hAcc><vAcc>0.631857</vAcc></extensions></trkpt>
      <trkpt lon="-3.050104" lat="52.712276"><ele>286.499695</ele><time>2022-01-15T11:27:16Z</time><extensions><speed>0.823473</speed><course>22.979042</course><hAcc>1.989051</hAcc><vAcc>0.631137</vAcc></extensions></trkpt>
      <trkpt lon="-3.050099" lat="52.712283"><ele>286.627289</ele><time>2022-01-15T11:27:17Z</time><extensions><speed>0.864546</speed><course>22.534172</course><hAcc>1.979924</hAcc><vAcc>0.629864</vAcc></extensions></trkpt>
      <trkpt lon="-3.050094" lat="52.712291"><ele>286.746521</ele><time>2022-01-15T11:27:18Z</time><extensions><speed>0.977440</speed><course>21.242687</course><hAcc>1.985715</hAcc><vAcc>0.628134</vAcc></extensions></trkpt>
      <trkpt lon="-3.050088" lat="52.712300"><ele>286.845856</ele><time>2022-01-15T11:27:19Z</time><extensions><speed>1.104340</speed><course>20.113302</course><hAcc>2.006756</hAcc><vAcc>0.626049</vAcc></extensions></trkpt>
      <trkpt lon="-3.050083" lat="52.712309"><ele>286.938110</ele><time>2022-01-15T11:27:20Z</time><extensions><speed>1.189251</speed><course>20.170485</course><hAcc>2.014905</hAcc><vAcc>0.623738</vAcc></extensions></trkpt>
      <trkpt lon="-3.050077" lat="52.712320"><ele>287.016541</ele><time>2022-01-15T11:27:21Z</time><extensions><speed>1.238349</speed><course>19.984957</course><hAcc>2.010202</hAcc><vAcc>0.621372</vAcc></extensions></trkpt>
      <trkpt lon="-3.050070" lat="52.712330"><ele>287.088715</ele><time>2022-01-15T11:27:22Z</time><extensions><speed>1.218251</speed><course>20.642666</course><hAcc>2.002669</hAcc><vAcc>0.619155</vAcc></extensions></trkpt>
      <trkpt lon="-3.050064" lat="52.712341"><ele>287.157623</ele><time>2022-01-15T11:27:23Z</time><extensions><speed>1.212836</speed><course>21.770578</course><hAcc>1.990046</hAcc><vAcc>0.617319</vAcc></extensions></trkpt>
      <trkpt lon="-3.050057" lat="52.712351"><ele>287.223450</ele><time>2022-01-15T11:27:24Z</time><extensions><speed>1.252200</speed><course>21.952417</course><hAcc>1.976091</hAcc><vAcc>0.616108</vAcc></extensions></trkpt>
      <trkpt lon="-3.050050" lat="52.712362"><ele>287.286133</ele><time>2022-01-15T11:27:25Z</time><extensions><speed>1.334564</speed><course>22.022669</course><hAcc>1.963210</hAcc><vAcc>0.615738</vAcc></extensions></trkpt>
      <trkpt lon="-3.050042" lat="52.712373"><ele>287.351715</ele><time>2022-01-15T11:27:26Z</time><extensions><speed>1.432061</speed><course>21.675051</course><hAcc>1.947751</hAcc><vAcc>0.616390</vAcc></extensions></trkpt>
      <trkpt lon="-3.050034" lat="52.712386"><ele>287.423981</ele><time>2022-01-15T11:27:27Z</time><extensions><speed>1.427893</speed><course>21.250078</course><hAcc>1.936256</hAcc><vAcc>0.618128</vAcc></extensions></trkpt>
      <trkpt lon="-3.050027" lat="52.712397"><ele>287.508179</ele><time>2022-01-15T11:27:28Z</time><extensions><speed>1.366830</speed><course>22.102047</course><hAcc>1.937669</hAcc><vAcc>0.620930</vAcc></extensions></trkpt>
      <trkpt lon="-3.050019" lat="52.712409"><ele>287.602966</ele><time>2022-01-15T11:27:29Z</time><extensions><speed>1.414728</speed><course>23.648495</course><hAcc>1.911519</hAcc><vAcc>0.624598</vAcc></extensions></trkpt>
      <trkpt lon="-3.050010" lat="52.712420"><ele>287.708099</ele><time>2022-01-15T11:27:30Z</time><extensions><speed>1.431805</speed><course>26.451580</course><hAcc>1.880876</hAcc><vAcc>0.628957</vAcc></extensions></trkpt>
      <trkpt lon="-3.050001" lat="52.712432"><ele>287.829193</ele><time>2022-01-15T11:27:31Z</time><extensions><speed>1.438274</speed><course>26.942862</course><hAcc>1.854470</hAcc><vAcc>0.633584</vAcc></extensions></trkpt>
      <trkpt lon="-3.049991" lat="52.712443"><ele>287.960510</ele><time>2022-01-15T11:27:32Z</time><extensions><speed>1.494615</speed><course>28.365294</course><hAcc>1.831207</hAcc><vAcc>0.638190</vAcc></extensions></trkpt>
      <trkpt lon="-3.049980" lat="52.712455"><ele>288.087341</ele><time>2022-01-15T11:27:33Z</time><extensions><speed>1.529507</speed><course>29.125507</course><hAcc>1.803359</hAcc><vAcc>0.642491</vAcc></extensions></trkpt>
      <trkpt lon="-3.049968" lat="52.712467"><ele>288.243835</ele><time>2022-01-15T11:27:34Z</time><extensions><speed>1.567751</speed><course>30.918413</course><hAcc>1.780969</hAcc><vAcc>0.646215</vAcc></extensions></trkpt>
      <trkpt lon="-3.049956" lat="52.712480"><ele>288.408752</ele><time>2022-01-15T11:27:35Z</time><extensions><speed>1.607459</speed><course>31.838087</course><hAcc>1.795592</hAcc><vAcc>0.649245</vAcc></extensions></trkpt>
      <trkpt lon="-3.049944" lat="52.712492"><ele>288.572937</ele><time>2022-01-15T11:27:36Z</time><extensions><speed>1.587170</speed><course>31.792854</course><hAcc>1.846046</hAcc><vAcc>0.651546</vAcc></extensions></trkpt>
      <trkpt lon="-3.049932" lat="52.712504"><ele>288.734039</ele><time>2022-01-15T11:27:37Z</time><extensions><speed>1.471667</speed><course>29.881149</course><hAcc>1.824989</hAcc><vAcc>0.653171</vAcc></extensions></trkpt>
      <trkpt lon="-3.049922" lat="52.712514"><ele>288.906311</ele><time>2022-01-15T11:27:38Z</time><extensions><speed>1.243566</speed><course>26.936153</course><hAcc>1.793327</hAcc><vAcc>0.654170</vAcc></extensions></trkpt>
      <trkpt lon="-3.049915" lat="52.712523"><ele>289.065948</ele><time>2022-01-15T11:27:39Z</time><extensions><speed>1.022714</speed><course>23.922165</course><hAcc>1.797796</hAcc><vAcc>0.654693</vAcc></extensions></trkpt>
      <trkpt lon="-3.049910" lat="52.712531"><ele>289.234131</ele><time>2022-01-15T11:27:40Z</time><extensions><speed>0.877698</speed><course>23.018843</course><hAcc>1.825250</hAcc><vAcc>0.654791</vAcc></extensions></trkpt>
      <trkpt lon="-3.049905" lat="52.712538"><ele>289.395660</ele><time>2022-01-15T11:27:41Z</time><extensions><speed>0.766369</speed><course>23.002884</course><hAcc>1.849438</hAcc><vAcc>0.654593</vAcc></extensions></trkpt>
      <trkpt lon="-3.049900" lat="52.712544"><ele>289.549683</ele><time>2022-01-15T11:27:42Z</time><extensions><speed>0.714977</speed><course>24.210379</course><hAcc>1.881473</hAcc><vAcc>0.654077</vAcc></extensions></trkpt>
      <trkpt lon="-3.049896" lat="52.712550"><ele>289.704193</ele><time>2022-01-15T11:27:43Z</time><extensions><speed>0.687365</speed><course>25.376364</course><hAcc>1.907624</hAcc><vAcc>0.653116</vAcc></extensions></trkpt>
      <trkpt lon="-3.049892" lat="52.712555"><ele>289.850861</ele><time>2022-01-15T11:27:44Z</time><extensions><speed>0.687542</speed><course>26.656380</course><hAcc>1.912297</hAcc><vAcc>0.651651</vAcc></extensions></trkpt>
      <trkpt lon="-3.049887" lat="52.712561"><ele>289.989410</ele><time>2022-01-15T11:27:45Z</time><extensions><speed>0.690987</speed><course>27.646242</course><hAcc>1.917953</hAcc><vAcc>0.649679</vAcc></extensions></trkpt>
      <trkpt lon="-3.049882" lat="52.712566"><ele>290.123444</ele><time>2022-01-15T11:27:46Z</time><extensions><speed>0.681858</speed><course>27.325731</course><hAcc>1.931641</hAcc><vAcc>0.647272</vAcc></extensions></trkpt>
      <trkpt lon="-3.049878" lat="52.712572"><ele>290.247620</ele><time>2022-01-15T11:27:47Z</time><extensions><speed>0.701935</speed><course>26.817822</course><hAcc>1.960118</hAcc><vAcc>0.644562</vAcc></extensions></trkpt>
      <trkpt lon="-3.049873" lat="52.712578"><ele>290.363525</ele><time>2022-01-15T11:27:48Z</time><extensions><speed>0.705681</speed><course>26.470739</course><hAcc>1.987716</hAcc><vAcc>0.641756</vAcc></extensions></trkpt>
      <trkpt lon="-3.049868" lat="52.712583"><ele>290.467438</ele><time>2022-01-15T11:27:49Z</time><extensions><speed>0.719628</speed><course>25.755138</course><hAcc>2.012322</hAcc><vAcc>0.639105</vAcc></extensions></trkpt>
      <trkpt lon="-3.049864" lat="52.712589"><ele>290.564789</ele><time>2022-01-15T11:27:50Z</time><extensions><speed>0.701110</speed><course>24.377342</course><hAcc>2.033250</hAcc><vAcc>0.636804</vAcc></extensions></trkpt>
      <trkpt lon="-3.049860" lat="52.712595"><ele>290.656219</ele><time>2022-01-15T11:27:51Z</time><extensions><speed>0.642324</speed><course>22.333460</course><hAcc>2.044930</hAcc><vAcc>0.635015</vAcc></extensions></trkpt>
      <trkpt lon="-3.049857" lat="52.712600"><ele>290.734558</ele><time>2022-01-15T11:27:52Z</time><extensions><speed>0.601032</speed><course>19.578804</course><hAcc>2.056666</hAcc><vAcc>0.633948</vAcc></extensions></trkpt>
      <trkpt lon="-3.049854" lat="52.712605"><ele>290.809052</ele><time>2022-01-15T11:27:53Z</time><extensions><speed>0.562304</speed><course>15.671680</course><hAcc>2.068056</hAcc><vAcc>0.633694</vAcc></extensions></trkpt>
      <trkpt lon="-3.049852" lat="52.712610"><ele>290.875977</ele><time>2022-01-15T11:27:54Z</time><extensions><speed>0.550123</speed><course>10.586314</course><hAcc>2.074389</hAcc><vAcc>0.634344</vAcc></extensions></trkpt>
      <trkpt lon="-3.049851" lat="52.712615"><ele>290.939484</ele><time>2022-01-15T11:27:55Z</time><extensions><speed>0.570028</speed><course>4.847933</course><hAcc>2.077145</hAcc><vAcc>0.635909</vAcc></extensions></trkpt>
      <trkpt lon="-3.049851" lat="52.712620"><ele>290.993134</ele><time>2022-01-15T11:27:56Z</time><extensions><speed>0.633523</speed><course>1.117370</course><hAcc>2.075871</hAcc><vAcc>0.638297</vAcc></extensions></trkpt>
      <trkpt lon="-3.049850" lat="52.712626"><ele>291.036713</ele><time>2022-01-15T11:27:57Z</time><extensions><speed>0.766747</speed><course>1.195876</course><hAcc>2.069562</hAcc><vAcc>0.641354</vAcc></extensions></trkpt>
      <trkpt lon="-3.049850" lat="52.712634"><ele>291.088379</ele><time>2022-01-15T11:27:58Z</time><extensions><speed>0.920606</speed><course>3.382830</course><hAcc>2.071057</hAcc><vAcc>0.644965</vAcc></extensions></trkpt>
      <trkpt lon="-3.049849" lat="52.712643"><ele>291.129944</ele><time>2022-01-15T11:27:59Z</time><extensions><speed>1.004752</speed><course>4.995316</course><hAcc>2.070531</hAcc><vAcc>0.649100</vAcc></extensions></trkpt>
      <trkpt lon="-3.049847" lat="52.712651"><ele>291.174469</ele><time>2022-01-15T11:28:00Z</time><extensions><speed>0.979922</speed><course>6.136787</course><hAcc>2.051155</hAcc><vAcc>0.653708</vAcc></extensions></trkpt>
      <trkpt lon="-3.049845" lat="52.712660"><ele>291.221680</ele><time>2022-01-15T11:28:01Z</time><extensions><speed>0.921717</speed><course>7.971302</course><hAcc>2.032551</hAcc><vAcc>0.658763</vAcc></extensions></trkpt>
      <trkpt lon="-3.049843" lat="52.712668"><ele>291.274994</ele><time>2022-01-15T11:28:02Z</time><extensions><speed>0.878700</speed><course>11.149337</course><hAcc>2.019866</hAcc><vAcc>0.664118</vAcc></extensions></trkpt>
      <trkpt lon="-3.049840" lat="52.712676"><ele>291.331604</ele><time>2022-01-15T11:28:03Z</time><extensions><speed>0.866538</speed><course>15.844252</course><hAcc>2.005714</hAcc><vAcc>0.669453</vAcc></extensions></trkpt>
      <trkpt lon="-3.049836" lat="52.712683"><ele>291.398590</ele><time>2022-01-15T11:28:04Z</time><extensions><speed>0.847125</speed><course>21.480829</course><hAcc>1.988124</hAcc><vAcc>0.674497</vAcc></extensions></trkpt>
      <trkpt lon="-3.049831" lat="52.712690"><ele>291.472046</ele><time>2022-01-15T11:28:05Z</time><extensions><speed>0.877825</speed><course>26.807259</course><hAcc>1.971732</hAcc><vAcc>0.678802</vAcc></extensions></trkpt>
      <trkpt lon="-3.049824" lat="52.712697"><ele>291.542145</ele><time>2022-01-15T11:28:06Z</time><extensions><speed>0.907334</speed><course>34.414715</course><hAcc>1.952353</hAcc><vAcc>0.682281</vAcc></extensions></trkpt>
      <trkpt lon="-3.049816" lat="52.712703"><ele>291.637695</ele><time>2022-01-15T11:28:07Z</time><extensions><speed>0.941110</speed><course>39.695606</course><hAcc>1.923645</hAcc><vAcc>0.684624</vAcc></extensions></trkpt>
      <trkpt lon="-3.049807" lat="52.712710"><ele>291.732880</ele><time>2022-01-15T11:28:08Z</time><extensions><speed>0.949350</speed><course>41.639000</course><hAcc>1.916570</hAcc><vAcc>0.685751</vAcc></extensions></trkpt>
      <trkpt lon="-3.049797" lat="52.712716"><ele>291.835297</ele><time>2022-01-15T11:28:09Z</time><extensions><speed>0.990519</speed><course>42.270489</course><hAcc>1.908613</hAcc><vAcc>0.685633</vAcc></extensions></trkpt>
      <trkpt lon="-3.049787" lat="52.712723"><ele>291.953705</ele><time>2022-01-15T11:28:10Z</time><extensions><speed>1.035372</speed><course>41.712986</course><hAcc>1.906220</hAcc><vAcc>0.684435</vAcc></extensions></trkpt>
      <trkpt lon="-3.049777" lat="52.712730"><ele>292.076569</ele><time>2022-01-15T11:28:11Z</time><extensions><speed>1.054185</speed><course>40.687111</course><hAcc>1.911065</hAcc><vAcc>0.682345</vAcc></extensions></trkpt>
      <trkpt lon="-3.049766" lat="52.712738"><ele>292.209259</ele><time>2022-01-15T11:28:12Z</time><extensions><speed>1.081980</speed><course>40.308647</course><hAcc>1.902316</hAcc><vAcc>0.679617</vAcc></extensions></trkpt>
      <trkpt lon="-3.049756" lat="52.712745"><ele>292.342865</ele><time>2022-01-15T11:28:13Z</time><extensions><speed>1.109996</speed><course>40.608032</course><hAcc>1.893882</hAcc><vAcc>0.676493</vAcc></extensions></trkpt>
      <trkpt lon="-3.049745" lat="52.712753"><ele>292.485260</ele><time>2022-01-15T11:28:14Z</time><extensions><speed>1.100734</speed><course>41.174313</course><hAcc>1.896833</hAcc><vAcc>0.673141</vAcc></extensions></trkpt>
      <trkpt lon="-3.049734" lat="52.712760"><ele>292.637848</ele><time>2022-01-15T11:28:15Z</time><extensions><speed>1.088351</speed><course>41.819717</course><hAcc>1.903462</hAcc><vAcc>0.669715</vAcc></extensions></trkpt>
      <trkpt lon="-3.049724" lat="52.712767"><ele>292.788147</ele><time>2022-01-15T11:28:16Z</time><extensions><speed>1.034892</speed><course>42.132980</course><hAcc>1.917674</hAcc><vAcc>0.666248</vAcc></extensions></trkpt>
      <trkpt lon="-3.049713" lat="52.712774"><ele>292.948822</ele><time>2022-01-15T11:28:17Z</time><extensions><speed>1.055188</speed><course>43.758621</course><hAcc>1.895334</hAcc><vAcc>0.662648</vAcc></extensions></trkpt>
      <trkpt lon="-3.049702" lat="52.712781"><ele>293.109650</ele><time>2022-01-15T11:28:18Z</time><extensions><speed>1.057918</speed><course>45.038651</course><hAcc>1.875382</hAcc><vAcc>0.658756</vAcc></extensions></trkpt>
      <trkpt lon="-3.049691" lat="52.712788"><ele>293.268921</ele><time>2022-01-15T11:28:19Z</time><extensions><speed>1.069313</speed><course>44.527721</course><hAcc>1.872966</hAcc><vAcc>0.654432</vAcc></extensions></trkpt>
      <trkpt lon="-3.049680" lat="52.712795"><ele>293.423340</ele><time>2022-01-15T11:28:20Z</time><extensions><speed>1.037058</speed><course>43.629581</course><hAcc>1.901608</hAcc><vAcc>0.649541</vAcc></extensions></trkpt>
      <trkpt lon="-3.049670" lat="52.712801"><ele>293.579651</ele><time>2022-01-15T11:28:21Z</time><extensions><speed>1.019402</speed><course>40.570148</course><hAcc>1.920812</hAcc><vAcc>0.643915</vAcc></extensions></trkpt>
      <trkpt lon="-3.049661" lat="52.712808"><ele>293.732208</ele><time>2022-01-15T11:28:22Z</time><extensions><speed>0.960504</speed><course>36.815517</course><hAcc>1.937660</hAcc><vAcc>0.637377</vAcc></extensions></trkpt>
      <trkpt lon="-3.049653" lat="52.712815"><ele>293.881683</ele><time>2022-01-15T11:28:23Z</time><extensions><speed>0.932742</speed><course>32.874409</course><hAcc>1.926376</hAcc><vAcc>0.629774</vAcc></extensions></trkpt>
      <trkpt lon="-3.049646" lat="52.712822"><ele>294.027374</ele><time>2022-01-15T11:28:24Z</time><extensions><speed>0.907936</speed><course>33.260689</course><hAcc>1.937719</hAcc><vAcc>0.621057</vAcc></extensions></trkpt>
      <trkpt lon="-3.049638" lat="52.712829"><ele>294.168762</ele><time>2022-01-15T11:28:25Z</time><extensions><speed>0.879835</speed><course>36.947365</course><hAcc>1.973339</hAcc><vAcc>0.611301</vAcc></extensions></trkpt>
      <trkpt lon="-3.049630" lat="52.712835"><ele>294.306396</ele><time>2022-01-15T11:28:26Z</time><extensions><speed>0.899996</speed><course>41.277020</course><hAcc>1.994769</hAcc><vAcc>0.600697</vAcc></extensions></trkpt>
      <trkpt lon="-3.049620" lat="52.712841"><ele>294.438721</ele><time>2022-01-15T11:28:27Z</time><extensions><speed>0.929500</speed><course>44.198162</course><hAcc>2.015653</hAcc><vAcc>0.589580</vAcc></extensions></trkpt>
      <trkpt lon="-3.049610" lat="52.712847"><ele>294.563354</ele><time>2022-01-15T11:28:28Z</time><extensions><speed>0.962104</speed><course>46.218796</course><hAcc>2.039288</hAcc><vAcc>0.578431</vAcc></extensions></trkpt>
      <trkpt lon="-3.049600" lat="52.712853"><ele>294.686371</ele><time>2022-01-15T11:28:29Z</time><extensions><speed>0.982625</speed><course>47.230995</course><hAcc>2.067815</hAcc><vAcc>0.567872</vAcc></extensions></trkpt>
      <trkpt lon="-3.049589" lat="52.712859"><ele>294.805542</ele><time>2022-01-15T11:28:30Z</time><extensions><speed>0.979289</speed><course>46.532726</course><hAcc>2.100002</hAcc><vAcc>0.558561</vAcc></extensions></trkpt>
      <trkpt lon="-3.049579" lat="52.712865"><ele>294.919891</ele><time>2022-01-15T11:28:31Z</time><extensions><speed>0.958486</speed><course>45.044537</course><hAcc>2.127668</hAcc><vAcc>0.551087</vAcc></extensions></trkpt>
      <trkpt lon="-3.049570" lat="52.712871"><ele>295.032104</ele><time>2022-01-15T11:28:32Z</time><extensions><speed>0.900219</speed><course>42.958786</course><hAcc>2.133722</hAcc><vAcc>0.545838</vAcc></extensions></trkpt>
      <trkpt lon="-3.049561" lat="52.712877"><ele>295.140594</ele><time>2022-01-15T11:28:33Z</time><extensions><speed>0.809874</speed><course>39.543110</course><hAcc>2.117122</hAcc><vAcc>0.542861</vAcc></extensions></trkpt>
      <trkpt lon="-3.049554" lat="52.712883"><ele>295.249664</ele><time>2022-01-15T11:28:34Z</time><extensions><speed>0.722458</speed><course>34.972919</course><hAcc>2.096793</hAcc><vAcc>0.541852</vAcc></extensions></trkpt>
      <trkpt lon="-3.049549" lat="52.712888"><ele>295.363251</ele><time>2022-01-15T11:28:35Z</time><extensions><speed>0.644748</speed><course>30.382538</course><hAcc>2.082172</hAcc><vAcc>0.542352</vAcc></extensions></trkpt>
      <trkpt lon="-3.049545" lat="52.712892"><ele>295.478241</ele><time>2022-01-15T11:28:36Z</time><extensions><speed>0.536917</speed><course>26.377491</course><hAcc>2.073185</hAcc><vAcc>0.543906</vAcc></extensions></trkpt>
      <trkpt lon="-3.049541" lat="52.712897"><ele>295.594940</ele><time>2022-01-15T11:28:37Z</time><extensions><speed>0.626069</speed><course>28.166439</course><hAcc>2.046252</hAcc><vAcc>0.546135</vAcc></extensions></trkpt>
      <trkpt lon="-3.049535" lat="52.712903"><ele>295.713715</ele><time>2022-01-15T11:28:38Z</time><extensions><speed>0.867034</speed><course>31.995615</course><hAcc>2.014491</hAcc><vAcc>0.548714</vAcc></extensions></trkpt>
      <trkpt lon="-3.049527" lat="52.712910"><ele>295.833649</ele><time>2022-01-15T11:28:39Z</time><extensions><speed>0.952416</speed><course>36.098324</course><hAcc>1.977842</hAcc><vAcc>0.551306</vAcc></extensions></trkpt>
      <trkpt lon="-3.049518" lat="52.712917"><ele>295.955750</ele><time>2022-01-15T11:28:40Z</time><extensions><speed>0.982515</speed><course>41.610451</course><hAcc>1.950750</hAcc><vAcc>0.553552</vAcc></extensions></trkpt>
      <trkpt lon="-3.049508" lat="52.712923"><ele>296.080017</ele><time>2022-01-15T11:28:41Z</time><extensions><speed>1.029598</speed><course>43.569103</course><hAcc>1.924195</hAcc><vAcc>0.555119</vAcc></extensions></trkpt>
      <trkpt lon="-3.049497" lat="52.712930"><ele>296.206299</ele><time>2022-01-15T11:28:42Z</time><extensions><speed>1.064922</speed><course>43.593685</course><hAcc>1.909742</hAcc><vAcc>0.555791</vAcc></extensions></trkpt>
      <trkpt lon="-3.049487" lat="52.712937"><ele>296.333771</ele><time>2022-01-15T11:28:43Z</time><extensions><speed>1.060072</speed><course>43.218185</course><hAcc>1.916144</hAcc><vAcc>0.555533</vAcc></extensions></trkpt>
      <trkpt lon="-3.049476" lat="52.712944"><ele>296.460632</ele><time>2022-01-15T11:28:44Z</time><extensions><speed>0.997797</speed><course>42.093071</course><hAcc>1.936102</hAcc><vAcc>0.554488</vAcc></extensions></trkpt>
      <trkpt lon="-3.049467" lat="52.712951"><ele>296.584808</ele><time>2022-01-15T11:28:45Z</time><extensions><speed>0.962122</speed><course>40.546207</course><hAcc>1.937980</hAcc><vAcc>0.552883</vAcc></extensions></trkpt>
      <trkpt lon="-3.049458" lat="52.712957"><ele>296.704956</ele><time>2022-01-15T11:28:46Z</time><extensions><speed>0.892861</speed><course>38.305691</course><hAcc>1.926632</hAcc><vAcc>0.551005</vAcc></extensions></trkpt>
      <trkpt lon="-3.049451" lat="52.712963"><ele>296.820831</ele><time>2022-01-15T11:28:47Z</time><extensions><speed>0.752051</speed><course>34.258026</course><hAcc>1.940775</hAcc><vAcc>0.549184</vAcc></extensions></trkpt>
      <trkpt lon="-3.049446" lat="52.712969"><ele>296.931213</ele><time>2022-01-15T11:28:48Z</time><extensions><speed>0.555393</speed><course>25.745804</course><hAcc>1.980635</hAcc><vAcc>0.547701</vAcc></extensions></trkpt>
      <trkpt lon="-3.049442" lat="52.712973"><ele>297.036743</ele><time>2022-01-15T11:28:49Z</time><extensions><speed>0.581269</speed><course>19.013563</course><hAcc>1.995851</hAcc><vAcc>0.546697</vAcc></extensions></trkpt>
      <trkpt lon="-3.049440" lat="52.712978"><ele>297.143066</ele><time>2022-01-15T11:28:50Z</time><extensions><speed>0.625393</speed><course>15.731624</course><hAcc>2.013996</hAcc><vAcc>0.546196</vAcc></extensions></trkpt>
      <trkpt lon="-3.049437" lat="52.712984"><ele>297.249115</ele><time>2022-01-15T11:28:51Z</time><extensions><speed>0.685301</speed><course>14.317329</course><hAcc>2.036393</hAcc><vAcc>0.546161</vAcc></extensions></trkpt>
      <trkpt lon="-3.049435" lat="52.712990"><ele>297.354187</ele><time>2022-01-15T11:28:52Z</time><extensions><speed>0.739051</speed><course>14.608179</course><hAcc>2.061294</hAcc><vAcc>0.546600</vAcc></extensions></trkpt>
      <trkpt lon="-3.049431" lat="52.712997"><ele>297.460938</ele><time>2022-01-15T11:28:53Z</time><extensions><speed>0.778245</speed><course>17.225550</course><hAcc>2.085481</hAcc><vAcc>0.547573</vAcc></extensions></trkpt>
      <trkpt lon="-3.049427" lat="52.713004"><ele>297.569336</ele><time>2022-01-15T11:28:54Z</time><extensions><speed>0.828015</speed><course>21.826027</course><hAcc>2.101379</hAcc><vAcc>0.549119</vAcc></extensions></trkpt>
      <trkpt lon="-3.049422" lat="52.713011"><ele>297.681702</ele><time>2022-01-15T11:28:55Z</time><extensions><speed>0.909125</speed><course>27.512194</course><hAcc>2.103133</hAcc><vAcc>0.551198</vAcc></extensions></trkpt>
      <trkpt lon="-3.049415" lat="52.713019"><ele>297.796753</ele><time>2022-01-15T11:28:56Z</time><extensions><speed>1.066943</speed><course>33.471817</course><hAcc>2.092299</hAcc><vAcc>0.553678</vAcc></extensions></trkpt>
      <trkpt lon="-3.049405" lat="52.713026"><ele>297.915222</ele><time>2022-01-15T11:28:57Z</time><extensions><speed>1.068132</speed><course>37.814144</course><hAcc>2.094261</hAcc><vAcc>0.556391</vAcc></extensions></trkpt>
      <trkpt lon="-3.049396" lat="52.713034"><ele>298.040955</ele><time>2022-01-15T11:28:58Z</time><extensions><speed>1.022270</speed><course>38.005951</course><hAcc>2.098026</hAcc><vAcc>0.559179</vAcc></extensions></trkpt>
      <trkpt lon="-3.049386" lat="52.713042"><ele>298.173279</ele><time>2022-01-15T11:28:59Z</time><extensions><speed>1.197013</speed><course>38.066963</course><hAcc>2.075147</hAcc><vAcc>0.561999</vAcc></extensions></trkpt>
      <trkpt lon="-3.049374" lat="52.713051"><ele>298.312469</ele><time>2022-01-15T11:29:00Z</time><extensions><speed>1.277346</speed><course>36.720322</course><hAcc>2.053119</hAcc><vAcc>0.564870</vAcc></extensions></trkpt>
      <trkpt lon="-3.049363" lat="52.713060"><ele>298.458038</ele><time>2022-01-15T11:29:01Z</time><extensions><speed>1.255142</speed><course>34.421459</course><hAcc>2.037953</hAcc><vAcc>0.567714</vAcc></extensions></trkpt>
      <trkpt lon="-3.049353" lat="52.713069"><ele>298.606903</ele><time>2022-01-15T11:29:02Z</time><extensions><speed>1.201951</speed><course>31.904768</course><hAcc>2.024880</hAcc><vAcc>0.570188</vAcc></extensions></trkpt>
      <trkpt lon="-3.049345" lat="52.713078"><ele>298.762238</ele><time>2022-01-15T11:29:03Z</time><extensions><speed>1.093634</speed><course>31.441544</course><hAcc>2.017875</hAcc><vAcc>0.571735</vAcc></extensions></trkpt>
      <trkpt lon="-3.049337" lat="52.713086"><ele>298.924255</ele><time>2022-01-15T11:29:04Z</time><extensions><speed>0.895408</speed><course>33.841141</course><hAcc>2.018079</hAcc><vAcc>0.571805</vAcc></extensions></trkpt>
      <trkpt lon="-3.049329" lat="52.713092"><ele>299.093231</ele><time>2022-01-15T11:29:05Z</time><extensions><speed>0.825091</speed><course>39.612095</course><hAcc>2.013654</hAcc><vAcc>0.570116</vAcc></extensions></trkpt>
      <trkpt lon="-3.049321" lat="52.713097"><ele>299.268860</ele><time>2022-01-15T11:29:06Z</time><extensions><speed>0.825109</speed><course>45.410976</course><hAcc>2.011909</hAcc><vAcc>0.566674</vAcc></extensions></trkpt>
      <trkpt lon="-3.049311" lat="52.713102"><ele>299.449371</ele><time>2022-01-15T11:29:07Z</time><extensions><speed>0.852339</speed><course>48.883602</course><hAcc>2.020031</hAcc><vAcc>0.561794</vAcc></extensions></trkpt>
      <trkpt lon="-3.049302" lat="52.713107"><ele>299.635315</ele><time>2022-01-15T11:29:08Z</time><extensions><speed>0.898000</speed><course>50.306568</course><hAcc>2.035156</hAcc><vAcc>0.556108</vAcc></extensions></trkpt>
      <trkpt lon="-3.049291" lat="52.713113"><ele>299.828217</ele><time>2022-01-15T11:29:09Z</time><extensions><speed>0.945683</speed><course>50.496414</course><hAcc>2.053372</hAcc><vAcc>0.550490</vAcc></extensions></trkpt>
      <trkpt lon="-3.049280" lat="52.713118"><ele>300.026642</ele><time>2022-01-15T11:29:10Z</time><extensions><speed>1.044511</speed><course>50.159885</course><hAcc>2.060044</hAcc><vAcc>0.545820</vAcc></extensions></trkpt>
      <trkpt lon="-3.049267" lat="52.713125"><ele>300.227997</ele><time>2022-01-15T11:29:11Z</time><extensions><speed>1.218279</speed><course>49.998177</course><hAcc>2.053089</hAcc><vAcc>0.542673</vAcc></extensions></trkpt>
      <trkpt lon="-3.049253" lat="52.713132"><ele>300.428619</ele><time>2022-01-15T11:29:12Z</time><extensions><speed>1.280662</speed><course>51.652256</course><hAcc>2.051952</hAcc><vAcc>0.541238</vAcc></extensions></trkpt>
      <trkpt lon="-3.049238" lat="52.713139"><ele>300.630402</ele><time>2022-01-15T11:29:13Z</time><extensions><speed>1.240306</speed><course>53.454712</course><hAcc>2.063792</hAcc><vAcc>0.541371</vAcc></extensions></trkpt>
      <trkpt lon="-3.049224" lat="52.713145"><ele>300.833374</ele><time>2022-01-15T11:29:14Z</time><extensions><speed>1.148271</speed><course>53.273094</course><hAcc>2.076243</hAcc><vAcc>0.542625</vAcc></extensions></trkpt>
      <trkpt lon="-3.049211" lat="52.713152"><ele>301.035889</ele><time>2022-01-15T11:29:15Z</time><extensions><speed>1.083748</speed><course>50.142254</course><hAcc>2.055031</hAcc><vAcc>0.544450</vAcc></extensions></trkpt>
      <trkpt lon="-3.049199" lat="52.713158"><ele>301.237183</ele><time>2022-01-15T11:29:16Z</time><extensions><speed>1.009658</speed><course>46.148441</course><hAcc>2.040638</hAcc><vAcc>0.546428</vAcc></extensions></trkpt>
      <trkpt lon="-3.049189" lat="52.713164"><ele>301.439941</ele><time>2022-01-15T11:29:17Z</time><extensions><speed>0.936582</speed><course>41.912754</course><hAcc>2.039589</hAcc><vAcc>0.548393</vAcc></extensions></trkpt>
      <trkpt lon="-3.049179" lat="52.713171"><ele>301.642944</ele><time>2022-01-15T11:29:18Z</time><extensions><speed>1.056917</speed><course>39.953495</course><hAcc>2.030441</hAcc><vAcc>0.550361</vAcc></extensions></trkpt>
      <trkpt lon="-3.049169" lat="52.713178"><ele>301.843262</ele><time>2022-01-15T11:29:19Z</time><extensions><speed>1.104365</speed><course>41.479137</course><hAcc>2.026068</hAcc><vAcc>0.552409</vAcc></extensions></trkpt>
      <trkpt lon="-3.049157" lat="52.713186"><ele>302.041748</ele><time>2022-01-15T11:29:20Z</time><extensions><speed>1.141266</speed><course>44.503063</course><hAcc>2.019210</hAcc><vAcc>0.554642</vAcc></extensions></trkpt>
      <trkpt lon="-3.049145" lat="52.713193"><ele>302.240143</ele><time>2022-01-15T11:29:21Z</time><extensions><speed>1.156580</speed><course>48.543224</course><hAcc>2.008600</hAcc><vAcc>0.557206</vAcc></extensions></trkpt>
      <trkpt lon="-3.049131" lat="52.713200"><ele>302.445038</ele><time>2022-01-15T11:29:22Z</time><extensions><speed>1.198365</speed><course>53.295338</course><hAcc>1.997779</hAcc><vAcc>0.560222</vAcc></extensions></trkpt>
      <trkpt lon="-3.049117" lat="52.713206"><ele>302.651154</ele><time>2022-01-15T11:29:23Z</time><extensions><speed>1.240503</speed><course>57.122307</course><hAcc>1.993339</hAcc><vAcc>0.563729</vAcc></extensions></trkpt>
      <trkpt lon="-3.049101" lat="52.713212"><ele>302.863281</ele><time>2022-01-15T11:29:24Z</time><extensions><speed>1.247971</speed><course>58.834442</course><hAcc>1.986906</hAcc><vAcc>0.567601</vAcc></extensions></trkpt>
      <trkpt lon="-3.049085" lat="52.713218"><ele>303.078857</ele><time>2022-01-15T11:29:25Z</time><extensions><speed>1.234758</speed><course>58.751514</course><hAcc>1.965947</hAcc><vAcc>0.571575</vAcc></extensions></trkpt>
      <trkpt lon="-3.049070" lat="52.713223"><ele>303.296661</ele><time>2022-01-15T11:29:26Z</time><extensions><speed>1.211308</speed><course>57.740795</course><hAcc>1.963868</hAcc><vAcc>0.575390</vAcc></extensions></trkpt>
      <trkpt lon="-3.049055" lat="52.713229"><ele>303.514069</ele><time>2022-01-15T11:29:27Z</time><extensions><speed>1.155836</speed><course>56.470230</course><hAcc>1.978700</hAcc><vAcc>0.578875</vAcc></extensions></trkpt>
      <trkpt lon="-3.049040" lat="52.713235"><ele>303.738068</ele><time>2022-01-15T11:29:28Z</time><extensions><speed>1.205929</speed><course>55.025410</course><hAcc>1.954700</hAcc><vAcc>0.581946</vAcc></extensions></trkpt>
      <trkpt lon="-3.049026" lat="52.713242"><ele>303.965820</ele><time>2022-01-15T11:29:29Z</time><extensions><speed>1.248818</speed><course>54.010597</course><hAcc>1.936495</hAcc><vAcc>0.584606</vAcc></extensions></trkpt>
      <trkpt lon="-3.049011" lat="52.713248"><ele>304.195557</ele><time>2022-01-15T11:29:30Z</time><extensions><speed>1.275788</speed><course>53.472874</course><hAcc>1.935911</hAcc><vAcc>0.586901</vAcc></extensions></trkpt>
      <trkpt lon="-3.048995" lat="52.713255"><ele>304.427216</ele><time>2022-01-15T11:29:31Z</time><extensions><speed>1.281736</speed><course>53.065578</course><hAcc>1.944926</hAcc><vAcc>0.588903</vAcc></extensions></trkpt>
      <trkpt lon="-3.048980" lat="52.713262"><ele>304.660004</ele><time>2022-01-15T11:29:32Z</time><extensions><speed>1.288909</speed><course>53.235741</course><hAcc>1.951139</hAcc><vAcc>0.590627</vAcc></extensions></trkpt>
      <trkpt lon="-3.048965" lat="52.713269"><ele>304.885132</ele><time>2022-01-15T11:29:33Z</time><extensions><speed>1.306919</speed><course>53.734367</course><hAcc>1.955567</hAcc><vAcc>0.592019</vAcc></extensions></trkpt>
      <trkpt lon="-3.048950" lat="52.713276"><ele>305.106812</ele><time>2022-01-15T11:29:34Z</time><extensions><speed>1.263108</speed><course>52.151398</course><hAcc>1.949203</hAcc><vAcc>0.592998</vAcc></extensions></trkpt>
      <trkpt lon="-3.048936" lat="52.713283"><ele>305.323975</ele><time>2022-01-15T11:29:35Z</time><extensions><speed>1.159007</speed><course>49.050064</course><hAcc>1.948020</hAcc><vAcc>0.593521</vAcc></extensions></trkpt>
      <trkpt lon="-3.048924" lat="52.713290"><ele>305.539612</ele><time>2022-01-15T11:29:36Z</time><extensions><speed>1.035665</speed><course>46.652576</course><hAcc>1.947998</hAcc><vAcc>0.593648</vAcc></extensions></trkpt>
      <trkpt lon="-3.048913" lat="52.713296"><ele>305.747894</ele><time>2022-01-15T11:29:37Z</time><extensions><speed>0.933702</speed><course>45.076454</course><hAcc>1.946298</hAcc><vAcc>0.593484</vAcc></extensions></trkpt>
      <trkpt lon="-3.048904" lat="52.713302"><ele>305.946716</ele><time>2022-01-15T11:29:38Z</time><extensions><speed>0.883396</speed><course>44.899120</course><hAcc>1.958336</hAcc><vAcc>0.593160</vAcc></extensions></trkpt>
      <trkpt lon="-3.048895" lat="52.713307"><ele>306.139160</ele><time>2022-01-15T11:29:39Z</time><extensions><speed>0.807972</speed><course>46.832043</course><hAcc>1.968428</hAcc><vAcc>0.592800</vAcc></extensions></trkpt>
      <trkpt lon="-3.048886" lat="52.713312"><ele>306.324371</ele><time>2022-01-15T11:29:40Z</time><extensions><speed>0.810935</speed><course>46.277752</course><hAcc>1.976986</hAcc><vAcc>0.592513</vAcc></extensions></trkpt>
      <trkpt lon="-3.048877" lat="52.713317"><ele>306.490295</ele><time>2022-01-15T11:29:41Z</time><extensions><speed>0.855409</speed><course>46.891865</course><hAcc>1.996397</hAcc><vAcc>0.592401</vAcc></extensions></trkpt>
      <trkpt lon="-3.048868" lat="52.713322"><ele>306.643738</ele><time>2022-01-15T11:29:42Z</time><extensions><speed>0.825139</speed><course>48.083984</course><hAcc>1.993092</hAcc><vAcc>0.592570</vAcc></extensions></trkpt>
      <trkpt lon="-3.048858" lat="52.713327"><ele>306.785980</ele><time>2022-01-15T11:29:43Z</time><extensions><speed>0.827002</speed><course>51.346478</course><hAcc>1.985468</hAcc><vAcc>0.593178</vAcc></extensions></trkpt>
      <trkpt lon="-3.048848" lat="52.713332"><ele>306.910309</ele><time>2022-01-15T11:29:44Z</time><extensions><speed>0.873190</speed><course>54.207134</course><hAcc>1.977539</hAcc><vAcc>0.594432</vAcc></extensions></trkpt>
      <trkpt lon="-3.048838" lat="52.713336"><ele>307.019409</ele><time>2022-01-15T11:29:45Z</time><extensions><speed>0.895584</speed><course>55.037720</course><hAcc>1.977180</hAcc><vAcc>0.596513</vAcc></extensions></trkpt>
      <trkpt lon="-3.048827" lat="52.713341"><ele>307.120331</ele><time>2022-01-15T11:29:46Z</time><extensions><speed>0.909558</speed><course>54.136600</course><hAcc>1.984439</hAcc><vAcc>0.599554</vAcc></extensions></trkpt>
      <trkpt lon="-3.048816" lat="52.713346"><ele>307.198303</ele><time>2022-01-15T11:29:47Z</time><extensions><speed>0.868776</speed><course>53.974083</course><hAcc>1.968271</hAcc><vAcc>0.603456</vAcc></extensions></trkpt>
      <trkpt lon="-3.048806" lat="52.713350"><ele>307.272369</ele><time>2022-01-15T11:29:48Z</time><extensions><speed>0.778642</speed><course>54.662842</course><hAcc>1.944006</hAcc><vAcc>0.607973</vAcc></extensions></trkpt>
      <trkpt lon="-3.048797" lat="52.713354"><ele>307.334351</ele><time>2022-01-15T11:29:49Z</time><extensions><speed>0.659503</speed><course>54.202988</course><hAcc>1.919641</hAcc><vAcc>0.612828</vAcc></extensions></trkpt>
      <trkpt lon="-3.048790" lat="52.713358"><ele>307.368408</ele><time>2022-01-15T11:29:50Z</time><extensions><speed>0.531781</speed><course>49.064453</course><hAcc>1.884769</hAcc><vAcc>0.617662</vAcc></extensions></trkpt>
      <trkpt lon="-3.048785" lat="52.713361"><ele>307.392059</ele><time>2022-01-15T11:29:51Z</time><extensions><speed>0.450219</speed><course>41.663853</course><hAcc>1.868836</hAcc><vAcc>0.622153</vAcc></extensions></trkpt>
      <trkpt lon="-3.048781" lat="52.713364"><ele>307.415894</ele><time>2022-01-15T11:29:52Z</time><extensions><speed>0.349893</speed><course>31.127625</course><hAcc>1.878971</hAcc><vAcc>0.626103</vAcc></extensions></trkpt>
      <trkpt lon="-3.048779" lat="52.713367"><ele>307.437805</ele><time>2022-01-15T11:29:53Z</time><extensions><speed>0.380928</speed><course>26.062498</course><hAcc>1.879385</hAcc><vAcc>0.629471</vAcc></extensions></trkpt>
      <trkpt lon="-3.048776" lat="52.713370"><ele>307.458221</ele><time>2022-01-15T11:29:54Z</time><extensions><speed>0.450399</speed><course>26.595072</course><hAcc>1.880879</hAcc><vAcc>0.632308</vAcc></extensions></trkpt>
      <trkpt lon="-3.048772" lat="52.713374"><ele>307.470856</ele><time>2022-01-15T11:29:55Z</time><extensions><speed>0.538883</speed><course>29.872852</course><hAcc>1.886303</hAcc><vAcc>0.634882</vAcc></extensions></trkpt>
      <trkpt lon="-3.048767" lat="52.713379"><ele>307.484009</ele><time>2022-01-15T11:29:56Z</time><extensions><speed>0.696414</speed><course>34.550720</course><hAcc>1.880714</hAcc><vAcc>0.637283</vAcc></extensions></trkpt>
      <trkpt lon="-3.048760" lat="52.713385"><ele>307.505890</ele><time>2022-01-15T11:29:57Z</time><extensions><speed>0.981981</speed><course>40.002174</course><hAcc>1.864432</hAcc><vAcc>0.639607</vAcc></extensions></trkpt>
      <trkpt lon="-3.048750" lat="52.713392"><ele>307.519470</ele><time>2022-01-15T11:29:58Z</time><extensions><speed>1.090379</speed><course>42.593216</course><hAcc>1.873823</hAcc><vAcc>0.641893</vAcc></extensions></trkpt>
      <trkpt lon="-3.048739" lat="52.713399"><ele>307.535828</ele><time>2022-01-15T11:29:59Z</time><extensions><speed>1.064218</speed><course>44.709469</course><hAcc>1.887382</hAcc><vAcc>0.644172</vAcc></extensions></trkpt>
      <trkpt lon="-3.048728" lat="52.713405"><ele>307.552704</ele><time>2022-01-15T11:30:00Z</time><extensions><speed>0.974459</speed><course>44.354626</course><hAcc>1.901351</hAcc><vAcc>0.646500</vAcc></extensions></trkpt>
      <trkpt lon="-3.048718" lat="52.713411"><ele>307.571014</ele><time>2022-01-15T11:30:01Z</time><extensions><speed>0.855772</speed><course>45.101059</course><hAcc>1.919396</hAcc><vAcc>0.648941</vAcc></extensions></trkpt>
      <trkpt lon="-3.048708" lat="52.713417"><ele>307.592804</ele><time>2022-01-15T11:30:02Z</time><extensions><speed>1.111228</speed><course>47.166679</course><hAcc>1.905780</hAcc><vAcc>0.651503</vAcc></extensions></trkpt>
      <trkpt lon="-3.048695" lat="52.713424"><ele>307.614868</ele><time>2022-01-15T11:30:03Z</time><extensions><speed>1.229812</speed><course>49.653252</course><hAcc>1.906960</hAcc><vAcc>0.654215</vAcc></extensions></trkpt>
      <trkpt lon="-3.048681" lat="52.713432"><ele>307.637207</ele><time>2022-01-15T11:30:04Z</time><extensions><speed>1.241060</speed><course>49.684471</course><hAcc>1.911963</hAcc><vAcc>0.657145</vAcc></extensions></trkpt>
      <trkpt lon="-3.048667" lat="52.713439"><ele>307.660767</ele><time>2022-01-15T11:30:05Z</time><extensions><speed>1.180961</speed><course>48.655067</course><hAcc>1.912724</hAcc><vAcc>0.660263</vAcc></extensions></trkpt>
      <trkpt lon="-3.048655" lat="52.713446"><ele>307.686249</ele><time>2022-01-15T11:30:06Z</time><extensions><speed>1.110794</speed><course>47.271729</course><hAcc>1.901783</hAcc><vAcc>0.663497</vAcc></extensions></trkpt>
      <trkpt lon="-3.048643" lat="52.713452"><ele>307.721710</ele><time>2022-01-15T11:30:07Z</time><extensions><speed>1.065865</speed><course>45.955952</course><hAcc>1.895909</hAcc><vAcc>0.666726</vAcc></extensions></trkpt>
      <trkpt lon="-3.048631" lat="52.713459"><ele>307.749817</ele><time>2022-01-15T11:30:08Z</time><extensions><speed>1.131203</speed><course>45.533852</course><hAcc>1.888462</hAcc><vAcc>0.669869</vAcc></extensions></trkpt>
      <trkpt lon="-3.048619" lat="52.713467"><ele>307.760437</ele><time>2022-01-15T11:30:09Z</time><extensions><speed>1.223748</speed><course>45.397118</course><hAcc>1.886100</hAcc><vAcc>0.672967</vAcc></extensions></trkpt>
      <trkpt lon="-3.048605" lat="52.713475"><ele>307.783142</ele><time>2022-01-15T11:30:10Z</time><extensions><speed>1.289720</speed><course>45.666786</course><hAcc>1.882993</hAcc><vAcc>0.675879</vAcc></extensions></trkpt>
      <trkpt lon="-3.048592" lat="52.713483"><ele>307.802124</ele><time>2022-01-15T11:30:11Z</time><extensions><speed>1.256320</speed><course>46.279411</course><hAcc>1.883820</hAcc><vAcc>0.678476</vAcc></extensions></trkpt>
      <trkpt lon="-3.048578" lat="52.713490"><ele>307.831665</ele><time>2022-01-15T11:30:12Z</time><extensions><speed>1.221607</speed><course>46.023018</course><hAcc>1.870516</hAcc><vAcc>0.680582</vAcc></extensions></trkpt>
      <trkpt lon="-3.048566" lat="52.713498"><ele>307.856934</ele><time>2022-01-15T11:30:13Z</time><extensions><speed>1.166988</speed><course>46.231174</course><hAcc>1.858524</hAcc><vAcc>0.682090</vAcc></extensions></trkpt>
      <trkpt lon="-3.048553" lat="52.713505"><ele>307.882507</ele><time>2022-01-15T11:30:14Z</time><extensions><speed>1.136407</speed><course>46.542973</course><hAcc>1.861540</hAcc><vAcc>0.683062</vAcc></extensions></trkpt>
      <trkpt lon="-3.048541" lat="52.713512"><ele>307.916565</ele><time>2022-01-15T11:30:15Z</time><extensions><speed>1.102511</speed><course>46.669678</course><hAcc>1.873085</hAcc><vAcc>0.683429</vAcc></extensions></trkpt>
      <trkpt lon="-3.048530" lat="52.713519"><ele>307.947144</ele><time>2022-01-15T11:30:16Z</time><extensions><speed>1.072841</speed><course>46.012249</course><hAcc>1.883007</hAcc><vAcc>0.683265</vAcc></extensions></trkpt>
      <trkpt lon="-3.048518" lat="52.713525"><ele>307.974365</ele><time>2022-01-15T11:30:17Z</time><extensions><speed>1.073161</speed><course>46.906464</course><hAcc>1.881595</hAcc><vAcc>0.682681</vAcc></extensions></trkpt>
      <trkpt lon="-3.048506" lat="52.713532"><ele>308.001923</ele><time>2022-01-15T11:30:18Z</time><extensions><speed>1.037560</speed><course>49.313381</course><hAcc>1.886016</hAcc><vAcc>0.681878</vAcc></extensions></trkpt>
      <trkpt lon="-3.048495" lat="52.713538"><ele>308.028473</ele><time>2022-01-15T11:30:19Z</time><extensions><speed>0.974474</speed><course>51.790981</course><hAcc>1.905945</hAcc><vAcc>0.681025</vAcc></extensions></trkpt>
      <trkpt lon="-3.048484" lat="52.713543"><ele>308.058075</ele><time>2022-01-15T11:30:20Z</time><extensions><speed>0.947309</speed><course>51.551929</course><hAcc>1.915414</hAcc><vAcc>0.680250</vAcc></extensions></trkpt>
      <trkpt lon="-3.048473" lat="52.713548"><ele>308.084717</ele><time>2022-01-15T11:30:21Z</time><extensions><speed>0.862881</speed><course>48.797596</course><hAcc>1.925064</hAcc><vAcc>0.679680</vAcc></extensions></trkpt>
      <trkpt lon="-3.048462" lat="52.713554"><ele>308.109894</ele><time>2022-01-15T11:30:22Z</time><extensions><speed>1.110265</speed><course>46.981617</course><hAcc>1.898623</hAcc><vAcc>0.679423</vAcc></extensions></trkpt>
      <trkpt lon="-3.048450" lat="52.713562"><ele>308.133484</ele><time>2022-01-15T11:30:23Z</time><extensions><speed>1.251077</speed><course>45.231773</course><hAcc>1.887058</hAcc><vAcc>0.679439</vAcc></extensions></trkpt>
      <trkpt lon="-3.048436" lat="52.713570"><ele>308.152222</ele><time>2022-01-15T11:30:24Z</time><extensions><speed>1.331381</speed><course>43.625992</course><hAcc>1.897631</hAcc><vAcc>0.679614</vAcc></extensions></trkpt>
      <trkpt lon="-3.048423" lat="52.713579"><ele>308.179932</ele><time>2022-01-15T11:30:25Z</time><extensions><speed>1.315709</speed><course>41.772488</course><hAcc>1.908153</hAcc><vAcc>0.679796</vAcc></extensions></trkpt>
      <trkpt lon="-3.048410" lat="52.713587"><ele>308.196808</ele><time>2022-01-15T11:30:26Z</time><extensions><speed>1.227723</speed><course>43.477467</course><hAcc>1.920079</hAcc><vAcc>0.679838</vAcc></extensions></trkpt>
      <trkpt lon="-3.048398" lat="52.713595"><ele>308.217712</ele><time>2022-01-15T11:30:26Z</time><extensions><speed>1.236679</speed><course>43.615913</course><hAcc>1.904005</hAcc><vAcc>0.679590</vAcc></extensions></trkpt>
      <trkpt lon="-3.048385" lat="52.713603"><ele>308.241669</ele><time>2022-01-15T11:30:27Z</time><extensions><speed>1.233133</speed><course>45.087139</course><hAcc>1.893347</hAcc><vAcc>0.679039</vAcc></extensions></trkpt>
      <trkpt lon="-3.048372" lat="52.713611"><ele>308.262817</ele><time>2022-01-15T11:30:29Z</time><extensions><speed>1.263567</speed><course>46.649662</course><hAcc>1.891878</hAcc><vAcc>0.678092</vAcc></extensions></trkpt>
      <trkpt lon="-3.048358" lat="52.713619"><ele>308.282990</ele><time>2022-01-15T11:30:30Z</time><extensions><speed>1.344670</speed><course>47.323303</course><hAcc>1.903884</hAcc><vAcc>0.676845</vAcc></extensions></trkpt>
      <trkpt lon="-3.048343" lat="52.713627"><ele>308.287384</ele><time>2022-01-15T11:30:31Z</time><extensions><speed>1.377102</speed><course>48.870190</course><hAcc>1.925229</hAcc><vAcc>0.675535</vAcc></extensions></trkpt>
      <trkpt lon="-3.048328" lat="52.713635"><ele>308.293274</ele><time>2022-01-15T11:30:32Z</time><extensions><speed>1.295080</speed><course>48.219078</course><hAcc>1.932350</hAcc><vAcc>0.674264</vAcc></extensions></trkpt>
      <trkpt lon="-3.048314" lat="52.713643"><ele>308.307983</ele><time>2022-01-15T11:30:33Z</time><extensions><speed>1.246377</speed><course>44.912243</course><hAcc>1.928942</hAcc><vAcc>0.673139</vAcc></extensions></trkpt>
      <trkpt lon="-3.048301" lat="52.713651"><ele>308.333923</ele><time>2022-01-15T11:30:34Z</time><extensions><speed>1.209905</speed><course>42.052696</course><hAcc>1.931638</hAcc><vAcc>0.672249</vAcc></extensions></trkpt>
      <trkpt lon="-3.048290" lat="52.713659"><ele>308.363525</ele><time>2022-01-15T11:30:35Z</time><extensions><speed>1.209732</speed><course>38.954952</course><hAcc>1.928992</hAcc><vAcc>0.671632</vAcc></extensions></trkpt>
      <trkpt lon="-3.048279" lat="52.713668"><ele>308.398010</ele><time>2022-01-15T11:30:36Z</time><extensions><speed>1.192611</speed><course>38.334843</course><hAcc>1.929491</hAcc><vAcc>0.671309</vAcc></extensions></trkpt>
      <trkpt lon="-3.048267" lat="52.713677"><ele>308.431976</ele><time>2022-01-15T11:30:37Z</time><extensions><speed>1.255980</speed><course>39.112534</course><hAcc>1.924431</hAcc><vAcc>0.671309</vAcc></extensions></trkpt>
      <trkpt lon="-3.048255" lat="52.713685"><ele>308.479279</ele><time>2022-01-15T11:30:38Z</time><extensions><speed>1.320671</speed><course>40.593315</course><hAcc>1.912248</hAcc><vAcc>0.671601</vAcc></extensions></trkpt>
      <trkpt lon="-3.048241" lat="52.713695"><ele>308.524353</ele><time>2022-01-15T11:30:39Z</time><extensions><speed>1.386552</speed><course>43.063335</course><hAcc>1.904386</hAcc><vAcc>0.672184</vAcc></extensions></trkpt>
      <trkpt lon="-3.048227" lat="52.713704"><ele>308.581787</ele><time>2022-01-15T11:30:40Z</time><extensions><speed>1.423822</speed><course>45.451061</course><hAcc>1.898372</hAcc><vAcc>0.673077</vAcc></extensions></trkpt>
      <trkpt lon="-3.048211" lat="52.713713"><ele>308.645020</ele><time>2022-01-15T11:30:41Z</time><extensions><speed>1.421383</speed><course>47.806469</course><hAcc>1.893453</hAcc><vAcc>0.674180</vAcc></extensions></trkpt>
      <trkpt lon="-3.048195" lat="52.713721"><ele>308.715698</ele><time>2022-01-15T11:30:42Z</time><extensions><speed>1.479369</speed><course>49.966976</course><hAcc>1.884139</hAcc><vAcc>0.675347</vAcc></extensions></trkpt>
      <trkpt lon="-3.048178" lat="52.713730"><ele>308.789001</ele><time>2022-01-15T11:30:43Z</time><extensions><speed>1.476209</speed><course>51.482773</course><hAcc>1.878306</hAcc><vAcc>0.676459</vAcc></extensions></trkpt>
      <trkpt lon="-3.048160" lat="52.713738"><ele>308.875610</ele><time>2022-01-15T11:30:44Z</time><extensions><speed>1.499905</speed><course>51.611526</course><hAcc>1.854526</hAcc><vAcc>0.677457</vAcc></extensions></trkpt>
      <trkpt lon="-3.048143" lat="52.713747"><ele>308.960907</ele><time>2022-01-15T11:30:45Z</time><extensions><speed>1.514666</speed><course>52.051208</course><hAcc>1.833483</hAcc><vAcc>0.678449</vAcc></extensions></trkpt>
      <trkpt lon="-3.048125" lat="52.713755"><ele>309.040955</ele><time>2022-01-15T11:30:46Z</time><extensions><speed>1.472682</speed><course>52.595322</course><hAcc>1.819934</hAcc><vAcc>0.679527</vAcc></extensions></trkpt>
      <trkpt lon="-3.048108" lat="52.713763"><ele>309.125641</ele><time>2022-01-15T11:30:47Z</time><extensions><speed>1.415013</speed><course>52.984409</course><hAcc>1.813206</hAcc><vAcc>0.680751</vAcc></extensions></trkpt>
      <trkpt lon="-3.048092" lat="52.713770"><ele>309.199249</ele><time>2022-01-15T11:30:48Z</time><extensions><speed>1.360410</speed><course>53.219486</course><hAcc>1.822010</hAcc><vAcc>0.682275</vAcc></extensions></trkpt>
      <trkpt lon="-3.048076" lat="52.713777"><ele>309.266327</ele><time>2022-01-15T11:30:49Z</time><extensions><speed>1.210696</speed><course>54.296082</course><hAcc>1.849334</hAcc><vAcc>0.684106</vAcc></extensions></trkpt>
      <trkpt lon="-3.048062" lat="52.713783"><ele>309.335205</ele><time>2022-01-15T11:30:50Z</time><extensions><speed>1.191137</speed><course>56.489994</course><hAcc>1.835372</hAcc><vAcc>0.686258</vAcc></extensions></trkpt>
      <trkpt lon="-3.048047" lat="52.713789"><ele>309.397339</ele><time>2022-01-15T11:30:51Z</time><extensions><speed>1.185147</speed><course>58.393711</course><hAcc>1.814787</hAcc><vAcc>0.688711</vAcc></extensions></trkpt>
      <trkpt lon="-3.048032" lat="52.713794"><ele>309.458618</ele><time>2022-01-15T11:30:52Z</time><extensions><speed>1.101434</speed><course>60.874607</course><hAcc>1.822537</hAcc><vAcc>0.691485</vAcc></extensions></trkpt>
      <trkpt lon="-3.048019" lat="52.713798"><ele>309.518311</ele><time>2022-01-15T11:30:53Z</time><extensions><speed>0.997720</speed><course>62.520500</course><hAcc>1.841893</hAcc><vAcc>0.694546</vAcc></extensions></trkpt>
      <trkpt lon="-3.048007" lat="52.713802"><ele>309.565460</ele><time>2022-01-15T11:30:54Z</time><extensions><speed>0.788048</speed><course>62.232208</course><hAcc>1.862292</hAcc><vAcc>0.697810</vAcc></extensions></trkpt>
      <trkpt lon="-3.047998" lat="52.713805"><ele>309.604492</ele><time>2022-01-15T11:30:55Z</time><extensions><speed>0.566421</speed><course>58.834156</course><hAcc>1.868640</hAcc><vAcc>0.701215</vAcc></extensions></trkpt>
      <trkpt lon="-3.047991" lat="52.713808"><ele>309.635193</ele><time>2022-01-15T11:30:56Z</time><extensions><speed>0.599668</speed><course>51.430187</course><hAcc>1.850231</hAcc><vAcc>0.704498</vAcc></extensions></trkpt>
      <trkpt lon="-3.047983" lat="52.713813"><ele>309.657318</ele><time>2022-01-15T11:30:57Z</time><extensions><speed>0.835357</speed><course>45.362923</course><hAcc>1.832625</hAcc><vAcc>0.707496</vAcc></extensions></trkpt>
      <trkpt lon="-3.047974" lat="52.713819"><ele>309.665527</ele><time>2022-01-15T11:30:58Z</time><extensions><speed>1.013997</speed><course>42.546658</course><hAcc>1.848501</hAcc><vAcc>0.709946</vAcc></extensions></trkpt>
      <trkpt lon="-3.047963" lat="52.713826"><ele>309.666534</ele><time>2022-01-15T11:30:59Z</time><extensions><speed>1.123580</speed><course>42.025482</course><hAcc>1.853018</hAcc><vAcc>0.711723</vAcc></extensions></trkpt>
      <trkpt lon="-3.047951" lat="52.713834"><ele>309.672058</ele><time>2022-01-15T11:31:00Z</time><extensions><speed>1.189385</speed><course>41.628994</course><hAcc>1.842780</hAcc><vAcc>0.712591</vAcc></extensions></trkpt>
      <trkpt lon="-3.047939" lat="52.713842"><ele>309.660339</ele><time>2022-01-15T11:31:01Z</time><extensions><speed>1.301737</speed><course>42.573235</course><hAcc>1.822718</hAcc><vAcc>0.712477</vAcc></extensions></trkpt>
      <trkpt lon="-3.047926" lat="52.713851"><ele>309.654572</ele><time>2022-01-15T11:31:02Z</time><extensions><speed>1.351565</speed><course>42.610760</course><hAcc>1.817744</hAcc><vAcc>0.711340</vAcc></extensions></trkpt>
      <trkpt lon="-3.047912" lat="52.713860"><ele>309.649261</ele><time>2022-01-15T11:31:03Z</time><extensions><speed>1.357356</speed><course>42.604774</course><hAcc>1.815858</hAcc><vAcc>0.709384</vAcc></extensions></trkpt>
      <trkpt lon="-3.047898" lat="52.713869"><ele>309.613312</ele><time>2022-01-15T11:31:04Z</time><extensions><speed>1.365419</speed><course>42.687904</course><hAcc>1.823176</hAcc><vAcc>0.706558</vAcc></extensions></trkpt>
      <trkpt lon="-3.047885" lat="52.713878"><ele>309.567413</ele><time>2022-01-15T11:31:05Z</time><extensions><speed>1.339357</speed><course>42.836014</course><hAcc>1.831272</hAcc><vAcc>0.702966</vAcc></extensions></trkpt>
      <trkpt lon="-3.047871" lat="52.713886"><ele>309.527344</ele><time>2022-01-15T11:31:06Z</time><extensions><speed>1.258144</speed><course>44.414642</course><hAcc>1.840791</hAcc><vAcc>0.698694</vAcc></extensions></trkpt>
      <trkpt lon="-3.047858" lat="52.713894"><ele>309.488800</ele><time>2022-01-15T11:31:07Z</time><extensions><speed>1.230052</speed><course>44.442661</course><hAcc>1.842993</hAcc><vAcc>0.693816</vAcc></extensions></trkpt>
      <trkpt lon="-3.047846" lat="52.713902"><ele>309.448730</ele><time>2022-01-15T11:31:08Z</time><extensions><speed>1.147702</speed><course>42.519985</course><hAcc>1.854689</hAcc><vAcc>0.688433</vAcc></extensions></trkpt>
      <trkpt lon="-3.047835" lat="52.713910"><ele>309.407196</ele><time>2022-01-15T11:31:09Z</time><extensions><speed>1.086848</speed><course>40.669014</course><hAcc>1.868435</hAcc><vAcc>0.682612</vAcc></extensions></trkpt>
      <trkpt lon="-3.047825" lat="52.713917"><ele>309.376129</ele><time>2022-01-15T11:31:10Z</time><extensions><speed>1.088659</speed><course>41.871342</course><hAcc>1.863510</hAcc><vAcc>0.676396</vAcc></extensions></trkpt>
      <trkpt lon="-3.047813" lat="52.713924"><ele>309.336670</ele><time>2022-01-15T11:31:11Z</time><extensions><speed>1.134920</speed><course>43.973167</course><hAcc>1.853146</hAcc><vAcc>0.669908</vAcc></extensions></trkpt>
      <trkpt lon="-3.047801" lat="52.713932"><ele>309.298035</ele><time>2022-01-15T11:31:12Z</time><extensions><speed>1.184258</speed><course>45.924217</course><hAcc>1.860677</hAcc><vAcc>0.663224</vAcc></extensions></trkpt>
      <trkpt lon="-3.047788" lat="52.713939"><ele>309.262421</ele><time>2022-01-15T11:31:13Z</time><extensions><speed>1.211356</speed><course>47.492718</course><hAcc>1.878355</hAcc><vAcc>0.656398</vAcc></extensions></trkpt>
      <trkpt lon="-3.047775" lat="52.713947"><ele>309.230164</ele><time>2022-01-15T11:31:14Z</time><extensions><speed>1.239385</speed><course>47.766323</course><hAcc>1.882007</hAcc><vAcc>0.649491</vAcc></extensions></trkpt>
      <trkpt lon="-3.047761" lat="52.713955"><ele>309.203003</ele><time>2022-01-15T11:31:15Z</time><extensions><speed>1.306195</speed><course>45.685974</course><hAcc>1.877528</hAcc><vAcc>0.642649</vAcc></extensions></trkpt>
      <trkpt lon="-3.047747" lat="52.713963"><ele>309.181519</ele><time>2022-01-15T11:31:16Z</time><extensions><speed>1.343314</speed><course>43.778225</course><hAcc>1.870380</hAcc><vAcc>0.636125</vAcc></extensions></trkpt>
      <trkpt lon="-3.047733" lat="52.713972"><ele>309.165039</ele><time>2022-01-15T11:31:17Z</time><extensions><speed>1.395243</speed><course>43.574352</course><hAcc>1.882327</hAcc><vAcc>0.630255</vAcc></extensions></trkpt>
      <trkpt lon="-3.047719" lat="52.713982"><ele>309.153168</ele><time>2022-01-15T11:31:18Z</time><extensions><speed>1.408421</speed><course>44.251919</course><hAcc>1.875415</hAcc><vAcc>0.625411</vAcc></extensions></trkpt>
      <trkpt lon="-3.047704" lat="52.713991"><ele>309.145386</ele><time>2022-01-15T11:31:19Z</time><extensions><speed>1.435155</speed><course>43.986862</course><hAcc>1.864000</hAcc><vAcc>0.621997</vAcc></extensions></trkpt>
      <trkpt lon="-3.047689" lat="52.714000"><ele>309.141602</ele><time>2022-01-15T11:31:20Z</time><extensions><speed>1.470078</speed><course>43.479206</course><hAcc>1.864403</hAcc><vAcc>0.620406</vAcc></extensions></trkpt>
      <trkpt lon="-3.047674" lat="52.714010"><ele>309.141876</ele><time>2022-01-15T11:31:21Z</time><extensions><speed>1.437776</speed><course>41.664474</course><hAcc>1.881068</hAcc><vAcc>0.620821</vAcc></extensions></trkpt>
      <trkpt lon="-3.047661" lat="52.714020"><ele>309.147339</ele><time>2022-01-15T11:31:22Z</time><extensions><speed>1.423254</speed><course>38.810345</course><hAcc>1.889925</hAcc><vAcc>0.623177</vAcc></extensions></trkpt>
      <trkpt lon="-3.047648" lat="52.714030"><ele>309.157715</ele><time>2022-01-15T11:31:23Z</time><extensions><speed>1.446247</speed><course>34.951908</course><hAcc>1.875355</hAcc><vAcc>0.627122</vAcc></extensions></trkpt>
      <trkpt lon="-3.047636" lat="52.714041"><ele>309.171478</ele><time>2022-01-15T11:31:24Z</time><extensions><speed>1.511989</speed><course>32.429043</course><hAcc>1.862785</hAcc><vAcc>0.632134</vAcc></extensions></trkpt>
      <trkpt lon="-3.047624" lat="52.714053"><ele>309.189392</ele><time>2022-01-15T11:31:25Z</time><extensions><speed>1.507942</speed><course>30.968622</course><hAcc>1.862988</hAcc><vAcc>0.637682</vAcc></extensions></trkpt>
      <trkpt lon="-3.047613" lat="52.714065"><ele>309.209290</ele><time>2022-01-15T11:31:26Z</time><extensions><speed>1.470164</speed><course>30.318237</course><hAcc>1.863580</hAcc><vAcc>0.643316</vAcc></extensions></trkpt>
      <trkpt lon="-3.047602" lat="52.714076"><ele>309.232361</ele><time>2022-01-15T11:31:27Z</time><extensions><speed>1.445986</speed><course>29.751789</course><hAcc>1.857893</hAcc><vAcc>0.648730</vAcc></extensions></trkpt>
      <trkpt lon="-3.047592" lat="52.714087"><ele>309.253387</ele><time>2022-01-15T11:31:28Z</time><extensions><speed>1.434235</speed><course>29.101622</course><hAcc>1.856825</hAcc><vAcc>0.653819</vAcc></extensions></trkpt>
      <trkpt lon="-3.047581" lat="52.714099"><ele>309.278931</ele><time>2022-01-15T11:31:29Z</time><extensions><speed>1.419293</speed><course>29.171207</course><hAcc>1.863759</hAcc><vAcc>0.658527</vAcc></extensions></trkpt>
      <trkpt lon="-3.047571" lat="52.714110"><ele>309.301117</ele><time>2022-01-15T11:31:30Z</time><extensions><speed>1.435880</speed><course>29.016186</course><hAcc>1.868008</hAcc><vAcc>0.662840</vAcc></extensions></trkpt>
      <trkpt lon="-3.047561" lat="52.714121"><ele>309.322723</ele><time>2022-01-15T11:31:31Z</time><extensions><speed>1.394821</speed><course>28.447338</course><hAcc>1.861468</hAcc><vAcc>0.666748</vAcc></extensions></trkpt>
      <trkpt lon="-3.047552" lat="52.714132"><ele>309.342194</ele><time>2022-01-15T11:31:32Z</time><extensions><speed>1.324956</speed><course>27.849491</course><hAcc>1.853495</hAcc><vAcc>0.670223</vAcc></extensions></trkpt>
      <trkpt lon="-3.047543" lat="52.714142"><ele>309.355530</ele><time>2022-01-15T11:31:33Z</time><extensions><speed>1.204460</speed><course>26.899614</course><hAcc>1.846333</hAcc><vAcc>0.673270</vAcc></extensions></trkpt>
      <trkpt lon="-3.047535" lat="52.714151"><ele>309.370270</ele><time>2022-01-15T11:31:34Z</time><extensions><speed>1.127308</speed><course>26.304026</course><hAcc>1.841363</hAcc><vAcc>0.675865</vAcc></extensions></trkpt>
      <trkpt lon="-3.047528" lat="52.714161"><ele>309.374573</ele><time>2022-01-15T11:31:35Z</time><extensions><speed>1.146385</speed><course>26.040350</course><hAcc>1.843023</hAcc><vAcc>0.678168</vAcc></extensions></trkpt>
      <trkpt lon="-3.047520" lat="52.714170"><ele>309.372498</ele><time>2022-01-15T11:31:36Z</time><extensions><speed>1.190951</speed><course>27.996284</course><hAcc>1.849912</hAcc><vAcc>0.680155</vAcc></extensions></trkpt>
      <trkpt lon="-3.047512" lat="52.714180"><ele>309.363403</ele><time>2022-01-15T11:31:37Z</time><extensions><speed>1.230925</speed><course>28.027109</course><hAcc>1.844184</hAcc><vAcc>0.681880</vAcc></extensions></trkpt>
      <trkpt lon="-3.047503" lat="52.714189"><ele>309.346222</ele><time>2022-01-15T11:31:38Z</time><extensions><speed>1.214415</speed><course>27.328144</course><hAcc>1.841747</hAcc><vAcc>0.683392</vAcc></extensions></trkpt>
      <trkpt lon="-3.047495" lat="52.714199"><ele>309.324127</ele><time>2022-01-15T11:31:39Z</time><extensions><speed>1.182216</speed><course>25.954372</course><hAcc>1.843868</hAcc><vAcc>0.684801</vAcc></extensions></trkpt>
      <trkpt lon="-3.047488" lat="52.714209"><ele>309.289703</ele><time>2022-01-15T11:31:40Z</time><extensions><speed>1.137174</speed><course>23.967562</course><hAcc>1.853828</hAcc><vAcc>0.686172</vAcc></extensions></trkpt>
      <trkpt lon="-3.047482" lat="52.714218"><ele>309.246735</ele><time>2022-01-15T11:31:41Z</time><extensions><speed>1.050109</speed><course>22.851814</course><hAcc>1.868335</hAcc><vAcc>0.687552</vAcc></extensions></trkpt>
      <trkpt lon="-3.047476" lat="52.714226"><ele>309.195099</ele><time>2022-01-15T11:31:42Z</time><extensions><speed>0.997959</speed><course>21.038080</course><hAcc>1.865721</hAcc><vAcc>0.688940</vAcc></extensions></trkpt>
      <trkpt lon="-3.047471" lat="52.714234"><ele>309.133301</ele><time>2022-01-15T11:31:43Z</time><extensions><speed>0.954188</speed><course>18.588085</course><hAcc>1.854780</hAcc><vAcc>0.690213</vAcc></extensions></trkpt>
      <trkpt lon="-3.047467" lat="52.714243"><ele>309.059326</ele><time>2022-01-15T11:31:44Z</time><extensions><speed>0.984717</speed><course>16.628750</course><hAcc>1.851331</hAcc><vAcc>0.691275</vAcc></extensions></trkpt>
      <trkpt lon="-3.047462" lat="52.714251"><ele>308.977020</ele><time>2022-01-15T11:31:45Z</time><extensions><speed>0.992977</speed><course>19.105034</course><hAcc>1.868717</hAcc><vAcc>0.692066</vAcc></extensions></trkpt>
      <trkpt lon="-3.047457" lat="52.714260"><ele>308.887207</ele><time>2022-01-15T11:31:46Z</time><extensions><speed>1.020963</speed><course>24.056580</course><hAcc>1.871895</hAcc><vAcc>0.692550</vAcc></extensions></trkpt>
      <trkpt lon="-3.047450" lat="52.714268"><ele>308.786865</ele><time>2022-01-15T11:31:47Z</time><extensions><speed>1.049071</speed><course>28.682455</course><hAcc>1.867958</hAcc><vAcc>0.692849</vAcc></extensions></trkpt>
      <trkpt lon="-3.047442" lat="52.714276"><ele>308.683899</ele><time>2022-01-15T11:31:48Z</time><extensions><speed>1.050141</speed><course>32.355923</course><hAcc>1.863617</hAcc><vAcc>0.692919</vAcc></extensions></trkpt>
      <trkpt lon="-3.047433" lat="52.714284"><ele>308.572662</ele><time>2022-01-15T11:31:49Z</time><extensions><speed>1.068436</speed><course>33.924950</course><hAcc>1.860693</hAcc><vAcc>0.692674</vAcc></extensions></trkpt>
      <trkpt lon="-3.047424" lat="52.714292"><ele>308.452545</ele><time>2022-01-15T11:31:50Z</time><extensions><speed>1.103693</speed><course>34.411716</course><hAcc>1.860040</hAcc><vAcc>0.692096</vAcc></extensions></trkpt>
      <trkpt lon="-3.047415" lat="52.714301"><ele>308.332733</ele><time>2022-01-15T11:31:51Z</time><extensions><speed>1.162803</speed><course>34.599731</course><hAcc>1.862826</hAcc><vAcc>0.690994</vAcc></extensions></trkpt>
      <trkpt lon="-3.047405" lat="52.714309"><ele>308.202759</ele><time>2022-01-15T11:31:52Z</time><extensions><speed>1.148597</speed><course>35.336704</course><hAcc>1.870014</hAcc><vAcc>0.689407</vAcc></extensions></trkpt>
      <trkpt lon="-3.047395" lat="52.714317"><ele>308.082001</ele><time>2022-01-15T11:31:53Z</time><extensions><speed>1.118129</speed><course>37.410816</course><hAcc>1.868588</hAcc><vAcc>0.687336</vAcc></extensions></trkpt>
      <trkpt lon="-3.047385" lat="52.714325"><ele>307.947174</ele><time>2022-01-15T11:31:54Z</time><extensions><speed>1.070811</speed><course>40.742329</course><hAcc>1.866807</hAcc><vAcc>0.684871</vAcc></extensions></trkpt>
      <trkpt lon="-3.047374" lat="52.714332"><ele>307.825897</ele><time>2022-01-15T11:31:55Z</time><extensions><speed>1.084298</speed><course>44.235477</course><hAcc>1.882557</hAcc><vAcc>0.682080</vAcc></extensions></trkpt>
      <trkpt lon="-3.047362" lat="52.714339"><ele>307.693787</ele><time>2022-01-15T11:31:56Z</time><extensions><speed>1.162449</speed><course>46.133999</course><hAcc>1.897741</hAcc><vAcc>0.679073</vAcc></extensions></trkpt>
      <trkpt lon="-3.047350" lat="52.714347"><ele>307.570129</ele><time>2022-01-15T11:31:57Z</time><extensions><speed>1.151431</speed><course>46.284130</course><hAcc>1.909774</hAcc><vAcc>0.675954</vAcc></extensions></trkpt>
      <trkpt lon="-3.047338" lat="52.714354"><ele>307.439819</ele><time>2022-01-15T11:31:58Z</time><extensions><speed>1.123576</speed><course>43.494133</course><hAcc>1.908131</hAcc><vAcc>0.672896</vAcc></extensions></trkpt>
      <trkpt lon="-3.047327" lat="52.714361"><ele>307.316925</ele><time>2022-01-15T11:31:59Z</time><extensions><speed>1.134896</speed><course>39.242489</course><hAcc>1.902261</hAcc><vAcc>0.670047</vAcc></extensions></trkpt>
      <trkpt lon="-3.047317" lat="52.714370"><ele>307.193970</ele><time>2022-01-15T11:32:00Z</time><extensions><speed>1.158561</speed><course>35.814266</course><hAcc>1.911356</hAcc><vAcc>0.667628</vAcc></extensions></trkpt>
      <trkpt lon="-3.047307" lat="52.714378"><ele>307.075958</ele><time>2022-01-15T11:32:01Z</time><extensions><speed>1.191423</speed><course>32.509449</course><hAcc>1.916661</hAcc><vAcc>0.665879</vAcc></extensions></trkpt>
      <trkpt lon="-3.047298" lat="52.714388"><ele>306.962250</ele><time>2022-01-15T11:32:02Z</time><extensions><speed>1.206698</speed><course>28.383913</course><hAcc>1.917369</hAcc><vAcc>0.664955</vAcc></extensions></trkpt>
      <trkpt lon="-3.047290" lat="52.714398"><ele>306.855957</ele><time>2022-01-15T11:32:03Z</time><extensions><speed>1.247229</speed><course>25.852343</course><hAcc>1.917022</hAcc><vAcc>0.664704</vAcc></extensions></trkpt>
      <trkpt lon="-3.047282" lat="52.714408"><ele>306.750702</ele><time>2022-01-15T11:32:04Z</time><extensions><speed>1.250538</speed><course>24.721317</course><hAcc>1.909694</hAcc><vAcc>0.664901</vAcc></extensions></trkpt>
      <trkpt lon="-3.047274" lat="52.714418"><ele>306.658966</ele><time>2022-01-15T11:32:05Z</time><extensions><speed>1.237291</speed><course>23.387426</course><hAcc>1.902918</hAcc><vAcc>0.665266</vAcc></extensions></trkpt>
      <trkpt lon="-3.047267" lat="52.714428"><ele>306.573059</ele><time>2022-01-15T11:32:06Z</time><extensions><speed>1.227621</speed><course>21.867645</course><hAcc>1.895584</hAcc><vAcc>0.665583</vAcc></extensions></trkpt>
      <trkpt lon="-3.047260" lat="52.714439"><ele>306.502625</ele><time>2022-01-15T11:32:07Z</time><extensions><speed>1.264134</speed><course>21.686880</course><hAcc>1.895030</hAcc><vAcc>0.665807</vAcc></extensions></trkpt>
      <trkpt lon="-3.047253" lat="52.714449"><ele>306.441162</ele><time>2022-01-15T11:32:08Z</time><extensions><speed>1.283270</speed><course>24.055824</course><hAcc>1.900255</hAcc><vAcc>0.666039</vAcc></extensions></trkpt>
      <trkpt lon="-3.047244" lat="52.714460"><ele>306.387939</ele><time>2022-01-15T11:32:09Z</time><extensions><speed>1.350205</speed><course>26.708872</course><hAcc>1.900682</hAcc><vAcc>0.666349</vAcc></extensions></trkpt>
      <trkpt lon="-3.047235" lat="52.714471"><ele>306.351807</ele><time>2022-01-15T11:32:10Z</time><extensions><speed>1.329304</speed><course>28.423706</course><hAcc>1.902593</hAcc><vAcc>0.666888</vAcc></extensions></trkpt>
      <trkpt lon="-3.047226" lat="52.714481"><ele>306.327332</ele><time>2022-01-15T11:32:11Z</time><extensions><speed>1.288778</speed><course>30.038485</course><hAcc>1.905514</hAcc><vAcc>0.667887</vAcc></extensions></trkpt>
      <trkpt lon="-3.047216" lat="52.714491"><ele>306.310608</ele><time>2022-01-15T11:32:12Z</time><extensions><speed>1.248290</speed><course>31.301226</course><hAcc>1.906741</hAcc><vAcc>0.669400</vAcc></extensions></trkpt>
      <trkpt lon="-3.047207" lat="52.714500"><ele>306.302429</ele><time>2022-01-15T11:32:13Z</time><extensions><speed>1.220575</speed><course>31.767931</course><hAcc>1.899166</hAcc><vAcc>0.671445</vAcc></extensions></trkpt>
      <trkpt lon="-3.047198" lat="52.714509"><ele>306.301331</ele><time>2022-01-15T11:32:14Z</time><extensions><speed>1.143096</speed><course>31.724224</course><hAcc>1.896571</hAcc><vAcc>0.674061</vAcc></extensions></trkpt>
      <trkpt lon="-3.047189" lat="52.714518"><ele>306.308228</ele><time>2022-01-15T11:32:15Z</time><extensions><speed>1.089625</speed><course>30.230078</course><hAcc>1.895240</hAcc><vAcc>0.677234</vAcc></extensions></trkpt>
      <trkpt lon="-3.047181" lat="52.714526"><ele>306.327515</ele><time>2022-01-15T11:32:16Z</time><extensions><speed>1.025325</speed><course>28.366613</course><hAcc>1.891965</hAcc><vAcc>0.680856</vAcc></extensions></trkpt>
      <trkpt lon="-3.047175" lat="52.714534"><ele>306.344757</ele><time>2022-01-15T11:32:17Z</time><extensions><speed>0.893809</speed><course>24.715349</course><hAcc>1.891660</hAcc><vAcc>0.684788</vAcc></extensions></trkpt>
      <trkpt lon="-3.047171" lat="52.714540"><ele>306.374969</ele><time>2022-01-15T11:32:18Z</time><extensions><speed>0.676004</speed><course>20.187048</course><hAcc>1.890122</hAcc><vAcc>0.688975</vAcc></extensions></trkpt>
      <trkpt lon="-3.047169" lat="52.714545"><ele>306.402832</ele><time>2022-01-15T11:32:19Z</time><extensions><speed>0.372996</speed><course>9.100143</course><hAcc>1.880333</hAcc><vAcc>0.693401</vAcc></extensions></trkpt>
      <trkpt lon="-3.047169" lat="52.714547"><ele>306.431000</ele><time>2022-01-15T11:32:20Z</time><extensions><speed>0.135109</speed><course>308.125519</course><hAcc>1.880188</hAcc><vAcc>0.697926</vAcc></extensions></trkpt>
      <trkpt lon="-3.047171" lat="52.714547"><ele>306.459076</ele><time>2022-01-15T11:32:21Z</time><extensions><speed>0.212996</speed><course>253.539352</course><hAcc>1.878867</hAcc><vAcc>0.702353</vAcc></extensions></trkpt>
      <trkpt lon="-3.047175" lat="52.714546"><ele>306.486481</ele><time>2022-01-15T11:32:22Z</time><extensions><speed>0.282464</speed><course>251.993057</course><hAcc>1.873522</hAcc><vAcc>0.706526</vAcc></extensions></trkpt>
      <trkpt lon="-3.047179" lat="52.714546"><ele>306.512939</ele><time>2022-01-15T11:32:23Z</time><extensions><speed>0.324402</speed><course>261.414795</course><hAcc>1.867867</hAcc><vAcc>0.710342</vAcc></extensions></trkpt>
      <trkpt lon="-3.047184" lat="52.714545"><ele>306.538300</ele><time>2022-01-15T11:32:24Z</time><extensions><speed>0.360262</speed><course>269.391418</course><hAcc>1.865719</hAcc><vAcc>0.713767</vAcc></extensions></trkpt>
      <trkpt lon="-3.047190" lat="52.714545"><ele>306.562286</ele><time>2022-01-15T11:32:25Z</time><extensions><speed>0.394507</speed><course>269.862610</course><hAcc>1.862046</hAcc><vAcc>0.716846</vAcc></extensions></trkpt>
      <trkpt lon="-3.047196" lat="52.714545"><ele>306.584503</ele><time>2022-01-15T11:32:26Z</time><extensions><speed>0.425444</speed><course>263.871094</course><hAcc>1.849352</hAcc><vAcc>0.719614</vAcc></extensions></trkpt>
      <trkpt lon="-3.047202" lat="52.714544"><ele>306.604675</ele><time>2022-01-15T11:32:27Z</time><extensions><speed>0.440325</speed><course>254.444031</course><hAcc>1.829189</hAcc><vAcc>0.722199</vAcc></extensions></trkpt>
      <trkpt lon="-3.047208" lat="52.714542"><ele>306.631012</ele><time>2022-01-15T11:32:28Z</time><extensions><speed>0.445553</speed><course>240.251343</course><hAcc>1.804069</hAcc><vAcc>0.724742</vAcc></extensions></trkpt>
      <trkpt lon="-3.047214" lat="52.714539"><ele>306.643066</ele><time>2022-01-15T11:32:29Z</time><extensions><speed>0.407535</speed><course>228.919571</course><hAcc>1.779641</hAcc><vAcc>0.727220</vAcc></extensions></trkpt>
      <trkpt lon="-3.047218" lat="52.714536"><ele>306.656708</ele><time>2022-01-15T11:32:30Z</time><extensions><speed>0.350441</speed><course>219.535919</course><hAcc>1.759147</hAcc><vAcc>0.729446</vAcc></extensions></trkpt>
      <trkpt lon="-3.047221" lat="52.714533"><ele>306.665497</ele><time>2022-01-15T11:32:31Z</time><extensions><speed>0.294543</speed><course>209.581299</course><hAcc>1.748313</hAcc><vAcc>0.731540</vAcc></extensions></trkpt>
      <trkpt lon="-3.047223" lat="52.714531"><ele>306.661987</ele><time>2022-01-15T11:32:32Z</time><extensions><speed>0.306672</speed><course>201.007874</course><hAcc>1.731780</hAcc><vAcc>0.733291</vAcc></extensions></trkpt>
      <trkpt lon="-3.047224" lat="52.714528"><ele>306.654266</ele><time>2022-01-15T11:32:33Z</time><extensions><speed>0.344318</speed><course>195.037003</course><hAcc>1.727044</hAcc><vAcc>0.734771</vAcc></extensions></trkpt>
      <trkpt lon="-3.047225" lat="52.714524"><ele>306.642181</ele><time>2022-01-15T11:32:34Z</time><extensions><speed>0.434410</speed><course>191.332657</course><hAcc>1.729544</hAcc><vAcc>0.735934</vAcc></extensions></trkpt>
      <trkpt lon="-3.047227" lat="52.714519"><ele>306.622467</ele><time>2022-01-15T11:32:35Z</time><extensions><speed>0.636702</speed><course>189.293701</course><hAcc>1.723142</hAcc><vAcc>0.736812</vAcc></extensions></trkpt>
      <trkpt lon="-3.047229" lat="52.714512"><ele>306.594055</ele><time>2022-01-15T11:32:36Z</time><extensions><speed>1.032145</speed><course>188.388000</course><hAcc>1.704280</hAcc><vAcc>0.737383</vAcc></extensions></trkpt>
      <trkpt lon="-3.047231" lat="52.714502"><ele>306.560181</ele><time>2022-01-15T11:32:37Z</time><extensions><speed>1.194501</speed><course>187.980850</course><hAcc>1.734589</hAcc><vAcc>0.737783</vAcc></extensions></trkpt>
      <trkpt lon="-3.047233" lat="52.714492"><ele>306.521057</ele><time>2022-01-15T11:32:38Z</time><extensions><speed>0.977672</speed><course>187.881104</course><hAcc>1.787907</hAcc><vAcc>0.738072</vAcc></extensions></trkpt>
      <trkpt lon="-3.047235" lat="52.714483"><ele>306.477081</ele><time>2022-01-15T11:32:39Z</time><extensions><speed>1.154430</speed><course>187.412384</course><hAcc>1.773917</hAcc><vAcc>0.738334</vAcc></extensions></trkpt>
      <trkpt lon="-3.047237" lat="52.714473"><ele>306.429108</ele><time>2022-01-15T11:32:40Z</time><extensions><speed>1.097321</speed><course>185.952927</course><hAcc>1.770340</hAcc><vAcc>0.738639</vAcc></extensions></trkpt>
      <trkpt lon="-3.047239" lat="52.714464"><ele>306.378082</ele><time>2022-01-15T11:32:41Z</time><extensions><speed>0.910132</speed><course>184.368896</course><hAcc>1.782326</hAcc><vAcc>0.739051</vAcc></extensions></trkpt>
      <trkpt lon="-3.047240" lat="52.714456"><ele>306.325165</ele><time>2022-01-15T11:32:42Z</time><extensions><speed>0.735808</speed><course>183.253174</course><hAcc>1.785645</hAcc><vAcc>0.739645</vAcc></extensions></trkpt>
      <trkpt lon="-3.047240" lat="52.714451"><ele>306.271637</ele><time>2022-01-15T11:32:43Z</time><extensions><speed>0.553186</speed><course>182.041718</course><hAcc>1.784536</hAcc><vAcc>0.740438</vAcc></extensions></trkpt>
      <trkpt lon="-3.047240" lat="52.714446"><ele>306.218719</ele><time>2022-01-15T11:32:44Z</time><extensions><speed>0.435194</speed><course>180.744476</course><hAcc>1.768085</hAcc><vAcc>0.741357</vAcc></extensions></trkpt>
      <trkpt lon="-3.047240" lat="52.714443"><ele>306.167450</ele><time>2022-01-15T11:32:45Z</time><extensions><speed>0.323042</speed><course>179.735397</course><hAcc>1.745179</hAcc><vAcc>0.742362</vAcc></extensions></trkpt>
      <trkpt lon="-3.047240" lat="52.714440"><ele>306.118805</ele><time>2022-01-15T11:32:46Z</time><extensions><speed>0.233570</speed><course>179.133209</course><hAcc>1.715359</hAcc><vAcc>0.743401</vAcc></extensions></trkpt>
      <trkpt lon="-3.047240" lat="52.714438"><ele>306.073547</ele><time>2022-01-15T11:32:47Z</time><extensions><speed>0.150005</speed><course>178.738983</course><hAcc>1.698195</hAcc><vAcc>0.744423</vAcc></extensions></trkpt>
      <trkpt lon="-3.047240" lat="52.714437"><ele>306.032227</ele><time>2022-01-15T11:32:48Z</time><extensions><speed>0.091129</speed><course>178.456055</course><hAcc>1.688618</hAcc><vAcc>0.745418</vAcc></extensions></trkpt>
      <trkpt lon="-3.047240" lat="52.714437"><ele>305.995056</ele><time>2022-01-15T11:32:49Z</time><extensions><speed>0.058802</speed><course>178.258011</course><hAcc>1.674196</hAcc><vAcc>0.746380</vAcc></extensions></trkpt>
      <trkpt lon="-3.047240" lat="52.714436"><ele>305.962158</ele><time>2022-01-15T11:32:50Z</time><extensions><speed>0.044580</speed><course>178.142166</course><hAcc>1.656817</hAcc><vAcc>0.747279</vAcc></extensions></trkpt>
      <trkpt lon="-3.047240" lat="52.714436"><ele>305.933502</ele><time>2022-01-15T11:32:51Z</time><extensions><speed>0.029087</speed><course>178.082825</course><hAcc>1.671104</hAcc><vAcc>0.748101</vAcc></extensions></trkpt>
      <trkpt lon="-3.047240" lat="52.714436"><ele>305.908875</ele><time>2022-01-15T11:32:52Z</time><extensions><speed>0.018300</speed><course>178.048859</course><hAcc>1.696683</hAcc><vAcc>0.748875</vAcc></extensions></trkpt>
      <trkpt lon="-3.047240" lat="52.714435"><ele>305.888000</ele><time>2022-01-15T11:32:53Z</time><extensions><speed>0.015416</speed><course>178.031036</course><hAcc>1.699828</hAcc><vAcc>0.749644</vAcc></extensions></trkpt>
      <trkpt lon="-3.047240" lat="52.714435"><ele>305.870636</ele><time>2022-01-15T11:32:54Z</time><extensions><speed>0.017297</speed><course>178.024261</course><hAcc>1.682913</hAcc><vAcc>0.750398</vAcc></extensions></trkpt>
      <trkpt lon="-3.047240" lat="52.714435"><ele>305.856476</ele><time>2022-01-15T11:32:55Z</time><extensions><speed>0.015204</speed><course>178.021790</course><hAcc>1.702837</hAcc><vAcc>0.751136</vAcc></extensions></trkpt>
      <trkpt lon="-3.047240" lat="52.714435"><ele>305.832581</ele><time>2022-01-15T11:32:56Z</time><extensions><speed>0.015628</speed><course>177.402588</course><hAcc>1.740521</hAcc><vAcc>0.751789</vAcc></extensions></trkpt>
      <trkpt lon="-3.047240" lat="52.714435"><ele>305.813354</ele><time>2022-01-15T11:32:57Z</time><extensions><speed>0.016339</speed><course>178.810638</course><hAcc>1.767635</hAcc><vAcc>0.752437</vAcc></extensions></trkpt>
      <trkpt lon="-3.047240" lat="52.714435"><ele>305.796631</ele><time>2022-01-15T11:32:58Z</time><extensions><speed>0.017760</speed><course>184.039627</course><hAcc>1.781503</hAcc><vAcc>0.752937</vAcc></extensions></trkpt>
      <trkpt lon="-3.047240" lat="52.714434"><ele>305.780518</ele><time>2022-01-15T11:32:59Z</time><extensions><speed>0.022117</speed><course>191.369827</course><hAcc>1.787081</hAcc><vAcc>0.753434</vAcc></extensions></trkpt>
      <trkpt lon="-3.047240" lat="52.714434"><ele>305.770386</ele><time>2022-01-15T11:33:00Z</time><extensions><speed>0.028897</speed><course>197.815201</course><hAcc>1.785257</hAcc><vAcc>0.753663</vAcc></extensions></trkpt>
      <trkpt lon="-3.047240" lat="52.714434"><ele>305.759857</ele><time>2022-01-15T11:33:01Z</time><extensions><speed>0.036153</speed><course>202.864807</course><hAcc>1.783447</hAcc><vAcc>0.753697</vAcc></extensions></trkpt>
      <trkpt lon="-3.047241" lat="52.714434"><ele>305.749237</ele><time>2022-01-15T11:33:02Z</time><extensions><speed>0.045701</speed><course>207.421478</course><hAcc>1.785888</hAcc><vAcc>0.753392</vAcc></extensions></trkpt>
      <trkpt lon="-3.047241" lat="52.714433"><ele>305.742615</ele><time>2022-01-15T11:33:03Z</time><extensions><speed>0.053647</speed><course>214.213425</course><hAcc>1.795657</hAcc><vAcc>0.752622</vAcc></extensions></trkpt>
      <trkpt lon="-3.047242" lat="52.714433"><ele>305.730835</ele><time>2022-01-15T11:33:04Z</time><extensions><speed>0.060208</speed><course>227.820786</course><hAcc>1.805867</hAcc><vAcc>0.751373</vAcc></extensions></trkpt>
      <trkpt lon="-3.047242" lat="52.714433"><ele>305.724213</ele><time>2022-01-15T11:33:05Z</time><extensions><speed>0.064683</speed><course>261.486877</course><hAcc>1.816573</hAcc><vAcc>0.749553</vAcc></extensions></trkpt>
      <trkpt lon="-3.047244" lat="52.714433"><ele>305.718689</ele><time>2022-01-15T11:33:06Z</time><extensions><speed>0.133975</speed><course>309.641602</course><hAcc>1.805374</hAcc><vAcc>0.747213</vAcc></extensions></trkpt>
      <trkpt lon="-3.047246" lat="52.714434"><ele>305.706207</ele><time>2022-01-15T11:33:07Z</time><extensions><speed>0.219896</speed><course>301.958069</course><hAcc>1.826592</hAcc><vAcc>0.744291</vAcc></extensions></trkpt>
      <trkpt lon="-3.047249" lat="52.714435"><ele>305.704468</ele><time>2022-01-15T11:33:08Z</time><extensions><speed>0.324380</speed><course>310.337280</course><hAcc>1.853247</hAcc><vAcc>0.740822</vAcc></extensions></trkpt>
      <trkpt lon="-3.047253" lat="52.714438"><ele>305.703369</ele><time>2022-01-15T11:33:09Z</time><extensions><speed>0.440747</speed><course>321.242737</course><hAcc>1.878448</hAcc><vAcc>0.736817</vAcc></extensions></trkpt>
      <trkpt lon="-3.047257" lat="52.714442"><ele>305.710205</ele><time>2022-01-15T11:33:10Z</time><extensions><speed>0.613642</speed><course>330.083282</course><hAcc>1.890194</hAcc><vAcc>0.732363</vAcc></extensions></trkpt>
      <trkpt lon="-3.047262" lat="52.714448"><ele>305.720886</ele><time>2022-01-15T11:33:11Z</time><extensions><speed>0.817311</speed><course>334.664124</course><hAcc>1.891334</hAcc><vAcc>0.727490</vAcc></extensions></trkpt>
      <trkpt lon="-3.047268" lat="52.714455"><ele>305.733368</ele><time>2022-01-15T11:33:12Z</time><extensions><speed>1.067318</speed><course>336.385132</course><hAcc>1.884309</hAcc><vAcc>0.722161</vAcc></extensions></trkpt>
      <trkpt lon="-3.047275" lat="52.714465"><ele>305.752625</ele><time>2022-01-15T11:33:13Z</time><extensions><speed>1.137882</speed><course>333.718109</course><hAcc>1.890378</hAcc><vAcc>0.716472</vAcc></extensions></trkpt>
      <trkpt lon="-3.047283" lat="52.714474"><ele>305.785187</ele><time>2022-01-15T11:33:14Z</time><extensions><speed>1.171751</speed><course>330.343292</course><hAcc>1.900278</hAcc><vAcc>0.710493</vAcc></extensions></trkpt>
      <trkpt lon="-3.047292" lat="52.714483"><ele>305.834442</ele><time>2022-01-15T11:33:15Z</time><extensions><speed>1.263459</speed><course>331.134369</course><hAcc>1.901102</hAcc><vAcc>0.704205</vAcc></extensions></trkpt>
      <trkpt lon="-3.047300" lat="52.714494"><ele>305.886963</ele><time>2022-01-15T11:33:16Z</time><extensions><speed>1.310547</speed><course>334.562012</course><hAcc>1.900590</hAcc><vAcc>0.697603</vAcc></extensions></trkpt>
      <trkpt lon="-3.047308" lat="52.714505"><ele>305.951965</ele><time>2022-01-15T11:33:17Z</time><extensions><speed>1.341311</speed><course>340.232086</course><hAcc>1.900782</hAcc><vAcc>0.690652</vAcc></extensions></trkpt>
      <trkpt lon="-3.047313" lat="52.714516"><ele>306.025482</ele><time>2022-01-15T11:33:18Z</time><extensions><speed>1.319353</speed><course>345.943726</course><hAcc>1.902583</hAcc><vAcc>0.683289</vAcc></extensions></trkpt>
      <trkpt lon="-3.047317" lat="52.714528"><ele>306.112732</ele><time>2022-01-15T11:33:19Z</time><extensions><speed>1.286834</speed><course>351.023865</course><hAcc>1.904288</hAcc><vAcc>0.675567</vAcc></extensions></trkpt>
      <trkpt lon="-3.047319" lat="52.714539"><ele>306.208313</ele><time>2022-01-15T11:33:20Z</time><extensions><speed>1.278847</speed><course>354.998779</course><hAcc>1.909408</hAcc><vAcc>0.667533</vAcc></extensions></trkpt>
      <trkpt lon="-3.047321" lat="52.714551"><ele>306.317566</ele><time>2022-01-15T11:33:21Z</time><extensions><speed>1.247883</speed><course>357.598358</course><hAcc>1.921987</hAcc><vAcc>0.659313</vAcc></extensions></trkpt>
      <trkpt lon="-3.047321" lat="52.714562"><ele>306.434021</ele><time>2022-01-15T11:33:22Z</time><extensions><speed>1.265064</speed><course>0.704993</course><hAcc>1.914703</hAcc><vAcc>0.651065</vAcc></extensions></trkpt>
      <trkpt lon="-3.047320" lat="52.714573"><ele>306.557922</ele><time>2022-01-15T11:33:23Z</time><extensions><speed>1.232360</speed><course>2.325279</course><hAcc>1.935446</hAcc><vAcc>0.642949</vAcc></extensions></trkpt>
      <trkpt lon="-3.047320" lat="52.714584"><ele>306.688934</ele><time>2022-01-15T11:33:24Z</time><extensions><speed>1.106696</speed><course>2.611168</course><hAcc>1.983325</hAcc><vAcc>0.635073</vAcc></extensions></trkpt>
      <trkpt lon="-3.047318" lat="52.714594"><ele>306.824371</ele><time>2022-01-15T11:33:25Z</time><extensions><speed>1.073137</speed><course>6.029994</course><hAcc>1.984123</hAcc><vAcc>0.627544</vAcc></extensions></trkpt>
      <trkpt lon="-3.047316" lat="52.714603"><ele>306.963013</ele><time>2022-01-15T11:33:26Z</time><extensions><speed>1.075232</speed><course>9.574248</course><hAcc>1.973248</hAcc><vAcc>0.620506</vAcc></extensions></trkpt>
      <trkpt lon="-3.047313" lat="52.714613"><ele>307.102966</ele><time>2022-01-15T11:33:27Z</time><extensions><speed>0.995295</speed><course>11.914395</course><hAcc>1.991519</hAcc><vAcc>0.614184</vAcc></extensions></trkpt>
      <trkpt lon="-3.047310" lat="52.714622"><ele>307.242432</ele><time>2022-01-15T11:33:28Z</time><extensions><speed>1.041430</speed><course>11.564329</course><hAcc>2.020596</hAcc><vAcc>0.608903</vAcc></extensions></trkpt>
      <trkpt lon="-3.047307" lat="52.714631"><ele>307.382294</ele><time>2022-01-15T11:33:29Z</time><extensions><speed>1.117118</speed><course>9.552063</course><hAcc>2.054939</hAcc><vAcc>0.604972</vAcc></extensions></trkpt>
      <trkpt lon="-3.047305" lat="52.714642"><ele>307.523834</ele><time>2022-01-15T11:33:30Z</time><extensions><speed>1.234353</speed><course>6.977324</course><hAcc>2.084076</hAcc><vAcc>0.602550</vAcc></extensions></trkpt>
      <trkpt lon="-3.047303" lat="52.714654"><ele>307.664032</ele><time>2022-01-15T11:33:31Z</time><extensions><speed>1.412944</speed><course>4.546617</course><hAcc>2.103097</hAcc><vAcc>0.601649</vAcc></extensions></trkpt>
      <trkpt lon="-3.047302" lat="52.714667"><ele>307.800201</ele><time>2022-01-15T11:33:32Z</time><extensions><speed>1.464062</speed><course>1.797757</course><hAcc>2.115180</hAcc><vAcc>0.602072</vAcc></extensions></trkpt>
      <trkpt lon="-3.047302" lat="52.714680"><ele>307.930542</ele><time>2022-01-15T11:33:33Z</time><extensions><speed>1.497163</speed><course>359.415283</course><hAcc>2.119124</hAcc><vAcc>0.603517</vAcc></extensions></trkpt>
      <trkpt lon="-3.047302" lat="52.714694"><ele>308.062103</ele><time>2022-01-15T11:33:34Z</time><extensions><speed>1.517717</speed><course>357.537079</course><hAcc>2.121962</hAcc><vAcc>0.605670</vAcc></extensions></trkpt>
      <trkpt lon="-3.047304" lat="52.714707"><ele>308.178955</ele><time>2022-01-15T11:33:35Z</time><extensions><speed>1.469859</speed><course>356.252838</course><hAcc>2.134586</hAcc><vAcc>0.608126</vAcc></extensions></trkpt>
      <trkpt lon="-3.047305" lat="52.714720"><ele>308.299896</ele><time>2022-01-15T11:33:36Z</time><extensions><speed>1.406616</speed><course>355.455536</course><hAcc>2.153235</hAcc><vAcc>0.610427</vAcc></extensions></trkpt>
      <trkpt lon="-3.047307" lat="52.714732"><ele>308.414062</ele><time>2022-01-15T11:33:37Z</time><extensions><speed>1.357873</speed><course>354.506348</course><hAcc>2.158168</hAcc><vAcc>0.612372</vAcc></extensions></trkpt>
      <trkpt lon="-3.047309" lat="52.714744"><ele>308.520355</ele><time>2022-01-15T11:33:38Z</time><extensions><speed>1.312379</speed><course>353.076477</course><hAcc>2.146913</hAcc><vAcc>0.613724</vAcc></extensions></trkpt>
      <trkpt lon="-3.047312" lat="52.714756"><ele>308.623383</ele><time>2022-01-15T11:33:39Z</time><extensions><speed>1.264870</speed><course>352.201233</course><hAcc>2.143501</hAcc><vAcc>0.614321</vAcc></extensions></trkpt>
      <trkpt lon="-3.047314" lat="52.714767"><ele>308.714600</ele><time>2022-01-15T11:33:40Z</time><extensions><speed>1.222273</speed><course>352.292419</course><hAcc>2.152047</hAcc><vAcc>0.614066</vAcc></extensions></trkpt>
      <trkpt lon="-3.047316" lat="52.714778"><ele>308.797882</ele><time>2022-01-15T11:33:41Z</time><extensions><speed>1.168406</speed><course>352.360321</course><hAcc>2.167817</hAcc><vAcc>0.612869</vAcc></extensions></trkpt>
      <trkpt lon="-3.047319" lat="52.714788"><ele>308.869049</ele><time>2022-01-15T11:33:42Z</time><extensions><speed>1.086688</speed><course>351.561798</course><hAcc>2.173136</hAcc><vAcc>0.610587</vAcc></extensions></trkpt>
      <trkpt lon="-3.047321" lat="52.714797"><ele>308.932831</ele><time>2022-01-15T11:33:43Z</time><extensions><speed>1.015724</speed><course>349.824860</course><hAcc>2.168640</hAcc><vAcc>0.607112</vAcc></extensions></trkpt>
      <trkpt lon="-3.047324" lat="52.714806"><ele>308.988434</ele><time>2022-01-15T11:33:44Z</time><extensions><speed>0.959563</speed><course>348.506836</course><hAcc>2.168865</hAcc><vAcc>0.602477</vAcc></extensions></trkpt>
      <trkpt lon="-3.047327" lat="52.714814"><ele>309.036865</ele><time>2022-01-15T11:33:45Z</time><extensions><speed>0.929326</speed><course>348.797150</course><hAcc>2.170097</hAcc><vAcc>0.596920</vAcc></extensions></trkpt>
      <trkpt lon="-3.047329" lat="52.714822"><ele>309.078217</ele><time>2022-01-15T11:33:46Z</time><extensions><speed>0.916693</speed><course>350.238098</course><hAcc>2.173751</hAcc><vAcc>0.590850</vAcc></extensions></trkpt>
      <trkpt lon="-3.047331" lat="52.714830"><ele>309.110992</ele><time>2022-01-15T11:33:47Z</time><extensions><speed>0.911723</speed><course>352.525452</course><hAcc>2.177536</hAcc><vAcc>0.584656</vAcc></extensions></trkpt>
      <trkpt lon="-3.047333" lat="52.714839"><ele>309.135376</ele><time>2022-01-15T11:33:48Z</time><extensions><speed>0.936168</speed><course>354.435791</course><hAcc>2.175276</hAcc><vAcc>0.578584</vAcc></extensions></trkpt>
      <trkpt lon="-3.047334" lat="52.714847"><ele>309.153442</ele><time>2022-01-15T11:33:49Z</time><extensions><speed>0.957170</speed><course>355.108307</course><hAcc>2.171936</hAcc><vAcc>0.572743</vAcc></extensions></trkpt>
      <trkpt lon="-3.047335" lat="52.714856"><ele>309.167145</ele><time>2022-01-15T11:33:50Z</time><extensions><speed>0.925365</speed><course>355.027405</course><hAcc>2.177010</hAcc><vAcc>0.567164</vAcc></extensions></trkpt>
      <trkpt lon="-3.047336" lat="52.714864"><ele>309.177521</ele><time>2022-01-15T11:33:51Z</time><extensions><speed>0.879093</speed><course>355.806641</course><hAcc>2.194953</hAcc><vAcc>0.561937</vAcc></extensions></trkpt>
      <trkpt lon="-3.047337" lat="52.714871"><ele>309.180634</ele><time>2022-01-15T11:33:52Z</time><extensions><speed>0.801551</speed><course>358.737579</course><hAcc>2.219270</hAcc><vAcc>0.557370</vAcc></extensions></trkpt>
      <trkpt lon="-3.047337" lat="52.714879"><ele>309.174408</ele><time>2022-01-15T11:33:53Z</time><extensions><speed>0.910618</speed><course>1.162820</course><hAcc>2.227476</hAcc><vAcc>0.553903</vAcc></extensions></trkpt>
      <trkpt lon="-3.047337" lat="52.714888"><ele>309.161255</ele><time>2022-01-15T11:33:54Z</time><extensions><speed>1.127527</speed><course>1.673051</course><hAcc>2.227887</hAcc><vAcc>0.551883</vAcc></extensions></trkpt>
      <trkpt lon="-3.047336" lat="52.714899"><ele>309.140137</ele><time>2022-01-15T11:33:55Z</time><extensions><speed>1.184516</speed><course>1.449653</course><hAcc>2.238450</hAcc><vAcc>0.551389</vAcc></extensions></trkpt>
      <trkpt lon="-3.047336" lat="52.714909"><ele>309.110687</ele><time>2022-01-15T11:33:56Z</time><extensions><speed>1.171569</speed><course>0.966130</course><hAcc>2.243344</hAcc><vAcc>0.552291</vAcc></extensions></trkpt>
      <trkpt lon="-3.047336" lat="52.714920"><ele>309.069794</ele><time>2022-01-15T11:33:57Z</time><extensions><speed>1.133005</speed><course>359.041382</course><hAcc>2.238952</hAcc><vAcc>0.554320</vAcc></extensions></trkpt>
      <trkpt lon="-3.047336" lat="52.714930"><ele>309.027069</ele><time>2022-01-15T11:33:58Z</time><extensions><speed>1.081242</speed><course>356.624939</course><hAcc>2.229283</hAcc><vAcc>0.557184</vAcc></extensions></trkpt>
      <trkpt lon="-3.047338" lat="52.714939"><ele>308.979797</ele><time>2022-01-15T11:33:59Z</time><extensions><speed>1.085335</speed><course>355.760162</course><hAcc>2.216730</hAcc><vAcc>0.560663</vAcc></extensions></trkpt>
      <trkpt lon="-3.047339" lat="52.714949"><ele>308.923462</ele><time>2022-01-15T11:34:00Z</time><extensions><speed>1.095598</speed><course>357.131104</course><hAcc>2.214045</hAcc><vAcc>0.564535</vAcc></extensions></trkpt>
      <trkpt lon="-3.047339" lat="52.714959"><ele>308.858887</ele><time>2022-01-15T11:34:01Z</time><extensions><speed>1.083826</speed><course>358.858093</course><hAcc>2.223552</hAcc><vAcc>0.568439</vAcc></extensions></trkpt>
      <trkpt lon="-3.047339" lat="52.714969"><ele>308.792450</ele><time>2022-01-15T11:34:02Z</time><extensions><speed>1.051787</speed><course>359.792664</course><hAcc>2.227309</hAcc><vAcc>0.571868</vAcc></extensions></trkpt>
      <trkpt lon="-3.047339" lat="52.714978"><ele>308.722046</ele><time>2022-01-15T11:34:03Z</time><extensions><speed>1.012239</speed><course>0.412604</course><hAcc>2.221229</hAcc><vAcc>0.574434</vAcc></extensions></trkpt>
      <trkpt lon="-3.047339" lat="52.714987"><ele>308.648712</ele><time>2022-01-15T11:34:04Z</time><extensions><speed>0.984425</speed><course>0.427505</course><hAcc>2.206694</hAcc><vAcc>0.575960</vAcc></extensions></trkpt>
      <trkpt lon="-3.047339" lat="52.714996"><ele>308.580719</ele><time>2022-01-15T11:34:05Z</time><extensions><speed>0.978092</speed><course>359.778168</course><hAcc>2.197552</hAcc><vAcc>0.576460</vAcc></extensions></trkpt>
      <trkpt lon="-3.047339" lat="52.715005"><ele>308.509613</ele><time>2022-01-15T11:34:06Z</time><extensions><speed>0.983398</speed><course>358.601349</course><hAcc>2.193696</hAcc><vAcc>0.576065</vAcc></extensions></trkpt>
      <trkpt lon="-3.047340" lat="52.715014"><ele>308.443298</ele><time>2022-01-15T11:34:07Z</time><extensions><speed>1.002225</speed><course>358.108948</course><hAcc>2.194394</hAcc><vAcc>0.574923</vAcc></extensions></trkpt>
      <trkpt lon="-3.047340" lat="52.715023"><ele>308.380096</ele><time>2022-01-15T11:34:08Z</time><extensions><speed>1.028222</speed><course>358.617157</course><hAcc>2.209181</hAcc><vAcc>0.573087</vAcc></extensions></trkpt>
      <trkpt lon="-3.047340" lat="52.715032"><ele>308.317322</ele><time>2022-01-15T11:34:09Z</time><extensions><speed>1.011198</speed><course>0.521293</course><hAcc>2.227938</hAcc><vAcc>0.570391</vAcc></extensions></trkpt>
      <trkpt lon="-3.047340" lat="52.715041"><ele>308.253479</ele><time>2022-01-15T11:34:10Z</time><extensions><speed>1.005812</speed><course>2.966466</course><hAcc>2.191994</hAcc><vAcc>0.566513</vAcc></extensions></trkpt>
      <trkpt lon="-3.047339" lat="52.715051"><ele>308.190582</ele><time>2022-01-15T11:34:11Z</time><extensions><speed>0.995897</speed><course>6.098685</course><hAcc>2.164871</hAcc><vAcc>0.561130</vAcc></extensions></trkpt>
      <trkpt lon="-3.047337" lat="52.715059"><ele>308.135956</ele><time>2022-01-15T11:34:12Z</time><extensions><speed>0.958438</speed><course>9.064123</course><hAcc>2.189204</hAcc><vAcc>0.554008</vAcc></extensions></trkpt>
      <trkpt lon="-3.047334" lat="52.715067"><ele>308.090607</ele><time>2022-01-15T11:34:13Z</time><extensions><speed>0.841088</speed><course>11.929708</course><hAcc>2.240764</hAcc><vAcc>0.545003</vAcc></extensions></trkpt>
      <trkpt lon="-3.047332" lat="52.715075"><ele>308.059692</ele><time>2022-01-15T11:34:14Z</time><extensions><speed>0.933952</speed><course>11.841352</course><hAcc>2.219830</hAcc><vAcc>0.533941</vAcc></extensions></trkpt>
      <trkpt lon="-3.047329" lat="52.715084"><ele>308.012238</ele><time>2022-01-15T11:34:15Z</time><extensions><speed>1.000361</speed><course>9.342135</course><hAcc>2.204542</hAcc><vAcc>0.520865</vAcc></extensions></trkpt>
      <trkpt lon="-3.047327" lat="52.715093"><ele>307.944031</ele><time>2022-01-15T11:34:16Z</time><extensions><speed>0.997883</speed><course>4.533364</course><hAcc>2.222404</hAcc><vAcc>0.506059</vAcc></extensions></trkpt>
      <trkpt lon="-3.047327" lat="52.715102"><ele>307.875275</ele><time>2022-01-15T11:34:17Z</time><extensions><speed>0.955178</speed><course>358.182587</course><hAcc>2.263674</hAcc><vAcc>0.490027</vAcc></extensions></trkpt>
      <trkpt lon="-3.047328" lat="52.715110"><ele>307.805481</ele><time>2022-01-15T11:34:18Z</time><extensions><speed>0.854555</speed><course>350.323029</course><hAcc>2.314640</hAcc><vAcc>0.473756</vAcc></extensions></trkpt>
      <trkpt lon="-3.047331" lat="52.715117"><ele>307.714600</ele><time>2022-01-15T11:34:19Z</time><extensions><speed>0.846401</speed><course>344.256287</course><hAcc>2.354917</hAcc><vAcc>0.458560</vAcc></extensions></trkpt>
      <trkpt lon="-3.047335" lat="52.715125"><ele>307.642761</ele><time>2022-01-15T11:34:20Z</time><extensions><speed>0.879548</speed><course>340.965546</course><hAcc>2.384231</hAcc><vAcc>0.444983</vAcc></extensions></trkpt>
      <trkpt lon="-3.047340" lat="52.715133"><ele>307.564850</ele><time>2022-01-15T11:34:21Z</time><extensions><speed>0.933665</speed><course>340.195709</course><hAcc>2.399692</hAcc><vAcc>0.433753</vAcc></extensions></trkpt>
      <trkpt lon="-3.047344" lat="52.715141"><ele>307.475220</ele><time>2022-01-15T11:34:22Z</time><extensions><speed>1.041332</speed><course>341.093384</course><hAcc>2.393200</hAcc><vAcc>0.425066</vAcc></extensions></trkpt>
      <trkpt lon="-3.047350" lat="52.715151"><ele>307.381622</ele><time>2022-01-15T11:34:23Z</time><extensions><speed>1.200173</speed><course>342.735199</course><hAcc>2.375624</hAcc><vAcc>0.418933</vAcc></extensions></trkpt>
      <trkpt lon="-3.047355" lat="52.715162"><ele>307.284698</ele><time>2022-01-15T11:34:24Z</time><extensions><speed>1.188460</speed><course>342.955200</course><hAcc>2.376083</hAcc><vAcc>0.414710</vAcc></extensions></trkpt>
      <trkpt lon="-3.047360" lat="52.715172"><ele>307.196838</ele><time>2022-01-15T11:34:25Z</time><extensions><speed>1.117409</speed><course>342.426178</course><hAcc>2.386918</hAcc><vAcc>0.411383</vAcc></extensions></trkpt>
      <trkpt lon="-3.047364" lat="52.715182"><ele>307.111816</ele><time>2022-01-15T11:34:26Z</time><extensions><speed>1.020781</speed><course>345.165375</course><hAcc>2.398982</hAcc><vAcc>0.408018</vAcc></extensions></trkpt>
      <trkpt lon="-3.047368" lat="52.715192"><ele>307.037476</ele><time>2022-01-15T11:34:27Z</time><extensions><speed>1.023394</speed><course>349.026581</course><hAcc>2.384479</hAcc><vAcc>0.404379</vAcc></extensions></trkpt>
      <trkpt lon="-3.047370" lat="52.715201"><ele>306.957001</ele><time>2022-01-15T11:34:28Z</time><extensions><speed>0.925365</speed><course>352.946747</course><hAcc>2.392786</hAcc><vAcc>0.400968</vAcc></extensions></trkpt>
      <trkpt lon="-3.047371" lat="52.715210"><ele>306.875336</ele><time>2022-01-15T11:34:29Z</time><extensions><speed>1.019794</speed><course>356.235291</course><hAcc>2.414374</hAcc><vAcc>0.398572</vAcc></extensions></trkpt>
      <trkpt lon="-3.047371" lat="52.715220"><ele>306.792480</ele><time>2022-01-15T11:34:30Z</time><extensions><speed>0.909651</speed><course>359.506866</course><hAcc>2.464030</hAcc><vAcc>0.397596</vAcc></extensions></trkpt>
      <trkpt lon="-3.047371" lat="52.715229"><ele>306.701202</ele><time>2022-01-15T11:34:31Z</time><extensions><speed>1.001031</speed><course>1.643193</course><hAcc>2.486545</hAcc><vAcc>0.397923</vAcc></extensions></trkpt>
      <trkpt lon="-3.047370" lat="52.715239"><ele>306.609375</ele><time>2022-01-15T11:34:32Z</time><extensions><speed>1.070998</speed><course>2.514346</course><hAcc>2.499041</hAcc><vAcc>0.399008</vAcc></extensions></trkpt>
      <trkpt lon="-3.047370" lat="52.715250"><ele>306.512939</ele><time>2022-01-15T11:34:33Z</time><extensions><speed>1.110283</speed><course>2.837982</course><hAcc>2.506541</hAcc><vAcc>0.400287</vAcc></extensions></trkpt>
      <trkpt lon="-3.047368" lat="52.715260"><ele>306.412781</ele><time>2022-01-15T11:34:34Z</time><extensions><speed>1.139475</speed><course>3.251246</course><hAcc>2.505258</hAcc><vAcc>0.401396</vAcc></extensions></trkpt>
      <trkpt lon="-3.047367" lat="52.715272"><ele>306.299316</ele><time>2022-01-15T11:34:35Z</time><extensions><speed>1.184690</speed><course>3.834807</course><hAcc>2.494745</hAcc><vAcc>0.402193</vAcc></extensions></trkpt>
      <trkpt lon="-3.047366" lat="52.715283"><ele>306.174683</ele><time>2022-01-15T11:34:36Z</time><extensions><speed>1.193051</speed><course>4.632123</course><hAcc>2.482205</hAcc><vAcc>0.402691</vAcc></extensions></trkpt>
      <trkpt lon="-3.047364" lat="52.715294"><ele>306.036041</ele><time>2022-01-15T11:34:37Z</time><extensions><speed>1.198562</speed><course>5.529268</course><hAcc>2.465284</hAcc><vAcc>0.403149</vAcc></extensions></trkpt>
      <trkpt lon="-3.047362" lat="52.715306"><ele>305.888947</ele><time>2022-01-15T11:34:38Z</time><extensions><speed>1.187353</speed><course>6.537981</course><hAcc>2.444586</hAcc><vAcc>0.403603</vAcc></extensions></trkpt>
      <trkpt lon="-3.047359" lat="52.715317"><ele>305.727509</ele><time>2022-01-15T11:34:39Z</time><extensions><speed>1.157467</speed><course>7.496726</course><hAcc>2.421555</hAcc><vAcc>0.404309</vAcc></extensions></trkpt>
      <trkpt lon="-3.047356" lat="52.715327"><ele>305.558624</ele><time>2022-01-15T11:34:40Z</time><extensions><speed>1.117564</speed><course>8.502741</course><hAcc>2.396030</hAcc><vAcc>0.405457</vAcc></extensions></trkpt>
      <trkpt lon="-3.047353" lat="52.715337"><ele>305.377441</ele><time>2022-01-15T11:34:41Z</time><extensions><speed>1.084676</speed><course>9.843015</course><hAcc>2.367773</hAcc><vAcc>0.407313</vAcc></extensions></trkpt>
      <trkpt lon="-3.047350" lat="52.715347"><ele>305.179169</ele><time>2022-01-15T11:34:42Z</time><extensions><speed>1.072035</speed><course>11.735761</course><hAcc>2.338819</hAcc><vAcc>0.409976</vAcc></extensions></trkpt>
      <trkpt lon="-3.047346" lat="52.715357"><ele>304.962830</ele><time>2022-01-15T11:34:43Z</time><extensions><speed>1.066797</speed><course>13.998857</course><hAcc>2.310878</hAcc><vAcc>0.413379</vAcc></extensions></trkpt>
      <trkpt lon="-3.047342" lat="52.715367"><ele>304.744354</ele><time>2022-01-15T11:34:44Z</time><extensions><speed>1.104511</speed><course>16.038504</course><hAcc>2.275839</hAcc><vAcc>0.417447</vAcc></extensions></trkpt>
      <trkpt lon="-3.047337" lat="52.715377"><ele>304.522186</ele><time>2022-01-15T11:34:45Z</time><extensions><speed>1.147624</speed><course>17.919479</course><hAcc>2.237620</hAcc><vAcc>0.422073</vAcc></extensions></trkpt>
      <trkpt lon="-3.047331" lat="52.715387"><ele>304.298615</ele><time>2022-01-15T11:34:46Z</time><extensions><speed>1.135562</speed><course>19.948999</course><hAcc>2.207024</hAcc><vAcc>0.427022</vAcc></extensions></trkpt>
      <trkpt lon="-3.047325" lat="52.715396"><ele>304.075165</ele><time>2022-01-15T11:34:47Z</time><extensions><speed>1.099706</speed><course>22.173960</course><hAcc>2.182838</hAcc><vAcc>0.431948</vAcc></extensions></trkpt>
      <trkpt lon="-3.047319" lat="52.715405"><ele>303.857269</ele><time>2022-01-15T11:34:48Z</time><extensions><speed>1.102822</speed><course>24.335546</course><hAcc>2.160081</hAcc><vAcc>0.436514</vAcc></extensions></trkpt>
      <trkpt lon="-3.047312" lat="52.715414"><ele>303.650238</ele><time>2022-01-15T11:34:49Z</time><extensions><speed>1.108754</speed><course>26.362562</course><hAcc>2.145422</hAcc><vAcc>0.440604</vAcc></extensions></trkpt>
      <trkpt lon="-3.047304" lat="52.715423"><ele>303.459412</ele><time>2022-01-15T11:34:50Z</time><extensions><speed>1.151704</speed><course>28.204159</course><hAcc>2.137854</hAcc><vAcc>0.444465</vAcc></extensions></trkpt>
      <trkpt lon="-3.047295" lat="52.715433"><ele>303.289185</ele><time>2022-01-15T11:34:51Z</time><extensions><speed>1.214529</speed><course>29.449060</course><hAcc>2.134982</hAcc><vAcc>0.448588</vAcc></extensions></trkpt>
      <trkpt lon="-3.047286" lat="52.715443"><ele>303.139954</ele><time>2022-01-15T11:34:52Z</time><extensions><speed>1.341020</speed><course>29.999178</course><hAcc>2.122132</hAcc><vAcc>0.453413</vAcc></extensions></trkpt>
      <trkpt lon="-3.047275" lat="52.715454"><ele>303.015991</ele><time>2022-01-15T11:34:53Z</time><extensions><speed>1.605656</speed><course>30.254177</course><hAcc>2.092189</hAcc><vAcc>0.459118</vAcc></extensions></trkpt>
      <trkpt lon="-3.047262" lat="52.715467"><ele>302.917236</ele><time>2022-01-15T11:34:54Z</time><extensions><speed>1.690280</speed><course>32.797070</course><hAcc>2.080451</hAcc><vAcc>0.465554</vAcc></extensions></trkpt>
      <trkpt lon="-3.047248" lat="52.715479"><ele>302.839142</ele><time>2022-01-15T11:34:55Z</time><extensions><speed>1.608650</speed><course>36.130436</course><hAcc>2.085949</hAcc><vAcc>0.472133</vAcc></extensions></trkpt>
      <trkpt lon="-3.047234" lat="52.715490"><ele>302.785492</ele><time>2022-01-15T11:34:56Z</time><extensions><speed>1.512138</speed><course>38.540760</course><hAcc>2.090896</hAcc><vAcc>0.477832</vAcc></extensions></trkpt>
      <trkpt lon="-3.047220" lat="52.715501"><ele>302.756531</ele><time>2022-01-15T11:34:57Z</time><extensions><speed>1.483230</speed><course>40.251007</course><hAcc>2.079112</hAcc><vAcc>0.481571</vAcc></extensions></trkpt>
      <trkpt lon="-3.047206" lat="52.715511"><ele>302.746887</ele><time>2022-01-15T11:34:58Z</time><extensions><speed>1.427538</speed><course>41.136395</course><hAcc>2.070088</hAcc><vAcc>0.482451</vAcc></extensions></trkpt>
      <trkpt lon="-3.047192" lat="52.715520"><ele>302.761627</ele><time>2022-01-15T11:34:59Z</time><extensions><speed>1.405476</speed><course>41.021976</course><hAcc>2.070962</hAcc><vAcc>0.480309</vAcc></extensions></trkpt>
      <trkpt lon="-3.047179" lat="52.715530"><ele>302.799805</ele><time>2022-01-15T11:35:00Z</time><extensions><speed>1.392590</speed><course>40.429878</course><hAcc>2.091107</hAcc><vAcc>0.475519</vAcc></extensions></trkpt>
      <trkpt lon="-3.047166" lat="52.715539"><ele>302.846710</ele><time>2022-01-15T11:35:01Z</time><extensions><speed>1.366079</speed><course>38.915016</course><hAcc>2.112824</hAcc><vAcc>0.468923</vAcc></extensions></trkpt>
      <trkpt lon="-3.047153" lat="52.715549"><ele>302.910706</ele><time>2022-01-15T11:35:02Z</time><extensions><speed>1.336356</speed><course>37.448158</course><hAcc>2.124707</hAcc><vAcc>0.461590</vAcc></extensions></trkpt>
      <trkpt lon="-3.047142" lat="52.715558"><ele>302.982330</ele><time>2022-01-15T11:35:03Z</time><extensions><speed>1.294936</speed><course>36.202003</course><hAcc>2.128570</hAcc><vAcc>0.454718</vAcc></extensions></trkpt>
      <trkpt lon="-3.047130" lat="52.715568"><ele>303.066956</ele><time>2022-01-15T11:35:04Z</time><extensions><speed>1.290280</speed><course>35.500778</course><hAcc>2.132846</hAcc><vAcc>0.449563</vAcc></extensions></trkpt>
      <trkpt lon="-3.047119" lat="52.715577"><ele>303.155457</ele><time>2022-01-15T11:35:05Z</time><extensions><speed>1.287821</speed><course>34.690987</course><hAcc>2.139106</hAcc><vAcc>0.447007</vAcc></extensions></trkpt>
      <trkpt lon="-3.047109" lat="52.715587"><ele>303.253479</ele><time>2022-01-15T11:35:06Z</time><extensions><speed>1.275908</speed><course>33.631393</course><hAcc>2.144909</hAcc><vAcc>0.447282</vAcc></extensions></trkpt>
      <trkpt lon="-3.047098" lat="52.715596"><ele>303.357788</ele><time>2022-01-15T11:35:07Z</time><extensions><speed>1.255047</speed><course>33.583584</course><hAcc>2.159462</hAcc><vAcc>0.449757</vAcc></extensions></trkpt>
      <trkpt lon="-3.047088" lat="52.715606"><ele>303.465485</ele><time>2022-01-15T11:35:08Z</time><extensions><speed>1.336490</speed><course>33.293499</course><hAcc>2.139864</hAcc><vAcc>0.453240</vAcc></extensions></trkpt>
      <trkpt lon="-3.047077" lat="52.715616"><ele>303.582703</ele><time>2022-01-15T11:35:09Z</time><extensions><speed>1.396592</speed><course>34.070278</course><hAcc>2.114492</hAcc><vAcc>0.456718</vAcc></extensions></trkpt>
      <trkpt lon="-3.047064" lat="52.715627"><ele>303.704834</ele><time>2022-01-15T11:35:10Z</time><extensions><speed>1.442420</speed><course>36.824390</course><hAcc>2.114699</hAcc><vAcc>0.459707</vAcc></extensions></trkpt>
      <trkpt lon="-3.047051" lat="52.715637"><ele>303.833984</ele><time>2022-01-15T11:35:11Z</time><extensions><speed>1.479537</speed><course>40.188362</course><hAcc>2.135695</hAcc><vAcc>0.462170</vAcc></extensions></trkpt>
      <trkpt lon="-3.047036" lat="52.715647"><ele>303.967712</ele><time>2022-01-15T11:35:12Z</time><extensions><speed>1.501462</speed><course>43.517982</course><hAcc>2.151307</hAcc><vAcc>0.464235</vAcc></extensions></trkpt>
      <trkpt lon="-3.047020" lat="52.715657"><ele>304.100830</ele><time>2022-01-15T11:35:13Z</time><extensions><speed>1.562678</speed><course>45.972862</course><hAcc>2.153018</hAcc><vAcc>0.466110</vAcc></extensions></trkpt>
      <trkpt lon="-3.047002" lat="52.715667"><ele>304.232086</ele><time>2022-01-15T11:35:14Z</time><extensions><speed>1.617265</speed><course>48.036690</course><hAcc>2.152853</hAcc><vAcc>0.468055</vAcc></extensions></trkpt>
      <trkpt lon="-3.046984" lat="52.715676"><ele>304.357330</ele><time>2022-01-15T11:35:15Z</time><extensions><speed>1.653252</speed><course>49.834881</course><hAcc>2.147204</hAcc><vAcc>0.470343</vAcc></extensions></trkpt>
      <trkpt lon="-3.046965" lat="52.715686"><ele>304.480133</ele><time>2022-01-15T11:35:16Z</time><extensions><speed>1.679180</speed><course>51.626682</course><hAcc>2.129667</hAcc><vAcc>0.473214</vAcc></extensions></trkpt>
      <trkpt lon="-3.046945" lat="52.715695"><ele>304.599640</ele><time>2022-01-15T11:35:17Z</time><extensions><speed>1.676545</speed><course>52.770195</course><hAcc>2.106426</hAcc><vAcc>0.476869</vAcc></extensions></trkpt>
      <trkpt lon="-3.046925" lat="52.715704"><ele>304.715942</ele><time>2022-01-15T11:35:18Z</time><extensions><speed>1.640962</speed><course>53.343201</course><hAcc>2.086671</hAcc><vAcc>0.481438</vAcc></extensions></trkpt>
      <trkpt lon="-3.046906" lat="52.715713"><ele>304.825104</ele><time>2022-01-15T11:35:19Z</time><extensions><speed>1.559321</speed><course>53.280422</course><hAcc>2.068446</hAcc><vAcc>0.486935</vAcc></extensions></trkpt>
      <trkpt lon="-3.046888" lat="52.715721"><ele>304.928589</ele><time>2022-01-15T11:35:20Z</time><extensions><speed>1.395939</speed><course>53.139091</course><hAcc>2.048510</hAcc><vAcc>0.493247</vAcc></extensions></trkpt>
      <trkpt lon="-3.046872" lat="52.715728"><ele>305.029236</ele><time>2022-01-15T11:35:21Z</time><extensions><speed>1.247915</speed><course>55.144550</course><hAcc>2.024915</hAcc><vAcc>0.500159</vAcc></extensions></trkpt>
      <trkpt lon="-3.046856" lat="52.715734"><ele>305.130798</ele><time>2022-01-15T11:35:22Z</time><extensions><speed>1.288814</speed><course>58.968487</course><hAcc>1.965186</hAcc><vAcc>0.507319</vAcc></extensions></trkpt>
      <trkpt lon="-3.046839" lat="52.715740"><ele>305.227966</ele><time>2022-01-15T11:35:23Z</time><extensions><speed>1.355567</speed><course>61.058815</course><hAcc>1.923060</hAcc><vAcc>0.514279</vAcc></extensions></trkpt>
      <trkpt lon="-3.046822" lat="52.715746"><ele>305.325470</ele><time>2022-01-15T11:35:24Z</time><extensions><speed>1.280846</speed><course>61.602356</course><hAcc>1.935699</hAcc><vAcc>0.520570</vAcc></extensions></trkpt>
      <trkpt lon="-3.046807" lat="52.715751"><ele>305.430115</ele><time>2022-01-15T11:35:25Z</time><extensions><speed>1.054040</speed><course>61.142658</course><hAcc>1.976022</hAcc><vAcc>0.525812</vAcc></extensions></trkpt>
      <trkpt lon="-3.046792" lat="52.715755"><ele>305.541412</ele><time>2022-01-15T11:35:26Z</time><extensions><speed>1.152596</speed><course>65.109573</course><hAcc>1.930980</hAcc><vAcc>0.529749</vAcc></extensions></trkpt>
      <trkpt lon="-3.046776" lat="52.715759"><ele>305.658203</ele><time>2022-01-15T11:35:27Z</time><extensions><speed>1.202341</speed><course>67.227158</course><hAcc>1.903269</hAcc><vAcc>0.532275</vAcc></extensions></trkpt>
      <trkpt lon="-3.046760" lat="52.715764"><ele>305.779846</ele><time>2022-01-15T11:35:28Z</time><extensions><speed>1.216035</speed><course>68.041779</course><hAcc>1.915109</hAcc><vAcc>0.533437</vAcc></extensions></trkpt>
      <trkpt lon="-3.046743" lat="52.715768"><ele>305.905151</ele><time>2022-01-15T11:35:29Z</time><extensions><speed>1.225117</speed><course>67.477989</course><hAcc>1.957639</hAcc><vAcc>0.533354</vAcc></extensions></trkpt>
      <trkpt lon="-3.046727" lat="52.715772"><ele>306.038086</ele><time>2022-01-15T11:35:30Z</time><extensions><speed>1.160293</speed><course>65.307747</course><hAcc>2.003391</hAcc><vAcc>0.532122</vAcc></extensions></trkpt>
      <trkpt lon="-3.046712" lat="52.715776"><ele>306.177551</ele><time>2022-01-15T11:35:31Z</time><extensions><speed>1.077556</speed><course>63.872726</course><hAcc>2.016640</hAcc><vAcc>0.529800</vAcc></extensions></trkpt>
      <trkpt lon="-3.046698" lat="52.715781"><ele>306.325256</ele><time>2022-01-15T11:35:32Z</time><extensions><speed>0.950142</speed><course>62.763363</course><hAcc>2.032345</hAcc><vAcc>0.526411</vAcc></extensions></trkpt>
      <trkpt lon="-3.046686" lat="52.715784"><ele>306.476593</ele><time>2022-01-15T11:35:33Z</time><extensions><speed>0.855561</speed><course>60.772110</course><hAcc>2.060453</hAcc><vAcc>0.521956</vAcc></extensions></trkpt>
      <trkpt lon="-3.046675" lat="52.715789"><ele>306.622375</ele><time>2022-01-15T11:35:34Z</time><extensions><speed>0.896803</speed><course>56.535618</course><hAcc>2.065036</hAcc><vAcc>0.516459</vAcc></extensions></trkpt>
      <trkpt lon="-3.046664" lat="52.715793"><ele>306.772095</ele><time>2022-01-15T11:35:35Z</time><extensions><speed>0.949477</speed><course>53.806110</course><hAcc>2.077268</hAcc><vAcc>0.510013</vAcc></extensions></trkpt>
      <trkpt lon="-3.046653" lat="52.715799"><ele>306.911407</ele><time>2022-01-15T11:35:36Z</time><extensions><speed>1.004634</speed><course>52.694683</course><hAcc>2.107778</hAcc><vAcc>0.502757</vAcc></extensions></trkpt>
      <trkpt lon="-3.046641" lat="52.715804"><ele>307.049408</ele><time>2022-01-15T11:35:37Z</time><extensions><speed>1.040250</speed><course>52.702629</course><hAcc>2.154068</hAcc><vAcc>0.494769</vAcc></extensions></trkpt>
      <trkpt lon="-3.046629" lat="52.715810"><ele>307.174408</ele><time>2022-01-15T11:35:38Z</time><extensions><speed>1.067079</speed><course>52.183388</course><hAcc>2.169981</hAcc><vAcc>0.486221</vAcc></extensions></trkpt>
      <trkpt lon="-3.046616" lat="52.715816"><ele>307.282593</ele><time>2022-01-15T11:35:39Z</time><extensions><speed>1.050735</speed><course>48.784893</course><hAcc>2.146895</hAcc><vAcc>0.477072</vAcc></extensions></trkpt>
      <trkpt lon="-3.046605" lat="52.715823"><ele>307.364594</ele><time>2022-01-15T11:35:40Z</time><extensions><speed>1.028513</speed><course>46.294453</course><hAcc>2.142263</hAcc><vAcc>0.467578</vAcc></extensions></trkpt>
      <trkpt lon="-3.046594" lat="52.715830"><ele>307.423401</ele><time>2022-01-15T11:35:41Z</time><extensions><speed>1.059585</speed><course>43.659153</course><hAcc>2.146223</hAcc><vAcc>0.458125</vAcc></extensions></trkpt>
      <trkpt lon="-3.046584" lat="52.715837"><ele>307.474457</ele><time>2022-01-15T11:35:42Z</time><extensions><speed>1.089990</speed><course>39.642342</course><hAcc>2.153443</hAcc><vAcc>0.449086</vAcc></extensions></trkpt>
      <trkpt lon="-3.046574" lat="52.715845"><ele>307.481964</ele><time>2022-01-15T11:35:43Z</time><extensions><speed>1.078921</speed><course>35.735817</course><hAcc>2.174346</hAcc><vAcc>0.440888</vAcc></extensions></trkpt>
      <trkpt lon="-3.046565" lat="52.715853"><ele>307.467590</ele><time>2022-01-15T11:35:44Z</time><extensions><speed>1.045379</speed><course>32.795616</course><hAcc>2.198476</hAcc><vAcc>0.433783</vAcc></extensions></trkpt>
      <trkpt lon="-3.046556" lat="52.715861"><ele>307.418610</ele><time>2022-01-15T11:35:45Z</time><extensions><speed>1.019314</speed><course>32.329193</course><hAcc>2.227730</hAcc><vAcc>0.428055</vAcc></extensions></trkpt>
      <trkpt lon="-3.046549" lat="52.715868"><ele>307.347382</ele><time>2022-01-15T11:35:46Z</time><extensions><speed>0.940418</speed><course>32.185444</course><hAcc>2.250670</hAcc><vAcc>0.423852</vAcc></extensions></trkpt>
      <trkpt lon="-3.046541" lat="52.715875"><ele>307.248474</ele><time>2022-01-15T11:35:47Z</time><extensions><speed>0.909436</speed><course>30.836674</course><hAcc>2.248787</hAcc><vAcc>0.421192</vAcc></extensions></trkpt>
      <trkpt lon="-3.046534" lat="52.715882"><ele>307.131531</ele><time>2022-01-15T11:35:48Z</time><extensions><speed>0.861145</speed><course>31.813347</course><hAcc>2.273351</hAcc><vAcc>0.419965</vAcc></extensions></trkpt>
      <trkpt lon="-3.046527" lat="52.715889"><ele>306.994232</ele><time>2022-01-15T11:35:49Z</time><extensions><speed>0.873878</speed><course>34.177162</course><hAcc>2.294843</hAcc><vAcc>0.419799</vAcc></extensions></trkpt>
      <trkpt lon="-3.046520" lat="52.715895"><ele>306.860413</ele><time>2022-01-15T11:35:50Z</time><extensions><speed>0.902871</speed><course>36.543713</course><hAcc>2.346250</hAcc><vAcc>0.420305</vAcc></extensions></trkpt>
      <trkpt lon="-3.046511" lat="52.715902"><ele>306.712494</ele><time>2022-01-15T11:35:51Z</time><extensions><speed>0.915768</speed><course>39.415882</course><hAcc>2.437004</hAcc><vAcc>0.421215</vAcc></extensions></trkpt>
      <trkpt lon="-3.046502" lat="52.715908"><ele>306.564270</ele><time>2022-01-15T11:35:52Z</time><extensions><speed>0.875527</speed><course>43.043091</course><hAcc>2.531000</hAcc><vAcc>0.422306</vAcc></extensions></trkpt>
      <trkpt lon="-3.046493" lat="52.715913"><ele>306.403595</ele><time>2022-01-15T11:35:53Z</time><extensions><speed>0.917074</speed><course>46.362049</course><hAcc>2.549846</hAcc><vAcc>0.423432</vAcc></extensions></trkpt>
      <trkpt lon="-3.046482" lat="52.715919"><ele>306.257233</ele><time>2022-01-15T11:35:54Z</time><extensions><speed>0.954549</speed><course>49.752750</course><hAcc>2.560611</hAcc><vAcc>0.424498</vAcc></extensions></trkpt>
      <trkpt lon="-3.046470" lat="52.715925"><ele>306.112244</ele><time>2022-01-15T11:35:55Z</time><extensions><speed>1.014514</speed><course>53.242306</course><hAcc>2.577439</hAcc><vAcc>0.425478</vAcc></extensions></trkpt>
      <trkpt lon="-3.046457" lat="52.715930"><ele>305.976013</ele><time>2022-01-15T11:35:56Z</time><extensions><speed>1.075874</speed><course>55.746410</course><hAcc>2.592800</hAcc><vAcc>0.426371</vAcc></extensions></trkpt>
      <trkpt lon="-3.046444" lat="52.715936"><ele>305.847107</ele><time>2022-01-15T11:35:57Z</time><extensions><speed>1.108481</speed><course>56.826057</course><hAcc>2.603975</hAcc><vAcc>0.427137</vAcc></extensions></trkpt>
      <trkpt lon="-3.046430" lat="52.715941"><ele>305.722748</ele><time>2022-01-15T11:35:58Z</time><extensions><speed>1.118496</speed><course>56.623573</course><hAcc>2.614728</hAcc><vAcc>0.427722</vAcc></extensions></trkpt>
      <trkpt lon="-3.046416" lat="52.715947"><ele>305.594666</ele><time>2022-01-15T11:35:59Z</time><extensions><speed>1.069613</speed><course>55.104172</course><hAcc>2.626117</hAcc><vAcc>0.428121</vAcc></extensions></trkpt>
      <trkpt lon="-3.046402" lat="52.715953"><ele>305.465485</ele><time>2022-01-15T11:36:00Z</time><extensions><speed>1.110759</speed><course>54.799171</course><hAcc>2.593534</hAcc><vAcc>0.428353</vAcc></extensions></trkpt>
      <trkpt lon="-3.046388" lat="52.715959"><ele>305.339233</ele><time>2022-01-15T11:36:01Z</time><extensions><speed>1.157641</speed><course>53.977043</course><hAcc>2.562706</hAcc><vAcc>0.428426</vAcc></extensions></trkpt>
      <trkpt lon="-3.046374" lat="52.715965"><ele>305.222260</ele><time>2022-01-15T11:36:02Z</time><extensions><speed>1.123559</speed><course>51.927757</course><hAcc>2.574574</hAcc><vAcc>0.428385</vAcc></extensions></trkpt>
      <trkpt lon="-3.046361" lat="52.715972"><ele>305.121735</ele><time>2022-01-15T11:36:03Z</time><extensions><speed>1.107672</speed><course>51.256493</course><hAcc>2.570173</hAcc><vAcc>0.428205</vAcc></extensions></trkpt>
      <trkpt lon="-3.046348" lat="52.715978"><ele>305.026489</ele><time>2022-01-15T11:36:04Z</time><extensions><speed>1.099015</speed><course>52.210552</course><hAcc>2.529325</hAcc><vAcc>0.428027</vAcc></extensions></trkpt>
      <trkpt lon="-3.046334" lat="52.715984"><ele>304.936523</ele><time>2022-01-15T11:36:05Z</time><extensions><speed>1.161572</speed><course>52.510345</course><hAcc>2.477876</hAcc><vAcc>0.427860</vAcc></extensions></trkpt>
      <trkpt lon="-3.046320" lat="52.715991"><ele>304.850433</ele><time>2022-01-15T11:36:06Z</time><extensions><speed>1.203399</speed><course>52.099915</course><hAcc>2.460687</hAcc><vAcc>0.427807</vAcc></extensions></trkpt>
      <trkpt lon="-3.046306" lat="52.715998"><ele>304.777832</ele><time>2022-01-15T11:36:07Z</time><extensions><speed>1.211019</speed><course>51.507843</course><hAcc>2.497161</hAcc><vAcc>0.427978</vAcc></extensions></trkpt>
      <trkpt lon="-3.046292" lat="52.716005"><ele>304.706421</ele><time>2022-01-15T11:36:08Z</time><extensions><speed>1.139460</speed><course>50.770584</course><hAcc>2.555368</hAcc><vAcc>0.428427</vAcc></extensions></trkpt>
      <trkpt lon="-3.046278" lat="52.716012"><ele>304.638702</ele><time>2022-01-15T11:36:09Z</time><extensions><speed>1.243260</speed><course>49.792168</course><hAcc>2.539871</hAcc><vAcc>0.429232</vAcc></extensions></trkpt>
      <trkpt lon="-3.046263" lat="52.716019"><ele>304.572540</ele><time>2022-01-15T11:36:10Z</time><extensions><speed>1.319198</speed><course>48.780468</course><hAcc>2.526033</hAcc><vAcc>0.430457</vAcc></extensions></trkpt>
      <trkpt lon="-3.046248" lat="52.716027"><ele>304.518738</ele><time>2022-01-15T11:36:11Z</time><extensions><speed>1.371373</speed><course>48.123062</course><hAcc>2.523298</hAcc><vAcc>0.432080</vAcc></extensions></trkpt>
      <trkpt lon="-3.046233" lat="52.716036"><ele>304.439728</ele><time>2022-01-15T11:36:12Z</time><extensions><speed>1.411077</speed><course>47.494720</course><hAcc>2.520061</hAcc><vAcc>0.433934</vAcc></extensions></trkpt>
      <trkpt lon="-3.046217" lat="52.716045"><ele>304.358002</ele><time>2022-01-15T11:36:13Z</time><extensions><speed>1.412976</speed><course>46.483986</course><hAcc>2.529308</hAcc><vAcc>0.435797</vAcc></extensions></trkpt>
      <trkpt lon="-3.046202" lat="52.716054"><ele>304.267517</ele><time>2022-01-15T11:36:14Z</time><extensions><speed>1.401018</speed><course>45.632504</course><hAcc>2.530846</hAcc><vAcc>0.437454</vAcc></extensions></trkpt>
      <trkpt lon="-3.046187" lat="52.716063"><ele>304.175476</ele><time>2022-01-15T11:36:15Z</time><extensions><speed>1.350525</speed><course>44.214989</course><hAcc>2.539721</hAcc><vAcc>0.438687</vAcc></extensions></trkpt>
      <trkpt lon="-3.046174" lat="52.716071"><ele>304.066071</ele><time>2022-01-15T11:36:16Z</time><extensions><speed>1.268364</speed><course>43.582603</course><hAcc>2.557851</hAcc><vAcc>0.439365</vAcc></extensions></trkpt>
      <trkpt lon="-3.046161" lat="52.716079"><ele>303.973145</ele><time>2022-01-15T11:36:17Z</time><extensions><speed>1.142306</speed><course>43.709202</course><hAcc>2.604159</hAcc><vAcc>0.439480</vAcc></extensions></trkpt>
      <trkpt lon="-3.046149" lat="52.716087"><ele>303.892395</ele><time>2022-01-15T11:36:18Z</time><extensions><speed>1.038085</speed><course>44.673054</course><hAcc>2.641865</hAcc><vAcc>0.439121</vAcc></extensions></trkpt>
      <trkpt lon="-3.046138" lat="52.716094"><ele>303.806702</ele><time>2022-01-15T11:36:19Z</time><extensions><speed>1.086112</speed><course>43.680973</course><hAcc>2.616519</hAcc><vAcc>0.438475</vAcc></extensions></trkpt>
      <trkpt lon="-3.046126" lat="52.716101"><ele>303.704620</ele><time>2022-01-15T11:36:20Z</time><extensions><speed>1.148681</speed><course>43.827091</course><hAcc>2.602634</hAcc><vAcc>0.437762</vAcc></extensions></trkpt>
      <trkpt lon="-3.046114" lat="52.716109"><ele>303.619324</ele><time>2022-01-15T11:36:21Z</time><extensions><speed>1.219555</speed><course>44.976650</course><hAcc>2.611206</hAcc><vAcc>0.437118</vAcc></extensions></trkpt>
      <trkpt lon="-3.046099" lat="52.716117"><ele>303.531189</ele><time>2022-01-15T11:36:22Z</time><extensions><speed>1.422429</speed><course>46.868889</course><hAcc>2.603175</hAcc><vAcc>0.436562</vAcc></extensions></trkpt>
      <trkpt lon="-3.046082" lat="52.716126"><ele>303.444427</ele><time>2022-01-15T11:36:23Z</time><extensions><speed>1.598452</speed><course>48.085995</course><hAcc>2.586399</hAcc><vAcc>0.436036</vAcc></extensions></trkpt>
      <trkpt lon="-3.046063" lat="52.716136"><ele>303.356903</ele><time>2022-01-15T11:36:24Z</time><extensions><speed>1.701748</speed><course>48.436031</course><hAcc>2.565825</hAcc><vAcc>0.435451</vAcc></extensions></trkpt>
      <trkpt lon="-3.046043" lat="52.716147"><ele>303.268372</ele><time>2022-01-15T11:36:25Z</time><extensions><speed>1.730682</speed><course>48.085526</course><hAcc>2.548521</hAcc><vAcc>0.434724</vAcc></extensions></trkpt>
      <trkpt lon="-3.046024" lat="52.716158"><ele>303.179932</ele><time>2022-01-15T11:36:26Z</time><extensions><speed>1.700516</speed><course>46.830853</course><hAcc>2.532378</hAcc><vAcc>0.433836</vAcc></extensions></trkpt>
      <trkpt lon="-3.046005" lat="52.716168"><ele>303.077332</ele><time>2022-01-15T11:36:27Z</time><extensions><speed>1.663695</speed><course>46.767635</course><hAcc>2.499996</hAcc><vAcc>0.432749</vAcc></extensions></trkpt>
      <trkpt lon="-3.045986" lat="52.716178"><ele>302.958282</ele><time>2022-01-15T11:36:28Z</time><extensions><speed>1.587226</speed><course>46.197136</course><hAcc>2.473905</hAcc><vAcc>0.431398</vAcc></extensions></trkpt>
      <trkpt lon="-3.045969" lat="52.716188"><ele>302.830414</ele><time>2022-01-15T11:36:29Z</time><extensions><speed>1.493111</speed><course>45.447453</course><hAcc>2.457504</hAcc><vAcc>0.429833</vAcc></extensions></trkpt>
      <trkpt lon="-3.045953" lat="52.716197"><ele>302.698059</ele><time>2022-01-15T11:36:30Z</time><extensions><speed>1.477312</speed><course>48.215038</course><hAcc>2.394423</hAcc><vAcc>0.428152</vAcc></extensions></trkpt>
      <trkpt lon="-3.045936" lat="52.716206"><ele>302.566956</ele><time>2022-01-15T11:36:31Z</time><extensions><speed>1.459825</speed><course>50.584568</course><hAcc>2.325126</hAcc><vAcc>0.426442</vAcc></extensions></trkpt>
      <trkpt lon="-3.045919" lat="52.716214"><ele>302.439087</ele><time>2022-01-15T11:36:32Z</time><extensions><speed>1.419311</speed><course>51.654160</course><hAcc>2.282770</hAcc><vAcc>0.424923</vAcc></extensions></trkpt>
      <trkpt lon="-3.045903" lat="52.716222"><ele>302.298798</ele><time>2022-01-15T11:36:33Z</time><extensions><speed>1.385394</speed><course>52.566315</course><hAcc>2.256168</hAcc><vAcc>0.423903</vAcc></extensions></trkpt>
      <trkpt lon="-3.045886" lat="52.716229"><ele>302.155670</ele><time>2022-01-15T11:36:34Z</time><extensions><speed>1.342372</speed><course>52.438168</course><hAcc>2.245491</hAcc><vAcc>0.423612</vAcc></extensions></trkpt>
      <trkpt lon="-3.045870" lat="52.716236"><ele>302.004669</ele><time>2022-01-15T11:36:35Z</time><extensions><speed>1.361216</speed><course>52.688202</course><hAcc>2.227768</hAcc><vAcc>0.424183</vAcc></extensions></trkpt>
      <trkpt lon="-3.045854" lat="52.716244"><ele>301.844574</ele><time>2022-01-15T11:36:36Z</time><extensions><speed>1.351032</speed><course>52.944473</course><hAcc>2.208034</hAcc><vAcc>0.425706</vAcc></extensions></trkpt>
      <trkpt lon="-3.045838" lat="52.716251"><ele>301.699707</ele><time>2022-01-15T11:36:37Z</time><extensions><speed>1.403275</speed><course>52.088596</course><hAcc>2.191284</hAcc><vAcc>0.428147</vAcc></extensions></trkpt>
      <trkpt lon="-3.045822" lat="52.716259"><ele>301.555389</ele><time>2022-01-15T11:36:38Z</time><extensions><speed>1.412034</speed><course>50.754440</course><hAcc>2.163771</hAcc><vAcc>0.431370</vAcc></extensions></trkpt>
      <trkpt lon="-3.045806" lat="52.716268"><ele>301.412079</ele><time>2022-01-15T11:36:39Z</time><extensions><speed>1.339317</speed><course>47.653690</course><hAcc>2.155075</hAcc><vAcc>0.435129</vAcc></extensions></trkpt>
      <trkpt lon="-3.045793" lat="52.716276"><ele>301.273285</ele><time>2022-01-15T11:36:40Z</time><extensions><speed>1.228058</speed><course>43.066475</course><hAcc>2.189407</hAcc><vAcc>0.439062</vAcc></extensions></trkpt>
      <trkpt lon="-3.045781" lat="52.716284"><ele>301.134399</ele><time>2022-01-15T11:36:41Z</time><extensions><speed>1.141882</speed><course>39.584698</course><hAcc>2.197206</hAcc><vAcc>0.442764</vAcc></extensions></trkpt>
      <trkpt lon="-3.045770" lat="52.716292"><ele>300.999084</ele><time>2022-01-15T11:36:42Z</time><extensions><speed>1.120343</speed><course>40.433590</course><hAcc>2.160172</hAcc><vAcc>0.445962</vAcc></extensions></trkpt>
      <trkpt lon="-3.045759" lat="52.716300"><ele>300.867645</ele><time>2022-01-15T11:36:42Z</time><extensions><speed>1.128340</speed><course>40.986774</course><hAcc>2.169669</hAcc><vAcc>0.448542</vAcc></extensions></trkpt>
      <trkpt lon="-3.045748" lat="52.716308"><ele>300.737946</ele><time>2022-01-15T11:36:43Z</time><extensions><speed>1.077865</speed><course>39.997002</course><hAcc>2.206735</hAcc><vAcc>0.450484</vAcc></extensions></trkpt>
      <trkpt lon="-3.045737" lat="52.716315"><ele>300.622711</ele><time>2022-01-15T11:36:45Z</time><extensions><speed>0.974953</speed><course>40.236210</course><hAcc>2.266295</hAcc><vAcc>0.451821</vAcc></extensions></trkpt>
      <trkpt lon="-3.045728" lat="52.716321"><ele>300.513611</ele><time>2022-01-15T11:36:46Z</time><extensions><speed>0.856458</speed><course>39.315815</course><hAcc>2.305728</hAcc><vAcc>0.452637</vAcc></extensions></trkpt>
      <trkpt lon="-3.045721" lat="52.716327"><ele>300.412628</ele><time>2022-01-15T11:36:47Z</time><extensions><speed>0.723957</speed><course>37.555176</course><hAcc>2.299505</hAcc><vAcc>0.453057</vAcc></extensions></trkpt>
      <trkpt lon="-3.045715" lat="52.716332"><ele>300.298920</ele><time>2022-01-15T11:36:48Z</time><extensions><speed>0.527537</speed><course>38.359604</course><hAcc>2.329893</hAcc><vAcc>0.453120</vAcc></extensions></trkpt>
      <trkpt lon="-3.045709" lat="52.716336"><ele>300.184296</ele><time>2022-01-15T11:36:49Z</time><extensions><speed>0.585508</speed><course>40.030476</course><hAcc>2.354815</hAcc><vAcc>0.452780</vAcc></extensions></trkpt>
      <trkpt lon="-3.045703" lat="52.716340"><ele>300.064484</ele><time>2022-01-15T11:36:50Z</time><extensions><speed>0.701251</speed><course>41.864178</course><hAcc>2.380293</hAcc><vAcc>0.451849</vAcc></extensions></trkpt>
      <trkpt lon="-3.045695" lat="52.716345"><ele>299.939667</ele><time>2022-01-15T11:36:51Z</time><extensions><speed>0.859952</speed><course>43.455212</course><hAcc>2.398077</hAcc><vAcc>0.450179</vAcc></extensions></trkpt>
      <trkpt lon="-3.045684" lat="52.716352"><ele>299.810944</ele><time>2022-01-15T11:36:52Z</time><extensions><speed>1.073370</speed><course>44.384174</course><hAcc>2.414135</hAcc><vAcc>0.447634</vAcc></extensions></trkpt>
      <trkpt lon="-3.045673" lat="52.716359"><ele>299.664093</ele><time>2022-01-15T11:36:53Z</time><extensions><speed>1.105498</speed><course>45.230724</course><hAcc>2.449870</hAcc><vAcc>0.444220</vAcc></extensions></trkpt>
      <trkpt lon="-3.045661" lat="52.716366"><ele>299.523682</ele><time>2022-01-15T11:36:54Z</time><extensions><speed>1.100452</speed><course>47.384586</course><hAcc>2.456536</hAcc><vAcc>0.440113</vAcc></extensions></trkpt>
      <trkpt lon="-3.045649" lat="52.716373"><ele>299.382996</ele><time>2022-01-15T11:36:55Z</time><extensions><speed>1.109967</speed><course>49.048676</course><hAcc>2.424978</hAcc><vAcc>0.435567</vAcc></extensions></trkpt>
      <trkpt lon="-3.045637" lat="52.716379"><ele>299.238159</ele><time>2022-01-15T11:36:56Z</time><extensions><speed>1.034780</speed><course>49.903271</course><hAcc>2.403462</hAcc><vAcc>0.430681</vAcc></extensions></trkpt>
      <trkpt lon="-3.045625" lat="52.716385"><ele>299.099945</ele><time>2022-01-15T11:36:57Z</time><extensions><speed>1.013120</speed><course>48.504414</course><hAcc>2.398828</hAcc><vAcc>0.425925</vAcc></extensions></trkpt>
      <trkpt lon="-3.045614" lat="52.716392"><ele>298.973419</ele><time>2022-01-15T11:36:58Z</time><extensions><speed>1.043450</speed><course>44.893478</course><hAcc>2.398010</hAcc><vAcc>0.421325</vAcc></extensions></trkpt>
      <trkpt lon="-3.045603" lat="52.716399"><ele>298.870422</ele><time>2022-01-15T11:36:59Z</time><extensions><speed>1.051026</speed><course>40.793358</course><hAcc>2.404049</hAcc><vAcc>0.416952</vAcc></extensions></trkpt>
      <trkpt lon="-3.045593" lat="52.716407"><ele>298.793488</ele><time>2022-01-15T11:37:00Z</time><extensions><speed>1.255652</speed><course>37.765865</course><hAcc>2.390975</hAcc><vAcc>0.412828</vAcc></extensions></trkpt>
      <trkpt lon="-3.045581" lat="52.716417"><ele>298.738525</ele><time>2022-01-15T11:37:01Z</time><extensions><speed>1.378078</speed><course>35.527065</course><hAcc>2.372480</hAcc><vAcc>0.408994</vAcc></extensions></trkpt>
      <trkpt lon="-3.045569" lat="52.716428"><ele>298.691315</ele><time>2022-01-15T11:37:02Z</time><extensions><speed>1.415085</speed><course>33.867115</course><hAcc>2.358364</hAcc><vAcc>0.405471</vAcc></extensions></trkpt>
      <trkpt lon="-3.045558" lat="52.716438"><ele>298.658875</ele><time>2022-01-15T11:37:03Z</time><extensions><speed>1.342206</speed><course>33.552757</course><hAcc>2.357104</hAcc><vAcc>0.402343</vAcc></extensions></trkpt>
      <trkpt lon="-3.045547" lat="52.716448"><ele>298.626373</ele><time>2022-01-15T11:37:04Z</time><extensions><speed>1.231807</speed><course>34.227493</course><hAcc>2.344356</hAcc><vAcc>0.399712</vAcc></extensions></trkpt>
      <trkpt lon="-3.045537" lat="52.716457"><ele>298.594849</ele><time>2022-01-15T11:37:05Z</time><extensions><speed>1.164676</speed><course>36.786072</course><hAcc>2.321537</hAcc><vAcc>0.397561</vAcc></extensions></trkpt>
      <trkpt lon="-3.045526" lat="52.716465"><ele>298.554382</ele><time>2022-01-15T11:37:06Z</time><extensions><speed>1.266958</speed><course>39.939018</course><hAcc>2.298399</hAcc><vAcc>0.395890</vAcc></extensions></trkpt>
      <trkpt lon="-3.045514" lat="52.716474"><ele>298.512177</ele><time>2022-01-15T11:37:07Z</time><extensions><speed>1.302124</speed><course>39.216007</course><hAcc>2.285454</hAcc><vAcc>0.394593</vAcc></extensions></trkpt>
      <trkpt lon="-3.045502" lat="52.716484"><ele>298.445953</ele><time>2022-01-15T11:37:08Z</time><extensions><speed>1.294300</speed><course>34.983345</course><hAcc>2.285557</hAcc><vAcc>0.393622</vAcc></extensions></trkpt>
      <trkpt lon="-3.045492" lat="52.716493"><ele>298.344574</ele><time>2022-01-15T11:37:09Z</time><extensions><speed>1.269765</speed><course>31.930428</course><hAcc>2.300792</hAcc><vAcc>0.392640</vAcc></extensions></trkpt>
      <trkpt lon="-3.045483" lat="52.716503"><ele>298.244843</ele><time>2022-01-15T11:37:10Z</time><extensions><speed>1.287426</speed><course>28.116825</course><hAcc>2.278258</hAcc><vAcc>0.391565</vAcc></extensions></trkpt>
      <trkpt lon="-3.045474" lat="52.716514"><ele>298.131348</ele><time>2022-01-15T11:37:11Z</time><extensions><speed>1.300222</speed><course>25.333466</course><hAcc>2.251666</hAcc><vAcc>0.390775</vAcc></extensions></trkpt>
      <trkpt lon="-3.045466" lat="52.716524"><ele>298.002258</ele><time>2022-01-15T11:37:12Z</time><extensions><speed>1.270533</speed><course>22.724476</course><hAcc>2.222840</hAcc><vAcc>0.390235</vAcc></extensions></trkpt>
      <trkpt lon="-3.045458" lat="52.716535"><ele>297.861267</ele><time>2022-01-15T11:37:13Z</time><extensions><speed>1.225238</speed><course>19.887581</course><hAcc>2.194085</hAcc><vAcc>0.390321</vAcc></extensions></trkpt>
      <trkpt lon="-3.045451" lat="52.716545"><ele>297.713684</ele><time>2022-01-15T11:37:14Z</time><extensions><speed>1.183998</speed><course>17.750023</course><hAcc>2.184862</hAcc><vAcc>0.391536</vAcc></extensions></trkpt>
      <trkpt lon="-3.045445" lat="52.716555"><ele>297.564423</ele><time>2022-01-15T11:37:15Z</time><extensions><speed>1.154115</speed><course>14.449183</course><hAcc>2.186471</hAcc><vAcc>0.394316</vAcc></extensions></trkpt>
      <trkpt lon="-3.045441" lat="52.716565"><ele>297.417480</ele><time>2022-01-15T11:37:16Z</time><extensions><speed>1.136716</speed><course>13.261078</course><hAcc>2.208651</hAcc><vAcc>0.399102</vAcc></extensions></trkpt>
      <trkpt lon="-3.045436" lat="52.716575"><ele>297.275360</ele><time>2022-01-15T11:37:17Z</time><extensions><speed>1.130906</speed><course>16.247738</course><hAcc>2.192746</hAcc><vAcc>0.406135</vAcc></extensions></trkpt>
      <trkpt lon="-3.045429" lat="52.716585"><ele>297.140594</ele><time>2022-01-15T11:37:18Z</time><extensions><speed>1.246277</speed><course>22.613268</course><hAcc>2.115304</hAcc><vAcc>0.415214</vAcc></extensions></trkpt>
      <trkpt lon="-3.045421" lat="52.716595"><ele>297.014313</ele><time>2022-01-15T11:37:19Z</time><extensions><speed>1.345978</speed><course>26.335976</course><hAcc>2.058884</hAcc><vAcc>0.425716</vAcc></extensions></trkpt>
      <trkpt lon="-3.045412" lat="52.716606"><ele>296.897949</ele><time>2022-01-15T11:37:20Z</time><extensions><speed>1.229529</speed><course>31.416767</course><hAcc>2.057993</hAcc><vAcc>0.436937</vAcc></extensions></trkpt>
      <trkpt lon="-3.045402" lat="52.716614"><ele>296.793671</ele><time>2022-01-15T11:37:21Z</time><extensions><speed>1.033301</speed><course>35.733223</course><hAcc>2.100378</hAcc><vAcc>0.448227</vAcc></extensions></trkpt>
      <trkpt lon="-3.045391" lat="52.716621"><ele>296.706055</ele><time>2022-01-15T11:37:22Z</time><extensions><speed>1.152191</speed><course>54.141792</course><hAcc>2.052709</hAcc><vAcc>0.458973</vAcc></extensions></trkpt>
      <trkpt lon="-3.045375" lat="52.716627"><ele>296.636261</ele><time>2022-01-15T11:37:23Z</time><extensions><speed>1.275303</speed><course>64.489853</course><hAcc>2.006201</hAcc><vAcc>0.468814</vAcc></extensions></trkpt>
      <trkpt lon="-3.045358" lat="52.716631"><ele>296.583771</ele><time>2022-01-15T11:37:24Z</time><extensions><speed>1.267854</speed><course>70.119576</course><hAcc>1.990507</hAcc><vAcc>0.477668</vAcc></extensions></trkpt>
      <trkpt lon="-3.045340" lat="52.716635"><ele>296.551147</ele><time>2022-01-15T11:37:25Z</time><extensions><speed>1.201487</speed><course>73.149315</course><hAcc>1.975084</hAcc><vAcc>0.485509</vAcc></extensions></trkpt>
      <trkpt lon="-3.045323" lat="52.716638"><ele>296.536316</ele><time>2022-01-15T11:37:26Z</time><extensions><speed>1.177397</speed><course>73.810272</course><hAcc>1.960058</hAcc><vAcc>0.492306</vAcc></extensions></trkpt>
      <trkpt lon="-3.045307" lat="52.716641"><ele>296.536102</ele><time>2022-01-15T11:37:27Z</time><extensions><speed>1.068761</speed><course>72.038490</course><hAcc>1.982073</hAcc><vAcc>0.498044</vAcc></extensions></trkpt>
      <trkpt lon="-3.045292" lat="52.716644"><ele>296.551819</ele><time>2022-01-15T11:37:28Z</time><extensions><speed>1.096825</speed><course>70.787498</course><hAcc>1.986098</hAcc><vAcc>0.502704</vAcc></extensions></trkpt>
      <trkpt lon="-3.045276" lat="52.716647"><ele>296.588837</ele><time>2022-01-15T11:37:29Z</time><extensions><speed>1.113587</speed><course>69.483437</course><hAcc>1.962104</hAcc><vAcc>0.506219</vAcc></extensions></trkpt>
      <trkpt lon="-3.045261" lat="52.716651"><ele>296.648285</ele><time>2022-01-15T11:37:30Z</time><extensions><speed>1.172729</speed><course>69.085838</course><hAcc>1.934210</hAcc><vAcc>0.508476</vAcc></extensions></trkpt>
      <trkpt lon="-3.045244" lat="52.716655"><ele>296.725922</ele><time>2022-01-15T11:37:31Z</time><extensions><speed>1.230547</speed><course>68.360550</course><hAcc>1.928927</hAcc><vAcc>0.509354</vAcc></extensions></trkpt>
      <trkpt lon="-3.045226" lat="52.716659"><ele>296.818329</ele><time>2022-01-15T11:37:32Z</time><extensions><speed>1.307330</speed><course>66.898666</course><hAcc>1.943014</hAcc><vAcc>0.508791</vAcc></extensions></trkpt>
      <trkpt lon="-3.045208" lat="52.716665"><ele>296.926880</ele><time>2022-01-15T11:37:33Z</time><extensions><speed>1.357790</speed><course>64.860977</course><hAcc>1.967161</hAcc><vAcc>0.506875</vAcc></extensions></trkpt>
      <trkpt lon="-3.045190" lat="52.716670"><ele>297.054474</ele><time>2022-01-15T11:37:34Z</time><extensions><speed>1.376969</speed><course>63.169922</course><hAcc>1.988405</hAcc><vAcc>0.503877</vAcc></extensions></trkpt>
      <trkpt lon="-3.045172" lat="52.716676"><ele>297.196594</ele><time>2022-01-15T11:37:35Z</time><extensions><speed>1.359142</speed><course>61.187782</course><hAcc>1.997651</hAcc><vAcc>0.500198</vAcc></extensions></trkpt>
      <trkpt lon="-3.045155" lat="52.716682"><ele>297.353973</ele><time>2022-01-15T11:37:36Z</time><extensions><speed>1.388511</speed><course>58.352417</course><hAcc>1.988913</hAcc><vAcc>0.496316</vAcc></extensions></trkpt>
      <trkpt lon="-3.045137" lat="52.716689"><ele>297.525238</ele><time>2022-01-15T11:37:37Z</time><extensions><speed>1.380138</speed><course>55.389511</course><hAcc>1.988617</hAcc><vAcc>0.492713</vAcc></extensions></trkpt>
      <trkpt lon="-3.045120" lat="52.716697"><ele>297.699646</ele><time>2022-01-15T11:37:38Z</time><extensions><speed>1.409193</speed><course>53.502357</course><hAcc>1.983571</hAcc><vAcc>0.489808</vAcc></extensions></trkpt>
      <trkpt lon="-3.045104" lat="52.716704"><ele>297.887939</ele><time>2022-01-15T11:37:39Z</time><extensions><speed>1.368310</speed><course>51.881344</course><hAcc>1.982928</hAcc><vAcc>0.487898</vAcc></extensions></trkpt>
      <trkpt lon="-3.045089" lat="52.716712"><ele>298.080017</ele><time>2022-01-15T11:37:40Z</time><extensions><speed>1.240533</speed><course>50.381313</course><hAcc>1.982175</hAcc><vAcc>0.487056</vAcc></extensions></trkpt>
      <trkpt lon="-3.045075" lat="52.716718"><ele>298.269897</ele><time>2022-01-15T11:37:41Z</time><extensions><speed>1.156262</speed><course>50.297058</course><hAcc>1.987564</hAcc><vAcc>0.487089</vAcc></extensions></trkpt>
      <trkpt lon="-3.045062" lat="52.716725"><ele>298.462372</ele><time>2022-01-15T11:37:42Z</time><extensions><speed>1.172650</speed><course>49.938908</course><hAcc>1.977530</hAcc><vAcc>0.487608</vAcc></extensions></trkpt>
      <trkpt lon="-3.045048" lat="52.716732"><ele>298.656586</ele><time>2022-01-15T11:37:43Z</time><extensions><speed>1.199370</speed><course>49.909145</course><hAcc>1.968134</hAcc><vAcc>0.488189</vAcc></extensions></trkpt>
      <trkpt lon="-3.045035" lat="52.716739"><ele>298.850250</ele><time>2022-01-15T11:37:44Z</time><extensions><speed>1.216786</speed><course>50.205654</course><hAcc>1.959841</hAcc><vAcc>0.488500</vAcc></extensions></trkpt>
      <trkpt lon="-3.045020" lat="52.716746"><ele>299.043091</ele><time>2022-01-15T11:37:45Z</time><extensions><speed>1.235150</speed><course>51.559017</course><hAcc>1.956584</hAcc><vAcc>0.488338</vAcc></extensions></trkpt>
      <trkpt lon="-3.045006" lat="52.716753"><ele>299.235046</ele><time>2022-01-15T11:37:46Z</time><extensions><speed>1.266641</speed><course>53.136280</course><hAcc>1.948772</hAcc><vAcc>0.487621</vAcc></extensions></trkpt>
      <trkpt lon="-3.044990" lat="52.716760"><ele>299.427765</ele><time>2022-01-15T11:37:47Z</time><extensions><speed>1.300408</speed><course>54.786797</course><hAcc>1.943697</hAcc><vAcc>0.486382</vAcc></extensions></trkpt>
      <trkpt lon="-3.044975" lat="52.716767"><ele>299.606354</ele><time>2022-01-15T11:37:48Z</time><extensions><speed>1.309832</speed><course>55.160706</course><hAcc>1.938315</hAcc><vAcc>0.484720</vAcc></extensions></trkpt>
      <trkpt lon="-3.044959" lat="52.716773"><ele>299.778076</ele><time>2022-01-15T11:37:49Z</time><extensions><speed>1.266154</speed><course>55.844448</course><hAcc>1.931492</hAcc><vAcc>0.482832</vAcc></extensions></trkpt>
      <trkpt lon="-3.044944" lat="52.716779"><ele>299.931641</ele><time>2022-01-15T11:37:50Z</time><extensions><speed>1.175439</speed><course>56.873322</course><hAcc>1.947757</hAcc><vAcc>0.480922</vAcc></extensions></trkpt>
      <trkpt lon="-3.044930" lat="52.716785"><ele>300.081085</ele><time>2022-01-15T11:37:51Z</time><extensions><speed>1.082329</speed><course>57.250248</course><hAcc>1.982671</hAcc><vAcc>0.479128</vAcc></extensions></trkpt>
      <trkpt lon="-3.044917" lat="52.716790"><ele>300.212158</ele><time>2022-01-15T11:37:52Z</time><extensions><speed>1.079420</speed><course>55.688770</course><hAcc>1.950999</hAcc><vAcc>0.477339</vAcc></extensions></trkpt>
      <trkpt lon="-3.044904" lat="52.716796"><ele>300.334900</ele><time>2022-01-15T11:37:53Z</time><extensions><speed>1.095582</speed><course>52.546383</course><hAcc>1.934613</hAcc><vAcc>0.475267</vAcc></extensions></trkpt>
      <trkpt lon="-3.044891" lat="52.716803"><ele>300.443024</ele><time>2022-01-15T11:37:54Z</time><extensions><speed>1.124674</speed><course>48.666134</course><hAcc>1.934674</hAcc><vAcc>0.472575</vAcc></extensions></trkpt>
      <trkpt lon="-3.044878" lat="52.716810"><ele>300.560852</ele><time>2022-01-15T11:37:55Z</time><extensions><speed>1.159910</speed><course>45.945446</course><hAcc>1.957575</hAcc><vAcc>0.469000</vAcc></extensions></trkpt>
      <trkpt lon="-3.044866" lat="52.716817"><ele>300.613800</ele><time>2022-01-15T11:37:56Z</time><extensions><speed>1.201575</speed><course>43.783394</course><hAcc>1.989931</hAcc><vAcc>0.464502</vAcc></extensions></trkpt>
      <trkpt lon="-3.044854" lat="52.716825"><ele>300.694122</ele><time>2022-01-15T11:37:57Z</time><extensions><speed>1.183970</speed><course>40.727169</course><hAcc>2.007259</hAcc><vAcc>0.459014</vAcc></extensions></trkpt>
      <trkpt lon="-3.044843" lat="52.716834"><ele>300.779877</ele><time>2022-01-15T11:37:58Z</time><extensions><speed>1.124517</speed><course>37.895638</course><hAcc>2.018514</hAcc><vAcc>0.452448</vAcc></extensions></trkpt>
      <trkpt lon="-3.044833" lat="52.716841"><ele>300.858215</ele><time>2022-01-15T11:37:59Z</time><extensions><speed>1.009352</speed><course>36.663994</course><hAcc>2.046639</hAcc><vAcc>0.445188</vAcc></extensions></trkpt>
      <trkpt lon="-3.044824" lat="52.716848"><ele>300.914459</ele><time>2022-01-15T11:38:00Z</time><extensions><speed>0.874938</speed><course>35.883484</course><hAcc>2.060121</hAcc><vAcc>0.437901</vAcc></extensions></trkpt>
      <trkpt lon="-3.044817" lat="52.716854"><ele>300.955933</ele><time>2022-01-15T11:38:01Z</time><extensions><speed>0.706791</speed><course>38.635372</course><hAcc>2.088872</hAcc><vAcc>0.431611</vAcc></extensions></trkpt>
      <trkpt lon="-3.044810" lat="52.716859"><ele>300.993744</ele><time>2022-01-15T11:38:02Z</time><extensions><speed>0.829245</speed><course>43.772739</course><hAcc>2.098445</hAcc><vAcc>0.427630</vAcc></extensions></trkpt>
      <trkpt lon="-3.044801" lat="52.716864"><ele>301.024292</ele><time>2022-01-15T11:38:03Z</time><extensions><speed>0.799867</speed><course>48.901867</course><hAcc>2.121324</hAcc><vAcc>0.427251</vAcc></extensions></trkpt>
      <trkpt lon="-3.044791" lat="52.716869"><ele>301.046143</ele><time>2022-01-15T11:38:04Z</time><extensions><speed>0.900564</speed><course>55.200016</course><hAcc>2.127546</hAcc><vAcc>0.431241</vAcc></extensions></trkpt>
      <trkpt lon="-3.044778" lat="52.716874"><ele>301.060577</ele><time>2022-01-15T11:38:05Z</time><extensions><speed>1.020025</speed><course>61.744518</course><hAcc>2.126814</hAcc><vAcc>0.439490</vAcc></extensions></trkpt>
      <trkpt lon="-3.044764" lat="52.716878"><ele>301.064484</ele><time>2022-01-15T11:38:06Z</time><extensions><speed>1.194050</speed><course>62.503376</course><hAcc>2.100312</hAcc><vAcc>0.450930</vAcc></extensions></trkpt>
      <trkpt lon="-3.044748" lat="52.716884"><ele>301.055756</ele><time>2022-01-15T11:38:07Z</time><extensions><speed>1.275018</speed><course>60.941444</course><hAcc>2.057209</hAcc><vAcc>0.463815</vAcc></extensions></trkpt>
      <trkpt lon="-3.044731" lat="52.716889"><ele>301.035278</ele><time>2022-01-15T11:38:08Z</time><extensions><speed>1.303811</speed><course>60.002575</course><hAcc>2.030553</hAcc><vAcc>0.476429</vAcc></extensions></trkpt>
      <trkpt lon="-3.044714" lat="52.716895"><ele>301.009338</ele><time>2022-01-15T11:38:09Z</time><extensions><speed>1.332186</speed><course>59.186619</course><hAcc>2.018218</hAcc><vAcc>0.487609</vAcc></extensions></trkpt>
      <trkpt lon="-3.044696" lat="52.716902"><ele>300.980194</ele><time>2022-01-15T11:38:10Z</time><extensions><speed>1.462151</speed><course>58.390377</course><hAcc>2.006149</hAcc><vAcc>0.496808</vAcc></extensions></trkpt>
      <trkpt lon="-3.044677" lat="52.716909"><ele>300.945953</ele><time>2022-01-15T11:38:11Z</time><extensions><speed>1.544972</speed><course>57.818775</course><hAcc>2.001422</hAcc><vAcc>0.503913</vAcc></extensions></trkpt>
      <trkpt lon="-3.044658" lat="52.716917"><ele>300.905365</ele><time>2022-01-15T11:38:12Z</time><extensions><speed>1.567023</speed><course>57.374634</course><hAcc>1.998085</hAcc><vAcc>0.509056</vAcc></extensions></trkpt>
      <trkpt lon="-3.044638" lat="52.716924"><ele>300.859711</ele><time>2022-01-15T11:38:13Z</time><extensions><speed>1.569871</speed><course>56.507587</course><hAcc>1.995405</hAcc><vAcc>0.512479</vAcc></extensions></trkpt>
      <trkpt lon="-3.044619" lat="52.716932"><ele>300.810181</ele><time>2022-01-15T11:38:14Z</time><extensions><speed>1.522163</speed><course>55.783035</course><hAcc>1.993506</hAcc><vAcc>0.514483</vAcc></extensions></trkpt>
      <trkpt lon="-3.044601" lat="52.716939"><ele>300.757080</ele><time>2022-01-15T11:38:15Z</time><extensions><speed>1.464623</speed><course>56.751316</course><hAcc>1.989491</hAcc><vAcc>0.515398</vAcc></extensions></trkpt>
      <trkpt lon="-3.044583" lat="52.716946"><ele>300.706390</ele><time>2022-01-15T11:38:16Z</time><extensions><speed>1.404690</speed><course>58.608749</course><hAcc>1.983760</hAcc><vAcc>0.515552</vAcc></extensions></trkpt>
      <trkpt lon="-3.044565" lat="52.716953"><ele>300.659668</ele><time>2022-01-15T11:38:17Z</time><extensions><speed>1.343066</speed><course>60.883373</course><hAcc>1.974365</hAcc><vAcc>0.515193</vAcc></extensions></trkpt>
      <trkpt lon="-3.044548" lat="52.716958"><ele>300.616425</ele><time>2022-01-15T11:38:18Z</time><extensions><speed>1.319643</speed><course>62.835133</course><hAcc>1.958055</hAcc><vAcc>0.514475</vAcc></extensions></trkpt>
      <trkpt lon="-3.044530" lat="52.716964"><ele>300.576447</ele><time>2022-01-15T11:38:19Z</time><extensions><speed>1.276255</speed><course>63.810341</course><hAcc>1.957731</hAcc><vAcc>0.513558</vAcc></extensions></trkpt>
      <trkpt lon="-3.044514" lat="52.716969"><ele>300.547241</ele><time>2022-01-15T11:38:20Z</time><extensions><speed>1.222937</speed><course>63.940258</course><hAcc>1.974113</hAcc><vAcc>0.512619</vAcc></extensions></trkpt>
      <trkpt lon="-3.044498" lat="52.716974"><ele>300.527985</ele><time>2022-01-15T11:38:21Z</time><extensions><speed>1.223631</speed><course>64.053940</course><hAcc>1.969212</hAcc><vAcc>0.511807</vAcc></extensions></trkpt>
      <trkpt lon="-3.044482" lat="52.716978"><ele>300.516205</ele><time>2022-01-15T11:38:22Z</time><extensions><speed>1.171556</speed><course>63.616203</course><hAcc>1.978502</hAcc><vAcc>0.511239</vAcc></extensions></trkpt>
      <trkpt lon="-3.044466" lat="52.716983"><ele>300.506683</ele><time>2022-01-15T11:38:23Z</time><extensions><speed>1.168105</speed><course>60.827126</course><hAcc>1.955630</hAcc><vAcc>0.510996</vAcc></extensions></trkpt>
      <trkpt lon="-3.044451" lat="52.716989"><ele>300.503418</ele><time>2022-01-15T11:38:24Z</time><extensions><speed>1.151040</speed><course>56.877743</course><hAcc>1.939156</hAcc><vAcc>0.511127</vAcc></extensions></trkpt>
      <trkpt lon="-3.044438" lat="52.716995"><ele>300.501770</ele><time>2022-01-15T11:38:25Z</time><extensions><speed>1.127340</speed><course>51.001266</course><hAcc>1.934124</hAcc><vAcc>0.511667</vAcc></extensions></trkpt>
      <trkpt lon="-3.044425" lat="52.717002"><ele>300.503296</ele><time>2022-01-15T11:38:26Z</time><extensions><speed>1.145948</speed><course>45.427925</course><hAcc>1.931835</hAcc><vAcc>0.512683</vAcc></extensions></trkpt>
      <trkpt lon="-3.044413" lat="52.717009"><ele>300.511719</ele><time>2022-01-15T11:38:27Z</time><extensions><speed>1.150160</speed><course>41.900269</course><hAcc>1.928864</hAcc><vAcc>0.514247</vAcc></extensions></trkpt>
      <trkpt lon="-3.044402" lat="52.717017"><ele>300.526031</ele><time>2022-01-15T11:38:28Z</time><extensions><speed>1.196560</speed><course>40.995575</course><hAcc>1.931011</hAcc><vAcc>0.516427</vAcc></extensions></trkpt>
      <trkpt lon="-3.044390" lat="52.717026"><ele>300.545044</ele><time>2022-01-15T11:38:29Z</time><extensions><speed>1.309217</speed><course>41.343651</course><hAcc>1.936252</hAcc><vAcc>0.519259</vAcc></extensions></trkpt>
      <trkpt lon="-3.044377" lat="52.717035"><ele>300.561066</ele><time>2022-01-15T11:38:30Z</time><extensions><speed>1.279279</speed><course>41.840332</course><hAcc>1.944871</hAcc><vAcc>0.522743</vAcc></extensions></trkpt>
      <trkpt lon="-3.044364" lat="52.717043"><ele>300.575439</ele><time>2022-01-15T11:38:31Z</time><extensions><speed>1.203546</speed><course>43.528870</course><hAcc>1.912359</hAcc><vAcc>0.526831</vAcc></extensions></trkpt>
      <trkpt lon="-3.044352" lat="52.717050"><ele>300.588745</ele><time>2022-01-15T11:38:32Z</time><extensions><speed>1.099677</speed><course>46.487724</course><hAcc>1.900874</hAcc><vAcc>0.531396</vAcc></extensions></trkpt>
      <trkpt lon="-3.044341" lat="52.717057"><ele>300.608063</ele><time>2022-01-15T11:38:33Z</time><extensions><speed>1.019207</speed><course>49.519203</course><hAcc>1.914272</hAcc><vAcc>0.536216</vAcc></extensions></trkpt>
      <trkpt lon="-3.044329" lat="52.717063"><ele>300.631805</ele><time>2022-01-15T11:38:34Z</time><extensions><speed>1.023483</speed><course>50.209473</course><hAcc>1.910401</hAcc><vAcc>0.540966</vAcc></extensions></trkpt>
      <trkpt lon="-3.044317" lat="52.717069"><ele>300.659637</ele><time>2022-01-15T11:38:35Z</time><extensions><speed>1.066987</speed><course>50.251812</course><hAcc>1.903960</hAcc><vAcc>0.545277</vAcc></extensions></trkpt>
      <trkpt lon="-3.044305" lat="52.717075"><ele>300.687347</ele><time>2022-01-15T11:38:36Z</time><extensions><speed>1.117079</speed><course>50.607967</course><hAcc>1.904707</hAcc><vAcc>0.548795</vAcc></extensions></trkpt>
      <trkpt lon="-3.044292" lat="52.717081"><ele>300.711578</ele><time>2022-01-15T11:38:37Z</time><extensions><speed>1.081780</speed><course>51.053661</course><hAcc>1.911962</hAcc><vAcc>0.551220</vAcc></extensions></trkpt>
      <trkpt lon="-3.044280" lat="52.717087"><ele>300.730469</ele><time>2022-01-15T11:38:38Z</time><extensions><speed>1.030980</speed><course>51.927380</course><hAcc>1.922836</hAcc><vAcc>0.552325</vAcc></extensions></trkpt>
      <trkpt lon="-3.044267" lat="52.717093"><ele>300.744659</ele><time>2022-01-15T11:38:39Z</time><extensions><speed>1.083355</speed><course>53.812981</course><hAcc>1.927386</hAcc><vAcc>0.551984</vAcc></extensions></trkpt>
      <trkpt lon="-3.044253" lat="52.717099"><ele>300.757263</ele><time>2022-01-15T11:38:40Z</time><extensions><speed>1.167722</speed><course>55.146141</course><hAcc>1.922333</hAcc><vAcc>0.550186</vAcc></extensions></trkpt>
      <trkpt lon="-3.044239" lat="52.717105"><ele>300.770569</ele><time>2022-01-15T11:38:41Z</time><extensions><speed>1.205595</speed><course>53.953144</course><hAcc>1.918834</hAcc><vAcc>0.547009</vAcc></extensions></trkpt>
      <trkpt lon="-3.044225" lat="52.717111"><ele>300.787048</ele><time>2022-01-15T11:38:42Z</time><extensions><speed>1.213050</speed><course>53.236721</course><hAcc>1.934415</hAcc><vAcc>0.542584</vAcc></extensions></trkpt>
      <trkpt lon="-3.044210" lat="52.717118"><ele>300.807861</ele><time>2022-01-15T11:38:43Z</time><extensions><speed>1.239743</speed><course>53.281651</course><hAcc>1.942222</hAcc><vAcc>0.537077</vAcc></extensions></trkpt>
      <trkpt lon="-3.044195" lat="52.717125"><ele>300.817230</ele><time>2022-01-15T11:38:44Z</time><extensions><speed>1.218960</speed><course>54.039623</course><hAcc>1.959875</hAcc><vAcc>0.530670</vAcc></extensions></trkpt>
      <trkpt lon="-3.044181" lat="52.717131"><ele>300.820068</ele><time>2022-01-15T11:38:45Z</time><extensions><speed>1.224333</speed><course>54.841469</course><hAcc>1.975158</hAcc><vAcc>0.523552</vAcc></extensions></trkpt>
      <trkpt lon="-3.044166" lat="52.717137"><ele>300.815094</ele><time>2022-01-15T11:38:46Z</time><extensions><speed>1.211543</speed><course>56.012703</course><hAcc>2.001524</hAcc><vAcc>0.515920</vAcc></extensions></trkpt>
      <trkpt lon="-3.044151" lat="52.717143"><ele>300.807556</ele><time>2022-01-15T11:38:47Z</time><extensions><speed>1.166288</speed><course>56.735771</course><hAcc>2.022039</hAcc><vAcc>0.507904</vAcc></extensions></trkpt>
      <trkpt lon="-3.044137" lat="52.717149"><ele>300.801056</ele><time>2022-01-15T11:38:48Z</time><extensions><speed>1.135622</speed><course>56.984169</course><hAcc>2.030473</hAcc><vAcc>0.499631</vAcc></extensions></trkpt>
      <trkpt lon="-3.044123" lat="52.717155"><ele>300.794830</ele><time>2022-01-15T11:38:49Z</time><extensions><speed>1.099377</speed><course>56.510120</course><hAcc>2.041581</hAcc><vAcc>0.491355</vAcc></extensions></trkpt>
      <trkpt lon="-3.044110" lat="52.717160"><ele>300.777557</ele><time>2022-01-15T11:38:50Z</time><extensions><speed>1.045151</speed><course>55.356239</course><hAcc>2.057122</hAcc><vAcc>0.483551</vAcc></extensions></trkpt>
      <trkpt lon="-3.044098" lat="52.717165"><ele>300.755768</ele><time>2022-01-15T11:38:51Z</time><extensions><speed>0.945128</speed><course>52.191654</course><hAcc>2.069901</hAcc><vAcc>0.476753</vAcc></extensions></trkpt>
      <trkpt lon="-3.044088" lat="52.717171"><ele>300.734924</ele><time>2022-01-15T11:38:52Z</time><extensions><speed>0.882362</speed><course>47.540215</course><hAcc>2.078124</hAcc><vAcc>0.471411</vAcc></extensions></trkpt>
      <trkpt lon="-3.044079" lat="52.717176"><ele>300.711182</ele><time>2022-01-15T11:38:53Z</time><extensions><speed>0.838664</speed><course>41.909397</course><hAcc>2.093889</hAcc><vAcc>0.467719</vAcc></extensions></trkpt>
      <trkpt lon="-3.044072" lat="52.717182"><ele>300.694092</ele><time>2022-01-15T11:38:54Z</time><extensions><speed>0.780694</speed><course>33.728016</course><hAcc>2.098900</hAcc><vAcc>0.465732</vAcc></extensions></trkpt>
      <trkpt lon="-3.044067" lat="52.717188"><ele>300.678101</ele><time>2022-01-15T11:38:55Z</time><extensions><speed>0.667651</speed><course>18.028067</course><hAcc>2.093953</hAcc><vAcc>0.465324</vAcc></extensions></trkpt>
      <trkpt lon="-3.044065" lat="52.717193"><ele>300.663727</ele><time>2022-01-15T11:38:56Z</time><extensions><speed>0.585003</speed><course>359.848206</course><hAcc>2.093844</hAcc><vAcc>0.466219</vAcc></extensions></trkpt>
      <trkpt lon="-3.044066" lat="52.717199"><ele>300.650421</ele><time>2022-01-15T11:38:57Z</time><extensions><speed>0.600813</speed><course>349.179871</course><hAcc>2.097753</hAcc><vAcc>0.467920</vAcc></extensions></trkpt>
      <trkpt lon="-3.044068" lat="52.717204"><ele>300.636078</ele><time>2022-01-15T11:38:58Z</time><extensions><speed>0.664465</speed><course>345.709412</course><hAcc>2.103707</hAcc><vAcc>0.469773</vAcc></extensions></trkpt>
      <trkpt lon="-3.044071" lat="52.717211"><ele>300.623322</ele><time>2022-01-15T11:38:59Z</time><extensions><speed>0.804854</speed><course>346.692352</course><hAcc>2.100642</hAcc><vAcc>0.471200</vAcc></extensions></trkpt>
      <trkpt lon="-3.044074" lat="52.717219"><ele>300.606140</ele><time>2022-01-15T11:39:00Z</time><extensions><speed>1.040876</speed><course>349.662933</course><hAcc>2.088354</hAcc><vAcc>0.471777</vAcc></extensions></trkpt>
      <trkpt lon="-3.044077" lat="52.717229"><ele>300.588593</ele><time>2022-01-15T11:39:01Z</time><extensions><speed>1.144265</speed><course>350.212341</course><hAcc>2.095273</hAcc><vAcc>0.471309</vAcc></extensions></trkpt>
      <trkpt lon="-3.044079" lat="52.717239"><ele>300.571472</ele><time>2022-01-15T11:39:02Z</time><extensions><speed>1.117486</speed><course>350.974213</course><hAcc>2.120113</hAcc><vAcc>0.469496</vAcc></extensions></trkpt>
      <trkpt lon="-3.044082" lat="52.717248"><ele>300.555145</ele><time>2022-01-15T11:39:03Z</time><extensions><speed>1.007052</speed><course>351.430267</course><hAcc>2.128292</hAcc><vAcc>0.465938</vAcc></extensions></trkpt>
      <trkpt lon="-3.044084" lat="52.717256"><ele>300.536530</ele><time>2022-01-15T11:39:04Z</time><extensions><speed>0.851138</speed><course>352.115326</course><hAcc>2.118141</hAcc><vAcc>0.460495</vAcc></extensions></trkpt>
      <trkpt lon="-3.044085" lat="52.717263"><ele>300.523895</ele><time>2022-01-15T11:39:05Z</time><extensions><speed>0.715882</speed><course>353.382874</course><hAcc>2.122476</hAcc><vAcc>0.453311</vAcc></extensions></trkpt>
      <trkpt lon="-3.044087" lat="52.717269"><ele>300.487549</ele><time>2022-01-15T11:39:06Z</time><extensions><speed>0.589642</speed><course>351.938721</course><hAcc>2.145279</hAcc><vAcc>0.444880</vAcc></extensions></trkpt>
      <trkpt lon="-3.044088" lat="52.717275"><ele>300.459991</ele><time>2022-01-15T11:39:07Z</time><extensions><speed>0.580859</speed><course>349.037964</course><hAcc>2.168230</hAcc><vAcc>0.436034</vAcc></extensions></trkpt>
      <trkpt lon="-3.044090" lat="52.717280"><ele>300.422028</ele><time>2022-01-15T11:39:08Z</time><extensions><speed>0.643327</speed><course>344.878510</course><hAcc>2.189113</hAcc><vAcc>0.428204</vAcc></extensions></trkpt>
      <trkpt lon="-3.044093" lat="52.717286"><ele>300.387238</ele><time>2022-01-15T11:39:09Z</time><extensions><speed>0.739865</speed><course>340.158386</course><hAcc>2.210106</hAcc><vAcc>0.423017</vAcc></extensions></trkpt>
      <trkpt lon="-3.044098" lat="52.717293"><ele>300.355042</ele><time>2022-01-15T11:39:10Z</time><extensions><speed>0.907545</speed><course>336.393921</course><hAcc>2.217625</hAcc><vAcc>0.421716</vAcc></extensions></trkpt>
      <trkpt lon="-3.044104" lat="52.717301"><ele>300.323029</ele><time>2022-01-15T11:39:11Z</time><extensions><speed>1.113495</speed><course>334.724762</course><hAcc>2.207804</hAcc><vAcc>0.424888</vAcc></extensions></trkpt>
      <trkpt lon="-3.044112" lat="52.717311"><ele>300.282867</ele><time>2022-01-15T11:39:12Z</time><extensions><speed>1.391468</speed><course>335.008301</course><hAcc>2.178970</hAcc><vAcc>0.432444</vAcc></extensions></trkpt>
      <trkpt lon="-3.044121" lat="52.717323"><ele>300.239532</ele><time>2022-01-15T11:39:13Z</time><extensions><speed>1.560653</speed><course>333.711090</course><hAcc>2.144449</hAcc><vAcc>0.443709</vAcc></extensions></trkpt>
      <trkpt lon="-3.044132" lat="52.717337"><ele>300.195801</ele><time>2022-01-15T11:39:14Z</time><extensions><speed>1.680793</speed><course>336.076660</course><hAcc>2.102293</hAcc><vAcc>0.457715</vAcc></extensions></trkpt>
      <trkpt lon="-3.044141" lat="52.717351"><ele>300.153534</ele><time>2022-01-15T11:39:15Z</time><extensions><speed>1.764325</speed><course>339.549133</course><hAcc>2.068086</hAcc><vAcc>0.473293</vAcc></extensions></trkpt>
      <trkpt lon="-3.044149" lat="52.717366"><ele>300.110596</ele><time>2022-01-15T11:39:16Z</time><extensions><speed>1.706091</speed><course>344.687561</course><hAcc>2.042591</hAcc><vAcc>0.489254</vAcc></extensions></trkpt>
      <trkpt lon="-3.044154" lat="52.717380"><ele>300.059326</ele><time>2022-01-15T11:39:17Z</time><extensions><speed>1.599029</speed><course>350.679871</course><hAcc>2.018174</hAcc><vAcc>0.504521</vAcc></extensions></trkpt>
      <trkpt lon="-3.044157" lat="52.717394"><ele>300.004242</ele><time>2022-01-15T11:39:18Z</time><extensions><speed>1.446322</speed><course>353.630219</course><hAcc>1.978458</hAcc><vAcc>0.518396</vAcc></extensions></trkpt>
      <trkpt lon="-3.044159" lat="52.717406"><ele>299.946106</ele><time>2022-01-15T11:39:19Z</time><extensions><speed>1.241549</speed><course>356.158875</course><hAcc>1.969139</hAcc><vAcc>0.530557</vAcc></extensions></trkpt>
      <trkpt lon="-3.044160" lat="52.717416"><ele>299.877380</ele><time>2022-01-15T11:39:20Z</time><extensions><speed>1.034856</speed><course>358.354126</course><hAcc>1.989223</hAcc><vAcc>0.540886</vAcc></extensions></trkpt>
      <trkpt lon="-3.044160" lat="52.717426"><ele>299.798950</ele><time>2022-01-15T11:39:21Z</time><extensions><speed>1.037454</speed><course>1.062444</course><hAcc>1.964379</hAcc><vAcc>0.549479</vAcc></extensions></trkpt>
      <trkpt lon="-3.044160" lat="52.717435"><ele>299.714966</ele><time>2022-01-15T11:39:22Z</time><extensions><speed>1.076865</speed><course>3.091864</course><hAcc>1.943777</hAcc><vAcc>0.556719</vAcc></extensions></trkpt>
      <trkpt lon="-3.044159" lat="52.717445"><ele>299.620178</ele><time>2022-01-15T11:39:23Z</time><extensions><speed>1.176945</speed><course>4.766095</course><hAcc>1.928114</hAcc><vAcc>0.563200</vAcc></extensions></trkpt>
      <trkpt lon="-3.044157" lat="52.717456"><ele>299.517944</ele><time>2022-01-15T11:39:24Z</time><extensions><speed>1.231320</speed><course>6.425730</course><hAcc>1.914187</hAcc><vAcc>0.569483</vAcc></extensions></trkpt>
      <trkpt lon="-3.044155" lat="52.717467"><ele>299.410217</ele><time>2022-01-15T11:39:25Z</time><extensions><speed>1.220753</speed><course>7.192065</course><hAcc>1.911958</hAcc><vAcc>0.575875</vAcc></extensions></trkpt>
      <trkpt lon="-3.044153" lat="52.717478"><ele>299.293671</ele><time>2022-01-15T11:39:26Z</time><extensions><speed>1.135603</speed><course>7.617353</course><hAcc>1.916559</hAcc><vAcc>0.582312</vAcc></extensions></trkpt>
      <trkpt lon="-3.044151" lat="52.717488"><ele>299.171387</ele><time>2022-01-15T11:39:27Z</time><extensions><speed>1.137197</speed><course>4.495926</course><hAcc>1.893304</hAcc><vAcc>0.588408</vAcc></extensions></trkpt>
      <trkpt lon="-3.044151" lat="52.717498"><ele>299.043427</ele><time>2022-01-15T11:39:28Z</time><extensions><speed>1.185144</speed><course>0.549181</course><hAcc>1.873876</hAcc><vAcc>0.593810</vAcc></extensions></trkpt>
      <trkpt lon="-3.044152" lat="52.717509"><ele>298.904724</ele><time>2022-01-15T11:39:29Z</time><extensions><speed>1.252312</speed><course>354.867432</course><hAcc>1.837844</hAcc><vAcc>0.598417</vAcc></extensions></trkpt>
      <trkpt lon="-3.044154" lat="52.717520"><ele>298.750946</ele><time>2022-01-15T11:39:30Z</time><extensions><speed>1.317851</speed><course>351.519135</course><hAcc>1.821390</hAcc><vAcc>0.602271</vAcc></extensions></trkpt>
      <trkpt lon="-3.044157" lat="52.717532"><ele>298.599731</ele><time>2022-01-15T11:39:31Z</time><extensions><speed>1.332662</speed><course>350.607941</course><hAcc>1.831632</hAcc><vAcc>0.605744</vAcc></extensions></trkpt>
      <trkpt lon="-3.044160" lat="52.717544"><ele>298.441376</ele><time>2022-01-15T11:39:32Z</time><extensions><speed>1.301888</speed><course>347.769135</course><hAcc>1.836802</hAcc><vAcc>0.609173</vAcc></extensions></trkpt>
      <trkpt lon="-3.044165" lat="52.717555"><ele>298.284882</ele><time>2022-01-15T11:39:33Z</time><extensions><speed>1.291725</speed><course>342.910309</course><hAcc>1.816052</hAcc><vAcc>0.612856</vAcc></extensions></trkpt>
      <trkpt lon="-3.044171" lat="52.717566"><ele>298.120728</ele><time>2022-01-15T11:39:34Z</time><extensions><speed>1.248633</speed><course>339.409393</course><hAcc>1.810847</hAcc><vAcc>0.616964</vAcc></extensions></trkpt>
      <trkpt lon="-3.044178" lat="52.717576"><ele>297.941681</ele><time>2022-01-15T11:39:35Z</time><extensions><speed>1.206012</speed><course>337.141022</course><hAcc>1.822166</hAcc><vAcc>0.621566</vAcc></extensions></trkpt>
      <trkpt lon="-3.044184" lat="52.717586"><ele>297.767853</ele><time>2022-01-15T11:39:36Z</time><extensions><speed>1.128776</speed><course>337.384949</course><hAcc>1.836182</hAcc><vAcc>0.626518</vAcc></extensions></trkpt>
      <trkpt lon="-3.044191" lat="52.717595"><ele>297.576385</ele><time>2022-01-15T11:39:37Z</time><extensions><speed>1.042477</speed><course>336.407593</course><hAcc>1.823286</hAcc><vAcc>0.631605</vAcc></extensions></trkpt>
      <trkpt lon="-3.044196" lat="52.717603"><ele>297.363281</ele><time>2022-01-15T11:39:38Z</time><extensions><speed>0.981534</speed><course>337.406952</course><hAcc>1.805902</hAcc><vAcc>0.636532</vAcc></extensions></trkpt>
      <trkpt lon="-3.044201" lat="52.717611"><ele>297.146454</ele><time>2022-01-15T11:39:39Z</time><extensions><speed>0.927548</speed><course>341.026855</course><hAcc>1.804466</hAcc><vAcc>0.641201</vAcc></extensions></trkpt>
      <trkpt lon="-3.044205" lat="52.717619"><ele>296.929352</ele><time>2022-01-15T11:39:40Z</time><extensions><speed>0.889905</speed><course>350.571960</course><hAcc>1.798674</hAcc><vAcc>0.645490</vAcc></extensions></trkpt>
      <trkpt lon="-3.044206" lat="52.717627"><ele>296.703613</ele><time>2022-01-15T11:39:41Z</time><extensions><speed>0.908657</speed><course>0.158914</course><hAcc>1.810451</hAcc><vAcc>0.649261</vAcc></extensions></trkpt>
      <trkpt lon="-3.044205" lat="52.717636"><ele>296.483063</ele><time>2022-01-15T11:39:42Z</time><extensions><speed>0.953634</speed><course>6.371112</course><hAcc>1.806613</hAcc><vAcc>0.652315</vAcc></extensions></trkpt>
      <trkpt lon="-3.044203" lat="52.717644"><ele>296.235443</ele><time>2022-01-15T11:39:43Z</time><extensions><speed>1.001017</speed><course>9.887834</course><hAcc>1.776052</hAcc><vAcc>0.654557</vAcc></extensions></trkpt>
      <trkpt lon="-3.044201" lat="52.717653"><ele>295.985718</ele><time>2022-01-15T11:39:44Z</time><extensions><speed>1.017567</speed><course>10.676132</course><hAcc>1.759281</hAcc><vAcc>0.655915</vAcc></extensions></trkpt>
      <trkpt lon="-3.044198" lat="52.717663"><ele>295.727722</ele><time>2022-01-15T11:39:45Z</time><extensions><speed>1.039009</speed><course>9.021825</course><hAcc>1.767398</hAcc><vAcc>0.656377</vAcc></extensions></trkpt>
      <trkpt lon="-3.044196" lat="52.717672"><ele>295.461975</ele><time>2022-01-15T11:39:46Z</time><extensions><speed>1.066010</speed><course>7.313543</course><hAcc>1.791388</hAcc><vAcc>0.656096</vAcc></extensions></trkpt>
      <trkpt lon="-3.044194" lat="52.717681"><ele>295.189484</ele><time>2022-01-15T11:39:47Z</time><extensions><speed>1.078732</speed><course>4.697275</course><hAcc>1.791317</hAcc><vAcc>0.655262</vAcc></extensions></trkpt>
      <trkpt lon="-3.044193" lat="52.717691"><ele>294.902832</ele><time>2022-01-15T11:39:48Z</time><extensions><speed>1.143605</speed><course>2.035722</course><hAcc>1.753593</hAcc><vAcc>0.654116</vAcc></extensions></trkpt>
      <trkpt lon="-3.044193" lat="52.717702"><ele>294.616516</ele><time>2022-01-15T11:39:49Z</time><extensions><speed>1.190181</speed><course>359.904724</course><hAcc>1.753884</hAcc><vAcc>0.652869</vAcc></extensions></trkpt>
      <trkpt lon="-3.044193" lat="52.717713"><ele>294.324127</ele><time>2022-01-15T11:39:50Z</time><extensions><speed>1.237969</speed><course>358.330353</course><hAcc>1.776842</hAcc><vAcc>0.651755</vAcc></extensions></trkpt>
      <trkpt lon="-3.044194" lat="52.717724"><ele>294.029510</ele><time>2022-01-15T11:39:51Z</time><extensions><speed>1.254103</speed><course>357.964752</course><hAcc>1.801646</hAcc><vAcc>0.650984</vAcc></extensions></trkpt>
      <trkpt lon="-3.044195" lat="52.717735"><ele>293.724213</ele><time>2022-01-15T11:39:52Z</time><extensions><speed>1.256244</speed><course>356.143616</course><hAcc>1.782021</hAcc><vAcc>0.650649</vAcc></extensions></trkpt>
      <trkpt lon="-3.044196" lat="52.717747"><ele>293.418976</ele><time>2022-01-15T11:39:53Z</time><extensions><speed>1.248830</speed><course>355.124329</course><hAcc>1.791513</hAcc><vAcc>0.650741</vAcc></extensions></trkpt>
      <trkpt lon="-3.044198" lat="52.717758"><ele>293.114838</ele><time>2022-01-15T11:39:54Z</time><extensions><speed>1.236209</speed><course>355.033264</course><hAcc>1.814078</hAcc><vAcc>0.651377</vAcc></extensions></trkpt>
      <trkpt lon="-3.044199" lat="52.717768"><ele>292.801605</ele><time>2022-01-15T11:39:55Z</time><extensions><speed>1.123348</speed><course>357.051270</course><hAcc>1.789331</hAcc><vAcc>0.652399</vAcc></extensions></trkpt>
      <trkpt lon="-3.044199" lat="52.717778"><ele>292.498291</ele><time>2022-01-15T11:39:56Z</time><extensions><speed>1.035728</speed><course>1.801888</course><hAcc>1.786581</hAcc><vAcc>0.653739</vAcc></extensions></trkpt>
      <trkpt lon="-3.044199" lat="52.717787"><ele>292.203339</ele><time>2022-01-15T11:39:57Z</time><extensions><speed>0.978151</speed><course>4.913409</course><hAcc>1.800751</hAcc><vAcc>0.655173</vAcc></extensions></trkpt>
      <trkpt lon="-3.044197" lat="52.717796"><ele>291.921021</ele><time>2022-01-15T11:39:58Z</time><extensions><speed>0.950684</speed><course>5.997354</course><hAcc>1.798237</hAcc><vAcc>0.656510</vAcc></extensions></trkpt>
      <trkpt lon="-3.044196" lat="52.717804"><ele>291.648590</ele><time>2022-01-15T11:39:59Z</time><extensions><speed>0.953163</speed><course>5.253993</course><hAcc>1.784303</hAcc><vAcc>0.657553</vAcc></extensions></trkpt>
      <trkpt lon="-3.044195" lat="52.717813"><ele>291.374512</ele><time>2022-01-15T11:40:00Z</time><extensions><speed>0.945705</speed><course>3.623519</course><hAcc>1.799281</hAcc><vAcc>0.658193</vAcc></extensions></trkpt>
      <trkpt lon="-3.044194" lat="52.717821"><ele>291.113281</ele><time>2022-01-15T11:40:01Z</time><extensions><speed>0.912929</speed><course>1.364341</course><hAcc>1.801682</hAcc><vAcc>0.658283</vAcc></extensions></trkpt>
      <trkpt lon="-3.044195" lat="52.717830"><ele>290.872986</ele><time>2022-01-15T11:40:02Z</time><extensions><speed>0.928714</speed><course>358.516785</course><hAcc>1.769149</hAcc><vAcc>0.657704</vAcc></extensions></trkpt>
      <trkpt lon="-3.044195" lat="52.717838"><ele>290.646240</ele><time>2022-01-15T11:40:03Z</time><extensions><speed>0.974233</speed><course>356.518036</course><hAcc>1.763245</hAcc><vAcc>0.656489</vAcc></extensions></trkpt>
      <trkpt lon="-3.044196" lat="52.717847"><ele>290.427032</ele><time>2022-01-15T11:40:04Z</time><extensions><speed>0.986871</speed><course>355.886627</course><hAcc>1.796421</hAcc><vAcc>0.654694</vAcc></extensions></trkpt>
      <trkpt lon="-3.044198" lat="52.717856"><ele>290.224182</ele><time>2022-01-15T11:40:05Z</time><extensions><speed>1.017957</speed><course>352.750031</course><hAcc>1.789405</hAcc><vAcc>0.652372</vAcc></extensions></trkpt>
      <trkpt lon="-3.044200" lat="52.717865"><ele>290.027344</ele><time>2022-01-15T11:40:06Z</time><extensions><speed>1.045122</speed><course>353.092316</course><hAcc>1.808983</hAcc><vAcc>0.649670</vAcc></extensions></trkpt>
      <trkpt lon="-3.044202" lat="52.717875"><ele>289.839355</ele><time>2022-01-15T11:40:07Z</time><extensions><speed>1.097982</speed><course>352.457764</course><hAcc>1.781335</hAcc><vAcc>0.646737</vAcc></extensions></trkpt>
      <trkpt lon="-3.044204" lat="52.717885"><ele>289.659180</ele><time>2022-01-15T11:40:08Z</time><extensions><speed>1.120820</speed><course>353.681488</course><hAcc>1.780315</hAcc><vAcc>0.643784</vAcc></extensions></trkpt>
      <trkpt lon="-3.044205" lat="52.717895"><ele>289.486298</ele><time>2022-01-15T11:40:09Z</time><extensions><speed>1.155831</speed><course>355.461456</course><hAcc>1.801395</hAcc><vAcc>0.640971</vAcc></extensions></trkpt>
      <trkpt lon="-3.044207" lat="52.717906"><ele>289.320374</ele><time>2022-01-15T11:40:10Z</time><extensions><speed>1.194417</speed><course>354.637268</course><hAcc>1.798586</hAcc><vAcc>0.638489</vAcc></extensions></trkpt>
      <trkpt lon="-3.044208" lat="52.717917"><ele>289.158142</ele><time>2022-01-15T11:40:11Z</time><extensions><speed>1.220959</speed><course>353.361115</course><hAcc>1.792956</hAcc><vAcc>0.636405</vAcc></extensions></trkpt>
      <trkpt lon="-3.044211" lat="52.717928"><ele>288.993225</ele><time>2022-01-15T11:40:12Z</time><extensions><speed>1.215912</speed><course>352.943542</course><hAcc>1.795689</hAcc><vAcc>0.634693</vAcc></extensions></trkpt>
      <trkpt lon="-3.044213" lat="52.717939"><ele>288.827148</ele><time>2022-01-15T11:40:13Z</time><extensions><speed>1.196361</speed><course>354.115021</course><hAcc>1.806759</hAcc><vAcc>0.633160</vAcc></extensions></trkpt>
      <trkpt lon="-3.044214" lat="52.717949"><ele>288.655273</ele><time>2022-01-15T11:40:14Z</time><extensions><speed>1.149565</speed><course>356.394073</course><hAcc>1.805203</hAcc><vAcc>0.631712</vAcc></extensions></trkpt>
      <trkpt lon="-3.044214" lat="52.717960"><ele>288.483978</ele><time>2022-01-15T11:40:15Z</time><extensions><speed>1.181419</speed><course>0.189481</course><hAcc>1.778590</hAcc><vAcc>0.630085</vAcc></extensions></trkpt>
      <trkpt lon="-3.044214" lat="52.717970"><ele>288.309052</ele><time>2022-01-15T11:40:16Z</time><extensions><speed>1.134392</speed><course>4.152085</course><hAcc>1.780795</hAcc><vAcc>0.628077</vAcc></extensions></trkpt>
      <trkpt lon="-3.044212" lat="52.717981"><ele>288.141327</ele><time>2022-01-15T11:40:17Z</time><extensions><speed>1.172441</speed><course>5.445434</course><hAcc>1.772602</hAcc><vAcc>0.625558</vAcc></extensions></trkpt>
      <trkpt lon="-3.044211" lat="52.717991"><ele>287.968170</ele><time>2022-01-15T11:40:18Z</time><extensions><speed>1.125284</speed><course>3.843096</course><hAcc>1.796893</hAcc><vAcc>0.622549</vAcc></extensions></trkpt>
      <trkpt lon="-3.044210" lat="52.718001"><ele>287.788208</ele><time>2022-01-15T11:40:19Z</time><extensions><speed>1.130888</speed><course>2.763291</course><hAcc>1.810798</hAcc><vAcc>0.619247</vAcc></extensions></trkpt>
      <trkpt lon="-3.044209" lat="52.718011"><ele>287.612823</ele><time>2022-01-15T11:40:20Z</time><extensions><speed>1.068409</speed><course>1.052145</course><hAcc>1.857020</hAcc><vAcc>0.615988</vAcc></extensions></trkpt>
      <trkpt lon="-3.044209" lat="52.718021"><ele>287.462708</ele><time>2022-01-15T11:40:21Z</time><extensions><speed>1.128156</speed><course>3.220474</course><hAcc>1.830641</hAcc><vAcc>0.613203</vAcc></extensions></trkpt>
      <trkpt lon="-3.044207" lat="52.718031"><ele>287.315704</ele><time>2022-01-15T11:40:22Z</time><extensions><speed>1.157537</speed><course>6.500439</course><hAcc>1.821690</hAcc><vAcc>0.611335</vAcc></extensions></trkpt>
      <trkpt lon="-3.044205" lat="52.718042"><ele>287.166382</ele><time>2022-01-15T11:40:23Z</time><extensions><speed>1.162606</speed><course>9.342976</course><hAcc>1.847692</hAcc><vAcc>0.610716</vAcc></extensions></trkpt>
      <trkpt lon="-3.044202" lat="52.718052"><ele>287.021576</ele><time>2022-01-15T11:40:24Z</time><extensions><speed>1.128360</speed><course>11.516009</course><hAcc>1.884643</hAcc><vAcc>0.611357</vAcc></extensions></trkpt>
      <trkpt lon="-3.044198" lat="52.718062"><ele>286.887848</ele><time>2022-01-15T11:40:25Z</time><extensions><speed>1.168047</speed><course>13.032430</course><hAcc>1.884919</hAcc><vAcc>0.613044</vAcc></extensions></trkpt>
      <trkpt lon="-3.044194" lat="52.718073"><ele>286.762817</ele><time>2022-01-15T11:40:26Z</time><extensions><speed>1.304555</speed><course>12.566006</course><hAcc>1.864603</hAcc><vAcc>0.615489</vAcc></extensions></trkpt>
      <trkpt lon="-3.044190" lat="52.718085"><ele>286.644104</ele><time>2022-01-15T11:40:27Z</time><extensions><speed>1.468743</speed><course>11.109573</course><hAcc>1.843968</hAcc><vAcc>0.618225</vAcc></extensions></trkpt>
      <trkpt lon="-3.044186" lat="52.718099"><ele>286.523743</ele><time>2022-01-15T11:40:28Z</time><extensions><speed>1.573530</speed><course>9.587024</course><hAcc>1.838801</hAcc><vAcc>0.620756</vAcc></extensions></trkpt>
      <trkpt lon="-3.044182" lat="52.718113"><ele>286.407837</ele><time>2022-01-15T11:40:29Z</time><extensions><speed>1.533140</speed><course>10.734096</course><hAcc>1.836637</hAcc><vAcc>0.622651</vAcc></extensions></trkpt>
      <trkpt lon="-3.044177" lat="52.718126"><ele>286.293945</ele><time>2022-01-15T11:40:30Z</time><extensions><speed>1.569454</speed><course>13.198906</course><hAcc>1.850659</hAcc><vAcc>0.623450</vAcc></extensions></trkpt>
      <trkpt lon="-3.044172" lat="52.718140"><ele>286.184296</ele><time>2022-01-15T11:40:31Z</time><extensions><speed>1.502572</speed><course>14.171568</course><hAcc>1.889799</hAcc><vAcc>0.622805</vAcc></extensions></trkpt>
      <trkpt lon="-3.044167" lat="52.718153"><ele>286.067871</ele><time>2022-01-15T11:40:32Z</time><extensions><speed>1.638293</speed><course>10.473373</course><hAcc>1.851795</hAcc><vAcc>0.620595</vAcc></extensions></trkpt>
      <trkpt lon="-3.044163" lat="52.718168"><ele>285.954590</ele><time>2022-01-15T11:40:33Z</time><extensions><speed>1.605688</speed><course>7.404355</course><hAcc>1.834115</hAcc><vAcc>0.616943</vAcc></extensions></trkpt>
      <trkpt lon="-3.044160" lat="52.718182"><ele>285.843842</ele><time>2022-01-15T11:40:34Z</time><extensions><speed>1.560599</speed><course>5.071046</course><hAcc>1.854612</hAcc><vAcc>0.612169</vAcc></extensions></trkpt>
      <trkpt lon="-3.044159" lat="52.718196"><ele>285.728638</ele><time>2022-01-15T11:40:35Z</time><extensions><speed>1.501597</speed><course>3.604204</course><hAcc>1.895729</hAcc><vAcc>0.606665</vAcc></extensions></trkpt>
      <trkpt lon="-3.044158" lat="52.718209"><ele>285.616913</ele><time>2022-01-15T11:40:36Z</time><extensions><speed>1.451557</speed><course>1.941250</course><hAcc>1.933869</hAcc><vAcc>0.600751</vAcc></extensions></trkpt>
      <trkpt lon="-3.044158" lat="52.718221"><ele>285.510193</ele><time>2022-01-15T11:40:37Z</time><extensions><speed>1.264680</speed><course>359.497406</course><hAcc>1.934966</hAcc><vAcc>0.594627</vAcc></extensions></trkpt>
      <trkpt lon="-3.044158" lat="52.718232"><ele>285.409271</ele><time>2022-01-15T11:40:38Z</time><extensions><speed>1.114066</speed><course>358.014832</course><hAcc>1.937002</hAcc><vAcc>0.588392</vAcc></extensions></trkpt>
      <trkpt lon="-3.044159" lat="52.718241"><ele>285.314728</ele><time>2022-01-15T11:40:39Z</time><extensions><speed>0.989412</speed><course>356.356262</course><hAcc>1.955251</hAcc><vAcc>0.581880</vAcc></extensions></trkpt>
      <trkpt lon="-3.044160" lat="52.718250"><ele>285.225586</ele><time>2022-01-15T11:40:40Z</time><extensions><speed>0.894628</speed><course>355.382141</course><hAcc>1.963924</hAcc><vAcc>0.574617</vAcc></extensions></trkpt>
      <trkpt lon="-3.044161" lat="52.718257"><ele>285.146088</ele><time>2022-01-15T11:40:41Z</time><extensions><speed>0.840381</speed><course>354.055206</course><hAcc>1.968558</hAcc><vAcc>0.566063</vAcc></extensions></trkpt>
      <trkpt lon="-3.044162" lat="52.718265"><ele>285.066528</ele><time>2022-01-15T11:40:42Z</time><extensions><speed>0.840049</speed><course>351.718811</course><hAcc>1.984766</hAcc><vAcc>0.555935</vAcc></extensions></trkpt>
      <trkpt lon="-3.044164" lat="52.718272"><ele>284.981903</ele><time>2022-01-15T11:40:43Z</time><extensions><speed>0.840694</speed><course>349.965881</course><hAcc>1.996426</hAcc><vAcc>0.544155</vAcc></extensions></trkpt>
      <trkpt lon="-3.044166" lat="52.718280"><ele>284.897858</ele><time>2022-01-15T11:40:44Z</time><extensions><speed>0.833717</speed><course>350.050446</course><hAcc>2.008987</hAcc><vAcc>0.531033</vAcc></extensions></trkpt>
      <trkpt lon="-3.044168" lat="52.718287"><ele>284.810944</ele><time>2022-01-15T11:40:45Z</time><extensions><speed>0.840060</speed><course>352.863342</course><hAcc>2.034349</hAcc><vAcc>0.517379</vAcc></extensions></trkpt>
      <trkpt lon="-3.044169" lat="52.718295"><ele>284.717865</ele><time>2022-01-15T11:40:46Z</time><extensions><speed>0.845580</speed><course>357.389404</course><hAcc>2.050257</hAcc><vAcc>0.504351</vAcc></extensions></trkpt>
      <trkpt lon="-3.044169" lat="52.718303"><ele>284.627197</ele><time>2022-01-15T11:40:47Z</time><extensions><speed>0.834912</speed><course>1.499563</course><hAcc>2.061059</hAcc><vAcc>0.493434</vAcc></extensions></trkpt>
      <trkpt lon="-3.044169" lat="52.718310"><ele>284.540955</ele><time>2022-01-15T11:40:48Z</time><extensions><speed>0.793655</speed><course>3.220357</course><hAcc>2.058816</hAcc><vAcc>0.486108</vAcc></extensions></trkpt>
      <trkpt lon="-3.044168" lat="52.718318"><ele>284.447266</ele><time>2022-01-15T11:40:49Z</time><extensions><speed>0.893990</speed><course>3.067085</course><hAcc>2.041498</hAcc><vAcc>0.483359</vAcc></extensions></trkpt>
      <trkpt lon="-3.044168" lat="52.718326"><ele>284.353088</ele><time>2022-01-15T11:40:50Z</time><extensions><speed>0.879824</speed><course>2.114354</course><hAcc>2.045844</hAcc><vAcc>0.485047</vAcc></extensions></trkpt>
      <trkpt lon="-3.044167" lat="52.718334"><ele>284.262085</ele><time>2022-01-15T11:40:51Z</time><extensions><speed>0.900532</speed><course>3.012589</course><hAcc>2.030338</hAcc><vAcc>0.489879</vAcc></extensions></trkpt>
      <trkpt lon="-3.044166" lat="52.718342"><ele>284.174683</ele><time>2022-01-15T11:40:52Z</time><extensions><speed>0.867213</speed><course>3.666470</course><hAcc>2.026040</hAcc><vAcc>0.496340</vAcc></extensions></trkpt>
      <trkpt lon="-3.044165" lat="52.718350"><ele>284.095734</ele><time>2022-01-15T11:40:53Z</time><extensions><speed>1.013956</speed><course>5.045441</course><hAcc>1.968850</hAcc><vAcc>0.503308</vAcc></extensions></trkpt>
      <trkpt lon="-3.044163" lat="52.718360"><ele>284.024750</ele><time>2022-01-15T11:40:54Z</time><extensions><speed>1.137654</speed><course>6.565641</course><hAcc>1.930776</hAcc><vAcc>0.510161</vAcc></extensions></trkpt>
      <trkpt lon="-3.044161" lat="52.718370"><ele>283.961670</ele><time>2022-01-15T11:40:55Z</time><extensions><speed>1.198705</speed><course>6.073342</course><hAcc>1.929322</hAcc><vAcc>0.516633</vAcc></extensions></trkpt>
      <trkpt lon="-3.044159" lat="52.718381"><ele>283.908691</ele><time>2022-01-15T11:40:56Z</time><extensions><speed>1.207253</speed><course>6.156479</course><hAcc>1.934058</hAcc><vAcc>0.522642</vAcc></extensions></trkpt>
      <trkpt lon="-3.044157" lat="52.718391"><ele>283.859619</ele><time>2022-01-15T11:40:57Z</time><extensions><speed>1.147146</speed><course>5.406837</course><hAcc>1.929235</hAcc><vAcc>0.528175</vAcc></extensions></trkpt>
      <trkpt lon="-3.044156" lat="52.718401"><ele>283.813293</ele><time>2022-01-15T11:40:58Z</time><extensions><speed>1.043643</speed><course>5.474220</course><hAcc>1.923306</hAcc><vAcc>0.533199</vAcc></extensions></trkpt>
      <trkpt lon="-3.044154" lat="52.718410"><ele>283.770264</ele><time>2022-01-15T11:40:59Z</time><extensions><speed>1.002480</speed><course>8.518953</course><hAcc>1.922200</hAcc><vAcc>0.537584</vAcc></extensions></trkpt>
      <trkpt lon="-3.044151" lat="52.718419"><ele>283.731018</ele><time>2022-01-15T11:41:00Z</time><extensions><speed>0.987956</speed><course>10.034383</course><hAcc>1.936903</hAcc><vAcc>0.541102</vAcc></extensions></trkpt>
      <trkpt lon="-3.044149" lat="52.718428"><ele>283.696564</ele><time>2022-01-15T11:41:01Z</time><extensions><speed>0.969657</speed><course>9.735323</course><hAcc>1.959477</hAcc><vAcc>0.543477</vAcc></extensions></trkpt>
      <trkpt lon="-3.044146" lat="52.718436"><ele>283.667511</ele><time>2022-01-15T11:41:02Z</time><extensions><speed>0.879734</speed><course>13.535501</course><hAcc>1.933289</hAcc><vAcc>0.544550</vAcc></extensions></trkpt>
      <trkpt lon="-3.044143" lat="52.718443"><ele>283.641602</ele><time>2022-01-15T11:41:03Z</time><extensions><speed>0.818972</speed><course>19.505672</course><hAcc>1.933470</hAcc><vAcc>0.544262</vAcc></extensions></trkpt>
      <trkpt lon="-3.044138" lat="52.718450"><ele>283.615356</ele><time>2022-01-15T11:41:04Z</time><extensions><speed>0.863744</speed><course>26.336842</course><hAcc>1.954204</hAcc><vAcc>0.542682</vAcc></extensions></trkpt>
      <trkpt lon="-3.044131" lat="52.718458"><ele>283.587494</ele><time>2022-01-15T11:41:05Z</time><extensions><speed>0.967355</speed><course>31.394213</course><hAcc>1.987816</hAcc><vAcc>0.540060</vAcc></extensions></trkpt>
      <trkpt lon="-3.044123" lat="52.718465"><ele>283.558655</ele><time>2022-01-15T11:41:06Z</time><extensions><speed>1.079331</speed><course>32.934032</course><hAcc>2.019741</hAcc><vAcc>0.536786</vAcc></extensions></trkpt>
      <trkpt lon="-3.044114" lat="52.718474"><ele>283.531891</ele><time>2022-01-15T11:41:07Z</time><extensions><speed>1.165359</speed><course>32.728069</course><hAcc>2.031973</hAcc><vAcc>0.533365</vAcc></extensions></trkpt>
      <trkpt lon="-3.044105" lat="52.718483"><ele>283.507416</ele><time>2022-01-15T11:41:08Z</time><extensions><speed>1.225821</speed><course>30.379732</course><hAcc>2.041380</hAcc><vAcc>0.530400</vAcc></extensions></trkpt>
      <trkpt lon="-3.044096" lat="52.718493"><ele>283.485229</ele><time>2022-01-15T11:41:09Z</time><extensions><speed>1.242666</speed><course>27.213589</course><hAcc>2.045364</hAcc><vAcc>0.528485</vAcc></extensions></trkpt>
      <trkpt lon="-3.044089" lat="52.718503"><ele>283.464325</ele><time>2022-01-15T11:41:10Z</time><extensions><speed>1.193810</speed><course>23.458132</course><hAcc>2.054860</hAcc><vAcc>0.528084</vAcc></extensions></trkpt>
      <trkpt lon="-3.044082" lat="52.718513"><ele>283.443878</ele><time>2022-01-15T11:41:11Z</time><extensions><speed>1.139113</speed><course>19.077480</course><hAcc>2.073944</hAcc><vAcc>0.529353</vAcc></extensions></trkpt>
      <trkpt lon="-3.044078" lat="52.718522"><ele>283.425781</ele><time>2022-01-15T11:41:12Z</time><extensions><speed>1.124341</speed><course>13.795859</course><hAcc>2.054877</hAcc><vAcc>0.532150</vAcc></extensions></trkpt>
      <trkpt lon="-3.044075" lat="52.718532"><ele>283.410065</ele><time>2022-01-15T11:41:13Z</time><extensions><speed>1.068291</speed><course>8.711491</course><hAcc>2.019860</hAcc><vAcc>0.536354</vAcc></extensions></trkpt>
      <trkpt lon="-3.044073" lat="52.718541"><ele>283.397491</ele><time>2022-01-15T11:41:14Z</time><extensions><speed>1.000895</speed><course>3.668177</course><hAcc>1.991815</hAcc><vAcc>0.542001</vAcc></extensions></trkpt>
      <trkpt lon="-3.044073" lat="52.718550"><ele>283.388641</ele><time>2022-01-15T11:41:15Z</time><extensions><speed>0.922311</speed><course>359.286102</course><hAcc>1.975988</hAcc><vAcc>0.549170</vAcc></extensions></trkpt>
      <trkpt lon="-3.044073" lat="52.718558"><ele>283.381683</ele><time>2022-01-15T11:41:16Z</time><extensions><speed>0.773208</speed><course>355.065308</course><hAcc>1.961593</hAcc><vAcc>0.557776</vAcc></extensions></trkpt>
      <trkpt lon="-3.044075" lat="52.718563"><ele>283.373474</ele><time>2022-01-15T11:41:17Z</time><extensions><speed>0.517205</speed><course>343.513214</course><hAcc>1.952605</hAcc><vAcc>0.567526</vAcc></extensions></trkpt>
      <trkpt lon="-3.044077" lat="52.718567"><ele>283.364960</ele><time>2022-01-15T11:41:18Z</time><extensions><speed>0.281134</speed><course>320.013031</course><hAcc>1.957500</hAcc><vAcc>0.577846</vAcc></extensions></trkpt>
      <trkpt lon="-3.044080" lat="52.718568"><ele>283.354889</ele><time>2022-01-15T11:41:19Z</time><extensions><speed>0.260209</speed><course>299.430634</course><hAcc>1.931599</hAcc><vAcc>0.588156</vAcc></extensions></trkpt>
      <trkpt lon="-3.044084" lat="52.718569"><ele>283.343842</ele><time>2022-01-15T11:41:20Z</time><extensions><speed>0.257197</speed><course>293.206573</course><hAcc>1.906221</hAcc><vAcc>0.598023</vAcc></extensions></trkpt>
      <trkpt lon="-3.044087" lat="52.718570"><ele>283.331604</ele><time>2022-01-15T11:41:21Z</time><extensions><speed>0.244514</speed><course>294.939240</course><hAcc>1.889228</hAcc><vAcc>0.607224</vAcc></extensions></trkpt>
      <trkpt lon="-3.044090" lat="52.718571"><ele>283.317383</ele><time>2022-01-15T11:41:22Z</time><extensions><speed>0.209883</speed><course>303.193024</course><hAcc>1.879901</hAcc><vAcc>0.615646</vAcc></extensions></trkpt>
      <trkpt lon="-3.044092" lat="52.718572"><ele>283.301025</ele><time>2022-01-15T11:41:23Z</time><extensions><speed>0.163413</speed><course>320.755005</course><hAcc>1.879615</hAcc><vAcc>0.623303</vAcc></extensions></trkpt>
      <trkpt lon="-3.044093" lat="52.718574"><ele>283.277588</ele><time>2022-01-15T11:41:24Z</time><extensions><speed>0.151446</speed><course>348.218292</course><hAcc>1.877842</hAcc><vAcc>0.630009</vAcc></extensions></trkpt>
      <trkpt lon="-3.044093" lat="52.718575"><ele>283.250244</ele><time>2022-01-15T11:41:25Z</time><extensions><speed>0.183259</speed><course>9.267489</course><hAcc>1.868026</hAcc><vAcc>0.635720</vAcc></extensions></trkpt>
      <trkpt lon="-3.044092" lat="52.718577"><ele>283.212738</ele><time>2022-01-15T11:41:26Z</time><extensions><speed>0.238875</speed><course>18.488094</course><hAcc>1.849042</hAcc><vAcc>0.640395</vAcc></extensions></trkpt>
      <trkpt lon="-3.044090" lat="52.718579"><ele>283.164368</ele><time>2022-01-15T11:41:27Z</time><extensions><speed>0.275151</speed><course>21.309076</course><hAcc>1.837766</hAcc><vAcc>0.643844</vAcc></extensions></trkpt>
      <trkpt lon="-3.044088" lat="52.718582"><ele>283.110443</ele><time>2022-01-15T11:41:28Z</time><extensions><speed>0.313892</speed><course>22.883072</course><hAcc>1.829944</hAcc><vAcc>0.645804</vAcc></extensions></trkpt>
      <trkpt lon="-3.044086" lat="52.718585"><ele>283.053009</ele><time>2022-01-15T11:41:29Z</time><extensions><speed>0.317506</speed><course>25.942991</course><hAcc>1.837227</hAcc><vAcc>0.646335</vAcc></extensions></trkpt>
      <trkpt lon="-3.044084" lat="52.718587"><ele>282.990021</ele><time>2022-01-15T11:41:30Z</time><extensions><speed>0.316225</speed><course>30.968494</course><hAcc>1.852149</hAcc><vAcc>0.645513</vAcc></extensions></trkpt>
      <trkpt lon="-3.044081" lat="52.718590"><ele>282.921082</ele><time>2022-01-15T11:41:31Z</time><extensions><speed>0.339499</speed><course>36.139076</course><hAcc>1.861786</hAcc><vAcc>0.643313</vAcc></extensions></trkpt>
      <trkpt lon="-3.044078" lat="52.718592"><ele>282.848907</ele><time>2022-01-15T11:41:32Z</time><extensions><speed>0.459535</speed><course>39.664780</course><hAcc>1.847253</hAcc><vAcc>0.639752</vAcc></extensions></trkpt>
      <trkpt lon="-3.044073" lat="52.718596"><ele>282.763794</ele><time>2022-01-15T11:41:33Z</time><extensions><speed>0.522481</speed><course>41.361122</course><hAcc>1.858479</hAcc><vAcc>0.634909</vAcc></extensions></trkpt>
      <trkpt lon="-3.044068" lat="52.718600"><ele>282.673920</ele><time>2022-01-15T11:41:34Z</time><extensions><speed>0.601304</speed><course>40.839748</course><hAcc>1.883014</hAcc><vAcc>0.628938</vAcc></extensions></trkpt>
      <trkpt lon="-3.044061" lat="52.718604"><ele>282.581024</ele><time>2022-01-15T11:41:35Z</time><extensions><speed>0.699971</speed><course>37.928421</course><hAcc>1.911029</hAcc><vAcc>0.622116</vAcc></extensions></trkpt>
      <trkpt lon="-3.044055" lat="52.718610"><ele>282.486267</ele><time>2022-01-15T11:41:36Z</time><extensions><speed>0.868910</speed><course>33.082981</course><hAcc>1.927950</hAcc><vAcc>0.614863</vAcc></extensions></trkpt>
      <trkpt lon="-3.044047" lat="52.718618"><ele>282.394958</ele><time>2022-01-15T11:41:37Z</time><extensions><speed>1.198286</speed><course>28.089216</course><hAcc>1.926886</hAcc><vAcc>0.607773</vAcc></extensions></trkpt>
      <trkpt lon="-3.044039" lat="52.718628"><ele>282.307953</ele><time>2022-01-15T11:41:38Z</time><extensions><speed>1.353260</speed><course>24.163115</course><hAcc>1.937145</hAcc><vAcc>0.601591</vAcc></extensions></trkpt>
      <trkpt lon="-3.044031" lat="52.718640"><ele>282.219818</ele><time>2022-01-15T11:41:39Z</time><extensions><speed>1.409638</speed><course>20.517904</course><hAcc>1.949771</hAcc><vAcc>0.597009</vAcc></extensions></trkpt>
      <trkpt lon="-3.044025" lat="52.718652"><ele>282.142120</ele><time>2022-01-15T11:41:40Z</time><extensions><speed>1.336343</speed><course>18.105677</course><hAcc>1.958610</hAcc><vAcc>0.594323</vAcc></extensions></trkpt>
      <trkpt lon="-3.044019" lat="52.718663"><ele>282.060638</ele><time>2022-01-15T11:41:41Z</time><extensions><speed>1.226247</speed><course>16.869541</course><hAcc>1.952102</hAcc><vAcc>0.593317</vAcc></extensions></trkpt>
      <trkpt lon="-3.044014" lat="52.718673"><ele>281.981384</ele><time>2022-01-15T11:41:42Z</time><extensions><speed>1.184450</speed><course>13.515954</course><hAcc>1.931075</hAcc><vAcc>0.593662</vAcc></extensions></trkpt>
      <trkpt lon="-3.044011" lat="52.718683"><ele>281.905457</ele><time>2022-01-15T11:41:43Z</time><extensions><speed>1.142169</speed><course>10.906911</course><hAcc>1.917739</hAcc><vAcc>0.595088</vAcc></extensions></trkpt>
      <trkpt lon="-3.044008" lat="52.718693"><ele>281.836487</ele><time>2022-01-15T11:41:44Z</time><extensions><speed>1.099104</speed><course>8.575105</course><hAcc>1.914770</hAcc><vAcc>0.597394</vAcc></extensions></trkpt>
      <trkpt lon="-3.044006" lat="52.718703"><ele>281.771667</ele><time>2022-01-15T11:41:45Z</time><extensions><speed>1.178732</speed><course>7.232025</course><hAcc>1.912845</hAcc><vAcc>0.600440</vAcc></extensions></trkpt>
      <trkpt lon="-3.044004" lat="52.718714"><ele>281.710846</ele><time>2022-01-15T11:41:46Z</time><extensions><speed>1.281095</speed><course>5.999784</course><hAcc>1.911816</hAcc><vAcc>0.604254</vAcc></extensions></trkpt>
      <trkpt lon="-3.044002" lat="52.718726"><ele>281.653229</ele><time>2022-01-15T11:41:47Z</time><extensions><speed>1.341142</speed><course>5.668684</course><hAcc>1.911239</hAcc><vAcc>0.608998</vAcc></extensions></trkpt>
      <trkpt lon="-3.044000" lat="52.718738"><ele>281.598114</ele><time>2022-01-15T11:41:48Z</time><extensions><speed>1.300153</speed><course>5.126052</course><hAcc>1.908979</hAcc><vAcc>0.614950</vAcc></extensions></trkpt>
      <trkpt lon="-3.043999" lat="52.718749"><ele>281.545380</ele><time>2022-01-15T11:41:49Z</time><extensions><speed>1.124031</speed><course>3.667909</course><hAcc>1.902935</hAcc><vAcc>0.622365</vAcc></extensions></trkpt>
      <trkpt lon="-3.043998" lat="52.718758"><ele>281.495300</ele><time>2022-01-15T11:41:50Z</time><extensions><speed>0.871512</speed><course>1.255499</course><hAcc>1.896073</hAcc><vAcc>0.631382</vAcc></extensions></trkpt>
      <trkpt lon="-3.043998" lat="52.718764"><ele>281.430664</ele><time>2022-01-15T11:41:51Z</time><extensions><speed>0.575414</speed><course>355.702087</course><hAcc>1.890945</hAcc><vAcc>0.641805</vAcc></extensions></trkpt>
      <trkpt lon="-3.043999" lat="52.718768"><ele>281.359070</ele><time>2022-01-15T11:41:52Z</time><extensions><speed>0.319061</speed><course>342.029022</course><hAcc>1.888448</hAcc><vAcc>0.652898</vAcc></extensions></trkpt>
      <trkpt lon="-3.044001" lat="52.718769"><ele>281.284332</ele><time>2022-01-15T11:41:53Z</time><extensions><speed>0.162826</speed><course>270.061249</course><hAcc>1.876553</hAcc><vAcc>0.663789</vAcc></extensions></trkpt>
      <trkpt lon="-3.044004" lat="52.718769"><ele>281.206696</ele><time>2022-01-15T11:41:54Z</time><extensions><speed>0.201735</speed><course>237.624207</course><hAcc>1.857522</hAcc><vAcc>0.674136</vAcc></extensions></trkpt>
      <trkpt lon="-3.044006" lat="52.718768"><ele>281.126587</ele><time>2022-01-15T11:41:55Z</time><extensions><speed>0.187259</speed><course>230.096146</course><hAcc>1.841370</hAcc><vAcc>0.683162</vAcc></extensions></trkpt>
      <trkpt lon="-3.044008" lat="52.718767"><ele>281.035431</ele><time>2022-01-15T11:41:56Z</time><extensions><speed>0.126227</speed><course>230.890594</course><hAcc>1.836148</hAcc><vAcc>0.690562</vAcc></extensions></trkpt>
      <trkpt lon="-3.044009" lat="52.718767"><ele>280.964233</ele><time>2022-01-15T11:41:57Z</time><extensions><speed>0.049474</speed><course>258.236969</course><hAcc>1.839192</hAcc><vAcc>0.696162</vAcc></extensions></trkpt>
      <trkpt lon="-3.044009" lat="52.718767"><ele>280.879059</ele><time>2022-01-15T11:41:58Z</time><extensions><speed>0.090258</speed><course>3.626667</course><hAcc>1.854916</hAcc><vAcc>0.699880</vAcc></extensions></trkpt>
      <trkpt lon="-3.044009" lat="52.718769"><ele>280.793243</ele><time>2022-01-15T11:41:59Z</time><extensions><speed>0.255236</speed><course>15.564096</course><hAcc>1.867464</hAcc><vAcc>0.701755</vAcc></extensions></trkpt>
      <trkpt lon="-3.044007" lat="52.718772"><ele>280.697693</ele><time>2022-01-15T11:42:00Z</time><extensions><speed>0.540035</speed><course>16.846107</course><hAcc>1.865235</hAcc><vAcc>0.701980</vAcc></extensions></trkpt>
      <trkpt lon="-3.044004" lat="52.718779"><ele>280.592865</ele><time>2022-01-15T11:42:01Z</time><extensions><speed>1.019362</speed><course>16.311749</course><hAcc>1.854011</hAcc><vAcc>0.700871</vAcc></extensions></trkpt>
      <trkpt lon="-3.043999" lat="52.718789"><ele>280.484406</ele><time>2022-01-15T11:42:02Z</time><extensions><speed>1.400022</speed><course>15.498984</course><hAcc>1.871767</hAcc><vAcc>0.698751</vAcc></extensions></trkpt>
      <trkpt lon="-3.043993" lat="52.718803"><ele>280.371246</ele><time>2022-01-15T11:42:03Z</time><extensions><speed>1.679463</speed><course>11.894365</course><hAcc>1.887101</hAcc><vAcc>0.696056</vAcc></extensions></trkpt>
      <trkpt lon="-3.043989" lat="52.718818"><ele>280.248779</ele><time>2022-01-15T11:42:04Z</time><extensions><speed>1.851300</speed><course>8.341807</course><hAcc>1.895397</hAcc><vAcc>0.693083</vAcc></extensions></trkpt>
      <trkpt lon="-3.043985" lat="52.718835"><ele>280.118408</ele><time>2022-01-15T11:42:05Z</time><extensions><speed>1.872258</speed><course>6.377974</course><hAcc>1.892835</hAcc><vAcc>0.690057</vAcc></extensions></trkpt>
      <trkpt lon="-3.043982" lat="52.718851"><ele>280.006104</ele><time>2022-01-15T11:42:06Z</time><extensions><speed>1.784132</speed><course>6.648215</course><hAcc>1.890896</hAcc><vAcc>0.686966</vAcc></extensions></trkpt>
      <trkpt lon="-3.043979" lat="52.718866"><ele>279.888214</ele><time>2022-01-15T11:42:07Z</time><extensions><speed>1.638003</speed><course>6.729399</course><hAcc>1.893008</hAcc><vAcc>0.683748</vAcc></extensions></trkpt>
      <trkpt lon="-3.043977" lat="52.718880"><ele>279.779388</ele><time>2022-01-15T11:42:08Z</time><extensions><speed>1.463529</speed><course>6.524226</course><hAcc>1.891624</hAcc><vAcc>0.680390</vAcc></extensions></trkpt>
      <trkpt lon="-3.043975" lat="52.718893"><ele>279.671021</ele><time>2022-01-15T11:42:09Z</time><extensions><speed>1.363238</speed><course>5.774025</course><hAcc>1.889875</hAcc><vAcc>0.676818</vAcc></extensions></trkpt>
      <trkpt lon="-3.043973" lat="52.718905"><ele>279.568329</ele><time>2022-01-15T11:42:10Z</time><extensions><speed>1.368303</speed><course>3.890449</course><hAcc>1.892473</hAcc><vAcc>0.673062</vAcc></extensions></trkpt>
      <trkpt lon="-3.043972" lat="52.718918"><ele>279.447144</ele><time>2022-01-15T11:42:11Z</time><extensions><speed>1.440153</speed><course>2.501468</course><hAcc>1.899095</hAcc><vAcc>0.669203</vAcc></extensions></trkpt>
      <trkpt lon="-3.043971" lat="52.718931"><ele>279.325867</ele><time>2022-01-15T11:42:12Z</time><extensions><speed>1.520825</speed><course>359.633087</course><hAcc>1.902496</hAcc><vAcc>0.665292</vAcc></extensions></trkpt>
      <trkpt lon="-3.043972" lat="52.718945"><ele>279.192902</ele><time>2022-01-15T11:42:13Z</time><extensions><speed>1.591017</speed><course>357.175201</course><hAcc>1.908236</hAcc><vAcc>0.661435</vAcc></extensions></trkpt>
      <trkpt lon="-3.043974" lat="52.718960"><ele>279.051025</ele><time>2022-01-15T11:42:14Z</time><extensions><speed>1.635728</speed><course>354.627075</course><hAcc>1.916392</hAcc><vAcc>0.657756</vAcc></extensions></trkpt>
      <trkpt lon="-3.043977" lat="52.718975"><ele>278.908081</ele><time>2022-01-15T11:42:15Z</time><extensions><speed>1.708164</speed><course>352.923584</course><hAcc>1.922401</hAcc><vAcc>0.654441</vAcc></extensions></trkpt>
      <trkpt lon="-3.043980" lat="52.718990"><ele>278.769470</ele><time>2022-01-15T11:42:16Z</time><extensions><speed>1.787122</speed><course>351.177704</course><hAcc>1.919845</hAcc><vAcc>0.651681</vAcc></extensions></trkpt>
      <trkpt lon="-3.043985" lat="52.719006"><ele>278.641510</ele><time>2022-01-15T11:42:17Z</time><extensions><speed>1.808738</speed><course>348.710602</course><hAcc>1.915957</hAcc><vAcc>0.649694</vAcc></extensions></trkpt>
      <trkpt lon="-3.043991" lat="52.719022"><ele>278.505219</ele><time>2022-01-15T11:42:18Z</time><extensions><speed>1.807474</speed><course>345.328247</course><hAcc>1.916320</hAcc><vAcc>0.648817</vAcc></extensions></trkpt>
      <trkpt lon="-3.043999" lat="52.719037"><ele>278.371765</ele><time>2022-01-15T11:42:19Z</time><extensions><speed>1.770159</speed><course>340.363342</course><hAcc>1.915004</hAcc><vAcc>0.649266</vAcc></extensions></trkpt>
      <trkpt lon="-3.044009" lat="52.719052"><ele>278.239868</ele><time>2022-01-15T11:42:20Z</time><extensions><speed>1.745327</speed><course>335.846588</course><hAcc>1.911504</hAcc><vAcc>0.651125</vAcc></extensions></trkpt>
      <trkpt lon="-3.044020" lat="52.719066"><ele>278.108978</ele><time>2022-01-15T11:42:21Z</time><extensions><speed>1.675905</speed><course>332.332581</course><hAcc>1.902442</hAcc><vAcc>0.654315</vAcc></extensions></trkpt>
      <trkpt lon="-3.044032" lat="52.719079"><ele>277.981110</ele><time>2022-01-15T11:42:22Z</time><extensions><speed>1.640553</speed><course>332.266357</course><hAcc>1.887110</hAcc><vAcc>0.658620</vAcc></extensions></trkpt>
      <trkpt lon="-3.044043" lat="52.719092"><ele>277.846954</ele><time>2022-01-15T11:42:23Z</time><extensions><speed>1.659373</speed><course>333.472626</course><hAcc>1.868003</hAcc><vAcc>0.663828</vAcc></extensions></trkpt>
      <trkpt lon="-3.044055" lat="52.719106"><ele>277.741608</ele><time>2022-01-15T11:42:24Z</time><extensions><speed>1.710638</speed><course>333.368835</course><hAcc>1.836785</hAcc><vAcc>0.669728</vAcc></extensions></trkpt>
      <trkpt lon="-3.044066" lat="52.719120"><ele>277.629608</ele><time>2022-01-15T11:42:25Z</time><extensions><speed>1.764162</speed><course>334.593597</course><hAcc>1.803846</hAcc><vAcc>0.676171</vAcc></extensions></trkpt>
      <trkpt lon="-3.044078" lat="52.719134"><ele>277.517609</ele><time>2022-01-15T11:42:26Z</time><extensions><speed>1.734110</speed><course>336.687836</course><hAcc>1.771613</hAcc><vAcc>0.683014</vAcc></extensions></trkpt>
      <trkpt lon="-3.044089" lat="52.719148"><ele>277.401642</ele><time>2022-01-15T11:42:27Z</time><extensions><speed>1.805314</speed><course>335.887817</course><hAcc>1.725547</hAcc><vAcc>0.690132</vAcc></extensions></trkpt>
      <trkpt lon="-3.044100" lat="52.719163"><ele>277.271973</ele><time>2022-01-15T11:42:28Z</time><extensions><speed>1.811791</speed><course>336.403992</course><hAcc>1.728117</hAcc><vAcc>0.697318</vAcc></extensions></trkpt>
      <trkpt lon="-3.044110" lat="52.719178"><ele>277.153137</ele><time>2022-01-15T11:42:29Z</time><extensions><speed>1.826565</speed><course>338.244720</course><hAcc>1.712140</hAcc><vAcc>0.704290</vAcc></extensions></trkpt>
      <trkpt lon="-3.044121" lat="52.719193"><ele>277.011871</ele><time>2022-01-15T11:42:30Z</time><extensions><speed>1.828742</speed><course>337.516327</course><hAcc>1.691656</hAcc><vAcc>0.710737</vAcc></extensions></trkpt>
      <trkpt lon="-3.044131" lat="52.719208"><ele>276.869415</ele><time>2022-01-15T11:42:31Z</time><extensions><speed>1.827079</speed><course>336.458801</course><hAcc>1.664190</hAcc><vAcc>0.716489</vAcc></extensions></trkpt>
      <trkpt lon="-3.044143" lat="52.719223"><ele>276.719055</ele><time>2022-01-15T11:42:32Z</time><extensions><speed>1.819569</speed><course>335.002869</course><hAcc>1.636627</hAcc><vAcc>0.721317</vAcc></extensions></trkpt>
      <trkpt lon="-3.044154" lat="52.719237"><ele>276.573120</ele><time>2022-01-15T11:42:33Z</time><extensions><speed>1.816483</speed><course>334.180267</course><hAcc>1.654894</hAcc><vAcc>0.725144</vAcc></extensions></trkpt>
      <trkpt lon="-3.044167" lat="52.719252"><ele>276.412079</ele><time>2022-01-15T11:42:34Z</time><extensions><speed>1.831149</speed><course>332.710266</course><hAcc>1.667312</hAcc><vAcc>0.727981</vAcc></extensions></trkpt>
      <trkpt lon="-3.044180" lat="52.719266"><ele>276.258301</ele><time>2022-01-15T11:42:35Z</time><extensions><speed>1.823158</speed><course>330.271698</course><hAcc>1.666978</hAcc><vAcc>0.729840</vAcc></extensions></trkpt>
      <trkpt lon="-3.044194" lat="52.719280"><ele>276.066681</ele><time>2022-01-15T11:42:36Z</time><extensions><speed>1.775047</speed><course>325.522705</course><hAcc>1.680391</hAcc><vAcc>0.730601</vAcc></extensions></trkpt>
      <trkpt lon="-3.044208" lat="52.719293"><ele>275.880219</ele><time>2022-01-15T11:42:37Z</time><extensions><speed>1.696237</speed><course>326.832947</course><hAcc>1.691375</hAcc><vAcc>0.730249</vAcc></extensions></trkpt>
      <trkpt lon="-3.044221" lat="52.719305"><ele>275.676300</ele><time>2022-01-15T11:42:38Z</time><extensions><speed>1.589416</speed><course>327.629333</course><hAcc>1.711122</hAcc><vAcc>0.728867</vAcc></extensions></trkpt>
      <trkpt lon="-3.044234" lat="52.719317"><ele>275.505035</ele><time>2022-01-15T11:42:39Z</time><extensions><speed>1.469273</speed><course>327.344391</course><hAcc>1.733221</hAcc><vAcc>0.726613</vAcc></extensions></trkpt>
      <trkpt lon="-3.044246" lat="52.719327"><ele>275.313660</ele><time>2022-01-15T11:42:40Z</time><extensions><speed>1.392119</speed><course>323.988312</course><hAcc>1.754276</hAcc><vAcc>0.723775</vAcc></extensions></trkpt>
      <trkpt lon="-3.044258" lat="52.719337"><ele>275.149017</ele><time>2022-01-15T11:42:41Z</time><extensions><speed>1.372502</speed><course>324.023804</course><hAcc>1.791428</hAcc><vAcc>0.720705</vAcc></extensions></trkpt>
      <trkpt lon="-3.044269" lat="52.719347"><ele>274.992432</ele><time>2022-01-15T11:42:42Z</time><extensions><speed>1.362529</speed><course>324.008698</course><hAcc>1.830276</hAcc><vAcc>0.717734</vAcc></extensions></trkpt>
      <trkpt lon="-3.044281" lat="52.719357"><ele>274.844208</ele><time>2022-01-15T11:42:43Z</time><extensions><speed>1.347544</speed><course>324.885529</course><hAcc>1.844109</hAcc><vAcc>0.715177</vAcc></extensions></trkpt>
      <trkpt lon="-3.044291" lat="52.719367"><ele>274.707031</ele><time>2022-01-15T11:42:44Z</time><extensions><speed>1.288685</speed><course>328.093140</course><hAcc>1.840444</hAcc><vAcc>0.713279</vAcc></extensions></trkpt>
      <trkpt lon="-3.044300" lat="52.719377"><ele>274.597443</ele><time>2022-01-15T11:42:45Z</time><extensions><speed>1.256806</speed><course>335.234558</course><hAcc>1.836340</hAcc><vAcc>0.712172</vAcc></extensions></trkpt>
      <trkpt lon="-3.044307" lat="52.719388"><ele>274.515808</ele><time>2022-01-15T11:42:46Z</time><extensions><speed>1.307214</speed><course>339.032379</course><hAcc>1.794743</hAcc><vAcc>0.711904</vAcc></extensions></trkpt>
      <trkpt lon="-3.044313" lat="52.719400"><ele>274.474060</ele><time>2022-01-15T11:42:47Z</time><extensions><speed>1.395225</speed><course>343.401917</course><hAcc>1.741765</hAcc><vAcc>0.712484</vAcc></extensions></trkpt>
      <trkpt lon="-3.044317" lat="52.719412"><ele>274.449738</ele><time>2022-01-15T11:42:48Z</time><extensions><speed>1.444619</speed><course>347.611267</course><hAcc>1.690918</hAcc><vAcc>0.713878</vAcc></extensions></trkpt>
      <trkpt lon="-3.044320" lat="52.719425"><ele>274.462341</ele><time>2022-01-15T11:42:49Z</time><extensions><speed>1.536643</speed><course>351.198578</course><hAcc>1.657248</hAcc><vAcc>0.716006</vAcc></extensions></trkpt>
      <trkpt lon="-3.044322" lat="52.719439"><ele>274.513947</ele><time>2022-01-15T11:42:50Z</time><extensions><speed>1.672370</speed><course>355.629700</course><hAcc>1.610880</hAcc><vAcc>0.718748</vAcc></extensions></trkpt>
      <trkpt lon="-3.044322" lat="52.719454"><ele>274.589844</ele><time>2022-01-15T11:42:51Z</time><extensions><speed>1.739312</speed><course>1.564789</course><hAcc>1.586519</hAcc><vAcc>0.721956</vAcc></extensions></trkpt>
      <trkpt lon="-3.044319" lat="52.719469"><ele>274.695892</ele><time>2022-01-15T11:42:52Z</time><extensions><speed>1.780781</speed><course>7.745705</course><hAcc>1.548500</hAcc><vAcc>0.725411</vAcc></extensions></trkpt>
      <trkpt lon="-3.044313" lat="52.719484"><ele>274.833588</ele><time>2022-01-15T11:42:53Z</time><extensions><speed>1.789527</speed><course>15.797433</course><hAcc>1.519551</hAcc><vAcc>0.728980</vAcc></extensions></trkpt>
      <trkpt lon="-3.044303" lat="52.719499"><ele>274.995331</ele><time>2022-01-15T11:42:54Z</time><extensions><speed>1.789580</speed><course>26.434441</course><hAcc>1.499112</hAcc><vAcc>0.732436</vAcc></extensions></trkpt>
      <trkpt lon="-3.044290" lat="52.719512"><ele>275.199158</ele><time>2022-01-15T11:42:55Z</time><extensions><speed>1.763593</speed><course>36.022236</course><hAcc>1.472999</hAcc><vAcc>0.735716</vAcc></extensions></trkpt>
      <trkpt lon="-3.044273" lat="52.719525"><ele>275.424377</ele><time>2022-01-15T11:42:56Z</time><extensions><speed>1.778348</speed><course>39.498665</course><hAcc>1.466271</hAcc><vAcc>0.738839</vAcc></extensions></trkpt>
      <trkpt lon="-3.044256" lat="52.719536"><ele>275.666809</ele><time>2022-01-15T11:42:57Z</time><extensions><speed>1.753150</speed><course>42.236233</course><hAcc>1.472261</hAcc><vAcc>0.741721</vAcc></extensions></trkpt>
      <trkpt lon="-3.044237" lat="52.719548"><ele>275.938049</ele><time>2022-01-15T11:42:58Z</time><extensions><speed>1.802580</speed><course>47.530628</course><hAcc>1.475359</hAcc><vAcc>0.744369</vAcc></extensions></trkpt>
      <trkpt lon="-3.044218" lat="52.719557"><ele>276.219788</ele><time>2022-01-15T11:42:59Z</time><extensions><speed>1.684744</speed><course>53.052700</course><hAcc>1.486780</hAcc><vAcc>0.746815</vAcc></extensions></trkpt>
      <trkpt lon="-3.044197" lat="52.719566"><ele>276.517822</ele><time>2022-01-15T11:43:00Z</time><extensions><speed>1.627306</speed><course>59.386368</course><hAcc>1.484698</hAcc><vAcc>0.749066</vAcc></extensions></trkpt>
      <trkpt lon="-3.044176" lat="52.719573"><ele>276.831543</ele><time>2022-01-15T11:43:01Z</time><extensions><speed>1.603061</speed><course>59.619873</course><hAcc>1.522592</hAcc><vAcc>0.751146</vAcc></extensions></trkpt>
      <trkpt lon="-3.044156" lat="52.719580"><ele>277.146942</ele><time>2022-01-15T11:43:02Z</time><extensions><speed>1.562102</speed><course>58.185020</course><hAcc>1.563080</hAcc><vAcc>0.753097</vAcc></extensions></trkpt>
      <trkpt lon="-3.044137" lat="52.719587"><ele>277.460266</ele><time>2022-01-15T11:43:03Z</time><extensions><speed>1.426752</speed><course>60.387333</course><hAcc>1.547436</hAcc><vAcc>0.754900</vAcc></extensions></trkpt>
      <trkpt lon="-3.044120" lat="52.719593"><ele>277.767670</ele><time>2022-01-15T11:43:04Z</time><extensions><speed>1.237074</speed><course>63.878010</course><hAcc>1.554460</hAcc><vAcc>0.756579</vAcc></extensions></trkpt>
      <trkpt lon="-3.044105" lat="52.719597"><ele>278.075836</ele><time>2022-01-15T11:43:05Z</time><extensions><speed>1.089930</speed><course>63.610821</course><hAcc>1.619129</hAcc><vAcc>0.758125</vAcc></extensions></trkpt>
      <trkpt lon="-3.044091" lat="52.719602"><ele>278.415619</ele><time>2022-01-15T11:43:06Z</time><extensions><speed>0.951216</speed><course>60.558258</course><hAcc>1.689450</hAcc><vAcc>0.759477</vAcc></extensions></trkpt>
      <trkpt lon="-3.044079" lat="52.719605"><ele>278.729309</ele><time>2022-01-15T11:43:07Z</time><extensions><speed>0.910727</speed><course>66.680298</course><hAcc>1.672614</hAcc><vAcc>0.760611</vAcc></extensions></trkpt>
      <trkpt lon="-3.044067" lat="52.719609"><ele>279.025970</ele><time>2022-01-15T11:43:08Z</time><extensions><speed>0.876786</speed><course>66.606178</course><hAcc>1.668018</hAcc><vAcc>0.761521</vAcc></extensions></trkpt>
      <trkpt lon="-3.044056" lat="52.719612"><ele>279.321808</ele><time>2022-01-15T11:43:09Z</time><extensions><speed>0.829788</speed><course>61.971031</course><hAcc>1.676383</hAcc><vAcc>0.762152</vAcc></extensions></trkpt>
      <trkpt lon="-3.044046" lat="52.719616"><ele>279.607849</ele><time>2022-01-15T11:43:10Z</time><extensions><speed>0.806374</speed><course>55.283642</course><hAcc>1.681044</hAcc><vAcc>0.762506</vAcc></extensions></trkpt>
      <trkpt lon="-3.044036" lat="52.719620"><ele>279.896667</ele><time>2022-01-15T11:43:11Z</time><extensions><speed>0.822708</speed><course>48.517742</course><hAcc>1.699526</hAcc><vAcc>0.762505</vAcc></extensions></trkpt>
      <trkpt lon="-3.044027" lat="52.719626"><ele>280.182526</ele><time>2022-01-15T11:43:12Z</time><extensions><speed>0.904821</speed><course>44.003811</course><hAcc>1.726099</hAcc><vAcc>0.762147</vAcc></extensions></trkpt>
      <trkpt lon="-3.044018" lat="52.719632"><ele>280.451477</ele><time>2022-01-15T11:43:13Z</time><extensions><speed>0.912692</speed><course>39.859520</course><hAcc>1.696409</hAcc><vAcc>0.761446</vAcc></extensions></trkpt>
      <trkpt lon="-3.044010" lat="52.719638"><ele>280.707184</ele><time>2022-01-15T11:43:14Z</time><extensions><speed>0.938076</speed><course>35.398190</course><hAcc>1.698971</hAcc><vAcc>0.760444</vAcc></extensions></trkpt>
      <trkpt lon="-3.044002" lat="52.719645"><ele>280.941925</ele><time>2022-01-15T11:43:15Z</time><extensions><speed>0.957641</speed><course>30.953569</course><hAcc>1.717625</hAcc><vAcc>0.759137</vAcc></extensions></trkpt>
      <trkpt lon="-3.043996" lat="52.719653"><ele>281.162842</ele><time>2022-01-15T11:43:16Z</time><extensions><speed>0.971323</speed><course>25.008768</course><hAcc>1.710296</hAcc><vAcc>0.757579</vAcc></extensions></trkpt>
      <trkpt lon="-3.043990" lat="52.719661"><ele>281.355988</ele><time>2022-01-15T11:43:17Z</time><extensions><speed>0.973127</speed><course>20.932817</course><hAcc>1.715382</hAcc><vAcc>0.755793</vAcc></extensions></trkpt>
      <trkpt lon="-3.043986" lat="52.719669"><ele>281.523926</ele><time>2022-01-15T11:43:18Z</time><extensions><speed>0.960237</speed><course>16.826164</course><hAcc>1.729679</hAcc><vAcc>0.753896</vAcc></extensions></trkpt>
      <trkpt lon="-3.043982" lat="52.719678"><ele>281.692383</ele><time>2022-01-15T11:43:19Z</time><extensions><speed>1.002030</speed><course>14.802134</course><hAcc>1.742375</hAcc><vAcc>0.751845</vAcc></extensions></trkpt>
      <trkpt lon="-3.043978" lat="52.719687"><ele>281.837006</ele><time>2022-01-15T11:43:20Z</time><extensions><speed>1.045560</speed><course>12.244918</course><hAcc>1.748229</hAcc><vAcc>0.749707</vAcc></extensions></trkpt>
      <trkpt lon="-3.043975" lat="52.719696"><ele>281.953796</ele><time>2022-01-15T11:43:21Z</time><extensions><speed>1.086942</speed><course>8.772170</course><hAcc>1.755790</hAcc><vAcc>0.747451</vAcc></extensions></trkpt>
      <trkpt lon="-3.043974" lat="52.719706"><ele>282.040558</ele><time>2022-01-15T11:43:22Z</time><extensions><speed>1.079362</speed><course>3.901204</course><hAcc>1.742297</hAcc><vAcc>0.745122</vAcc></extensions></trkpt>
      <trkpt lon="-3.043973" lat="52.719716"><ele>282.136597</ele><time>2022-01-15T11:43:23Z</time><extensions><speed>1.089474</speed><course>0.095456</course><hAcc>1.743206</hAcc><vAcc>0.742724</vAcc></extensions></trkpt>
      <trkpt lon="-3.043974" lat="52.719726"><ele>282.227173</ele><time>2022-01-15T11:43:24Z</time><extensions><speed>1.069729</speed><course>355.549652</course><hAcc>1.756069</hAcc><vAcc>0.740244</vAcc></extensions></trkpt>
      <trkpt lon="-3.043976" lat="52.719735"><ele>282.304321</ele><time>2022-01-15T11:43:25Z</time><extensions><speed>1.081692</speed><course>350.796539</course><hAcc>1.753887</hAcc><vAcc>0.737781</vAcc></extensions></trkpt>
      <trkpt lon="-3.043979" lat="52.719745"><ele>282.357758</ele><time>2022-01-15T11:43:26Z</time><extensions><speed>1.102071</speed><course>348.551453</course><hAcc>1.759073</hAcc><vAcc>0.735347</vAcc></extensions></trkpt>
      <trkpt lon="-3.043982" lat="52.719755"><ele>282.400146</ele><time>2022-01-15T11:43:27Z</time><extensions><speed>1.126891</speed><course>347.288574</course><hAcc>1.763526</hAcc><vAcc>0.732968</vAcc></extensions></trkpt>
      <trkpt lon="-3.043986" lat="52.719765"><ele>282.455200</ele><time>2022-01-15T11:43:28Z</time><extensions><speed>1.170196</speed><course>349.308899</course><hAcc>1.770612</hAcc><vAcc>0.730656</vAcc></extensions></trkpt>
      <trkpt lon="-3.043989" lat="52.719776"><ele>282.511902</ele><time>2022-01-15T11:43:29Z</time><extensions><speed>1.307414</speed><course>350.492126</course><hAcc>1.769961</hAcc><vAcc>0.728416</vAcc></extensions></trkpt>
      <trkpt lon="-3.043992" lat="52.719788"><ele>282.558411</ele><time>2022-01-15T11:43:30Z</time><extensions><speed>1.397289</speed><course>350.789948</course><hAcc>1.780194</hAcc><vAcc>0.726284</vAcc></extensions></trkpt>
      <trkpt lon="-3.043996" lat="52.719801"><ele>282.595551</ele><time>2022-01-15T11:43:31Z</time><extensions><speed>1.433844</speed><course>349.878113</course><hAcc>1.782011</hAcc><vAcc>0.724250</vAcc></extensions></trkpt>
      <trkpt lon="-3.044000" lat="52.719813"><ele>282.640259</ele><time>2022-01-15T11:43:32Z</time><extensions><speed>1.437254</speed><course>348.503204</course><hAcc>1.780763</hAcc><vAcc>0.722345</vAcc></extensions></trkpt>
      <trkpt lon="-3.044004" lat="52.719826"><ele>282.687347</ele><time>2022-01-15T11:43:33Z</time><extensions><speed>1.457072</speed><course>348.213287</course><hAcc>1.780724</hAcc><vAcc>0.720668</vAcc></extensions></trkpt>
      <trkpt lon="-3.044009" lat="52.719839"><ele>282.740723</ele><time>2022-01-15T11:43:34Z</time><extensions><speed>1.434980</speed><course>348.156647</course><hAcc>1.782773</hAcc><vAcc>0.719214</vAcc></extensions></trkpt>
      <trkpt lon="-3.044013" lat="52.719851"><ele>282.787140</ele><time>2022-01-15T11:43:35Z</time><extensions><speed>1.412585</speed><course>348.106415</course><hAcc>1.791630</hAcc><vAcc>0.718044</vAcc></extensions></trkpt>
      <trkpt lon="-3.044018" lat="52.719864"><ele>282.835968</ele><time>2022-01-15T11:43:36Z</time><extensions><speed>1.398708</speed><course>347.380737</course><hAcc>1.791650</hAcc><vAcc>0.717141</vAcc></extensions></trkpt>
      <trkpt lon="-3.044022" lat="52.719876"><ele>282.866333</ele><time>2022-01-15T11:43:37Z</time><extensions><speed>1.425171</speed><course>347.556030</course><hAcc>1.777168</hAcc><vAcc>0.716503</vAcc></extensions></trkpt>
      <trkpt lon="-3.044027" lat="52.719889"><ele>282.891296</ele><time>2022-01-15T11:43:38Z</time><extensions><speed>1.420298</speed><course>347.211029</course><hAcc>1.770327</hAcc><vAcc>0.716133</vAcc></extensions></trkpt>
      <trkpt lon="-3.044031" lat="52.719901"><ele>282.930634</ele><time>2022-01-15T11:43:39Z</time><extensions><speed>1.384237</speed><course>346.367065</course><hAcc>1.766716</hAcc><vAcc>0.716020</vAcc></extensions></trkpt>
      <trkpt lon="-3.044036" lat="52.719913"><ele>282.969727</ele><time>2022-01-15T11:43:40Z</time><extensions><speed>1.337067</speed><course>346.584503</course><hAcc>1.764023</hAcc><vAcc>0.716126</vAcc></extensions></trkpt>
      <trkpt lon="-3.044041" lat="52.719924"><ele>282.998901</ele><time>2022-01-15T11:43:41Z</time><extensions><speed>1.274491</speed><course>344.856049</course><hAcc>1.757283</hAcc><vAcc>0.716434</vAcc></extensions></trkpt>
      <trkpt lon="-3.044046" lat="52.719935"><ele>283.019226</ele><time>2022-01-15T11:43:42Z</time><extensions><speed>1.177716</speed><course>342.331879</course><hAcc>1.755616</hAcc><vAcc>0.716927</vAcc></extensions></trkpt>
      <trkpt lon="-3.044051" lat="52.719945"><ele>283.048584</ele><time>2022-01-15T11:43:43Z</time><extensions><speed>1.141222</speed><course>341.568359</course><hAcc>1.755149</hAcc><vAcc>0.717553</vAcc></extensions></trkpt>
      <trkpt lon="-3.044056" lat="52.719955"><ele>283.074738</ele><time>2022-01-15T11:43:44Z</time><extensions><speed>1.164187</speed><course>343.822266</course><hAcc>1.731253</hAcc><vAcc>0.718338</vAcc></extensions></trkpt>
      <trkpt lon="-3.044061" lat="52.719965"><ele>283.091522</ele><time>2022-01-15T11:43:45Z</time><extensions><speed>1.178652</speed><course>346.927002</course><hAcc>1.729732</hAcc><vAcc>0.719243</vAcc></extensions></trkpt>
      <trkpt lon="-3.044065" lat="52.719975"><ele>283.129333</ele><time>2022-01-15T11:43:46Z</time><extensions><speed>1.177022</speed><course>348.480804</course><hAcc>1.733553</hAcc><vAcc>0.720164</vAcc></extensions></trkpt>
      <trkpt lon="-3.044068" lat="52.719986"><ele>283.165710</ele><time>2022-01-15T11:43:47Z</time><extensions><speed>1.143301</speed><course>349.087494</course><hAcc>1.733619</hAcc><vAcc>0.721103</vAcc></extensions></trkpt>
      <trkpt lon="-3.044071" lat="52.719996"><ele>283.180695</ele><time>2022-01-15T11:43:48Z</time><extensions><speed>1.104818</speed><course>349.361145</course><hAcc>1.740130</hAcc><vAcc>0.722023</vAcc></extensions></trkpt>
      <trkpt lon="-3.044074" lat="52.720006"><ele>283.218231</ele><time>2022-01-15T11:43:49Z</time><extensions><speed>1.140844</speed><course>350.403839</course><hAcc>1.737564</hAcc><vAcc>0.722783</vAcc></extensions></trkpt>
      <trkpt lon="-3.044077" lat="52.720016"><ele>283.252625</ele><time>2022-01-15T11:43:50Z</time><extensions><speed>1.166091</speed><course>351.612701</course><hAcc>1.747253</hAcc><vAcc>0.723380</vAcc></extensions></trkpt>
      <trkpt lon="-3.044079" lat="52.720026"><ele>283.304169</ele><time>2022-01-15T11:43:51Z</time><extensions><speed>1.120231</speed><course>352.691498</course><hAcc>1.757648</hAcc><vAcc>0.723760</vAcc></extensions></trkpt>
      <trkpt lon="-3.044081" lat="52.720036"><ele>283.358002</ele><time>2022-01-15T11:43:52Z</time><extensions><speed>1.104470</speed><course>354.043701</course><hAcc>1.752426</hAcc><vAcc>0.723890</vAcc></extensions></trkpt>
      <trkpt lon="-3.044082" lat="52.720046"><ele>283.408051</ele><time>2022-01-15T11:43:53Z</time><extensions><speed>1.119984</speed><course>355.867920</course><hAcc>1.759107</hAcc><vAcc>0.723777</vAcc></extensions></trkpt>
      <trkpt lon="-3.044083" lat="52.720056"><ele>283.471497</ele><time>2022-01-15T11:43:54Z</time><extensions><speed>1.150207</speed><course>356.778198</course><hAcc>1.773949</hAcc><vAcc>0.723429</vAcc></extensions></trkpt>
      <trkpt lon="-3.044084" lat="52.720067"><ele>283.536316</ele><time>2022-01-15T11:43:55Z</time><extensions><speed>1.195632</speed><course>357.829498</course><hAcc>1.784407</hAcc><vAcc>0.722802</vAcc></extensions></trkpt>
      <trkpt lon="-3.044085" lat="52.720078"><ele>283.594452</ele><time>2022-01-15T11:43:56Z</time><extensions><speed>1.226604</speed><course>358.632477</course><hAcc>1.785567</hAcc><vAcc>0.721921</vAcc></extensions></trkpt>
      <trkpt lon="-3.044085" lat="52.720089"><ele>283.661560</ele><time>2022-01-15T11:43:57Z</time><extensions><speed>1.188973</speed><course>358.612152</course><hAcc>1.802488</hAcc><vAcc>0.720774</vAcc></extensions></trkpt>
      <trkpt lon="-3.044086" lat="52.720099"><ele>283.740845</ele><time>2022-01-15T11:43:58Z</time><extensions><speed>1.073754</speed><course>358.246643</course><hAcc>1.806587</hAcc><vAcc>0.719401</vAcc></extensions></trkpt>
      <trkpt lon="-3.044086" lat="52.720109"><ele>283.818207</ele><time>2022-01-15T11:43:59Z</time><extensions><speed>1.170917</speed><course>357.951569</course><hAcc>1.788291</hAcc><vAcc>0.717835</vAcc></extensions></trkpt>
      <trkpt lon="-3.044087" lat="52.720120"><ele>283.897980</ele><time>2022-01-15T11:44:00Z</time><extensions><speed>1.226887</speed><course>356.982208</course><hAcc>1.784520</hAcc><vAcc>0.716138</vAcc></extensions></trkpt>
      <trkpt lon="-3.044088" lat="52.720131"><ele>283.982574</ele><time>2022-01-15T11:44:01Z</time><extensions><speed>1.242259</speed><course>356.033508</course><hAcc>1.790041</hAcc><vAcc>0.714366</vAcc></extensions></trkpt>
      <trkpt lon="-3.044090" lat="52.720142"><ele>284.056824</ele><time>2022-01-15T11:44:02Z</time><extensions><speed>1.209577</speed><course>354.649017</course><hAcc>1.798422</hAcc><vAcc>0.712605</vAcc></extensions></trkpt>
      <trkpt lon="-3.044091" lat="52.720153"><ele>284.131042</ele><time>2022-01-15T11:44:03Z</time><extensions><speed>1.207962</speed><course>354.223389</course><hAcc>1.809525</hAcc><vAcc>0.710910</vAcc></extensions></trkpt>
      <trkpt lon="-3.044093" lat="52.720164"><ele>284.212280</ele><time>2022-01-15T11:44:04Z</time><extensions><speed>1.155177</speed><course>355.186462</course><hAcc>1.809381</hAcc><vAcc>0.709282</vAcc></extensions></trkpt>
      <trkpt lon="-3.044094" lat="52.720174"><ele>284.299652</ele><time>2022-01-15T11:44:05Z</time><extensions><speed>1.162018</speed><course>356.151031</course><hAcc>1.793253</hAcc><vAcc>0.707763</vAcc></extensions></trkpt>
      <trkpt lon="-3.044095" lat="52.720184"><ele>284.382019</ele><time>2022-01-15T11:44:06Z</time><extensions><speed>1.139155</speed><course>357.948303</course><hAcc>1.794116</hAcc><vAcc>0.706430</vAcc></extensions></trkpt>
      <trkpt lon="-3.044096" lat="52.720195"><ele>284.465942</ele><time>2022-01-15T11:44:07Z</time><extensions><speed>1.159691</speed><course>358.039459</course><hAcc>1.791847</hAcc><vAcc>0.705326</vAcc></extensions></trkpt>
      <trkpt lon="-3.044097" lat="52.720205"><ele>284.543701</ele><time>2022-01-15T11:44:08Z</time><extensions><speed>1.175800</speed><course>356.744324</course><hAcc>1.798571</hAcc><vAcc>0.704515</vAcc></extensions></trkpt>
      <trkpt lon="-3.044098" lat="52.720216"><ele>284.631104</ele><time>2022-01-15T11:44:09Z</time><extensions><speed>1.144637</speed><course>354.986938</course><hAcc>1.809920</hAcc><vAcc>0.703979</vAcc></extensions></trkpt>
      <trkpt lon="-3.044100" lat="52.720226"><ele>284.726227</ele><time>2022-01-15T11:44:10Z</time><extensions><speed>1.067998</speed><course>353.359528</course><hAcc>1.813620</hAcc><vAcc>0.703720</vAcc></extensions></trkpt>
      <trkpt lon="-3.044101" lat="52.720235"><ele>284.809540</ele><time>2022-01-15T11:44:11Z</time><extensions><speed>1.049680</speed><course>352.393677</course><hAcc>1.803004</hAcc><vAcc>0.703778</vAcc></extensions></trkpt>
      <trkpt lon="-3.044104" lat="52.720244"><ele>284.891937</ele><time>2022-01-15T11:44:12Z</time><extensions><speed>1.059702</speed><course>352.869202</course><hAcc>1.809156</hAcc><vAcc>0.704070</vAcc></extensions></trkpt>
      <trkpt lon="-3.044105" lat="52.720254"><ele>284.955231</ele><time>2022-01-15T11:44:13Z</time><extensions><speed>1.090706</speed><course>354.812439</course><hAcc>1.810870</hAcc><vAcc>0.704684</vAcc></extensions></trkpt>
      <trkpt lon="-3.044107" lat="52.720264"><ele>285.044800</ele><time>2022-01-15T11:44:14Z</time><extensions><speed>1.087910</speed><course>356.096008</course><hAcc>1.800228</hAcc><vAcc>0.705557</vAcc></extensions></trkpt>
      <trkpt lon="-3.044108" lat="52.720273"><ele>285.130829</ele><time>2022-01-15T11:44:15Z</time><extensions><speed>1.049923</speed><course>356.399506</course><hAcc>1.800722</hAcc><vAcc>0.706698</vAcc></extensions></trkpt>
      <trkpt lon="-3.044109" lat="52.720283"><ele>285.201599</ele><time>2022-01-15T11:44:16Z</time><extensions><speed>1.008516</speed><course>355.480743</course><hAcc>1.818623</hAcc><vAcc>0.708088</vAcc></extensions></trkpt>
      <trkpt lon="-3.044110" lat="52.720291"><ele>285.288452</ele><time>2022-01-15T11:44:17Z</time><extensions><speed>0.960920</speed><course>355.319336</course><hAcc>1.836519</hAcc><vAcc>0.709617</vAcc></extensions></trkpt>
      <trkpt lon="-3.044111" lat="52.720300"><ele>285.364227</ele><time>2022-01-15T11:44:18Z</time><extensions><speed>0.900842</speed><course>355.793488</course><hAcc>1.838687</hAcc><vAcc>0.711194</vAcc></extensions></trkpt>
      <trkpt lon="-3.044112" lat="52.720308"><ele>285.443634</ele><time>2022-01-15T11:44:19Z</time><extensions><speed>0.911415</speed><course>356.027222</course><hAcc>1.830562</hAcc><vAcc>0.712716</vAcc></extensions></trkpt>
      <trkpt lon="-3.044113" lat="52.720316"><ele>285.518951</ele><time>2022-01-15T11:44:20Z</time><extensions><speed>0.868867</speed><course>355.676849</course><hAcc>1.831260</hAcc><vAcc>0.714149</vAcc></extensions></trkpt>
      <trkpt lon="-3.044114" lat="52.720324"><ele>285.602264</ele><time>2022-01-15T11:44:21Z</time><extensions><speed>0.806687</speed><course>354.952820</course><hAcc>1.829571</hAcc><vAcc>0.715412</vAcc></extensions></trkpt>
      <trkpt lon="-3.044115" lat="52.720331"><ele>285.680786</ele><time>2022-01-15T11:44:22Z</time><extensions><speed>0.798770</speed><course>355.161194</course><hAcc>1.824502</hAcc><vAcc>0.716599</vAcc></extensions></trkpt>
      <trkpt lon="-3.044116" lat="52.720338"><ele>285.754272</ele><time>2022-01-15T11:44:23Z</time><extensions><speed>0.849544</speed><course>355.940552</course><hAcc>1.816830</hAcc><vAcc>0.717719</vAcc></extensions></trkpt>
      <trkpt lon="-3.044117" lat="52.720346"><ele>285.837524</ele><time>2022-01-15T11:44:24Z</time><extensions><speed>0.872978</speed><course>358.011139</course><hAcc>1.822716</hAcc><vAcc>0.718749</vAcc></extensions></trkpt>
      <trkpt lon="-3.044117" lat="52.720354"><ele>285.911896</ele><time>2022-01-15T11:44:25Z</time><extensions><speed>0.895597</speed><course>359.070587</course><hAcc>1.835813</hAcc><vAcc>0.719640</vAcc></extensions></trkpt>
      <trkpt lon="-3.044117" lat="52.720362"><ele>285.977509</ele><time>2022-01-15T11:44:26Z</time><extensions><speed>0.857790</speed><course>359.167816</course><hAcc>1.858608</hAcc><vAcc>0.720430</vAcc></extensions></trkpt>
      <trkpt lon="-3.044117" lat="52.720370"><ele>286.061188</ele><time>2022-01-15T11:44:27Z</time><extensions><speed>0.931484</speed><course>358.553467</course><hAcc>1.829109</hAcc><vAcc>0.721233</vAcc></extensions></trkpt>
      <trkpt lon="-3.044118" lat="52.720378"><ele>286.134369</ele><time>2022-01-15T11:44:28Z</time><extensions><speed>0.957118</speed><course>354.840363</course><hAcc>1.809950</hAcc><vAcc>0.722051</vAcc></extensions></trkpt>
      <trkpt lon="-3.044120" lat="52.720387"><ele>286.209351</ele><time>2022-01-15T11:44:29Z</time><extensions><speed>0.976243</speed><course>350.829987</course><hAcc>1.812819</hAcc><vAcc>0.723018</vAcc></extensions></trkpt>
      <trkpt lon="-3.044123" lat="52.720395"><ele>286.277893</ele><time>2022-01-15T11:44:30Z</time><extensions><speed>1.018443</speed><course>344.523773</course><hAcc>1.824009</hAcc><vAcc>0.724141</vAcc></extensions></trkpt>
      <trkpt lon="-3.044128" lat="52.720404"><ele>286.333069</ele><time>2022-01-15T11:44:31Z</time><extensions><speed>1.054513</speed><course>338.880798</course><hAcc>1.832536</hAcc><vAcc>0.725489</vAcc></extensions></trkpt>
      <trkpt lon="-3.044135" lat="52.720413"><ele>286.404236</ele><time>2022-01-15T11:44:32Z</time><extensions><speed>1.055085</speed><course>334.087738</course><hAcc>1.838658</hAcc><vAcc>0.727011</vAcc></extensions></trkpt>
      <trkpt lon="-3.044142" lat="52.720421"><ele>286.462555</ele><time>2022-01-15T11:44:33Z</time><extensions><speed>0.959011</speed><course>326.736389</course><hAcc>1.838171</hAcc><vAcc>0.728665</vAcc></extensions></trkpt>
      <trkpt lon="-3.044151" lat="52.720427"><ele>286.523987</ele><time>2022-01-15T11:44:34Z</time><extensions><speed>0.918415</speed><course>317.664093</course><hAcc>1.829498</hAcc><vAcc>0.730454</vAcc></extensions></trkpt>
      <trkpt lon="-3.044160" lat="52.720433"><ele>286.587128</ele><time>2022-01-15T11:44:35Z</time><extensions><speed>0.951836</speed><course>312.095673</course><hAcc>1.816506</hAcc><vAcc>0.732395</vAcc></extensions></trkpt>
      <trkpt lon="-3.044171" lat="52.720439"><ele>286.649628</ele><time>2022-01-15T11:44:36Z</time><extensions><speed>0.985222</speed><course>310.730652</course><hAcc>1.808679</hAcc><vAcc>0.734500</vAcc></extensions></trkpt>
      <trkpt lon="-3.044183" lat="52.720445"><ele>286.690491</ele><time>2022-01-15T11:44:37Z</time><extensions><speed>1.031875</speed><course>309.352936</course><hAcc>1.801697</hAcc><vAcc>0.736737</vAcc></extensions></trkpt>
      <trkpt lon="-3.044195" lat="52.720450"><ele>286.726929</ele><time>2022-01-15T11:44:38Z</time><extensions><speed>1.082060</speed><course>306.031860</course><hAcc>1.793254</hAcc><vAcc>0.739063</vAcc></extensions></trkpt>
      <trkpt lon="-3.044209" lat="52.720456"><ele>286.772797</ele><time>2022-01-15T11:44:39Z</time><extensions><speed>1.179614</speed><course>302.562958</course><hAcc>1.789171</hAcc><vAcc>0.741438</vAcc></extensions></trkpt>
      <trkpt lon="-3.044225" lat="52.720461"><ele>286.812408</ele><time>2022-01-15T11:44:40Z</time><extensions><speed>1.194773</speed><course>296.210327</course><hAcc>1.766355</hAcc><vAcc>0.743829</vAcc></extensions></trkpt>
      <trkpt lon="-3.044241" lat="52.720466"><ele>286.837646</ele><time>2022-01-15T11:44:41Z</time><extensions><speed>1.187280</speed><course>292.052887</course><hAcc>1.764247</hAcc><vAcc>0.746264</vAcc></extensions></trkpt>
      <trkpt lon="-3.044257" lat="52.720469"><ele>286.850708</ele><time>2022-01-15T11:44:42Z</time><extensions><speed>1.135403</speed><course>291.670715</course><hAcc>1.789653</hAcc><vAcc>0.748719</vAcc></extensions></trkpt>
      <trkpt lon="-3.044272" lat="52.720473"><ele>286.884338</ele><time>2022-01-15T11:44:43Z</time><extensions><speed>1.037915</speed><course>290.333130</course><hAcc>1.792242</hAcc><vAcc>0.751221</vAcc></extensions></trkpt>
      <trkpt lon="-3.044286" lat="52.720476"><ele>286.908051</ele><time>2022-01-15T11:44:44Z</time><extensions><speed>1.078802</speed><course>288.072693</course><hAcc>1.772733</hAcc><vAcc>0.753748</vAcc></extensions></trkpt>
      <trkpt lon="-3.044302" lat="52.720479"><ele>286.941528</ele><time>2022-01-15T11:44:45Z</time><extensions><speed>1.095936</speed><course>287.636932</course><hAcc>1.769106</hAcc><vAcc>0.756172</vAcc></extensions></trkpt>
      <trkpt lon="-3.044317" lat="52.720482"><ele>286.971558</ele><time>2022-01-15T11:44:46Z</time><extensions><speed>1.122079</speed><course>288.168610</course><hAcc>1.777524</hAcc><vAcc>0.758317</vAcc></extensions></trkpt>
      <trkpt lon="-3.044334" lat="52.720485"><ele>287.009460</ele><time>2022-01-15T11:44:47Z</time><extensions><speed>1.167035</speed><course>288.697418</course><hAcc>1.785052</hAcc><vAcc>0.760059</vAcc></extensions></trkpt>
      <trkpt lon="-3.044350" lat="52.720489"><ele>287.039612</ele><time>2022-01-15T11:44:48Z</time><extensions><speed>1.148391</speed><course>288.674225</course><hAcc>1.787976</hAcc><vAcc>0.761247</vAcc></extensions></trkpt>
      <trkpt lon="-3.044366" lat="52.720492"><ele>287.092926</ele><time>2022-01-15T11:44:49Z</time><extensions><speed>1.122330</speed><course>289.548859</course><hAcc>1.784033</hAcc><vAcc>0.761921</vAcc></extensions></trkpt>
      <trkpt lon="-3.044381" lat="52.720496"><ele>287.131317</ele><time>2022-01-15T11:44:50Z</time><extensions><speed>1.085216</speed><course>292.639954</course><hAcc>1.779564</hAcc><vAcc>0.761958</vAcc></extensions></trkpt>
      <trkpt lon="-3.044396" lat="52.720500"><ele>287.179382</ele><time>2022-01-15T11:44:51Z</time><extensions><speed>1.125839</speed><course>297.435974</course><hAcc>1.771715</hAcc><vAcc>0.761418</vAcc></extensions></trkpt>
      <trkpt lon="-3.044411" lat="52.720505"><ele>287.244080</ele><time>2022-01-15T11:44:52Z</time><extensions><speed>1.135696</speed><course>299.511383</course><hAcc>1.766161</hAcc><vAcc>0.760246</vAcc></extensions></trkpt>
      <trkpt lon="-3.044426" lat="52.720509"><ele>287.308319</ele><time>2022-01-15T11:44:53Z</time><extensions><speed>1.129911</speed><course>298.087067</course><hAcc>1.759202</hAcc><vAcc>0.758469</vAcc></extensions></trkpt>
      <trkpt lon="-3.044441" lat="52.720514"><ele>287.382660</ele><time>2022-01-15T11:44:54Z</time><extensions><speed>1.110523</speed><course>296.684845</course><hAcc>1.769961</hAcc><vAcc>0.756250</vAcc></extensions></trkpt>
      <trkpt lon="-3.044455" lat="52.720518"><ele>287.453583</ele><time>2022-01-15T11:44:55Z</time><extensions><speed>1.103653</speed><course>294.846191</course><hAcc>1.779361</hAcc><vAcc>0.753669</vAcc></extensions></trkpt>
      <trkpt lon="-3.044471" lat="52.720522"><ele>287.547272</ele><time>2022-01-15T11:44:56Z</time><extensions><speed>1.142692</speed><course>293.981293</course><hAcc>1.790837</hAcc><vAcc>0.750824</vAcc></extensions></trkpt>
      <trkpt lon="-3.044487" lat="52.720527"><ele>287.636993</ele><time>2022-01-15T11:44:57Z</time><extensions><speed>1.209178</speed><course>291.307373</course><hAcc>1.787596</hAcc><vAcc>0.747917</vAcc></extensions></trkpt>
      <trkpt lon="-3.044504" lat="52.720530"><ele>287.749725</ele><time>2022-01-15T11:44:58Z</time><extensions><speed>1.255136</speed><course>288.538788</course><hAcc>1.806299</hAcc><vAcc>0.745027</vAcc></extensions></trkpt>
      <trkpt lon="-3.044522" lat="52.720534"><ele>287.870850</ele><time>2022-01-15T11:44:59Z</time><extensions><speed>1.291705</speed><course>285.718262</course><hAcc>1.834398</hAcc><vAcc>0.742121</vAcc></extensions></trkpt>
      <trkpt lon="-3.044541" lat="52.720537"><ele>287.985626</ele><time>2022-01-15T11:45:00Z</time><extensions><speed>1.357098</speed><course>284.197601</course><hAcc>1.849545</hAcc><vAcc>0.739272</vAcc></extensions></trkpt>
      <trkpt lon="-3.044561" lat="52.720540"><ele>288.097748</ele><time>2022-01-15T11:45:01Z</time><extensions><speed>1.374809</speed><course>284.693573</course><hAcc>1.864907</hAcc><vAcc>0.736529</vAcc></extensions></trkpt>
      <trkpt lon="-3.044580" lat="52.720543"><ele>288.240417</ele><time>2022-01-15T11:45:02Z</time><extensions><speed>1.290857</speed><course>285.585358</course><hAcc>1.879957</hAcc><vAcc>0.733930</vAcc></extensions></trkpt>
      <trkpt lon="-3.044597" lat="52.720546"><ele>288.403809</ele><time>2022-01-15T11:45:03Z</time><extensions><speed>1.212976</speed><course>288.699707</course><hAcc>1.894050</hAcc><vAcc>0.731607</vAcc></extensions></trkpt>
      <trkpt lon="-3.044614" lat="52.720550"><ele>288.554779</ele><time>2022-01-15T11:45:04Z</time><extensions><speed>1.183673</speed><course>292.553772</course><hAcc>1.898866</hAcc><vAcc>0.729641</vAcc></extensions></trkpt>
      <trkpt lon="-3.044630" lat="52.720554"><ele>288.703033</ele><time>2022-01-15T11:45:05Z</time><extensions><speed>1.193450</speed><course>295.149658</course><hAcc>1.885693</hAcc><vAcc>0.728043</vAcc></extensions></trkpt>
      <trkpt lon="-3.044645" lat="52.720559"><ele>288.873901</ele><time>2022-01-15T11:45:06Z</time><extensions><speed>1.120010</speed><course>297.066925</course><hAcc>1.871435</hAcc><vAcc>0.726847</vAcc></extensions></trkpt>
      <trkpt lon="-3.044660" lat="52.720564"><ele>289.050568</ele><time>2022-01-15T11:45:07Z</time><extensions><speed>1.064289</speed><course>299.519836</course><hAcc>1.864950</hAcc><vAcc>0.726108</vAcc></extensions></trkpt>
      <trkpt lon="-3.044673" lat="52.720568"><ele>289.218597</ele><time>2022-01-15T11:45:08Z</time><extensions><speed>1.040439</speed><course>299.687012</course><hAcc>1.862872</hAcc><vAcc>0.725712</vAcc></extensions></trkpt>
      <trkpt lon="-3.044686" lat="52.720573"><ele>289.392761</ele><time>2022-01-15T11:45:09Z</time><extensions><speed>0.974701</speed><course>300.089569</course><hAcc>1.841999</hAcc><vAcc>0.725609</vAcc></extensions></trkpt>
      <trkpt lon="-3.044699" lat="52.720577"><ele>289.581451</ele><time>2022-01-15T11:45:10Z</time><extensions><speed>0.967825</speed><course>300.170807</course><hAcc>1.836687</hAcc><vAcc>0.725662</vAcc></extensions></trkpt>
      <trkpt lon="-3.044711" lat="52.720582"><ele>289.785645</ele><time>2022-01-15T11:45:11Z</time><extensions><speed>0.968748</speed><course>301.941559</course><hAcc>1.840648</hAcc><vAcc>0.725794</vAcc></extensions></trkpt>
      <trkpt lon="-3.044723" lat="52.720586"><ele>289.976288</ele><time>2022-01-15T11:45:12Z</time><extensions><speed>0.958321</speed><course>303.988617</course><hAcc>1.823159</hAcc><vAcc>0.725942</vAcc></extensions></trkpt>
      <trkpt lon="-3.044735" lat="52.720591"><ele>290.175232</ele><time>2022-01-15T11:45:13Z</time><extensions><speed>0.935041</speed><course>306.543762</course><hAcc>1.818202</hAcc><vAcc>0.726016</vAcc></extensions></trkpt>
      <trkpt lon="-3.044746" lat="52.720596"><ele>290.383759</ele><time>2022-01-15T11:45:14Z</time><extensions><speed>0.967485</speed><course>307.619751</course><hAcc>1.808941</hAcc><vAcc>0.725793</vAcc></extensions></trkpt>
      <trkpt lon="-3.044758" lat="52.720602"><ele>290.592285</ele><time>2022-01-15T11:45:15Z</time><extensions><speed>1.002686</speed><course>307.561554</course><hAcc>1.807980</hAcc><vAcc>0.725185</vAcc></extensions></trkpt>
      <trkpt lon="-3.044770" lat="52.720607"><ele>290.798065</ele><time>2022-01-15T11:45:16Z</time><extensions><speed>1.025444</speed><course>306.241760</course><hAcc>1.814750</hAcc><vAcc>0.724109</vAcc></extensions></trkpt>
      <trkpt lon="-3.044782" lat="52.720613"><ele>290.991425</ele><time>2022-01-15T11:45:17Z</time><extensions><speed>1.065222</speed><course>304.961609</course><hAcc>1.818809</hAcc><vAcc>0.722524</vAcc></extensions></trkpt>
      <trkpt lon="-3.044796" lat="52.720618"><ele>291.199554</ele><time>2022-01-15T11:45:18Z</time><extensions><speed>1.094210</speed><course>302.533234</course><hAcc>1.819377</hAcc><vAcc>0.720466</vAcc></extensions></trkpt>
      <trkpt lon="-3.044810" lat="52.720623"><ele>291.411255</ele><time>2022-01-15T11:45:19Z</time><extensions><speed>1.101126</speed><course>298.947571</course><hAcc>1.823384</hAcc><vAcc>0.717959</vAcc></extensions></trkpt>
      <trkpt lon="-3.044824" lat="52.720628"><ele>291.622803</ele><time>2022-01-15T11:45:20Z</time><extensions><speed>1.093091</speed><course>294.834564</course><hAcc>1.827435</hAcc><vAcc>0.715188</vAcc></extensions></trkpt>
      <trkpt lon="-3.044839" lat="52.720631"><ele>291.840424</ele><time>2022-01-15T11:45:21Z</time><extensions><speed>1.102564</speed><course>292.171387</course><hAcc>1.831923</hAcc><vAcc>0.712355</vAcc></extensions></trkpt>
      <trkpt lon="-3.044854" lat="52.720635"><ele>292.051544</ele><time>2022-01-15T11:45:22Z</time><extensions><speed>1.111475</speed><course>290.650452</course><hAcc>1.841668</hAcc><vAcc>0.709705</vAcc></extensions></trkpt>
      <trkpt lon="-3.044870" lat="52.720639"><ele>292.259430</ele><time>2022-01-15T11:45:23Z</time><extensions><speed>1.072300</speed><course>290.707184</course><hAcc>1.853680</hAcc><vAcc>0.707354</vAcc></extensions></trkpt>
      <trkpt lon="-3.044884" lat="52.720642"><ele>292.463959</ele><time>2022-01-15T11:45:24Z</time><extensions><speed>1.024694</speed><course>290.610229</course><hAcc>1.846306</hAcc><vAcc>0.705343</vAcc></extensions></trkpt>
      <trkpt lon="-3.044898" lat="52.720645"><ele>292.667389</ele><time>2022-01-15T11:45:25Z</time><extensions><speed>0.961474</speed><course>292.849548</course><hAcc>1.840241</hAcc><vAcc>0.703710</vAcc></extensions></trkpt>
      <trkpt lon="-3.044910" lat="52.720649"><ele>292.874054</ele><time>2022-01-15T11:45:26Z</time><extensions><speed>0.917118</speed><course>296.947113</course><hAcc>1.842292</hAcc><vAcc>0.702499</vAcc></extensions></trkpt>
      <trkpt lon="-3.044922" lat="52.720653"><ele>293.082916</ele><time>2022-01-15T11:45:27Z</time><extensions><speed>0.896457</speed><course>301.224457</course><hAcc>1.847272</hAcc><vAcc>0.701538</vAcc></extensions></trkpt>
      <trkpt lon="-3.044933" lat="52.720657"><ele>293.292664</ele><time>2022-01-15T11:45:28Z</time><extensions><speed>0.838268</speed><course>303.112976</course><hAcc>1.849217</hAcc><vAcc>0.700767</vAcc></extensions></trkpt>
      <trkpt lon="-3.044943" lat="52.720661"><ele>293.500183</ele><time>2022-01-15T11:45:29Z</time><extensions><speed>0.796546</speed><course>302.596802</course><hAcc>1.847838</hAcc><vAcc>0.700067</vAcc></extensions></trkpt>
      <trkpt lon="-3.044952" lat="52.720665"><ele>293.687866</ele><time>2022-01-15T11:45:30Z</time><extensions><speed>0.750500</speed><course>303.398651</course><hAcc>1.843122</hAcc><vAcc>0.699378</vAcc></extensions></trkpt>
      <trkpt lon="-3.044962" lat="52.720668"><ele>293.888519</ele><time>2022-01-15T11:45:31Z</time><extensions><speed>0.741210</speed><course>305.160065</course><hAcc>1.854476</hAcc><vAcc>0.698796</vAcc></extensions></trkpt>
      <trkpt lon="-3.044971" lat="52.720672"><ele>294.093597</ele><time>2022-01-15T11:45:32Z</time><extensions><speed>0.761224</speed><course>306.159180</course><hAcc>1.882132</hAcc><vAcc>0.698365</vAcc></extensions></trkpt>
      <trkpt lon="-3.044979" lat="52.720676"><ele>294.281738</ele><time>2022-01-15T11:45:33Z</time><extensions><speed>0.702998</speed><course>306.881714</course><hAcc>1.880984</hAcc><vAcc>0.698135</vAcc></extensions></trkpt>
      <trkpt lon="-3.044987" lat="52.720680"><ele>294.484985</ele><time>2022-01-15T11:45:34Z</time><extensions><speed>0.592029</speed><course>306.942566</course><hAcc>1.871123</hAcc><vAcc>0.698145</vAcc></extensions></trkpt>
      <trkpt lon="-3.044993" lat="52.720683"><ele>294.683624</ele><time>2022-01-15T11:45:35Z</time><extensions><speed>0.498148</speed><course>304.966339</course><hAcc>1.873226</hAcc><vAcc>0.698392</vAcc></extensions></trkpt>
      <trkpt lon="-3.044999" lat="52.720685"><ele>294.870117</ele><time>2022-01-15T11:45:36Z</time><extensions><speed>0.477318</speed><course>301.508759</course><hAcc>1.891776</hAcc><vAcc>0.698807</vAcc></extensions></trkpt>
      <trkpt lon="-3.045005" lat="52.720687"><ele>295.075989</ele><time>2022-01-15T11:45:37Z</time><extensions><speed>0.446271</speed><course>301.387848</course><hAcc>1.898380</hAcc><vAcc>0.699309</vAcc></extensions></trkpt>
      <trkpt lon="-3.045011" lat="52.720689"><ele>295.275635</ele><time>2022-01-15T11:45:38Z</time><extensions><speed>0.449171</speed><course>304.930695</course><hAcc>1.894782</hAcc><vAcc>0.699753</vAcc></extensions></trkpt>
      <trkpt lon="-3.045017" lat="52.720692"><ele>295.498444</ele><time>2022-01-15T11:45:39Z</time><extensions><speed>0.518821</speed><course>306.958649</course><hAcc>1.893093</hAcc><vAcc>0.699943</vAcc></extensions></trkpt>
      <trkpt lon="-3.045023" lat="52.720695"><ele>295.704803</ele><time>2022-01-15T11:45:40Z</time><extensions><speed>0.600570</speed><course>306.939056</course><hAcc>1.901693</hAcc><vAcc>0.699771</vAcc></extensions></trkpt>
      <trkpt lon="-3.045031" lat="52.720698"><ele>295.926361</ele><time>2022-01-15T11:45:41Z</time><extensions><speed>0.636966</speed><course>306.546539</course><hAcc>1.911196</hAcc><vAcc>0.698980</vAcc></extensions></trkpt>
      <trkpt lon="-3.045038" lat="52.720702"><ele>296.149719</ele><time>2022-01-15T11:45:42Z</time><extensions><speed>0.627433</speed><course>306.350922</course><hAcc>1.909696</hAcc><vAcc>0.697416</vAcc></extensions></trkpt>
      <trkpt lon="-3.045046" lat="52.720705"><ele>296.359741</ele><time>2022-01-15T11:45:43Z</time><extensions><speed>0.612535</speed><course>306.568634</course><hAcc>1.895774</hAcc><vAcc>0.694956</vAcc></extensions></trkpt>
      <trkpt lon="-3.045053" lat="52.720708"><ele>296.595856</ele><time>2022-01-15T11:45:44Z</time><extensions><speed>0.586595</speed><course>306.716370</course><hAcc>1.886706</hAcc><vAcc>0.691689</vAcc></extensions></trkpt>
      <trkpt lon="-3.045060" lat="52.720712"><ele>296.817932</ele><time>2022-01-15T11:45:45Z</time><extensions><speed>0.623742</speed><course>308.293854</course><hAcc>1.871584</hAcc><vAcc>0.687748</vAcc></extensions></trkpt>
      <trkpt lon="-3.045067" lat="52.720715"><ele>297.060028</ele><time>2022-01-15T11:45:46Z</time><extensions><speed>0.659133</speed><course>309.612305</course><hAcc>1.864956</hAcc><vAcc>0.683299</vAcc></extensions></trkpt>
      <trkpt lon="-3.045075" lat="52.720719"><ele>297.295197</ele><time>2022-01-15T11:45:47Z</time><extensions><speed>0.681861</speed><course>308.904327</course><hAcc>1.889759</hAcc><vAcc>0.678551</vAcc></extensions></trkpt>
      <trkpt lon="-3.045083" lat="52.720723"><ele>297.547180</ele><time>2022-01-15T11:45:48Z</time><extensions><speed>0.727710</speed><course>308.052460</course><hAcc>1.924200</hAcc><vAcc>0.673731</vAcc></extensions></trkpt>
      <trkpt lon="-3.045091" lat="52.720727"><ele>297.809845</ele><time>2022-01-15T11:45:49Z</time><extensions><speed>0.747259</speed><course>312.028015</course><hAcc>1.895669</hAcc><vAcc>0.669077</vAcc></extensions></trkpt>
      <trkpt lon="-3.045099" lat="52.720732"><ele>298.079712</ele><time>2022-01-15T11:45:50Z</time><extensions><speed>0.725312</speed><course>314.325226</course><hAcc>1.871456</hAcc><vAcc>0.664819</vAcc></extensions></trkpt>
      <trkpt lon="-3.045107" lat="52.720736"><ele>298.353699</ele><time>2022-01-15T11:45:51Z</time><extensions><speed>0.650702</speed><course>314.502258</course><hAcc>1.870754</hAcc><vAcc>0.661149</vAcc></extensions></trkpt>
      <trkpt lon="-3.045113" lat="52.720740"><ele>298.634583</ele><time>2022-01-15T11:45:52Z</time><extensions><speed>0.516871</speed><course>311.597107</course><hAcc>1.891147</hAcc><vAcc>0.658268</vAcc></extensions></trkpt>
      <trkpt lon="-3.045120" lat="52.720743"><ele>298.918854</ele><time>2022-01-15T11:45:53Z</time><extensions><speed>0.634713</speed><course>305.568817</course><hAcc>1.888522</hAcc><vAcc>0.656234</vAcc></extensions></trkpt>
      <trkpt lon="-3.045127" lat="52.720746"><ele>299.198517</ele><time>2022-01-15T11:45:54Z</time><extensions><speed>0.642871</speed><course>299.312225</course><hAcc>1.904827</hAcc><vAcc>0.654967</vAcc></extensions></trkpt>
      <trkpt lon="-3.045136" lat="52.720749"><ele>299.490601</ele><time>2022-01-15T11:45:55Z</time><extensions><speed>0.664595</speed><course>298.200714</course><hAcc>1.892344</hAcc><vAcc>0.654042</vAcc></extensions></trkpt>
      <trkpt lon="-3.045145" lat="52.720751"><ele>299.784790</ele><time>2022-01-15T11:45:56Z</time><extensions><speed>0.646435</speed><course>294.266968</course><hAcc>1.887733</hAcc><vAcc>0.652991</vAcc></extensions></trkpt>
      <trkpt lon="-3.045153" lat="52.720754"><ele>300.085419</ele><time>2022-01-15T11:45:57Z</time><extensions><speed>0.590941</speed><course>292.763092</course><hAcc>1.887828</hAcc><vAcc>0.651359</vAcc></extensions></trkpt>
      <trkpt lon="-3.045160" lat="52.720756"><ele>300.386841</ele><time>2022-01-15T11:45:58Z</time><extensions><speed>0.513391</speed><course>292.088776</course><hAcc>1.888274</hAcc><vAcc>0.648775</vAcc></extensions></trkpt>
      <trkpt lon="-3.045167" lat="52.720757"><ele>300.686676</ele><time>2022-01-15T11:45:59Z</time><extensions><speed>0.461906</speed><course>296.223053</course><hAcc>1.887042</hAcc><vAcc>0.644987</vAcc></extensions></trkpt>
      <trkpt lon="-3.045173" lat="52.720759"><ele>300.989044</ele><time>2022-01-15T11:46:00Z</time><extensions><speed>0.448489</speed><course>303.578674</course><hAcc>1.878153</hAcc><vAcc>0.639834</vAcc></extensions></trkpt>
      <trkpt lon="-3.045178" lat="52.720762"><ele>301.284668</ele><time>2022-01-15T11:46:01Z</time><extensions><speed>0.497726</speed><course>309.304352</course><hAcc>1.890586</hAcc><vAcc>0.633233</vAcc></extensions></trkpt>
      <trkpt lon="-3.045184" lat="52.720765"><ele>301.576752</ele><time>2022-01-15T11:46:02Z</time><extensions><speed>0.549418</speed><course>312.154297</course><hAcc>1.928493</hAcc><vAcc>0.625145</vAcc></extensions></trkpt>
      <trkpt lon="-3.045190" lat="52.720769"><ele>301.866638</ele><time>2022-01-15T11:46:03Z</time><extensions><speed>0.576166</speed><course>316.916656</course><hAcc>1.928477</hAcc><vAcc>0.615535</vAcc></extensions></trkpt>
      <trkpt lon="-3.045196" lat="52.720773"><ele>302.154633</ele><time>2022-01-15T11:46:04Z</time><extensions><speed>0.608818</speed><course>319.826050</course><hAcc>1.934762</hAcc><vAcc>0.604401</vAcc></extensions></trkpt>
      <trkpt lon="-3.045202" lat="52.720777"><ele>302.442169</ele><time>2022-01-15T11:46:05Z</time><extensions><speed>0.628769</speed><course>320.925781</course><hAcc>1.955896</hAcc><vAcc>0.591797</vAcc></extensions></trkpt>
      <trkpt lon="-3.045208" lat="52.720781"><ele>302.722412</ele><time>2022-01-15T11:46:06Z</time><extensions><speed>0.626555</speed><course>321.211975</course><hAcc>1.984251</hAcc><vAcc>0.577848</vAcc></extensions></trkpt>
      <trkpt lon="-3.045214" lat="52.720786"><ele>303.004211</ele><time>2022-01-15T11:46:07Z</time><extensions><speed>0.608978</speed><course>321.481415</course><hAcc>2.011128</hAcc><vAcc>0.562725</vAcc></extensions></trkpt>
      <trkpt lon="-3.045219" lat="52.720790"><ele>303.264099</ele><time>2022-01-15T11:46:08Z</time><extensions><speed>0.598449</speed><course>320.016846</course><hAcc>2.042769</hAcc><vAcc>0.546655</vAcc></extensions></trkpt>
      <trkpt lon="-3.045225" lat="52.720794"><ele>303.528137</ele><time>2022-01-15T11:46:09Z</time><extensions><speed>0.605307</speed><course>318.408203</course><hAcc>2.078026</hAcc><vAcc>0.529807</vAcc></extensions></trkpt>
      <trkpt lon="-3.045231" lat="52.720798"><ele>303.785034</ele><time>2022-01-15T11:46:10Z</time><extensions><speed>0.599906</speed><course>318.468658</course><hAcc>2.108293</hAcc><vAcc>0.512850</vAcc></extensions></trkpt>
      <trkpt lon="-3.045237" lat="52.720802"><ele>304.039307</ele><time>2022-01-15T11:46:11Z</time><extensions><speed>0.595298</speed><course>320.139221</course><hAcc>2.127479</hAcc><vAcc>0.496312</vAcc></extensions></trkpt>
      <trkpt lon="-3.045242" lat="52.720806"><ele>304.289703</ele><time>2022-01-15T11:46:12Z</time><extensions><speed>0.552099</speed><course>323.137451</course><hAcc>2.142865</hAcc><vAcc>0.480902</vAcc></extensions></trkpt>
      <trkpt lon="-3.045247" lat="52.720810"><ele>304.519165</ele><time>2022-01-15T11:46:13Z</time><extensions><speed>0.489368</speed><course>327.322296</course><hAcc>2.164744</hAcc><vAcc>0.467254</vAcc></extensions></trkpt>
      <trkpt lon="-3.045250" lat="52.720813"><ele>304.766724</ele><time>2022-01-15T11:46:14Z</time><extensions><speed>0.355355</speed><course>332.695435</course><hAcc>2.193528</hAcc><vAcc>0.455900</vAcc></extensions></trkpt>
      <trkpt lon="-3.045252" lat="52.720816"><ele>305.010223</ele><time>2022-01-15T11:46:15Z</time><extensions><speed>0.347704</speed><course>333.002869</course><hAcc>2.200635</hAcc><vAcc>0.447199</vAcc></extensions></trkpt>
      <trkpt lon="-3.045255" lat="52.720819"><ele>305.265656</ele><time>2022-01-15T11:46:16Z</time><extensions><speed>0.391690</speed><course>328.728851</course><hAcc>2.202628</hAcc><vAcc>0.441195</vAcc></extensions></trkpt>
      <trkpt lon="-3.045259" lat="52.720822"><ele>305.527893</ele><time>2022-01-15T11:46:17Z</time><extensions><speed>0.498750</speed><course>321.668365</course><hAcc>2.198428</hAcc><vAcc>0.437475</vAcc></extensions></trkpt>
      <trkpt lon="-3.045265" lat="52.720826"><ele>305.784393</ele><time>2022-01-15T11:46:18Z</time><extensions><speed>0.698982</speed><course>313.879852</course><hAcc>2.187136</hAcc><vAcc>0.435399</vAcc></extensions></trkpt>
      <trkpt lon="-3.045273" lat="52.720831"><ele>306.039948</ele><time>2022-01-15T11:46:19Z</time><extensions><speed>0.803734</speed><course>308.290649</course><hAcc>2.181525</hAcc><vAcc>0.434410</vAcc></extensions></trkpt>
      <trkpt lon="-3.045283" lat="52.720835"><ele>306.291748</ele><time>2022-01-15T11:46:20Z</time><extensions><speed>0.841656</speed><course>302.232300</course><hAcc>2.177132</hAcc><vAcc>0.434242</vAcc></extensions></trkpt>
      <trkpt lon="-3.045294" lat="52.720839"><ele>306.540710</ele><time>2022-01-15T11:46:21Z</time><extensions><speed>0.861313</speed><course>295.521942</course><hAcc>2.177770</hAcc><vAcc>0.434980</vAcc></extensions></trkpt>
      <trkpt lon="-3.045306" lat="52.720842"><ele>306.779480</ele><time>2022-01-15T11:46:22Z</time><extensions><speed>0.849057</speed><course>289.658173</course><hAcc>2.194008</hAcc><vAcc>0.436860</vAcc></extensions></trkpt>
      <trkpt lon="-3.045318" lat="52.720844"><ele>307.017822</ele><time>2022-01-15T11:46:23Z</time><extensions><speed>0.830431</speed><course>286.150970</course><hAcc>2.213215</hAcc><vAcc>0.440165</vAcc></extensions></trkpt>
      <trkpt lon="-3.045330" lat="52.720846"><ele>307.242767</ele><time>2022-01-15T11:46:24Z</time><extensions><speed>0.818186</speed><course>283.848236</course><hAcc>2.188545</hAcc><vAcc>0.445136</vAcc></extensions></trkpt>
      <trkpt lon="-3.045341" lat="52.720847"><ele>307.455231</ele><time>2022-01-15T11:46:25Z</time><extensions><speed>0.802245</speed><course>282.157227</course><hAcc>2.160770</hAcc><vAcc>0.451918</vAcc></extensions></trkpt>
      <trkpt lon="-3.045353" lat="52.720849"><ele>307.650482</ele><time>2022-01-15T11:46:26Z</time><extensions><speed>0.795797</speed><course>280.622131</course><hAcc>2.144461</hAcc><vAcc>0.460410</vAcc></extensions></trkpt>
      <trkpt lon="-3.045365" lat="52.720850"><ele>307.835999</ele><time>2022-01-15T11:46:27Z</time><extensions><speed>0.785876</speed><course>279.411926</course><hAcc>2.139440</hAcc><vAcc>0.470151</vAcc></extensions></trkpt>
      <trkpt lon="-3.045376" lat="52.720851"><ele>308.007202</ele><time>2022-01-15T11:46:28Z</time><extensions><speed>0.748044</speed><course>277.949524</course><hAcc>2.131428</hAcc><vAcc>0.480376</vAcc></extensions></trkpt>
      <trkpt lon="-3.045387" lat="52.720852"><ele>308.161804</ele><time>2022-01-15T11:46:29Z</time><extensions><speed>0.725100</speed><course>276.967957</course><hAcc>2.109796</hAcc><vAcc>0.490200</vAcc></extensions></trkpt>
      <trkpt lon="-3.045397" lat="52.720853"><ele>308.301971</ele><time>2022-01-15T11:46:30Z</time><extensions><speed>0.684921</speed><course>277.095032</course><hAcc>2.085086</hAcc><vAcc>0.498811</vAcc></extensions></trkpt>
      <trkpt lon="-3.045407" lat="52.720853"><ele>308.426483</ele><time>2022-01-15T11:46:31Z</time><extensions><speed>0.645759</speed><course>275.524170</course><hAcc>2.073915</hAcc><vAcc>0.505665</vAcc></extensions></trkpt>
      <trkpt lon="-3.045416" lat="52.720854"><ele>308.533417</ele><time>2022-01-15T11:46:32Z</time><extensions><speed>0.615815</speed><course>272.768524</course><hAcc>2.085456</hAcc><vAcc>0.510584</vAcc></extensions></trkpt>
      <trkpt lon="-3.045426" lat="52.720854"><ele>308.622437</ele><time>2022-01-15T11:46:33Z</time><extensions><speed>0.712765</speed><course>268.182953</course><hAcc>2.082995</hAcc><vAcc>0.513703</vAcc></extensions></trkpt>
      <trkpt lon="-3.045438" lat="52.720853"><ele>308.688599</ele><time>2022-01-15T11:46:34Z</time><extensions><speed>0.815581</speed><course>264.822510</course><hAcc>2.094754</hAcc><vAcc>0.515353</vAcc></extensions></trkpt>
      <trkpt lon="-3.045450" lat="52.720852"><ele>308.734039</ele><time>2022-01-15T11:46:35Z</time><extensions><speed>0.913701</speed><course>258.750610</course><hAcc>2.099634</hAcc><vAcc>0.515929</vAcc></extensions></trkpt>
      <trkpt lon="-3.045464" lat="52.720850"><ele>308.758759</ele><time>2022-01-15T11:46:36Z</time><extensions><speed>0.975039</speed><course>250.184662</course><hAcc>2.105199</hAcc><vAcc>0.515808</vAcc></extensions></trkpt>
      <trkpt lon="-3.045477" lat="52.720846"><ele>308.765045</ele><time>2022-01-15T11:46:37Z</time><extensions><speed>0.971249</speed><course>242.533615</course><hAcc>2.117689</hAcc><vAcc>0.515299</vAcc></extensions></trkpt>
      <trkpt lon="-3.045489" lat="52.720842"><ele>308.756195</ele><time>2022-01-15T11:46:38Z</time><extensions><speed>0.955149</speed><course>236.090897</course><hAcc>2.120972</hAcc><vAcc>0.514630</vAcc></extensions></trkpt>
      <trkpt lon="-3.045501" lat="52.720837"><ele>308.739899</ele><time>2022-01-15T11:46:39Z</time><extensions><speed>0.923729</speed><course>231.303436</course><hAcc>2.124974</hAcc><vAcc>0.513966</vAcc></extensions></trkpt>
      <trkpt lon="-3.045510" lat="52.720832"><ele>308.714996</ele><time>2022-01-15T11:46:40Z</time><extensions><speed>0.808867</speed><course>228.885391</course><hAcc>2.139831</hAcc><vAcc>0.513440</vAcc></extensions></trkpt>
      <trkpt lon="-3.045520" lat="52.720827"><ele>308.685211</ele><time>2022-01-15T11:46:41Z</time><extensions><speed>0.780316</speed><course>232.174805</course><hAcc>2.145777</hAcc><vAcc>0.513152</vAcc></extensions></trkpt>
      <trkpt lon="-3.045530" lat="52.720823"><ele>308.656769</ele><time>2022-01-15T11:46:42Z</time><extensions><speed>0.856303</speed><course>239.006256</course><hAcc>2.132503</hAcc><vAcc>0.513162</vAcc></extensions></trkpt>
      <trkpt lon="-3.045542" lat="52.720819"><ele>308.632446</ele><time>2022-01-15T11:46:43Z</time><extensions><speed>1.045271</speed><course>246.102417</course><hAcc>2.108282</hAcc><vAcc>0.513528</vAcc></extensions></trkpt>
      <trkpt lon="-3.045557" lat="52.720816"><ele>308.618652</ele><time>2022-01-15T11:46:44Z</time><extensions><speed>1.112022</speed><course>250.742447</course><hAcc>2.099426</hAcc><vAcc>0.514325</vAcc></extensions></trkpt>
      <trkpt lon="-3.045573" lat="52.720813"><ele>308.625122</ele><time>2022-01-15T11:46:45Z</time><extensions><speed>1.154202</speed><course>254.889633</course><hAcc>2.092451</hAcc><vAcc>0.515578</vAcc></extensions></trkpt>
      <trkpt lon="-3.045590" lat="52.720810"><ele>308.650940</ele><time>2022-01-15T11:46:46Z</time><extensions><speed>1.177977</speed><course>258.001801</course><hAcc>2.089310</hAcc><vAcc>0.517229</vAcc></extensions></trkpt>
      <trkpt lon="-3.045607" lat="52.720808"><ele>308.691376</ele><time>2022-01-15T11:46:47Z</time><extensions><speed>1.141760</speed><course>259.951996</course><hAcc>2.089644</hAcc><vAcc>0.519149</vAcc></extensions></trkpt>
      <trkpt lon="-3.045623" lat="52.720806"><ele>308.747040</ele><time>2022-01-15T11:46:48Z</time><extensions><speed>1.072106</speed><course>260.998138</course><hAcc>2.090114</hAcc><vAcc>0.521089</vAcc></extensions></trkpt>
      <trkpt lon="-3.045639" lat="52.720805"><ele>308.818542</ele><time>2022-01-15T11:46:49Z</time><extensions><speed>0.990686</speed><course>263.552185</course><hAcc>2.086539</hAcc><vAcc>0.522738</vAcc></extensions></trkpt>
      <trkpt lon="-3.045653" lat="52.720804"><ele>308.905823</ele><time>2022-01-15T11:46:50Z</time><extensions><speed>0.954840</speed><course>266.364746</course><hAcc>2.071778</hAcc><vAcc>0.523852</vAcc></extensions></trkpt>
      <trkpt lon="-3.045667" lat="52.720804"><ele>309.001007</ele><time>2022-01-15T11:46:51Z</time><extensions><speed>0.890119</speed><course>269.776672</course><hAcc>2.070589</hAcc><vAcc>0.524358</vAcc></extensions></trkpt>
      <trkpt lon="-3.045679" lat="52.720804"><ele>309.101471</ele><time>2022-01-15T11:46:52Z</time><extensions><speed>0.800721</speed><course>273.010040</course><hAcc>2.092505</hAcc><vAcc>0.524298</vAcc></extensions></trkpt>
      <trkpt lon="-3.045690" lat="52.720805"><ele>309.200165</ele><time>2022-01-15T11:46:53Z</time><extensions><speed>0.699663</speed><course>275.374908</course><hAcc>2.119749</hAcc><vAcc>0.523700</vAcc></extensions></trkpt>
      <trkpt lon="-3.045701" lat="52.720806"><ele>309.273407</ele><time>2022-01-15T11:46:54Z</time><extensions><speed>0.767709</speed><course>275.906128</course><hAcc>2.125293</hAcc><vAcc>0.522413</vAcc></extensions></trkpt>
      <trkpt lon="-3.045712" lat="52.720806"><ele>309.352966</ele><time>2022-01-15T11:46:55Z</time><extensions><speed>0.741660</speed><course>276.029877</course><hAcc>2.134511</hAcc><vAcc>0.520159</vAcc></extensions></trkpt>
      <trkpt lon="-3.045722" lat="52.720807"><ele>309.427582</ele><time>2022-01-15T11:46:56Z</time><extensions><speed>0.636336</speed><course>274.252899</course><hAcc>2.133027</hAcc><vAcc>0.516487</vAcc></extensions></trkpt>
      <trkpt lon="-3.045730" lat="52.720807"><ele>309.490204</ele><time>2022-01-15T11:46:57Z</time><extensions><speed>0.425115</speed><course>272.846802</course><hAcc>2.141038</hAcc><vAcc>0.510917</vAcc></extensions></trkpt>
      <trkpt lon="-3.045736" lat="52.720807"><ele>309.553558</ele><time>2022-01-15T11:46:58Z</time><extensions><speed>0.301232</speed><course>274.151428</course><hAcc>2.147538</hAcc><vAcc>0.502920</vAcc></extensions></trkpt>
      <trkpt lon="-3.045740" lat="52.720808"><ele>309.616760</ele><time>2022-01-15T11:46:59Z</time><extensions><speed>0.225785</speed><course>280.365814</course><hAcc>2.161282</hAcc><vAcc>0.492410</vAcc></extensions></trkpt>
      <trkpt lon="-3.045743" lat="52.720808"><ele>309.693420</ele><time>2022-01-15T11:47:00Z</time><extensions><speed>0.203321</speed><course>286.535828</course><hAcc>2.182623</hAcc><vAcc>0.479708</vAcc></extensions></trkpt>
      <trkpt lon="-3.045746" lat="52.720809"><ele>309.794617</ele><time>2022-01-15T11:47:01Z</time><extensions><speed>0.241340</speed><course>285.274872</course><hAcc>2.210586</hAcc><vAcc>0.465515</vAcc></extensions></trkpt>
      <trkpt lon="-3.045751" lat="52.720809"><ele>309.889618</ele><time>2022-01-15T11:47:02Z</time><extensions><speed>0.324977</speed><course>279.853729</course><hAcc>2.260302</hAcc><vAcc>0.451229</vAcc></extensions></trkpt>
      <trkpt lon="-3.045756" lat="52.720809"><ele>310.000092</ele><time>2022-01-15T11:47:03Z</time><extensions><speed>0.445134</speed><course>274.122894</course><hAcc>2.320930</hAcc><vAcc>0.438327</vAcc></extensions></trkpt>
      <trkpt lon="-3.045765" lat="52.720810"><ele>310.127899</ele><time>2022-01-15T11:47:04Z</time><extensions><speed>0.677449</speed><course>269.825134</course><hAcc>2.352710</hAcc><vAcc>0.428339</vAcc></extensions></trkpt>
      <trkpt lon="-3.045777" lat="52.720810"><ele>310.279022</ele><time>2022-01-15T11:47:05Z</time><extensions><speed>0.894758</speed><course>269.261566</course><hAcc>2.359670</hAcc><vAcc>0.422159</vAcc></extensions></trkpt>
      <trkpt lon="-3.045791" lat="52.720809"><ele>310.428772</ele><time>2022-01-15T11:47:06Z</time><extensions><speed>1.019350</speed><course>267.679596</course><hAcc>2.372242</hAcc><vAcc>0.419648</vAcc></extensions></trkpt>
      <trkpt lon="-3.045807" lat="52.720809"><ele>310.603210</ele><time>2022-01-15T11:47:07Z</time><extensions><speed>1.077646</speed><course>265.313263</course><hAcc>2.390066</hAcc><vAcc>0.419822</vAcc></extensions></trkpt>
      <trkpt lon="-3.045823" lat="52.720808"><ele>310.772034</ele><time>2022-01-15T11:47:08Z</time><extensions><speed>1.121428</speed><course>263.990997</course><hAcc>2.397148</hAcc><vAcc>0.421526</vAcc></extensions></trkpt>
      <trkpt lon="-3.045840" lat="52.720807"><ele>310.948273</ele><time>2022-01-15T11:47:09Z</time><extensions><speed>1.124719</speed><course>263.268646</course><hAcc>2.391925</hAcc><vAcc>0.423821</vAcc></extensions></trkpt>
      <trkpt lon="-3.045857" lat="52.720806"><ele>311.119751</ele><time>2022-01-15T11:47:10Z</time><extensions><speed>1.150102</speed><course>264.317719</course><hAcc>2.369195</hAcc><vAcc>0.426386</vAcc></extensions></trkpt>
      <trkpt lon="-3.045874" lat="52.720805"><ele>311.296051</ele><time>2022-01-15T11:47:11Z</time><extensions><speed>1.173769</speed><course>266.026245</course><hAcc>2.337358</hAcc><vAcc>0.429367</vAcc></extensions></trkpt>
      <trkpt lon="-3.045891" lat="52.720804"><ele>311.481812</ele><time>2022-01-15T11:47:12Z</time><extensions><speed>1.148059</speed><course>267.363647</course><hAcc>2.308029</hAcc><vAcc>0.432913</vAcc></extensions></trkpt>
      <trkpt lon="-3.045908" lat="52.720804"><ele>311.664886</ele><time>2022-01-15T11:47:13Z</time><extensions><speed>1.046197</speed><course>266.118408</course><hAcc>2.277048</hAcc><vAcc>0.436974</vAcc></extensions></trkpt>
      <trkpt lon="-3.045922" lat="52.720803"><ele>311.852814</ele><time>2022-01-15T11:47:14Z</time><extensions><speed>0.872041</speed><course>264.821472</course><hAcc>2.260773</hAcc><vAcc>0.441457</vAcc></extensions></trkpt>
      <trkpt lon="-3.045934" lat="52.720802"><ele>312.044189</ele><time>2022-01-15T11:47:15Z</time><extensions><speed>0.639183</speed><course>263.826538</course><hAcc>2.257303</hAcc><vAcc>0.446446</vAcc></extensions></trkpt>
      <trkpt lon="-3.045944" lat="52.720801"><ele>312.234650</ele><time>2022-01-15T11:47:16Z</time><extensions><speed>0.781228</speed><course>263.438721</course><hAcc>2.203125</hAcc><vAcc>0.452187</vAcc></extensions></trkpt>
      <trkpt lon="-3.045957" lat="52.720801"><ele>312.421417</ele><time>2022-01-15T11:47:17Z</time><extensions><speed>0.965534</speed><course>263.471832</course><hAcc>2.159184</hAcc><vAcc>0.458903</vAcc></extensions></trkpt>
      <trkpt lon="-3.045972" lat="52.720800"><ele>312.611023</ele><time>2022-01-15T11:47:18Z</time><extensions><speed>1.000568</speed><course>265.018890</course><hAcc>2.151166</hAcc><vAcc>0.466639</vAcc></extensions></trkpt>
      <trkpt lon="-3.045987" lat="52.720799"><ele>312.802002</ele><time>2022-01-15T11:47:19Z</time><extensions><speed>0.986815</speed><course>266.348206</course><hAcc>2.128253</hAcc><vAcc>0.475183</vAcc></extensions></trkpt>
      <trkpt lon="-3.046000" lat="52.720798"><ele>312.989777</ele><time>2022-01-15T11:47:20Z</time><extensions><speed>0.895009</speed><course>266.762878</course><hAcc>2.110897</hAcc><vAcc>0.484169</vAcc></extensions></trkpt>
      <trkpt lon="-3.046013" lat="52.720798"><ele>313.177338</ele><time>2022-01-15T11:47:21Z</time><extensions><speed>0.782551</speed><course>267.655884</course><hAcc>2.119808</hAcc><vAcc>0.493199</vAcc></extensions></trkpt>
      <trkpt lon="-3.046023" lat="52.720798"><ele>313.364288</ele><time>2022-01-15T11:47:22Z</time><extensions><speed>0.640151</speed><course>268.014252</course><hAcc>2.139056</hAcc><vAcc>0.501897</vAcc></extensions></trkpt>
      <trkpt lon="-3.046034" lat="52.720798"><ele>313.545288</ele><time>2022-01-15T11:47:23Z</time><extensions><speed>0.811507</speed><course>266.983429</course><hAcc>2.112673</hAcc><vAcc>0.509966</vAcc></extensions></trkpt>
      <trkpt lon="-3.046048" lat="52.720797"><ele>313.722076</ele><time>2022-01-15T11:47:24Z</time><extensions><speed>0.996982</speed><course>264.610535</course><hAcc>2.079093</hAcc><vAcc>0.517220</vAcc></extensions></trkpt>
      <trkpt lon="-3.046063" lat="52.720796"><ele>313.895813</ele><time>2022-01-15T11:47:25Z</time><extensions><speed>1.036782</speed><course>263.332886</course><hAcc>2.071609</hAcc><vAcc>0.523539</vAcc></extensions></trkpt>
      <trkpt lon="-3.046078" lat="52.720795"><ele>314.068909</ele><time>2022-01-15T11:47:26Z</time><extensions><speed>1.033847</speed><course>262.580200</course><hAcc>2.078411</hAcc><vAcc>0.528865</vAcc></extensions></trkpt>
      <trkpt lon="-3.046093" lat="52.720794"><ele>314.239716</ele><time>2022-01-15T11:47:27Z</time><extensions><speed>0.993187</speed><course>261.739929</course><hAcc>2.096858</hAcc><vAcc>0.533219</vAcc></extensions></trkpt>
      <trkpt lon="-3.046107" lat="52.720792"><ele>314.403168</ele><time>2022-01-15T11:47:28Z</time><extensions><speed>0.926254</speed><course>261.273621</course><hAcc>2.106964</hAcc><vAcc>0.536683</vAcc></extensions></trkpt>
      <trkpt lon="-3.046120" lat="52.720791"><ele>314.559906</ele><time>2022-01-15T11:47:29Z</time><extensions><speed>0.886200</speed><course>262.215851</course><hAcc>2.086567</hAcc><vAcc>0.539376</vAcc></extensions></trkpt>
      <trkpt lon="-3.046133" lat="52.720790"><ele>314.712006</ele><time>2022-01-15T11:47:30Z</time><extensions><speed>0.862412</speed><course>263.814575</course><hAcc>2.077996</hAcc><vAcc>0.541455</vAcc></extensions></trkpt>
      <trkpt lon="-3.046146" lat="52.720790"><ele>314.859009</ele><time>2022-01-15T11:47:31Z</time><extensions><speed>0.855866</speed><course>265.247375</course><hAcc>2.086671</hAcc><vAcc>0.543121</vAcc></extensions></trkpt>
      <trkpt lon="-3.046158" lat="52.720789"><ele>314.997253</ele><time>2022-01-15T11:47:32Z</time><extensions><speed>0.840590</speed><course>266.726532</course><hAcc>2.086306</hAcc><vAcc>0.544537</vAcc></extensions></trkpt>
      <trkpt lon="-3.046170" lat="52.720789"><ele>315.124634</ele><time>2022-01-15T11:47:33Z</time><extensions><speed>0.804711</speed><course>268.513824</course><hAcc>2.077384</hAcc><vAcc>0.545782</vAcc></extensions></trkpt>
      <trkpt lon="-3.046182" lat="52.720789"><ele>315.248413</ele><time>2022-01-15T11:47:34Z</time><extensions><speed>0.757534</speed><course>268.789093</course><hAcc>2.073325</hAcc><vAcc>0.546887</vAcc></extensions></trkpt>
      <trkpt lon="-3.046193" lat="52.720788"><ele>315.371643</ele><time>2022-01-15T11:47:35Z</time><extensions><speed>0.709258</speed><course>268.964569</course><hAcc>2.074694</hAcc><vAcc>0.547900</vAcc></extensions></trkpt>
      <trkpt lon="-3.046203" lat="52.720788"><ele>315.495850</ele><time>2022-01-15T11:47:36Z</time><extensions><speed>0.668407</speed><course>269.390564</course><hAcc>2.075781</hAcc><vAcc>0.548937</vAcc></extensions></trkpt>
      <trkpt lon="-3.046213" lat="52.720788"><ele>315.613953</ele><time>2022-01-15T11:47:37Z</time><extensions><speed>0.679807</speed><course>270.415710</course><hAcc>2.066758</hAcc><vAcc>0.550177</vAcc></extensions></trkpt>
      <trkpt lon="-3.046223" lat="52.720788"><ele>315.726807</ele><time>2022-01-15T11:47:38Z</time><extensions><speed>0.670992</speed><course>271.399261</course><hAcc>2.060298</hAcc><vAcc>0.551803</vAcc></extensions></trkpt>
      <trkpt lon="-3.046233" lat="52.720789"><ele>315.834625</ele><time>2022-01-15T11:47:39Z</time><extensions><speed>0.651966</speed><course>272.002380</course><hAcc>2.060134</hAcc><vAcc>0.553894</vAcc></extensions></trkpt>
      <trkpt lon="-3.046243" lat="52.720789"><ele>315.944153</ele><time>2022-01-15T11:47:40Z</time><extensions><speed>0.630731</speed><course>273.199799</course><hAcc>2.052025</hAcc><vAcc>0.556343</vAcc></extensions></trkpt>
      <trkpt lon="-3.046252" lat="52.720789"><ele>316.052124</ele><time>2022-01-15T11:47:41Z</time><extensions><speed>0.640448</speed><course>272.931000</course><hAcc>2.031829</hAcc><vAcc>0.558878</vAcc></extensions></trkpt>
      <trkpt lon="-3.046262" lat="52.720789"><ele>316.161163</ele><time>2022-01-15T11:47:42Z</time><extensions><speed>0.664718</speed><course>269.928131</course><hAcc>2.014478</hAcc><vAcc>0.561168</vAcc></extensions></trkpt>
      <trkpt lon="-3.046272" lat="52.720789"><ele>316.265320</ele><time>2022-01-15T11:47:43Z</time><extensions><speed>0.696285</speed><course>264.200348</course><hAcc>2.001458</hAcc><vAcc>0.562919</vAcc></extensions></trkpt>
      <trkpt lon="-3.046283" lat="52.720788"><ele>316.361115</ele><time>2022-01-15T11:47:44Z</time><extensions><speed>0.736116</speed><course>258.582367</course><hAcc>1.988044</hAcc><vAcc>0.563924</vAcc></extensions></trkpt>
      <trkpt lon="-3.046294" lat="52.720786"><ele>316.441620</ele><time>2022-01-15T11:47:45Z</time><extensions><speed>0.732929</speed><course>254.655045</course><hAcc>1.977848</hAcc><vAcc>0.564060</vAcc></extensions></trkpt>
      <trkpt lon="-3.046304" lat="52.720785"><ele>316.506042</ele><time>2022-01-15T11:47:46Z</time><extensions><speed>0.684003</speed><course>253.908905</course><hAcc>1.988407</hAcc><vAcc>0.563257</vAcc></extensions></trkpt>
      <trkpt lon="-3.046313" lat="52.720783"><ele>316.559723</ele><time>2022-01-15T11:47:47Z</time><extensions><speed>0.540392</speed><course>256.612274</course><hAcc>2.017117</hAcc><vAcc>0.561540</vAcc></extensions></trkpt>
      <trkpt lon="-3.046321" lat="52.720782"><ele>316.604980</ele><time>2022-01-15T11:47:48Z</time><extensions><speed>0.506358</speed><course>259.800659</course><hAcc>2.029758</hAcc><vAcc>0.559070</vAcc></extensions></trkpt>
      <trkpt lon="-3.046328" lat="52.720781"><ele>316.637054</ele><time>2022-01-15T11:47:49Z</time><extensions><speed>0.528560</speed><course>262.130066</course><hAcc>2.024229</hAcc><vAcc>0.556174</vAcc></extensions></trkpt>
      <trkpt lon="-3.046337" lat="52.720781"><ele>316.657593</ele><time>2022-01-15T11:47:50Z</time><extensions><speed>0.602299</speed><course>263.159241</course><hAcc>2.014223</hAcc><vAcc>0.553249</vAcc></extensions></trkpt>
      <trkpt lon="-3.046345" lat="52.720780"><ele>316.673401</ele><time>2022-01-15T11:47:51Z</time><extensions><speed>0.467360</speed><course>260.946808</course><hAcc>2.041348</hAcc><vAcc>0.550636</vAcc></extensions></trkpt>
      <trkpt lon="-3.046351" lat="52.720779"><ele>316.685913</ele><time>2022-01-15T11:47:52Z</time><extensions><speed>0.405492</speed><course>259.523529</course><hAcc>2.058314</hAcc><vAcc>0.548473</vAcc></extensions></trkpt>
      <trkpt lon="-3.046357" lat="52.720779"><ele>316.692291</ele><time>2022-01-15T11:47:53Z</time><extensions><speed>0.391828</speed><course>260.481903</course><hAcc>2.063362</hAcc><vAcc>0.546648</vAcc></extensions></trkpt>
      <trkpt lon="-3.046363" lat="52.720778"><ele>316.696533</ele><time>2022-01-15T11:47:54Z</time><extensions><speed>0.396142</speed><course>263.535370</course><hAcc>2.074436</hAcc><vAcc>0.544909</vAcc></extensions></trkpt>
      <trkpt lon="-3.046369" lat="52.720778"><ele>316.710083</ele><time>2022-01-15T11:47:55Z</time><extensions><speed>0.427600</speed><course>266.715302</course><hAcc>2.092309</hAcc><vAcc>0.543007</vAcc></extensions></trkpt>
      <trkpt lon="-3.046376" lat="52.720778"><ele>316.733246</ele><time>2022-01-15T11:47:56Z</time><extensions><speed>0.515040</speed><course>267.966064</course><hAcc>2.103577</hAcc><vAcc>0.540823</vAcc></extensions></trkpt>
      <trkpt lon="-3.046386" lat="52.720778"><ele>316.767914</ele><time>2022-01-15T11:47:57Z</time><extensions><speed>0.760517</speed><course>268.012482</course><hAcc>2.093851</hAcc><vAcc>0.538315</vAcc></extensions></trkpt>
      <trkpt lon="-3.046398" lat="52.720777"><ele>316.815063</ele><time>2022-01-15T11:47:58Z</time><extensions><speed>0.894743</speed><course>265.785980</course><hAcc>2.107046</hAcc><vAcc>0.535439</vAcc></extensions></trkpt>
      <trkpt lon="-3.046412" lat="52.720777"><ele>316.872742</ele><time>2022-01-15T11:47:59Z</time><extensions><speed>0.963669</speed><course>265.106934</course><hAcc>2.131372</hAcc><vAcc>0.532191</vAcc></extensions></trkpt>
      <trkpt lon="-3.046426" lat="52.720776"><ele>316.939117</ele><time>2022-01-15T11:48:00Z</time><extensions><speed>0.981351</speed><course>264.700378</course><hAcc>2.155331</hAcc><vAcc>0.528625</vAcc></extensions></trkpt>
      <trkpt lon="-3.046440" lat="52.720775"><ele>317.008972</ele><time>2022-01-15T11:48:01Z</time><extensions><speed>0.969464</speed><course>265.347351</course><hAcc>2.174268</hAcc><vAcc>0.524895</vAcc></extensions></trkpt>
      <trkpt lon="-3.046455" lat="52.720774"><ele>317.077454</ele><time>2022-01-15T11:48:02Z</time><extensions><speed>0.956123</speed><course>265.351196</course><hAcc>2.187021</hAcc><vAcc>0.521247</vAcc></extensions></trkpt>
      <trkpt lon="-3.046469" lat="52.720773"><ele>317.144897</ele><time>2022-01-15T11:48:03Z</time><extensions><speed>0.969760</speed><course>264.620422</course><hAcc>2.195122</hAcc><vAcc>0.517953</vAcc></extensions></trkpt>
      <trkpt lon="-3.046483" lat="52.720773"><ele>317.219086</ele><time>2022-01-15T11:48:04Z</time><extensions><speed>0.932875</speed><course>262.566498</course><hAcc>2.199929</hAcc><vAcc>0.515267</vAcc></extensions></trkpt>
      <trkpt lon="-3.046497" lat="52.720771"><ele>317.286652</ele><time>2022-01-15T11:48:05Z</time><extensions><speed>0.927438</speed><course>259.418091</course><hAcc>2.203118</hAcc><vAcc>0.513406</vAcc></extensions></trkpt>
      <trkpt lon="-3.046510" lat="52.720769"><ele>317.340546</ele><time>2022-01-15T11:48:06Z</time><extensions><speed>0.966396</speed><course>255.177628</course><hAcc>2.206248</hAcc><vAcc>0.512536</vAcc></extensions></trkpt>
      <trkpt lon="-3.046525" lat="52.720767"><ele>317.377441</ele><time>2022-01-15T11:48:07Z</time><extensions><speed>1.031206</speed><course>251.825943</course><hAcc>2.208915</hAcc><vAcc>0.512817</vAcc></extensions></trkpt>
      <trkpt lon="-3.046540" lat="52.720764"><ele>317.401581</ele><time>2022-01-15T11:48:08Z</time><extensions><speed>1.117094</speed><course>250.550903</course><hAcc>2.206625</hAcc><vAcc>0.514402</vAcc></extensions></trkpt>
      <trkpt lon="-3.046556" lat="52.720760"><ele>317.418427</ele><time>2022-01-15T11:48:09Z</time><extensions><speed>1.190376</speed><course>251.823288</course><hAcc>2.195947</hAcc><vAcc>0.517425</vAcc></extensions></trkpt>
      <trkpt lon="-3.046573" lat="52.720757"><ele>317.421173</ele><time>2022-01-15T11:48:10Z</time><extensions><speed>1.236969</speed><course>254.274246</course><hAcc>2.174265</hAcc><vAcc>0.521931</vAcc></extensions></trkpt>
      <trkpt lon="-3.046591" lat="52.720754"><ele>317.427521</ele><time>2022-01-15T11:48:11Z</time><extensions><speed>1.243151</speed><course>257.485748</course><hAcc>2.146492</hAcc><vAcc>0.527761</vAcc></extensions></trkpt>
      <trkpt lon="-3.046609" lat="52.720752"><ele>317.429413</ele><time>2022-01-15T11:48:12Z</time><extensions><speed>1.234125</speed><course>260.568420</course><hAcc>2.130172</hAcc><vAcc>0.534550</vAcc></extensions></trkpt>
      <trkpt lon="-3.046627" lat="52.720751"><ele>317.433014</ele><time>2022-01-15T11:48:13Z</time><extensions><speed>1.177255</speed><course>263.124664</course><hAcc>2.137550</hAcc><vAcc>0.541800</vAcc></extensions></trkpt>
      <trkpt lon="-3.046645" lat="52.720750"><ele>317.440338</ele><time>2022-01-15T11:48:14Z</time><extensions><speed>1.200046</speed><course>267.539093</course><hAcc>2.119902</hAcc><vAcc>0.548964</vAcc></extensions></trkpt>
      <trkpt lon="-3.046663" lat="52.720750"><ele>317.461731</ele><time>2022-01-15T11:48:15Z</time><extensions><speed>1.261651</speed><course>271.312683</course><hAcc>2.065606</hAcc><vAcc>0.555546</vAcc></extensions></trkpt>
      <trkpt lon="-3.046682" lat="52.720750"><ele>317.499023</ele><time>2022-01-15T11:48:16Z</time><extensions><speed>1.267110</speed><course>272.600586</course><hAcc>2.023861</hAcc><vAcc>0.561182</vAcc></extensions></trkpt>
      <trkpt lon="-3.046700" lat="52.720751"><ele>317.550781</ele><time>2022-01-15T11:48:17Z</time><extensions><speed>1.252823</speed><course>273.304199</course><hAcc>2.002276</hAcc><vAcc>0.565684</vAcc></extensions></trkpt>
      <trkpt lon="-3.046719" lat="52.720752"><ele>317.615601</ele><time>2022-01-15T11:48:18Z</time><extensions><speed>1.243850</speed><course>273.916382</course><hAcc>1.990270</hAcc><vAcc>0.569082</vAcc></extensions></trkpt>
      <trkpt lon="-3.046737" lat="52.720752"><ele>317.696014</ele><time>2022-01-15T11:48:19Z</time><extensions><speed>1.197881</speed><course>274.551361</course><hAcc>1.987304</hAcc><vAcc>0.571581</vAcc></extensions></trkpt>
      <trkpt lon="-3.046754" lat="52.720753"><ele>317.796082</ele><time>2022-01-15T11:48:20Z</time><extensions><speed>1.118878</speed><course>275.128174</course><hAcc>1.999077</hAcc><vAcc>0.573516</vAcc></extensions></trkpt>
      <trkpt lon="-3.046770" lat="52.720754"><ele>317.917633</ele><time>2022-01-15T11:48:21Z</time><extensions><speed>0.989011</speed><course>275.597961</course><hAcc>2.020108</hAcc><vAcc>0.575288</vAcc></extensions></trkpt>
      <trkpt lon="-3.046784" lat="52.720755"><ele>318.046265</ele><time>2022-01-15T11:48:22Z</time><extensions><speed>0.980876</speed><course>277.198425</course><hAcc>1.995233</hAcc><vAcc>0.577318</vAcc></extensions></trkpt>
      <trkpt lon="-3.046799" lat="52.720756"><ele>318.194824</ele><time>2022-01-15T11:48:23Z</time><extensions><speed>0.979166</speed><course>277.834106</course><hAcc>1.971767</hAcc><vAcc>0.579966</vAcc></extensions></trkpt>
      <trkpt lon="-3.046814" lat="52.720758"><ele>318.355072</ele><time>2022-01-15T11:48:24Z</time><extensions><speed>0.999636</speed><course>277.999878</course><hAcc>1.959516</hAcc><vAcc>0.583539</vAcc></extensions></trkpt>
      <trkpt lon="-3.046828" lat="52.720759"><ele>318.526276</ele><time>2022-01-15T11:48:25Z</time><extensions><speed>1.030186</speed><course>278.756165</course><hAcc>1.950377</hAcc><vAcc>0.588261</vAcc></extensions></trkpt>
      <trkpt lon="-3.046844" lat="52.720761"><ele>318.677887</ele><time>2022-01-15T11:48:26Z</time><extensions><speed>1.090528</speed><course>280.335327</course><hAcc>1.937245</hAcc><vAcc>0.594233</vAcc></extensions></trkpt>
      <trkpt lon="-3.046861" lat="52.720763"><ele>318.821136</ele><time>2022-01-15T11:48:27Z</time><extensions><speed>1.169277</speed><course>281.956665</course><hAcc>1.929861</hAcc><vAcc>0.601443</vAcc></extensions></trkpt>
      <trkpt lon="-3.046878" lat="52.720765"><ele>318.972473</ele><time>2022-01-15T11:48:28Z</time><extensions><speed>1.190367</speed><course>281.902466</course><hAcc>1.931922</hAcc><vAcc>0.609636</vAcc></extensions></trkpt>
      <trkpt lon="-3.046896" lat="52.720767"><ele>319.115417</ele><time>2022-01-15T11:48:29Z</time><extensions><speed>1.281471</speed><course>281.061951</course><hAcc>1.904631</hAcc><vAcc>0.618486</vAcc></extensions></trkpt>
      <trkpt lon="-3.046914" lat="52.720769"><ele>319.259216</ele><time>2022-01-15T11:48:30Z</time><extensions><speed>1.277289</speed><course>278.808624</course><hAcc>1.886032</hAcc><vAcc>0.627579</vAcc></extensions></trkpt>
      <trkpt lon="-3.046933" lat="52.720771"><ele>319.401031</ele><time>2022-01-15T11:48:31Z</time><extensions><speed>1.240486</speed><course>277.675903</course><hAcc>1.875777</hAcc><vAcc>0.636644</vAcc></extensions></trkpt>
      <trkpt lon="-3.046951" lat="52.720772"><ele>319.544128</ele><time>2022-01-15T11:48:32Z</time><extensions><speed>1.262107</speed><course>278.016174</course><hAcc>1.860562</hAcc><vAcc>0.645397</vAcc></extensions></trkpt>
      <trkpt lon="-3.046970" lat="52.720774"><ele>319.674347</ele><time>2022-01-15T11:48:33Z</time><extensions><speed>1.229759</speed><course>278.435242</course><hAcc>1.861623</hAcc><vAcc>0.653636</vAcc></extensions></trkpt>
      <trkpt lon="-3.046988" lat="52.720776"><ele>319.810333</ele><time>2022-01-15T11:48:34Z</time><extensions><speed>1.265689</speed><course>281.734894</course><hAcc>1.838286</hAcc><vAcc>0.661199</vAcc></extensions></trkpt>
      <trkpt lon="-3.047006" lat="52.720779"><ele>319.934296</ele><time>2022-01-15T11:48:35Z</time><extensions><speed>1.257938</speed><course>282.987701</course><hAcc>1.831457</hAcc><vAcc>0.667986</vAcc></extensions></trkpt>
      <trkpt lon="-3.047025" lat="52.720781"><ele>320.068604</ele><time>2022-01-15T11:48:36Z</time><extensions><speed>1.272084</speed><course>281.808563</course><hAcc>1.840953</hAcc><vAcc>0.673921</vAcc></extensions></trkpt>
      <trkpt lon="-3.047043" lat="52.720783"><ele>320.200226</ele><time>2022-01-15T11:48:37Z</time><extensions><speed>1.229881</speed><course>280.868927</course><hAcc>1.827040</hAcc><vAcc>0.679013</vAcc></extensions></trkpt>
      <trkpt lon="-3.047060" lat="52.720785"><ele>320.358337</ele><time>2022-01-15T11:48:38Z</time><extensions><speed>1.162852</speed><course>279.617798</course><hAcc>1.814300</hAcc><vAcc>0.683289</vAcc></extensions></trkpt>
      <trkpt lon="-3.047077" lat="52.720787"><ele>320.506989</ele><time>2022-01-15T11:48:39Z</time><extensions><speed>1.122904</speed><course>279.198669</course><hAcc>1.806565</hAcc><vAcc>0.686801</vAcc></extensions></trkpt>
      <trkpt lon="-3.047093" lat="52.720788"><ele>320.667328</ele><time>2022-01-15T11:48:40Z</time><extensions><speed>1.083118</speed><course>279.551178</course><hAcc>1.812465</hAcc><vAcc>0.689613</vAcc></extensions></trkpt>
      <trkpt lon="-3.047109" lat="52.720790"><ele>320.835266</ele><time>2022-01-15T11:48:41Z</time><extensions><speed>1.097187</speed><course>279.723755</course><hAcc>1.827079</hAcc><vAcc>0.691868</vAcc></extensions></trkpt>
      <trkpt lon="-3.047125" lat="52.720792"><ele>321.000031</ele><time>2022-01-15T11:48:42Z</time><extensions><speed>1.066798</speed><course>279.006958</course><hAcc>1.837398</hAcc><vAcc>0.693738</vAcc></extensions></trkpt>
      <trkpt lon="-3.047140" lat="52.720793"><ele>321.179016</ele><time>2022-01-15T11:48:43Z</time><extensions><speed>1.041866</speed><course>279.708771</course><hAcc>1.817072</hAcc><vAcc>0.695322</vAcc></extensions></trkpt>
      <trkpt lon="-3.047155" lat="52.720795"><ele>321.356018</ele><time>2022-01-15T11:48:44Z</time><extensions><speed>1.004074</speed><course>279.565613</course><hAcc>1.818491</hAcc><vAcc>0.696781</vAcc></extensions></trkpt>
      <trkpt lon="-3.047170" lat="52.720796"><ele>321.536774</ele><time>2022-01-15T11:48:45Z</time><extensions><speed>0.959743</speed><course>277.992615</course><hAcc>1.833827</hAcc><vAcc>0.698231</vAcc></extensions></trkpt>
      <trkpt lon="-3.047183" lat="52.720797"><ele>321.711334</ele><time>2022-01-15T11:48:46Z</time><extensions><speed>0.930531</speed><course>275.364471</course><hAcc>1.846506</hAcc><vAcc>0.699750</vAcc></extensions></trkpt>
      <trkpt lon="-3.047197" lat="52.720798"><ele>321.883026</ele><time>2022-01-15T11:48:47Z</time><extensions><speed>0.909962</speed><course>273.026306</course><hAcc>1.863942</hAcc><vAcc>0.701363</vAcc></extensions></trkpt>
      <trkpt lon="-3.047210" lat="52.720798"><ele>322.054016</ele><time>2022-01-15T11:48:48Z</time><extensions><speed>0.818878</speed><course>271.744965</course><hAcc>1.866758</hAcc><vAcc>0.703021</vAcc></extensions></trkpt>
      <trkpt lon="-3.047222" lat="52.720798"><ele>322.223633</ele><time>2022-01-15T11:48:49Z</time><extensions><speed>0.801902</speed><course>272.111084</course><hAcc>1.858763</hAcc><vAcc>0.704782</vAcc></extensions></trkpt>
      <trkpt lon="-3.047233" lat="52.720798"><ele>322.395172</ele><time>2022-01-15T11:48:50Z</time><extensions><speed>0.759016</speed><course>273.403412</course><hAcc>1.867021</hAcc><vAcc>0.706704</vAcc></extensions></trkpt>
      <trkpt lon="-3.047244" lat="52.720799"><ele>322.549042</ele><time>2022-01-15T11:48:51Z</time><extensions><speed>0.693696</speed><course>276.237244</course><hAcc>1.882919</hAcc><vAcc>0.708723</vAcc></extensions></trkpt>
      <trkpt lon="-3.047254" lat="52.720800"><ele>322.691132</ele><time>2022-01-15T11:48:52Z</time><extensions><speed>0.677502</speed><course>276.937683</course><hAcc>1.881562</hAcc><vAcc>0.710811</vAcc></extensions></trkpt>
      <trkpt lon="-3.047264" lat="52.720801"><ele>322.836914</ele><time>2022-01-15T11:48:53Z</time><extensions><speed>0.670392</speed><course>277.914185</course><hAcc>1.892930</hAcc><vAcc>0.712879</vAcc></extensions></trkpt>
      <trkpt lon="-3.047274" lat="52.720801"><ele>322.981720</ele><time>2022-01-15T11:48:54Z</time><extensions><speed>0.702240</speed><course>278.867401</course><hAcc>1.896544</hAcc><vAcc>0.714948</vAcc></extensions></trkpt>
      <trkpt lon="-3.047285" lat="52.720802"><ele>323.106171</ele><time>2022-01-15T11:48:55Z</time><extensions><speed>0.740627</speed><course>278.414978</course><hAcc>1.889809</hAcc><vAcc>0.717013</vAcc></extensions></trkpt>
      <trkpt lon="-3.047296" lat="52.720803"><ele>323.250244</ele><time>2022-01-15T11:48:56Z</time><extensions><speed>0.840939</speed><course>277.082672</course><hAcc>1.878625</hAcc><vAcc>0.719105</vAcc></extensions></trkpt>
      <trkpt lon="-3.047310" lat="52.720804"><ele>323.379639</ele><time>2022-01-15T11:48:57Z</time><extensions><speed>0.956074</speed><course>275.937256</course><hAcc>1.875283</hAcc><vAcc>0.721241</vAcc></extensions></trkpt>
      <trkpt lon="-3.047325" lat="52.720805"><ele>323.527985</ele><time>2022-01-15T11:48:58Z</time><extensions><speed>1.048406</speed><course>275.454681</course><hAcc>1.875000</hAcc><vAcc>0.723439</vAcc></extensions></trkpt>
      <trkpt lon="-3.047340" lat="52.720806"><ele>323.659760</ele><time>2022-01-15T11:48:59Z</time><extensions><speed>1.097472</speed><course>275.527130</course><hAcc>1.877003</hAcc><vAcc>0.725624</vAcc></extensions></trkpt>
      <trkpt lon="-3.047357" lat="52.720807"><ele>323.771637</ele><time>2022-01-15T11:49:00Z</time><extensions><speed>1.127484</speed><course>277.503326</course><hAcc>1.849686</hAcc><vAcc>0.727727</vAcc></extensions></trkpt>
      <trkpt lon="-3.047373" lat="52.720809"><ele>323.898407</ele><time>2022-01-15T11:49:01Z</time><extensions><speed>1.121183</speed><course>280.116730</course><hAcc>1.824646</hAcc><vAcc>0.729572</vAcc></extensions></trkpt>
      <trkpt lon="-3.047389" lat="52.720810"><ele>324.021606</ele><time>2022-01-15T11:49:02Z</time><extensions><speed>1.076572</speed><course>281.119843</course><hAcc>1.816676</hAcc><vAcc>0.730936</vAcc></extensions></trkpt>
      <trkpt lon="-3.047405" lat="52.720812"><ele>324.141846</ele><time>2022-01-15T11:49:03Z</time><extensions><speed>1.051743</speed><course>279.760345</course><hAcc>1.810823</hAcc><vAcc>0.731949</vAcc></extensions></trkpt>
      <trkpt lon="-3.047420" lat="52.720814"><ele>324.263092</ele><time>2022-01-15T11:49:04Z</time><extensions><speed>1.005458</speed><course>276.726318</course><hAcc>1.812000</hAcc><vAcc>0.732531</vAcc></extensions></trkpt>
      <trkpt lon="-3.047435" lat="52.720814"><ele>324.378357</ele><time>2022-01-15T11:49:05Z</time><extensions><speed>0.991269</speed><course>273.838409</course><hAcc>1.806542</hAcc><vAcc>0.732646</vAcc></extensions></trkpt>
      <trkpt lon="-3.047449" lat="52.720815"><ele>324.494293</ele><time>2022-01-15T11:49:06Z</time><extensions><speed>0.980922</speed><course>270.946655</course><hAcc>1.801706</hAcc><vAcc>0.732325</vAcc></extensions></trkpt>
      <trkpt lon="-3.047464" lat="52.720815"><ele>324.609314</ele><time>2022-01-15T11:49:07Z</time><extensions><speed>0.989687</speed><course>268.113586</course><hAcc>1.807196</hAcc><vAcc>0.731662</vAcc></extensions></trkpt>
      <trkpt lon="-3.047478" lat="52.720814"><ele>324.716827</ele><time>2022-01-15T11:49:08Z</time><extensions><speed>0.966659</speed><course>266.685699</course><hAcc>1.835583</hAcc><vAcc>0.730819</vAcc></extensions></trkpt>
      <trkpt lon="-3.047493" lat="52.720814"><ele>324.823700</ele><time>2022-01-15T11:49:09Z</time><extensions><speed>0.978806</speed><course>265.442902</course><hAcc>1.832065</hAcc><vAcc>0.729962</vAcc></extensions></trkpt>
      <trkpt lon="-3.047507" lat="52.720813"><ele>324.937866</ele><time>2022-01-15T11:49:10Z</time><extensions><speed>0.996703</speed><course>266.291107</course><hAcc>1.840112</hAcc><vAcc>0.729332</vAcc></extensions></trkpt>
      <trkpt lon="-3.047522" lat="52.720812"><ele>325.049866</ele><time>2022-01-15T11:49:11Z</time><extensions><speed>0.963596</speed><course>265.803741</course><hAcc>1.838798</hAcc><vAcc>0.729256</vAcc></extensions></trkpt>
      <trkpt lon="-3.047536" lat="52.720812"><ele>325.154144</ele><time>2022-01-15T11:49:12Z</time><extensions><speed>0.931755</speed><course>266.306732</course><hAcc>1.840217</hAcc><vAcc>0.729739</vAcc></extensions></trkpt>
      <trkpt lon="-3.047549" lat="52.720811"><ele>325.256439</ele><time>2022-01-15T11:49:13Z</time><extensions><speed>0.890574</speed><course>267.819702</course><hAcc>1.843832</hAcc><vAcc>0.730750</vAcc></extensions></trkpt>
      <trkpt lon="-3.047562" lat="52.720811"><ele>325.353027</ele><time>2022-01-15T11:49:14Z</time><extensions><speed>0.851236</speed><course>269.573669</course><hAcc>1.827752</hAcc><vAcc>0.732210</vAcc></extensions></trkpt>
      <trkpt lon="-3.047575" lat="52.720811"><ele>325.445251</ele><time>2022-01-15T11:49:15Z</time><extensions><speed>0.843387</speed><course>273.463776</course><hAcc>1.795114</hAcc><vAcc>0.734056</vAcc></extensions></trkpt>
      <trkpt lon="-3.047588" lat="52.720812"><ele>325.550049</ele><time>2022-01-15T11:49:16Z</time><extensions><speed>0.911274</speed><course>279.397308</course><hAcc>1.796849</hAcc><vAcc>0.736178</vAcc></extensions></trkpt>
      <trkpt lon="-3.047602" lat="52.720814"><ele>325.655396</ele><time>2022-01-15T11:49:17Z</time><extensions><speed>0.986588</speed><course>286.727112</course><hAcc>1.840004</hAcc><vAcc>0.738440</vAcc></extensions></trkpt>
      <trkpt lon="-3.047616" lat="52.720816"><ele>325.757141</ele><time>2022-01-15T11:49:18Z</time><extensions><speed>0.957120</speed><course>282.943542</course><hAcc>1.807711</hAcc><vAcc>0.740896</vAcc></extensions></trkpt>
      <trkpt lon="-3.047630" lat="52.720818"><ele>325.866241</ele><time>2022-01-15T11:49:19Z</time><extensions><speed>0.972997</speed><course>275.316864</course><hAcc>1.771435</hAcc><vAcc>0.743463</vAcc></extensions></trkpt>
      <trkpt lon="-3.047644" lat="52.720818"><ele>325.944763</ele><time>2022-01-15T11:49:20Z</time><extensions><speed>0.992468</speed><course>268.504333</course><hAcc>1.780013</hAcc><vAcc>0.746069</vAcc></extensions></trkpt>
      <trkpt lon="-3.047659" lat="52.720817"><ele>326.045258</ele><time>2022-01-15T11:49:20Z</time><extensions><speed>0.938665</speed><course>265.943542</course><hAcc>1.814906</hAcc><vAcc>0.748578</vAcc></extensions></trkpt>
      <trkpt lon="-3.047673" lat="52.720817"><ele>326.146393</ele><time>2022-01-15T11:49:21Z</time><extensions><speed>0.934500</speed><course>262.366455</course><hAcc>1.797032</hAcc><vAcc>0.750876</vAcc></extensions></trkpt>
      <trkpt lon="-3.047687" lat="52.720816"><ele>326.215515</ele><time>2022-01-15T11:49:23Z</time><extensions><speed>1.000049</speed><course>263.819397</course><hAcc>1.777128</hAcc><vAcc>0.752917</vAcc></extensions></trkpt>
      <trkpt lon="-3.047702" lat="52.720815"><ele>326.315216</ele><time>2022-01-15T11:49:24Z</time><extensions><speed>1.045975</speed><course>267.406036</course><hAcc>1.788190</hAcc><vAcc>0.754678</vAcc></extensions></trkpt>
      <trkpt lon="-3.047718" lat="52.720815"><ele>326.406891</ele><time>2022-01-15T11:49:24Z</time><extensions><speed>1.065422</speed><course>271.139679</course><hAcc>1.807388</hAcc><vAcc>0.756159</vAcc></extensions></trkpt>
      <trkpt lon="-3.047734" lat="52.720815"><ele>326.513855</ele><time>2022-01-15T11:49:25Z</time><extensions><speed>1.074933</speed><course>272.834869</course><hAcc>1.809977</hAcc><vAcc>0.757414</vAcc></extensions></trkpt>
      <trkpt lon="-3.047749" lat="52.720816"><ele>326.604858</ele><time>2022-01-15T11:49:26Z</time><extensions><speed>1.001964</speed><course>276.158142</course><hAcc>1.819179</hAcc><vAcc>0.758483</vAcc></extensions></trkpt>
      <trkpt lon="-3.047764" lat="52.720817"><ele>326.700928</ele><time>2022-01-15T11:49:27Z</time><extensions><speed>1.091841</speed><course>279.105469</course><hAcc>1.796122</hAcc><vAcc>0.759419</vAcc></extensions></trkpt>
      <trkpt lon="-3.047781" lat="52.720819"><ele>326.807129</ele><time>2022-01-15T11:49:28Z</time><extensions><speed>1.149394</speed><course>280.966675</course><hAcc>1.790637</hAcc><vAcc>0.760319</vAcc></extensions></trkpt>
      <trkpt lon="-3.047798" lat="52.720821"><ele>326.866791</ele><time>2022-01-15T11:49:29Z</time><extensions><speed>1.169230</speed><course>282.239258</course><hAcc>1.805341</hAcc><vAcc>0.761147</vAcc></extensions></trkpt>
      <trkpt lon="-3.047815" lat="52.720823"><ele>326.968201</ele><time>2022-01-15T11:49:30Z</time><extensions><speed>1.252044</speed><course>281.315399</course><hAcc>1.793738</hAcc><vAcc>0.761883</vAcc></extensions></trkpt>
      <trkpt lon="-3.047834" lat="52.720825"><ele>327.051422</ele><time>2022-01-15T11:49:31Z</time><extensions><speed>1.298129</speed><course>279.926575</course><hAcc>1.793321</hAcc><vAcc>0.762559</vAcc></extensions></trkpt>
      <trkpt lon="-3.047853" lat="52.720827"><ele>327.131378</ele><time>2022-01-15T11:49:32Z</time><extensions><speed>1.305362</speed><course>279.326263</course><hAcc>1.804678</hAcc><vAcc>0.763200</vAcc></extensions></trkpt>
      <trkpt lon="-3.047872" lat="52.720829"><ele>327.204346</ele><time>2022-01-15T11:49:33Z</time><extensions><speed>1.308118</speed><course>276.547546</course><hAcc>1.791458</hAcc><vAcc>0.763846</vAcc></extensions></trkpt>
      <trkpt lon="-3.047891" lat="52.720830"><ele>327.283936</ele><time>2022-01-15T11:49:34Z</time><extensions><speed>1.266158</speed><course>274.799988</course><hAcc>1.781796</hAcc><vAcc>0.764450</vAcc></extensions></trkpt>
      <trkpt lon="-3.047910" lat="52.720831"><ele>327.345154</ele><time>2022-01-15T11:49:35Z</time><extensions><speed>1.207599</speed><course>274.246887</course><hAcc>1.781223</hAcc><vAcc>0.765087</vAcc></extensions></trkpt>
      <trkpt lon="-3.047927" lat="52.720831"><ele>327.399780</ele><time>2022-01-15T11:49:36Z</time><extensions><speed>1.142480</speed><course>273.932068</course><hAcc>1.776116</hAcc><vAcc>0.765766</vAcc></extensions></trkpt>
      <trkpt lon="-3.047944" lat="52.720832"><ele>327.454315</ele><time>2022-01-15T11:49:37Z</time><extensions><speed>1.108427</speed><course>273.930176</course><hAcc>1.775561</hAcc><vAcc>0.766464</vAcc></extensions></trkpt>
      <trkpt lon="-3.047960" lat="52.720833"><ele>327.495300</ele><time>2022-01-15T11:49:38Z</time><extensions><speed>1.072063</speed><course>272.767395</course><hAcc>1.772614</hAcc><vAcc>0.767217</vAcc></extensions></trkpt>
      <trkpt lon="-3.047975" lat="52.720833"><ele>327.531342</ele><time>2022-01-15T11:49:39Z</time><extensions><speed>0.958237</speed><course>271.740082</course><hAcc>1.783074</hAcc><vAcc>0.768068</vAcc></extensions></trkpt>
      <trkpt lon="-3.047989" lat="52.720833"><ele>327.561859</ele><time>2022-01-15T11:49:40Z</time><extensions><speed>0.939831</speed><course>271.363922</course><hAcc>1.781275</hAcc><vAcc>0.769009</vAcc></extensions></trkpt>
      <trkpt lon="-3.048003" lat="52.720833"><ele>327.580811</ele><time>2022-01-15T11:49:41Z</time><extensions><speed>0.914439</speed><course>269.754303</course><hAcc>1.776898</hAcc><vAcc>0.770089</vAcc></extensions></trkpt>
      <trkpt lon="-3.048016" lat="52.720833"><ele>327.575439</ele><time>2022-01-15T11:49:42Z</time><extensions><speed>0.911208</speed><course>270.942261</course><hAcc>1.791901</hAcc><vAcc>0.771297</vAcc></extensions></trkpt>
      <trkpt lon="-3.048029" lat="52.720833"><ele>327.585785</ele><time>2022-01-15T11:49:43Z</time><extensions><speed>0.864625</speed><course>271.072723</course><hAcc>1.800499</hAcc><vAcc>0.772589</vAcc></extensions></trkpt>
      <trkpt lon="-3.048042" lat="52.720834"><ele>327.589752</ele><time>2022-01-15T11:49:44Z</time><extensions><speed>0.837888</speed><course>272.205688</course><hAcc>1.812291</hAcc><vAcc>0.774054</vAcc></extensions></trkpt>
      <trkpt lon="-3.048054" lat="52.720834"><ele>327.574341</ele><time>2022-01-15T11:49:45Z</time><extensions><speed>0.837732</speed><course>274.473480</course><hAcc>1.820608</hAcc><vAcc>0.775626</vAcc></extensions></trkpt>
      <trkpt lon="-3.048067" lat="52.720835"><ele>327.578430</ele><time>2022-01-15T11:49:46Z</time><extensions><speed>0.859685</speed><course>276.527313</course><hAcc>1.818039</hAcc><vAcc>0.777244</vAcc></extensions></trkpt>
      <trkpt lon="-3.048080" lat="52.720836"><ele>327.571472</ele><time>2022-01-15T11:49:47Z</time><extensions><speed>0.962991</speed><course>278.917511</course><hAcc>1.814348</hAcc><vAcc>0.778821</vAcc></extensions></trkpt>
      <trkpt lon="-3.048095" lat="52.720838"><ele>327.557983</ele><time>2022-01-15T11:49:48Z</time><extensions><speed>1.070480</speed><course>280.958527</course><hAcc>1.820686</hAcc><vAcc>0.780387</vAcc></extensions></trkpt>
      <trkpt lon="-3.048111" lat="52.720840"><ele>327.565216</ele><time>2022-01-15T11:49:49Z</time><extensions><speed>1.184618</speed><course>282.062469</course><hAcc>1.822239</hAcc><vAcc>0.781855</vAcc></extensions></trkpt>
      <trkpt lon="-3.048129" lat="52.720842"><ele>327.577942</ele><time>2022-01-15T11:49:50Z</time><extensions><speed>1.267323</speed><course>282.709747</course><hAcc>1.822604</hAcc><vAcc>0.783151</vAcc></extensions></trkpt>
      <trkpt lon="-3.048148" lat="52.720844"><ele>327.588257</ele><time>2022-01-15T11:49:51Z</time><extensions><speed>1.293633</speed><course>283.507660</course><hAcc>1.823020</hAcc><vAcc>0.784212</vAcc></extensions></trkpt>
      <trkpt lon="-3.048166" lat="52.720847"><ele>327.606079</ele><time>2022-01-15T11:49:52Z</time><extensions><speed>1.279187</speed><course>283.097717</course><hAcc>1.810937</hAcc><vAcc>0.785002</vAcc></extensions></trkpt>
      <trkpt lon="-3.048185" lat="52.720850"><ele>327.635864</ele><time>2022-01-15T11:49:53Z</time><extensions><speed>1.275593</speed><course>282.119873</course><hAcc>1.799203</hAcc><vAcc>0.785498</vAcc></extensions></trkpt>
      <trkpt lon="-3.048204" lat="52.720852"><ele>327.647308</ele><time>2022-01-15T11:49:54Z</time><extensions><speed>1.321850</speed><course>281.226990</course><hAcc>1.799456</hAcc><vAcc>0.785703</vAcc></extensions></trkpt>
      <trkpt lon="-3.048223" lat="52.720854"><ele>327.683868</ele><time>2022-01-15T11:49:55Z</time><extensions><speed>1.323427</speed><course>280.512756</course><hAcc>1.805118</hAcc><vAcc>0.785586</vAcc></extensions></trkpt>
      <trkpt lon="-3.048242" lat="52.720856"><ele>327.735596</ele><time>2022-01-15T11:49:56Z</time><extensions><speed>1.277195</speed><course>279.697906</course><hAcc>1.800547</hAcc><vAcc>0.785166</vAcc></extensions></trkpt>
      <trkpt lon="-3.048260" lat="52.720858"><ele>327.779968</ele><time>2022-01-15T11:49:57Z</time><extensions><speed>1.230409</speed><course>279.525818</course><hAcc>1.794493</hAcc><vAcc>0.784478</vAcc></extensions></trkpt>
      <trkpt lon="-3.048278" lat="52.720860"><ele>327.835541</ele><time>2022-01-15T11:49:58Z</time><extensions><speed>1.212567</speed><course>278.512421</course><hAcc>1.789486</hAcc><vAcc>0.783660</vAcc></extensions></trkpt>
      <trkpt lon="-3.048296" lat="52.720861"><ele>327.900696</ele><time>2022-01-15T11:49:59Z</time><extensions><speed>1.224195</speed><course>277.229401</course><hAcc>1.778652</hAcc><vAcc>0.782699</vAcc></extensions></trkpt>
      <trkpt lon="-3.048314" lat="52.720863"><ele>327.957642</ele><time>2022-01-15T11:50:00Z</time><extensions><speed>1.219307</speed><course>277.212982</course><hAcc>1.772815</hAcc><vAcc>0.781671</vAcc></extensions></trkpt>
      <trkpt lon="-3.048332" lat="52.720864"><ele>328.007843</ele><time>2022-01-15T11:50:01Z</time><extensions><speed>1.246314</speed><course>278.096649</course><hAcc>1.774036</hAcc><vAcc>0.780595</vAcc></extensions></trkpt>
      <trkpt lon="-3.048351" lat="52.720866"><ele>328.059845</ele><time>2022-01-15T11:50:02Z</time><extensions><speed>1.246574</speed><course>278.139374</course><hAcc>1.778899</hAcc><vAcc>0.779546</vAcc></extensions></trkpt>
      <trkpt lon="-3.048369" lat="52.720867"><ele>328.141022</ele><time>2022-01-15T11:50:03Z</time><extensions><speed>1.216354</speed><course>275.790680</course><hAcc>1.771082</hAcc><vAcc>0.778613</vAcc></extensions></trkpt>
      <trkpt lon="-3.048387" lat="52.720868"><ele>328.214752</ele><time>2022-01-15T11:50:04Z</time><extensions><speed>1.215173</speed><course>273.159515</course><hAcc>1.770647</hAcc><vAcc>0.777834</vAcc></extensions></trkpt>
      <trkpt lon="-3.048405" lat="52.720868"><ele>328.298737</ele><time>2022-01-15T11:50:05Z</time><extensions><speed>1.224368</speed><course>269.733673</course><hAcc>1.777848</hAcc><vAcc>0.777232</vAcc></extensions></trkpt>
      <trkpt lon="-3.048423" lat="52.720868"><ele>328.370178</ele><time>2022-01-15T11:50:06Z</time><extensions><speed>1.249665</speed><course>267.412445</course><hAcc>1.783519</hAcc><vAcc>0.776847</vAcc></extensions></trkpt>
      <trkpt lon="-3.048442" lat="52.720867"><ele>328.446594</ele><time>2022-01-15T11:50:07Z</time><extensions><speed>1.255684</speed><course>266.097870</course><hAcc>1.786703</hAcc><vAcc>0.776667</vAcc></extensions></trkpt>
      <trkpt lon="-3.048460" lat="52.720866"><ele>328.524170</ele><time>2022-01-15T11:50:08Z</time><extensions><speed>1.247870</speed><course>264.822144</course><hAcc>1.788921</hAcc><vAcc>0.776667</vAcc></extensions></trkpt>
      <trkpt lon="-3.048478" lat="52.720865"><ele>328.611786</ele><time>2022-01-15T11:50:09Z</time><extensions><speed>1.239988</speed><course>264.971588</course><hAcc>1.795573</hAcc><vAcc>0.776865</vAcc></extensions></trkpt>
      <trkpt lon="-3.048497" lat="52.720864"><ele>328.714691</ele><time>2022-01-15T11:50:10Z</time><extensions><speed>1.230319</speed><course>266.117035</course><hAcc>1.804328</hAcc><vAcc>0.777212</vAcc></extensions></trkpt>
      <trkpt lon="-3.048515" lat="52.720864"><ele>328.814484</ele><time>2022-01-15T11:50:12Z</time><extensions><speed>1.233930</speed><course>267.288544</course><hAcc>1.814541</hAcc><vAcc>0.777678</vAcc></extensions></trkpt>
      <trkpt lon="-3.048533" lat="52.720863"><ele>328.924713</ele><time>2022-01-15T11:50:13Z</time><extensions><speed>1.220718</speed><course>266.233917</course><hAcc>1.811750</hAcc><vAcc>0.778289</vAcc></extensions></trkpt>
      <trkpt lon="-3.048551" lat="52.720862"><ele>329.038696</ele><time>2022-01-15T11:50:14Z</time><extensions><speed>1.178791</speed><course>264.726501</course><hAcc>1.814457</hAcc><vAcc>0.779055</vAcc></extensions></trkpt>
      <trkpt lon="-3.048567" lat="52.720861"><ele>329.166351</ele><time>2022-01-15T11:50:15Z</time><extensions><speed>1.117076</speed><course>264.271912</course><hAcc>1.820427</hAcc><vAcc>0.779957</vAcc></extensions></trkpt>
      <trkpt lon="-3.048583" lat="52.720860"><ele>329.290741</ele><time>2022-01-15T11:50:16Z</time><extensions><speed>1.013576</speed><course>265.951355</course><hAcc>1.814608</hAcc><vAcc>0.780972</vAcc></extensions></trkpt>
      <trkpt lon="-3.048597" lat="52.720860"><ele>329.415405</ele><time>2022-01-15T11:50:17Z</time><extensions><speed>0.884229</speed><course>268.858856</course><hAcc>1.813074</hAcc><vAcc>0.782076</vAcc></extensions></trkpt>
      <trkpt lon="-3.048610" lat="52.720860"><ele>329.565430</ele><time>2022-01-15T11:50:18Z</time><extensions><speed>0.862131</speed><course>268.897308</course><hAcc>1.816026</hAcc><vAcc>0.783253</vAcc></extensions></trkpt>
      <trkpt lon="-3.048623" lat="52.720860"><ele>329.714508</ele><time>2022-01-15T11:50:19Z</time><extensions><speed>0.917919</speed><course>267.999695</course><hAcc>1.817368</hAcc><vAcc>0.784446</vAcc></extensions></trkpt>
      <trkpt lon="-3.048637" lat="52.720859"><ele>329.858185</ele><time>2022-01-15T11:50:20Z</time><extensions><speed>0.961968</speed><course>268.829468</course><hAcc>1.814431</hAcc><vAcc>0.785551</vAcc></extensions></trkpt>
      <trkpt lon="-3.048651" lat="52.720859"><ele>330.000854</ele><time>2022-01-15T11:50:21Z</time><extensions><speed>0.949269</speed><course>269.989716</course><hAcc>1.809556</hAcc><vAcc>0.786462</vAcc></extensions></trkpt>
      <trkpt lon="-3.048666" lat="52.720860"><ele>330.145355</ele><time>2022-01-15T11:50:22Z</time><extensions><speed>0.959499</speed><course>271.761017</course><hAcc>1.795194</hAcc><vAcc>0.787171</vAcc></extensions></trkpt>
      <trkpt lon="-3.048680" lat="52.720860"><ele>330.294525</ele><time>2022-01-15T11:50:23Z</time><extensions><speed>1.006655</speed><course>274.053497</course><hAcc>1.784588</hAcc><vAcc>0.787685</vAcc></extensions></trkpt>
      <trkpt lon="-3.048695" lat="52.720861"><ele>330.430298</ele><time>2022-01-15T11:50:24Z</time><extensions><speed>1.036377</speed><course>277.221008</course><hAcc>1.786564</hAcc><vAcc>0.788070</vAcc></extensions></trkpt>
      <trkpt lon="-3.048710" lat="52.720862"><ele>330.568726</ele><time>2022-01-15T11:50:25Z</time><extensions><speed>1.044711</speed><course>280.211700</course><hAcc>1.794794</hAcc><vAcc>0.788242</vAcc></extensions></trkpt>
      <trkpt lon="-3.048725" lat="52.720864"><ele>330.706055</ele><time>2022-01-15T11:50:26Z</time><extensions><speed>1.077807</speed><course>281.805359</course><hAcc>1.803779</hAcc><vAcc>0.788225</vAcc></extensions></trkpt>
      <trkpt lon="-3.048740" lat="52.720866"><ele>330.828644</ele><time>2022-01-15T11:50:27Z</time><extensions><speed>0.964402</speed><course>282.092865</course><hAcc>1.790093</hAcc><vAcc>0.787966</vAcc></extensions></trkpt>
      <trkpt lon="-3.048752" lat="52.720868"><ele>330.944580</ele><time>2022-01-15T11:50:28Z</time><extensions><speed>0.675715</speed><course>280.910675</course><hAcc>1.780579</hAcc><vAcc>0.787479</vAcc></extensions></trkpt>
      <trkpt lon="-3.048759" lat="52.720868"><ele>331.050659</ele><time>2022-01-15T11:50:29Z</time><extensions><speed>0.260233</speed><course>283.852661</course><hAcc>1.784102</hAcc><vAcc>0.786849</vAcc></extensions></trkpt>
      <trkpt lon="-3.048760" lat="52.720869"><ele>331.147369</ele><time>2022-01-15T11:50:30Z</time><extensions><speed>0.107787</speed><course>58.796898</course><hAcc>1.800566</hAcc><vAcc>0.786150</vAcc></extensions></trkpt>
      <trkpt lon="-3.048757" lat="52.720870"><ele>331.234528</ele><time>2022-01-15T11:50:31Z</time><extensions><speed>0.300594</speed><course>76.248917</course><hAcc>1.810085</hAcc><vAcc>0.785439</vAcc></extensions></trkpt>
      <trkpt lon="-3.048752" lat="52.720870"><ele>331.311310</ele><time>2022-01-15T11:50:32Z</time><extensions><speed>0.416363</speed><course>77.707253</course><hAcc>1.813006</hAcc><vAcc>0.784742</vAcc></extensions></trkpt>
      <trkpt lon="-3.048746" lat="52.720871"><ele>331.377441</ele><time>2022-01-15T11:50:33Z</time><extensions><speed>0.458441</speed><course>78.553093</course><hAcc>1.817010</hAcc><vAcc>0.784149</vAcc></extensions></trkpt>
      <trkpt lon="-3.048739" lat="52.720872"><ele>331.434052</ele><time>2022-01-15T11:50:34Z</time><extensions><speed>0.469945</speed><course>80.313065</course><hAcc>1.815998</hAcc><vAcc>0.783733</vAcc></extensions></trkpt>
      <trkpt lon="-3.048732" lat="52.720872"><ele>331.473450</ele><time>2022-01-15T11:50:35Z</time><extensions><speed>0.442777</speed><course>83.029587</course><hAcc>1.815907</hAcc><vAcc>0.783413</vAcc></extensions></trkpt>
      <trkpt lon="-3.048726" lat="52.720873"><ele>331.499481</ele><time>2022-01-15T11:50:36Z</time><extensions><speed>0.388176</speed><course>85.234459</course><hAcc>1.814300</hAcc><vAcc>0.783286</vAcc></extensions></trkpt>
      <trkpt lon="-3.048721" lat="52.720873"><ele>331.520905</ele><time>2022-01-15T11:50:37Z</time><extensions><speed>0.317100</speed><course>86.173691</course><hAcc>1.810497</hAcc><vAcc>0.783245</vAcc></extensions></trkpt>
      <trkpt lon="-3.048717" lat="52.720873"><ele>331.534027</ele><time>2022-01-15T11:50:38Z</time><extensions><speed>0.241871</speed><course>85.672447</course><hAcc>1.807727</hAcc><vAcc>0.783329</vAcc></extensions></trkpt>
      <trkpt lon="-3.048713" lat="52.720873"><ele>331.539673</ele><time>2022-01-15T11:50:39Z</time><extensions><speed>0.170260</speed><course>82.745239</course><hAcc>1.808977</hAcc><vAcc>0.783489</vAcc></extensions></trkpt>
      <trkpt lon="-3.048711" lat="52.720874"><ele>331.538849</ele><time>2022-01-15T11:50:40Z</time><extensions><speed>0.118799</speed><course>76.384773</course><hAcc>1.810616</hAcc><vAcc>0.783701</vAcc></extensions></trkpt>
      <trkpt lon="-3.048710" lat="52.720874"><ele>331.532440</ele><time>2022-01-15T11:50:41Z</time><extensions><speed>0.091528</speed><course>69.974586</course><hAcc>1.811067</hAcc><vAcc>0.783919</vAcc></extensions></trkpt>
      <trkpt lon="-3.048709" lat="52.720874"><ele>331.518646</ele><time>2022-01-15T11:50:42Z</time><extensions><speed>0.091054</speed><course>75.539711</course><hAcc>1.806600</hAcc><vAcc>0.784057</vAcc></extensions></trkpt>
      <trkpt lon="-3.048707" lat="52.720874"><ele>331.500854</ele><time>2022-01-15T11:50:43Z</time><extensions><speed>0.117201</speed><course>91.002304</course><hAcc>1.801283</hAcc><vAcc>0.784198</vAcc></extensions></trkpt>
      <trkpt lon="-3.048705" lat="52.720874"><ele>331.486328</ele><time>2022-01-15T11:50:44Z</time><extensions><speed>0.156825</speed><course>102.229736</course><hAcc>1.803319</hAcc><vAcc>0.784314</vAcc></extensions></trkpt>
      <trkpt lon="-3.048703" lat="52.720874"><ele>331.466888</ele><time>2022-01-15T11:50:45Z</time><extensions><speed>0.183090</speed><course>107.520729</course><hAcc>1.805862</hAcc><vAcc>0.784329</vAcc></extensions></trkpt>
      <trkpt lon="-3.048700" lat="52.720873"><ele>331.446808</ele><time>2022-01-15T11:50:46Z</time><extensions><speed>0.188648</speed><course>109.008110</course><hAcc>1.797365</hAcc><vAcc>0.784085</vAcc></extensions></trkpt>
      <trkpt lon="-3.048698" lat="52.720873"><ele>331.427917</ele><time>2022-01-15T11:50:47Z</time><extensions><speed>0.160514</speed><course>108.656471</course><hAcc>1.791995</hAcc><vAcc>0.783557</vAcc></extensions></trkpt>
      <trkpt lon="-3.048696" lat="52.720872"><ele>331.408386</ele><time>2022-01-15T11:50:48Z</time><extensions><speed>0.111347</speed><course>106.750168</course><hAcc>1.794878</hAcc><vAcc>0.782875</vAcc></extensions></trkpt>
      <trkpt lon="-3.048695" lat="52.720872"><ele>331.389648</ele><time>2022-01-15T11:50:49Z</time><extensions><speed>0.066713</speed><course>101.320198</course><hAcc>1.796500</hAcc><vAcc>0.782022</vAcc></extensions></trkpt>
      <trkpt lon="-3.048694" lat="52.720872"><ele>331.379028</ele><time>2022-01-15T11:50:50Z</time><extensions><speed>0.028800</speed><course>79.686958</course><hAcc>1.799056</hAcc><vAcc>0.781038</vAcc></extensions></trkpt>
      <trkpt lon="-3.048694" lat="52.720872"><ele>331.371552</ele><time>2022-01-15T11:50:51Z</time><extensions><speed>0.024367</speed><course>343.053833</course><hAcc>1.798819</hAcc><vAcc>0.779982</vAcc></extensions></trkpt>
      <trkpt lon="-3.048694" lat="52.720873"><ele>331.366089</ele><time>2022-01-15T11:50:52Z</time><extensions><speed>0.064055</speed><course>311.158386</course><hAcc>1.788239</hAcc><vAcc>0.778781</vAcc></extensions></trkpt>
      <trkpt lon="-3.048695" lat="52.720873"><ele>331.364258</ele><time>2022-01-15T11:50:53Z</time><extensions><speed>0.111492</speed><course>303.811432</course><hAcc>1.782108</hAcc><vAcc>0.777460</vAcc></extensions></trkpt>
      <trkpt lon="-3.048697" lat="52.720874"><ele>331.364136</ele><time>2022-01-15T11:50:54Z</time><extensions><speed>0.156034</speed><course>301.656250</course><hAcc>1.782377</hAcc><vAcc>0.776090</vAcc></extensions></trkpt>
      <trkpt lon="-3.048699" lat="52.720874"><ele>331.365173</ele><time>2022-01-15T11:50:55Z</time><extensions><speed>0.180114</speed><course>302.296967</course><hAcc>1.783168</hAcc><vAcc>0.774675</vAcc></extensions></trkpt>
      <trkpt lon="-3.048701" lat="52.720875"><ele>331.368042</ele><time>2022-01-15T11:50:56Z</time><extensions><speed>0.187795</speed><course>305.862335</course><hAcc>1.771145</hAcc><vAcc>0.773263</vAcc></extensions></trkpt>
      <trkpt lon="-3.048703" lat="52.720876"><ele>331.371765</ele><time>2022-01-15T11:50:57Z</time><extensions><speed>0.153782</speed><course>312.888947</course><hAcc>1.775311</hAcc><vAcc>0.771838</vAcc></extensions></trkpt>
      <trkpt lon="-3.048704" lat="52.720877"><ele>331.373077</ele><time>2022-01-15T11:50:58Z</time><extensions><speed>0.098251</speed><course>327.440918</course><hAcc>1.797959</hAcc><vAcc>0.770623</vAcc></extensions></trkpt>
      <trkpt lon="-3.048705" lat="52.720878"><ele>331.377808</ele><time>2022-01-15T11:50:59Z</time><extensions><speed>0.079871</speed><course>355.202393</course><hAcc>1.797953</hAcc><vAcc>0.769543</vAcc></extensions></trkpt>
      <trkpt lon="-3.048704" lat="52.720879"><ele>331.384338</ele><time>2022-01-15T11:51:00Z</time><extensions><speed>0.088314</speed><course>24.080168</course><hAcc>1.792823</hAcc><vAcc>0.768469</vAcc></extensions></trkpt>
      <trkpt lon="-3.048704" lat="52.720880"><ele>331.393219</ele><time>2022-01-15T11:51:01Z</time><extensions><speed>0.117411</speed><course>39.515137</course><hAcc>1.782353</hAcc><vAcc>0.767376</vAcc></extensions></trkpt>
      <trkpt lon="-3.048702" lat="52.720880"><ele>331.415802</ele><time>2022-01-15T11:51:02Z</time><extensions><speed>0.132965</speed><course>44.309921</course><hAcc>1.788185</hAcc><vAcc>0.766250</vAcc></extensions></trkpt>
      <trkpt lon="-3.048701" lat="52.720881"><ele>331.414795</ele><time>2022-01-15T11:51:03Z</time><extensions><speed>0.140032</speed><course>41.586090</course><hAcc>1.797240</hAcc><vAcc>0.765069</vAcc></extensions></trkpt>
      <trkpt lon="-3.048700" lat="52.720882"><ele>331.440613</ele><time>2022-01-15T11:51:04Z</time><extensions><speed>0.148061</speed><course>32.349667</course><hAcc>1.803916</hAcc><vAcc>0.763941</vAcc></extensions></trkpt>
      <trkpt lon="-3.048699" lat="52.720884"><ele>331.488190</ele><time>2022-01-15T11:51:05Z</time><extensions><speed>0.164099</speed><course>18.669352</course><hAcc>1.815250</hAcc><vAcc>0.762835</vAcc></extensions></trkpt>
      <trkpt lon="-3.048698" lat="52.720885"><ele>331.511230</ele><time>2022-01-15T11:51:06Z</time><extensions><speed>0.175166</speed><course>4.423661</course><hAcc>1.832478</hAcc><vAcc>0.761757</vAcc></extensions></trkpt>
      <trkpt lon="-3.048699" lat="52.720887"><ele>331.564972</ele><time>2022-01-15T11:51:07Z</time><extensions><speed>0.213580</speed><course>349.225891</course><hAcc>1.827893</hAcc><vAcc>0.760793</vAcc></extensions></trkpt>
      <trkpt lon="-3.048700" lat="52.720889"><ele>331.626282</ele><time>2022-01-15T11:51:08Z</time><extensions><speed>0.258970</speed><course>330.536621</course><hAcc>1.830174</hAcc><vAcc>0.760005</vAcc></extensions></trkpt>
      <trkpt lon="-3.048703" lat="52.720891"><ele>331.687103</ele><time>2022-01-15T11:51:09Z</time><extensions><speed>0.361493</speed><course>313.240723</course><hAcc>1.834054</hAcc><vAcc>0.759452</vAcc></extensions></trkpt>
      <trkpt lon="-3.048708" lat="52.720893"><ele>331.777710</ele><time>2022-01-15T11:51:10Z</time><extensions><speed>0.530986</speed><course>302.354950</course><hAcc>1.835467</hAcc><vAcc>0.759239</vAcc></extensions></trkpt>
      <trkpt lon="-3.048717" lat="52.720896"><ele>331.875732</ele><time>2022-01-15T11:51:11Z</time><extensions><speed>0.754992</speed><course>295.796051</course><hAcc>1.834543</hAcc><vAcc>0.759389</vAcc></extensions></trkpt>
      <trkpt lon="-3.048729" lat="52.720899"><ele>331.972900</ele><time>2022-01-15T11:51:12Z</time><extensions><speed>1.085688</speed><course>291.684723</course><hAcc>1.829628</hAcc><vAcc>0.759898</vAcc></extensions></trkpt>
      <trkpt lon="-3.048745" lat="52.720903"><ele>332.083008</ele><time>2022-01-15T11:51:13Z</time><extensions><speed>1.252050</speed><course>291.672302</course><hAcc>1.837817</hAcc><vAcc>0.760653</vAcc></extensions></trkpt>
      <trkpt lon="-3.048763" lat="52.720908"><ele>332.191376</ele><time>2022-01-15T11:51:14Z</time><extensions><speed>1.349201</speed><course>292.585205</course><hAcc>1.836368</hAcc><vAcc>0.761667</vAcc></extensions></trkpt>
      <trkpt lon="-3.048781" lat="52.720913"><ele>332.308502</ele><time>2022-01-15T11:51:15Z</time><extensions><speed>1.334960</speed><course>294.220917</course><hAcc>1.821352</hAcc><vAcc>0.762829</vAcc></extensions></trkpt>
      <trkpt lon="-3.048798" lat="52.720918"><ele>332.441742</ele><time>2022-01-15T11:51:16Z</time><extensions><speed>1.224430</speed><course>297.460632</course><hAcc>1.808779</hAcc><vAcc>0.764045</vAcc></extensions></trkpt>
      <trkpt lon="-3.048813" lat="52.720923"><ele>332.575378</ele><time>2022-01-15T11:51:17Z</time><extensions><speed>1.108243</speed><course>301.649445</course><hAcc>1.805265</hAcc><vAcc>0.765118</vAcc></extensions></trkpt>
      <trkpt lon="-3.048826" lat="52.720928"><ele>332.719269</ele><time>2022-01-15T11:51:18Z</time><extensions><speed>0.974255</speed><course>307.742615</course><hAcc>1.797592</hAcc><vAcc>0.765924</vAcc></extensions></trkpt>
      <trkpt lon="-3.048836" lat="52.720933"><ele>332.856323</ele><time>2022-01-15T11:51:19Z</time><extensions><speed>0.832479</speed><course>316.156342</course><hAcc>1.799307</hAcc><vAcc>0.766425</vAcc></extensions></trkpt>
      <trkpt lon="-3.048843" lat="52.720939"><ele>332.997864</ele><time>2022-01-15T11:51:20Z</time><extensions><speed>0.693526</speed><course>324.833252</course><hAcc>1.813174</hAcc><vAcc>0.766615</vAcc></extensions></trkpt>
      <trkpt lon="-3.048847" lat="52.720944"><ele>333.136230</ele><time>2022-01-15T11:51:21Z</time><extensions><speed>0.576440</speed><course>339.589478</course><hAcc>1.804271</hAcc><vAcc>0.766571</vAcc></extensions></trkpt>
      <trkpt lon="-3.048850" lat="52.720949"><ele>333.280426</ele><time>2022-01-15T11:51:22Z</time><extensions><speed>0.543760</speed><course>349.832397</course><hAcc>1.797442</hAcc><vAcc>0.766427</vAcc></extensions></trkpt>
      <trkpt lon="-3.048851" lat="52.720954"><ele>333.429810</ele><time>2022-01-15T11:51:22Z</time><extensions><speed>0.745080</speed><course>351.355072</course><hAcc>1.787495</hAcc><vAcc>0.766185</vAcc></extensions></trkpt>
      <trkpt lon="-3.048853" lat="52.720961"><ele>333.559906</ele><time>2022-01-15T11:51:23Z</time><extensions><speed>0.881546</speed><course>349.523773</course><hAcc>1.798942</hAcc><vAcc>0.766002</vAcc></extensions></trkpt>
      <trkpt lon="-3.048856" lat="52.720970"><ele>333.676117</ele><time>2022-01-15T11:51:24Z</time><extensions><speed>0.939978</speed><course>348.291473</course><hAcc>1.805675</hAcc><vAcc>0.765929</vAcc></extensions></trkpt>
      <trkpt lon="-3.048858" lat="52.720978"><ele>333.811707</ele><time>2022-01-15T11:51:25Z</time><extensions><speed>0.939383</speed><course>348.514130</course><hAcc>1.804305</hAcc><vAcc>0.765925</vAcc></extensions></trkpt>
      <trkpt lon="-3.048861" lat="52.720986"><ele>333.932953</ele><time>2022-01-15T11:51:26Z</time><extensions><speed>0.909544</speed><course>349.736572</course><hAcc>1.790614</hAcc><vAcc>0.765991</vAcc></extensions></trkpt>
      <trkpt lon="-3.048863" lat="52.720994"><ele>334.050964</ele><time>2022-01-15T11:51:27Z</time><extensions><speed>0.905614</speed><course>353.356628</course><hAcc>1.773480</hAcc><vAcc>0.766127</vAcc></extensions></trkpt>
      <trkpt lon="-3.048864" lat="52.721002"><ele>334.178497</ele><time>2022-01-15T11:51:28Z</time><extensions><speed>0.944984</speed><course>356.707062</course><hAcc>1.755056</hAcc><vAcc>0.766426</vAcc></extensions></trkpt>
      <trkpt lon="-3.048864" lat="52.721011"><ele>334.292023</ele><time>2022-01-15T11:51:29Z</time><extensions><speed>0.965766</speed><course>359.861176</course><hAcc>1.738275</hAcc><vAcc>0.766846</vAcc></extensions></trkpt>
      <trkpt lon="-3.048864" lat="52.721019"><ele>334.418793</ele><time>2022-01-15T11:51:30Z</time><extensions><speed>0.962397</speed><course>2.849027</course><hAcc>1.737889</hAcc><vAcc>0.767452</vAcc></extensions></trkpt>
      <trkpt lon="-3.048863" lat="52.721028"><ele>334.526215</ele><time>2022-01-15T11:51:31Z</time><extensions><speed>0.931307</speed><course>4.459318</course><hAcc>1.754030</hAcc><vAcc>0.768127</vAcc></extensions></trkpt>
      <trkpt lon="-3.048862" lat="52.721036"><ele>334.625519</ele><time>2022-01-15T11:51:32Z</time><extensions><speed>0.871493</speed><course>6.744389</course><hAcc>1.729107</hAcc><vAcc>0.768821</vAcc></extensions></trkpt>
      <trkpt lon="-3.048860" lat="52.721043"><ele>334.727600</ele><time>2022-01-15T11:51:33Z</time><extensions><speed>0.818381</speed><course>8.656505</course><hAcc>1.728219</hAcc><vAcc>0.769583</vAcc></extensions></trkpt>
      <trkpt lon="-3.048858" lat="52.721050"><ele>334.844818</ele><time>2022-01-15T11:51:34Z</time><extensions><speed>0.769552</speed><course>14.174471</course><hAcc>1.716019</hAcc><vAcc>0.770322</vAcc></extensions></trkpt>
      <trkpt lon="-3.048855" lat="52.721057"><ele>334.942657</ele><time>2022-01-15T11:51:35Z</time><extensions><speed>0.747722</speed><course>19.669607</course><hAcc>1.705588</hAcc><vAcc>0.770994</vAcc></extensions></trkpt>
      <trkpt lon="-3.048851" lat="52.721063"><ele>335.043152</ele><time>2022-01-15T11:51:36Z</time><extensions><speed>0.737609</speed><course>23.453175</course><hAcc>1.706138</hAcc><vAcc>0.771600</vAcc></extensions></trkpt>
      <trkpt lon="-3.048846" lat="52.721069"><ele>335.155365</ele><time>2022-01-15T11:51:37Z</time><extensions><speed>0.743077</speed><course>24.637934</course><hAcc>1.724383</hAcc><vAcc>0.772084</vAcc></extensions></trkpt>
      <trkpt lon="-3.048842" lat="52.721075"><ele>335.253265</ele><time>2022-01-15T11:51:38Z</time><extensions><speed>0.773317</speed><course>23.518667</course><hAcc>1.753736</hAcc><vAcc>0.772512</vAcc></extensions></trkpt>
      <trkpt lon="-3.048837" lat="52.721082"><ele>335.347900</ele><time>2022-01-15T11:51:39Z</time><extensions><speed>0.730954</speed><course>26.530989</course><hAcc>1.739336</hAcc><vAcc>0.772839</vAcc></extensions></trkpt>
      <trkpt lon="-3.048832" lat="52.721087"><ele>335.438477</ele><time>2022-01-15T11:51:40Z</time><extensions><speed>0.703978</speed><course>30.207235</course><hAcc>1.732901</hAcc><vAcc>0.773064</vAcc></extensions></trkpt>
      <trkpt lon="-3.048827" lat="52.721092"><ele>335.517334</ele><time>2022-01-15T11:51:41Z</time><extensions><speed>0.618464</speed><course>29.459375</course><hAcc>1.721833</hAcc><vAcc>0.773284</vAcc></extensions></trkpt>
      <trkpt lon="-3.048823" lat="52.721097"><ele>335.599457</ele><time>2022-01-15T11:51:42Z</time><extensions><speed>0.623251</speed><course>29.493927</course><hAcc>1.731313</hAcc><vAcc>0.773423</vAcc></extensions></trkpt>
      <trkpt lon="-3.048818" lat="52.721102"><ele>335.649048</ele><time>2022-01-15T11:51:43Z</time><extensions><speed>0.655827</speed><course>28.850138</course><hAcc>1.761874</hAcc><vAcc>0.773478</vAcc></extensions></trkpt>
      <trkpt lon="-3.048813" lat="52.721108"><ele>335.703522</ele><time>2022-01-15T11:51:44Z</time><extensions><speed>0.656653</speed><course>25.646452</course><hAcc>1.763414</hAcc><vAcc>0.773563</vAcc></extensions></trkpt>
      <trkpt lon="-3.048809" lat="52.721113"><ele>335.740173</ele><time>2022-01-15T11:51:45Z</time><extensions><speed>0.663753</speed><course>23.672825</course><hAcc>1.757556</hAcc><vAcc>0.773630</vAcc></extensions></trkpt>
      <trkpt lon="-3.048806" lat="52.721119"><ele>335.772675</ele><time>2022-01-15T11:51:46Z</time><extensions><speed>0.665198</speed><course>20.814711</course><hAcc>1.755692</hAcc><vAcc>0.773770</vAcc></extensions></trkpt>
      <trkpt lon="-3.048802" lat="52.721124"><ele>335.781525</ele><time>2022-01-15T11:51:47Z</time><extensions><speed>0.667647</speed><course>17.819220</course><hAcc>1.750191</hAcc><vAcc>0.773970</vAcc></extensions></trkpt>
      <trkpt lon="-3.048799" lat="52.721130"><ele>335.782410</ele><time>2022-01-15T11:51:48Z</time><extensions><speed>0.698098</speed><course>16.896290</course><hAcc>1.733825</hAcc><vAcc>0.774295</vAcc></extensions></trkpt>
      <trkpt lon="-3.048796" lat="52.721136"><ele>335.770325</ele><time>2022-01-15T11:51:49Z</time><extensions><speed>0.761407</speed><course>19.058214</course><hAcc>1.721241</hAcc><vAcc>0.774813</vAcc></extensions></trkpt>
      <trkpt lon="-3.048792" lat="52.721143"><ele>335.744934</ele><time>2022-01-15T11:51:50Z</time><extensions><speed>0.777085</speed><course>22.493402</course><hAcc>1.739620</hAcc><vAcc>0.775508</vAcc></extensions></trkpt>
      <trkpt lon="-3.048787" lat="52.721149"><ele>335.704834</ele><time>2022-01-15T11:51:51Z</time><extensions><speed>0.695937</speed><course>28.472414</course><hAcc>1.767063</hAcc><vAcc>0.776362</vAcc></extensions></trkpt>
      <trkpt lon="-3.048782" lat="52.721155"><ele>335.654785</ele><time>2022-01-15T11:51:52Z</time><extensions><speed>0.762391</speed><course>30.369865</course><hAcc>1.721601</hAcc><vAcc>0.777337</vAcc></extensions></trkpt>
      <trkpt lon="-3.048776" lat="52.721160"><ele>335.577057</ele><time>2022-01-15T11:51:53Z</time><extensions><speed>0.784002</speed><course>30.812967</course><hAcc>1.695703</hAcc><vAcc>0.778412</vAcc></extensions></trkpt>
      <trkpt lon="-3.048770" lat="52.721167"><ele>335.506531</ele><time>2022-01-15T11:51:54Z</time><extensions><speed>0.812639</speed><course>31.237654</course><hAcc>1.706056</hAcc><vAcc>0.779521</vAcc></extensions></trkpt>
      <trkpt lon="-3.048763" lat="52.721173"><ele>335.413239</ele><time>2022-01-15T11:51:55Z</time><extensions><speed>0.833286</speed><course>32.592583</course><hAcc>1.709688</hAcc><vAcc>0.780604</vAcc></extensions></trkpt>
      <trkpt lon="-3.048756" lat="52.721179"><ele>335.309113</ele><time>2022-01-15T11:51:56Z</time><extensions><speed>0.896402</speed><course>34.659664</course><hAcc>1.723904</hAcc><vAcc>0.781595</vAcc></extensions></trkpt>
      <trkpt lon="-3.048749" lat="52.721186"><ele>335.217987</ele><time>2022-01-15T11:51:57Z</time><extensions><speed>0.838107</speed><course>37.406136</course><hAcc>1.698825</hAcc><vAcc>0.782456</vAcc></extensions></trkpt>
      <trkpt lon="-3.048741" lat="52.721192"><ele>335.113770</ele><time>2022-01-15T11:51:58Z</time><extensions><speed>0.849543</speed><course>39.165173</course><hAcc>1.684259</hAcc><vAcc>0.783150</vAcc></extensions></trkpt>
      <trkpt lon="-3.048733" lat="52.721198"><ele>335.004791</ele><time>2022-01-15T11:51:59Z</time><extensions><speed>0.852614</speed><course>40.122032</course><hAcc>1.680968</hAcc><vAcc>0.783613</vAcc></extensions></trkpt>
      <trkpt lon="-3.048725" lat="52.721204"><ele>334.904327</ele><time>2022-01-15T11:52:00Z</time><extensions><speed>0.857093</speed><course>40.759708</course><hAcc>1.676216</hAcc><vAcc>0.783816</vAcc></extensions></trkpt>
      <trkpt lon="-3.048716" lat="52.721210"><ele>334.797150</ele><time>2022-01-15T11:52:01Z</time><extensions><speed>0.884115</speed><course>40.478703</course><hAcc>1.684842</hAcc><vAcc>0.783846</vAcc></extensions></trkpt>
      <trkpt lon="-3.048707" lat="52.721216"><ele>334.717224</ele><time>2022-01-15T11:52:02Z</time><extensions><speed>0.936249</speed><course>41.175152</course><hAcc>1.646935</hAcc><vAcc>0.783618</vAcc></extensions></trkpt>
      <trkpt lon="-3.048698" lat="52.721222"><ele>334.620300</ele><time>2022-01-15T11:52:03Z</time><extensions><speed>0.924309</speed><course>41.373867</course><hAcc>1.650406</hAcc><vAcc>0.783189</vAcc></extensions></trkpt>
      <trkpt lon="-3.048690" lat="52.721228"><ele>334.544312</ele><time>2022-01-15T11:52:04Z</time><extensions><speed>0.847827</speed><course>40.233650</course><hAcc>1.675548</hAcc><vAcc>0.782515</vAcc></extensions></trkpt>
      <trkpt lon="-3.048682" lat="52.721234"><ele>334.467438</ele><time>2022-01-15T11:52:06Z</time><extensions><speed>0.868431</speed><course>38.616585</course><hAcc>1.653475</hAcc><vAcc>0.781674</vAcc></extensions></trkpt>
      <trkpt lon="-3.048674" lat="52.721241"><ele>334.413788</ele><time>2022-01-15T11:52:07Z</time><extensions><speed>0.909649</speed><course>35.534706</course><hAcc>1.641206</hAcc><vAcc>0.780622</vAcc></extensions></trkpt>
      <trkpt lon="-3.048666" lat="52.721248"><ele>334.347839</ele><time>2022-01-15T11:52:08Z</time><extensions><speed>0.962428</speed><course>32.490295</course><hAcc>1.663129</hAcc><vAcc>0.779435</vAcc></extensions></trkpt>
      <trkpt lon="-3.048659" lat="52.721255"><ele>334.304199</ele><time>2022-01-15T11:52:09Z</time><extensions><speed>0.981176</speed><course>29.710155</course><hAcc>1.693275</hAcc><vAcc>0.778337</vAcc></extensions></trkpt>
      <trkpt lon="-3.048652" lat="52.721263"><ele>334.283081</ele><time>2022-01-15T11:52:10Z</time><extensions><speed>1.013592</speed><course>27.071442</course><hAcc>1.676647</hAcc><vAcc>0.777341</vAcc></extensions></trkpt>
      <trkpt lon="-3.048645" lat="52.721272"><ele>334.255554</ele><time>2022-01-15T11:52:11Z</time><extensions><speed>1.078367</speed><course>26.058176</course><hAcc>1.687414</hAcc><vAcc>0.776567</vAcc></extensions></trkpt>
      <trkpt lon="-3.048638" lat="52.721280"><ele>334.240692</ele><time>2022-01-15T11:52:12Z</time><extensions><speed>1.104583</speed><course>26.302559</course><hAcc>1.723136</hAcc><vAcc>0.775999</vAcc></extensions></trkpt>
      <trkpt lon="-3.048630" lat="52.721289"><ele>334.230316</ele><time>2022-01-15T11:52:13Z</time><extensions><speed>1.112993</speed><course>25.484880</course><hAcc>1.717714</hAcc><vAcc>0.775622</vAcc></extensions></trkpt>
      <trkpt lon="-3.048623" lat="52.721298"><ele>334.224487</ele><time>2022-01-15T11:52:14Z</time><extensions><speed>1.068104</speed><course>24.893085</course><hAcc>1.716736</hAcc><vAcc>0.775424</vAcc></extensions></trkpt>
      <trkpt lon="-3.048617" lat="52.721307"><ele>334.235748</ele><time>2022-01-15T11:52:15Z</time><extensions><speed>1.032605</speed><course>24.091820</course><hAcc>1.729213</hAcc><vAcc>0.775514</vAcc></extensions></trkpt>
      <trkpt lon="-3.048611" lat="52.721315"><ele>334.264740</ele><time>2022-01-15T11:52:16Z</time><extensions><speed>0.967511</speed><course>23.620605</course><hAcc>1.754048</hAcc><vAcc>0.775728</vAcc></extensions></trkpt>
      <trkpt lon="-3.048605" lat="52.721323"><ele>334.309753</ele><time>2022-01-15T11:52:17Z</time><extensions><speed>1.007182</speed><course>22.196659</course><hAcc>1.734154</hAcc><vAcc>0.776156</vAcc></extensions></trkpt>
      <trkpt lon="-3.048600" lat="52.721332"><ele>334.344543</ele><time>2022-01-15T11:52:18Z</time><extensions><speed>1.017468</speed><course>21.543255</course><hAcc>1.731603</hAcc><vAcc>0.776624</vAcc></extensions></trkpt>
      <trkpt lon="-3.048594" lat="52.721340"><ele>334.412537</ele><time>2022-01-15T11:52:19Z</time><extensions><speed>1.009038</speed><course>23.465883</course><hAcc>1.750661</hAcc><vAcc>0.777003</vAcc></extensions></trkpt>
      <trkpt lon="-3.048587" lat="52.721348"><ele>334.482727</ele><time>2022-01-15T11:52:20Z</time><extensions><speed>0.989379</speed><course>28.763073</course><hAcc>1.751948</hAcc><vAcc>0.777318</vAcc></extensions></trkpt>
      <trkpt lon="-3.048580" lat="52.721356"><ele>334.549072</ele><time>2022-01-15T11:52:21Z</time><extensions><speed>0.940211</speed><course>34.936310</course><hAcc>1.757761</hAcc><vAcc>0.777419</vAcc></extensions></trkpt>
      <trkpt lon="-3.048571" lat="52.721362"><ele>334.620850</ele><time>2022-01-15T11:52:22Z</time><extensions><speed>0.951177</speed><course>39.014759</course><hAcc>1.756006</hAcc><vAcc>0.777263</vAcc></extensions></trkpt>
      <trkpt lon="-3.048562" lat="52.721369"><ele>334.715118</ele><time>2022-01-15T11:52:23Z</time><extensions><speed>0.948404</speed><course>41.252518</course><hAcc>1.756269</hAcc><vAcc>0.776848</vAcc></extensions></trkpt>
      <trkpt lon="-3.048553" lat="52.721376"><ele>334.800110</ele><time>2022-01-15T11:52:24Z</time><extensions><speed>1.000430</speed><course>41.903378</course><hAcc>1.761938</hAcc><vAcc>0.776192</vAcc></extensions></trkpt>
      <trkpt lon="-3.048543" lat="52.721382"><ele>334.902191</ele><time>2022-01-15T11:52:25Z</time><extensions><speed>1.014340</speed><course>41.762337</course><hAcc>1.771556</hAcc><vAcc>0.775443</vAcc></extensions></trkpt>
      <trkpt lon="-3.048533" lat="52.721389"><ele>334.993439</ele><time>2022-01-15T11:52:26Z</time><extensions><speed>0.982984</speed><course>40.617046</course><hAcc>1.770144</hAcc><vAcc>0.774583</vAcc></extensions></trkpt>
      <trkpt lon="-3.048524" lat="52.721396"><ele>335.088318</ele><time>2022-01-15T11:52:27Z</time><extensions><speed>0.941923</speed><course>40.271420</course><hAcc>1.773444</hAcc><vAcc>0.773676</vAcc></extensions></trkpt>
      <trkpt lon="-3.048515" lat="52.721402"><ele>335.175171</ele><time>2022-01-15T11:52:28Z</time><extensions><speed>0.963535</speed><course>39.329800</course><hAcc>1.762118</hAcc><vAcc>0.772720</vAcc></extensions></trkpt>
      <trkpt lon="-3.048506" lat="52.721409"><ele>335.273438</ele><time>2022-01-15T11:52:29Z</time><extensions><speed>0.968133</speed><course>37.687241</course><hAcc>1.769471</hAcc><vAcc>0.771800</vAcc></extensions></trkpt>
      <trkpt lon="-3.048497" lat="52.721416"><ele>335.355286</ele><time>2022-01-15T11:52:30Z</time><extensions><speed>0.913301</speed><course>37.214920</course><hAcc>1.791750</hAcc><vAcc>0.771013</vAcc></extensions></trkpt>
      <trkpt lon="-3.048489" lat="52.721423"><ele>335.443329</ele><time>2022-01-15T11:52:31Z</time><extensions><speed>0.906127</speed><course>34.612427</course><hAcc>1.773283</hAcc><vAcc>0.770327</vAcc></extensions></trkpt>
      <trkpt lon="-3.048482" lat="52.721429"><ele>335.519989</ele><time>2022-01-15T11:52:32Z</time><extensions><speed>0.924416</speed><course>33.207123</course><hAcc>1.761064</hAcc><vAcc>0.769717</vAcc></extensions></trkpt>
      <trkpt lon="-3.048474" lat="52.721436"><ele>335.600494</ele><time>2022-01-15T11:52:33Z</time><extensions><speed>0.924124</speed><course>31.775366</course><hAcc>1.764158</hAcc><vAcc>0.769207</vAcc></extensions></trkpt>
      <trkpt lon="-3.048467" lat="52.721444"><ele>335.671570</ele><time>2022-01-15T11:52:34Z</time><extensions><speed>0.949972</speed><course>31.310825</course><hAcc>1.779179</hAcc><vAcc>0.768869</vAcc></extensions></trkpt>
      <trkpt lon="-3.048460" lat="52.721451"><ele>335.742584</ele><time>2022-01-15T11:52:35Z</time><extensions><speed>0.935186</speed><course>31.868553</course><hAcc>1.812005</hAcc><vAcc>0.768611</vAcc></extensions></trkpt>
      <trkpt lon="-3.048452" lat="52.721458"><ele>335.806152</ele><time>2022-01-15T11:52:36Z</time><extensions><speed>0.943060</speed><course>33.368835</course><hAcc>1.787552</hAcc><vAcc>0.768497</vAcc></extensions></trkpt>
      <trkpt lon="-3.048444" lat="52.721465"><ele>335.882599</ele><time>2022-01-15T11:52:37Z</time><extensions><speed>0.961495</speed><course>35.751972</course><hAcc>1.777331</hAcc><vAcc>0.768453</vAcc></extensions></trkpt>
      <trkpt lon="-3.048436" lat="52.721472"><ele>335.961304</ele><time>2022-01-15T11:52:38Z</time><extensions><speed>0.990399</speed><course>37.745853</course><hAcc>1.779587</hAcc><vAcc>0.768443</vAcc></extensions></trkpt>
      <trkpt lon="-3.048426" lat="52.721479"><ele>336.041687</ele><time>2022-01-15T11:52:39Z</time><extensions><speed>1.014321</speed><course>38.910797</course><hAcc>1.788453</hAcc><vAcc>0.768463</vAcc></extensions></trkpt>
      <trkpt lon="-3.048417" lat="52.721486"><ele>336.118896</ele><time>2022-01-15T11:52:40Z</time><extensions><speed>1.035618</speed><course>40.326778</course><hAcc>1.795438</hAcc><vAcc>0.768552</vAcc></extensions></trkpt>
      <trkpt lon="-3.048406" lat="52.721494"><ele>336.212524</ele><time>2022-01-15T11:52:41Z</time><extensions><speed>1.055667</speed><course>41.612339</course><hAcc>1.783878</hAcc><vAcc>0.768624</vAcc></extensions></trkpt>
      <trkpt lon="-3.048396" lat="52.721501"><ele>336.325378</ele><time>2022-01-15T11:52:42Z</time><extensions><speed>1.051996</speed><course>41.387531</course><hAcc>1.771346</hAcc><vAcc>0.768639</vAcc></extensions></trkpt>
      <trkpt lon="-3.048386" lat="52.721508"><ele>336.453827</ele><time>2022-01-15T11:52:43Z</time><extensions><speed>1.055015</speed><course>40.997784</course><hAcc>1.767848</hAcc><vAcc>0.768751</vAcc></extensions></trkpt>
      <trkpt lon="-3.048375" lat="52.721515"><ele>336.582397</ele><time>2022-01-15T11:52:44Z</time><extensions><speed>1.045395</speed><course>41.680302</course><hAcc>1.770655</hAcc><vAcc>0.768852</vAcc></extensions></trkpt>
      <trkpt lon="-3.048365" lat="52.721522"><ele>336.728241</ele><time>2022-01-15T11:52:45Z</time><extensions><speed>1.046283</speed><course>42.423389</course><hAcc>1.756604</hAcc><vAcc>0.768915</vAcc></extensions></trkpt>
      <trkpt lon="-3.048354" lat="52.721529"><ele>336.887695</ele><time>2022-01-15T11:52:46Z</time><extensions><speed>1.044459</speed><course>43.101707</course><hAcc>1.759396</hAcc><vAcc>0.768949</vAcc></extensions></trkpt>
      <trkpt lon="-3.048343" lat="52.721536"><ele>337.025574</ele><time>2022-01-15T11:52:47Z</time><extensions><speed>1.120040</speed><course>43.476082</course><hAcc>1.750217</hAcc><vAcc>0.768906</vAcc></extensions></trkpt>
      <trkpt lon="-3.048332" lat="52.721544"><ele>337.186768</ele><time>2022-01-15T11:52:48Z</time><extensions><speed>1.164769</speed><course>42.524780</course><hAcc>1.730579</hAcc><vAcc>0.768846</vAcc></extensions></trkpt>
      <trkpt lon="-3.048320" lat="52.721551"><ele>337.392761</ele><time>2022-01-15T11:52:49Z</time><extensions><speed>1.148080</speed><course>40.805527</course><hAcc>1.730504</hAcc><vAcc>0.768781</vAcc></extensions></trkpt>
      <trkpt lon="-3.048309" lat="52.721559"><ele>337.610962</ele><time>2022-01-15T11:52:50Z</time><extensions><speed>1.120921</speed><course>39.554016</course><hAcc>1.743409</hAcc><vAcc>0.768709</vAcc></extensions></trkpt>
      <trkpt lon="-3.048299" lat="52.721567"><ele>337.835480</ele><time>2022-01-15T11:52:51Z</time><extensions><speed>1.077767</speed><course>38.290981</course><hAcc>1.721457</hAcc><vAcc>0.768627</vAcc></extensions></trkpt>
      <trkpt lon="-3.048289" lat="52.721574"><ele>338.046906</ele><time>2022-01-15T11:52:52Z</time><extensions><speed>1.018498</speed><course>40.459316</course><hAcc>1.710411</hAcc><vAcc>0.768534</vAcc></extensions></trkpt>
      <trkpt lon="-3.048279" lat="52.721581"><ele>338.278870</ele><time>2022-01-15T11:52:53Z</time><extensions><speed>0.990481</speed><course>44.108185</course><hAcc>1.724875</hAcc><vAcc>0.768425</vAcc></extensions></trkpt>
      <trkpt lon="-3.048269" lat="52.721587"><ele>338.538605</ele><time>2022-01-15T11:52:54Z</time><extensions><speed>1.011995</speed><course>46.752159</course><hAcc>1.737664</hAcc><vAcc>0.768249</vAcc></extensions></trkpt>
      <trkpt lon="-3.048258" lat="52.721594"><ele>338.760345</ele><time>2022-01-15T11:52:55Z</time><extensions><speed>1.049457</speed><course>47.018486</course><hAcc>1.725420</hAcc><vAcc>0.767965</vAcc></extensions></trkpt>
      <trkpt lon="-3.048246" lat="52.721600"><ele>339.013611</ele><time>2022-01-15T11:52:56Z</time><extensions><speed>1.063357</speed><course>46.819077</course><hAcc>1.731851</hAcc><vAcc>0.767602</vAcc></extensions></trkpt>
      <trkpt lon="-3.048235" lat="52.721607"><ele>339.258148</ele><time>2022-01-15T11:52:57Z</time><extensions><speed>1.061916</speed><course>46.453808</course><hAcc>1.725245</hAcc><vAcc>0.767219</vAcc></extensions></trkpt>
      <trkpt lon="-3.048223" lat="52.721613"><ele>339.504333</ele><time>2022-01-15T11:52:58Z</time><extensions><speed>1.073833</speed><course>46.095814</course><hAcc>1.733267</hAcc><vAcc>0.766793</vAcc></extensions></trkpt>
      <trkpt lon="-3.048212" lat="52.721620"><ele>339.739105</ele><time>2022-01-15T11:52:59Z</time><extensions><speed>1.061155</speed><course>45.514881</course><hAcc>1.747596</hAcc><vAcc>0.766293</vAcc></extensions></trkpt>
      <trkpt lon="-3.048201" lat="52.721627"><ele>339.976166</ele><time>2022-01-15T11:53:00Z</time><extensions><speed>0.982765</speed><course>43.470051</course><hAcc>1.744725</hAcc><vAcc>0.765731</vAcc></extensions></trkpt>
      <trkpt lon="-3.048192" lat="52.721633"><ele>340.214905</ele><time>2022-01-15T11:53:01Z</time><extensions><speed>0.906773</speed><course>42.876385</course><hAcc>1.745495</hAcc><vAcc>0.765092</vAcc></extensions></trkpt>
      <trkpt lon="-3.048183" lat="52.721638"><ele>340.437531</ele><time>2022-01-15T11:53:02Z</time><extensions><speed>0.842405</speed><course>43.690750</course><hAcc>1.751187</hAcc><vAcc>0.764446</vAcc></extensions></trkpt>
      <trkpt lon="-3.048174" lat="52.721644"><ele>340.659851</ele><time>2022-01-15T11:53:03Z</time><extensions><speed>0.823571</speed><course>43.440487</course><hAcc>1.763029</hAcc><vAcc>0.763721</vAcc></extensions></trkpt>
      <trkpt lon="-3.048166" lat="52.721649"><ele>340.867767</ele><time>2022-01-15T11:53:04Z</time><extensions><speed>0.854997</speed><course>43.271400</course><hAcc>1.752483</hAcc><vAcc>0.762949</vAcc></extensions></trkpt>
      <trkpt lon="-3.048157" lat="52.721655"><ele>341.068176</ele><time>2022-01-15T11:53:05Z</time><extensions><speed>0.893404</speed><course>44.060238</course><hAcc>1.748021</hAcc><vAcc>0.762156</vAcc></extensions></trkpt>
      <trkpt lon="-3.048148" lat="52.721661"><ele>341.271301</ele><time>2022-01-15T11:53:06Z</time><extensions><speed>0.884146</speed><course>42.986534</course><hAcc>1.763268</hAcc><vAcc>0.761351</vAcc></extensions></trkpt>
      <trkpt lon="-3.048139" lat="52.721667"><ele>341.440918</ele><time>2022-01-15T11:53:07Z</time><extensions><speed>0.875396</speed><course>43.236305</course><hAcc>1.784118</hAcc><vAcc>0.760626</vAcc></extensions></trkpt>
      <trkpt lon="-3.048131" lat="52.721673"><ele>341.604370</ele><time>2022-01-15T11:53:08Z</time><extensions><speed>0.848758</speed><course>41.209961</course><hAcc>1.773031</hAcc><vAcc>0.759996</vAcc></extensions></trkpt>
      <trkpt lon="-3.048123" lat="52.721678"><ele>341.757385</ele><time>2022-01-15T11:53:09Z</time><extensions><speed>0.787763</speed><course>37.196232</course><hAcc>1.767953</hAcc><vAcc>0.759572</vAcc></extensions></trkpt>
      <trkpt lon="-3.048116" lat="52.721684"><ele>341.892395</ele><time>2022-01-15T11:53:10Z</time><extensions><speed>0.808081</speed><course>33.624817</course><hAcc>1.772681</hAcc><vAcc>0.759373</vAcc></extensions></trkpt>
      <trkpt lon="-3.048110" lat="52.721690"><ele>342.007904</ele><time>2022-01-15T11:53:11Z</time><extensions><speed>0.845599</speed><course>31.020971</course><hAcc>1.780370</hAcc><vAcc>0.759371</vAcc></extensions></trkpt>
      <trkpt lon="-3.048103" lat="52.721697"><ele>342.122864</ele><time>2022-01-15T11:53:12Z</time><extensions><speed>0.856685</speed><course>28.975878</course><hAcc>1.786867</hAcc><vAcc>0.759544</vAcc></extensions></trkpt>
      <trkpt lon="-3.048097" lat="52.721704"><ele>342.219086</ele><time>2022-01-15T11:53:13Z</time><extensions><speed>0.894382</speed><course>28.534409</course><hAcc>1.783827</hAcc><vAcc>0.759996</vAcc></extensions></trkpt>
      <trkpt lon="-3.048091" lat="52.721711"><ele>342.305176</ele><time>2022-01-15T11:53:14Z</time><extensions><speed>0.854349</speed><course>27.354406</course><hAcc>1.779164</hAcc><vAcc>0.760738</vAcc></extensions></trkpt>
      <trkpt lon="-3.048086" lat="52.721717"><ele>342.375732</ele><time>2022-01-15T11:53:15Z</time><extensions><speed>0.793925</speed><course>24.722221</course><hAcc>1.765375</hAcc><vAcc>0.761721</vAcc></extensions></trkpt>
      <trkpt lon="-3.048081" lat="52.721724"><ele>342.432434</ele><time>2022-01-15T11:53:16Z</time><extensions><speed>0.764836</speed><course>22.951294</course><hAcc>1.750692</hAcc><vAcc>0.762936</vAcc></extensions></trkpt>
      <trkpt lon="-3.048076" lat="52.721730"><ele>342.486115</ele><time>2022-01-15T11:53:17Z</time><extensions><speed>0.801235</speed><course>23.061016</course><hAcc>1.735160</hAcc><vAcc>0.764355</vAcc></extensions></trkpt>
      <trkpt lon="-3.048072" lat="52.721737"><ele>342.514099</ele><time>2022-01-15T11:53:18Z</time><extensions><speed>0.814504</speed><course>22.190548</course><hAcc>1.729394</hAcc><vAcc>0.765939</vAcc></extensions></trkpt>
      <trkpt lon="-3.048067" lat="52.721744"><ele>342.555817</ele><time>2022-01-15T11:53:19Z</time><extensions><speed>0.799790</speed><course>22.441044</course><hAcc>1.754908</hAcc><vAcc>0.767599</vAcc></extensions></trkpt>
      <trkpt lon="-3.048063" lat="52.721750"><ele>342.575531</ele><time>2022-01-15T11:53:20Z</time><extensions><speed>0.715903</speed><course>26.181707</course><hAcc>1.786439</hAcc><vAcc>0.769315</vAcc></extensions></trkpt>
      <trkpt lon="-3.048057" lat="52.721755"><ele>342.596130</ele><time>2022-01-15T11:53:21Z</time><extensions><speed>0.654992</speed><course>33.999287</course><hAcc>1.741099</hAcc><vAcc>0.770969</vAcc></extensions></trkpt>
      <trkpt lon="-3.048052" lat="52.721760"><ele>342.627991</ele><time>2022-01-15T11:53:22Z</time><extensions><speed>0.622474</speed><course>40.590771</course><hAcc>1.730781</hAcc><vAcc>0.772553</vAcc></extensions></trkpt>
      <trkpt lon="-3.048046" lat="52.721764"><ele>342.647003</ele><time>2022-01-15T11:53:23Z</time><extensions><speed>0.617810</speed><course>44.875660</course><hAcc>1.743740</hAcc><vAcc>0.774048</vAcc></extensions></trkpt>
      <trkpt lon="-3.048039" lat="52.721768"><ele>342.653534</ele><time>2022-01-15T11:53:24Z</time><extensions><speed>0.651718</speed><course>45.279491</course><hAcc>1.765149</hAcc><vAcc>0.775494</vAcc></extensions></trkpt>
      <trkpt lon="-3.048032" lat="52.721773"><ele>342.663208</ele><time>2022-01-15T11:53:25Z</time><extensions><speed>0.742926</speed><course>42.741463</course><hAcc>1.786691</hAcc><vAcc>0.776883</vAcc></extensions></trkpt>
      <trkpt lon="-3.048025" lat="52.721778"><ele>342.666290</ele><time>2022-01-15T11:53:26Z</time><extensions><speed>0.772175</speed><course>38.177013</course><hAcc>1.798988</hAcc><vAcc>0.778188</vAcc></extensions></trkpt>
      <trkpt lon="-3.048018" lat="52.721783"><ele>342.667786</ele><time>2022-01-15T11:53:27Z</time><extensions><speed>0.729275</speed><course>34.325562</course><hAcc>1.802496</hAcc><vAcc>0.779377</vAcc></extensions></trkpt>
      <trkpt lon="-3.048012" lat="52.721788"><ele>342.654846</ele><time>2022-01-15T11:53:28Z</time><extensions><speed>0.662702</speed><course>31.175423</course><hAcc>1.797023</hAcc><vAcc>0.780503</vAcc></extensions></trkpt>
      <trkpt lon="-3.048008" lat="52.721793"><ele>342.649445</ele><time>2022-01-15T11:53:29Z</time><extensions><speed>0.610218</speed><course>29.271667</course><hAcc>1.801564</hAcc><vAcc>0.781548</vAcc></extensions></trkpt>
      <trkpt lon="-3.048003" lat="52.721798"><ele>342.615082</ele><time>2022-01-15T11:53:30Z</time><extensions><speed>0.590120</speed><course>29.145515</course><hAcc>1.799998</hAcc><vAcc>0.782546</vAcc></extensions></trkpt>
      <trkpt lon="-3.047999" lat="52.721803"><ele>342.588379</ele><time>2022-01-15T11:53:30Z</time><extensions><speed>0.589088</speed><course>28.774574</course><hAcc>1.801477</hAcc><vAcc>0.783575</vAcc></extensions></trkpt>
      <trkpt lon="-3.047995" lat="52.721807"><ele>342.558899</ele><time>2022-01-15T11:53:31Z</time><extensions><speed>0.599757</speed><course>29.342884</course><hAcc>1.808909</hAcc><vAcc>0.784525</vAcc></extensions></trkpt>
      <trkpt lon="-3.047991" lat="52.721812"><ele>342.543579</ele><time>2022-01-15T11:53:32Z</time><extensions><speed>0.559287</speed><course>27.899794</course><hAcc>1.803898</hAcc><vAcc>0.785420</vAcc></extensions></trkpt>
      <trkpt lon="-3.047987" lat="52.721816"><ele>342.541962</ele><time>2022-01-15T11:53:33Z</time><extensions><speed>0.493827</speed><course>25.253019</course><hAcc>1.806057</hAcc><vAcc>0.786306</vAcc></extensions></trkpt>
      <trkpt lon="-3.047984" lat="52.721820"><ele>342.543488</ele><time>2022-01-15T11:53:34Z</time><extensions><speed>0.430126</speed><course>24.662153</course><hAcc>1.814438</hAcc><vAcc>0.787137</vAcc></extensions></trkpt>
      <trkpt lon="-3.047982" lat="52.721823"><ele>342.577515</ele><time>2022-01-15T11:53:35Z</time><extensions><speed>0.261180</speed><course>23.350481</course><hAcc>1.813093</hAcc><vAcc>0.787879</vAcc></extensions></trkpt>
      <trkpt lon="-3.047981" lat="52.721824"><ele>342.627380</ele><time>2022-01-15T11:53:36Z</time><extensions><speed>0.088444</speed><course>16.931545</course><hAcc>1.816244</hAcc><vAcc>0.788537</vAcc></extensions></trkpt>
      <trkpt lon="-3.047981" lat="52.721825"><ele>342.668121</ele><time>2022-01-15T11:53:37Z</time><extensions><speed>0.078165</speed><course>50.741623</course><hAcc>1.819692</hAcc><vAcc>0.789119</vAcc></extensions></trkpt>
      <trkpt lon="-3.047979" lat="52.721825"><ele>342.726929</ele><time>2022-01-15T11:53:38Z</time><extensions><speed>0.216432</speed><course>63.476570</course><hAcc>1.815022</hAcc><vAcc>0.789673</vAcc></extensions></trkpt>
      <trkpt lon="-3.047974" lat="52.721827"><ele>342.825165</ele><time>2022-01-15T11:53:39Z</time><extensions><speed>0.479802</speed><course>64.308006</course><hAcc>1.805237</hAcc><vAcc>0.790183</vAcc></extensions></trkpt>
      <trkpt lon="-3.047966" lat="52.721829"><ele>342.944763</ele><time>2022-01-15T11:53:40Z</time><extensions><speed>0.714687</speed><course>67.502205</course><hAcc>1.809169</hAcc><vAcc>0.790676</vAcc></extensions></trkpt>
      <trkpt lon="-3.047955" lat="52.721832"><ele>343.058075</ele><time>2022-01-15T11:53:41Z</time><extensions><speed>0.924022</speed><course>68.858681</course><hAcc>1.808355</hAcc><vAcc>0.791140</vAcc></extensions></trkpt>
      <trkpt lon="-3.047941" lat="52.721835"><ele>343.227112</ele><time>2022-01-15T11:53:42Z</time><extensions><speed>1.064263</speed><course>70.223053</course><hAcc>1.798902</hAcc><vAcc>0.791575</vAcc></extensions></trkpt>
      <trkpt lon="-3.047926" lat="52.721838"><ele>343.416168</ele><time>2022-01-15T11:53:43Z</time><extensions><speed>1.095024</speed><course>71.255615</course><hAcc>1.790845</hAcc><vAcc>0.791983</vAcc></extensions></trkpt>
      <trkpt lon="-3.047910" lat="52.721841"><ele>343.606445</ele><time>2022-01-15T11:53:44Z</time><extensions><speed>1.080589</speed><course>72.739632</course><hAcc>1.783939</hAcc><vAcc>0.792366</vAcc></extensions></trkpt>
      <trkpt lon="-3.047895" lat="52.721844"><ele>343.820618</ele><time>2022-01-15T11:53:45Z</time><extensions><speed>1.098511</speed><course>73.443382</course><hAcc>1.776389</hAcc><vAcc>0.792718</vAcc></extensions></trkpt>
      <trkpt lon="-3.047879" lat="52.721846"><ele>344.074066</ele><time>2022-01-15T11:53:46Z</time><extensions><speed>1.080685</speed><course>75.956917</course><hAcc>1.768663</hAcc><vAcc>0.793053</vAcc></extensions></trkpt>
      <trkpt lon="-3.047864" lat="52.721848"><ele>344.343964</ele><time>2022-01-15T11:53:47Z</time><extensions><speed>1.039539</speed><course>80.300568</course><hAcc>1.764477</hAcc><vAcc>0.793353</vAcc></extensions></trkpt>
      <trkpt lon="-3.047849" lat="52.721850"><ele>344.630890</ele><time>2022-01-15T11:53:48Z</time><extensions><speed>1.007004</speed><course>83.174126</course><hAcc>1.769645</hAcc><vAcc>0.793606</vAcc></extensions></trkpt>
      <trkpt lon="-3.047835" lat="52.721851"><ele>344.923798</ele><time>2022-01-15T11:53:49Z</time><extensions><speed>0.959296</speed><course>83.712296</course><hAcc>1.770662</hAcc><vAcc>0.793821</vAcc></extensions></trkpt>
      <trkpt lon="-3.047821" lat="52.721852"><ele>345.222931</ele><time>2022-01-15T11:53:50Z</time><extensions><speed>0.947391</speed><course>83.319214</course><hAcc>1.766583</hAcc><vAcc>0.793995</vAcc></extensions></trkpt>
      <trkpt lon="-3.047806" lat="52.721853"><ele>345.537537</ele><time>2022-01-15T11:53:51Z</time><extensions><speed>0.969737</speed><course>83.658386</course><hAcc>1.767776</hAcc><vAcc>0.794165</vAcc></extensions></trkpt>
      <trkpt lon="-3.047792" lat="52.721854"><ele>345.869415</ele><time>2022-01-15T11:53:52Z</time><extensions><speed>1.036624</speed><course>83.618088</course><hAcc>1.771535</hAcc><vAcc>0.794335</vAcc></extensions></trkpt>
      <trkpt lon="-3.047776" lat="52.721855"><ele>346.203186</ele><time>2022-01-15T11:53:53Z</time><extensions><speed>1.071819</speed><course>84.041702</course><hAcc>1.772436</hAcc><vAcc>0.794488</vAcc></extensions></trkpt>
      <trkpt lon="-3.047760" lat="52.721856"><ele>346.557190</ele><time>2022-01-15T11:53:54Z</time><extensions><speed>1.107094</speed><course>84.830742</course><hAcc>1.765277</hAcc><vAcc>0.794606</vAcc></extensions></trkpt>
      <trkpt lon="-3.047743" lat="52.721856"><ele>346.929291</ele><time>2022-01-15T11:53:55Z</time><extensions><speed>1.181629</speed><course>85.559731</course><hAcc>1.758701</hAcc><vAcc>0.794737</vAcc></extensions></trkpt>
      <trkpt lon="-3.047725" lat="52.721857"><ele>347.316620</ele><time>2022-01-15T11:53:56Z</time><extensions><speed>1.242174</speed><course>86.126183</course><hAcc>1.757715</hAcc><vAcc>0.794886</vAcc></extensions></trkpt>
      <trkpt lon="-3.047706" lat="52.721858"><ele>347.687714</ele><time>2022-01-15T11:53:57Z</time><extensions><speed>1.310087</speed><course>85.823669</course><hAcc>1.755098</hAcc><vAcc>0.795002</vAcc></extensions></trkpt>
      <trkpt lon="-3.047687" lat="52.721859"><ele>348.072998</ele><time>2022-01-15T11:53:58Z</time><extensions><speed>1.303019</speed><course>85.035294</course><hAcc>1.757788</hAcc><vAcc>0.795127</vAcc></extensions></trkpt>
      <trkpt lon="-3.047668" lat="52.721860"><ele>348.448547</ele><time>2022-01-15T11:54:00Z</time><extensions><speed>1.221422</speed><course>85.090019</course><hAcc>1.757508</hAcc><vAcc>0.795178</vAcc></extensions></trkpt>
      <trkpt lon="-3.047651" lat="52.721861"><ele>348.820801</ele><time>2022-01-15T11:54:01Z</time><extensions><speed>1.208292</speed><course>85.151917</course><hAcc>1.739738</hAcc><vAcc>0.795283</vAcc></extensions></trkpt>
      <trkpt lon="-3.047633" lat="52.721862"><ele>349.204773</ele><time>2022-01-15T11:54:02Z</time><extensions><speed>1.199723</speed><course>84.838005</course><hAcc>1.730598</hAcc><vAcc>0.795374</vAcc></extensions></trkpt>
      <trkpt lon="-3.047615" lat="52.721863"><ele>349.570679</ele><time>2022-01-15T11:54:03Z</time><extensions><speed>1.224899</speed><course>85.149681</course><hAcc>1.726999</hAcc><vAcc>0.795504</vAcc></extensions></trkpt>
      <trkpt lon="-3.047597" lat="52.721864"><ele>349.916321</ele><time>2022-01-15T11:54:04Z</time><extensions><speed>1.239213</speed><course>85.480415</course><hAcc>1.728740</hAcc><vAcc>0.795633</vAcc></extensions></trkpt>
      <trkpt lon="-3.047578" lat="52.721865"><ele>350.253082</ele><time>2022-01-15T11:54:05Z</time><extensions><speed>1.249452</speed><course>85.542740</course><hAcc>1.741911</hAcc><vAcc>0.795740</vAcc></extensions></trkpt>
      <trkpt lon="-3.047560" lat="52.721865"><ele>350.618408</ele><time>2022-01-15T11:54:06Z</time><extensions><speed>1.252107</speed><course>85.489601</course><hAcc>1.749714</hAcc><vAcc>0.795798</vAcc></extensions></trkpt>
      <trkpt lon="-3.047542" lat="52.721866"><ele>350.968079</ele><time>2022-01-15T11:54:07Z</time><extensions><speed>1.210857</speed><course>86.851700</course><hAcc>1.746869</hAcc><vAcc>0.795861</vAcc></extensions></trkpt>
      <trkpt lon="-3.047524" lat="52.721867"><ele>351.324280</ele><time>2022-01-15T11:54:08Z</time><extensions><speed>1.206484</speed><course>85.972778</course><hAcc>1.747660</hAcc><vAcc>0.795962</vAcc></extensions></trkpt>
      <trkpt lon="-3.047506" lat="52.721868"><ele>351.644196</ele><time>2022-01-15T11:54:09Z</time><extensions><speed>1.155185</speed><course>84.902008</course><hAcc>1.745169</hAcc><vAcc>0.796046</vAcc></extensions></trkpt>
      <trkpt lon="-3.047490" lat="52.721869"><ele>351.943451</ele><time>2022-01-15T11:54:10Z</time><extensions><speed>1.056836</speed><course>83.147690</course><hAcc>1.746246</hAcc><vAcc>0.796133</vAcc></extensions></trkpt>
      <trkpt lon="-3.047475" lat="52.721870"><ele>352.255676</ele><time>2022-01-15T11:54:11Z</time><extensions><speed>0.969036</speed><course>81.370216</course><hAcc>1.747313</hAcc><vAcc>0.796184</vAcc></extensions></trkpt>
      <trkpt lon="-3.047461" lat="52.721872"><ele>352.555420</ele><time>2022-01-15T11:54:12Z</time><extensions><speed>0.953672</speed><course>78.509811</course><hAcc>1.756730</hAcc><vAcc>0.796191</vAcc></extensions></trkpt>
      <trkpt lon="-3.047447" lat="52.721874"><ele>352.842194</ele><time>2022-01-15T11:54:13Z</time><extensions><speed>0.974437</speed><course>75.294136</course><hAcc>1.773843</hAcc><vAcc>0.796142</vAcc></extensions></trkpt>
      <trkpt lon="-3.047433" lat="52.721876"><ele>353.089417</ele><time>2022-01-15T11:54:14Z</time><extensions><speed>1.005162</speed><course>71.008499</course><hAcc>1.762521</hAcc><vAcc>0.796032</vAcc></extensions></trkpt>
      <trkpt lon="-3.047419" lat="52.721880"><ele>353.359802</ele><time>2022-01-15T11:54:15Z</time><extensions><speed>1.057422</speed><course>66.608147</course><hAcc>1.741263</hAcc><vAcc>0.795806</vAcc></extensions></trkpt>
      <trkpt lon="-3.047405" lat="52.721884"><ele>353.614624</ele><time>2022-01-15T11:54:16Z</time><extensions><speed>1.127241</speed><course>63.722473</course><hAcc>1.740623</hAcc><vAcc>0.795548</vAcc></extensions></trkpt>
      <trkpt lon="-3.047390" lat="52.721888"><ele>353.881958</ele><time>2022-01-15T11:54:17Z</time><extensions><speed>1.138241</speed><course>62.662376</course><hAcc>1.754536</hAcc><vAcc>0.795229</vAcc></extensions></trkpt>
      <trkpt lon="-3.047375" lat="52.721893"><ele>354.134857</ele><time>2022-01-15T11:54:18Z</time><extensions><speed>1.069253</speed><course>61.960896</course><hAcc>1.751157</hAcc><vAcc>0.794869</vAcc></extensions></trkpt>
      <trkpt lon="-3.047361" lat="52.721898"><ele>354.369812</ele><time>2022-01-15T11:54:19Z</time><extensions><speed>1.101736</speed><course>59.410152</course><hAcc>1.733984</hAcc><vAcc>0.794495</vAcc></extensions></trkpt>
      <trkpt lon="-3.047347" lat="52.721903"><ele>354.609100</ele><time>2022-01-15T11:54:20Z</time><extensions><speed>1.184385</speed><course>56.648663</course><hAcc>1.725406</hAcc><vAcc>0.794129</vAcc></extensions></trkpt>
      <trkpt lon="-3.047333" lat="52.721909"><ele>354.831635</ele><time>2022-01-15T11:54:21Z</time><extensions><speed>1.198529</speed><course>52.010040</course><hAcc>1.701871</hAcc><vAcc>0.793789</vAcc></extensions></trkpt>
      <trkpt lon="-3.047319" lat="52.721916"><ele>355.044434</ele><time>2022-01-15T11:54:22Z</time><extensions><speed>1.271469</speed><course>48.240967</course><hAcc>1.674688</hAcc><vAcc>0.793499</vAcc></extensions></trkpt>
      <trkpt lon="-3.047304" lat="52.721925"><ele>355.238281</ele><time>2022-01-15T11:54:23Z</time><extensions><speed>1.421382</speed><course>47.602051</course><hAcc>1.639867</hAcc><vAcc>0.793310</vAcc></extensions></trkpt>
      <trkpt lon="-3.047289" lat="52.721933"><ele>355.433044</ele><time>2022-01-15T11:54:24Z</time><extensions><speed>1.499026</speed><course>49.023098</course><hAcc>1.583558</hAcc><vAcc>0.793208</vAcc></extensions></trkpt>
      <trkpt lon="-3.047272" lat="52.721942"><ele>355.631042</ele><time>2022-01-15T11:54:25Z</time><extensions><speed>1.545686</speed><course>51.153671</course><hAcc>1.533265</hAcc><vAcc>0.793271</vAcc></extensions></trkpt>
      <trkpt lon="-3.047254" lat="52.721950"><ele>355.828369</ele><time>2022-01-15T11:54:26Z</time><extensions><speed>1.544949</speed><course>53.043991</course><hAcc>1.531161</hAcc><vAcc>0.793443</vAcc></extensions></trkpt>
      <trkpt lon="-3.047236" lat="52.721958"><ele>356.030060</ele><time>2022-01-15T11:54:27Z</time><extensions><speed>1.488309</speed><course>55.797867</course><hAcc>1.506795</hAcc><vAcc>0.793682</vAcc></extensions></trkpt>
      <trkpt lon="-3.047219" lat="52.721965"><ele>356.234131</ele><time>2022-01-15T11:54:28Z</time><extensions><speed>1.505765</speed><course>56.917450</course><hAcc>1.476234</hAcc><vAcc>0.793972</vAcc></extensions></trkpt>
      <trkpt lon="-3.047200" lat="52.721973"><ele>356.403961</ele><time>2022-01-15T11:54:29Z</time><extensions><speed>1.515738</speed><course>57.314449</course><hAcc>1.455783</hAcc><vAcc>0.794319</vAcc></extensions></trkpt>
      <trkpt lon="-3.047182" lat="52.721979"><ele>356.577393</ele><time>2022-01-15T11:54:30Z</time><extensions><speed>1.445893</speed><course>58.156029</course><hAcc>1.429425</hAcc><vAcc>0.794703</vAcc></extensions></trkpt>
      <trkpt lon="-3.047165" lat="52.721986"><ele>356.754150</ele><time>2022-01-15T11:54:31Z</time><extensions><speed>1.449652</speed><course>56.245853</course><hAcc>1.417640</hAcc><vAcc>0.795131</vAcc></extensions></trkpt>
      <trkpt lon="-3.047147" lat="52.721994"><ele>356.927368</ele><time>2022-01-15T11:54:32Z</time><extensions><speed>1.467236</speed><course>54.116302</course><hAcc>1.415254</hAcc><vAcc>0.795591</vAcc></extensions></trkpt>
      <trkpt lon="-3.047130" lat="52.722001"><ele>357.076660</ele><time>2022-01-15T11:54:33Z</time><extensions><speed>1.404926</speed><course>55.107815</course><hAcc>1.394351</hAcc><vAcc>0.796061</vAcc></extensions></trkpt>
      <trkpt lon="-3.047114" lat="52.722008"><ele>357.230621</ele><time>2022-01-15T11:54:34Z</time><extensions><speed>1.404368</speed><course>55.645027</course><hAcc>1.390890</hAcc><vAcc>0.796532</vAcc></extensions></trkpt>
      <trkpt lon="-3.047097" lat="52.722015"><ele>357.376007</ele><time>2022-01-15T11:54:35Z</time><extensions><speed>1.424924</speed><course>53.178478</course><hAcc>1.400519</hAcc><vAcc>0.796975</vAcc></extensions></trkpt>
      <trkpt lon="-3.047082" lat="52.722022"><ele>357.542297</ele><time>2022-01-15T11:54:36Z</time><extensions><speed>1.353612</speed><course>50.909916</course><hAcc>1.386219</hAcc><vAcc>0.797401</vAcc></extensions></trkpt>
      <trkpt lon="-3.047067" lat="52.722030"><ele>357.685455</ele><time>2022-01-15T11:54:37Z</time><extensions><speed>1.331430</speed><course>50.537952</course><hAcc>1.384319</hAcc><vAcc>0.797801</vAcc></extensions></trkpt>
      <trkpt lon="-3.047051" lat="52.722037"><ele>357.832092</ele><time>2022-01-15T11:54:38Z</time><extensions><speed>1.353913</speed><course>54.061600</course><hAcc>1.381690</hAcc><vAcc>0.798219</vAcc></extensions></trkpt>
      <trkpt lon="-3.047035" lat="52.722044"><ele>357.969055</ele><time>2022-01-15T11:54:39Z</time><extensions><speed>1.383181</speed><course>56.441227</course><hAcc>1.375827</hAcc><vAcc>0.798642</vAcc></extensions></trkpt>
      <trkpt lon="-3.047018" lat="52.722051"><ele>358.073792</ele><time>2022-01-15T11:54:40Z</time><extensions><speed>1.402108</speed><course>51.563633</course><hAcc>1.384395</hAcc><vAcc>0.799046</vAcc></extensions></trkpt>
      <trkpt lon="-3.047003" lat="52.722059"><ele>358.194763</ele><time>2022-01-15T11:54:41Z</time><extensions><speed>1.432981</speed><course>48.669270</course><hAcc>1.396834</hAcc><vAcc>0.799458</vAcc></extensions></trkpt>
      <trkpt lon="-3.046987" lat="52.722067"><ele>358.310944</ele><time>2022-01-15T11:54:42Z</time><extensions><speed>1.369819</speed><course>47.887012</course><hAcc>1.385147</hAcc><vAcc>0.799886</vAcc></extensions></trkpt>
      <trkpt lon="-3.046972" lat="52.722075"><ele>358.431244</ele><time>2022-01-15T11:54:43Z</time><extensions><speed>1.366955</speed><course>51.318184</course><hAcc>1.387465</hAcc><vAcc>0.800312</vAcc></extensions></trkpt>
      <trkpt lon="-3.046957" lat="52.722082"><ele>358.541687</ele><time>2022-01-15T11:54:44Z</time><extensions><speed>1.380842</speed><course>52.298145</course><hAcc>1.399535</hAcc><vAcc>0.800747</vAcc></extensions></trkpt>
      <trkpt lon="-3.046941" lat="52.722089"><ele>358.637299</ele><time>2022-01-15T11:54:45Z</time><extensions><speed>1.331079</speed><course>52.762104</course><hAcc>1.392951</hAcc><vAcc>0.801196</vAcc></extensions></trkpt>
      <trkpt lon="-3.046926" lat="52.722096"><ele>358.740265</ele><time>2022-01-15T11:54:46Z</time><extensions><speed>1.293222</speed><course>55.369934</course><hAcc>1.386845</hAcc><vAcc>0.801632</vAcc></extensions></trkpt>
      <trkpt lon="-3.046910" lat="52.722102"><ele>358.844757</ele><time>2022-01-15T11:54:47Z</time><extensions><speed>1.413115</speed><course>57.379044</course><hAcc>1.401640</hAcc><vAcc>0.802043</vAcc></extensions></trkpt>
      <trkpt lon="-3.046892" lat="52.722109"><ele>358.936371</ele><time>2022-01-15T11:54:48Z</time><extensions><speed>1.467382</speed><course>58.434662</course><hAcc>1.412580</hAcc><vAcc>0.802428</vAcc></extensions></trkpt>
      <trkpt lon="-3.046874" lat="52.722116"><ele>359.031311</ele><time>2022-01-15T11:54:49Z</time><extensions><speed>1.452927</speed><course>59.675747</course><hAcc>1.404274</hAcc><vAcc>0.802771</vAcc></extensions></trkpt>
      <trkpt lon="-3.046856" lat="52.722122"><ele>359.125916</ele><time>2022-01-15T11:54:50Z</time><extensions><speed>1.429940</speed><course>62.847267</course><hAcc>1.401803</hAcc><vAcc>0.803131</vAcc></extensions></trkpt>
      <trkpt lon="-3.046838" lat="52.722127"><ele>359.235626</ele><time>2022-01-15T11:54:51Z</time><extensions><speed>1.385741</speed><course>63.133762</course><hAcc>1.392944</hAcc><vAcc>0.803457</vAcc></extensions></trkpt>
      <trkpt lon="-3.046820" lat="52.722133"><ele>359.341339</ele><time>2022-01-15T11:54:52Z</time><extensions><speed>1.338511</speed><course>59.907200</course><hAcc>1.388665</hAcc><vAcc>0.803752</vAcc></extensions></trkpt>
      <trkpt lon="-3.046803" lat="52.722139"><ele>359.424164</ele><time>2022-01-15T11:54:53Z</time><extensions><speed>1.435878</speed><course>56.107975</course><hAcc>1.416539</hAcc><vAcc>0.804005</vAcc></extensions></trkpt>
      <trkpt lon="-3.046786" lat="52.722146"><ele>359.529114</ele><time>2022-01-15T11:54:54Z</time><extensions><speed>1.441205</speed><course>56.305904</course><hAcc>1.417630</hAcc><vAcc>0.804230</vAcc></extensions></trkpt>
      <trkpt lon="-3.046769" lat="52.722153"><ele>359.633331</ele><time>2022-01-15T11:54:55Z</time><extensions><speed>1.399108</speed><course>57.102657</course><hAcc>1.413525</hAcc><vAcc>0.804464</vAcc></extensions></trkpt>
      <trkpt lon="-3.046752" lat="52.722159"><ele>359.731140</ele><time>2022-01-15T11:54:56Z</time><extensions><speed>1.366113</speed><course>57.391487</course><hAcc>1.413603</hAcc><vAcc>0.804706</vAcc></extensions></trkpt>
      <trkpt lon="-3.046736" lat="52.722166"><ele>359.817108</ele><time>2022-01-15T11:54:57Z</time><extensions><speed>1.352170</speed><course>57.126862</course><hAcc>1.416206</hAcc><vAcc>0.804946</vAcc></extensions></trkpt>
      <trkpt lon="-3.046720" lat="52.722172"><ele>359.887329</ele><time>2022-01-15T11:54:58Z</time><extensions><speed>1.258858</speed><course>58.430828</course><hAcc>1.395810</hAcc><vAcc>0.805195</vAcc></extensions></trkpt>
      <trkpt lon="-3.046704" lat="52.722178"><ele>359.971008</ele><time>2022-01-15T11:54:59Z</time><extensions><speed>1.326419</speed><course>56.583271</course><hAcc>1.407303</hAcc><vAcc>0.805438</vAcc></extensions></trkpt>
      <trkpt lon="-3.046689" lat="52.722184"><ele>360.025940</ele><time>2022-01-15T11:55:00Z</time><extensions><speed>1.345064</speed><course>55.322254</course><hAcc>1.406774</hAcc><vAcc>0.805664</vAcc></extensions></trkpt>
      <trkpt lon="-3.046673" lat="52.722191"><ele>360.090759</ele><time>2022-01-15T11:55:01Z</time><extensions><speed>1.373798</speed><course>54.625717</course><hAcc>1.409450</hAcc><vAcc>0.805841</vAcc></extensions></trkpt>
      <trkpt lon="-3.046657" lat="52.722198"><ele>360.139496</ele><time>2022-01-15T11:55:02Z</time><extensions><speed>1.368235</speed><course>54.674706</course><hAcc>1.395121</hAcc><vAcc>0.805991</vAcc></extensions></trkpt>
      <trkpt lon="-3.046642" lat="52.722204"><ele>360.140869</ele><time>2022-01-15T11:55:03Z</time><extensions><speed>1.312032</speed><course>55.013092</course><hAcc>1.377055</hAcc><vAcc>0.806072</vAcc></extensions></trkpt>
      <trkpt lon="-3.046627" lat="52.722211"><ele>360.166412</ele><time>2022-01-15T11:55:04Z</time><extensions><speed>1.360362</speed><course>50.971031</course><hAcc>1.380193</hAcc><vAcc>0.806077</vAcc></extensions></trkpt>
      <trkpt lon="-3.046612" lat="52.722219"><ele>360.176514</ele><time>2022-01-15T11:55:05Z</time><extensions><speed>1.367465</speed><course>49.559139</course><hAcc>1.378945</hAcc><vAcc>0.806036</vAcc></extensions></trkpt>
      <trkpt lon="-3.046597" lat="52.722227"><ele>360.193878</ele><time>2022-01-15T11:55:06Z</time><extensions><speed>1.452443</speed><course>49.142056</course><hAcc>1.383299</hAcc><vAcc>0.805939</vAcc></extensions></trkpt>
      <trkpt lon="-3.046581" lat="52.722235"><ele>360.198486</ele><time>2022-01-15T11:55:07Z</time><extensions><speed>1.414098</speed><course>50.324715</course><hAcc>1.378864</hAcc><vAcc>0.805809</vAcc></extensions></trkpt>
      <trkpt lon="-3.046565" lat="52.722242"><ele>360.212799</ele><time>2022-01-15T11:55:08Z</time><extensions><speed>1.392594</speed><course>53.827000</course><hAcc>1.381362</hAcc><vAcc>0.805633</vAcc></extensions></trkpt>
      <trkpt lon="-3.046549" lat="52.722249"><ele>360.205566</ele><time>2022-01-15T11:55:09Z</time><extensions><speed>1.309497</speed><course>53.512592</course><hAcc>1.379433</hAcc><vAcc>0.805416</vAcc></extensions></trkpt>
      <trkpt lon="-3.046535" lat="52.722256"><ele>360.213898</ele><time>2022-01-15T11:55:10Z</time><extensions><speed>1.286396</speed><course>51.485657</course><hAcc>1.386026</hAcc><vAcc>0.805174</vAcc></extensions></trkpt>
      <trkpt lon="-3.046520" lat="52.722263"><ele>360.229462</ele><time>2022-01-15T11:55:11Z</time><extensions><speed>1.295225</speed><course>50.267002</course><hAcc>1.397645</hAcc><vAcc>0.804923</vAcc></extensions></trkpt>
      <trkpt lon="-3.046506" lat="52.722270"><ele>360.272186</ele><time>2022-01-15T11:55:12Z</time><extensions><speed>1.284846</speed><course>48.357746</course><hAcc>1.402268</hAcc><vAcc>0.804676</vAcc></extensions></trkpt>
      <trkpt lon="-3.046493" lat="52.722277"><ele>360.317719</ele><time>2022-01-15T11:55:13Z</time><extensions><speed>1.185067</speed><course>48.755993</course><hAcc>1.396109</hAcc><vAcc>0.804434</vAcc></extensions></trkpt>
      <trkpt lon="-3.046480" lat="52.722285"><ele>360.367126</ele><time>2022-01-15T11:55:14Z</time><extensions><speed>1.281024</speed><course>46.668011</course><hAcc>1.404052</hAcc><vAcc>0.804232</vAcc></extensions></trkpt>
      <trkpt lon="-3.046467" lat="52.722292"><ele>360.434052</ele><time>2022-01-15T11:55:15Z</time><extensions><speed>1.329054</speed><course>47.160595</course><hAcc>1.410774</hAcc><vAcc>0.804066</vAcc></extensions></trkpt>
      <trkpt lon="-3.046453" lat="52.722300"><ele>360.525421</ele><time>2022-01-15T11:55:16Z</time><extensions><speed>1.325879</speed><course>47.174000</course><hAcc>1.413840</hAcc><vAcc>0.803959</vAcc></extensions></trkpt>
      <trkpt lon="-3.046438" lat="52.722307"><ele>360.613983</ele><time>2022-01-15T11:55:17Z</time><extensions><speed>1.339505</speed><course>50.568932</course><hAcc>1.414639</hAcc><vAcc>0.803859</vAcc></extensions></trkpt>
      <trkpt lon="-3.046423" lat="52.722314"><ele>360.704926</ele><time>2022-01-15T11:55:18Z</time><extensions><speed>1.281557</speed><course>53.675251</course><hAcc>1.404218</hAcc><vAcc>0.803796</vAcc></extensions></trkpt>
      <trkpt lon="-3.046408" lat="52.722321"><ele>360.811676</ele><time>2022-01-15T11:55:19Z</time><extensions><speed>1.340383</speed><course>55.612072</course><hAcc>1.408767</hAcc><vAcc>0.803762</vAcc></extensions></trkpt>
      <trkpt lon="-3.046392" lat="52.722327"><ele>360.934357</ele><time>2022-01-15T11:55:20Z</time><extensions><speed>1.400806</speed><course>54.143036</course><hAcc>1.418150</hAcc><vAcc>0.803753</vAcc></extensions></trkpt>
      <trkpt lon="-3.046377" lat="52.722334"><ele>361.065857</ele><time>2022-01-15T11:55:21Z</time><extensions><speed>1.262649</speed><course>52.622147</course><hAcc>1.405921</hAcc><vAcc>0.803779</vAcc></extensions></trkpt>
      <trkpt lon="-3.046363" lat="52.722341"><ele>361.198456</ele><time>2022-01-15T11:55:22Z</time><extensions><speed>1.203459</speed><course>50.398090</course><hAcc>1.404857</hAcc><vAcc>0.803844</vAcc></extensions></trkpt>
      <trkpt lon="-3.046350" lat="52.722347"><ele>361.327759</ele><time>2022-01-15T11:55:23Z</time><extensions><speed>1.238563</speed><course>49.572197</course><hAcc>1.407681</hAcc><vAcc>0.803931</vAcc></extensions></trkpt>
      <trkpt lon="-3.046337" lat="52.722355"><ele>361.463501</ele><time>2022-01-15T11:55:24Z</time><extensions><speed>1.287548</speed><course>47.272877</course><hAcc>1.410123</hAcc><vAcc>0.804049</vAcc></extensions></trkpt>
      <trkpt lon="-3.046323" lat="52.722362"><ele>361.598816</ele><time>2022-01-15T11:55:25Z</time><extensions><speed>1.322493</speed><course>44.171333</course><hAcc>1.412185</hAcc><vAcc>0.804180</vAcc></extensions></trkpt>
      <trkpt lon="-3.046311" lat="52.722370"><ele>361.698059</ele><time>2022-01-15T11:55:26Z</time><extensions><speed>1.198868</speed><course>47.346188</course><hAcc>1.401341</hAcc><vAcc>0.804319</vAcc></extensions></trkpt>
      <trkpt lon="-3.046298" lat="52.722377"><ele>361.775543</ele><time>2022-01-15T11:55:27Z</time><extensions><speed>1.242377</speed><course>50.088631</course><hAcc>1.391015</hAcc><vAcc>0.804443</vAcc></extensions></trkpt>
      <trkpt lon="-3.046284" lat="52.722383"><ele>361.867310</ele><time>2022-01-15T11:55:28Z</time><extensions><speed>1.236794</speed><course>51.066841</course><hAcc>1.381484</hAcc><vAcc>0.804562</vAcc></extensions></trkpt>
      <trkpt lon="-3.046271" lat="52.722391"><ele>361.965210</ele><time>2022-01-15T11:55:29Z</time><extensions><speed>1.327774</speed><course>49.204849</course><hAcc>1.388155</hAcc><vAcc>0.804660</vAcc></extensions></trkpt>
      <trkpt lon="-3.046257" lat="52.722398"><ele>362.058807</ele><time>2022-01-15T11:55:30Z</time><extensions><speed>1.289322</speed><course>44.210159</course><hAcc>1.381929</hAcc><vAcc>0.804731</vAcc></extensions></trkpt>
      <trkpt lon="-3.046245" lat="52.722406"><ele>362.150238</ele><time>2022-01-15T11:55:31Z</time><extensions><speed>1.308235</speed><course>40.051662</course><hAcc>1.376514</hAcc><vAcc>0.804790</vAcc></extensions></trkpt>
      <trkpt lon="-3.046233" lat="52.722415"><ele>362.233398</ele><time>2022-01-15T11:55:32Z</time><extensions><speed>1.373832</speed><course>40.939114</course><hAcc>1.376137</hAcc><vAcc>0.804814</vAcc></extensions></trkpt>
      <trkpt lon="-3.046220" lat="52.722424"><ele>362.322845</ele><time>2022-01-15T11:55:33Z</time><extensions><speed>1.381637</speed><course>42.260895</course><hAcc>1.372774</hAcc><vAcc>0.804785</vAcc></extensions></trkpt>
      <trkpt lon="-3.046207" lat="52.722433"><ele>362.421356</ele><time>2022-01-15T11:55:34Z</time><extensions><speed>1.326724</speed><course>43.556618</course><hAcc>1.370001</hAcc><vAcc>0.804699</vAcc></extensions></trkpt>
      <trkpt lon="-3.046194" lat="52.722441"><ele>362.497162</ele><time>2022-01-15T11:55:34Z</time><extensions><speed>1.293457</speed><course>43.611195</course><hAcc>1.370033</hAcc><vAcc>0.804589</vAcc></extensions></trkpt>
      <trkpt lon="-3.046181" lat="52.722449"><ele>362.590851</ele><time>2022-01-15T11:55:35Z</time><extensions><speed>1.262882</speed><course>46.159645</course><hAcc>1.374873</hAcc><vAcc>0.804447</vAcc></extensions></trkpt>
      <trkpt lon="-3.046168" lat="52.722456"><ele>362.661682</ele><time>2022-01-15T11:55:37Z</time><extensions><speed>1.267002</speed><course>46.283184</course><hAcc>1.379196</hAcc><vAcc>0.804290</vAcc></extensions></trkpt>
      <trkpt lon="-3.046155" lat="52.722464"><ele>362.729797</ele><time>2022-01-15T11:55:38Z</time><extensions><speed>1.326161</speed><course>42.442245</course><hAcc>1.389651</hAcc><vAcc>0.804109</vAcc></extensions></trkpt>
      <trkpt lon="-3.046143" lat="52.722473"><ele>362.799286</ele><time>2022-01-15T11:55:39Z</time><extensions><speed>1.301141</speed><course>40.490902</course><hAcc>1.395818</hAcc><vAcc>0.803922</vAcc></extensions></trkpt>
      <trkpt lon="-3.046131" lat="52.722481"><ele>362.869507</ele><time>2022-01-15T11:55:40Z</time><extensions><speed>1.174395</speed><course>43.467232</course><hAcc>1.381869</hAcc><vAcc>0.803722</vAcc></extensions></trkpt>
      <trkpt lon="-3.046119" lat="52.722488"><ele>362.940247</ele><time>2022-01-15T11:55:41Z</time><extensions><speed>1.243045</speed><course>44.286919</course><hAcc>1.391609</hAcc><vAcc>0.803573</vAcc></extensions></trkpt>
      <trkpt lon="-3.046107" lat="52.722495"><ele>363.027069</ele><time>2022-01-15T11:55:42Z</time><extensions><speed>1.278776</speed><course>46.508514</course><hAcc>1.393298</hAcc><vAcc>0.803500</vAcc></extensions></trkpt>
      <trkpt lon="-3.046094" lat="52.722502"><ele>363.135620</ele><time>2022-01-15T11:55:43Z</time><extensions><speed>1.241204</speed><course>46.241264</course><hAcc>1.392235</hAcc><vAcc>0.803465</vAcc></extensions></trkpt>
      <trkpt lon="-3.046081" lat="52.722509"><ele>363.281433</ele><time>2022-01-15T11:55:44Z</time><extensions><speed>1.311261</speed><course>44.874969</course><hAcc>1.402338</hAcc><vAcc>0.803441</vAcc></extensions></trkpt>
      <trkpt lon="-3.046067" lat="52.722517"><ele>363.403442</ele><time>2022-01-15T11:55:45Z</time><extensions><speed>1.398297</speed><course>45.924332</course><hAcc>1.400571</hAcc><vAcc>0.803456</vAcc></extensions></trkpt>
      <trkpt lon="-3.046054" lat="52.722525"><ele>363.510620</ele><time>2022-01-15T11:55:46Z</time><extensions><speed>1.247169</speed><course>40.828003</course><hAcc>1.386152</hAcc><vAcc>0.803500</vAcc></extensions></trkpt>
      <trkpt lon="-3.046043" lat="52.722533"><ele>363.593689</ele><time>2022-01-15T11:55:47Z</time><extensions><speed>1.353117</speed><course>35.710487</course><hAcc>1.400756</hAcc><vAcc>0.803549</vAcc></extensions></trkpt>
      <trkpt lon="-3.046032" lat="52.722543"><ele>363.654022</ele><time>2022-01-15T11:55:48Z</time><extensions><speed>1.354566</speed><course>32.812195</course><hAcc>1.414776</hAcc><vAcc>0.803612</vAcc></extensions></trkpt>
      <trkpt lon="-3.046021" lat="52.722553"><ele>363.708618</ele><time>2022-01-15T11:55:49Z</time><extensions><speed>1.340105</speed><course>31.859058</course><hAcc>1.425847</hAcc><vAcc>0.803694</vAcc></extensions></trkpt>
      <trkpt lon="-3.046010" lat="52.722562"><ele>363.778564</ele><time>2022-01-15T11:55:50Z</time><extensions><speed>1.178119</speed><course>39.845932</course><hAcc>1.432263</hAcc><vAcc>0.803764</vAcc></extensions></trkpt>
      <trkpt lon="-3.045999" lat="52.722568"><ele>363.836182</ele><time>2022-01-15T11:55:51Z</time><extensions><speed>0.912588</speed><course>55.106777</course><hAcc>1.443744</hAcc><vAcc>0.803784</vAcc></extensions></trkpt>
      <trkpt lon="-3.045989" lat="52.722572"><ele>363.856323</ele><time>2022-01-15T11:55:52Z</time><extensions><speed>0.795520</speed><course>62.736794</course><hAcc>1.483733</hAcc><vAcc>0.803726</vAcc></extensions></trkpt>
      <trkpt lon="-3.045980" lat="52.722574"><ele>363.861816</ele><time>2022-01-15T11:55:53Z</time><extensions><speed>0.503302</speed><course>78.788551</course><hAcc>1.509160</hAcc><vAcc>0.803577</vAcc></extensions></trkpt>
      <trkpt lon="-3.045976" lat="52.722573"><ele>363.837830</ele><time>2022-01-15T11:55:54Z</time><extensions><speed>0.402221</speed><course>179.249161</course><hAcc>1.533035</hAcc><vAcc>0.803342</vAcc></extensions></trkpt>
      <trkpt lon="-3.045977" lat="52.722569"><ele>363.775696</ele><time>2022-01-15T11:55:55Z</time><extensions><speed>0.415226</speed><course>198.065094</course><hAcc>1.600341</hAcc><vAcc>0.802985</vAcc></extensions></trkpt>
      <trkpt lon="-3.045980" lat="52.722564"><ele>363.692474</ele><time>2022-01-15T11:55:56Z</time><extensions><speed>0.723760</speed><course>202.656052</course><hAcc>1.595347</hAcc><vAcc>0.802452</vAcc></extensions></trkpt>
      <trkpt lon="-3.045985" lat="52.722558"><ele>363.599762</ele><time>2022-01-15T11:55:57Z</time><extensions><speed>0.796278</speed><course>203.653931</course><hAcc>1.618790</hAcc><vAcc>0.801761</vAcc></extensions></trkpt>
      <trkpt lon="-3.045989" lat="52.722551"><ele>363.493103</ele><time>2022-01-15T11:55:58Z</time><extensions><speed>0.747048</speed><course>204.255356</course><hAcc>1.659107</hAcc><vAcc>0.800946</vAcc></extensions></trkpt>
      <trkpt lon="-3.045994" lat="52.722546"><ele>363.372314</ele><time>2022-01-15T11:55:59Z</time><extensions><speed>0.666019</speed><course>205.145096</course><hAcc>1.693077</hAcc><vAcc>0.800025</vAcc></extensions></trkpt>
      <trkpt lon="-3.045998" lat="52.722541"><ele>363.247375</ele><time>2022-01-15T11:56:00Z</time><extensions><speed>0.552329</speed><course>206.582611</course><hAcc>1.718594</hAcc><vAcc>0.798880</vAcc></extensions></trkpt>
      <trkpt lon="-3.046002" lat="52.722536"><ele>363.143799</ele><time>2022-01-15T11:56:01Z</time><extensions><speed>0.544924</speed><course>208.050629</course><hAcc>1.715939</hAcc><vAcc>0.797740</vAcc></extensions></trkpt>
      <trkpt lon="-3.046005" lat="52.722532"><ele>362.994568</ele><time>2022-01-15T11:56:02Z</time><extensions><speed>0.466927</speed><course>209.128601</course><hAcc>1.726495</hAcc><vAcc>0.796467</vAcc></extensions></trkpt>
      <trkpt lon="-3.046008" lat="52.722529"><ele>362.855103</ele><time>2022-01-15T11:56:03Z</time><extensions><speed>0.418448</speed><course>209.814804</course><hAcc>1.729577</hAcc><vAcc>0.794957</vAcc></extensions></trkpt>
      <trkpt lon="-3.046012" lat="52.722525"><ele>362.714874</ele><time>2022-01-15T11:56:04Z</time><extensions><speed>0.437794</speed><course>209.121155</course><hAcc>1.714986</hAcc><vAcc>0.793284</vAcc></extensions></trkpt>
      <trkpt lon="-3.046014" lat="52.722522"><ele>362.578339</ele><time>2022-01-15T11:56:05Z</time><extensions><speed>0.406399</speed><course>205.956406</course><hAcc>1.732589</hAcc><vAcc>0.791463</vAcc></extensions></trkpt>
      <trkpt lon="-3.046016" lat="52.722519"><ele>362.447205</ele><time>2022-01-15T11:56:06Z</time><extensions><speed>0.340784</speed><course>198.881729</course><hAcc>1.772730</hAcc><vAcc>0.789534</vAcc></extensions></trkpt>
      <trkpt lon="-3.046018" lat="52.722515"><ele>362.309784</ele><time>2022-01-15T11:56:07Z</time><extensions><speed>0.492840</speed><course>191.557404</course><hAcc>1.757915</hAcc><vAcc>0.787523</vAcc></extensions></trkpt>
      <trkpt lon="-3.046019" lat="52.722512"><ele>362.189911</ele><time>2022-01-15T11:56:08Z</time><extensions><speed>0.329420</speed><course>194.994080</course><hAcc>1.763084</hAcc><vAcc>0.785519</vAcc></extensions></trkpt>
      <trkpt lon="-3.046020" lat="52.722509"><ele>362.077667</ele><time>2022-01-15T11:56:09Z</time><extensions><speed>0.227085</speed><course>192.644485</course><hAcc>1.773080</hAcc><vAcc>0.783544</vAcc></extensions></trkpt>
      <trkpt lon="-3.046020" lat="52.722508"><ele>361.974701</ele><time>2022-01-15T11:56:10Z</time><extensions><speed>0.141154</speed><course>174.532745</course><hAcc>1.784038</hAcc><vAcc>0.781618</vAcc></extensions></trkpt>
      <trkpt lon="-3.046020" lat="52.722507"><ele>361.873077</ele><time>2022-01-15T11:56:11Z</time><extensions><speed>0.118599</speed><course>123.669769</course><hAcc>1.793252</hAcc><vAcc>0.779784</vAcc></extensions></trkpt>
      <trkpt lon="-3.046017" lat="52.722507"><ele>361.757080</ele><time>2022-01-15T11:56:12Z</time><extensions><speed>0.193707</speed><course>87.613701</course><hAcc>1.800347</hAcc><vAcc>0.778066</vAcc></extensions></trkpt>
      <trkpt lon="-3.046014" lat="52.722507"><ele>361.664856</ele><time>2022-01-15T11:56:13Z</time><extensions><speed>0.276855</speed><course>73.874794</course><hAcc>1.820329</hAcc><vAcc>0.776491</vAcc></extensions></trkpt>
      <trkpt lon="-3.046009" lat="52.722508"><ele>361.581177</ele><time>2022-01-15T11:56:14Z</time><extensions><speed>0.422490</speed><course>69.535286</course><hAcc>1.816756</hAcc><vAcc>0.775172</vAcc></extensions></trkpt>
      <trkpt lon="-3.046002" lat="52.722510"><ele>361.524628</ele><time>2022-01-15T11:56:15Z</time><extensions><speed>0.574626</speed><course>68.848587</course><hAcc>1.814223</hAcc><vAcc>0.774067</vAcc></extensions></trkpt>
      <trkpt lon="-3.045993" lat="52.722512"><ele>361.444763</ele><time>2022-01-15T11:56:16Z</time><extensions><speed>0.795111</speed><course>69.161644</course><hAcc>1.809144</hAcc><vAcc>0.773170</vAcc></extensions></trkpt>
      <trkpt lon="-3.045979" lat="52.722515"><ele>361.372498</ele><time>2022-01-15T11:56:17Z</time><extensions><speed>1.135327</speed><course>69.731644</course><hAcc>1.803624</hAcc><vAcc>0.772404</vAcc></extensions></trkpt>
      <trkpt lon="-3.045962" lat="52.722519"><ele>361.303986</ele><time>2022-01-15T11:56:18Z</time><extensions><speed>1.331727</speed><course>69.208015</course><hAcc>1.806105</hAcc><vAcc>0.771624</vAcc></extensions></trkpt>
      <trkpt lon="-3.045944" lat="52.722523"><ele>361.253845</ele><time>2022-01-15T11:56:19Z</time><extensions><speed>1.418813</speed><course>65.868095</course><hAcc>1.802623</hAcc><vAcc>0.770845</vAcc></extensions></trkpt>
      <trkpt lon="-3.045925" lat="52.722529"><ele>361.197052</ele><time>2022-01-15T11:56:20Z</time><extensions><speed>1.388843</speed><course>60.356613</course><hAcc>1.798878</hAcc><vAcc>0.770023</vAcc></extensions></trkpt>
      <trkpt lon="-3.045908" lat="52.722536"><ele>361.131683</ele><time>2022-01-15T11:56:21Z</time><extensions><speed>1.332236</speed><course>54.000805</course><hAcc>1.801841</hAcc><vAcc>0.769133</vAcc></extensions></trkpt>
      <trkpt lon="-3.045892" lat="52.722543"><ele>361.090546</ele><time>2022-01-15T11:56:22Z</time><extensions><speed>1.360209</speed><course>50.322346</course><hAcc>1.793215</hAcc><vAcc>0.768085</vAcc></extensions></trkpt>
      <trkpt lon="-3.045877" lat="52.722551"><ele>361.049591</ele><time>2022-01-15T11:56:23Z</time><extensions><speed>1.400166</speed><course>48.468536</course><hAcc>1.785593</hAcc><vAcc>0.766865</vAcc></extensions></trkpt>
      <trkpt lon="-3.045861" lat="52.722559"><ele>361.014069</ele><time>2022-01-15T11:56:24Z</time><extensions><speed>1.414560</speed><course>48.899094</course><hAcc>1.782316</hAcc><vAcc>0.765449</vAcc></extensions></trkpt>
      <trkpt lon="-3.045845" lat="52.722568"><ele>360.992767</ele><time>2022-01-15T11:56:25Z</time><extensions><speed>1.446703</speed><course>50.592827</course><hAcc>1.777514</hAcc><vAcc>0.763826</vAcc></extensions></trkpt>
      <trkpt lon="-3.045828" lat="52.722576"><ele>360.955994</ele><time>2022-01-15T11:56:26Z</time><extensions><speed>1.482201</speed><course>53.393845</course><hAcc>1.773699</hAcc><vAcc>0.762038</vAcc></extensions></trkpt>
      <trkpt lon="-3.045810" lat="52.722583"><ele>360.933167</ele><time>2022-01-15T11:56:27Z</time><extensions><speed>1.449896</speed><course>55.682602</course><hAcc>1.771119</hAcc><vAcc>0.760194</vAcc></extensions></trkpt>
      <trkpt lon="-3.045793" lat="52.722590"><ele>360.907776</ele><time>2022-01-15T11:56:28Z</time><extensions><speed>1.391691</speed><course>57.846878</course><hAcc>1.763318</hAcc><vAcc>0.758424</vAcc></extensions></trkpt>
      <trkpt lon="-3.045775" lat="52.722597"><ele>360.906219</ele><time>2022-01-15T11:56:29Z</time><extensions><speed>1.363040</speed><course>60.760128</course><hAcc>1.748518</hAcc><vAcc>0.756764</vAcc></extensions></trkpt>
      <trkpt lon="-3.045758" lat="52.722602"><ele>360.910736</ele><time>2022-01-15T11:56:30Z</time><extensions><speed>1.337100</speed><course>63.507458</course><hAcc>1.735744</hAcc><vAcc>0.755251</vAcc></extensions></trkpt>
      <trkpt lon="-3.045740" lat="52.722608"><ele>360.927948</ele><time>2022-01-15T11:56:31Z</time><extensions><speed>1.324768</speed><course>63.803242</course><hAcc>1.731698</hAcc><vAcc>0.753925</vAcc></extensions></trkpt>
      <trkpt lon="-3.045723" lat="52.722613"><ele>360.938507</ele><time>2022-01-15T11:56:32Z</time><extensions><speed>1.318958</speed><course>61.481190</course><hAcc>1.733998</hAcc><vAcc>0.752713</vAcc></extensions></trkpt>
      <trkpt lon="-3.045706" lat="52.722619"><ele>360.960754</ele><time>2022-01-15T11:56:33Z</time><extensions><speed>1.264941</speed><course>61.093384</course><hAcc>1.753680</hAcc><vAcc>0.751573</vAcc></extensions></trkpt>
      <trkpt lon="-3.045690" lat="52.722624"><ele>360.994232</ele><time>2022-01-15T11:56:34Z</time><extensions><speed>1.171075</speed><course>60.471428</course><hAcc>1.772393</hAcc><vAcc>0.750513</vAcc></extensions></trkpt>
      <trkpt lon="-3.045676" lat="52.722629"><ele>361.043793</ele><time>2022-01-15T11:56:35Z</time><extensions><speed>1.025849</speed><course>62.249493</course><hAcc>1.767716</hAcc><vAcc>0.749426</vAcc></extensions></trkpt>
      <trkpt lon="-3.045664" lat="52.722632"><ele>361.121948</ele><time>2022-01-15T11:56:36Z</time><extensions><speed>0.810467</speed><course>66.653801</course><hAcc>1.756838</hAcc><vAcc>0.748212</vAcc></extensions></trkpt>
      <trkpt lon="-3.045653" lat="52.722635"><ele>361.198486</ele><time>2022-01-15T11:56:37Z</time><extensions><speed>0.748451</speed><course>70.399574</course><hAcc>1.766633</hAcc><vAcc>0.746753</vAcc></extensions></trkpt>
      <trkpt lon="-3.045642" lat="52.722637"><ele>361.289673</ele><time>2022-01-15T11:56:38Z</time><extensions><speed>0.866083</speed><course>69.331299</course><hAcc>1.798235</hAcc><vAcc>0.744972</vAcc></extensions></trkpt>
      <trkpt lon="-3.045629" lat="52.722641"><ele>361.372406</ele><time>2022-01-15T11:56:39Z</time><extensions><speed>1.081605</speed><course>66.881508</course><hAcc>1.823249</hAcc><vAcc>0.742755</vAcc></extensions></trkpt>
      <trkpt lon="-3.045613" lat="52.722645"><ele>361.480835</ele><time>2022-01-15T11:56:40Z</time><extensions><speed>1.289484</speed><course>64.944992</course><hAcc>1.832916</hAcc><vAcc>0.739985</vAcc></extensions></trkpt>
      <trkpt lon="-3.045595" lat="52.722650"><ele>361.608337</ele><time>2022-01-15T11:56:41Z</time><extensions><speed>1.419504</speed><course>63.036087</course><hAcc>1.831667</hAcc><vAcc>0.736543</vAcc></extensions></trkpt>
      <trkpt lon="-3.045576" lat="52.722656"><ele>361.749359</ele><time>2022-01-15T11:56:42Z</time><extensions><speed>1.460935</speed><course>60.576855</course><hAcc>1.824238</hAcc><vAcc>0.732353</vAcc></extensions></trkpt>
      <trkpt lon="-3.045557" lat="52.722663"><ele>361.902466</ele><time>2022-01-15T11:56:43Z</time><extensions><speed>1.488859</speed><course>59.230644</course><hAcc>1.819527</hAcc><vAcc>0.727408</vAcc></extensions></trkpt>
      <trkpt lon="-3.045538" lat="52.722670"><ele>362.047577</ele><time>2022-01-15T11:56:44Z</time><extensions><speed>1.510402</speed><course>58.887913</course><hAcc>1.820823</hAcc><vAcc>0.721741</vAcc></extensions></trkpt>
      <trkpt lon="-3.045518" lat="52.722677"><ele>362.184814</ele><time>2022-01-15T11:56:45Z</time><extensions><speed>1.522481</speed><course>58.149197</course><hAcc>1.815190</hAcc><vAcc>0.715405</vAcc></extensions></trkpt>
      <trkpt lon="-3.045500" lat="52.722685"><ele>362.324066</ele><time>2022-01-15T11:56:46Z</time><extensions><speed>1.489392</speed><course>56.076866</course><hAcc>1.800141</hAcc><vAcc>0.708506</vAcc></extensions></trkpt>
      <trkpt lon="-3.045482" lat="52.722692"><ele>362.473083</ele><time>2022-01-15T11:56:47Z</time><extensions><speed>1.390975</speed><course>53.653515</course><hAcc>1.779950</hAcc><vAcc>0.701203</vAcc></extensions></trkpt>
      <trkpt lon="-3.045466" lat="52.722699"><ele>362.617828</ele><time>2022-01-15T11:56:48Z</time><extensions><speed>1.270411</speed><course>53.889286</course><hAcc>1.763602</hAcc><vAcc>0.693621</vAcc></extensions></trkpt>
      <trkpt lon="-3.045451" lat="52.722705"><ele>362.753235</ele><time>2022-01-15T11:56:49Z</time><extensions><speed>1.139487</speed><course>55.246349</course><hAcc>1.759012</hAcc><vAcc>0.685914</vAcc></extensions></trkpt>
      <trkpt lon="-3.045438" lat="52.722711"><ele>362.880005</ele><time>2022-01-15T11:56:50Z</time><extensions><speed>1.004601</speed><course>58.132568</course><hAcc>1.768379</hAcc><vAcc>0.678212</vAcc></extensions></trkpt>
      <trkpt lon="-3.045426" lat="52.722715"><ele>363.004669</ele><time>2022-01-15T11:56:51Z</time><extensions><speed>0.926744</speed><course>61.972221</course><hAcc>1.780597</hAcc><vAcc>0.670634</vAcc></extensions></trkpt>
      <trkpt lon="-3.045414" lat="52.722719"><ele>363.117188</ele><time>2022-01-15T11:56:52Z</time><extensions><speed>0.889904</speed><course>64.987999</course><hAcc>1.795205</hAcc><vAcc>0.663241</vAcc></extensions></trkpt>
      <trkpt lon="-3.045401" lat="52.722722"><ele>363.224854</ele><time>2022-01-15T11:56:53Z</time><extensions><speed>0.945886</speed><course>67.756630</course><hAcc>1.776324</hAcc><vAcc>0.656067</vAcc></extensions></trkpt>
      <trkpt lon="-3.045387" lat="52.722725"><ele>363.314148</ele><time>2022-01-15T11:56:54Z</time><extensions><speed>1.047329</speed><course>69.015915</course><hAcc>1.778050</hAcc><vAcc>0.649082</vAcc></extensions></trkpt>
      <trkpt lon="-3.045372" lat="52.722729"><ele>363.395874</ele><time>2022-01-15T11:56:55Z</time><extensions><speed>1.165139</speed><course>70.237762</course><hAcc>1.791245</hAcc><vAcc>0.642222</vAcc></extensions></trkpt>
      <trkpt lon="-3.045355" lat="52.722732"><ele>363.471344</ele><time>2022-01-15T11:56:56Z</time><extensions><speed>1.275973</speed><course>70.498383</course><hAcc>1.800975</hAcc><vAcc>0.635428</vAcc></extensions></trkpt>
      <trkpt lon="-3.045337" lat="52.722736"><ele>363.545166</ele><time>2022-01-15T11:56:57Z</time><extensions><speed>1.335888</speed><course>69.300262</course><hAcc>1.818423</hAcc><vAcc>0.628707</vAcc></extensions></trkpt>
      <trkpt lon="-3.045318" lat="52.722741"><ele>363.613220</ele><time>2022-01-15T11:56:58Z</time><extensions><speed>1.336133</speed><course>67.589500</course><hAcc>1.839714</hAcc><vAcc>0.622149</vAcc></extensions></trkpt>
      <trkpt lon="-3.045301" lat="52.722746"><ele>363.673096</ele><time>2022-01-15T11:56:59Z</time><extensions><speed>1.274001</speed><course>65.351997</course><hAcc>1.872203</hAcc><vAcc>0.615891</vAcc></extensions></trkpt>
      <trkpt lon="-3.045284" lat="52.722750"><ele>363.729156</ele><time>2022-01-15T11:57:00Z</time><extensions><speed>1.145016</speed><course>65.003822</course><hAcc>1.892389</hAcc><vAcc>0.610078</vAcc></extensions></trkpt>
      <trkpt lon="-3.045270" lat="52.722754"><ele>363.776459</ele><time>2022-01-15T11:57:01Z</time><extensions><speed>1.032075</speed><course>66.553925</course><hAcc>1.902958</hAcc><vAcc>0.604884</vAcc></extensions></trkpt>
      <trkpt lon="-3.045257" lat="52.722758"><ele>363.816498</ele><time>2022-01-15T11:57:02Z</time><extensions><speed>0.886859</speed><course>68.994621</course><hAcc>1.920827</hAcc><vAcc>0.600590</vAcc></extensions></trkpt>
      <trkpt lon="-3.045245" lat="52.722760"><ele>363.846680</ele><time>2022-01-15T11:57:03Z</time><extensions><speed>0.848817</speed><course>66.141754</course><hAcc>1.928738</hAcc><vAcc>0.597533</vAcc></extensions></trkpt>
      <trkpt lon="-3.045234" lat="52.722764"><ele>363.869568</ele><time>2022-01-15T11:57:04Z</time><extensions><speed>0.801764</speed><course>58.036633</course><hAcc>1.943866</hAcc><vAcc>0.596024</vAcc></extensions></trkpt>
      <trkpt lon="-3.045225" lat="52.722768"><ele>363.885651</ele><time>2022-01-15T11:57:05Z</time><extensions><speed>0.765353</speed><course>48.608891</course><hAcc>1.968908</hAcc><vAcc>0.596278</vAcc></extensions></trkpt>
      <trkpt lon="-3.045217" lat="52.722773"><ele>363.894684</ele><time>2022-01-15T11:57:06Z</time><extensions><speed>0.711428</speed><course>42.094738</course><hAcc>2.008922</hAcc><vAcc>0.598350</vAcc></extensions></trkpt>
      <trkpt lon="-3.045211" lat="52.722777"><ele>363.896332</ele><time>2022-01-15T11:57:07Z</time><extensions><speed>0.604855</speed><course>38.346024</course><hAcc>2.047577</hAcc><vAcc>0.602096</vAcc></extensions></trkpt>
      <trkpt lon="-3.045206" lat="52.722781"><ele>363.890717</ele><time>2022-01-15T11:57:08Z</time><extensions><speed>0.396893</speed><course>35.720325</course><hAcc>2.043304</hAcc><vAcc>0.607289</vAcc></extensions></trkpt>
      <trkpt lon="-3.045204" lat="52.722783"><ele>363.878754</ele><time>2022-01-15T11:57:09Z</time><extensions><speed>0.137831</speed><course>32.017414</course><hAcc>2.033035</hAcc><vAcc>0.613773</vAcc></extensions></trkpt>
      <trkpt lon="-3.045203" lat="52.722783"><ele>363.861847</ele><time>2022-01-15T11:57:10Z</time><extensions><speed>0.019430</speed><course>199.985825</course><hAcc>2.015573</hAcc><vAcc>0.621465</vAcc></extensions></trkpt>
      <trkpt lon="-3.045204" lat="52.722783"><ele>363.838623</ele><time>2022-01-15T11:57:11Z</time><extensions><speed>0.110470</speed><course>199.444290</course><hAcc>1.998538</hAcc><vAcc>0.630196</vAcc></extensions></trkpt>
      <trkpt lon="-3.045204" lat="52.722781"><ele>363.813629</ele><time>2022-01-15T11:57:12Z</time><extensions><speed>0.152929</speed><course>194.096329</course><hAcc>1.979565</hAcc><vAcc>0.639736</vAcc></extensions></trkpt>
      <trkpt lon="-3.045205" lat="52.722780"><ele>363.784424</ele><time>2022-01-15T11:57:13Z</time><extensions><speed>0.157429</speed><course>189.192368</course><hAcc>1.956401</hAcc><vAcc>0.649678</vAcc></extensions></trkpt>
      <trkpt lon="-3.045205" lat="52.722779"><ele>363.754425</ele><time>2022-01-15T11:57:14Z</time><extensions><speed>0.142374</speed><course>185.452408</course><hAcc>1.928428</hAcc><vAcc>0.659645</vAcc></extensions></trkpt>
      <trkpt lon="-3.045205" lat="52.722778"><ele>363.725281</ele><time>2022-01-15T11:57:15Z</time><extensions><speed>0.116049</speed><course>181.749695</course><hAcc>1.905821</hAcc><vAcc>0.669235</vAcc></extensions></trkpt>
      <trkpt lon="-3.045205" lat="52.722777"><ele>363.701691</ele><time>2022-01-15T11:57:16Z</time><extensions><speed>0.088098</speed><course>174.465622</course><hAcc>1.892631</hAcc><vAcc>0.678001</vAcc></extensions></trkpt>
      <trkpt lon="-3.045205" lat="52.722776"><ele>363.679810</ele><time>2022-01-15T11:57:17Z</time><extensions><speed>0.071791</speed><course>161.939087</course><hAcc>1.880828</hAcc><vAcc>0.685950</vAcc></extensions></trkpt>
      <trkpt lon="-3.045204" lat="52.722775"><ele>363.653809</ele><time>2022-01-15T11:57:18Z</time><extensions><speed>0.068673</speed><course>146.998642</course><hAcc>1.871877</hAcc><vAcc>0.692631</vAcc></extensions></trkpt>
      <trkpt lon="-3.045204" lat="52.722775"><ele>363.625641</ele><time>2022-01-15T11:57:19Z</time><extensions><speed>0.077491</speed><course>136.202682</course><hAcc>1.864165</hAcc><vAcc>0.697895</vAcc></extensions></trkpt>
      <trkpt lon="-3.045203" lat="52.722774"><ele>363.586945</ele><time>2022-01-15T11:57:20Z</time><extensions><speed>0.092450</speed><course>132.248581</course><hAcc>1.855205</hAcc><vAcc>0.701963</vAcc></extensions></trkpt>
      <trkpt lon="-3.045202" lat="52.722774"><ele>363.515137</ele><time>2022-01-15T11:57:21Z</time><extensions><speed>0.102938</speed><course>135.260513</course><hAcc>1.853384</hAcc><vAcc>0.704610</vAcc></extensions></trkpt>
      <trkpt lon="-3.045201" lat="52.722773"><ele>363.463501</ele><time>2022-01-15T11:57:22Z</time><extensions><speed>0.087728</speed><course>141.599792</course><hAcc>1.869206</hAcc><vAcc>0.705540</vAcc></extensions></trkpt>
      <trkpt lon="-3.045200" lat="52.722772"><ele>363.417389</ele><time>2022-01-15T11:57:23Z</time><extensions><speed>0.069439</speed><course>155.418976</course><hAcc>1.868985</hAcc><vAcc>0.705152</vAcc></extensions></trkpt>
      <trkpt lon="-3.045200" lat="52.722772"><ele>363.378479</ele><time>2022-01-15T11:57:24Z</time><extensions><speed>0.058434</speed><course>185.967468</course><hAcc>1.869138</hAcc><vAcc>0.703597</vAcc></extensions></trkpt>
      <trkpt lon="-3.045200" lat="52.722771"><ele>363.335083</ele><time>2022-01-15T11:57:25Z</time><extensions><speed>0.077663</speed><course>207.508102</course><hAcc>1.875249</hAcc><vAcc>0.700969</vAcc></extensions></trkpt>
      <trkpt lon="-3.045201" lat="52.722770"><ele>363.291351</ele><time>2022-01-15T11:57:26Z</time><extensions><speed>0.116289</speed><course>206.940933</course><hAcc>1.885687</hAcc><vAcc>0.697505</vAcc></extensions></trkpt>
      <trkpt lon="-3.045202" lat="52.722769"><ele>363.244598</ele><time>2022-01-15T11:57:27Z</time><extensions><speed>0.163372</speed><course>199.187759</course><hAcc>1.901231</hAcc><vAcc>0.693469</vAcc></extensions></trkpt>
      <trkpt lon="-3.045202" lat="52.722768"><ele>363.200470</ele><time>2022-01-15T11:57:28Z</time><extensions><speed>0.223210</speed><course>191.553680</course><hAcc>1.908511</hAcc><vAcc>0.689219</vAcc></extensions></trkpt>
      <trkpt lon="-3.045203" lat="52.722765"><ele>363.162994</ele><time>2022-01-15T11:57:29Z</time><extensions><speed>0.276210</speed><course>184.150955</course><hAcc>1.913299</hAcc><vAcc>0.685070</vAcc></extensions></trkpt>
      <trkpt lon="-3.045203" lat="52.722763"><ele>363.127991</ele><time>2022-01-15T11:57:30Z</time><extensions><speed>0.321663</speed><course>175.027618</course><hAcc>1.916348</hAcc><vAcc>0.681365</vAcc></extensions></trkpt>
      <trkpt lon="-3.045201" lat="52.722760"><ele>363.095978</ele><time>2022-01-15T11:57:31Z</time><extensions><speed>0.360318</speed><course>163.745621</course><hAcc>1.925439</hAcc><vAcc>0.678403</vAcc></extensions></trkpt>
      <trkpt lon="-3.045200" lat="52.722756"><ele>363.069977</ele><time>2022-01-15T11:57:32Z</time><extensions><speed>0.395681</speed><course>161.303604</course><hAcc>1.947265</hAcc><vAcc>0.676294</vAcc></extensions></trkpt>
      <trkpt lon="-3.045197" lat="52.722753"><ele>363.030487</ele><time>2022-01-15T11:57:33Z</time><extensions><speed>0.496951</speed><course>152.852264</course><hAcc>1.926901</hAcc><vAcc>0.675172</vAcc></extensions></trkpt>
      <trkpt lon="-3.045193" lat="52.722749"><ele>363.010529</ele><time>2022-01-15T11:57:34Z</time><extensions><speed>0.537485</speed><course>142.218094</course><hAcc>1.909359</hAcc><vAcc>0.674779</vAcc></extensions></trkpt>
      <trkpt lon="-3.045187" lat="52.722745"><ele>362.989868</ele><time>2022-01-15T11:57:35Z</time><extensions><speed>0.572574</speed><course>130.585266</course><hAcc>1.899766</hAcc><vAcc>0.674629</vAcc></extensions></trkpt>
      <trkpt lon="-3.045180" lat="52.722742"><ele>362.973724</ele><time>2022-01-15T11:57:36Z</time><extensions><speed>0.626851</speed><course>119.100121</course><hAcc>1.894166</hAcc><vAcc>0.674222</vAcc></extensions></trkpt>
      <trkpt lon="-3.045171" lat="52.722740"><ele>362.963196</ele><time>2022-01-15T11:57:37Z</time><extensions><speed>0.693606</speed><course>109.616127</course><hAcc>1.891639</hAcc><vAcc>0.673065</vAcc></extensions></trkpt>
      <trkpt lon="-3.045160" lat="52.722738"><ele>362.952362</ele><time>2022-01-15T11:57:38Z</time><extensions><speed>0.757646</speed><course>102.937119</course><hAcc>1.890832</hAcc><vAcc>0.670757</vAcc></extensions></trkpt>
      <trkpt lon="-3.045149" lat="52.722737"><ele>362.940796</ele><time>2022-01-15T11:57:39Z</time><extensions><speed>0.797112</speed><course>98.429146</course><hAcc>1.897099</hAcc><vAcc>0.667028</vAcc></extensions></trkpt>
      <trkpt lon="-3.045137" lat="52.722736"><ele>362.935089</ele><time>2022-01-15T11:57:40Z</time><extensions><speed>0.782147</speed><course>94.616409</course><hAcc>1.917376</hAcc><vAcc>0.661758</vAcc></extensions></trkpt>
      <trkpt lon="-3.045126" lat="52.722736"><ele>362.925171</ele><time>2022-01-15T11:57:41Z</time><extensions><speed>0.772055</speed><course>89.868256</course><hAcc>1.944178</hAcc><vAcc>0.654975</vAcc></extensions></trkpt>
      <trkpt lon="-3.045114" lat="52.722736"><ele>362.922729</ele><time>2022-01-15T11:57:42Z</time><extensions><speed>0.794714</speed><course>83.920837</course><hAcc>1.975330</hAcc><vAcc>0.646814</vAcc></extensions></trkpt>
      <trkpt lon="-3.045102" lat="52.722737"><ele>362.923553</ele><time>2022-01-15T11:57:43Z</time><extensions><speed>0.915887</speed><course>78.225121</course><hAcc>2.005256</hAcc><vAcc>0.637531</vAcc></extensions></trkpt>
      <trkpt lon="-3.045088" lat="52.722739"><ele>362.930634</ele><time>2022-01-15T11:57:44Z</time><extensions><speed>1.053819</speed><course>75.098793</course><hAcc>2.039152</hAcc><vAcc>0.627487</vAcc></extensions></trkpt>
      <trkpt lon="-3.045073" lat="52.722742"><ele>362.943054</ele><time>2022-01-15T11:57:45Z</time><extensions><speed>1.050132</speed><course>71.780090</course><hAcc>2.096671</hAcc><vAcc>0.617145</vAcc></extensions></trkpt>
      <trkpt lon="-3.045059" lat="52.722745"><ele>362.958130</ele><time>2022-01-15T11:57:46Z</time><extensions><speed>0.983041</speed><course>68.529900</course><hAcc>2.162098</hAcc><vAcc>0.607041</vAcc></extensions></trkpt>
      <trkpt lon="-3.045046" lat="52.722748"><ele>362.972778</ele><time>2022-01-15T11:57:47Z</time><extensions><speed>0.903951</speed><course>64.234581</course><hAcc>2.220672</hAcc><vAcc>0.597724</vAcc></extensions></trkpt>
      <trkpt lon="-3.045034" lat="52.722752"><ele>362.983734</ele><time>2022-01-15T11:57:48Z</time><extensions><speed>0.820581</speed><course>59.012012</course><hAcc>2.265077</hAcc><vAcc>0.589712</vAcc></extensions></trkpt>
      <trkpt lon="-3.045024" lat="52.722756"><ele>362.988098</ele><time>2022-01-15T11:57:49Z</time><extensions><speed>0.782911</speed><course>54.826408</course><hAcc>2.291591</hAcc><vAcc>0.583376</vAcc></extensions></trkpt>
      <trkpt lon="-3.045015" lat="52.722760"><ele>362.990112</ele><time>2022-01-15T11:57:50Z</time><extensions><speed>0.764433</speed><course>51.620289</course><hAcc>2.308780</hAcc><vAcc>0.578849</vAcc></extensions></trkpt>
      <trkpt lon="-3.045007" lat="52.722764"><ele>362.990967</ele><time>2022-01-15T11:57:51Z</time><extensions><speed>0.745315</speed><course>50.163074</course><hAcc>2.322186</hAcc><vAcc>0.576024</vAcc></extensions></trkpt>
      <trkpt lon="-3.044998" lat="52.722769"><ele>362.987915</ele><time>2022-01-15T11:57:52Z</time><extensions><speed>0.767869</speed><course>51.325394</course><hAcc>2.333207</hAcc><vAcc>0.574662</vAcc></extensions></trkpt>
      <trkpt lon="-3.044989" lat="52.722773"><ele>362.977844</ele><time>2022-01-15T11:57:53Z</time><extensions><speed>0.742559</speed><course>52.103703</course><hAcc>2.345788</hAcc><vAcc>0.574481</vAcc></extensions></trkpt>
      <trkpt lon="-3.044981" lat="52.722777"><ele>362.963745</ele><time>2022-01-15T11:57:54Z</time><extensions><speed>0.696220</speed><course>51.910480</course><hAcc>2.339276</hAcc><vAcc>0.575173</vAcc></extensions></trkpt>
      <trkpt lon="-3.044973" lat="52.722781"><ele>362.946167</ele><time>2022-01-15T11:57:55Z</time><extensions><speed>0.609592</speed><course>53.090782</course><hAcc>2.303642</hAcc><vAcc>0.576514</vAcc></extensions></trkpt>
      <trkpt lon="-3.044967" lat="52.722784"><ele>362.926208</ele><time>2022-01-15T11:57:56Z</time><extensions><speed>0.497018</speed><course>55.506416</course><hAcc>2.273978</hAcc><vAcc>0.578481</vAcc></extensions></trkpt>
      <trkpt lon="-3.044961" lat="52.722786"><ele>362.905518</ele><time>2022-01-15T11:57:57Z</time><extensions><speed>0.359917</speed><course>57.869976</course><hAcc>2.255073</hAcc><vAcc>0.581321</vAcc></extensions></trkpt>
      <trkpt lon="-3.044958" lat="52.722787"><ele>362.884247</ele><time>2022-01-15T11:57:58Z</time><extensions><speed>0.188906</speed><course>60.770737</course><hAcc>2.228481</hAcc><vAcc>0.585544</vAcc></extensions></trkpt>
      <trkpt lon="-3.044956" lat="52.722787"><ele>362.865936</ele><time>2022-01-15T11:57:59Z</time><extensions><speed>0.091809</speed><course>58.576057</course><hAcc>2.171014</hAcc><vAcc>0.591814</vAcc></extensions></trkpt>
      <trkpt lon="-3.044956" lat="52.722788"><ele>362.849213</ele><time>2022-01-15T11:58:00Z</time><extensions><speed>0.041509</speed><course>25.605350</course><hAcc>2.090658</hAcc><vAcc>0.600852</vAcc></extensions></trkpt>
      <trkpt lon="-3.044956" lat="52.722788"><ele>362.838623</ele><time>2022-01-15T11:58:01Z</time><extensions><speed>0.043816</speed><course>339.591217</course><hAcc>2.012233</hAcc><vAcc>0.612946</vAcc></extensions></trkpt>
      <trkpt lon="-3.044956" lat="52.722788"><ele>362.832123</ele><time>2022-01-15T11:58:02Z</time><extensions><speed>0.051523</speed><course>327.764771</course><hAcc>1.945761</hAcc><vAcc>0.627756</vAcc></extensions></trkpt>
      <trkpt lon="-3.044956" lat="52.722788"><ele>362.821014</ele><time>2022-01-15T11:58:03Z</time><extensions><speed>0.045171</speed><course>322.323517</course><hAcc>1.896212</hAcc><vAcc>0.644371</vAcc></extensions></trkpt>
      <trkpt lon="-3.044957" lat="52.722789"><ele>362.816956</ele><time>2022-01-15T11:58:04Z</time><extensions><speed>0.025794</speed><course>293.646545</course><hAcc>1.872239</hAcc><vAcc>0.661762</vAcc></extensions></trkpt>
      <trkpt lon="-3.044957" lat="52.722789"><ele>362.815338</ele><time>2022-01-15T11:58:05Z</time><extensions><speed>0.038103</speed><course>228.675217</course><hAcc>1.846603</hAcc><vAcc>0.679043</vAcc></extensions></trkpt>
      <trkpt lon="-3.044958" lat="52.722788"><ele>362.801819</ele><time>2022-01-15T11:58:06Z</time><extensions><speed>0.116073</speed><course>211.947998</course><hAcc>1.775830</hAcc><vAcc>0.695427</vAcc></extensions></trkpt>
      <trkpt lon="-3.044959" lat="52.722787"><ele>362.792877</ele><time>2022-01-15T11:58:07Z</time><extensions><speed>0.182237</speed><course>208.120056</course><hAcc>1.742567</hAcc><vAcc>0.710429</vAcc></extensions></trkpt>
      <trkpt lon="-3.044960" lat="52.722785"><ele>362.793884</ele><time>2022-01-15T11:58:08Z</time><extensions><speed>0.212946</speed><course>208.431503</course><hAcc>1.744940</hAcc><vAcc>0.723716</vAcc></extensions></trkpt>
      <trkpt lon="-3.044962" lat="52.722784"><ele>362.799072</ele><time>2022-01-15T11:58:09Z</time><extensions><speed>0.205418</speed><course>212.476242</course><hAcc>1.750878</hAcc><vAcc>0.735205</vAcc></extensions></trkpt>
      <trkpt lon="-3.044964" lat="52.722783"><ele>362.785706</ele><time>2022-01-15T11:58:10Z</time><extensions><speed>0.168847</speed><course>219.439926</course><hAcc>1.751711</hAcc><vAcc>0.744873</vAcc></extensions></trkpt>
      <trkpt lon="-3.044965" lat="52.722782"><ele>362.780396</ele><time>2022-01-15T11:58:11Z</time><extensions><speed>0.112482</speed><course>235.267807</course><hAcc>1.755124</hAcc><vAcc>0.752726</vAcc></extensions></trkpt>
      <trkpt lon="-3.044966" lat="52.722782"><ele>362.728638</ele><time>2022-01-15T11:58:12Z</time><extensions><speed>0.076816</speed><course>280.416626</course><hAcc>1.760993</hAcc><vAcc>0.758775</vAcc></extensions></trkpt>
      <trkpt lon="-3.044967" lat="52.722782"><ele>362.683502</ele><time>2022-01-15T11:58:13Z</time><extensions><speed>0.113692</speed><course>323.479370</course><hAcc>1.740391</hAcc><vAcc>0.763283</vAcc></extensions></trkpt>
      <trkpt lon="-3.044968" lat="52.722783"><ele>362.636932</ele><time>2022-01-15T11:58:14Z</time><extensions><speed>0.157538</speed><course>344.684937</course><hAcc>1.727492</hAcc><vAcc>0.766278</vAcc></extensions></trkpt>
      <trkpt lon="-3.044968" lat="52.722785"><ele>362.595093</ele><time>2022-01-15T11:58:15Z</time><extensions><speed>0.207366</speed><course>0.047599</course><hAcc>1.716648</hAcc><vAcc>0.767906</vAcc></extensions></trkpt>
      <trkpt lon="-3.044968" lat="52.722787"><ele>362.548859</ele><time>2022-01-15T11:58:16Z</time><extensions><speed>0.303972</speed><course>12.196939</course><hAcc>1.700471</hAcc><vAcc>0.768360</vAcc></extensions></trkpt>
      <trkpt lon="-3.044967" lat="52.722790"><ele>362.497437</ele><time>2022-01-15T11:58:17Z</time><extensions><speed>0.217433</speed><course>7.167732</course><hAcc>1.730799</hAcc><vAcc>0.767971</vAcc></extensions></trkpt>
      <trkpt lon="-3.044967" lat="52.722792"><ele>362.453156</ele><time>2022-01-15T11:58:18Z</time><extensions><speed>0.226371</speed><course>6.973289</course><hAcc>1.731332</hAcc><vAcc>0.766984</vAcc></extensions></trkpt>
      <trkpt lon="-3.044966" lat="52.722794"><ele>362.408203</ele><time>2022-01-15T11:58:19Z</time><extensions><speed>0.250256</speed><course>8.241746</course><hAcc>1.731969</hAcc><vAcc>0.765677</vAcc></extensions></trkpt>
      <trkpt lon="-3.044966" lat="52.722796"><ele>362.355103</ele><time>2022-01-15T11:58:20Z</time><extensions><speed>0.294341</speed><course>8.754653</course><hAcc>1.742487</hAcc><vAcc>0.764436</vAcc></extensions></trkpt>
      <trkpt lon="-3.044965" lat="52.722800"><ele>362.293884</ele><time>2022-01-15T11:58:21Z</time><extensions><speed>0.393845</speed><course>7.500846</course><hAcc>1.746425</hAcc><vAcc>0.763338</vAcc></extensions></trkpt>
      <trkpt lon="-3.044964" lat="52.722804"><ele>362.239685</ele><time>2022-01-15T11:58:22Z</time><extensions><speed>0.621904</speed><course>5.839200</course><hAcc>1.737463</hAcc><vAcc>0.762494</vAcc></extensions></trkpt>
      <trkpt lon="-3.044963" lat="52.722811"><ele>362.192596</ele><time>2022-01-15T11:58:23Z</time><extensions><speed>0.825772</speed><course>4.901870</course><hAcc>1.763795</hAcc><vAcc>0.762205</vAcc></extensions></trkpt>
      <trkpt lon="-3.044963" lat="52.722818"><ele>362.155548</ele><time>2022-01-15T11:58:24Z</time><extensions><speed>0.946699</speed><course>1.817850</course><hAcc>1.783790</hAcc><vAcc>0.762495</vAcc></extensions></trkpt>
      <trkpt lon="-3.044963" lat="52.722827"><ele>362.121368</ele><time>2022-01-15T11:58:25Z</time><extensions><speed>0.922142</speed><course>356.488739</course><hAcc>1.791235</hAcc><vAcc>0.763381</vAcc></extensions></trkpt>
      <trkpt lon="-3.044964" lat="52.722834"><ele>362.104828</ele><time>2022-01-15T11:58:26Z</time><extensions><speed>0.790453</speed><course>349.620667</course><hAcc>1.791809</hAcc><vAcc>0.764846</vAcc></extensions></trkpt>
      <trkpt lon="-3.044967" lat="52.722841"><ele>362.095123</ele><time>2022-01-15T11:58:27Z</time><extensions><speed>0.609173</speed><course>342.086945</course><hAcc>1.791117</hAcc><vAcc>0.766814</vAcc></extensions></trkpt>
      <trkpt lon="-3.044969" lat="52.722845"><ele>362.093506</ele><time>2022-01-15T11:58:28Z</time><extensions><speed>0.419516</speed><course>335.526367</course><hAcc>1.799142</hAcc><vAcc>0.769217</vAcc></extensions></trkpt>
      <trkpt lon="-3.044972" lat="52.722847"><ele>362.098358</ele><time>2022-01-15T11:58:29Z</time><extensions><speed>0.193293</speed><course>318.701263</course><hAcc>1.811943</hAcc><vAcc>0.771977</vAcc></extensions></trkpt>
      <trkpt lon="-3.044974" lat="52.722848"><ele>362.109283</ele><time>2022-01-15T11:58:30Z</time><extensions><speed>0.121246</speed><course>283.559143</course><hAcc>1.802095</hAcc><vAcc>0.775018</vAcc></extensions></trkpt>
      <trkpt lon="-3.044975" lat="52.722848"><ele>362.126160</ele><time>2022-01-15T11:58:31Z</time><extensions><speed>0.113263</speed><course>249.316086</course><hAcc>1.789610</hAcc><vAcc>0.778173</vAcc></extensions></trkpt>
      <trkpt lon="-3.044977" lat="52.722847"><ele>362.130646</ele><time>2022-01-15T11:58:32Z</time><extensions><speed>0.118868</speed><course>225.529495</course><hAcc>1.780052</hAcc><vAcc>0.781332</vAcc></extensions></trkpt>
      <trkpt lon="-3.044978" lat="52.722846"><ele>362.136353</ele><time>2022-01-15T11:58:33Z</time><extensions><speed>0.113898</speed><course>205.507202</course><hAcc>1.780499</hAcc><vAcc>0.784329</vAcc></extensions></trkpt>
      <trkpt lon="-3.044978" lat="52.722845"><ele>362.140320</ele><time>2022-01-15T11:58:34Z</time><extensions><speed>0.115646</speed><course>186.589233</course><hAcc>1.776949</hAcc><vAcc>0.787157</vAcc></extensions></trkpt>
      <trkpt lon="-3.044978" lat="52.722844"><ele>362.148804</ele><time>2022-01-15T11:58:35Z</time><extensions><speed>0.118833</speed><course>171.627533</course><hAcc>1.769678</hAcc><vAcc>0.789750</vAcc></extensions></trkpt>
      <trkpt lon="-3.044977" lat="52.722843"><ele>362.152924</ele><time>2022-01-15T11:58:36Z</time><extensions><speed>0.124727</speed><course>159.281799</course><hAcc>1.757607</hAcc><vAcc>0.791999</vAcc></extensions></trkpt>
      <trkpt lon="-3.044977" lat="52.722842"><ele>362.161224</ele><time>2022-01-15T11:58:37Z</time><extensions><speed>0.132175</speed><course>150.341263</course><hAcc>1.745311</hAcc><vAcc>0.793802</vAcc></extensions></trkpt>
      <trkpt lon="-3.044975" lat="52.722841"><ele>362.178223</ele><time>2022-01-15T11:58:38Z</time><extensions><speed>0.135918</speed><course>144.576843</course><hAcc>1.737443</hAcc><vAcc>0.795165</vAcc></extensions></trkpt>
      <trkpt lon="-3.044974" lat="52.722840"><ele>362.187134</ele><time>2022-01-15T11:58:39Z</time><extensions><speed>0.134154</speed><course>139.778534</course><hAcc>1.744369</hAcc><vAcc>0.796112</vAcc></extensions></trkpt>
      <trkpt lon="-3.044973" lat="52.722839"><ele>362.184326</ele><time>2022-01-15T11:58:40Z</time><extensions><speed>0.118911</speed><course>134.894012</course><hAcc>1.768179</hAcc><vAcc>0.796609</vAcc></extensions></trkpt>
      <trkpt lon="-3.044972" lat="52.722839"><ele>362.170197</ele><time>2022-01-15T11:58:41Z</time><extensions><speed>0.152393</speed><course>129.708755</course><hAcc>1.749993</hAcc><vAcc>0.796672</vAcc></extensions></trkpt>
      <trkpt lon="-3.044970" lat="52.722838"><ele>362.179138</ele><time>2022-01-15T11:58:42Z</time><extensions><speed>0.149670</speed><course>121.789017</course><hAcc>1.745756</hAcc><vAcc>0.796333</vAcc></extensions></trkpt>
      <trkpt lon="-3.044968" lat="52.722837"><ele>362.157928</ele><time>2022-01-15T11:58:43Z</time><extensions><speed>0.118257</speed><course>106.214104</course><hAcc>1.755938</hAcc><vAcc>0.795734</vAcc></extensions></trkpt>
      <trkpt lon="-3.044967" lat="52.722837"><ele>362.165405</ele><time>2022-01-15T11:58:44Z</time><extensions><speed>0.075128</speed><course>64.798210</course><hAcc>1.773655</hAcc><vAcc>0.794962</vAcc></extensions></trkpt>
      <trkpt lon="-3.044966" lat="52.722838"><ele>362.154755</ele><time>2022-01-15T11:58:45Z</time><extensions><speed>0.118971</speed><course>357.123291</course><hAcc>1.788121</hAcc><vAcc>0.794030</vAcc></extensions></trkpt>
      <trkpt lon="-3.044967" lat="52.722840"><ele>362.155365</ele><time>2022-01-15T11:58:46Z</time><extensions><speed>0.262651</speed><course>338.709229</course><hAcc>1.790193</hAcc><vAcc>0.792972</vAcc></extensions></trkpt>
      <trkpt lon="-3.044969" lat="52.722843"><ele>362.157318</ele><time>2022-01-15T11:58:47Z</time><extensions><speed>0.498556</speed><course>335.908905</course><hAcc>1.783094</hAcc><vAcc>0.791878</vAcc></extensions></trkpt>
      <trkpt lon="-3.044973" lat="52.722848"><ele>362.152832</ele><time>2022-01-15T11:58:48Z</time><extensions><speed>0.649953</speed><course>334.197571</course><hAcc>1.802189</hAcc><vAcc>0.790778</vAcc></extensions></trkpt>
      <trkpt lon="-3.044979" lat="52.722853"><ele>362.136719</ele><time>2022-01-15T11:58:49Z</time><extensions><speed>0.715519</speed><course>320.076691</course><hAcc>1.808568</hAcc><vAcc>0.789677</vAcc></extensions></trkpt>
      <trkpt lon="-3.044986" lat="52.722857"><ele>362.101013</ele><time>2022-01-15T11:58:50Z</time><extensions><speed>0.752623</speed><course>312.756714</course><hAcc>1.801530</hAcc><vAcc>0.788651</vAcc></extensions></trkpt>
      <trkpt lon="-3.044995" lat="52.722862"><ele>362.117065</ele><time>2022-01-15T11:58:51Z</time><extensions><speed>0.734610</speed><course>308.691010</course><hAcc>1.781479</hAcc><vAcc>0.787865</vAcc></extensions></trkpt>
      <trkpt lon="-3.045003" lat="52.722866"><ele>362.088348</ele><time>2022-01-15T11:58:52Z</time><extensions><speed>0.690280</speed><course>306.156586</course><hAcc>1.765927</hAcc><vAcc>0.787373</vAcc></extensions></trkpt>
      <trkpt lon="-3.045011" lat="52.722869"><ele>362.103882</ele><time>2022-01-15T11:58:53Z</time><extensions><speed>0.579264</speed><course>301.883514</course><hAcc>1.741430</hAcc><vAcc>0.787155</vAcc></extensions></trkpt>
      <trkpt lon="-3.045017" lat="52.722871"><ele>362.092743</ele><time>2022-01-15T11:58:54Z</time><extensions><speed>0.439111</speed><course>297.672485</course><hAcc>1.723551</hAcc><vAcc>0.787127</vAcc></extensions></trkpt>
      <trkpt lon="-3.045022" lat="52.722872"><ele>362.067657</ele><time>2022-01-15T11:58:55Z</time><extensions><speed>0.249888</speed><course>290.192963</course><hAcc>1.722005</hAcc><vAcc>0.787211</vAcc></extensions></trkpt>
      <trkpt lon="-3.045025" lat="52.722873"><ele>362.050049</ele><time>2022-01-15T11:58:56Z</time><extensions><speed>0.177054</speed><course>285.837921</course><hAcc>1.711756</hAcc><vAcc>0.787425</vAcc></extensions></trkpt>
      <trkpt lon="-3.045027" lat="52.722873"><ele>362.031250</ele><time>2022-01-15T11:58:57Z</time><extensions><speed>0.149120</speed><course>282.963043</course><hAcc>1.700742</hAcc><vAcc>0.787680</vAcc></extensions></trkpt>
      <trkpt lon="-3.045029" lat="52.722874"><ele>362.025024</ele><time>2022-01-15T11:58:58Z</time><extensions><speed>0.140904</speed><course>277.212372</course><hAcc>1.695646</hAcc><vAcc>0.787911</vAcc></extensions></trkpt>
      <trkpt lon="-3.045032" lat="52.722874"><ele>362.023682</ele><time>2022-01-15T11:58:59Z</time><extensions><speed>0.134075</speed><course>267.502777</course><hAcc>1.697686</hAcc><vAcc>0.788188</vAcc></extensions></trkpt>
      <trkpt lon="-3.045033" lat="52.722873"><ele>362.025330</ele><time>2022-01-15T11:59:00Z</time><extensions><speed>0.126589</speed><course>255.139709</course><hAcc>1.700578</hAcc><vAcc>0.788477</vAcc></extensions></trkpt>
      <trkpt lon="-3.045035" lat="52.722873"><ele>362.019012</ele><time>2022-01-15T11:59:01Z</time><extensions><speed>0.122136</speed><course>243.512207</course><hAcc>1.700302</hAcc><vAcc>0.788733</vAcc></extensions></trkpt>
      <trkpt lon="-3.045037" lat="52.722872"><ele>362.013580</ele><time>2022-01-15T11:59:02Z</time><extensions><speed>0.096536</speed><course>235.010345</course><hAcc>1.718543</hAcc><vAcc>0.788928</vAcc></extensions></trkpt>
      <trkpt lon="-3.045038" lat="52.722872"><ele>362.007019</ele><time>2022-01-15T11:59:03Z</time><extensions><speed>0.095116</speed><course>228.461517</course><hAcc>1.720970</hAcc><vAcc>0.789012</vAcc></extensions></trkpt>
      <trkpt lon="-3.045039" lat="52.722871"><ele>361.999451</ele><time>2022-01-15T11:59:04Z</time><extensions><speed>0.109303</speed><course>224.520126</course><hAcc>1.720129</hAcc><vAcc>0.789015</vAcc></extensions></trkpt>
      <trkpt lon="-3.045040" lat="52.722871"><ele>361.991608</ele><time>2022-01-15T11:59:05Z</time><extensions><speed>0.119494</speed><course>223.890839</course><hAcc>1.733869</hAcc><vAcc>0.788982</vAcc></extensions></trkpt>
      <trkpt lon="-3.045041" lat="52.722870"><ele>361.980591</ele><time>2022-01-15T11:59:06Z</time><extensions><speed>0.113826</speed><course>224.635376</course><hAcc>1.763233</hAcc><vAcc>0.788902</vAcc></extensions></trkpt>
      <trkpt lon="-3.045043" lat="52.722869"><ele>361.963470</ele><time>2022-01-15T11:59:07Z</time><extensions><speed>0.129245</speed><course>225.902924</course><hAcc>1.766883</hAcc><vAcc>0.788791</vAcc></extensions></trkpt>
      <trkpt lon="-3.045044" lat="52.722868"><ele>361.937927</ele><time>2022-01-15T11:59:08Z</time><extensions><speed>0.157926</speed><course>226.618179</course><hAcc>1.756033</hAcc><vAcc>0.788612</vAcc></extensions></trkpt>
      <trkpt lon="-3.045046" lat="52.722867"><ele>361.901642</ele><time>2022-01-15T11:59:09Z</time><extensions><speed>0.169084</speed><course>227.496552</course><hAcc>1.764234</hAcc><vAcc>0.788415</vAcc></extensions></trkpt>
      <trkpt lon="-3.045048" lat="52.722866"><ele>361.860382</ele><time>2022-01-15T11:59:10Z</time><extensions><speed>0.184742</speed><course>229.742661</course><hAcc>1.774912</hAcc><vAcc>0.788164</vAcc></extensions></trkpt>
      <trkpt lon="-3.045050" lat="52.722865"><ele>361.831818</ele><time>2022-01-15T11:59:11Z</time><extensions><speed>0.198606</speed><course>235.167999</course><hAcc>1.780800</hAcc><vAcc>0.787936</vAcc></extensions></trkpt>
      <trkpt lon="-3.045053" lat="52.722864"><ele>361.806702</ele><time>2022-01-15T11:59:12Z</time><extensions><speed>0.199219</speed><course>244.639297</course><hAcc>1.787304</hAcc><vAcc>0.787701</vAcc></extensions></trkpt>
      <trkpt lon="-3.045056" lat="52.722864"><ele>361.757996</ele><time>2022-01-15T11:59:13Z</time><extensions><speed>0.203250</speed><course>256.793671</course><hAcc>1.791808</hAcc><vAcc>0.787522</vAcc></extensions></trkpt>
      <trkpt lon="-3.045059" lat="52.722863"><ele>361.705597</ele><time>2022-01-15T11:59:14Z</time><extensions><speed>0.210013</speed><course>270.486877</course><hAcc>1.798291</hAcc><vAcc>0.787359</vAcc></extensions></trkpt>
      <trkpt lon="-3.045062" lat="52.722863"><ele>361.650360</ele><time>2022-01-15T11:59:15Z</time><extensions><speed>0.220817</speed><course>279.975098</course><hAcc>1.802003</hAcc><vAcc>0.787190</vAcc></extensions></trkpt>
      <trkpt lon="-3.045065" lat="52.722864"><ele>361.593231</ele><time>2022-01-15T11:59:16Z</time><extensions><speed>0.221574</speed><course>281.284454</course><hAcc>1.798628</hAcc><vAcc>0.787014</vAcc></extensions></trkpt>
      <trkpt lon="-3.045068" lat="52.722864"><ele>361.557648</ele><time>2022-01-15T11:59:17Z</time><extensions><speed>0.204170</speed><course>275.512665</course><hAcc>1.787096</hAcc><vAcc>0.786813</vAcc></extensions></trkpt>
      <trkpt lon="-3.045071" lat="52.722864"><ele>361.514099</ele><time>2022-01-15T11:59:18Z</time><extensions><speed>0.169230</speed><course>261.925110</course><hAcc>1.767643</hAcc><vAcc>0.786600</vAcc></extensions></trkpt>
      <trkpt lon="-3.045073" lat="52.722864"><ele>361.472778</ele><time>2022-01-15T11:59:19Z</time><extensions><speed>0.130559</speed><course>237.071548</course><hAcc>1.732076</hAcc><vAcc>0.786422</vAcc></extensions></trkpt>
      <trkpt lon="-3.045074" lat="52.722863"><ele>361.433350</ele><time>2022-01-15T11:59:20Z</time><extensions><speed>0.126300</speed><course>198.119568</course><hAcc>1.681793</hAcc><vAcc>0.786272</vAcc></extensions></trkpt>
      <trkpt lon="-3.045074" lat="52.722863"><ele>361.414642</ele><time>2022-01-15T11:59:21Z</time><extensions><speed>0.043244</speed><course>215.111084</course><hAcc>1.651758</hAcc><vAcc>0.786045</vAcc></extensions></trkpt>
      <trkpt lon="-3.045074" lat="52.722863"><ele>361.366943</ele><time>2022-01-15T11:59:22Z</time><extensions><speed>0.009794</speed><course>203.697617</course><hAcc>1.632600</hAcc><vAcc>0.785729</vAcc></extensions></trkpt>
      <trkpt lon="-3.045074" lat="52.722863"><ele>361.294342</ele><time>2022-01-15T11:59:23Z</time><extensions><speed>0.011927</speed><course>60.410034</course><hAcc>1.654906</hAcc><vAcc>0.785429</vAcc></extensions></trkpt>
      <trkpt lon="-3.045073" lat="52.722863"><ele>361.203461</ele><time>2022-01-15T11:59:24Z</time><extensions><speed>0.043623</speed><course>42.426392</course><hAcc>1.624034</hAcc><vAcc>0.784913</vAcc></extensions></trkpt>
      <trkpt lon="-3.045073" lat="52.722863"><ele>361.107117</ele><time>2022-01-15T11:59:25Z</time><extensions><speed>0.103356</speed><course>37.735382</course><hAcc>1.569383</hAcc><vAcc>0.783636</vAcc></extensions></trkpt>
      <trkpt lon="-3.045072" lat="52.722864"><ele>361.029297</ele><time>2022-01-15T11:59:26Z</time><extensions><speed>0.140667</speed><course>35.802345</course><hAcc>1.557056</hAcc><vAcc>0.782012</vAcc></extensions></trkpt>
      <trkpt lon="-3.045070" lat="52.722866"><ele>360.976990</ele><time>2022-01-15T11:59:27Z</time><extensions><speed>0.143885</speed><course>35.043163</course><hAcc>1.576862</hAcc><vAcc>0.778713</vAcc></extensions></trkpt>
      <trkpt lon="-3.045069" lat="52.722867"><ele>360.927582</ele><time>2022-01-15T11:59:28Z</time><extensions><speed>0.147886</speed><course>35.153164</course><hAcc>1.592114</hAcc><vAcc>0.772465</vAcc></extensions></trkpt>
      <trkpt lon="-3.045068" lat="52.722868"><ele>360.887268</ele><time>2022-01-15T11:59:29Z</time><extensions><speed>0.145806</speed><course>35.606060</course><hAcc>1.609836</hAcc><vAcc>0.764060</vAcc></extensions></trkpt>
      <trkpt lon="-3.045067" lat="52.722869"><ele>360.838348</ele><time>2022-01-15T11:59:30Z</time><extensions><speed>0.135336</speed><course>36.939159</course><hAcc>1.634823</hAcc><vAcc>0.754295</vAcc></extensions></trkpt>
      <trkpt lon="-3.045065" lat="52.722870"><ele>360.791473</ele><time>2022-01-15T11:59:31Z</time><extensions><speed>0.122728</speed><course>42.457916</course><hAcc>1.654865</hAcc><vAcc>0.741947</vAcc></extensions></trkpt>
      <trkpt lon="-3.045064" lat="52.722870"><ele>360.752411</ele><time>2022-01-15T11:59:32Z</time><extensions><speed>0.138477</speed><course>57.894020</course><hAcc>1.653736</hAcc><vAcc>0.726762</vAcc></extensions></trkpt>
      <trkpt lon="-3.045062" lat="52.722871"><ele>360.725189</ele><time>2022-01-15T11:59:33Z</time><extensions><speed>0.160846</speed><course>40.409954</course><hAcc>1.703053</hAcc><vAcc>0.708712</vAcc></extensions></trkpt>
      <trkpt lon="-3.045061" lat="52.722872"><ele>360.713745</ele><time>2022-01-15T11:59:34Z</time><extensions><speed>0.159470</speed><course>36.030251</course><hAcc>1.758013</hAcc><vAcc>0.687997</vAcc></extensions></trkpt>
      <trkpt lon="-3.045059" lat="52.722873"><ele>360.713806</ele><time>2022-01-15T11:59:35Z</time><extensions><speed>0.125492</speed><course>45.719700</course><hAcc>1.807627</hAcc><vAcc>0.665106</vAcc></extensions></trkpt>
      <trkpt lon="-3.045058" lat="52.722874"><ele>360.724731</ele><time>2022-01-15T11:59:36Z</time><extensions><speed>0.138717</speed><course>19.140423</course><hAcc>1.853577</hAcc><vAcc>0.640862</vAcc></extensions></trkpt>
      <trkpt lon="-3.045058" lat="52.722876"><ele>360.744751</ele><time>2022-01-15T11:59:37Z</time><extensions><speed>0.148792</speed><course>11.357757</course><hAcc>1.878030</hAcc><vAcc>0.616461</vAcc></extensions></trkpt>
      <trkpt lon="-3.045057" lat="52.722877"><ele>360.770966</ele><time>2022-01-15T11:59:38Z</time><extensions><speed>0.144990</speed><course>10.284511</course><hAcc>1.896672</hAcc><vAcc>0.593553</vAcc></extensions></trkpt>
      <trkpt lon="-3.045057" lat="52.722878"><ele>360.803345</ele><time>2022-01-15T11:59:39Z</time><extensions><speed>0.138734</speed><course>10.923618</course><hAcc>1.912044</hAcc><vAcc>0.573990</vAcc></extensions></trkpt>
      <trkpt lon="-3.045057" lat="52.722880"><ele>360.837097</ele><time>2022-01-15T11:59:40Z</time><extensions><speed>0.118925</speed><course>12.635127</course><hAcc>1.937416</hAcc><vAcc>0.559044</vAcc></extensions></trkpt>
      <trkpt lon="-3.045056" lat="52.722881"><ele>360.868683</ele><time>2022-01-15T11:59:41Z</time><extensions><speed>0.111696</speed><course>14.785758</course><hAcc>1.953399</hAcc><vAcc>0.548970</vAcc></extensions></trkpt>
      <trkpt lon="-3.045056" lat="52.722882"><ele>360.923737</ele><time>2022-01-15T11:59:42Z</time><extensions><speed>0.120494</speed><course>15.312368</course><hAcc>1.952390</hAcc><vAcc>0.543343</vAcc></extensions></trkpt>
      <trkpt lon="-3.045055" lat="52.722883"><ele>361.013916</ele><time>2022-01-15T11:59:43Z</time><extensions><speed>0.148415</speed><course>14.361410</course><hAcc>1.937367</hAcc><vAcc>0.541578</vAcc></extensions></trkpt>
      <trkpt lon="-3.045055" lat="52.722884"><ele>361.115143</ele><time>2022-01-15T11:59:44Z</time><extensions><speed>0.161131</speed><course>13.409948</course><hAcc>1.936473</hAcc><vAcc>0.543219</vAcc></extensions></trkpt>
      <trkpt lon="-3.045054" lat="52.722885"><ele>361.216705</ele><time>2022-01-15T11:59:45Z</time><extensions><speed>0.164524</speed><course>12.584055</course><hAcc>1.941474</hAcc><vAcc>0.547786</vAcc></extensions></trkpt>
      <trkpt lon="-3.045054" lat="52.722887"><ele>361.328979</ele><time>2022-01-15T11:59:46Z</time><extensions><speed>0.156517</speed><course>11.609871</course><hAcc>1.942819</hAcc><vAcc>0.554616</vAcc></extensions></trkpt>
      <trkpt lon="-3.045053" lat="52.722888"><ele>361.442932</ele><time>2022-01-15T11:59:47Z</time><extensions><speed>0.118709</speed><course>9.686086</course><hAcc>1.939553</hAcc><vAcc>0.562765</vAcc></extensions></trkpt>
      <trkpt lon="-3.045053" lat="52.722889"><ele>361.566772</ele><time>2022-01-15T11:59:48Z</time><extensions><speed>0.056976</speed><course>1.704708</course><hAcc>1.935667</hAcc><vAcc>0.571129</vAcc></extensions></trkpt>
      <trkpt lon="-3.045053" lat="52.722889"><ele>361.685303</ele><time>2022-01-15T11:59:49Z</time><extensions><speed>0.017433</speed><course>284.770294</course><hAcc>1.930636</hAcc><vAcc>0.578788</vAcc></extensions></trkpt>
      <trkpt lon="-3.045054" lat="52.722889"><ele>361.796692</ele><time>2022-01-15T11:59:50Z</time><extensions><speed>0.045113</speed><course>230.238098</course><hAcc>1.923738</hAcc><vAcc>0.585131</vAcc></extensions></trkpt>
      <trkpt lon="-3.045054" lat="52.722888"><ele>361.904480</ele><time>2022-01-15T11:59:51Z</time><extensions><speed>0.077169</speed><course>221.206848</course><hAcc>1.918915</hAcc><vAcc>0.589742</vAcc></extensions></trkpt>
      <trkpt lon="-3.045055" lat="52.722888"><ele>361.993469</ele><time>2022-01-15T11:59:52Z</time><extensions><speed>0.126598</speed><course>210.676605</course><hAcc>1.910873</hAcc><vAcc>0.592802</vAcc></extensions></trkpt>
      <trkpt lon="-3.045056" lat="52.722886"><ele>362.060822</ele><time>2022-01-15T11:59:53Z</time><extensions><speed>0.186213</speed><course>202.437271</course><hAcc>1.911072</hAcc><vAcc>0.594615</vAcc></extensions></trkpt>
      <trkpt lon="-3.045057" lat="52.722885"><ele>362.102997</ele><time>2022-01-15T11:59:54Z</time><extensions><speed>0.207818</speed><course>199.373917</course><hAcc>1.922098</hAcc><vAcc>0.595486</vAcc></extensions></trkpt>
      <trkpt lon="-3.045058" lat="52.722883"><ele>362.121185</ele><time>2022-01-15T11:59:55Z</time><extensions><speed>0.208961</speed><course>200.541504</course><hAcc>1.917075</hAcc><vAcc>0.595683</vAcc></extensions></trkpt>
      <trkpt lon="-3.045060" lat="52.722881"><ele>362.119019</ele><time>2022-01-15T11:59:56Z</time><extensions><speed>0.182628</speed><course>204.364761</course><hAcc>1.909686</hAcc><vAcc>0.595495</vAcc></extensions></trkpt>
      <trkpt lon="-3.045061" lat="52.722880"><ele>362.100494</ele><time>2022-01-15T11:59:57Z</time><extensions><speed>0.159868</speed><course>209.829559</course><hAcc>1.888628</hAcc><vAcc>0.595241</vAcc></extensions></trkpt>
      <trkpt lon="-3.045062" lat="52.722879"><ele>362.069489</ele><time>2022-01-15T11:59:58Z</time><extensions><speed>0.115422</speed><course>216.076447</course><hAcc>1.881162</hAcc><vAcc>0.595319</vAcc></extensions></trkpt>
      <trkpt lon="-3.045063" lat="52.722878"><ele>362.030121</ele><time>2022-01-15T11:59:59Z</time><extensions><speed>0.068927</speed><course>224.816910</course><hAcc>1.898986</hAcc><vAcc>0.596222</vAcc></extensions></trkpt>
      <trkpt lon="-3.045063" lat="52.722878"><ele>361.986084</ele><time>2022-01-15T12:00:00Z</time><extensions><speed>0.025918</speed><course>254.902344</course><hAcc>1.931572</hAcc><vAcc>0.598495</vAcc></extensions></trkpt>
      <trkpt lon="-3.045063" lat="52.722878"><ele>361.940430</ele><time>2022-01-15T12:00:01Z</time><extensions><speed>0.022384</speed><course>326.455933</course><hAcc>1.904655</hAcc><vAcc>0.602710</vAcc></extensions></trkpt>
      <trkpt lon="-3.045063" lat="52.722878"><ele>361.892029</ele><time>2022-01-15T12:00:02Z</time><extensions><speed>0.032101</speed><course>6.049405</course><hAcc>1.882380</hAcc><vAcc>0.609232</vAcc></extensions></trkpt>
      <trkpt lon="-3.045063" lat="52.722879"><ele>361.844482</ele><time>2022-01-15T12:00:03Z</time><extensions><speed>0.036427</speed><course>23.001083</course><hAcc>1.876171</hAcc><vAcc>0.618024</vAcc></extensions></trkpt>
      <trkpt lon="-3.045063" lat="52.722879"><ele>361.798950</ele><time>2022-01-15T12:00:04Z</time><extensions><speed>0.032581</speed><course>34.832535</course><hAcc>1.866321</hAcc><vAcc>0.628419</vAcc></extensions></trkpt>
      <trkpt lon="-3.045063" lat="52.722879"><ele>361.756073</ele><time>2022-01-15T12:00:05Z</time><extensions><speed>0.026313</speed><course>50.129841</course><hAcc>1.849947</hAcc><vAcc>0.639544</vAcc></extensions></trkpt>
      <trkpt lon="-3.045063" lat="52.722879"><ele>361.716156</ele><time>2022-01-15T12:00:06Z</time><extensions><speed>0.022734</speed><course>70.825974</course><hAcc>1.824243</hAcc><vAcc>0.650600</vAcc></extensions></trkpt>
      <trkpt lon="-3.045062" lat="52.722879"><ele>361.680420</ele><time>2022-01-15T12:00:07Z</time><extensions><speed>0.021264</speed><course>90.689911</course><hAcc>1.796564</hAcc><vAcc>0.660982</vAcc></extensions></trkpt>
      <trkpt lon="-3.045062" lat="52.722879"><ele>361.648254</ele><time>2022-01-15T12:00:08Z</time><extensions><speed>0.018892</speed><course>103.054520</course><hAcc>1.787494</hAcc><vAcc>0.670348</vAcc></extensions></trkpt>
      <trkpt lon="-3.045062" lat="52.722879"><ele>361.612701</ele><time>2022-01-15T12:00:09Z</time><extensions><speed>0.009539</speed><course>106.009262</course><hAcc>1.805222</hAcc><vAcc>0.678619</vAcc></extensions></trkpt>
      <trkpt lon="-3.045062" lat="52.722879"><ele>361.575287</ele><time>2022-01-15T12:00:10Z</time><extensions><speed>0.002475</speed><course>330.818420</course><hAcc>1.805192</hAcc><vAcc>0.685848</vAcc></extensions></trkpt>
      <trkpt lon="-3.045062" lat="52.722879"><ele>361.538147</ele><time>2022-01-15T12:00:11Z</time><extensions><speed>0.015113</speed><course>304.060364</course><hAcc>1.814740</hAcc><vAcc>0.692179</vAcc></extensions></trkpt>
      <trkpt lon="-3.045062" lat="52.722880"><ele>361.500732</ele><time>2022-01-15T12:00:12Z</time><extensions><speed>0.036404</speed><course>308.143860</course><hAcc>1.785192</hAcc><vAcc>0.697846</vAcc></extensions></trkpt>
      <trkpt lon="-3.045063" lat="52.722880"><ele>361.465271</ele><time>2022-01-15T12:00:13Z</time><extensions><speed>0.051835</speed><course>313.292938</course><hAcc>1.787007</hAcc><vAcc>0.703037</vAcc></extensions></trkpt>
      <trkpt lon="-3.045063" lat="52.722880"><ele>361.430450</ele><time>2022-01-15T12:00:14Z</time><extensions><speed>0.068315</speed><course>318.328125</course><hAcc>1.808019</hAcc><vAcc>0.708013</vAcc></extensions></trkpt>
      <trkpt lon="-3.045064" lat="52.722881"><ele>361.396179</ele><time>2022-01-15T12:00:15Z</time><extensions><speed>0.087751</speed><course>323.346710</course><hAcc>1.825550</hAcc><vAcc>0.712876</vAcc></extensions></trkpt>
      <trkpt lon="-3.045065" lat="52.722882"><ele>361.362518</ele><time>2022-01-15T12:00:16Z</time><extensions><speed>0.108606</speed><course>329.177612</course><hAcc>1.832603</hAcc><vAcc>0.717671</vAcc></extensions></trkpt>
      <trkpt lon="-3.045065" lat="52.722883"><ele>361.329529</ele><time>2022-01-15T12:00:17Z</time><extensions><speed>0.129004</speed><course>337.769714</course><hAcc>1.827276</hAcc><vAcc>0.722450</vAcc></extensions></trkpt>
      <trkpt lon="-3.045066" lat="52.722884"><ele>361.297363</ele><time>2022-01-15T12:00:18Z</time><extensions><speed>0.137298</speed><course>348.559937</course><hAcc>1.821474</hAcc><vAcc>0.727189</vAcc></extensions></trkpt>
      <trkpt lon="-3.045066" lat="52.722885"><ele>361.266449</ele><time>2022-01-15T12:00:19Z</time><extensions><speed>0.139955</speed><course>359.025574</course><hAcc>1.818461</hAcc><vAcc>0.731841</vAcc></extensions></trkpt>
      <trkpt lon="-3.045066" lat="52.722886"><ele>361.237305</ele><time>2022-01-15T12:00:20Z</time><extensions><speed>0.135360</speed><course>8.599624</course><hAcc>1.825400</hAcc><vAcc>0.736329</vAcc></extensions></trkpt>
      <trkpt lon="-3.045066" lat="52.722887"><ele>361.210480</ele><time>2022-01-15T12:00:21Z</time><extensions><speed>0.149224</speed><course>16.023102</course><hAcc>1.817463</hAcc><vAcc>0.740583</vAcc></extensions></trkpt>
      <trkpt lon="-3.045065" lat="52.722889"><ele>361.183258</ele><time>2022-01-15T12:00:22Z</time><extensions><speed>0.154631</speed><course>20.775099</course><hAcc>1.801555</hAcc><vAcc>0.744517</vAcc></extensions></trkpt>
      <trkpt lon="-3.045064" lat="52.722890"><ele>361.158203</ele><time>2022-01-15T12:00:23Z</time><extensions><speed>0.129081</speed><course>24.301273</course><hAcc>1.797896</hAcc><vAcc>0.748127</vAcc></extensions></trkpt>
      <trkpt lon="-3.045063" lat="52.722891"><ele>361.135284</ele><time>2022-01-15T12:00:24Z</time><extensions><speed>0.094698</speed><course>29.066460</course><hAcc>1.799606</hAcc><vAcc>0.751428</vAcc></extensions></trkpt>
      <trkpt lon="-3.045063" lat="52.722891"><ele>361.114380</ele><time>2022-01-15T12:00:25Z</time><extensions><speed>0.063041</speed><course>39.182976</course><hAcc>1.798406</hAcc><vAcc>0.754401</vAcc></extensions></trkpt>
      <trkpt lon="-3.045062" lat="52.722892"><ele>361.095306</ele><time>2022-01-15T12:00:26Z</time><extensions><speed>0.040812</speed><course>64.304947</course><hAcc>1.794545</hAcc><vAcc>0.757091</vAcc></extensions></trkpt>
      <trkpt lon="-3.045062" lat="52.722892"><ele>361.077911</ele><time>2022-01-15T12:00:27Z</time><extensions><speed>0.038388</speed><course>107.708229</course><hAcc>1.792344</hAcc><vAcc>0.759515</vAcc></extensions></trkpt>
      <trkpt lon="-3.045061" lat="52.722891"><ele>361.062012</ele><time>2022-01-15T12:00:28Z</time><extensions><speed>0.057736</speed><course>134.398788</course><hAcc>1.785944</hAcc><vAcc>0.761711</vAcc></extensions></trkpt>
      <trkpt lon="-3.045060" lat="52.722891"><ele>361.047424</ele><time>2022-01-15T12:00:29Z</time><extensions><speed>0.084283</speed><course>144.515152</course><hAcc>1.778813</hAcc><vAcc>0.763727</vAcc></extensions></trkpt>
      <trkpt lon="-3.045059" lat="52.722890"><ele>361.034027</ele><time>2022-01-15T12:00:30Z</time><extensions><speed>0.115422</speed><course>148.494064</course><hAcc>1.766000</hAcc><vAcc>0.765577</vAcc></extensions></trkpt>
      <trkpt lon="-3.045059" lat="52.722889"><ele>361.021790</ele><time>2022-01-15T12:00:31Z</time><extensions><speed>0.140076</speed><course>150.131729</course><hAcc>1.754672</hAcc><vAcc>0.767271</vAcc></extensions></trkpt>
      <trkpt lon="-3.045058" lat="52.722888"><ele>361.010620</ele><time>2022-01-15T12:00:32Z</time><extensions><speed>0.133897</speed><course>150.792114</course><hAcc>1.753820</hAcc><vAcc>0.768840</vAcc></extensions></trkpt>
      <trkpt lon="-3.045057" lat="52.722887"><ele>361.000610</ele><time>2022-01-15T12:00:33Z</time><extensions><speed>0.103499</speed><course>151.076889</course><hAcc>1.754055</hAcc><vAcc>0.770284</vAcc></extensions></trkpt>
      <trkpt lon="-3.045056" lat="52.722886"><ele>360.991730</ele><time>2022-01-15T12:00:34Z</time><extensions><speed>0.086741</speed><course>151.226746</course><hAcc>1.739668</hAcc><vAcc>0.771624</vAcc></extensions></trkpt>
      <trkpt lon="-3.045055" lat="52.722886"><ele>360.984009</ele><time>2022-01-15T12:00:35Z</time><extensions><speed>0.058429</speed><course>151.309723</course><hAcc>1.751470</hAcc><vAcc>0.772850</vAcc></extensions></trkpt>
      <trkpt lon="-3.045055" lat="52.722885"><ele>360.977356</ele><time>2022-01-15T12:00:36Z</time><extensions><speed>0.041352</speed><course>151.366211</course><hAcc>1.755656</hAcc><vAcc>0.773952</vAcc></extensions></trkpt>
      <trkpt lon="-3.045055" lat="52.722885"><ele>360.971710</ele><time>2022-01-15T12:00:37Z</time><extensions><speed>0.032834</speed><course>151.401428</course><hAcc>1.750129</hAcc><vAcc>0.774951</vAcc></extensions></trkpt>
      <trkpt lon="-3.045055" lat="52.722885"><ele>360.967010</ele><time>2022-01-15T12:00:38Z</time><extensions><speed>0.022045</speed><course>151.423431</course><hAcc>1.767250</hAcc><vAcc>0.775850</vAcc></extensions></trkpt>
      <trkpt lon="-3.045054" lat="52.722885"><ele>360.980347</ele><time>2022-01-15T12:00:39Z</time><extensions><speed>0.022428</speed><course>146.286942</course><hAcc>1.769837</hAcc><vAcc>0.776656</vAcc></extensions></trkpt>
      <trkpt lon="-3.045054" lat="52.722884"><ele>360.991638</ele><time>2022-01-15T12:00:40Z</time><extensions><speed>0.027731</speed><course>142.332886</course><hAcc>1.773999</hAcc><vAcc>0.777385</vAcc></extensions></trkpt>
      <trkpt lon="-3.045054" lat="52.722884"><ele>361.011810</ele><time>2022-01-15T12:00:41Z</time><extensions><speed>0.038158</speed><course>139.704605</course><hAcc>1.780230</hAcc><vAcc>0.778011</vAcc></extensions></trkpt>
      <trkpt lon="-3.045053" lat="52.722884"><ele>361.033569</ele><time>2022-01-15T12:00:42Z</time><extensions><speed>0.053313</speed><course>138.047775</course><hAcc>1.787224</hAcc><vAcc>0.778569</vAcc></extensions></trkpt>
      <trkpt lon="-3.045053" lat="52.722883"><ele>361.058563</ele><time>2022-01-15T12:00:43Z</time><extensions><speed>0.076559</speed><course>137.254135</course><hAcc>1.787665</hAcc><vAcc>0.779072</vAcc></extensions></trkpt>
      <trkpt lon="-3.045052" lat="52.722883"><ele>361.086670</ele><time>2022-01-15T12:00:44Z</time><extensions><speed>0.109415</speed><course>136.926376</course><hAcc>1.781614</hAcc><vAcc>0.779537</vAcc></extensions></trkpt>
      <trkpt lon="-3.045050" lat="52.722882"><ele>361.117645</ele><time>2022-01-15T12:00:45Z</time><extensions><speed>0.151387</speed><course>136.825409</course><hAcc>1.773506</hAcc><vAcc>0.779961</vAcc></extensions></trkpt>
      <trkpt lon="-3.045049" lat="52.722881"><ele>361.151093</ele><time>2022-01-15T12:00:46Z</time><extensions><speed>0.200325</speed><course>136.846588</course><hAcc>1.768789</hAcc><vAcc>0.780361</vAcc></extensions></trkpt>
      <trkpt lon="-3.045046" lat="52.722879"><ele>361.186523</ele><time>2022-01-15T12:00:47Z</time><extensions><speed>0.243557</speed><course>136.973495</course><hAcc>1.774054</hAcc><vAcc>0.780747</vAcc></extensions></trkpt>
      <trkpt lon="-3.045044" lat="52.722878"><ele>361.223297</ele><time>2022-01-15T12:00:48Z</time><extensions><speed>0.284194</speed><course>137.272430</course><hAcc>1.779674</hAcc><vAcc>0.781121</vAcc></extensions></trkpt>
      <trkpt lon="-3.045041" lat="52.722876"><ele>361.260437</ele><time>2022-01-15T12:00:49Z</time><extensions><speed>0.284779</speed><course>138.053131</course><hAcc>1.780496</hAcc><vAcc>0.781486</vAcc></extensions></trkpt>
      <trkpt lon="-3.045038" lat="52.722874"><ele>361.296967</ele><time>2022-01-15T12:00:50Z</time><extensions><speed>0.263371</speed><course>138.575806</course><hAcc>1.767793</hAcc><vAcc>0.781865</vAcc></extensions></trkpt>
      <trkpt lon="-3.045036" lat="52.722872"><ele>361.332001</ele><time>2022-01-15T12:00:51Z</time><extensions><speed>0.204360</speed><course>137.994125</course><hAcc>1.766431</hAcc><vAcc>0.782240</vAcc></extensions></trkpt>
      <trkpt lon="-3.045034" lat="52.722871"><ele>361.364960</ele><time>2022-01-15T12:00:52Z</time><extensions><speed>0.144742</speed><course>137.087738</course><hAcc>1.772387</hAcc><vAcc>0.782645</vAcc></extensions></trkpt>
      <trkpt lon="-3.045033" lat="52.722870"><ele>361.395325</ele><time>2022-01-15T12:00:53Z</time><extensions><speed>0.097252</speed><course>136.404602</course><hAcc>1.777839</hAcc><vAcc>0.783085</vAcc></extensions></trkpt>
      <trkpt lon="-3.045032" lat="52.722870"><ele>361.422882</ele><time>2022-01-15T12:00:54Z</time><extensions><speed>0.062315</speed><course>135.843552</course><hAcc>1.780287</hAcc><vAcc>0.783547</vAcc></extensions></trkpt>
      <trkpt lon="-3.045031" lat="52.722869"><ele>361.447510</ele><time>2022-01-15T12:00:55Z</time><extensions><speed>0.038936</speed><course>135.352448</course><hAcc>1.778689</hAcc><vAcc>0.784008</vAcc></extensions></trkpt>
      <trkpt lon="-3.045031" lat="52.722869"><ele>361.469238</ele><time>2022-01-15T12:00:56Z</time><extensions><speed>0.023636</speed><course>134.903656</course><hAcc>1.774825</hAcc><vAcc>0.784476</vAcc></extensions></trkpt>
      <trkpt lon="-3.045031" lat="52.722869"><ele>361.488129</ele><time>2022-01-15T12:00:57Z</time><extensions><speed>0.014438</speed><course>134.481567</course><hAcc>1.765723</hAcc><vAcc>0.784934</vAcc></extensions></trkpt>
      <trkpt lon="-3.045031" lat="52.722869"><ele>361.504303</ele><time>2022-01-15T12:00:58Z</time><extensions><speed>0.008759</speed><course>134.083878</course><hAcc>1.752988</hAcc><vAcc>0.785369</vAcc></extensions></trkpt>
      <trkpt lon="-3.045031" lat="52.722869"><ele>361.517975</ele><time>2022-01-15T12:00:59Z</time><extensions><speed>0.005409</speed><course>133.710815</course><hAcc>1.736001</hAcc><vAcc>0.785765</vAcc></extensions></trkpt>
      <trkpt lon="-3.045031" lat="52.722869"><ele>361.529358</ele><time>2022-01-15T12:01:00Z</time><extensions><speed>0.003186</speed><course>133.363190</course><hAcc>1.725020</hAcc><vAcc>0.786121</vAcc></extensions></trkpt>
      <trkpt lon="-3.045031" lat="52.722869"><ele>361.538635</ele><time>2022-01-15T12:01:01Z</time><extensions><speed>0.001805</speed><course>133.025848</course><hAcc>1.719857</hAcc><vAcc>0.786438</vAcc></extensions></trkpt>
      <trkpt lon="-3.045031" lat="52.722869"><ele>361.546082</ele><time>2022-01-15T12:01:02Z</time><extensions><speed>0.001003</speed><course>132.695740</course><hAcc>1.720826</hAcc><vAcc>0.786732</vAcc></extensions></trkpt>
      <trkpt lon="-3.045031" lat="52.722869"><ele>361.551910</ele><time>2022-01-15T12:01:03Z</time><extensions><speed>0.000561</speed><course>132.385193</course><hAcc>1.733377</hAcc><vAcc>0.786994</vAcc></extensions></trkpt>
      <trkpt lon="-3.045031" lat="52.722869"><ele>361.556335</ele><time>2022-01-15T12:01:04Z</time><extensions><speed>0.000285</speed><course>132.088318</course><hAcc>1.753357</hAcc><vAcc>0.787224</vAcc></extensions></trkpt>
      <trkpt lon="-3.045031" lat="52.722869"><ele>361.559570</ele><time>2022-01-15T12:01:05Z</time><extensions><speed>0.000243</speed><course>131.845123</course><hAcc>1.728942</hAcc><vAcc>0.787442</vAcc></extensions></trkpt>
      <trkpt lon="-3.045031" lat="52.722869"><ele>361.561798</ele><time>2022-01-15T12:01:06Z</time><extensions><speed>0.000189</speed><course>131.712936</course><hAcc>1.727565</hAcc><vAcc>0.787645</vAcc></extensions></trkpt>
      <trkpt lon="-3.045031" lat="52.722869"><ele>361.563171</ele><time>2022-01-15T12:01:07Z</time><extensions><speed>0.000139</speed><course>131.628967</course><hAcc>1.745607</hAcc><vAcc>0.787832</vAcc></extensions></trkpt>
      <trkpt lon="-3.045031" lat="52.722869"><ele>361.563873</ele><time>2022-01-15T12:01:08Z</time><extensions><speed>0.000097</speed><course>131.569122</course><hAcc>1.763439</hAcc><vAcc>0.788011</vAcc></extensions></trkpt>
      <trkpt lon="-3.045031" lat="52.722869"><ele>361.576599</ele><time>2022-01-15T12:01:09Z</time><extensions><speed>0.007505</speed><course>345.618103</course><hAcc>1.774838</hAcc><vAcc>0.788166</vAcc></extensions></trkpt>
      <trkpt lon="-3.045031" lat="52.722869"><ele>361.578033</ele><time>2022-01-15T12:01:10Z</time><extensions><speed>0.016171</speed><course>344.671356</course><hAcc>1.779856</hAcc><vAcc>0.788309</vAcc></extensions></trkpt>
      <trkpt lon="-3.045031" lat="52.722869"><ele>361.592255</ele><time>2022-01-15T12:01:11Z</time><extensions><speed>0.027967</speed><course>345.581451</course><hAcc>1.779635</hAcc><vAcc>0.788465</vAcc></extensions></trkpt>
      <trkpt lon="-3.045031" lat="52.722870"><ele>361.595245</ele><time>2022-01-15T12:01:12Z</time><extensions><speed>0.042231</speed><course>345.657227</course><hAcc>1.779757</hAcc><vAcc>0.788624</vAcc></extensions></trkpt>
      <trkpt lon="-3.045031" lat="52.722870"><ele>361.588013</ele><time>2022-01-15T12:01:13Z</time><extensions><speed>0.062217</speed><course>344.938477</course><hAcc>1.780411</hAcc><vAcc>0.788776</vAcc></extensions></trkpt>
      <trkpt lon="-3.045032" lat="52.722871"><ele>361.575562</ele><time>2022-01-15T12:01:14Z</time><extensions><speed>0.094733</speed><course>344.457886</course><hAcc>1.774365</hAcc><vAcc>0.788914</vAcc></extensions></trkpt>
      <trkpt lon="-3.045032" lat="52.722872"><ele>361.560486</ele><time>2022-01-15T12:01:15Z</time><extensions><speed>0.137417</speed><course>344.130493</course><hAcc>1.771773</hAcc><vAcc>0.789040</vAcc></extensions></trkpt>
      <trkpt lon="-3.045033" lat="52.722873"><ele>361.542664</ele><time>2022-01-15T12:01:16Z</time><extensions><speed>0.190676</speed><course>343.836456</course><hAcc>1.773303</hAcc><vAcc>0.789158</vAcc></extensions></trkpt>
      <trkpt lon="-3.045034" lat="52.722875"><ele>361.521942</ele><time>2022-01-15T12:01:17Z</time><extensions><speed>0.249649</speed><course>343.473114</course><hAcc>1.775919</hAcc><vAcc>0.789278</vAcc></extensions></trkpt>
      <trkpt lon="-3.045035" lat="52.722878"><ele>361.498199</ele><time>2022-01-15T12:01:18Z</time><extensions><speed>0.294011</speed><course>342.857330</course><hAcc>1.778274</hAcc><vAcc>0.789417</vAcc></extensions></trkpt>
      <trkpt lon="-3.045036" lat="52.722880"><ele>361.471313</ele><time>2022-01-15T12:01:19Z</time><extensions><speed>0.270793</speed><course>341.281586</course><hAcc>1.779486</hAcc><vAcc>0.789576</vAcc></extensions></trkpt>
      <trkpt lon="-3.045037" lat="52.722882"><ele>361.441254</ele><time>2022-01-15T12:01:20Z</time><extensions><speed>0.190423</speed><course>336.954712</course><hAcc>1.777002</hAcc><vAcc>0.789784</vAcc></extensions></trkpt>
      <trkpt lon="-3.045038" lat="52.722883"><ele>361.408325</ele><time>2022-01-15T12:01:21Z</time><extensions><speed>0.107582</speed><course>323.113342</course><hAcc>1.772762</hAcc><vAcc>0.790042</vAcc></extensions></trkpt>
      <trkpt lon="-3.045039" lat="52.722884"><ele>361.373169</ele><time>2022-01-15T12:01:22Z</time><extensions><speed>0.065602</speed><course>289.100494</course><hAcc>1.762979</hAcc><vAcc>0.790336</vAcc></extensions></trkpt>
      <trkpt lon="-3.045040" lat="52.722884"><ele>361.336731</ele><time>2022-01-15T12:01:23Z</time><extensions><speed>0.057350</speed><course>261.245331</course><hAcc>1.749030</hAcc><vAcc>0.790657</vAcc></extensions></trkpt>
      <trkpt lon="-3.045041" lat="52.722883"><ele>361.300140</ele><time>2022-01-15T12:01:24Z</time><extensions><speed>0.047011</speed><course>247.960251</course><hAcc>1.738094</hAcc><vAcc>0.790995</vAcc></extensions></trkpt>
      <trkpt lon="-3.045041" lat="52.722883"><ele>361.264465</ele><time>2022-01-15T12:01:25Z</time><extensions><speed>0.034716</speed><course>240.799057</course><hAcc>1.730582</hAcc><vAcc>0.791335</vAcc></extensions></trkpt>
      <trkpt lon="-3.045042" lat="52.722883"><ele>361.230438</ele><time>2022-01-15T12:01:26Z</time><extensions><speed>0.023342</speed><course>236.343384</course><hAcc>1.730247</hAcc><vAcc>0.791673</vAcc></extensions></trkpt>
      <trkpt lon="-3.045042" lat="52.722883"><ele>361.198608</ele><time>2022-01-15T12:01:27Z</time><extensions><speed>0.015311</speed><course>233.325455</course><hAcc>1.734108</hAcc><vAcc>0.792001</vAcc></extensions></trkpt>
      <trkpt lon="-3.045042" lat="52.722883"><ele>361.169342</ele><time>2022-01-15T12:01:28Z</time><extensions><speed>0.010291</speed><course>231.271164</course><hAcc>1.738519</hAcc><vAcc>0.792313</vAcc></extensions></trkpt>
      <trkpt lon="-3.045042" lat="52.722883"><ele>361.142853</ele><time>2022-01-15T12:01:29Z</time><extensions><speed>0.007733</speed><course>229.948441</course><hAcc>1.734380</hAcc><vAcc>0.792589</vAcc></extensions></trkpt>
      <trkpt lon="-3.045042" lat="52.722883"><ele>361.119202</ele><time>2022-01-15T12:01:30Z</time><extensions><speed>0.006445</speed><course>229.191208</course><hAcc>1.725384</hAcc><vAcc>0.792839</vAcc></extensions></trkpt>
      <trkpt lon="-3.045042" lat="52.722883"><ele>361.098389</ele><time>2022-01-15T12:01:31Z</time><extensions><speed>0.004864</speed><course>228.759888</course><hAcc>1.735752</hAcc><vAcc>0.793055</vAcc></extensions></trkpt>
      <trkpt lon="-3.045042" lat="52.722883"><ele>361.080322</ele><time>2022-01-15T12:01:32Z</time><extensions><speed>0.003416</speed><course>228.469833</course><hAcc>1.753537</hAcc><vAcc>0.793248</vAcc></extensions></trkpt>
      <trkpt lon="-3.045042" lat="52.722883"><ele>361.064850</ele><time>2022-01-15T12:01:33Z</time><extensions><speed>0.002337</speed><course>228.253159</course><hAcc>1.764253</hAcc><vAcc>0.793400</vAcc></extensions></trkpt>
      <trkpt lon="-3.045042" lat="52.722883"><ele>361.051788</ele><time>2022-01-15T12:01:34Z</time><extensions><speed>0.001517</speed><course>228.079468</course><hAcc>1.769070</hAcc><vAcc>0.793534</vAcc></extensions></trkpt>
      <trkpt lon="-3.045043" lat="52.722883"><ele>361.040955</ele><time>2022-01-15T12:01:35Z</time><extensions><speed>0.000982</speed><course>227.931061</course><hAcc>1.764590</hAcc><vAcc>0.793641</vAcc></extensions></trkpt>
      <trkpt lon="-3.045043" lat="52.722883"><ele>361.032104</ele><time>2022-01-15T12:01:36Z</time><extensions><speed>0.000602</speed><course>227.799515</course><hAcc>1.759042</hAcc><vAcc>0.793729</vAcc></extensions></trkpt>
      <trkpt lon="-3.045042" lat="52.722883"><ele>361.004059</ele><time>2022-01-15T12:01:37Z</time><extensions><speed>0.004613</speed><course>161.286407</course><hAcc>1.748088</hAcc><vAcc>0.793800</vAcc></extensions></trkpt>
      <trkpt lon="-3.045042" lat="52.722883"><ele>360.976135</ele><time>2022-01-15T12:01:38Z</time><extensions><speed>0.013150</speed><course>163.860931</course><hAcc>1.731683</hAcc><vAcc>0.793877</vAcc></extensions></trkpt>
      <trkpt lon="-3.045042" lat="52.722882"><ele>360.946228</ele><time>2022-01-15T12:01:39Z</time><extensions><speed>0.021212</speed><course>163.418106</course><hAcc>1.723376</hAcc><vAcc>0.793916</vAcc></extensions></trkpt>
      <trkpt lon="-3.045042" lat="52.722882"><ele>360.914185</ele><time>2022-01-15T12:01:40Z</time><extensions><speed>0.029806</speed><course>163.348694</course><hAcc>1.727598</hAcc><vAcc>0.793908</vAcc></extensions></trkpt>
      <trkpt lon="-3.045042" lat="52.722882"><ele>360.879913</ele><time>2022-01-15T12:01:41Z</time><extensions><speed>0.045776</speed><course>163.482666</course><hAcc>1.721854</hAcc><vAcc>0.793825</vAcc></extensions></trkpt>
      <trkpt lon="-3.045042" lat="52.722881"><ele>360.879272</ele><time>2022-01-15T12:01:42Z</time><extensions><speed>0.059454</speed><course>161.461212</course><hAcc>1.710014</hAcc><vAcc>0.793641</vAcc></extensions></trkpt>
      <trkpt lon="-3.045041" lat="52.722881"><ele>360.882172</ele><time>2022-01-15T12:01:43Z</time><extensions><speed>0.086796</speed><course>160.118057</course><hAcc>1.687966</hAcc><vAcc>0.793412</vAcc></extensions></trkpt>
      <trkpt lon="-3.045041" lat="52.722880"><ele>360.889099</ele><time>2022-01-15T12:01:44Z</time><extensions><speed>0.103940</speed><course>159.759064</course><hAcc>1.682805</hAcc><vAcc>0.793113</vAcc></extensions></trkpt>
      <trkpt lon="-3.045040" lat="52.722879"><ele>360.900513</ele><time>2022-01-15T12:01:45Z</time><extensions><speed>0.158814</speed><course>160.427322</course><hAcc>1.627092</hAcc><vAcc>0.792746</vAcc></extensions></trkpt>
      <trkpt lon="-3.045039" lat="52.722878"><ele>360.917023</ele><time>2022-01-15T12:01:46Z</time><extensions><speed>0.194397</speed><course>162.543243</course><hAcc>1.562271</hAcc><vAcc>0.792317</vAcc></extensions></trkpt>
      <trkpt lon="-3.045039" lat="52.722876"><ele>360.939392</ele><time>2022-01-15T12:01:47Z</time><extensions><speed>0.202712</speed><course>168.268661</course><hAcc>1.531233</hAcc><vAcc>0.791842</vAcc></extensions></trkpt>
      <trkpt lon="-3.045038" lat="52.722875"><ele>360.968384</ele><time>2022-01-15T12:01:48Z</time><extensions><speed>0.029652</speed><course>153.494232</course><hAcc>1.576839</hAcc><vAcc>0.791338</vAcc></extensions></trkpt>
      <trkpt lon="-3.045038" lat="52.722876"><ele>361.004211</ele><time>2022-01-15T12:01:49Z</time><extensions><speed>0.021029</speed><course>22.082277</course><hAcc>1.563025</hAcc><vAcc>0.790813</vAcc></extensions></trkpt>
      <trkpt lon="-3.045038" lat="52.722876"><ele>361.046600</ele><time>2022-01-15T12:01:50Z</time><extensions><speed>0.061346</speed><course>4.496288</course><hAcc>1.537505</hAcc><vAcc>0.790293</vAcc></extensions></trkpt>
      <trkpt lon="-3.045038" lat="52.722877"><ele>361.094543</ele><time>2022-01-15T12:01:51Z</time><extensions><speed>0.137920</speed><course>0.865058</course><hAcc>1.500907</hAcc><vAcc>0.789816</vAcc></extensions></trkpt>
      <trkpt lon="-3.045038" lat="52.722878"><ele>361.146362</ele><time>2022-01-15T12:01:52Z</time><extensions><speed>0.160273</speed><course>359.803192</course><hAcc>1.494174</hAcc><vAcc>0.789410</vAcc></extensions></trkpt>
      <trkpt lon="-3.045038" lat="52.722880"><ele>361.199951</ele><time>2022-01-15T12:01:53Z</time><extensions><speed>0.143152</speed><course>359.542786</course><hAcc>1.500684</hAcc><vAcc>0.789092</vAcc></extensions></trkpt>
      <trkpt lon="-3.045038" lat="52.722881"><ele>361.253448</ele><time>2022-01-15T12:01:54Z</time><extensions><speed>0.120376</speed><course>359.453247</course><hAcc>1.504916</hAcc><vAcc>0.788878</vAcc></extensions></trkpt>
      <trkpt lon="-3.045038" lat="52.722882"><ele>361.305359</ele><time>2022-01-15T12:01:55Z</time><extensions><speed>0.096890</speed><course>359.419250</course><hAcc>1.506943</hAcc><vAcc>0.788764</vAcc></extensions></trkpt>
      <trkpt lon="-3.045038" lat="52.722882"><ele>361.347137</ele><time>2022-01-15T12:01:56Z</time><extensions><speed>0.071635</speed><course>358.195099</course><hAcc>1.509529</hAcc><vAcc>0.788743</vAcc></extensions></trkpt>
      <trkpt lon="-3.045038" lat="52.722883"><ele>361.383789</ele><time>2022-01-15T12:01:57Z</time><extensions><speed>0.051318</speed><course>356.092896</course><hAcc>1.510742</hAcc><vAcc>0.788800</vAcc></extensions></trkpt>
      <trkpt lon="-3.045038" lat="52.722883"><ele>361.419342</ele><time>2022-01-15T12:01:58Z</time><extensions><speed>0.035559</speed><course>351.557220</course><hAcc>1.510489</hAcc><vAcc>0.788891</vAcc></extensions></trkpt>
      <trkpt lon="-3.045039" lat="52.722884"><ele>361.451904</ele><time>2022-01-15T12:01:59Z</time><extensions><speed>0.024881</speed><course>342.669159</course><hAcc>1.508672</hAcc><vAcc>0.788978</vAcc></extensions></trkpt>
      <trkpt lon="-3.045039" lat="52.722884"><ele>361.480164</ele><time>2022-01-15T12:02:00Z</time><extensions><speed>0.018206</speed><course>325.709198</course><hAcc>1.505373</hAcc><vAcc>0.789047</vAcc></extensions></trkpt>
      <trkpt lon="-3.045039" lat="52.722884"><ele>361.494751</ele><time>2022-01-15T12:02:01Z</time><extensions><speed>0.014269</speed><course>295.817078</course><hAcc>1.511855</hAcc><vAcc>0.789096</vAcc></extensions></trkpt>
      <trkpt lon="-3.045039" lat="52.722884"><ele>361.503143</ele><time>2022-01-15T12:02:02Z</time><extensions><speed>0.014969</speed><course>261.740082</course><hAcc>1.530476</hAcc><vAcc>0.789137</vAcc></extensions></trkpt>
      <trkpt lon="-3.045039" lat="52.722884"><ele>361.516876</ele><time>2022-01-15T12:02:03Z</time><extensions><speed>0.020493</speed><course>244.490234</course><hAcc>1.550836</hAcc><vAcc>0.789147</vAcc></extensions></trkpt>
      <trkpt lon="-3.045040" lat="52.722884"><ele>361.525757</ele><time>2022-01-15T12:02:04Z</time><extensions><speed>0.027538</speed><course>236.576080</course><hAcc>1.580469</hAcc><vAcc>0.789072</vAcc></extensions></trkpt>
      <trkpt lon="-3.045040" lat="52.722884"><ele>361.519501</ele><time>2022-01-15T12:02:05Z</time><extensions><speed>0.038165</speed><course>234.773575</course><hAcc>1.603213</hAcc><vAcc>0.788922</vAcc></extensions></trkpt>
      <trkpt lon="-3.045041" lat="52.722883"><ele>361.512238</ele><time>2022-01-15T12:02:06Z</time><extensions><speed>0.064268</speed><course>240.555939</course><hAcc>1.593084</hAcc><vAcc>0.788609</vAcc></extensions></trkpt>
      <trkpt lon="-3.045041" lat="52.722883"><ele>361.502625</ele><time>2022-01-15T12:02:07Z</time><extensions><speed>0.059766</speed><course>255.633224</course><hAcc>1.635607</hAcc><vAcc>0.788136</vAcc></extensions></trkpt>
      <trkpt lon="-3.045042" lat="52.722883"><ele>361.490631</ele><time>2022-01-15T12:02:08Z</time><extensions><speed>0.048391</speed><course>291.260651</course><hAcc>1.699496</hAcc><vAcc>0.787613</vAcc></extensions></trkpt>
      <trkpt lon="-3.045043" lat="52.722884"><ele>361.476654</ele><time>2022-01-15T12:02:09Z</time><extensions><speed>0.067807</speed><course>334.007263</course><hAcc>1.733348</hAcc><vAcc>0.787052</vAcc></extensions></trkpt>
      <trkpt lon="-3.045043" lat="52.722884"><ele>361.461090</ele><time>2022-01-15T12:02:10Z</time><extensions><speed>0.108646</speed><course>355.501038</course><hAcc>1.756218</hAcc><vAcc>0.786477</vAcc></extensions></trkpt>
      <trkpt lon="-3.045043" lat="52.722886"><ele>361.444366</ele><time>2022-01-15T12:02:11Z</time><extensions><speed>0.159878</speed><course>4.733899</course><hAcc>1.773440</hAcc><vAcc>0.785905</vAcc></extensions></trkpt>
      <trkpt lon="-3.045043" lat="52.722887"><ele>361.414185</ele><time>2022-01-15T12:02:12Z</time><extensions><speed>0.209974</speed><course>8.789158</course><hAcc>1.784801</hAcc><vAcc>0.785362</vAcc></extensions></trkpt>
      <trkpt lon="-3.045042" lat="52.722889"><ele>361.381348</ele><time>2022-01-15T12:02:13Z</time><extensions><speed>0.237322</speed><course>10.848475</course><hAcc>1.789673</hAcc><vAcc>0.784844</vAcc></extensions></trkpt>
      <trkpt lon="-3.045042" lat="52.722891"><ele>361.346069</ele><time>2022-01-15T12:02:14Z</time><extensions><speed>0.237292</speed><course>11.470710</course><hAcc>1.786012</hAcc><vAcc>0.784365</vAcc></extensions></trkpt>
      <trkpt lon="-3.045041" lat="52.722893"><ele>361.317841</ele><time>2022-01-15T12:02:15Z</time><extensions><speed>0.207886</speed><course>9.221151</course><hAcc>1.782641</hAcc><vAcc>0.783922</vAcc></extensions></trkpt>
      <trkpt lon="-3.045041" lat="52.722895"><ele>361.286865</ele><time>2022-01-15T12:02:16Z</time><extensions><speed>0.147657</speed><course>3.385020</course><hAcc>1.781089</hAcc><vAcc>0.783582</vAcc></extensions></trkpt>
      <trkpt lon="-3.045041" lat="52.722896"><ele>361.261688</ele><time>2022-01-15T12:02:17Z</time><extensions><speed>0.082277</speed><course>349.058197</course><hAcc>1.770481</hAcc><vAcc>0.783367</vAcc></extensions></trkpt>
      <trkpt lon="-3.045041" lat="52.722896"><ele>361.237854</ele><time>2022-01-15T12:02:18Z</time><extensions><speed>0.039337</speed><course>280.818573</course><hAcc>1.767444</hAcc><vAcc>0.783281</vAcc></extensions></trkpt>
      <trkpt lon="-3.045042" lat="52.722896"><ele>361.215668</ele><time>2022-01-15T12:02:19Z</time><extensions><speed>0.083236</speed><course>223.474548</course><hAcc>1.773231</hAcc><vAcc>0.783313</vAcc></extensions></trkpt>
      <trkpt lon="-3.045043" lat="52.722895"><ele>361.195526</ele><time>2022-01-15T12:02:20Z</time><extensions><speed>0.161344</speed><course>213.579773</course><hAcc>1.745590</hAcc><vAcc>0.783432</vAcc></extensions></trkpt>
      <trkpt lon="-3.045044" lat="52.722894"><ele>361.177826</ele><time>2022-01-15T12:02:21Z</time><extensions><speed>0.198462</speed><course>211.020187</course><hAcc>1.735260</hAcc><vAcc>0.783594</vAcc></extensions></trkpt>
      <trkpt lon="-3.045046" lat="52.722892"><ele>361.163055</ele><time>2022-01-15T12:02:22Z</time><extensions><speed>0.182442</speed><course>210.675598</course><hAcc>1.746778</hAcc><vAcc>0.783782</vAcc></extensions></trkpt>
      <trkpt lon="-3.045047" lat="52.722891"><ele>361.151733</ele><time>2022-01-15T12:02:23Z</time><extensions><speed>0.161815</speed><course>211.803085</course><hAcc>1.753083</hAcc><vAcc>0.783988</vAcc></extensions></trkpt>
      <trkpt lon="-3.045049" lat="52.722890"><ele>361.144073</ele><time>2022-01-15T12:02:24Z</time><extensions><speed>0.148099</speed><course>213.635147</course><hAcc>1.754812</hAcc><vAcc>0.784220</vAcc></extensions></trkpt>
      <trkpt lon="-3.045050" lat="52.722888"><ele>361.139893</ele><time>2022-01-15T12:02:25Z</time><extensions><speed>0.158411</speed><course>214.865234</course><hAcc>1.748956</hAcc><vAcc>0.784484</vAcc></extensions></trkpt>
      <trkpt lon="-3.045051" lat="52.722887"><ele>361.138794</ele><time>2022-01-15T12:02:26Z</time><extensions><speed>0.142326</speed><course>216.279663</course><hAcc>1.761508</hAcc><vAcc>0.784795</vAcc></extensions></trkpt>
      <trkpt lon="-3.045052" lat="52.722886"><ele>361.140228</ele><time>2022-01-15T12:02:27Z</time><extensions><speed>0.125694</speed><course>218.139664</course><hAcc>1.764811</hAcc><vAcc>0.785166</vAcc></extensions></trkpt>
      <trkpt lon="-3.045053" lat="52.722886"><ele>361.143585</ele><time>2022-01-15T12:02:28Z</time><extensions><speed>0.097431</speed><course>219.119095</course><hAcc>1.773365</hAcc><vAcc>0.785579</vAcc></extensions></trkpt>
      <trkpt lon="-3.045054" lat="52.722885"><ele>361.148346</ele><time>2022-01-15T12:02:29Z</time><extensions><speed>0.070109</speed><course>219.751694</course><hAcc>1.783079</hAcc><vAcc>0.786026</vAcc></extensions></trkpt>
      <trkpt lon="-3.045055" lat="52.722885"><ele>361.154053</ele><time>2022-01-15T12:02:30Z</time><extensions><speed>0.048693</speed><course>220.210739</course><hAcc>1.787463</hAcc><vAcc>0.786491</vAcc></extensions></trkpt>
      <trkpt lon="-3.045055" lat="52.722884"><ele>361.166016</ele><time>2022-01-15T12:02:31Z</time><extensions><speed>0.032081</speed><course>222.830750</course><hAcc>1.790054</hAcc><vAcc>0.786949</vAcc></extensions></trkpt>
      <trkpt lon="-3.045055" lat="52.722884"><ele>361.179352</ele><time>2022-01-15T12:02:32Z</time><extensions><speed>0.020320</speed><course>229.359512</course><hAcc>1.790988</hAcc><vAcc>0.787370</vAcc></extensions></trkpt>
      <trkpt lon="-3.045056" lat="52.722884"><ele>361.193726</ele><time>2022-01-15T12:02:33Z</time><extensions><speed>0.013222</speed><course>245.408051</course><hAcc>1.788567</hAcc><vAcc>0.787751</vAcc></extensions></trkpt>
      <trkpt lon="-3.045056" lat="52.722884"><ele>361.208954</ele><time>2022-01-15T12:02:34Z</time><extensions><speed>0.011109</speed><course>274.409912</course><hAcc>1.784790</hAcc><vAcc>0.788068</vAcc></extensions></trkpt>
      <trkpt lon="-3.045056" lat="52.722884"><ele>361.224884</ele><time>2022-01-15T12:02:35Z</time><extensions><speed>0.013970</speed><course>299.262299</course><hAcc>1.782227</hAcc><vAcc>0.788307</vAcc></extensions></trkpt>
      <trkpt lon="-3.045056" lat="52.722884"><ele>361.241394</ele><time>2022-01-15T12:02:36Z</time><extensions><speed>0.020393</speed><course>310.777832</course><hAcc>1.779266</hAcc><vAcc>0.788444</vAcc></extensions></trkpt>
      <trkpt lon="-3.045056" lat="52.722884"><ele>361.258362</ele><time>2022-01-15T12:02:37Z</time><extensions><speed>0.029479</speed><course>315.278198</course><hAcc>1.776477</hAcc><vAcc>0.788488</vAcc></extensions></trkpt>
      <trkpt lon="-3.045057" lat="52.722885"><ele>361.275635</ele><time>2022-01-15T12:02:38Z</time><extensions><speed>0.041574</speed><course>316.998810</course><hAcc>1.773268</hAcc><vAcc>0.788422</vAcc></extensions></trkpt>
      <trkpt lon="-3.045057" lat="52.722885"><ele>361.293060</ele><time>2022-01-15T12:02:39Z</time><extensions><speed>0.053924</speed><course>317.659546</course><hAcc>1.775489</hAcc><vAcc>0.788238</vAcc></extensions></trkpt>
      <trkpt lon="-3.045058" lat="52.722885"><ele>361.310364</ele><time>2022-01-15T12:02:40Z</time><extensions><speed>0.065396</speed><course>317.894775</course><hAcc>1.774740</hAcc><vAcc>0.787954</vAcc></extensions></trkpt>
      <trkpt lon="-3.045059" lat="52.722886"><ele>361.327301</ele><time>2022-01-15T12:02:41Z</time><extensions><speed>0.067711</speed><course>317.907684</course><hAcc>1.769122</hAcc><vAcc>0.787570</vAcc></extensions></trkpt>
      <trkpt lon="-3.045059" lat="52.722886"><ele>361.343506</ele><time>2022-01-15T12:02:42Z</time><extensions><speed>0.055617</speed><course>317.842743</course><hAcc>1.768865</hAcc><vAcc>0.787112</vAcc></extensions></trkpt>
      <trkpt lon="-3.045060" lat="52.722887"><ele>361.358734</ele><time>2022-01-15T12:02:43Z</time><extensions><speed>0.042115</speed><course>317.805878</course><hAcc>1.766146</hAcc><vAcc>0.786610</vAcc></extensions></trkpt>
      <trkpt lon="-3.045060" lat="52.722887"><ele>361.372742</ele><time>2022-01-15T12:02:44Z</time><extensions><speed>0.030229</speed><course>317.781982</course><hAcc>1.760840</hAcc><vAcc>0.786085</vAcc></extensions></trkpt>
      <trkpt lon="-3.045060" lat="52.722887"><ele>361.385468</ele><time>2022-01-15T12:02:45Z</time><extensions><speed>0.020283</speed><course>317.764801</course><hAcc>1.756308</hAcc><vAcc>0.785553</vAcc></extensions></trkpt>
      <trkpt lon="-3.045060" lat="52.722887"><ele>361.377960</ele><time>2022-01-15T12:02:46Z</time><extensions><speed>0.013864</speed><course>326.400909</course><hAcc>1.747351</hAcc><vAcc>0.785013</vAcc></extensions></trkpt>
      <trkpt lon="-3.045060" lat="52.722887"><ele>361.365570</ele><time>2022-01-15T12:02:47Z</time><extensions><speed>0.010049</speed><course>343.578674</course><hAcc>1.741965</hAcc><vAcc>0.784459</vAcc></extensions></trkpt>
      <trkpt lon="-3.045060" lat="52.722887"><ele>361.348389</ele><time>2022-01-15T12:02:48Z</time><extensions><speed>0.009275</speed><course>7.197721</course><hAcc>1.742859</hAcc><vAcc>0.783894</vAcc></extensions></trkpt>
      <trkpt lon="-3.045060" lat="52.722887"><ele>361.326385</ele><time>2022-01-15T12:02:49Z</time><extensions><speed>0.011352</speed><course>25.767569</course><hAcc>1.748903</hAcc><vAcc>0.783240</vAcc></extensions></trkpt>
      <trkpt lon="-3.045060" lat="52.722887"><ele>361.299713</ele><time>2022-01-15T12:02:50Z</time><extensions><speed>0.016929</speed><course>35.125500</course><hAcc>1.746772</hAcc><vAcc>0.782443</vAcc></extensions></trkpt>
      <trkpt lon="-3.045060" lat="52.722888"><ele>361.268646</ele><time>2022-01-15T12:02:51Z</time><extensions><speed>0.027937</speed><course>38.867344</course><hAcc>1.737787</hAcc><vAcc>0.781460</vAcc></extensions></trkpt>
      <trkpt lon="-3.045060" lat="52.722888"><ele>361.233643</ele><time>2022-01-15T12:02:52Z</time><extensions><speed>0.037403</speed><course>40.533619</course><hAcc>1.756366</hAcc><vAcc>0.780410</vAcc></extensions></trkpt>
      <trkpt lon="-3.045059" lat="52.722888"><ele>361.195038</ele><time>2022-01-15T12:02:53Z</time><extensions><speed>0.060000</speed><course>41.281830</course><hAcc>1.751069</hAcc><vAcc>0.779167</vAcc></extensions></trkpt>
      <trkpt lon="-3.045059" lat="52.722889"><ele>361.153503</ele><time>2022-01-15T12:02:54Z</time><extensions><speed>0.080664</speed><course>41.598427</course><hAcc>1.754104</hAcc><vAcc>0.777798</vAcc></extensions></trkpt>
      <trkpt lon="-3.045058" lat="52.722889"><ele>361.109924</ele><time>2022-01-15T12:02:55Z</time><extensions><speed>0.096581</speed><course>41.749306</course><hAcc>1.763449</hAcc><vAcc>0.776156</vAcc></extensions></trkpt>
      <trkpt lon="-3.045057" lat="52.722890"><ele>361.065430</ele><time>2022-01-15T12:02:56Z</time><extensions><speed>0.094767</speed><course>41.815296</course><hAcc>1.771652</hAcc><vAcc>0.774208</vAcc></extensions></trkpt>
      <trkpt lon="-3.045056" lat="52.722890"><ele>361.021393</ele><time>2022-01-15T12:02:57Z</time><extensions><speed>0.077694</speed><course>41.843937</course><hAcc>1.774435</hAcc><vAcc>0.771971</vAcc></extensions></trkpt>
      <trkpt lon="-3.045055" lat="52.722891"><ele>360.978851</ele><time>2022-01-15T12:02:58Z</time><extensions><speed>0.058525</speed><course>41.860130</course><hAcc>1.772599</hAcc><vAcc>0.769649</vAcc></extensions></trkpt>
      <trkpt lon="-3.045055" lat="52.722891"><ele>360.938629</ele><time>2022-01-15T12:02:59Z</time><extensions><speed>0.041673</speed><course>41.870659</course><hAcc>1.767501</hAcc><vAcc>0.767240</vAcc></extensions></trkpt>
      <trkpt lon="-3.045054" lat="52.722892"><ele>360.901398</ele><time>2022-01-15T12:03:00Z</time><extensions><speed>0.029155</speed><course>41.878059</course><hAcc>1.757971</hAcc><vAcc>0.764828</vAcc></extensions></trkpt>
      <trkpt lon="-3.045054" lat="52.722892"><ele>360.867493</ele><time>2022-01-15T12:03:01Z</time><extensions><speed>0.019539</speed><course>41.883446</course><hAcc>1.753466</hAcc><vAcc>0.762506</vAcc></extensions></trkpt>
      <trkpt lon="-3.045054" lat="52.722892"><ele>360.837128</ele><time>2022-01-15T12:03:02Z</time><extensions><speed>0.011754</speed><course>41.887711</course><hAcc>1.759453</hAcc><vAcc>0.760343</vAcc></extensions></trkpt>
      <trkpt lon="-3.045054" lat="52.722892"><ele>360.810333</ele><time>2022-01-15T12:03:03Z</time><extensions><speed>0.007975</speed><course>41.891090</course><hAcc>1.765311</hAcc><vAcc>0.758431</vAcc></extensions></trkpt>
      <trkpt lon="-3.045054" lat="52.722892"><ele>360.795380</ele><time>2022-01-15T12:03:04Z</time><extensions><speed>0.005481</speed><course>32.205181</course><hAcc>1.801993</hAcc><vAcc>0.756829</vAcc></extensions></trkpt>
      <trkpt lon="-3.045054" lat="52.722892"><ele>360.785583</ele><time>2022-01-15T12:03:05Z</time><extensions><speed>0.009915</speed><course>21.970467</course><hAcc>1.772506</hAcc><vAcc>0.755636</vAcc></extensions></trkpt>
      <trkpt lon="-3.045054" lat="52.722892"><ele>360.780823</ele><time>2022-01-15T12:03:06Z</time><extensions><speed>0.016041</speed><course>17.155254</course><hAcc>1.762072</hAcc><vAcc>0.754884</vAcc></extensions></trkpt>
      <trkpt lon="-3.045054" lat="52.722892"><ele>360.780853</ele><time>2022-01-15T12:03:07Z</time><extensions><speed>0.024128</speed><course>14.751307</course><hAcc>1.778477</hAcc><vAcc>0.754624</vAcc></extensions></trkpt>
      <trkpt lon="-3.045053" lat="52.722893"><ele>360.785339</ele><time>2022-01-15T12:03:08Z</time><extensions><speed>0.035377</speed><course>13.552666</course><hAcc>1.796482</hAcc><vAcc>0.754853</vAcc></extensions></trkpt>
      <trkpt lon="-3.045053" lat="52.722893"><ele>360.793945</ele><time>2022-01-15T12:03:09Z</time><extensions><speed>0.052037</speed><course>12.988903</course><hAcc>1.803457</hAcc><vAcc>0.755536</vAcc></extensions></trkpt>
      <trkpt lon="-3.045053" lat="52.722894"><ele>360.806213</ele><time>2022-01-15T12:03:10Z</time><extensions><speed>0.073613</speed><course>12.733001</course><hAcc>1.804881</hAcc><vAcc>0.756607</vAcc></extensions></trkpt>
      <trkpt lon="-3.045053" lat="52.722894"><ele>360.821716</ele><time>2022-01-15T12:03:11Z</time><extensions><speed>0.101563</speed><course>12.618236</course><hAcc>1.798659</hAcc><vAcc>0.758015</vAcc></extensions></trkpt>
      <trkpt lon="-3.045052" lat="52.722895"><ele>360.839905</ele><time>2022-01-15T12:03:12Z</time><extensions><speed>0.135163</speed><course>12.568198</course><hAcc>1.783095</hAcc><vAcc>0.759676</vAcc></extensions></trkpt>
      <trkpt lon="-3.045052" lat="52.722897"><ele>360.860077</ele><time>2022-01-15T12:03:13Z</time><extensions><speed>0.160274</speed><course>12.546476</course><hAcc>1.768632</hAcc><vAcc>0.761545</vAcc></extensions></trkpt>
      <trkpt lon="-3.045051" lat="52.722898"><ele>360.881470</ele><time>2022-01-15T12:03:14Z</time><extensions><speed>0.149858</speed><course>12.537346</course><hAcc>1.765735</hAcc><vAcc>0.763548</vAcc></extensions></trkpt>
      <trkpt lon="-3.045051" lat="52.722899"><ele>360.903259</ele><time>2022-01-15T12:03:15Z</time><extensions><speed>0.111903</speed><course>12.533191</course><hAcc>1.767506</hAcc><vAcc>0.765611</vAcc></extensions></trkpt>
      <trkpt lon="-3.045051" lat="52.722900"><ele>360.919373</ele><time>2022-01-15T12:03:16Z</time><extensions><speed>0.079898</speed><course>12.211939</course><hAcc>1.758123</hAcc><vAcc>0.767661</vAcc></extensions></trkpt>
      <trkpt lon="-3.045051" lat="52.722900"><ele>360.936005</ele><time>2022-01-15T12:03:17Z</time><extensions><speed>0.045478</speed><course>11.546500</course><hAcc>1.764273</hAcc><vAcc>0.769619</vAcc></extensions></trkpt>
      <trkpt lon="-3.045051" lat="52.722901"><ele>360.953339</ele><time>2022-01-15T12:03:18Z</time><extensions><speed>0.014055</speed><course>8.227490</course><hAcc>1.770732</hAcc><vAcc>0.771439</vAcc></extensions></trkpt>
      <trkpt lon="-3.045051" lat="52.722901"><ele>360.963196</ele><time>2022-01-15T12:03:19Z</time><extensions><speed>0.018727</speed><course>198.458282</course><hAcc>1.756523</hAcc><vAcc>0.773021</vAcc></extensions></trkpt>
      <trkpt lon="-3.045051" lat="52.722900"><ele>360.968231</ele><time>2022-01-15T12:03:20Z</time><extensions><speed>0.059648</speed><course>195.478821</course><hAcc>1.760036</hAcc><vAcc>0.774424</vAcc></extensions></trkpt>
      <trkpt lon="-3.045051" lat="52.722899"><ele>360.970032</ele><time>2022-01-15T12:03:21Z</time><extensions><speed>0.111346</speed><course>194.881546</course><hAcc>1.773080</hAcc><vAcc>0.775601</vAcc></extensions></trkpt>
      <trkpt lon="-3.045052" lat="52.722898"><ele>360.968658</ele><time>2022-01-15T12:03:22Z</time><extensions><speed>0.176908</speed><course>194.633591</course><hAcc>1.782922</hAcc><vAcc>0.776524</vAcc></extensions></trkpt>
      <trkpt lon="-3.045052" lat="52.722896"><ele>360.964233</ele><time>2022-01-15T12:03:23Z</time><extensions><speed>0.253858</speed><course>194.474792</course><hAcc>1.788327</hAcc><vAcc>0.777193</vAcc></extensions></trkpt>
      <trkpt lon="-3.045053" lat="52.722894"><ele>360.956970</ele><time>2022-01-15T12:03:24Z</time><extensions><speed>0.334887</speed><course>194.313492</course><hAcc>1.788910</hAcc><vAcc>0.777625</vAcc></extensions></trkpt>
      <trkpt lon="-3.045055" lat="52.722891"><ele>360.947113</ele><time>2022-01-15T12:03:25Z</time><extensions><speed>0.393228</speed><course>194.062363</course><hAcc>1.785120</hAcc><vAcc>0.777839</vAcc></extensions></trkpt>
      <trkpt lon="-3.045056" lat="52.722887"><ele>360.935120</ele><time>2022-01-15T12:03:26Z</time><extensions><speed>0.369990</speed><course>193.452881</course><hAcc>1.778607</hAcc><vAcc>0.777846</vAcc></extensions></trkpt>
      <trkpt lon="-3.045057" lat="52.722885"><ele>360.921356</ele><time>2022-01-15T12:03:27Z</time><extensions><speed>0.263012</speed><course>192.523865</course><hAcc>1.780847</hAcc><vAcc>0.777722</vAcc></extensions></trkpt>
      <trkpt lon="-3.045058" lat="52.722883"><ele>360.906311</ele><time>2022-01-15T12:03:28Z</time><extensions><speed>0.152356</speed><course>192.303741</course><hAcc>1.788717</hAcc><vAcc>0.777489</vAcc></extensions></trkpt>
      <trkpt lon="-3.045058" lat="52.722882"><ele>360.903290</ele><time>2022-01-15T12:03:29Z</time><extensions><speed>0.094852</speed><course>193.254135</course><hAcc>1.776901</hAcc><vAcc>0.777201</vAcc></extensions></trkpt>
      <trkpt lon="-3.045058" lat="52.722881"><ele>360.902435</ele><time>2022-01-15T12:03:30Z</time><extensions><speed>0.053582</speed><course>194.296387</course><hAcc>1.776592</hAcc><vAcc>0.776897</vAcc></extensions></trkpt>
      <trkpt lon="-3.045059" lat="52.722881"><ele>360.904236</ele><time>2022-01-15T12:03:31Z</time><extensions><speed>0.027910</speed><course>194.719284</course><hAcc>1.774661</hAcc><vAcc>0.776648</vAcc></extensions></trkpt>
      <trkpt lon="-3.045059" lat="52.722881"><ele>360.913971</ele><time>2022-01-15T12:03:32Z</time><extensions><speed>0.011193</speed><course>198.763596</course><hAcc>1.766948</hAcc><vAcc>0.776443</vAcc></extensions></trkpt>
      <trkpt lon="-3.045059" lat="52.722880"><ele>360.928528</ele><time>2022-01-15T12:03:33Z</time><extensions><speed>0.002413</speed><course>337.288544</course><hAcc>1.757133</hAcc><vAcc>0.776354</vAcc></extensions></trkpt>
      <trkpt lon="-3.045059" lat="52.722881"><ele>360.947601</ele><time>2022-01-15T12:03:34Z</time><extensions><speed>0.013200</speed><course>5.500119</course><hAcc>1.747300</hAcc><vAcc>0.776386</vAcc></extensions></trkpt>
      <trkpt lon="-3.045059" lat="52.722881"><ele>360.971100</ele><time>2022-01-15T12:03:35Z</time><extensions><speed>0.022935</speed><course>7.549096</course><hAcc>1.741032</hAcc><vAcc>0.776561</vAcc></extensions></trkpt>
      <trkpt lon="-3.045059" lat="52.722881"><ele>360.998901</ele><time>2022-01-15T12:03:36Z</time><extensions><speed>0.030236</speed><course>7.610775</course><hAcc>1.746388</hAcc><vAcc>0.776857</vAcc></extensions></trkpt>
      <trkpt lon="-3.045059" lat="52.722881"><ele>361.030518</ele><time>2022-01-15T12:03:37Z</time><extensions><speed>0.037434</speed><course>6.314010</course><hAcc>1.750851</hAcc><vAcc>0.777284</vAcc></extensions></trkpt>
      <trkpt lon="-3.045059" lat="52.722882"><ele>361.065338</ele><time>2022-01-15T12:03:38Z</time><extensions><speed>0.044388</speed><course>2.742321</course><hAcc>1.753893</hAcc><vAcc>0.777847</vAcc></extensions></trkpt>
      <trkpt lon="-3.045059" lat="52.722882"><ele>361.102417</ele><time>2022-01-15T12:03:39Z</time><extensions><speed>0.038427</speed><course>350.624817</course><hAcc>1.764662</hAcc><vAcc>0.778541</vAcc></extensions></trkpt>
      <trkpt lon="-3.045059" lat="52.722882"><ele>361.140686</ele><time>2022-01-15T12:03:40Z</time><extensions><speed>0.039473</speed><course>322.582489</course><hAcc>1.745888</hAcc><vAcc>0.779359</vAcc></extensions></trkpt>
      <trkpt lon="-3.045059" lat="52.722882"><ele>361.179077</ele><time>2022-01-15T12:03:41Z</time><extensions><speed>0.043415</speed><course>292.379669</course><hAcc>1.749217</hAcc><vAcc>0.780251</vAcc></extensions></trkpt>
      <trkpt lon="-3.045060" lat="52.722883"><ele>361.216644</ele><time>2022-01-15T12:03:42Z</time><extensions><speed>0.045435</speed><course>276.591949</course><hAcc>1.769022</hAcc><vAcc>0.781198</vAcc></extensions></trkpt>
      <trkpt lon="-3.045061" lat="52.722883"><ele>361.231567</ele><time>2022-01-15T12:03:43Z</time><extensions><speed>0.038635</speed><course>275.626190</course><hAcc>1.785442</hAcc><vAcc>0.782188</vAcc></extensions></trkpt>
      <trkpt lon="-3.045061" lat="52.722883"><ele>361.233582</ele><time>2022-01-15T12:03:44Z</time><extensions><speed>0.030371</speed><course>283.370758</course><hAcc>1.790528</hAcc><vAcc>0.783145</vAcc></extensions></trkpt>
      <trkpt lon="-3.045062" lat="52.722883"><ele>361.276123</ele><time>2022-01-15T12:03:45Z</time><extensions><speed>0.026774</speed><course>308.408356</course><hAcc>1.789374</hAcc><vAcc>0.783922</vAcc></extensions></trkpt>
      <trkpt lon="-3.045062" lat="52.722883"><ele>361.321045</ele><time>2022-01-15T12:03:46Z</time><extensions><speed>0.033585</speed><course>335.797424</course><hAcc>1.786454</hAcc><vAcc>0.784388</vAcc></extensions></trkpt>
      <trkpt lon="-3.045062" lat="52.722884"><ele>361.336639</ele><time>2022-01-15T12:03:47Z</time><extensions><speed>0.044814</speed><course>350.295013</course><hAcc>1.783792</hAcc><vAcc>0.784656</vAcc></extensions></trkpt>
      <trkpt lon="-3.045062" lat="52.722884"><ele>361.344177</ele><time>2022-01-15T12:03:48Z</time><extensions><speed>0.063158</speed><course>357.490448</course><hAcc>1.775952</hAcc><vAcc>0.784419</vAcc></extensions></trkpt>
      <trkpt lon="-3.045062" lat="52.722885"><ele>361.342621</ele><time>2022-01-15T12:03:49Z</time><extensions><speed>0.087610</speed><course>0.872579</course><hAcc>1.764915</hAcc><vAcc>0.783804</vAcc></extensions></trkpt>
      <trkpt lon="-3.045062" lat="52.722886"><ele>361.338837</ele><time>2022-01-15T12:03:50Z</time><extensions><speed>0.120157</speed><course>2.391004</course><hAcc>1.751894</hAcc><vAcc>0.782713</vAcc></extensions></trkpt>
      <trkpt lon="-3.045062" lat="52.722887"><ele>361.332336</ele><time>2022-01-15T12:03:51Z</time><extensions><speed>0.155396</speed><course>2.946616</course><hAcc>1.736453</hAcc><vAcc>0.781337</vAcc></extensions></trkpt>
      <trkpt lon="-3.045062" lat="52.722888"><ele>361.322418</ele><time>2022-01-15T12:03:52Z</time><extensions><speed>0.182199</speed><course>2.985373</course><hAcc>1.723217</hAcc><vAcc>0.779625</vAcc></extensions></trkpt>
      <trkpt lon="-3.045062" lat="52.722890"><ele>361.309662</ele><time>2022-01-15T12:03:53Z</time><extensions><speed>0.168150</speed><course>2.412739</course><hAcc>1.729006</hAcc><vAcc>0.777616</vAcc></extensions></trkpt>
      <trkpt lon="-3.045061" lat="52.722891"><ele>361.294586</ele><time>2022-01-15T12:03:54Z</time><extensions><speed>0.106771</speed><course>2.387080</course><hAcc>1.759158</hAcc><vAcc>0.775395</vAcc></extensions></trkpt>
      <trkpt lon="-3.045061" lat="52.722892"><ele>361.274261</ele><time>2022-01-15T12:03:55Z</time><extensions><speed>0.043647</speed><course>11.581820</course><hAcc>1.770570</hAcc><vAcc>0.773096</vAcc></extensions></trkpt>
      <trkpt lon="-3.045061" lat="52.722892"><ele>361.250122</ele><time>2022-01-15T12:03:56Z</time><extensions><speed>0.032027</speed><course>137.609222</course><hAcc>1.745202</hAcc><vAcc>0.770860</vAcc></extensions></trkpt>
      <trkpt lon="-3.045061" lat="52.722891"><ele>361.222809</ele><time>2022-01-15T12:03:57Z</time><extensions><speed>0.077054</speed><course>154.739334</course><hAcc>1.745754</hAcc><vAcc>0.768803</vAcc></extensions></trkpt>
      <trkpt lon="-3.045060" lat="52.722891"><ele>361.193207</ele><time>2022-01-15T12:03:58Z</time><extensions><speed>0.086484</speed><course>152.163895</course><hAcc>1.767408</hAcc><vAcc>0.767041</vAcc></extensions></trkpt>
      <trkpt lon="-3.045059" lat="52.722890"><ele>361.162506</ele><time>2022-01-15T12:03:59Z</time><extensions><speed>0.083565</speed><course>147.920181</course><hAcc>1.788637</hAcc><vAcc>0.765666</vAcc></extensions></trkpt>
      <trkpt lon="-3.045059" lat="52.722889"><ele>361.144684</ele><time>2022-01-15T12:04:00Z</time><extensions><speed>0.100963</speed><course>153.196198</course><hAcc>1.800323</hAcc><vAcc>0.764781</vAcc></extensions></trkpt>
      <trkpt lon="-3.045058" lat="52.722888"><ele>361.133759</ele><time>2022-01-15T12:04:01Z</time><extensions><speed>0.150059</speed><course>162.066162</course><hAcc>1.805897</hAcc><vAcc>0.764343</vAcc></extensions></trkpt>
      <trkpt lon="-3.045057" lat="52.722886"><ele>361.130096</ele><time>2022-01-15T12:04:02Z</time><extensions><speed>0.227024</speed><course>167.398636</course><hAcc>1.805136</hAcc><vAcc>0.764170</vAcc></extensions></trkpt>
      <trkpt lon="-3.045057" lat="52.722884"><ele>361.132996</ele><time>2022-01-15T12:04:02Z</time><extensions><speed>0.320432</speed><course>169.992310</course><hAcc>1.800871</hAcc><vAcc>0.764094</vAcc></extensions></trkpt>
      <trkpt lon="-3.045056" lat="52.722881"><ele>361.141968</ele><time>2022-01-15T12:04:03Z</time><extensions><speed>0.405088</speed><course>171.352921</course><hAcc>1.794747</hAcc><vAcc>0.763873</vAcc></extensions></trkpt>
      <trkpt lon="-3.045055" lat="52.722877"><ele>361.145508</ele><time>2022-01-15T12:04:05Z</time><extensions><speed>0.433010</speed><course>172.478500</course><hAcc>1.785230</hAcc><vAcc>0.763717</vAcc></extensions></trkpt>
      <trkpt lon="-3.045054" lat="52.722873"><ele>361.163971</ele><time>2022-01-15T12:04:06Z</time><extensions><speed>0.375402</speed><course>173.995880</course><hAcc>1.780250</hAcc><vAcc>0.763354</vAcc></extensions></trkpt>
      <trkpt lon="-3.045054" lat="52.722870"><ele>361.181915</ele><time>2022-01-15T12:04:07Z</time><extensions><speed>0.303854</speed><course>176.457703</course><hAcc>1.775890</hAcc><vAcc>0.762791</vAcc></extensions></trkpt>
      <trkpt lon="-3.045054" lat="52.722868"><ele>361.194031</ele><time>2022-01-15T12:04:08Z</time><extensions><speed>0.242495</speed><course>180.162811</course><hAcc>1.774095</hAcc><vAcc>0.762022</vAcc></extensions></trkpt>
      <trkpt lon="-3.045054" lat="52.722866"><ele>361.224976</ele><time>2022-01-15T12:04:09Z</time><extensions><speed>0.183252</speed><course>184.989868</course><hAcc>1.787694</hAcc><vAcc>0.760848</vAcc></extensions></trkpt>
      <trkpt lon="-3.045054" lat="52.722865"><ele>361.259888</ele><time>2022-01-15T12:04:10Z</time><extensions><speed>0.111394</speed><course>192.359421</course><hAcc>1.808574</hAcc><vAcc>0.759123</vAcc></extensions></trkpt>
      <trkpt lon="-3.045055" lat="52.722864"><ele>361.288544</ele><time>2022-01-15T12:04:11Z</time><extensions><speed>0.089737</speed><course>204.806290</course><hAcc>1.786912</hAcc><vAcc>0.756648</vAcc></extensions></trkpt>
      <trkpt lon="-3.045055" lat="52.722863"><ele>361.335175</ele><time>2022-01-15T12:04:12Z</time><extensions><speed>0.078648</speed><course>214.752640</course><hAcc>1.788011</hAcc><vAcc>0.753308</vAcc></extensions></trkpt>
      <trkpt lon="-3.045056" lat="52.722862"><ele>361.384247</ele><time>2022-01-15T12:04:13Z</time><extensions><speed>0.086102</speed><course>215.728287</course><hAcc>1.802957</hAcc><vAcc>0.748679</vAcc></extensions></trkpt>
      <trkpt lon="-3.045057" lat="52.722862"><ele>361.433868</ele><time>2022-01-15T12:04:14Z</time><extensions><speed>0.110741</speed><course>213.688599</course><hAcc>1.807743</hAcc><vAcc>0.742843</vAcc></extensions></trkpt>
      <trkpt lon="-3.045058" lat="52.722861"><ele>361.484406</ele><time>2022-01-15T12:04:15Z</time><extensions><speed>0.118140</speed><course>214.580856</course><hAcc>1.817329</hAcc><vAcc>0.735219</vAcc></extensions></trkpt>
      <trkpt lon="-3.045059" lat="52.722860"><ele>361.535370</ele><time>2022-01-15T12:04:16Z</time><extensions><speed>0.111012</speed><course>217.878738</course><hAcc>1.820901</hAcc><vAcc>0.725872</vAcc></extensions></trkpt>
      <trkpt lon="-3.045060" lat="52.722859"><ele>361.592285</ele><time>2022-01-15T12:04:17Z</time><extensions><speed>0.093362</speed><course>220.729691</course><hAcc>1.819349</hAcc><vAcc>0.714296</vAcc></extensions></trkpt>
      <trkpt lon="-3.045061" lat="52.722859"><ele>361.643188</ele><time>2022-01-15T12:04:18Z</time><extensions><speed>0.069969</speed><course>221.357529</course><hAcc>1.813570</hAcc><vAcc>0.700089</vAcc></extensions></trkpt>
      <trkpt lon="-3.045061" lat="52.722858"><ele>361.679169</ele><time>2022-01-15T12:04:19Z</time><extensions><speed>0.051636</speed><course>224.383362</course><hAcc>1.806399</hAcc><vAcc>0.682841</vAcc></extensions></trkpt>
      <trkpt lon="-3.045062" lat="52.722858"><ele>361.724609</ele><time>2022-01-15T12:04:20Z</time><extensions><speed>0.042553</speed><course>233.567902</course><hAcc>1.804182</hAcc><vAcc>0.662529</vAcc></extensions></trkpt>
      <trkpt lon="-3.045062" lat="52.722859"><ele>361.759766</ele><time>2022-01-15T12:04:21Z</time><extensions><speed>0.032671</speed><course>262.204132</course><hAcc>1.821152</hAcc><vAcc>0.639417</vAcc></extensions></trkpt>
      <trkpt lon="-3.045063" lat="52.722859"><ele>361.793488</ele><time>2022-01-15T12:04:22Z</time><extensions><speed>0.031525</speed><course>309.018768</course><hAcc>1.861953</hAcc><vAcc>0.614187</vAcc></extensions></trkpt>
      <trkpt lon="-3.045063" lat="52.722859"><ele>361.817078</ele><time>2022-01-15T12:04:23Z</time><extensions><speed>0.058299</speed><course>342.359009</course><hAcc>1.890441</hAcc><vAcc>0.588078</vAcc></extensions></trkpt>
      <trkpt lon="-3.045063" lat="52.722860"><ele>361.829132</ele><time>2022-01-15T12:04:24Z</time><extensions><speed>0.122735</speed><course>353.668610</course><hAcc>1.894239</hAcc><vAcc>0.562873</vAcc></extensions></trkpt>
      <trkpt lon="-3.045063" lat="52.722862"><ele>361.827118</ele><time>2022-01-15T12:04:25Z</time><extensions><speed>0.244928</speed><course>357.808594</course><hAcc>1.883155</hAcc><vAcc>0.540786</vAcc></extensions></trkpt>
      <trkpt lon="-3.045063" lat="52.722865"><ele>361.810944</ele><time>2022-01-15T12:04:26Z</time><extensions><speed>0.339149</speed><course>0.234107</course><hAcc>1.915357</hAcc><vAcc>0.524200</vAcc></extensions></trkpt>
      <trkpt lon="-3.045063" lat="52.722868"><ele>361.781647</ele><time>2022-01-15T12:04:27Z</time><extensions><speed>0.398848</speed><course>2.667848</course><hAcc>1.969452</hAcc><vAcc>0.515263</vAcc></extensions></trkpt>
      <trkpt lon="-3.045063" lat="52.722872"><ele>361.741791</ele><time>2022-01-15T12:04:28Z</time><extensions><speed>0.428701</speed><course>4.937313</course><hAcc>1.999856</hAcc><vAcc>0.515487</vAcc></extensions></trkpt>
      <trkpt lon="-3.045062" lat="52.722876"><ele>361.700836</ele><time>2022-01-15T12:04:29Z</time><extensions><speed>0.537841</speed><course>6.228060</course><hAcc>1.963347</hAcc><vAcc>0.525212</vAcc></extensions></trkpt>
      <trkpt lon="-3.045061" lat="52.722881"><ele>361.656067</ele><time>2022-01-15T12:04:30Z</time><extensions><speed>0.544120</speed><course>7.367200</course><hAcc>1.912156</hAcc><vAcc>0.543150</vAcc></extensions></trkpt>
      <trkpt lon="-3.045060" lat="52.722885"><ele>361.609833</ele><time>2022-01-15T12:04:31Z</time><extensions><speed>0.450804</speed><course>8.878591</course><hAcc>1.865552</hAcc><vAcc>0.566576</vAcc></extensions></trkpt>
      <trkpt lon="-3.045059" lat="52.722889"><ele>361.563995</ele><time>2022-01-15T12:04:32Z</time><extensions><speed>0.354171</speed><course>11.060931</course><hAcc>1.814754</hAcc><vAcc>0.592493</vAcc></extensions></trkpt>
      <trkpt lon="-3.045058" lat="52.722891"><ele>361.520264</ele><time>2022-01-15T12:04:33Z</time><extensions><speed>0.218000</speed><course>13.780279</course><hAcc>1.786206</hAcc><vAcc>0.618508</vAcc></extensions></trkpt>
      <trkpt lon="-3.045057" lat="52.722893"><ele>361.470795</ele><time>2022-01-15T12:04:34Z</time><extensions><speed>0.129622</speed><course>16.428202</course><hAcc>1.758105</hAcc><vAcc>0.643006</vAcc></extensions></trkpt>
      <trkpt lon="-3.045057" lat="52.722893"><ele>361.413208</ele><time>2022-01-15T12:04:35Z</time><extensions><speed>0.057768</speed><course>17.187937</course><hAcc>1.748393</hAcc><vAcc>0.665080</vAcc></extensions></trkpt>
      <trkpt lon="-3.045057" lat="52.722894"><ele>361.356537</ele><time>2022-01-15T12:04:36Z</time><extensions><speed>0.015087</speed><course>9.963703</course><hAcc>1.735525</hAcc><vAcc>0.684154</vAcc></extensions></trkpt>
      <trkpt lon="-3.045057" lat="52.722894"><ele>361.300354</ele><time>2022-01-15T12:04:37Z</time><extensions><speed>0.020154</speed><course>210.843124</course><hAcc>1.723982</hAcc><vAcc>0.699758</vAcc></extensions></trkpt>
      <trkpt lon="-3.045057" lat="52.722893"><ele>361.245575</ele><time>2022-01-15T12:04:38Z</time><extensions><speed>0.053095</speed><course>204.238358</course><hAcc>1.705689</hAcc><vAcc>0.712373</vAcc></extensions></trkpt>
      <trkpt lon="-3.045058" lat="52.722893"><ele>361.206207</ele><time>2022-01-15T12:04:39Z</time><extensions><speed>0.083076</speed><course>198.934082</course><hAcc>1.677297</hAcc><vAcc>0.721259</vAcc></extensions></trkpt>
      <trkpt lon="-3.045058" lat="52.722892"><ele>361.166656</ele><time>2022-01-15T12:04:40Z</time><extensions><speed>0.082506</speed><course>194.726562</course><hAcc>1.679786</hAcc><vAcc>0.727320</vAcc></extensions></trkpt>
      <trkpt lon="-3.045058" lat="52.722891"><ele>361.126038</ele><time>2022-01-15T12:04:41Z</time><extensions><speed>0.076136</speed><course>192.827545</course><hAcc>1.687793</hAcc><vAcc>0.730381</vAcc></extensions></trkpt>
      <trkpt lon="-3.045058" lat="52.722891"><ele>361.091614</ele><time>2022-01-15T12:04:42Z</time><extensions><speed>0.069841</speed><course>192.116669</course><hAcc>1.698721</hAcc><vAcc>0.729641</vAcc></extensions></trkpt>
      <trkpt lon="-3.045059" lat="52.722890"><ele>361.086456</ele><time>2022-01-15T12:04:43Z</time><extensions><speed>0.061825</speed><course>190.816711</course><hAcc>1.712717</hAcc><vAcc>0.726637</vAcc></extensions></trkpt>
      <trkpt lon="-3.045059" lat="52.722890"><ele>361.068176</ele><time>2022-01-15T12:04:44Z</time><extensions><speed>0.068334</speed><course>188.051208</course><hAcc>1.702626</hAcc><vAcc>0.720795</vAcc></extensions></trkpt>
      <trkpt lon="-3.045059" lat="52.722889"><ele>361.056152</ele><time>2022-01-15T12:04:45Z</time><extensions><speed>0.070017</speed><course>181.892365</course><hAcc>1.692125</hAcc><vAcc>0.712299</vAcc></extensions></trkpt>
      <trkpt lon="-3.045059" lat="52.722888"><ele>361.050537</ele><time>2022-01-15T12:04:46Z</time><extensions><speed>0.052073</speed><course>169.550552</course><hAcc>1.720221</hAcc><vAcc>0.701680</vAcc></extensions></trkpt>
      <trkpt lon="-3.045058" lat="52.722888"><ele>361.051758</ele><time>2022-01-15T12:04:47Z</time><extensions><speed>0.047326</speed><course>150.693588</course><hAcc>1.748325</hAcc><vAcc>0.689773</vAcc></extensions></trkpt>
      <trkpt lon="-3.045058" lat="52.722888"><ele>361.057739</ele><time>2022-01-15T12:04:48Z</time><extensions><speed>0.038526</speed><course>124.918686</course><hAcc>1.797618</hAcc><vAcc>0.677676</vAcc></extensions></trkpt>
      <trkpt lon="-3.045057" lat="52.722888"><ele>361.067993</ele><time>2022-01-15T12:04:49Z</time><extensions><speed>0.050429</speed><course>102.328857</course><hAcc>1.805985</hAcc><vAcc>0.666692</vAcc></extensions></trkpt>
      <trkpt lon="-3.045057" lat="52.722888"><ele>361.081268</ele><time>2022-01-15T12:04:50Z</time><extensions><speed>0.060472</speed><course>86.709534</course><hAcc>1.820841</hAcc><vAcc>0.658223</vAcc></extensions></trkpt>
      <trkpt lon="-3.045056" lat="52.722888"><ele>361.096191</ele><time>2022-01-15T12:04:51Z</time><extensions><speed>0.069536</speed><course>73.043129</course><hAcc>1.842247</hAcc><vAcc>0.653570</vAcc></extensions></trkpt>
      <trkpt lon="-3.045055" lat="52.722888"><ele>361.111115</ele><time>2022-01-15T12:04:52Z</time><extensions><speed>0.076914</speed><course>62.508163</course><hAcc>1.860515</hAcc><vAcc>0.653696</vAcc></extensions></trkpt>
      <trkpt lon="-3.045054" lat="52.722888"><ele>361.124634</ele><time>2022-01-15T12:04:53Z</time><extensions><speed>0.066246</speed><course>57.191029</course><hAcc>1.872840</hAcc><vAcc>0.658820</vAcc></extensions></trkpt>
      <trkpt lon="-3.045053" lat="52.722889"><ele>361.134705</ele><time>2022-01-15T12:04:54Z</time><extensions><speed>0.065348</speed><course>45.624577</course><hAcc>1.844750</hAcc><vAcc>0.668149</vAcc></extensions></trkpt>
      <trkpt lon="-3.045052" lat="52.722889"><ele>361.141022</ele><time>2022-01-15T12:04:55Z</time><extensions><speed>0.071981</speed><course>26.253035</course><hAcc>1.816031</hAcc><vAcc>0.680276</vAcc></extensions></trkpt>
      <trkpt lon="-3.045052" lat="52.722890"><ele>361.144043</ele><time>2022-01-15T12:04:56Z</time><extensions><speed>0.085423</speed><course>10.640584</course><hAcc>1.798600</hAcc><vAcc>0.693754</vAcc></extensions></trkpt>
      <trkpt lon="-3.045052" lat="52.722891"><ele>361.144287</ele><time>2022-01-15T12:04:57Z</time><extensions><speed>0.096360</speed><course>1.435109</course><hAcc>1.794819</hAcc><vAcc>0.707430</vAcc></extensions></trkpt>
      <trkpt lon="-3.045052" lat="52.722891"><ele>361.142303</ele><time>2022-01-15T12:04:58Z</time><extensions><speed>0.076435</speed><course>356.242371</course><hAcc>1.810648</hAcc><vAcc>0.720485</vAcc></extensions></trkpt>
      <trkpt lon="-3.045052" lat="52.722892"><ele>361.138763</ele><time>2022-01-15T12:04:59Z</time><extensions><speed>0.049529</speed><course>350.652985</course><hAcc>1.803881</hAcc><vAcc>0.732423</vAcc></extensions></trkpt>
      <trkpt lon="-3.045052" lat="52.722892"><ele>361.134186</ele><time>2022-01-15T12:05:00Z</time><extensions><speed>0.018508</speed><course>327.546448</course><hAcc>1.785530</hAcc><vAcc>0.742998</vAcc></extensions></trkpt>
      <trkpt lon="-3.045052" lat="52.722892"><ele>361.128998</ele><time>2022-01-15T12:05:01Z</time><extensions><speed>0.024880</speed><course>205.451111</course><hAcc>1.781473</hAcc><vAcc>0.752123</vAcc></extensions></trkpt>
      <trkpt lon="-3.045052" lat="52.722892"><ele>361.123566</ele><time>2022-01-15T12:05:02Z</time><extensions><speed>0.056081</speed><course>191.028397</course><hAcc>1.787274</hAcc><vAcc>0.759840</vAcc></extensions></trkpt>
      <trkpt lon="-3.045053" lat="52.722891"><ele>361.118134</ele><time>2022-01-15T12:05:03Z</time><extensions><speed>0.068495</speed><course>188.107773</course><hAcc>1.791716</hAcc><vAcc>0.766271</vAcc></extensions></trkpt>
      <trkpt lon="-3.045053" lat="52.722891"><ele>361.112823</ele><time>2022-01-15T12:05:04Z</time><extensions><speed>0.060849</speed><course>187.139694</course><hAcc>1.793953</hAcc><vAcc>0.771569</vAcc></extensions></trkpt>
      <trkpt lon="-3.045053" lat="52.722890"><ele>361.107788</ele><time>2022-01-15T12:05:05Z</time><extensions><speed>0.046317</speed><course>186.632645</course><hAcc>1.794786</hAcc><vAcc>0.775904</vAcc></extensions></trkpt>
      <trkpt lon="-3.045053" lat="52.722890"><ele>361.103058</ele><time>2022-01-15T12:05:06Z</time><extensions><speed>0.034176</speed><course>186.307236</course><hAcc>1.786234</hAcc><vAcc>0.779418</vAcc></extensions></trkpt>
      <trkpt lon="-3.045053" lat="52.722890"><ele>361.098755</ele><time>2022-01-15T12:05:07Z</time><extensions><speed>0.023676</speed><course>186.079788</course><hAcc>1.777816</hAcc><vAcc>0.782233</vAcc></extensions></trkpt>
      <trkpt lon="-3.045053" lat="52.722889"><ele>361.094849</ele><time>2022-01-15T12:05:08Z</time><extensions><speed>0.015584</speed><course>185.903702</course><hAcc>1.770055</hAcc><vAcc>0.784515</vAcc></extensions></trkpt>
      <trkpt lon="-3.045053" lat="52.722889"><ele>361.091370</ele><time>2022-01-15T12:05:09Z</time><extensions><speed>0.010104</speed><course>185.758881</course><hAcc>1.760335</hAcc><vAcc>0.786356</vAcc></extensions></trkpt>
      <trkpt lon="-3.045053" lat="52.722889"><ele>361.088348</ele><time>2022-01-15T12:05:10Z</time><extensions><speed>0.006140</speed><course>185.634430</course><hAcc>1.756019</hAcc><vAcc>0.787848</vAcc></extensions></trkpt>
      <trkpt lon="-3.045053" lat="52.722889"><ele>361.085693</ele><time>2022-01-15T12:05:11Z</time><extensions><speed>0.003731</speed><course>185.521561</course><hAcc>1.750942</hAcc><vAcc>0.789059</vAcc></extensions></trkpt>
      <trkpt lon="-3.045053" lat="52.722889"><ele>361.083466</ele><time>2022-01-15T12:05:12Z</time><extensions><speed>0.002247</speed><course>185.420349</course><hAcc>1.750272</hAcc><vAcc>0.790054</vAcc></extensions></trkpt>
      <trkpt lon="-3.045053" lat="52.722889"><ele>361.081573</ele><time>2022-01-15T12:05:13Z</time><extensions><speed>0.001341</speed><course>185.329910</course><hAcc>1.757688</hAcc><vAcc>0.790886</vAcc></extensions></trkpt>
      <trkpt lon="-3.045053" lat="52.722889"><ele>361.079987</ele><time>2022-01-15T12:05:14Z</time><extensions><speed>0.000797</speed><course>185.247711</course><hAcc>1.764553</hAcc><vAcc>0.791580</vAcc></extensions></trkpt>
      <trkpt lon="-3.045053" lat="52.722889"><ele>361.078735</ele><time>2022-01-15T12:05:15Z</time><extensions><speed>0.000583</speed><course>185.179276</course><hAcc>1.750488</hAcc><vAcc>0.792163</vAcc></extensions></trkpt>
      <trkpt lon="-3.045053" lat="52.722889"><ele>361.077698</ele><time>2022-01-15T12:05:16Z</time><extensions><speed>0.000403</speed><course>185.130402</course><hAcc>1.751860</hAcc><vAcc>0.792652</vAcc></extensions></trkpt>
      <trkpt lon="-3.045053" lat="52.722889"><ele>361.076935</ele><time>2022-01-15T12:05:17Z</time><extensions><speed>0.000265</speed><course>185.091827</course><hAcc>1.763836</hAcc><vAcc>0.793066</vAcc></extensions></trkpt>
      <trkpt lon="-3.045053" lat="52.722889"><ele>361.076324</ele><time>2022-01-15T12:05:18Z</time><extensions><speed>0.000168</speed><course>185.058777</course><hAcc>1.772620</hAcc><vAcc>0.793425</vAcc></extensions></trkpt>
      <trkpt lon="-3.045053" lat="52.722889"><ele>361.075897</ele><time>2022-01-15T12:05:19Z</time><extensions><speed>0.000105</speed><course>185.028961</course><hAcc>1.773605</hAcc><vAcc>0.793733</vAcc></extensions></trkpt>
      <trkpt lon="-3.045053" lat="52.722889"><ele>361.075623</ele><time>2022-01-15T12:05:20Z</time><extensions><speed>0.000063</speed><course>185.000748</course><hAcc>1.769798</hAcc><vAcc>0.793994</vAcc></extensions></trkpt>
      <trkpt lon="-3.045053" lat="52.722889"><ele>361.075470</ele><time>2022-01-15T12:05:21Z</time><extensions><speed>0.000038</speed><course>184.972717</course><hAcc>1.755190</hAcc><vAcc>0.794220</vAcc></extensions></trkpt>
      <trkpt lon="-3.045053" lat="52.722889"><ele>361.075378</ele><time>2022-01-15T12:05:22Z</time><extensions><speed>0.000022</speed><course>184.944626</course><hAcc>1.737526</hAcc><vAcc>0.794410</vAcc></extensions></trkpt>
      <trkpt lon="-3.045053" lat="52.722889"><ele>361.075378</ele><time>2022-01-15T12:05:23Z</time><extensions><speed>0.000012</speed><course>184.915222</course><hAcc>1.723738</hAcc><vAcc>0.794567</vAcc></extensions></trkpt>
      <trkpt lon="-3.045053" lat="52.722889"><ele>361.075439</ele><time>2022-01-15T12:05:24Z</time><extensions><speed>0.000006</speed><course>184.881805</course><hAcc>1.715250</hAcc><vAcc>0.794689</vAcc></extensions></trkpt>
      <trkpt lon="-3.045053" lat="52.722889"><ele>361.075531</ele><time>2022-01-15T12:05:25Z</time><extensions><speed>0.000003</speed><course>184.842178</course><hAcc>1.696765</hAcc><vAcc>0.794777</vAcc></extensions></trkpt>
      <trkpt lon="-3.045053" lat="52.722889"><ele>361.075653</ele><time>2022-01-15T12:05:26Z</time><extensions><speed>0.000002</speed><course>184.798721</course><hAcc>1.685511</hAcc><vAcc>0.794835</vAcc></extensions></trkpt>
      <trkpt lon="-3.045053" lat="52.722889"><ele>361.075775</ele><time>2022-01-15T12:05:27Z</time><extensions><speed>0.000001</speed><course>184.752914</course><hAcc>1.675170</hAcc><vAcc>0.794851</vAcc></extensions></trkpt>
      <trkpt lon="-3.045053" lat="52.722889"><ele>361.075928</ele><time>2022-01-15T12:05:28Z</time><extensions><speed>0.000001</speed><course>184.711533</course><hAcc>1.669533</hAcc><vAcc>0.794828</vAcc></extensions></trkpt>
      <trkpt lon="-3.045053" lat="52.722889"><ele>361.076111</ele><time>2022-01-15T12:05:29Z</time><extensions><speed>0.000000</speed><course>184.678711</course><hAcc>1.675422</hAcc><vAcc>0.794764</vAcc></extensions></trkpt>
      <trkpt lon="-3.045053" lat="52.722889"><ele>361.076263</ele><time>2022-01-15T12:05:30Z</time><extensions><speed>0.000000</speed><course>184.656113</course><hAcc>1.685489</hAcc><vAcc>0.794642</vAcc></extensions></trkpt>
      <trkpt lon="-3.045053" lat="52.722889"><ele>361.076050</ele><time>2022-01-15T12:05:31Z</time><extensions><speed>0.000882</speed><course>239.978729</course><hAcc>1.715183</hAcc><vAcc>0.794501</vAcc></extensions></trkpt>
      <trkpt lon="-3.045053" lat="52.722889"><ele>361.075684</ele><time>2022-01-15T12:05:32Z</time><extensions><speed>0.003041</speed><course>245.918900</course><hAcc>1.700925</hAcc><vAcc>0.794334</vAcc></extensions></trkpt>
      <trkpt lon="-3.045053" lat="52.722889"><ele>361.075195</ele><time>2022-01-15T12:05:33Z</time><extensions><speed>0.006092</speed><course>248.030350</course><hAcc>1.711942</hAcc><vAcc>0.794142</vAcc></extensions></trkpt>
      <trkpt lon="-3.045053" lat="52.722889"><ele>361.074615</ele><time>2022-01-15T12:05:34Z</time><extensions><speed>0.010548</speed><course>249.016449</course><hAcc>1.738837</hAcc><vAcc>0.793934</vAcc></extensions></trkpt>
      <trkpt lon="-3.045054" lat="52.722889"><ele>361.073944</ele><time>2022-01-15T12:05:35Z</time><extensions><speed>0.016852</speed><course>249.605301</course><hAcc>1.763852</hAcc><vAcc>0.793717</vAcc></extensions></trkpt>
      <trkpt lon="-3.045054" lat="52.722889"><ele>361.073212</ele><time>2022-01-15T12:05:36Z</time><extensions><speed>0.025864</speed><course>250.056015</course><hAcc>1.778831</hAcc><vAcc>0.793504</vAcc></extensions></trkpt>
      <trkpt lon="-3.045054" lat="52.722889"><ele>361.072357</ele><time>2022-01-15T12:05:37Z</time><extensions><speed>0.037978</speed><course>250.473251</course><hAcc>1.785480</hAcc><vAcc>0.793305</vAcc></extensions></trkpt>
      <trkpt lon="-3.045055" lat="52.722889"><ele>361.071442</ele><time>2022-01-15T12:05:38Z</time><extensions><speed>0.052840</speed><course>250.972778</course><hAcc>1.786509</hAcc><vAcc>0.793117</vAcc></extensions></trkpt>
      <trkpt lon="-3.045056" lat="52.722889"><ele>361.070465</ele><time>2022-01-15T12:05:39Z</time><extensions><speed>0.070046</speed><course>251.679321</course><hAcc>1.779054</hAcc><vAcc>0.792952</vAcc></extensions></trkpt>
      <trkpt lon="-3.045057" lat="52.722888"><ele>361.069427</ele><time>2022-01-15T12:05:40Z</time><extensions><speed>0.084072</speed><course>252.890457</course><hAcc>1.765409</hAcc><vAcc>0.792820</vAcc></extensions></trkpt>
      <trkpt lon="-3.045058" lat="52.722888"><ele>361.068390</ele><time>2022-01-15T12:05:41Z</time><extensions><speed>0.081353</speed><course>255.781616</course><hAcc>1.753189</hAcc><vAcc>0.792712</vAcc></extensions></trkpt>
      <trkpt lon="-3.045059" lat="52.722888"><ele>361.067322</ele><time>2022-01-15T12:05:42Z</time><extensions><speed>0.060881</speed><course>259.549927</course><hAcc>1.749362</hAcc><vAcc>0.792635</vAcc></extensions></trkpt>
      <trkpt lon="-3.045060" lat="52.722888"><ele>361.066315</ele><time>2022-01-15T12:05:43Z</time><extensions><speed>0.043325</speed><course>261.882050</course><hAcc>1.740215</hAcc><vAcc>0.792594</vAcc></extensions></trkpt>
      <trkpt lon="-3.045060" lat="52.722888"><ele>361.070557</ele><time>2022-01-15T12:05:44Z</time><extensions><speed>0.028754</speed><course>258.364685</course><hAcc>1.732944</hAcc><vAcc>0.792575</vAcc></extensions></trkpt>
      <trkpt lon="-3.045061" lat="52.722888"><ele>361.075867</ele><time>2022-01-15T12:05:45Z</time><extensions><speed>0.016941</speed><course>245.717773</course><hAcc>1.743672</hAcc><vAcc>0.792585</vAcc></extensions></trkpt>
      <trkpt lon="-3.045061" lat="52.722888"><ele>361.082153</ele><time>2022-01-15T12:05:46Z</time><extensions><speed>0.011062</speed><course>205.419174</course><hAcc>1.758661</hAcc><vAcc>0.792609</vAcc></extensions></trkpt>
      <trkpt lon="-3.045061" lat="52.722888"><ele>361.089478</ele><time>2022-01-15T12:05:47Z</time><extensions><speed>0.021146</speed><course>166.168915</course><hAcc>1.737491</hAcc><vAcc>0.792647</vAcc></extensions></trkpt>
      <trkpt lon="-3.045061" lat="52.722887"><ele>361.097809</ele><time>2022-01-15T12:05:48Z</time><extensions><speed>0.038093</speed><course>152.685974</course><hAcc>1.735552</hAcc><vAcc>0.792693</vAcc></extensions></trkpt>
      <trkpt lon="-3.045060" lat="52.722887"><ele>361.107086</ele><time>2022-01-15T12:05:49Z</time><extensions><speed>0.061948</speed><course>147.391205</course><hAcc>1.747243</hAcc><vAcc>0.792752</vAcc></extensions></trkpt>
      <trkpt lon="-3.045059" lat="52.722886"><ele>361.117279</ele><time>2022-01-15T12:05:50Z</time><extensions><speed>0.091635</speed><course>145.094482</course><hAcc>1.760035</hAcc><vAcc>0.792822</vAcc></extensions></trkpt>
      <trkpt lon="-3.045059" lat="52.722885"><ele>361.128265</ele><time>2022-01-15T12:05:51Z</time><extensions><speed>0.128610</speed><course>144.058777</course><hAcc>1.764802</hAcc><vAcc>0.792903</vAcc></extensions></trkpt>
      <trkpt lon="-3.045057" lat="52.722884"><ele>361.139893</ele><time>2022-01-15T12:05:52Z</time><extensions><speed>0.167620</speed><course>143.590485</course><hAcc>1.764353</hAcc><vAcc>0.793002</vAcc></extensions></trkpt>
      <trkpt lon="-3.045056" lat="52.722883"><ele>361.151978</ele><time>2022-01-15T12:05:53Z</time><extensions><speed>0.194849</speed><course>143.378006</course><hAcc>1.762514</hAcc><vAcc>0.793108</vAcc></extensions></trkpt>
      <trkpt lon="-3.045054" lat="52.722882"><ele>361.164185</ele><time>2022-01-15T12:05:54Z</time><extensions><speed>0.192466</speed><course>143.293854</course><hAcc>1.754304</hAcc><vAcc>0.793217</vAcc></extensions></trkpt>
      <trkpt lon="-3.045052" lat="52.722880"><ele>361.176239</ele><time>2022-01-15T12:05:55Z</time><extensions><speed>0.156153</speed><course>143.263046</course><hAcc>1.742856</hAcc><vAcc>0.793319</vAcc></extensions></trkpt>
      <trkpt lon="-3.045051" lat="52.722879"><ele>361.187805</ele><time>2022-01-15T12:05:56Z</time><extensions><speed>0.119893</speed><course>143.246033</course><hAcc>1.726493</hAcc><vAcc>0.793431</vAcc></extensions></trkpt>
      <trkpt lon="-3.045050" lat="52.722879"><ele>361.198700</ele><time>2022-01-15T12:05:57Z</time><extensions><speed>0.083326</speed><course>143.235519</course><hAcc>1.718052</hAcc><vAcc>0.793539</vAcc></extensions></trkpt>
      <trkpt lon="-3.045050" lat="52.722878"><ele>361.208771</ele><time>2022-01-15T12:05:58Z</time><extensions><speed>0.055737</speed><course>143.228317</course><hAcc>1.718475</hAcc><vAcc>0.793656</vAcc></extensions></trkpt>
      <trkpt lon="-3.045049" lat="52.722878"><ele>361.217957</ele><time>2022-01-15T12:05:59Z</time><extensions><speed>0.033431</speed><course>143.223083</course><hAcc>1.735630</hAcc><vAcc>0.793766</vAcc></extensions></trkpt>
      <trkpt lon="-3.045049" lat="52.722878"><ele>361.226166</ele><time>2022-01-15T12:06:00Z</time><extensions><speed>0.020528</speed><course>143.218918</course><hAcc>1.744763</hAcc><vAcc>0.793865</vAcc></extensions></trkpt>
      <trkpt lon="-3.045049" lat="52.722878"><ele>361.233459</ele><time>2022-01-15T12:06:01Z</time><extensions><speed>0.017636</speed><course>143.216125</course><hAcc>1.721886</hAcc><vAcc>0.793970</vAcc></extensions></trkpt>
      <trkpt lon="-3.045049" lat="52.722877"><ele>361.239807</ele><time>2022-01-15T12:06:02Z</time><extensions><speed>0.013535</speed><course>143.214630</course><hAcc>1.721740</hAcc><vAcc>0.794045</vAcc></extensions></trkpt>
      <trkpt lon="-3.045049" lat="52.722877"><ele>361.245270</ele><time>2022-01-15T12:06:03Z</time><extensions><speed>0.009762</speed><course>143.213684</course><hAcc>1.736720</hAcc><vAcc>0.794108</vAcc></extensions></trkpt>
      <trkpt lon="-3.045049" lat="52.722877"><ele>361.249908</ele><time>2022-01-15T12:06:04Z</time><extensions><speed>0.006713</speed><course>143.212997</course><hAcc>1.750708</hAcc><vAcc>0.794153</vAcc></extensions></trkpt>
      <trkpt lon="-3.045048" lat="52.722877"><ele>361.253784</ele><time>2022-01-15T12:06:05Z</time><extensions><speed>0.004502</speed><course>143.212479</course><hAcc>1.758630</hAcc><vAcc>0.794177</vAcc></extensions></trkpt>
      <trkpt lon="-3.045048" lat="52.722877"><ele>361.256958</ele><time>2022-01-15T12:06:06Z</time><extensions><speed>0.002868</speed><course>143.212051</course><hAcc>1.763557</hAcc><vAcc>0.794183</vAcc></extensions></trkpt>
      <trkpt lon="-3.045048" lat="52.722877"><ele>361.259521</ele><time>2022-01-15T12:06:07Z</time><extensions><speed>0.001852</speed><course>143.211700</course><hAcc>1.759972</hAcc><vAcc>0.794179</vAcc></extensions></trkpt>
      <trkpt lon="-3.045048" lat="52.722877"><ele>361.261566</ele><time>2022-01-15T12:06:08Z</time><extensions><speed>0.001150</speed><course>143.211380</course><hAcc>1.756244</hAcc><vAcc>0.794164</vAcc></extensions></trkpt>
      <trkpt lon="-3.045048" lat="52.722877"><ele>361.263123</ele><time>2022-01-15T12:06:09Z</time><extensions><speed>0.000713</speed><course>143.211105</course><hAcc>1.748383</hAcc><vAcc>0.794140</vAcc></extensions></trkpt>
      <trkpt lon="-3.045048" lat="52.722877"><ele>361.264252</ele><time>2022-01-15T12:06:10Z</time><extensions><speed>0.000436</speed><course>143.210831</course><hAcc>1.738738</hAcc><vAcc>0.794114</vAcc></extensions></trkpt>
      <trkpt lon="-3.045048" lat="52.722877"><ele>361.265076</ele><time>2022-01-15T12:06:10Z</time><extensions><speed>0.000270</speed><course>143.210602</course><hAcc>1.736364</hAcc><vAcc>0.794076</vAcc></extensions></trkpt>
      <trkpt lon="-3.045048" lat="52.722877"><ele>361.265594</ele><time>2022-01-15T12:06:11Z</time><extensions><speed>0.000139</speed><course>143.210388</course><hAcc>1.762316</hAcc><vAcc>0.794053</vAcc></extensions></trkpt>
      <trkpt lon="-3.045048" lat="52.722877"><ele>361.265869</ele><time>2022-01-15T12:06:12Z</time><extensions><speed>0.000075</speed><course>143.210144</course><hAcc>1.771369</hAcc><vAcc>0.794032</vAcc></extensions></trkpt>
      <trkpt lon="-3.045048" lat="52.722877"><ele>361.261505</ele><time>2022-01-15T12:06:13Z</time><extensions><speed>0.002985</speed><course>344.429932</course><hAcc>1.745269</hAcc><vAcc>0.794026</vAcc></extensions></trkpt>
      <trkpt lon="-3.045048" lat="52.722877"><ele>361.259857</ele><time>2022-01-15T12:06:14Z</time><extensions><speed>0.008161</speed><course>344.446045</course><hAcc>1.741612</hAcc><vAcc>0.794029</vAcc></extensions></trkpt>
      <trkpt lon="-3.045048" lat="52.722877"><ele>361.257935</ele><time>2022-01-15T12:06:15Z</time><extensions><speed>0.014990</speed><course>344.467590</course><hAcc>1.754585</hAcc><vAcc>0.794028</vAcc></extensions></trkpt>
      <trkpt lon="-3.045049" lat="52.722878"><ele>361.255798</ele><time>2022-01-15T12:06:16Z</time><extensions><speed>0.024236</speed><course>344.481476</course><hAcc>1.767573</hAcc><vAcc>0.794023</vAcc></extensions></trkpt>
      <trkpt lon="-3.045049" lat="52.722878"><ele>361.253448</ele><time>2022-01-15T12:06:17Z</time><extensions><speed>0.037752</speed><course>344.492126</course><hAcc>1.770696</hAcc><vAcc>0.794043</vAcc></extensions></trkpt>
      <trkpt lon="-3.045049" lat="52.722878"><ele>361.252533</ele><time>2022-01-15T12:06:18Z</time><extensions><speed>0.056891</speed><course>344.874969</course><hAcc>1.768565</hAcc><vAcc>0.794065</vAcc></extensions></trkpt>
      <trkpt lon="-3.045049" lat="52.722879"><ele>361.251770</ele><time>2022-01-15T12:06:19Z</time><extensions><speed>0.080500</speed><course>345.103638</course><hAcc>1.767736</hAcc><vAcc>0.794100</vAcc></extensions></trkpt>
      <trkpt lon="-3.045050" lat="52.722880"><ele>361.251251</ele><time>2022-01-15T12:06:20Z</time><extensions><speed>0.112030</speed><course>345.268982</course><hAcc>1.763308</hAcc><vAcc>0.794131</vAcc></extensions></trkpt>
      <trkpt lon="-3.045050" lat="52.722881"><ele>361.250977</ele><time>2022-01-15T12:06:21Z</time><extensions><speed>0.146314</speed><course>345.442352</course><hAcc>1.758414</hAcc><vAcc>0.794182</vAcc></extensions></trkpt>
      <trkpt lon="-3.045051" lat="52.722882"><ele>361.251099</ele><time>2022-01-15T12:06:22Z</time><extensions><speed>0.181245</speed><course>345.703247</course><hAcc>1.752068</hAcc><vAcc>0.794241</vAcc></extensions></trkpt>
      <trkpt lon="-3.045051" lat="52.722884"><ele>361.251678</ele><time>2022-01-15T12:06:23Z</time><extensions><speed>0.177713</speed><course>346.294556</course><hAcc>1.761125</hAcc><vAcc>0.794296</vAcc></extensions></trkpt>
      <trkpt lon="-3.045052" lat="52.722885"><ele>361.252777</ele><time>2022-01-15T12:06:24Z</time><extensions><speed>0.141462</speed><course>347.617737</course><hAcc>1.773098</hAcc><vAcc>0.794368</vAcc></extensions></trkpt>
      <trkpt lon="-3.045052" lat="52.722887"><ele>361.254364</ele><time>2022-01-15T12:06:25Z</time><extensions><speed>0.132999</speed><course>349.824371</course><hAcc>1.753718</hAcc><vAcc>0.794454</vAcc></extensions></trkpt>
      <trkpt lon="-3.045052" lat="52.722888"><ele>361.257019</ele><time>2022-01-15T12:06:26Z</time><extensions><speed>0.113121</speed><course>352.571289</course><hAcc>1.745671</hAcc><vAcc>0.794548</vAcc></extensions></trkpt>
      <trkpt lon="-3.045053" lat="52.722889"><ele>361.261536</ele><time>2022-01-15T12:06:27Z</time><extensions><speed>0.090635</speed><course>355.500854</course><hAcc>1.750144</hAcc><vAcc>0.794656</vAcc></extensions></trkpt>
      <trkpt lon="-3.045053" lat="52.722889"><ele>361.263733</ele><time>2022-01-15T12:06:28Z</time><extensions><speed>0.066843</speed><course>357.602783</course><hAcc>1.753850</hAcc><vAcc>0.794772</vAcc></extensions></trkpt>
      <trkpt lon="-3.045053" lat="52.722890"><ele>361.264893</ele><time>2022-01-15T12:06:29Z</time><extensions><speed>0.044970</speed><course>357.104065</course><hAcc>1.748424</hAcc><vAcc>0.794893</vAcc></extensions></trkpt>
      <trkpt lon="-3.045053" lat="52.722890"><ele>361.269073</ele><time>2022-01-15T12:06:30Z</time><extensions><speed>0.027213</speed><course>352.515076</course><hAcc>1.735322</hAcc><vAcc>0.795016</vAcc></extensions></trkpt>
      <trkpt lon="-3.045053" lat="52.722890"><ele>361.265228</ele><time>2022-01-15T12:06:31Z</time><extensions><speed>0.013295</speed><course>333.836304</course><hAcc>1.725104</hAcc><vAcc>0.795136</vAcc></extensions></trkpt>
      <trkpt lon="-3.045053" lat="52.722890"><ele>361.260071</ele><time>2022-01-15T12:06:32Z</time><extensions><speed>0.008505</speed><course>265.900970</course><hAcc>1.722602</hAcc><vAcc>0.795263</vAcc></extensions></trkpt>
      <trkpt lon="-3.045053" lat="52.722890"><ele>361.253571</ele><time>2022-01-15T12:06:33Z</time><extensions><speed>0.016372</speed><course>226.753113</course><hAcc>1.722171</hAcc><vAcc>0.795407</vAcc></extensions></trkpt>
      <trkpt lon="-3.045053" lat="52.722890"><ele>361.245667</ele><time>2022-01-15T12:06:34Z</time><extensions><speed>0.024307</speed><course>215.460648</course><hAcc>1.741810</hAcc><vAcc>0.795550</vAcc></extensions></trkpt>
      <trkpt lon="-3.045054" lat="52.722890"><ele>361.236359</ele><time>2022-01-15T12:06:35Z</time><extensions><speed>0.037029</speed><course>209.209305</course><hAcc>1.744835</hAcc><vAcc>0.795697</vAcc></extensions></trkpt>
      <trkpt lon="-3.045054" lat="52.722889"><ele>361.225647</ele><time>2022-01-15T12:06:36Z</time><extensions><speed>0.057902</speed><course>203.314301</course><hAcc>1.722678</hAcc><vAcc>0.795848</vAcc></extensions></trkpt>
      <trkpt lon="-3.045054" lat="52.722889"><ele>361.213562</ele><time>2022-01-15T12:06:37Z</time><extensions><speed>0.065939</speed><course>196.605133</course><hAcc>1.721089</hAcc><vAcc>0.796004</vAcc></extensions></trkpt>
      <trkpt lon="-3.045054" lat="52.722888"><ele>361.200317</ele><time>2022-01-15T12:06:38Z</time><extensions><speed>0.063252</speed><course>191.484436</course><hAcc>1.726407</hAcc><vAcc>0.796164</vAcc></extensions></trkpt>
      <trkpt lon="-3.045055" lat="52.722888"><ele>361.186096</ele><time>2022-01-15T12:06:39Z</time><extensions><speed>0.053292</speed><course>188.924820</course><hAcc>1.723904</hAcc><vAcc>0.796326</vAcc></extensions></trkpt>
      <trkpt lon="-3.045055" lat="52.722887"><ele>361.171204</ele><time>2022-01-15T12:06:40Z</time><extensions><speed>0.040964</speed><course>188.289093</course><hAcc>1.716538</hAcc><vAcc>0.796505</vAcc></extensions></trkpt>
      <trkpt lon="-3.045055" lat="52.722887"><ele>361.156036</ele><time>2022-01-15T12:06:41Z</time><extensions><speed>0.025581</speed><course>189.251816</course><hAcc>1.719620</hAcc><vAcc>0.796683</vAcc></extensions></trkpt>
      <trkpt lon="-3.045055" lat="52.722887"><ele>361.141022</ele><time>2022-01-15T12:06:42Z</time><extensions><speed>0.016120</speed><course>190.011612</course><hAcc>1.707845</hAcc><vAcc>0.796858</vAcc></extensions></trkpt>
      <trkpt lon="-3.045055" lat="52.722887"><ele>361.126495</ele><time>2022-01-15T12:06:43Z</time><extensions><speed>0.011644</speed><course>190.543243</course><hAcc>1.691656</hAcc><vAcc>0.797019</vAcc></extensions></trkpt>
      <trkpt lon="-3.045055" lat="52.722887"><ele>361.112762</ele><time>2022-01-15T12:06:44Z</time><extensions><speed>0.005813</speed><course>190.910233</course><hAcc>1.724627</hAcc><vAcc>0.797165</vAcc></extensions></trkpt>
      <trkpt lon="-3.045055" lat="52.722887"><ele>361.100006</ele><time>2022-01-15T12:06:45Z</time><extensions><speed>0.003816</speed><course>191.223648</course><hAcc>1.728137</hAcc><vAcc>0.797298</vAcc></extensions></trkpt>
      <trkpt lon="-3.045055" lat="52.722887"><ele>361.088348</ele><time>2022-01-15T12:06:46Z</time><extensions><speed>0.003700</speed><course>191.398712</course><hAcc>1.699803</hAcc><vAcc>0.797413</vAcc></extensions></trkpt>
      <trkpt lon="-3.045055" lat="52.722887"><ele>361.077850</ele><time>2022-01-15T12:06:47Z</time><extensions><speed>0.003007</speed><course>191.477798</course><hAcc>1.704125</hAcc><vAcc>0.797512</vAcc></extensions></trkpt>
      <trkpt lon="-3.045055" lat="52.722887"><ele>361.068512</ele><time>2022-01-15T12:06:48Z</time><extensions><speed>0.002282</speed><course>191.524048</course><hAcc>1.723925</hAcc><vAcc>0.797573</vAcc></extensions></trkpt>
      <trkpt lon="-3.045055" lat="52.722887"><ele>361.060364</ele><time>2022-01-15T12:06:49Z</time><extensions><speed>0.001613</speed><course>191.555023</course><hAcc>1.741084</hAcc><vAcc>0.797621</vAcc></extensions></trkpt>
      <trkpt lon="-3.045055" lat="52.722886"><ele>361.064148</ele><time>2022-01-15T12:06:50Z</time><extensions><speed>0.008220</speed><course>171.129211</course><hAcc>1.748206</hAcc><vAcc>0.797655</vAcc></extensions></trkpt>
      <trkpt lon="-3.045055" lat="52.722886"><ele>361.070862</ele><time>2022-01-15T12:06:51Z</time><extensions><speed>0.016548</speed><course>169.074768</course><hAcc>1.746497</hAcc><vAcc>0.797672</vAcc></extensions></trkpt>
      <trkpt lon="-3.045055" lat="52.722886"><ele>361.072906</ele><time>2022-01-15T12:06:53Z</time><extensions><speed>0.027374</speed><course>168.995453</course><hAcc>1.737706</hAcc><vAcc>0.797663</vAcc></extensions></trkpt>
      <trkpt lon="-3.045055" lat="52.722886"><ele>361.072266</ele><time>2022-01-15T12:06:54Z</time><extensions><speed>0.040874</speed><course>169.077377</course><hAcc>1.723399</hAcc><vAcc>0.797608</vAcc></extensions></trkpt>
      <trkpt lon="-3.045054" lat="52.722885"><ele>361.084778</ele><time>2022-01-15T12:06:55Z</time><extensions><speed>0.056023</speed><course>169.270569</course><hAcc>1.706118</hAcc><vAcc>0.797510</vAcc></extensions></trkpt>
      <trkpt lon="-3.045054" lat="52.722885"><ele>361.099854</ele><time>2022-01-15T12:06:56Z</time><extensions><speed>0.070652</speed><course>169.382797</course><hAcc>1.696033</hAcc><vAcc>0.797380</vAcc></extensions></trkpt>
      <trkpt lon="-3.045054" lat="52.722884"><ele>361.117310</ele><time>2022-01-15T12:06:57Z</time><extensions><speed>0.091673</speed><course>169.463837</course><hAcc>1.687651</hAcc><vAcc>0.797218</vAcc></extensions></trkpt>
      <trkpt lon="-3.045054" lat="52.722883"><ele>361.136963</ele><time>2022-01-15T12:06:58Z</time><extensions><speed>0.106711</speed><course>169.558228</course><hAcc>1.696102</hAcc><vAcc>0.797012</vAcc></extensions></trkpt>
      <trkpt lon="-3.045053" lat="52.722882"><ele>361.158447</ele><time>2022-01-15T12:06:59Z</time><extensions><speed>0.144475</speed><course>169.713287</course><hAcc>1.699084</hAcc><vAcc>0.796762</vAcc></extensions></trkpt>
      <trkpt lon="-3.045053" lat="52.722880"><ele>361.181488</ele><time>2022-01-15T12:07:00Z</time><extensions><speed>0.163442</speed><course>170.045288</course><hAcc>1.712680</hAcc><vAcc>0.796470</vAcc></extensions></trkpt>
      <trkpt lon="-3.045053" lat="52.722879"><ele>361.205505</ele><time>2022-01-15T12:07:01Z</time><extensions><speed>0.236665</speed><course>170.717941</course><hAcc>1.683452</hAcc><vAcc>0.796129</vAcc></extensions></trkpt>
      <trkpt lon="-3.045052" lat="52.722877"><ele>361.230011</ele><time>2022-01-15T12:07:02Z</time><extensions><speed>0.217487</speed><course>171.831467</course><hAcc>1.681589</hAcc><vAcc>0.795735</vAcc></extensions></trkpt>
      <trkpt lon="-3.045052" lat="52.722875"><ele>361.254578</ele><time>2022-01-15T12:07:03Z</time><extensions><speed>0.175678</speed><course>173.324112</course><hAcc>1.686242</hAcc><vAcc>0.795306</vAcc></extensions></trkpt>
      <trkpt lon="-3.045051" lat="52.722874"><ele>361.282806</ele><time>2022-01-15T12:07:04Z</time><extensions><speed>0.112622</speed><course>174.314636</course><hAcc>1.693271</hAcc><vAcc>0.794853</vAcc></extensions></trkpt>
      <trkpt lon="-3.045051" lat="52.722873"><ele>361.305298</ele><time>2022-01-15T12:07:05Z</time><extensions><speed>0.059442</speed><course>174.828979</course><hAcc>1.697167</hAcc><vAcc>0.794387</vAcc></extensions></trkpt>
      <trkpt lon="-3.045051" lat="52.722873"><ele>361.326447</ele><time>2022-01-15T12:07:06Z</time><extensions><speed>0.028648</speed><course>171.666763</course><hAcc>1.695133</hAcc><vAcc>0.793926</vAcc></extensions></trkpt>
      <trkpt lon="-3.045051" lat="52.722872"><ele>361.345886</ele><time>2022-01-15T12:07:07Z</time><extensions><speed>0.011255</speed><course>152.573669</course><hAcc>1.696759</hAcc><vAcc>0.793472</vAcc></extensions></trkpt>
      <trkpt lon="-3.045051" lat="52.722872"><ele>361.361145</ele><time>2022-01-15T12:07:08Z</time><extensions><speed>0.008204</speed><course>63.412148</course><hAcc>1.708954</hAcc><vAcc>0.793025</vAcc></extensions></trkpt>
      <trkpt lon="-3.045051" lat="52.722873"><ele>361.369537</ele><time>2022-01-15T12:07:09Z</time><extensions><speed>0.020457</speed><course>35.067078</course><hAcc>1.724460</hAcc><vAcc>0.792586</vAcc></extensions></trkpt>
      <trkpt lon="-3.045051" lat="52.722873"><ele>361.375214</ele><time>2022-01-15T12:07:10Z</time><extensions><speed>0.052518</speed><course>29.221931</course><hAcc>1.698172</hAcc><vAcc>0.792150</vAcc></extensions></trkpt>
      <trkpt lon="-3.045050" lat="52.722873"><ele>361.377594</ele><time>2022-01-15T12:07:11Z</time><extensions><speed>0.085133</speed><course>26.740889</course><hAcc>1.703825</hAcc><vAcc>0.791719</vAcc></extensions></trkpt>
      <trkpt lon="-3.045049" lat="52.722874"><ele>361.376709</ele><time>2022-01-15T12:07:12Z</time><extensions><speed>0.122145</speed><course>24.694967</course><hAcc>1.727388</hAcc><vAcc>0.791298</vAcc></extensions></trkpt>
      <trkpt lon="-3.045049" lat="52.722875"><ele>361.380280</ele><time>2022-01-15T12:07:13Z</time><extensions><speed>0.153528</speed><course>21.983156</course><hAcc>1.750583</hAcc><vAcc>0.790903</vAcc></extensions></trkpt>
      <trkpt lon="-3.045048" lat="52.722877"><ele>361.375549</ele><time>2022-01-15T12:07:14Z</time><extensions><speed>0.168920</speed><course>16.837975</course><hAcc>1.762949</hAcc><vAcc>0.790524</vAcc></extensions></trkpt>
      <trkpt lon="-3.045047" lat="52.722878"><ele>361.366425</ele><time>2022-01-15T12:07:15Z</time><extensions><speed>0.164621</speed><course>9.690912</course><hAcc>1.763540</hAcc><vAcc>0.790186</vAcc></extensions></trkpt>
      <trkpt lon="-3.045047" lat="52.722880"><ele>361.358978</ele><time>2022-01-15T12:07:16Z</time><extensions><speed>0.151709</speed><course>1.701968</course><hAcc>1.755481</hAcc><vAcc>0.789887</vAcc></extensions></trkpt>
      <trkpt lon="-3.045047" lat="52.722881"><ele>361.353668</ele><time>2022-01-15T12:07:17Z</time><extensions><speed>0.134681</speed><course>352.556305</course><hAcc>1.743035</hAcc><vAcc>0.789650</vAcc></extensions></trkpt>
      <trkpt lon="-3.045048" lat="52.722882"><ele>361.351044</ele><time>2022-01-15T12:07:18Z</time><extensions><speed>0.103778</speed><course>340.548462</course><hAcc>1.736472</hAcc><vAcc>0.789469</vAcc></extensions></trkpt>
      <trkpt lon="-3.045049" lat="52.722882"><ele>361.341370</ele><time>2022-01-15T12:07:19Z</time><extensions><speed>0.065067</speed><course>312.761963</course><hAcc>1.753915</hAcc><vAcc>0.789342</vAcc></extensions></trkpt>
      <trkpt lon="-3.045049" lat="52.722883"><ele>361.339325</ele><time>2022-01-15T12:07:20Z</time><extensions><speed>0.064340</speed><course>271.867737</course><hAcc>1.768493</hAcc><vAcc>0.789274</vAcc></extensions></trkpt>
      <trkpt lon="-3.045051" lat="52.722882"><ele>361.338837</ele><time>2022-01-15T12:07:21Z</time><extensions><speed>0.102605</speed><course>248.885315</course><hAcc>1.758346</hAcc><vAcc>0.789292</vAcc></extensions></trkpt>
      <trkpt lon="-3.045052" lat="52.722882"><ele>361.336243</ele><time>2022-01-15T12:07:22Z</time><extensions><speed>0.164685</speed><course>240.199203</course><hAcc>1.741676</hAcc><vAcc>0.789368</vAcc></extensions></trkpt>
      <trkpt lon="-3.045055" lat="52.722881"><ele>361.334381</ele><time>2022-01-15T12:07:23Z</time><extensions><speed>0.203953</speed><course>237.232986</course><hAcc>1.751059</hAcc><vAcc>0.789507</vAcc></extensions></trkpt>
      <trkpt lon="-3.045057" lat="52.722880"><ele>361.333557</ele><time>2022-01-15T12:07:24Z</time><extensions><speed>0.222420</speed><course>236.681290</course><hAcc>1.767758</hAcc><vAcc>0.789701</vAcc></extensions></trkpt>
      <trkpt lon="-3.045060" lat="52.722879"><ele>361.333679</ele><time>2022-01-15T12:07:25Z</time><extensions><speed>0.220458</speed><course>237.947250</course><hAcc>1.782050</hAcc><vAcc>0.789934</vAcc></extensions></trkpt>
      <trkpt lon="-3.045063" lat="52.722878"><ele>361.334595</ele><time>2022-01-15T12:07:26Z</time><extensions><speed>0.198392</speed><course>241.538040</course><hAcc>1.794782</hAcc><vAcc>0.790173</vAcc></extensions></trkpt>
      <trkpt lon="-3.045065" lat="52.722877"><ele>361.336395</ele><time>2022-01-15T12:07:27Z</time><extensions><speed>0.177535</speed><course>247.736008</course><hAcc>1.795586</hAcc><vAcc>0.790420</vAcc></extensions></trkpt>
      <trkpt lon="-3.045068" lat="52.722877"><ele>361.338470</ele><time>2022-01-15T12:07:28Z</time><extensions><speed>0.144426</speed><course>256.852173</course><hAcc>1.795941</hAcc><vAcc>0.790663</vAcc></extensions></trkpt>
      <trkpt lon="-3.045069" lat="52.722877"><ele>361.340546</ele><time>2022-01-15T12:07:29Z</time><extensions><speed>0.106616</speed><course>271.072479</course><hAcc>1.796595</hAcc><vAcc>0.790883</vAcc></extensions></trkpt>
      <trkpt lon="-3.045071" lat="52.722877"><ele>361.342468</ele><time>2022-01-15T12:07:30Z</time><extensions><speed>0.079951</speed><course>292.830505</course><hAcc>1.792196</hAcc><vAcc>0.791089</vAcc></extensions></trkpt>
      <trkpt lon="-3.045072" lat="52.722877"><ele>361.344055</ele><time>2022-01-15T12:07:31Z</time><extensions><speed>0.067571</speed><course>313.680237</course><hAcc>1.782021</hAcc><vAcc>0.791294</vAcc></extensions></trkpt>
      <trkpt lon="-3.045072" lat="52.722878"><ele>361.345245</ele><time>2022-01-15T12:07:32Z</time><extensions><speed>0.058549</speed><course>327.235016</course><hAcc>1.768819</hAcc><vAcc>0.791487</vAcc></extensions></trkpt>
      <trkpt lon="-3.045072" lat="52.722878"><ele>361.341919</ele><time>2022-01-15T12:07:33Z</time><extensions><speed>0.050280</speed><course>340.621796</course><hAcc>1.761077</hAcc><vAcc>0.791670</vAcc></extensions></trkpt>
      <trkpt lon="-3.045073" lat="52.722879"><ele>361.337616</ele><time>2022-01-15T12:07:34Z</time><extensions><speed>0.045751</speed><course>353.298248</course><hAcc>1.754942</hAcc><vAcc>0.791832</vAcc></extensions></trkpt>
      <trkpt lon="-3.045073" lat="52.722879"><ele>361.332336</ele><time>2022-01-15T12:07:35Z</time><extensions><speed>0.047119</speed><course>3.668433</course><hAcc>1.744903</hAcc><vAcc>0.791977</vAcc></extensions></trkpt>
      <trkpt lon="-3.045072" lat="52.722879"><ele>361.326233</ele><time>2022-01-15T12:07:36Z</time><extensions><speed>0.052682</speed><course>10.607787</course><hAcc>1.739465</hAcc><vAcc>0.792099</vAcc></extensions></trkpt>
      <trkpt lon="-3.045072" lat="52.722880"><ele>361.319275</ele><time>2022-01-15T12:07:37Z</time><extensions><speed>0.049648</speed><course>15.941686</course><hAcc>1.753207</hAcc><vAcc>0.792214</vAcc></extensions></trkpt>
      <trkpt lon="-3.045072" lat="52.722880"><ele>361.311554</ele><time>2022-01-15T12:07:38Z</time><extensions><speed>0.063473</speed><course>20.704321</course><hAcc>1.738651</hAcc><vAcc>0.792298</vAcc></extensions></trkpt>
      <trkpt lon="-3.045072" lat="52.722881"><ele>361.303101</ele><time>2022-01-15T12:07:39Z</time><extensions><speed>0.071056</speed><course>24.662455</course><hAcc>1.746667</hAcc><vAcc>0.792368</vAcc></extensions></trkpt>
      <trkpt lon="-3.045071" lat="52.722882"><ele>361.292999</ele><time>2022-01-15T12:07:40Z</time><extensions><speed>0.098026</speed><course>28.047468</course><hAcc>1.743876</hAcc><vAcc>0.792413</vAcc></extensions></trkpt>
      <trkpt lon="-3.045070" lat="52.722883"><ele>361.280640</ele><time>2022-01-15T12:07:41Z</time><extensions><speed>0.122028</speed><course>30.428352</course><hAcc>1.752718</hAcc><vAcc>0.792431</vAcc></extensions></trkpt>
      <trkpt lon="-3.045069" lat="52.722884"><ele>361.265717</ele><time>2022-01-15T12:07:42Z</time><extensions><speed>0.143310</speed><course>32.178787</course><hAcc>1.763193</hAcc><vAcc>0.792425</vAcc></extensions></trkpt>
      <trkpt lon="-3.045068" lat="52.722885"><ele>361.249969</ele><time>2022-01-15T12:07:43Z</time><extensions><speed>0.141715</speed><course>34.027798</course><hAcc>1.770044</hAcc><vAcc>0.792401</vAcc></extensions></trkpt>
      <trkpt lon="-3.045067" lat="52.722886"><ele>361.233612</ele><time>2022-01-15T12:07:44Z</time><extensions><speed>0.118227</speed><course>37.222313</course><hAcc>1.772651</hAcc><vAcc>0.792378</vAcc></extensions></trkpt>
      <trkpt lon="-3.045066" lat="52.722886"><ele>361.216888</ele><time>2022-01-15T12:07:45Z</time><extensions><speed>0.090964</speed><course>43.316093</course><hAcc>1.773664</hAcc><vAcc>0.792349</vAcc></extensions></trkpt>
      <trkpt lon="-3.045065" lat="52.722887"><ele>361.200012</ele><time>2022-01-15T12:07:46Z</time><extensions><speed>0.071079</speed><course>54.267590</course><hAcc>1.773463</hAcc><vAcc>0.792320</vAcc></extensions></trkpt>
      <trkpt lon="-3.045064" lat="52.722887"><ele>361.183136</ele><time>2022-01-15T12:07:47Z</time><extensions><speed>0.060292</speed><course>70.344917</course><hAcc>1.775208</hAcc><vAcc>0.792293</vAcc></extensions></trkpt>
      <trkpt lon="-3.045063" lat="52.722887"><ele>361.177277</ele><time>2022-01-15T12:07:48Z</time><extensions><speed>0.062398</speed><course>85.241379</course><hAcc>1.767800</hAcc><vAcc>0.792280</vAcc></extensions></trkpt>
      <trkpt lon="-3.045062" lat="52.722887"><ele>361.173584</ele><time>2022-01-15T12:07:49Z</time><extensions><speed>0.067538</speed><course>95.655640</course><hAcc>1.759008</hAcc><vAcc>0.792279</vAcc></extensions></trkpt>
      <trkpt lon="-3.045061" lat="52.722887"><ele>361.172272</ele><time>2022-01-15T12:07:50Z</time><extensions><speed>0.066326</speed><course>102.642998</course><hAcc>1.746266</hAcc><vAcc>0.792283</vAcc></extensions></trkpt>
      <trkpt lon="-3.045061" lat="52.722887"><ele>361.173462</ele><time>2022-01-15T12:07:51Z</time><extensions><speed>0.052530</speed><course>107.483353</course><hAcc>1.733855</hAcc><vAcc>0.792286</vAcc></extensions></trkpt>
      <trkpt lon="-3.045060" lat="52.722887"><ele>361.177429</ele><time>2022-01-15T12:07:52Z</time><extensions><speed>0.031777</speed><course>109.707573</course><hAcc>1.728170</hAcc><vAcc>0.792282</vAcc></extensions></trkpt>
      <trkpt lon="-3.045060" lat="52.722887"><ele>361.184235</ele><time>2022-01-15T12:07:53Z</time><extensions><speed>0.011714</speed><course>107.428444</course><hAcc>1.728123</hAcc><vAcc>0.792281</vAcc></extensions></trkpt>
      <trkpt lon="-3.045060" lat="52.722887"><ele>361.193909</ele><time>2022-01-15T12:07:54Z</time><extensions><speed>0.006284</speed><course>308.018005</course><hAcc>1.732081</hAcc><vAcc>0.792265</vAcc></extensions></trkpt>
      <trkpt lon="-3.045060" lat="52.722887"><ele>361.206299</ele><time>2022-01-15T12:07:55Z</time><extensions><speed>0.023311</speed><course>300.125061</course><hAcc>1.729278</hAcc><vAcc>0.792235</vAcc></extensions></trkpt>
      <trkpt lon="-3.045060" lat="52.722887"><ele>361.221130</ele><time>2022-01-15T12:07:56Z</time><extensions><speed>0.038456</speed><course>299.331787</course><hAcc>1.740071</hAcc><vAcc>0.792202</vAcc></extensions></trkpt>
      <trkpt lon="-3.045061" lat="52.722887"><ele>361.237976</ele><time>2022-01-15T12:07:57Z</time><extensions><speed>0.055857</speed><course>299.152863</course><hAcc>1.742188</hAcc><vAcc>0.792161</vAcc></extensions></trkpt>
      <trkpt lon="-3.045062" lat="52.722887"><ele>361.256165</ele><time>2022-01-15T12:07:58Z</time><extensions><speed>0.068294</speed><course>299.108734</course><hAcc>1.733771</hAcc><vAcc>0.792121</vAcc></extensions></trkpt>
      <trkpt lon="-3.045063" lat="52.722888"><ele>361.263763</ele><time>2022-01-15T12:07:59Z</time><extensions><speed>0.060260</speed><course>298.012085</course><hAcc>1.745100</hAcc><vAcc>0.792055</vAcc></extensions></trkpt>
      <trkpt lon="-3.045063" lat="52.722888"><ele>361.270416</ele><time>2022-01-15T12:08:00Z</time><extensions><speed>0.046293</speed><course>295.866882</course><hAcc>1.765244</hAcc><vAcc>0.791976</vAcc></extensions></trkpt>
      <trkpt lon="-3.045064" lat="52.722888"><ele>361.275452</ele><time>2022-01-15T12:08:01Z</time><extensions><speed>0.034628</speed><course>291.278931</course><hAcc>1.777130</hAcc><vAcc>0.791891</vAcc></extensions></trkpt>
      <trkpt lon="-3.045064" lat="52.722888"><ele>361.277924</ele><time>2022-01-15T12:08:02Z</time><extensions><speed>0.026241</speed><course>282.199493</course><hAcc>1.783275</hAcc><vAcc>0.791800</vAcc></extensions></trkpt>
      <trkpt lon="-3.045065" lat="52.722888"><ele>361.277985</ele><time>2022-01-15T12:08:03Z</time><extensions><speed>0.021319</speed><course>265.872986</course><hAcc>1.785775</hAcc><vAcc>0.791727</vAcc></extensions></trkpt>
      <trkpt lon="-3.045065" lat="52.722888"><ele>361.264435</ele><time>2022-01-15T12:08:04Z</time><extensions><speed>0.022571</speed><course>245.693100</course><hAcc>1.782253</hAcc><vAcc>0.791638</vAcc></extensions></trkpt>
      <trkpt lon="-3.045065" lat="52.722888"><ele>361.243896</ele><time>2022-01-15T12:08:05Z</time><extensions><speed>0.028429</speed><course>231.593460</course><hAcc>1.779384</hAcc><vAcc>0.791557</vAcc></extensions></trkpt>
      <trkpt lon="-3.045066" lat="52.722888"><ele>361.238434</ele><time>2022-01-15T12:08:06Z</time><extensions><speed>0.037771</speed><course>225.915527</course><hAcc>1.773880</hAcc><vAcc>0.791468</vAcc></extensions></trkpt>
      <trkpt lon="-3.045066" lat="52.722888"><ele>361.231781</ele><time>2022-01-15T12:08:07Z</time><extensions><speed>0.047761</speed><course>224.044220</course><hAcc>1.767283</hAcc><vAcc>0.791398</vAcc></extensions></trkpt>
      <trkpt lon="-3.045067" lat="52.722887"><ele>361.224487</ele><time>2022-01-15T12:08:08Z</time><extensions><speed>0.055956</speed><course>224.468826</course><hAcc>1.754656</hAcc><vAcc>0.791352</vAcc></extensions></trkpt>
      <trkpt lon="-3.045067" lat="52.722887"><ele>361.217224</ele><time>2022-01-15T12:08:09Z</time><extensions><speed>0.054074</speed><course>227.965286</course><hAcc>1.740206</hAcc><vAcc>0.791335</vAcc></extensions></trkpt>
      <trkpt lon="-3.045068" lat="52.722887"><ele>361.204803</ele><time>2022-01-15T12:08:10Z</time><extensions><speed>0.038688</speed><course>228.437714</course><hAcc>1.749606</hAcc><vAcc>0.791363</vAcc></extensions></trkpt>
      <trkpt lon="-3.045068" lat="52.722886"><ele>361.186493</ele><time>2022-01-15T12:08:11Z</time><extensions><speed>0.018225</speed><course>204.281830</course><hAcc>1.781765</hAcc><vAcc>0.791425</vAcc></extensions></trkpt>
      <trkpt lon="-3.045068" lat="52.722886"><ele>361.168060</ele><time>2022-01-15T12:08:12Z</time><extensions><speed>0.025023</speed><course>160.187668</course><hAcc>1.745839</hAcc><vAcc>0.791527</vAcc></extensions></trkpt>
      <trkpt lon="-3.045068" lat="52.722886"><ele>361.152985</ele><time>2022-01-15T12:08:13Z</time><extensions><speed>0.029175</speed><course>150.310532</course><hAcc>1.721356</hAcc><vAcc>0.791678</vAcc></extensions></trkpt>
      <trkpt lon="-3.045068" lat="52.722886"><ele>361.139099</ele><time>2022-01-15T12:08:14Z</time><extensions><speed>0.021338</speed><course>153.394104</course><hAcc>1.716700</hAcc><vAcc>0.791864</vAcc></extensions></trkpt>
      <trkpt lon="-3.045068" lat="52.722886"><ele>361.126556</ele><time>2022-01-15T12:08:15Z</time><extensions><speed>0.009336</speed><course>171.159332</course><hAcc>1.719595</hAcc><vAcc>0.792084</vAcc></extensions></trkpt>
      <trkpt lon="-3.045068" lat="52.722886"><ele>361.120453</ele><time>2022-01-15T12:08:16Z</time><extensions><speed>0.005051</speed><course>230.495529</course><hAcc>1.722715</hAcc><vAcc>0.792311</vAcc></extensions></trkpt>
      <trkpt lon="-3.045068" lat="52.722886"><ele>361.115936</ele><time>2022-01-15T12:08:17Z</time><extensions><speed>0.007336</speed><course>229.361359</course><hAcc>1.719882</hAcc><vAcc>0.792547</vAcc></extensions></trkpt>
      <trkpt lon="-3.045068" lat="52.722886"><ele>361.112549</ele><time>2022-01-15T12:08:18Z</time><extensions><speed>0.011072</speed><course>216.318863</course><hAcc>1.714322</hAcc><vAcc>0.792764</vAcc></extensions></trkpt>
      <trkpt lon="-3.045068" lat="52.722885"><ele>361.110077</ele><time>2022-01-15T12:08:19Z</time><extensions><speed>0.015234</speed><course>215.395630</course><hAcc>1.713570</hAcc><vAcc>0.792960</vAcc></extensions></trkpt>
      <trkpt lon="-3.045068" lat="52.722885"><ele>361.108521</ele><time>2022-01-15T12:08:20Z</time><extensions><speed>0.016771</speed><course>235.341003</course><hAcc>1.719522</hAcc><vAcc>0.793129</vAcc></extensions></trkpt>
      <trkpt lon="-3.045068" lat="52.722885"><ele>361.108154</ele><time>2022-01-15T12:08:21Z</time><extensions><speed>0.026417</speed><course>262.302979</course><hAcc>1.685830</hAcc><vAcc>0.793270</vAcc></extensions></trkpt>
      <trkpt lon="-3.045069" lat="52.722885"><ele>361.109222</ele><time>2022-01-15T12:08:22Z</time><extensions><speed>0.033219</speed><course>282.464691</course><hAcc>1.679084</hAcc><vAcc>0.793382</vAcc></extensions></trkpt>
      <trkpt lon="-3.045069" lat="52.722885"><ele>361.111816</ele><time>2022-01-15T12:08:23Z</time><extensions><speed>0.034358</speed><course>305.286469</course><hAcc>1.706668</hAcc><vAcc>0.793464</vAcc></extensions></trkpt>
      <trkpt lon="-3.045070" lat="52.722886"><ele>361.115906</ele><time>2022-01-15T12:08:24Z</time><extensions><speed>0.041207</speed><course>328.506653</course><hAcc>1.726460</hAcc><vAcc>0.793528</vAcc></extensions></trkpt>
      <trkpt lon="-3.045070" lat="52.722886"><ele>361.121246</ele><time>2022-01-15T12:08:25Z</time><extensions><speed>0.052086</speed><course>342.065887</course><hAcc>1.737986</hAcc><vAcc>0.793580</vAcc></extensions></trkpt>
      <trkpt lon="-3.045070" lat="52.722887"><ele>361.127563</ele><time>2022-01-15T12:08:26Z</time><extensions><speed>0.059070</speed><course>347.448761</course><hAcc>1.737741</hAcc><vAcc>0.793616</vAcc></extensions></trkpt>
      <trkpt lon="-3.045070" lat="52.722887"><ele>361.134491</ele><time>2022-01-15T12:08:27Z</time><extensions><speed>0.059858</speed><course>349.150909</course><hAcc>1.729121</hAcc><vAcc>0.793639</vAcc></extensions></trkpt>
      <trkpt lon="-3.045070" lat="52.722888"><ele>361.141693</ele><time>2022-01-15T12:08:28Z</time><extensions><speed>0.049766</speed><course>349.884979</course><hAcc>1.741405</hAcc><vAcc>0.793662</vAcc></extensions></trkpt>
      <trkpt lon="-3.045071" lat="52.722888"><ele>361.148895</ele><time>2022-01-15T12:08:29Z</time><extensions><speed>0.036670</speed><course>350.314636</course><hAcc>1.764621</hAcc><vAcc>0.793681</vAcc></extensions></trkpt>
      <trkpt lon="-3.045071" lat="52.722888"><ele>361.155914</ele><time>2022-01-15T12:08:30Z</time><extensions><speed>0.025516</speed><course>350.615295</course><hAcc>1.781166</hAcc><vAcc>0.793706</vAcc></extensions></trkpt>
      <trkpt lon="-3.045071" lat="52.722888"><ele>361.162628</ele><time>2022-01-15T12:08:31Z</time><extensions><speed>0.017276</speed><course>350.846283</course><hAcc>1.787527</hAcc><vAcc>0.793739</vAcc></extensions></trkpt>
      <trkpt lon="-3.045071" lat="52.722889"><ele>361.168884</ele><time>2022-01-15T12:08:32Z</time><extensions><speed>0.011343</speed><course>351.034851</course><hAcc>1.789307</hAcc><vAcc>0.793773</vAcc></extensions></trkpt>
      <trkpt lon="-3.045071" lat="52.722889"><ele>361.174622</ele><time>2022-01-15T12:08:33Z</time><extensions><speed>0.007152</speed><course>351.198944</course><hAcc>1.791355</hAcc><vAcc>0.793784</vAcc></extensions></trkpt>
      <trkpt lon="-3.045071" lat="52.722889"><ele>361.179810</ele><time>2022-01-15T12:08:34Z</time><extensions><speed>0.004313</speed><course>351.353119</course><hAcc>1.792752</hAcc><vAcc>0.793787</vAcc></extensions></trkpt>
      <trkpt lon="-3.045071" lat="52.722889"><ele>361.184448</ele><time>2022-01-15T12:08:35Z</time><extensions><speed>0.002607</speed><course>351.505981</course><hAcc>1.788202</hAcc><vAcc>0.793787</vAcc></extensions></trkpt>
      <trkpt lon="-3.045071" lat="52.722889"><ele>361.188507</ele><time>2022-01-15T12:08:36Z</time><extensions><speed>0.001520</speed><course>351.661255</course><hAcc>1.785896</hAcc><vAcc>0.793765</vAcc></extensions></trkpt>
      <trkpt lon="-3.045071" lat="52.722889"><ele>361.192047</ele><time>2022-01-15T12:08:37Z</time><extensions><speed>0.000848</speed><course>351.830017</course><hAcc>1.786088</hAcc><vAcc>0.793729</vAcc></extensions></trkpt>
      <trkpt lon="-3.045071" lat="52.722889"><ele>361.190338</ele><time>2022-01-15T12:08:38Z</time><extensions><speed>0.001792</speed><course>100.422844</course><hAcc>1.783219</hAcc><vAcc>0.793662</vAcc></extensions></trkpt>
      <trkpt lon="-3.045071" lat="52.722889"><ele>361.171661</ele><time>2022-01-15T12:08:39Z</time><extensions><speed>0.004786</speed><course>119.085587</course><hAcc>1.778698</hAcc><vAcc>0.793561</vAcc></extensions></trkpt>
      <trkpt lon="-3.045070" lat="52.722889"><ele>361.162231</ele><time>2022-01-15T12:08:40Z</time><extensions><speed>0.008775</speed><course>117.416771</course><hAcc>1.777941</hAcc><vAcc>0.793312</vAcc></extensions></trkpt>
      <trkpt lon="-3.045070" lat="52.722889"><ele>361.151154</ele><time>2022-01-15T12:08:41Z</time><extensions><speed>0.014349</speed><course>116.298470</course><hAcc>1.776762</hAcc><vAcc>0.792767</vAcc></extensions></trkpt>
      <trkpt lon="-3.045070" lat="52.722889"><ele>361.138458</ele><time>2022-01-15T12:08:42Z</time><extensions><speed>0.022704</speed><course>115.568237</course><hAcc>1.770269</hAcc><vAcc>0.791797</vAcc></extensions></trkpt>
      <trkpt lon="-3.045070" lat="52.722888"><ele>361.124329</ele><time>2022-01-15T12:08:43Z</time><extensions><speed>0.033993</speed><course>115.135551</course><hAcc>1.763850</hAcc><vAcc>0.789691</vAcc></extensions></trkpt>
      <trkpt lon="-3.045069" lat="52.722888"><ele>361.108887</ele><time>2022-01-15T12:08:44Z</time><extensions><speed>0.047966</speed><course>114.761086</course><hAcc>1.764262</hAcc><vAcc>0.787254</vAcc></extensions></trkpt>
      <trkpt lon="-3.045068" lat="52.722888"><ele>361.110291</ele><time>2022-01-15T12:08:45Z</time><extensions><speed>0.063668</speed><course>115.120049</course><hAcc>1.770153</hAcc><vAcc>0.783456</vAcc></extensions></trkpt>
      <trkpt lon="-3.045067" lat="52.722888"><ele>361.137787</ele><time>2022-01-15T12:08:46Z</time><extensions><speed>0.089312</speed><course>115.175995</course><hAcc>1.759546</hAcc><vAcc>0.779015</vAcc></extensions></trkpt>
      <trkpt lon="-3.045066" lat="52.722887"><ele>361.138763</ele><time>2022-01-15T12:08:47Z</time><extensions><speed>0.110804</speed><course>116.478310</course><hAcc>1.747312</hAcc><vAcc>0.773886</vAcc></extensions></trkpt>
      <trkpt lon="-3.045064" lat="52.722887"><ele>361.141602</ele><time>2022-01-15T12:08:48Z</time><extensions><speed>0.118612</speed><course>117.483566</course><hAcc>1.728087</hAcc><vAcc>0.768029</vAcc></extensions></trkpt>
      <trkpt lon="-3.045063" lat="52.722886"><ele>361.146606</ele><time>2022-01-15T12:08:49Z</time><extensions><speed>0.102551</speed><course>117.383499</course><hAcc>1.716717</hAcc><vAcc>0.761477</vAcc></extensions></trkpt>
      <trkpt lon="-3.045062" lat="52.722886"><ele>361.153992</ele><time>2022-01-15T12:08:50Z</time><extensions><speed>0.072751</speed><course>119.528152</course><hAcc>1.728545</hAcc><vAcc>0.754435</vAcc></extensions></trkpt>
      <trkpt lon="-3.045061" lat="52.722885"><ele>361.163544</ele><time>2022-01-15T12:08:51Z</time><extensions><speed>0.055576</speed><course>130.262863</course><hAcc>1.744865</hAcc><vAcc>0.747225</vAcc></extensions></trkpt>
      <trkpt lon="-3.045061" lat="52.722885"><ele>361.174896</ele><time>2022-01-15T12:08:52Z</time><extensions><speed>0.047495</speed><course>147.895889</course><hAcc>1.762325</hAcc><vAcc>0.740300</vAcc></extensions></trkpt>
      <trkpt lon="-3.045060" lat="52.722885"><ele>361.187378</ele><time>2022-01-15T12:08:53Z</time><extensions><speed>0.079098</speed><course>160.631714</course><hAcc>1.732611</hAcc><vAcc>0.734193</vAcc></extensions></trkpt>
      <trkpt lon="-3.045060" lat="52.722884"><ele>361.200104</ele><time>2022-01-15T12:08:54Z</time><extensions><speed>0.092831</speed><course>167.441238</course><hAcc>1.734293</hAcc><vAcc>0.729443</vAcc></extensions></trkpt>
      <trkpt lon="-3.045060" lat="52.722883"><ele>361.211853</ele><time>2022-01-15T12:08:55Z</time><extensions><speed>0.128269</speed><course>171.466797</course><hAcc>1.709859</hAcc><vAcc>0.726472</vAcc></extensions></trkpt>
      <trkpt lon="-3.045059" lat="52.722882"><ele>361.221252</ele><time>2022-01-15T12:08:56Z</time><extensions><speed>0.131886</speed><course>173.925369</course><hAcc>1.703772</hAcc><vAcc>0.725499</vAcc></extensions></trkpt>
      <trkpt lon="-3.045059" lat="52.722881"><ele>361.236053</ele><time>2022-01-15T12:08:57Z</time><extensions><speed>0.095635</speed><course>173.823029</course><hAcc>1.717355</hAcc><vAcc>0.726445</vAcc></extensions></trkpt>
      <trkpt lon="-3.045059" lat="52.722880"><ele>361.246613</ele><time>2022-01-15T12:08:58Z</time><extensions><speed>0.072067</speed><course>171.924179</course><hAcc>1.702026</hAcc><vAcc>0.728979</vAcc></extensions></trkpt>
      <trkpt lon="-3.045058" lat="52.722879"><ele>361.257721</ele><time>2022-01-15T12:08:59Z</time><extensions><speed>0.054456</speed><course>167.404373</course><hAcc>1.674680</hAcc><vAcc>0.732660</vAcc></extensions></trkpt>
      <trkpt lon="-3.045058" lat="52.722879"><ele>361.268463</ele><time>2022-01-15T12:09:00Z</time><extensions><speed>0.040202</speed><course>160.223755</course><hAcc>1.650722</hAcc><vAcc>0.737065</vAcc></extensions></trkpt>
      <trkpt lon="-3.045058" lat="52.722879"><ele>361.272156</ele><time>2022-01-15T12:09:01Z</time><extensions><speed>0.030003</speed><course>148.712479</course><hAcc>1.632665</hAcc><vAcc>0.741814</vAcc></extensions></trkpt>
      <trkpt lon="-3.045058" lat="52.722879"><ele>361.304810</ele><time>2022-01-15T12:09:02Z</time><extensions><speed>0.023181</speed><course>127.429306</course><hAcc>1.619240</hAcc><vAcc>0.746542</vAcc></extensions></trkpt>
      <trkpt lon="-3.045058" lat="52.722878"><ele>361.321136</ele><time>2022-01-15T12:09:03Z</time><extensions><speed>0.023470</speed><course>103.906433</course><hAcc>1.607965</hAcc><vAcc>0.751051</vAcc></extensions></trkpt>
      <trkpt lon="-3.045057" lat="52.722878"><ele>361.341766</ele><time>2022-01-15T12:09:04Z</time><extensions><speed>0.026701</speed><course>85.113762</course><hAcc>1.608565</hAcc><vAcc>0.755230</vAcc></extensions></trkpt>
      <trkpt lon="-3.045057" lat="52.722879"><ele>361.364227</ele><time>2022-01-15T12:09:05Z</time><extensions><speed>0.032966</speed><course>75.328957</course><hAcc>1.612990</hAcc><vAcc>0.759053</vAcc></extensions></trkpt>
      <trkpt lon="-3.045056" lat="52.722879"><ele>361.388184</ele><time>2022-01-15T12:09:06Z</time><extensions><speed>0.036139</speed><course>72.902397</course><hAcc>1.621241</hAcc><vAcc>0.762485</vAcc></extensions></trkpt>
      <trkpt lon="-3.045056" lat="52.722879"><ele>361.413208</ele><time>2022-01-15T12:09:07Z</time><extensions><speed>0.043233</speed><course>80.894760</course><hAcc>1.602589</hAcc><vAcc>0.765525</vAcc></extensions></trkpt>
      <trkpt lon="-3.045055" lat="52.722879"><ele>361.438782</ele><time>2022-01-15T12:09:08Z</time><extensions><speed>0.033939</speed><course>93.026176</course><hAcc>1.603919</hAcc><vAcc>0.768199</vAcc></extensions></trkpt>
      <trkpt lon="-3.045055" lat="52.722879"><ele>361.449036</ele><time>2022-01-15T12:09:09Z</time><extensions><speed>0.026572</speed><course>62.815392</course><hAcc>1.611060</hAcc><vAcc>0.770537</vAcc></extensions></trkpt>
      <trkpt lon="-3.045054" lat="52.722879"><ele>361.453156</ele><time>2022-01-15T12:09:10Z</time><extensions><speed>0.042232</speed><course>25.445787</course><hAcc>1.611956</hAcc><vAcc>0.772573</vAcc></extensions></trkpt>
      <trkpt lon="-3.045054" lat="52.722880"><ele>361.453522</ele><time>2022-01-15T12:09:11Z</time><extensions><speed>0.079894</speed><course>14.906666</course><hAcc>1.596059</hAcc><vAcc>0.774381</vAcc></extensions></trkpt>
      <trkpt lon="-3.045053" lat="52.722881"><ele>361.449127</ele><time>2022-01-15T12:09:12Z</time><extensions><speed>0.153907</speed><course>11.029741</course><hAcc>1.556553</hAcc><vAcc>0.776009</vAcc></extensions></trkpt>
      <trkpt lon="-3.045053" lat="52.722882"><ele>361.449036</ele><time>2022-01-15T12:09:13Z</time><extensions><speed>0.081876</speed><course>15.037306</course><hAcc>1.565227</hAcc><vAcc>0.777511</vAcc></extensions></trkpt>
      <trkpt lon="-3.045053" lat="52.722883"><ele>361.445343</ele><time>2022-01-15T12:09:14Z</time><extensions><speed>0.067031</speed><course>15.177677</course><hAcc>1.548739</hAcc><vAcc>0.778906</vAcc></extensions></trkpt>
      <trkpt lon="-3.045053" lat="52.722883"><ele>361.438293</ele><time>2022-01-15T12:09:15Z</time><extensions><speed>0.057694</speed><course>12.172225</course><hAcc>1.531492</hAcc><vAcc>0.780201</vAcc></extensions></trkpt>
      <trkpt lon="-3.045053" lat="52.722883"><ele>361.428192</ele><time>2022-01-15T12:09:16Z</time><extensions><speed>0.057316</speed><course>8.402604</course><hAcc>1.513465</hAcc><vAcc>0.781381</vAcc></extensions></trkpt>
      <trkpt lon="-3.045053" lat="52.722884"><ele>361.415619</ele><time>2022-01-15T12:09:17Z</time><extensions><speed>0.066284</speed><course>5.213211</course><hAcc>1.490113</hAcc><vAcc>0.782427</vAcc></extensions></trkpt>
      <trkpt lon="-3.045053" lat="52.722885"><ele>361.401367</ele><time>2022-01-15T12:09:18Z</time><extensions><speed>0.069682</speed><course>2.698218</course><hAcc>1.470256</hAcc><vAcc>0.783346</vAcc></extensions></trkpt>
      <trkpt lon="-3.045053" lat="52.722885"><ele>361.386475</ele><time>2022-01-15T12:09:19Z</time><extensions><speed>0.048739</speed><course>359.262054</course><hAcc>1.451453</hAcc><vAcc>0.784117</vAcc></extensions></trkpt>
      <trkpt lon="-3.045053" lat="52.722885"><ele>361.372009</ele><time>2022-01-15T12:09:20Z</time><extensions><speed>0.008597</speed><course>324.937286</course><hAcc>1.436631</hAcc><vAcc>0.784729</vAcc></extensions></trkpt>
      <trkpt lon="-3.045053" lat="52.722885"><ele>361.358917</ele><time>2022-01-15T12:09:21Z</time><extensions><speed>0.024908</speed><course>199.286621</course><hAcc>1.429880</hAcc><vAcc>0.785242</vAcc></extensions></trkpt>
      <trkpt lon="-3.045053" lat="52.722885"><ele>361.347748</ele><time>2022-01-15T12:09:22Z</time><extensions><speed>0.038146</speed><course>195.165268</course><hAcc>1.429800</hAcc><vAcc>0.785633</vAcc></extensions></trkpt>
      <trkpt lon="-3.045053" lat="52.722884"><ele>361.338562</ele><time>2022-01-15T12:09:23Z</time><extensions><speed>0.044060</speed><course>194.457535</course><hAcc>1.423082</hAcc><vAcc>0.785916</vAcc></extensions></trkpt>
      <trkpt lon="-3.045053" lat="52.722884"><ele>361.331299</ele><time>2022-01-15T12:09:24Z</time><extensions><speed>0.031840</speed><course>194.327499</course><hAcc>1.432434</hAcc><vAcc>0.786113</vAcc></extensions></trkpt>
      <trkpt lon="-3.045053" lat="52.722884"><ele>361.325653</ele><time>2022-01-15T12:09:25Z</time><extensions><speed>0.024623</speed><course>194.292450</course><hAcc>1.437841</hAcc><vAcc>0.786235</vAcc></extensions></trkpt>
      <trkpt lon="-3.045053" lat="52.722884"><ele>361.321411</ele><time>2022-01-15T12:09:26Z</time><extensions><speed>0.034574</speed><course>194.284882</course><hAcc>1.416899</hAcc><vAcc>0.786318</vAcc></extensions></trkpt>
      <trkpt lon="-3.045053" lat="52.722883"><ele>361.318390</ele><time>2022-01-15T12:09:27Z</time><extensions><speed>0.033166</speed><course>194.283524</course><hAcc>1.421698</hAcc><vAcc>0.786380</vAcc></extensions></trkpt>
      <trkpt lon="-3.045054" lat="52.722883"><ele>361.316376</ele><time>2022-01-15T12:09:28Z</time><extensions><speed>0.027188</speed><course>194.283112</course><hAcc>1.439645</hAcc><vAcc>0.786433</vAcc></extensions></trkpt>
      <trkpt lon="-3.045054" lat="52.722882"><ele>361.317261</ele><time>2022-01-15T12:09:29Z</time><extensions><speed>0.032371</speed><course>191.464874</course><hAcc>1.450001</hAcc><vAcc>0.786467</vAcc></extensions></trkpt>
      <trkpt lon="-3.045054" lat="52.722882"><ele>361.319580</ele><time>2022-01-15T12:09:30Z</time><extensions><speed>0.038731</speed><course>189.702606</course><hAcc>1.453027</hAcc><vAcc>0.786501</vAcc></extensions></trkpt>
      <trkpt lon="-3.045054" lat="52.722881"><ele>361.322815</ele><time>2022-01-15T12:09:31Z</time><extensions><speed>0.043051</speed><course>188.433334</course><hAcc>1.457260</hAcc><vAcc>0.786554</vAcc></extensions></trkpt>
      <trkpt lon="-3.045054" lat="52.722881"><ele>361.330048</ele><time>2022-01-15T12:09:32Z</time><extensions><speed>0.051869</speed><course>186.545929</course><hAcc>1.453406</hAcc><vAcc>0.786581</vAcc></extensions></trkpt>
      <trkpt lon="-3.045054" lat="52.722880"><ele>361.338837</ele><time>2022-01-15T12:09:33Z</time><extensions><speed>0.058247</speed><course>185.274979</course><hAcc>1.452148</hAcc><vAcc>0.786608</vAcc></extensions></trkpt>
      <trkpt lon="-3.045054" lat="52.722879"><ele>361.348877</ele><time>2022-01-15T12:09:34Z</time><extensions><speed>0.070916</speed><course>184.420364</course><hAcc>1.444788</hAcc><vAcc>0.786635</vAcc></extensions></trkpt>
      <trkpt lon="-3.045054" lat="52.722878"><ele>361.360046</ele><time>2022-01-15T12:09:35Z</time><extensions><speed>0.084586</speed><course>183.859436</course><hAcc>1.438992</hAcc><vAcc>0.786662</vAcc></extensions></trkpt>
      <trkpt lon="-3.045054" lat="52.722878"><ele>361.372253</ele><time>2022-01-15T12:09:36Z</time><extensions><speed>0.093301</speed><course>183.472824</course><hAcc>1.440387</hAcc><vAcc>0.786682</vAcc></extensions></trkpt>
      <trkpt lon="-3.045054" lat="52.722877"><ele>361.385376</ele><time>2022-01-15T12:09:37Z</time><extensions><speed>0.108535</speed><course>183.174408</course><hAcc>1.440376</hAcc><vAcc>0.786697</vAcc></extensions></trkpt>
      <trkpt lon="-3.045055" lat="52.722876"><ele>361.402039</ele><time>2022-01-15T12:09:38Z</time><extensions><speed>0.121824</speed><course>182.891846</course><hAcc>1.437034</hAcc><vAcc>0.786722</vAcc></extensions></trkpt>
      <trkpt lon="-3.045055" lat="52.722875"><ele>361.419739</ele><time>2022-01-15T12:09:39Z</time><extensions><speed>0.141164</speed><course>182.176849</course><hAcc>1.423446</hAcc><vAcc>0.786725</vAcc></extensions></trkpt>
      <trkpt lon="-3.045055" lat="52.722874"><ele>361.435303</ele><time>2022-01-15T12:09:40Z</time><extensions><speed>0.099627</speed><course>180.777267</course><hAcc>1.435008</hAcc><vAcc>0.786747</vAcc></extensions></trkpt>
      <trkpt lon="-3.045055" lat="52.722873"><ele>361.450806</ele><time>2022-01-15T12:09:41Z</time><extensions><speed>0.059634</speed><course>177.895050</course><hAcc>1.446582</hAcc><vAcc>0.786798</vAcc></extensions></trkpt>
      <trkpt lon="-3.045055" lat="52.722873"><ele>361.466003</ele><time>2022-01-15T12:09:42Z</time><extensions><speed>0.046253</speed><course>174.216003</course><hAcc>1.429301</hAcc><vAcc>0.786878</vAcc></extensions></trkpt>
      <trkpt lon="-3.045055" lat="52.722873"><ele>361.480530</ele><time>2022-01-15T12:09:43Z</time><extensions><speed>0.018822</speed><course>167.498306</course><hAcc>1.425556</hAcc><vAcc>0.787000</vAcc></extensions></trkpt>
      <trkpt lon="-3.045055" lat="52.722873"><ele>361.494141</ele><time>2022-01-15T12:09:44Z</time><extensions><speed>0.010013</speed><course>17.513430</course><hAcc>1.423242</hAcc><vAcc>0.787158</vAcc></extensions></trkpt>
      <trkpt lon="-3.045054" lat="52.722873"><ele>361.506683</ele><time>2022-01-15T12:09:45Z</time><extensions><speed>0.034814</speed><course>3.030277</course><hAcc>1.420961</hAcc><vAcc>0.787352</vAcc></extensions></trkpt>
      <trkpt lon="-3.045054" lat="52.722873"><ele>361.517975</ele><time>2022-01-15T12:09:46Z</time><extensions><speed>0.057241</speed><course>0.849760</course><hAcc>1.415433</hAcc><vAcc>0.787582</vAcc></extensions></trkpt>
      <trkpt lon="-3.045054" lat="52.722874"><ele>361.527924</ele><time>2022-01-15T12:09:47Z</time><extensions><speed>0.073955</speed><course>359.950256</course><hAcc>1.411964</hAcc><vAcc>0.787840</vAcc></extensions></trkpt>
      <trkpt lon="-3.045054" lat="52.722875"><ele>361.536469</ele><time>2022-01-15T12:09:48Z</time><extensions><speed>0.065042</speed><course>358.979980</course><hAcc>1.418051</hAcc><vAcc>0.788135</vAcc></extensions></trkpt>
      <trkpt lon="-3.045055" lat="52.722875"><ele>361.543579</ele><time>2022-01-15T12:09:49Z</time><extensions><speed>0.065276</speed><course>357.531921</course><hAcc>1.412265</hAcc><vAcc>0.788453</vAcc></extensions></trkpt>
      <trkpt lon="-3.045055" lat="52.722876"><ele>361.549316</ele><time>2022-01-15T12:09:50Z</time><extensions><speed>0.049270</speed><course>356.511169</course><hAcc>1.422803</hAcc><vAcc>0.788789</vAcc></extensions></trkpt>
      <trkpt lon="-3.045055" lat="52.722876"><ele>361.553833</ele><time>2022-01-15T12:09:51Z</time><extensions><speed>0.045919</speed><course>356.240143</course><hAcc>1.424376</hAcc><vAcc>0.789148</vAcc></extensions></trkpt>
      <trkpt lon="-3.045055" lat="52.722877"><ele>361.557251</ele><time>2022-01-15T12:09:52Z</time><extensions><speed>0.053416</speed><course>356.179993</course><hAcc>1.415779</hAcc><vAcc>0.789528</vAcc></extensions></trkpt>
      <trkpt lon="-3.045055" lat="52.722877"><ele>361.559784</ele><time>2022-01-15T12:09:53Z</time><extensions><speed>0.046337</speed><course>356.165985</course><hAcc>1.429222</hAcc><vAcc>0.789910</vAcc></extensions></trkpt>
      <trkpt lon="-3.045055" lat="52.722878"><ele>361.561523</ele><time>2022-01-15T12:09:54Z</time><extensions><speed>0.038589</speed><course>356.161377</course><hAcc>1.443655</hAcc><vAcc>0.790291</vAcc></extensions></trkpt>
      <trkpt lon="-3.045055" lat="52.722878"><ele>361.562622</ele><time>2022-01-15T12:09:55Z</time><extensions><speed>0.031056</speed><course>356.159790</course><hAcc>1.453299</hAcc><vAcc>0.790663</vAcc></extensions></trkpt>
      <trkpt lon="-3.045055" lat="52.722878"><ele>361.563232</ele><time>2022-01-15T12:09:56Z</time><extensions><speed>0.025211</speed><course>356.159210</course><hAcc>1.456031</hAcc><vAcc>0.791021</vAcc></extensions></trkpt>
      <trkpt lon="-3.045055" lat="52.722878"><ele>361.563385</ele><time>2022-01-15T12:09:57Z</time><extensions><speed>0.019840</speed><course>356.158997</course><hAcc>1.456641</hAcc><vAcc>0.791337</vAcc></extensions></trkpt>
      <trkpt lon="-3.045055" lat="52.722879"><ele>361.563232</ele><time>2022-01-15T12:09:58Z</time><extensions><speed>0.015138</speed><course>356.158905</course><hAcc>1.455651</hAcc><vAcc>0.791601</vAcc></extensions></trkpt>
      <trkpt lon="-3.045055" lat="52.722879"><ele>361.562866</ele><time>2022-01-15T12:09:59Z</time><extensions><speed>0.012054</speed><course>356.158875</course><hAcc>1.447892</hAcc><vAcc>0.791824</vAcc></extensions></trkpt>
      <trkpt lon="-3.045055" lat="52.722879"><ele>361.562286</ele><time>2022-01-15T12:10:00Z</time><extensions><speed>0.010073</speed><course>356.158875</course><hAcc>1.433968</hAcc><vAcc>0.791986</vAcc></extensions></trkpt>
      <trkpt lon="-3.045055" lat="52.722879"><ele>361.561615</ele><time>2022-01-15T12:10:01Z</time><extensions><speed>0.008126</speed><course>356.158875</course><hAcc>1.421398</hAcc><vAcc>0.792117</vAcc></extensions></trkpt>
      <trkpt lon="-3.045055" lat="52.722879"><ele>361.560852</ele><time>2022-01-15T12:10:02Z</time><extensions><speed>0.006038</speed><course>356.158875</course><hAcc>1.415121</hAcc><vAcc>0.792202</vAcc></extensions></trkpt>
      <trkpt lon="-3.045055" lat="52.722879"><ele>361.560059</ele><time>2022-01-15T12:10:03Z</time><extensions><speed>0.004251</speed><course>356.158875</course><hAcc>1.414516</hAcc><vAcc>0.792258</vAcc></extensions></trkpt>
      <trkpt lon="-3.045055" lat="52.722879"><ele>361.559265</ele><time>2022-01-15T12:10:04Z</time><extensions><speed>0.002865</speed><course>356.158875</course><hAcc>1.418885</hAcc><vAcc>0.792266</vAcc></extensions></trkpt>
      <trkpt lon="-3.045055" lat="52.722879"><ele>361.558472</ele><time>2022-01-15T12:10:05Z</time><extensions><speed>0.002286</speed><course>356.158875</course><hAcc>1.420410</hAcc><vAcc>0.792227</vAcc></extensions></trkpt>
      <trkpt lon="-3.045055" lat="52.722879"><ele>361.557739</ele><time>2022-01-15T12:10:06Z</time><extensions><speed>0.001891</speed><course>356.158875</course><hAcc>1.423448</hAcc><vAcc>0.792160</vAcc></extensions></trkpt>
      <trkpt lon="-3.045055" lat="52.722879"><ele>361.557037</ele><time>2022-01-15T12:10:07Z</time><extensions><speed>0.002461</speed><course>356.158875</course><hAcc>1.407915</hAcc><vAcc>0.792063</vAcc></extensions></trkpt>
      <trkpt lon="-3.045055" lat="52.722879"><ele>361.552490</ele><time>2022-01-15T12:10:08Z</time><extensions><speed>0.008643</speed><course>358.608887</course><hAcc>1.418820</hAcc><vAcc>0.791897</vAcc></extensions></trkpt>
      <trkpt lon="-3.045055" lat="52.722880"><ele>361.547333</ele><time>2022-01-15T12:10:09Z</time><extensions><speed>0.015287</speed><course>359.050903</course><hAcc>1.434267</hAcc><vAcc>0.791732</vAcc></extensions></trkpt>
      <trkpt lon="-3.045055" lat="52.722880"><ele>361.541595</ele><time>2022-01-15T12:10:10Z</time><extensions><speed>0.022988</speed><course>359.227081</course><hAcc>1.443648</hAcc><vAcc>0.791564</vAcc></extensions></trkpt>
      <trkpt lon="-3.045055" lat="52.722880"><ele>361.535248</ele><time>2022-01-15T12:10:11Z</time><extensions><speed>0.029906</speed><course>359.316803</course><hAcc>1.452098</hAcc><vAcc>0.791396</vAcc></extensions></trkpt>
      <trkpt lon="-3.045055" lat="52.722881"><ele>361.528290</ele><time>2022-01-15T12:10:12Z</time><extensions><speed>0.039412</speed><course>359.367432</course><hAcc>1.451856</hAcc><vAcc>0.791220</vAcc></extensions></trkpt>
      <trkpt lon="-3.045055" lat="52.722881"><ele>361.520752</ele><time>2022-01-15T12:10:13Z</time><extensions><speed>0.048479</speed><course>359.397125</course><hAcc>1.451540</hAcc><vAcc>0.791047</vAcc></extensions></trkpt>
      <trkpt lon="-3.045055" lat="52.722882"><ele>361.512665</ele><time>2022-01-15T12:10:14Z</time><extensions><speed>0.056796</speed><course>359.415741</course><hAcc>1.452144</hAcc><vAcc>0.790871</vAcc></extensions></trkpt>
      <trkpt lon="-3.045055" lat="52.722882"><ele>361.504089</ele><time>2022-01-15T12:10:15Z</time><extensions><speed>0.069561</speed><course>359.427307</course><hAcc>1.449626</hAcc><vAcc>0.790697</vAcc></extensions></trkpt>
      <trkpt lon="-3.045055" lat="52.722883"><ele>361.495117</ele><time>2022-01-15T12:10:16Z</time><extensions><speed>0.074959</speed><course>359.434662</course><hAcc>1.457313</hAcc><vAcc>0.790541</vAcc></extensions></trkpt>
      <trkpt lon="-3.045055" lat="52.722884"><ele>361.485931</ele><time>2022-01-15T12:10:17Z</time><extensions><speed>0.081420</speed><course>359.439423</course><hAcc>1.462717</hAcc><vAcc>0.790422</vAcc></extensions></trkpt>
      <trkpt lon="-3.045055" lat="52.722885"><ele>361.476685</ele><time>2022-01-15T12:10:18Z</time><extensions><speed>0.107929</speed><course>359.441315</course><hAcc>1.446958</hAcc><vAcc>0.790358</vAcc></extensions></trkpt>
      <trkpt lon="-3.045055" lat="52.722886"><ele>361.467682</ele><time>2022-01-15T12:10:19Z</time><extensions><speed>0.095832</speed><course>359.441681</course><hAcc>1.448468</hAcc><vAcc>0.790361</vAcc></extensions></trkpt>
      <trkpt lon="-3.045055" lat="52.722886"><ele>361.459076</ele><time>2022-01-15T12:10:20Z</time><extensions><speed>0.081612</speed><course>359.441803</course><hAcc>1.451549</hAcc><vAcc>0.790435</vAcc></extensions></trkpt>
      <trkpt lon="-3.045055" lat="52.722887"><ele>361.450989</ele><time>2022-01-15T12:10:21Z</time><extensions><speed>0.064302</speed><course>359.441864</course><hAcc>1.456221</hAcc><vAcc>0.790577</vAcc></extensions></trkpt>
      <trkpt lon="-3.045055" lat="52.722888"><ele>361.443573</ele><time>2022-01-15T12:10:22Z</time><extensions><speed>0.049822</speed><course>359.441864</course><hAcc>1.458339</hAcc><vAcc>0.790773</vAcc></extensions></trkpt>
      <trkpt lon="-3.045055" lat="52.722888"><ele>361.436859</ele><time>2022-01-15T12:10:23Z</time><extensions><speed>0.039540</speed><course>359.441864</course><hAcc>1.455524</hAcc><vAcc>0.790990</vAcc></extensions></trkpt>
      <trkpt lon="-3.045055" lat="52.722888"><ele>361.430847</ele><time>2022-01-15T12:10:24Z</time><extensions><speed>0.032500</speed><course>359.441864</course><hAcc>1.447583</hAcc><vAcc>0.791229</vAcc></extensions></trkpt>
      <trkpt lon="-3.045055" lat="52.722889"><ele>361.425568</ele><time>2022-01-15T12:10:25Z</time><extensions><speed>0.027486</speed><course>359.441864</course><hAcc>1.436074</hAcc><vAcc>0.791475</vAcc></extensions></trkpt>
      <trkpt lon="-3.045055" lat="52.722889"><ele>361.420990</ele><time>2022-01-15T12:10:26Z</time><extensions><speed>0.021486</speed><course>359.441864</course><hAcc>1.429252</hAcc><vAcc>0.791723</vAcc></extensions></trkpt>
      <trkpt lon="-3.045055" lat="52.722889"><ele>361.417053</ele><time>2022-01-15T12:10:27Z</time><extensions><speed>0.016107</speed><course>359.441864</course><hAcc>1.424742</hAcc><vAcc>0.791950</vAcc></extensions></trkpt>
      <trkpt lon="-3.045055" lat="52.722889"><ele>361.413727</ele><time>2022-01-15T12:10:28Z</time><extensions><speed>0.012055</speed><course>359.441864</course><hAcc>1.419659</hAcc><vAcc>0.792157</vAcc></extensions></trkpt>
      <trkpt lon="-3.045055" lat="52.722889"><ele>361.410980</ele><time>2022-01-15T12:10:29Z</time><extensions><speed>0.009826</speed><course>359.441864</course><hAcc>1.411672</hAcc><vAcc>0.792342</vAcc></extensions></trkpt>
      <trkpt lon="-3.045055" lat="52.722889"><ele>361.408722</ele><time>2022-01-15T12:10:30Z</time><extensions><speed>0.007489</speed><course>359.441864</course><hAcc>1.413373</hAcc><vAcc>0.792498</vAcc></extensions></trkpt>
      <trkpt lon="-3.045055" lat="52.722889"><ele>361.406921</ele><time>2022-01-15T12:10:31Z</time><extensions><speed>0.005009</speed><course>359.441864</course><hAcc>1.426017</hAcc><vAcc>0.792628</vAcc></extensions></trkpt>
      <trkpt lon="-3.045055" lat="52.722889"><ele>361.405487</ele><time>2022-01-15T12:10:32Z</time><extensions><speed>0.004263</speed><course>359.441864</course><hAcc>1.428165</hAcc><vAcc>0.792730</vAcc></extensions></trkpt>
      <trkpt lon="-3.045055" lat="52.722890"><ele>361.404419</ele><time>2022-01-15T12:10:33Z</time><extensions><speed>0.005487</speed><course>359.441864</course><hAcc>1.411796</hAcc><vAcc>0.792806</vAcc></extensions></trkpt>
      <trkpt lon="-3.045055" lat="52.722890"><ele>361.403656</ele><time>2022-01-15T12:10:34Z</time><extensions><speed>0.004992</speed><course>359.441864</course><hAcc>1.421321</hAcc><vAcc>0.792863</vAcc></extensions></trkpt>
      <trkpt lon="-3.045055" lat="52.722890"><ele>361.403107</ele><time>2022-01-15T12:10:35Z</time><extensions><speed>0.004026</speed><course>359.441864</course><hAcc>1.439526</hAcc><vAcc>0.792897</vAcc></extensions></trkpt>
      <trkpt lon="-3.045055" lat="52.722890"><ele>361.402802</ele><time>2022-01-15T12:10:36Z</time><extensions><speed>0.003327</speed><course>359.441864</course><hAcc>1.448748</hAcc><vAcc>0.792917</vAcc></extensions></trkpt>
      <trkpt lon="-3.045055" lat="52.722890"><ele>361.402618</ele><time>2022-01-15T12:10:37Z</time><extensions><speed>0.002700</speed><course>359.441864</course><hAcc>1.453109</hAcc><vAcc>0.792918</vAcc></extensions></trkpt>
      <trkpt lon="-3.045055" lat="52.722889"><ele>361.403259</ele><time>2022-01-15T12:10:38Z</time><extensions><speed>0.006136</speed><course>172.187744</course><hAcc>1.455677</hAcc><vAcc>0.792874</vAcc></extensions></trkpt>
      <trkpt lon="-3.045055" lat="52.722889"><ele>361.404633</ele><time>2022-01-15T12:10:39Z</time><extensions><speed>0.014317</speed><course>173.721741</course><hAcc>1.457837</hAcc><vAcc>0.792817</vAcc></extensions></trkpt>
      <trkpt lon="-3.045055" lat="52.722889"><ele>361.399292</ele><time>2022-01-15T12:10:40Z</time><extensions><speed>0.022878</speed><course>174.051651</course><hAcc>1.451770</hAcc><vAcc>0.792778</vAcc></extensions></trkpt>
      <trkpt lon="-3.045055" lat="52.722888"><ele>361.393036</ele><time>2022-01-15T12:10:41Z</time><extensions><speed>0.030044</speed><course>174.200562</course><hAcc>1.449920</hAcc><vAcc>0.792729</vAcc></extensions></trkpt>
      <trkpt lon="-3.045055" lat="52.722888"><ele>361.401733</ele><time>2022-01-15T12:10:42Z</time><extensions><speed>0.041016</speed><course>174.064743</course><hAcc>1.441508</hAcc><vAcc>0.792611</vAcc></extensions></trkpt>
      <trkpt lon="-3.045055" lat="52.722887"><ele>361.403076</ele><time>2022-01-15T12:10:43Z</time><extensions><speed>0.050348</speed><course>174.290421</course><hAcc>1.438979</hAcc><vAcc>0.792481</vAcc></extensions></trkpt>
      <trkpt lon="-3.045055" lat="52.722887"><ele>361.404602</ele><time>2022-01-15T12:10:44Z</time><extensions><speed>0.059809</speed><course>174.429459</course><hAcc>1.439824</hAcc><vAcc>0.792329</vAcc></extensions></trkpt>
      <trkpt lon="-3.045055" lat="52.722886"><ele>361.410797</ele><time>2022-01-15T12:10:45Z</time><extensions><speed>0.068924</speed><course>175.108093</course><hAcc>1.443797</hAcc><vAcc>0.792141</vAcc></extensions></trkpt>
      <trkpt lon="-3.045055" lat="52.722885"><ele>361.408630</ele><time>2022-01-15T12:10:46Z</time><extensions><speed>0.085567</speed><course>175.636063</course><hAcc>1.446153</hAcc><vAcc>0.791885</vAcc></extensions></trkpt>
      <trkpt lon="-3.045054" lat="52.722885"><ele>361.424194</ele><time>2022-01-15T12:10:47Z</time><extensions><speed>0.103807</speed><course>175.948456</course><hAcc>1.446583</hAcc><vAcc>0.791511</vAcc></extensions></trkpt>
      <trkpt lon="-3.045054" lat="52.722884"><ele>361.431580</ele><time>2022-01-15T12:10:48Z</time><extensions><speed>0.125826</speed><course>176.556290</course><hAcc>1.437604</hAcc><vAcc>0.790950</vAcc></extensions></trkpt>
      <trkpt lon="-3.045054" lat="52.722882"><ele>361.438446</ele><time>2022-01-15T12:10:49Z</time><extensions><speed>0.103801</speed><course>177.677063</course><hAcc>1.444386</hAcc><vAcc>0.790350</vAcc></extensions></trkpt>
      <trkpt lon="-3.045054" lat="52.722882"><ele>361.440979</ele><time>2022-01-15T12:10:50Z</time><extensions><speed>0.080394</speed><course>179.868713</course><hAcc>1.451739</hAcc><vAcc>0.789708</vAcc></extensions></trkpt>
      <trkpt lon="-3.045054" lat="52.722881"><ele>361.445068</ele><time>2022-01-15T12:10:51Z</time><extensions><speed>0.061098</speed><course>183.753967</course><hAcc>1.456033</hAcc><vAcc>0.789017</vAcc></extensions></trkpt>
      <trkpt lon="-3.045055" lat="52.722881"><ele>361.453491</ele><time>2022-01-15T12:10:52Z</time><extensions><speed>0.048572</speed><course>191.552200</course><hAcc>1.454265</hAcc><vAcc>0.788263</vAcc></extensions></trkpt>
      <trkpt lon="-3.045055" lat="52.722880"><ele>361.460388</ele><time>2022-01-15T12:10:53Z</time><extensions><speed>0.038273</speed><course>203.851593</course><hAcc>1.454783</hAcc><vAcc>0.787419</vAcc></extensions></trkpt>
      <trkpt lon="-3.045055" lat="52.722880"><ele>361.469116</ele><time>2022-01-15T12:10:54Z</time><extensions><speed>0.031932</speed><course>219.871033</course><hAcc>1.455511</hAcc><vAcc>0.786524</vAcc></extensions></trkpt>
      <trkpt lon="-3.045056" lat="52.722880"><ele>361.472626</ele><time>2022-01-15T12:10:55Z</time><extensions><speed>0.033270</speed><course>231.095947</course><hAcc>1.455038</hAcc><vAcc>0.785555</vAcc></extensions></trkpt>
      <trkpt lon="-3.045056" lat="52.722879"><ele>361.470825</ele><time>2022-01-15T12:10:56Z</time><extensions><speed>0.022685</speed><course>241.187302</course><hAcc>1.478532</hAcc><vAcc>0.784613</vAcc></extensions></trkpt>
      <trkpt lon="-3.045057" lat="52.722879"><ele>361.466766</ele><time>2022-01-15T12:10:57Z</time><extensions><speed>0.037946</speed><course>247.393463</course><hAcc>1.454423</hAcc><vAcc>0.783735</vAcc></extensions></trkpt>
      <trkpt lon="-3.045058" lat="52.722879"><ele>361.460419</ele><time>2022-01-15T12:10:58Z</time><extensions><speed>0.049029</speed><course>245.977554</course><hAcc>1.448690</hAcc><vAcc>0.782975</vAcc></extensions></trkpt>
      <trkpt lon="-3.045058" lat="52.722878"><ele>361.451874</ele><time>2022-01-15T12:10:59Z</time><extensions><speed>0.055320</speed><course>243.237137</course><hAcc>1.459821</hAcc><vAcc>0.782352</vAcc></extensions></trkpt>
      <trkpt lon="-3.045059" lat="52.722878"><ele>361.441406</ele><time>2022-01-15T12:11:00Z</time><extensions><speed>0.060239</speed><course>236.116379</course><hAcc>1.469779</hAcc><vAcc>0.781877</vAcc></extensions></trkpt>
      <trkpt lon="-3.045060" lat="52.722877"><ele>361.429230</ele><time>2022-01-15T12:11:01Z</time><extensions><speed>0.087081</speed><course>226.499725</course><hAcc>1.454645</hAcc><vAcc>0.781559</vAcc></extensions></trkpt>
      <trkpt lon="-3.045061" lat="52.722877"><ele>361.415558</ele><time>2022-01-15T12:11:02Z</time><extensions><speed>0.109906</speed><course>216.995071</course><hAcc>1.442085</hAcc><vAcc>0.781356</vAcc></extensions></trkpt>
      <trkpt lon="-3.045062" lat="52.722876"><ele>361.400513</ele><time>2022-01-15T12:11:03Z</time><extensions><speed>0.126464</speed><course>209.072906</course><hAcc>1.433002</hAcc><vAcc>0.781216</vAcc></extensions></trkpt>
      <trkpt lon="-3.045063" lat="52.722875"><ele>361.384338</ele><time>2022-01-15T12:11:04Z</time><extensions><speed>0.113284</speed><course>203.020538</course><hAcc>1.432334</hAcc><vAcc>0.781100</vAcc></extensions></trkpt>
      <trkpt lon="-3.045063" lat="52.722874"><ele>361.367432</ele><time>2022-01-15T12:11:05Z</time><extensions><speed>0.126723</speed><course>199.116348</course><hAcc>1.413407</hAcc><vAcc>0.780949</vAcc></extensions></trkpt>
      <trkpt lon="-3.045064" lat="52.722873"><ele>361.350220</ele><time>2022-01-15T12:11:06Z</time><extensions><speed>0.076167</speed><course>197.268402</course><hAcc>1.428893</hAcc><vAcc>0.780724</vAcc></extensions></trkpt>
      <trkpt lon="-3.045064" lat="52.722872"><ele>361.333221</ele><time>2022-01-15T12:11:07Z</time><extensions><speed>0.048787</speed><course>196.632141</course><hAcc>1.439070</hAcc><vAcc>0.780399</vAcc></extensions></trkpt>
      <trkpt lon="-3.045064" lat="52.722872"><ele>361.316895</ele><time>2022-01-15T12:11:08Z</time><extensions><speed>0.047279</speed><course>196.472504</course><hAcc>1.434216</hAcc><vAcc>0.779919</vAcc></extensions></trkpt>
      <trkpt lon="-3.045065" lat="52.722871"><ele>361.314758</ele><time>2022-01-15T12:11:09Z</time><extensions><speed>0.065405</speed><course>195.692078</course><hAcc>1.413656</hAcc><vAcc>0.779274</vAcc></extensions></trkpt>
      <trkpt lon="-3.045065" lat="52.722871"><ele>361.314209</ele><time>2022-01-15T12:11:10Z</time><extensions><speed>0.057725</speed><course>194.085678</course><hAcc>1.426039</hAcc><vAcc>0.778346</vAcc></extensions></trkpt>
      <trkpt lon="-3.045065" lat="52.722870"><ele>361.317505</ele><time>2022-01-15T12:11:11Z</time><extensions><speed>0.044762</speed><course>191.781433</course><hAcc>1.448134</hAcc><vAcc>0.777273</vAcc></extensions></trkpt>
      <trkpt lon="-3.045065" lat="52.722870"><ele>361.326019</ele><time>2022-01-15T12:11:12Z</time><extensions><speed>0.028587</speed><course>188.021149</course><hAcc>1.469402</hAcc><vAcc>0.776018</vAcc></extensions></trkpt>
      <trkpt lon="-3.045065" lat="52.722870"><ele>361.338623</ele><time>2022-01-15T12:11:13Z</time><extensions><speed>0.014613</speed><course>176.754181</course><hAcc>1.482211</hAcc><vAcc>0.774617</vAcc></extensions></trkpt>
      <trkpt lon="-3.045065" lat="52.722870"><ele>361.355286</ele><time>2022-01-15T12:11:14Z</time><extensions><speed>0.006342</speed><course>109.055367</course><hAcc>1.485097</hAcc><vAcc>0.772913</vAcc></extensions></trkpt>
      <trkpt lon="-3.045065" lat="52.722870"><ele>361.375671</ele><time>2022-01-15T12:11:15Z</time><extensions><speed>0.015726</speed><course>45.213516</course><hAcc>1.491312</hAcc><vAcc>0.770883</vAcc></extensions></trkpt>
      <trkpt lon="-3.045064" lat="52.722870"><ele>361.452484</ele><time>2022-01-15T12:11:16Z</time><extensions><speed>0.029264</speed><course>33.263268</course><hAcc>1.497253</hAcc><vAcc>0.768207</vAcc></extensions></trkpt>
      <trkpt lon="-3.045064" lat="52.722871"><ele>361.477081</ele><time>2022-01-15T12:11:17Z</time><extensions><speed>0.042300</speed><course>33.141781</course><hAcc>1.503548</hAcc><vAcc>0.765128</vAcc></extensions></trkpt>
      <trkpt lon="-3.045064" lat="52.722871"><ele>361.533905</ele><time>2022-01-15T12:11:18Z</time><extensions><speed>0.055861</speed><course>32.036167</course><hAcc>1.507342</hAcc><vAcc>0.761203</vAcc></extensions></trkpt>
      <trkpt lon="-3.045063" lat="52.722871"><ele>361.572449</ele><time>2022-01-15T12:11:19Z</time><extensions><speed>0.062843</speed><course>31.879499</course><hAcc>1.506398</hAcc><vAcc>0.757170</vAcc></extensions></trkpt>
      <trkpt lon="-3.045062" lat="52.722872"><ele>361.610962</ele><time>2022-01-15T12:11:20Z</time><extensions><speed>0.067628</speed><course>29.929354</course><hAcc>1.502688</hAcc><vAcc>0.752727</vAcc></extensions></trkpt>
      <trkpt lon="-3.045062" lat="52.722873"><ele>361.647980</ele><time>2022-01-15T12:11:21Z</time><extensions><speed>0.065980</speed><course>27.493427</course><hAcc>1.509316</hAcc><vAcc>0.747875</vAcc></extensions></trkpt>
      <trkpt lon="-3.045061" lat="52.722873"><ele>361.682251</ele><time>2022-01-15T12:11:22Z</time><extensions><speed>0.063883</speed><course>28.260677</course><hAcc>1.520139</hAcc><vAcc>0.742696</vAcc></extensions></trkpt>
      <trkpt lon="-3.045061" lat="52.722873"><ele>361.712463</ele><time>2022-01-15T12:11:23Z</time><extensions><speed>0.043754</speed><course>33.611706</course><hAcc>1.557598</hAcc><vAcc>0.737301</vAcc></extensions></trkpt>
      <trkpt lon="-3.045061" lat="52.722874"><ele>361.737549</ele><time>2022-01-15T12:11:24Z</time><extensions><speed>0.033105</speed><course>44.329575</course><hAcc>1.592602</hAcc><vAcc>0.731931</vAcc></extensions></trkpt>
      <trkpt lon="-3.045060" lat="52.722874"><ele>361.753571</ele><time>2022-01-15T12:11:25Z</time><extensions><speed>0.040138</speed><course>56.994343</course><hAcc>1.610205</hAcc><vAcc>0.726900</vAcc></extensions></trkpt>
      <trkpt lon="-3.045059" lat="52.722874"><ele>361.762451</ele><time>2022-01-15T12:11:26Z</time><extensions><speed>0.099388</speed><course>63.390873</course><hAcc>1.586780</hAcc><vAcc>0.722606</vAcc></extensions></trkpt>
      <trkpt lon="-3.045058" lat="52.722875"><ele>361.760590</ele><time>2022-01-15T12:11:27Z</time><extensions><speed>0.117893</speed><course>63.349247</course><hAcc>1.633772</hAcc><vAcc>0.719437</vAcc></extensions></trkpt>
      <trkpt lon="-3.045056" lat="52.722875"><ele>361.756592</ele><time>2022-01-15T12:11:28Z</time><extensions><speed>0.112625</speed><course>60.671886</course><hAcc>1.713728</hAcc><vAcc>0.717653</vAcc></extensions></trkpt>
      <trkpt lon="-3.045055" lat="52.722876"><ele>361.747253</ele><time>2022-01-15T12:11:29Z</time><extensions><speed>0.091237</speed><course>54.168739</course><hAcc>1.782169</hAcc><vAcc>0.717434</vAcc></extensions></trkpt>
      <trkpt lon="-3.045054" lat="52.722876"><ele>361.734039</ele><time>2022-01-15T12:11:30Z</time><extensions><speed>0.113486</speed><course>42.491306</course><hAcc>1.787722</hAcc><vAcc>0.718677</vAcc></extensions></trkpt>
      <trkpt lon="-3.045053" lat="52.722877"><ele>361.711517</ele><time>2022-01-15T12:11:31Z</time><extensions><speed>0.134606</speed><course>32.091816</course><hAcc>1.797899</hAcc><vAcc>0.721076</vAcc></extensions></trkpt>
      <trkpt lon="-3.045052" lat="52.722878"><ele>361.677704</ele><time>2022-01-15T12:11:32Z</time><extensions><speed>0.165794</speed><course>24.046221</course><hAcc>1.813375</hAcc><vAcc>0.724267</vAcc></extensions></trkpt>
      <trkpt lon="-3.045051" lat="52.722880"><ele>361.649231</ele><time>2022-01-15T12:11:33Z</time><extensions><speed>0.202278</speed><course>18.718811</course><hAcc>1.826678</hAcc><vAcc>0.727849</vAcc></extensions></trkpt>
      <trkpt lon="-3.045050" lat="52.722882"><ele>361.630981</ele><time>2022-01-15T12:11:34Z</time><extensions><speed>0.234329</speed><course>15.255011</course><hAcc>1.832957</hAcc><vAcc>0.731493</vAcc></extensions></trkpt>
      <trkpt lon="-3.045049" lat="52.722884"><ele>361.595795</ele><time>2022-01-15T12:11:35Z</time><extensions><speed>0.226857</speed><course>12.402714</course><hAcc>1.833547</hAcc><vAcc>0.735104</vAcc></extensions></trkpt>
      <trkpt lon="-3.045048" lat="52.722886"><ele>361.575317</ele><time>2022-01-15T12:11:36Z</time><extensions><speed>0.170302</speed><course>8.429573</course><hAcc>1.833614</hAcc><vAcc>0.738380</vAcc></extensions></trkpt>
      <trkpt lon="-3.045048" lat="52.722887"><ele>361.485474</ele><time>2022-01-15T12:11:37Z</time><extensions><speed>0.089107</speed><course>0.088378</course><hAcc>1.834020</hAcc><vAcc>0.741129</vAcc></extensions></trkpt>
      <trkpt lon="-3.045048" lat="52.722887"><ele>361.389313</ele><time>2022-01-15T12:11:38Z</time><extensions><speed>0.023905</speed><course>274.501190</course><hAcc>1.833310</hAcc><vAcc>0.743259</vAcc></extensions></trkpt>
      <trkpt lon="-3.045049" lat="52.722887"><ele>361.281067</ele><time>2022-01-15T12:11:39Z</time><extensions><speed>0.094780</speed><course>210.056564</course><hAcc>1.833427</hAcc><vAcc>0.744331</vAcc></extensions></trkpt>
      <trkpt lon="-3.045050" lat="52.722886"><ele>361.201294</ele><time>2022-01-15T12:11:40Z</time><extensions><speed>0.162457</speed><course>204.448776</course><hAcc>1.833479</hAcc><vAcc>0.743555</vAcc></extensions></trkpt>
      <trkpt lon="-3.045051" lat="52.722884"><ele>361.123840</ele><time>2022-01-15T12:11:41Z</time><extensions><speed>0.184884</speed><course>203.897568</course><hAcc>1.832045</hAcc><vAcc>0.740287</vAcc></extensions></trkpt>
      <trkpt lon="-3.045052" lat="52.722883"><ele>361.039246</ele><time>2022-01-15T12:11:42Z</time><extensions><speed>0.154406</speed><course>205.465607</course><hAcc>1.831189</hAcc><vAcc>0.735965</vAcc></extensions></trkpt>
      <trkpt lon="-3.045053" lat="52.722882"><ele>360.960236</ele><time>2022-01-15T12:11:43Z</time><extensions><speed>0.110619</speed><course>206.680511</course><hAcc>1.828010</hAcc><vAcc>0.729896</vAcc></extensions></trkpt>
      <trkpt lon="-3.045053" lat="52.722881"><ele>361.017853</ele><time>2022-01-15T12:11:44Z</time><extensions><speed>0.068810</speed><course>203.463974</course><hAcc>1.824299</hAcc><vAcc>0.721686</vAcc></extensions></trkpt>
      <trkpt lon="-3.045053" lat="52.722881"><ele>361.119354</ele><time>2022-01-15T12:11:45Z</time><extensions><speed>0.033967</speed><course>184.154251</course><hAcc>1.822489</hAcc><vAcc>0.711420</vAcc></extensions></trkpt>
      <trkpt lon="-3.045053" lat="52.722881"><ele>361.271423</ele><time>2022-01-15T12:11:46Z</time><extensions><speed>0.030919</speed><course>141.803345</course><hAcc>1.821631</hAcc><vAcc>0.699274</vAcc></extensions></trkpt>
      <trkpt lon="-3.045053" lat="52.722880"><ele>361.479828</ele><time>2022-01-15T12:11:47Z</time><extensions><speed>0.032684</speed><course>98.724457</course><hAcc>1.839246</hAcc><vAcc>0.685748</vAcc></extensions></trkpt>
      <trkpt lon="-3.045052" lat="52.722881"><ele>361.732269</ele><time>2022-01-15T12:11:48Z</time><extensions><speed>0.047859</speed><course>52.236107</course><hAcc>1.876345</hAcc><vAcc>0.671617</vAcc></extensions></trkpt>
      <trkpt lon="-3.045052" lat="52.722881"><ele>362.013977</ele><time>2022-01-15T12:11:49Z</time><extensions><speed>0.087555</speed><course>39.246292</course><hAcc>1.883241</hAcc><vAcc>0.657931</vAcc></extensions></trkpt>
      <trkpt lon="-3.045051" lat="52.722882"><ele>362.328644</ele><time>2022-01-15T12:11:50Z</time><extensions><speed>0.129276</speed><course>34.563805</course><hAcc>1.890442</hAcc><vAcc>0.645996</vAcc></extensions></trkpt>
      <trkpt lon="-3.045050" lat="52.722883"><ele>362.658966</ele><time>2022-01-15T12:11:51Z</time><extensions><speed>0.158294</speed><course>29.838118</course><hAcc>1.915428</hAcc><vAcc>0.637219</vAcc></extensions></trkpt>
      <trkpt lon="-3.045049" lat="52.722884"><ele>362.988495</ele><time>2022-01-15T12:11:52Z</time><extensions><speed>0.183213</speed><course>22.742718</course><hAcc>1.940514</hAcc><vAcc>0.632645</vAcc></extensions></trkpt>
      <trkpt lon="-3.045048" lat="52.722886"><ele>363.305939</ele><time>2022-01-15T12:11:53Z</time><extensions><speed>0.220145</speed><course>14.374835</course><hAcc>1.936333</hAcc><vAcc>0.632543</vAcc></extensions></trkpt>
      <trkpt lon="-3.045047" lat="52.722888"><ele>363.585907</ele><time>2022-01-15T12:11:54Z</time><extensions><speed>0.249881</speed><course>5.457747</course><hAcc>1.895558</hAcc><vAcc>0.636516</vAcc></extensions></trkpt>
      <trkpt lon="-3.045047" lat="52.722890"><ele>363.812897</ele><time>2022-01-15T12:11:55Z</time><extensions><speed>0.250284</speed><course>353.794159</course><hAcc>1.869420</hAcc><vAcc>0.643791</vAcc></extensions></trkpt>
      <trkpt lon="-3.045048" lat="52.722893"><ele>363.974304</ele><time>2022-01-15T12:11:56Z</time><extensions><speed>0.388951</speed><course>349.544769</course><hAcc>1.874915</hAcc><vAcc>0.653211</vAcc></extensions></trkpt>
      <trkpt lon="-3.045049" lat="52.722895"><ele>364.060059</ele><time>2022-01-15T12:11:57Z</time><extensions><speed>0.182203</speed><course>334.820618</course><hAcc>1.880315</hAcc><vAcc>0.663568</vAcc></extensions></trkpt>
      <trkpt lon="-3.045050" lat="52.722895"><ele>364.078369</ele><time>2022-01-15T12:11:58Z</time><extensions><speed>0.146720</speed><course>203.175705</course><hAcc>1.887150</hAcc><vAcc>0.673815</vAcc></extensions></trkpt>
      <trkpt lon="-3.045051" lat="52.722894"><ele>364.039795</ele><time>2022-01-15T12:11:59Z</time><extensions><speed>0.266199</speed><course>194.737564</course><hAcc>1.850060</hAcc><vAcc>0.683356</vAcc></extensions></trkpt>
      <trkpt lon="-3.045052" lat="52.722891"><ele>363.955353</ele><time>2022-01-15T12:12:00Z</time><extensions><speed>0.290370</speed><course>196.147598</course><hAcc>1.821856</hAcc><vAcc>0.691803</vAcc></extensions></trkpt>
      <trkpt lon="-3.045053" lat="52.722889"><ele>363.834656</ele><time>2022-01-15T12:12:01Z</time><extensions><speed>0.262281</speed><course>199.899445</course><hAcc>1.822773</hAcc><vAcc>0.698922</vAcc></extensions></trkpt>
      <trkpt lon="-3.045055" lat="52.722887"><ele>363.687073</ele><time>2022-01-15T12:12:02Z</time><extensions><speed>0.238559</speed><course>202.805862</course><hAcc>1.826329</hAcc><vAcc>0.704614</vAcc></extensions></trkpt>
      <trkpt lon="-3.045056" lat="52.722885"><ele>363.518555</ele><time>2022-01-15T12:12:03Z</time><extensions><speed>0.204611</speed><course>203.167877</course><hAcc>1.830336</hAcc><vAcc>0.708960</vAcc></extensions></trkpt>
      <trkpt lon="-3.045057" lat="52.722883"><ele>363.342712</ele><time>2022-01-15T12:12:04Z</time><extensions><speed>0.173643</speed><course>202.732513</course><hAcc>1.824404</hAcc><vAcc>0.711959</vAcc></extensions></trkpt>
      <trkpt lon="-3.045058" lat="52.722882"><ele>363.149933</ele><time>2022-01-15T12:12:05Z</time><extensions><speed>0.137517</speed><course>200.650375</course><hAcc>1.821477</hAcc><vAcc>0.713844</vAcc></extensions></trkpt>
      <trkpt lon="-3.045059" lat="52.722881"><ele>362.955719</ele><time>2022-01-15T12:12:06Z</time><extensions><speed>0.110784</speed><course>196.494019</course><hAcc>1.818355</hAcc><vAcc>0.714794</vAcc></extensions></trkpt>
      <trkpt lon="-3.045059" lat="52.722880"><ele>362.770172</ele><time>2022-01-15T12:12:07Z</time><extensions><speed>0.092979</speed><course>192.933334</course><hAcc>1.806174</hAcc><vAcc>0.715000</vAcc></extensions></trkpt>
      <trkpt lon="-3.045059" lat="52.722879"><ele>362.592560</ele><time>2022-01-15T12:12:08Z</time><extensions><speed>0.083976</speed><course>192.744507</course><hAcc>1.781563</hAcc><vAcc>0.714617</vAcc></extensions></trkpt>
      <trkpt lon="-3.045059" lat="52.722879"><ele>362.424744</ele><time>2022-01-15T12:12:09Z</time><extensions><speed>0.062008</speed><course>192.970383</course><hAcc>1.785679</hAcc><vAcc>0.713762</vAcc></extensions></trkpt>
      <trkpt lon="-3.045060" lat="52.722878"><ele>362.269073</ele><time>2022-01-15T12:12:10Z</time><extensions><speed>0.041145</speed><course>189.919617</course><hAcc>1.808215</hAcc><vAcc>0.712600</vAcc></extensions></trkpt>
      <trkpt lon="-3.045060" lat="52.722878"><ele>362.125000</ele><time>2022-01-15T12:12:11Z</time><extensions><speed>0.031832</speed><course>183.964188</course><hAcc>1.809429</hAcc><vAcc>0.711277</vAcc></extensions></trkpt>
      <trkpt lon="-3.045060" lat="52.722878"><ele>361.994171</ele><time>2022-01-15T12:12:12Z</time><extensions><speed>0.035116</speed><course>177.596878</course><hAcc>1.769972</hAcc><vAcc>0.709908</vAcc></extensions></trkpt>
      <trkpt lon="-3.045060" lat="52.722877"><ele>361.876801</ele><time>2022-01-15T12:12:13Z</time><extensions><speed>0.029212</speed><course>173.578049</course><hAcc>1.747096</hAcc><vAcc>0.708605</vAcc></extensions></trkpt>
      <trkpt lon="-3.045060" lat="52.722877"><ele>361.772797</ele><time>2022-01-15T12:12:14Z</time><extensions><speed>0.019653</speed><course>164.465485</course><hAcc>1.742898</hAcc><vAcc>0.707445</vAcc></extensions></trkpt>
      <trkpt lon="-3.045059" lat="52.722877"><ele>361.681915</ele><time>2022-01-15T12:12:15Z</time><extensions><speed>0.007216</speed><course>87.236961</course><hAcc>1.756720</hAcc><vAcc>0.706517</vAcc></extensions></trkpt>
      <trkpt lon="-3.045059" lat="52.722877"><ele>361.603821</ele><time>2022-01-15T12:12:16Z</time><extensions><speed>0.025875</speed><course>15.263304</course><hAcc>1.781366</hAcc><vAcc>0.705878</vAcc></extensions></trkpt>
      <trkpt lon="-3.045059" lat="52.722877"><ele>361.537811</ele><time>2022-01-15T12:12:17Z</time><extensions><speed>0.033322</speed><course>6.309686</course><hAcc>1.814459</hAcc><vAcc>0.705563</vAcc></extensions></trkpt>
      <trkpt lon="-3.045059" lat="52.722878"><ele>361.482788</ele><time>2022-01-15T12:12:18Z</time><extensions><speed>0.044516</speed><course>0.000386</course><hAcc>1.803884</hAcc><vAcc>0.705591</vAcc></extensions></trkpt>
      <trkpt lon="-3.045059" lat="52.722878"><ele>361.437531</ele><time>2022-01-15T12:12:19Z</time><extensions><speed>0.063219</speed><course>354.304260</course><hAcc>1.767850</hAcc><vAcc>0.705982</vAcc></extensions></trkpt>
      <trkpt lon="-3.045059" lat="52.722879"><ele>361.400879</ele><time>2022-01-15T12:12:20Z</time><extensions><speed>0.065603</speed><course>348.986725</course><hAcc>1.768895</hAcc><vAcc>0.706757</vAcc></extensions></trkpt>
      <trkpt lon="-3.045060" lat="52.722879"><ele>361.371857</ele><time>2022-01-15T12:12:21Z</time><extensions><speed>0.056515</speed><course>345.056915</course><hAcc>1.795239</hAcc><vAcc>0.707880</vAcc></extensions></trkpt>
      <trkpt lon="-3.045060" lat="52.722880"><ele>361.349426</ele><time>2022-01-15T12:12:22Z</time><extensions><speed>0.043224</speed><course>342.910675</course><hAcc>1.815299</hAcc><vAcc>0.709292</vAcc></extensions></trkpt>
      <trkpt lon="-3.045060" lat="52.722880"><ele>361.335083</ele><time>2022-01-15T12:12:23Z</time><extensions><speed>0.029682</speed><course>357.251648</course><hAcc>1.819386</hAcc><vAcc>0.710864</vAcc></extensions></trkpt>
      <trkpt lon="-3.045059" lat="52.722880"><ele>361.328674</ele><time>2022-01-15T12:12:24Z</time><extensions><speed>0.024971</speed><course>30.800463</course><hAcc>1.811115</hAcc><vAcc>0.712538</vAcc></extensions></trkpt>
      <trkpt lon="-3.045059" lat="52.722880"><ele>361.320038</ele><time>2022-01-15T12:12:25Z</time><extensions><speed>0.032015</speed><course>63.533340</course><hAcc>1.798118</hAcc><vAcc>0.714120</vAcc></extensions></trkpt>
      <trkpt lon="-3.045058" lat="52.722881"><ele>361.320007</ele><time>2022-01-15T12:12:26Z</time><extensions><speed>0.048056</speed><course>79.482391</course><hAcc>1.782163</hAcc><vAcc>0.715601</vAcc></extensions></trkpt>
      <trkpt lon="-3.045057" lat="52.722881"><ele>361.318420</ele><time>2022-01-15T12:12:27Z</time><extensions><speed>0.066564</speed><course>88.436127</course><hAcc>1.768729</hAcc><vAcc>0.717004</vAcc></extensions></trkpt>
      <trkpt lon="-3.045056" lat="52.722880"><ele>361.322021</ele><time>2022-01-15T12:12:28Z</time><extensions><speed>0.088383</speed><course>91.418808</course><hAcc>1.751191</hAcc><vAcc>0.718290</vAcc></extensions></trkpt>
      <trkpt lon="-3.045054" lat="52.722880"><ele>361.326263</ele><time>2022-01-15T12:12:29Z</time><extensions><speed>0.111607</speed><course>93.396088</course><hAcc>1.738614</hAcc><vAcc>0.719430</vAcc></extensions></trkpt>
      <trkpt lon="-3.045053" lat="52.722880"><ele>361.336975</ele><time>2022-01-15T12:12:30Z</time><extensions><speed>0.133847</speed><course>94.674248</course><hAcc>1.740903</hAcc><vAcc>0.720486</vAcc></extensions></trkpt>
      <trkpt lon="-3.045051" lat="52.722880"><ele>361.353851</ele><time>2022-01-15T12:12:30Z</time><extensions><speed>0.150714</speed><course>95.523842</course><hAcc>1.761432</hAcc><vAcc>0.721489</vAcc></extensions></trkpt>
      <trkpt lon="-3.045048" lat="52.722880"><ele>361.365112</ele><time>2022-01-15T12:12:31Z</time><extensions><speed>0.173918</speed><course>97.498444</course><hAcc>1.775861</hAcc><vAcc>0.722479</vAcc></extensions></trkpt>
      <trkpt lon="-3.045045" lat="52.722880"><ele>361.375702</ele><time>2022-01-15T12:12:32Z</time><extensions><speed>0.282888</speed><course>100.758652</course><hAcc>1.739678</hAcc><vAcc>0.723458</vAcc></extensions></trkpt>
      <trkpt lon="-3.045041" lat="52.722879"><ele>361.361877</ele><time>2022-01-15T12:12:33Z</time><extensions><speed>0.289848</speed><course>106.260490</course><hAcc>1.736280</hAcc><vAcc>0.724448</vAcc></extensions></trkpt>
      <trkpt lon="-3.045037" lat="52.722878"><ele>361.387573</ele><time>2022-01-15T12:12:34Z</time><extensions><speed>0.257556</speed><course>113.891953</course><hAcc>1.757805</hAcc><vAcc>0.725401</vAcc></extensions></trkpt>
      <trkpt lon="-3.045034" lat="52.722877"><ele>361.409821</ele><time>2022-01-15T12:12:35Z</time><extensions><speed>0.187473</speed><course>122.814934</course><hAcc>1.798221</hAcc><vAcc>0.726639</vAcc></extensions></trkpt>
      <trkpt lon="-3.045033" lat="52.722877"><ele>361.434662</ele><time>2022-01-15T12:12:36Z</time><extensions><speed>0.094989</speed><course>137.709229</course><hAcc>1.839370</hAcc><vAcc>0.728035</vAcc></extensions></trkpt>
      <trkpt lon="-3.045032" lat="52.722876"><ele>361.461914</ele><time>2022-01-15T12:12:37Z</time><extensions><speed>0.059015</speed><course>171.410095</course><hAcc>1.818859</hAcc><vAcc>0.729498</vAcc></extensions></trkpt>
      <trkpt lon="-3.045032" lat="52.722876"><ele>361.491547</ele><time>2022-01-15T12:12:38Z</time><extensions><speed>0.051853</speed><course>234.619492</course><hAcc>1.806217</hAcc><vAcc>0.730685</vAcc></extensions></trkpt>
      <trkpt lon="-3.045033" lat="52.722876"><ele>361.498749</ele><time>2022-01-15T12:12:39Z</time><extensions><speed>0.088863</speed><course>277.083801</course><hAcc>1.808498</hAcc><vAcc>0.731550</vAcc></extensions></trkpt>
      <trkpt lon="-3.045035" lat="52.722876"><ele>361.500214</ele><time>2022-01-15T12:12:40Z</time><extensions><speed>0.136564</speed><course>292.535828</course><hAcc>1.804173</hAcc><vAcc>0.731831</vAcc></extensions></trkpt>
      <trkpt lon="-3.045037" lat="52.722876"><ele>361.497711</ele><time>2022-01-15T12:12:41Z</time><extensions><speed>0.175154</speed><course>305.268646</course><hAcc>1.785812</hAcc><vAcc>0.731338</vAcc></extensions></trkpt>
      <trkpt lon="-3.045039" lat="52.722878"><ele>361.491180</ele><time>2022-01-15T12:12:42Z</time><extensions><speed>0.214472</speed><course>320.101440</course><hAcc>1.751539</hAcc><vAcc>0.729955</vAcc></extensions></trkpt>
      <trkpt lon="-3.045041" lat="52.722879"><ele>361.480255</ele><time>2022-01-15T12:12:43Z</time><extensions><speed>0.259696</speed><course>333.375397</course><hAcc>1.712844</hAcc><vAcc>0.727539</vAcc></extensions></trkpt>
      <trkpt lon="-3.045042" lat="52.722882"><ele>361.464874</ele><time>2022-01-15T12:12:44Z</time><extensions><speed>0.316492</speed><course>343.834503</course><hAcc>1.695923</hAcc><vAcc>0.724270</vAcc></extensions></trkpt>
      <trkpt lon="-3.045043" lat="52.722883"><ele>361.443756</ele><time>2022-01-15T12:12:45Z</time><extensions><speed>0.089125</speed><course>336.418701</course><hAcc>1.732261</hAcc><vAcc>0.720147</vAcc></extensions></trkpt>
      <trkpt lon="-3.045044" lat="52.722884"><ele>361.416260</ele><time>2022-01-15T12:12:46Z</time><extensions><speed>0.020376</speed><course>303.787384</course><hAcc>1.727133</hAcc><vAcc>0.715291</vAcc></extensions></trkpt>
      <trkpt lon="-3.045044" lat="52.722884"><ele>361.382477</ele><time>2022-01-15T12:12:47Z</time><extensions><speed>0.029127</speed><course>187.278320</course><hAcc>1.710157</hAcc><vAcc>0.709873</vAcc></extensions></trkpt>
      <trkpt lon="-3.045044" lat="52.722883"><ele>361.343079</ele><time>2022-01-15T12:12:48Z</time><extensions><speed>0.083704</speed><course>173.871780</course><hAcc>1.659859</hAcc><vAcc>0.704040</vAcc></extensions></trkpt>
      <trkpt lon="-3.045043" lat="52.722882"><ele>361.299683</ele><time>2022-01-15T12:12:49Z</time><extensions><speed>0.112328</speed><course>171.161560</course><hAcc>1.649306</hAcc><vAcc>0.697984</vAcc></extensions></trkpt>
      <trkpt lon="-3.045043" lat="52.722881"><ele>361.254303</ele><time>2022-01-15T12:12:50Z</time><extensions><speed>0.086149</speed><course>170.408478</course><hAcc>1.699752</hAcc><vAcc>0.691877</vAcc></extensions></trkpt>
      <trkpt lon="-3.045043" lat="52.722881"><ele>361.234985</ele><time>2022-01-15T12:12:51Z</time><extensions><speed>0.056501</speed><course>171.965668</course><hAcc>1.747240</hAcc><vAcc>0.685747</vAcc></extensions></trkpt>
      <trkpt lon="-3.045043" lat="52.722880"><ele>361.201752</ele><time>2022-01-15T12:12:52Z</time><extensions><speed>0.037193</speed><course>176.326294</course><hAcc>1.771824</hAcc><vAcc>0.679801</vAcc></extensions></trkpt>
      <trkpt lon="-3.045043" lat="52.722880"><ele>361.168427</ele><time>2022-01-15T12:12:53Z</time><extensions><speed>0.049327</speed><course>185.533188</course><hAcc>1.737319</hAcc><vAcc>0.674273</vAcc></extensions></trkpt>
      <trkpt lon="-3.045043" lat="52.722880"><ele>361.136932</ele><time>2022-01-15T12:12:54Z</time><extensions><speed>0.047178</speed><course>201.293610</course><hAcc>1.744962</hAcc><vAcc>0.669342</vAcc></extensions></trkpt>
      <trkpt lon="-3.045044" lat="52.722879"><ele>361.107330</ele><time>2022-01-15T12:12:55Z</time><extensions><speed>0.045856</speed><course>223.900208</course><hAcc>1.780405</hAcc><vAcc>0.665176</vAcc></extensions></trkpt>
      <trkpt lon="-3.045045" lat="52.722879"><ele>361.079590</ele><time>2022-01-15T12:12:56Z</time><extensions><speed>0.054480</speed><course>246.260284</course><hAcc>1.811848</hAcc><vAcc>0.661941</vAcc></extensions></trkpt>
      <trkpt lon="-3.045046" lat="52.722879"><ele>361.053497</ele><time>2022-01-15T12:12:57Z</time><extensions><speed>0.073062</speed><course>260.409088</course><hAcc>1.831257</hAcc><vAcc>0.659794</vAcc></extensions></trkpt>
      <trkpt lon="-3.045047" lat="52.722879"><ele>361.028503</ele><time>2022-01-15T12:12:59Z</time><extensions><speed>0.102809</speed><course>267.269287</course><hAcc>1.834062</hAcc><vAcc>0.658890</vAcc></extensions></trkpt>
      <trkpt lon="-3.045049" lat="52.722879"><ele>361.003876</ele><time>2022-01-15T12:13:00Z</time><extensions><speed>0.138139</speed><course>269.935883</course><hAcc>1.827092</hAcc><vAcc>0.659366</vAcc></extensions></trkpt>
      <trkpt lon="-3.045051" lat="52.722879"><ele>360.978790</ele><time>2022-01-15T12:13:01Z</time><extensions><speed>0.171209</speed><course>270.075775</course><hAcc>1.807098</hAcc><vAcc>0.661359</vAcc></extensions></trkpt>
      <trkpt lon="-3.045054" lat="52.722879"><ele>360.952087</ele><time>2022-01-15T12:13:02Z</time><extensions><speed>0.200097</speed><course>267.641113</course><hAcc>1.759829</hAcc><vAcc>0.664957</vAcc></extensions></trkpt>
      <trkpt lon="-3.045057" lat="52.722879"><ele>360.923370</ele><time>2022-01-15T12:13:03Z</time><extensions><speed>0.189883</speed><course>264.675751</course><hAcc>1.709387</hAcc><vAcc>0.670100</vAcc></extensions></trkpt>
      <trkpt lon="-3.045060" lat="52.722879"><ele>360.893311</ele><time>2022-01-15T12:13:04Z</time><extensions><speed>0.186207</speed><course>258.680664</course><hAcc>1.660078</hAcc><vAcc>0.676549</vAcc></extensions></trkpt>
      <trkpt lon="-3.045061" lat="52.722878"><ele>360.877686</ele><time>2022-01-15T12:13:05Z</time><extensions><speed>0.078792</speed><course>276.574310</course><hAcc>1.651615</hAcc><vAcc>0.683831</vAcc></extensions></trkpt>
      <trkpt lon="-3.045062" lat="52.722878"><ele>360.866364</ele><time>2022-01-15T12:13:06Z</time><extensions><speed>0.044511</speed><course>288.757782</course><hAcc>1.616674</hAcc><vAcc>0.691570</vAcc></extensions></trkpt>
      <trkpt lon="-3.045062" lat="52.722878"><ele>360.864319</ele><time>2022-01-15T12:13:07Z</time><extensions><speed>0.026583</speed><course>290.473907</course><hAcc>1.573572</hAcc><vAcc>0.699360</vAcc></extensions></trkpt>
      <trkpt lon="-3.045062" lat="52.722878"><ele>360.861603</ele><time>2022-01-15T12:13:08Z</time><extensions><speed>0.013328</speed><course>271.654694</course><hAcc>1.537407</hAcc><vAcc>0.706960</vAcc></extensions></trkpt>
      <trkpt lon="-3.045062" lat="52.722878"><ele>360.865082</ele><time>2022-01-15T12:13:09Z</time><extensions><speed>0.008892</speed><course>197.996307</course><hAcc>1.511596</hAcc><vAcc>0.714141</vAcc></extensions></trkpt>
      <trkpt lon="-3.045062" lat="52.722878"><ele>360.873932</ele><time>2022-01-15T12:13:10Z</time><extensions><speed>0.015856</speed><course>161.482376</course><hAcc>1.491233</hAcc><vAcc>0.720799</vAcc></extensions></trkpt>
      <trkpt lon="-3.045062" lat="52.722878"><ele>360.893860</ele><time>2022-01-15T12:13:11Z</time><extensions><speed>0.019918</speed><course>149.563843</course><hAcc>1.493142</hAcc><vAcc>0.726886</vAcc></extensions></trkpt>
      <trkpt lon="-3.045062" lat="52.722878"><ele>360.919861</ele><time>2022-01-15T12:13:12Z</time><extensions><speed>0.025182</speed><course>143.876495</course><hAcc>1.494927</hAcc><vAcc>0.732313</vAcc></extensions></trkpt>
      <trkpt lon="-3.045062" lat="52.722877"><ele>360.951202</ele><time>2022-01-15T12:13:13Z</time><extensions><speed>0.052495</speed><course>141.088074</course><hAcc>1.466036</hAcc><vAcc>0.737138</vAcc></extensions></trkpt>
      <trkpt lon="-3.045061" lat="52.722877"><ele>360.974945</ele><time>2022-01-15T12:13:14Z</time><extensions><speed>0.062063</speed><course>139.126251</course><hAcc>1.462837</hAcc><vAcc>0.741353</vAcc></extensions></trkpt>
      <trkpt lon="-3.045061" lat="52.722877"><ele>361.007812</ele><time>2022-01-15T12:13:15Z</time><extensions><speed>0.057440</speed><course>134.434082</course><hAcc>1.465649</hAcc><vAcc>0.744802</vAcc></extensions></trkpt>
      <trkpt lon="-3.045060" lat="52.722877"><ele>361.041595</ele><time>2022-01-15T12:13:16Z</time><extensions><speed>0.036699</speed><course>121.490875</course><hAcc>1.468110</hAcc><vAcc>0.747510</vAcc></extensions></trkpt>
      <trkpt lon="-3.045060" lat="52.722877"><ele>361.067139</ele><time>2022-01-15T12:13:17Z</time><extensions><speed>0.024889</speed><course>90.003395</course><hAcc>1.458679</hAcc><vAcc>0.748968</vAcc></extensions></trkpt>
      <trkpt lon="-3.045059" lat="52.722877"><ele>361.090881</ele><time>2022-01-15T12:13:18Z</time><extensions><speed>0.025420</speed><course>43.104820</course><hAcc>1.449295</hAcc><vAcc>0.749765</vAcc></extensions></trkpt>
      <trkpt lon="-3.045059" lat="52.722877"><ele>361.117340</ele><time>2022-01-15T12:13:19Z</time><extensions><speed>0.033268</speed><course>17.980158</course><hAcc>1.440353</hAcc><vAcc>0.749486</vAcc></extensions></trkpt>
      <trkpt lon="-3.045059" lat="52.722877"><ele>361.146759</ele><time>2022-01-15T12:13:20Z</time><extensions><speed>0.030695</speed><course>6.734914</course><hAcc>1.443864</hAcc><vAcc>0.747775</vAcc></extensions></trkpt>
      <trkpt lon="-3.045059" lat="52.722877"><ele>361.174255</ele><time>2022-01-15T12:13:21Z</time><extensions><speed>0.028413</speed><course>4.864046</course><hAcc>1.434808</hAcc><vAcc>0.744783</vAcc></extensions></trkpt>
      <trkpt lon="-3.045059" lat="52.722878"><ele>361.205231</ele><time>2022-01-15T12:13:22Z</time><extensions><speed>0.024524</speed><course>8.277276</course><hAcc>1.429755</hAcc><vAcc>0.740339</vAcc></extensions></trkpt>
      <trkpt lon="-3.045058" lat="52.722878"><ele>361.235321</ele><time>2022-01-15T12:13:23Z</time><extensions><speed>0.017591</speed><course>15.915293</course><hAcc>1.433465</hAcc><vAcc>0.734387</vAcc></extensions></trkpt>
      <trkpt lon="-3.045058" lat="52.722878"><ele>361.265015</ele><time>2022-01-15T12:13:24Z</time><extensions><speed>0.025272</speed><course>32.097034</course><hAcc>1.404773</hAcc><vAcc>0.726932</vAcc></extensions></trkpt>
      <trkpt lon="-3.045058" lat="52.722878"><ele>361.294952</ele><time>2022-01-15T12:13:25Z</time><extensions><speed>0.020479</speed><course>56.230389</course><hAcc>1.418549</hAcc><vAcc>0.718057</vAcc></extensions></trkpt>
      <trkpt lon="-3.045058" lat="52.722878"><ele>361.325623</ele><time>2022-01-15T12:13:26Z</time><extensions><speed>0.014941</speed><course>87.388054</course><hAcc>1.444433</hAcc><vAcc>0.707913</vAcc></extensions></trkpt>
      <trkpt lon="-3.045057" lat="52.722878"><ele>361.357361</ele><time>2022-01-15T12:13:27Z</time><extensions><speed>0.028144</speed><course>105.986198</course><hAcc>1.427716</hAcc><vAcc>0.696761</vAcc></extensions></trkpt>
      <trkpt lon="-3.045057" lat="52.722878"><ele>361.390320</ele><time>2022-01-15T12:13:28Z</time><extensions><speed>0.020654</speed><course>115.844154</course><hAcc>1.462357</hAcc><vAcc>0.684881</vAcc></extensions></trkpt>
      <trkpt lon="-3.045057" lat="52.722878"><ele>361.424286</ele><time>2022-01-15T12:13:29Z</time><extensions><speed>0.013740</speed><course>115.304031</course><hAcc>1.486988</hAcc><vAcc>0.672554</vAcc></extensions></trkpt>
      <trkpt lon="-3.045056" lat="52.722878"><ele>361.458710</ele><time>2022-01-15T12:13:30Z</time><extensions><speed>0.026498</speed><course>104.303436</course><hAcc>1.461527</hAcc><vAcc>0.660061</vAcc></extensions></trkpt>
      <trkpt lon="-3.045056" lat="52.722878"><ele>361.493927</ele><time>2022-01-15T12:13:31Z</time><extensions><speed>0.028877</speed><course>90.625420</course><hAcc>1.478589</hAcc><vAcc>0.647662</vAcc></extensions></trkpt>
      <trkpt lon="-3.045055" lat="52.722878"><ele>361.516022</ele><time>2022-01-15T12:13:32Z</time><extensions><speed>0.027432</speed><course>92.328590</course><hAcc>1.502804</hAcc><vAcc>0.635526</vAcc></extensions></trkpt>
      <trkpt lon="-3.045055" lat="52.722878"><ele>361.525299</ele><time>2022-01-15T12:13:33Z</time><extensions><speed>0.023987</speed><course>92.922508</course><hAcc>1.521565</hAcc><vAcc>0.623743</vAcc></extensions></trkpt>
      <trkpt lon="-3.045055" lat="52.722878"><ele>361.528381</ele><time>2022-01-15T12:13:34Z</time><extensions><speed>0.022929</speed><course>96.149948</course><hAcc>1.534034</hAcc><vAcc>0.612324</vAcc></extensions></trkpt>
      <trkpt lon="-3.045054" lat="52.722878"><ele>361.526062</ele><time>2022-01-15T12:13:35Z</time><extensions><speed>0.021861</speed><course>100.024338</course><hAcc>1.550686</hAcc><vAcc>0.601175</vAcc></extensions></trkpt>
      <trkpt lon="-3.045053" lat="52.722877"><ele>361.515411</ele><time>2022-01-15T12:13:36Z</time><extensions><speed>0.025250</speed><course>104.255730</course><hAcc>1.558239</hAcc><vAcc>0.590220</vAcc></extensions></trkpt>
      <trkpt lon="-3.045053" lat="52.722877"><ele>361.497223</ele><time>2022-01-15T12:13:37Z</time><extensions><speed>0.026484</speed><course>107.224052</course><hAcc>1.574466</hAcc><vAcc>0.579444</vAcc></extensions></trkpt>
      <trkpt lon="-3.045052" lat="52.722877"><ele>361.472046</ele><time>2022-01-15T12:13:38Z</time><extensions><speed>0.028722</speed><course>109.698997</course><hAcc>1.596625</hAcc><vAcc>0.568900</vAcc></extensions></trkpt>
      <trkpt lon="-3.045052" lat="52.722877"><ele>361.441772</ele><time>2022-01-15T12:13:39Z</time><extensions><speed>0.025537</speed><course>112.303894</course><hAcc>1.635563</hAcc><vAcc>0.558699</vAcc></extensions></trkpt>
      <trkpt lon="-3.045052" lat="52.722877"><ele>361.409851</ele><time>2022-01-15T12:13:40Z</time><extensions><speed>0.037637</speed><course>115.671234</course><hAcc>1.656515</hAcc><vAcc>0.548999</vAcc></extensions></trkpt>
      <trkpt lon="-3.045051" lat="52.722877"><ele>361.378174</ele><time>2022-01-15T12:13:41Z</time><extensions><speed>0.069598</speed><course>120.205124</course><hAcc>1.666890</hAcc><vAcc>0.540001</vAcc></extensions></trkpt>
      <trkpt lon="-3.045050" lat="52.722876"><ele>361.349548</ele><time>2022-01-15T12:13:42Z</time><extensions><speed>0.126705</speed><course>118.865158</course><hAcc>1.683137</hAcc><vAcc>0.531927</vAcc></extensions></trkpt>
      <trkpt lon="-3.045048" lat="52.722876"><ele>361.326752</ele><time>2022-01-15T12:13:43Z</time><extensions><speed>0.137604</speed><course>115.109978</course><hAcc>1.759689</hAcc><vAcc>0.524978</vAcc></extensions></trkpt>
      <trkpt lon="-3.045046" lat="52.722875"><ele>361.310577</ele><time>2022-01-15T12:13:44Z</time><extensions><speed>0.155516</speed><course>113.970047</course><hAcc>1.815042</hAcc><vAcc>0.519290</vAcc></extensions></trkpt>
      <trkpt lon="-3.045044" lat="52.722875"><ele>361.300629</ele><time>2022-01-15T12:13:45Z</time><extensions><speed>0.129462</speed><course>114.850945</course><hAcc>1.867420</hAcc><vAcc>0.514902</vAcc></extensions></trkpt>
      <trkpt lon="-3.045043" lat="52.722874"><ele>361.296570</ele><time>2022-01-15T12:13:46Z</time><extensions><speed>0.078310</speed><course>118.329567</course><hAcc>1.903347</hAcc><vAcc>0.511698</vAcc></extensions></trkpt>
      <trkpt lon="-3.045042" lat="52.722874"><ele>361.297821</ele><time>2022-01-15T12:13:47Z</time><extensions><speed>0.030614</speed><course>132.170700</course><hAcc>1.903420</hAcc><vAcc>0.509456</vAcc></extensions></trkpt>
      <trkpt lon="-3.045042" lat="52.722874"><ele>361.303375</ele><time>2022-01-15T12:13:48Z</time><extensions><speed>0.014179</speed><course>239.783798</course><hAcc>1.881726</hAcc><vAcc>0.507977</vAcc></extensions></trkpt>
      <trkpt lon="-3.045042" lat="52.722874"><ele>361.312378</ele><time>2022-01-15T12:13:49Z</time><extensions><speed>0.028434</speed><course>275.214752</course><hAcc>1.878131</hAcc><vAcc>0.507115</vAcc></extensions></trkpt>
      <trkpt lon="-3.045043" lat="52.722874"><ele>361.329712</ele><time>2022-01-15T12:13:50Z</time><extensions><speed>0.028361</speed><course>282.876984</course><hAcc>1.894484</hAcc><vAcc>0.506729</vAcc></extensions></trkpt>
      <trkpt lon="-3.045043" lat="52.722874"><ele>361.353149</ele><time>2022-01-15T12:13:51Z</time><extensions><speed>0.024820</speed><course>285.541962</course><hAcc>1.908081</hAcc><vAcc>0.506726</vAcc></extensions></trkpt>
      <trkpt lon="-3.045044" lat="52.722874"><ele>361.378387</ele><time>2022-01-15T12:13:52Z</time><extensions><speed>0.019014</speed><course>287.622223</course><hAcc>1.922067</hAcc><vAcc>0.507142</vAcc></extensions></trkpt>
      <trkpt lon="-3.045044" lat="52.722874"><ele>361.404938</ele><time>2022-01-15T12:13:53Z</time><extensions><speed>0.024929</speed><course>290.158966</course><hAcc>1.898196</hAcc><vAcc>0.508168</vAcc></extensions></trkpt>
      <trkpt lon="-3.045044" lat="52.722874"><ele>361.426422</ele><time>2022-01-15T12:13:54Z</time><extensions><speed>0.025845</speed><course>290.541260</course><hAcc>1.910041</hAcc><vAcc>0.510104</vAcc></extensions></trkpt>
      <trkpt lon="-3.045045" lat="52.722874"><ele>361.436768</ele><time>2022-01-15T12:13:55Z</time><extensions><speed>0.036304</speed><course>291.038452</course><hAcc>1.910430</hAcc><vAcc>0.513297</vAcc></extensions></trkpt>
      <trkpt lon="-3.045045" lat="52.722875"><ele>361.435150</ele><time>2022-01-15T12:13:56Z</time><extensions><speed>0.046038</speed><course>291.029419</course><hAcc>1.927623</hAcc><vAcc>0.518077</vAcc></extensions></trkpt>
      <trkpt lon="-3.045046" lat="52.722875"><ele>361.420654</ele><time>2022-01-15T12:13:57Z</time><extensions><speed>0.058178</speed><course>290.420532</course><hAcc>1.949368</hAcc><vAcc>0.524703</vAcc></extensions></trkpt>
      <trkpt lon="-3.045047" lat="52.722875"><ele>361.392578</ele><time>2022-01-15T12:13:58Z</time><extensions><speed>0.073130</speed><course>289.061615</course><hAcc>1.960451</hAcc><vAcc>0.533283</vAcc></extensions></trkpt>
      <trkpt lon="-3.045048" lat="52.722875"><ele>361.350220</ele><time>2022-01-15T12:13:59Z</time><extensions><speed>0.092390</speed><course>286.795471</course><hAcc>1.957751</hAcc><vAcc>0.543741</vAcc></extensions></trkpt>
      <trkpt lon="-3.045050" lat="52.722875"><ele>361.292908</ele><time>2022-01-15T12:14:00Z</time><extensions><speed>0.107369</speed><course>284.628754</course><hAcc>1.954613</hAcc><vAcc>0.555626</vAcc></extensions></trkpt>
      <trkpt lon="-3.045051" lat="52.722876"><ele>361.221375</ele><time>2022-01-15T12:14:01Z</time><extensions><speed>0.121476</speed><course>284.045441</course><hAcc>1.938900</hAcc><vAcc>0.568044</vAcc></extensions></trkpt>
      <trkpt lon="-3.045053" lat="52.722876"><ele>361.137878</ele><time>2022-01-15T12:14:02Z</time><extensions><speed>0.134899</speed><course>284.074066</course><hAcc>1.905878</hAcc><vAcc>0.579831</vAcc></extensions></trkpt>
      <trkpt lon="-3.045055" lat="52.722876"><ele>361.045776</ele><time>2022-01-15T12:14:03Z</time><extensions><speed>0.140032</speed><course>283.211395</course><hAcc>1.868195</hAcc><vAcc>0.589816</vAcc></extensions></trkpt>
      <trkpt lon="-3.045057" lat="52.722876"><ele>360.969238</ele><time>2022-01-15T12:14:04Z</time><extensions><speed>0.114543</speed><course>282.634338</course><hAcc>1.848637</hAcc><vAcc>0.597178</vAcc></extensions></trkpt>
      <trkpt lon="-3.045058" lat="52.722877"><ele>360.899780</ele><time>2022-01-15T12:14:05Z</time><extensions><speed>0.063819</speed><course>282.152954</course><hAcc>1.846783</hAcc><vAcc>0.601406</vAcc></extensions></trkpt>
      <trkpt lon="-3.045058" lat="52.722876"><ele>360.840271</ele><time>2022-01-15T12:14:06Z</time><extensions><speed>0.025420</speed><course>274.939636</course><hAcc>1.817121</hAcc><vAcc>0.602350</vAcc></extensions></trkpt>
      <trkpt lon="-3.045058" lat="52.722876"><ele>360.794891</ele><time>2022-01-15T12:14:07Z</time><extensions><speed>0.013033</speed><course>135.076431</course><hAcc>1.789616</hAcc><vAcc>0.600172</vAcc></extensions></trkpt>
      <trkpt lon="-3.045057" lat="52.722876"><ele>360.765991</ele><time>2022-01-15T12:14:08Z</time><extensions><speed>0.041858</speed><course>116.782867</course><hAcc>1.785701</hAcc><vAcc>0.595271</vAcc></extensions></trkpt>
      <trkpt lon="-3.045056" lat="52.722876"><ele>360.754669</ele><time>2022-01-15T12:14:09Z</time><extensions><speed>0.057500</speed><course>113.992554</course><hAcc>1.811001</hAcc><vAcc>0.588203</vAcc></extensions></trkpt>
      <trkpt lon="-3.045055" lat="52.722876"><ele>360.760986</ele><time>2022-01-15T12:14:10Z</time><extensions><speed>0.096747</speed><course>113.089165</course><hAcc>1.809234</hAcc><vAcc>0.579607</vAcc></extensions></trkpt>
      <trkpt lon="-3.045054" lat="52.722875"><ele>360.783875</ele><time>2022-01-15T12:14:11Z</time><extensions><speed>0.148674</speed><course>112.791061</course><hAcc>1.814717</hAcc><vAcc>0.570142</vAcc></extensions></trkpt>
      <trkpt lon="-3.045051" lat="52.722875"><ele>360.821320</ele><time>2022-01-15T12:14:12Z</time><extensions><speed>0.203126</speed><course>112.684975</course><hAcc>1.837002</hAcc><vAcc>0.560455</vAcc></extensions></trkpt>
      <trkpt lon="-3.045047" lat="52.722874"><ele>360.870087</ele><time>2022-01-15T12:14:13Z</time><extensions><speed>0.341820</speed><course>112.689903</course><hAcc>1.838009</hAcc><vAcc>0.551166</vAcc></extensions></trkpt>
      <trkpt lon="-3.045042" lat="52.722872"><ele>360.926147</ele><time>2022-01-15T12:14:14Z</time><extensions><speed>0.401705</speed><course>112.786499</course><hAcc>1.868552</hAcc><vAcc>0.542832</vAcc></extensions></trkpt>
      <trkpt lon="-3.045037" lat="52.722871"><ele>360.991058</ele><time>2022-01-15T12:14:15Z</time><extensions><speed>0.393581</speed><course>112.910645</course><hAcc>1.908953</hAcc><vAcc>0.535873</vAcc></extensions></trkpt>
      <trkpt lon="-3.045032" lat="52.722870"><ele>361.060455</ele><time>2022-01-15T12:14:16Z</time><extensions><speed>0.337710</speed><course>113.093658</course><hAcc>1.939993</hAcc><vAcc>0.530506</vAcc></extensions></trkpt>
      <trkpt lon="-3.045028" lat="52.722869"><ele>361.130981</ele><time>2022-01-15T12:14:17Z</time><extensions><speed>0.276789</speed><course>113.316612</course><hAcc>1.955149</hAcc><vAcc>0.526716</vAcc></extensions></trkpt>
      <trkpt lon="-3.045024" lat="52.722868"><ele>361.201447</ele><time>2022-01-15T12:14:18Z</time><extensions><speed>0.212782</speed><course>113.675400</course><hAcc>1.965027</hAcc><vAcc>0.524303</vAcc></extensions></trkpt>
      <trkpt lon="-3.045022" lat="52.722867"><ele>361.270752</ele><time>2022-01-15T12:14:19Z</time><extensions><speed>0.153456</speed><course>113.005417</course><hAcc>1.968344</hAcc><vAcc>0.522967</vAcc></extensions></trkpt>
      <trkpt lon="-3.045020" lat="52.722867"><ele>361.337891</ele><time>2022-01-15T12:14:20Z</time><extensions><speed>0.114598</speed><course>111.677032</course><hAcc>1.958084</hAcc><vAcc>0.522371</vAcc></extensions></trkpt>
      <trkpt lon="-3.045019" lat="52.722867"><ele>361.403809</ele><time>2022-01-15T12:14:21Z</time><extensions><speed>0.086411</speed><course>109.225723</course><hAcc>1.943358</hAcc><vAcc>0.522181</vAcc></extensions></trkpt>
      <trkpt lon="-3.045018" lat="52.722866"><ele>361.468079</ele><time>2022-01-15T12:14:22Z</time><extensions><speed>0.066387</speed><course>105.164055</course><hAcc>1.924769</hAcc><vAcc>0.522085</vAcc></extensions></trkpt>
      <trkpt lon="-3.045017" lat="52.722866"><ele>361.529846</ele><time>2022-01-15T12:14:23Z</time><extensions><speed>0.052552</speed><course>99.355339</course><hAcc>1.899569</hAcc><vAcc>0.521773</vAcc></extensions></trkpt>
      <trkpt lon="-3.045016" lat="52.722866"><ele>361.587433</ele><time>2022-01-15T12:14:24Z</time><extensions><speed>0.032239</speed><course>83.776047</course><hAcc>1.876140</hAcc><vAcc>0.520986</vAcc></extensions></trkpt>
      <trkpt lon="-3.045016" lat="52.722866"><ele>361.639191</ele><time>2022-01-15T12:14:25Z</time><extensions><speed>0.019258</speed><course>11.633608</course><hAcc>1.871128</hAcc><vAcc>0.519540</vAcc></extensions></trkpt>
      <trkpt lon="-3.045016" lat="52.722867"><ele>361.684235</ele><time>2022-01-15T12:14:26Z</time><extensions><speed>0.042470</speed><course>327.346527</course><hAcc>1.886758</hAcc><vAcc>0.517332</vAcc></extensions></trkpt>
      <trkpt lon="-3.045017" lat="52.722867"><ele>361.722198</ele><time>2022-01-15T12:14:27Z</time><extensions><speed>0.071944</speed><course>320.673615</course><hAcc>1.900832</hAcc><vAcc>0.514348</vAcc></extensions></trkpt>
      <trkpt lon="-3.045018" lat="52.722868"><ele>361.750275</ele><time>2022-01-15T12:14:28Z</time><extensions><speed>0.106631</speed><course>319.073273</course><hAcc>1.899660</hAcc><vAcc>0.510647</vAcc></extensions></trkpt>
      <trkpt lon="-3.045019" lat="52.722869"><ele>361.768768</ele><time>2022-01-15T12:14:29Z</time><extensions><speed>0.146992</speed><course>318.379120</course><hAcc>1.881390</hAcc><vAcc>0.506350</vAcc></extensions></trkpt>
      <trkpt lon="-3.045020" lat="52.722869"><ele>361.778351</ele><time>2022-01-15T12:14:30Z</time><extensions><speed>0.122481</speed><course>318.180237</course><hAcc>1.904273</hAcc><vAcc>0.501722</vAcc></extensions></trkpt>
      <trkpt lon="-3.045021" lat="52.722870"><ele>361.779266</ele><time>2022-01-15T12:14:31Z</time><extensions><speed>0.089256</speed><course>317.100830</course><hAcc>1.934206</hAcc><vAcc>0.497119</vAcc></extensions></trkpt>
      <trkpt lon="-3.045022" lat="52.722871"><ele>361.773712</ele><time>2022-01-15T12:14:32Z</time><extensions><speed>0.061795</speed><course>313.255585</course><hAcc>1.955262</hAcc><vAcc>0.492935</vAcc></extensions></trkpt>
      <trkpt lon="-3.045023" lat="52.722871"><ele>361.762543</ele><time>2022-01-15T12:14:32Z</time><extensions><speed>0.047359</speed><course>301.439789</course><hAcc>1.977868</hAcc><vAcc>0.489509</vAcc></extensions></trkpt>
      <trkpt lon="-3.045024" lat="52.722871"><ele>361.746765</ele><time>2022-01-15T12:14:33Z</time><extensions><speed>0.052404</speed><course>286.857239</course><hAcc>1.995647</hAcc><vAcc>0.487040</vAcc></extensions></trkpt>
      <trkpt lon="-3.045024" lat="52.722871"><ele>361.727539</ele><time>2022-01-15T12:14:34Z</time><extensions><speed>0.063774</speed><course>276.439087</course><hAcc>2.009574</hAcc><vAcc>0.485585</vAcc></extensions></trkpt>
      <trkpt lon="-3.045026" lat="52.722871"><ele>361.706268</ele><time>2022-01-15T12:14:35Z</time><extensions><speed>0.071536</speed><course>263.558563</course><hAcc>2.018115</hAcc><vAcc>0.485131</vAcc></extensions></trkpt>
      <trkpt lon="-3.045027" lat="52.722871"><ele>361.682953</ele><time>2022-01-15T12:14:36Z</time><extensions><speed>0.079378</speed><course>248.416763</course><hAcc>2.018247</hAcc><vAcc>0.485627</vAcc></extensions></trkpt>
      <trkpt lon="-3.045028" lat="52.722870"><ele>361.662598</ele><time>2022-01-15T12:14:37Z</time><extensions><speed>0.093622</speed><course>235.362488</course><hAcc>2.015424</hAcc><vAcc>0.486960</vAcc></extensions></trkpt>
      <trkpt lon="-3.045029" lat="52.722870"><ele>361.646362</ele><time>2022-01-15T12:14:38Z</time><extensions><speed>0.112255</speed><course>226.099854</course><hAcc>2.015919</hAcc><vAcc>0.488886</vAcc></extensions></trkpt>
      <trkpt lon="-3.045030" lat="52.722869"><ele>361.634888</ele><time>2022-01-15T12:14:39Z</time><extensions><speed>0.130703</speed><course>220.209457</course><hAcc>2.017048</hAcc><vAcc>0.491092</vAcc></extensions></trkpt>
      <trkpt lon="-3.045031" lat="52.722868"><ele>361.628296</ele><time>2022-01-15T12:14:40Z</time><extensions><speed>0.145041</speed><course>216.589645</course><hAcc>2.009372</hAcc><vAcc>0.493295</vAcc></extensions></trkpt>
      <trkpt lon="-3.045033" lat="52.722867"><ele>361.626373</ele><time>2022-01-15T12:14:41Z</time><extensions><speed>0.143879</speed><course>213.710831</course><hAcc>2.001670</hAcc><vAcc>0.495288</vAcc></extensions></trkpt>
      <trkpt lon="-3.045034" lat="52.722866"><ele>361.628357</ele><time>2022-01-15T12:14:42Z</time><extensions><speed>0.144161</speed><course>212.290710</course><hAcc>1.991448</hAcc><vAcc>0.496938</vAcc></extensions></trkpt>
      <trkpt lon="-3.045035" lat="52.722865"><ele>361.630676</ele><time>2022-01-15T12:14:43Z</time><extensions><speed>0.139766</speed><course>210.817352</course><hAcc>1.987935</hAcc><vAcc>0.498182</vAcc></extensions></trkpt>
      <trkpt lon="-3.045036" lat="52.722864"><ele>361.638580</ele><time>2022-01-15T12:14:44Z</time><extensions><speed>0.135983</speed><course>209.818542</course><hAcc>1.982725</hAcc><vAcc>0.499046</vAcc></extensions></trkpt>
      <trkpt lon="-3.045037" lat="52.722863"><ele>361.649261</ele><time>2022-01-15T12:14:45Z</time><extensions><speed>0.121992</speed><course>210.476791</course><hAcc>1.973242</hAcc><vAcc>0.499636</vAcc></extensions></trkpt>
      <trkpt lon="-3.045038" lat="52.722862"><ele>361.662170</ele><time>2022-01-15T12:14:46Z</time><extensions><speed>0.090234</speed><course>213.564194</course><hAcc>1.965655</hAcc><vAcc>0.500104</vAcc></extensions></trkpt>
      <trkpt lon="-3.045038" lat="52.722861"><ele>361.678650</ele><time>2022-01-15T12:14:47Z</time><extensions><speed>0.067117</speed><course>218.690506</course><hAcc>1.947032</hAcc><vAcc>0.500493</vAcc></extensions></trkpt>
      <trkpt lon="-3.045039" lat="52.722861"><ele>361.694641</ele><time>2022-01-15T12:14:48Z</time><extensions><speed>0.045860</speed><course>228.627884</course><hAcc>1.940755</hAcc><vAcc>0.500734</vAcc></extensions></trkpt>
      <trkpt lon="-3.045039" lat="52.722861"><ele>361.709259</ele><time>2022-01-15T12:14:50Z</time><extensions><speed>0.028666</speed><course>247.446548</course><hAcc>1.953094</hAcc><vAcc>0.500696</vAcc></extensions></trkpt>
      <trkpt lon="-3.045040" lat="52.722861"><ele>361.722198</ele><time>2022-01-15T12:14:51Z</time><extensions><speed>0.023060</speed><course>273.754913</course><hAcc>1.955911</hAcc><vAcc>0.500213</vAcc></extensions></trkpt>
      <trkpt lon="-3.045040" lat="52.722861"><ele>361.732727</ele><time>2022-01-15T12:14:52Z</time><extensions><speed>0.016656</speed><course>275.908447</course><hAcc>1.952435</hAcc><vAcc>0.499161</vAcc></extensions></trkpt>
      <trkpt lon="-3.045040" lat="52.722860"><ele>361.744904</ele><time>2022-01-15T12:14:53Z</time><extensions><speed>0.013079</speed><course>182.274429</course><hAcc>1.938662</hAcc><vAcc>0.497514</vAcc></extensions></trkpt>
      <trkpt lon="-3.045040" lat="52.722860"><ele>361.757690</ele><time>2022-01-15T12:14:54Z</time><extensions><speed>0.040672</speed><course>144.515396</course><hAcc>1.945312</hAcc><vAcc>0.495366</vAcc></extensions></trkpt>
      <trkpt lon="-3.045039" lat="52.722860"><ele>361.769775</ele><time>2022-01-15T12:14:55Z</time><extensions><speed>0.064476</speed><course>134.461945</course><hAcc>1.951812</hAcc><vAcc>0.493089</vAcc></extensions></trkpt>
      <trkpt lon="-3.045039" lat="52.722860"><ele>361.781464</ele><time>2022-01-15T12:14:56Z</time><extensions><speed>0.080918</speed><course>128.896988</course><hAcc>1.960592</hAcc><vAcc>0.491405</vAcc></extensions></trkpt>
      <trkpt lon="-3.045038" lat="52.722859"><ele>361.790588</ele><time>2022-01-15T12:14:57Z</time><extensions><speed>0.091060</speed><course>130.580185</course><hAcc>1.985445</hAcc><vAcc>0.491323</vAcc></extensions></trkpt>
      <trkpt lon="-3.045037" lat="52.722859"><ele>361.799622</ele><time>2022-01-15T12:14:58Z</time><extensions><speed>0.082143</speed><course>138.036346</course><hAcc>2.021255</hAcc><vAcc>0.493988</vAcc></extensions></trkpt>
      <trkpt lon="-3.045036" lat="52.722858"><ele>361.810242</ele><time>2022-01-15T12:14:59Z</time><extensions><speed>0.105915</speed><course>147.360794</course><hAcc>1.998829</hAcc><vAcc>0.500434</vAcc></extensions></trkpt>
      <trkpt lon="-3.045035" lat="52.722857"><ele>361.826294</ele><time>2022-01-15T12:15:00Z</time><extensions><speed>0.116732</speed><course>155.444550</course><hAcc>1.979534</hAcc><vAcc>0.511373</vAcc></extensions></trkpt>
      <trkpt lon="-3.045035" lat="52.722856"><ele>361.836884</ele><time>2022-01-15T12:15:01Z</time><extensions><speed>0.109609</speed><course>163.659180</course><hAcc>1.969736</hAcc><vAcc>0.527038</vAcc></extensions></trkpt>
      <trkpt lon="-3.045034" lat="52.722855"><ele>361.848938</ele><time>2022-01-15T12:15:02Z</time><extensions><speed>0.056128</speed><course>183.935410</course><hAcc>1.961761</hAcc><vAcc>0.547135</vAcc></extensions></trkpt>
      <trkpt lon="-3.045035" lat="52.722855"><ele>361.857086</ele><time>2022-01-15T12:15:03Z</time><extensions><speed>0.064523</speed><course>299.843658</course><hAcc>1.943786</hAcc><vAcc>0.570826</vAcc></extensions></trkpt>
      <trkpt lon="-3.045036" lat="52.722856"><ele>361.871216</ele><time>2022-01-15T12:15:04Z</time><extensions><speed>0.157714</speed><course>316.642792</course><hAcc>1.917172</hAcc><vAcc>0.596731</vAcc></extensions></trkpt>
      <trkpt lon="-3.045038" lat="52.722857"><ele>361.878418</ele><time>2022-01-15T12:15:05Z</time><extensions><speed>0.202538</speed><course>319.832672</course><hAcc>1.891610</hAcc><vAcc>0.623259</vAcc></extensions></trkpt>
      <trkpt lon="-3.045040" lat="52.722859"><ele>361.880829</ele><time>2022-01-15T12:15:06Z</time><extensions><speed>0.191483</speed><course>323.904633</course><hAcc>1.869068</hAcc><vAcc>0.649075</vAcc></extensions></trkpt>
      <trkpt lon="-3.045041" lat="52.722860"><ele>361.871490</ele><time>2022-01-15T12:15:07Z</time><extensions><speed>0.161634</speed><course>334.488647</course><hAcc>1.849188</hAcc><vAcc>0.673223</vAcc></extensions></trkpt>
      <trkpt lon="-3.045042" lat="52.722861"><ele>361.883453</ele><time>2022-01-15T12:15:08Z</time><extensions><speed>0.147073</speed><course>350.249023</course><hAcc>1.831535</hAcc><vAcc>0.695082</vAcc></extensions></trkpt>
      <trkpt lon="-3.045042" lat="52.722863"><ele>361.892517</ele><time>2022-01-15T12:15:09Z</time><extensions><speed>0.138638</speed><course>2.767572</course><hAcc>1.815337</hAcc><vAcc>0.714434</vAcc></extensions></trkpt>
      <trkpt lon="-3.045042" lat="52.722864"><ele>361.895081</ele><time>2022-01-15T12:15:10Z</time><extensions><speed>0.128657</speed><course>9.273124</course><hAcc>1.798403</hAcc><vAcc>0.731201</vAcc></extensions></trkpt>
      <trkpt lon="-3.045041" lat="52.722865"><ele>361.903320</ele><time>2022-01-15T12:15:11Z</time><extensions><speed>0.110191</speed><course>11.517514</course><hAcc>1.796009</hAcc><vAcc>0.745488</vAcc></extensions></trkpt>
      <trkpt lon="-3.045041" lat="52.722866"><ele>361.881531</ele><time>2022-01-15T12:15:12Z</time><extensions><speed>0.083799</speed><course>16.961662</course><hAcc>1.804162</hAcc><vAcc>0.757496</vAcc></extensions></trkpt>
      <trkpt lon="-3.045040" lat="52.722866"><ele>361.882965</ele><time>2022-01-15T12:15:13Z</time><extensions><speed>0.073144</speed><course>36.718620</course><hAcc>1.787438</hAcc><vAcc>0.767394</vAcc></extensions></trkpt>
      <trkpt lon="-3.045040" lat="52.722867"><ele>361.886353</ele><time>2022-01-15T12:15:14Z</time><extensions><speed>0.075513</speed><course>73.373177</course><hAcc>1.778013</hAcc><vAcc>0.775442</vAcc></extensions></trkpt>
      <trkpt lon="-3.045038" lat="52.722867"><ele>361.893127</ele><time>2022-01-15T12:15:15Z</time><extensions><speed>0.107498</speed><course>104.183235</course><hAcc>1.778461</hAcc><vAcc>0.781909</vAcc></extensions></trkpt>
      <trkpt lon="-3.045036" lat="52.722866"><ele>361.900696</ele><time>2022-01-15T12:15:16Z</time><extensions><speed>0.153909</speed><course>122.534042</course><hAcc>1.775392</hAcc><vAcc>0.787042</vAcc></extensions></trkpt>
      <trkpt lon="-3.045034" lat="52.722865"><ele>361.907959</ele><time>2022-01-15T12:15:17Z</time><extensions><speed>0.195638</speed><course>134.461594</course><hAcc>1.769173</hAcc><vAcc>0.791026</vAcc></extensions></trkpt>
      <trkpt lon="-3.045032" lat="52.722864"><ele>361.919739</ele><time>2022-01-15T12:15:18Z</time><extensions><speed>0.221934</speed><course>143.303955</course><hAcc>1.757898</hAcc><vAcc>0.794029</vAcc></extensions></trkpt>
      <trkpt lon="-3.045030" lat="52.722862"><ele>361.933167</ele><time>2022-01-15T12:15:19Z</time><extensions><speed>0.225877</speed><course>150.812042</course><hAcc>1.735494</hAcc><vAcc>0.796205</vAcc></extensions></trkpt>
      <trkpt lon="-3.045029" lat="52.722860"><ele>361.940399</ele><time>2022-01-15T12:15:20Z</time><extensions><speed>0.210552</speed><course>157.653625</course><hAcc>1.693271</hAcc><vAcc>0.797667</vAcc></extensions></trkpt>
      <trkpt lon="-3.045028" lat="52.722858"><ele>361.945068</ele><time>2022-01-15T12:15:21Z</time><extensions><speed>0.180022</speed><course>164.820541</course><hAcc>1.635119</hAcc><vAcc>0.798580</vAcc></extensions></trkpt>
      <trkpt lon="-3.045028" lat="52.722857"><ele>361.971497</ele><time>2022-01-15T12:15:22Z</time><extensions><speed>0.127033</speed><course>169.236572</course><hAcc>1.597796</hAcc><vAcc>0.799017</vAcc></extensions></trkpt>
      <trkpt lon="-3.045028" lat="52.722856"><ele>361.982086</ele><time>2022-01-15T12:15:23Z</time><extensions><speed>0.062248</speed><course>165.206528</course><hAcc>1.606109</hAcc><vAcc>0.799099</vAcc></extensions></trkpt>
      <trkpt lon="-3.045027" lat="52.722856"><ele>361.997162</ele><time>2022-01-15T12:15:24Z</time><extensions><speed>0.048554</speed><course>152.424744</course><hAcc>1.585270</hAcc><vAcc>0.798924</vAcc></extensions></trkpt>
      <trkpt lon="-3.045027" lat="52.722856"><ele>362.010925</ele><time>2022-01-15T12:15:25Z</time><extensions><speed>0.049261</speed><course>146.160110</course><hAcc>1.549610</hAcc><vAcc>0.798585</vAcc></extensions></trkpt>
      <trkpt lon="-3.045027" lat="52.722855"><ele>362.024811</ele><time>2022-01-15T12:15:26Z</time><extensions><speed>0.029027</speed><course>149.028702</course><hAcc>1.538223</hAcc><vAcc>0.798184</vAcc></extensions></trkpt>
      <trkpt lon="-3.045026" lat="52.722855"><ele>362.036469</ele><time>2022-01-15T12:15:27Z</time><extensions><speed>0.013404</speed><course>165.588547</course><hAcc>1.517170</hAcc><vAcc>0.797783</vAcc></extensions></trkpt>
      <trkpt lon="-3.045027" lat="52.722855"><ele>362.052032</ele><time>2022-01-15T12:15:28Z</time><extensions><speed>0.008273</speed><course>274.671143</course><hAcc>1.508038</hAcc><vAcc>0.797432</vAcc></extensions></trkpt>
      <trkpt lon="-3.045027" lat="52.722855"><ele>362.061615</ele><time>2022-01-15T12:15:29Z</time><extensions><speed>0.022020</speed><course>307.057251</course><hAcc>1.511170</hAcc><vAcc>0.797167</vAcc></extensions></trkpt>
      <trkpt lon="-3.045027" lat="52.722855"><ele>362.067627</ele><time>2022-01-15T12:15:30Z</time><extensions><speed>0.032998</speed><course>315.902557</course><hAcc>1.510555</hAcc><vAcc>0.797027</vAcc></extensions></trkpt>
      <trkpt lon="-3.045028" lat="52.722855"><ele>362.071472</ele><time>2022-01-15T12:15:31Z</time><extensions><speed>0.035617</speed><course>322.347961</course><hAcc>1.508718</hAcc><vAcc>0.796982</vAcc></extensions></trkpt>
      <trkpt lon="-3.045028" lat="52.722856"><ele>362.076050</ele><time>2022-01-15T12:15:32Z</time><extensions><speed>0.028028</speed><course>317.499542</course><hAcc>1.509993</hAcc><vAcc>0.797025</vAcc></extensions></trkpt>
      <trkpt lon="-3.045028" lat="52.722856"><ele>362.079346</ele><time>2022-01-15T12:15:33Z</time><extensions><speed>0.021521</speed><course>292.886200</course><hAcc>1.510203</hAcc><vAcc>0.797135</vAcc></extensions></trkpt>
      <trkpt lon="-3.045029" lat="52.722856"><ele>362.081390</ele><time>2022-01-15T12:15:34Z</time><extensions><speed>0.024929</speed><course>267.575470</course><hAcc>1.511097</hAcc><vAcc>0.797314</vAcc></extensions></trkpt>
      <trkpt lon="-3.045029" lat="52.722856"><ele>362.082275</ele><time>2022-01-15T12:15:35Z</time><extensions><speed>0.038438</speed><course>262.613892</course><hAcc>1.498520</hAcc><vAcc>0.797528</vAcc></extensions></trkpt>
      <trkpt lon="-3.045030" lat="52.722856"><ele>362.078827</ele><time>2022-01-15T12:15:36Z</time><extensions><speed>0.044117</speed><course>269.128143</course><hAcc>1.492130</hAcc><vAcc>0.797767</vAcc></extensions></trkpt>
      <trkpt lon="-3.045030" lat="52.722856"><ele>362.074677</ele><time>2022-01-15T12:15:37Z</time><extensions><speed>0.046306</speed><course>276.973663</course><hAcc>1.483551</hAcc><vAcc>0.797999</vAcc></extensions></trkpt>
      <trkpt lon="-3.045031" lat="52.722856"><ele>362.069916</ele><time>2022-01-15T12:15:38Z</time><extensions><speed>0.041043</speed><course>287.231506</course><hAcc>1.480487</hAcc><vAcc>0.798207</vAcc></extensions></trkpt>
      <trkpt lon="-3.045031" lat="52.722856"><ele>362.062683</ele><time>2022-01-15T12:15:39Z</time><extensions><speed>0.028618</speed><course>302.923248</course><hAcc>1.486917</hAcc><vAcc>0.798399</vAcc></extensions></trkpt>
      <trkpt lon="-3.045031" lat="52.722857"><ele>362.054565</ele><time>2022-01-15T12:15:40Z</time><extensions><speed>0.034196</speed><course>324.892853</course><hAcc>1.453384</hAcc><vAcc>0.798544</vAcc></extensions></trkpt>
      <trkpt lon="-3.045031" lat="52.722857"><ele>362.044556</ele><time>2022-01-15T12:15:41Z</time><extensions><speed>0.034253</speed><course>351.916870</course><hAcc>1.439901</hAcc><vAcc>0.798638</vAcc></extensions></trkpt>
      <trkpt lon="-3.045031" lat="52.722858"><ele>362.034637</ele><time>2022-01-15T12:15:42Z</time><extensions><speed>0.032080</speed><course>22.080212</course><hAcc>1.456189</hAcc><vAcc>0.798693</vAcc></extensions></trkpt>
      <trkpt lon="-3.045030" lat="52.722858"><ele>362.025513</ele><time>2022-01-15T12:15:43Z</time><extensions><speed>0.041653</speed><course>41.039883</course><hAcc>1.460928</hAcc><vAcc>0.798745</vAcc></extensions></trkpt>
      <trkpt lon="-3.045030" lat="52.722858"><ele>362.015594</ele><time>2022-01-15T12:15:44Z</time><extensions><speed>0.080242</speed><course>47.057568</course><hAcc>1.440403</hAcc><vAcc>0.798791</vAcc></extensions></trkpt>
      <trkpt lon="-3.045029" lat="52.722859"><ele>362.005615</ele><time>2022-01-15T12:15:45Z</time><extensions><speed>0.077212</speed><course>49.299194</course><hAcc>1.459326</hAcc><vAcc>0.798773</vAcc></extensions></trkpt>
      <trkpt lon="-3.045028" lat="52.722859"><ele>361.994751</ele><time>2022-01-15T12:15:46Z</time><extensions><speed>0.118752</speed><course>48.683632</course><hAcc>1.445564</hAcc><vAcc>0.798778</vAcc></extensions></trkpt>
      <trkpt lon="-3.045027" lat="52.722860"><ele>361.985504</ele><time>2022-01-15T12:15:47Z</time><extensions><speed>0.117306</speed><course>45.238850</course><hAcc>1.454402</hAcc><vAcc>0.798651</vAcc></extensions></trkpt>
      <trkpt lon="-3.045026" lat="52.722861"><ele>361.976501</ele><time>2022-01-15T12:15:48Z</time><extensions><speed>0.089120</speed><course>41.080433</course><hAcc>1.479831</hAcc><vAcc>0.798520</vAcc></extensions></trkpt>
      <trkpt lon="-3.045025" lat="52.722861"><ele>361.969482</ele><time>2022-01-15T12:15:49Z</time><extensions><speed>0.092033</speed><course>40.788105</course><hAcc>1.479430</hAcc><vAcc>0.798379</vAcc></extensions></trkpt>
      <trkpt lon="-3.045024" lat="52.722862"><ele>361.962280</ele><time>2022-01-15T12:15:50Z</time><extensions><speed>0.084767</speed><course>44.188148</course><hAcc>1.486888</hAcc><vAcc>0.798177</vAcc></extensions></trkpt>
      <trkpt lon="-3.045023" lat="52.722863"><ele>361.956238</ele><time>2022-01-15T12:15:51Z</time><extensions><speed>0.073057</speed><course>45.821812</course><hAcc>1.496397</hAcc><vAcc>0.797918</vAcc></extensions></trkpt>
      <trkpt lon="-3.045022" lat="52.722863"><ele>361.953400</ele><time>2022-01-15T12:15:52Z</time><extensions><speed>0.053654</speed><course>40.000252</course><hAcc>1.506421</hAcc><vAcc>0.797651</vAcc></extensions></trkpt>
      <trkpt lon="-3.045022" lat="52.722863"><ele>361.955719</ele><time>2022-01-15T12:15:53Z</time><extensions><speed>0.037831</speed><course>19.426254</course><hAcc>1.512265</hAcc><vAcc>0.797364</vAcc></extensions></trkpt>
      <trkpt lon="-3.045022" lat="52.722864"><ele>361.921936</ele><time>2022-01-15T12:15:54Z</time><extensions><speed>0.028762</speed><course>349.939667</course><hAcc>1.518676</hAcc><vAcc>0.797046</vAcc></extensions></trkpt>
      <trkpt lon="-3.045022" lat="52.722864"><ele>361.916901</ele><time>2022-01-15T12:15:55Z</time><extensions><speed>0.025010</speed><course>332.458771</course><hAcc>1.521387</hAcc><vAcc>0.796762</vAcc></extensions></trkpt>
      <trkpt lon="-3.045022" lat="52.722864"><ele>361.913635</ele><time>2022-01-15T12:15:56Z</time><extensions><speed>0.021334</speed><course>323.842407</course><hAcc>1.525509</hAcc><vAcc>0.796465</vAcc></extensions></trkpt>
      <trkpt lon="-3.045022" lat="52.722864"><ele>361.913361</ele><time>2022-01-15T12:15:57Z</time><extensions><speed>0.017561</speed><course>322.947449</course><hAcc>1.531335</hAcc><vAcc>0.796100</vAcc></extensions></trkpt>
      <trkpt lon="-3.045023" lat="52.722864"><ele>361.919312</ele><time>2022-01-15T12:15:58Z</time><extensions><speed>0.015513</speed><course>324.585297</course><hAcc>1.537978</hAcc><vAcc>0.795616</vAcc></extensions></trkpt>
      <trkpt lon="-3.045023" lat="52.722865"><ele>361.921722</ele><time>2022-01-15T12:15:59Z</time><extensions><speed>0.017365</speed><course>323.651398</course><hAcc>1.550874</hAcc><vAcc>0.795008</vAcc></extensions></trkpt>
      <trkpt lon="-3.045023" lat="52.722865"><ele>361.931427</ele><time>2022-01-15T12:16:00Z</time><extensions><speed>0.022174</speed><course>326.856232</course><hAcc>1.567264</hAcc><vAcc>0.794272</vAcc></extensions></trkpt>
      <trkpt lon="-3.045023" lat="52.722865"><ele>361.870605</ele><time>2022-01-15T12:16:01Z</time><extensions><speed>0.026147</speed><course>332.698456</course><hAcc>1.589231</hAcc><vAcc>0.793328</vAcc></extensions></trkpt>
      <trkpt lon="-3.045023" lat="52.722865"><ele>361.783020</ele><time>2022-01-15T12:16:02Z</time><extensions><speed>0.028078</speed><course>342.414246</course><hAcc>1.617602</hAcc><vAcc>0.792229</vAcc></extensions></trkpt>
      <trkpt lon="-3.045023" lat="52.722865"><ele>361.733276</ele><time>2022-01-15T12:16:03Z</time><extensions><speed>0.027682</speed><course>1.083721</course><hAcc>1.641583</hAcc><vAcc>0.791015</vAcc></extensions></trkpt>
      <trkpt lon="-3.045023" lat="52.722866"><ele>361.677124</ele><time>2022-01-15T12:16:04Z</time><extensions><speed>0.040611</speed><course>32.401543</course><hAcc>1.645876</hAcc><vAcc>0.789749</vAcc></extensions></trkpt>
      <trkpt lon="-3.045023" lat="52.722866"><ele>361.631317</ele><time>2022-01-15T12:16:05Z</time><extensions><speed>0.058115</speed><course>51.527817</course><hAcc>1.672396</hAcc><vAcc>0.788448</vAcc></extensions></trkpt>
      <trkpt lon="-3.045022" lat="52.722866"><ele>361.554169</ele><time>2022-01-15T12:16:06Z</time><extensions><speed>0.068541</speed><course>60.692081</course><hAcc>1.704270</hAcc><vAcc>0.787094</vAcc></extensions></trkpt>
      <trkpt lon="-3.045021" lat="52.722866"><ele>361.468109</ele><time>2022-01-15T12:16:07Z</time><extensions><speed>0.067969</speed><course>68.283539</course><hAcc>1.733615</hAcc><vAcc>0.785656</vAcc></extensions></trkpt>
      <trkpt lon="-3.045020" lat="52.722867"><ele>361.397888</ele><time>2022-01-15T12:16:08Z</time><extensions><speed>0.062106</speed><course>86.661987</course><hAcc>1.765779</hAcc><vAcc>0.784076</vAcc></extensions></trkpt>
      <trkpt lon="-3.045019" lat="52.722866"><ele>361.345947</ele><time>2022-01-15T12:16:09Z</time><extensions><speed>0.057743</speed><course>113.010857</course><hAcc>1.801306</hAcc><vAcc>0.782246</vAcc></extensions></trkpt>
      <trkpt lon="-3.045018" lat="52.722866"><ele>361.286102</ele><time>2022-01-15T12:16:10Z</time><extensions><speed>0.081394</speed><course>130.396500</course><hAcc>1.788013</hAcc><vAcc>0.780293</vAcc></extensions></trkpt>
      <trkpt lon="-3.045017" lat="52.722866"><ele>361.231232</ele><time>2022-01-15T12:16:11Z</time><extensions><speed>0.098663</speed><course>131.015900</course><hAcc>1.778648</hAcc><vAcc>0.778220</vAcc></extensions></trkpt>
      <trkpt lon="-3.045016" lat="52.722865"><ele>361.187561</ele><time>2022-01-15T12:16:12Z</time><extensions><speed>0.111199</speed><course>123.487938</course><hAcc>1.784842</hAcc><vAcc>0.776251</vAcc></extensions></trkpt>
      <trkpt lon="-3.045014" lat="52.722864"><ele>361.153046</ele><time>2022-01-15T12:16:13Z</time><extensions><speed>0.134557</speed><course>119.176956</course><hAcc>1.787865</hAcc><vAcc>0.774271</vAcc></extensions></trkpt>
      <trkpt lon="-3.045012" lat="52.722864"><ele>361.128998</ele><time>2022-01-15T12:16:14Z</time><extensions><speed>0.184789</speed><course>121.601173</course><hAcc>1.768652</hAcc><vAcc>0.772219</vAcc></extensions></trkpt>
      <trkpt lon="-3.045010" lat="52.722863"><ele>361.115143</ele><time>2022-01-15T12:16:15Z</time><extensions><speed>0.230161</speed><course>126.798058</course><hAcc>1.739882</hAcc><vAcc>0.769988</vAcc></extensions></trkpt>
      <trkpt lon="-3.045007" lat="52.722861"><ele>361.111053</ele><time>2022-01-15T12:16:16Z</time><extensions><speed>0.254822</speed><course>132.415955</course><hAcc>1.719496</hAcc><vAcc>0.767559</vAcc></extensions></trkpt>
      <trkpt lon="-3.045004" lat="52.722860"><ele>361.116119</ele><time>2022-01-15T12:16:17Z</time><extensions><speed>0.257882</speed><course>141.883972</course><hAcc>1.739708</hAcc><vAcc>0.764921</vAcc></extensions></trkpt>
      <trkpt lon="-3.045003" lat="52.722858"><ele>361.132660</ele><time>2022-01-15T12:16:18Z</time><extensions><speed>0.086800</speed><course>139.478226</course><hAcc>1.780651</hAcc><vAcc>0.762139</vAcc></extensions></trkpt>
      <trkpt lon="-3.045003" lat="52.722858"><ele>361.165894</ele><time>2022-01-15T12:16:19Z</time><extensions><speed>0.034392</speed><course>178.208588</course><hAcc>1.760688</hAcc><vAcc>0.759350</vAcc></extensions></trkpt>
      <trkpt lon="-3.045003" lat="52.722858"><ele>361.198395</ele><time>2022-01-15T12:16:20Z</time><extensions><speed>0.063979</speed><course>252.445084</course><hAcc>1.730522</hAcc><vAcc>0.756615</vAcc></extensions></trkpt>
      <trkpt lon="-3.045005" lat="52.722858"><ele>361.234650</ele><time>2022-01-15T12:16:21Z</time><extensions><speed>0.110875</speed><course>266.015503</course><hAcc>1.731363</hAcc><vAcc>0.754052</vAcc></extensions></trkpt>
      <trkpt lon="-3.045007" lat="52.722858"><ele>361.285919</ele><time>2022-01-15T12:16:22Z</time><extensions><speed>0.146762</speed><course>270.441681</course><hAcc>1.749267</hAcc><vAcc>0.751697</vAcc></extensions></trkpt>
      <trkpt lon="-3.045009" lat="52.722858"><ele>361.337189</ele><time>2022-01-15T12:16:23Z</time><extensions><speed>0.176006</speed><course>273.252899</course><hAcc>1.768823</hAcc><vAcc>0.749629</vAcc></extensions></trkpt>
      <trkpt lon="-3.045012" lat="52.722858"><ele>361.389404</ele><time>2022-01-15T12:16:24Z</time><extensions><speed>0.213146</speed><course>275.212219</course><hAcc>1.784028</hAcc><vAcc>0.747793</vAcc></extensions></trkpt>
      <trkpt lon="-3.045016" lat="52.722858"><ele>361.433197</ele><time>2022-01-15T12:16:25Z</time><extensions><speed>0.261731</speed><course>276.331390</course><hAcc>1.796299</hAcc><vAcc>0.746203</vAcc></extensions></trkpt>
      <trkpt lon="-3.045020" lat="52.722858"><ele>361.478180</ele><time>2022-01-15T12:16:26Z</time><extensions><speed>0.337175</speed><course>276.847748</course><hAcc>1.800206</hAcc><vAcc>0.744738</vAcc></extensions></trkpt>
      <trkpt lon="-3.045026" lat="52.722859"><ele>361.528412</ele><time>2022-01-15T12:16:27Z</time><extensions><speed>0.422774</speed><course>277.082428</course><hAcc>1.798477</hAcc><vAcc>0.743451</vAcc></extensions></trkpt>
      <trkpt lon="-3.045032" lat="52.722859"><ele>361.565826</ele><time>2022-01-15T12:16:28Z</time><extensions><speed>0.479243</speed><course>277.107086</course><hAcc>1.792659</hAcc><vAcc>0.742234</vAcc></extensions></trkpt>
      <trkpt lon="-3.045039" lat="52.722860"><ele>361.603699</ele><time>2022-01-15T12:16:29Z</time><extensions><speed>0.459330</speed><course>277.581390</course><hAcc>1.792775</hAcc><vAcc>0.741219</vAcc></extensions></trkpt>
      <trkpt lon="-3.045046" lat="52.722860"><ele>361.625000</ele><time>2022-01-15T12:16:30Z</time><extensions><speed>0.411611</speed><course>279.120087</course><hAcc>1.795730</hAcc><vAcc>0.740212</vAcc></extensions></trkpt>
      <trkpt lon="-3.045051" lat="52.722861"><ele>361.654083</ele><time>2022-01-15T12:16:31Z</time><extensions><speed>0.339200</speed><course>281.205841</course><hAcc>1.811782</hAcc><vAcc>0.739271</vAcc></extensions></trkpt>
      <trkpt lon="-3.045055" lat="52.722861"><ele>361.670593</ele><time>2022-01-15T12:16:32Z</time><extensions><speed>0.237814</speed><course>281.340057</course><hAcc>1.837215</hAcc><vAcc>0.738352</vAcc></extensions></trkpt>
      <trkpt lon="-3.045059" lat="52.722862"><ele>361.691895</ele><time>2022-01-15T12:16:33Z</time><extensions><speed>0.209408</speed><course>277.394562</course><hAcc>1.824698</hAcc><vAcc>0.737495</vAcc></extensions></trkpt>
      <trkpt lon="-3.045061" lat="52.722862"><ele>361.705627</ele><time>2022-01-15T12:16:34Z</time><extensions><speed>0.164896</speed><course>269.857513</course><hAcc>1.823099</hAcc><vAcc>0.736810</vAcc></extensions></trkpt>
      <trkpt lon="-3.045064" lat="52.722862"><ele>361.714539</ele><time>2022-01-15T12:16:35Z</time><extensions><speed>0.123016</speed><course>259.814087</course><hAcc>1.832916</hAcc><vAcc>0.736388</vAcc></extensions></trkpt>
      <trkpt lon="-3.045065" lat="52.722862"><ele>361.719177</ele><time>2022-01-15T12:16:36Z</time><extensions><speed>0.093915</speed><course>251.436707</course><hAcc>1.838598</hAcc><vAcc>0.736309</vAcc></extensions></trkpt>
      <trkpt lon="-3.045066" lat="52.722861"><ele>361.720947</ele><time>2022-01-15T12:16:37Z</time><extensions><speed>0.074451</speed><course>248.422028</course><hAcc>1.844551</hAcc><vAcc>0.736684</vAcc></extensions></trkpt>
      <trkpt lon="-3.045067" lat="52.722861"><ele>361.720581</ele><time>2022-01-15T12:16:38Z</time><extensions><speed>0.068115</speed><course>254.758865</course><hAcc>1.853042</hAcc><vAcc>0.737575</vAcc></extensions></trkpt>
      <trkpt lon="-3.045068" lat="52.722861"><ele>361.717438</ele><time>2022-01-15T12:16:39Z</time><extensions><speed>0.073388</speed><course>268.216095</course><hAcc>1.853329</hAcc><vAcc>0.739039</vAcc></extensions></trkpt>
      <trkpt lon="-3.045070" lat="52.722861"><ele>361.711731</ele><time>2022-01-15T12:16:40Z</time><extensions><speed>0.082914</speed><course>281.103821</course><hAcc>1.847562</hAcc><vAcc>0.741084</vAcc></extensions></trkpt>
      <trkpt lon="-3.045071" lat="52.722861"><ele>361.706940</ele><time>2022-01-15T12:16:41Z</time><extensions><speed>0.094599</speed><course>289.734680</course><hAcc>1.842812</hAcc><vAcc>0.743624</vAcc></extensions></trkpt>
      <trkpt lon="-3.045072" lat="52.722862"><ele>361.701385</ele><time>2022-01-15T12:16:42Z</time><extensions><speed>0.104369</speed><course>295.569183</course><hAcc>1.841376</hAcc><vAcc>0.746547</vAcc></extensions></trkpt>
      <trkpt lon="-3.045074" lat="52.722862"><ele>361.695435</ele><time>2022-01-15T12:16:43Z</time><extensions><speed>0.114413</speed><course>299.831879</course><hAcc>1.833393</hAcc><vAcc>0.749829</vAcc></extensions></trkpt>
      <trkpt lon="-3.045075" lat="52.722863"><ele>361.688965</ele><time>2022-01-15T12:16:44Z</time><extensions><speed>0.113577</speed><course>302.232513</course><hAcc>1.825928</hAcc><vAcc>0.753331</vAcc></extensions></trkpt>
      <trkpt lon="-3.045076" lat="52.722863"><ele>361.682617</ele><time>2022-01-15T12:16:45Z</time><extensions><speed>0.101455</speed><course>305.259613</course><hAcc>1.819761</hAcc><vAcc>0.756814</vAcc></extensions></trkpt>
      <trkpt lon="-3.045077" lat="52.722864"><ele>361.681183</ele><time>2022-01-15T12:16:46Z</time><extensions><speed>0.080453</speed><course>310.333679</course><hAcc>1.813009</hAcc><vAcc>0.759966</vAcc></extensions></trkpt>
      <trkpt lon="-3.045078" lat="52.722864"><ele>361.673218</ele><time>2022-01-15T12:16:47Z</time><extensions><speed>0.053852</speed><course>319.451996</course><hAcc>1.809860</hAcc><vAcc>0.762970</vAcc></extensions></trkpt>
      <trkpt lon="-3.045078" lat="52.722864"><ele>361.669525</ele><time>2022-01-15T12:16:48Z</time><extensions><speed>0.029314</speed><course>334.539978</course><hAcc>1.809891</hAcc><vAcc>0.765430</vAcc></extensions></trkpt>
      <trkpt lon="-3.045079" lat="52.722865"><ele>361.656952</ele><time>2022-01-15T12:16:49Z</time><extensions><speed>0.006966</speed><course>347.375641</course><hAcc>1.807568</hAcc><vAcc>0.767186</vAcc></extensions></trkpt>
      <trkpt lon="-3.045079" lat="52.722864"><ele>361.655365</ele><time>2022-01-15T12:16:50Z</time><extensions><speed>0.010037</speed><course>176.690292</course><hAcc>1.808376</hAcc><vAcc>0.768139</vAcc></extensions></trkpt>
      <trkpt lon="-3.045079" lat="52.722864"><ele>361.650909</ele><time>2022-01-15T12:16:51Z</time><extensions><speed>0.017890</speed><course>172.106903</course><hAcc>1.813496</hAcc><vAcc>0.768293</vAcc></extensions></trkpt>
      <trkpt lon="-3.045079" lat="52.722864"><ele>361.652985</ele><time>2022-01-15T12:16:52Z</time><extensions><speed>0.024421</speed><course>157.875717</course><hAcc>1.817913</hAcc><vAcc>0.767866</vAcc></extensions></trkpt>
      <trkpt lon="-3.045078" lat="52.722864"><ele>361.650116</ele><time>2022-01-15T12:16:53Z</time><extensions><speed>0.035297</speed><course>144.025894</course><hAcc>1.820813</hAcc><vAcc>0.766911</vAcc></extensions></trkpt>
      <trkpt lon="-3.045078" lat="52.722864"><ele>361.646484</ele><time>2022-01-15T12:16:54Z</time><extensions><speed>0.049141</speed><course>139.026108</course><hAcc>1.827425</hAcc><vAcc>0.765607</vAcc></extensions></trkpt>
      <trkpt lon="-3.045077" lat="52.722863"><ele>361.715057</ele><time>2022-01-15T12:16:55Z</time><extensions><speed>0.062211</speed><course>140.893555</course><hAcc>1.834328</hAcc><vAcc>0.763904</vAcc></extensions></trkpt>
      <trkpt lon="-3.045077" lat="52.722863"><ele>361.786560</ele><time>2022-01-15T12:16:56Z</time><extensions><speed>0.074278</speed><course>148.607147</course><hAcc>1.833741</hAcc><vAcc>0.761793</vAcc></extensions></trkpt>
      <trkpt lon="-3.045076" lat="52.722862"><ele>361.869049</ele><time>2022-01-15T12:16:57Z</time><extensions><speed>0.077978</speed><course>159.495773</course><hAcc>1.835220</hAcc><vAcc>0.759236</vAcc></extensions></trkpt>
      <trkpt lon="-3.045076" lat="52.722862"><ele>361.949707</ele><time>2022-01-15T12:16:58Z</time><extensions><speed>0.073147</speed><course>166.380646</course><hAcc>1.835514</hAcc><vAcc>0.756477</vAcc></extensions></trkpt>
      <trkpt lon="-3.045076" lat="52.722861"><ele>362.039215</ele><time>2022-01-15T12:16:59Z</time><extensions><speed>0.060173</speed><course>165.780548</course><hAcc>1.835639</hAcc><vAcc>0.753550</vAcc></extensions></trkpt>
      <trkpt lon="-3.045075" lat="52.722861"><ele>362.137299</ele><time>2022-01-15T12:17:00Z</time><extensions><speed>0.046934</speed><course>150.234772</course><hAcc>1.832658</hAcc><vAcc>0.750388</vAcc></extensions></trkpt>
      <trkpt lon="-3.045075" lat="52.722860"><ele>362.227539</ele><time>2022-01-15T12:17:01Z</time><extensions><speed>0.041905</speed><course>112.313438</course><hAcc>1.834400</hAcc><vAcc>0.747115</vAcc></extensions></trkpt>
      <trkpt lon="-3.045074" lat="52.722860"><ele>362.320038</ele><time>2022-01-15T12:17:02Z</time><extensions><speed>0.060954</speed><course>76.902466</course><hAcc>1.829211</hAcc><vAcc>0.743677</vAcc></extensions></trkpt>
      <trkpt lon="-3.045073" lat="52.722860"><ele>362.413147</ele><time>2022-01-15T12:17:03Z</time><extensions><speed>0.094584</speed><course>63.121048</course><hAcc>1.809436</hAcc><vAcc>0.740154</vAcc></extensions></trkpt>
      <trkpt lon="-3.045072" lat="52.722861"><ele>362.496765</ele><time>2022-01-15T12:17:04Z</time><extensions><speed>0.129723</speed><course>61.359173</course><hAcc>1.773095</hAcc><vAcc>0.736571</vAcc></extensions></trkpt>
      <trkpt lon="-3.045070" lat="52.722861"><ele>362.570618</ele><time>2022-01-15T12:17:05Z</time><extensions><speed>0.138239</speed><course>67.096344</course><hAcc>1.736829</hAcc><vAcc>0.732966</vAcc></extensions></trkpt>
      <trkpt lon="-3.045068" lat="52.722861"><ele>362.661499</ele><time>2022-01-15T12:17:06Z</time><extensions><speed>0.115273</speed><course>77.365395</course><hAcc>1.720617</hAcc><vAcc>0.729419</vAcc></extensions></trkpt>
      <trkpt lon="-3.045066" lat="52.722862"><ele>362.690491</ele><time>2022-01-15T12:17:07Z</time><extensions><speed>0.132511</speed><course>81.182037</course><hAcc>1.701469</hAcc><vAcc>0.726001</vAcc></extensions></trkpt>
      <trkpt lon="-3.045065" lat="52.722862"><ele>362.715240</ele><time>2022-01-15T12:17:08Z</time><extensions><speed>0.038716</speed><course>120.816765</course><hAcc>1.746019</hAcc><vAcc>0.722704</vAcc></extensions></trkpt>
      <trkpt lon="-3.045064" lat="52.722861"><ele>362.716797</ele><time>2022-01-15T12:17:09Z</time><extensions><speed>0.052156</speed><course>164.466751</course><hAcc>1.735169</hAcc><vAcc>0.719513</vAcc></extensions></trkpt>
      <trkpt lon="-3.045064" lat="52.722861"><ele>362.700867</ele><time>2022-01-15T12:17:10Z</time><extensions><speed>0.106902</speed><course>172.444946</course><hAcc>1.690065</hAcc><vAcc>0.716374</vAcc></extensions></trkpt>
      <trkpt lon="-3.045064" lat="52.722859"><ele>362.669098</ele><time>2022-01-15T12:17:11Z</time><extensions><speed>0.137926</speed><course>171.497635</course><hAcc>1.676623</hAcc><vAcc>0.713149</vAcc></extensions></trkpt>
      <trkpt lon="-3.045064" lat="52.722858"><ele>362.623718</ele><time>2022-01-15T12:17:12Z</time><extensions><speed>0.136962</speed><course>166.927872</course><hAcc>1.700850</hAcc><vAcc>0.709640</vAcc></extensions></trkpt>
      <trkpt lon="-3.045063" lat="52.722857"><ele>362.561554</ele><time>2022-01-15T12:17:13Z</time><extensions><speed>0.129721</speed><course>160.767868</course><hAcc>1.731107</hAcc><vAcc>0.705590</vAcc></extensions></trkpt>
      <trkpt lon="-3.045062" lat="52.722856"><ele>362.501984</ele><time>2022-01-15T12:17:14Z</time><extensions><speed>0.110951</speed><course>152.816833</course><hAcc>1.757194</hAcc><vAcc>0.700857</vAcc></extensions></trkpt>
      <trkpt lon="-3.045061" lat="52.722855"><ele>362.435242</ele><time>2022-01-15T12:17:15Z</time><extensions><speed>0.090786</speed><course>139.588638</course><hAcc>1.770116</hAcc><vAcc>0.695529</vAcc></extensions></trkpt>
      <trkpt lon="-3.045060" lat="52.722855"><ele>362.362305</ele><time>2022-01-15T12:17:16Z</time><extensions><speed>0.069402</speed><course>119.042267</course><hAcc>1.788381</hAcc><vAcc>0.689510</vAcc></extensions></trkpt>
      <trkpt lon="-3.045060" lat="52.722855"><ele>362.286835</ele><time>2022-01-15T12:17:17Z</time><extensions><speed>0.061914</speed><course>85.575066</course><hAcc>1.812191</hAcc><vAcc>0.682885</vAcc></extensions></trkpt>
      <trkpt lon="-3.045059" lat="52.722855"><ele>362.212097</ele><time>2022-01-15T12:17:18Z</time><extensions><speed>0.080144</speed><course>57.602470</course><hAcc>1.828896</hAcc><vAcc>0.675829</vAcc></extensions></trkpt>
      <trkpt lon="-3.045058" lat="52.722856"><ele>362.140503</ele><time>2022-01-15T12:17:19Z</time><extensions><speed>0.095238</speed><course>42.925003</course><hAcc>1.852260</hAcc><vAcc>0.668578</vAcc></extensions></trkpt>
      <trkpt lon="-3.045057" lat="52.722856"><ele>362.073608</ele><time>2022-01-15T12:17:20Z</time><extensions><speed>0.115729</speed><course>35.015022</course><hAcc>1.871992</hAcc><vAcc>0.661392</vAcc></extensions></trkpt>
      <trkpt lon="-3.045056" lat="52.722857"><ele>362.012665</ele><time>2022-01-15T12:17:21Z</time><extensions><speed>0.137332</speed><course>30.982689</course><hAcc>1.892750</hAcc><vAcc>0.654496</vAcc></extensions></trkpt>
      <trkpt lon="-3.045054" lat="52.722859"><ele>361.958252</ele><time>2022-01-15T12:17:22Z</time><extensions><speed>0.167348</speed><course>29.719440</course><hAcc>1.903274</hAcc><vAcc>0.648077</vAcc></extensions></trkpt>
      <trkpt lon="-3.045053" lat="52.722860"><ele>361.914459</ele><time>2022-01-15T12:17:23Z</time><extensions><speed>0.203266</speed><course>31.712610</course><hAcc>1.899043</hAcc><vAcc>0.642286</vAcc></extensions></trkpt>
      <trkpt lon="-3.045051" lat="52.722862"><ele>361.878967</ele><time>2022-01-15T12:17:24Z</time><extensions><speed>0.216310</speed><course>34.071285</course><hAcc>1.889918</hAcc><vAcc>0.637194</vAcc></extensions></trkpt>
      <trkpt lon="-3.045049" lat="52.722863"><ele>361.851135</ele><time>2022-01-15T12:17:25Z</time><extensions><speed>0.191813</speed><course>36.014111</course><hAcc>1.888980</hAcc><vAcc>0.632667</vAcc></extensions></trkpt>
      <trkpt lon="-3.045048" lat="52.722865"><ele>361.830322</ele><time>2022-01-15T12:17:26Z</time><extensions><speed>0.159314</speed><course>38.390724</course><hAcc>1.890732</hAcc><vAcc>0.628441</vAcc></extensions></trkpt>
      <trkpt lon="-3.045046" lat="52.722866"><ele>361.812378</ele><time>2022-01-15T12:17:27Z</time><extensions><speed>0.131499</speed><course>42.890671</course><hAcc>1.896170</hAcc><vAcc>0.624256</vAcc></extensions></trkpt>
      <trkpt lon="-3.045045" lat="52.722866"><ele>361.780731</ele><time>2022-01-15T12:17:28Z</time><extensions><speed>0.123982</speed><course>48.964573</course><hAcc>1.899510</hAcc><vAcc>0.619958</vAcc></extensions></trkpt>
      <trkpt lon="-3.045043" lat="52.722867"><ele>361.736908</ele><time>2022-01-15T12:17:29Z</time><extensions><speed>0.130953</speed><course>54.686466</course><hAcc>1.910477</hAcc><vAcc>0.615486</vAcc></extensions></trkpt>
      <trkpt lon="-3.045041" lat="52.722868"><ele>361.672363</ele><time>2022-01-15T12:17:30Z</time><extensions><speed>0.164118</speed><course>60.069199</course><hAcc>1.914414</hAcc><vAcc>0.610830</vAcc></extensions></trkpt>
      <trkpt lon="-3.045038" lat="52.722868"><ele>361.611206</ele><time>2022-01-15T12:17:31Z</time><extensions><speed>0.233985</speed><course>64.825516</course><hAcc>1.903043</hAcc><vAcc>0.606014</vAcc></extensions></trkpt>
      <trkpt lon="-3.045035" lat="52.722869"><ele>361.551941</ele><time>2022-01-15T12:17:32Z</time><extensions><speed>0.292772</speed><course>69.823303</course><hAcc>1.904166</hAcc><vAcc>0.601083</vAcc></extensions></trkpt>
      <trkpt lon="-3.045030" lat="52.722870"><ele>361.506165</ele><time>2022-01-15T12:17:33Z</time><extensions><speed>0.297353</speed><course>77.237152</course><hAcc>1.922047</hAcc><vAcc>0.596054</vAcc></extensions></trkpt>
      <trkpt lon="-3.045026" lat="52.722870"><ele>361.475189</ele><time>2022-01-15T12:17:34Z</time><extensions><speed>0.286941</speed><course>89.641479</course><hAcc>1.929443</hAcc><vAcc>0.590852</vAcc></extensions></trkpt>
      <trkpt lon="-3.045022" lat="52.722870"><ele>361.459900</ele><time>2022-01-15T12:17:35Z</time><extensions><speed>0.290597</speed><course>104.315681</course><hAcc>1.927242</hAcc><vAcc>0.585317</vAcc></extensions></trkpt>
      <trkpt lon="-3.045018" lat="52.722869"><ele>361.459747</ele><time>2022-01-15T12:17:36Z</time><extensions><speed>0.300660</speed><course>118.141327</course><hAcc>1.931284</hAcc><vAcc>0.579199</vAcc></extensions></trkpt>
      <trkpt lon="-3.045014" lat="52.722867"><ele>361.462982</ele><time>2022-01-15T12:17:37Z</time><extensions><speed>0.285335</speed><course>130.406647</course><hAcc>1.942614</hAcc><vAcc>0.572246</vAcc></extensions></trkpt>
      <trkpt lon="-3.045011" lat="52.722865"><ele>361.483765</ele><time>2022-01-15T12:17:38Z</time><extensions><speed>0.329065</speed><course>140.880463</course><hAcc>1.920383</hAcc><vAcc>0.564303</vAcc></extensions></trkpt>
      <trkpt lon="-3.045008" lat="52.722863"><ele>361.525421</ele><time>2022-01-15T12:17:39Z</time><extensions><speed>0.397523</speed><course>149.401886</course><hAcc>1.891047</hAcc><vAcc>0.555410</vAcc></extensions></trkpt>
      <trkpt lon="-3.045005" lat="52.722860"><ele>361.592255</ele><time>2022-01-15T12:17:40Z</time><extensions><speed>0.367748</speed><course>152.048828</course><hAcc>1.895789</hAcc><vAcc>0.545839</vAcc></extensions></trkpt>
      <trkpt lon="-3.045002" lat="52.722858"><ele>361.683472</ele><time>2022-01-15T12:17:41Z</time><extensions><speed>0.211069</speed><course>137.466095</course><hAcc>1.932069</hAcc><vAcc>0.536007</vAcc></extensions></trkpt>
      <trkpt lon="-3.045000" lat="52.722856"><ele>361.783691</ele><time>2022-01-15T12:17:42Z</time><extensions><speed>0.136063</speed><course>120.309486</course><hAcc>1.939459</hAcc><vAcc>0.526216</vAcc></extensions></trkpt>
      <trkpt lon="-3.044999" lat="52.722856"><ele>361.889709</ele><time>2022-01-15T12:17:43Z</time><extensions><speed>0.131406</speed><course>107.068794</course><hAcc>1.894872</hAcc><vAcc>0.516516</vAcc></extensions></trkpt>
      <trkpt lon="-3.044997" lat="52.722855"><ele>361.994720</ele><time>2022-01-15T12:17:44Z</time><extensions><speed>0.104196</speed><course>97.176826</course><hAcc>1.880770</hAcc><vAcc>0.506650</vAcc></extensions></trkpt>
      <trkpt lon="-3.044995" lat="52.722855"><ele>362.088348</ele><time>2022-01-15T12:17:45Z</time><extensions><speed>0.092076</speed><course>75.228287</course><hAcc>1.909478</hAcc><vAcc>0.496087</vAcc></extensions></trkpt>
      <trkpt lon="-3.044994" lat="52.722855"><ele>362.158752</ele><time>2022-01-15T12:17:46Z</time><extensions><speed>0.059004</speed><course>120.380615</course><hAcc>1.976228</hAcc><vAcc>0.484515</vAcc></extensions></trkpt>
      <trkpt lon="-3.044993" lat="52.722854"><ele>362.212585</ele><time>2022-01-15T12:17:47Z</time><extensions><speed>0.163150</speed><course>137.805084</course><hAcc>1.933170</hAcc><vAcc>0.472129</vAcc></extensions></trkpt>
      <trkpt lon="-3.044991" lat="52.722853"><ele>362.249481</ele><time>2022-01-15T12:17:48Z</time><extensions><speed>0.253385</speed><course>143.972977</course><hAcc>1.917141</hAcc><vAcc>0.458869</vAcc></extensions></trkpt>
      <trkpt lon="-3.044989" lat="52.722851"><ele>362.271362</ele><time>2022-01-15T12:17:49Z</time><extensions><speed>0.330305</speed><course>148.928970</course><hAcc>1.950979</hAcc><vAcc>0.445019</vAcc></extensions></trkpt>
      <trkpt lon="-3.044986" lat="52.722848"><ele>362.288025</ele><time>2022-01-15T12:17:50Z</time><extensions><speed>0.363385</speed><course>153.019272</course><hAcc>2.014437</hAcc><vAcc>0.431372</vAcc></extensions></trkpt>
      <trkpt lon="-3.044984" lat="52.722845"><ele>362.279633</ele><time>2022-01-15T12:17:51Z</time><extensions><speed>0.356179</speed><course>155.522003</course><hAcc>2.062626</hAcc><vAcc>0.418885</vAcc></extensions></trkpt>
      <trkpt lon="-3.044982" lat="52.722842"><ele>362.265503</ele><time>2022-01-15T12:17:52Z</time><extensions><speed>0.426095</speed><course>156.386719</course><hAcc>2.058619</hAcc><vAcc>0.408443</vAcc></extensions></trkpt>
      <trkpt lon="-3.044979" lat="52.722839"><ele>362.247406</ele><time>2022-01-15T12:17:53Z</time><extensions><speed>0.377455</speed><course>156.625031</course><hAcc>2.073694</hAcc><vAcc>0.400892</vAcc></extensions></trkpt>
      <trkpt lon="-3.044977" lat="52.722836"><ele>362.227905</ele><time>2022-01-15T12:17:54Z</time><extensions><speed>0.304830</speed><course>157.766068</course><hAcc>2.089172</hAcc><vAcc>0.396406</vAcc></extensions></trkpt>
      <trkpt lon="-3.044976" lat="52.722834"><ele>362.206482</ele><time>2022-01-15T12:17:55Z</time><extensions><speed>0.200378</speed><course>159.661087</course><hAcc>2.100746</hAcc><vAcc>0.394848</vAcc></extensions></trkpt>
      <trkpt lon="-3.044975" lat="52.722833"><ele>362.188324</ele><time>2022-01-15T12:17:56Z</time><extensions><speed>0.081374</speed><course>156.206329</course><hAcc>2.107624</hAcc><vAcc>0.395868</vAcc></extensions></trkpt>
      <trkpt lon="-3.044974" lat="52.722833"><ele>362.173706</ele><time>2022-01-15T12:17:57Z</time><extensions><speed>0.040710</speed><course>12.106663</course><hAcc>2.107909</hAcc><vAcc>0.398825</vAcc></extensions></trkpt>
      <trkpt lon="-3.044974" lat="52.722834"><ele>362.164490</ele><time>2022-01-15T12:17:58Z</time><extensions><speed>0.138066</speed><course>1.159488</course><hAcc>2.103264</hAcc><vAcc>0.403232</vAcc></extensions></trkpt>
      <trkpt lon="-3.044974" lat="52.722835"><ele>362.154144</ele><time>2022-01-15T12:17:59Z</time><extensions><speed>0.207701</speed><course>8.387714</course><hAcc>2.109537</hAcc><vAcc>0.409022</vAcc></extensions></trkpt>
      <trkpt lon="-3.044973" lat="52.722837"><ele>362.143768</ele><time>2022-01-15T12:18:00Z</time><extensions><speed>0.256865</speed><course>20.489319</course><hAcc>2.125173</hAcc><vAcc>0.416652</vAcc></extensions></trkpt>
      <trkpt lon="-3.044971" lat="52.722839"><ele>362.132080</ele><time>2022-01-15T12:18:01Z</time><extensions><speed>0.331969</speed><course>33.226517</course><hAcc>2.127306</hAcc><vAcc>0.426910</vAcc></extensions></trkpt>
      <trkpt lon="-3.044967" lat="52.722842"><ele>362.117462</ele><time>2022-01-15T12:18:02Z</time><extensions><speed>0.427373</speed><course>41.938858</course><hAcc>2.117505</hAcc><vAcc>0.440593</vAcc></extensions></trkpt>
      <trkpt lon="-3.044962" lat="52.722845"><ele>362.095764</ele><time>2022-01-15T12:18:03Z</time><extensions><speed>0.539247</speed><course>47.028740</course><hAcc>2.098008</hAcc><vAcc>0.458237</vAcc></extensions></trkpt>
      <trkpt lon="-3.044957" lat="52.722848"><ele>362.074738</ele><time>2022-01-15T12:18:04Z</time><extensions><speed>0.500642</speed><course>43.809734</course><hAcc>2.085569</hAcc><vAcc>0.479913</vAcc></extensions></trkpt>
      <trkpt lon="-3.044951" lat="52.722852"><ele>362.048309</ele><time>2022-01-15T12:18:05Z</time><extensions><speed>0.480329</speed><course>44.654430</course><hAcc>2.047208</hAcc><vAcc>0.505068</vAcc></extensions></trkpt>
      <trkpt lon="-3.044946" lat="52.722854"><ele>362.005737</ele><time>2022-01-15T12:18:06Z</time><extensions><speed>0.425294</speed><course>51.448360</course><hAcc>1.992325</hAcc><vAcc>0.532597</vAcc></extensions></trkpt>
      <trkpt lon="-3.044941" lat="52.722856"><ele>361.953308</ele><time>2022-01-15T12:18:07Z</time><extensions><speed>0.356875</speed><course>64.977837</course><hAcc>1.939885</hAcc><vAcc>0.560994</vAcc></extensions></trkpt>
      <trkpt lon="-3.044937" lat="52.722857"><ele>361.894928</ele><time>2022-01-15T12:18:08Z</time><extensions><speed>0.316931</speed><course>80.213844</course><hAcc>1.904647</hAcc><vAcc>0.588669</vAcc></extensions></trkpt>
      <trkpt lon="-3.044933" lat="52.722857"><ele>361.832001</ele><time>2022-01-15T12:18:09Z</time><extensions><speed>0.246879</speed><course>93.010216</course><hAcc>1.906334</hAcc><vAcc>0.614455</vAcc></extensions></trkpt>
      <trkpt lon="-3.044929" lat="52.722857"><ele>361.765533</ele><time>2022-01-15T12:18:10Z</time><extensions><speed>0.213581</speed><course>105.562149</course><hAcc>1.899852</hAcc><vAcc>0.637644</vAcc></extensions></trkpt>
      <trkpt lon="-3.044926" lat="52.722856"><ele>361.696167</ele><time>2022-01-15T12:18:11Z</time><extensions><speed>0.272675</speed><course>115.520866</course><hAcc>1.856951</hAcc><vAcc>0.657917</vAcc></extensions></trkpt>
      <trkpt lon="-3.044922" lat="52.722855"><ele>361.624542</ele><time>2022-01-15T12:18:12Z</time><extensions><speed>0.300526</speed><course>122.091347</course><hAcc>1.840645</hAcc><vAcc>0.675211</vAcc></extensions></trkpt>
      <trkpt lon="-3.044919" lat="52.722853"><ele>361.564819</ele><time>2022-01-15T12:18:13Z</time><extensions><speed>0.291303</speed><course>127.587105</course><hAcc>1.847098</hAcc><vAcc>0.689651</vAcc></extensions></trkpt>
      <trkpt lon="-3.044916" lat="52.722852"><ele>361.506958</ele><time>2022-01-15T12:18:14Z</time><extensions><speed>0.253047</speed><course>136.051895</course><hAcc>1.850811</hAcc><vAcc>0.701482</vAcc></extensions></trkpt>
      <trkpt lon="-3.044914" lat="52.722850"><ele>361.451660</ele><time>2022-01-15T12:18:15Z</time><extensions><speed>0.200721</speed><course>152.474487</course><hAcc>1.852596</hAcc><vAcc>0.711132</vAcc></extensions></trkpt>
      <trkpt lon="-3.044913" lat="52.722848"><ele>361.400391</ele><time>2022-01-15T12:18:16Z</time><extensions><speed>0.156490</speed><course>175.057449</course><hAcc>1.856957</hAcc><vAcc>0.718971</vAcc></extensions></trkpt>
      <trkpt lon="-3.044913" lat="52.722847"><ele>361.356628</ele><time>2022-01-15T12:18:17Z</time><extensions><speed>0.137807</speed><course>193.398026</course><hAcc>1.854270</hAcc><vAcc>0.725243</vAcc></extensions></trkpt>
      <trkpt lon="-3.044914" lat="52.722846"><ele>361.322906</ele><time>2022-01-15T12:18:18Z</time><extensions><speed>0.133571</speed><course>199.936295</course><hAcc>1.842621</hAcc><vAcc>0.730206</vAcc></extensions></trkpt>
      <trkpt lon="-3.044914" lat="52.722845"><ele>361.301422</ele><time>2022-01-15T12:18:19Z</time><extensions><speed>0.136410</speed><course>199.058029</course><hAcc>1.829852</hAcc><vAcc>0.733956</vAcc></extensions></trkpt>
      <trkpt lon="-3.044915" lat="52.722844"><ele>361.291199</ele><time>2022-01-15T12:18:20Z</time><extensions><speed>0.147572</speed><course>195.752914</course><hAcc>1.818245</hAcc><vAcc>0.736526</vAcc></extensions></trkpt>
      <trkpt lon="-3.044916" lat="52.722842"><ele>361.290588</ele><time>2022-01-15T12:18:21Z</time><extensions><speed>0.166918</speed><course>193.139420</course><hAcc>1.808749</hAcc><vAcc>0.738144</vAcc></extensions></trkpt>
      <trkpt lon="-3.044916" lat="52.722841"><ele>361.299011</ele><time>2022-01-15T12:18:22Z</time><extensions><speed>0.175292</speed><course>192.988007</course><hAcc>1.815877</hAcc><vAcc>0.738898</vAcc></extensions></trkpt>
      <trkpt lon="-3.044917" lat="52.722839"><ele>361.315460</ele><time>2022-01-15T12:18:23Z</time><extensions><speed>0.141921</speed><course>198.869629</course><hAcc>1.833213</hAcc><vAcc>0.738822</vAcc></extensions></trkpt>
      <trkpt lon="-3.044918" lat="52.722838"><ele>361.338501</ele><time>2022-01-15T12:18:24Z</time><extensions><speed>0.141848</speed><course>214.533585</course><hAcc>1.806741</hAcc><vAcc>0.737960</vAcc></extensions></trkpt>
      <trkpt lon="-3.044919" lat="52.722837"><ele>361.366730</ele><time>2022-01-15T12:18:25Z</time><extensions><speed>0.131512</speed><course>237.654968</course><hAcc>1.799523</hAcc><vAcc>0.736365</vAcc></extensions></trkpt>
      <trkpt lon="-3.044921" lat="52.722837"><ele>361.398804</ele><time>2022-01-15T12:18:26Z</time><extensions><speed>0.135944</speed><course>261.666504</course><hAcc>1.813072</hAcc><vAcc>0.734055</vAcc></extensions></trkpt>
      <trkpt lon="-3.044923" lat="52.722837"><ele>361.428070</ele><time>2022-01-15T12:18:27Z</time><extensions><speed>0.134669</speed><course>279.517456</course><hAcc>1.834623</hAcc><vAcc>0.730926</vAcc></extensions></trkpt>
      <trkpt lon="-3.044925" lat="52.722837"><ele>361.461517</ele><time>2022-01-15T12:18:28Z</time><extensions><speed>0.120040</speed><course>293.219666</course><hAcc>1.849577</hAcc><vAcc>0.726984</vAcc></extensions></trkpt>
      <trkpt lon="-3.044926" lat="52.722838"><ele>361.492645</ele><time>2022-01-15T12:18:29Z</time><extensions><speed>0.110734</speed><course>302.408508</course><hAcc>1.848866</hAcc><vAcc>0.722515</vAcc></extensions></trkpt>
      <trkpt lon="-3.044928" lat="52.722838"><ele>361.521973</ele><time>2022-01-15T12:18:30Z</time><extensions><speed>0.092506</speed><course>306.920624</course><hAcc>1.855298</hAcc><vAcc>0.717550</vAcc></extensions></trkpt>
      <trkpt lon="-3.044929" lat="52.722839"><ele>361.548615</ele><time>2022-01-15T12:18:31Z</time><extensions><speed>0.067872</speed><course>307.988678</course><hAcc>1.869362</hAcc><vAcc>0.712253</vAcc></extensions></trkpt>
      <trkpt lon="-3.044929" lat="52.722839"><ele>361.571960</ele><time>2022-01-15T12:18:32Z</time><extensions><speed>0.044680</speed><course>305.158417</course><hAcc>1.882243</hAcc><vAcc>0.706749</vAcc></extensions></trkpt>
      <trkpt lon="-3.044930" lat="52.722839"><ele>361.591614</ele><time>2022-01-15T12:18:33Z</time><extensions><speed>0.026478</speed><course>293.692413</course><hAcc>1.889032</hAcc><vAcc>0.701159</vAcc></extensions></trkpt>
      <trkpt lon="-3.044930" lat="52.722839"><ele>361.607483</ele><time>2022-01-15T12:18:34Z</time><extensions><speed>0.016287</speed><course>260.685486</course><hAcc>1.889947</hAcc><vAcc>0.695592</vAcc></extensions></trkpt>
      <trkpt lon="-3.044930" lat="52.722839"><ele>361.619659</ele><time>2022-01-15T12:18:35Z</time><extensions><speed>0.017151</speed><course>218.380280</course><hAcc>1.888146</hAcc><vAcc>0.690174</vAcc></extensions></trkpt>
      <trkpt lon="-3.044930" lat="52.722839"><ele>361.628326</ele><time>2022-01-15T12:18:36Z</time><extensions><speed>0.021353</speed><course>200.204636</course><hAcc>1.879032</hAcc><vAcc>0.685037</vAcc></extensions></trkpt>
      <trkpt lon="-3.044930" lat="52.722839"><ele>361.633972</ele><time>2022-01-15T12:18:37Z</time><extensions><speed>0.018597</speed><course>196.738129</course><hAcc>1.862172</hAcc><vAcc>0.680314</vAcc></extensions></trkpt>
      <trkpt lon="-3.044930" lat="52.722839"><ele>361.637085</ele><time>2022-01-15T12:18:38Z</time><extensions><speed>0.011267</speed><course>201.127472</course><hAcc>1.848518</hAcc><vAcc>0.676100</vAcc></extensions></trkpt>
      <trkpt lon="-3.044931" lat="52.722839"><ele>361.638123</ele><time>2022-01-15T12:18:39Z</time><extensions><speed>0.005736</speed><course>209.111237</course><hAcc>1.850853</hAcc><vAcc>0.672470</vAcc></extensions></trkpt>
      <trkpt lon="-3.044931" lat="52.722839"><ele>361.689362</ele><time>2022-01-15T12:18:40Z</time><extensions><speed>0.001870</speed><course>246.306442</course><hAcc>1.843975</hAcc><vAcc>0.669345</vAcc></extensions></trkpt>
      <trkpt lon="-3.044931" lat="52.722839"><ele>361.745483</ele><time>2022-01-15T12:18:41Z</time><extensions><speed>0.003684</speed><course>314.690094</course><hAcc>1.837943</hAcc><vAcc>0.666663</vAcc></extensions></trkpt>
      <trkpt lon="-3.044931" lat="52.722839"><ele>361.815857</ele><time>2022-01-15T12:18:42Z</time><extensions><speed>0.006982</speed><course>324.898438</course><hAcc>1.850956</hAcc><vAcc>0.664314</vAcc></extensions></trkpt>
      <trkpt lon="-3.044931" lat="52.722839"><ele>361.900543</ele><time>2022-01-15T12:18:43Z</time><extensions><speed>0.012501</speed><course>326.758728</course><hAcc>1.861278</hAcc><vAcc>0.662226</vAcc></extensions></trkpt>
      <trkpt lon="-3.044931" lat="52.722839"><ele>362.000000</ele><time>2022-01-15T12:18:44Z</time><extensions><speed>0.027040</speed><course>326.526520</course><hAcc>1.834819</hAcc><vAcc>0.660246</vAcc></extensions></trkpt>
      <trkpt lon="-3.044931" lat="52.722839"><ele>362.113556</ele><time>2022-01-15T12:18:45Z</time><extensions><speed>0.043424</speed><course>325.939392</course><hAcc>1.830999</hAcc><vAcc>0.658344</vAcc></extensions></trkpt>
      <trkpt lon="-3.044932" lat="52.722840"><ele>362.240448</ele><time>2022-01-15T12:18:46Z</time><extensions><speed>0.062970</speed><course>325.310974</course><hAcc>1.839682</hAcc><vAcc>0.656420</vAcc></extensions></trkpt>
      <trkpt lon="-3.044932" lat="52.722840"><ele>362.379181</ele><time>2022-01-15T12:18:47Z</time><extensions><speed>0.085664</speed><course>324.534546</course><hAcc>1.838934</hAcc><vAcc>0.654395</vAcc></extensions></trkpt>
      <trkpt lon="-3.044933" lat="52.722841"><ele>362.508728</ele><time>2022-01-15T12:18:48Z</time><extensions><speed>0.103755</speed><course>325.128357</course><hAcc>1.828503</hAcc><vAcc>0.652228</vAcc></extensions></trkpt>
      <trkpt lon="-3.044934" lat="52.722842"><ele>362.634155</ele><time>2022-01-15T12:18:49Z</time><extensions><speed>0.110066</speed><course>324.145081</course><hAcc>1.819341</hAcc><vAcc>0.649872</vAcc></extensions></trkpt>
      <trkpt lon="-3.044935" lat="52.722842"><ele>362.746307</ele><time>2022-01-15T12:18:50Z</time><extensions><speed>0.109821</speed><course>320.311127</course><hAcc>1.812142</hAcc><vAcc>0.647318</vAcc></extensions></trkpt>
      <trkpt lon="-3.044936" lat="52.722843"><ele>362.840179</ele><time>2022-01-15T12:18:51Z</time><extensions><speed>0.064279</speed><course>316.297791</course><hAcc>1.843340</hAcc><vAcc>0.644609</vAcc></extensions></trkpt>
      <trkpt lon="-3.044936" lat="52.722843"><ele>362.911682</ele><time>2022-01-15T12:18:52Z</time><extensions><speed>0.042464</speed><course>320.062714</course><hAcc>1.843033</hAcc><vAcc>0.641777</vAcc></extensions></trkpt>
      <trkpt lon="-3.044936" lat="52.722844"><ele>362.958252</ele><time>2022-01-15T12:18:53Z</time><extensions><speed>0.017494</speed><course>357.679535</course><hAcc>1.845531</hAcc><vAcc>0.638874</vAcc></extensions></trkpt>
      <trkpt lon="-3.044936" lat="52.722844"><ele>362.978729</ele><time>2022-01-15T12:18:54Z</time><extensions><speed>0.039027</speed><course>80.316299</course><hAcc>1.819598</hAcc><vAcc>0.635949</vAcc></extensions></trkpt>
      <trkpt lon="-3.044935" lat="52.722844"><ele>362.967529</ele><time>2022-01-15T12:18:55Z</time><extensions><speed>0.086968</speed><course>97.191620</course><hAcc>1.824898</hAcc><vAcc>0.633075</vAcc></extensions></trkpt>
      <trkpt lon="-3.044933" lat="52.722843"><ele>362.928772</ele><time>2022-01-15T12:18:56Z</time><extensions><speed>0.139787</speed><course>102.739769</course><hAcc>1.852368</hAcc><vAcc>0.630351</vAcc></extensions></trkpt>
      <trkpt lon="-3.044931" lat="52.722843"><ele>362.869171</ele><time>2022-01-15T12:18:57Z</time><extensions><speed>0.183933</speed><course>107.526505</course><hAcc>1.881131</hAcc><vAcc>0.627806</vAcc></extensions></trkpt>
      <trkpt lon="-3.044928" lat="52.722842"><ele>362.794495</ele><time>2022-01-15T12:18:58Z</time><extensions><speed>0.197035</speed><course>111.350456</course><hAcc>1.895032</hAcc><vAcc>0.625444</vAcc></extensions></trkpt>
      <trkpt lon="-3.044926" lat="52.722842"><ele>362.705750</ele><time>2022-01-15T12:18:59Z</time><extensions><speed>0.193153</speed><course>116.215645</course><hAcc>1.884783</hAcc><vAcc>0.623250</vAcc></extensions></trkpt>
      <trkpt lon="-3.044923" lat="52.722841"><ele>362.604126</ele><time>2022-01-15T12:19:00Z</time><extensions><speed>0.181172</speed><course>124.543777</course><hAcc>1.868678</hAcc><vAcc>0.621213</vAcc></extensions></trkpt>
      <trkpt lon="-3.044921" lat="52.722840"><ele>362.496033</ele><time>2022-01-15T12:19:01Z</time><extensions><speed>0.155971</speed><course>133.812561</course><hAcc>1.864562</hAcc><vAcc>0.619303</vAcc></extensions></trkpt>
      <trkpt lon="-3.044920" lat="52.722839"><ele>362.385468</ele><time>2022-01-15T12:19:02Z</time><extensions><speed>0.143361</speed><course>142.010223</course><hAcc>1.862379</hAcc><vAcc>0.617534</vAcc></extensions></trkpt>
      <trkpt lon="-3.044918" lat="52.722837"><ele>362.275543</ele><time>2022-01-15T12:19:03Z</time><extensions><speed>0.136476</speed><course>148.642731</course><hAcc>1.868171</hAcc><vAcc>0.615986</vAcc></extensions></trkpt>
      <trkpt lon="-3.044917" lat="52.722837"><ele>362.178711</ele><time>2022-01-15T12:19:04Z</time><extensions><speed>0.147434</speed><course>151.286804</course><hAcc>1.864778</hAcc><vAcc>0.614786</vAcc></extensions></trkpt>
      <trkpt lon="-3.044916" lat="52.722835"><ele>362.087952</ele><time>2022-01-15T12:19:05Z</time><extensions><speed>0.180928</speed><course>151.887970</course><hAcc>1.853085</hAcc><vAcc>0.614100</vAcc></extensions></trkpt>
      <trkpt lon="-3.044915" lat="52.722834"><ele>361.999298</ele><time>2022-01-15T12:19:06Z</time><extensions><speed>0.186854</speed><course>150.228882</course><hAcc>1.855775</hAcc><vAcc>0.613993</vAcc></extensions></trkpt>
      <trkpt lon="-3.044913" lat="52.722833"><ele>361.916565</ele><time>2022-01-15T12:19:07Z</time><extensions><speed>0.216664</speed><course>144.081848</course><hAcc>1.829164</hAcc><vAcc>0.614480</vAcc></extensions></trkpt>
      <trkpt lon="-3.044911" lat="52.722831"><ele>361.839600</ele><time>2022-01-15T12:19:08Z</time><extensions><speed>0.205650</speed><course>134.127029</course><hAcc>1.811331</hAcc><vAcc>0.615509</vAcc></extensions></trkpt>
      <trkpt lon="-3.044909" lat="52.722830"><ele>361.768158</ele><time>2022-01-15T12:19:09Z</time><extensions><speed>0.182122</speed><course>124.642136</course><hAcc>1.810141</hAcc><vAcc>0.616977</vAcc></extensions></trkpt>
      <trkpt lon="-3.044907" lat="52.722830"><ele>361.702362</ele><time>2022-01-15T12:19:10Z</time><extensions><speed>0.112688</speed><course>107.980431</course><hAcc>1.828843</hAcc><vAcc>0.618740</vAcc></extensions></trkpt>
      <trkpt lon="-3.044906" lat="52.722830"><ele>361.642334</ele><time>2022-01-15T12:19:11Z</time><extensions><speed>0.095550</speed><course>68.085709</course><hAcc>1.821728</hAcc><vAcc>0.620666</vAcc></extensions></trkpt>
      <trkpt lon="-3.044905" lat="52.722830"><ele>361.587952</ele><time>2022-01-15T12:19:12Z</time><extensions><speed>0.102115</speed><course>28.575495</course><hAcc>1.846973</hAcc><vAcc>0.622672</vAcc></extensions></trkpt>
      <trkpt lon="-3.044904" lat="52.722831"><ele>361.538605</ele><time>2022-01-15T12:19:13Z</time><extensions><speed>0.166230</speed><course>10.798712</course><hAcc>1.838750</hAcc><vAcc>0.624749</vAcc></extensions></trkpt>
      <trkpt lon="-3.044904" lat="52.722833"><ele>361.493347</ele><time>2022-01-15T12:19:14Z</time><extensions><speed>0.238848</speed><course>3.797389</course><hAcc>1.803250</hAcc><vAcc>0.626921</vAcc></extensions></trkpt>
      <trkpt lon="-3.044904" lat="52.722835"><ele>361.451294</ele><time>2022-01-15T12:19:15Z</time><extensions><speed>0.224951</speed><course>358.839050</course><hAcc>1.798704</hAcc><vAcc>0.629213</vAcc></extensions></trkpt>
      <trkpt lon="-3.044904" lat="52.722837"><ele>361.412323</ele><time>2022-01-15T12:19:16Z</time><extensions><speed>0.177657</speed><course>355.121216</course><hAcc>1.816448</hAcc><vAcc>0.631659</vAcc></extensions></trkpt>
      <trkpt lon="-3.044904" lat="52.722838"><ele>361.385071</ele><time>2022-01-15T12:19:17Z</time><extensions><speed>0.128643</speed><course>351.931610</course><hAcc>1.835664</hAcc><vAcc>0.634214</vAcc></extensions></trkpt>
      <trkpt lon="-3.044904" lat="52.722839"><ele>361.371155</ele><time>2022-01-15T12:19:18Z</time><extensions><speed>0.087485</speed><course>348.477051</course><hAcc>1.853448</hAcc><vAcc>0.636791</vAcc></extensions></trkpt>
      <trkpt lon="-3.044905" lat="52.722840"><ele>361.364014</ele><time>2022-01-15T12:19:19Z</time><extensions><speed>0.060400</speed><course>343.569946</course><hAcc>1.862867</hAcc><vAcc>0.639394</vAcc></extensions></trkpt>
      <trkpt lon="-3.044905" lat="52.722840"><ele>361.354340</ele><time>2022-01-15T12:19:20Z</time><extensions><speed>0.040154</speed><course>335.517487</course><hAcc>1.866369</hAcc><vAcc>0.642065</vAcc></extensions></trkpt>
      <trkpt lon="-3.044905" lat="52.722841"><ele>361.347076</ele><time>2022-01-15T12:19:21Z</time><extensions><speed>0.027537</speed><course>320.750153</course><hAcc>1.854583</hAcc><vAcc>0.644720</vAcc></extensions></trkpt>
      <trkpt lon="-3.044905" lat="52.722841"><ele>361.348785</ele><time>2022-01-15T12:19:22Z</time><extensions><speed>0.016836</speed><course>279.733307</course><hAcc>1.859529</hAcc><vAcc>0.647247</vAcc></extensions></trkpt>
      <trkpt lon="-3.044905" lat="52.722840"><ele>361.346069</ele><time>2022-01-15T12:19:23Z</time><extensions><speed>0.024536</speed><course>213.993530</course><hAcc>1.872595</hAcc><vAcc>0.649509</vAcc></extensions></trkpt>
      <trkpt lon="-3.044905" lat="52.722840"><ele>361.348297</ele><time>2022-01-15T12:19:24Z</time><extensions><speed>0.048404</speed><course>186.471695</course><hAcc>1.884045</hAcc><vAcc>0.651435</vAcc></extensions></trkpt>
      <trkpt lon="-3.044905" lat="52.722839"><ele>361.354156</ele><time>2022-01-15T12:19:25Z</time><extensions><speed>0.085001</speed><course>170.335556</course><hAcc>1.890201</hAcc><vAcc>0.652908</vAcc></extensions></trkpt>
      <trkpt lon="-3.044904" lat="52.722838"><ele>361.360870</ele><time>2022-01-15T12:19:26Z</time><extensions><speed>0.134559</speed><course>157.242828</course><hAcc>1.898319</hAcc><vAcc>0.653998</vAcc></extensions></trkpt>
      <trkpt lon="-3.044903" lat="52.722837"><ele>361.367188</ele><time>2022-01-15T12:19:27Z</time><extensions><speed>0.215846</speed><course>143.970032</course><hAcc>1.901262</hAcc><vAcc>0.654653</vAcc></extensions></trkpt>
      <trkpt lon="-3.044900" lat="52.722835"><ele>361.371765</ele><time>2022-01-15T12:19:28Z</time><extensions><speed>0.335251</speed><course>135.179703</course><hAcc>1.900957</hAcc><vAcc>0.654819</vAcc></extensions></trkpt>
      <trkpt lon="-3.044896" lat="52.722833"><ele>361.373779</ele><time>2022-01-15T12:19:29Z</time><extensions><speed>0.464254</speed><course>130.912704</course><hAcc>1.899725</hAcc><vAcc>0.654426</vAcc></extensions></trkpt>
      <trkpt lon="-3.044890" lat="52.722830"><ele>361.373413</ele><time>2022-01-15T12:19:30Z</time><extensions><speed>0.567456</speed><course>128.947113</course><hAcc>1.899595</hAcc><vAcc>0.653302</vAcc></extensions></trkpt>
      <trkpt lon="-3.044883" lat="52.722826"><ele>361.371521</ele><time>2022-01-15T12:19:31Z</time><extensions><speed>0.653636</speed><course>128.792709</course><hAcc>1.900700</hAcc><vAcc>0.651339</vAcc></extensions></trkpt>
      <trkpt lon="-3.044875" lat="52.722823"><ele>361.368958</ele><time>2022-01-15T12:19:32Z</time><extensions><speed>0.682887</speed><course>129.223846</course><hAcc>1.913708</hAcc><vAcc>0.648525</vAcc></extensions></trkpt>
      <trkpt lon="-3.044867" lat="52.722818"><ele>361.370270</ele><time>2022-01-15T12:19:33Z</time><extensions><speed>0.722337</speed><course>128.795059</course><hAcc>1.926485</hAcc><vAcc>0.645021</vAcc></extensions></trkpt>
      <trkpt lon="-3.044858" lat="52.722814"><ele>361.364716</ele><time>2022-01-15T12:19:34Z</time><extensions><speed>0.709369</speed><course>127.863945</course><hAcc>1.938656</hAcc><vAcc>0.641035</vAcc></extensions></trkpt>
      <trkpt lon="-3.044850" lat="52.722810"><ele>361.352631</ele><time>2022-01-15T12:19:35Z</time><extensions><speed>0.675617</speed><course>127.384781</course><hAcc>1.941788</hAcc><vAcc>0.636905</vAcc></extensions></trkpt>
      <trkpt lon="-3.044842" lat="52.722807"><ele>361.334229</ele><time>2022-01-15T12:19:36Z</time><extensions><speed>0.626745</speed><course>127.524292</course><hAcc>1.938859</hAcc><vAcc>0.632786</vAcc></extensions></trkpt>
      <trkpt lon="-3.044835" lat="52.722803"><ele>361.297638</ele><time>2022-01-15T12:19:37Z</time><extensions><speed>0.623965</speed><course>128.450882</course><hAcc>1.929417</hAcc><vAcc>0.628654</vAcc></extensions></trkpt>
      <trkpt lon="-3.044827" lat="52.722799"><ele>361.249634</ele><time>2022-01-15T12:19:38Z</time><extensions><speed>0.660222</speed><course>129.616577</course><hAcc>1.923380</hAcc><vAcc>0.624491</vAcc></extensions></trkpt>
      <trkpt lon="-3.044819" lat="52.722795"><ele>361.187042</ele><time>2022-01-15T12:19:39Z</time><extensions><speed>0.747678</speed><course>130.925064</course><hAcc>1.924999</hAcc><vAcc>0.620204</vAcc></extensions></trkpt>
      <trkpt lon="-3.044810" lat="52.722790"><ele>361.110565</ele><time>2022-01-15T12:19:40Z</time><extensions><speed>0.876871</speed><course>132.004318</course><hAcc>1.933397</hAcc><vAcc>0.615692</vAcc></extensions></trkpt>
      <trkpt lon="-3.044799" lat="52.722784"><ele>361.020386</ele><time>2022-01-15T12:19:41Z</time><extensions><speed>1.099757</speed><course>132.824539</course><hAcc>1.934939</hAcc><vAcc>0.610902</vAcc></extensions></trkpt>
      <trkpt lon="-3.044786" lat="52.722776"><ele>360.909271</ele><time>2022-01-15T12:19:42Z</time><extensions><speed>1.360886</speed><course>133.612152</course><hAcc>1.930253</hAcc><vAcc>0.605891</vAcc></extensions></trkpt>
      <trkpt lon="-3.044771" lat="52.722768"><ele>360.776398</ele><time>2022-01-15T12:19:43Z</time><extensions><speed>1.467773</speed><course>134.673401</course><hAcc>1.928272</hAcc><vAcc>0.600887</vAcc></extensions></trkpt>
      <trkpt lon="-3.044756" lat="52.722759"><ele>360.619934</ele><time>2022-01-15T12:19:44Z</time><extensions><speed>1.324547</speed><course>136.276840</course><hAcc>1.934717</hAcc><vAcc>0.596315</vAcc></extensions></trkpt>
      <trkpt lon="-3.044744" lat="52.722751"><ele>360.449127</ele><time>2022-01-15T12:19:45Z</time><extensions><speed>1.136503</speed><course>138.907394</course><hAcc>1.940017</hAcc><vAcc>0.592683</vAcc></extensions></trkpt>
      <trkpt lon="-3.044735" lat="52.722744"><ele>360.264191</ele><time>2022-01-15T12:19:46Z</time><extensions><speed>0.919314</speed><course>143.661514</course><hAcc>1.947321</hAcc><vAcc>0.590525</vAcc></extensions></trkpt>
      <trkpt lon="-3.044728" lat="52.722737"><ele>360.073730</ele><time>2022-01-15T12:19:47Z</time><extensions><speed>0.716221</speed><course>149.895584</course><hAcc>1.954050</hAcc><vAcc>0.590362</vAcc></extensions></trkpt>
      <trkpt lon="-3.044724" lat="52.722732"><ele>359.881287</ele><time>2022-01-15T12:19:48Z</time><extensions><speed>0.549797</speed><course>155.850739</course><hAcc>1.955374</hAcc><vAcc>0.592541</vAcc></extensions></trkpt>
      <trkpt lon="-3.044721" lat="52.722729"><ele>359.687927</ele><time>2022-01-15T12:19:49Z</time><extensions><speed>0.372570</speed><course>161.562088</course><hAcc>1.952374</hAcc><vAcc>0.597116</vAcc></extensions></trkpt>
      <trkpt lon="-3.044721" lat="52.722726"><ele>359.509796</ele><time>2022-01-15T12:19:50Z</time><extensions><speed>0.149352</speed><course>175.388916</course><hAcc>1.945793</hAcc><vAcc>0.603966</vAcc></extensions></trkpt>
      <trkpt lon="-3.044721" lat="52.722726"><ele>359.344971</ele><time>2022-01-15T12:19:51Z</time><extensions><speed>0.133201</speed><course>311.763062</course><hAcc>1.934369</hAcc><vAcc>0.612839</vAcc></extensions></trkpt>
      <trkpt lon="-3.044724" lat="52.722728"><ele>359.193542</ele><time>2022-01-15T12:19:52Z</time><extensions><speed>0.372696</speed><course>328.025726</course><hAcc>1.925962</hAcc><vAcc>0.623374</vAcc></extensions></trkpt>
      <trkpt lon="-3.044727" lat="52.722732"><ele>359.067047</ele><time>2022-01-15T12:19:53Z</time><extensions><speed>0.558616</speed><course>329.821991</course><hAcc>1.925713</hAcc><vAcc>0.635234</vAcc></extensions></trkpt>
      <trkpt lon="-3.044732" lat="52.722737"><ele>358.962036</ele><time>2022-01-15T12:19:54Z</time><extensions><speed>0.698901</speed><course>327.397644</course><hAcc>1.927549</hAcc><vAcc>0.647847</vAcc></extensions></trkpt>
      <trkpt lon="-3.044739" lat="52.722742"><ele>358.868530</ele><time>2022-01-15T12:19:55Z</time><extensions><speed>0.829822</speed><course>323.430359</course><hAcc>1.922803</hAcc><vAcc>0.660681</vAcc></extensions></trkpt>
      <trkpt lon="-3.044747" lat="52.722749"><ele>358.794067</ele><time>2022-01-15T12:19:56Z</time><extensions><speed>0.967487</speed><course>320.536072</course><hAcc>1.911503</hAcc><vAcc>0.673347</vAcc></extensions></trkpt>
      <trkpt lon="-3.044756" lat="52.722756"><ele>358.742493</ele><time>2022-01-15T12:19:57Z</time><extensions><speed>1.029253</speed><course>322.703522</course><hAcc>1.907393</hAcc><vAcc>0.685621</vAcc></extensions></trkpt>
      <trkpt lon="-3.044764" lat="52.722764"><ele>358.705627</ele><time>2022-01-15T12:19:58Z</time><extensions><speed>1.058494</speed><course>331.756073</course><hAcc>1.907060</hAcc><vAcc>0.697345</vAcc></extensions></trkpt>
      <trkpt lon="-3.044770" lat="52.722773"><ele>358.688446</ele><time>2022-01-15T12:19:59Z</time><extensions><speed>1.135926</speed><course>344.661377</course><hAcc>1.899783</hAcc><vAcc>0.708462</vAcc></extensions></trkpt>
      <trkpt lon="-3.044773" lat="52.722784"><ele>358.684692</ele><time>2022-01-15T12:20:00Z</time><extensions><speed>1.282925</speed><course>358.123962</course><hAcc>1.884081</hAcc><vAcc>0.718965</vAcc></extensions></trkpt>
      <trkpt lon="-3.044772" lat="52.722795"><ele>358.683899</ele><time>2022-01-15T12:20:01Z</time><extensions><speed>1.270203</speed><course>8.570906</course><hAcc>1.882425</hAcc><vAcc>0.728868</vAcc></extensions></trkpt>
      <trkpt lon="-3.044768" lat="52.722806"><ele>358.687592</ele><time>2022-01-15T12:20:02Z</time><extensions><speed>1.147073</speed><course>17.804708</course><hAcc>1.881320</hAcc><vAcc>0.738176</vAcc></extensions></trkpt>
      <trkpt lon="-3.044762" lat="52.722815"><ele>358.672913</ele><time>2022-01-15T12:20:03Z</time><extensions><speed>0.991058</speed><course>22.643274</course><hAcc>1.868404</hAcc><vAcc>0.746853</vAcc></extensions></trkpt>
      <trkpt lon="-3.044756" lat="52.722822"><ele>358.660889</ele><time>2022-01-15T12:20:04Z</time><extensions><speed>0.872986</speed><course>28.306330</course><hAcc>1.855749</hAcc><vAcc>0.754835</vAcc></extensions></trkpt>
      <trkpt lon="-3.044750" lat="52.722828"><ele>358.649628</ele><time>2022-01-15T12:20:05Z</time><extensions><speed>0.767979</speed><course>35.036545</course><hAcc>1.851338</hAcc><vAcc>0.762045</vAcc></extensions></trkpt>
      <trkpt lon="-3.044744" lat="52.722834"><ele>358.627838</ele><time>2022-01-15T12:20:06Z</time><extensions><speed>0.682623</speed><course>41.370869</course><hAcc>1.848543</hAcc><vAcc>0.768437</vAcc></extensions></trkpt>
      <trkpt lon="-3.044737" lat="52.722838"><ele>358.605499</ele><time>2022-01-15T12:20:07Z</time><extensions><speed>0.581829</speed><course>46.008434</course><hAcc>1.845443</hAcc><vAcc>0.773988</vAcc></extensions></trkpt>
      <trkpt lon="-3.044731" lat="52.722841"><ele>358.551178</ele><time>2022-01-15T12:20:08Z</time><extensions><speed>0.519561</speed><course>51.698471</course><hAcc>1.839511</hAcc><vAcc>0.778788</vAcc></extensions></trkpt>
      <trkpt lon="-3.044725" lat="52.722844"><ele>358.483063</ele><time>2022-01-15T12:20:09Z</time><extensions><speed>0.502484</speed><course>61.750980</course><hAcc>1.830010</hAcc><vAcc>0.782915</vAcc></extensions></trkpt>
      <trkpt lon="-3.044718" lat="52.722845"><ele>358.426910</ele><time>2022-01-15T12:20:10Z</time><extensions><speed>0.528607</speed><course>75.920868</course><hAcc>1.825677</hAcc><vAcc>0.786437</vAcc></extensions></trkpt>
      <trkpt lon="-3.044710" lat="52.722846"><ele>358.366333</ele><time>2022-01-15T12:20:11Z</time><extensions><speed>0.594857</speed><course>88.697128</course><hAcc>1.829514</hAcc><vAcc>0.789450</vAcc></extensions></trkpt>
      <trkpt lon="-3.044700" lat="52.722846"><ele>358.281158</ele><time>2022-01-15T12:20:12Z</time><extensions><speed>0.682210</speed><course>96.071838</course><hAcc>1.833843</hAcc><vAcc>0.791997</vAcc></extensions></trkpt>
      <trkpt lon="-3.044690" lat="52.722845"><ele>358.203003</ele><time>2022-01-15T12:20:13Z</time><extensions><speed>0.730917</speed><course>100.366348</course><hAcc>1.830745</hAcc><vAcc>0.794144</vAcc></extensions></trkpt>
      <trkpt lon="-3.044679" lat="52.722843"><ele>358.126007</ele><time>2022-01-15T12:20:14Z</time><extensions><speed>0.726730</speed><course>102.266502</course><hAcc>1.811568</hAcc><vAcc>0.795973</vAcc></extensions></trkpt>
      <trkpt lon="-3.044669" lat="52.722842"><ele>358.045258</ele><time>2022-01-15T12:20:15Z</time><extensions><speed>0.643485</speed><course>103.797539</course><hAcc>1.792922</hAcc><vAcc>0.797514</vAcc></extensions></trkpt>
      <trkpt lon="-3.044661" lat="52.722841"><ele>357.940308</ele><time>2022-01-15T12:20:16Z</time><extensions><speed>0.548066</speed><course>107.326401</course><hAcc>1.778492</hAcc><vAcc>0.798786</vAcc></extensions></trkpt>
      <trkpt lon="-3.044654" lat="52.722839"><ele>357.826691</ele><time>2022-01-15T12:20:17Z</time><extensions><speed>0.460642</speed><course>111.274445</course><hAcc>1.777225</hAcc><vAcc>0.799790</vAcc></extensions></trkpt>
      <trkpt lon="-3.044647" lat="52.722838"><ele>357.723755</ele><time>2022-01-15T12:20:18Z</time><extensions><speed>0.481576</speed><course>112.944183</course><hAcc>1.798912</hAcc><vAcc>0.800559</vAcc></extensions></trkpt>
      <trkpt lon="-3.044641" lat="52.722836"><ele>357.615021</ele><time>2022-01-15T12:20:19Z</time><extensions><speed>0.469911</speed><course>106.555862</course><hAcc>1.799440</hAcc><vAcc>0.801096</vAcc></extensions></trkpt>
      <trkpt lon="-3.044635" lat="52.722836"><ele>357.520752</ele><time>2022-01-15T12:20:20Z</time><extensions><speed>0.402133</speed><course>91.519836</course><hAcc>1.782140</hAcc><vAcc>0.801443</vAcc></extensions></trkpt>
      <trkpt lon="-3.044629" lat="52.722836"><ele>357.421722</ele><time>2022-01-15T12:20:21Z</time><extensions><speed>0.367750</speed><course>80.095749</course><hAcc>1.776973</hAcc><vAcc>0.801617</vAcc></extensions></trkpt>
      <trkpt lon="-3.044623" lat="52.722836"><ele>357.320160</ele><time>2022-01-15T12:20:22Z</time><extensions><speed>0.414322</speed><course>82.331718</course><hAcc>1.790874</hAcc><vAcc>0.801615</vAcc></extensions></trkpt>
      <trkpt lon="-3.044617" lat="52.722836"><ele>357.229156</ele><time>2022-01-15T12:20:23Z</time><extensions><speed>0.472370</speed><course>93.441605</course><hAcc>1.793928</hAcc><vAcc>0.801469</vAcc></extensions></trkpt>
      <trkpt lon="-3.044609" lat="52.722836"><ele>357.142120</ele><time>2022-01-15T12:20:24Z</time><extensions><speed>0.508084</speed><course>106.478035</course><hAcc>1.793958</hAcc><vAcc>0.801189</vAcc></extensions></trkpt>
      <trkpt lon="-3.044603" lat="52.722834"><ele>357.055206</ele><time>2022-01-15T12:20:25Z</time><extensions><speed>0.512785</speed><course>119.056053</course><hAcc>1.797434</hAcc><vAcc>0.800845</vAcc></extensions></trkpt>
      <trkpt lon="-3.044596" lat="52.722831"><ele>356.969055</ele><time>2022-01-15T12:20:26Z</time><extensions><speed>0.534023</speed><course>125.232513</course><hAcc>1.812792</hAcc><vAcc>0.800478</vAcc></extensions></trkpt>
      <trkpt lon="-3.044589" lat="52.722829"><ele>356.892975</ele><time>2022-01-15T12:20:27Z</time><extensions><speed>0.533904</speed><course>123.047157</course><hAcc>1.812756</hAcc><vAcc>0.800089</vAcc></extensions></trkpt>
      <trkpt lon="-3.044582" lat="52.722826"><ele>356.824371</ele><time>2022-01-15T12:20:28Z</time><extensions><speed>0.569209</speed><course>118.893829</course><hAcc>1.801024</hAcc><vAcc>0.799743</vAcc></extensions></trkpt>
      <trkpt lon="-3.044575" lat="52.722824"><ele>356.749054</ele><time>2022-01-15T12:20:29Z</time><extensions><speed>0.608141</speed><course>117.089844</course><hAcc>1.802447</hAcc><vAcc>0.799415</vAcc></extensions></trkpt>
      <trkpt lon="-3.044567" lat="52.722821"><ele>356.675171</ele><time>2022-01-15T12:20:30Z</time><extensions><speed>0.588288</speed><course>117.407677</course><hAcc>1.804006</hAcc><vAcc>0.799119</vAcc></extensions></trkpt>
      <trkpt lon="-3.044560" lat="52.722819"><ele>356.603729</ele><time>2022-01-15T12:20:31Z</time><extensions><speed>0.500286</speed><course>119.967865</course><hAcc>1.795979</hAcc><vAcc>0.798843</vAcc></extensions></trkpt>
      <trkpt lon="-3.044554" lat="52.722817"><ele>356.530853</ele><time>2022-01-15T12:20:32Z</time><extensions><speed>0.385543</speed><course>122.199196</course><hAcc>1.802638</hAcc><vAcc>0.798644</vAcc></extensions></trkpt>
      <trkpt lon="-3.044551" lat="52.722815"><ele>356.450226</ele><time>2022-01-15T12:20:33Z</time><extensions><speed>0.204362</speed><course>122.229965</course><hAcc>1.819693</hAcc><vAcc>0.798505</vAcc></extensions></trkpt>
      <trkpt lon="-3.044548" lat="52.722815"><ele>356.356476</ele><time>2022-01-15T12:20:34Z</time><extensions><speed>0.141385</speed><course>122.277557</course><hAcc>1.813811</hAcc><vAcc>0.798464</vAcc></extensions></trkpt>
      <trkpt lon="-3.044547" lat="52.722814"><ele>356.256958</ele><time>2022-01-15T12:20:35Z</time><extensions><speed>0.119431</speed><course>116.402222</course><hAcc>1.810385</hAcc><vAcc>0.798521</vAcc></extensions></trkpt>
      <trkpt lon="-3.044545" lat="52.722814"><ele>356.175903</ele><time>2022-01-15T12:20:36Z</time><extensions><speed>0.131559</speed><course>104.679230</course><hAcc>1.813648</hAcc><vAcc>0.798626</vAcc></extensions></trkpt>
      <trkpt lon="-3.044543" lat="52.722813"><ele>356.078033</ele><time>2022-01-15T12:20:37Z</time><extensions><speed>0.164071</speed><course>97.022263</course><hAcc>1.820837</hAcc><vAcc>0.798778</vAcc></extensions></trkpt>
      <trkpt lon="-3.044540" lat="52.722813"><ele>355.980011</ele><time>2022-01-15T12:20:38Z</time><extensions><speed>0.219710</speed><course>95.206909</course><hAcc>1.827511</hAcc><vAcc>0.798929</vAcc></extensions></trkpt>
      <trkpt lon="-3.044536" lat="52.722813"><ele>355.883575</ele><time>2022-01-15T12:20:39Z</time><extensions><speed>0.292055</speed><course>96.456711</course><hAcc>1.835998</hAcc><vAcc>0.799056</vAcc></extensions></trkpt>
      <trkpt lon="-3.044531" lat="52.722812"><ele>355.780701</ele><time>2022-01-15T12:20:40Z</time><extensions><speed>0.395771</speed><course>98.868271</course><hAcc>1.834471</hAcc><vAcc>0.799126</vAcc></extensions></trkpt>
      <trkpt lon="-3.044524" lat="52.722812"><ele>355.674744</ele><time>2022-01-15T12:20:41Z</time><extensions><speed>0.565365</speed><course>101.472710</course><hAcc>1.818406</hAcc><vAcc>0.799170</vAcc></extensions></trkpt>
      <trkpt lon="-3.044515" lat="52.722810"><ele>355.568878</ele><time>2022-01-15T12:20:42Z</time><extensions><speed>0.621669</speed><course>104.278191</course><hAcc>1.811452</hAcc><vAcc>0.799137</vAcc></extensions></trkpt>
      <trkpt lon="-3.044506" lat="52.722809"><ele>355.453888</ele><time>2022-01-15T12:20:43Z</time><extensions><speed>0.625468</speed><course>107.640991</course><hAcc>1.809328</hAcc><vAcc>0.799053</vAcc></extensions></trkpt>
      <trkpt lon="-3.044498" lat="52.722807"><ele>355.318390</ele><time>2022-01-15T12:20:44Z</time><extensions><speed>0.548356</speed><course>113.015312</course><hAcc>1.801211</hAcc><vAcc>0.798927</vAcc></extensions></trkpt>
      <trkpt lon="-3.044492" lat="52.722805"><ele>355.187592</ele><time>2022-01-15T12:20:45Z</time><extensions><speed>0.415593</speed><course>116.570915</course><hAcc>1.785318</hAcc><vAcc>0.798737</vAcc></extensions></trkpt>
      <trkpt lon="-3.044487" lat="52.722804"><ele>355.068359</ele><time>2022-01-15T12:20:46Z</time><extensions><speed>0.256238</speed><course>115.655289</course><hAcc>1.778870</hAcc><vAcc>0.798484</vAcc></extensions></trkpt>
      <trkpt lon="-3.044484" lat="52.722803"><ele>354.957367</ele><time>2022-01-15T12:20:47Z</time><extensions><speed>0.200536</speed><course>114.833000</course><hAcc>1.773239</hAcc><vAcc>0.798205</vAcc></extensions></trkpt>
      <trkpt lon="-3.044482" lat="52.722802"><ele>354.832428</ele><time>2022-01-15T12:20:48Z</time><extensions><speed>0.196162</speed><course>114.027847</course><hAcc>1.770637</hAcc><vAcc>0.797921</vAcc></extensions></trkpt>
      <trkpt lon="-3.044479" lat="52.722802"><ele>354.713165</ele><time>2022-01-15T12:20:49Z</time><extensions><speed>0.221543</speed><course>112.725395</course><hAcc>1.773349</hAcc><vAcc>0.797657</vAcc></extensions></trkpt>
      <trkpt lon="-3.044475" lat="52.722801"><ele>354.581421</ele><time>2022-01-15T12:20:50Z</time><extensions><speed>0.263851</speed><course>111.319489</course><hAcc>1.784387</hAcc><vAcc>0.797449</vAcc></extensions></trkpt>
      <trkpt lon="-3.044471" lat="52.722800"><ele>354.447662</ele><time>2022-01-15T12:20:51Z</time><extensions><speed>0.357109</speed><course>110.116402</course><hAcc>1.786391</hAcc><vAcc>0.797322</vAcc></extensions></trkpt>
      <trkpt lon="-3.044465" lat="52.722798"><ele>354.305328</ele><time>2022-01-15T12:20:52Z</time><extensions><speed>0.546537</speed><course>109.324371</course><hAcc>1.776814</hAcc><vAcc>0.797254</vAcc></extensions></trkpt>
      <trkpt lon="-3.044457" lat="52.722797"><ele>354.165375</ele><time>2022-01-15T12:20:53Z</time><extensions><speed>0.621401</speed><course>108.128883</course><hAcc>1.791823</hAcc><vAcc>0.797280</vAcc></extensions></trkpt>
      <trkpt lon="-3.044448" lat="52.722795"><ele>354.025269</ele><time>2022-01-15T12:20:54Z</time><extensions><speed>0.650629</speed><course>108.940849</course><hAcc>1.819635</hAcc><vAcc>0.797392</vAcc></extensions></trkpt>
      <trkpt lon="-3.044439" lat="52.722793"><ele>353.879150</ele><time>2022-01-15T12:20:55Z</time><extensions><speed>0.657510</speed><course>108.826981</course><hAcc>1.826297</hAcc><vAcc>0.797561</vAcc></extensions></trkpt>
      <trkpt lon="-3.044429" lat="52.722791"><ele>353.723145</ele><time>2022-01-15T12:20:56Z</time><extensions><speed>0.653587</speed><course>110.607994</course><hAcc>1.822950</hAcc><vAcc>0.797785</vAcc></extensions></trkpt>
      <trkpt lon="-3.044421" lat="52.722789"><ele>353.555603</ele><time>2022-01-15T12:20:57Z</time><extensions><speed>0.630260</speed><course>117.828285</course><hAcc>1.815374</hAcc><vAcc>0.798033</vAcc></extensions></trkpt>
      <trkpt lon="-3.044413" lat="52.722786"><ele>353.409149</ele><time>2022-01-15T12:20:58Z</time><extensions><speed>0.620243</speed><course>130.556564</course><hAcc>1.802684</hAcc><vAcc>0.798291</vAcc></extensions></trkpt>
      <trkpt lon="-3.044406" lat="52.722781"><ele>353.253174</ele><time>2022-01-15T12:20:59Z</time><extensions><speed>0.660398</speed><course>141.405624</course><hAcc>1.794805</hAcc><vAcc>0.798548</vAcc></extensions></trkpt>
      <trkpt lon="-3.044401" lat="52.722776"><ele>353.085083</ele><time>2022-01-15T12:21:00Z</time><extensions><speed>0.693519</speed><course>147.734695</course><hAcc>1.800289</hAcc><vAcc>0.798816</vAcc></extensions></trkpt>
      <trkpt lon="-3.044395" lat="52.722771"><ele>352.922272</ele><time>2022-01-15T12:21:01Z</time><extensions><speed>0.730007</speed><course>148.194839</course><hAcc>1.797161</hAcc><vAcc>0.799064</vAcc></extensions></trkpt>
      <trkpt lon="-3.044389" lat="52.722766"><ele>352.748962</ele><time>2022-01-15T12:21:02Z</time><extensions><speed>0.732679</speed><course>141.715744</course><hAcc>1.788279</hAcc><vAcc>0.799302</vAcc></extensions></trkpt>
      <trkpt lon="-3.044381" lat="52.722761"><ele>352.559113</ele><time>2022-01-15T12:21:03Z</time><extensions><speed>0.768436</speed><course>133.284027</course><hAcc>1.783007</hAcc><vAcc>0.799524</vAcc></extensions></trkpt>
      <trkpt lon="-3.044372" lat="52.722756"><ele>352.374481</ele><time>2022-01-15T12:21:04Z</time><extensions><speed>0.802134</speed><course>124.239220</course><hAcc>1.781171</hAcc><vAcc>0.799738</vAcc></extensions></trkpt>
      <trkpt lon="-3.044362" lat="52.722753"><ele>352.207825</ele><time>2022-01-15T12:21:05Z</time><extensions><speed>0.833928</speed><course>116.392204</course><hAcc>1.781783</hAcc><vAcc>0.799913</vAcc></extensions></trkpt>
      <trkpt lon="-3.044350" lat="52.722749"><ele>352.042969</ele><time>2022-01-15T12:21:06Z</time><extensions><speed>0.867117</speed><course>112.609848</course><hAcc>1.785346</hAcc><vAcc>0.800018</vAcc></extensions></trkpt>
      <trkpt lon="-3.044338" lat="52.722747"><ele>351.886078</ele><time>2022-01-15T12:21:07Z</time><extensions><speed>0.864580</speed><course>111.627846</course><hAcc>1.791442</hAcc><vAcc>0.799934</vAcc></extensions></trkpt>
      <trkpt lon="-3.044327" lat="52.722744"><ele>351.733795</ele><time>2022-01-15T12:21:08Z</time><extensions><speed>0.811348</speed><course>110.981773</course><hAcc>1.793644</hAcc><vAcc>0.799721</vAcc></extensions></trkpt>
      <trkpt lon="-3.044316" lat="52.722741"><ele>351.584229</ele><time>2022-01-15T12:21:09Z</time><extensions><speed>0.735660</speed><course>112.004845</course><hAcc>1.797316</hAcc><vAcc>0.799286</vAcc></extensions></trkpt>
      <trkpt lon="-3.044307" lat="52.722739"><ele>351.442230</ele><time>2022-01-15T12:21:10Z</time><extensions><speed>0.671318</speed><course>113.820961</course><hAcc>1.800880</hAcc><vAcc>0.798694</vAcc></extensions></trkpt>
      <trkpt lon="-3.044298" lat="52.722737"><ele>351.303345</ele><time>2022-01-15T12:21:11Z</time><extensions><speed>0.610045</speed><course>114.694405</course><hAcc>1.799978</hAcc><vAcc>0.797949</vAcc></extensions></trkpt>
      <trkpt lon="-3.044291" lat="52.722734"><ele>351.179504</ele><time>2022-01-15T12:21:12Z</time><extensions><speed>0.502244</speed><course>114.140869</course><hAcc>1.803774</hAcc><vAcc>0.797071</vAcc></extensions></trkpt>
      <trkpt lon="-3.044284" lat="52.722733"><ele>351.069916</ele><time>2022-01-15T12:21:13Z</time><extensions><speed>0.424144</speed><course>109.975014</course><hAcc>1.813695</hAcc><vAcc>0.796028</vAcc></extensions></trkpt>
      <trkpt lon="-3.044278" lat="52.722732"><ele>350.972260</ele><time>2022-01-15T12:21:14Z</time><extensions><speed>0.386036</speed><course>98.592537</course><hAcc>1.802274</hAcc><vAcc>0.794785</vAcc></extensions></trkpt>
      <trkpt lon="-3.044273" lat="52.722732"><ele>350.883331</ele><time>2022-01-15T12:21:15Z</time><extensions><speed>0.327918</speed><course>87.260239</course><hAcc>1.795539</hAcc><vAcc>0.793394</vAcc></extensions></trkpt>
      <trkpt lon="-3.044269" lat="52.722732"><ele>350.795197</ele><time>2022-01-15T12:21:16Z</time><extensions><speed>0.195624</speed><course>66.660683</course><hAcc>1.804829</hAcc><vAcc>0.791972</vAcc></extensions></trkpt>
      <trkpt lon="-3.044267" lat="52.722733"><ele>350.719299</ele><time>2022-01-15T12:21:17Z</time><extensions><speed>0.146675</speed><course>47.352341</course><hAcc>1.806609</hAcc><vAcc>0.790575</vAcc></extensions></trkpt>
      <trkpt lon="-3.044266" lat="52.722734"><ele>350.634521</ele><time>2022-01-15T12:21:18Z</time><extensions><speed>0.118121</speed><course>36.198082</course><hAcc>1.809753</hAcc><vAcc>0.789300</vAcc></extensions></trkpt>
      <trkpt lon="-3.044265" lat="52.722735"><ele>350.547516</ele><time>2022-01-15T12:21:19Z</time><extensions><speed>0.096809</speed><course>34.489262</course><hAcc>1.815207</hAcc><vAcc>0.788235</vAcc></extensions></trkpt>
      <trkpt lon="-3.044264" lat="52.722735"><ele>350.457794</ele><time>2022-01-15T12:21:20Z</time><extensions><speed>0.081230</speed><course>44.322369</course><hAcc>1.818730</hAcc><vAcc>0.787460</vAcc></extensions></trkpt>
      <trkpt lon="-3.044263" lat="52.722736"><ele>350.355499</ele><time>2022-01-15T12:21:21Z</time><extensions><speed>0.076369</speed><course>66.530403</course><hAcc>1.817280</hAcc><vAcc>0.786994</vAcc></extensions></trkpt>
      <trkpt lon="-3.044262" lat="52.722736"><ele>350.239471</ele><time>2022-01-15T12:21:22Z</time><extensions><speed>0.090918</speed><course>94.264603</course><hAcc>1.812233</hAcc><vAcc>0.786840</vAcc></extensions></trkpt>
      <trkpt lon="-3.044260" lat="52.722735"><ele>350.130310</ele><time>2022-01-15T12:21:23Z</time><extensions><speed>0.131033</speed><course>114.970200</course><hAcc>1.811898</hAcc><vAcc>0.787015</vAcc></extensions></trkpt>
      <trkpt lon="-3.044258" lat="52.722735"><ele>349.999756</ele><time>2022-01-15T12:21:24Z</time><extensions><speed>0.194807</speed><course>125.655151</course><hAcc>1.820396</hAcc><vAcc>0.787509</vAcc></extensions></trkpt>
      <trkpt lon="-3.044255" lat="52.722733"><ele>349.862396</ele><time>2022-01-15T12:21:25Z</time><extensions><speed>0.298117</speed><course>129.276550</course><hAcc>1.822445</hAcc><vAcc>0.788282</vAcc></extensions></trkpt>
      <trkpt lon="-3.044251" lat="52.722731"><ele>349.692596</ele><time>2022-01-15T12:21:26Z</time><extensions><speed>0.452040</speed><course>128.986984</course><hAcc>1.813843</hAcc><vAcc>0.789275</vAcc></extensions></trkpt>
      <trkpt lon="-3.044245" lat="52.722728"><ele>349.511963</ele><time>2022-01-15T12:21:27Z</time><extensions><speed>0.668968</speed><course>127.652420</course><hAcc>1.800777</hAcc><vAcc>0.790442</vAcc></extensions></trkpt>
      <trkpt lon="-3.044235" lat="52.722724"><ele>349.329163</ele><time>2022-01-15T12:21:28Z</time><extensions><speed>0.976517</speed><course>126.516747</course><hAcc>1.793504</hAcc><vAcc>0.791718</vAcc></extensions></trkpt>
      <trkpt lon="-3.044222" lat="52.722718"><ele>349.121796</ele><time>2022-01-15T12:21:29Z</time><extensions><speed>1.135199</speed><course>125.853813</course><hAcc>1.796823</hAcc><vAcc>0.793053</vAcc></extensions></trkpt>
      <trkpt lon="-3.044208" lat="52.722712"><ele>348.898376</ele><time>2022-01-15T12:21:30Z</time><extensions><speed>1.205200</speed><course>124.517952</course><hAcc>1.789719</hAcc><vAcc>0.794405</vAcc></extensions></trkpt>
      <trkpt lon="-3.044193" lat="52.722706"><ele>348.630066</ele><time>2022-01-15T12:21:31Z</time><extensions><speed>1.204710</speed><course>122.045891</course><hAcc>1.780025</hAcc><vAcc>0.795716</vAcc></extensions></trkpt>
      <trkpt lon="-3.044178" lat="52.722700"><ele>348.373596</ele><time>2022-01-15T12:21:32Z</time><extensions><speed>1.192051</speed><course>119.223015</course><hAcc>1.772762</hAcc><vAcc>0.796973</vAcc></extensions></trkpt>
      <trkpt lon="-3.044163" lat="52.722695"><ele>348.114868</ele><time>2022-01-15T12:21:33Z</time><extensions><speed>1.155003</speed><course>117.946144</course><hAcc>1.756986</hAcc><vAcc>0.798154</vAcc></extensions></trkpt>
      <trkpt lon="-3.044148" lat="52.722691"><ele>347.840607</ele><time>2022-01-15T12:21:34Z</time><extensions><speed>1.116824</speed><course>119.387657</course><hAcc>1.752952</hAcc><vAcc>0.799241</vAcc></extensions></trkpt>
      <trkpt lon="-3.044134" lat="52.722685"><ele>347.559998</ele><time>2022-01-15T12:21:35Z</time><extensions><speed>1.120417</speed><course>121.611145</course><hAcc>1.755876</hAcc><vAcc>0.800243</vAcc></extensions></trkpt>
      <trkpt lon="-3.044120" lat="52.722680"><ele>347.267334</ele><time>2022-01-15T12:21:36Z</time><extensions><speed>1.110197</speed><course>125.137238</course><hAcc>1.737499</hAcc><vAcc>0.801152</vAcc></extensions></trkpt>
      <trkpt lon="-3.044107" lat="52.722674"><ele>346.951050</ele><time>2022-01-15T12:21:37Z</time><extensions><speed>1.101332</speed><course>127.042458</course><hAcc>1.717422</hAcc><vAcc>0.801980</vAcc></extensions></trkpt>
      <trkpt lon="-3.044094" lat="52.722668"><ele>346.628784</ele><time>2022-01-15T12:21:38Z</time><extensions><speed>1.035190</speed><course>127.393745</course><hAcc>1.689713</hAcc><vAcc>0.802728</vAcc></extensions></trkpt>
      <trkpt lon="-3.044082" lat="52.722663"><ele>346.302826</ele><time>2022-01-15T12:21:39Z</time><extensions><speed>0.996935</speed><course>129.114624</course><hAcc>1.655209</hAcc><vAcc>0.803400</vAcc></extensions></trkpt>
      <trkpt lon="-3.044071" lat="52.722657"><ele>345.968597</ele><time>2022-01-15T12:21:40Z</time><extensions><speed>0.967878</speed><course>131.405365</course><hAcc>1.612729</hAcc><vAcc>0.804025</vAcc></extensions></trkpt>
      <trkpt lon="-3.044061" lat="52.722651"><ele>345.645508</ele><time>2022-01-15T12:21:41Z</time><extensions><speed>0.934637</speed><course>135.007767</course><hAcc>1.594213</hAcc><vAcc>0.804604</vAcc></extensions></trkpt>
      <trkpt lon="-3.044051" lat="52.722645"><ele>345.306580</ele><time>2022-01-15T12:21:42Z</time><extensions><speed>0.914615</speed><course>135.090363</course><hAcc>1.614966</hAcc><vAcc>0.805110</vAcc></extensions></trkpt>
      <trkpt lon="-3.044042" lat="52.722640"><ele>344.952789</ele><time>2022-01-15T12:21:43Z</time><extensions><speed>0.871697</speed><course>131.248215</course><hAcc>1.596592</hAcc><vAcc>0.805567</vAcc></extensions></trkpt>
      <trkpt lon="-3.044032" lat="52.722635"><ele>344.607422</ele><time>2022-01-15T12:21:44Z</time><extensions><speed>0.823110</speed><course>129.832947</course><hAcc>1.581318</hAcc><vAcc>0.805976</vAcc></extensions></trkpt>
      <trkpt lon="-3.044023" lat="52.722630"><ele>344.262024</ele><time>2022-01-15T12:21:45Z</time><extensions><speed>0.805800</speed><course>129.399796</course><hAcc>1.576094</hAcc><vAcc>0.806380</vAcc></extensions></trkpt>
      <trkpt lon="-3.044014" lat="52.722625"><ele>343.930450</ele><time>2022-01-15T12:21:46Z</time><extensions><speed>0.819412</speed><course>129.906021</course><hAcc>1.561903</hAcc><vAcc>0.806779</vAcc></extensions></trkpt>
      <trkpt lon="-3.044004" lat="52.722621"><ele>343.598267</ele><time>2022-01-15T12:21:47Z</time><extensions><speed>0.819049</speed><course>130.469635</course><hAcc>1.553503</hAcc><vAcc>0.807149</vAcc></extensions></trkpt>
      <trkpt lon="-3.043995" lat="52.722616"><ele>343.270599</ele><time>2022-01-15T12:21:48Z</time><extensions><speed>0.807794</speed><course>129.998489</course><hAcc>1.557990</hAcc><vAcc>0.807486</vAcc></extensions></trkpt>
      <trkpt lon="-3.043986" lat="52.722611"><ele>342.968323</ele><time>2022-01-15T12:21:49Z</time><extensions><speed>0.812579</speed><course>129.830292</course><hAcc>1.572935</hAcc><vAcc>0.807787</vAcc></extensions></trkpt>
      <trkpt lon="-3.043977" lat="52.722607"><ele>342.648834</ele><time>2022-01-15T12:21:50Z</time><extensions><speed>0.810425</speed><course>130.160843</course><hAcc>1.616822</hAcc><vAcc>0.808084</vAcc></extensions></trkpt>
      <trkpt lon="-3.043968" lat="52.722602"><ele>342.324036</ele><time>2022-01-15T12:21:51Z</time><extensions><speed>0.759175</speed><course>128.288940</course><hAcc>1.616963</hAcc><vAcc>0.808368</vAcc></extensions></trkpt>
      <trkpt lon="-3.043959" lat="52.722598"><ele>342.024506</ele><time>2022-01-15T12:21:52Z</time><extensions><speed>0.715761</speed><course>131.710632</course><hAcc>1.585053</hAcc><vAcc>0.808621</vAcc></extensions></trkpt>
      <trkpt lon="-3.043952" lat="52.722594"><ele>341.731903</ele><time>2022-01-15T12:21:53Z</time><extensions><speed>0.722009</speed><course>136.065491</course><hAcc>1.613421</hAcc><vAcc>0.808800</vAcc></extensions></trkpt>
      <trkpt lon="-3.043943" lat="52.722588"><ele>341.432129</ele><time>2022-01-15T12:21:54Z</time><extensions><speed>0.874391</speed><course>135.265182</course><hAcc>1.643129</hAcc><vAcc>0.808920</vAcc></extensions></trkpt>
      <trkpt lon="-3.043934" lat="52.722583"><ele>341.139587</ele><time>2022-01-15T12:21:55Z</time><extensions><speed>0.877638</speed><course>129.577087</course><hAcc>1.657052</hAcc><vAcc>0.809004</vAcc></extensions></trkpt>
      <trkpt lon="-3.043924" lat="52.722579"><ele>340.875641</ele><time>2022-01-15T12:21:56Z</time><extensions><speed>0.783531</speed><course>124.775528</course><hAcc>1.661115</hAcc><vAcc>0.809015</vAcc></extensions></trkpt>
      <trkpt lon="-3.043915" lat="52.722575"><ele>340.597198</ele><time>2022-01-15T12:21:57Z</time><extensions><speed>0.656762</speed><course>122.720581</course><hAcc>1.655363</hAcc><vAcc>0.808959</vAcc></extensions></trkpt>
      <trkpt lon="-3.043907" lat="52.722572"><ele>340.313965</ele><time>2022-01-15T12:21:58Z</time><extensions><speed>0.644657</speed><course>124.030907</course><hAcc>1.660869</hAcc><vAcc>0.808850</vAcc></extensions></trkpt>
      <trkpt lon="-3.043899" lat="52.722568"><ele>340.057983</ele><time>2022-01-15T12:21:59Z</time><extensions><speed>0.699844</speed><course>124.883629</course><hAcc>1.677557</hAcc><vAcc>0.808693</vAcc></extensions></trkpt>
      <trkpt lon="-3.043890" lat="52.722565"><ele>339.764740</ele><time>2022-01-15T12:22:00Z</time><extensions><speed>0.717762</speed><course>127.098175</course><hAcc>1.709370</hAcc><vAcc>0.808498</vAcc></extensions></trkpt>
      <trkpt lon="-3.043881" lat="52.722561"><ele>339.499573</ele><time>2022-01-15T12:22:01Z</time><extensions><speed>0.752944</speed><course>127.894585</course><hAcc>1.725781</hAcc><vAcc>0.808249</vAcc></extensions></trkpt>
      <trkpt lon="-3.043872" lat="52.722557"><ele>339.242401</ele><time>2022-01-15T12:22:02Z</time><extensions><speed>0.802623</speed><course>123.850304</course><hAcc>1.674137</hAcc><vAcc>0.808004</vAcc></extensions></trkpt>
      <trkpt lon="-3.043862" lat="52.722553"><ele>338.984985</ele><time>2022-01-15T12:22:03Z</time><extensions><speed>0.844509</speed><course>122.935486</course><hAcc>1.645230</hAcc><vAcc>0.807800</vAcc></extensions></trkpt>
      <trkpt lon="-3.043851" lat="52.722548"><ele>338.749847</ele><time>2022-01-15T12:22:04Z</time><extensions><speed>0.841037</speed><course>124.010056</course><hAcc>1.677335</hAcc><vAcc>0.807619</vAcc></extensions></trkpt>
      <trkpt lon="-3.043841" lat="52.722544"><ele>338.522461</ele><time>2022-01-15T12:22:05Z</time><extensions><speed>0.802428</speed><course>125.771881</course><hAcc>1.738942</hAcc><vAcc>0.807457</vAcc></extensions></trkpt>
      <trkpt lon="-3.043831" lat="52.722540"><ele>338.308594</ele><time>2022-01-15T12:22:06Z</time><extensions><speed>0.828482</speed><course>121.067383</course><hAcc>1.699632</hAcc><vAcc>0.807332</vAcc></extensions></trkpt>
      <trkpt lon="-3.043820" lat="52.722536"><ele>338.088440</ele><time>2022-01-15T12:22:07Z</time><extensions><speed>0.829719</speed><course>119.746895</course><hAcc>1.682818</hAcc><vAcc>0.807237</vAcc></extensions></trkpt>
      <trkpt lon="-3.043810" lat="52.722533"><ele>337.868134</ele><time>2022-01-15T12:22:08Z</time><extensions><speed>0.848474</speed><course>116.888824</course><hAcc>1.689559</hAcc><vAcc>0.807192</vAcc></extensions></trkpt>
      <trkpt lon="-3.043798" lat="52.722530"><ele>337.634369</ele><time>2022-01-15T12:22:09Z</time><extensions><speed>0.842806</speed><course>113.535355</course><hAcc>1.687356</hAcc><vAcc>0.807211</vAcc></extensions></trkpt>
      <trkpt lon="-3.043787" lat="52.722527"><ele>337.407532</ele><time>2022-01-15T12:22:10Z</time><extensions><speed>0.809960</speed><course>115.064827</course><hAcc>1.671100</hAcc><vAcc>0.807263</vAcc></extensions></trkpt>
      <trkpt lon="-3.043775" lat="52.722523"><ele>337.178253</ele><time>2022-01-15T12:22:11Z</time><extensions><speed>1.142644</speed><course>118.356789</course><hAcc>1.623112</hAcc><vAcc>0.807344</vAcc></extensions></trkpt>
      <trkpt lon="-3.043759" lat="52.722517"><ele>336.942780</ele><time>2022-01-15T12:22:12Z</time><extensions><speed>1.466819</speed><course>120.850830</course><hAcc>1.591223</hAcc><vAcc>0.807473</vAcc></extensions></trkpt>
      <trkpt lon="-3.043740" lat="52.722510"><ele>336.693665</ele><time>2022-01-15T12:22:13Z</time><extensions><speed>1.599466</speed><course>124.145012</course><hAcc>1.612138</hAcc><vAcc>0.807604</vAcc></extensions></trkpt>
      <trkpt lon="-3.043721" lat="52.722502"><ele>336.424927</ele><time>2022-01-15T12:22:14Z</time><extensions><speed>1.538845</speed><course>123.106636</course><hAcc>1.588413</hAcc><vAcc>0.807703</vAcc></extensions></trkpt>
      <trkpt lon="-3.043702" lat="52.722495"><ele>336.146515</ele><time>2022-01-15T12:22:15Z</time><extensions><speed>1.559843</speed><course>118.782936</course><hAcc>1.540818</hAcc><vAcc>0.807773</vAcc></extensions></trkpt>
      <trkpt lon="-3.043681" lat="52.722489"><ele>335.876495</ele><time>2022-01-15T12:22:16Z</time><extensions><speed>1.605788</speed><course>115.114204</course><hAcc>1.544443</hAcc><vAcc>0.807730</vAcc></extensions></trkpt>
      <trkpt lon="-3.043660" lat="52.722482"><ele>335.602722</ele><time>2022-01-15T12:22:17Z</time><extensions><speed>1.548902</speed><course>115.506767</course><hAcc>1.535785</hAcc><vAcc>0.807643</vAcc></extensions></trkpt>
      <trkpt lon="-3.043641" lat="52.722476"><ele>335.334229</ele><time>2022-01-15T12:22:18Z</time><extensions><speed>1.458824</speed><course>118.119484</course><hAcc>1.529180</hAcc><vAcc>0.807469</vAcc></extensions></trkpt>
      <trkpt lon="-3.043622" lat="52.722470"><ele>335.060760</ele><time>2022-01-15T12:22:19Z</time><extensions><speed>1.423606</speed><course>123.997520</course><hAcc>1.554225</hAcc><vAcc>0.807199</vAcc></extensions></trkpt>
      <trkpt lon="-3.043605" lat="52.722462"><ele>334.798798</ele><time>2022-01-15T12:22:20Z</time><extensions><speed>1.443524</speed><course>126.855049</course><hAcc>1.589424</hAcc><vAcc>0.806789</vAcc></extensions></trkpt>
      <trkpt lon="-3.043590" lat="52.722455"><ele>334.557373</ele><time>2022-01-15T12:22:21Z</time><extensions><speed>1.178755</speed><course>128.774475</course><hAcc>1.591837</hAcc><vAcc>0.806238</vAcc></extensions></trkpt>
      <trkpt lon="-3.043579" lat="52.722449"><ele>334.289429</ele><time>2022-01-15T12:22:22Z</time><extensions><speed>0.782790</speed><course>134.179779</course><hAcc>1.596162</hAcc><vAcc>0.805436</vAcc></extensions></trkpt>
      <trkpt lon="-3.043572" lat="52.722445"><ele>334.046814</ele><time>2022-01-15T12:22:23Z</time><extensions><speed>0.519834</speed><course>140.388458</course><hAcc>1.638312</hAcc><vAcc>0.804425</vAcc></extensions></trkpt>
      <trkpt lon="-3.043569" lat="52.722442"><ele>333.816650</ele><time>2022-01-15T12:22:24Z</time><extensions><speed>0.351862</speed><course>148.694519</course><hAcc>1.686886</hAcc><vAcc>0.803221</vAcc></extensions></trkpt>
      <trkpt lon="-3.043566" lat="52.722439"><ele>333.605194</ele><time>2022-01-15T12:22:25Z</time><extensions><speed>0.314591</speed><course>156.663269</course><hAcc>1.722163</hAcc><vAcc>0.801737</vAcc></extensions></trkpt>
      <trkpt lon="-3.043565" lat="52.722436"><ele>333.392548</ele><time>2022-01-15T12:22:26Z</time><extensions><speed>0.404881</speed><course>163.168823</course><hAcc>1.731576</hAcc><vAcc>0.799956</vAcc></extensions></trkpt>
      <trkpt lon="-3.043562" lat="52.722432"><ele>333.203705</ele><time>2022-01-15T12:22:27Z</time><extensions><speed>0.582674</speed><course>159.451950</course><hAcc>1.745656</hAcc><vAcc>0.797916</vAcc></extensions></trkpt>
      <trkpt lon="-3.043559" lat="52.722426"><ele>333.015198</ele><time>2022-01-15T12:22:28Z</time><extensions><speed>0.732096</speed><course>158.197769</course><hAcc>1.756105</hAcc><vAcc>0.795708</vAcc></extensions></trkpt>
      <trkpt lon="-3.043554" lat="52.722420"><ele>332.836884</ele><time>2022-01-15T12:22:29Z</time><extensions><speed>0.798228</speed><course>158.237854</course><hAcc>1.761118</hAcc><vAcc>0.793306</vAcc></extensions></trkpt>
      <trkpt lon="-3.043551" lat="52.722413"><ele>332.667236</ele><time>2022-01-15T12:22:30Z</time><extensions><speed>0.756749</speed><course>161.645309</course><hAcc>1.759991</hAcc><vAcc>0.790748</vAcc></extensions></trkpt>
      <trkpt lon="-3.043549" lat="52.722408"><ele>332.505219</ele><time>2022-01-15T12:22:31Z</time><extensions><speed>0.555466</speed><course>180.673584</course><hAcc>1.761842</hAcc><vAcc>0.788071</vAcc></extensions></trkpt>
      <trkpt lon="-3.043550" lat="52.722403"><ele>332.333435</ele><time>2022-01-15T12:22:32Z</time><extensions><speed>0.430847</speed><course>193.642029</course><hAcc>1.786487</hAcc><vAcc>0.785262</vAcc></extensions></trkpt>
      <trkpt lon="-3.043551" lat="52.722400"><ele>332.194611</ele><time>2022-01-15T12:22:33Z</time><extensions><speed>0.310907</speed><course>186.816803</course><hAcc>1.813650</hAcc><vAcc>0.782329</vAcc></extensions></trkpt>
      <trkpt lon="-3.043551" lat="52.722396"><ele>332.061249</ele><time>2022-01-15T12:22:34Z</time><extensions><speed>0.534241</speed><course>175.633942</course><hAcc>1.773084</hAcc><vAcc>0.779194</vAcc></extensions></trkpt>
      <trkpt lon="-3.043550" lat="52.722391"><ele>331.926941</ele><time>2022-01-15T12:22:35Z</time><extensions><speed>0.633336</speed><course>173.923508</course><hAcc>1.753620</hAcc><vAcc>0.776077</vAcc></extensions></trkpt>
      <trkpt lon="-3.043549" lat="52.722385"><ele>331.791321</ele><time>2022-01-15T12:22:36Z</time><extensions><speed>0.623105</speed><course>174.785400</course><hAcc>1.751863</hAcc><vAcc>0.772966</vAcc></extensions></trkpt>
      <trkpt lon="-3.043548" lat="52.722380"><ele>331.651489</ele><time>2022-01-15T12:22:37Z</time><extensions><speed>0.539143</speed><course>174.331985</course><hAcc>1.730647</hAcc><vAcc>0.769956</vAcc></extensions></trkpt>
      <trkpt lon="-3.043547" lat="52.722376"><ele>331.526733</ele><time>2022-01-15T12:22:38Z</time><extensions><speed>0.374605</speed><course>175.752151</course><hAcc>1.731294</hAcc><vAcc>0.767115</vAcc></extensions></trkpt>
      <trkpt lon="-3.043547" lat="52.722373"><ele>331.407104</ele><time>2022-01-15T12:22:39Z</time><extensions><speed>0.157700</speed><course>176.846848</course><hAcc>1.758440</hAcc><vAcc>0.764589</vAcc></extensions></trkpt>
      <trkpt lon="-3.043546" lat="52.722372"><ele>331.295227</ele><time>2022-01-15T12:22:40Z</time><extensions><speed>0.137896</speed><course>167.458939</course><hAcc>1.743077</hAcc><vAcc>0.762314</vAcc></extensions></trkpt>
      <trkpt lon="-3.043545" lat="52.722370"><ele>331.197998</ele><time>2022-01-15T12:22:41Z</time><extensions><speed>0.195775</speed><course>158.656235</course><hAcc>1.710889</hAcc><vAcc>0.760286</vAcc></extensions></trkpt>
      <trkpt lon="-3.043544" lat="52.722368"><ele>331.096497</ele><time>2022-01-15T12:22:42Z</time><extensions><speed>0.309253</speed><course>157.882858</course><hAcc>1.679996</hAcc><vAcc>0.758637</vAcc></extensions></trkpt>
      <trkpt lon="-3.043542" lat="52.722366"><ele>331.007050</ele><time>2022-01-15T12:22:43Z</time><extensions><speed>0.230673</speed><course>146.549637</course><hAcc>1.711052</hAcc><vAcc>0.757399</vAcc></extensions></trkpt>
      <trkpt lon="-3.043539" lat="52.722364"><ele>330.921478</ele><time>2022-01-15T12:22:44Z</time><extensions><speed>0.249568</speed><course>137.950394</course><hAcc>1.716746</hAcc><vAcc>0.756736</vAcc></extensions></trkpt>
      <trkpt lon="-3.043537" lat="52.722363"><ele>330.809479</ele><time>2022-01-15T12:22:45Z</time><extensions><speed>0.253542</speed><course>130.572998</course><hAcc>1.731750</hAcc><vAcc>0.756657</vAcc></extensions></trkpt>
      <trkpt lon="-3.043533" lat="52.722361"><ele>330.712738</ele><time>2022-01-15T12:22:46Z</time><extensions><speed>0.283963</speed><course>123.445320</course><hAcc>1.746895</hAcc><vAcc>0.757187</vAcc></extensions></trkpt>
      <trkpt lon="-3.043529" lat="52.722360"><ele>330.620605</ele><time>2022-01-15T12:22:47Z</time><extensions><speed>0.333289</speed><course>118.395294</course><hAcc>1.757513</hAcc><vAcc>0.758278</vAcc></extensions></trkpt>
      <trkpt lon="-3.043524" lat="52.722358"><ele>330.532227</ele><time>2022-01-15T12:22:48Z</time><extensions><speed>0.428542</speed><course>113.903587</course><hAcc>1.758278</hAcc><vAcc>0.759741</vAcc></extensions></trkpt>
      <trkpt lon="-3.043518" lat="52.722357"><ele>330.442108</ele><time>2022-01-15T12:22:49Z</time><extensions><speed>0.520668</speed><course>110.161003</course><hAcc>1.767600</hAcc><vAcc>0.761391</vAcc></extensions></trkpt>
      <trkpt lon="-3.043510" lat="52.722355"><ele>330.350250</ele><time>2022-01-15T12:22:50Z</time><extensions><speed>0.564336</speed><course>108.483192</course><hAcc>1.786313</hAcc><vAcc>0.763032</vAcc></extensions></trkpt>
      <trkpt lon="-3.043502" lat="52.722354"><ele>330.255890</ele><time>2022-01-15T12:22:51Z</time><extensions><speed>0.573943</speed><course>108.859367</course><hAcc>1.800982</hAcc><vAcc>0.764574</vAcc></extensions></trkpt>
      <trkpt lon="-3.043494" lat="52.722352"><ele>330.139893</ele><time>2022-01-15T12:22:52Z</time><extensions><speed>0.562949</speed><course>112.093361</course><hAcc>1.810096</hAcc><vAcc>0.765892</vAcc></extensions></trkpt>
      <trkpt lon="-3.043486" lat="52.722350"><ele>330.042938</ele><time>2022-01-15T12:22:53Z</time><extensions><speed>0.610324</speed><course>117.310753</course><hAcc>1.810380</hAcc><vAcc>0.766893</vAcc></extensions></trkpt>
      <trkpt lon="-3.043478" lat="52.722347"><ele>329.941620</ele><time>2022-01-15T12:22:54Z</time><extensions><speed>0.689133</speed><course>124.258430</course><hAcc>1.820229</hAcc><vAcc>0.767476</vAcc></extensions></trkpt>
      <trkpt lon="-3.043469" lat="52.722344"><ele>329.837463</ele><time>2022-01-15T12:22:55Z</time><extensions><speed>0.647629</speed><course>115.571541</course><hAcc>1.829314</hAcc><vAcc>0.767624</vAcc></extensions></trkpt>
      <trkpt lon="-3.043460" lat="52.722342"><ele>329.736359</ele><time>2022-01-15T12:22:56Z</time><extensions><speed>0.639663</speed><course>101.688789</course><hAcc>1.820461</hAcc><vAcc>0.767422</vAcc></extensions></trkpt>
      <trkpt lon="-3.043451" lat="52.722341"><ele>329.633240</ele><time>2022-01-15T12:22:57Z</time><extensions><speed>0.549551</speed><course>95.970451</course><hAcc>1.820257</hAcc><vAcc>0.766861</vAcc></extensions></trkpt>
      <trkpt lon="-3.043443" lat="52.722341"><ele>329.533875</ele><time>2022-01-15T12:22:58Z</time><extensions><speed>0.562284</speed><course>92.798477</course><hAcc>1.820353</hAcc><vAcc>0.765888</vAcc></extensions></trkpt>
      <trkpt lon="-3.043434" lat="52.722340"><ele>329.420929</ele><time>2022-01-15T12:22:59Z</time><extensions><speed>0.613414</speed><course>90.843292</course><hAcc>1.815516</hAcc><vAcc>0.764628</vAcc></extensions></trkpt>
      <trkpt lon="-3.043425" lat="52.722340"><ele>329.324951</ele><time>2022-01-15T12:23:00Z</time><extensions><speed>0.691141</speed><course>89.349098</course><hAcc>1.810275</hAcc><vAcc>0.763084</vAcc></extensions></trkpt>
      <trkpt lon="-3.043415" lat="52.722340"><ele>329.230988</ele><time>2022-01-15T12:23:01Z</time><extensions><speed>0.541247</speed><course>90.319542</course><hAcc>1.829912</hAcc><vAcc>0.761269</vAcc></extensions></trkpt>
      <trkpt lon="-3.043408" lat="52.722340"><ele>329.142883</ele><time>2022-01-15T12:23:02Z</time><extensions><speed>0.483563</speed><course>91.176888</course><hAcc>1.836488</hAcc><vAcc>0.759267</vAcc></extensions></trkpt>
      <trkpt lon="-3.043401" lat="52.722340"><ele>329.045685</ele><time>2022-01-15T12:23:03Z</time><extensions><speed>0.463525</speed><course>91.958374</course><hAcc>1.832538</hAcc><vAcc>0.757084</vAcc></extensions></trkpt>
      <trkpt lon="-3.043394" lat="52.722340"><ele>328.950745</ele><time>2022-01-15T12:23:04Z</time><extensions><speed>0.472435</speed><course>93.245552</course><hAcc>1.824552</hAcc><vAcc>0.754782</vAcc></extensions></trkpt>
      <trkpt lon="-3.043387" lat="52.722340"><ele>328.854919</ele><time>2022-01-15T12:23:05Z</time><extensions><speed>0.476855</speed><course>95.333710</course><hAcc>1.823388</hAcc><vAcc>0.752279</vAcc></extensions></trkpt>
      <trkpt lon="-3.043380" lat="52.722339"><ele>328.752502</ele><time>2022-01-15T12:23:06Z</time><extensions><speed>0.480899</speed><course>96.455589</course><hAcc>1.827601</hAcc><vAcc>0.749543</vAcc></extensions></trkpt>
      <trkpt lon="-3.043372" lat="52.722339"><ele>328.646027</ele><time>2022-01-15T12:23:07Z</time><extensions><speed>0.503743</speed><course>95.995979</course><hAcc>1.830899</hAcc><vAcc>0.746343</vAcc></extensions></trkpt>
      <trkpt lon="-3.043364" lat="52.722338"><ele>328.550293</ele><time>2022-01-15T12:23:08Z</time><extensions><speed>0.538417</speed><course>94.916115</course><hAcc>1.832698</hAcc><vAcc>0.742668</vAcc></extensions></trkpt>
      <trkpt lon="-3.043356" lat="52.722338"><ele>328.450165</ele><time>2022-01-15T12:23:09Z</time><extensions><speed>0.600004</speed><course>93.838516</course><hAcc>1.828990</hAcc><vAcc>0.738639</vAcc></extensions></trkpt>
      <trkpt lon="-3.043347" lat="52.722338"><ele>328.353882</ele><time>2022-01-15T12:23:10Z</time><extensions><speed>0.656428</speed><course>93.359787</course><hAcc>1.836648</hAcc><vAcc>0.734170</vAcc></extensions></trkpt>
      <trkpt lon="-3.043338" lat="52.722337"><ele>328.252380</ele><time>2022-01-15T12:23:11Z</time><extensions><speed>0.499636</speed><course>91.943901</course><hAcc>1.866243</hAcc><vAcc>0.729314</vAcc></extensions></trkpt>
      <trkpt lon="-3.043330" lat="52.722337"><ele>328.150146</ele><time>2022-01-15T12:23:12Z</time><extensions><speed>0.509609</speed><course>91.379578</course><hAcc>1.862430</hAcc><vAcc>0.724167</vAcc></extensions></trkpt>
      <trkpt lon="-3.043323" lat="52.722337"><ele>328.042267</ele><time>2022-01-15T12:23:13Z</time><extensions><speed>0.528252</speed><course>91.279770</course><hAcc>1.860791</hAcc><vAcc>0.718815</vAcc></extensions></trkpt>
      <trkpt lon="-3.043315" lat="52.722337"><ele>327.932159</ele><time>2022-01-15T12:23:14Z</time><extensions><speed>0.553945</speed><course>91.523376</course><hAcc>1.868119</hAcc><vAcc>0.713224</vAcc></extensions></trkpt>
      <trkpt lon="-3.043306" lat="52.722337"><ele>327.818787</ele><time>2022-01-15T12:23:15Z</time><extensions><speed>0.575578</speed><course>92.179962</course><hAcc>1.879037</hAcc><vAcc>0.707563</vAcc></extensions></trkpt>
      <trkpt lon="-3.043298" lat="52.722337"><ele>327.705414</ele><time>2022-01-15T12:23:16Z</time><extensions><speed>0.581371</speed><course>93.249908</course><hAcc>1.892130</hAcc><vAcc>0.701735</vAcc></extensions></trkpt>
      <trkpt lon="-3.043289" lat="52.722336"><ele>327.604065</ele><time>2022-01-15T12:23:17Z</time><extensions><speed>0.588600</speed><course>93.928673</course><hAcc>1.900579</hAcc><vAcc>0.695894</vAcc></extensions></trkpt>
      <trkpt lon="-3.043280" lat="52.722336"><ele>327.495575</ele><time>2022-01-15T12:23:18Z</time><extensions><speed>0.588519</speed><course>93.425156</course><hAcc>1.904429</hAcc><vAcc>0.690192</vAcc></extensions></trkpt>
      <trkpt lon="-3.043272" lat="52.722336"><ele>327.391693</ele><time>2022-01-15T12:23:19Z</time><extensions><speed>0.572772</speed><course>93.918129</course><hAcc>1.908490</hAcc><vAcc>0.684457</vAcc></extensions></trkpt>
      <trkpt lon="-3.043263" lat="52.722335"><ele>327.283661</ele><time>2022-01-15T12:23:20Z</time><extensions><speed>0.548847</speed><course>97.842613</course><hAcc>1.914587</hAcc><vAcc>0.678507</vAcc></extensions></trkpt>
      <trkpt lon="-3.043255" lat="52.722334"><ele>327.178833</ele><time>2022-01-15T12:23:21Z</time><extensions><speed>0.537563</speed><course>103.142426</course><hAcc>1.920066</hAcc><vAcc>0.672102</vAcc></extensions></trkpt>
      <trkpt lon="-3.043248" lat="52.722333"><ele>327.074127</ele><time>2022-01-15T12:23:22Z</time><extensions><speed>0.531724</speed><course>107.275856</course><hAcc>1.926032</hAcc><vAcc>0.664995</vAcc></extensions></trkpt>
      <trkpt lon="-3.043240" lat="52.722331"><ele>326.972748</ele><time>2022-01-15T12:23:23Z</time><extensions><speed>0.515510</speed><course>110.161957</course><hAcc>1.934975</hAcc><vAcc>0.656989</vAcc></extensions></trkpt>
      <trkpt lon="-3.043234" lat="52.722330"><ele>326.878418</ele><time>2022-01-15T12:23:24Z</time><extensions><speed>0.477443</speed><course>111.992340</course><hAcc>1.948860</hAcc><vAcc>0.647994</vAcc></extensions></trkpt>
      <trkpt lon="-3.043227" lat="52.722328"><ele>326.782684</ele><time>2022-01-15T12:23:25Z</time><extensions><speed>0.426870</speed><course>112.622383</course><hAcc>1.965972</hAcc><vAcc>0.638002</vAcc></extensions></trkpt>
      <trkpt lon="-3.043222" lat="52.722327"><ele>326.684906</ele><time>2022-01-15T12:23:26Z</time><extensions><speed>0.377687</speed><course>111.123810</course><hAcc>1.982954</hAcc><vAcc>0.627047</vAcc></extensions></trkpt>
      <trkpt lon="-3.043217" lat="52.722326"><ele>326.585052</ele><time>2022-01-15T12:23:27Z</time><extensions><speed>0.337867</speed><course>106.629356</course><hAcc>1.998017</hAcc><vAcc>0.615205</vAcc></extensions></trkpt>
      <trkpt lon="-3.043212" lat="52.722325"><ele>326.484802</ele><time>2022-01-15T12:23:28Z</time><extensions><speed>0.317062</speed><course>99.326286</course><hAcc>2.012197</hAcc><vAcc>0.602532</vAcc></extensions></trkpt>
      <trkpt lon="-3.043207" lat="52.722325"><ele>326.382202</ele><time>2022-01-15T12:23:29Z</time><extensions><speed>0.329923</speed><course>91.591057</course><hAcc>2.025691</hAcc><vAcc>0.589091</vAcc></extensions></trkpt>
      <trkpt lon="-3.043202" lat="52.722325"><ele>326.277710</ele><time>2022-01-15T12:23:30Z</time><extensions><speed>0.372045</speed><course>86.495872</course><hAcc>2.039990</hAcc><vAcc>0.575081</vAcc></extensions></trkpt>
      <trkpt lon="-3.043195" lat="52.722325"><ele>326.172546</ele><time>2022-01-15T12:23:31Z</time><extensions><speed>0.439776</speed><course>83.997864</course><hAcc>2.050578</hAcc><vAcc>0.560900</vAcc></extensions></trkpt>
      <trkpt lon="-3.043188" lat="52.722326"><ele>326.059357</ele><time>2022-01-15T12:23:32Z</time><extensions><speed>0.512290</speed><course>81.909676</course><hAcc>2.059234</hAcc><vAcc>0.547203</vAcc></extensions></trkpt>
      <trkpt lon="-3.043180" lat="52.722326"><ele>325.943512</ele><time>2022-01-15T12:23:33Z</time><extensions><speed>0.566226</speed><course>80.507614</course><hAcc>2.069589</hAcc><vAcc>0.534919</vAcc></extensions></trkpt>
      <trkpt lon="-3.043171" lat="52.722327"><ele>325.816071</ele><time>2022-01-15T12:23:34Z</time><extensions><speed>0.584730</speed><course>80.502518</course><hAcc>2.083579</hAcc><vAcc>0.525111</vAcc></extensions></trkpt>
      <trkpt lon="-3.043163" lat="52.722328"><ele>325.683014</ele><time>2022-01-15T12:23:35Z</time><extensions><speed>0.566129</speed><course>82.040756</course><hAcc>2.102359</hAcc><vAcc>0.518758</vAcc></extensions></trkpt>
      <trkpt lon="-3.043155" lat="52.722329"><ele>325.545105</ele><time>2022-01-15T12:23:36Z</time><extensions><speed>0.523885</speed><course>85.334465</course><hAcc>2.116500</hAcc><vAcc>0.516441</vAcc></extensions></trkpt>
      <trkpt lon="-3.043146" lat="52.722329"><ele>325.403381</ele><time>2022-01-15T12:23:37Z</time><extensions><speed>0.583160</speed><course>90.079926</course><hAcc>2.097566</hAcc><vAcc>0.518178</vAcc></extensions></trkpt>
      <trkpt lon="-3.043137" lat="52.722328"><ele>325.258759</ele><time>2022-01-15T12:23:38Z</time><extensions><speed>0.645989</speed><course>95.365730</course><hAcc>2.072620</hAcc><vAcc>0.523498</vAcc></extensions></trkpt>
      <trkpt lon="-3.043127" lat="52.722328"><ele>325.106018</ele><time>2022-01-15T12:23:39Z</time><extensions><speed>0.689428</speed><course>99.807777</course><hAcc>2.053236</hAcc><vAcc>0.531694</vAcc></extensions></trkpt>
      <trkpt lon="-3.043116" lat="52.722326"><ele>324.948639</ele><time>2022-01-15T12:23:40Z</time><extensions><speed>0.694845</speed><course>102.536667</course><hAcc>2.039364</hAcc><vAcc>0.541992</vAcc></extensions></trkpt>
      <trkpt lon="-3.043106" lat="52.722325"><ele>324.787994</ele><time>2022-01-15T12:23:41Z</time><extensions><speed>0.688036</speed><course>102.994057</course><hAcc>2.024599</hAcc><vAcc>0.553668</vAcc></extensions></trkpt>
      <trkpt lon="-3.043096" lat="52.722324"><ele>324.623962</ele><time>2022-01-15T12:23:42Z</time><extensions><speed>0.686941</speed><course>101.423851</course><hAcc>2.010584</hAcc><vAcc>0.566011</vAcc></extensions></trkpt>
      <trkpt lon="-3.043086" lat="52.722323"><ele>324.457672</ele><time>2022-01-15T12:23:43Z</time><extensions><speed>0.650067</speed><course>98.718491</course><hAcc>2.006182</hAcc><vAcc>0.578349</vAcc></extensions></trkpt>
      <trkpt lon="-3.043076" lat="52.722322"><ele>324.285370</ele><time>2022-01-15T12:23:44Z</time><extensions><speed>0.693396</speed><course>95.961250</course><hAcc>1.990222</hAcc><vAcc>0.590163</vAcc></extensions></trkpt>
      <trkpt lon="-3.043065" lat="52.722321"><ele>324.112030</ele><time>2022-01-15T12:23:45Z</time><extensions><speed>0.740469</speed><course>94.145142</course><hAcc>1.978276</hAcc><vAcc>0.601054</vAcc></extensions></trkpt>
      <trkpt lon="-3.043054" lat="52.722321"><ele>323.935608</ele><time>2022-01-15T12:23:46Z</time><extensions><speed>0.792813</speed><course>92.737312</course><hAcc>1.972529</hAcc><vAcc>0.610863</vAcc></extensions></trkpt>
      <trkpt lon="-3.043041" lat="52.722321"><ele>323.753693</ele><time>2022-01-15T12:23:47Z</time><extensions><speed>0.844462</speed><course>91.122238</course><hAcc>1.969069</hAcc><vAcc>0.619665</vAcc></extensions></trkpt>
      <trkpt lon="-3.043029" lat="52.722321"><ele>323.564392</ele><time>2022-01-15T12:23:48Z</time><extensions><speed>0.879041</speed><course>89.432617</course><hAcc>1.966596</hAcc><vAcc>0.627801</vAcc></extensions></trkpt>
      <trkpt lon="-3.043015" lat="52.722321"><ele>323.376587</ele><time>2022-01-15T12:23:49Z</time><extensions><speed>0.894441</speed><course>87.831993</course><hAcc>1.963721</hAcc><vAcc>0.635670</vAcc></extensions></trkpt>
      <trkpt lon="-3.043002" lat="52.722321"><ele>323.181183</ele><time>2022-01-15T12:23:50Z</time><extensions><speed>0.875269</speed><course>86.237938</course><hAcc>1.959220</hAcc><vAcc>0.643547</vAcc></extensions></trkpt>
      <trkpt lon="-3.042989" lat="52.722322"><ele>322.987823</ele><time>2022-01-15T12:23:51Z</time><extensions><speed>0.856740</speed><course>85.266190</course><hAcc>1.946312</hAcc><vAcc>0.651653</vAcc></extensions></trkpt>
      <trkpt lon="-3.042976" lat="52.722322"><ele>322.788483</ele><time>2022-01-15T12:23:52Z</time><extensions><speed>0.862331</speed><course>86.357292</course><hAcc>1.928697</hAcc><vAcc>0.659898</vAcc></extensions></trkpt>
      <trkpt lon="-3.042963" lat="52.722323"><ele>322.587769</ele><time>2022-01-15T12:23:53Z</time><extensions><speed>0.884270</speed><course>91.288673</course><hAcc>1.924442</hAcc><vAcc>0.668297</vAcc></extensions></trkpt>
      <trkpt lon="-3.042949" lat="52.722322"><ele>322.377533</ele><time>2022-01-15T12:23:54Z</time><extensions><speed>0.994456</speed><course>99.843674</course><hAcc>1.928692</hAcc><vAcc>0.676238</vAcc></extensions></trkpt>
      <trkpt lon="-3.042935" lat="52.722320"><ele>322.158569</ele><time>2022-01-15T12:23:55Z</time><extensions><speed>1.012657</speed><course>102.216042</course><hAcc>1.892177</hAcc><vAcc>0.683466</vAcc></extensions></trkpt>
      <trkpt lon="-3.042921" lat="52.722318"><ele>321.940643</ele><time>2022-01-15T12:23:56Z</time><extensions><speed>0.939642</speed><course>103.395714</course><hAcc>1.849911</hAcc><vAcc>0.689600</vAcc></extensions></trkpt>
      <trkpt lon="-3.042908" lat="52.722316"><ele>321.714142</ele><time>2022-01-15T12:23:57Z</time><extensions><speed>0.820420</speed><course>105.436882</course><hAcc>1.835490</hAcc><vAcc>0.694391</vAcc></extensions></trkpt>
      <trkpt lon="-3.042897" lat="52.722314"><ele>321.482727</ele><time>2022-01-15T12:23:58Z</time><extensions><speed>0.649547</speed><course>108.192940</course><hAcc>1.859446</hAcc><vAcc>0.697716</vAcc></extensions></trkpt>
      <trkpt lon="-3.042890" lat="52.722313"><ele>321.258026</ele><time>2022-01-15T12:23:59Z</time><extensions><speed>0.398751</speed><course>111.675278</course><hAcc>1.904776</hAcc><vAcc>0.699571</vAcc></extensions></trkpt>
      <trkpt lon="-3.042885" lat="52.722311"><ele>321.027191</ele><time>2022-01-15T12:24:00Z</time><extensions><speed>0.408173</speed><course>115.140381</course><hAcc>1.895972</hAcc><vAcc>0.700069</vAcc></extensions></trkpt>
      <trkpt lon="-3.042878" lat="52.722309"><ele>320.797119</ele><time>2022-01-15T12:24:01Z</time><extensions><speed>0.582300</speed><course>115.613617</course><hAcc>1.854060</hAcc><vAcc>0.699239</vAcc></extensions></trkpt>
      <trkpt lon="-3.042870" lat="52.722307"><ele>320.579285</ele><time>2022-01-15T12:24:02Z</time><extensions><speed>0.563854</speed><course>113.267586</course><hAcc>1.855703</hAcc><vAcc>0.697259</vAcc></extensions></trkpt>
      <trkpt lon="-3.042862" lat="52.722305"><ele>320.355865</ele><time>2022-01-15T12:24:03Z</time><extensions><speed>0.599363</speed><course>110.017921</course><hAcc>1.868312</hAcc><vAcc>0.694359</vAcc></extensions></trkpt>
      <trkpt lon="-3.042853" lat="52.722303"><ele>320.132843</ele><time>2022-01-15T12:24:04Z</time><extensions><speed>0.700748</speed><course>107.066170</course><hAcc>1.874083</hAcc><vAcc>0.690558</vAcc></extensions></trkpt>
      <trkpt lon="-3.042841" lat="52.722301"><ele>319.909607</ele><time>2022-01-15T12:24:05Z</time><extensions><speed>0.896432</speed><course>105.827438</course><hAcc>1.881484</hAcc><vAcc>0.685829</vAcc></extensions></trkpt>
      <trkpt lon="-3.042828" lat="52.722299"><ele>319.691772</ele><time>2022-01-15T12:24:06Z</time><extensions><speed>0.917268</speed><course>105.351082</course><hAcc>1.904150</hAcc><vAcc>0.680224</vAcc></extensions></trkpt>
      <trkpt lon="-3.042815" lat="52.722297"><ele>319.467377</ele><time>2022-01-15T12:24:07Z</time><extensions><speed>0.900273</speed><course>103.787209</course><hAcc>1.908085</hAcc><vAcc>0.673857</vAcc></extensions></trkpt>
      <trkpt lon="-3.042802" lat="52.722295"><ele>319.246735</ele><time>2022-01-15T12:24:08Z</time><extensions><speed>0.882718</speed><course>102.605507</course><hAcc>1.905505</hAcc><vAcc>0.666950</vAcc></extensions></trkpt>
      <trkpt lon="-3.042790" lat="52.722294"><ele>319.027466</ele><time>2022-01-15T12:24:09Z</time><extensions><speed>0.809707</speed><course>100.300148</course><hAcc>1.904874</hAcc><vAcc>0.659814</vAcc></extensions></trkpt>
      <trkpt lon="-3.042779" lat="52.722292"><ele>318.809540</ele><time>2022-01-15T12:24:10Z</time><extensions><speed>0.667101</speed><course>98.841080</course><hAcc>1.924442</hAcc><vAcc>0.652807</vAcc></extensions></trkpt>
      <trkpt lon="-3.042771" lat="52.722292"><ele>318.595703</ele><time>2022-01-15T12:24:11Z</time><extensions><speed>0.501832</speed><course>99.074806</course><hAcc>1.951224</hAcc><vAcc>0.646331</vAcc></extensions></trkpt>
      <trkpt lon="-3.042764" lat="52.722291"><ele>318.385895</ele><time>2022-01-15T12:24:12Z</time><extensions><speed>0.450032</speed><course>102.315018</course><hAcc>1.961497</hAcc><vAcc>0.640778</vAcc></extensions></trkpt>
      <trkpt lon="-3.042757" lat="52.722290"><ele>318.178772</ele><time>2022-01-15T12:24:13Z</time><extensions><speed>0.444663</speed><course>108.290276</course><hAcc>1.964785</hAcc><vAcc>0.636363</vAcc></extensions></trkpt>
      <trkpt lon="-3.042751" lat="52.722288"><ele>317.979675</ele><time>2022-01-15T12:24:14Z</time><extensions><speed>0.486446</speed><course>114.999924</course><hAcc>1.963983</hAcc><vAcc>0.633065</vAcc></extensions></trkpt>
      <trkpt lon="-3.042743" lat="52.722286"><ele>317.787750</ele><time>2022-01-15T12:24:15Z</time><extensions><speed>0.586201</speed><course>118.943161</course><hAcc>1.951022</hAcc><vAcc>0.630640</vAcc></extensions></trkpt>
      <trkpt lon="-3.042735" lat="52.722283"><ele>317.601166</ele><time>2022-01-15T12:24:16Z</time><extensions><speed>0.760918</speed><course>119.524727</course><hAcc>1.926349</hAcc><vAcc>0.628771</vAcc></extensions></trkpt>
      <trkpt lon="-3.042725" lat="52.722279"><ele>317.421082</ele><time>2022-01-15T12:24:17Z</time><extensions><speed>0.742473</speed><course>120.766876</course><hAcc>1.926348</hAcc><vAcc>0.627164</vAcc></extensions></trkpt>
      <trkpt lon="-3.042716" lat="52.722276"><ele>317.251556</ele><time>2022-01-15T12:24:18Z</time><extensions><speed>0.673191</speed><course>120.916504</course><hAcc>1.927404</hAcc><vAcc>0.625623</vAcc></extensions></trkpt>
      <trkpt lon="-3.042708" lat="52.722273"><ele>317.093018</ele><time>2022-01-15T12:24:19Z</time><extensions><speed>0.496085</speed><course>121.484840</course><hAcc>1.938557</hAcc><vAcc>0.624025</vAcc></extensions></trkpt>
      <trkpt lon="-3.042702" lat="52.722271"><ele>316.953247</ele><time>2022-01-15T12:24:20Z</time><extensions><speed>0.429184</speed><course>121.122879</course><hAcc>1.932491</hAcc><vAcc>0.622258</vAcc></extensions></trkpt>
      <trkpt lon="-3.042697" lat="52.722270"><ele>316.826050</ele><time>2022-01-15T12:24:21Z</time><extensions><speed>0.388482</speed><course>119.016685</course><hAcc>1.918643</hAcc><vAcc>0.620288</vAcc></extensions></trkpt>
      <trkpt lon="-3.042691" lat="52.722268"><ele>316.708008</ele><time>2022-01-15T12:24:22Z</time><extensions><speed>0.351030</speed><course>114.814644</course><hAcc>1.906922</hAcc><vAcc>0.618048</vAcc></extensions></trkpt>
      <trkpt lon="-3.042687" lat="52.722267"><ele>316.598450</ele><time>2022-01-15T12:24:23Z</time><extensions><speed>0.313340</speed><course>108.402138</course><hAcc>1.902407</hAcc><vAcc>0.615470</vAcc></extensions></trkpt>
      <trkpt lon="-3.042682" lat="52.722266"><ele>316.492767</ele><time>2022-01-15T12:24:24Z</time><extensions><speed>0.293357</speed><course>100.732147</course><hAcc>1.901220</hAcc><vAcc>0.612558</vAcc></extensions></trkpt>
      <trkpt lon="-3.042678" lat="52.722266"><ele>316.394836</ele><time>2022-01-15T12:24:25Z</time><extensions><speed>0.273142</speed><course>93.491592</course><hAcc>1.903433</hAcc><vAcc>0.609502</vAcc></extensions></trkpt>
      <trkpt lon="-3.042673" lat="52.722266"><ele>316.300385</ele><time>2022-01-15T12:24:26Z</time><extensions><speed>0.282574</speed><course>87.399910</course><hAcc>1.894782</hAcc><vAcc>0.606686</vAcc></extensions></trkpt>
      <trkpt lon="-3.042669" lat="52.722266"><ele>316.208099</ele><time>2022-01-15T12:24:27Z</time><extensions><speed>0.286238</speed><course>82.753242</course><hAcc>1.891308</hAcc><vAcc>0.604592</vAcc></extensions></trkpt>
      <trkpt lon="-3.042665" lat="52.722266"><ele>316.119171</ele><time>2022-01-15T12:24:28Z</time><extensions><speed>0.283239</speed><course>81.810249</course><hAcc>1.896934</hAcc><vAcc>0.603635</vAcc></extensions></trkpt>
      <trkpt lon="-3.042660" lat="52.722267"><ele>316.029724</ele><time>2022-01-15T12:24:29Z</time><extensions><speed>0.296257</speed><course>83.977440</course><hAcc>1.899426</hAcc><vAcc>0.604130</vAcc></extensions></trkpt>
      <trkpt lon="-3.042655" lat="52.722267"><ele>315.937469</ele><time>2022-01-15T12:24:30Z</time><extensions><speed>0.332258</speed><course>87.626663</course><hAcc>1.895373</hAcc><vAcc>0.606346</vAcc></extensions></trkpt>
      <trkpt lon="-3.042650" lat="52.722267"><ele>315.849182</ele><time>2022-01-15T12:24:31Z</time><extensions><speed>0.346276</speed><course>92.556358</course><hAcc>1.900654</hAcc><vAcc>0.610419</vAcc></extensions></trkpt>
      <trkpt lon="-3.042645" lat="52.722266"><ele>315.753265</ele><time>2022-01-15T12:24:32Z</time><extensions><speed>0.364900</speed><course>97.495926</course><hAcc>1.904556</hAcc><vAcc>0.616242</vAcc></extensions></trkpt>
      <trkpt lon="-3.042639" lat="52.722266"><ele>315.651398</ele><time>2022-01-15T12:24:33Z</time><extensions><speed>0.371138</speed><course>101.542702</course><hAcc>1.907328</hAcc><vAcc>0.623645</vAcc></extensions></trkpt>
      <trkpt lon="-3.042633" lat="52.722265"><ele>315.543915</ele><time>2022-01-15T12:24:34Z</time><extensions><speed>0.374483</speed><course>105.065956</course><hAcc>1.906269</hAcc><vAcc>0.632180</vAcc></extensions></trkpt>
      <trkpt lon="-3.042628" lat="52.722264"><ele>315.432007</ele><time>2022-01-15T12:24:35Z</time><extensions><speed>0.378480</speed><course>107.369743</course><hAcc>1.901959</hAcc><vAcc>0.641413</vAcc></extensions></trkpt>
      <trkpt lon="-3.042622" lat="52.722263"><ele>315.298859</ele><time>2022-01-15T12:24:36Z</time><extensions><speed>0.378131</speed><course>108.661026</course><hAcc>1.900701</hAcc><vAcc>0.650763</vAcc></extensions></trkpt>
      <trkpt lon="-3.042616" lat="52.722262"><ele>315.160248</ele><time>2022-01-15T12:24:37Z</time><extensions><speed>0.403266</speed><course>109.995567</course><hAcc>1.895824</hAcc><vAcc>0.659824</vAcc></extensions></trkpt>
      <trkpt lon="-3.042610" lat="52.722261"><ele>315.013824</ele><time>2022-01-15T12:24:38Z</time><extensions><speed>0.451799</speed><course>110.294128</course><hAcc>1.889250</hAcc><vAcc>0.668104</vAcc></extensions></trkpt>
      <trkpt lon="-3.042603" lat="52.722259"><ele>314.870239</ele><time>2022-01-15T12:24:39Z</time><extensions><speed>0.488409</speed><course>107.775101</course><hAcc>1.891772</hAcc><vAcc>0.675347</vAcc></extensions></trkpt>
      <trkpt lon="-3.042596" lat="52.722258"><ele>314.717865</ele><time>2022-01-15T12:24:40Z</time><extensions><speed>0.537711</speed><course>102.546097</course><hAcc>1.896193</hAcc><vAcc>0.681620</vAcc></extensions></trkpt>
      <trkpt lon="-3.042587" lat="52.722257"><ele>314.550018</ele><time>2022-01-15T12:24:41Z</time><extensions><speed>0.610088</speed><course>96.248726</course><hAcc>1.896408</hAcc><vAcc>0.686985</vAcc></extensions></trkpt>
      <trkpt lon="-3.042577" lat="52.722257"><ele>314.372894</ele><time>2022-01-15T12:24:42Z</time><extensions><speed>0.693506</speed><course>90.962662</course><hAcc>1.894256</hAcc><vAcc>0.691655</vAcc></extensions></trkpt>
      <trkpt lon="-3.042566" lat="52.722257"><ele>314.192566</ele><time>2022-01-15T12:24:43Z</time><extensions><speed>0.749716</speed><course>87.850143</course><hAcc>1.895365</hAcc><vAcc>0.695845</vAcc></extensions></trkpt>
      <trkpt lon="-3.042554" lat="52.722257"><ele>314.006744</ele><time>2022-01-15T12:24:44Z</time><extensions><speed>0.787745</speed><course>86.914963</course><hAcc>1.889797</hAcc><vAcc>0.699853</vAcc></extensions></trkpt>
      <trkpt lon="-3.042542" lat="52.722257"><ele>313.800995</ele><time>2022-01-15T12:24:45Z</time><extensions><speed>0.811400</speed><course>88.568390</course><hAcc>1.871655</hAcc><vAcc>0.703788</vAcc></extensions></trkpt>
      <trkpt lon="-3.042529" lat="52.722257"><ele>313.583191</ele><time>2022-01-15T12:24:46Z</time><extensions><speed>0.806350</speed><course>92.737587</course><hAcc>1.852306</hAcc><vAcc>0.707754</vAcc></extensions></trkpt>
      <trkpt lon="-3.042517" lat="52.722256"><ele>313.349487</ele><time>2022-01-15T12:24:47Z</time><extensions><speed>0.755676</speed><course>98.929665</course><hAcc>1.850011</hAcc><vAcc>0.711837</vAcc></extensions></trkpt>
      <trkpt lon="-3.042507" lat="52.722255"><ele>313.116669</ele><time>2022-01-15T12:24:48Z</time><extensions><speed>0.604724</speed><course>98.955933</course><hAcc>1.860462</hAcc><vAcc>0.716038</vAcc></extensions></trkpt>
      <trkpt lon="-3.042498" lat="52.722254"><ele>312.878906</ele><time>2022-01-15T12:24:49Z</time><extensions><speed>0.625070</speed><course>102.290810</course><hAcc>1.849207</hAcc><vAcc>0.720351</vAcc></extensions></trkpt>
      <trkpt lon="-3.042488" lat="52.722252"><ele>312.659760</ele><time>2022-01-15T12:24:50Z</time><extensions><speed>0.720582</speed><course>106.944672</course><hAcc>1.822705</hAcc><vAcc>0.724629</vAcc></extensions></trkpt>
      <trkpt lon="-3.042476" lat="52.722250"><ele>312.436188</ele><time>2022-01-15T12:24:51Z</time><extensions><speed>1.010324</speed><course>111.313431</course><hAcc>1.777611</hAcc><vAcc>0.728816</vAcc></extensions></trkpt>
      <trkpt lon="-3.042462" lat="52.722246"><ele>312.209167</ele><time>2022-01-15T12:24:52Z</time><extensions><speed>0.972648</speed><course>113.302879</course><hAcc>1.795021</hAcc><vAcc>0.732749</vAcc></extensions></trkpt>
      <trkpt lon="-3.042451" lat="52.722244"><ele>311.991760</ele><time>2022-01-15T12:24:53Z</time><extensions><speed>0.624480</speed><course>111.513062</course><hAcc>1.853779</hAcc><vAcc>0.736313</vAcc></extensions></trkpt>
      <trkpt lon="-3.042441" lat="52.722241"><ele>311.777313</ele><time>2022-01-15T12:24:54Z</time><extensions><speed>0.760822</speed><course>111.911133</course><hAcc>1.845207</hAcc><vAcc>0.739372</vAcc></extensions></trkpt>
      <trkpt lon="-3.042429" lat="52.722238"><ele>311.559174</ele><time>2022-01-15T12:24:55Z</time><extensions><speed>1.067717</speed><course>113.908333</course><hAcc>1.820596</hAcc><vAcc>0.742046</vAcc></extensions></trkpt>
      <trkpt lon="-3.042414" lat="52.722234"><ele>311.347931</ele><time>2022-01-15T12:24:56Z</time><extensions><speed>1.139251</speed><course>115.356552</course><hAcc>1.836261</hAcc><vAcc>0.744254</vAcc></extensions></trkpt>
      <trkpt lon="-3.042399" lat="52.722230"><ele>311.154144</ele><time>2022-01-15T12:24:57Z</time><extensions><speed>1.135255</speed><course>115.136436</course><hAcc>1.868192</hAcc><vAcc>0.746081</vAcc></extensions></trkpt>
      <trkpt lon="-3.042383" lat="52.722225"><ele>310.968964</ele><time>2022-01-15T12:24:58Z</time><extensions><speed>1.153716</speed><course>112.303070</course><hAcc>1.889010</hAcc><vAcc>0.747541</vAcc></extensions></trkpt>
      <trkpt lon="-3.042368" lat="52.722222"><ele>310.775940</ele><time>2022-01-15T12:24:59Z</time><extensions><speed>1.105205</speed><course>110.084442</course><hAcc>1.901466</hAcc><vAcc>0.748704</vAcc></extensions></trkpt>
      <trkpt lon="-3.042353" lat="52.722219"><ele>310.602203</ele><time>2022-01-15T12:25:00Z</time><extensions><speed>0.967235</speed><course>106.701553</course><hAcc>1.908458</hAcc><vAcc>0.749595</vAcc></extensions></trkpt>
      <trkpt lon="-3.042341" lat="52.722217"><ele>310.435181</ele><time>2022-01-15T12:25:01Z</time><extensions><speed>0.753811</speed><course>106.436020</course><hAcc>1.923740</hAcc><vAcc>0.750181</vAcc></extensions></trkpt>
      <trkpt lon="-3.042331" lat="52.722215"><ele>310.282410</ele><time>2022-01-15T12:25:02Z</time><extensions><speed>0.646458</speed><course>110.052406</course><hAcc>1.932376</hAcc><vAcc>0.750391</vAcc></extensions></trkpt>
      <trkpt lon="-3.042322" lat="52.722212"><ele>310.122345</ele><time>2022-01-15T12:25:03Z</time><extensions><speed>0.602098</speed><course>117.019913</course><hAcc>1.933246</hAcc><vAcc>0.750423</vAcc></extensions></trkpt>
      <trkpt lon="-3.042315" lat="52.722209"><ele>309.971191</ele><time>2022-01-15T12:25:04Z</time><extensions><speed>0.607032</speed><course>124.465599</course><hAcc>1.928165</hAcc><vAcc>0.750337</vAcc></extensions></trkpt>
      <trkpt lon="-3.042308" lat="52.722206"><ele>309.819550</ele><time>2022-01-15T12:25:05Z</time><extensions><speed>0.622616</speed><course>130.412186</course><hAcc>1.921312</hAcc><vAcc>0.750095</vAcc></extensions></trkpt>
      <trkpt lon="-3.042301" lat="52.722202"><ele>309.678833</ele><time>2022-01-15T12:25:06Z</time><extensions><speed>0.629223</speed><course>135.358643</course><hAcc>1.909843</hAcc><vAcc>0.749740</vAcc></extensions></trkpt>
      <trkpt lon="-3.042294" lat="52.722198"><ele>309.536469</ele><time>2022-01-15T12:25:07Z</time><extensions><speed>0.623571</speed><course>141.097244</course><hAcc>1.890818</hAcc><vAcc>0.749207</vAcc></extensions></trkpt>
      <trkpt lon="-3.042289" lat="52.722193"><ele>309.398376</ele><time>2022-01-15T12:25:08Z</time><extensions><speed>0.603449</speed><course>148.138763</course><hAcc>1.867821</hAcc><vAcc>0.748485</vAcc></extensions></trkpt>
      <trkpt lon="-3.042284" lat="52.722189"><ele>309.264099</ele><time>2022-01-15T12:25:09Z</time><extensions><speed>0.559970</speed><course>155.284821</course><hAcc>1.853154</hAcc><vAcc>0.747444</vAcc></extensions></trkpt>
      <trkpt lon="-3.042281" lat="52.722184"><ele>309.133118</ele><time>2022-01-15T12:25:10Z</time><extensions><speed>0.465490</speed><course>161.570084</course><hAcc>1.852222</hAcc><vAcc>0.746112</vAcc></extensions></trkpt>
      <trkpt lon="-3.042279" lat="52.722180"><ele>309.007172</ele><time>2022-01-15T12:25:11Z</time><extensions><speed>0.443172</speed><course>164.946121</course><hAcc>1.831439</hAcc><vAcc>0.744376</vAcc></extensions></trkpt>
      <trkpt lon="-3.042277" lat="52.722176"><ele>308.891266</ele><time>2022-01-15T12:25:12Z</time><extensions><speed>0.424291</speed><course>162.756561</course><hAcc>1.806709</hAcc><vAcc>0.742303</vAcc></extensions></trkpt>
      <trkpt lon="-3.042275" lat="52.722173"><ele>308.771515</ele><time>2022-01-15T12:25:13Z</time><extensions><speed>0.407583</speed><course>153.710556</course><hAcc>1.786572</hAcc><vAcc>0.740020</vAcc></extensions></trkpt>
      <trkpt lon="-3.042271" lat="52.722170"><ele>308.660034</ele><time>2022-01-15T12:25:14Z</time><extensions><speed>0.419991</speed><course>140.728653</course><hAcc>1.771106</hAcc><vAcc>0.737584</vAcc></extensions></trkpt>
      <trkpt lon="-3.042266" lat="52.722167"><ele>308.543243</ele><time>2022-01-15T12:25:15Z</time><extensions><speed>0.465761</speed><course>129.649033</course><hAcc>1.758530</hAcc><vAcc>0.734645</vAcc></extensions></trkpt>
      <trkpt lon="-3.042260" lat="52.722164"><ele>308.431549</ele><time>2022-01-15T12:25:16Z</time><extensions><speed>0.496298</speed><course>121.569305</course><hAcc>1.756352</hAcc><vAcc>0.731305</vAcc></extensions></trkpt>
      <trkpt lon="-3.042254" lat="52.722162"><ele>308.312805</ele><time>2022-01-15T12:25:17Z</time><extensions><speed>0.506147</speed><course>115.873856</course><hAcc>1.760368</hAcc><vAcc>0.727385</vAcc></extensions></trkpt>
      <trkpt lon="-3.042247" lat="52.722160"><ele>308.196381</ele><time>2022-01-15T12:25:18Z</time><extensions><speed>0.510283</speed><course>112.245926</course><hAcc>1.762510</hAcc><vAcc>0.722887</vAcc></extensions></trkpt>
      <trkpt lon="-3.042240" lat="52.722158"><ele>308.084045</ele><time>2022-01-15T12:25:19Z</time><extensions><speed>0.508827</speed><course>110.530563</course><hAcc>1.764532</hAcc><vAcc>0.717718</vAcc></extensions></trkpt>
      <trkpt lon="-3.042233" lat="52.722157"><ele>307.965759</ele><time>2022-01-15T12:25:20Z</time><extensions><speed>0.492028</speed><course>110.920189</course><hAcc>1.772462</hAcc><vAcc>0.711836</vAcc></extensions></trkpt>
      <trkpt lon="-3.042226" lat="52.722155"><ele>307.835510</ele><time>2022-01-15T12:25:21Z</time><extensions><speed>0.471075</speed><course>114.287292</course><hAcc>1.784144</hAcc><vAcc>0.705441</vAcc></extensions></trkpt>
      <trkpt lon="-3.042220" lat="52.722153"><ele>307.699524</ele><time>2022-01-15T12:25:22Z</time><extensions><speed>0.453290</speed><course>119.193130</course><hAcc>1.795057</hAcc><vAcc>0.698721</vAcc></extensions></trkpt>
      <trkpt lon="-3.042214" lat="52.722151"><ele>307.555237</ele><time>2022-01-15T12:25:23Z</time><extensions><speed>0.450151</speed><course>125.082039</course><hAcc>1.800958</hAcc><vAcc>0.691855</vAcc></extensions></trkpt>
      <trkpt lon="-3.042209" lat="52.722148"><ele>307.407257</ele><time>2022-01-15T12:25:24Z</time><extensions><speed>0.444551</speed><course>133.226898</course><hAcc>1.807516</hAcc><vAcc>0.684982</vAcc></extensions></trkpt>
      <trkpt lon="-3.042205" lat="52.722145"><ele>307.253082</ele><time>2022-01-15T12:25:25Z</time><extensions><speed>0.449020</speed><course>142.966232</course><hAcc>1.815614</hAcc><vAcc>0.678227</vAcc></extensions></trkpt>
      <trkpt lon="-3.042201" lat="52.722141"><ele>307.086823</ele><time>2022-01-15T12:25:26Z</time><extensions><speed>0.468660</speed><course>153.169754</course><hAcc>1.825871</hAcc><vAcc>0.671756</vAcc></extensions></trkpt>
      <trkpt lon="-3.042198" lat="52.722137"><ele>306.911346</ele><time>2022-01-15T12:25:27Z</time><extensions><speed>0.521260</speed><course>161.717178</course><hAcc>1.837638</hAcc><vAcc>0.665739</vAcc></extensions></trkpt>
      <trkpt lon="-3.042196" lat="52.722133"><ele>306.715118</ele><time>2022-01-15T12:25:28Z</time><extensions><speed>0.558119</speed><course>166.714600</course><hAcc>1.863572</hAcc><vAcc>0.660394</vAcc></extensions></trkpt>
      <trkpt lon="-3.042194" lat="52.722127"><ele>306.505249</ele><time>2022-01-15T12:25:29Z</time><extensions><speed>0.636502</speed><course>167.129135</course><hAcc>1.887402</hAcc><vAcc>0.656000</vAcc></extensions></trkpt>
      <trkpt lon="-3.042191" lat="52.722121"><ele>306.275757</ele><time>2022-01-15T12:25:30Z</time><extensions><speed>0.841318</speed><course>164.574890</course><hAcc>1.893543</hAcc><vAcc>0.652905</vAcc></extensions></trkpt>
      <trkpt lon="-3.042187" lat="52.722113"><ele>306.036407</ele><time>2022-01-15T12:25:31Z</time><extensions><speed>1.017402</speed><course>161.071152</course><hAcc>1.910319</hAcc><vAcc>0.651445</vAcc></extensions></trkpt>
      <trkpt lon="-3.042181" lat="52.722104"><ele>305.789703</ele><time>2022-01-15T12:25:32Z</time><extensions><speed>1.208719</speed><course>156.800385</course><hAcc>1.927736</hAcc><vAcc>0.651854</vAcc></extensions></trkpt>
      <trkpt lon="-3.042172" lat="52.722093"><ele>305.531006</ele><time>2022-01-15T12:25:33Z</time><extensions><speed>1.512012</speed><course>152.347595</course><hAcc>1.931660</hAcc><vAcc>0.654193</vAcc></extensions></trkpt>
      <trkpt lon="-3.042161" lat="52.722080"><ele>305.260681</ele><time>2022-01-15T12:25:34Z</time><extensions><speed>1.669492</speed><course>148.655884</course><hAcc>1.935892</hAcc><vAcc>0.658427</vAcc></extensions></trkpt>
      <trkpt lon="-3.042147" lat="52.722068"><ele>304.985443</ele><time>2022-01-15T12:25:35Z</time><extensions><speed>1.605862</speed><course>143.683777</course><hAcc>1.926233</hAcc><vAcc>0.664342</vAcc></extensions></trkpt>
      <trkpt lon="-3.042133" lat="52.722057"><ele>304.704071</ele><time>2022-01-15T12:25:36Z</time><extensions><speed>1.424189</speed><course>137.903961</course><hAcc>1.909845</hAcc><vAcc>0.671698</vAcc></extensions></trkpt>
      <trkpt lon="-3.042119" lat="52.722049"><ele>304.417786</ele><time>2022-01-15T12:25:37Z</time><extensions><speed>1.243225</speed><course>132.726120</course><hAcc>1.898433</hAcc><vAcc>0.680094</vAcc></extensions></trkpt>
      <trkpt lon="-3.042106" lat="52.722042"><ele>304.140869</ele><time>2022-01-15T12:25:38Z</time><extensions><speed>1.130288</speed><course>128.611496</course><hAcc>1.886074</hAcc><vAcc>0.689030</vAcc></extensions></trkpt>
      <trkpt lon="-3.042092" lat="52.722036"><ele>303.818390</ele><time>2022-01-15T12:25:39Z</time><extensions><speed>1.110023</speed><course>122.135696</course><hAcc>1.865713</hAcc><vAcc>0.698099</vAcc></extensions></trkpt>
      <trkpt lon="-3.042078" lat="52.722031"><ele>303.507050</ele><time>2022-01-15T12:25:40Z</time><extensions><speed>1.125639</speed><course>117.103882</course><hAcc>1.856281</hAcc><vAcc>0.706951</vAcc></extensions></trkpt>
      <trkpt lon="-3.042062" lat="52.722027"><ele>303.201874</ele><time>2022-01-15T12:25:41Z</time><extensions><speed>1.254025</speed><course>111.520775</course><hAcc>1.831071</hAcc><vAcc>0.715272</vAcc></extensions></trkpt>
      <trkpt lon="-3.042044" lat="52.722023"><ele>302.904022</ele><time>2022-01-15T12:25:42Z</time><extensions><speed>1.332157</speed><course>107.395866</course><hAcc>1.818480</hAcc><vAcc>0.722897</vAcc></extensions></trkpt>
      <trkpt lon="-3.042025" lat="52.722020"><ele>302.583282</ele><time>2022-01-15T12:25:43Z</time><extensions><speed>1.342569</speed><course>105.027290</course><hAcc>1.824683</hAcc><vAcc>0.729674</vAcc></extensions></trkpt>
      <trkpt lon="-3.042006" lat="52.722017"><ele>302.271088</ele><time>2022-01-15T12:25:44Z</time><extensions><speed>1.253448</speed><course>103.844055</course><hAcc>1.838461</hAcc><vAcc>0.735502</vAcc></extensions></trkpt>
      <trkpt lon="-3.041987" lat="52.722014"><ele>301.955353</ele><time>2022-01-15T12:25:45Z</time><extensions><speed>1.333339</speed><course>101.944038</course><hAcc>1.830238</hAcc><vAcc>0.740401</vAcc></extensions></trkpt>
      <trkpt lon="-3.041967" lat="52.722012"><ele>301.647583</ele><time>2022-01-15T12:25:46Z</time><extensions><speed>1.410389</speed><course>100.099648</course><hAcc>1.827982</hAcc><vAcc>0.744425</vAcc></extensions></trkpt>
      <trkpt lon="-3.041947" lat="52.722010"><ele>301.320923</ele><time>2022-01-15T12:25:47Z</time><extensions><speed>1.454872</speed><course>98.058365</course><hAcc>1.830781</hAcc><vAcc>0.747681</vAcc></extensions></trkpt>
      <trkpt lon="-3.041925" lat="52.722008"><ele>301.018860</ele><time>2022-01-15T12:25:48Z</time><extensions><speed>1.440847</speed><course>95.345184</course><hAcc>1.833610</hAcc><vAcc>0.750375</vAcc></extensions></trkpt>
      <trkpt lon="-3.041905" lat="52.722007"><ele>300.719788</ele><time>2022-01-15T12:25:49Z</time><extensions><speed>1.341775</speed><course>91.942787</course><hAcc>1.838480</hAcc><vAcc>0.752566</vAcc></extensions></trkpt>
      <trkpt lon="-3.041885" lat="52.722007"><ele>300.433563</ele><time>2022-01-15T12:25:50Z</time><extensions><speed>1.254939</speed><course>88.601479</course><hAcc>1.840534</hAcc><vAcc>0.754343</vAcc></extensions></trkpt>
      <trkpt lon="-3.041868" lat="52.722008"><ele>300.158752</ele><time>2022-01-15T12:25:51Z</time><extensions><speed>1.145275</speed><course>85.290085</course><hAcc>1.844586</hAcc><vAcc>0.755723</vAcc></extensions></trkpt>
      <trkpt lon="-3.041851" lat="52.722009"><ele>299.899048</ele><time>2022-01-15T12:25:52Z</time><extensions><speed>1.073716</speed><course>83.593422</course><hAcc>1.845118</hAcc><vAcc>0.756642</vAcc></extensions></trkpt>
      <trkpt lon="-3.041836" lat="52.722010"><ele>299.632538</ele><time>2022-01-15T12:25:53Z</time><extensions><speed>1.007621</speed><course>83.539345</course><hAcc>1.847890</hAcc><vAcc>0.757061</vAcc></extensions></trkpt>
      <trkpt lon="-3.041821" lat="52.722011"><ele>299.404877</ele><time>2022-01-15T12:25:54Z</time><extensions><speed>0.990440</speed><course>83.466568</course><hAcc>1.844563</hAcc><vAcc>0.756955</vAcc></extensions></trkpt>
      <trkpt lon="-3.041807" lat="52.722012"><ele>299.179993</ele><time>2022-01-15T12:25:55Z</time><extensions><speed>1.011452</speed><course>83.099457</course><hAcc>1.846218</hAcc><vAcc>0.756503</vAcc></extensions></trkpt>
      <trkpt lon="-3.041792" lat="52.722013"><ele>298.975372</ele><time>2022-01-15T12:25:56Z</time><extensions><speed>0.960903</speed><course>82.600624</course><hAcc>1.856301</hAcc><vAcc>0.755608</vAcc></extensions></trkpt>
      <trkpt lon="-3.041778" lat="52.722014"><ele>298.777893</ele><time>2022-01-15T12:25:57Z</time><extensions><speed>0.881940</speed><course>83.022804</course><hAcc>1.870653</hAcc><vAcc>0.754245</vAcc></extensions></trkpt>
      <trkpt lon="-3.041766" lat="52.722015"><ele>298.596344</ele><time>2022-01-15T12:25:58Z</time><extensions><speed>0.808581</speed><course>81.673393</course><hAcc>1.876443</hAcc><vAcc>0.752431</vAcc></extensions></trkpt>
      <trkpt lon="-3.041755" lat="52.722016"><ele>298.438721</ele><time>2022-01-15T12:25:59Z</time><extensions><speed>0.690218</speed><course>79.576233</course><hAcc>1.863513</hAcc><vAcc>0.750251</vAcc></extensions></trkpt>
      <trkpt lon="-3.041746" lat="52.722017"><ele>298.282166</ele><time>2022-01-15T12:26:00Z</time><extensions><speed>0.559823</speed><course>78.581604</course><hAcc>1.865064</hAcc><vAcc>0.747710</vAcc></extensions></trkpt>
      <trkpt lon="-3.041739" lat="52.722018"><ele>298.132294</ele><time>2022-01-15T12:26:01Z</time><extensions><speed>0.403413</speed><course>78.311279</course><hAcc>1.879892</hAcc><vAcc>0.744841</vAcc></extensions></trkpt>
      <trkpt lon="-3.041733" lat="52.722019"><ele>297.993896</ele><time>2022-01-15T12:26:02Z</time><extensions><speed>0.383763</speed><course>81.955887</course><hAcc>1.878192</hAcc><vAcc>0.741832</vAcc></extensions></trkpt>
      <trkpt lon="-3.041727" lat="52.722019"><ele>297.871094</ele><time>2022-01-15T12:26:03Z</time><extensions><speed>0.417715</speed><course>88.098724</course><hAcc>1.870544</hAcc><vAcc>0.738831</vAcc></extensions></trkpt>
      <trkpt lon="-3.041721" lat="52.722019"><ele>297.749451</ele><time>2022-01-15T12:26:04Z</time><extensions><speed>0.480813</speed><course>93.749107</course><hAcc>1.871815</hAcc><vAcc>0.735960</vAcc></extensions></trkpt>
      <trkpt lon="-3.041714" lat="52.722018"><ele>297.625488</ele><time>2022-01-15T12:26:05Z</time><extensions><speed>0.366927</speed><course>102.402168</course><hAcc>1.896550</hAcc><vAcc>0.733233</vAcc></extensions></trkpt>
      <trkpt lon="-3.041709" lat="52.722017"><ele>297.513336</ele><time>2022-01-15T12:26:06Z</time><extensions><speed>0.386751</speed><course>108.378738</course><hAcc>1.890386</hAcc><vAcc>0.730686</vAcc></extensions></trkpt>
      <trkpt lon="-3.041703" lat="52.722016"><ele>297.408447</ele><time>2022-01-15T12:26:07Z</time><extensions><speed>0.426458</speed><course>110.368790</course><hAcc>1.889065</hAcc><vAcc>0.728414</vAcc></extensions></trkpt>
      <trkpt lon="-3.041697" lat="52.722015"><ele>297.310760</ele><time>2022-01-15T12:26:08Z</time><extensions><speed>0.484404</speed><course>110.560120</course><hAcc>1.899108</hAcc><vAcc>0.726493</vAcc></extensions></trkpt>
      <trkpt lon="-3.041690" lat="52.722013"><ele>297.202637</ele><time>2022-01-15T12:26:09Z</time><extensions><speed>0.583950</speed><course>109.954086</course><hAcc>1.902855</hAcc><vAcc>0.724995</vAcc></extensions></trkpt>
      <trkpt lon="-3.041680" lat="52.722011"><ele>297.108582</ele><time>2022-01-15T12:26:10Z</time><extensions><speed>0.785043</speed><course>108.721664</course><hAcc>1.891744</hAcc><vAcc>0.723981</vAcc></extensions></trkpt>
      <trkpt lon="-3.041668" lat="52.722009"><ele>297.013794</ele><time>2022-01-15T12:26:11Z</time><extensions><speed>0.892925</speed><course>106.065132</course><hAcc>1.894064</hAcc><vAcc>0.723454</vAcc></extensions></trkpt>
      <trkpt lon="-3.041655" lat="52.722007"><ele>296.931854</ele><time>2022-01-15T12:26:12Z</time><extensions><speed>0.944742</speed><course>104.186295</course><hAcc>1.897860</hAcc><vAcc>0.723384</vAcc></extensions></trkpt>
      <trkpt lon="-3.041641" lat="52.722005"><ele>296.842499</ele><time>2022-01-15T12:26:13Z</time><extensions><speed>0.958991</speed><course>102.248383</course><hAcc>1.893119</hAcc><vAcc>0.723648</vAcc></extensions></trkpt>
      <trkpt lon="-3.041628" lat="52.722003"><ele>296.773163</ele><time>2022-01-15T12:26:14Z</time><extensions><speed>0.907559</speed><course>99.730698</course><hAcc>1.883047</hAcc><vAcc>0.724075</vAcc></extensions></trkpt>
      <trkpt lon="-3.041615" lat="52.722002"><ele>296.705811</ele><time>2022-01-15T12:26:15Z</time><extensions><speed>0.842221</speed><course>95.409470</course><hAcc>1.875330</hAcc><vAcc>0.724542</vAcc></extensions></trkpt>
      <trkpt lon="-3.041603" lat="52.722002"><ele>296.637756</ele><time>2022-01-15T12:26:16Z</time><extensions><speed>0.842655</speed><course>90.129036</course><hAcc>1.868877</hAcc><vAcc>0.724985</vAcc></extensions></trkpt>
      <trkpt lon="-3.041590" lat="52.722002"><ele>296.584961</ele><time>2022-01-15T12:26:17Z</time><extensions><speed>0.856642</speed><course>85.227066</course><hAcc>1.865028</hAcc><vAcc>0.725374</vAcc></extensions></trkpt>
      <trkpt lon="-3.041577" lat="52.722003"><ele>296.541656</ele><time>2022-01-15T12:26:18Z</time><extensions><speed>0.927392</speed><course>82.081566</course><hAcc>1.864347</hAcc><vAcc>0.725701</vAcc></extensions></trkpt>
      <trkpt lon="-3.041563" lat="52.722004"><ele>296.495758</ele><time>2022-01-15T12:26:19Z</time><extensions><speed>1.015823</speed><course>80.035103</course><hAcc>1.864800</hAcc><vAcc>0.726057</vAcc></extensions></trkpt>
      <trkpt lon="-3.041548" lat="52.722006"><ele>296.461914</ele><time>2022-01-15T12:26:20Z</time><extensions><speed>1.061346</speed><course>79.069504</course><hAcc>1.861536</hAcc><vAcc>0.726348</vAcc></extensions></trkpt>
      <trkpt lon="-3.041532" lat="52.722008"><ele>296.428894</ele><time>2022-01-15T12:26:21Z</time><extensions><speed>1.103322</speed><course>77.381027</course><hAcc>1.859120</hAcc><vAcc>0.726544</vAcc></extensions></trkpt>
      <trkpt lon="-3.041516" lat="52.722011"><ele>296.391479</ele><time>2022-01-15T12:26:22Z</time><extensions><speed>1.139149</speed><course>74.872612</course><hAcc>1.861937</hAcc><vAcc>0.726683</vAcc></extensions></trkpt>
      <trkpt lon="-3.041500" lat="52.722013"><ele>296.366150</ele><time>2022-01-15T12:26:23Z</time><extensions><speed>1.131687</speed><course>72.418762</course><hAcc>1.868041</hAcc><vAcc>0.726776</vAcc></extensions></trkpt>
      <trkpt lon="-3.041484" lat="52.722017"><ele>296.348053</ele><time>2022-01-15T12:26:24Z</time><extensions><speed>1.142216</speed><course>69.480118</course><hAcc>1.867367</hAcc><vAcc>0.726794</vAcc></extensions></trkpt>
      <trkpt lon="-3.041468" lat="52.722021"><ele>296.324432</ele><time>2022-01-15T12:26:25Z</time><extensions><speed>1.140515</speed><course>67.562973</course><hAcc>1.864293</hAcc><vAcc>0.726788</vAcc></extensions></trkpt>
      <trkpt lon="-3.041452" lat="52.722025"><ele>296.300262</ele><time>2022-01-15T12:26:26Z</time><extensions><speed>1.198852</speed><course>68.118301</course><hAcc>1.862286</hAcc><vAcc>0.726775</vAcc></extensions></trkpt>
      <trkpt lon="-3.041435" lat="52.722028"><ele>296.276489</ele><time>2022-01-15T12:26:27Z</time><extensions><speed>1.243416</speed><course>69.921402</course><hAcc>1.863400</hAcc><vAcc>0.726756</vAcc></extensions></trkpt>
      <trkpt lon="-3.041418" lat="52.722032"><ele>296.252686</ele><time>2022-01-15T12:26:28Z</time><extensions><speed>1.210005</speed><course>71.995651</course><hAcc>1.866039</hAcc><vAcc>0.726766</vAcc></extensions></trkpt>
      <trkpt lon="-3.041401" lat="52.722035"><ele>296.241882</ele><time>2022-01-15T12:26:29Z</time><extensions><speed>1.145282</speed><course>73.978401</course><hAcc>1.863757</hAcc><vAcc>0.726802</vAcc></extensions></trkpt>
      <trkpt lon="-3.041385" lat="52.722038"><ele>296.223541</ele><time>2022-01-15T12:26:30Z</time><extensions><speed>1.122543</speed><course>74.204498</course><hAcc>1.858778</hAcc><vAcc>0.726889</vAcc></extensions></trkpt>
      <trkpt lon="-3.041369" lat="52.722041"><ele>296.222992</ele><time>2022-01-15T12:26:31Z</time><extensions><speed>1.130125</speed><course>74.182854</course><hAcc>1.857759</hAcc><vAcc>0.726998</vAcc></extensions></trkpt>
      <trkpt lon="-3.041353" lat="52.722043"><ele>296.211670</ele><time>2022-01-15T12:26:32Z</time><extensions><speed>1.110948</speed><course>74.572670</course><hAcc>1.856727</hAcc><vAcc>0.727130</vAcc></extensions></trkpt>
      <trkpt lon="-3.041337" lat="52.722046"><ele>296.195984</ele><time>2022-01-15T12:26:33Z</time><extensions><speed>1.094176</speed><course>75.059669</course><hAcc>1.855485</hAcc><vAcc>0.727282</vAcc></extensions></trkpt>
      <trkpt lon="-3.041322" lat="52.722049"><ele>296.195465</ele><time>2022-01-15T12:26:34Z</time><extensions><speed>1.041714</speed><course>75.337021</course><hAcc>1.855874</hAcc><vAcc>0.727445</vAcc></extensions></trkpt>
      <trkpt lon="-3.041307" lat="52.722051"><ele>296.197693</ele><time>2022-01-15T12:26:35Z</time><extensions><speed>1.009429</speed><course>76.370819</course><hAcc>1.856744</hAcc><vAcc>0.727593</vAcc></extensions></trkpt>
      <trkpt lon="-3.041292" lat="52.722053"><ele>296.196716</ele><time>2022-01-15T12:26:36Z</time><extensions><speed>1.046698</speed><course>77.034088</course><hAcc>1.855390</hAcc><vAcc>0.727782</vAcc></extensions></trkpt>
      <trkpt lon="-3.041277" lat="52.722055"><ele>296.195343</ele><time>2022-01-15T12:26:37Z</time><extensions><speed>1.040359</speed><course>78.012146</course><hAcc>1.852833</hAcc><vAcc>0.728050</vAcc></extensions></trkpt>
      <trkpt lon="-3.041262" lat="52.722057"><ele>296.199738</ele><time>2022-01-15T12:26:38Z</time><extensions><speed>1.031483</speed><course>77.948685</course><hAcc>1.853167</hAcc><vAcc>0.728374</vAcc></extensions></trkpt>
      <trkpt lon="-3.041247" lat="52.722059"><ele>296.208405</ele><time>2022-01-15T12:26:39Z</time><extensions><speed>1.056040</speed><course>77.088882</course><hAcc>1.852622</hAcc><vAcc>0.728752</vAcc></extensions></trkpt>
      <trkpt lon="-3.041232" lat="52.722061"><ele>296.223572</ele><time>2022-01-15T12:26:40Z</time><extensions><speed>1.078699</speed><course>76.386116</course><hAcc>1.850640</hAcc><vAcc>0.729139</vAcc></extensions></trkpt>
      <trkpt lon="-3.041216" lat="52.722064"><ele>296.220734</ele><time>2022-01-15T12:26:41Z</time><extensions><speed>1.080168</speed><course>75.962692</course><hAcc>1.850107</hAcc><vAcc>0.729487</vAcc></extensions></trkpt>
      <trkpt lon="-3.041201" lat="52.722066"><ele>296.218384</ele><time>2022-01-15T12:26:42Z</time><extensions><speed>1.087163</speed><course>74.594200</course><hAcc>1.845222</hAcc><vAcc>0.729736</vAcc></extensions></trkpt>
      <trkpt lon="-3.041185" lat="52.722069"><ele>296.222382</ele><time>2022-01-15T12:26:43Z</time><extensions><speed>1.103037</speed><course>71.915916</course><hAcc>1.840751</hAcc><vAcc>0.729836</vAcc></extensions></trkpt>
      <trkpt lon="-3.041170" lat="52.722072"><ele>296.226044</ele><time>2022-01-15T12:26:44Z</time><extensions><speed>1.126991</speed><course>68.367531</course><hAcc>1.837232</hAcc><vAcc>0.729686</vAcc></extensions></trkpt>
      <trkpt lon="-3.041155" lat="52.722076"><ele>296.220154</ele><time>2022-01-15T12:26:45Z</time><extensions><speed>1.101888</speed><course>64.481300</course><hAcc>1.836854</hAcc><vAcc>0.729322</vAcc></extensions></trkpt>
      <trkpt lon="-3.041140" lat="52.722081"><ele>296.207367</ele><time>2022-01-15T12:26:46Z</time><extensions><speed>1.094585</speed><course>59.773285</course><hAcc>1.839897</hAcc><vAcc>0.728699</vAcc></extensions></trkpt>
      <trkpt lon="-3.041126" lat="52.722086"><ele>296.193512</ele><time>2022-01-15T12:26:47Z</time><extensions><speed>1.113529</speed><course>56.953339</course><hAcc>1.838573</hAcc><vAcc>0.727863</vAcc></extensions></trkpt>
      <trkpt lon="-3.041113" lat="52.722092"><ele>296.183472</ele><time>2022-01-15T12:26:48Z</time><extensions><speed>1.126070</speed><course>55.304585</course><hAcc>1.833544</hAcc><vAcc>0.726773</vAcc></extensions></trkpt>
      <trkpt lon="-3.041099" lat="52.722098"><ele>296.187134</ele><time>2022-01-15T12:26:49Z</time><extensions><speed>1.142747</speed><course>54.287861</course><hAcc>1.835117</hAcc><vAcc>0.725453</vAcc></extensions></trkpt>
      <trkpt lon="-3.041085" lat="52.722104"><ele>296.181030</ele><time>2022-01-15T12:26:50Z</time><extensions><speed>1.146512</speed><course>53.945019</course><hAcc>1.840601</hAcc><vAcc>0.723928</vAcc></extensions></trkpt>
      <trkpt lon="-3.041071" lat="52.722110"><ele>296.165253</ele><time>2022-01-15T12:26:51Z</time><extensions><speed>1.148256</speed><course>55.120914</course><hAcc>1.841470</hAcc><vAcc>0.722238</vAcc></extensions></trkpt>
      <trkpt lon="-3.041057" lat="52.722115"><ele>296.150116</ele><time>2022-01-15T12:26:52Z</time><extensions><speed>1.175435</speed><course>58.416908</course><hAcc>1.840410</hAcc><vAcc>0.720475</vAcc></extensions></trkpt>
      <trkpt lon="-3.041042" lat="52.722121"><ele>296.133911</ele><time>2022-01-15T12:26:53Z</time><extensions><speed>1.161476</speed><course>62.077339</course><hAcc>1.843918</hAcc><vAcc>0.718732</vAcc></extensions></trkpt>
      <trkpt lon="-3.041027" lat="52.722125"><ele>296.114929</ele><time>2022-01-15T12:26:54Z</time><extensions><speed>1.148902</speed><course>65.351227</course><hAcc>1.846937</hAcc><vAcc>0.717112</vAcc></extensions></trkpt>
      <trkpt lon="-3.041011" lat="52.722129"><ele>296.084290</ele><time>2022-01-15T12:26:55Z</time><extensions><speed>1.144155</speed><course>68.070511</course><hAcc>1.849458</hAcc><vAcc>0.715738</vAcc></extensions></trkpt>
      <trkpt lon="-3.040995" lat="52.722133"><ele>296.046143</ele><time>2022-01-15T12:26:56Z</time><extensions><speed>1.127270</speed><course>69.566849</course><hAcc>1.850436</hAcc><vAcc>0.714617</vAcc></extensions></trkpt>
      <trkpt lon="-3.040980" lat="52.722136"><ele>296.002930</ele><time>2022-01-15T12:26:57Z</time><extensions><speed>1.126560</speed><course>70.938431</course><hAcc>1.850150</hAcc><vAcc>0.713746</vAcc></extensions></trkpt>
      <trkpt lon="-3.040964" lat="52.722140"><ele>295.960236</ele><time>2022-01-15T12:26:58Z</time><extensions><speed>1.146948</speed><course>71.159706</course><hAcc>1.849392</hAcc><vAcc>0.713039</vAcc></extensions></trkpt>
      <trkpt lon="-3.040948" lat="52.722143"><ele>295.919464</ele><time>2022-01-15T12:26:59Z</time><extensions><speed>1.145231</speed><course>70.331078</course><hAcc>1.852944</hAcc><vAcc>0.712439</vAcc></extensions></trkpt>
      <trkpt lon="-3.040932" lat="52.722147"><ele>295.864563</ele><time>2022-01-15T12:27:00Z</time><extensions><speed>1.143962</speed><course>68.607216</course><hAcc>1.852534</hAcc><vAcc>0.711926</vAcc></extensions></trkpt>
      <trkpt lon="-3.040916" lat="52.722151"><ele>295.781799</ele><time>2022-01-15T12:27:01Z</time><extensions><speed>1.142865</speed><course>67.399239</course><hAcc>1.848027</hAcc><vAcc>0.711420</vAcc></extensions></trkpt>
      <trkpt lon="-3.040900" lat="52.722155"><ele>295.701721</ele><time>2022-01-15T12:27:02Z</time><extensions><speed>1.184626</speed><course>66.436333</course><hAcc>1.849581</hAcc><vAcc>0.710875</vAcc></extensions></trkpt>
      <trkpt lon="-3.040884" lat="52.722159"><ele>295.615662</ele><time>2022-01-15T12:27:03Z</time><extensions><speed>1.202071</speed><course>67.028946</course><hAcc>1.848479</hAcc><vAcc>0.710221</vAcc></extensions></trkpt>
      <trkpt lon="-3.040868" lat="52.722163"><ele>295.516327</ele><time>2022-01-15T12:27:04Z</time><extensions><speed>1.178828</speed><course>69.009148</course><hAcc>1.856544</hAcc><vAcc>0.709406</vAcc></extensions></trkpt>
      <trkpt lon="-3.040852" lat="52.722167"><ele>295.421204</ele><time>2022-01-15T12:27:05Z</time><extensions><speed>1.138794</speed><course>70.045509</course><hAcc>1.872491</hAcc><vAcc>0.708501</vAcc></extensions></trkpt>
      <trkpt lon="-3.040836" lat="52.722170"><ele>295.302399</ele><time>2022-01-15T12:27:06Z</time><extensions><speed>1.095019</speed><course>71.651642</course><hAcc>1.863406</hAcc><vAcc>0.707372</vAcc></extensions></trkpt>
      <trkpt lon="-3.040821" lat="52.722173"><ele>295.199860</ele><time>2022-01-15T12:27:07Z</time><extensions><speed>1.076486</speed><course>72.956535</course><hAcc>1.858168</hAcc><vAcc>0.706019</vAcc></extensions></trkpt>
      <trkpt lon="-3.040805" lat="52.722176"><ele>295.096008</ele><time>2022-01-15T12:27:08Z</time><extensions><speed>1.081599</speed><course>73.069389</course><hAcc>1.863424</hAcc><vAcc>0.704465</vAcc></extensions></trkpt>
      <trkpt lon="-3.040790" lat="52.722179"><ele>294.997498</ele><time>2022-01-15T12:27:09Z</time><extensions><speed>1.078950</speed><course>71.063843</course><hAcc>1.871005</hAcc><vAcc>0.702778</vAcc></extensions></trkpt>
      <trkpt lon="-3.040775" lat="52.722182"><ele>294.908966</ele><time>2022-01-15T12:27:10Z</time><extensions><speed>1.048153</speed><course>68.026802</course><hAcc>1.877170</hAcc><vAcc>0.701079</vAcc></extensions></trkpt>
      <trkpt lon="-3.040761" lat="52.722186"><ele>294.823608</ele><time>2022-01-15T12:27:11Z</time><extensions><speed>1.017579</speed><course>66.016335</course><hAcc>1.882862</hAcc><vAcc>0.699519</vAcc></extensions></trkpt>
      <trkpt lon="-3.040747" lat="52.722190"><ele>294.747772</ele><time>2022-01-15T12:27:12Z</time><extensions><speed>1.057490</speed><course>64.584396</course><hAcc>1.879155</hAcc><vAcc>0.698228</vAcc></extensions></trkpt>
      <trkpt lon="-3.040733" lat="52.722194"><ele>294.686249</ele><time>2022-01-15T12:27:13Z</time><extensions><speed>1.090599</speed><course>64.969704</course><hAcc>1.877305</hAcc><vAcc>0.697307</vAcc></extensions></trkpt>
      <trkpt lon="-3.040718" lat="52.722198"><ele>294.616241</ele><time>2022-01-15T12:27:14Z</time><extensions><speed>1.104854</speed><course>66.687660</course><hAcc>1.876480</hAcc><vAcc>0.696885</vAcc></extensions></trkpt>
      <trkpt lon="-3.040702" lat="52.722201"><ele>294.551453</ele><time>2022-01-15T12:27:15Z</time><extensions><speed>1.131104</speed><course>69.300949</course><hAcc>1.875902</hAcc><vAcc>0.696950</vAcc></extensions></trkpt>
      <trkpt lon="-3.040686" lat="52.722205"><ele>294.491119</ele><time>2022-01-15T12:27:16Z</time><extensions><speed>1.182359</speed><course>70.400749</course><hAcc>1.872790</hAcc><vAcc>0.697518</vAcc></extensions></trkpt>
      <trkpt lon="-3.040669" lat="52.722209"><ele>294.438538</ele><time>2022-01-15T12:27:17Z</time><extensions><speed>1.268160</speed><course>70.346527</course><hAcc>1.869832</hAcc><vAcc>0.698491</vAcc></extensions></trkpt>
      <trkpt lon="-3.040651" lat="52.722213"><ele>294.408661</ele><time>2022-01-15T12:27:18Z</time><extensions><speed>1.333247</speed><course>69.704155</course><hAcc>1.865709</hAcc><vAcc>0.699787</vAcc></extensions></trkpt>
      <trkpt lon="-3.040632" lat="52.722217"><ele>294.377136</ele><time>2022-01-15T12:27:19Z</time><extensions><speed>1.346077</speed><course>68.454185</course><hAcc>1.861334</hAcc><vAcc>0.701300</vAcc></extensions></trkpt>
      <trkpt lon="-3.040614" lat="52.722222"><ele>294.342438</ele><time>2022-01-15T12:27:20Z</time><extensions><speed>1.325701</speed><course>66.879105</course><hAcc>1.861455</hAcc><vAcc>0.703003</vAcc></extensions></trkpt>
      <trkpt lon="-3.040596" lat="52.722226"><ele>294.326630</ele><time>2022-01-15T12:27:21Z</time><extensions><speed>1.293047</speed><course>67.198402</course><hAcc>1.860915</hAcc><vAcc>0.704874</vAcc></extensions></trkpt>
      <trkpt lon="-3.040579" lat="52.722230"><ele>294.306244</ele><time>2022-01-15T12:27:22Z</time><extensions><speed>1.295795</speed><course>68.863655</course><hAcc>1.858030</hAcc><vAcc>0.706826</vAcc></extensions></trkpt>
      <trkpt lon="-3.040560" lat="52.722234"><ele>294.280396</ele><time>2022-01-15T12:27:23Z</time><extensions><speed>1.308667</speed><course>71.293785</course><hAcc>1.859993</hAcc><vAcc>0.708747</vAcc></extensions></trkpt>
      <trkpt lon="-3.040542" lat="52.722238"><ele>294.277222</ele><time>2022-01-15T12:27:24Z</time><extensions><speed>1.323629</speed><course>73.865860</course><hAcc>1.863461</hAcc><vAcc>0.710565</vAcc></extensions></trkpt>
      <trkpt lon="-3.040522" lat="52.722241"><ele>294.267914</ele><time>2022-01-15T12:27:25Z</time><extensions><speed>1.426342</speed><course>77.252106</course><hAcc>1.858997</hAcc><vAcc>0.712152</vAcc></extensions></trkpt>
      <trkpt lon="-3.040502" lat="52.722244"><ele>294.271301</ele><time>2022-01-15T12:27:26Z</time><extensions><speed>1.407758</speed><course>79.182251</course><hAcc>1.853793</hAcc><vAcc>0.713391</vAcc></extensions></trkpt>
      <trkpt lon="-3.040481" lat="52.722246"><ele>294.287476</ele><time>2022-01-15T12:27:27Z</time><extensions><speed>1.345259</speed><course>80.664383</course><hAcc>1.854583</hAcc><vAcc>0.714205</vAcc></extensions></trkpt>
      <trkpt lon="-3.040462" lat="52.722248"><ele>294.303040</ele><time>2022-01-15T12:27:28Z</time><extensions><speed>1.301577</speed><course>81.745895</course><hAcc>1.860222</hAcc><vAcc>0.714499</vAcc></extensions></trkpt>
      <trkpt lon="-3.040443" lat="52.722249"><ele>294.328644</ele><time>2022-01-15T12:27:29Z</time><extensions><speed>1.286927</speed><course>82.985321</course><hAcc>1.867354</hAcc><vAcc>0.714283</vAcc></extensions></trkpt>
      <trkpt lon="-3.040424" lat="52.722251"><ele>294.361938</ele><time>2022-01-15T12:27:30Z</time><extensions><speed>1.299799</speed><course>84.209030</course><hAcc>1.875552</hAcc><vAcc>0.713662</vAcc></extensions></trkpt>
      <trkpt lon="-3.040405" lat="52.722252"><ele>294.397552</ele><time>2022-01-15T12:27:31Z</time><extensions><speed>1.302003</speed><course>85.093689</course><hAcc>1.879876</hAcc><vAcc>0.712793</vAcc></extensions></trkpt>
      <trkpt lon="-3.040386" lat="52.722253"><ele>294.445068</ele><time>2022-01-15T12:27:32Z</time><extensions><speed>1.300704</speed><course>85.969749</course><hAcc>1.881208</hAcc><vAcc>0.711789</vAcc></extensions></trkpt>
      <trkpt lon="-3.040367" lat="52.722253"><ele>294.494843</ele><time>2022-01-15T12:27:33Z</time><extensions><speed>1.277771</speed><course>86.884468</course><hAcc>1.880140</hAcc><vAcc>0.710772</vAcc></extensions></trkpt>
      <trkpt lon="-3.040347" lat="52.722254"><ele>294.542236</ele><time>2022-01-15T12:27:34Z</time><extensions><speed>1.302485</speed><course>88.212914</course><hAcc>1.876919</hAcc><vAcc>0.709884</vAcc></extensions></trkpt>
      <trkpt lon="-3.040328" lat="52.722254"><ele>294.591949</ele><time>2022-01-15T12:27:35Z</time><extensions><speed>1.272356</speed><course>90.772057</course><hAcc>1.875627</hAcc><vAcc>0.709218</vAcc></extensions></trkpt>
      <trkpt lon="-3.040310" lat="52.722253"><ele>294.652863</ele><time>2022-01-15T12:27:36Z</time><extensions><speed>1.263788</speed><course>93.398872</course><hAcc>1.880005</hAcc><vAcc>0.708864</vAcc></extensions></trkpt>
      <trkpt lon="-3.040291" lat="52.722252"><ele>294.706909</ele><time>2022-01-15T12:27:37Z</time><extensions><speed>1.199157</speed><course>96.808441</course><hAcc>1.886574</hAcc><vAcc>0.708890</vAcc></extensions></trkpt>
      <trkpt lon="-3.040274" lat="52.722251"><ele>294.748688</ele><time>2022-01-15T12:27:38Z</time><extensions><speed>1.164309</speed><course>98.255310</course><hAcc>1.878992</hAcc><vAcc>0.709392</vAcc></extensions></trkpt>
      <trkpt lon="-3.040257" lat="52.722250"><ele>294.812622</ele><time>2022-01-15T12:27:39Z</time><extensions><speed>1.184464</speed><course>98.107819</course><hAcc>1.872605</hAcc><vAcc>0.710460</vAcc></extensions></trkpt>
      <trkpt lon="-3.040239" lat="52.722248"><ele>294.855530</ele><time>2022-01-15T12:27:40Z</time><extensions><speed>1.194407</speed><course>97.386993</course><hAcc>1.871462</hAcc><vAcc>0.712178</vAcc></extensions></trkpt>
      <trkpt lon="-3.040222" lat="52.722247"><ele>294.901367</ele><time>2022-01-15T12:27:41Z</time><extensions><speed>1.168821</speed><course>97.516800</course><hAcc>1.866716</hAcc><vAcc>0.714520</vAcc></extensions></trkpt>
      <trkpt lon="-3.040205" lat="52.722245"><ele>294.947235</ele><time>2022-01-15T12:27:42Z</time><extensions><speed>1.169997</speed><course>98.675514</course><hAcc>1.859890</hAcc><vAcc>0.717429</vAcc></extensions></trkpt>
      <trkpt lon="-3.040188" lat="52.722244"><ele>294.976074</ele><time>2022-01-15T12:27:43Z</time><extensions><speed>1.122305</speed><course>99.566498</course><hAcc>1.861531</hAcc><vAcc>0.720725</vAcc></extensions></trkpt>
      <trkpt lon="-3.040172" lat="52.722242"><ele>295.000092</ele><time>2022-01-15T12:27:44Z</time><extensions><speed>1.094474</speed><course>100.304123</course><hAcc>1.869847</hAcc><vAcc>0.724223</vAcc></extensions></trkpt>
      <trkpt lon="-3.040156" lat="52.722240"><ele>295.022003</ele><time>2022-01-15T12:27:45Z</time><extensions><speed>1.073603</speed><course>100.629120</course><hAcc>1.855582</hAcc><vAcc>0.727737</vAcc></extensions></trkpt>
      <trkpt lon="-3.040140" lat="52.722238"><ele>295.040802</ele><time>2022-01-15T12:27:46Z</time><extensions><speed>1.098564</speed><course>100.565567</course><hAcc>1.847066</hAcc><vAcc>0.731134</vAcc></extensions></trkpt>
      <trkpt lon="-3.040124" lat="52.722237"><ele>295.060791</ele><time>2022-01-15T12:27:47Z</time><extensions><speed>1.072131</speed><course>100.770676</course><hAcc>1.850775</hAcc><vAcc>0.734148</vAcc></extensions></trkpt>
      <trkpt lon="-3.040109" lat="52.722235"><ele>295.070679</ele><time>2022-01-15T12:27:48Z</time><extensions><speed>1.081326</speed><course>98.890152</course><hAcc>1.852461</hAcc><vAcc>0.736661</vAcc></extensions></trkpt>
      <trkpt lon="-3.040092" lat="52.722233"><ele>295.051361</ele><time>2022-01-15T12:27:49Z</time><extensions><speed>1.155021</speed><course>96.923973</course><hAcc>1.848134</hAcc><vAcc>0.738550</vAcc></extensions></trkpt>
      <trkpt lon="-3.040075" lat="52.722232"><ele>295.003998</ele><time>2022-01-15T12:27:50Z</time><extensions><speed>1.201277</speed><course>95.760414</course><hAcc>1.842848</hAcc><vAcc>0.739860</vAcc></extensions></trkpt>
      <trkpt lon="-3.040057" lat="52.722231"><ele>294.951538</ele><time>2022-01-15T12:27:51Z</time><extensions><speed>1.265700</speed><course>94.191307</course><hAcc>1.845923</hAcc><vAcc>0.740542</vAcc></extensions></trkpt>
      <trkpt lon="-3.040038" lat="52.722231"><ele>294.895813</ele><time>2022-01-15T12:27:52Z</time><extensions><speed>1.277297</speed><course>92.944031</course><hAcc>1.861887</hAcc><vAcc>0.740614</vAcc></extensions></trkpt>
      <trkpt lon="-3.040019" lat="52.722230"><ele>294.821777</ele><time>2022-01-15T12:27:53Z</time><extensions><speed>1.294744</speed><course>90.241341</course><hAcc>1.863544</hAcc><vAcc>0.740076</vAcc></extensions></trkpt>
      <trkpt lon="-3.040000" lat="52.722231"><ele>294.749023</ele><time>2022-01-15T12:27:54Z</time><extensions><speed>1.299543</speed><course>88.098129</course><hAcc>1.863106</hAcc><vAcc>0.739057</vAcc></extensions></trkpt>
      <trkpt lon="-3.039980" lat="52.722231"><ele>294.654205</ele><time>2022-01-15T12:27:55Z</time><extensions><speed>1.296368</speed><course>86.591621</course><hAcc>1.859613</hAcc><vAcc>0.737626</vAcc></extensions></trkpt>
      <trkpt lon="-3.039962" lat="52.722232"><ele>294.573486</ele><time>2022-01-15T12:27:56Z</time><extensions><speed>1.265143</speed><course>85.177940</course><hAcc>1.862580</hAcc><vAcc>0.735851</vAcc></extensions></trkpt>
      <trkpt lon="-3.039943" lat="52.722233"><ele>294.472290</ele><time>2022-01-15T12:27:57Z</time><extensions><speed>1.199589</speed><course>83.822266</course><hAcc>1.865588</hAcc><vAcc>0.733775</vAcc></extensions></trkpt>
      <trkpt lon="-3.039926" lat="52.722234"><ele>294.365417</ele><time>2022-01-15T12:27:58Z</time><extensions><speed>1.151771</speed><course>82.773010</course><hAcc>1.869452</hAcc><vAcc>0.731387</vAcc></extensions></trkpt>
      <trkpt lon="-3.039909" lat="52.722236"><ele>294.265106</ele><time>2022-01-15T12:27:59Z</time><extensions><speed>1.141179</speed><course>81.935425</course><hAcc>1.875286</hAcc><vAcc>0.728849</vAcc></extensions></trkpt>
      <trkpt lon="-3.039892" lat="52.722237"><ele>294.162231</ele><time>2022-01-15T12:28:00Z</time><extensions><speed>1.191846</speed><course>79.824898</course><hAcc>1.874052</hAcc><vAcc>0.726166</vAcc></extensions></trkpt>
      <trkpt lon="-3.039874" lat="52.722240"><ele>294.070496</ele><time>2022-01-15T12:28:01Z</time><extensions><speed>1.265859</speed><course>77.308311</course><hAcc>1.866286</hAcc><vAcc>0.723309</vAcc></extensions></trkpt>
      <trkpt lon="-3.039856" lat="52.722242"><ele>293.989624</ele><time>2022-01-15T12:28:02Z</time><extensions><speed>1.315209</speed><course>75.690842</course><hAcc>1.866540</hAcc><vAcc>0.720305</vAcc></extensions></trkpt>
      <trkpt lon="-3.039837" lat="52.722245"><ele>293.919769</ele><time>2022-01-15T12:28:03Z</time><extensions><speed>1.313811</speed><course>74.617508</course><hAcc>1.872191</hAcc><vAcc>0.717141</vAcc></extensions></trkpt>
      <trkpt lon="-3.039818" lat="52.722249"><ele>293.868042</ele><time>2022-01-15T12:28:04Z</time><extensions><speed>1.287651</speed><course>73.574799</course><hAcc>1.887089</hAcc><vAcc>0.713894</vAcc></extensions></trkpt>
      <trkpt lon="-3.039800" lat="52.722252"><ele>293.819458</ele><time>2022-01-15T12:28:05Z</time><extensions><speed>1.301242</speed><course>71.304604</course><hAcc>1.877243</hAcc><vAcc>0.710584</vAcc></extensions></trkpt>
      <trkpt lon="-3.039782" lat="52.722256"><ele>293.770966</ele><time>2022-01-15T12:28:06Z</time><extensions><speed>1.281960</speed><course>68.016708</course><hAcc>1.867070</hAcc><vAcc>0.707284</vAcc></extensions></trkpt>
      <trkpt lon="-3.039765" lat="52.722261"><ele>293.726990</ele><time>2022-01-15T12:28:07Z</time><extensions><speed>1.261415</speed><course>64.780098</course><hAcc>1.868696</hAcc><vAcc>0.704014</vAcc></extensions></trkpt>
      <trkpt lon="-3.039748" lat="52.722266"><ele>293.680267</ele><time>2022-01-15T12:28:08Z</time><extensions><speed>1.287122</speed><course>62.619717</course><hAcc>1.879572</hAcc><vAcc>0.700781</vAcc></extensions></trkpt>
      <trkpt lon="-3.039731" lat="52.722271"><ele>293.639252</ele><time>2022-01-15T12:28:09Z</time><extensions><speed>1.293086</speed><course>61.827816</course><hAcc>1.890556</hAcc><vAcc>0.697617</vAcc></extensions></trkpt>
      <trkpt lon="-3.039714" lat="52.722277"><ele>293.603271</ele><time>2022-01-15T12:28:10Z</time><extensions><speed>1.328728</speed><course>63.969810</course><hAcc>1.888055</hAcc><vAcc>0.694501</vAcc></extensions></trkpt>
      <trkpt lon="-3.039695" lat="52.722282"><ele>293.548370</ele><time>2022-01-15T12:28:11Z</time><extensions><speed>1.379952</speed><course>65.946495</course><hAcc>1.883572</hAcc><vAcc>0.691350</vAcc></extensions></trkpt>
      <trkpt lon="-3.039677" lat="52.722287"><ele>293.500183</ele><time>2022-01-15T12:28:12Z</time><extensions><speed>1.362196</speed><course>67.104454</course><hAcc>1.885424</hAcc><vAcc>0.688141</vAcc></extensions></trkpt>
      <trkpt lon="-3.039658" lat="52.722291"><ele>293.445709</ele><time>2022-01-15T12:28:13Z</time><extensions><speed>1.338746</speed><course>67.525360</course><hAcc>1.883862</hAcc><vAcc>0.684763</vAcc></extensions></trkpt>
      <trkpt lon="-3.039640" lat="52.722296"><ele>293.385773</ele><time>2022-01-15T12:28:14Z</time><extensions><speed>1.325693</speed><course>67.737213</course><hAcc>1.890265</hAcc><vAcc>0.681282</vAcc></extensions></trkpt>
      <trkpt lon="-3.039622" lat="52.722301"><ele>293.317474</ele><time>2022-01-15T12:28:15Z</time><extensions><speed>1.294409</speed><course>66.382690</course><hAcc>1.889061</hAcc><vAcc>0.677566</vAcc></extensions></trkpt>
      <trkpt lon="-3.039605" lat="52.722305"><ele>293.223450</ele><time>2022-01-15T12:28:16Z</time><extensions><speed>1.322811</speed><course>64.820107</course><hAcc>1.892120</hAcc><vAcc>0.673509</vAcc></extensions></trkpt>
      <trkpt lon="-3.039587" lat="52.722311"><ele>293.123840</ele><time>2022-01-15T12:28:17Z</time><extensions><speed>1.342202</speed><course>63.067944</course><hAcc>1.893295</hAcc><vAcc>0.669028</vAcc></extensions></trkpt>
      <trkpt lon="-3.039569" lat="52.722316"><ele>293.010620</ele><time>2022-01-15T12:28:18Z</time><extensions><speed>1.345228</speed><course>61.353600</course><hAcc>1.893693</hAcc><vAcc>0.664105</vAcc></extensions></trkpt>
      <trkpt lon="-3.039552" lat="52.722322"><ele>292.892548</ele><time>2022-01-15T12:28:19Z</time><extensions><speed>1.326003</speed><course>58.479618</course><hAcc>1.898054</hAcc><vAcc>0.658732</vAcc></extensions></trkpt>
      <trkpt lon="-3.039536" lat="52.722329"><ele>292.773712</ele><time>2022-01-15T12:28:20Z</time><extensions><speed>1.251752</speed><course>55.945412</course><hAcc>1.896936</hAcc><vAcc>0.653024</vAcc></extensions></trkpt>
      <trkpt lon="-3.039521" lat="52.722335"><ele>292.657654</ele><time>2022-01-15T12:28:21Z</time><extensions><speed>1.182413</speed><course>54.826252</course><hAcc>1.895409</hAcc><vAcc>0.647112</vAcc></extensions></trkpt>
      <trkpt lon="-3.039507" lat="52.722341"><ele>292.534180</ele><time>2022-01-15T12:28:22Z</time><extensions><speed>1.141003</speed><course>54.860542</course><hAcc>1.895103</hAcc><vAcc>0.641152</vAcc></extensions></trkpt>
      <trkpt lon="-3.039493" lat="52.722347"><ele>292.409637</ele><time>2022-01-15T12:28:23Z</time><extensions><speed>1.104273</speed><course>56.010593</course><hAcc>1.910655</hAcc><vAcc>0.635305</vAcc></extensions></trkpt>
      <trkpt lon="-3.039480" lat="52.722352"><ele>292.287476</ele><time>2022-01-15T12:28:24Z</time><extensions><speed>1.077347</speed><course>57.667286</course><hAcc>1.941966</hAcc><vAcc>0.629699</vAcc></extensions></trkpt>
      <trkpt lon="-3.039466" lat="52.722357"><ele>292.164093</ele><time>2022-01-15T12:28:25Z</time><extensions><speed>1.053938</speed><course>59.210342</course><hAcc>1.933763</hAcc><vAcc>0.624441</vAcc></extensions></trkpt>
      <trkpt lon="-3.039453" lat="52.722362"><ele>292.040436</ele><time>2022-01-15T12:28:26Z</time><extensions><speed>1.000941</speed><course>61.587692</course><hAcc>1.927757</hAcc><vAcc>0.619683</vAcc></extensions></trkpt>
      <trkpt lon="-3.039439" lat="52.722366"><ele>291.917511</ele><time>2022-01-15T12:28:27Z</time><extensions><speed>1.041002</speed><course>64.599884</course><hAcc>1.923144</hAcc><vAcc>0.615647</vAcc></extensions></trkpt>
      <trkpt lon="-3.039425" lat="52.722370"><ele>291.792145</ele><time>2022-01-15T12:28:28Z</time><extensions><speed>1.088416</speed><course>66.577469</course><hAcc>1.932769</hAcc><vAcc>0.612604</vAcc></extensions></trkpt>
      <trkpt lon="-3.039410" lat="52.722374"><ele>291.660156</ele><time>2022-01-15T12:28:29Z</time><extensions><speed>1.159871</speed><course>67.211426</course><hAcc>1.949266</hAcc><vAcc>0.610793</vAcc></extensions></trkpt>
      <trkpt lon="-3.039393" lat="52.722378"><ele>291.528961</ele><time>2022-01-15T12:28:30Z</time><extensions><speed>1.222670</speed><course>66.952911</course><hAcc>1.959558</hAcc><vAcc>0.610333</vAcc></extensions></trkpt>
      <trkpt lon="-3.039376" lat="52.722382"><ele>291.390076</ele><time>2022-01-15T12:28:31Z</time><extensions><speed>1.273462</speed><course>66.911949</course><hAcc>1.950860</hAcc><vAcc>0.611203</vAcc></extensions></trkpt>
      <trkpt lon="-3.039359" lat="52.722387"><ele>291.272675</ele><time>2022-01-15T12:28:32Z</time><extensions><speed>1.292410</speed><course>67.367729</course><hAcc>1.945870</hAcc><vAcc>0.613194</vAcc></extensions></trkpt>
      <trkpt lon="-3.039341" lat="52.722391"><ele>291.176666</ele><time>2022-01-15T12:28:33Z</time><extensions><speed>1.299301</speed><course>67.781952</course><hAcc>1.950213</hAcc><vAcc>0.615995</vAcc></extensions></trkpt>
      <trkpt lon="-3.039323" lat="52.722396"><ele>291.066681</ele><time>2022-01-15T12:28:34Z</time><extensions><speed>1.320514</speed><course>68.669731</course><hAcc>1.932045</hAcc><vAcc>0.619182</vAcc></extensions></trkpt>
      <trkpt lon="-3.039304" lat="52.722400"><ele>290.948608</ele><time>2022-01-15T12:28:35Z</time><extensions><speed>1.333647</speed><course>69.122299</course><hAcc>1.909252</hAcc><vAcc>0.622414</vAcc></extensions></trkpt>
      <trkpt lon="-3.039286" lat="52.722404"><ele>290.843048</ele><time>2022-01-15T12:28:36Z</time><extensions><speed>1.326091</speed><course>68.518570</course><hAcc>1.891726</hAcc><vAcc>0.625281</vAcc></extensions></trkpt>
      <trkpt lon="-3.039267" lat="52.722409"><ele>290.735992</ele><time>2022-01-15T12:28:37Z</time><extensions><speed>1.357668</speed><course>67.716736</course><hAcc>1.878583</hAcc><vAcc>0.627399</vAcc></extensions></trkpt>
      <trkpt lon="-3.039248" lat="52.722414"><ele>290.627045</ele><time>2022-01-15T12:28:38Z</time><extensions><speed>1.400599</speed><course>67.161125</course><hAcc>1.868296</hAcc><vAcc>0.628510</vAcc></extensions></trkpt>
      <trkpt lon="-3.039229" lat="52.722419"><ele>290.512512</ele><time>2022-01-15T12:28:39Z</time><extensions><speed>1.461161</speed><course>67.740013</course><hAcc>1.850581</hAcc><vAcc>0.628423</vAcc></extensions></trkpt>
      <trkpt lon="-3.039209" lat="52.722423"><ele>290.399323</ele><time>2022-01-15T12:28:40Z</time><extensions><speed>1.457101</speed><course>68.410202</course><hAcc>1.857938</hAcc><vAcc>0.627034</vAcc></extensions></trkpt>
      <trkpt lon="-3.039189" lat="52.722428"><ele>290.280029</ele><time>2022-01-15T12:28:41Z</time><extensions><speed>1.336834</speed><course>69.366570</course><hAcc>1.874585</hAcc><vAcc>0.624353</vAcc></extensions></trkpt>
      <trkpt lon="-3.039171" lat="52.722432"><ele>290.148071</ele><time>2022-01-15T12:28:42Z</time><extensions><speed>1.341049</speed><course>68.506775</course><hAcc>1.877590</hAcc><vAcc>0.620489</vAcc></extensions></trkpt>
      <trkpt lon="-3.039152" lat="52.722437"><ele>290.004395</ele><time>2022-01-15T12:28:43Z</time><extensions><speed>1.410415</speed><course>67.424660</course><hAcc>1.861382</hAcc><vAcc>0.615625</vAcc></extensions></trkpt>
      <trkpt lon="-3.039133" lat="52.722442"><ele>289.845520</ele><time>2022-01-15T12:28:44Z</time><extensions><speed>1.440594</speed><course>67.253281</course><hAcc>1.858210</hAcc><vAcc>0.609977</vAcc></extensions></trkpt>
      <trkpt lon="-3.039113" lat="52.722447"><ele>289.671570</ele><time>2022-01-15T12:28:45Z</time><extensions><speed>1.452535</speed><course>67.460022</course><hAcc>1.878664</hAcc><vAcc>0.603740</vAcc></extensions></trkpt>
      <trkpt lon="-3.039093" lat="52.722452"><ele>289.482086</ele><time>2022-01-15T12:28:46Z</time><extensions><speed>1.433785</speed><course>67.064270</course><hAcc>1.896239</hAcc><vAcc>0.597104</vAcc></extensions></trkpt>
      <trkpt lon="-3.039074" lat="52.722457"><ele>289.279358</ele><time>2022-01-15T12:28:47Z</time><extensions><speed>1.364716</speed><course>66.697632</course><hAcc>1.906296</hAcc><vAcc>0.590304</vAcc></extensions></trkpt>
      <trkpt lon="-3.039056" lat="52.722462"><ele>289.066010</ele><time>2022-01-15T12:28:48Z</time><extensions><speed>1.255064</speed><course>65.937927</course><hAcc>1.910428</hAcc><vAcc>0.583704</vAcc></extensions></trkpt>
      <trkpt lon="-3.039039" lat="52.722466"><ele>288.845764</ele><time>2022-01-15T12:28:49Z</time><extensions><speed>1.218757</speed><course>64.651833</course><hAcc>1.908082</hAcc><vAcc>0.577739</vAcc></extensions></trkpt>
      <trkpt lon="-3.039023" lat="52.722471"><ele>288.622070</ele><time>2022-01-15T12:28:50Z</time><extensions><speed>1.242087</speed><course>63.084049</course><hAcc>1.897404</hAcc><vAcc>0.572890</vAcc></extensions></trkpt>
      <trkpt lon="-3.039006" lat="52.722476"><ele>288.398071</ele><time>2022-01-15T12:28:51Z</time><extensions><speed>1.254001</speed><course>60.229561</course><hAcc>1.901158</hAcc><vAcc>0.569704</vAcc></extensions></trkpt>
      <trkpt lon="-3.038990" lat="52.722482"><ele>288.178467</ele><time>2022-01-15T12:28:52Z</time><extensions><speed>1.264681</speed><course>58.115585</course><hAcc>1.917651</hAcc><vAcc>0.568740</vAcc></extensions></trkpt>
      <trkpt lon="-3.038974" lat="52.722488"><ele>287.961548</ele><time>2022-01-15T12:28:53Z</time><extensions><speed>1.277037</speed><course>58.935284</course><hAcc>1.901429</hAcc><vAcc>0.570471</vAcc></extensions></trkpt>
      <trkpt lon="-3.038958" lat="52.722494"><ele>287.753632</ele><time>2022-01-15T12:28:54Z</time><extensions><speed>1.255230</speed><course>59.703979</course><hAcc>1.863651</hAcc><vAcc>0.575222</vAcc></extensions></trkpt>
      <trkpt lon="-3.038942" lat="52.722499"><ele>287.556030</ele><time>2022-01-15T12:28:55Z</time><extensions><speed>1.188594</speed><course>61.140163</course><hAcc>1.839648</hAcc><vAcc>0.583085</vAcc></extensions></trkpt>
      <trkpt lon="-3.038927" lat="52.722504"><ele>287.355957</ele><time>2022-01-15T12:28:56Z</time><extensions><speed>1.101627</speed><course>64.201302</course><hAcc>1.831911</hAcc><vAcc>0.593794</vAcc></extensions></trkpt>
      <trkpt lon="-3.038913" lat="52.722508"><ele>287.190155</ele><time>2022-01-15T12:28:57Z</time><extensions><speed>0.994935</speed><course>69.285095</course><hAcc>1.847873</hAcc><vAcc>0.606771</vAcc></extensions></trkpt>
      <trkpt lon="-3.038899" lat="52.722510"><ele>287.031525</ele><time>2022-01-15T12:28:58Z</time><extensions><speed>0.892975</speed><course>73.632828</course><hAcc>1.855842</hAcc><vAcc>0.621027</vAcc></extensions></trkpt>
      <trkpt lon="-3.038886" lat="52.722512"><ele>286.879822</ele><time>2022-01-15T12:28:59Z</time><extensions><speed>0.973628</speed><course>80.574883</course><hAcc>1.811361</hAcc><vAcc>0.635616</vAcc></extensions></trkpt>
      <trkpt lon="-3.038871" lat="52.722513"><ele>286.745483</ele><time>2022-01-15T12:29:00Z</time><extensions><speed>1.030552</speed><course>85.516586</course><hAcc>1.796066</hAcc><vAcc>0.649803</vAcc></extensions></trkpt>
      <trkpt lon="-3.038856" lat="52.722514"><ele>286.625549</ele><time>2022-01-15T12:29:01Z</time><extensions><speed>0.938458</speed><course>88.612793</course><hAcc>1.814389</hAcc><vAcc>0.663060</vAcc></extensions></trkpt>
      <trkpt lon="-3.038844" lat="52.722514"><ele>286.519592</ele><time>2022-01-15T12:29:02Z</time><extensions><speed>0.782207</speed><course>93.888885</course><hAcc>1.799989</hAcc><vAcc>0.674723</vAcc></extensions></trkpt>
      <trkpt lon="-3.038834" lat="52.722513"><ele>286.421722</ele><time>2022-01-15T12:29:03Z</time><extensions><speed>0.575910</speed><course>99.649117</course><hAcc>1.797355</hAcc><vAcc>0.684455</vAcc></extensions></trkpt>
      <trkpt lon="-3.038827" lat="52.722512"><ele>286.314056</ele><time>2022-01-15T12:29:04Z</time><extensions><speed>0.372454</speed><course>104.116455</course><hAcc>1.810812</hAcc><vAcc>0.692074</vAcc></extensions></trkpt>
      <trkpt lon="-3.038821" lat="52.722511"><ele>286.232880</ele><time>2022-01-15T12:29:05Z</time><extensions><speed>0.328512</speed><course>104.655853</course><hAcc>1.805397</hAcc><vAcc>0.697414</vAcc></extensions></trkpt>
      <trkpt lon="-3.038816" lat="52.722510"><ele>286.107056</ele><time>2022-01-15T12:29:06Z</time><extensions><speed>0.377595</speed><course>103.067047</course><hAcc>1.794829</hAcc><vAcc>0.700710</vAcc></extensions></trkpt>
      <trkpt lon="-3.038811" lat="52.722510"><ele>285.975677</ele><time>2022-01-15T12:29:07Z</time><extensions><speed>0.329729</speed><course>94.388779</course><hAcc>1.820582</hAcc><vAcc>0.702442</vAcc></extensions></trkpt>
      <trkpt lon="-3.038807" lat="52.722510"><ele>285.827667</ele><time>2022-01-15T12:29:08Z</time><extensions><speed>0.199633</speed><course>91.511925</course><hAcc>1.850071</hAcc><vAcc>0.702912</vAcc></extensions></trkpt>
      <trkpt lon="-3.038804" lat="52.722510"><ele>285.668152</ele><time>2022-01-15T12:29:09Z</time><extensions><speed>0.214623</speed><course>87.254875</course><hAcc>1.833298</hAcc><vAcc>0.702666</vAcc></extensions></trkpt>
      <trkpt lon="-3.038801" lat="52.722510"><ele>285.517029</ele><time>2022-01-15T12:29:10Z</time><extensions><speed>0.241418</speed><course>85.115578</course><hAcc>1.825559</hAcc><vAcc>0.702082</vAcc></extensions></trkpt>
      <trkpt lon="-3.038797" lat="52.722510"><ele>285.356171</ele><time>2022-01-15T12:29:11Z</time><extensions><speed>0.276534</speed><course>85.237564</course><hAcc>1.825322</hAcc><vAcc>0.701458</vAcc></extensions></trkpt>
      <trkpt lon="-3.038792" lat="52.722511"><ele>285.200714</ele><time>2022-01-15T12:29:12Z</time><extensions><speed>0.314740</speed><course>86.608406</course><hAcc>1.817711</hAcc><vAcc>0.700970</vAcc></extensions></trkpt>
      <trkpt lon="-3.038787" lat="52.722511"><ele>285.042572</ele><time>2022-01-15T12:29:13Z</time><extensions><speed>0.330403</speed><course>86.128952</course><hAcc>1.809435</hAcc><vAcc>0.700732</vAcc></extensions></trkpt>
      <trkpt lon="-3.038783" lat="52.722511"><ele>284.862427</ele><time>2022-01-15T12:29:14Z</time><extensions><speed>0.296778</speed><course>79.981476</course><hAcc>1.826288</hAcc><vAcc>0.700840</vAcc></extensions></trkpt>
      <trkpt lon="-3.038779" lat="52.722512"><ele>284.680817</ele><time>2022-01-15T12:29:15Z</time><extensions><speed>0.203913</speed><course>64.433578</course><hAcc>1.864687</hAcc><vAcc>0.701338</vAcc></extensions></trkpt>
      <trkpt lon="-3.038776" lat="52.722513"><ele>284.512909</ele><time>2022-01-15T12:29:16Z</time><extensions><speed>0.286771</speed><course>48.049244</course><hAcc>1.835403</hAcc><vAcc>0.702233</vAcc></extensions></trkpt>
      <trkpt lon="-3.038773" lat="52.722515"><ele>284.361267</ele><time>2022-01-15T12:29:16Z</time><extensions><speed>0.370201</speed><course>44.156593</course><hAcc>1.823926</hAcc><vAcc>0.703525</vAcc></extensions></trkpt>
      <trkpt lon="-3.038768" lat="52.722518"><ele>284.221375</ele><time>2022-01-15T12:29:17Z</time><extensions><speed>0.460124</speed><course>48.120323</course><hAcc>1.837198</hAcc><vAcc>0.705114</vAcc></extensions></trkpt>
      <trkpt lon="-3.038762" lat="52.722521"><ele>284.096039</ele><time>2022-01-15T12:29:18Z</time><extensions><speed>0.595619</speed><course>54.387123</course><hAcc>1.847759</hAcc><vAcc>0.706857</vAcc></extensions></trkpt>
      <trkpt lon="-3.038753" lat="52.722524"><ele>283.993958</ele><time>2022-01-15T12:29:19Z</time><extensions><speed>0.867486</speed><course>60.454464</course><hAcc>1.839698</hAcc><vAcc>0.708714</vAcc></extensions></trkpt>
      <trkpt lon="-3.038740" lat="52.722529"><ele>283.905884</ele><time>2022-01-15T12:29:20Z</time><extensions><speed>1.070067</speed><course>63.198906</course><hAcc>1.842378</hAcc><vAcc>0.710662</vAcc></extensions></trkpt>
      <trkpt lon="-3.038725" lat="52.722533"><ele>283.833466</ele><time>2022-01-15T12:29:21Z</time><extensions><speed>1.210670</speed><course>64.576553</course><hAcc>1.859599</hAcc><vAcc>0.712759</vAcc></extensions></trkpt>
      <trkpt lon="-3.038708" lat="52.722538"><ele>283.763123</ele><time>2022-01-15T12:29:22Z</time><extensions><speed>1.274176</speed><course>64.252853</course><hAcc>1.873181</hAcc><vAcc>0.715076</vAcc></extensions></trkpt>
      <trkpt lon="-3.038691" lat="52.722543"><ele>283.700989</ele><time>2022-01-15T12:29:24Z</time><extensions><speed>1.252134</speed><course>65.094315</course><hAcc>1.877869</hAcc><vAcc>0.717683</vAcc></extensions></trkpt>
      <trkpt lon="-3.038674" lat="52.722547"><ele>283.637024</ele><time>2022-01-15T12:29:25Z</time><extensions><speed>1.267319</speed><course>67.021347</course><hAcc>1.868719</hAcc><vAcc>0.720665</vAcc></extensions></trkpt>
      <trkpt lon="-3.038657" lat="52.722551"><ele>283.569702</ele><time>2022-01-15T12:29:26Z</time><extensions><speed>1.297309</speed><course>70.777573</course><hAcc>1.849508</hAcc><vAcc>0.724029</vAcc></extensions></trkpt>
      <trkpt lon="-3.038638" lat="52.722555"><ele>283.499176</ele><time>2022-01-15T12:29:27Z</time><extensions><speed>1.255048</speed><course>75.324913</course><hAcc>1.829648</hAcc><vAcc>0.727740</vAcc></extensions></trkpt>
      <trkpt lon="-3.038621" lat="52.722557"><ele>283.432220</ele><time>2022-01-15T12:29:28Z</time><extensions><speed>1.167056</speed><course>80.314117</course><hAcc>1.815191</hAcc><vAcc>0.731699</vAcc></extensions></trkpt>
      <trkpt lon="-3.038604" lat="52.722558"><ele>283.363220</ele><time>2022-01-15T12:29:29Z</time><extensions><speed>1.083533</speed><course>85.012291</course><hAcc>1.829239</hAcc><vAcc>0.735768</vAcc></extensions></trkpt>
      <trkpt lon="-3.038589" lat="52.722559"><ele>283.305206</ele><time>2022-01-15T12:29:30Z</time><extensions><speed>1.010490</speed><course>89.289940</course><hAcc>1.865159</hAcc><vAcc>0.739739</vAcc></extensions></trkpt>
      <trkpt lon="-3.038573" lat="52.722559"><ele>283.239532</ele><time>2022-01-15T12:29:31Z</time><extensions><speed>1.075769</speed><course>94.337242</course><hAcc>1.833854</hAcc><vAcc>0.743464</vAcc></extensions></trkpt>
      <trkpt lon="-3.038557" lat="52.722557"><ele>283.148529</ele><time>2022-01-15T12:29:32Z</time><extensions><speed>1.114275</speed><course>98.566658</course><hAcc>1.813703</hAcc><vAcc>0.746797</vAcc></extensions></trkpt>
      <trkpt lon="-3.038541" lat="52.722556"><ele>283.074158</ele><time>2022-01-15T12:29:33Z</time><extensions><speed>1.151940</speed><course>101.943161</course><hAcc>1.818305</hAcc><vAcc>0.749623</vAcc></extensions></trkpt>
      <trkpt lon="-3.038524" lat="52.722553"><ele>282.964478</ele><time>2022-01-15T12:29:34Z</time><extensions><speed>1.188158</speed><course>104.325729</course><hAcc>1.826818</hAcc><vAcc>0.751886</vAcc></extensions></trkpt>
      <trkpt lon="-3.038506" lat="52.722550"><ele>282.864807</ele><time>2022-01-15T12:29:35Z</time><extensions><speed>1.287804</speed><course>106.513443</course><hAcc>1.834804</hAcc><vAcc>0.753651</vAcc></extensions></trkpt>
      <trkpt lon="-3.038488" lat="52.722547"><ele>282.754395</ele><time>2022-01-15T12:29:36Z</time><extensions><speed>1.313228</speed><course>108.249115</course><hAcc>1.842822</hAcc><vAcc>0.754911</vAcc></extensions></trkpt>
      <trkpt lon="-3.038470" lat="52.722543"><ele>282.619019</ele><time>2022-01-15T12:29:37Z</time><extensions><speed>1.258054</speed><course>108.543518</course><hAcc>1.850444</hAcc><vAcc>0.755686</vAcc></extensions></trkpt>
      <trkpt lon="-3.038453" lat="52.722540"><ele>282.475403</ele><time>2022-01-15T12:29:38Z</time><extensions><speed>1.141540</speed><course>105.704300</course><hAcc>1.851290</hAcc><vAcc>0.755996</vAcc></extensions></trkpt>
      <trkpt lon="-3.038436" lat="52.722538"><ele>282.331451</ele><time>2022-01-15T12:29:39Z</time><extensions><speed>1.075540</speed><course>95.090591</course><hAcc>1.839796</hAcc><vAcc>0.755869</vAcc></extensions></trkpt>
      <trkpt lon="-3.038420" lat="52.722538"><ele>282.159454</ele><time>2022-01-15T12:29:40Z</time><extensions><speed>1.152903</speed><course>83.641739</course><hAcc>1.834671</hAcc><vAcc>0.755427</vAcc></extensions></trkpt>
      <trkpt lon="-3.038403" lat="52.722540"><ele>281.995361</ele><time>2022-01-15T12:29:41Z</time><extensions><speed>1.233547</speed><course>77.376572</course><hAcc>1.844582</hAcc><vAcc>0.754822</vAcc></extensions></trkpt>
      <trkpt lon="-3.038384" lat="52.722543"><ele>281.818054</ele><time>2022-01-15T12:29:42Z</time><extensions><speed>1.337747</speed><course>75.617836</course><hAcc>1.845336</hAcc><vAcc>0.754173</vAcc></extensions></trkpt>
      <trkpt lon="-3.038364" lat="52.722546"><ele>281.636932</ele><time>2022-01-15T12:29:43Z</time><extensions><speed>1.438621</speed><course>75.564148</course><hAcc>1.832195</hAcc><vAcc>0.753632</vAcc></extensions></trkpt>
      <trkpt lon="-3.038344" lat="52.722549"><ele>281.440308</ele><time>2022-01-15T12:29:44Z</time><extensions><speed>1.416142</speed><course>77.147011</course><hAcc>1.825606</hAcc><vAcc>0.753297</vAcc></extensions></trkpt>
      <trkpt lon="-3.038323" lat="52.722552"><ele>281.234985</ele><time>2022-01-15T12:29:45Z</time><extensions><speed>1.379533</speed><course>79.218323</course><hAcc>1.831330</hAcc><vAcc>0.753236</vAcc></extensions></trkpt>
      <trkpt lon="-3.038304" lat="52.722554"><ele>281.027527</ele><time>2022-01-15T12:29:46Z</time><extensions><speed>1.316607</speed><course>81.908272</course><hAcc>1.842983</hAcc><vAcc>0.753429</vAcc></extensions></trkpt>
      <trkpt lon="-3.038284" lat="52.722555"><ele>280.814972</ele><time>2022-01-15T12:29:47Z</time><extensions><speed>1.324152</speed><course>83.261772</course><hAcc>1.827412</hAcc><vAcc>0.753823</vAcc></extensions></trkpt>
      <trkpt lon="-3.038265" lat="52.722556"><ele>280.600281</ele><time>2022-01-15T12:29:48Z</time><extensions><speed>1.311920</speed><course>84.572563</course><hAcc>1.806041</hAcc><vAcc>0.754421</vAcc></extensions></trkpt>
      <trkpt lon="-3.038246" lat="52.722557"><ele>280.379944</ele><time>2022-01-15T12:29:49Z</time><extensions><speed>1.281037</speed><course>85.124458</course><hAcc>1.797195</hAcc><vAcc>0.755182</vAcc></extensions></trkpt>
      <trkpt lon="-3.038227" lat="52.722558"><ele>280.168854</ele><time>2022-01-15T12:29:50Z</time><extensions><speed>1.240166</speed><course>85.708206</course><hAcc>1.808897</hAcc><vAcc>0.756062</vAcc></extensions></trkpt>
      <trkpt lon="-3.038209" lat="52.722559"><ele>279.963806</ele><time>2022-01-15T12:29:51Z</time><extensions><speed>1.236988</speed><course>85.767128</course><hAcc>1.826245</hAcc><vAcc>0.757018</vAcc></extensions></trkpt>
      <trkpt lon="-3.038191" lat="52.722560"><ele>279.747711</ele><time>2022-01-15T12:29:52Z</time><extensions><speed>1.191570</speed><course>86.592361</course><hAcc>1.819434</hAcc><vAcc>0.757931</vAcc></extensions></trkpt>
      <trkpt lon="-3.038174" lat="52.722560"><ele>279.533142</ele><time>2022-01-15T12:29:53Z</time><extensions><speed>1.098643</speed><course>88.792885</course><hAcc>1.807525</hAcc><vAcc>0.758756</vAcc></extensions></trkpt>
      <trkpt lon="-3.038158" lat="52.722560"><ele>279.329803</ele><time>2022-01-15T12:29:54Z</time><extensions><speed>1.010939</speed><course>92.347458</course><hAcc>1.804310</hAcc><vAcc>0.759368</vAcc></extensions></trkpt>
      <trkpt lon="-3.038144" lat="52.722560"><ele>279.111145</ele><time>2022-01-15T12:29:55Z</time><extensions><speed>0.914598</speed><course>96.449020</course><hAcc>1.820316</hAcc><vAcc>0.759736</vAcc></extensions></trkpt>
      <trkpt lon="-3.038131" lat="52.722558"><ele>278.896423</ele><time>2022-01-15T12:29:56Z</time><extensions><speed>0.842800</speed><course>101.905075</course><hAcc>1.828825</hAcc><vAcc>0.759771</vAcc></extensions></trkpt>
      <trkpt lon="-3.038119" lat="52.722556"><ele>278.700928</ele><time>2022-01-15T12:29:57Z</time><extensions><speed>0.833587</speed><course>107.481766</course><hAcc>1.823157</hAcc><vAcc>0.759430</vAcc></extensions></trkpt>
      <trkpt lon="-3.038107" lat="52.722554"><ele>278.510162</ele><time>2022-01-15T12:29:58Z</time><extensions><speed>0.824099</speed><course>110.101074</course><hAcc>1.824042</hAcc><vAcc>0.758663</vAcc></extensions></trkpt>
      <trkpt lon="-3.038096" lat="52.722552"><ele>278.331299</ele><time>2022-01-15T12:29:59Z</time><extensions><speed>0.802106</speed><course>110.248718</course><hAcc>1.834950</hAcc><vAcc>0.757402</vAcc></extensions></trkpt>
      <trkpt lon="-3.038085" lat="52.722549"><ele>278.122681</ele><time>2022-01-15T12:30:00Z</time><extensions><speed>0.778417</speed><course>107.821281</course><hAcc>1.844931</hAcc><vAcc>0.755667</vAcc></extensions></trkpt>
      <trkpt lon="-3.038074" lat="52.722547"><ele>277.926819</ele><time>2022-01-15T12:30:01Z</time><extensions><speed>0.765227</speed><course>104.062904</course><hAcc>1.852216</hAcc><vAcc>0.753409</vAcc></extensions></trkpt>
      <trkpt lon="-3.038063" lat="52.722546"><ele>277.744354</ele><time>2022-01-15T12:30:02Z</time><extensions><speed>0.760081</speed><course>100.906639</course><hAcc>1.861425</hAcc><vAcc>0.750666</vAcc></extensions></trkpt>
      <trkpt lon="-3.038052" lat="52.722545"><ele>277.564087</ele><time>2022-01-15T12:30:03Z</time><extensions><speed>0.771646</speed><course>96.696503</course><hAcc>1.866721</hAcc><vAcc>0.747446</vAcc></extensions></trkpt>
      <trkpt lon="-3.038041" lat="52.722544"><ele>277.376495</ele><time>2022-01-15T12:30:04Z</time><extensions><speed>0.755232</speed><course>91.179375</course><hAcc>1.873207</hAcc><vAcc>0.743899</vAcc></extensions></trkpt>
      <trkpt lon="-3.038030" lat="52.722544"><ele>277.199066</ele><time>2022-01-15T12:30:05Z</time><extensions><speed>0.723130</speed><course>86.215508</course><hAcc>1.890208</hAcc><vAcc>0.740201</vAcc></extensions></trkpt>
      <trkpt lon="-3.038019" lat="52.722545"><ele>277.018799</ele><time>2022-01-15T12:30:06Z</time><extensions><speed>0.744660</speed><course>81.522430</course><hAcc>1.891247</hAcc><vAcc>0.736495</vAcc></extensions></trkpt>
      <trkpt lon="-3.038008" lat="52.722546"><ele>276.845978</ele><time>2022-01-15T12:30:07Z</time><extensions><speed>0.749952</speed><course>76.585060</course><hAcc>1.884995</hAcc><vAcc>0.732921</vAcc></extensions></trkpt>
      <trkpt lon="-3.037997" lat="52.722548"><ele>276.668274</ele><time>2022-01-15T12:30:08Z</time><extensions><speed>0.730056</speed><course>71.675346</course><hAcc>1.875186</hAcc><vAcc>0.729708</vAcc></extensions></trkpt>
      <trkpt lon="-3.037986" lat="52.722551"><ele>276.480469</ele><time>2022-01-15T12:30:09Z</time><extensions><speed>0.877894</speed><course>70.537209</course><hAcc>1.848032</hAcc><vAcc>0.726944</vAcc></extensions></trkpt>
      <trkpt lon="-3.037973" lat="52.722553"><ele>276.297668</ele><time>2022-01-15T12:30:10Z</time><extensions><speed>0.911796</speed><course>69.567383</course><hAcc>1.836934</hAcc><vAcc>0.724724</vAcc></extensions></trkpt>
      <trkpt lon="-3.037959" lat="52.722556"><ele>276.111023</ele><time>2022-01-15T12:30:11Z</time><extensions><speed>0.992777</speed><course>68.741318</course><hAcc>1.820935</hAcc><vAcc>0.723096</vAcc></extensions></trkpt>
      <trkpt lon="-3.037945" lat="52.722559"><ele>275.907715</ele><time>2022-01-15T12:30:12Z</time><extensions><speed>1.000124</speed><course>70.131462</course><hAcc>1.826948</hAcc><vAcc>0.722114</vAcc></extensions></trkpt>
      <trkpt lon="-3.037931" lat="52.722562"><ele>275.710999</ele><time>2022-01-15T12:30:13Z</time><extensions><speed>0.991373</speed><course>72.130905</course><hAcc>1.781633</hAcc><vAcc>0.721792</vAcc></extensions></trkpt>
      <trkpt lon="-3.037918" lat="52.722565"><ele>275.515350</ele><time>2022-01-15T12:30:14Z</time><extensions><speed>0.823401</speed><course>73.983727</course><hAcc>1.760852</hAcc><vAcc>0.722148</vAcc></extensions></trkpt>
      <trkpt lon="-3.037907" lat="52.722566"><ele>275.312317</ele><time>2022-01-15T12:30:15Z</time><extensions><speed>0.730994</speed><course>82.826408</course><hAcc>1.722265</hAcc><vAcc>0.723208</vAcc></extensions></trkpt>
      <trkpt lon="-3.037895" lat="52.722567"><ele>275.105957</ele><time>2022-01-15T12:30:16Z</time><extensions><speed>0.856798</speed><course>86.646164</course><hAcc>1.704790</hAcc><vAcc>0.724935</vAcc></extensions></trkpt>
      <trkpt lon="-3.037881" lat="52.722567"><ele>274.887146</ele><time>2022-01-15T12:30:17Z</time><extensions><speed>0.998379</speed><course>85.605606</course><hAcc>1.745377</hAcc><vAcc>0.727335</vAcc></extensions></trkpt>
      <trkpt lon="-3.037866" lat="52.722568"><ele>274.659790</ele><time>2022-01-15T12:30:18Z</time><extensions><speed>1.036628</speed><course>88.475342</course><hAcc>1.746408</hAcc><vAcc>0.730369</vAcc></extensions></trkpt>
      <trkpt lon="-3.037849" lat="52.722568"><ele>274.437927</ele><time>2022-01-15T12:30:19Z</time><extensions><speed>1.169365</speed><course>93.552658</course><hAcc>1.718842</hAcc><vAcc>0.733886</vAcc></extensions></trkpt>
      <trkpt lon="-3.037832" lat="52.722567"><ele>274.199982</ele><time>2022-01-15T12:30:20Z</time><extensions><speed>1.164542</speed><course>96.937584</course><hAcc>1.742843</hAcc><vAcc>0.737759</vAcc></extensions></trkpt>
      <trkpt lon="-3.037814" lat="52.722565"><ele>273.967133</ele><time>2022-01-15T12:30:21Z</time><extensions><speed>1.258746</speed><course>98.581299</course><hAcc>1.723394</hAcc><vAcc>0.741829</vAcc></extensions></trkpt>
      <trkpt lon="-3.037796" lat="52.722563"><ele>273.726440</ele><time>2022-01-15T12:30:22Z</time><extensions><speed>1.271456</speed><course>100.258804</course><hAcc>1.717747</hAcc><vAcc>0.745956</vAcc></extensions></trkpt>
      <trkpt lon="-3.037777" lat="52.722561"><ele>273.500275</ele><time>2022-01-15T12:30:23Z</time><extensions><speed>1.260788</speed><course>100.479996</course><hAcc>1.718807</hAcc><vAcc>0.749979</vAcc></extensions></trkpt>
      <trkpt lon="-3.037759" lat="52.722559"><ele>273.256226</ele><time>2022-01-15T12:30:24Z</time><extensions><speed>1.211170</speed><course>100.383644</course><hAcc>1.729297</hAcc><vAcc>0.753790</vAcc></extensions></trkpt>
      <trkpt lon="-3.037742" lat="52.722557"><ele>273.028259</ele><time>2022-01-15T12:30:25Z</time><extensions><speed>1.106612</speed><course>101.130264</course><hAcc>1.748609</hAcc><vAcc>0.757297</vAcc></extensions></trkpt>
      <trkpt lon="-3.037726" lat="52.722556"><ele>272.796448</ele><time>2022-01-15T12:30:26Z</time><extensions><speed>1.100856</speed><course>100.136833</course><hAcc>1.721566</hAcc><vAcc>0.760382</vAcc></extensions></trkpt>
      <trkpt lon="-3.037710" lat="52.722554"><ele>272.578156</ele><time>2022-01-15T12:30:27Z</time><extensions><speed>1.041460</speed><course>101.022568</course><hAcc>1.728316</hAcc><vAcc>0.762977</vAcc></extensions></trkpt>
      <trkpt lon="-3.037695" lat="52.722552"><ele>272.358246</ele><time>2022-01-15T12:30:28Z</time><extensions><speed>0.992546</speed><course>100.579773</course><hAcc>1.747743</hAcc><vAcc>0.765076</vAcc></extensions></trkpt>
      <trkpt lon="-3.037681" lat="52.722551"><ele>272.122253</ele><time>2022-01-15T12:30:29Z</time><extensions><speed>0.955722</speed><course>99.829964</course><hAcc>1.757512</hAcc><vAcc>0.766705</vAcc></extensions></trkpt>
      <trkpt lon="-3.037666" lat="52.722549"><ele>271.911560</ele><time>2022-01-15T12:30:30Z</time><extensions><speed>1.018791</speed><course>100.099693</course><hAcc>1.731517</hAcc><vAcc>0.767870</vAcc></extensions></trkpt>
      <trkpt lon="-3.037651" lat="52.722547"><ele>271.701324</ele><time>2022-01-15T12:30:31Z</time><extensions><speed>1.056766</speed><course>100.410431</course><hAcc>1.729334</hAcc><vAcc>0.768605</vAcc></extensions></trkpt>
      <trkpt lon="-3.037636" lat="52.722546"><ele>271.501343</ele><time>2022-01-15T12:30:32Z</time><extensions><speed>1.070768</speed><course>100.536987</course><hAcc>1.744362</hAcc><vAcc>0.768945</vAcc></extensions></trkpt>
      <trkpt lon="-3.037620" lat="52.722544"><ele>271.306702</ele><time>2022-01-15T12:30:33Z</time><extensions><speed>1.081270</speed><course>99.936897</course><hAcc>1.748624</hAcc><vAcc>0.768967</vAcc></extensions></trkpt>
      <trkpt lon="-3.037604" lat="52.722542"><ele>271.111481</ele><time>2022-01-15T12:30:34Z</time><extensions><speed>1.088920</speed><course>99.416130</course><hAcc>1.742844</hAcc><vAcc>0.768675</vAcc></extensions></trkpt>
      <trkpt lon="-3.037587" lat="52.722541"><ele>270.914825</ele><time>2022-01-15T12:30:35Z</time><extensions><speed>1.142817</speed><course>98.713638</course><hAcc>1.737517</hAcc><vAcc>0.768102</vAcc></extensions></trkpt>
      <trkpt lon="-3.037570" lat="52.722539"><ele>270.727112</ele><time>2022-01-15T12:30:36Z</time><extensions><speed>1.152443</speed><course>98.930229</course><hAcc>1.752753</hAcc><vAcc>0.767248</vAcc></extensions></trkpt>
      <trkpt lon="-3.037553" lat="52.722538"><ele>270.543640</ele><time>2022-01-15T12:30:37Z</time><extensions><speed>1.184631</speed><course>97.853783</course><hAcc>1.733759</hAcc><vAcc>0.766146</vAcc></extensions></trkpt>
      <trkpt lon="-3.037535" lat="52.722536"><ele>270.354218</ele><time>2022-01-15T12:30:38Z</time><extensions><speed>1.209422</speed><course>97.054237</course><hAcc>1.682046</hAcc><vAcc>0.764824</vAcc></extensions></trkpt>
      <trkpt lon="-3.037517" lat="52.722535"><ele>270.170929</ele><time>2022-01-15T12:30:39Z</time><extensions><speed>1.157937</speed><course>97.390335</course><hAcc>1.675622</hAcc><vAcc>0.763287</vAcc></extensions></trkpt>
      <trkpt lon="-3.037501" lat="52.722534"><ele>269.988708</ele><time>2022-01-15T12:30:40Z</time><extensions><speed>1.047557</speed><course>98.418869</course><hAcc>1.698748</hAcc><vAcc>0.761637</vAcc></extensions></trkpt>
      <trkpt lon="-3.037484" lat="52.722532"><ele>269.802734</ele><time>2022-01-15T12:30:41Z</time><extensions><speed>1.141137</speed><course>95.852959</course><hAcc>1.640803</hAcc><vAcc>0.759932</vAcc></extensions></trkpt>
      <trkpt lon="-3.037467" lat="52.722531"><ele>269.624207</ele><time>2022-01-15T12:30:42Z</time><extensions><speed>1.127705</speed><course>95.153442</course><hAcc>1.638223</hAcc><vAcc>0.758205</vAcc></extensions></trkpt>
      <trkpt lon="-3.037452" lat="52.722531"><ele>269.452240</ele><time>2022-01-15T12:30:43Z</time><extensions><speed>0.977533</speed><course>96.172752</course><hAcc>1.706699</hAcc><vAcc>0.756467</vAcc></extensions></trkpt>
      <trkpt lon="-3.037438" lat="52.722530"><ele>269.293701</ele><time>2022-01-15T12:30:44Z</time><extensions><speed>0.907371</speed><course>96.841812</course><hAcc>1.707698</hAcc><vAcc>0.754739</vAcc></extensions></trkpt>
      <trkpt lon="-3.037424" lat="52.722529"><ele>269.147736</ele><time>2022-01-15T12:30:45Z</time><extensions><speed>0.981952</speed><course>94.314064</course><hAcc>1.671183</hAcc><vAcc>0.753181</vAcc></extensions></trkpt>
      <trkpt lon="-3.037410" lat="52.722528"><ele>268.969879</ele><time>2022-01-15T12:30:46Z</time><extensions><speed>0.884958</speed><course>93.259087</course><hAcc>1.698520</hAcc><vAcc>0.751840</vAcc></extensions></trkpt>
      <trkpt lon="-3.037398" lat="52.722528"><ele>268.805908</ele><time>2022-01-15T12:30:47Z</time><extensions><speed>0.694164</speed><course>92.182144</course><hAcc>1.755332</hAcc><vAcc>0.750757</vAcc></extensions></trkpt>
      <trkpt lon="-3.037386" lat="52.722528"><ele>268.640564</ele><time>2022-01-15T12:30:48Z</time><extensions><speed>0.900698</speed><course>92.909401</course><hAcc>1.766838</hAcc><vAcc>0.750002</vAcc></extensions></trkpt>
      <trkpt lon="-3.037371" lat="52.722527"><ele>268.483673</ele><time>2022-01-15T12:30:49Z</time><extensions><speed>1.243260</speed><course>94.264351</course><hAcc>1.771025</hAcc><vAcc>0.749663</vAcc></extensions></trkpt>
      <trkpt lon="-3.037351" lat="52.722526"><ele>268.324646</ele><time>2022-01-15T12:30:50Z</time><extensions><speed>1.373073</speed><course>95.278847</course><hAcc>1.805634</hAcc><vAcc>0.749777</vAcc></extensions></trkpt>
      <trkpt lon="-3.037331" lat="52.722525"><ele>268.170258</ele><time>2022-01-15T12:30:51Z</time><extensions><speed>1.359730</speed><course>95.929153</course><hAcc>1.842030</hAcc><vAcc>0.750360</vAcc></extensions></trkpt>
      <trkpt lon="-3.037311" lat="52.722524"><ele>268.012726</ele><time>2022-01-15T12:30:52Z</time><extensions><speed>1.352390</speed><course>94.731476</course><hAcc>1.853662</hAcc><vAcc>0.751411</vAcc></extensions></trkpt>
      <trkpt lon="-3.037291" lat="52.722523"><ele>267.867950</ele><time>2022-01-15T12:30:53Z</time><extensions><speed>1.301745</speed><course>94.360443</course><hAcc>1.853978</hAcc><vAcc>0.752842</vAcc></extensions></trkpt>
      <trkpt lon="-3.037272" lat="52.722522"><ele>267.724396</ele><time>2022-01-15T12:30:54Z</time><extensions><speed>1.278008</speed><course>95.237679</course><hAcc>1.843955</hAcc><vAcc>0.754570</vAcc></extensions></trkpt>
      <trkpt lon="-3.037254" lat="52.722520"><ele>267.585114</ele><time>2022-01-15T12:30:55Z</time><extensions><speed>1.220704</speed><course>97.217186</course><hAcc>1.844046</hAcc><vAcc>0.756505</vAcc></extensions></trkpt>
      <trkpt lon="-3.037237" lat="52.722519"><ele>267.440704</ele><time>2022-01-15T12:30:56Z</time><extensions><speed>1.125837</speed><course>100.044685</course><hAcc>1.848844</hAcc><vAcc>0.758500</vAcc></extensions></trkpt>
      <trkpt lon="-3.037220" lat="52.722517"><ele>267.295380</ele><time>2022-01-15T12:30:57Z</time><extensions><speed>1.126950</speed><course>102.025543</course><hAcc>1.836028</hAcc><vAcc>0.760504</vAcc></extensions></trkpt>
      <trkpt lon="-3.037204" lat="52.722515"><ele>267.179871</ele><time>2022-01-15T12:30:58Z</time><extensions><speed>1.136266</speed><course>104.395210</course><hAcc>1.828332</hAcc><vAcc>0.762432</vAcc></extensions></trkpt>
      <trkpt lon="-3.037187" lat="52.722512"><ele>267.035614</ele><time>2022-01-15T12:30:59Z</time><extensions><speed>1.183604</speed><course>106.148323</course><hAcc>1.824603</hAcc><vAcc>0.764259</vAcc></extensions></trkpt>
      <trkpt lon="-3.037171" lat="52.722509"><ele>266.901917</ele><time>2022-01-15T12:31:00Z</time><extensions><speed>1.171378</speed><course>108.395622</course><hAcc>1.828129</hAcc><vAcc>0.766003</vAcc></extensions></trkpt>
      <trkpt lon="-3.037154" lat="52.722505"><ele>266.768677</ele><time>2022-01-15T12:31:01Z</time><extensions><speed>1.140131</speed><course>111.506180</course><hAcc>1.837919</hAcc><vAcc>0.767638</vAcc></extensions></trkpt>
      <trkpt lon="-3.037138" lat="52.722501"><ele>266.645264</ele><time>2022-01-15T12:31:02Z</time><extensions><speed>1.266874</speed><course>114.447609</course><hAcc>1.815630</hAcc><vAcc>0.769132</vAcc></extensions></trkpt>
      <trkpt lon="-3.037121" lat="52.722496"><ele>266.521454</ele><time>2022-01-15T12:31:03Z</time><extensions><speed>1.331280</speed><course>116.291397</course><hAcc>1.801918</hAcc><vAcc>0.770448</vAcc></extensions></trkpt>
      <trkpt lon="-3.037103" lat="52.722491"><ele>266.401764</ele><time>2022-01-15T12:31:04Z</time><extensions><speed>1.314385</speed><course>117.510231</course><hAcc>1.806550</hAcc><vAcc>0.771572</vAcc></extensions></trkpt>
      <trkpt lon="-3.037085" lat="52.722485"><ele>266.280212</ele><time>2022-01-15T12:31:05Z</time><extensions><speed>1.325210</speed><course>115.630287</course><hAcc>1.802253</hAcc><vAcc>0.772463</vAcc></extensions></trkpt>
      <trkpt lon="-3.037067" lat="52.722480"><ele>266.165375</ele><time>2022-01-15T12:31:06Z</time><extensions><speed>1.329469</speed><course>112.838219</course><hAcc>1.794950</hAcc><vAcc>0.773110</vAcc></extensions></trkpt>
      <trkpt lon="-3.037049" lat="52.722476"><ele>266.060425</ele><time>2022-01-15T12:31:07Z</time><extensions><speed>1.304028</speed><course>109.982063</course><hAcc>1.793680</hAcc><vAcc>0.773525</vAcc></extensions></trkpt>
      <trkpt lon="-3.037031" lat="52.722472"><ele>265.935730</ele><time>2022-01-15T12:31:08Z</time><extensions><speed>1.311349</speed><course>108.374023</course><hAcc>1.800852</hAcc><vAcc>0.773702</vAcc></extensions></trkpt>
      <trkpt lon="-3.037013" lat="52.722469"><ele>265.797363</ele><time>2022-01-15T12:31:09Z</time><extensions><speed>1.208911</speed><course>108.994553</course><hAcc>1.813619</hAcc><vAcc>0.773692</vAcc></extensions></trkpt>
      <trkpt lon="-3.036996" lat="52.722465"><ele>265.663483</ele><time>2022-01-15T12:31:10Z</time><extensions><speed>1.219554</speed><course>108.776405</course><hAcc>1.804364</hAcc><vAcc>0.773524</vAcc></extensions></trkpt>
      <trkpt lon="-3.036979" lat="52.722462"><ele>265.529388</ele><time>2022-01-15T12:31:11Z</time><extensions><speed>1.244493</speed><course>107.823662</course><hAcc>1.797589</hAcc><vAcc>0.773219</vAcc></extensions></trkpt>
      <trkpt lon="-3.036961" lat="52.722458"><ele>265.389252</ele><time>2022-01-15T12:31:12Z</time><extensions><speed>1.274134</speed><course>105.543503</course><hAcc>1.796794</hAcc><vAcc>0.772822</vAcc></extensions></trkpt>
      <trkpt lon="-3.036942" lat="52.722456"><ele>265.248657</ele><time>2022-01-15T12:31:13Z</time><extensions><speed>1.325355</speed><course>103.296776</course><hAcc>1.799507</hAcc><vAcc>0.772344</vAcc></extensions></trkpt>
      <trkpt lon="-3.036923" lat="52.722453"><ele>265.110992</ele><time>2022-01-15T12:31:14Z</time><extensions><speed>1.345326</speed><course>100.851204</course><hAcc>1.799584</hAcc><vAcc>0.771798</vAcc></extensions></trkpt>
      <trkpt lon="-3.036903" lat="52.722451"><ele>264.943604</ele><time>2022-01-15T12:31:15Z</time><extensions><speed>1.350704</speed><course>99.122429</course><hAcc>1.804515</hAcc><vAcc>0.771231</vAcc></extensions></trkpt>
      <trkpt lon="-3.036883" lat="52.722449"><ele>264.781036</ele><time>2022-01-15T12:31:16Z</time><extensions><speed>1.318157</speed><course>98.489815</course><hAcc>1.818252</hAcc><vAcc>0.770624</vAcc></extensions></trkpt>
      <trkpt lon="-3.036864" lat="52.722447"><ele>264.629211</ele><time>2022-01-15T12:31:17Z</time><extensions><speed>1.294711</speed><course>97.231171</course><hAcc>1.809553</hAcc><vAcc>0.769940</vAcc></extensions></trkpt>
      <trkpt lon="-3.036846" lat="52.722446"><ele>264.445984</ele><time>2022-01-15T12:31:18Z</time><extensions><speed>1.244545</speed><course>97.124931</course><hAcc>1.808743</hAcc><vAcc>0.769181</vAcc></extensions></trkpt>
      <trkpt lon="-3.036828" lat="52.722445"><ele>264.263184</ele><time>2022-01-15T12:31:19Z</time><extensions><speed>1.155122</speed><course>95.416496</course><hAcc>1.819130</hAcc><vAcc>0.768275</vAcc></extensions></trkpt>
      <trkpt lon="-3.036811" lat="52.722444"><ele>264.076630</ele><time>2022-01-15T12:31:20Z</time><extensions><speed>1.103008</speed><course>92.011116</course><hAcc>1.825870</hAcc><vAcc>0.767201</vAcc></extensions></trkpt>
      <trkpt lon="-3.036795" lat="52.722444"><ele>263.884857</ele><time>2022-01-15T12:31:21Z</time><extensions><speed>1.073708</speed><course>89.343300</course><hAcc>1.833420</hAcc><vAcc>0.765932</vAcc></extensions></trkpt>
      <trkpt lon="-3.036779" lat="52.722444"><ele>263.694397</ele><time>2022-01-15T12:31:22Z</time><extensions><speed>1.025648</speed><course>88.421646</course><hAcc>1.839127</hAcc><vAcc>0.764312</vAcc></extensions></trkpt>
      <trkpt lon="-3.036764" lat="52.722445"><ele>263.513458</ele><time>2022-01-15T12:31:23Z</time><extensions><speed>0.996837</speed><course>88.407761</course><hAcc>1.845071</hAcc><vAcc>0.762268</vAcc></extensions></trkpt>
      <trkpt lon="-3.036750" lat="52.722445"><ele>263.314789</ele><time>2022-01-15T12:31:24Z</time><extensions><speed>0.992214</speed><course>88.292358</course><hAcc>1.853354</hAcc><vAcc>0.759716</vAcc></extensions></trkpt>
      <trkpt lon="-3.036735" lat="52.722445"><ele>263.128418</ele><time>2022-01-15T12:31:25Z</time><extensions><speed>1.014176</speed><course>88.711243</course><hAcc>1.867220</hAcc><vAcc>0.756645</vAcc></extensions></trkpt>
      <trkpt lon="-3.036719" lat="52.722445"><ele>262.933075</ele><time>2022-01-15T12:31:26Z</time><extensions><speed>1.142359</speed><course>88.090240</course><hAcc>1.860649</hAcc><vAcc>0.753303</vAcc></extensions></trkpt>
      <trkpt lon="-3.036701" lat="52.722446"><ele>262.743561</ele><time>2022-01-15T12:31:27Z</time><extensions><speed>1.229654</speed><course>87.741501</course><hAcc>1.863589</hAcc><vAcc>0.749662</vAcc></extensions></trkpt>
      <trkpt lon="-3.036683" lat="52.722446"><ele>262.559662</ele><time>2022-01-15T12:31:28Z</time><extensions><speed>1.294984</speed><course>88.120255</course><hAcc>1.878632</hAcc><vAcc>0.745837</vAcc></extensions></trkpt>
      <trkpt lon="-3.036663" lat="52.722447"><ele>262.381622</ele><time>2022-01-15T12:31:29Z</time><extensions><speed>1.363813</speed><course>87.555412</course><hAcc>1.880883</hAcc><vAcc>0.741997</vAcc></extensions></trkpt>
      <trkpt lon="-3.036642" lat="52.722447"><ele>262.218475</ele><time>2022-01-15T12:31:30Z</time><extensions><speed>1.391014</speed><course>87.051018</course><hAcc>1.878673</hAcc><vAcc>0.738310</vAcc></extensions></trkpt>
      <trkpt lon="-3.036622" lat="52.722448"><ele>262.035492</ele><time>2022-01-15T12:31:31Z</time><extensions><speed>1.379326</speed><course>87.164497</course><hAcc>1.879289</hAcc><vAcc>0.734942</vAcc></extensions></trkpt>
      <trkpt lon="-3.036602" lat="52.722448"><ele>261.859985</ele><time>2022-01-15T12:31:32Z</time><extensions><speed>1.356699</speed><course>86.950005</course><hAcc>1.878142</hAcc><vAcc>0.732040</vAcc></extensions></trkpt>
      <trkpt lon="-3.036582" lat="52.722449"><ele>261.702057</ele><time>2022-01-15T12:31:33Z</time><extensions><speed>1.324489</speed><course>87.002510</course><hAcc>1.876310</hAcc><vAcc>0.729765</vAcc></extensions></trkpt>
      <trkpt lon="-3.036562" lat="52.722450"><ele>261.557617</ele><time>2022-01-15T12:31:34Z</time><extensions><speed>1.283780</speed><course>87.058678</course><hAcc>1.872856</hAcc><vAcc>0.728259</vAcc></extensions></trkpt>
      <trkpt lon="-3.036543" lat="52.722450"><ele>261.427734</ele><time>2022-01-15T12:31:35Z</time><extensions><speed>1.284167</speed><course>87.032890</course><hAcc>1.866153</hAcc><vAcc>0.727604</vAcc></extensions></trkpt>
      <trkpt lon="-3.036524" lat="52.722451"><ele>261.296295</ele><time>2022-01-15T12:31:36Z</time><extensions><speed>1.269911</speed><course>87.559067</course><hAcc>1.864506</hAcc><vAcc>0.727633</vAcc></extensions></trkpt>
      <trkpt lon="-3.036506" lat="52.722451"><ele>261.171936</ele><time>2022-01-15T12:31:37Z</time><extensions><speed>1.241673</speed><course>88.725929</course><hAcc>1.857720</hAcc><vAcc>0.728203</vAcc></extensions></trkpt>
      <trkpt lon="-3.036488" lat="52.722451"><ele>261.058838</ele><time>2022-01-15T12:31:38Z</time><extensions><speed>1.137476</speed><course>90.458412</course><hAcc>1.856627</hAcc><vAcc>0.729043</vAcc></extensions></trkpt>
      <trkpt lon="-3.036472" lat="52.722451"><ele>260.957886</ele><time>2022-01-15T12:31:39Z</time><extensions><speed>1.087998</speed><course>91.782448</course><hAcc>1.842583</hAcc><vAcc>0.730021</vAcc></extensions></trkpt>
      <trkpt lon="-3.036455" lat="52.722451"><ele>260.870544</ele><time>2022-01-15T12:31:40Z</time><extensions><speed>1.113196</speed><course>93.915649</course><hAcc>1.836855</hAcc><vAcc>0.730878</vAcc></extensions></trkpt>
      <trkpt lon="-3.036439" lat="52.722450"><ele>260.772858</ele><time>2022-01-15T12:31:41Z</time><extensions><speed>1.119016</speed><course>95.155174</course><hAcc>1.850094</hAcc><vAcc>0.731416</vAcc></extensions></trkpt>
      <trkpt lon="-3.036421" lat="52.722449"><ele>260.696899</ele><time>2022-01-15T12:31:42Z</time><extensions><speed>1.235675</speed><course>95.366409</course><hAcc>1.856671</hAcc><vAcc>0.731502</vAcc></extensions></trkpt>
      <trkpt lon="-3.036402" lat="52.722448"><ele>260.623169</ele><time>2022-01-15T12:31:43Z</time><extensions><speed>1.325832</speed><course>94.510498</course><hAcc>1.859353</hAcc><vAcc>0.731150</vAcc></extensions></trkpt>
      <trkpt lon="-3.036382" lat="52.722447"><ele>260.574188</ele><time>2022-01-15T12:31:44Z</time><extensions><speed>1.387882</speed><course>93.530861</course><hAcc>1.864046</hAcc><vAcc>0.730348</vAcc></extensions></trkpt>
      <trkpt lon="-3.036361" lat="52.722446"><ele>260.517059</ele><time>2022-01-15T12:31:45Z</time><extensions><speed>1.440225</speed><course>92.960213</course><hAcc>1.870951</hAcc><vAcc>0.729135</vAcc></extensions></trkpt>
      <trkpt lon="-3.036340" lat="52.722446"><ele>260.431793</ele><time>2022-01-15T12:31:46Z</time><extensions><speed>1.447356</speed><course>91.793983</course><hAcc>1.880032</hAcc><vAcc>0.727579</vAcc></extensions></trkpt>
      <trkpt lon="-3.036319" lat="52.722445"><ele>260.356628</ele><time>2022-01-15T12:31:47Z</time><extensions><speed>1.409248</speed><course>90.744423</course><hAcc>1.889723</hAcc><vAcc>0.725763</vAcc></extensions></trkpt>
      <trkpt lon="-3.036298" lat="52.722445"><ele>260.280914</ele><time>2022-01-15T12:31:48Z</time><extensions><speed>1.362070</speed><course>90.128296</course><hAcc>1.897883</hAcc><vAcc>0.723821</vAcc></extensions></trkpt>
      <trkpt lon="-3.036278" lat="52.722445"><ele>260.211212</ele><time>2022-01-15T12:31:49Z</time><extensions><speed>1.331475</speed><course>89.337128</course><hAcc>1.905940</hAcc><vAcc>0.721826</vAcc></extensions></trkpt>
      <trkpt lon="-3.036259" lat="52.722446"><ele>260.145294</ele><time>2022-01-15T12:31:50Z</time><extensions><speed>1.300224</speed><course>87.864098</course><hAcc>1.910135</hAcc><vAcc>0.719904</vAcc></extensions></trkpt>
      <trkpt lon="-3.036240" lat="52.722446"><ele>260.062378</ele><time>2022-01-15T12:31:51Z</time><extensions><speed>1.312688</speed><course>85.093620</course><hAcc>1.907094</hAcc><vAcc>0.718131</vAcc></extensions></trkpt>
      <trkpt lon="-3.036219" lat="52.722448"><ele>259.984680</ele><time>2022-01-15T12:31:52Z</time><extensions><speed>1.412176</speed><course>82.425606</course><hAcc>1.898633</hAcc><vAcc>0.716520</vAcc></extensions></trkpt>
      <trkpt lon="-3.036198" lat="52.722450"><ele>259.903137</ele><time>2022-01-15T12:31:53Z</time><extensions><speed>1.499831</speed><course>80.396271</course><hAcc>1.897570</hAcc><vAcc>0.715084</vAcc></extensions></trkpt>
      <trkpt lon="-3.036176" lat="52.722452"><ele>259.831909</ele><time>2022-01-15T12:31:54Z</time><extensions><speed>1.558685</speed><course>78.616280</course><hAcc>1.900455</hAcc><vAcc>0.713809</vAcc></extensions></trkpt>
      <trkpt lon="-3.036153" lat="52.722455"><ele>259.738098</ele><time>2022-01-15T12:31:55Z</time><extensions><speed>1.543250</speed><course>78.481758</course><hAcc>1.901085</hAcc><vAcc>0.712677</vAcc></extensions></trkpt>
      <trkpt lon="-3.036131" lat="52.722458"><ele>259.648773</ele><time>2022-01-15T12:31:56Z</time><extensions><speed>1.525821</speed><course>79.726562</course><hAcc>1.903000</hAcc><vAcc>0.711702</vAcc></extensions></trkpt>
      <trkpt lon="-3.036108" lat="52.722460"><ele>259.560760</ele><time>2022-01-15T12:31:57Z</time><extensions><speed>1.565711</speed><course>81.619324</course><hAcc>1.893965</hAcc><vAcc>0.710932</vAcc></extensions></trkpt>
      <trkpt lon="-3.036085" lat="52.722462"><ele>259.474274</ele><time>2022-01-15T12:31:58Z</time><extensions><speed>1.531107</speed><course>84.799225</course><hAcc>1.889251</hAcc><vAcc>0.710365</vAcc></extensions></trkpt>
      <trkpt lon="-3.036064" lat="52.722462"><ele>259.386780</ele><time>2022-01-15T12:31:59Z</time><extensions><speed>1.416369</speed><course>88.675888</course><hAcc>1.892477</hAcc><vAcc>0.710018</vAcc></extensions></trkpt>
      <trkpt lon="-3.036043" lat="52.722462"><ele>259.291199</ele><time>2022-01-15T12:32:00Z</time><extensions><speed>1.331370</speed><course>92.868660</course><hAcc>1.890539</hAcc><vAcc>0.709928</vAcc></extensions></trkpt>
      <trkpt lon="-3.036023" lat="52.722461"><ele>259.189850</ele><time>2022-01-15T12:32:01Z</time><extensions><speed>1.340798</speed><course>95.656570</course><hAcc>1.883316</hAcc><vAcc>0.710072</vAcc></extensions></trkpt>
      <trkpt lon="-3.036004" lat="52.722460"><ele>259.111816</ele><time>2022-01-15T12:32:02Z</time><extensions><speed>1.333145</speed><course>96.766998</course><hAcc>1.880604</hAcc><vAcc>0.710340</vAcc></extensions></trkpt>
      <trkpt lon="-3.035984" lat="52.722459"><ele>259.038635</ele><time>2022-01-15T12:32:03Z</time><extensions><speed>1.324398</speed><course>96.451698</course><hAcc>1.875437</hAcc><vAcc>0.710649</vAcc></extensions></trkpt>
      <trkpt lon="-3.035965" lat="52.722457"><ele>258.950043</ele><time>2022-01-15T12:32:04Z</time><extensions><speed>1.326834</speed><course>95.252281</course><hAcc>1.869987</hAcc><vAcc>0.710920</vAcc></extensions></trkpt>
      <trkpt lon="-3.035945" lat="52.722457"><ele>258.860901</ele><time>2022-01-15T12:32:05Z</time><extensions><speed>1.260654</speed><course>93.038475</course><hAcc>1.868670</hAcc><vAcc>0.711056</vAcc></extensions></trkpt>
      <trkpt lon="-3.035927" lat="52.722456"><ele>258.769867</ele><time>2022-01-15T12:32:06Z</time><extensions><speed>1.215328</speed><course>89.752151</course><hAcc>1.868908</hAcc><vAcc>0.711075</vAcc></extensions></trkpt>
      <trkpt lon="-3.035909" lat="52.722457"><ele>258.679108</ele><time>2022-01-15T12:32:07Z</time><extensions><speed>1.206917</speed><course>87.224403</course><hAcc>1.866252</hAcc><vAcc>0.710833</vAcc></extensions></trkpt>
      <trkpt lon="-3.035891" lat="52.722457"><ele>258.582336</ele><time>2022-01-15T12:32:08Z</time><extensions><speed>1.176066</speed><course>86.168007</course><hAcc>1.865670</hAcc><vAcc>0.710330</vAcc></extensions></trkpt>
      <trkpt lon="-3.035874" lat="52.722458"><ele>258.481689</ele><time>2022-01-15T12:32:09Z</time><extensions><speed>1.175498</speed><course>86.109322</course><hAcc>1.867057</hAcc><vAcc>0.709411</vAcc></extensions></trkpt>
      <trkpt lon="-3.035857" lat="52.722459"><ele>258.392212</ele><time>2022-01-15T12:32:10Z</time><extensions><speed>1.172759</speed><course>87.095573</course><hAcc>1.869483</hAcc><vAcc>0.707977</vAcc></extensions></trkpt>
      <trkpt lon="-3.035840" lat="52.722459"><ele>258.309143</ele><time>2022-01-15T12:32:11Z</time><extensions><speed>1.147154</speed><course>88.169579</course><hAcc>1.881733</hAcc><vAcc>0.705951</vAcc></extensions></trkpt>
      <trkpt lon="-3.035823" lat="52.722459"><ele>258.219818</ele><time>2022-01-15T12:32:12Z</time><extensions><speed>1.136325</speed><course>89.044449</course><hAcc>1.890914</hAcc><vAcc>0.703252</vAcc></extensions></trkpt>
      <trkpt lon="-3.035806" lat="52.722459"><ele>258.141052</ele><time>2022-01-15T12:32:13Z</time><extensions><speed>1.130337</speed><course>89.716362</course><hAcc>1.892070</hAcc><vAcc>0.699897</vAcc></extensions></trkpt>
      <trkpt lon="-3.035789" lat="52.722459"><ele>258.068054</ele><time>2022-01-15T12:32:14Z</time><extensions><speed>1.082808</speed><course>90.306038</course><hAcc>1.890468</hAcc><vAcc>0.695714</vAcc></extensions></trkpt>
      <trkpt lon="-3.035773" lat="52.722459"><ele>258.003571</ele><time>2022-01-15T12:32:15Z</time><extensions><speed>1.080207</speed><course>90.009033</course><hAcc>1.899532</hAcc><vAcc>0.690570</vAcc></extensions></trkpt>
      <trkpt lon="-3.035757" lat="52.722459"><ele>257.949890</ele><time>2022-01-15T12:32:16Z</time><extensions><speed>1.099274</speed><course>89.274490</course><hAcc>1.916033</hAcc><vAcc>0.684335</vAcc></extensions></trkpt>
      <trkpt lon="-3.035741" lat="52.722460"><ele>257.901031</ele><time>2022-01-15T12:32:17Z</time><extensions><speed>1.073833</speed><course>87.849922</course><hAcc>1.926652</hAcc><vAcc>0.676865</vAcc></extensions></trkpt>
      <trkpt lon="-3.035726" lat="52.722460"><ele>257.855682</ele><time>2022-01-15T12:32:18Z</time><extensions><speed>1.010613</speed><course>85.498169</course><hAcc>1.936164</hAcc><vAcc>0.668030</vAcc></extensions></trkpt>
      <trkpt lon="-3.035711" lat="52.722461"><ele>257.816010</ele><time>2022-01-15T12:32:19Z</time><extensions><speed>0.941854</speed><course>83.872513</course><hAcc>1.940146</hAcc><vAcc>0.657758</vAcc></extensions></trkpt>
      <trkpt lon="-3.035698" lat="52.722462"><ele>257.783081</ele><time>2022-01-15T12:32:20Z</time><extensions><speed>0.862341</speed><course>82.296921</course><hAcc>1.936589</hAcc><vAcc>0.646198</vAcc></extensions></trkpt>
      <trkpt lon="-3.035686" lat="52.722463"><ele>257.758057</ele><time>2022-01-15T12:32:21Z</time><extensions><speed>0.740139</speed><course>79.445724</course><hAcc>1.932189</hAcc><vAcc>0.633681</vAcc></extensions></trkpt>
      <trkpt lon="-3.035677" lat="52.722464"><ele>257.739319</ele><time>2022-01-15T12:32:22Z</time><extensions><speed>0.553130</speed><course>75.695595</course><hAcc>1.943316</hAcc><vAcc>0.620636</vAcc></extensions></trkpt>
      <trkpt lon="-3.035671" lat="52.722465"><ele>257.725189</ele><time>2022-01-15T12:32:23Z</time><extensions><speed>0.323736</speed><course>69.751915</course><hAcc>1.966985</hAcc><vAcc>0.607524</vAcc></extensions></trkpt>
      <trkpt lon="-3.035667" lat="52.722466"><ele>257.714539</ele><time>2022-01-15T12:32:24Z</time><extensions><speed>0.217463</speed><course>65.682915</course><hAcc>1.979006</hAcc><vAcc>0.594962</vAcc></extensions></trkpt>
      <trkpt lon="-3.035664" lat="52.722467"><ele>257.707092</ele><time>2022-01-15T12:32:25Z</time><extensions><speed>0.193895</speed><course>68.069244</course><hAcc>1.979450</hAcc><vAcc>0.583607</vAcc></extensions></trkpt>
      <trkpt lon="-3.035661" lat="52.722468"><ele>257.700867</ele><time>2022-01-15T12:32:26Z</time><extensions><speed>0.222459</speed><course>75.561821</course><hAcc>1.973494</hAcc><vAcc>0.574006</vAcc></extensions></trkpt>
      <trkpt lon="-3.035657" lat="52.722468"><ele>257.693787</ele><time>2022-01-15T12:32:27Z</time><extensions><speed>0.281012</speed><course>82.042023</course><hAcc>1.960041</hAcc><vAcc>0.566601</vAcc></extensions></trkpt>
      <trkpt lon="-3.035653" lat="52.722469"><ele>257.686523</ele><time>2022-01-15T12:32:28Z</time><extensions><speed>0.355392</speed><course>84.076469</course><hAcc>1.951624</hAcc><vAcc>0.561300</vAcc></extensions></trkpt>
      <trkpt lon="-3.035649" lat="52.722469"><ele>257.681427</ele><time>2022-01-15T12:32:29Z</time><extensions><speed>0.209493</speed><course>74.326683</course><hAcc>1.970329</hAcc><vAcc>0.557351</vAcc></extensions></trkpt>
      <trkpt lon="-3.035646" lat="52.722470"><ele>257.674957</ele><time>2022-01-15T12:32:30Z</time><extensions><speed>0.182937</speed><course>57.712765</course><hAcc>1.942827</hAcc><vAcc>0.553706</vAcc></extensions></trkpt>
      <trkpt lon="-3.035644" lat="52.722471"><ele>257.669617</ele><time>2022-01-15T12:32:31Z</time><extensions><speed>0.166784</speed><course>44.562016</course><hAcc>1.914850</hAcc><vAcc>0.549532</vAcc></extensions></trkpt>
      <trkpt lon="-3.035642" lat="52.722472"><ele>257.663971</ele><time>2022-01-15T12:32:32Z</time><extensions><speed>0.142331</speed><course>38.060127</course><hAcc>1.909961</hAcc><vAcc>0.544487</vAcc></extensions></trkpt>
      <trkpt lon="-3.035641" lat="52.722472"><ele>257.650787</ele><time>2022-01-15T12:32:33Z</time><extensions><speed>0.105170</speed><course>38.723244</course><hAcc>1.928630</hAcc><vAcc>0.538696</vAcc></extensions></trkpt>
      <trkpt lon="-3.035640" lat="52.722473"><ele>257.633301</ele><time>2022-01-15T12:32:34Z</time><extensions><speed>0.088397</speed><course>51.531006</course><hAcc>1.942134</hAcc><vAcc>0.532643</vAcc></extensions></trkpt>
      <trkpt lon="-3.035638" lat="52.722473"><ele>257.605774</ele><time>2022-01-15T12:32:35Z</time><extensions><speed>0.098304</speed><course>80.248161</course><hAcc>1.966901</hAcc><vAcc>0.527125</vAcc></extensions></trkpt>
      <trkpt lon="-3.035636" lat="52.722473"><ele>257.568817</ele><time>2022-01-15T12:32:36Z</time><extensions><speed>0.161693</speed><course>100.696159</course><hAcc>1.991349</hAcc><vAcc>0.522977</vAcc></extensions></trkpt>
      <trkpt lon="-3.035633" lat="52.722473"><ele>257.524323</ele><time>2022-01-15T12:32:37Z</time><extensions><speed>0.326412</speed><course>106.386909</course><hAcc>1.980767</hAcc><vAcc>0.520789</vAcc></extensions></trkpt>
      <trkpt lon="-3.035627" lat="52.722472"><ele>257.474335</ele><time>2022-01-15T12:32:38Z</time><extensions><speed>0.541893</speed><course>107.067345</course><hAcc>1.978120</hAcc><vAcc>0.520999</vAcc></extensions></trkpt>
      <trkpt lon="-3.035619" lat="52.722470"><ele>257.417572</ele><time>2022-01-15T12:32:39Z</time><extensions><speed>0.567913</speed><course>104.032715</course><hAcc>2.008738</hAcc><vAcc>0.523869</vAcc></extensions></trkpt>
      <trkpt lon="-3.035609" lat="52.722469"><ele>257.351715</ele><time>2022-01-15T12:32:40Z</time><extensions><speed>0.730182</speed><course>100.805656</course><hAcc>2.017873</hAcc><vAcc>0.529358</vAcc></extensions></trkpt>
      <trkpt lon="-3.035596" lat="52.722468"><ele>257.281097</ele><time>2022-01-15T12:32:41Z</time><extensions><speed>1.031465</speed><course>98.910339</course><hAcc>2.004689</hAcc><vAcc>0.537126</vAcc></extensions></trkpt>
      <trkpt lon="-3.035580" lat="52.722467"><ele>257.200470</ele><time>2022-01-15T12:32:42Z</time><extensions><speed>1.209880</speed><course>94.978302</course><hAcc>2.001422</hAcc><vAcc>0.546678</vAcc></extensions></trkpt>
      <trkpt lon="-3.035561" lat="52.722466"><ele>257.117157</ele><time>2022-01-15T12:32:43Z</time><extensions><speed>1.345300</speed><course>89.828224</course><hAcc>1.993682</hAcc><vAcc>0.557372</vAcc></extensions></trkpt>
      <trkpt lon="-3.035541" lat="52.722467"><ele>257.028564</ele><time>2022-01-15T12:32:44Z</time><extensions><speed>1.383644</speed><course>85.993103</course><hAcc>1.980753</hAcc><vAcc>0.568501</vAcc></extensions></trkpt>
      <trkpt lon="-3.035520" lat="52.722468"><ele>256.940887</ele><time>2022-01-15T12:32:45Z</time><extensions><speed>1.385847</speed><course>83.564919</course><hAcc>1.961367</hAcc><vAcc>0.579431</vAcc></extensions></trkpt>
      <trkpt lon="-3.035500" lat="52.722469"><ele>256.858185</ele><time>2022-01-15T12:32:46Z</time><extensions><speed>1.382378</speed><course>82.469559</course><hAcc>1.944363</hAcc><vAcc>0.589508</vAcc></extensions></trkpt>
      <trkpt lon="-3.035480" lat="52.722471"><ele>256.775177</ele><time>2022-01-15T12:32:47Z</time><extensions><speed>1.361964</speed><course>81.672585</course><hAcc>1.943091</hAcc><vAcc>0.598239</vAcc></extensions></trkpt>
      <trkpt lon="-3.035460" lat="52.722473"><ele>256.694794</ele><time>2022-01-15T12:32:48Z</time><extensions><speed>1.340229</speed><course>81.698799</course><hAcc>1.942257</hAcc><vAcc>0.605248</vAcc></extensions></trkpt>
      <trkpt lon="-3.035440" lat="52.722474"><ele>256.617188</ele><time>2022-01-15T12:32:49Z</time><extensions><speed>1.309572</speed><course>81.999222</course><hAcc>1.939607</hAcc><vAcc>0.610475</vAcc></extensions></trkpt>
      <trkpt lon="-3.035422" lat="52.722476"><ele>256.542969</ele><time>2022-01-15T12:32:50Z</time><extensions><speed>1.228190</speed><course>82.918709</course><hAcc>1.934404</hAcc><vAcc>0.614032</vAcc></extensions></trkpt>
      <trkpt lon="-3.035404" lat="52.722477"><ele>256.468781</ele><time>2022-01-15T12:32:51Z</time><extensions><speed>1.158453</speed><course>84.233505</course><hAcc>1.931417</hAcc><vAcc>0.616298</vAcc></extensions></trkpt>
      <trkpt lon="-3.035387" lat="52.722478"><ele>256.393677</ele><time>2022-01-15T12:32:52Z</time><extensions><speed>1.124842</speed><course>85.885124</course><hAcc>1.933723</hAcc><vAcc>0.617795</vAcc></extensions></trkpt>
      <trkpt lon="-3.035370" lat="52.722478"><ele>256.314484</ele><time>2022-01-15T12:32:53Z</time><extensions><speed>1.172465</speed><course>87.635239</course><hAcc>1.935575</hAcc><vAcc>0.619134</vAcc></extensions></trkpt>
      <trkpt lon="-3.035352" lat="52.722479"><ele>256.234894</ele><time>2022-01-15T12:32:54Z</time><extensions><speed>1.246114</speed><course>88.644814</course><hAcc>1.938634</hAcc><vAcc>0.620931</vAcc></extensions></trkpt>
      <trkpt lon="-3.035333" lat="52.722479"><ele>256.148071</ele><time>2022-01-15T12:32:55Z</time><extensions><speed>1.274991</speed><course>89.727028</course><hAcc>1.934350</hAcc><vAcc>0.623618</vAcc></extensions></trkpt>
      <trkpt lon="-3.035313" lat="52.722479"><ele>256.053162</ele><time>2022-01-15T12:32:56Z</time><extensions><speed>1.334722</speed><course>91.334038</course><hAcc>1.907862</hAcc><vAcc>0.627397</vAcc></extensions></trkpt>
      <trkpt lon="-3.035294" lat="52.722478"><ele>255.947403</ele><time>2022-01-15T12:32:57Z</time><extensions><speed>1.290528</speed><course>94.418564</course><hAcc>1.888233</hAcc><vAcc>0.632268</vAcc></extensions></trkpt>
      <trkpt lon="-3.035276" lat="52.722477"><ele>255.828369</ele><time>2022-01-15T12:32:58Z</time><extensions><speed>1.161911</speed><course>98.149208</course><hAcc>1.886904</hAcc><vAcc>0.638100</vAcc></extensions></trkpt>
      <trkpt lon="-3.035260" lat="52.722476"><ele>255.696548</ele><time>2022-01-15T12:32:59Z</time><extensions><speed>0.903648</speed><course>102.428444</course><hAcc>1.911105</hAcc><vAcc>0.644637</vAcc></extensions></trkpt>
      <trkpt lon="-3.035247" lat="52.722474"><ele>255.556412</ele><time>2022-01-15T12:33:00Z</time><extensions><speed>0.924189</speed><course>103.914185</course><hAcc>1.888809</hAcc><vAcc>0.651582</vAcc></extensions></trkpt>
      <trkpt lon="-3.035231" lat="52.722471"><ele>255.406754</ele><time>2022-01-15T12:33:01Z</time><extensions><speed>1.317127</speed><course>103.077866</course><hAcc>1.848106</hAcc><vAcc>0.658630</vAcc></extensions></trkpt>
      <trkpt lon="-3.035210" lat="52.722469"><ele>255.230331</ele><time>2022-01-15T12:33:02Z</time><extensions><speed>1.510512</speed><course>101.071388</course><hAcc>1.851995</hAcc><vAcc>0.665473</vAcc></extensions></trkpt>
      <trkpt lon="-3.035187" lat="52.722466"><ele>255.036148</ele><time>2022-01-15T12:33:03Z</time><extensions><speed>1.652043</speed><course>98.412933</course><hAcc>1.857311</hAcc><vAcc>0.671767</vAcc></extensions></trkpt>
      <trkpt lon="-3.035162" lat="52.722465"><ele>254.842484</ele><time>2022-01-15T12:33:04Z</time><extensions><speed>1.761747</speed><course>95.797195</course><hAcc>1.863811</hAcc><vAcc>0.677297</vAcc></extensions></trkpt>
      <trkpt lon="-3.035136" lat="52.722463"><ele>254.639160</ele><time>2022-01-15T12:33:05Z</time><extensions><speed>1.803751</speed><course>93.596535</course><hAcc>1.855365</hAcc><vAcc>0.681841</vAcc></extensions></trkpt>
      <trkpt lon="-3.035109" lat="52.722463"><ele>254.428619</ele><time>2022-01-15T12:33:06Z</time><extensions><speed>1.787770</speed><course>90.444870</course><hAcc>1.841998</hAcc><vAcc>0.685350</vAcc></extensions></trkpt>
      <trkpt lon="-3.035083" lat="52.722463"><ele>254.216461</ele><time>2022-01-15T12:33:07Z</time><extensions><speed>1.708239</speed><course>86.111702</course><hAcc>1.840079</hAcc><vAcc>0.687869</vAcc></extensions></trkpt>
      <trkpt lon="-3.035059" lat="52.722465"><ele>253.999451</ele><time>2022-01-15T12:33:08Z</time><extensions><speed>1.611495</speed><course>80.666107</course><hAcc>1.853147</hAcc><vAcc>0.689518</vAcc></extensions></trkpt>
      <trkpt lon="-3.035036" lat="52.722468"><ele>253.784637</ele><time>2022-01-15T12:33:09Z</time><extensions><speed>1.481104</speed><course>75.734764</course><hAcc>1.863449</hAcc><vAcc>0.690476</vAcc></extensions></trkpt>
      <trkpt lon="-3.035015" lat="52.722471"><ele>253.570175</ele><time>2022-01-15T12:33:10Z</time><extensions><speed>1.441266</speed><course>74.212219</course><hAcc>1.856490</hAcc><vAcc>0.690983</vAcc></extensions></trkpt>
      <trkpt lon="-3.034995" lat="52.722475"><ele>253.354416</ele><time>2022-01-15T12:33:11Z</time><extensions><speed>1.329618</speed><course>72.786049</course><hAcc>1.857791</hAcc><vAcc>0.691300</vAcc></extensions></trkpt>
      <trkpt lon="-3.034977" lat="52.722478"><ele>253.137924</ele><time>2022-01-15T12:33:12Z</time><extensions><speed>1.222134</speed><course>73.602097</course><hAcc>1.852768</hAcc><vAcc>0.691712</vAcc></extensions></trkpt>
      <trkpt lon="-3.034960" lat="52.722481"><ele>252.925751</ele><time>2022-01-15T12:33:13Z</time><extensions><speed>1.137910</speed><course>75.340523</course><hAcc>1.856572</hAcc><vAcc>0.692424</vAcc></extensions></trkpt>
      <trkpt lon="-3.034944" lat="52.722483"><ele>252.711349</ele><time>2022-01-15T12:33:14Z</time><extensions><speed>1.068911</speed><course>77.851089</course><hAcc>1.864617</hAcc><vAcc>0.693609</vAcc></extensions></trkpt>
      <trkpt lon="-3.034929" lat="52.722485"><ele>252.506348</ele><time>2022-01-15T12:33:15Z</time><extensions><speed>1.100050</speed><course>79.081566</course><hAcc>1.853352</hAcc><vAcc>0.695390</vAcc></extensions></trkpt>
      <trkpt lon="-3.034912" lat="52.722487"><ele>252.305618</ele><time>2022-01-15T12:33:16Z</time><extensions><speed>1.148189</speed><course>79.553909</course><hAcc>1.857582</hAcc><vAcc>0.697755</vAcc></extensions></trkpt>
      <trkpt lon="-3.034895" lat="52.722489"><ele>252.109894</ele><time>2022-01-15T12:33:17Z</time><extensions><speed>1.197098</speed><course>79.991112</course><hAcc>1.884059</hAcc><vAcc>0.700626</vAcc></extensions></trkpt>
      <trkpt lon="-3.034877" lat="52.722491"><ele>251.924744</ele><time>2022-01-15T12:33:18Z</time><extensions><speed>1.227664</speed><course>80.273262</course><hAcc>1.857875</hAcc><vAcc>0.703900</vAcc></extensions></trkpt>
      <trkpt lon="-3.034860" lat="52.722492"><ele>251.736221</ele><time>2022-01-15T12:33:19Z</time><extensions><speed>1.178495</speed><course>80.917259</course><hAcc>1.829079</hAcc><vAcc>0.707451</vAcc></extensions></trkpt>
      <trkpt lon="-3.034843" lat="52.722494"><ele>251.549698</ele><time>2022-01-15T12:33:20Z</time><extensions><speed>1.129948</speed><course>80.909798</course><hAcc>1.821814</hAcc><vAcc>0.711161</vAcc></extensions></trkpt>
      <trkpt lon="-3.034827" lat="52.722496"><ele>251.379608</ele><time>2022-01-15T12:33:21Z</time><extensions><speed>1.029908</speed><course>80.941795</course><hAcc>1.843351</hAcc><vAcc>0.714836</vAcc></extensions></trkpt>
      <trkpt lon="-3.034813" lat="52.722497"><ele>251.200562</ele><time>2022-01-15T12:33:22Z</time><extensions><speed>0.883139</speed><course>81.375427</course><hAcc>1.878928</hAcc><vAcc>0.718320</vAcc></extensions></trkpt>
      <trkpt lon="-3.034799" lat="52.722498"><ele>251.029373</ele><time>2022-01-15T12:33:23Z</time><extensions><speed>0.928289</speed><course>85.101280</course><hAcc>1.852641</hAcc><vAcc>0.721527</vAcc></extensions></trkpt>
      <trkpt lon="-3.034785" lat="52.722498"><ele>250.864944</ele><time>2022-01-15T12:33:24Z</time><extensions><speed>0.962717</speed><course>87.259506</course><hAcc>1.835512</hAcc><vAcc>0.724403</vAcc></extensions></trkpt>
      <trkpt lon="-3.034771" lat="52.722499"><ele>250.704117</ele><time>2022-01-15T12:33:25Z</time><extensions><speed>0.956594</speed><course>88.072174</course><hAcc>1.841284</hAcc><vAcc>0.726860</vAcc></extensions></trkpt>
      <trkpt lon="-3.034758" lat="52.722499"><ele>250.547318</ele><time>2022-01-15T12:33:26Z</time><extensions><speed>0.872436</speed><course>89.239716</course><hAcc>1.866191</hAcc><vAcc>0.728961</vAcc></extensions></trkpt>
      <trkpt lon="-3.034743" lat="52.722499"><ele>250.396378</ele><time>2022-01-15T12:33:27Z</time><extensions><speed>1.053989</speed><course>89.079140</course><hAcc>1.870233</hAcc><vAcc>0.730698</vAcc></extensions></trkpt>
      <trkpt lon="-3.034727" lat="52.722499"><ele>250.251968</ele><time>2022-01-15T12:33:28Z</time><extensions><speed>1.101043</speed><course>88.635048</course><hAcc>1.879134</hAcc><vAcc>0.732158</vAcc></extensions></trkpt>
      <trkpt lon="-3.034711" lat="52.722499"><ele>250.099045</ele><time>2022-01-15T12:33:29Z</time><extensions><speed>1.073749</speed><course>89.076012</course><hAcc>1.887712</hAcc><vAcc>0.733368</vAcc></extensions></trkpt>
      <trkpt lon="-3.034696" lat="52.722500"><ele>249.936340</ele><time>2022-01-15T12:33:30Z</time><extensions><speed>1.043413</speed><course>88.689133</course><hAcc>1.886936</hAcc><vAcc>0.734398</vAcc></extensions></trkpt>
      <trkpt lon="-3.034680" lat="52.722500"><ele>249.787949</ele><time>2022-01-15T12:33:31Z</time><extensions><speed>0.994082</speed><course>88.360268</course><hAcc>1.876637</hAcc><vAcc>0.735314</vAcc></extensions></trkpt>
      <trkpt lon="-3.034666" lat="52.722500"><ele>249.642227</ele><time>2022-01-15T12:33:32Z</time><extensions><speed>0.914941</speed><course>88.375923</course><hAcc>1.865476</hAcc><vAcc>0.736126</vAcc></extensions></trkpt>
      <trkpt lon="-3.034653" lat="52.722500"><ele>249.503754</ele><time>2022-01-15T12:33:33Z</time><extensions><speed>0.830477</speed><course>86.997124</course><hAcc>1.866324</hAcc><vAcc>0.736935</vAcc></extensions></trkpt>
      <trkpt lon="-3.034642" lat="52.722501"><ele>249.357376</ele><time>2022-01-15T12:33:34Z</time><extensions><speed>0.678988</speed><course>82.488068</course><hAcc>1.876181</hAcc><vAcc>0.737798</vAcc></extensions></trkpt>
      <trkpt lon="-3.034630" lat="52.722502"><ele>249.205658</ele><time>2022-01-15T12:33:35Z</time><extensions><speed>0.935858</speed><course>78.955811</course><hAcc>1.837944</hAcc><vAcc>0.738642</vAcc></extensions></trkpt>
      <trkpt lon="-3.034616" lat="52.722504"><ele>249.059586</ele><time>2022-01-15T12:33:36Z</time><extensions><speed>1.048361</speed><course>77.855110</course><hAcc>1.827152</hAcc><vAcc>0.739471</vAcc></extensions></trkpt>
      <trkpt lon="-3.034600" lat="52.722506"><ele>248.916534</ele><time>2022-01-15T12:33:37Z</time><extensions><speed>1.114863</speed><course>78.103424</course><hAcc>1.823902</hAcc><vAcc>0.740261</vAcc></extensions></trkpt>
      <trkpt lon="-3.034584" lat="52.722508"><ele>248.774414</ele><time>2022-01-15T12:33:38Z</time><extensions><speed>1.152926</speed><course>79.181129</course><hAcc>1.813097</hAcc><vAcc>0.740982</vAcc></extensions></trkpt>
      <trkpt lon="-3.034567" lat="52.722510"><ele>248.639191</ele><time>2022-01-15T12:33:39Z</time><extensions><speed>1.150853</speed><course>80.729462</course><hAcc>1.804971</hAcc><vAcc>0.741645</vAcc></extensions></trkpt>
      <trkpt lon="-3.034550" lat="52.722511"><ele>248.491318</ele><time>2022-01-15T12:33:40Z</time><extensions><speed>1.112437</speed><course>82.601677</course><hAcc>1.802667</hAcc><vAcc>0.742281</vAcc></extensions></trkpt>
      <trkpt lon="-3.034534" lat="52.722512"><ele>248.340515</ele><time>2022-01-15T12:33:41Z</time><extensions><speed>1.083192</speed><course>84.920189</course><hAcc>1.799863</hAcc><vAcc>0.742889</vAcc></extensions></trkpt>
      <trkpt lon="-3.034518" lat="52.722513"><ele>248.195251</ele><time>2022-01-15T12:33:42Z</time><extensions><speed>1.070458</speed><course>87.568062</course><hAcc>1.801761</hAcc><vAcc>0.743539</vAcc></extensions></trkpt>
      <trkpt lon="-3.034502" lat="52.722513"><ele>248.051743</ele><time>2022-01-15T12:33:43Z</time><extensions><speed>1.038189</speed><course>89.741997</course><hAcc>1.830747</hAcc><vAcc>0.744286</vAcc></extensions></trkpt>
      <trkpt lon="-3.034487" lat="52.722513"><ele>247.917725</ele><time>2022-01-15T12:33:44Z</time><extensions><speed>1.048993</speed><course>89.939278</course><hAcc>1.816628</hAcc><vAcc>0.745139</vAcc></extensions></trkpt>
      <trkpt lon="-3.034472" lat="52.722513"><ele>247.777496</ele><time>2022-01-15T12:33:45Z</time><extensions><speed>1.014800</speed><course>88.960533</course><hAcc>1.807385</hAcc><vAcc>0.746020</vAcc></extensions></trkpt>
      <trkpt lon="-3.034457" lat="52.722514"><ele>247.655243</ele><time>2022-01-15T12:33:46Z</time><extensions><speed>1.014665</speed><course>87.253639</course><hAcc>1.806773</hAcc><vAcc>0.746967</vAcc></extensions></trkpt>
      <trkpt lon="-3.034442" lat="52.722514"><ele>247.527496</ele><time>2022-01-15T12:33:47Z</time><extensions><speed>0.986014</speed><course>85.729568</course><hAcc>1.804258</hAcc><vAcc>0.747910</vAcc></extensions></trkpt>
      <trkpt lon="-3.034427" lat="52.722515"><ele>247.403641</ele><time>2022-01-15T12:33:48Z</time><extensions><speed>1.012020</speed><course>84.137672</course><hAcc>1.801850</hAcc><vAcc>0.748787</vAcc></extensions></trkpt>
      <trkpt lon="-3.034412" lat="52.722516"><ele>247.291229</ele><time>2022-01-15T12:33:49Z</time><extensions><speed>1.068719</speed><course>83.482811</course><hAcc>1.802654</hAcc><vAcc>0.749566</vAcc></extensions></trkpt>
      <trkpt lon="-3.034396" lat="52.722517"><ele>247.179901</ele><time>2022-01-15T12:33:50Z</time><extensions><speed>1.086371</speed><course>83.606888</course><hAcc>1.779294</hAcc><vAcc>0.750339</vAcc></extensions></trkpt>
      <trkpt lon="-3.034380" lat="52.722518"><ele>247.075394</ele><time>2022-01-15T12:33:51Z</time><extensions><speed>1.109702</speed><course>83.662605</course><hAcc>1.769250</hAcc><vAcc>0.751156</vAcc></extensions></trkpt>
      <trkpt lon="-3.034363" lat="52.722519"><ele>246.968292</ele><time>2022-01-15T12:33:52Z</time><extensions><speed>1.103923</speed><course>85.716904</course><hAcc>1.797681</hAcc><vAcc>0.751969</vAcc></extensions></trkpt>
      <trkpt lon="-3.034347" lat="52.722520"><ele>246.864258</ele><time>2022-01-15T12:33:53Z</time><extensions><speed>1.132074</speed><course>83.598076</course><hAcc>1.790292</hAcc><vAcc>0.752770</vAcc></extensions></trkpt>
      <trkpt lon="-3.034330" lat="52.722521"><ele>246.768005</ele><time>2022-01-15T12:33:54Z</time><extensions><speed>1.114154</speed><course>82.954468</course><hAcc>1.780868</hAcc><vAcc>0.753516</vAcc></extensions></trkpt>
      <trkpt lon="-3.034314" lat="52.722523"><ele>246.701996</ele><time>2022-01-15T12:33:55Z</time><extensions><speed>1.092256</speed><course>82.515251</course><hAcc>1.771367</hAcc><vAcc>0.754161</vAcc></extensions></trkpt>
      <trkpt lon="-3.034298" lat="52.722524"><ele>246.617188</ele><time>2022-01-15T12:33:56Z</time><extensions><speed>1.062899</speed><course>83.138084</course><hAcc>1.786825</hAcc><vAcc>0.754731</vAcc></extensions></trkpt>
      <trkpt lon="-3.034283" lat="52.722525"><ele>246.537750</ele><time>2022-01-15T12:33:57Z</time><extensions><speed>1.030401</speed><course>83.112000</course><hAcc>1.798662</hAcc><vAcc>0.755209</vAcc></extensions></trkpt>
      <trkpt lon="-3.034268" lat="52.722526"><ele>246.452637</ele><time>2022-01-15T12:33:58Z</time><extensions><speed>0.979007</speed><course>83.470924</course><hAcc>1.813367</hAcc><vAcc>0.755579</vAcc></extensions></trkpt>
      <trkpt lon="-3.034254" lat="52.722527"><ele>246.365860</ele><time>2022-01-15T12:33:59Z</time><extensions><speed>0.892082</speed><course>85.219460</course><hAcc>1.840453</hAcc><vAcc>0.755872</vAcc></extensions></trkpt>
      <trkpt lon="-3.034242" lat="52.722527"><ele>246.293015</ele><time>2022-01-15T12:34:00Z</time><extensions><speed>0.792857</speed><course>87.240372</course><hAcc>1.872420</hAcc><vAcc>0.756136</vAcc></extensions></trkpt>
      <trkpt lon="-3.034230" lat="52.722528"><ele>246.216431</ele><time>2022-01-15T12:34:01Z</time><extensions><speed>0.751287</speed><course>90.616806</course><hAcc>1.854299</hAcc><vAcc>0.756389</vAcc></extensions></trkpt>
      <trkpt lon="-3.034219" lat="52.722527"><ele>246.144714</ele><time>2022-01-15T12:34:02Z</time><extensions><speed>0.756130</speed><course>92.866432</course><hAcc>1.839702</hAcc><vAcc>0.756639</vAcc></extensions></trkpt>
      <trkpt lon="-3.034207" lat="52.722527"><ele>246.077316</ele><time>2022-01-15T12:34:03Z</time><extensions><speed>0.811702</speed><course>94.592613</course><hAcc>1.834319</hAcc><vAcc>0.756885</vAcc></extensions></trkpt>
      <trkpt lon="-3.034195" lat="52.722526"><ele>245.999695</ele><time>2022-01-15T12:34:04Z</time><extensions><speed>0.918591</speed><course>94.247459</course><hAcc>1.833091</hAcc><vAcc>0.757180</vAcc></extensions></trkpt>
      <trkpt lon="-3.034181" lat="52.722526"><ele>245.924347</ele><time>2022-01-15T12:34:05Z</time><extensions><speed>0.984994</speed><course>93.680229</course><hAcc>1.851157</hAcc><vAcc>0.757529</vAcc></extensions></trkpt>
      <trkpt lon="-3.034166" lat="52.722525"><ele>245.841690</ele><time>2022-01-15T12:34:06Z</time><extensions><speed>0.953275</speed><course>94.102844</course><hAcc>1.876762</hAcc><vAcc>0.757947</vAcc></extensions></trkpt>
      <trkpt lon="-3.034152" lat="52.722525"><ele>245.748123</ele><time>2022-01-15T12:34:07Z</time><extensions><speed>0.946483</speed><course>91.565239</course><hAcc>1.858853</hAcc><vAcc>0.758419</vAcc></extensions></trkpt>
      <trkpt lon="-3.034138" lat="52.722525"><ele>245.657166</ele><time>2022-01-15T12:34:08Z</time><extensions><speed>0.955255</speed><course>88.743340</course><hAcc>1.840018</hAcc><vAcc>0.758962</vAcc></extensions></trkpt>
      <trkpt lon="-3.034123" lat="52.722525"><ele>245.567581</ele><time>2022-01-15T12:34:09Z</time><extensions><speed>1.020624</speed><course>86.061371</course><hAcc>1.837142</hAcc><vAcc>0.759633</vAcc></extensions></trkpt>
      <trkpt lon="-3.034108" lat="52.722526"><ele>245.476669</ele><time>2022-01-15T12:34:10Z</time><extensions><speed>1.087773</speed><course>85.218216</course><hAcc>1.842582</hAcc><vAcc>0.760414</vAcc></extensions></trkpt>
      <trkpt lon="-3.034091" lat="52.722527"><ele>245.385147</ele><time>2022-01-15T12:34:11Z</time><extensions><speed>1.119445</speed><course>85.384804</course><hAcc>1.840464</hAcc><vAcc>0.761346</vAcc></extensions></trkpt>
      <trkpt lon="-3.034075" lat="52.722527"><ele>245.291565</ele><time>2022-01-15T12:34:12Z</time><extensions><speed>1.115389</speed><course>86.326035</course><hAcc>1.826444</hAcc><vAcc>0.762498</vAcc></extensions></trkpt>
      <trkpt lon="-3.034058" lat="52.722528"><ele>245.186508</ele><time>2022-01-15T12:34:13Z</time><extensions><speed>1.109929</speed><course>87.775780</course><hAcc>1.807380</hAcc><vAcc>0.763806</vAcc></extensions></trkpt>
      <trkpt lon="-3.034042" lat="52.722528"><ele>245.090271</ele><time>2022-01-15T12:34:14Z</time><extensions><speed>1.108848</speed><course>89.227081</course><hAcc>1.801239</hAcc><vAcc>0.765202</vAcc></extensions></trkpt>
      <trkpt lon="-3.034026" lat="52.722528"><ele>244.975006</ele><time>2022-01-15T12:34:15Z</time><extensions><speed>1.038836</speed><course>90.704262</course><hAcc>1.823852</hAcc><vAcc>0.766619</vAcc></extensions></trkpt>
      <trkpt lon="-3.034011" lat="52.722528"><ele>244.863327</ele><time>2022-01-15T12:34:16Z</time><extensions><speed>0.927532</speed><course>91.805672</course><hAcc>1.850077</hAcc><vAcc>0.768056</vAcc></extensions></trkpt>
      <trkpt lon="-3.033998" lat="52.722528"><ele>244.736588</ele><time>2022-01-15T12:34:17Z</time><extensions><speed>0.884782</speed><course>89.870567</course><hAcc>1.823422</hAcc><vAcc>0.769459</vAcc></extensions></trkpt>
      <trkpt lon="-3.033985" lat="52.722528"><ele>244.627228</ele><time>2022-01-15T12:34:18Z</time><extensions><speed>0.889196</speed><course>90.093018</course><hAcc>1.804367</hAcc><vAcc>0.770816</vAcc></extensions></trkpt>
      <trkpt lon="-3.033972" lat="52.722528"><ele>244.499817</ele><time>2022-01-15T12:34:19Z</time><extensions><speed>0.872029</speed><course>92.018829</course><hAcc>1.815810</hAcc><vAcc>0.772138</vAcc></extensions></trkpt>
      <trkpt lon="-3.033959" lat="52.722527"><ele>244.375259</ele><time>2022-01-15T12:34:20Z</time><extensions><speed>0.853405</speed><course>95.739433</course><hAcc>1.835125</hAcc><vAcc>0.773415</vAcc></extensions></trkpt>
      <trkpt lon="-3.033946" lat="52.722526"><ele>244.262177</ele><time>2022-01-15T12:34:21Z</time><extensions><speed>0.860082</speed><course>100.752838</course><hAcc>1.846632</hAcc><vAcc>0.774628</vAcc></extensions></trkpt>
      <trkpt lon="-3.033934" lat="52.722524"><ele>244.141052</ele><time>2022-01-15T12:34:22Z</time><extensions><speed>0.861334</speed><course>106.214638</course><hAcc>1.852437</hAcc><vAcc>0.775772</vAcc></extensions></trkpt>
      <trkpt lon="-3.033922" lat="52.722522"><ele>244.035706</ele><time>2022-01-15T12:34:23Z</time><extensions><speed>0.895775</speed><course>108.670044</course><hAcc>1.845848</hAcc><vAcc>0.776677</vAcc></extensions></trkpt>
      <trkpt lon="-3.033909" lat="52.722519"><ele>243.928055</ele><time>2022-01-15T12:34:24Z</time><extensions><speed>0.916743</speed><course>107.050270</course><hAcc>1.830751</hAcc><vAcc>0.777356</vAcc></extensions></trkpt>
      <trkpt lon="-3.033896" lat="52.722517"><ele>243.824966</ele><time>2022-01-15T12:34:25Z</time><extensions><speed>0.911503</speed><course>104.613228</course><hAcc>1.807960</hAcc><vAcc>0.777703</vAcc></extensions></trkpt>
      <trkpt lon="-3.033882" lat="52.722515"><ele>243.726700</ele><time>2022-01-15T12:34:26Z</time><extensions><speed>0.982835</speed><course>101.278046</course><hAcc>1.790768</hAcc><vAcc>0.777742</vAcc></extensions></trkpt>
      <trkpt lon="-3.033867" lat="52.722514"><ele>243.635269</ele><time>2022-01-15T12:34:27Z</time><extensions><speed>1.018866</speed><course>99.082832</course><hAcc>1.800371</hAcc><vAcc>0.777452</vAcc></extensions></trkpt>
      <trkpt lon="-3.033853" lat="52.722512"><ele>243.553970</ele><time>2022-01-15T12:34:28Z</time><extensions><speed>0.974465</speed><course>98.106277</course><hAcc>1.831481</hAcc><vAcc>0.776712</vAcc></extensions></trkpt>
      <trkpt lon="-3.033839" lat="52.722511"><ele>243.482056</ele><time>2022-01-15T12:34:29Z</time><extensions><speed>0.900703</speed><course>95.356514</course><hAcc>1.800074</hAcc><vAcc>0.775487</vAcc></extensions></trkpt>
      <trkpt lon="-3.033827" lat="52.722511"><ele>243.417236</ele><time>2022-01-15T12:34:30Z</time><extensions><speed>0.770668</speed><course>92.571190</course><hAcc>1.775676</hAcc><vAcc>0.773749</vAcc></extensions></trkpt>
      <trkpt lon="-3.033816" lat="52.722511"><ele>243.360672</ele><time>2022-01-15T12:34:31Z</time><extensions><speed>0.599597</speed><course>90.325081</course><hAcc>1.774940</hAcc><vAcc>0.771572</vAcc></extensions></trkpt>
      <trkpt lon="-3.033809" lat="52.722511"><ele>243.312210</ele><time>2022-01-15T12:34:32Z</time><extensions><speed>0.359511</speed><course>91.868347</course><hAcc>1.789164</hAcc><vAcc>0.768989</vAcc></extensions></trkpt>
      <trkpt lon="-3.033805" lat="52.722511"><ele>243.271072</ele><time>2022-01-15T12:34:33Z</time><extensions><speed>0.258953</speed><course>98.517662</course><hAcc>1.779101</hAcc><vAcc>0.766057</vAcc></extensions></trkpt>
      <trkpt lon="-3.033801" lat="52.722510"><ele>243.236694</ele><time>2022-01-15T12:34:34Z</time><extensions><speed>0.199501</speed><course>102.507309</course><hAcc>1.763961</hAcc><vAcc>0.762870</vAcc></extensions></trkpt>
      <trkpt lon="-3.033799" lat="52.722510"><ele>243.208435</ele><time>2022-01-15T12:34:35Z</time><extensions><speed>0.142706</speed><course>96.055702</course><hAcc>1.773670</hAcc><vAcc>0.759569</vAcc></extensions></trkpt>
      <trkpt lon="-3.033797" lat="52.722510"><ele>243.176636</ele><time>2022-01-15T12:34:36Z</time><extensions><speed>0.086504</speed><course>71.596642</course><hAcc>1.814467</hAcc><vAcc>0.756240</vAcc></extensions></trkpt>
      <trkpt lon="-3.033796" lat="52.722511"><ele>243.157486</ele><time>2022-01-15T12:34:37Z</time><extensions><speed>0.115943</speed><course>43.100582</course><hAcc>1.805875</hAcc><vAcc>0.753012</vAcc></extensions></trkpt>
      <trkpt lon="-3.033795" lat="52.722512"><ele>243.141708</ele><time>2022-01-15T12:34:38Z</time><extensions><speed>0.181707</speed><course>31.630354</course><hAcc>1.772934</hAcc><vAcc>0.750029</vAcc></extensions></trkpt>
      <trkpt lon="-3.033793" lat="52.722513"><ele>243.128571</ele><time>2022-01-15T12:34:39Z</time><extensions><speed>0.208224</speed><course>27.804470</course><hAcc>1.768121</hAcc><vAcc>0.747381</vAcc></extensions></trkpt>
      <trkpt lon="-3.033792" lat="52.722515"><ele>243.115570</ele><time>2022-01-15T12:34:40Z</time><extensions><speed>0.201825</speed><course>26.470137</course><hAcc>1.784769</hAcc><vAcc>0.745180</vAcc></extensions></trkpt>
      <trkpt lon="-3.033791" lat="52.722516"><ele>243.105728</ele><time>2022-01-15T12:34:41Z</time><extensions><speed>0.180793</speed><course>25.378025</course><hAcc>1.803576</hAcc><vAcc>0.743453</vAcc></extensions></trkpt>
      <trkpt lon="-3.033790" lat="52.722518"><ele>243.100845</ele><time>2022-01-15T12:34:42Z</time><extensions><speed>0.158794</speed><course>25.347075</course><hAcc>1.814861</hAcc><vAcc>0.742109</vAcc></extensions></trkpt>
      <trkpt lon="-3.033789" lat="52.722519"><ele>243.088730</ele><time>2022-01-15T12:34:43Z</time><extensions><speed>0.144214</speed><course>26.587208</course><hAcc>1.816314</hAcc><vAcc>0.741150</vAcc></extensions></trkpt>
      <trkpt lon="-3.033788" lat="52.722520"><ele>243.086655</ele><time>2022-01-15T12:34:44Z</time><extensions><speed>0.137951</speed><course>28.502176</course><hAcc>1.814992</hAcc><vAcc>0.740732</vAcc></extensions></trkpt>
      <trkpt lon="-3.033787" lat="52.722521"><ele>243.087585</ele><time>2022-01-15T12:34:45Z</time><extensions><speed>0.129710</speed><course>29.899673</course><hAcc>1.818677</hAcc><vAcc>0.740749</vAcc></extensions></trkpt>
      <trkpt lon="-3.033786" lat="52.722522"><ele>243.085266</ele><time>2022-01-15T12:34:46Z</time><extensions><speed>0.115447</speed><course>30.706692</course><hAcc>1.821114</hAcc><vAcc>0.741145</vAcc></extensions></trkpt>
      <trkpt lon="-3.033785" lat="52.722523"><ele>243.087677</ele><time>2022-01-15T12:34:47Z</time><extensions><speed>0.075364</speed><course>31.724033</course><hAcc>1.834516</hAcc><vAcc>0.741920</vAcc></extensions></trkpt>
      <trkpt lon="-3.033785" lat="52.722523"><ele>243.090637</ele><time>2022-01-15T12:34:48Z</time><extensions><speed>0.055053</speed><course>30.489664</course><hAcc>1.824590</hAcc><vAcc>0.742996</vAcc></extensions></trkpt>
      <trkpt lon="-3.033784" lat="52.722524"><ele>243.094849</ele><time>2022-01-15T12:34:49Z</time><extensions><speed>0.054612</speed><course>11.041595</course><hAcc>1.820920</hAcc><vAcc>0.744322</vAcc></extensions></trkpt>
      <trkpt lon="-3.033784" lat="52.722524"><ele>243.100174</ele><time>2022-01-15T12:34:50Z</time><extensions><speed>0.084431</speed><course>349.848022</course><hAcc>1.826891</hAcc><vAcc>0.745815</vAcc></extensions></trkpt>
      <trkpt lon="-3.033785" lat="52.722525"><ele>243.106537</ele><time>2022-01-15T12:34:51Z</time><extensions><speed>0.120369</speed><course>343.771973</course><hAcc>1.836190</hAcc><vAcc>0.747396</vAcc></extensions></trkpt>
      <trkpt lon="-3.033785" lat="52.722527"><ele>243.113770</ele><time>2022-01-15T12:34:52Z</time><extensions><speed>0.144375</speed><course>345.855774</course><hAcc>1.836656</hAcc><vAcc>0.749093</vAcc></extensions></trkpt>
      <trkpt lon="-3.033785" lat="52.722528"><ele>243.121735</ele><time>2022-01-15T12:34:53Z</time><extensions><speed>0.137369</speed><course>354.120819</course><hAcc>1.839372</hAcc><vAcc>0.750943</vAcc></extensions></trkpt>
      <trkpt lon="-3.033785" lat="52.722529"><ele>243.130188</ele><time>2022-01-15T12:34:54Z</time><extensions><speed>0.106569</speed><course>12.873597</course><hAcc>1.844686</hAcc><vAcc>0.752959</vAcc></extensions></trkpt>
      <trkpt lon="-3.033785" lat="52.722529"><ele>243.135895</ele><time>2022-01-15T12:34:55Z</time><extensions><speed>0.083666</speed><course>61.651703</course><hAcc>1.843416</hAcc><vAcc>0.755084</vAcc></extensions></trkpt>
      <trkpt lon="-3.033783" lat="52.722529"><ele>243.140015</ele><time>2022-01-15T12:34:56Z</time><extensions><speed>0.130666</speed><course>105.028717</course><hAcc>1.828893</hAcc><vAcc>0.757200</vAcc></extensions></trkpt>
      <trkpt lon="-3.033781" lat="52.722529"><ele>243.138184</ele><time>2022-01-15T12:34:57Z</time><extensions><speed>0.175498</speed><course>118.391304</course><hAcc>1.819344</hAcc><vAcc>0.759336</vAcc></extensions></trkpt>
      <trkpt lon="-3.033778" lat="52.722528"><ele>243.134155</ele><time>2022-01-15T12:34:58Z</time><extensions><speed>0.187211</speed><course>122.837151</course><hAcc>1.814396</hAcc><vAcc>0.761406</vAcc></extensions></trkpt>
      <trkpt lon="-3.033776" lat="52.722527"><ele>243.127869</ele><time>2022-01-15T12:34:59Z</time><extensions><speed>0.177374</speed><course>125.362640</course><hAcc>1.812461</hAcc><vAcc>0.763404</vAcc></extensions></trkpt>
      <trkpt lon="-3.033774" lat="52.722526"><ele>243.123779</ele><time>2022-01-15T12:35:00Z</time><extensions><speed>0.178548</speed><course>127.639252</course><hAcc>1.805086</hAcc><vAcc>0.765283</vAcc></extensions></trkpt>
      <trkpt lon="-3.033772" lat="52.722525"><ele>243.112457</ele><time>2022-01-15T12:35:01Z</time><extensions><speed>0.196174</speed><course>129.433853</course><hAcc>1.796371</hAcc><vAcc>0.766965</vAcc></extensions></trkpt>
      <trkpt lon="-3.033769" lat="52.722524"><ele>243.097748</ele><time>2022-01-15T12:35:02Z</time><extensions><speed>0.225440</speed><course>130.481171</course><hAcc>1.794183</hAcc><vAcc>0.768416</vAcc></extensions></trkpt>
      <trkpt lon="-3.033767" lat="52.722522"><ele>243.098007</ele><time>2022-01-15T12:35:03Z</time><extensions><speed>0.276480</speed><course>130.791473</course><hAcc>1.792286</hAcc><vAcc>0.769595</vAcc></extensions></trkpt>
      <trkpt lon="-3.033763" lat="52.722521"><ele>243.085327</ele><time>2022-01-15T12:35:04Z</time><extensions><speed>0.318816</speed><course>130.791183</course><hAcc>1.792068</hAcc><vAcc>0.770612</vAcc></extensions></trkpt>
      <trkpt lon="-3.033759" lat="52.722519"><ele>243.071091</ele><time>2022-01-15T12:35:05Z</time><extensions><speed>0.366231</speed><course>130.093536</course><hAcc>1.772400</hAcc><vAcc>0.771553</vAcc></extensions></trkpt>
      <trkpt lon="-3.033755" lat="52.722517"><ele>243.056152</ele><time>2022-01-15T12:35:06Z</time><extensions><speed>0.334383</speed><course>128.609131</course><hAcc>1.762771</hAcc><vAcc>0.772405</vAcc></extensions></trkpt>
      <trkpt lon="-3.033752" lat="52.722515"><ele>243.041000</ele><time>2022-01-15T12:35:07Z</time><extensions><speed>0.282888</speed><course>126.268257</course><hAcc>1.761089</hAcc><vAcc>0.773177</vAcc></extensions></trkpt>
      <trkpt lon="-3.033748" lat="52.722514"><ele>243.026138</ele><time>2022-01-15T12:35:08Z</time><extensions><speed>0.235794</speed><course>123.124687</course><hAcc>1.765389</hAcc><vAcc>0.773907</vAcc></extensions></trkpt>
      <trkpt lon="-3.033746" lat="52.722512"><ele>243.009705</ele><time>2022-01-15T12:35:09Z</time><extensions><speed>0.195476</speed><course>119.389603</course><hAcc>1.783230</hAcc><vAcc>0.774618</vAcc></extensions></trkpt>
      <trkpt lon="-3.033743" lat="52.722512"><ele>242.994141</ele><time>2022-01-15T12:35:10Z</time><extensions><speed>0.151898</speed><course>114.984566</course><hAcc>1.804360</hAcc><vAcc>0.775336</vAcc></extensions></trkpt>
      <trkpt lon="-3.033741" lat="52.722511"><ele>242.978333</ele><time>2022-01-15T12:35:11Z</time><extensions><speed>0.173593</speed><course>111.221214</course><hAcc>1.780264</hAcc><vAcc>0.776087</vAcc></extensions></trkpt>
      <trkpt lon="-3.033739" lat="52.722511"><ele>242.963104</ele><time>2022-01-15T12:35:12Z</time><extensions><speed>0.174974</speed><course>109.705261</course><hAcc>1.770647</hAcc><vAcc>0.776911</vAcc></extensions></trkpt>
      <trkpt lon="-3.033736" lat="52.722510"><ele>242.948151</ele><time>2022-01-15T12:35:13Z</time><extensions><speed>0.157495</speed><course>110.361801</course><hAcc>1.779484</hAcc><vAcc>0.777851</vAcc></extensions></trkpt>
      <trkpt lon="-3.033734" lat="52.722510"><ele>242.933319</ele><time>2022-01-15T12:35:14Z</time><extensions><speed>0.128447</speed><course>110.699409</course><hAcc>1.790770</hAcc><vAcc>0.778935</vAcc></extensions></trkpt>
      <trkpt lon="-3.033733" lat="52.722509"><ele>242.918701</ele><time>2022-01-15T12:35:15Z</time><extensions><speed>0.094473</speed><course>110.509056</course><hAcc>1.797457</hAcc><vAcc>0.780149</vAcc></extensions></trkpt>
      <trkpt lon="-3.033732" lat="52.722509"><ele>242.904480</ele><time>2022-01-15T12:35:16Z</time><extensions><speed>0.064048</speed><course>114.327591</course><hAcc>1.796795</hAcc><vAcc>0.781460</vAcc></extensions></trkpt>
      <trkpt lon="-3.033731" lat="52.722509"><ele>242.889191</ele><time>2022-01-15T12:35:17Z</time><extensions><speed>0.039650</speed><course>123.218735</course><hAcc>1.790723</hAcc><vAcc>0.782809</vAcc></extensions></trkpt>
      <trkpt lon="-3.033731" lat="52.722509"><ele>242.874283</ele><time>2022-01-15T12:35:18Z</time><extensions><speed>0.023893</speed><course>143.829773</course><hAcc>1.786870</hAcc><vAcc>0.784166</vAcc></extensions></trkpt>
      <trkpt lon="-3.033731" lat="52.722509"><ele>242.856750</ele><time>2022-01-15T12:35:19Z</time><extensions><speed>0.017479</speed><course>170.476471</course><hAcc>1.784006</hAcc><vAcc>0.785500</vAcc></extensions></trkpt>
      <trkpt lon="-3.033731" lat="52.722508"><ele>242.839340</ele><time>2022-01-15T12:35:20Z</time><extensions><speed>0.014494</speed><course>196.458710</course><hAcc>1.777096</hAcc><vAcc>0.786667</vAcc></extensions></trkpt>
      <trkpt lon="-3.033731" lat="52.722508"><ele>242.821808</ele><time>2022-01-15T12:35:21Z</time><extensions><speed>0.012614</speed><course>261.932068</course><hAcc>1.766535</hAcc><vAcc>0.787522</vAcc></extensions></trkpt>
      <trkpt lon="-3.033731" lat="52.722509"><ele>242.804199</ele><time>2022-01-15T12:35:22Z</time><extensions><speed>0.031794</speed><course>310.484589</course><hAcc>1.760098</hAcc><vAcc>0.788066</vAcc></extensions></trkpt>
      <trkpt lon="-3.033732" lat="52.722509"><ele>242.789932</ele><time>2022-01-15T12:35:23Z</time><extensions><speed>0.062173</speed><course>319.898834</course><hAcc>1.755824</hAcc><vAcc>0.788305</vAcc></extensions></trkpt>
      <trkpt lon="-3.033733" lat="52.722509"><ele>242.776398</ele><time>2022-01-15T12:35:24Z</time><extensions><speed>0.096435</speed><course>322.850189</course><hAcc>1.752930</hAcc><vAcc>0.788143</vAcc></extensions></trkpt>
      <trkpt lon="-3.033734" lat="52.722510"><ele>242.763626</ele><time>2022-01-15T12:35:25Z</time><extensions><speed>0.132167</speed><course>323.815338</course><hAcc>1.752066</hAcc><vAcc>0.787547</vAcc></extensions></trkpt>
      <trkpt lon="-3.033735" lat="52.722511"><ele>242.751648</ele><time>2022-01-15T12:35:26Z</time><extensions><speed>0.155875</speed><course>323.738800</course><hAcc>1.758213</hAcc><vAcc>0.786441</vAcc></extensions></trkpt>
      <trkpt lon="-3.033736" lat="52.722512"><ele>242.743271</ele><time>2022-01-15T12:35:27Z</time><extensions><speed>0.162122</speed><course>321.467865</course><hAcc>1.760223</hAcc><vAcc>0.784607</vAcc></extensions></trkpt>
      <trkpt lon="-3.033738" lat="52.722513"><ele>242.740891</ele><time>2022-01-15T12:35:28Z</time><extensions><speed>0.135099</speed><course>315.930054</course><hAcc>1.767544</hAcc><vAcc>0.781952</vAcc></extensions></trkpt>
      <trkpt lon="-3.033739" lat="52.722514"><ele>242.737854</ele><time>2022-01-15T12:35:29Z</time><extensions><speed>0.119537</speed><course>303.483337</course><hAcc>1.762932</hAcc><vAcc>0.778915</vAcc></extensions></trkpt>
      <trkpt lon="-3.033741" lat="52.722514"><ele>242.719772</ele><time>2022-01-15T12:35:30Z</time><extensions><speed>0.108786</speed><course>285.814453</course><hAcc>1.760310</hAcc><vAcc>0.775623</vAcc></extensions></trkpt>
      <trkpt lon="-3.033742" lat="52.722514"><ele>242.700851</ele><time>2022-01-15T12:35:31Z</time><extensions><speed>0.098816</speed><course>264.352295</course><hAcc>1.768298</hAcc><vAcc>0.772018</vAcc></extensions></trkpt>
      <trkpt lon="-3.033743" lat="52.722514"><ele>242.663223</ele><time>2022-01-15T12:35:32Z</time><extensions><speed>0.096260</speed><course>239.192017</course><hAcc>1.784968</hAcc><vAcc>0.768236</vAcc></extensions></trkpt>
      <trkpt lon="-3.033744" lat="52.722514"><ele>242.631927</ele><time>2022-01-15T12:35:33Z</time><extensions><speed>0.099415</speed><course>214.604599</course><hAcc>1.804301</hAcc><vAcc>0.764519</vAcc></extensions></trkpt>
      <trkpt lon="-3.033745" lat="52.722513"><ele>242.577896</ele><time>2022-01-15T12:35:34Z</time><extensions><speed>0.112553</speed><course>188.254730</course><hAcc>1.821650</hAcc><vAcc>0.761095</vAcc></extensions></trkpt>
      <trkpt lon="-3.033745" lat="52.722512"><ele>242.535934</ele><time>2022-01-15T12:35:35Z</time><extensions><speed>0.160342</speed><course>162.563751</course><hAcc>1.836110</hAcc><vAcc>0.758145</vAcc></extensions></trkpt>
      <trkpt lon="-3.033743" lat="52.722510"><ele>242.495377</ele><time>2022-01-15T12:35:36Z</time><extensions><speed>0.265887</speed><course>141.594482</course><hAcc>1.846675</hAcc><vAcc>0.755818</vAcc></extensions></trkpt>
      <trkpt lon="-3.033739" lat="52.722508"><ele>242.444016</ele><time>2022-01-15T12:35:37Z</time><extensions><speed>0.497617</speed><course>125.900124</course><hAcc>1.834884</hAcc><vAcc>0.754219</vAcc></extensions></trkpt>
      <trkpt lon="-3.033730" lat="52.722505"><ele>242.382278</ele><time>2022-01-15T12:35:38Z</time><extensions><speed>0.843814</speed><course>115.997421</course><hAcc>1.823306</hAcc><vAcc>0.753369</vAcc></extensions></trkpt>
      <trkpt lon="-3.033717" lat="52.722501"><ele>242.318588</ele><time>2022-01-15T12:35:39Z</time><extensions><speed>1.077476</speed><course>110.817581</course><hAcc>1.839789</hAcc><vAcc>0.753236</vAcc></extensions></trkpt>
      <trkpt lon="-3.033701" lat="52.722498"><ele>242.252472</ele><time>2022-01-15T12:35:40Z</time><extensions><speed>1.220259</speed><course>108.044304</course><hAcc>1.856582</hAcc><vAcc>0.753718</vAcc></extensions></trkpt>
      <trkpt lon="-3.033684" lat="52.722494"><ele>242.193695</ele><time>2022-01-15T12:35:41Z</time><extensions><speed>1.230719</speed><course>107.381218</course><hAcc>1.859072</hAcc><vAcc>0.754595</vAcc></extensions></trkpt>
      <trkpt lon="-3.033666" lat="52.722491"><ele>242.144135</ele><time>2022-01-15T12:35:42Z</time><extensions><speed>1.248889</speed><course>111.346817</course><hAcc>1.855781</hAcc><vAcc>0.755620</vAcc></extensions></trkpt>
      <trkpt lon="-3.033649" lat="52.722486"><ele>242.093872</ele><time>2022-01-15T12:35:43Z</time><extensions><speed>1.317831</speed><course>116.301086</course><hAcc>1.834033</hAcc><vAcc>0.756635</vAcc></extensions></trkpt>
      <trkpt lon="-3.033632" lat="52.722481"><ele>242.049927</ele><time>2022-01-15T12:35:44Z</time><extensions><speed>1.340522</speed><course>118.870148</course><hAcc>1.827196</hAcc><vAcc>0.757565</vAcc></extensions></trkpt>
      <trkpt lon="-3.033614" lat="52.722475"><ele>241.997421</ele><time>2022-01-15T12:35:45Z</time><extensions><speed>1.316884</speed><course>120.127708</course><hAcc>1.830518</hAcc><vAcc>0.758216</vAcc></extensions></trkpt>
      <trkpt lon="-3.033598" lat="52.722469"><ele>241.942856</ele><time>2022-01-15T12:35:46Z</time><extensions><speed>1.302605</speed><course>120.484100</course><hAcc>1.826644</hAcc><vAcc>0.758611</vAcc></extensions></trkpt>
      <trkpt lon="-3.033581" lat="52.722463"><ele>241.882950</ele><time>2022-01-15T12:35:47Z</time><extensions><speed>1.248941</speed><course>119.883743</course><hAcc>1.828401</hAcc><vAcc>0.758743</vAcc></extensions></trkpt>
      <trkpt lon="-3.033566" lat="52.722458"><ele>241.827515</ele><time>2022-01-15T12:35:48Z</time><extensions><speed>1.197533</speed><course>118.558296</course><hAcc>1.839314</hAcc><vAcc>0.758685</vAcc></extensions></trkpt>
      <trkpt lon="-3.033550" lat="52.722453"><ele>241.773544</ele><time>2022-01-15T12:35:49Z</time><extensions><speed>1.132673</speed><course>116.612762</course><hAcc>1.846822</hAcc><vAcc>0.758552</vAcc></extensions></trkpt>
      <trkpt lon="-3.033535" lat="52.722449"><ele>241.703842</ele><time>2022-01-15T12:35:50Z</time><extensions><speed>1.114483</speed><course>113.004150</course><hAcc>1.846773</hAcc><vAcc>0.758372</vAcc></extensions></trkpt>
      <trkpt lon="-3.033519" lat="52.722445"><ele>241.643158</ele><time>2022-01-15T12:35:51Z</time><extensions><speed>1.146975</speed><course>108.289185</course><hAcc>1.848599</hAcc><vAcc>0.758242</vAcc></extensions></trkpt>
      <trkpt lon="-3.033503" lat="52.722442"><ele>241.563721</ele><time>2022-01-15T12:35:52Z</time><extensions><speed>1.109414</speed><course>102.683449</course><hAcc>1.847772</hAcc><vAcc>0.758120</vAcc></extensions></trkpt>
      <trkpt lon="-3.033487" lat="52.722441"><ele>241.470932</ele><time>2022-01-15T12:35:53Z</time><extensions><speed>1.078686</speed><course>98.380096</course><hAcc>1.843538</hAcc><vAcc>0.758050</vAcc></extensions></trkpt>
      <trkpt lon="-3.033471" lat="52.722439"><ele>241.403961</ele><time>2022-01-15T12:35:54Z</time><extensions><speed>1.104547</speed><course>95.373238</course><hAcc>1.847889</hAcc><vAcc>0.757925</vAcc></extensions></trkpt>
      <trkpt lon="-3.033455" lat="52.722439"><ele>241.306473</ele><time>2022-01-15T12:35:55Z</time><extensions><speed>1.162515</speed><course>93.312019</course><hAcc>1.849679</hAcc><vAcc>0.757732</vAcc></extensions></trkpt>
      <trkpt lon="-3.033437" lat="52.722438"><ele>241.223648</ele><time>2022-01-15T12:35:56Z</time><extensions><speed>1.197600</speed><course>91.199181</course><hAcc>1.850422</hAcc><vAcc>0.757409</vAcc></extensions></trkpt>
      <trkpt lon="-3.033419" lat="52.722438"><ele>241.132843</ele><time>2022-01-15T12:35:57Z</time><extensions><speed>1.266722</speed><course>91.065842</course><hAcc>1.849911</hAcc><vAcc>0.756998</vAcc></extensions></trkpt>
      <trkpt lon="-3.033400" lat="52.722438"><ele>241.048691</ele><time>2022-01-15T12:35:58Z</time><extensions><speed>1.309088</speed><course>90.849243</course><hAcc>1.852292</hAcc><vAcc>0.756525</vAcc></extensions></trkpt>
      <trkpt lon="-3.033380" lat="52.722438"><ele>240.964218</ele><time>2022-01-15T12:35:59Z</time><extensions><speed>1.375987</speed><course>91.205193</course><hAcc>1.847473</hAcc><vAcc>0.755954</vAcc></extensions></trkpt>
      <trkpt lon="-3.033359" lat="52.722437"><ele>240.886810</ele><time>2022-01-15T12:36:00Z</time><extensions><speed>1.456368</speed><course>92.228790</course><hAcc>1.849260</hAcc><vAcc>0.755357</vAcc></extensions></trkpt>
      <trkpt lon="-3.033337" lat="52.722437"><ele>240.812531</ele><time>2022-01-15T12:36:01Z</time><extensions><speed>1.464848</speed><course>93.386520</course><hAcc>1.859761</hAcc><vAcc>0.754729</vAcc></extensions></trkpt>
      <trkpt lon="-3.033315" lat="52.722436"><ele>240.740585</ele><time>2022-01-15T12:36:02Z</time><extensions><speed>1.480748</speed><course>93.727211</course><hAcc>1.859683</hAcc><vAcc>0.754103</vAcc></extensions></trkpt>
      <trkpt lon="-3.033294" lat="52.722435"><ele>240.681061</ele><time>2022-01-15T12:36:03Z</time><extensions><speed>1.442481</speed><course>94.027023</course><hAcc>1.861313</hAcc><vAcc>0.753559</vAcc></extensions></trkpt>
      <trkpt lon="-3.033272" lat="52.722434"><ele>240.625885</ele><time>2022-01-15T12:36:04Z</time><extensions><speed>1.443641</speed><course>94.862724</course><hAcc>1.862912</hAcc><vAcc>0.753145</vAcc></extensions></trkpt>
      <trkpt lon="-3.033251" lat="52.722433"><ele>240.561401</ele><time>2022-01-15T12:36:05Z</time><extensions><speed>1.409353</speed><course>97.078133</course><hAcc>1.860630</hAcc><vAcc>0.752943</vAcc></extensions></trkpt>
      <trkpt lon="-3.033231" lat="52.722431"><ele>240.509735</ele><time>2022-01-15T12:36:06Z</time><extensions><speed>1.380900</speed><course>100.118690</course><hAcc>1.856215</hAcc><vAcc>0.753000</vAcc></extensions></trkpt>
      <trkpt lon="-3.033211" lat="52.722428"><ele>240.464783</ele><time>2022-01-15T12:36:07Z</time><extensions><speed>1.377918</speed><course>103.766380</course><hAcc>1.854139</hAcc><vAcc>0.753244</vAcc></extensions></trkpt>
      <trkpt lon="-3.033192" lat="52.722425"><ele>240.423981</ele><time>2022-01-15T12:36:08Z</time><extensions><speed>1.358483</speed><course>107.940903</course><hAcc>1.849353</hAcc><vAcc>0.753670</vAcc></extensions></trkpt>
      <trkpt lon="-3.033173" lat="52.722420"><ele>240.391617</ele><time>2022-01-15T12:36:09Z</time><extensions><speed>1.373600</speed><course>112.450615</course><hAcc>1.838490</hAcc><vAcc>0.754275</vAcc></extensions></trkpt>
      <trkpt lon="-3.033154" lat="52.722415"><ele>240.359695</ele><time>2022-01-15T12:36:10Z</time><extensions><speed>1.396946</speed><course>116.348137</course><hAcc>1.834317</hAcc><vAcc>0.754985</vAcc></extensions></trkpt>
      <trkpt lon="-3.033135" lat="52.722409"><ele>240.318527</ele><time>2022-01-15T12:36:11Z</time><extensions><speed>1.464429</speed><course>119.881660</course><hAcc>1.812644</hAcc><vAcc>0.755689</vAcc></extensions></trkpt>
      <trkpt lon="-3.033117" lat="52.722402"><ele>240.289368</ele><time>2022-01-15T12:36:12Z</time><extensions><speed>1.472839</speed><course>122.789772</course><hAcc>1.788116</hAcc><vAcc>0.756377</vAcc></extensions></trkpt>
      <trkpt lon="-3.033098" lat="52.722395"><ele>240.259140</ele><time>2022-01-15T12:36:13Z</time><extensions><speed>1.477982</speed><course>125.003227</course><hAcc>1.766741</hAcc><vAcc>0.757005</vAcc></extensions></trkpt>
      <trkpt lon="-3.033081" lat="52.722387"><ele>240.235474</ele><time>2022-01-15T12:36:14Z</time><extensions><speed>1.387404</speed><course>127.492088</course><hAcc>1.753695</hAcc><vAcc>0.757583</vAcc></extensions></trkpt>
      <trkpt lon="-3.033066" lat="52.722379"><ele>240.211136</ele><time>2022-01-15T12:36:15Z</time><extensions><speed>1.289779</speed><course>130.639862</course><hAcc>1.764392</hAcc><vAcc>0.758171</vAcc></extensions></trkpt>
      <trkpt lon="-3.033052" lat="52.722371"><ele>240.200394</ele><time>2022-01-15T12:36:16Z</time><extensions><speed>1.238316</speed><course>132.806320</course><hAcc>1.767163</hAcc><vAcc>0.758764</vAcc></extensions></trkpt>
      <trkpt lon="-3.033039" lat="52.722363"><ele>240.192368</ele><time>2022-01-15T12:36:17Z</time><extensions><speed>1.299199</speed><course>139.496399</course><hAcc>1.709591</hAcc><vAcc>0.759385</vAcc></extensions></trkpt>
      <trkpt lon="-3.033026" lat="52.722354"><ele>240.186508</ele><time>2022-01-15T12:36:18Z</time><extensions><speed>1.385044</speed><course>142.715393</course><hAcc>1.686371</hAcc><vAcc>0.760071</vAcc></extensions></trkpt>
      <trkpt lon="-3.033014" lat="52.722344"><ele>240.178574</ele><time>2022-01-15T12:36:19Z</time><extensions><speed>1.346691</speed><course>144.273254</course><hAcc>1.719868</hAcc><vAcc>0.760740</vAcc></extensions></trkpt>
      <trkpt lon="-3.033003" lat="52.722334"><ele>240.165909</ele><time>2022-01-15T12:36:20Z</time><extensions><speed>1.281258</speed><course>146.134277</course><hAcc>1.728673</hAcc><vAcc>0.761351</vAcc></extensions></trkpt>
      <trkpt lon="-3.032992" lat="52.722324"><ele>240.157364</ele><time>2022-01-15T12:36:21Z</time><extensions><speed>1.340000</speed><course>148.281296</course><hAcc>1.698193</hAcc><vAcc>0.761891</vAcc></extensions></trkpt>
      <trkpt lon="-3.032982" lat="52.722314"><ele>240.148071</ele><time>2022-01-15T12:36:22Z</time><extensions><speed>1.349225</speed><course>149.920197</course><hAcc>1.696804</hAcc><vAcc>0.762292</vAcc></extensions></trkpt>
      <trkpt lon="-3.032972" lat="52.722303"><ele>240.165482</ele><time>2022-01-15T12:36:23Z</time><extensions><speed>1.394939</speed><course>149.598373</course><hAcc>1.718587</hAcc><vAcc>0.762492</vAcc></extensions></trkpt>
      <trkpt lon="-3.032961" lat="52.722292"><ele>240.174927</ele><time>2022-01-15T12:36:24Z</time><extensions><speed>1.439353</speed><course>148.840118</course><hAcc>1.735261</hAcc><vAcc>0.762419</vAcc></extensions></trkpt>
      <trkpt lon="-3.032950" lat="52.722281"><ele>240.191681</ele><time>2022-01-15T12:36:25Z</time><extensions><speed>1.476854</speed><course>149.203705</course><hAcc>1.744874</hAcc><vAcc>0.762101</vAcc></extensions></trkpt>
      <trkpt lon="-3.032938" lat="52.722269"><ele>240.194611</ele><time>2022-01-15T12:36:26Z</time><extensions><speed>1.510092</speed><course>148.900391</course><hAcc>1.742852</hAcc><vAcc>0.761522</vAcc></extensions></trkpt>
      <trkpt lon="-3.032927" lat="52.722258"><ele>240.209686</ele><time>2022-01-15T12:36:27Z</time><extensions><speed>1.482579</speed><course>148.453369</course><hAcc>1.750036</hAcc><vAcc>0.760706</vAcc></extensions></trkpt>
      <trkpt lon="-3.032915" lat="52.722247"><ele>240.224792</ele><time>2022-01-15T12:36:28Z</time><extensions><speed>1.449709</speed><course>147.491928</course><hAcc>1.765206</hAcc><vAcc>0.759710</vAcc></extensions></trkpt>
      <trkpt lon="-3.032903" lat="52.722236"><ele>240.250153</ele><time>2022-01-15T12:36:29Z</time><extensions><speed>1.489292</speed><course>144.808548</course><hAcc>1.764959</hAcc><vAcc>0.758504</vAcc></extensions></trkpt>
      <trkpt lon="-3.032890" lat="52.722225"><ele>240.274780</ele><time>2022-01-15T12:36:30Z</time><extensions><speed>1.421647</speed><course>141.067734</course><hAcc>1.765728</hAcc><vAcc>0.757171</vAcc></extensions></trkpt>
      <trkpt lon="-3.032877" lat="52.722216"><ele>240.304810</ele><time>2022-01-15T12:36:31Z</time><extensions><speed>1.281656</speed><course>138.960617</course><hAcc>1.771851</hAcc><vAcc>0.755713</vAcc></extensions></trkpt>
      <trkpt lon="-3.032865" lat="52.722207"><ele>240.321106</ele><time>2022-01-15T12:36:32Z</time><extensions><speed>1.234370</speed><course>138.788574</course><hAcc>1.779438</hAcc><vAcc>0.754147</vAcc></extensions></trkpt>
      <trkpt lon="-3.032853" lat="52.722199"><ele>240.341309</ele><time>2022-01-15T12:36:33Z</time><extensions><speed>1.278978</speed><course>139.867920</course><hAcc>1.780426</hAcc><vAcc>0.752531</vAcc></extensions></trkpt>
      <trkpt lon="-3.032841" lat="52.722190"><ele>240.368973</ele><time>2022-01-15T12:36:34Z</time><extensions><speed>1.293940</speed><course>140.651184</course><hAcc>1.781430</hAcc><vAcc>0.750909</vAcc></extensions></trkpt>
      <trkpt lon="-3.032829" lat="52.722181"><ele>240.396164</ele><time>2022-01-15T12:36:35Z</time><extensions><speed>1.248318</speed><course>139.391708</course><hAcc>1.780909</hAcc><vAcc>0.749256</vAcc></extensions></trkpt>
      <trkpt lon="-3.032817" lat="52.722173"><ele>240.424774</ele><time>2022-01-15T12:36:36Z</time><extensions><speed>1.148648</speed><course>138.959305</course><hAcc>1.792937</hAcc><vAcc>0.747574</vAcc></extensions></trkpt>
      <trkpt lon="-3.032806" lat="52.722165"><ele>240.452667</ele><time>2022-01-15T12:36:37Z</time><extensions><speed>1.132119</speed><course>138.533203</course><hAcc>1.799963</hAcc><vAcc>0.745871</vAcc></extensions></trkpt>
      <trkpt lon="-3.032795" lat="52.722157"><ele>240.470047</ele><time>2022-01-15T12:36:38Z</time><extensions><speed>1.161535</speed><course>140.616119</course><hAcc>1.812710</hAcc><vAcc>0.743999</vAcc></extensions></trkpt>
      <trkpt lon="-3.032784" lat="52.722149"><ele>240.487106</ele><time>2022-01-15T12:36:39Z</time><extensions><speed>1.200371</speed><course>145.065033</course><hAcc>1.814521</hAcc><vAcc>0.741925</vAcc></extensions></trkpt>
      <trkpt lon="-3.032774" lat="52.722140"><ele>240.517273</ele><time>2022-01-15T12:36:40Z</time><extensions><speed>1.247735</speed><course>150.095062</course><hAcc>1.823733</hAcc><vAcc>0.739545</vAcc></extensions></trkpt>
      <trkpt lon="-3.032765" lat="52.722130"><ele>240.547470</ele><time>2022-01-15T12:36:41Z</time><extensions><speed>1.294078</speed><course>153.076660</course><hAcc>1.828087</hAcc><vAcc>0.736639</vAcc></extensions></trkpt>
      <trkpt lon="-3.032757" lat="52.722119"><ele>240.575714</ele><time>2022-01-15T12:36:42Z</time><extensions><speed>1.317493</speed><course>153.230072</course><hAcc>1.832984</hAcc><vAcc>0.733138</vAcc></extensions></trkpt>
      <trkpt lon="-3.032748" lat="52.722109"><ele>240.605072</ele><time>2022-01-15T12:36:43Z</time><extensions><speed>1.319060</speed><course>151.770889</course><hAcc>1.842841</hAcc><vAcc>0.729037</vAcc></extensions></trkpt>
      <trkpt lon="-3.032738" lat="52.722098"><ele>240.632217</ele><time>2022-01-15T12:36:44Z</time><extensions><speed>1.269810</speed><course>149.615402</course><hAcc>1.853136</hAcc><vAcc>0.724108</vAcc></extensions></trkpt>
      <trkpt lon="-3.032729" lat="52.722089"><ele>240.683655</ele><time>2022-01-15T12:36:45Z</time><extensions><speed>1.226754</speed><course>147.386383</course><hAcc>1.857573</hAcc><vAcc>0.718207</vAcc></extensions></trkpt>
      <trkpt lon="-3.032718" lat="52.722080"><ele>240.726578</ele><time>2022-01-15T12:36:46Z</time><extensions><speed>1.191190</speed><course>144.381622</course><hAcc>1.863615</hAcc><vAcc>0.711180</vAcc></extensions></trkpt>
      <trkpt lon="-3.032708" lat="52.722071"><ele>240.760788</ele><time>2022-01-15T12:36:47Z</time><extensions><speed>1.168688</speed><course>140.292236</course><hAcc>1.869718</hAcc><vAcc>0.703036</vAcc></extensions></trkpt>
      <trkpt lon="-3.032696" lat="52.722064"><ele>240.797806</ele><time>2022-01-15T12:36:48Z</time><extensions><speed>1.180765</speed><course>135.694183</course><hAcc>1.872720</hAcc><vAcc>0.693879</vAcc></extensions></trkpt>
      <trkpt lon="-3.032683" lat="52.722056"><ele>240.840271</ele><time>2022-01-15T12:36:49Z</time><extensions><speed>1.230299</speed><course>133.640045</course><hAcc>1.888696</hAcc><vAcc>0.683826</vAcc></extensions></trkpt>
      <trkpt lon="-3.032670" lat="52.722048"><ele>240.889511</ele><time>2022-01-15T12:36:50Z</time><extensions><speed>1.235109</speed><course>133.285187</course><hAcc>1.905196</hAcc><vAcc>0.673129</vAcc></extensions></trkpt>
      <trkpt lon="-3.032657" lat="52.722041"><ele>240.942123</ele><time>2022-01-15T12:36:51Z</time><extensions><speed>1.194536</speed><course>132.455276</course><hAcc>1.913675</hAcc><vAcc>0.662149</vAcc></extensions></trkpt>
      <trkpt lon="-3.032644" lat="52.722034"><ele>240.996140</ele><time>2022-01-15T12:36:52Z</time><extensions><speed>1.144994</speed><course>132.074524</course><hAcc>1.935891</hAcc><vAcc>0.651355</vAcc></extensions></trkpt>
      <trkpt lon="-3.032631" lat="52.722027"><ele>241.052444</ele><time>2022-01-15T12:36:53Z</time><extensions><speed>1.084710</speed><course>129.767990</course><hAcc>1.953115</hAcc><vAcc>0.641243</vAcc></extensions></trkpt>
      <trkpt lon="-3.032619" lat="52.722021"><ele>241.108658</ele><time>2022-01-15T12:36:54Z</time><extensions><speed>1.066309</speed><course>125.222595</course><hAcc>1.952097</hAcc><vAcc>0.632291</vAcc></extensions></trkpt>
      <trkpt lon="-3.032605" lat="52.722016"><ele>241.162323</ele><time>2022-01-15T12:36:55Z</time><extensions><speed>1.108174</speed><course>120.990166</course><hAcc>1.958387</hAcc><vAcc>0.625007</vAcc></extensions></trkpt>
      <trkpt lon="-3.032590" lat="52.722011"><ele>241.225189</ele><time>2022-01-15T12:36:56Z</time><extensions><speed>1.176469</speed><course>117.447098</course><hAcc>1.971007</hAcc><vAcc>0.619838</vAcc></extensions></trkpt>
      <trkpt lon="-3.032574" lat="52.722006"><ele>241.287354</ele><time>2022-01-15T12:36:57Z</time><extensions><speed>1.222712</speed><course>114.691391</course><hAcc>1.980153</hAcc><vAcc>0.617000</vAcc></extensions></trkpt>
      <trkpt lon="-3.032557" lat="52.722002"><ele>241.348648</ele><time>2022-01-15T12:36:58Z</time><extensions><speed>1.274497</speed><course>112.376907</course><hAcc>1.967451</hAcc><vAcc>0.616265</vAcc></extensions></trkpt>
      <trkpt lon="-3.032539" lat="52.721997"><ele>241.416382</ele><time>2022-01-15T12:36:59Z</time><extensions><speed>1.332841</speed><course>111.835625</course><hAcc>1.944175</hAcc><vAcc>0.616984</vAcc></extensions></trkpt>
      <trkpt lon="-3.032521" lat="52.721993"><ele>241.493942</ele><time>2022-01-15T12:37:00Z</time><extensions><speed>1.382840</speed><course>113.581299</course><hAcc>1.931203</hAcc><vAcc>0.618361</vAcc></extensions></trkpt>
      <trkpt lon="-3.032502" lat="52.721987"><ele>241.574722</ele><time>2022-01-15T12:37:01Z</time><extensions><speed>1.348878</speed><course>116.211166</course><hAcc>1.939578</hAcc><vAcc>0.619603</vAcc></extensions></trkpt>
      <trkpt lon="-3.032485" lat="52.721982"><ele>241.657669</ele><time>2022-01-15T12:37:02Z</time><extensions><speed>1.206489</speed><course>117.935646</course><hAcc>1.962505</hAcc><vAcc>0.620068</vAcc></extensions></trkpt>
      <trkpt lon="-3.032469" lat="52.721977"><ele>241.740646</ele><time>2022-01-15T12:37:03Z</time><extensions><speed>1.279295</speed><course>117.276863</course><hAcc>1.934496</hAcc><vAcc>0.619321</vAcc></extensions></trkpt>
      <trkpt lon="-3.032452" lat="52.721971"><ele>241.825165</ele><time>2022-01-15T12:37:04Z</time><extensions><speed>1.341718</speed><course>117.876411</course><hAcc>1.916870</hAcc><vAcc>0.617155</vAcc></extensions></trkpt>
      <trkpt lon="-3.032434" lat="52.721966"><ele>241.915482</ele><time>2022-01-15T12:37:05Z</time><extensions><speed>1.355051</speed><course>119.916748</course><hAcc>1.929345</hAcc><vAcc>0.613537</vAcc></extensions></trkpt>
      <trkpt lon="-3.032417" lat="52.721959"><ele>242.012665</ele><time>2022-01-15T12:37:06Z</time><extensions><speed>1.414786</speed><course>121.941498</course><hAcc>1.941693</hAcc><vAcc>0.608546</vAcc></extensions></trkpt>
      <trkpt lon="-3.032399" lat="52.721952"><ele>242.116028</ele><time>2022-01-15T12:37:07Z</time><extensions><speed>1.453444</speed><course>123.475571</course><hAcc>1.956776</hAcc><vAcc>0.602356</vAcc></extensions></trkpt>
      <trkpt lon="-3.032380" lat="52.721944"><ele>242.223389</ele><time>2022-01-15T12:37:08Z</time><extensions><speed>1.535510</speed><course>125.217377</course><hAcc>1.960461</hAcc><vAcc>0.595208</vAcc></extensions></trkpt>
      <trkpt lon="-3.032362" lat="52.721936"><ele>242.332031</ele><time>2022-01-15T12:37:09Z</time><extensions><speed>1.569268</speed><course>126.098206</course><hAcc>1.956063</hAcc><vAcc>0.587412</vAcc></extensions></trkpt>
      <trkpt lon="-3.032343" lat="52.721928"><ele>242.437988</ele><time>2022-01-15T12:37:10Z</time><extensions><speed>1.566288</speed><course>125.761200</course><hAcc>1.953259</hAcc><vAcc>0.579351</vAcc></extensions></trkpt>
      <trkpt lon="-3.032324" lat="52.721920"><ele>242.534225</ele><time>2022-01-15T12:37:11Z</time><extensions><speed>1.545461</speed><course>124.519539</course><hAcc>1.956773</hAcc><vAcc>0.571419</vAcc></extensions></trkpt>
      <trkpt lon="-3.032305" lat="52.721912"><ele>242.619064</ele><time>2022-01-15T12:37:12Z</time><extensions><speed>1.449981</speed><course>124.684967</course><hAcc>1.964351</hAcc><vAcc>0.564012</vAcc></extensions></trkpt>
      <trkpt lon="-3.032288" lat="52.721905"><ele>242.695236</ele><time>2022-01-15T12:37:13Z</time><extensions><speed>1.352857</speed><course>124.877533</course><hAcc>1.985907</hAcc><vAcc>0.557485</vAcc></extensions></trkpt>
      <trkpt lon="-3.032271" lat="52.721898"><ele>242.760193</ele><time>2022-01-15T12:37:14Z</time><extensions><speed>1.452736</speed><course>125.770645</course><hAcc>1.967885</hAcc><vAcc>0.552145</vAcc></extensions></trkpt>
      <trkpt lon="-3.032253" lat="52.721890"><ele>242.811646</ele><time>2022-01-15T12:37:15Z</time><extensions><speed>1.568162</speed><course>125.457611</course><hAcc>1.958889</hAcc><vAcc>0.548220</vAcc></extensions></trkpt>
      <trkpt lon="-3.032233" lat="52.721881"><ele>242.840195</ele><time>2022-01-15T12:37:16Z</time><extensions><speed>1.653172</speed><course>124.388969</course><hAcc>1.957264</hAcc><vAcc>0.545803</vAcc></extensions></trkpt>
      <trkpt lon="-3.032213" lat="52.721873"><ele>242.848846</ele><time>2022-01-15T12:37:17Z</time><extensions><speed>1.680769</speed><course>122.497269</course><hAcc>1.957253</hAcc><vAcc>0.544857</vAcc></extensions></trkpt>
      <trkpt lon="-3.032192" lat="52.721865"><ele>242.841095</ele><time>2022-01-15T12:37:18Z</time><extensions><speed>1.641088</speed><course>120.189934</course><hAcc>1.946021</hAcc><vAcc>0.545245</vAcc></extensions></trkpt>
      <trkpt lon="-3.032170" lat="52.721858"><ele>242.816635</ele><time>2022-01-15T12:37:19Z</time><extensions><speed>1.597728</speed><course>117.522079</course><hAcc>1.925140</hAcc><vAcc>0.546720</vAcc></extensions></trkpt>
      <trkpt lon="-3.032150" lat="52.721851"><ele>242.777054</ele><time>2022-01-15T12:37:20Z</time><extensions><speed>1.530512</speed><course>115.569969</course><hAcc>1.902281</hAcc><vAcc>0.548940</vAcc></extensions></trkpt>
      <trkpt lon="-3.032130" lat="52.721846"><ele>242.724960</ele><time>2022-01-15T12:37:21Z</time><extensions><speed>1.413671</speed><course>115.022888</course><hAcc>1.888829</hAcc><vAcc>0.551551</vAcc></extensions></trkpt>
      <trkpt lon="-3.032112" lat="52.721840"><ele>242.667023</ele><time>2022-01-15T12:37:22Z</time><extensions><speed>1.264874</speed><course>117.000656</course><hAcc>1.888690</hAcc><vAcc>0.554203</vAcc></extensions></trkpt>
      <trkpt lon="-3.032096" lat="52.721835"><ele>242.596436</ele><time>2022-01-15T12:37:23Z</time><extensions><speed>1.153131</speed><course>120.095093</course><hAcc>1.890165</hAcc><vAcc>0.556559</vAcc></extensions></trkpt>
      <trkpt lon="-3.032081" lat="52.721830"><ele>242.510971</ele><time>2022-01-15T12:37:24Z</time><extensions><speed>1.155326</speed><course>125.053947</course><hAcc>1.880836</hAcc><vAcc>0.558343</vAcc></extensions></trkpt>
      <trkpt lon="-3.032068" lat="52.721824"><ele>242.413361</ele><time>2022-01-15T12:37:25Z</time><extensions><speed>1.043647</speed><course>125.572372</course><hAcc>1.915230</hAcc><vAcc>0.559433</vAcc></extensions></trkpt>
      <trkpt lon="-3.032056" lat="52.721818"><ele>242.308289</ele><time>2022-01-15T12:37:26Z</time><extensions><speed>1.061445</speed><course>129.214752</course><hAcc>1.899620</hAcc><vAcc>0.559895</vAcc></extensions></trkpt>
      <trkpt lon="-3.032043" lat="52.721812"><ele>242.196686</ele><time>2022-01-15T12:37:27Z</time><extensions><speed>1.068681</speed><course>131.158463</course><hAcc>1.897498</hAcc><vAcc>0.559908</vAcc></extensions></trkpt>
      <trkpt lon="-3.032032" lat="52.721806"><ele>242.078629</ele><time>2022-01-15T12:37:28Z</time><extensions><speed>0.999685</speed><course>130.866272</course><hAcc>1.933948</hAcc><vAcc>0.559659</vAcc></extensions></trkpt>
      <trkpt lon="-3.032020" lat="52.721800"><ele>241.950378</ele><time>2022-01-15T12:37:29Z</time><extensions><speed>1.086154</speed><course>128.954712</course><hAcc>1.962755</hAcc><vAcc>0.559290</vAcc></extensions></trkpt>
      <trkpt lon="-3.032006" lat="52.721793"><ele>241.810974</ele><time>2022-01-15T12:37:30Z</time><extensions><speed>1.258093</speed><course>126.673294</course><hAcc>1.970735</hAcc><vAcc>0.558903</vAcc></extensions></trkpt>
      <trkpt lon="-3.031989" lat="52.721786"><ele>241.656647</ele><time>2022-01-15T12:37:31Z</time><extensions><speed>1.522539</speed><course>124.706688</course><hAcc>1.968569</hAcc><vAcc>0.558586</vAcc></extensions></trkpt>
      <trkpt lon="-3.031970" lat="52.721778"><ele>241.492325</ele><time>2022-01-15T12:37:32Z</time><extensions><speed>1.553383</speed><course>123.287926</course><hAcc>1.992174</hAcc><vAcc>0.558426</vAcc></extensions></trkpt>
      <trkpt lon="-3.031952" lat="52.721770"><ele>241.321808</ele><time>2022-01-15T12:37:33Z</time><extensions><speed>1.399271</speed><course>123.883247</course><hAcc>2.023060</hAcc><vAcc>0.558517</vAcc></extensions></trkpt>
      <trkpt lon="-3.031935" lat="52.721763"><ele>241.148499</ele><time>2022-01-15T12:37:34Z</time><extensions><speed>1.369653</speed><course>126.382980</course><hAcc>2.003818</hAcc><vAcc>0.558891</vAcc></extensions></trkpt>
      <trkpt lon="-3.031920" lat="52.721756"><ele>240.971466</ele><time>2022-01-15T12:37:35Z</time><extensions><speed>1.238925</speed><course>130.250473</course><hAcc>1.988907</hAcc><vAcc>0.559519</vAcc></extensions></trkpt>
      <trkpt lon="-3.031907" lat="52.721748"><ele>240.790100</ele><time>2022-01-15T12:37:36Z</time><extensions><speed>1.059510</speed><course>135.776276</course><hAcc>1.992133</hAcc><vAcc>0.560337</vAcc></extensions></trkpt>
      <trkpt lon="-3.031896" lat="52.721741"><ele>240.601929</ele><time>2022-01-15T12:37:37Z</time><extensions><speed>1.115620</speed><course>141.792953</course><hAcc>1.987158</hAcc><vAcc>0.561262</vAcc></extensions></trkpt>
      <trkpt lon="-3.031886" lat="52.721732"><ele>240.407333</ele><time>2022-01-15T12:37:38Z</time><extensions><speed>1.220834</speed><course>146.734604</course><hAcc>1.978480</hAcc><vAcc>0.562200</vAcc></extensions></trkpt>
      <trkpt lon="-3.031876" lat="52.721722"><ele>240.208954</ele><time>2022-01-15T12:37:39Z</time><extensions><speed>1.346153</speed><course>150.436279</course><hAcc>1.960986</hAcc><vAcc>0.563062</vAcc></extensions></trkpt>
      <trkpt lon="-3.031866" lat="52.721711"><ele>240.004578</ele><time>2022-01-15T12:37:40Z</time><extensions><speed>1.481580</speed><course>152.906723</course><hAcc>1.943052</hAcc><vAcc>0.563781</vAcc></extensions></trkpt>
      <trkpt lon="-3.031857" lat="52.721700"><ele>239.797607</ele><time>2022-01-15T12:37:41Z</time><extensions><speed>1.277155</speed><course>154.023239</course><hAcc>1.970700</hAcc><vAcc>0.564347</vAcc></extensions></trkpt>
      <trkpt lon="-3.031850" lat="52.721691"><ele>239.590836</ele><time>2022-01-15T12:37:42Z</time><extensions><speed>0.768226</speed><course>154.016724</course><hAcc>2.028011</hAcc><vAcc>0.564827</vAcc></extensions></trkpt>
      <trkpt lon="-3.031845" lat="52.721685"><ele>239.387222</ele><time>2022-01-15T12:37:43Z</time><extensions><speed>0.835562</speed><course>153.880600</course><hAcc>2.022955</hAcc><vAcc>0.565312</vAcc></extensions></trkpt>
      <trkpt lon="-3.031839" lat="52.721678"><ele>239.184341</ele><time>2022-01-15T12:37:44Z</time><extensions><speed>0.985399</speed><course>153.897110</course><hAcc>2.004625</hAcc><vAcc>0.565854</vAcc></extensions></trkpt>
      <trkpt lon="-3.031831" lat="52.721668"><ele>238.991531</ele><time>2022-01-15T12:37:45Z</time><extensions><speed>1.339720</speed><course>154.019608</course><hAcc>1.975267</hAcc><vAcc>0.566402</vAcc></extensions></trkpt>
      <trkpt lon="-3.031822" lat="52.721658"><ele>238.796967</ele><time>2022-01-15T12:37:46Z</time><extensions><speed>1.335631</speed><course>151.985794</course><hAcc>1.981858</hAcc><vAcc>0.566835</vAcc></extensions></trkpt>
      <trkpt lon="-3.031813" lat="52.721648"><ele>238.607422</ele><time>2022-01-15T12:37:47Z</time><extensions><speed>1.213124</speed><course>147.648178</course><hAcc>2.001837</hAcc><vAcc>0.567018</vAcc></extensions></trkpt>
      <trkpt lon="-3.031803" lat="52.721640"><ele>238.428482</ele><time>2022-01-15T12:37:48Z</time><extensions><speed>1.007121</speed><course>137.619232</course><hAcc>2.019316</hAcc><vAcc>0.566779</vAcc></extensions></trkpt>
      <trkpt lon="-3.031793" lat="52.721635"><ele>238.264160</ele><time>2022-01-15T12:37:49Z</time><extensions><speed>0.749233</speed><course>117.768501</course><hAcc>2.034136</hAcc><vAcc>0.565883</vAcc></extensions></trkpt>
      <trkpt lon="-3.031783" lat="52.721633"><ele>238.114960</ele><time>2022-01-15T12:37:50Z</time><extensions><speed>0.711578</speed><course>96.036186</course><hAcc>2.034920</hAcc><vAcc>0.564104</vAcc></extensions></trkpt>
      <trkpt lon="-3.031771" lat="52.721633"><ele>237.979935</ele><time>2022-01-15T12:37:51Z</time><extensions><speed>0.792422</speed><course>80.368286</course><hAcc>2.028456</hAcc><vAcc>0.561349</vAcc></extensions></trkpt>
      <trkpt lon="-3.031759" lat="52.721635"><ele>237.859024</ele><time>2022-01-15T12:37:52Z</time><extensions><speed>0.909646</speed><course>71.408493</course><hAcc>2.025231</hAcc><vAcc>0.557733</vAcc></extensions></trkpt>
      <trkpt lon="-3.031746" lat="52.721638"><ele>237.751205</ele><time>2022-01-15T12:37:53Z</time><extensions><speed>1.026000</speed><course>68.381653</course><hAcc>2.025107</hAcc><vAcc>0.553588</vAcc></extensions></trkpt>
      <trkpt lon="-3.031731" lat="52.721642"><ele>237.652023</ele><time>2022-01-15T12:37:54Z</time><extensions><speed>1.125887</speed><course>69.695282</course><hAcc>2.023825</hAcc><vAcc>0.549429</vAcc></extensions></trkpt>
      <trkpt lon="-3.031714" lat="52.721645"><ele>237.558060</ele><time>2022-01-15T12:37:55Z</time><extensions><speed>1.220536</speed><course>73.821602</course><hAcc>2.022827</hAcc><vAcc>0.545824</vAcc></extensions></trkpt>
      <trkpt lon="-3.031695" lat="52.721647"><ele>237.471146</ele><time>2022-01-15T12:37:56Z</time><extensions><speed>1.339195</speed><course>79.568810</course><hAcc>2.033116</hAcc><vAcc>0.543233</vAcc></extensions></trkpt>
      <trkpt lon="-3.031676" lat="52.721649"><ele>237.391022</ele><time>2022-01-15T12:37:57Z</time><extensions><speed>1.327038</speed><course>82.869545</course><hAcc>2.048343</hAcc><vAcc>0.541852</vAcc></extensions></trkpt>
      <trkpt lon="-3.031657" lat="52.721651"><ele>237.314743</ele><time>2022-01-15T12:37:58Z</time><extensions><speed>1.197897</speed><course>81.718826</course><hAcc>2.021394</hAcc><vAcc>0.541778</vAcc></extensions></trkpt>
      <trkpt lon="-3.031641" lat="52.721652"><ele>237.238434</ele><time>2022-01-15T12:37:59Z</time><extensions><speed>0.972520</speed><course>83.164429</course><hAcc>2.005455</hAcc><vAcc>0.543156</vAcc></extensions></trkpt>
      <trkpt lon="-3.031629" lat="52.721652"><ele>237.158218</ele><time>2022-01-15T12:38:00Z</time><extensions><speed>0.707139</speed><course>92.047302</course><hAcc>2.020764</hAcc><vAcc>0.546125</vAcc></extensions></trkpt>
      <trkpt lon="-3.031618" lat="52.721651"><ele>237.075638</ele><time>2022-01-15T12:38:01Z</time><extensions><speed>0.722774</speed><course>104.741486</course><hAcc>2.016682</hAcc><vAcc>0.550675</vAcc></extensions></trkpt>
      <trkpt lon="-3.031607" lat="52.721649"><ele>236.987122</ele><time>2022-01-15T12:38:02Z</time><extensions><speed>0.871337</speed><course>114.070885</course><hAcc>1.999301</hAcc><vAcc>0.556639</vAcc></extensions></trkpt>
      <trkpt lon="-3.031594" lat="52.721645"><ele>236.893326</ele><time>2022-01-15T12:38:03Z</time><extensions><speed>1.134586</speed><course>118.083511</course><hAcc>1.979588</hAcc><vAcc>0.563765</vAcc></extensions></trkpt>
      <trkpt lon="-3.031579" lat="52.721640"><ele>236.784744</ele><time>2022-01-15T12:38:04Z</time><extensions><speed>1.235413</speed><course>120.269318</course><hAcc>1.989804</hAcc><vAcc>0.571759</vAcc></extensions></trkpt>
      <trkpt lon="-3.031563" lat="52.721634"><ele>236.669113</ele><time>2022-01-15T12:38:05Z</time><extensions><speed>1.263965</speed><course>123.415672</course><hAcc>2.002728</hAcc><vAcc>0.580299</vAcc></extensions></trkpt>
      <trkpt lon="-3.031546" lat="52.721627"><ele>236.542892</ele><time>2022-01-15T12:38:06Z</time><extensions><speed>1.461652</speed><course>126.348511</course><hAcc>1.975938</hAcc><vAcc>0.589095</vAcc></extensions></trkpt>
      <trkpt lon="-3.031528" lat="52.721618"><ele>236.413727</ele><time>2022-01-15T12:38:07Z</time><extensions><speed>1.555106</speed><course>128.160904</course><hAcc>1.962145</hAcc><vAcc>0.597932</vAcc></extensions></trkpt>
      <trkpt lon="-3.031510" lat="52.721609"><ele>236.278732</ele><time>2022-01-15T12:38:08Z</time><extensions><speed>1.574065</speed><course>130.058624</course><hAcc>1.959300</hAcc><vAcc>0.606541</vAcc></extensions></trkpt>
      <trkpt lon="-3.031493" lat="52.721600"><ele>236.122681</ele><time>2022-01-15T12:38:09Z</time><extensions><speed>1.542155</speed><course>131.808960</course><hAcc>1.952984</hAcc><vAcc>0.614587</vAcc></extensions></trkpt>
      <trkpt lon="-3.031476" lat="52.721591"><ele>235.952087</ele><time>2022-01-15T12:38:10Z</time><extensions><speed>1.493603</speed><course>131.726028</course><hAcc>1.938856</hAcc><vAcc>0.621771</vAcc></extensions></trkpt>
      <trkpt lon="-3.031459" lat="52.721582"><ele>235.758606</ele><time>2022-01-15T12:38:11Z</time><extensions><speed>1.460449</speed><course>129.782990</course><hAcc>1.917921</hAcc><vAcc>0.628001</vAcc></extensions></trkpt>
      <trkpt lon="-3.031442" lat="52.721574"><ele>235.562256</ele><time>2022-01-15T12:38:12Z</time><extensions><speed>1.424640</speed><course>126.404045</course><hAcc>1.897719</hAcc><vAcc>0.633184</vAcc></extensions></trkpt>
      <trkpt lon="-3.031426" lat="52.721567"><ele>235.368713</ele><time>2022-01-15T12:38:13Z</time><extensions><speed>1.359048</speed><course>123.656914</course><hAcc>1.870633</hAcc><vAcc>0.637198</vAcc></extensions></trkpt>
      <trkpt lon="-3.031409" lat="52.721561"><ele>235.169464</ele><time>2022-01-15T12:38:14Z</time><extensions><speed>1.289858</speed><course>122.172150</course><hAcc>1.865894</hAcc><vAcc>0.640024</vAcc></extensions></trkpt>
      <trkpt lon="-3.031393" lat="52.721555"><ele>234.957748</ele><time>2022-01-15T12:38:15Z</time><extensions><speed>1.243271</speed><course>121.846909</course><hAcc>1.872252</hAcc><vAcc>0.641482</vAcc></extensions></trkpt>
      <trkpt lon="-3.031377" lat="52.721549"><ele>234.746918</ele><time>2022-01-15T12:38:16Z</time><extensions><speed>1.281923</speed><course>122.507401</course><hAcc>1.867221</hAcc><vAcc>0.641590</vAcc></extensions></trkpt>
      <trkpt lon="-3.031361" lat="52.721542"><ele>234.540695</ele><time>2022-01-15T12:38:17Z</time><extensions><speed>1.256391</speed><course>122.760033</course><hAcc>1.884052</hAcc><vAcc>0.640364</vAcc></extensions></trkpt>
      <trkpt lon="-3.031346" lat="52.721536"><ele>234.331894</ele><time>2022-01-15T12:38:18Z</time><extensions><speed>1.212867</speed><course>124.797928</course><hAcc>1.856048</hAcc><vAcc>0.637899</vAcc></extensions></trkpt>
      <trkpt lon="-3.031332" lat="52.721530"><ele>234.128052</ele><time>2022-01-15T12:38:19Z</time><extensions><speed>1.110471</speed><course>126.658234</course><hAcc>1.854264</hAcc><vAcc>0.634341</vAcc></extensions></trkpt>
      <trkpt lon="-3.031319" lat="52.721524"><ele>233.936768</ele><time>2022-01-15T12:38:20Z</time><extensions><speed>1.039652</speed><course>127.383484</course><hAcc>1.898898</hAcc><vAcc>0.629872</vAcc></extensions></trkpt>
      <trkpt lon="-3.031307" lat="52.721519"><ele>233.757263</ele><time>2022-01-15T12:38:21Z</time><extensions><speed>0.948339</speed><course>126.809967</course><hAcc>1.968804</hAcc><vAcc>0.624665</vAcc></extensions></trkpt>
      <trkpt lon="-3.031297" lat="52.721514"><ele>233.589676</ele><time>2022-01-15T12:38:22Z</time><extensions><speed>0.899716</speed><course>127.773544</course><hAcc>1.995632</hAcc><vAcc>0.618863</vAcc></extensions></trkpt>
      <trkpt lon="-3.031286" lat="52.721509"><ele>233.429321</ele><time>2022-01-15T12:38:23Z</time><extensions><speed>0.893288</speed><course>125.247307</course><hAcc>1.991203</hAcc><vAcc>0.612619</vAcc></extensions></trkpt>
      <trkpt lon="-3.031275" lat="52.721505"><ele>233.274994</ele><time>2022-01-15T12:38:24Z</time><extensions><speed>0.870826</speed><course>121.058578</course><hAcc>2.014104</hAcc><vAcc>0.606104</vAcc></extensions></trkpt>
      <trkpt lon="-3.031263" lat="52.721501"><ele>233.126556</ele><time>2022-01-15T12:38:25Z</time><extensions><speed>0.876144</speed><course>115.764328</course><hAcc>2.052543</hAcc><vAcc>0.599486</vAcc></extensions></trkpt>
      <trkpt lon="-3.031251" lat="52.721498"><ele>232.985321</ele><time>2022-01-15T12:38:26Z</time><extensions><speed>0.882209</speed><course>108.143738</course><hAcc>2.077235</hAcc><vAcc>0.592884</vAcc></extensions></trkpt>
      <trkpt lon="-3.031239" lat="52.721496"><ele>232.852234</ele><time>2022-01-15T12:38:27Z</time><extensions><speed>0.870860</speed><course>99.892433</course><hAcc>2.098247</hAcc><vAcc>0.586348</vAcc></extensions></trkpt>
      <trkpt lon="-3.031226" lat="52.721495"><ele>232.727692</ele><time>2022-01-15T12:38:28Z</time><extensions><speed>0.811237</speed><course>92.372559</course><hAcc>2.130931</hAcc><vAcc>0.579980</vAcc></extensions></trkpt>
      <trkpt lon="-3.031215" lat="52.721495"><ele>232.610199</ele><time>2022-01-15T12:38:29Z</time><extensions><speed>0.682612</speed><course>87.240532</course><hAcc>2.172970</hAcc><vAcc>0.573977</vAcc></extensions></trkpt>
      <trkpt lon="-3.031204" lat="52.721495"><ele>232.496979</ele><time>2022-01-15T12:38:30Z</time><extensions><speed>0.704415</speed><course>89.269058</course><hAcc>2.192690</hAcc><vAcc>0.568640</vAcc></extensions></trkpt>
      <trkpt lon="-3.031193" lat="52.721495"><ele>232.384003</ele><time>2022-01-15T12:38:31Z</time><extensions><speed>0.769999</speed><course>95.015175</course><hAcc>2.208876</hAcc><vAcc>0.564350</vAcc></extensions></trkpt>
      <trkpt lon="-3.031181" lat="52.721494"><ele>232.270782</ele><time>2022-01-15T12:38:32Z</time><extensions><speed>0.873069</speed><course>101.922684</course><hAcc>2.223735</hAcc><vAcc>0.561475</vAcc></extensions></trkpt>
      <trkpt lon="-3.031167" lat="52.721492"><ele>232.163803</ele><time>2022-01-15T12:38:33Z</time><extensions><speed>1.125563</speed><course>107.914276</course><hAcc>2.219774</hAcc><vAcc>0.560232</vAcc></extensions></trkpt>
      <trkpt lon="-3.031150" lat="52.721488"><ele>232.059433</ele><time>2022-01-15T12:38:34Z</time><extensions><speed>1.273686</speed><course>112.854523</course><hAcc>2.218871</hAcc><vAcc>0.560712</vAcc></extensions></trkpt>
      <trkpt lon="-3.031133" lat="52.721483"><ele>231.956985</ele><time>2022-01-15T12:38:35Z</time><extensions><speed>1.360662</speed><course>116.927223</course><hAcc>2.212498</hAcc><vAcc>0.562859</vAcc></extensions></trkpt>
      <trkpt lon="-3.031114" lat="52.721477"><ele>231.856873</ele><time>2022-01-15T12:38:36Z</time><extensions><speed>1.438941</speed><course>121.008461</course><hAcc>2.191656</hAcc><vAcc>0.566424</vAcc></extensions></trkpt>
      <trkpt lon="-3.031097" lat="52.721469"><ele>231.759750</ele><time>2022-01-15T12:38:37Z</time><extensions><speed>1.446557</speed><course>125.260208</course><hAcc>2.168428</hAcc><vAcc>0.570869</vAcc></extensions></trkpt>
      <trkpt lon="-3.031080" lat="52.721462"><ele>231.661804</ele><time>2022-01-15T12:38:38Z</time><extensions><speed>1.357536</speed><course>129.567841</course><hAcc>2.151564</hAcc><vAcc>0.575407</vAcc></extensions></trkpt>
      <trkpt lon="-3.031066" lat="52.721454"><ele>231.559708</ele><time>2022-01-15T12:38:39Z</time><extensions><speed>1.204841</speed><course>131.856262</course><hAcc>2.136308</hAcc><vAcc>0.579187</vAcc></extensions></trkpt>
      <trkpt lon="-3.031054" lat="52.721448"><ele>231.456223</ele><time>2022-01-15T12:38:40Z</time><extensions><speed>1.000341</speed><course>130.613113</course><hAcc>2.127033</hAcc><vAcc>0.581570</vAcc></extensions></trkpt>
      <trkpt lon="-3.031041" lat="52.721442"><ele>231.352890</ele><time>2022-01-15T12:38:41Z</time><extensions><speed>1.149393</speed><course>128.401428</course><hAcc>2.090679</hAcc><vAcc>0.582216</vAcc></extensions></trkpt>
      <trkpt lon="-3.031027" lat="52.721436"><ele>231.247589</ele><time>2022-01-15T12:38:42Z</time><extensions><speed>1.219544</speed><course>122.200935</course><hAcc>2.066586</hAcc><vAcc>0.581125</vAcc></extensions></trkpt>
      <trkpt lon="-3.031011" lat="52.721430"><ele>231.140045</ele><time>2022-01-15T12:38:43Z</time><extensions><speed>1.184863</speed><course>114.975128</course><hAcc>2.065946</hAcc><vAcc>0.578596</vAcc></extensions></trkpt>
      <trkpt lon="-3.030995" lat="52.721427"><ele>231.029663</ele><time>2022-01-15T12:38:44Z</time><extensions><speed>1.094421</speed><course>107.424774</course><hAcc>2.079026</hAcc><vAcc>0.575107</vAcc></extensions></trkpt>
      <trkpt lon="-3.030981" lat="52.721424"><ele>230.917542</ele><time>2022-01-15T12:38:45Z</time><extensions><speed>0.974083</speed><course>100.095734</course><hAcc>2.093371</hAcc><vAcc>0.571203</vAcc></extensions></trkpt>
      <trkpt lon="-3.030966" lat="52.721423"><ele>230.806442</ele><time>2022-01-15T12:38:46Z</time><extensions><speed>1.022505</speed><course>96.342766</course><hAcc>2.087999</hAcc><vAcc>0.567457</vAcc></extensions></trkpt>
      <trkpt lon="-3.030949" lat="52.721422"><ele>230.694336</ele><time>2022-01-15T12:38:47Z</time><extensions><speed>1.201005</speed><course>96.147034</course><hAcc>2.068791</hAcc><vAcc>0.564420</vAcc></extensions></trkpt>
      <trkpt lon="-3.030931" lat="52.721420"><ele>230.577698</ele><time>2022-01-15T12:38:48Z</time><extensions><speed>1.267189</speed><course>98.936005</course><hAcc>2.062546</hAcc><vAcc>0.562539</vAcc></extensions></trkpt>
      <trkpt lon="-3.030913" lat="52.721418"><ele>230.461472</ele><time>2022-01-15T12:38:49Z</time><extensions><speed>1.309007</speed><course>102.560287</course><hAcc>2.061465</hAcc><vAcc>0.562146</vAcc></extensions></trkpt>
      <trkpt lon="-3.030893" lat="52.721415"><ele>230.344482</ele><time>2022-01-15T12:38:50Z</time><extensions><speed>1.332693</speed><course>106.249931</course><hAcc>2.054037</hAcc><vAcc>0.563331</vAcc></extensions></trkpt>
      <trkpt lon="-3.030875" lat="52.721412"><ele>230.230621</ele><time>2022-01-15T12:38:51Z</time><extensions><speed>1.307032</speed><course>109.218292</course><hAcc>2.044968</hAcc><vAcc>0.565828</vAcc></extensions></trkpt>
      <trkpt lon="-3.030857" lat="52.721408"><ele>230.121292</ele><time>2022-01-15T12:38:52Z</time><extensions><speed>1.242338</speed><course>112.297134</course><hAcc>2.030464</hAcc><vAcc>0.569291</vAcc></extensions></trkpt>
      <trkpt lon="-3.030841" lat="52.721403"><ele>230.017914</ele><time>2022-01-15T12:38:53Z</time><extensions><speed>1.169351</speed><course>114.177605</course><hAcc>2.019708</hAcc><vAcc>0.573310</vAcc></extensions></trkpt>
      <trkpt lon="-3.030826" lat="52.721399"><ele>229.912857</ele><time>2022-01-15T12:38:54Z</time><extensions><speed>1.054137</speed><course>114.641449</course><hAcc>2.012794</hAcc><vAcc>0.577494</vAcc></extensions></trkpt>
      <trkpt lon="-3.030812" lat="52.721396"><ele>229.815491</ele><time>2022-01-15T12:38:55Z</time><extensions><speed>0.964304</speed><course>112.165642</course><hAcc>2.011144</hAcc><vAcc>0.581453</vAcc></extensions></trkpt>
      <trkpt lon="-3.030799" lat="52.721393"><ele>229.719910</ele><time>2022-01-15T12:38:56Z</time><extensions><speed>0.822837</speed><course>105.765404</course><hAcc>2.017071</hAcc><vAcc>0.584819</vAcc></extensions></trkpt>
      <trkpt lon="-3.030787" lat="52.721391"><ele>229.628555</ele><time>2022-01-15T12:38:57Z</time><extensions><speed>0.823373</speed><course>99.041161</course><hAcc>2.009862</hAcc><vAcc>0.587351</vAcc></extensions></trkpt>
      <trkpt lon="-3.030775" lat="52.721390"><ele>229.547623</ele><time>2022-01-15T12:38:58Z</time><extensions><speed>0.877678</speed><course>94.898033</course><hAcc>2.003073</hAcc><vAcc>0.588891</vAcc></extensions></trkpt>
      <trkpt lon="-3.030763" lat="52.721390"><ele>229.464340</ele><time>2022-01-15T12:38:59Z</time><extensions><speed>0.744014</speed><course>92.384750</course><hAcc>2.020704</hAcc><vAcc>0.589328</vAcc></extensions></trkpt>
      <trkpt lon="-3.030752" lat="52.721390"><ele>229.384720</ele><time>2022-01-15T12:39:00Z</time><extensions><speed>0.690421</speed><course>93.128647</course><hAcc>2.033603</hAcc><vAcc>0.588600</vAcc></extensions></trkpt>
      <trkpt lon="-3.030742" lat="52.721389"><ele>229.312607</ele><time>2022-01-15T12:39:01Z</time><extensions><speed>0.702995</speed><course>96.572281</course><hAcc>2.037951</hAcc><vAcc>0.586776</vAcc></extensions></trkpt>
      <trkpt lon="-3.030731" lat="52.721388"><ele>229.245209</ele><time>2022-01-15T12:39:02Z</time><extensions><speed>0.724065</speed><course>100.896790</course><hAcc>2.047295</hAcc><vAcc>0.584053</vAcc></extensions></trkpt>
      <trkpt lon="-3.030720" lat="52.721387"><ele>229.179764</ele><time>2022-01-15T12:39:03Z</time><extensions><speed>0.804986</speed><course>104.722969</course><hAcc>2.048240</hAcc><vAcc>0.580686</vAcc></extensions></trkpt>
      <trkpt lon="-3.030708" lat="52.721384"><ele>229.116669</ele><time>2022-01-15T12:39:04Z</time><extensions><speed>0.944056</speed><course>107.081123</course><hAcc>2.037613</hAcc><vAcc>0.576976</vAcc></extensions></trkpt>
      <trkpt lon="-3.030695" lat="52.721382"><ele>229.055939</ele><time>2022-01-15T12:39:05Z</time><extensions><speed>0.916585</speed><course>109.571930</course><hAcc>2.040099</hAcc><vAcc>0.573210</vAcc></extensions></trkpt>
      <trkpt lon="-3.030683" lat="52.721379"><ele>228.994003</ele><time>2022-01-15T12:39:06Z</time><extensions><speed>0.767184</speed><course>112.675346</course><hAcc>2.050973</hAcc><vAcc>0.569609</vAcc></extensions></trkpt>
      <trkpt lon="-3.030674" lat="52.721377"><ele>228.919266</ele><time>2022-01-15T12:39:07Z</time><extensions><speed>0.531193</speed><course>114.750854</course><hAcc>2.063854</hAcc><vAcc>0.566284</vAcc></extensions></trkpt>
      <trkpt lon="-3.030667" lat="52.721375"><ele>228.834122</ele><time>2022-01-15T12:39:08Z</time><extensions><speed>0.425328</speed><course>114.139099</course><hAcc>2.063402</hAcc><vAcc>0.563239</vAcc></extensions></trkpt>
      <trkpt lon="-3.030662" lat="52.721373"><ele>228.744492</ele><time>2022-01-15T12:39:09Z</time><extensions><speed>0.364314</speed><course>112.877068</course><hAcc>2.063030</hAcc><vAcc>0.560450</vAcc></extensions></trkpt>
      <trkpt lon="-3.030657" lat="52.721372"><ele>228.651947</ele><time>2022-01-15T12:39:10Z</time><extensions><speed>0.377976</speed><course>112.411949</course><hAcc>2.047052</hAcc><vAcc>0.557858</vAcc></extensions></trkpt>
      <trkpt lon="-3.030651" lat="52.721370"><ele>228.555908</ele><time>2022-01-15T12:39:11Z</time><extensions><speed>0.423301</speed><course>112.876823</course><hAcc>2.027422</hAcc><vAcc>0.555373</vAcc></extensions></trkpt>
      <trkpt lon="-3.030645" lat="52.721369"><ele>228.455170</ele><time>2022-01-15T12:39:12Z</time><extensions><speed>0.450413</speed><course>113.453163</course><hAcc>2.020863</hAcc><vAcc>0.552898</vAcc></extensions></trkpt>
      <trkpt lon="-3.030639" lat="52.721367"><ele>228.345444</ele><time>2022-01-15T12:39:13Z</time><extensions><speed>0.482814</speed><course>114.865562</course><hAcc>2.019196</hAcc><vAcc>0.550315</vAcc></extensions></trkpt>
      <trkpt lon="-3.030632" lat="52.721365"><ele>228.221954</ele><time>2022-01-15T12:39:14Z</time><extensions><speed>0.518655</speed><course>118.495651</course><hAcc>2.023077</hAcc><vAcc>0.547511</vAcc></extensions></trkpt>
      <trkpt lon="-3.030625" lat="52.721362"><ele>228.086487</ele><time>2022-01-15T12:39:15Z</time><extensions><speed>0.593632</speed><course>124.458168</course><hAcc>2.028326</hAcc><vAcc>0.544435</vAcc></extensions></trkpt>
      <trkpt lon="-3.030617" lat="52.721359"><ele>227.939499</ele><time>2022-01-15T12:39:16Z</time><extensions><speed>0.724771</speed><course>130.984650</course><hAcc>2.030548</hAcc><vAcc>0.541139</vAcc></extensions></trkpt>
      <trkpt lon="-3.030608" lat="52.721354"><ele>227.783691</ele><time>2022-01-15T12:39:17Z</time><extensions><speed>0.906770</speed><course>135.896576</course><hAcc>2.026627</hAcc><vAcc>0.537730</vAcc></extensions></trkpt>
      <trkpt lon="-3.030598" lat="52.721347"><ele>227.628540</ele><time>2022-01-15T12:39:18Z</time><extensions><speed>1.134894</speed><course>139.262085</course><hAcc>2.020474</hAcc><vAcc>0.534248</vAcc></extensions></trkpt>
      <trkpt lon="-3.030587" lat="52.721339"><ele>227.472885</ele><time>2022-01-15T12:39:19Z</time><extensions><speed>1.169636</speed><course>139.062653</course><hAcc>2.026752</hAcc><vAcc>0.530622</vAcc></extensions></trkpt>
      <trkpt lon="-3.030576" lat="52.721332"><ele>227.312057</ele><time>2022-01-15T12:39:20Z</time><extensions><speed>1.031688</speed><course>135.868835</course><hAcc>2.039037</hAcc><vAcc>0.526783</vAcc></extensions></trkpt>
      <trkpt lon="-3.030565" lat="52.721326"><ele>227.139694</ele><time>2022-01-15T12:39:21Z</time><extensions><speed>0.827024</speed><course>127.797668</course><hAcc>2.052298</hAcc><vAcc>0.522768</vAcc></extensions></trkpt>
      <trkpt lon="-3.030555" lat="52.721322"><ele>226.960526</ele><time>2022-01-15T12:39:22Z</time><extensions><speed>0.893256</speed><course>121.351479</course><hAcc>2.026881</hAcc><vAcc>0.518739</vAcc></extensions></trkpt>
      <trkpt lon="-3.030542" lat="52.721317"><ele>226.776245</ele><time>2022-01-15T12:39:23Z</time><extensions><speed>1.052231</speed><course>119.228142</course><hAcc>1.984481</hAcc><vAcc>0.515015</vAcc></extensions></trkpt>
      <trkpt lon="-3.030528" lat="52.721312"><ele>226.587128</ele><time>2022-01-15T12:39:24Z</time><extensions><speed>1.134638</speed><course>117.063133</course><hAcc>1.959301</hAcc><vAcc>0.511940</vAcc></extensions></trkpt>
      <trkpt lon="-3.030513" lat="52.721308"><ele>226.395508</ele><time>2022-01-15T12:39:25Z</time><extensions><speed>1.147184</speed><course>115.521973</course><hAcc>1.973625</hAcc><vAcc>0.509637</vAcc></extensions></trkpt>
      <trkpt lon="-3.030498" lat="52.721304"><ele>226.201614</ele><time>2022-01-15T12:39:26Z</time><extensions><speed>1.028568</speed><course>114.785751</course><hAcc>2.033875</hAcc><vAcc>0.507937</vAcc></extensions></trkpt>
      <trkpt lon="-3.030485" lat="52.721300"><ele>226.007950</ele><time>2022-01-15T12:39:27Z</time><extensions><speed>0.928359</speed><course>116.521080</course><hAcc>2.041538</hAcc><vAcc>0.506530</vAcc></extensions></trkpt>
      <trkpt lon="-3.030472" lat="52.721296"><ele>225.816208</ele><time>2022-01-15T12:39:28Z</time><extensions><speed>1.026942</speed><course>120.282890</course><hAcc>1.985494</hAcc><vAcc>0.505199</vAcc></extensions></trkpt>
      <trkpt lon="-3.030459" lat="52.721291"><ele>225.626724</ele><time>2022-01-15T12:39:29Z</time><extensions><speed>1.031954</speed><course>121.785789</course><hAcc>1.978276</hAcc><vAcc>0.503881</vAcc></extensions></trkpt>
      <trkpt lon="-3.030446" lat="52.721286"><ele>225.440979</ele><time>2022-01-15T12:39:30Z</time><extensions><speed>0.973789</speed><course>123.617378</course><hAcc>2.009007</hAcc><vAcc>0.502596</vAcc></extensions></trkpt>
      <trkpt lon="-3.030435" lat="52.721281"><ele>225.255569</ele><time>2022-01-15T12:39:31Z</time><extensions><speed>0.937064</speed><course>124.514023</course><hAcc>2.036041</hAcc><vAcc>0.501311</vAcc></extensions></trkpt>
      <trkpt lon="-3.030423" lat="52.721277"><ele>225.064148</ele><time>2022-01-15T12:39:32Z</time><extensions><speed>0.908868</speed><course>124.068657</course><hAcc>2.073560</hAcc><vAcc>0.499779</vAcc></extensions></trkpt>
      <trkpt lon="-3.030412" lat="52.721272"><ele>224.872452</ele><time>2022-01-15T12:39:33Z</time><extensions><speed>0.913449</speed><course>122.316162</course><hAcc>2.114614</hAcc><vAcc>0.497545</vAcc></extensions></trkpt>
      <trkpt lon="-3.030400" lat="52.721268"><ele>224.685059</ele><time>2022-01-15T12:39:34Z</time><extensions><speed>0.926084</speed><course>120.524689</course><hAcc>2.149751</hAcc><vAcc>0.494204</vAcc></extensions></trkpt>
      <trkpt lon="-3.030389" lat="52.721264"><ele>224.486588</ele><time>2022-01-15T12:39:35Z</time><extensions><speed>0.912836</speed><course>118.857590</course><hAcc>2.181850</hAcc><vAcc>0.489385</vAcc></extensions></trkpt>
      <trkpt lon="-3.030377" lat="52.721260"><ele>224.305908</ele><time>2022-01-15T12:39:36Z</time><extensions><speed>0.821675</speed><course>115.916069</course><hAcc>2.221389</hAcc><vAcc>0.482747</vAcc></extensions></trkpt>
      <trkpt lon="-3.030367" lat="52.721257"><ele>224.144257</ele><time>2022-01-15T12:39:37Z</time><extensions><speed>0.648156</speed><course>111.547089</course><hAcc>2.265825</hAcc><vAcc>0.474190</vAcc></extensions></trkpt>
      <trkpt lon="-3.030358" lat="52.721255"><ele>223.990829</ele><time>2022-01-15T12:39:38Z</time><extensions><speed>0.644533</speed><course>108.866173</course><hAcc>2.290298</hAcc><vAcc>0.463714</vAcc></extensions></trkpt>
      <trkpt lon="-3.030349" lat="52.721253"><ele>223.857971</ele><time>2022-01-15T12:39:39Z</time><extensions><speed>0.694191</speed><course>108.919159</course><hAcc>2.317927</hAcc><vAcc>0.451849</vAcc></extensions></trkpt>
      <trkpt lon="-3.030338" lat="52.721251"><ele>223.727615</ele><time>2022-01-15T12:39:40Z</time><extensions><speed>0.800328</speed><course>111.084656</course><hAcc>2.347898</hAcc><vAcc>0.439351</vAcc></extensions></trkpt>
      <trkpt lon="-3.030326" lat="52.721248"><ele>223.601410</ele><time>2022-01-15T12:39:41Z</time><extensions><speed>0.974250</speed><course>114.016838</course><hAcc>2.375072</hAcc><vAcc>0.427324</vAcc></extensions></trkpt>
      <trkpt lon="-3.030313" lat="52.721244"><ele>223.474655</ele><time>2022-01-15T12:39:42Z</time><extensions><speed>0.999151</speed><course>115.768982</course><hAcc>2.411861</hAcc><vAcc>0.416449</vAcc></extensions></trkpt>
      <trkpt lon="-3.030300" lat="52.721240"><ele>223.340378</ele><time>2022-01-15T12:39:43Z</time><extensions><speed>0.936538</speed><course>118.731934</course><hAcc>2.451213</hAcc><vAcc>0.407318</vAcc></extensions></trkpt>
      <trkpt lon="-3.030289" lat="52.721236"><ele>223.197617</ele><time>2022-01-15T12:39:44Z</time><extensions><speed>0.850886</speed><course>122.556290</course><hAcc>2.475706</hAcc><vAcc>0.400067</vAcc></extensions></trkpt>
      <trkpt lon="-3.030278" lat="52.721232"><ele>223.032288</ele><time>2022-01-15T12:39:45Z</time><extensions><speed>0.952727</speed><course>125.021507</course><hAcc>2.466748</hAcc><vAcc>0.394652</vAcc></extensions></trkpt>
      <trkpt lon="-3.030265" lat="52.721226"><ele>222.823975</ele><time>2022-01-15T12:39:46Z</time><extensions><speed>1.046477</speed><course>126.608025</course><hAcc>2.446509</hAcc><vAcc>0.390688</vAcc></extensions></trkpt>
      <trkpt lon="-3.030253" lat="52.721220"><ele>222.592255</ele><time>2022-01-15T12:39:47Z</time><extensions><speed>1.116671</speed><course>127.048897</course><hAcc>2.420664</hAcc><vAcc>0.388075</vAcc></extensions></trkpt>
      <trkpt lon="-3.030239" lat="52.721214"><ele>222.332275</ele><time>2022-01-15T12:39:48Z</time><extensions><speed>1.185926</speed><course>126.003113</course><hAcc>2.384554</hAcc><vAcc>0.386737</vAcc></extensions></trkpt>
      <trkpt lon="-3.030224" lat="52.721208"><ele>222.039368</ele><time>2022-01-15T12:39:49Z</time><extensions><speed>1.246414</speed><course>124.375160</course><hAcc>2.344280</hAcc><vAcc>0.386668</vAcc></extensions></trkpt>
      <trkpt lon="-3.030208" lat="52.721202"><ele>221.721527</ele><time>2022-01-15T12:39:50Z</time><extensions><speed>1.305223</speed><course>122.009308</course><hAcc>2.309734</hAcc><vAcc>0.387685</vAcc></extensions></trkpt>
      <trkpt lon="-3.030191" lat="52.721196"><ele>221.390015</ele><time>2022-01-15T12:39:51Z</time><extensions><speed>1.335433</speed><course>119.439613</course><hAcc>2.283807</hAcc><vAcc>0.389305</vAcc></extensions></trkpt>
      <trkpt lon="-3.030173" lat="52.721191"><ele>221.051041</ele><time>2022-01-15T12:39:52Z</time><extensions><speed>1.332346</speed><course>116.247711</course><hAcc>2.254267</hAcc><vAcc>0.390977</vAcc></extensions></trkpt>
      <trkpt lon="-3.030155" lat="52.721186"><ele>220.697800</ele><time>2022-01-15T12:39:53Z</time><extensions><speed>1.312620</speed><course>112.915268</course><hAcc>2.226595</hAcc><vAcc>0.392313</vAcc></extensions></trkpt>
      <trkpt lon="-3.030137" lat="52.721181"><ele>220.360077</ele><time>2022-01-15T12:39:54Z</time><extensions><speed>1.217723</speed><course>110.552628</course><hAcc>2.219426</hAcc><vAcc>0.393207</vAcc></extensions></trkpt>
      <trkpt lon="-3.030121" lat="52.721178"><ele>220.039703</ele><time>2022-01-15T12:39:55Z</time><extensions><speed>1.094142</speed><course>106.814247</course><hAcc>2.224317</hAcc><vAcc>0.393513</vAcc></extensions></trkpt>
      <trkpt lon="-3.030106" lat="52.721176"><ele>219.737503</ele><time>2022-01-15T12:39:56Z</time><extensions><speed>0.932126</speed><course>102.329521</course><hAcc>2.232496</hAcc><vAcc>0.393325</vAcc></extensions></trkpt>
      <trkpt lon="-3.030093" lat="52.721174"><ele>219.440659</ele><time>2022-01-15T12:39:57Z</time><extensions><speed>0.953021</speed><course>95.952187</course><hAcc>2.202648</hAcc><vAcc>0.393008</vAcc></extensions></trkpt>
      <trkpt lon="-3.030078" lat="52.721174"><ele>219.174103</ele><time>2022-01-15T12:39:58Z</time><extensions><speed>0.975536</speed><course>92.002182</course><hAcc>2.196257</hAcc><vAcc>0.393051</vAcc></extensions></trkpt>
      <trkpt lon="-3.030064" lat="52.721173"><ele>218.924789</ele><time>2022-01-15T12:39:59Z</time><extensions><speed>0.997316</speed><course>91.265388</course><hAcc>2.214003</hAcc><vAcc>0.394045</vAcc></extensions></trkpt>
      <trkpt lon="-3.030049" lat="52.721173"><ele>218.687546</ele><time>2022-01-15T12:40:00Z</time><extensions><speed>0.999024</speed><course>92.934593</course><hAcc>2.236174</hAcc><vAcc>0.396543</vAcc></extensions></trkpt>
      <trkpt lon="-3.030034" lat="52.721172"><ele>218.457901</ele><time>2022-01-15T12:40:01Z</time><extensions><speed>0.985996</speed><course>96.363953</course><hAcc>2.251044</hAcc><vAcc>0.401005</vAcc></extensions></trkpt>
      <trkpt lon="-3.030019" lat="52.721170"><ele>218.235168</ele><time>2022-01-15T12:40:02Z</time><extensions><speed>0.984969</speed><course>102.050903</course><hAcc>2.249319</hAcc><vAcc>0.407718</vAcc></extensions></trkpt>
      <trkpt lon="-3.030005" lat="52.721168"><ele>218.013290</ele><time>2022-01-15T12:40:03Z</time><extensions><speed>0.992888</speed><course>110.512924</course><hAcc>2.219490</hAcc><vAcc>0.416576</vAcc></extensions></trkpt>
      <trkpt lon="-3.029991" lat="52.721164"><ele>217.785690</ele><time>2022-01-15T12:40:04Z</time><extensions><speed>0.988402</speed><course>120.349876</course><hAcc>2.168825</hAcc><vAcc>0.426858</vAcc></extensions></trkpt>
      <trkpt lon="-3.029979" lat="52.721159"><ele>217.551819</ele><time>2022-01-15T12:40:05Z</time><extensions><speed>0.937008</speed><course>127.812843</course><hAcc>2.117657</hAcc><vAcc>0.437277</vAcc></extensions></trkpt>
      <trkpt lon="-3.029968" lat="52.721153"><ele>217.305405</ele><time>2022-01-15T12:40:06Z</time><extensions><speed>0.820715</speed><course>133.951263</course><hAcc>2.072392</hAcc><vAcc>0.446454</vAcc></extensions></trkpt>
      <trkpt lon="-3.029959" lat="52.721148"><ele>217.039246</ele><time>2022-01-15T12:40:07Z</time><extensions><speed>0.783630</speed><course>134.838150</course><hAcc>2.038658</hAcc><vAcc>0.453278</vAcc></extensions></trkpt>
      <trkpt lon="-3.029952" lat="52.721143"><ele>216.758652</ele><time>2022-01-15T12:40:08Z</time><extensions><speed>0.551454</speed><course>137.310287</course><hAcc>2.043688</hAcc><vAcc>0.457173</vAcc></extensions></trkpt>
      <trkpt lon="-3.029946" lat="52.721139"><ele>216.470596</ele><time>2022-01-15T12:40:09Z</time><extensions><speed>0.555817</speed><course>137.273849</course><hAcc>2.024486</hAcc><vAcc>0.457933</vAcc></extensions></trkpt>
      <trkpt lon="-3.029939" lat="52.721135"><ele>216.184998</ele><time>2022-01-15T12:40:10Z</time><extensions><speed>0.605518</speed><course>136.180328</course><hAcc>2.005777</hAcc><vAcc>0.455719</vAcc></extensions></trkpt>
      <trkpt lon="-3.029933" lat="52.721130"><ele>215.895752</ele><time>2022-01-15T12:40:11Z</time><extensions><speed>0.622452</speed><course>135.363159</course><hAcc>2.005138</hAcc><vAcc>0.450955</vAcc></extensions></trkpt>
      <trkpt lon="-3.029926" lat="52.721126"><ele>215.612793</ele><time>2022-01-15T12:40:12Z</time><extensions><speed>0.648118</speed><course>134.918396</course><hAcc>2.011330</hAcc><vAcc>0.444506</vAcc></extensions></trkpt>
      <trkpt lon="-3.029919" lat="52.721121"><ele>215.339325</ele><time>2022-01-15T12:40:13Z</time><extensions><speed>0.686547</speed><course>134.936081</course><hAcc>2.022900</hAcc><vAcc>0.436901</vAcc></extensions></trkpt>
      <trkpt lon="-3.029911" lat="52.721117"><ele>215.077377</ele><time>2022-01-15T12:40:14Z</time><extensions><speed>0.683899</speed><course>135.842789</course><hAcc>2.045807</hAcc><vAcc>0.428649</vAcc></extensions></trkpt>
      <trkpt lon="-3.029904" lat="52.721112"><ele>214.830231</ele><time>2022-01-15T12:40:15Z</time><extensions><speed>0.726396</speed><course>137.446854</course><hAcc>2.065701</hAcc><vAcc>0.420452</vAcc></extensions></trkpt>
      <trkpt lon="-3.029896" lat="52.721107"><ele>214.599701</ele><time>2022-01-15T12:40:16Z</time><extensions><speed>0.787881</speed><course>139.341339</course><hAcc>2.077847</hAcc><vAcc>0.412781</vAcc></extensions></trkpt>
      <trkpt lon="-3.029887" lat="52.721101"><ele>214.394287</ele><time>2022-01-15T12:40:17Z</time><extensions><speed>0.929792</speed><course>140.938522</course><hAcc>2.074921</hAcc><vAcc>0.406182</vAcc></extensions></trkpt>
      <trkpt lon="-3.029878" lat="52.721094"><ele>214.213440</ele><time>2022-01-15T12:40:18Z</time><extensions><speed>0.890221</speed><course>142.659531</course><hAcc>2.090138</hAcc><vAcc>0.401007</vAcc></extensions></trkpt>
      <trkpt lon="-3.029870" lat="52.721088"><ele>214.036758</ele><time>2022-01-15T12:40:19Z</time><extensions><speed>0.805391</speed><course>144.203720</course><hAcc>2.108605</hAcc><vAcc>0.397175</vAcc></extensions></trkpt>
      <trkpt lon="-3.029864" lat="52.721083"><ele>213.884308</ele><time>2022-01-15T12:40:20Z</time><extensions><speed>0.617016</speed><course>144.832230</course><hAcc>2.151739</hAcc><vAcc>0.394517</vAcc></extensions></trkpt>
      <trkpt lon="-3.029860" lat="52.721080"><ele>213.739746</ele><time>2022-01-15T12:40:21Z</time><extensions><speed>0.307918</speed><course>141.237808</course><hAcc>2.212586</hAcc><vAcc>0.392790</vAcc></extensions></trkpt>
      <trkpt lon="-3.029856" lat="52.721078"><ele>213.608749</ele><time>2022-01-15T12:40:22Z</time><extensions><speed>0.307564</speed><course>129.251984</course><hAcc>2.202785</hAcc><vAcc>0.391994</vAcc></extensions></trkpt>
      <trkpt lon="-3.029851" lat="52.721076"><ele>213.485901</ele><time>2022-01-15T12:40:23Z</time><extensions><speed>0.465548</speed><course>118.015633</course><hAcc>2.160695</hAcc><vAcc>0.391946</vAcc></extensions></trkpt>
      <trkpt lon="-3.029844" lat="52.721074"><ele>213.374130</ele><time>2022-01-15T12:40:24Z</time><extensions><speed>0.537474</speed><course>110.057480</course><hAcc>2.168928</hAcc><vAcc>0.392236</vAcc></extensions></trkpt>
      <trkpt lon="-3.029836" lat="52.721073"><ele>213.261734</ele><time>2022-01-15T12:40:25Z</time><extensions><speed>0.603499</speed><course>103.877228</course><hAcc>2.206020</hAcc><vAcc>0.392579</vAcc></extensions></trkpt>
      <trkpt lon="-3.029827" lat="52.721072"><ele>213.154434</ele><time>2022-01-15T12:40:26Z</time><extensions><speed>0.606116</speed><course>99.059662</course><hAcc>2.253467</hAcc><vAcc>0.392894</vAcc></extensions></trkpt>
      <trkpt lon="-3.029817" lat="52.721071"><ele>213.049561</ele><time>2022-01-15T12:40:27Z</time><extensions><speed>0.593099</speed><course>95.399849</course><hAcc>2.286098</hAcc><vAcc>0.393250</vAcc></extensions></trkpt>
      <trkpt lon="-3.029808" lat="52.721070"><ele>212.953140</ele><time>2022-01-15T12:40:28Z</time><extensions><speed>0.581931</speed><course>93.513779</course><hAcc>2.297854</hAcc><vAcc>0.393901</vAcc></extensions></trkpt>
      <trkpt lon="-3.029800" lat="52.721070"><ele>212.859497</ele><time>2022-01-15T12:40:29Z</time><extensions><speed>0.564138</speed><course>92.825859</course><hAcc>2.296277</hAcc><vAcc>0.395153</vAcc></extensions></trkpt>
      <trkpt lon="-3.029791" lat="52.721070"><ele>212.766083</ele><time>2022-01-15T12:40:30Z</time><extensions><speed>0.574582</speed><course>93.101532</course><hAcc>2.285943</hAcc><vAcc>0.397575</vAcc></extensions></trkpt>
      <trkpt lon="-3.029782" lat="52.721069"><ele>212.673019</ele><time>2022-01-15T12:40:31Z</time><extensions><speed>0.551410</speed><course>93.641464</course><hAcc>2.281510</hAcc><vAcc>0.401821</vAcc></extensions></trkpt>
      <trkpt lon="-3.029773" lat="52.721069"><ele>212.581299</ele><time>2022-01-15T12:40:32Z</time><extensions><speed>0.583930</speed><course>94.970650</course><hAcc>2.261516</hAcc><vAcc>0.408348</vAcc></extensions></trkpt>
      <trkpt lon="-3.029764" lat="52.721068"><ele>212.492096</ele><time>2022-01-15T12:40:33Z</time><extensions><speed>0.623181</speed><course>97.011276</course><hAcc>2.235626</hAcc><vAcc>0.417151</vAcc></extensions></trkpt>
      <trkpt lon="-3.029754" lat="52.721068"><ele>212.411179</ele><time>2022-01-15T12:40:34Z</time><extensions><speed>0.692834</speed><course>99.287094</course><hAcc>2.208916</hAcc><vAcc>0.427796</vAcc></extensions></trkpt>
      <trkpt lon="-3.029744" lat="52.721066"><ele>212.339874</ele><time>2022-01-15T12:40:35Z</time><extensions><speed>0.718468</speed><course>101.802902</course><hAcc>2.194771</hAcc><vAcc>0.439732</vAcc></extensions></trkpt>
      <trkpt lon="-3.029733" lat="52.721065"><ele>212.272827</ele><time>2022-01-15T12:40:36Z</time><extensions><speed>0.767296</speed><course>103.831139</course><hAcc>2.174216</hAcc><vAcc>0.452443</vAcc></extensions></trkpt>
      <trkpt lon="-3.029722" lat="52.721063"><ele>212.214676</ele><time>2022-01-15T12:40:37Z</time><extensions><speed>0.794732</speed><course>103.892876</course><hAcc>2.147008</hAcc><vAcc>0.465362</vAcc></extensions></trkpt>
      <trkpt lon="-3.029710" lat="52.721062"><ele>212.164230</ele><time>2022-01-15T12:40:38Z</time><extensions><speed>0.813630</speed><course>100.570778</course><hAcc>2.116123</hAcc><vAcc>0.477770</vAcc></extensions></trkpt>
      <trkpt lon="-3.029698" lat="52.721061"><ele>212.120880</ele><time>2022-01-15T12:40:39Z</time><extensions><speed>0.807088</speed><course>94.156265</course><hAcc>2.092399</hAcc><vAcc>0.488892</vAcc></extensions></trkpt>
      <trkpt lon="-3.029686" lat="52.721061"><ele>212.084320</ele><time>2022-01-15T12:40:40Z</time><extensions><speed>0.790280</speed><course>86.043472</course><hAcc>2.077436</hAcc><vAcc>0.498221</vAcc></extensions></trkpt>
      <trkpt lon="-3.029675" lat="52.721062"><ele>212.059464</ele><time>2022-01-15T12:40:41Z</time><extensions><speed>0.773605</speed><course>76.963196</course><hAcc>2.068283</hAcc><vAcc>0.505690</vAcc></extensions></trkpt>
      <trkpt lon="-3.029664" lat="52.721064"><ele>212.043213</ele><time>2022-01-15T12:40:42Z</time><extensions><speed>0.772421</speed><course>67.255714</course><hAcc>2.062691</hAcc><vAcc>0.511592</vAcc></extensions></trkpt>
      <trkpt lon="-3.029653" lat="52.721068"><ele>212.033600</ele><time>2022-01-15T12:40:43Z</time><extensions><speed>0.813727</speed><course>57.348709</course><hAcc>2.056882</hAcc><vAcc>0.516390</vAcc></extensions></trkpt>
      <trkpt lon="-3.029643" lat="52.721072"><ele>212.026596</ele><time>2022-01-15T12:40:44Z</time><extensions><speed>0.947894</speed><course>49.971165</course><hAcc>2.045397</hAcc><vAcc>0.520533</vAcc></extensions></trkpt>
      <trkpt lon="-3.029632" lat="52.721078"><ele>212.024689</ele><time>2022-01-15T12:40:45Z</time><extensions><speed>1.008936</speed><course>45.620068</course><hAcc>2.027648</hAcc><vAcc>0.524335</vAcc></extensions></trkpt>
      <trkpt lon="-3.029621" lat="52.721085"><ele>212.027939</ele><time>2022-01-15T12:40:46Z</time><extensions><speed>1.032039</speed><course>44.742676</course><hAcc>2.018638</hAcc><vAcc>0.527960</vAcc></extensions></trkpt>
      <trkpt lon="-3.029609" lat="52.721092"><ele>212.034988</ele><time>2022-01-15T12:40:47Z</time><extensions><speed>1.072470</speed><course>47.503960</course><hAcc>2.016569</hAcc><vAcc>0.531406</vAcc></extensions></trkpt>
      <trkpt lon="-3.029597" lat="52.721098"><ele>212.049164</ele><time>2022-01-15T12:40:48Z</time><extensions><speed>1.071437</speed><course>49.500320</course><hAcc>1.990862</hAcc><vAcc>0.534621</vAcc></extensions></trkpt>
      <trkpt lon="-3.029585" lat="52.721104"><ele>212.074234</ele><time>2022-01-15T12:40:49Z</time><extensions><speed>0.999749</speed><course>49.883030</course><hAcc>1.948183</hAcc><vAcc>0.537641</vAcc></extensions></trkpt>
      <trkpt lon="-3.029574" lat="52.721110"><ele>212.113174</ele><time>2022-01-15T12:40:50Z</time><extensions><speed>0.905605</speed><course>48.097446</course><hAcc>1.916874</hAcc><vAcc>0.540670</vAcc></extensions></trkpt>
      <trkpt lon="-3.029565" lat="52.721115"><ele>212.154007</ele><time>2022-01-15T12:40:51Z</time><extensions><speed>0.727429</speed><course>46.545242</course><hAcc>1.925216</hAcc><vAcc>0.544089</vAcc></extensions></trkpt>
      <trkpt lon="-3.029559" lat="52.721119"><ele>212.200119</ele><time>2022-01-15T12:40:52Z</time><extensions><speed>0.454752</speed><course>46.490654</course><hAcc>1.969335</hAcc><vAcc>0.548406</vAcc></extensions></trkpt>
      <trkpt lon="-3.029554" lat="52.721121"><ele>212.250916</ele><time>2022-01-15T12:40:53Z</time><extensions><speed>0.445303</speed><course>51.900665</course><hAcc>1.980567</hAcc><vAcc>0.554099</vAcc></extensions></trkpt>
      <trkpt lon="-3.029547" lat="52.721124"><ele>212.308807</ele><time>2022-01-15T12:40:54Z</time><extensions><speed>0.630604</speed><course>59.489983</course><hAcc>1.959673</hAcc><vAcc>0.561442</vAcc></extensions></trkpt>
      <trkpt lon="-3.029536" lat="52.721128"><ele>212.379059</ele><time>2022-01-15T12:40:55Z</time><extensions><speed>1.132023</speed><course>64.099098</course><hAcc>1.907652</hAcc><vAcc>0.570286</vAcc></extensions></trkpt>
      <trkpt lon="-3.029519" lat="52.721133"><ele>212.442444</ele><time>2022-01-15T12:40:56Z</time><extensions><speed>1.339105</speed><course>65.665108</course><hAcc>1.900824</hAcc><vAcc>0.580175</vAcc></extensions></trkpt>
      <trkpt lon="-3.029501" lat="52.721138"><ele>212.514587</ele><time>2022-01-15T12:40:57Z</time><extensions><speed>1.415814</speed><course>64.437622</course><hAcc>1.917554</hAcc><vAcc>0.590524</vAcc></extensions></trkpt>
      <trkpt lon="-3.029482" lat="52.721144"><ele>212.588760</ele><time>2022-01-15T12:40:58Z</time><extensions><speed>1.436329</speed><course>61.438072</course><hAcc>1.930545</hAcc><vAcc>0.600766</vAcc></extensions></trkpt>
      <trkpt lon="-3.029464" lat="52.721150"><ele>212.663208</ele><time>2022-01-15T12:40:59Z</time><extensions><speed>1.375622</speed><course>56.506973</course><hAcc>1.937307</hAcc><vAcc>0.610322</vAcc></extensions></trkpt>
      <trkpt lon="-3.029448" lat="52.721157"><ele>212.736237</ele><time>2022-01-15T12:41:00Z</time><extensions><speed>1.258756</speed><course>50.798672</course><hAcc>1.939406</hAcc><vAcc>0.618655</vAcc></extensions></trkpt>
      <trkpt lon="-3.029435" lat="52.721164"><ele>212.816940</ele><time>2022-01-15T12:41:01Z</time><extensions><speed>1.102923</speed><course>45.688831</course><hAcc>1.938260</hAcc><vAcc>0.625406</vAcc></extensions></trkpt>
      <trkpt lon="-3.029424" lat="52.721171"><ele>212.879395</ele><time>2022-01-15T12:41:02Z</time><extensions><speed>1.029716</speed><course>44.682552</course><hAcc>1.931121</hAcc><vAcc>0.630374</vAcc></extensions></trkpt>
      <trkpt lon="-3.029413" lat="52.721177"><ele>212.946930</ele><time>2022-01-15T12:41:03Z</time><extensions><speed>0.985872</speed><course>46.299362</course><hAcc>1.936560</hAcc><vAcc>0.633616</vAcc></extensions></trkpt>
      <trkpt lon="-3.029403" lat="52.721183"><ele>213.023163</ele><time>2022-01-15T12:41:04Z</time><extensions><speed>0.809934</speed><course>48.062984</course><hAcc>1.944815</hAcc><vAcc>0.635379</vAcc></extensions></trkpt>
      <trkpt lon="-3.029394" lat="52.721188"><ele>213.093857</ele><time>2022-01-15T12:41:05Z</time><extensions><speed>0.891940</speed><course>51.714985</course><hAcc>1.946291</hAcc><vAcc>0.636159</vAcc></extensions></trkpt>
      <trkpt lon="-3.029382" lat="52.721193"><ele>213.166321</ele><time>2022-01-15T12:41:06Z</time><extensions><speed>1.123041</speed><course>55.594448</course><hAcc>1.945371</hAcc><vAcc>0.636602</vAcc></extensions></trkpt>
      <trkpt lon="-3.029366" lat="52.721199"><ele>213.236649</ele><time>2022-01-15T12:41:07Z</time><extensions><speed>1.282232</speed><course>61.370968</course><hAcc>1.951928</hAcc><vAcc>0.637322</vAcc></extensions></trkpt>
      <trkpt lon="-3.029349" lat="52.721204"><ele>213.302002</ele><time>2022-01-15T12:41:08Z</time><extensions><speed>1.371866</speed><course>66.358612</course><hAcc>1.958982</hAcc><vAcc>0.638740</vAcc></extensions></trkpt>
      <trkpt lon="-3.029330" lat="52.721209"><ele>213.360809</ele><time>2022-01-15T12:41:09Z</time><extensions><speed>1.432853</speed><course>68.851288</course><hAcc>1.953777</hAcc><vAcc>0.641074</vAcc></extensions></trkpt>
      <trkpt lon="-3.029310" lat="52.721213"><ele>213.414200</ele><time>2022-01-15T12:41:10Z</time><extensions><speed>1.401515</speed><course>70.592110</course><hAcc>1.936810</hAcc><vAcc>0.644373</vAcc></extensions></trkpt>
      <trkpt lon="-3.029291" lat="52.721217"><ele>213.458130</ele><time>2022-01-15T12:41:11Z</time><extensions><speed>1.290596</speed><course>70.943146</course><hAcc>1.922105</hAcc><vAcc>0.648660</vAcc></extensions></trkpt>
      <trkpt lon="-3.029274" lat="52.721221"><ele>213.496414</ele><time>2022-01-15T12:41:12Z</time><extensions><speed>1.143082</speed><course>70.807106</course><hAcc>1.914920</hAcc><vAcc>0.653832</vAcc></extensions></trkpt>
      <trkpt lon="-3.029259" lat="52.721224"><ele>213.523697</ele><time>2022-01-15T12:41:13Z</time><extensions><speed>1.021410</speed><course>71.097443</course><hAcc>1.915822</hAcc><vAcc>0.659740</vAcc></extensions></trkpt>
      <trkpt lon="-3.029245" lat="52.721227"><ele>213.545288</ele><time>2022-01-15T12:41:14Z</time><extensions><speed>0.931752</speed><course>72.546761</course><hAcc>1.906637</hAcc><vAcc>0.666070</vAcc></extensions></trkpt>
      <trkpt lon="-3.029232" lat="52.721229"><ele>213.556244</ele><time>2022-01-15T12:41:15Z</time><extensions><speed>0.980932</speed><course>73.501472</course><hAcc>1.874541</hAcc><vAcc>0.672385</vAcc></extensions></trkpt>
      <trkpt lon="-3.029217" lat="52.721232"><ele>213.556595</ele><time>2022-01-15T12:41:16Z</time><extensions><speed>1.094449</speed><course>73.174522</course><hAcc>1.865788</hAcc><vAcc>0.678293</vAcc></extensions></trkpt>
      <trkpt lon="-3.029200" lat="52.721235"><ele>213.559570</ele><time>2022-01-15T12:41:17Z</time><extensions><speed>1.216778</speed><course>73.118591</course><hAcc>1.875665</hAcc><vAcc>0.683435</vAcc></extensions></trkpt>
      <trkpt lon="-3.029182" lat="52.721238"><ele>213.551956</ele><time>2022-01-15T12:41:18Z</time><extensions><speed>1.328527</speed><course>75.293739</course><hAcc>1.876893</hAcc><vAcc>0.687630</vAcc></extensions></trkpt>
      <trkpt lon="-3.029163" lat="52.721241"><ele>213.543671</ele><time>2022-01-15T12:41:19Z</time><extensions><speed>1.408929</speed><course>78.343460</course><hAcc>1.879563</hAcc><vAcc>0.690884</vAcc></extensions></trkpt>
      <trkpt lon="-3.029141" lat="52.721243"><ele>213.538513</ele><time>2022-01-15T12:41:20Z</time><extensions><speed>1.488378</speed><course>80.754364</course><hAcc>1.881519</hAcc><vAcc>0.693289</vAcc></extensions></trkpt>
      <trkpt lon="-3.029119" lat="52.721245"><ele>213.538589</ele><time>2022-01-15T12:41:21Z</time><extensions><speed>1.535180</speed><course>82.948967</course><hAcc>1.886401</hAcc><vAcc>0.695036</vAcc></extensions></trkpt>
      <trkpt lon="-3.029097" lat="52.721247"><ele>213.530746</ele><time>2022-01-15T12:41:22Z</time><extensions><speed>1.550525</speed><course>83.686569</course><hAcc>1.887029</hAcc><vAcc>0.696374</vAcc></extensions></trkpt>
      <trkpt lon="-3.029074" lat="52.721248"><ele>213.526352</ele><time>2022-01-15T12:41:23Z</time><extensions><speed>1.494890</speed><course>85.109299</course><hAcc>1.885082</hAcc><vAcc>0.697570</vAcc></extensions></trkpt>
      <trkpt lon="-3.029052" lat="52.721249"><ele>213.524582</ele><time>2022-01-15T12:41:24Z</time><extensions><speed>1.446866</speed><course>86.908783</course><hAcc>1.878682</hAcc><vAcc>0.698917</vAcc></extensions></trkpt>
      <trkpt lon="-3.029031" lat="52.721249"><ele>213.513443</ele><time>2022-01-15T12:41:25Z</time><extensions><speed>1.434122</speed><course>88.649216</course><hAcc>1.868260</hAcc><vAcc>0.700582</vAcc></extensions></trkpt>
      <trkpt lon="-3.029010" lat="52.721250"><ele>213.524017</ele><time>2022-01-15T12:41:26Z</time><extensions><speed>1.375698</speed><course>90.453934</course><hAcc>1.860668</hAcc><vAcc>0.702663</vAcc></extensions></trkpt>
      <trkpt lon="-3.028990" lat="52.721249"><ele>213.552414</ele><time>2022-01-15T12:41:27Z</time><extensions><speed>1.338124</speed><course>92.096939</course><hAcc>1.840559</hAcc><vAcc>0.705188</vAcc></extensions></trkpt>
      <trkpt lon="-3.028970" lat="52.721248"><ele>213.579666</ele><time>2022-01-15T12:41:28Z</time><extensions><speed>1.346989</speed><course>95.518814</course><hAcc>1.809045</hAcc><vAcc>0.708141</vAcc></extensions></trkpt>
      <trkpt lon="-3.028950" lat="52.721247"><ele>213.612976</ele><time>2022-01-15T12:41:29Z</time><extensions><speed>1.316664</speed><course>95.321724</course><hAcc>1.806481</hAcc><vAcc>0.711453</vAcc></extensions></trkpt>
      <trkpt lon="-3.028931" lat="52.721246"><ele>213.646790</ele><time>2022-01-15T12:41:30Z</time><extensions><speed>1.272526</speed><course>95.942741</course><hAcc>1.801395</hAcc><vAcc>0.714965</vAcc></extensions></trkpt>
      <trkpt lon="-3.028912" lat="52.721245"><ele>213.693787</ele><time>2022-01-15T12:41:31Z</time><extensions><speed>1.292941</speed><course>96.071999</course><hAcc>1.778372</hAcc><vAcc>0.718536</vAcc></extensions></trkpt>
      <trkpt lon="-3.028893" lat="52.721243"><ele>213.778748</ele><time>2022-01-15T12:41:32Z</time><extensions><speed>1.286730</speed><course>95.927681</course><hAcc>1.783623</hAcc><vAcc>0.722005</vAcc></extensions></trkpt>
      <trkpt lon="-3.028874" lat="52.721242"><ele>213.885529</ele><time>2022-01-15T12:41:33Z</time><extensions><speed>1.332603</speed><course>97.574287</course><hAcc>1.772227</hAcc><vAcc>0.725364</vAcc></extensions></trkpt>
      <trkpt lon="-3.028854" lat="52.721240"><ele>214.010223</ele><time>2022-01-15T12:41:34Z</time><extensions><speed>1.352322</speed><course>99.544617</course><hAcc>1.776874</hAcc><vAcc>0.728512</vAcc></extensions></trkpt>
      <trkpt lon="-3.028835" lat="52.721238"><ele>214.124237</ele><time>2022-01-15T12:41:35Z</time><extensions><speed>1.289476</speed><course>101.766838</course><hAcc>1.812507</hAcc><vAcc>0.731409</vAcc></extensions></trkpt>
      <trkpt lon="-3.028817" lat="52.721235"><ele>214.240021</ele><time>2022-01-15T12:41:36Z</time><extensions><speed>1.219247</speed><course>111.052917</course><hAcc>1.805659</hAcc><vAcc>0.734018</vAcc></extensions></trkpt>
      <trkpt lon="-3.028802" lat="52.721230"><ele>214.351273</ele><time>2022-01-15T12:41:37Z</time><extensions><speed>1.122987</speed><course>119.015404</course><hAcc>1.808423</hAcc><vAcc>0.736332</vAcc></extensions></trkpt>
      <trkpt lon="-3.028788" lat="52.721226"><ele>214.473038</ele><time>2022-01-15T12:41:38Z</time><extensions><speed>0.977295</speed><course>124.006256</course><hAcc>1.820162</hAcc><vAcc>0.738352</vAcc></extensions></trkpt>
      <trkpt lon="-3.028777" lat="52.721221"><ele>214.581711</ele><time>2022-01-15T12:41:39Z</time><extensions><speed>0.828299</speed><course>122.947395</course><hAcc>1.830540</hAcc><vAcc>0.740054</vAcc></extensions></trkpt>
      <trkpt lon="-3.028767" lat="52.721218"><ele>214.688446</ele><time>2022-01-15T12:41:40Z</time><extensions><speed>0.698999</speed><course>111.963913</course><hAcc>1.833454</hAcc><vAcc>0.741391</vAcc></extensions></trkpt>
      <trkpt lon="-3.028757" lat="52.721216"><ele>214.784546</ele><time>2022-01-15T12:41:41Z</time><extensions><speed>0.700224</speed><course>95.730560</course><hAcc>1.840406</hAcc><vAcc>0.742321</vAcc></extensions></trkpt>
      <trkpt lon="-3.028745" lat="52.721216"><ele>214.875458</ele><time>2022-01-15T12:41:42Z</time><extensions><speed>1.017719</speed><course>87.546982</course><hAcc>1.839738</hAcc><vAcc>0.742785</vAcc></extensions></trkpt>
      <trkpt lon="-3.028728" lat="52.721217"><ele>214.953964</ele><time>2022-01-15T12:41:43Z</time><extensions><speed>1.182353</speed><course>88.414291</course><hAcc>1.841577</hAcc><vAcc>0.742810</vAcc></extensions></trkpt>
      <trkpt lon="-3.028711" lat="52.721218"><ele>215.023407</ele><time>2022-01-15T12:41:44Z</time><extensions><speed>1.205717</speed><course>83.259521</course><hAcc>1.842320</hAcc><vAcc>0.742368</vAcc></extensions></trkpt>
      <trkpt lon="-3.028693" lat="52.721219"><ele>215.066467</ele><time>2022-01-15T12:41:45Z</time><extensions><speed>1.183210</speed><course>77.093338</course><hAcc>1.839986</hAcc><vAcc>0.741463</vAcc></extensions></trkpt>
      <trkpt lon="-3.028677" lat="52.721222"><ele>215.098083</ele><time>2022-01-15T12:41:46Z</time><extensions><speed>1.125074</speed><course>73.180000</course><hAcc>1.840214</hAcc><vAcc>0.740290</vAcc></extensions></trkpt>
      <trkpt lon="-3.028662" lat="52.721225"><ele>215.107849</ele><time>2022-01-15T12:41:47Z</time><extensions><speed>1.058592</speed><course>70.771561</course><hAcc>1.839593</hAcc><vAcc>0.738866</vAcc></extensions></trkpt>
      <trkpt lon="-3.028647" lat="52.721228"><ele>215.109955</ele><time>2022-01-15T12:41:48Z</time><extensions><speed>1.044304</speed><course>67.059692</course><hAcc>1.840747</hAcc><vAcc>0.737185</vAcc></extensions></trkpt>
      <trkpt lon="-3.028633" lat="52.721232"><ele>215.103714</ele><time>2022-01-15T12:41:49Z</time><extensions><speed>1.062417</speed><course>62.205727</course><hAcc>1.848753</hAcc><vAcc>0.735330</vAcc></extensions></trkpt>
      <trkpt lon="-3.028619" lat="52.721237"><ele>215.087570</ele><time>2022-01-15T12:41:50Z</time><extensions><speed>1.078221</speed><course>59.398384</course><hAcc>1.857537</hAcc><vAcc>0.733329</vAcc></extensions></trkpt>
      <trkpt lon="-3.028605" lat="52.721242"><ele>215.077499</ele><time>2022-01-15T12:41:51Z</time><extensions><speed>1.116646</speed><course>61.172188</course><hAcc>1.858009</hAcc><vAcc>0.731256</vAcc></extensions></trkpt>
      <trkpt lon="-3.028590" lat="52.721247"><ele>215.052765</ele><time>2022-01-15T12:41:52Z</time><extensions><speed>1.105448</speed><course>64.405396</course><hAcc>1.857190</hAcc><vAcc>0.729185</vAcc></extensions></trkpt>
      <trkpt lon="-3.028576" lat="52.721251"><ele>215.022446</ele><time>2022-01-15T12:41:53Z</time><extensions><speed>1.066708</speed><course>68.959923</course><hAcc>1.856518</hAcc><vAcc>0.727183</vAcc></extensions></trkpt>
      <trkpt lon="-3.028561" lat="52.721254"><ele>214.987823</ele><time>2022-01-15T12:41:54Z</time><extensions><speed>1.015708</speed><course>74.258400</course><hAcc>1.852538</hAcc><vAcc>0.725341</vAcc></extensions></trkpt>
      <trkpt lon="-3.028546" lat="52.721256"><ele>214.961151</ele><time>2022-01-15T12:41:55Z</time><extensions><speed>1.051116</speed><course>77.964592</course><hAcc>1.849271</hAcc><vAcc>0.723756</vAcc></extensions></trkpt>
      <trkpt lon="-3.028530" lat="52.721258"><ele>214.935532</ele><time>2022-01-15T12:41:56Z</time><extensions><speed>1.108279</speed><course>79.643547</course><hAcc>1.857545</hAcc><vAcc>0.722458</vAcc></extensions></trkpt>
      <trkpt lon="-3.028514" lat="52.721260"><ele>214.905655</ele><time>2022-01-15T12:41:57Z</time><extensions><speed>1.161511</speed><course>79.255638</course><hAcc>1.859857</hAcc><vAcc>0.721438</vAcc></extensions></trkpt>
      <trkpt lon="-3.028497" lat="52.721262"><ele>214.880524</ele><time>2022-01-15T12:41:58Z</time><extensions><speed>1.155187</speed><course>79.073677</course><hAcc>1.839023</hAcc><vAcc>0.720693</vAcc></extensions></trkpt>
      <trkpt lon="-3.028481" lat="52.721263"><ele>214.860184</ele><time>2022-01-15T12:41:59Z</time><extensions><speed>1.104797</speed><course>78.812637</course><hAcc>1.830545</hAcc><vAcc>0.720219</vAcc></extensions></trkpt>
      <trkpt lon="-3.028464" lat="52.721266"><ele>214.846725</ele><time>2022-01-15T12:42:00Z</time><extensions><speed>1.137937</speed><course>76.424927</course><hAcc>1.829665</hAcc><vAcc>0.719993</vAcc></extensions></trkpt>
      <trkpt lon="-3.028448" lat="52.721268"><ele>214.841049</ele><time>2022-01-15T12:42:01Z</time><extensions><speed>1.187918</speed><course>72.654381</course><hAcc>1.828437</hAcc><vAcc>0.720051</vAcc></extensions></trkpt>
      <trkpt lon="-3.028431" lat="52.721272"><ele>214.843674</ele><time>2022-01-15T12:42:02Z</time><extensions><speed>1.210613</speed><course>68.474655</course><hAcc>1.815050</hAcc><vAcc>0.720385</vAcc></extensions></trkpt>
      <trkpt lon="-3.028414" lat="52.721276"><ele>214.844421</ele><time>2022-01-15T12:42:03Z</time><extensions><speed>1.252163</speed><course>65.852631</course><hAcc>1.805539</hAcc><vAcc>0.721017</vAcc></extensions></trkpt>
      <trkpt lon="-3.028397" lat="52.721281"><ele>214.856995</ele><time>2022-01-15T12:42:04Z</time><extensions><speed>1.237140</speed><course>64.054146</course><hAcc>1.788121</hAcc><vAcc>0.721925</vAcc></extensions></trkpt>
      <trkpt lon="-3.028381" lat="52.721286"><ele>214.870041</ele><time>2022-01-15T12:42:05Z</time><extensions><speed>1.208194</speed><course>64.589630</course><hAcc>1.774520</hAcc><vAcc>0.723068</vAcc></extensions></trkpt>
      <trkpt lon="-3.028364" lat="52.721290"><ele>214.881851</ele><time>2022-01-15T12:42:06Z</time><extensions><speed>1.195530</speed><course>69.808815</course><hAcc>1.774451</hAcc><vAcc>0.724444</vAcc></extensions></trkpt>
      <trkpt lon="-3.028348" lat="52.721293"><ele>214.902863</ele><time>2022-01-15T12:42:07Z</time><extensions><speed>1.135724</speed><course>75.987122</course><hAcc>1.797850</hAcc><vAcc>0.726007</vAcc></extensions></trkpt>
      <trkpt lon="-3.028332" lat="52.721295"><ele>214.937042</ele><time>2022-01-15T12:42:08Z</time><extensions><speed>1.128265</speed><course>81.132072</course><hAcc>1.793697</hAcc><vAcc>0.727714</vAcc></extensions></trkpt>
      <trkpt lon="-3.028314" lat="52.721296"><ele>214.974945</ele><time>2022-01-15T12:42:09Z</time><extensions><speed>1.219252</speed><course>85.760017</course><hAcc>1.762856</hAcc><vAcc>0.729502</vAcc></extensions></trkpt>
      <trkpt lon="-3.028296" lat="52.721297"><ele>215.010498</ele><time>2022-01-15T12:42:10Z</time><extensions><speed>1.259108</speed><course>87.653854</course><hAcc>1.762695</hAcc><vAcc>0.731347</vAcc></extensions></trkpt>
      <trkpt lon="-3.028277" lat="52.721297"><ele>215.047348</ele><time>2022-01-15T12:42:11Z</time><extensions><speed>1.309243</speed><course>87.024750</course><hAcc>1.779280</hAcc><vAcc>0.733184</vAcc></extensions></trkpt>
      <trkpt lon="-3.028258" lat="52.721298"><ele>215.082001</ele><time>2022-01-15T12:42:12Z</time><extensions><speed>1.279110</speed><course>86.717987</course><hAcc>1.785647</hAcc><vAcc>0.734963</vAcc></extensions></trkpt>
      <trkpt lon="-3.028239" lat="52.721299"><ele>215.119827</ele><time>2022-01-15T12:42:13Z</time><extensions><speed>1.211263</speed><course>86.012886</course><hAcc>1.797560</hAcc><vAcc>0.736664</vAcc></extensions></trkpt>
      <trkpt lon="-3.028222" lat="52.721299"><ele>215.160965</ele><time>2022-01-15T12:42:14Z</time><extensions><speed>1.171049</speed><course>87.476166</course><hAcc>1.783802</hAcc><vAcc>0.738292</vAcc></extensions></trkpt>
      <trkpt lon="-3.028204" lat="52.721299"><ele>215.191025</ele><time>2022-01-15T12:42:15Z</time><extensions><speed>1.143512</speed><course>90.015236</course><hAcc>1.773545</hAcc><vAcc>0.739848</vAcc></extensions></trkpt>
      <trkpt lon="-3.028187" lat="52.721299"><ele>215.224609</ele><time>2022-01-15T12:42:16Z</time><extensions><speed>1.153143</speed><course>92.028358</course><hAcc>1.783976</hAcc><vAcc>0.741356</vAcc></extensions></trkpt>
      <trkpt lon="-3.028170" lat="52.721299"><ele>215.252869</ele><time>2022-01-15T12:42:17Z</time><extensions><speed>1.150457</speed><course>93.222809</course><hAcc>1.800055</hAcc><vAcc>0.742854</vAcc></extensions></trkpt>
      <trkpt lon="-3.028153" lat="52.721298"><ele>215.284836</ele><time>2022-01-15T12:42:18Z</time><extensions><speed>1.233378</speed><course>93.952927</course><hAcc>1.787279</hAcc><vAcc>0.744356</vAcc></extensions></trkpt>
      <trkpt lon="-3.028134" lat="52.721297"><ele>215.306854</ele><time>2022-01-15T12:42:19Z</time><extensions><speed>1.325925</speed><course>92.055710</course><hAcc>1.781671</hAcc><vAcc>0.745898</vAcc></extensions></trkpt>
      <trkpt lon="-3.028114" lat="52.721297"><ele>215.333038</ele><time>2022-01-15T12:42:20Z</time><extensions><speed>1.358070</speed><course>89.661072</course><hAcc>1.789299</hAcc><vAcc>0.747510</vAcc></extensions></trkpt>
      <trkpt lon="-3.028094" lat="52.721297"><ele>215.353607</ele><time>2022-01-15T12:42:21Z</time><extensions><speed>1.334419</speed><course>89.159477</course><hAcc>1.764972</hAcc><vAcc>0.749191</vAcc></extensions></trkpt>
      <trkpt lon="-3.028074" lat="52.721297"><ele>215.370697</ele><time>2022-01-15T12:42:22Z</time><extensions><speed>1.318689</speed><course>90.560814</course><hAcc>1.752288</hAcc><vAcc>0.750950</vAcc></extensions></trkpt>
      <trkpt lon="-3.028055" lat="52.721297"><ele>215.389359</ele><time>2022-01-15T12:42:23Z</time><extensions><speed>1.318954</speed><course>92.586555</course><hAcc>1.762203</hAcc><vAcc>0.752730</vAcc></extensions></trkpt>
      <trkpt lon="-3.028035" lat="52.721296"><ele>215.399902</ele><time>2022-01-15T12:42:24Z</time><extensions><speed>1.326619</speed><course>94.809395</course><hAcc>1.783240</hAcc><vAcc>0.754453</vAcc></extensions></trkpt>
      <trkpt lon="-3.028016" lat="52.721295"><ele>215.419250</ele><time>2022-01-15T12:42:25Z</time><extensions><speed>1.355567</speed><course>97.397697</course><hAcc>1.794596</hAcc><vAcc>0.756115</vAcc></extensions></trkpt>
      <trkpt lon="-3.027996" lat="52.721293"><ele>215.443237</ele><time>2022-01-15T12:42:26Z</time><extensions><speed>1.349014</speed><course>100.918335</course><hAcc>1.768537</hAcc><vAcc>0.757670</vAcc></extensions></trkpt>
      <trkpt lon="-3.027976" lat="52.721291"><ele>215.462509</ele><time>2022-01-15T12:42:27Z</time><extensions><speed>1.329298</speed><course>103.077621</course><hAcc>1.760399</hAcc><vAcc>0.759047</vAcc></extensions></trkpt>
      <trkpt lon="-3.027958" lat="52.721288"><ele>215.474304</ele><time>2022-01-15T12:42:28Z</time><extensions><speed>1.274507</speed><course>104.289536</course><hAcc>1.766056</hAcc><vAcc>0.760232</vAcc></extensions></trkpt>
      <trkpt lon="-3.027940" lat="52.721285"><ele>215.491150</ele><time>2022-01-15T12:42:29Z</time><extensions><speed>1.148144</speed><course>104.877525</course><hAcc>1.785826</hAcc><vAcc>0.761221</vAcc></extensions></trkpt>
      <trkpt lon="-3.027925" lat="52.721283"><ele>215.510147</ele><time>2022-01-15T12:42:30Z</time><extensions><speed>0.944165</speed><course>104.220596</course><hAcc>1.794363</hAcc><vAcc>0.762018</vAcc></extensions></trkpt>
      <trkpt lon="-3.027913" lat="52.721281"><ele>215.529236</ele><time>2022-01-15T12:42:31Z</time><extensions><speed>0.715779</speed><course>102.305923</course><hAcc>1.808600</hAcc><vAcc>0.762632</vAcc></extensions></trkpt>
      <trkpt lon="-3.027904" lat="52.721280"><ele>215.555725</ele><time>2022-01-15T12:42:32Z</time><extensions><speed>0.606437</speed><course>102.102509</course><hAcc>1.798586</hAcc><vAcc>0.763062</vAcc></extensions></trkpt>
      <trkpt lon="-3.027895" lat="52.721279"><ele>215.588394</ele><time>2022-01-15T12:42:33Z</time><extensions><speed>0.547419</speed><course>101.943184</course><hAcc>1.803203</hAcc><vAcc>0.763339</vAcc></extensions></trkpt>
      <trkpt lon="-3.027886" lat="52.721277"><ele>215.623444</ele><time>2022-01-15T12:42:34Z</time><extensions><speed>0.741112</speed><course>102.625465</course><hAcc>1.812305</hAcc><vAcc>0.763476</vAcc></extensions></trkpt>
      <trkpt lon="-3.027875" lat="52.721276"><ele>215.657562</ele><time>2022-01-15T12:42:35Z</time><extensions><speed>0.856391</speed><course>102.292786</course><hAcc>1.821217</hAcc><vAcc>0.763536</vAcc></extensions></trkpt>
      <trkpt lon="-3.027861" lat="52.721274"><ele>215.701584</ele><time>2022-01-15T12:42:36Z</time><extensions><speed>0.997238</speed><course>103.809868</course><hAcc>1.825227</hAcc><vAcc>0.763608</vAcc></extensions></trkpt>
      <trkpt lon="-3.027845" lat="52.721271"><ele>215.741348</ele><time>2022-01-15T12:42:37Z</time><extensions><speed>1.201248</speed><course>106.113991</course><hAcc>1.824891</hAcc><vAcc>0.763736</vAcc></extensions></trkpt>
      <trkpt lon="-3.027828" lat="52.721268"><ele>215.794418</ele><time>2022-01-15T12:42:38Z</time><extensions><speed>1.312149</speed><course>110.526054</course><hAcc>1.820782</hAcc><vAcc>0.763945</vAcc></extensions></trkpt>
      <trkpt lon="-3.027810" lat="52.721263"><ele>215.850510</ele><time>2022-01-15T12:42:39Z</time><extensions><speed>1.330428</speed><course>116.877907</course><hAcc>1.814165</hAcc><vAcc>0.764229</vAcc></extensions></trkpt>
      <trkpt lon="-3.027793" lat="52.721257"><ele>215.908600</ele><time>2022-01-15T12:42:40Z</time><extensions><speed>1.319085</speed><course>122.498596</course><hAcc>1.805968</hAcc><vAcc>0.764569</vAcc></extensions></trkpt>
      <trkpt lon="-3.027777" lat="52.721251"><ele>215.965622</ele><time>2022-01-15T12:42:41Z</time><extensions><speed>1.305992</speed><course>124.518585</course><hAcc>1.799070</hAcc><vAcc>0.764948</vAcc></extensions></trkpt>
      <trkpt lon="-3.027761" lat="52.721244"><ele>216.032379</ele><time>2022-01-15T12:42:42Z</time><extensions><speed>1.288789</speed><course>121.948654</course><hAcc>1.796241</hAcc><vAcc>0.765352</vAcc></extensions></trkpt>
      <trkpt lon="-3.027744" lat="52.721238"><ele>216.104675</ele><time>2022-01-15T12:42:43Z</time><extensions><speed>1.277530</speed><course>117.259193</course><hAcc>1.788541</hAcc><vAcc>0.765784</vAcc></extensions></trkpt>
      <trkpt lon="-3.027727" lat="52.721233"><ele>216.178558</ele><time>2022-01-15T12:42:44Z</time><extensions><speed>1.320111</speed><course>114.844437</course><hAcc>1.776347</hAcc><vAcc>0.766221</vAcc></extensions></trkpt>
      <trkpt lon="-3.027709" lat="52.721228"><ele>216.251419</ele><time>2022-01-15T12:42:45Z</time><extensions><speed>1.381065</speed><course>112.859169</course><hAcc>1.768412</hAcc><vAcc>0.766684</vAcc></extensions></trkpt>
      <trkpt lon="-3.027690" lat="52.721224"><ele>216.327530</ele><time>2022-01-15T12:42:46Z</time><extensions><speed>1.396628</speed><course>111.204575</course><hAcc>1.765533</hAcc><vAcc>0.767155</vAcc></extensions></trkpt>
      <trkpt lon="-3.027670" lat="52.721219"><ele>216.387085</ele><time>2022-01-15T12:42:47Z</time><extensions><speed>1.414119</speed><course>110.127899</course><hAcc>1.766780</hAcc><vAcc>0.767621</vAcc></extensions></trkpt>
      <trkpt lon="-3.027650" lat="52.721215"><ele>216.452637</ele><time>2022-01-15T12:42:48Z</time><extensions><speed>1.398338</speed><course>108.968590</course><hAcc>1.770126</hAcc><vAcc>0.768106</vAcc></extensions></trkpt>
      <trkpt lon="-3.027631" lat="52.721211"><ele>216.481979</ele><time>2022-01-15T12:42:49Z</time><extensions><speed>1.435864</speed><course>107.841576</course><hAcc>1.777285</hAcc><vAcc>0.768616</vAcc></extensions></trkpt>
      <trkpt lon="-3.027610" lat="52.721207"><ele>216.500671</ele><time>2022-01-15T12:42:50Z</time><extensions><speed>1.427960</speed><course>108.568550</course><hAcc>1.760764</hAcc><vAcc>0.769195</vAcc></extensions></trkpt>
      <trkpt lon="-3.027591" lat="52.721203"><ele>216.523819</ele><time>2022-01-15T12:42:51Z</time><extensions><speed>1.413667</speed><course>109.497665</course><hAcc>1.757716</hAcc><vAcc>0.769780</vAcc></extensions></trkpt>
      <trkpt lon="-3.027571" lat="52.721199"><ele>216.551620</ele><time>2022-01-15T12:42:52Z</time><extensions><speed>1.388532</speed><course>109.747612</course><hAcc>1.760567</hAcc><vAcc>0.770383</vAcc></extensions></trkpt>
      <trkpt lon="-3.027552" lat="52.721194"><ele>216.556046</ele><time>2022-01-15T12:42:53Z</time><extensions><speed>1.399306</speed><course>110.508476</course><hAcc>1.762747</hAcc><vAcc>0.771022</vAcc></extensions></trkpt>
      <trkpt lon="-3.027532" lat="52.721190"><ele>216.578903</ele><time>2022-01-15T12:42:54Z</time><extensions><speed>1.406861</speed><course>111.350243</course><hAcc>1.767241</hAcc><vAcc>0.771649</vAcc></extensions></trkpt>
      <trkpt lon="-3.027513" lat="52.721185"><ele>216.594818</ele><time>2022-01-15T12:42:55Z</time><extensions><speed>1.429965</speed><course>111.478493</course><hAcc>1.777162</hAcc><vAcc>0.772228</vAcc></extensions></trkpt>
      <trkpt lon="-3.027493" lat="52.721180"><ele>216.601242</ele><time>2022-01-15T12:42:56Z</time><extensions><speed>1.429988</speed><course>111.215836</course><hAcc>1.779567</hAcc><vAcc>0.772771</vAcc></extensions></trkpt>
      <trkpt lon="-3.027473" lat="52.721176"><ele>216.606110</ele><time>2022-01-15T12:42:57Z</time><extensions><speed>1.382742</speed><course>111.061440</course><hAcc>1.755538</hAcc><vAcc>0.773304</vAcc></extensions></trkpt>
      <trkpt lon="-3.027455" lat="52.721172"><ele>216.607712</ele><time>2022-01-15T12:42:58Z</time><extensions><speed>1.339184</speed><course>110.180832</course><hAcc>1.742984</hAcc><vAcc>0.773877</vAcc></extensions></trkpt>
      <trkpt lon="-3.027436" lat="52.721167"><ele>216.601837</ele><time>2022-01-15T12:42:59Z</time><extensions><speed>1.337651</speed><course>109.194931</course><hAcc>1.746621</hAcc><vAcc>0.774465</vAcc></extensions></trkpt>
      <trkpt lon="-3.027417" lat="52.721164"><ele>216.593155</ele><time>2022-01-15T12:43:00Z</time><extensions><speed>1.341536</speed><course>108.361000</course><hAcc>1.758247</hAcc><vAcc>0.775069</vAcc></extensions></trkpt>
      <trkpt lon="-3.027398" lat="52.721160"><ele>216.585297</ele><time>2022-01-15T12:43:01Z</time><extensions><speed>1.337455</speed><course>109.350334</course><hAcc>1.765181</hAcc><vAcc>0.775672</vAcc></extensions></trkpt>
      <trkpt lon="-3.027380" lat="52.721156"><ele>216.563873</ele><time>2022-01-15T12:43:02Z</time><extensions><speed>1.327282</speed><course>109.648621</course><hAcc>1.749161</hAcc><vAcc>0.776299</vAcc></extensions></trkpt>
      <trkpt lon="-3.027361" lat="52.721152"><ele>216.543915</ele><time>2022-01-15T12:43:03Z</time><extensions><speed>1.387184</speed><course>110.162735</course><hAcc>1.719449</hAcc><vAcc>0.776967</vAcc></extensions></trkpt>
      <trkpt lon="-3.027341" lat="52.721147"><ele>216.534790</ele><time>2022-01-15T12:43:04Z</time><extensions><speed>1.412338</speed><course>110.469482</course><hAcc>1.686831</hAcc><vAcc>0.777703</vAcc></extensions></trkpt>
      <trkpt lon="-3.027322" lat="52.721143"><ele>216.512070</ele><time>2022-01-15T12:43:05Z</time><extensions><speed>1.429310</speed><course>112.286362</course><hAcc>1.641228</hAcc><vAcc>0.778513</vAcc></extensions></trkpt>
      <trkpt lon="-3.027302" lat="52.721137"><ele>216.522095</ele><time>2022-01-15T12:43:06Z</time><extensions><speed>1.468006</speed><course>114.728455</course><hAcc>1.606135</hAcc><vAcc>0.779429</vAcc></extensions></trkpt>
      <trkpt lon="-3.027282" lat="52.721132"><ele>216.551010</ele><time>2022-01-15T12:43:07Z</time><extensions><speed>1.557159</speed><course>116.987679</course><hAcc>1.581266</hAcc><vAcc>0.780425</vAcc></extensions></trkpt>
      <trkpt lon="-3.027261" lat="52.721125"><ele>216.552841</ele><time>2022-01-15T12:43:08Z</time><extensions><speed>1.634821</speed><course>118.397934</course><hAcc>1.580502</hAcc><vAcc>0.781475</vAcc></extensions></trkpt>
      <trkpt lon="-3.027240" lat="52.721118"><ele>216.554794</ele><time>2022-01-15T12:43:09Z</time><extensions><speed>1.657054</speed><course>117.822449</course><hAcc>1.551174</hAcc><vAcc>0.782512</vAcc></extensions></trkpt>
      <trkpt lon="-3.027218" lat="52.721112"><ele>216.565201</ele><time>2022-01-15T12:43:10Z</time><extensions><speed>1.654549</speed><course>114.400810</course><hAcc>1.526583</hAcc><vAcc>0.783459</vAcc></extensions></trkpt>
      <trkpt lon="-3.027195" lat="52.721106"><ele>216.577286</ele><time>2022-01-15T12:43:11Z</time><extensions><speed>1.651670</speed><course>109.951401</course><hAcc>1.493591</hAcc><vAcc>0.784279</vAcc></extensions></trkpt>
      <trkpt lon="-3.027172" lat="52.721102"><ele>216.586899</ele><time>2022-01-15T12:43:12Z</time><extensions><speed>1.645261</speed><course>105.653236</course><hAcc>1.461678</hAcc><vAcc>0.784959</vAcc></extensions></trkpt>
      <trkpt lon="-3.027149" lat="52.721098"><ele>216.614456</ele><time>2022-01-15T12:43:13Z</time><extensions><speed>1.649297</speed><course>105.642471</course><hAcc>1.468503</hAcc><vAcc>0.785484</vAcc></extensions></trkpt>
      <trkpt lon="-3.027126" lat="52.721094"><ele>216.656052</ele><time>2022-01-15T12:43:14Z</time><extensions><speed>1.651122</speed><course>107.675400</course><hAcc>1.469076</hAcc><vAcc>0.785819</vAcc></extensions></trkpt>
      <trkpt lon="-3.027103" lat="52.721089"><ele>216.687607</ele><time>2022-01-15T12:43:15Z</time><extensions><speed>1.645371</speed><course>111.796761</course><hAcc>1.453612</hAcc><vAcc>0.785961</vAcc></extensions></trkpt>
      <trkpt lon="-3.027081" lat="52.721084"><ele>216.716995</ele><time>2022-01-15T12:43:16Z</time><extensions><speed>1.611149</speed><course>112.367447</course><hAcc>1.441283</hAcc><vAcc>0.785872</vAcc></extensions></trkpt>
      <trkpt lon="-3.027060" lat="52.721079"><ele>216.744919</ele><time>2022-01-15T12:43:17Z</time><extensions><speed>1.528032</speed><course>111.674675</course><hAcc>1.451407</hAcc><vAcc>0.785539</vAcc></extensions></trkpt>
      <trkpt lon="-3.027039" lat="52.721074"><ele>216.769470</ele><time>2022-01-15T12:43:18Z</time><extensions><speed>1.562548</speed><course>111.944519</course><hAcc>1.445047</hAcc><vAcc>0.785011</vAcc></extensions></trkpt>
      <trkpt lon="-3.027017" lat="52.721069"><ele>216.777054</ele><time>2022-01-15T12:43:19Z</time><extensions><speed>1.586447</speed><course>104.790146</course><hAcc>1.449495</hAcc><vAcc>0.784307</vAcc></extensions></trkpt>
      <trkpt lon="-3.026994" lat="52.721067"><ele>216.812988</ele><time>2022-01-15T12:43:20Z</time><extensions><speed>1.619539</speed><course>96.421555</course><hAcc>1.463201</hAcc><vAcc>0.783407</vAcc></extensions></trkpt>
      <trkpt lon="-3.026970" lat="52.721066"><ele>216.841354</ele><time>2022-01-15T12:43:21Z</time><extensions><speed>1.590230</speed><course>93.328606</course><hAcc>1.464949</hAcc><vAcc>0.782363</vAcc></extensions></trkpt>
      <trkpt lon="-3.026947" lat="52.721065"><ele>216.853485</ele><time>2022-01-15T12:43:22Z</time><extensions><speed>1.573568</speed><course>93.333595</course><hAcc>1.473933</hAcc><vAcc>0.781183</vAcc></extensions></trkpt>
      <trkpt lon="-3.026924" lat="52.721064"><ele>216.856110</ele><time>2022-01-15T12:43:23Z</time><extensions><speed>1.532599</speed><course>92.190254</course><hAcc>1.479964</hAcc><vAcc>0.779948</vAcc></extensions></trkpt>
      <trkpt lon="-3.026902" lat="52.721064"><ele>216.852753</ele><time>2022-01-15T12:43:24Z</time><extensions><speed>1.540628</speed><course>92.412994</course><hAcc>1.505356</hAcc><vAcc>0.778670</vAcc></extensions></trkpt>
      <trkpt lon="-3.026880" lat="52.721063"><ele>216.832870</ele><time>2022-01-15T12:43:25Z</time><extensions><speed>1.526559</speed><course>95.056953</course><hAcc>1.507613</hAcc><vAcc>0.777383</vAcc></extensions></trkpt>
      <trkpt lon="-3.026858" lat="52.721062"><ele>216.816956</ele><time>2022-01-15T12:43:26Z</time><extensions><speed>1.489049</speed><course>91.539963</course><hAcc>1.487365</hAcc><vAcc>0.776119</vAcc></extensions></trkpt>
      <trkpt lon="-3.026836" lat="52.721062"><ele>216.793701</ele><time>2022-01-15T12:43:27Z</time><extensions><speed>1.502366</speed><course>91.195862</course><hAcc>1.485842</hAcc><vAcc>0.774877</vAcc></extensions></trkpt>
      <trkpt lon="-3.026814" lat="52.721061"><ele>216.767059</ele><time>2022-01-15T12:43:28Z</time><extensions><speed>1.550269</speed><course>93.186180</course><hAcc>1.507766</hAcc><vAcc>0.773654</vAcc></extensions></trkpt>
      <trkpt lon="-3.026791" lat="52.721061"><ele>216.708282</ele><time>2022-01-15T12:43:29Z</time><extensions><speed>1.560922</speed><course>92.470390</course><hAcc>1.504278</hAcc><vAcc>0.772446</vAcc></extensions></trkpt>
      <trkpt lon="-3.026768" lat="52.721060"><ele>216.656296</ele><time>2022-01-15T12:43:30Z</time><extensions><speed>1.542729</speed><course>93.424454</course><hAcc>1.491981</hAcc><vAcc>0.771246</vAcc></extensions></trkpt>
      <trkpt lon="-3.026746" lat="52.721060"><ele>216.596756</ele><time>2022-01-15T12:43:31Z</time><extensions><speed>1.529593</speed><course>90.788422</course><hAcc>1.476148</hAcc><vAcc>0.770026</vAcc></extensions></trkpt>
      <trkpt lon="-3.026724" lat="52.721059"><ele>216.538406</ele><time>2022-01-15T12:43:32Z</time><extensions><speed>1.517465</speed><course>90.363121</course><hAcc>1.467315</hAcc><vAcc>0.768813</vAcc></extensions></trkpt>
      <trkpt lon="-3.026702" lat="52.721059"><ele>216.475952</ele><time>2022-01-15T12:43:33Z</time><extensions><speed>1.542006</speed><course>89.109993</course><hAcc>1.469522</hAcc><vAcc>0.767649</vAcc></extensions></trkpt>
      <trkpt lon="-3.026680" lat="52.721059"><ele>216.411652</ele><time>2022-01-15T12:43:34Z</time><extensions><speed>1.503037</speed><course>91.669380</course><hAcc>1.464193</hAcc><vAcc>0.766587</vAcc></extensions></trkpt>
      <trkpt lon="-3.026658" lat="52.721059"><ele>216.346527</ele><time>2022-01-15T12:43:35Z</time><extensions><speed>1.539549</speed><course>92.161736</course><hAcc>1.463878</hAcc><vAcc>0.765618</vAcc></extensions></trkpt>
      <trkpt lon="-3.026635" lat="52.721058"><ele>216.288315</ele><time>2022-01-15T12:43:36Z</time><extensions><speed>1.510936</speed><course>90.768768</course><hAcc>1.456023</hAcc><vAcc>0.764774</vAcc></extensions></trkpt>
      <trkpt lon="-3.026613" lat="52.721058"><ele>216.226700</ele><time>2022-01-15T12:43:37Z</time><extensions><speed>1.520484</speed><course>89.677986</course><hAcc>1.458438</hAcc><vAcc>0.764060</vAcc></extensions></trkpt>
      <trkpt lon="-3.026591" lat="52.721058"><ele>216.184174</ele><time>2022-01-15T12:43:38Z</time><extensions><speed>1.524491</speed><course>89.728012</course><hAcc>1.463572</hAcc><vAcc>0.763490</vAcc></extensions></trkpt>
      <trkpt lon="-3.026569" lat="52.721058"><ele>216.125366</ele><time>2022-01-15T12:43:39Z</time><extensions><speed>1.542189</speed><course>90.610367</course><hAcc>1.474183</hAcc><vAcc>0.763073</vAcc></extensions></trkpt>
      <trkpt lon="-3.026547" lat="52.721058"><ele>216.076248</ele><time>2022-01-15T12:43:40Z</time><extensions><speed>1.575023</speed><course>88.620888</course><hAcc>1.479144</hAcc><vAcc>0.762819</vAcc></extensions></trkpt>
      <trkpt lon="-3.026525" lat="52.721058"><ele>216.031631</ele><time>2022-01-15T12:43:41Z</time><extensions><speed>1.458163</speed><course>91.495346</course><hAcc>1.468349</hAcc><vAcc>0.762784</vAcc></extensions></trkpt>
      <trkpt lon="-3.026504" lat="52.721057"><ele>215.994095</ele><time>2022-01-15T12:43:42Z</time><extensions><speed>1.415832</speed><course>96.396545</course><hAcc>1.457393</hAcc><vAcc>0.762972</vAcc></extensions></trkpt>
      <trkpt lon="-3.026484" lat="52.721055"><ele>215.964890</ele><time>2022-01-15T12:43:43Z</time><extensions><speed>1.421843</speed><course>103.406898</course><hAcc>1.467426</hAcc><vAcc>0.763373</vAcc></extensions></trkpt>
      <trkpt lon="-3.026464" lat="52.721051"><ele>215.944901</ele><time>2022-01-15T12:43:44Z</time><extensions><speed>1.458303</speed><course>109.880989</course><hAcc>1.471489</hAcc><vAcc>0.763939</vAcc></extensions></trkpt>
      <trkpt lon="-3.026444" lat="52.721047"><ele>215.913879</ele><time>2022-01-15T12:43:45Z</time><extensions><speed>1.527666</speed><course>112.742050</course><hAcc>1.475033</hAcc><vAcc>0.764617</vAcc></extensions></trkpt>
      <trkpt lon="-3.026423" lat="52.721042"><ele>215.888687</ele><time>2022-01-15T12:43:46Z</time><extensions><speed>1.487241</speed><course>110.303452</course><hAcc>1.469048</hAcc><vAcc>0.765383</vAcc></extensions></trkpt>
      <trkpt lon="-3.026403" lat="52.721037"><ele>215.871490</ele><time>2022-01-15T12:43:47Z</time><extensions><speed>1.539171</speed><course>105.828926</course><hAcc>1.475039</hAcc><vAcc>0.766174</vAcc></extensions></trkpt>
      <trkpt lon="-3.026381" lat="52.721034"><ele>215.858505</ele><time>2022-01-15T12:43:48Z</time><extensions><speed>1.484852</speed><course>101.473572</course><hAcc>1.468145</hAcc><vAcc>0.766950</vAcc></extensions></trkpt>
      <trkpt lon="-3.026361" lat="52.721032"><ele>215.836243</ele><time>2022-01-15T12:43:49Z</time><extensions><speed>1.423937</speed><course>100.500885</course><hAcc>1.454130</hAcc><vAcc>0.767678</vAcc></extensions></trkpt>
      <trkpt lon="-3.026340" lat="52.721029"><ele>215.815979</ele><time>2022-01-15T12:43:50Z</time><extensions><speed>1.459677</speed><course>98.615349</course><hAcc>1.456807</hAcc><vAcc>0.768358</vAcc></extensions></trkpt>
      <trkpt lon="-3.026319" lat="52.721028"><ele>215.796677</ele><time>2022-01-15T12:43:51Z</time><extensions><speed>1.453128</speed><course>98.403526</course><hAcc>1.460217</hAcc><vAcc>0.768972</vAcc></extensions></trkpt>
      <trkpt lon="-3.026299" lat="52.721026"><ele>215.781036</ele><time>2022-01-15T12:43:52Z</time><extensions><speed>1.460817</speed><course>98.577774</course><hAcc>1.466658</hAcc><vAcc>0.769506</vAcc></extensions></trkpt>
      <trkpt lon="-3.026278" lat="52.721024"><ele>215.755096</ele><time>2022-01-15T12:43:53Z</time><extensions><speed>1.419410</speed><course>99.924713</course><hAcc>1.456725</hAcc><vAcc>0.769937</vAcc></extensions></trkpt>
      <trkpt lon="-3.026258" lat="52.721021"><ele>215.732132</ele><time>2022-01-15T12:43:54Z</time><extensions><speed>1.435988</speed><course>102.086082</course><hAcc>1.456019</hAcc><vAcc>0.770227</vAcc></extensions></trkpt>
      <trkpt lon="-3.026238" lat="52.721018"><ele>215.708405</ele><time>2022-01-15T12:43:55Z</time><extensions><speed>1.435535</speed><course>102.530563</course><hAcc>1.455095</hAcc><vAcc>0.770398</vAcc></extensions></trkpt>
      <trkpt lon="-3.026217" lat="52.721015"><ele>215.688416</ele><time>2022-01-15T12:43:56Z</time><extensions><speed>1.482987</speed><course>103.034386</course><hAcc>1.463408</hAcc><vAcc>0.770443</vAcc></extensions></trkpt>
      <trkpt lon="-3.026196" lat="52.721013"><ele>215.669952</ele><time>2022-01-15T12:43:57Z</time><extensions><speed>1.456614</speed><course>101.849434</course><hAcc>1.455299</hAcc><vAcc>0.770408</vAcc></extensions></trkpt>
      <trkpt lon="-3.026176" lat="52.721010"><ele>215.640503</ele><time>2022-01-15T12:43:58Z</time><extensions><speed>1.440801</speed><course>102.152191</course><hAcc>1.449390</hAcc><vAcc>0.770260</vAcc></extensions></trkpt>
      <trkpt lon="-3.026155" lat="52.721007"><ele>215.612122</ele><time>2022-01-15T12:43:59Z</time><extensions><speed>1.444814</speed><course>102.987778</course><hAcc>1.448419</hAcc><vAcc>0.770040</vAcc></extensions></trkpt>
      <trkpt lon="-3.026135" lat="52.721004"><ele>215.579865</ele><time>2022-01-15T12:44:00Z</time><extensions><speed>1.491770</speed><course>104.760742</course><hAcc>1.453519</hAcc><vAcc>0.769756</vAcc></extensions></trkpt>
      <trkpt lon="-3.026114" lat="52.721001"><ele>215.555283</ele><time>2022-01-15T12:44:01Z</time><extensions><speed>1.483603</speed><course>105.362152</course><hAcc>1.451996</hAcc><vAcc>0.769402</vAcc></extensions></trkpt>
      <trkpt lon="-3.026093" lat="52.720998"><ele>215.505051</ele><time>2022-01-15T12:44:02Z</time><extensions><speed>1.494063</speed><course>104.233887</course><hAcc>1.451364</hAcc><vAcc>0.769025</vAcc></extensions></trkpt>
      <trkpt lon="-3.026072" lat="52.720994"><ele>215.459976</ele><time>2022-01-15T12:44:03Z</time><extensions><speed>1.509333</speed><course>105.821159</course><hAcc>1.451024</hAcc><vAcc>0.768618</vAcc></extensions></trkpt>
      <trkpt lon="-3.026051" lat="52.720990"><ele>215.424789</ele><time>2022-01-15T12:44:04Z</time><extensions><speed>1.505230</speed><course>107.698692</course><hAcc>1.451017</hAcc><vAcc>0.768186</vAcc></extensions></trkpt>
      <trkpt lon="-3.026031" lat="52.720986"><ele>215.380066</ele><time>2022-01-15T12:44:05Z</time><extensions><speed>1.464639</speed><course>110.346771</course><hAcc>1.453653</hAcc><vAcc>0.767769</vAcc></extensions></trkpt>
      <trkpt lon="-3.026011" lat="52.720982"><ele>215.334717</ele><time>2022-01-15T12:44:06Z</time><extensions><speed>1.471552</speed><course>108.449150</course><hAcc>1.454731</hAcc><vAcc>0.767349</vAcc></extensions></trkpt>
      <trkpt lon="-3.025991" lat="52.720978"><ele>215.267593</ele><time>2022-01-15T12:44:07Z</time><extensions><speed>1.462793</speed><course>106.664322</course><hAcc>1.458702</hAcc><vAcc>0.766928</vAcc></extensions></trkpt>
      <trkpt lon="-3.025971" lat="52.720974"><ele>215.211273</ele><time>2022-01-15T12:44:08Z</time><extensions><speed>1.412345</speed><course>105.576424</course><hAcc>1.453412</hAcc><vAcc>0.766540</vAcc></extensions></trkpt>
      <trkpt lon="-3.025952" lat="52.720971"><ele>215.154572</ele><time>2022-01-15T12:44:09Z</time><extensions><speed>1.394228</speed><course>102.685196</course><hAcc>1.447491</hAcc><vAcc>0.766212</vAcc></extensions></trkpt>
      <trkpt lon="-3.025931" lat="52.720969"><ele>215.101395</ele><time>2022-01-15T12:44:10Z</time><extensions><speed>1.487773</speed><course>98.851715</course><hAcc>1.467180</hAcc><vAcc>0.765952</vAcc></extensions></trkpt>
      <trkpt lon="-3.025911" lat="52.720967"><ele>215.030411</ele><time>2022-01-15T12:44:11Z</time><extensions><speed>1.390425</speed><course>96.823997</course><hAcc>1.460440</hAcc><vAcc>0.765792</vAcc></extensions></trkpt>
      <trkpt lon="-3.025891" lat="52.720965"><ele>214.975708</ele><time>2022-01-15T12:44:12Z</time><extensions><speed>1.393662</speed><course>97.326744</course><hAcc>1.463008</hAcc><vAcc>0.765713</vAcc></extensions></trkpt>
      <trkpt lon="-3.025871" lat="52.720964"><ele>214.914886</ele><time>2022-01-15T12:44:13Z</time><extensions><speed>1.389100</speed><course>96.600891</course><hAcc>1.457865</hAcc><vAcc>0.765759</vAcc></extensions></trkpt>
      <trkpt lon="-3.025851" lat="52.720963"><ele>214.863022</ele><time>2022-01-15T12:44:14Z</time><extensions><speed>1.382758</speed><course>94.512352</course><hAcc>1.454828</hAcc><vAcc>0.765931</vAcc></extensions></trkpt>
      <trkpt lon="-3.025831" lat="52.720962"><ele>214.798584</ele><time>2022-01-15T12:44:15Z</time><extensions><speed>1.374577</speed><course>95.000198</course><hAcc>1.449953</hAcc><vAcc>0.766203</vAcc></extensions></trkpt>
      <trkpt lon="-3.025811" lat="52.720960"><ele>214.735001</ele><time>2022-01-15T12:44:16Z</time><extensions><speed>1.435280</speed><course>97.877579</course><hAcc>1.453409</hAcc><vAcc>0.766586</vAcc></extensions></trkpt>
      <trkpt lon="-3.025791" lat="52.720958"><ele>214.670639</ele><time>2022-01-15T12:44:17Z</time><extensions><speed>1.442032</speed><course>101.925667</course><hAcc>1.454368</hAcc><vAcc>0.767083</vAcc></extensions></trkpt>
      <trkpt lon="-3.025771" lat="52.720955"><ele>214.601898</ele><time>2022-01-15T12:44:18Z</time><extensions><speed>1.454293</speed><course>104.849434</course><hAcc>1.454120</hAcc><vAcc>0.767687</vAcc></extensions></trkpt>
      <trkpt lon="-3.025751" lat="52.720951"><ele>214.540543</ele><time>2022-01-15T12:44:19Z</time><extensions><speed>1.415705</speed><course>109.659828</course><hAcc>1.452093</hAcc><vAcc>0.768358</vAcc></extensions></trkpt>
      <trkpt lon="-3.025732" lat="52.720946"><ele>214.476212</ele><time>2022-01-15T12:44:20Z</time><extensions><speed>1.419918</speed><course>110.332191</course><hAcc>1.451566</hAcc><vAcc>0.769054</vAcc></extensions></trkpt>
      <trkpt lon="-3.025712" lat="52.720941"><ele>214.424637</ele><time>2022-01-15T12:44:21Z</time><extensions><speed>1.487989</speed><course>110.483574</course><hAcc>1.465574</hAcc><vAcc>0.769769</vAcc></extensions></trkpt>
      <trkpt lon="-3.025692" lat="52.720937"><ele>214.363922</ele><time>2022-01-15T12:44:22Z</time><extensions><speed>1.466804</speed><course>107.619080</course><hAcc>1.459686</hAcc><vAcc>0.770503</vAcc></extensions></trkpt>
      <trkpt lon="-3.025672" lat="52.720933"><ele>214.299789</ele><time>2022-01-15T12:44:23Z</time><extensions><speed>1.397895</speed><course>105.246811</course><hAcc>1.453703</hAcc><vAcc>0.771215</vAcc></extensions></trkpt>
      <trkpt lon="-3.025652" lat="52.720930"><ele>214.230179</ele><time>2022-01-15T12:44:24Z</time><extensions><speed>1.474155</speed><course>102.419861</course><hAcc>1.485529</hAcc><vAcc>0.771969</vAcc></extensions></trkpt>
      <trkpt lon="-3.025632" lat="52.720927"><ele>214.158920</ele><time>2022-01-15T12:44:25Z</time><extensions><speed>1.412922</speed><course>101.295647</course><hAcc>1.485321</hAcc><vAcc>0.772712</vAcc></extensions></trkpt>
      <trkpt lon="-3.025612" lat="52.720924"><ele>214.089417</ele><time>2022-01-15T12:44:26Z</time><extensions><speed>1.367882</speed><course>102.235954</course><hAcc>1.484525</hAcc><vAcc>0.773455</vAcc></extensions></trkpt>
      <trkpt lon="-3.025593" lat="52.720921"><ele>214.020599</ele><time>2022-01-15T12:44:27Z</time><extensions><speed>1.333120</speed><course>105.662453</course><hAcc>1.480833</hAcc><vAcc>0.774157</vAcc></extensions></trkpt>
      <trkpt lon="-3.025574" lat="52.720918"><ele>213.951752</ele><time>2022-01-15T12:44:28Z</time><extensions><speed>1.397828</speed><course>103.854477</course><hAcc>1.498762</hAcc><vAcc>0.774818</vAcc></extensions></trkpt>
      <trkpt lon="-3.025555" lat="52.720915"><ele>213.886749</ele><time>2022-01-15T12:44:29Z</time><extensions><speed>1.343762</speed><course>105.747635</course><hAcc>1.486671</hAcc><vAcc>0.775416</vAcc></extensions></trkpt>
      <trkpt lon="-3.025536" lat="52.720912"><ele>213.803482</ele><time>2022-01-15T12:44:30Z</time><extensions><speed>1.394579</speed><course>103.853271</course><hAcc>1.491691</hAcc><vAcc>0.775965</vAcc></extensions></trkpt>
      <trkpt lon="-3.025517" lat="52.720909"><ele>213.733109</ele><time>2022-01-15T12:44:31Z</time><extensions><speed>1.348013</speed><course>105.818520</course><hAcc>1.471514</hAcc><vAcc>0.776435</vAcc></extensions></trkpt>
      <trkpt lon="-3.025498" lat="52.720905"><ele>213.658081</ele><time>2022-01-15T12:44:32Z</time><extensions><speed>1.423930</speed><course>105.515305</course><hAcc>1.478025</hAcc><vAcc>0.776837</vAcc></extensions></trkpt>
      <trkpt lon="-3.025478" lat="52.720902"><ele>213.581909</ele><time>2022-01-15T12:44:33Z</time><extensions><speed>1.476020</speed><course>105.834000</course><hAcc>1.477749</hAcc><vAcc>0.777179</vAcc></extensions></trkpt>
      <trkpt lon="-3.025458" lat="52.720898"><ele>213.503006</ele><time>2022-01-15T12:44:34Z</time><extensions><speed>1.397729</speed><course>106.669861</course><hAcc>1.465093</hAcc><vAcc>0.777467</vAcc></extensions></trkpt>
      <trkpt lon="-3.025438" lat="52.720895"><ele>213.417389</ele><time>2022-01-15T12:44:35Z</time><extensions><speed>1.455506</speed><course>101.886963</course><hAcc>1.466820</hAcc><vAcc>0.777693</vAcc></extensions></trkpt>
      <trkpt lon="-3.025417" lat="52.720892"><ele>213.337997</ele><time>2022-01-15T12:44:36Z</time><extensions><speed>1.489307</speed><course>97.856285</course><hAcc>1.465813</hAcc><vAcc>0.777897</vAcc></extensions></trkpt>
      <trkpt lon="-3.025397" lat="52.720891"><ele>213.261002</ele><time>2022-01-15T12:44:37Z</time><extensions><speed>1.400136</speed><course>96.441223</course><hAcc>1.453364</hAcc><vAcc>0.778082</vAcc></extensions></trkpt>
      <trkpt lon="-3.025376" lat="52.720889"><ele>213.170456</ele><time>2022-01-15T12:44:38Z</time><extensions><speed>1.439557</speed><course>98.194168</course><hAcc>1.460913</hAcc><vAcc>0.778274</vAcc></extensions></trkpt>
      <trkpt lon="-3.025356" lat="52.720886"><ele>213.083771</ele><time>2022-01-15T12:44:39Z</time><extensions><speed>1.402158</speed><course>102.687286</course><hAcc>1.457800</hAcc><vAcc>0.778483</vAcc></extensions></trkpt>
      <trkpt lon="-3.025336" lat="52.720883"><ele>213.003311</ele><time>2022-01-15T12:44:40Z</time><extensions><speed>1.407257</speed><course>108.931740</course><hAcc>1.459553</hAcc><vAcc>0.778710</vAcc></extensions></trkpt>
      <trkpt lon="-3.025317" lat="52.720879"><ele>212.929306</ele><time>2022-01-15T12:44:41Z</time><extensions><speed>1.440364</speed><course>109.524841</course><hAcc>1.463930</hAcc><vAcc>0.778963</vAcc></extensions></trkpt>
      <trkpt lon="-3.025298" lat="52.720874"><ele>212.859314</ele><time>2022-01-15T12:44:42Z</time><extensions><speed>1.420215</speed><course>112.689705</course><hAcc>1.459725</hAcc><vAcc>0.779218</vAcc></extensions></trkpt>
      <trkpt lon="-3.025278" lat="52.720870"><ele>212.772614</ele><time>2022-01-15T12:44:43Z</time><extensions><speed>1.477191</speed><course>107.369331</course><hAcc>1.464851</hAcc><vAcc>0.779471</vAcc></extensions></trkpt>
      <trkpt lon="-3.025258" lat="52.720866"><ele>212.699738</ele><time>2022-01-15T12:44:44Z</time><extensions><speed>1.455004</speed><course>103.033546</course><hAcc>1.460196</hAcc><vAcc>0.779725</vAcc></extensions></trkpt>
      <trkpt lon="-3.025237" lat="52.720863"><ele>212.632889</ele><time>2022-01-15T12:44:45Z</time><extensions><speed>1.469337</speed><course>101.645409</course><hAcc>1.454945</hAcc><vAcc>0.779981</vAcc></extensions></trkpt>
      <trkpt lon="-3.025217" lat="52.720860"><ele>212.562775</ele><time>2022-01-15T12:44:46Z</time><extensions><speed>1.440555</speed><course>103.391899</course><hAcc>1.448473</hAcc><vAcc>0.780258</vAcc></extensions></trkpt>
      <trkpt lon="-3.025197" lat="52.720857"><ele>212.496902</ele><time>2022-01-15T12:44:47Z</time><extensions><speed>1.494377</speed><course>107.284882</course><hAcc>1.448590</hAcc><vAcc>0.780561</vAcc></extensions></trkpt>
      <trkpt lon="-3.025176" lat="52.720852"><ele>212.438843</ele><time>2022-01-15T12:44:48Z</time><extensions><speed>1.519276</speed><course>111.201180</course><hAcc>1.448978</hAcc><vAcc>0.780864</vAcc></extensions></trkpt>
      <trkpt lon="-3.025155" lat="52.720847"><ele>212.386292</ele><time>2022-01-15T12:44:49Z</time><extensions><speed>1.544866</speed><course>111.647888</course><hAcc>1.447896</hAcc><vAcc>0.781159</vAcc></extensions></trkpt>
      <trkpt lon="-3.025134" lat="52.720842"><ele>212.348541</ele><time>2022-01-15T12:44:50Z</time><extensions><speed>1.581407</speed><course>110.059174</course><hAcc>1.454719</hAcc><vAcc>0.781476</vAcc></extensions></trkpt>
      <trkpt lon="-3.025113" lat="52.720837"><ele>212.324341</ele><time>2022-01-15T12:44:51Z</time><extensions><speed>1.515830</speed><course>109.332123</course><hAcc>1.444550</hAcc><vAcc>0.781804</vAcc></extensions></trkpt>
      <trkpt lon="-3.025093" lat="52.720833"><ele>212.272095</ele><time>2022-01-15T12:44:52Z</time><extensions><speed>1.494610</speed><course>108.585571</course><hAcc>1.446005</hAcc><vAcc>0.782125</vAcc></extensions></trkpt>
      <trkpt lon="-3.025072" lat="52.720828"><ele>212.241089</ele><time>2022-01-15T12:44:53Z</time><extensions><speed>1.532683</speed><course>110.384102</course><hAcc>1.459844</hAcc><vAcc>0.782429</vAcc></extensions></trkpt>
      <trkpt lon="-3.025051" lat="52.720824"><ele>212.224045</ele><time>2022-01-15T12:44:54Z</time><extensions><speed>1.562173</speed><course>107.608063</course><hAcc>1.467740</hAcc><vAcc>0.782718</vAcc></extensions></trkpt>
      <trkpt lon="-3.025030" lat="52.720819"><ele>212.203903</ele><time>2022-01-15T12:44:55Z</time><extensions><speed>1.485365</speed><course>108.397102</course><hAcc>1.460465</hAcc><vAcc>0.782965</vAcc></extensions></trkpt>
      <trkpt lon="-3.025010" lat="52.720815"><ele>212.175446</ele><time>2022-01-15T12:44:56Z</time><extensions><speed>1.466486</speed><course>111.785789</course><hAcc>1.459844</hAcc><vAcc>0.783199</vAcc></extensions></trkpt>
      <trkpt lon="-3.024991" lat="52.720809"><ele>212.166061</ele><time>2022-01-15T12:44:57Z</time><extensions><speed>1.447929</speed><course>116.036858</course><hAcc>1.457255</hAcc><vAcc>0.783413</vAcc></extensions></trkpt>
      <trkpt lon="-3.024972" lat="52.720804"><ele>212.167221</ele><time>2022-01-15T12:44:58Z</time><extensions><speed>1.502131</speed><course>115.014114</course><hAcc>1.468984</hAcc><vAcc>0.783634</vAcc></extensions></trkpt>
      <trkpt lon="-3.024953" lat="52.720797"><ele>212.153290</ele><time>2022-01-15T12:44:59Z</time><extensions><speed>1.511220</speed><course>117.181839</course><hAcc>1.469409</hAcc><vAcc>0.783871</vAcc></extensions></trkpt>
      <trkpt lon="-3.024933" lat="52.720791"><ele>212.127457</ele><time>2022-01-15T12:45:00Z</time><extensions><speed>1.538272</speed><course>115.913033</course><hAcc>1.473736</hAcc><vAcc>0.784149</vAcc></extensions></trkpt>
      <trkpt lon="-3.024913" lat="52.720785"><ele>212.101929</ele><time>2022-01-15T12:45:01Z</time><extensions><speed>1.526616</speed><course>113.815758</course><hAcc>1.475237</hAcc><vAcc>0.784446</vAcc></extensions></trkpt>
      <trkpt lon="-3.024893" lat="52.720780"><ele>212.080307</ele><time>2022-01-15T12:45:02Z</time><extensions><speed>1.490279</speed><course>114.919518</course><hAcc>1.472881</hAcc><vAcc>0.784786</vAcc></extensions></trkpt>
      <trkpt lon="-3.024874" lat="52.720774"><ele>212.051102</ele><time>2022-01-15T12:45:03Z</time><extensions><speed>1.444443</speed><course>114.418503</course><hAcc>1.465067</hAcc><vAcc>0.785171</vAcc></extensions></trkpt>
      <trkpt lon="-3.024856" lat="52.720769"><ele>212.026962</ele><time>2022-01-15T12:45:04Z</time><extensions><speed>1.419208</speed><course>115.602730</course><hAcc>1.465823</hAcc><vAcc>0.785592</vAcc></extensions></trkpt>
      <trkpt lon="-3.024837" lat="52.720763"><ele>211.990524</ele><time>2022-01-15T12:45:05Z</time><extensions><speed>1.498078</speed><course>117.843651</course><hAcc>1.471399</hAcc><vAcc>0.786066</vAcc></extensions></trkpt>
      <trkpt lon="-3.024819" lat="52.720757"><ele>211.929245</ele><time>2022-01-15T12:45:06Z</time><extensions><speed>1.397094</speed><course>121.937233</course><hAcc>1.450836</hAcc><vAcc>0.786592</vAcc></extensions></trkpt>
      <trkpt lon="-3.024803" lat="52.720750"><ele>211.872665</ele><time>2022-01-15T12:45:07Z</time><extensions><speed>1.454947</speed><course>123.370476</course><hAcc>1.457286</hAcc><vAcc>0.787186</vAcc></extensions></trkpt>
      <trkpt lon="-3.024786" lat="52.720742"><ele>211.814148</ele><time>2022-01-15T12:45:08Z</time><extensions><speed>1.484120</speed><course>125.141235</course><hAcc>1.457306</hAcc><vAcc>0.787838</vAcc></extensions></trkpt>
      <trkpt lon="-3.024769" lat="52.720735"><ele>211.753143</ele><time>2022-01-15T12:45:09Z</time><extensions><speed>1.479594</speed><course>127.686516</course><hAcc>1.440333</hAcc><vAcc>0.788531</vAcc></extensions></trkpt>
      <trkpt lon="-3.024753" lat="52.720727"><ele>211.694443</ele><time>2022-01-15T12:45:10Z</time><extensions><speed>1.498623</speed><course>128.188553</course><hAcc>1.432190</hAcc><vAcc>0.789250</vAcc></extensions></trkpt>
      <trkpt lon="-3.024736" lat="52.720718"><ele>211.637787</ele><time>2022-01-15T12:45:11Z</time><extensions><speed>1.495130</speed><course>129.967392</course><hAcc>1.420261</hAcc><vAcc>0.789980</vAcc></extensions></trkpt>
      <trkpt lon="-3.024720" lat="52.720710"><ele>211.576279</ele><time>2022-01-15T12:45:12Z</time><extensions><speed>1.582244</speed><course>129.719849</course><hAcc>1.426455</hAcc><vAcc>0.790698</vAcc></extensions></trkpt>
      <trkpt lon="-3.024702" lat="52.720701"><ele>211.523300</ele><time>2022-01-15T12:45:13Z</time><extensions><speed>1.609067</speed><course>127.911629</course><hAcc>1.421536</hAcc><vAcc>0.791384</vAcc></extensions></trkpt>
      <trkpt lon="-3.024685" lat="52.720692"><ele>211.473053</ele><time>2022-01-15T12:45:14Z</time><extensions><speed>1.518023</speed><course>127.639694</course><hAcc>1.409107</hAcc><vAcc>0.792041</vAcc></extensions></trkpt>
      <trkpt lon="-3.024668" lat="52.720684"><ele>211.423065</ele><time>2022-01-15T12:45:15Z</time><extensions><speed>1.547274</speed><course>129.846100</course><hAcc>1.415404</hAcc><vAcc>0.792672</vAcc></extensions></trkpt>
      <trkpt lon="-3.024652" lat="52.720675"><ele>211.376953</ele><time>2022-01-15T12:45:16Z</time><extensions><speed>1.400014</speed><course>133.030380</course><hAcc>1.408670</hAcc><vAcc>0.793294</vAcc></extensions></trkpt>
      <trkpt lon="-3.024638" lat="52.720667"><ele>211.328140</ele><time>2022-01-15T12:45:17Z</time><extensions><speed>1.432377</speed><course>133.428375</course><hAcc>1.413517</hAcc><vAcc>0.793794</vAcc></extensions></trkpt>
      <trkpt lon="-3.024623" lat="52.720658"><ele>211.299728</ele><time>2022-01-15T12:45:18Z</time><extensions><speed>1.479953</speed><course>133.332596</course><hAcc>1.419599</hAcc><vAcc>0.794214</vAcc></extensions></trkpt>
      <trkpt lon="-3.024609" lat="52.720649"><ele>211.276688</ele><time>2022-01-15T12:45:19Z</time><extensions><speed>1.417602</speed><course>133.521652</course><hAcc>1.415355</hAcc><vAcc>0.794545</vAcc></extensions></trkpt>
      <trkpt lon="-3.024594" lat="52.720641"><ele>211.273560</ele><time>2022-01-15T12:45:20Z</time><extensions><speed>1.409261</speed><course>129.987930</course><hAcc>1.419293</hAcc><vAcc>0.794757</vAcc></extensions></trkpt>
      <trkpt lon="-3.024578" lat="52.720634"><ele>211.273529</ele><time>2022-01-15T12:45:21Z</time><extensions><speed>1.442499</speed><course>124.315018</course><hAcc>1.428028</hAcc><vAcc>0.794864</vAcc></extensions></trkpt>
      <trkpt lon="-3.024560" lat="52.720627"><ele>211.268860</ele><time>2022-01-15T12:45:22Z</time><extensions><speed>1.429806</speed><course>120.128227</course><hAcc>1.428469</hAcc><vAcc>0.794847</vAcc></extensions></trkpt>
      <trkpt lon="-3.024542" lat="52.720621"><ele>211.272552</ele><time>2022-01-15T12:45:23Z</time><extensions><speed>1.506371</speed><course>119.909752</course><hAcc>1.438200</hAcc><vAcc>0.794739</vAcc></extensions></trkpt>
      <trkpt lon="-3.024524" lat="52.720614"><ele>211.292099</ele><time>2022-01-15T12:45:24Z</time><extensions><speed>1.455799</speed><course>120.276848</course><hAcc>1.438755</hAcc><vAcc>0.794588</vAcc></extensions></trkpt>
      <trkpt lon="-3.024507" lat="52.720608"><ele>211.308197</ele><time>2022-01-15T12:45:25Z</time><extensions><speed>1.294489</speed><course>117.588852</course><hAcc>1.434509</hAcc><vAcc>0.794481</vAcc></extensions></trkpt>
      <trkpt lon="-3.024492" lat="52.720602"><ele>211.310471</ele><time>2022-01-15T12:45:26Z</time><extensions><speed>1.249631</speed><course>116.939056</course><hAcc>1.439415</hAcc><vAcc>0.794441</vAcc></extensions></trkpt>
      <trkpt lon="-3.024476" lat="52.720597"><ele>211.330704</ele><time>2022-01-15T12:45:27Z</time><extensions><speed>1.311174</speed><course>120.526543</course><hAcc>1.445829</hAcc><vAcc>0.794515</vAcc></extensions></trkpt>
      <trkpt lon="-3.024461" lat="52.720590"><ele>211.340225</ele><time>2022-01-15T12:45:28Z</time><extensions><speed>1.328513</speed><course>121.778961</course><hAcc>1.445253</hAcc><vAcc>0.794728</vAcc></extensions></trkpt>
      <trkpt lon="-3.024446" lat="52.720584"><ele>211.364716</ele><time>2022-01-15T12:45:29Z</time><extensions><speed>1.328345</speed><course>121.429245</course><hAcc>1.440734</hAcc><vAcc>0.795130</vAcc></extensions></trkpt>
      <trkpt lon="-3.024429" lat="52.720578"><ele>211.399460</ele><time>2022-01-15T12:45:30Z</time><extensions><speed>1.372971</speed><course>118.467049</course><hAcc>1.441140</hAcc><vAcc>0.795729</vAcc></extensions></trkpt>
      <trkpt lon="-3.024412" lat="52.720572"><ele>211.430099</ele><time>2022-01-15T12:45:31Z</time><extensions><speed>1.489081</speed><course>123.324432</course><hAcc>1.441536</hAcc><vAcc>0.796555</vAcc></extensions></trkpt>
      <trkpt lon="-3.024396" lat="52.720565"><ele>211.454834</ele><time>2022-01-15T12:45:32Z</time><extensions><speed>1.408495</speed><course>127.376602</course><hAcc>1.421509</hAcc><vAcc>0.797624</vAcc></extensions></trkpt>
      <trkpt lon="-3.024381" lat="52.720557"><ele>211.494461</ele><time>2022-01-15T12:45:33Z</time><extensions><speed>1.429795</speed><course>134.813263</course><hAcc>1.408943</hAcc><vAcc>0.798928</vAcc></extensions></trkpt>
      <trkpt lon="-3.024369" lat="52.720547"><ele>211.522491</ele><time>2022-01-15T12:45:34Z</time><extensions><speed>1.462394</speed><course>149.692764</course><hAcc>1.399304</hAcc><vAcc>0.800433</vAcc></extensions></trkpt>
      <trkpt lon="-3.024362" lat="52.720534"><ele>211.556671</ele><time>2022-01-15T12:45:35Z</time><extensions><speed>1.669383</speed><course>164.942322</course><hAcc>1.403445</hAcc><vAcc>0.802089</vAcc></extensions></trkpt>
      <trkpt lon="-3.024359" lat="52.720520"><ele>211.586777</ele><time>2022-01-15T12:45:36Z</time><extensions><speed>1.707845</speed><course>178.904221</course><hAcc>1.396561</hAcc><vAcc>0.803826</vAcc></extensions></trkpt>
      <trkpt lon="-3.024360" lat="52.720505"><ele>211.617981</ele><time>2022-01-15T12:45:37Z</time><extensions><speed>1.719725</speed><course>181.362061</course><hAcc>1.390587</hAcc><vAcc>0.805564</vAcc></extensions></trkpt>
      <trkpt lon="-3.024361" lat="52.720490"><ele>211.654907</ele><time>2022-01-15T12:45:38Z</time><extensions><speed>1.678090</speed><course>181.734116</course><hAcc>1.389347</hAcc><vAcc>0.807237</vAcc></extensions></trkpt>
      <trkpt lon="-3.024362" lat="52.720476"><ele>211.671555</ele><time>2022-01-15T12:45:39Z</time><extensions><speed>1.637246</speed><course>177.348434</course><hAcc>1.387135</hAcc><vAcc>0.808806</vAcc></extensions></trkpt>
      <trkpt lon="-3.024362" lat="52.720462"><ele>211.699799</ele><time>2022-01-15T12:45:40Z</time><extensions><speed>1.439721</speed><course>179.836975</course><hAcc>1.372307</hAcc><vAcc>0.810259</vAcc></extensions></trkpt>
      <trkpt lon="-3.024362" lat="52.720450"><ele>211.729279</ele><time>2022-01-15T12:45:41Z</time><extensions><speed>1.372671</speed><course>177.019348</course><hAcc>1.376640</hAcc><vAcc>0.811600</vAcc></extensions></trkpt>
      <trkpt lon="-3.024362" lat="52.720438"><ele>211.756271</ele><time>2022-01-15T12:45:42Z</time><extensions><speed>1.458267</speed><course>176.715744</course><hAcc>1.383552</hAcc><vAcc>0.812776</vAcc></extensions></trkpt>
      <trkpt lon="-3.024361" lat="52.720425"><ele>211.731903</ele><time>2022-01-15T12:45:43Z</time><extensions><speed>1.541028</speed><course>174.844772</course><hAcc>1.388342</hAcc><vAcc>0.813762</vAcc></extensions></trkpt>
      <trkpt lon="-3.024360" lat="52.720412"><ele>211.728195</ele><time>2022-01-15T12:45:44Z</time><extensions><speed>1.531535</speed><course>175.468018</course><hAcc>1.385500</hAcc><vAcc>0.814564</vAcc></extensions></trkpt>
      <trkpt lon="-3.024358" lat="52.720399"><ele>211.724365</ele><time>2022-01-15T12:45:45Z</time><extensions><speed>1.569994</speed><course>169.335907</course><hAcc>1.391487</hAcc><vAcc>0.815191</vAcc></extensions></trkpt>
      <trkpt lon="-3.024353" lat="52.720386"><ele>211.731873</ele><time>2022-01-15T12:45:46Z</time><extensions><speed>1.480129</speed><course>162.199127</course><hAcc>1.388804</hAcc><vAcc>0.815581</vAcc></extensions></trkpt>
      <trkpt lon="-3.024346" lat="52.720375"><ele>211.729401</ele><time>2022-01-15T12:45:47Z</time><extensions><speed>1.358474</speed><course>159.562653</course><hAcc>1.386685</hAcc><vAcc>0.815770</vAcc></extensions></trkpt>
      <trkpt lon="-3.024340" lat="52.720364"><ele>211.721466</ele><time>2022-01-15T12:45:48Z</time><extensions><speed>1.286438</speed><course>161.392181</course><hAcc>1.391392</hAcc><vAcc>0.815742</vAcc></extensions></trkpt>
      <trkpt lon="-3.024335" lat="52.720354"><ele>211.721207</ele><time>2022-01-15T12:45:49Z</time><extensions><speed>1.196865</speed><course>164.145630</course><hAcc>1.394983</hAcc><vAcc>0.815489</vAcc></extensions></trkpt>
      <trkpt lon="-3.024330" lat="52.720343"><ele>211.727890</ele><time>2022-01-15T12:45:50Z</time><extensions><speed>1.366705</speed><course>160.882919</course><hAcc>1.421693</hAcc><vAcc>0.814969</vAcc></extensions></trkpt>
      <trkpt lon="-3.024322" lat="52.720332"><ele>211.741257</ele><time>2022-01-15T12:45:51Z</time><extensions><speed>1.384550</speed><course>152.705704</course><hAcc>1.445810</hAcc><vAcc>0.814230</vAcc></extensions></trkpt>
      <trkpt lon="-3.024311" lat="52.720321"><ele>211.733887</ele><time>2022-01-15T12:45:52Z</time><extensions><speed>1.371643</speed><course>143.136978</course><hAcc>1.464966</hAcc><vAcc>0.813228</vAcc></extensions></trkpt>
      <trkpt lon="-3.024299" lat="52.720312"><ele>211.735077</ele><time>2022-01-15T12:45:53Z</time><extensions><speed>1.244270</speed><course>139.155212</course><hAcc>1.495309</hAcc><vAcc>0.811980</vAcc></extensions></trkpt>
      <trkpt lon="-3.024287" lat="52.720304"><ele>211.757858</ele><time>2022-01-15T12:45:54Z</time><extensions><speed>1.118594</speed><course>134.668976</course><hAcc>1.528050</hAcc><vAcc>0.810486</vAcc></extensions></trkpt>
      <trkpt lon="-3.024277" lat="52.720300"><ele>211.788986</ele><time>2022-01-15T12:45:55Z</time><extensions><speed>0.617312</speed><course>115.098251</course><hAcc>1.528605</hAcc><vAcc>0.808832</vAcc></extensions></trkpt>
      <trkpt lon="-3.024270" lat="52.720299"><ele>211.817886</ele><time>2022-01-15T12:45:56Z</time><extensions><speed>0.440133</speed><course>79.052902</course><hAcc>1.574358</hAcc><vAcc>0.807029</vAcc></extensions></trkpt>
      <trkpt lon="-3.024264" lat="52.720300"><ele>211.849335</ele><time>2022-01-15T12:45:57Z</time><extensions><speed>0.470038</speed><course>61.085468</course><hAcc>1.647341</hAcc><vAcc>0.805116</vAcc></extensions></trkpt>
      <trkpt lon="-3.024258" lat="52.720303"><ele>211.878143</ele><time>2022-01-15T12:45:58Z</time><extensions><speed>0.523005</speed><course>57.164459</course><hAcc>1.704831</hAcc><vAcc>0.803182</vAcc></extensions></trkpt>
      <trkpt lon="-3.024251" lat="52.720305"><ele>211.908066</ele><time>2022-01-15T12:45:59Z</time><extensions><speed>0.552539</speed><course>60.409252</course><hAcc>1.733889</hAcc><vAcc>0.801270</vAcc></extensions></trkpt>
      <trkpt lon="-3.024243" lat="52.720308"><ele>211.945053</ele><time>2022-01-15T12:46:00Z</time><extensions><speed>0.585507</speed><course>67.871864</course><hAcc>1.732769</hAcc><vAcc>0.799412</vAcc></extensions></trkpt>
      <trkpt lon="-3.024235" lat="52.720309"><ele>211.987137</ele><time>2022-01-15T12:46:01Z</time><extensions><speed>0.643623</speed><course>77.371773</course><hAcc>1.709131</hAcc><vAcc>0.797668</vAcc></extensions></trkpt>
      <trkpt lon="-3.024225" lat="52.720310"><ele>212.013779</ele><time>2022-01-15T12:46:02Z</time><extensions><speed>0.735229</speed><course>86.091919</course><hAcc>1.679981</hAcc><vAcc>0.796039</vAcc></extensions></trkpt>
      <trkpt lon="-3.024213" lat="52.720310"><ele>212.044952</ele><time>2022-01-15T12:46:03Z</time><extensions><speed>0.895445</speed><course>94.176926</course><hAcc>1.673382</hAcc><vAcc>0.794617</vAcc></extensions></trkpt>
      <trkpt lon="-3.024199" lat="52.720309"><ele>212.081772</ele><time>2022-01-15T12:46:04Z</time><extensions><speed>1.026373</speed><course>99.842812</course><hAcc>1.684176</hAcc><vAcc>0.793421</vAcc></extensions></trkpt>
      <trkpt lon="-3.024184" lat="52.720308"><ele>212.111694</ele><time>2022-01-15T12:46:05Z</time><extensions><speed>1.027142</speed><course>101.929901</course><hAcc>1.686138</hAcc><vAcc>0.792426</vAcc></extensions></trkpt>
      <trkpt lon="-3.024170" lat="52.720306"><ele>212.134979</ele><time>2022-01-15T12:46:06Z</time><extensions><speed>0.984914</speed><course>98.000114</course><hAcc>1.651196</hAcc><vAcc>0.791691</vAcc></extensions></trkpt>
      <trkpt lon="-3.024155" lat="52.720305"><ele>212.136475</ele><time>2022-01-15T12:46:07Z</time><extensions><speed>1.023011</speed><course>98.288963</course><hAcc>1.662501</hAcc><vAcc>0.791170</vAcc></extensions></trkpt>
      <trkpt lon="-3.024141" lat="52.720304"><ele>212.131210</ele><time>2022-01-15T12:46:08Z</time><extensions><speed>0.997493</speed><course>94.532898</course><hAcc>1.663126</hAcc><vAcc>0.790838</vAcc></extensions></trkpt>
      <trkpt lon="-3.024126" lat="52.720304"><ele>212.105545</ele><time>2022-01-15T12:46:09Z</time><extensions><speed>0.994670</speed><course>93.902657</course><hAcc>1.671243</hAcc><vAcc>0.790714</vAcc></extensions></trkpt>
      <trkpt lon="-3.024112" lat="52.720303"><ele>212.109558</ele><time>2022-01-15T12:46:10Z</time><extensions><speed>0.942573</speed><course>91.175621</course><hAcc>1.664310</hAcc><vAcc>0.790802</vAcc></extensions></trkpt>
      <trkpt lon="-3.024098" lat="52.720303"><ele>212.108459</ele><time>2022-01-15T12:46:11Z</time><extensions><speed>0.926707</speed><course>92.252579</course><hAcc>1.660011</hAcc><vAcc>0.791053</vAcc></extensions></trkpt>
      <trkpt lon="-3.024085" lat="52.720302"><ele>212.109726</ele><time>2022-01-15T12:46:12Z</time><extensions><speed>0.881335</speed><course>95.744545</course><hAcc>1.668441</hAcc><vAcc>0.791451</vAcc></extensions></trkpt>
      <trkpt lon="-3.024072" lat="52.720301"><ele>212.118408</ele><time>2022-01-15T12:46:13Z</time><extensions><speed>0.857218</speed><course>100.779839</course><hAcc>1.687972</hAcc><vAcc>0.791972</vAcc></extensions></trkpt>
      <trkpt lon="-3.024061" lat="52.720300"><ele>212.099228</ele><time>2022-01-15T12:46:14Z</time><extensions><speed>0.766256</speed><course>102.094254</course><hAcc>1.704867</hAcc><vAcc>0.792577</vAcc></extensions></trkpt>
      <trkpt lon="-3.024050" lat="52.720298"><ele>212.072525</ele><time>2022-01-15T12:46:15Z</time><extensions><speed>0.769485</speed><course>103.717705</course><hAcc>1.725839</hAcc><vAcc>0.793196</vAcc></extensions></trkpt>
      <trkpt lon="-3.024040" lat="52.720297"><ele>212.062469</ele><time>2022-01-15T12:46:16Z</time><extensions><speed>0.612437</speed><course>99.764137</course><hAcc>1.684783</hAcc><vAcc>0.793773</vAcc></extensions></trkpt>
      <trkpt lon="-3.024031" lat="52.720296"><ele>212.036621</ele><time>2022-01-15T12:46:17Z</time><extensions><speed>0.590154</speed><course>103.249016</course><hAcc>1.684153</hAcc><vAcc>0.794353</vAcc></extensions></trkpt>
      <trkpt lon="-3.024023" lat="52.720294"><ele>212.002853</ele><time>2022-01-15T12:46:18Z</time><extensions><speed>0.615334</speed><course>113.134560</course><hAcc>1.698819</hAcc><vAcc>0.794881</vAcc></extensions></trkpt>
      <trkpt lon="-3.024013" lat="52.720291"><ele>211.971268</ele><time>2022-01-15T12:46:19Z</time><extensions><speed>0.797233</speed><course>121.407593</course><hAcc>1.722266</hAcc><vAcc>0.795319</vAcc></extensions></trkpt>
      <trkpt lon="-3.024003" lat="52.720287"><ele>211.941971</ele><time>2022-01-15T12:46:20Z</time><extensions><speed>0.919684</speed><course>124.969948</course><hAcc>1.740867</hAcc><vAcc>0.795630</vAcc></extensions></trkpt>
      <trkpt lon="-3.023991" lat="52.720282"><ele>211.909393</ele><time>2022-01-15T12:46:21Z</time><extensions><speed>1.036579</speed><course>126.043243</course><hAcc>1.752505</hAcc><vAcc>0.795806</vAcc></extensions></trkpt>
      <trkpt lon="-3.023978" lat="52.720276"><ele>211.856995</ele><time>2022-01-15T12:46:22Z</time><extensions><speed>1.120322</speed><course>124.496666</course><hAcc>1.759760</hAcc><vAcc>0.795866</vAcc></extensions></trkpt>
      <trkpt lon="-3.023964" lat="52.720271"><ele>211.821198</ele><time>2022-01-15T12:46:23Z</time><extensions><speed>1.145887</speed><course>122.819885</course><hAcc>1.764817</hAcc><vAcc>0.795781</vAcc></extensions></trkpt>
      <trkpt lon="-3.023950" lat="52.720265"><ele>211.783844</ele><time>2022-01-15T12:46:24Z</time><extensions><speed>1.148359</speed><course>122.119690</course><hAcc>1.763509</hAcc><vAcc>0.795689</vAcc></extensions></trkpt>
      <trkpt lon="-3.023935" lat="52.720260"><ele>211.719559</ele><time>2022-01-15T12:46:25Z</time><extensions><speed>1.116194</speed><course>120.726913</course><hAcc>1.760008</hAcc><vAcc>0.795581</vAcc></extensions></trkpt>
      <trkpt lon="-3.023921" lat="52.720255"><ele>211.661514</ele><time>2022-01-15T12:46:26Z</time><extensions><speed>1.054874</speed><course>118.084450</course><hAcc>1.754990</hAcc><vAcc>0.795503</vAcc></extensions></trkpt>
      <trkpt lon="-3.023907" lat="52.720251"><ele>211.602722</ele><time>2022-01-15T12:46:27Z</time><extensions><speed>1.092676</speed><course>117.174423</course><hAcc>1.754135</hAcc><vAcc>0.795473</vAcc></extensions></trkpt>
      <trkpt lon="-3.023892" lat="52.720246"><ele>211.556610</ele><time>2022-01-15T12:46:28Z</time><extensions><speed>1.166639</speed><course>116.164314</course><hAcc>1.755681</hAcc><vAcc>0.795476</vAcc></extensions></trkpt>
      <trkpt lon="-3.023876" lat="52.720242"><ele>211.497360</ele><time>2022-01-15T12:46:29Z</time><extensions><speed>1.229864</speed><course>114.053154</course><hAcc>1.729041</hAcc><vAcc>0.795485</vAcc></extensions></trkpt>
      <trkpt lon="-3.023859" lat="52.720237"><ele>211.450867</ele><time>2022-01-15T12:46:30Z</time><extensions><speed>1.296643</speed><course>113.211014</course><hAcc>1.701361</hAcc><vAcc>0.795498</vAcc></extensions></trkpt>
      <trkpt lon="-3.023841" lat="52.720232"><ele>211.405792</ele><time>2022-01-15T12:46:31Z</time><extensions><speed>1.334731</speed><course>113.185158</course><hAcc>1.682916</hAcc><vAcc>0.795509</vAcc></extensions></trkpt>
      <trkpt lon="-3.023823" lat="52.720227"><ele>211.363480</ele><time>2022-01-15T12:46:32Z</time><extensions><speed>1.372791</speed><course>113.835114</course><hAcc>1.663576</hAcc><vAcc>0.795581</vAcc></extensions></trkpt>
      <trkpt lon="-3.023804" lat="52.720222"><ele>211.325760</ele><time>2022-01-15T12:46:33Z</time><extensions><speed>1.410918</speed><course>113.585274</course><hAcc>1.662181</hAcc><vAcc>0.795694</vAcc></extensions></trkpt>
      <trkpt lon="-3.023785" lat="52.720217"><ele>211.286972</ele><time>2022-01-15T12:46:34Z</time><extensions><speed>1.432146</speed><course>115.341263</course><hAcc>1.666000</hAcc><vAcc>0.795777</vAcc></extensions></trkpt>
      <trkpt lon="-3.023766" lat="52.720211"><ele>211.250534</ele><time>2022-01-15T12:46:35Z</time><extensions><speed>1.425008</speed><course>117.967690</course><hAcc>1.640900</hAcc><vAcc>0.795731</vAcc></extensions></trkpt>
      <trkpt lon="-3.023747" lat="52.720205"><ele>211.221420</ele><time>2022-01-15T12:46:36Z</time><extensions><speed>1.414860</speed><course>120.104256</course><hAcc>1.644533</hAcc><vAcc>0.795456</vAcc></extensions></trkpt>
      <trkpt lon="-3.023729" lat="52.720199"><ele>211.165009</ele><time>2022-01-15T12:46:37Z</time><extensions><speed>1.415140</speed><course>119.622330</course><hAcc>1.620128</hAcc><vAcc>0.794896</vAcc></extensions></trkpt>
      <trkpt lon="-3.023711" lat="52.720193"><ele>211.148590</ele><time>2022-01-15T12:46:38Z</time><extensions><speed>1.364222</speed><course>118.399879</course><hAcc>1.631204</hAcc><vAcc>0.794058</vAcc></extensions></trkpt>
      <trkpt lon="-3.023693" lat="52.720187"><ele>211.122543</ele><time>2022-01-15T12:46:39Z</time><extensions><speed>1.333796</speed><course>117.721611</course><hAcc>1.611241</hAcc><vAcc>0.792974</vAcc></extensions></trkpt>
      <trkpt lon="-3.023676" lat="52.720181"><ele>211.087555</ele><time>2022-01-15T12:46:40Z</time><extensions><speed>1.318611</speed><course>117.190674</course><hAcc>1.614714</hAcc><vAcc>0.791657</vAcc></extensions></trkpt>
      <trkpt lon="-3.023658" lat="52.720176"><ele>211.069061</ele><time>2022-01-15T12:46:41Z</time><extensions><speed>1.338412</speed><course>116.674324</course><hAcc>1.613640</hAcc><vAcc>0.790168</vAcc></extensions></trkpt>
      <trkpt lon="-3.023641" lat="52.720171"><ele>211.029160</ele><time>2022-01-15T12:46:42Z</time><extensions><speed>1.293999</speed><course>116.680977</course><hAcc>1.638919</hAcc><vAcc>0.788580</vAcc></extensions></trkpt>
      <trkpt lon="-3.023624" lat="52.720165"><ele>210.983521</ele><time>2022-01-15T12:46:43Z</time><extensions><speed>1.312282</speed><course>118.051788</course><hAcc>1.621827</hAcc><vAcc>0.786921</vAcc></extensions></trkpt>
      <trkpt lon="-3.023607" lat="52.720160"><ele>210.958450</ele><time>2022-01-15T12:46:44Z</time><extensions><speed>1.298916</speed><course>120.367195</course><hAcc>1.639139</hAcc><vAcc>0.785242</vAcc></extensions></trkpt>
      <trkpt lon="-3.023590" lat="52.720154"><ele>210.926132</ele><time>2022-01-15T12:46:45Z</time><extensions><speed>1.327806</speed><course>120.048615</course><hAcc>1.653834</hAcc><vAcc>0.783663</vAcc></extensions></trkpt>
      <trkpt lon="-3.023572" lat="52.720148"><ele>210.902603</ele><time>2022-01-15T12:46:46Z</time><extensions><speed>1.357984</speed><course>119.554771</course><hAcc>1.653531</hAcc><vAcc>0.782337</vAcc></extensions></trkpt>
      <trkpt lon="-3.023555" lat="52.720142"><ele>210.881180</ele><time>2022-01-15T12:46:47Z</time><extensions><speed>1.383057</speed><course>119.895691</course><hAcc>1.631471</hAcc><vAcc>0.781406</vAcc></extensions></trkpt>
      <trkpt lon="-3.023537" lat="52.720135"><ele>210.859619</ele><time>2022-01-15T12:46:48Z</time><extensions><speed>1.421975</speed><course>120.356438</course><hAcc>1.630054</hAcc><vAcc>0.780975</vAcc></extensions></trkpt>
      <trkpt lon="-3.023519" lat="52.720129"><ele>210.842377</ele><time>2022-01-15T12:46:49Z</time><extensions><speed>1.439609</speed><course>121.800430</course><hAcc>1.622459</hAcc><vAcc>0.781091</vAcc></extensions></trkpt>
      <trkpt lon="-3.023501" lat="52.720122"><ele>210.812149</ele><time>2022-01-15T12:46:50Z</time><extensions><speed>1.475863</speed><course>120.717110</course><hAcc>1.582459</hAcc><vAcc>0.781713</vAcc></extensions></trkpt>
      <trkpt lon="-3.023481" lat="52.720115"><ele>210.797409</ele><time>2022-01-15T12:46:51Z</time><extensions><speed>1.529087</speed><course>118.759407</course><hAcc>1.565067</hAcc><vAcc>0.782771</vAcc></extensions></trkpt>
      <trkpt lon="-3.023461" lat="52.720109"><ele>210.772400</ele><time>2022-01-15T12:46:52Z</time><extensions><speed>1.575496</speed><course>117.130150</course><hAcc>1.580813</hAcc><vAcc>0.784136</vAcc></extensions></trkpt>
      <trkpt lon="-3.023440" lat="52.720103"><ele>210.748154</ele><time>2022-01-15T12:46:53Z</time><extensions><speed>1.589668</speed><course>115.578598</course><hAcc>1.560725</hAcc><vAcc>0.785656</vAcc></extensions></trkpt>
      <trkpt lon="-3.023419" lat="52.720097"><ele>210.720337</ele><time>2022-01-15T12:46:54Z</time><extensions><speed>1.598337</speed><course>112.603104</course><hAcc>1.538601</hAcc><vAcc>0.787167</vAcc></extensions></trkpt>
      <trkpt lon="-3.023397" lat="52.720092"><ele>210.711487</ele><time>2022-01-15T12:46:55Z</time><extensions><speed>1.569785</speed><course>111.515358</course><hAcc>1.507023</hAcc><vAcc>0.788554</vAcc></extensions></trkpt>
      <trkpt lon="-3.023376" lat="52.720086"><ele>210.709427</ele><time>2022-01-15T12:46:56Z</time><extensions><speed>1.543727</speed><course>114.410027</course><hAcc>1.494152</hAcc><vAcc>0.789803</vAcc></extensions></trkpt>
      <trkpt lon="-3.023356" lat="52.720080"><ele>210.683945</ele><time>2022-01-15T12:46:57Z</time><extensions><speed>1.519543</speed><course>119.212242</course><hAcc>1.477605</hAcc><vAcc>0.790775</vAcc></extensions></trkpt>
      <trkpt lon="-3.023337" lat="52.720073"><ele>210.654373</ele><time>2022-01-15T12:46:58Z</time><extensions><speed>1.553616</speed><course>119.435524</course><hAcc>1.498380</hAcc><vAcc>0.791483</vAcc></extensions></trkpt>
      <trkpt lon="-3.023317" lat="52.720067"><ele>210.627609</ele><time>2022-01-15T12:46:59Z</time><extensions><speed>1.547252</speed><course>117.393555</course><hAcc>1.502911</hAcc><vAcc>0.791746</vAcc></extensions></trkpt>
      <trkpt lon="-3.023297" lat="52.720061"><ele>210.602127</ele><time>2022-01-15T12:47:00Z</time><extensions><speed>1.515215</speed><course>117.280388</course><hAcc>1.488334</hAcc><vAcc>0.791628</vAcc></extensions></trkpt>
      <trkpt lon="-3.023277" lat="52.720055"><ele>210.562927</ele><time>2022-01-15T12:47:01Z</time><extensions><speed>1.531492</speed><course>116.049316</course><hAcc>1.501939</hAcc><vAcc>0.791140</vAcc></extensions></trkpt>
      <trkpt lon="-3.023256" lat="52.720049"><ele>210.521637</ele><time>2022-01-15T12:47:02Z</time><extensions><speed>1.572559</speed><course>114.418793</course><hAcc>1.544493</hAcc><vAcc>0.790260</vAcc></extensions></trkpt>
      <trkpt lon="-3.023235" lat="52.720043"><ele>210.491913</ele><time>2022-01-15T12:47:03Z</time><extensions><speed>1.520177</speed><course>112.840904</course><hAcc>1.547345</hAcc><vAcc>0.789005</vAcc></extensions></trkpt>
      <trkpt lon="-3.023216" lat="52.720038"><ele>210.455261</ele><time>2022-01-15T12:47:04Z</time><extensions><speed>1.358519</speed><course>111.897835</course><hAcc>1.525834</hAcc><vAcc>0.787436</vAcc></extensions></trkpt>
      <trkpt lon="-3.023198" lat="52.720034"><ele>210.402252</ele><time>2022-01-15T12:47:05Z</time><extensions><speed>1.216223</speed><course>109.757225</course><hAcc>1.539533</hAcc><vAcc>0.785572</vAcc></extensions></trkpt>
      <trkpt lon="-3.023182" lat="52.720031"><ele>210.351242</ele><time>2022-01-15T12:47:06Z</time><extensions><speed>1.066275</speed><course>107.144890</course><hAcc>1.581618</hAcc><vAcc>0.783445</vAcc></extensions></trkpt>
      <trkpt lon="-3.023167" lat="52.720028"><ele>210.283585</ele><time>2022-01-15T12:47:07Z</time><extensions><speed>1.008194</speed><course>103.690430</course><hAcc>1.601521</hAcc><vAcc>0.781069</vAcc></extensions></trkpt>
      <trkpt lon="-3.023153" lat="52.720026"><ele>210.232224</ele><time>2022-01-15T12:47:08Z</time><extensions><speed>0.981791</speed><course>100.466637</course><hAcc>1.618086</hAcc><vAcc>0.778467</vAcc></extensions></trkpt>
      <trkpt lon="-3.023139" lat="52.720025"><ele>210.172806</ele><time>2022-01-15T12:47:09Z</time><extensions><speed>0.922343</speed><course>97.103485</course><hAcc>1.634658</hAcc><vAcc>0.775674</vAcc></extensions></trkpt>
      <trkpt lon="-3.023126" lat="52.720024"><ele>210.109024</ele><time>2022-01-15T12:47:10Z</time><extensions><speed>0.944259</speed><course>99.429016</course><hAcc>1.681386</hAcc><vAcc>0.772760</vAcc></extensions></trkpt>
      <trkpt lon="-3.023112" lat="52.720022"><ele>210.054321</ele><time>2022-01-15T12:47:11Z</time><extensions><speed>0.933140</speed><course>104.839333</course><hAcc>1.636911</hAcc><vAcc>0.769760</vAcc></extensions></trkpt>
      <trkpt lon="-3.023099" lat="52.720020"><ele>209.994583</ele><time>2022-01-15T12:47:12Z</time><extensions><speed>0.941037</speed><course>110.604530</course><hAcc>1.642814</hAcc><vAcc>0.766661</vAcc></extensions></trkpt>
      <trkpt lon="-3.023086" lat="52.720017"><ele>209.951080</ele><time>2022-01-15T12:47:13Z</time><extensions><speed>0.988644</speed><course>114.741013</course><hAcc>1.681473</hAcc><vAcc>0.763490</vAcc></extensions></trkpt>
      <trkpt lon="-3.023073" lat="52.720013"><ele>209.894211</ele><time>2022-01-15T12:47:14Z</time><extensions><speed>0.954318</speed><course>120.375984</course><hAcc>1.678526</hAcc><vAcc>0.760229</vAcc></extensions></trkpt>
      <trkpt lon="-3.023061" lat="52.720008"><ele>209.843826</ele><time>2022-01-15T12:47:15Z</time><extensions><speed>0.944801</speed><course>124.387001</course><hAcc>1.714450</hAcc><vAcc>0.756884</vAcc></extensions></trkpt>
      <trkpt lon="-3.023050" lat="52.720003"><ele>209.799561</ele><time>2022-01-15T12:47:16Z</time><extensions><speed>0.972278</speed><course>125.047218</course><hAcc>1.777792</hAcc><vAcc>0.753473</vAcc></extensions></trkpt>
      <trkpt lon="-3.023039" lat="52.719999"><ele>209.756744</ele><time>2022-01-15T12:47:17Z</time><extensions><speed>0.761307</speed><course>120.625244</course><hAcc>1.765859</hAcc><vAcc>0.750007</vAcc></extensions></trkpt>
      <trkpt lon="-3.023030" lat="52.719997"><ele>209.719879</ele><time>2022-01-15T12:47:18Z</time><extensions><speed>0.546782</speed><course>105.042038</course><hAcc>1.769051</hAcc><vAcc>0.746609</vAcc></extensions></trkpt>
      <trkpt lon="-3.023023" lat="52.719996"><ele>209.682449</ele><time>2022-01-15T12:47:19Z</time><extensions><speed>0.434564</speed><course>79.986626</course><hAcc>1.790940</hAcc><vAcc>0.743240</vAcc></extensions></trkpt>
      <trkpt lon="-3.023017" lat="52.719998"><ele>209.651428</ele><time>2022-01-15T12:47:20Z</time><extensions><speed>0.472888</speed><course>58.548485</course><hAcc>1.821214</hAcc><vAcc>0.739861</vAcc></extensions></trkpt>
      <trkpt lon="-3.023011" lat="52.720000"><ele>209.621506</ele><time>2022-01-15T12:47:21Z</time><extensions><speed>0.548351</speed><course>49.085461</course><hAcc>1.844233</hAcc><vAcc>0.736604</vAcc></extensions></trkpt>
      <trkpt lon="-3.023005" lat="52.720004"><ele>209.594040</ele><time>2022-01-15T12:47:22Z</time><extensions><speed>0.597137</speed><course>46.549026</course><hAcc>1.858856</hAcc><vAcc>0.733416</vAcc></extensions></trkpt>
      <trkpt lon="-3.022998" lat="52.720008"><ele>209.572647</ele><time>2022-01-15T12:47:23Z</time><extensions><speed>0.633659</speed><course>48.778481</course><hAcc>1.869352</hAcc><vAcc>0.730256</vAcc></extensions></trkpt>
      <trkpt lon="-3.022991" lat="52.720011"><ele>209.546890</ele><time>2022-01-15T12:47:24Z</time><extensions><speed>0.619337</speed><course>51.705166</course><hAcc>1.866474</hAcc><vAcc>0.726843</vAcc></extensions></trkpt>
      <trkpt lon="-3.022984" lat="52.720014"><ele>209.520096</ele><time>2022-01-15T12:47:25Z</time><extensions><speed>0.518259</speed><course>53.147110</course><hAcc>1.858247</hAcc><vAcc>0.723423</vAcc></extensions></trkpt>
      <trkpt lon="-3.022979" lat="52.720017"><ele>209.503403</ele><time>2022-01-15T12:47:26Z</time><extensions><speed>0.344769</speed><course>53.257252</course><hAcc>1.851632</hAcc><vAcc>0.719934</vAcc></extensions></trkpt>
      <trkpt lon="-3.022977" lat="52.720018"><ele>209.483902</ele><time>2022-01-15T12:47:27Z</time><extensions><speed>0.104396</speed><course>35.250954</course><hAcc>1.846367</hAcc><vAcc>0.716529</vAcc></extensions></trkpt>
      <trkpt lon="-3.022976" lat="52.720018"><ele>209.463928</ele><time>2022-01-15T12:47:28Z</time><extensions><speed>0.040519</speed><course>275.772369</course><hAcc>1.839671</hAcc><vAcc>0.713385</vAcc></extensions></trkpt>
      <trkpt lon="-3.022977" lat="52.720018"><ele>209.448425</ele><time>2022-01-15T12:47:29Z</time><extensions><speed>0.097749</speed><course>234.991302</course><hAcc>1.836030</hAcc><vAcc>0.710669</vAcc></extensions></trkpt>
      <trkpt lon="-3.022979" lat="52.720017"><ele>209.437012</ele><time>2022-01-15T12:47:30Z</time><extensions><speed>0.128777</speed><course>219.783096</course><hAcc>1.843513</hAcc><vAcc>0.708645</vAcc></extensions></trkpt>
      <trkpt lon="-3.022980" lat="52.720016"><ele>209.425858</ele><time>2022-01-15T12:47:31Z</time><extensions><speed>0.133516</speed><course>208.319092</course><hAcc>1.864830</hAcc><vAcc>0.707589</vAcc></extensions></trkpt>
      <trkpt lon="-3.022981" lat="52.720015"><ele>209.420532</ele><time>2022-01-15T12:47:32Z</time><extensions><speed>0.139601</speed><course>199.241928</course><hAcc>1.871490</hAcc><vAcc>0.707762</vAcc></extensions></trkpt>
      <trkpt lon="-3.022981" lat="52.720014"><ele>209.411301</ele><time>2022-01-15T12:47:33Z</time><extensions><speed>0.154475</speed><course>194.010925</course><hAcc>1.853183</hAcc><vAcc>0.709346</vAcc></extensions></trkpt>
      <trkpt lon="-3.022982" lat="52.720012"><ele>209.397217</ele><time>2022-01-15T12:47:34Z</time><extensions><speed>0.141803</speed><course>189.450699</course><hAcc>1.846910</hAcc><vAcc>0.712508</vAcc></extensions></trkpt>
      <trkpt lon="-3.022982" lat="52.720011"><ele>209.386597</ele><time>2022-01-15T12:47:35Z</time><extensions><speed>0.135459</speed><course>180.780716</course><hAcc>1.845726</hAcc><vAcc>0.717263</vAcc></extensions></trkpt>
      <trkpt lon="-3.022982" lat="52.720010"><ele>209.381287</ele><time>2022-01-15T12:47:36Z</time><extensions><speed>0.151377</speed><course>169.324615</course><hAcc>1.834714</hAcc><vAcc>0.723402</vAcc></extensions></trkpt>
      <trkpt lon="-3.022982" lat="52.720009"><ele>209.384674</ele><time>2022-01-15T12:47:37Z</time><extensions><speed>0.170089</speed><course>198.053436</course><hAcc>1.833601</hAcc><vAcc>0.730473</vAcc></extensions></trkpt>
      <trkpt lon="-3.022983" lat="52.720007"><ele>209.391449</ele><time>2022-01-15T12:47:38Z</time><extensions><speed>0.181000</speed><course>213.066330</course><hAcc>1.823935</hAcc><vAcc>0.737918</vAcc></extensions></trkpt>
      <trkpt lon="-3.022985" lat="52.720006"><ele>209.400696</ele><time>2022-01-15T12:47:39Z</time><extensions><speed>0.182486</speed><course>222.703247</course><hAcc>1.808496</hAcc><vAcc>0.745262</vAcc></extensions></trkpt>
      <trkpt lon="-3.022987" lat="52.720005"><ele>209.419601</ele><time>2022-01-15T12:47:40Z</time><extensions><speed>0.184692</speed><course>232.602844</course><hAcc>1.794960</hAcc><vAcc>0.752152</vAcc></extensions></trkpt>
      <trkpt lon="-3.022989" lat="52.720004"><ele>209.441727</ele><time>2022-01-15T12:47:41Z</time><extensions><speed>0.186377</speed><course>243.795303</course><hAcc>1.787458</hAcc><vAcc>0.758352</vAcc></extensions></trkpt>
      <trkpt lon="-3.022992" lat="52.720003"><ele>209.466965</ele><time>2022-01-15T12:47:42Z</time><extensions><speed>0.182442</speed><course>252.298965</course><hAcc>1.780829</hAcc><vAcc>0.763740</vAcc></extensions></trkpt>
      <trkpt lon="-3.022994" lat="52.720003"><ele>209.495331</ele><time>2022-01-15T12:47:43Z</time><extensions><speed>0.168396</speed><course>255.243622</course><hAcc>1.770288</hAcc><vAcc>0.768327</vAcc></extensions></trkpt>
      <trkpt lon="-3.022996" lat="52.720003"><ele>209.526932</ele><time>2022-01-15T12:47:44Z</time><extensions><speed>0.141740</speed><course>253.695969</course><hAcc>1.755288</hAcc><vAcc>0.772141</vAcc></extensions></trkpt>
      <trkpt lon="-3.022998" lat="52.720002"><ele>209.561707</ele><time>2022-01-15T12:47:45Z</time><extensions><speed>0.107994</speed><course>251.665375</course><hAcc>1.735950</hAcc><vAcc>0.775252</vAcc></extensions></trkpt>
      <trkpt lon="-3.022999" lat="52.720002"><ele>209.599213</ele><time>2022-01-15T12:47:46Z</time><extensions><speed>0.074732</speed><course>253.580582</course><hAcc>1.708645</hAcc><vAcc>0.777716</vAcc></extensions></trkpt>
      <trkpt lon="-3.023000" lat="52.720002"><ele>209.638626</ele><time>2022-01-15T12:47:47Z</time><extensions><speed>0.049922</speed><course>269.036011</course><hAcc>1.684316</hAcc><vAcc>0.779584</vAcc></extensions></trkpt>
      <trkpt lon="-3.023001" lat="52.720002"><ele>209.656876</ele><time>2022-01-15T12:47:48Z</time><extensions><speed>0.039995</speed><course>303.948456</course><hAcc>1.684230</hAcc><vAcc>0.780985</vAcc></extensions></trkpt>
      <trkpt lon="-3.023001" lat="52.720002"><ele>209.668671</ele><time>2022-01-15T12:47:49Z</time><extensions><speed>0.048070</speed><course>324.998596</course><hAcc>1.681216</hAcc><vAcc>0.781949</vAcc></extensions></trkpt>
      <trkpt lon="-3.023002" lat="52.720003"><ele>209.671478</ele><time>2022-01-15T12:47:50Z</time><extensions><speed>0.048986</speed><course>334.834137</course><hAcc>1.690378</hAcc><vAcc>0.782429</vAcc></extensions></trkpt>
      <trkpt lon="-3.023002" lat="52.720003"><ele>209.674225</ele><time>2022-01-15T12:47:51Z</time><extensions><speed>0.038658</speed><course>345.191071</course><hAcc>1.707638</hAcc><vAcc>0.782592</vAcc></extensions></trkpt>
      <trkpt lon="-3.023002" lat="52.720004"><ele>209.659210</ele><time>2022-01-15T12:47:52Z</time><extensions><speed>0.067435</speed><course>357.002228</course><hAcc>1.667252</hAcc><vAcc>0.782337</vAcc></extensions></trkpt>
      <trkpt lon="-3.023002" lat="52.720004"><ele>209.633423</ele><time>2022-01-15T12:47:53Z</time><extensions><speed>0.082874</speed><course>7.746606</course><hAcc>1.670336</hAcc><vAcc>0.781769</vAcc></extensions></trkpt>
      <trkpt lon="-3.023001" lat="52.720005"><ele>209.597549</ele><time>2022-01-15T12:47:54Z</time><extensions><speed>0.100240</speed><course>18.974924</course><hAcc>1.700752</hAcc><vAcc>0.780913</vAcc></extensions></trkpt>
      <trkpt lon="-3.023001" lat="52.720006"><ele>209.550735</ele><time>2022-01-15T12:47:55Z</time><extensions><speed>0.121987</speed><course>29.228762</course><hAcc>1.732178</hAcc><vAcc>0.779751</vAcc></extensions></trkpt>
      <trkpt lon="-3.023000" lat="52.720007"><ele>209.507889</ele><time>2022-01-15T12:47:56Z</time><extensions><speed>0.151110</speed><course>39.254959</course><hAcc>1.754536</hAcc><vAcc>0.778349</vAcc></extensions></trkpt>
      <trkpt lon="-3.022998" lat="52.720008"><ele>209.459320</ele><time>2022-01-15T12:47:57Z</time><extensions><speed>0.175850</speed><course>52.322636</course><hAcc>1.775081</hAcc><vAcc>0.776577</vAcc></extensions></trkpt>
      <trkpt lon="-3.022995" lat="52.720009"><ele>209.447815</ele><time>2022-01-15T12:47:58Z</time><extensions><speed>0.195785</speed><course>77.323463</course><hAcc>1.792497</hAcc><vAcc>0.774380</vAcc></extensions></trkpt>
      <trkpt lon="-3.022992" lat="52.720008"><ele>209.411453</ele><time>2022-01-15T12:47:59Z</time><extensions><speed>0.295851</speed><course>110.559921</course><hAcc>1.800656</hAcc><vAcc>0.771783</vAcc></extensions></trkpt>
      <trkpt lon="-3.022987" lat="52.720006"><ele>209.392090</ele><time>2022-01-15T12:48:00Z</time><extensions><speed>0.536985</speed><course>129.162811</course><hAcc>1.803165</hAcc><vAcc>0.768760</vAcc></extensions></trkpt>
      <trkpt lon="-3.022979" lat="52.720002"><ele>209.342957</ele><time>2022-01-15T12:48:01Z</time><extensions><speed>0.904617</speed><course>136.075272</course><hAcc>1.805378</hAcc><vAcc>0.765257</vAcc></extensions></trkpt>
      <trkpt lon="-3.022969" lat="52.719995"><ele>209.322769</ele><time>2022-01-15T12:48:02Z</time><extensions><speed>1.142274</speed><course>139.321594</course><hAcc>1.826074</hAcc><vAcc>0.761339</vAcc></extensions></trkpt>
      <trkpt lon="-3.022958" lat="52.719987"><ele>209.290009</ele><time>2022-01-15T12:48:03Z</time><extensions><speed>1.290014</speed><course>143.693878</course><hAcc>1.845461</hAcc><vAcc>0.757019</vAcc></extensions></trkpt>
      <trkpt lon="-3.022947" lat="52.719977"><ele>209.265182</ele><time>2022-01-15T12:48:04Z</time><extensions><speed>1.231483</speed><course>148.547516</course><hAcc>1.852147</hAcc><vAcc>0.752397</vAcc></extensions></trkpt>
      <trkpt lon="-3.022939" lat="52.719968"><ele>209.258301</ele><time>2022-01-15T12:48:05Z</time><extensions><speed>1.068946</speed><course>151.513092</course><hAcc>1.849548</hAcc><vAcc>0.747396</vAcc></extensions></trkpt>
      <trkpt lon="-3.022932" lat="52.719960"><ele>209.246002</ele><time>2022-01-15T12:48:06Z</time><extensions><speed>0.885154</speed><course>151.967743</course><hAcc>1.850083</hAcc><vAcc>0.742010</vAcc></extensions></trkpt>
      <trkpt lon="-3.022925" lat="52.719954"><ele>209.237686</ele><time>2022-01-15T12:48:07Z</time><extensions><speed>0.796015</speed><course>147.493210</course><hAcc>1.865237</hAcc><vAcc>0.736233</vAcc></extensions></trkpt>
      <trkpt lon="-3.022918" lat="52.719949"><ele>209.232727</ele><time>2022-01-15T12:48:08Z</time><extensions><speed>0.757966</speed><course>134.887726</course><hAcc>1.877104</hAcc><vAcc>0.730181</vAcc></extensions></trkpt>
      <trkpt lon="-3.022909" lat="52.719944"><ele>209.230423</ele><time>2022-01-15T12:48:09Z</time><extensions><speed>0.798582</speed><course>120.221390</course><hAcc>1.879382</hAcc><vAcc>0.723983</vAcc></extensions></trkpt>
      <trkpt lon="-3.022898" lat="52.719941"><ele>209.223022</ele><time>2022-01-15T12:48:10Z</time><extensions><speed>0.811352</speed><course>110.530075</course><hAcc>1.892765</hAcc><vAcc>0.717707</vAcc></extensions></trkpt>
      <trkpt lon="-3.022887" lat="52.719939"><ele>209.214874</ele><time>2022-01-15T12:48:11Z</time><extensions><speed>0.781462</speed><course>105.047005</course><hAcc>1.917747</hAcc><vAcc>0.711490</vAcc></extensions></trkpt>
      <trkpt lon="-3.022876" lat="52.719937"><ele>209.203629</ele><time>2022-01-15T12:48:12Z</time><extensions><speed>0.741635</speed><course>101.369637</course><hAcc>1.925603</hAcc><vAcc>0.705792</vAcc></extensions></trkpt>
      <trkpt lon="-3.022864" lat="52.719936"><ele>209.194580</ele><time>2022-01-15T12:48:13Z</time><extensions><speed>0.921770</speed><course>103.184143</course><hAcc>1.903212</hAcc><vAcc>0.700767</vAcc></extensions></trkpt>
      <trkpt lon="-3.022850" lat="52.719934"><ele>209.186066</ele><time>2022-01-15T12:48:14Z</time><extensions><speed>1.030642</speed><course>103.818825</course><hAcc>1.884542</hAcc><vAcc>0.696520</vAcc></extensions></trkpt>
      <trkpt lon="-3.022835" lat="52.719932"><ele>209.166138</ele><time>2022-01-15T12:48:15Z</time><extensions><speed>1.071424</speed><course>104.593536</course><hAcc>1.877410</hAcc><vAcc>0.693112</vAcc></extensions></trkpt>
      <trkpt lon="-3.022819" lat="52.719929"><ele>209.145447</ele><time>2022-01-15T12:48:16Z</time><extensions><speed>1.059080</speed><course>108.181854</course><hAcc>1.881781</hAcc><vAcc>0.690571</vAcc></extensions></trkpt>
      <trkpt lon="-3.022804" lat="52.719926"><ele>209.129929</ele><time>2022-01-15T12:48:17Z</time><extensions><speed>1.110213</speed><course>109.693497</course><hAcc>1.878698</hAcc><vAcc>0.688920</vAcc></extensions></trkpt>
      <trkpt lon="-3.022789" lat="52.719922"><ele>209.110168</ele><time>2022-01-15T12:48:18Z</time><extensions><speed>1.049703</speed><course>111.545723</course><hAcc>1.901604</hAcc><vAcc>0.688229</vAcc></extensions></trkpt>
      <trkpt lon="-3.022774" lat="52.719919"><ele>209.089615</ele><time>2022-01-15T12:48:19Z</time><extensions><speed>1.097879</speed><course>112.427826</course><hAcc>1.896762</hAcc><vAcc>0.688564</vAcc></extensions></trkpt>
      <trkpt lon="-3.022758" lat="52.719915"><ele>209.064484</ele><time>2022-01-15T12:48:20Z</time><extensions><speed>1.254854</speed><course>111.392448</course><hAcc>1.862958</hAcc><vAcc>0.690010</vAcc></extensions></trkpt>
      <trkpt lon="-3.022740" lat="52.719910"><ele>209.052170</ele><time>2022-01-15T12:48:21Z</time><extensions><speed>1.362956</speed><course>110.953957</course><hAcc>1.850551</hAcc><vAcc>0.692558</vAcc></extensions></trkpt>
      <trkpt lon="-3.022721" lat="52.719906"><ele>209.037140</ele><time>2022-01-15T12:48:22Z</time><extensions><speed>1.386683</speed><course>111.587296</course><hAcc>1.862544</hAcc><vAcc>0.696021</vAcc></extensions></trkpt>
      <trkpt lon="-3.022702" lat="52.719901"><ele>209.017441</ele><time>2022-01-15T12:48:23Z</time><extensions><speed>1.355581</speed><course>111.790962</course><hAcc>1.873542</hAcc><vAcc>0.700071</vAcc></extensions></trkpt>
      <trkpt lon="-3.022683" lat="52.719897"><ele>209.002121</ele><time>2022-01-15T12:48:24Z</time><extensions><speed>1.343850</speed><course>111.852684</course><hAcc>1.870921</hAcc><vAcc>0.704272</vAcc></extensions></trkpt>
      <trkpt lon="-3.022664" lat="52.719892"><ele>208.986954</ele><time>2022-01-15T12:48:25Z</time><extensions><speed>1.368327</speed><course>112.330109</course><hAcc>1.862045</hAcc><vAcc>0.708221</vAcc></extensions></trkpt>
      <trkpt lon="-3.022645" lat="52.719888"><ele>208.966858</ele><time>2022-01-15T12:48:26Z</time><extensions><speed>1.383247</speed><course>111.203590</course><hAcc>1.850349</hAcc><vAcc>0.711684</vAcc></extensions></trkpt>
      <trkpt lon="-3.022627" lat="52.719884"><ele>208.957214</ele><time>2022-01-15T12:48:27Z</time><extensions><speed>1.338443</speed><course>109.067551</course><hAcc>1.841797</hAcc><vAcc>0.714856</vAcc></extensions></trkpt>
      <trkpt lon="-3.022608" lat="52.719880"><ele>208.938995</ele><time>2022-01-15T12:48:28Z</time><extensions><speed>1.304152</speed><course>107.968819</course><hAcc>1.845641</hAcc><vAcc>0.717538</vAcc></extensions></trkpt>
      <trkpt lon="-3.022589" lat="52.719876"><ele>208.903214</ele><time>2022-01-15T12:48:29Z</time><extensions><speed>1.323632</speed><course>107.543045</course><hAcc>1.852214</hAcc><vAcc>0.719597</vAcc></extensions></trkpt>
      <trkpt lon="-3.022570" lat="52.719873"><ele>208.878143</ele><time>2022-01-15T12:48:30Z</time><extensions><speed>1.372267</speed><course>106.739120</course><hAcc>1.846374</hAcc><vAcc>0.721008</vAcc></extensions></trkpt>
      <trkpt lon="-3.022550" lat="52.719869"><ele>208.846008</ele><time>2022-01-15T12:48:31Z</time><extensions><speed>1.399485</speed><course>105.788185</course><hAcc>1.846403</hAcc><vAcc>0.721749</vAcc></extensions></trkpt>
      <trkpt lon="-3.022530" lat="52.719866"><ele>208.834518</ele><time>2022-01-15T12:48:32Z</time><extensions><speed>1.478141</speed><course>104.991394</course><hAcc>1.845215</hAcc><vAcc>0.721820</vAcc></extensions></trkpt>
      <trkpt lon="-3.022508" lat="52.719862"><ele>208.814667</ele><time>2022-01-15T12:48:33Z</time><extensions><speed>1.495101</speed><course>104.344566</course><hAcc>1.848228</hAcc><vAcc>0.721233</vAcc></extensions></trkpt>
      <trkpt lon="-3.022487" lat="52.719859"><ele>208.792603</ele><time>2022-01-15T12:48:34Z</time><extensions><speed>1.434692</speed><course>105.481934</course><hAcc>1.852046</hAcc><vAcc>0.719989</vAcc></extensions></trkpt>
      <trkpt lon="-3.022467" lat="52.719855"><ele>208.768829</ele><time>2022-01-15T12:48:35Z</time><extensions><speed>1.400518</speed><course>107.786858</course><hAcc>1.855128</hAcc><vAcc>0.717974</vAcc></extensions></trkpt>
      <trkpt lon="-3.022447" lat="52.719851"><ele>208.748306</ele><time>2022-01-15T12:48:36Z</time><extensions><speed>1.415627</speed><course>110.014641</course><hAcc>1.854301</hAcc><vAcc>0.715153</vAcc></extensions></trkpt>
      <trkpt lon="-3.022428" lat="52.719847"><ele>208.727203</ele><time>2022-01-15T12:48:37Z</time><extensions><speed>1.426424</speed><course>110.568581</course><hAcc>1.862556</hAcc><vAcc>0.711368</vAcc></extensions></trkpt>
      <trkpt lon="-3.022408" lat="52.719843"><ele>208.710770</ele><time>2022-01-15T12:48:38Z</time><extensions><speed>1.419161</speed><course>107.241104</course><hAcc>1.863843</hAcc><vAcc>0.706541</vAcc></extensions></trkpt>
      <trkpt lon="-3.022388" lat="52.719839"><ele>208.694687</ele><time>2022-01-15T12:48:39Z</time><extensions><speed>1.366263</speed><course>104.038376</course><hAcc>1.865558</hAcc><vAcc>0.700569</vAcc></extensions></trkpt>
      <trkpt lon="-3.022369" lat="52.719837"><ele>208.683487</ele><time>2022-01-15T12:48:40Z</time><extensions><speed>1.268806</speed><course>101.454430</course><hAcc>1.886361</hAcc><vAcc>0.693449</vAcc></extensions></trkpt>
      <trkpt lon="-3.022351" lat="52.719835"><ele>208.675018</ele><time>2022-01-15T12:48:41Z</time><extensions><speed>1.196650</speed><course>98.500610</course><hAcc>1.903346</hAcc><vAcc>0.685395</vAcc></extensions></trkpt>
      <trkpt lon="-3.022333" lat="52.719833"><ele>208.666611</ele><time>2022-01-15T12:48:42Z</time><extensions><speed>1.170101</speed><course>96.099365</course><hAcc>1.899749</hAcc><vAcc>0.676685</vAcc></extensions></trkpt>
      <trkpt lon="-3.022316" lat="52.719832"><ele>208.652664</ele><time>2022-01-15T12:48:43Z</time><extensions><speed>1.132512</speed><course>95.684952</course><hAcc>1.901871</hAcc><vAcc>0.667679</vAcc></extensions></trkpt>
      <trkpt lon="-3.022300" lat="52.719831"><ele>208.638245</ele><time>2022-01-15T12:48:44Z</time><extensions><speed>1.066187</speed><course>97.306503</course><hAcc>1.928886</hAcc><vAcc>0.658788</vAcc></extensions></trkpt>
      <trkpt lon="-3.022285" lat="52.719830"><ele>208.626694</ele><time>2022-01-15T12:48:45Z</time><extensions><speed>0.946985</speed><course>101.040283</course><hAcc>1.951725</hAcc><vAcc>0.650422</vAcc></extensions></trkpt>
      <trkpt lon="-3.022270" lat="52.719827"><ele>208.618942</ele><time>2022-01-15T12:48:46Z</time><extensions><speed>1.206345</speed><course>104.574257</course><hAcc>1.932844</hAcc><vAcc>0.642990</vAcc></extensions></trkpt>
      <trkpt lon="-3.022252" lat="52.719824"><ele>208.608627</ele><time>2022-01-15T12:48:47Z</time><extensions><speed>1.329785</speed><course>106.328850</course><hAcc>1.934810</hAcc><vAcc>0.636861</vAcc></extensions></trkpt>
      <trkpt lon="-3.022233" lat="52.719821"><ele>208.605469</ele><time>2022-01-15T12:48:48Z</time><extensions><speed>1.356755</speed><course>106.019798</course><hAcc>1.954542</hAcc><vAcc>0.632315</vAcc></extensions></trkpt>
      <trkpt lon="-3.022213" lat="52.719817"><ele>208.595642</ele><time>2022-01-15T12:48:49Z</time><extensions><speed>1.431639</speed><course>106.459694</course><hAcc>1.931353</hAcc><vAcc>0.629400</vAcc></extensions></trkpt>
      <trkpt lon="-3.022192" lat="52.719814"><ele>208.578827</ele><time>2022-01-15T12:48:50Z</time><extensions><speed>1.456153</speed><course>105.986679</course><hAcc>1.914122</hAcc><vAcc>0.628024</vAcc></extensions></trkpt>
      <trkpt lon="-3.022172" lat="52.719810"><ele>208.573715</ele><time>2022-01-15T12:48:51Z</time><extensions><speed>1.408748</speed><course>104.429047</course><hAcc>1.915079</hAcc><vAcc>0.627878</vAcc></extensions></trkpt>
      <trkpt lon="-3.022152" lat="52.719807"><ele>208.573471</ele><time>2022-01-15T12:48:52Z</time><extensions><speed>1.372299</speed><course>104.865341</course><hAcc>1.910287</hAcc><vAcc>0.628505</vAcc></extensions></trkpt>
      <trkpt lon="-3.022132" lat="52.719804"><ele>208.567368</ele><time>2022-01-15T12:48:53Z</time><extensions><speed>1.322822</speed><course>106.195969</course><hAcc>1.893943</hAcc><vAcc>0.629471</vAcc></extensions></trkpt>
      <trkpt lon="-3.022114" lat="52.719801"><ele>208.565002</ele><time>2022-01-15T12:48:54Z</time><extensions><speed>1.281982</speed><course>107.148727</course><hAcc>1.902837</hAcc><vAcc>0.630415</vAcc></extensions></trkpt>
      <trkpt lon="-3.022096" lat="52.719797"><ele>208.561432</ele><time>2022-01-15T12:48:55Z</time><extensions><speed>1.259133</speed><course>107.389847</course><hAcc>1.927344</hAcc><vAcc>0.631112</vAcc></extensions></trkpt>
      <trkpt lon="-3.022077" lat="52.719793"><ele>208.561386</ele><time>2022-01-15T12:48:56Z</time><extensions><speed>1.308922</speed><course>109.004280</course><hAcc>1.914688</hAcc><vAcc>0.631445</vAcc></extensions></trkpt>
      <trkpt lon="-3.022059" lat="52.719789"><ele>208.562271</ele><time>2022-01-15T12:48:57Z</time><extensions><speed>1.337697</speed><course>110.219215</course><hAcc>1.913328</hAcc><vAcc>0.631388</vAcc></extensions></trkpt>
      <trkpt lon="-3.022040" lat="52.719785"><ele>208.563354</ele><time>2022-01-15T12:48:58Z</time><extensions><speed>1.315973</speed><course>110.497231</course><hAcc>1.926606</hAcc><vAcc>0.630916</vAcc></extensions></trkpt>
      <trkpt lon="-3.022022" lat="52.719781"><ele>208.558273</ele><time>2022-01-15T12:48:59Z</time><extensions><speed>1.299108</speed><course>110.134270</course><hAcc>1.940952</hAcc><vAcc>0.630074</vAcc></extensions></trkpt>
      <trkpt lon="-3.022004" lat="52.719777"><ele>208.550766</ele><time>2022-01-15T12:49:00Z</time><extensions><speed>1.235808</speed><course>108.804916</course><hAcc>1.974571</hAcc><vAcc>0.629019</vAcc></extensions></trkpt>
      <trkpt lon="-3.021987" lat="52.719774"><ele>208.538559</ele><time>2022-01-15T12:49:01Z</time><extensions><speed>1.250194</speed><course>107.326996</course><hAcc>1.985982</hAcc><vAcc>0.627890</vAcc></extensions></trkpt>
      <trkpt lon="-3.021969" lat="52.719771"><ele>208.528046</ele><time>2022-01-15T12:49:02Z</time><extensions><speed>1.234736</speed><course>105.929695</course><hAcc>1.996330</hAcc><vAcc>0.626832</vAcc></extensions></trkpt>
      <trkpt lon="-3.021952" lat="52.719768"><ele>208.515442</ele><time>2022-01-15T12:49:03Z</time><extensions><speed>1.205339</speed><course>105.945343</course><hAcc>2.005197</hAcc><vAcc>0.625882</vAcc></extensions></trkpt>
      <trkpt lon="-3.021935" lat="52.719765"><ele>208.502213</ele><time>2022-01-15T12:49:04Z</time><extensions><speed>1.209106</speed><course>107.289024</course><hAcc>2.006189</hAcc><vAcc>0.625156</vAcc></extensions></trkpt>
      <trkpt lon="-3.021918" lat="52.719761"><ele>208.488251</ele><time>2022-01-15T12:49:05Z</time><extensions><speed>1.200118</speed><course>110.091751</course><hAcc>2.013351</hAcc><vAcc>0.624576</vAcc></extensions></trkpt>
      <trkpt lon="-3.021901" lat="52.719757"><ele>208.474808</ele><time>2022-01-15T12:49:06Z</time><extensions><speed>1.214853</speed><course>110.299873</course><hAcc>2.031789</hAcc><vAcc>0.623975</vAcc></extensions></trkpt>
      <trkpt lon="-3.021884" lat="52.719754"><ele>208.460632</ele><time>2022-01-15T12:49:07Z</time><extensions><speed>1.212196</speed><course>109.774590</course><hAcc>2.054489</hAcc><vAcc>0.623187</vAcc></extensions></trkpt>
      <trkpt lon="-3.021867" lat="52.719750"><ele>208.443588</ele><time>2022-01-15T12:49:08Z</time><extensions><speed>1.227677</speed><course>108.259171</course><hAcc>2.065621</hAcc><vAcc>0.622138</vAcc></extensions></trkpt>
      <trkpt lon="-3.021850" lat="52.719747"><ele>208.424652</ele><time>2022-01-15T12:49:09Z</time><extensions><speed>1.231543</speed><course>106.024330</course><hAcc>2.077972</hAcc><vAcc>0.620933</vAcc></extensions></trkpt>
      <trkpt lon="-3.021832" lat="52.719744"><ele>208.406845</ele><time>2022-01-15T12:49:10Z</time><extensions><speed>1.226769</speed><course>102.050377</course><hAcc>2.083888</hAcc><vAcc>0.619865</vAcc></extensions></trkpt>
      <trkpt lon="-3.021814" lat="52.719742"><ele>208.393661</ele><time>2022-01-15T12:49:11Z</time><extensions><speed>1.243917</speed><course>98.755096</course><hAcc>2.088944</hAcc><vAcc>0.619442</vAcc></extensions></trkpt>
      <trkpt lon="-3.021795" lat="52.719740"><ele>208.381393</ele><time>2022-01-15T12:49:12Z</time><extensions><speed>1.289570</speed><course>97.146484</course><hAcc>2.088169</hAcc><vAcc>0.620249</vAcc></extensions></trkpt>
      <trkpt lon="-3.021776" lat="52.719739"><ele>208.370636</ele><time>2022-01-15T12:49:13Z</time><extensions><speed>1.302763</speed><course>96.026413</course><hAcc>2.068831</hAcc><vAcc>0.622811</vAcc></extensions></trkpt>
      <trkpt lon="-3.021757" lat="52.719738"><ele>208.363800</ele><time>2022-01-15T12:49:14Z</time><extensions><speed>1.243313</speed><course>96.130692</course><hAcc>2.032141</hAcc><vAcc>0.627374</vAcc></extensions></trkpt>
      <trkpt lon="-3.021739" lat="52.719736"><ele>208.360062</ele><time>2022-01-15T12:49:15Z</time><extensions><speed>1.188301</speed><course>98.963943</course><hAcc>1.981607</hAcc><vAcc>0.633890</vAcc></extensions></trkpt>
      <trkpt lon="-3.021720" lat="52.719734"><ele>208.353378</ele><time>2022-01-15T12:49:16Z</time><extensions><speed>1.366405</speed><course>102.897377</course><hAcc>1.916683</hAcc><vAcc>0.641924</vAcc></extensions></trkpt>
      <trkpt lon="-3.021700" lat="52.719731"><ele>208.354126</ele><time>2022-01-15T12:49:17Z</time><extensions><speed>1.390125</speed><course>106.865349</course><hAcc>1.881932</hAcc><vAcc>0.651017</vAcc></extensions></trkpt>
      <trkpt lon="-3.021680" lat="52.719727"><ele>208.354538</ele><time>2022-01-15T12:49:18Z</time><extensions><speed>1.427726</speed><course>110.422493</course><hAcc>1.854200</hAcc><vAcc>0.660631</vAcc></extensions></trkpt>
      <trkpt lon="-3.021661" lat="52.719722"><ele>208.353760</ele><time>2022-01-15T12:49:19Z</time><extensions><speed>1.342574</speed><course>113.671661</course><hAcc>1.843792</hAcc><vAcc>0.670338</vAcc></extensions></trkpt>
      <trkpt lon="-3.021644" lat="52.719717"><ele>208.355118</ele><time>2022-01-15T12:49:20Z</time><extensions><speed>1.211812</speed><course>115.494080</course><hAcc>1.843306</hAcc><vAcc>0.679925</vAcc></extensions></trkpt>
      <trkpt lon="-3.021628" lat="52.719712"><ele>208.362137</ele><time>2022-01-15T12:49:21Z</time><extensions><speed>1.242849</speed><course>116.972778</course><hAcc>1.814972</hAcc><vAcc>0.689194</vAcc></extensions></trkpt>
      <trkpt lon="-3.021611" lat="52.719707"><ele>208.368881</ele><time>2022-01-15T12:49:22Z</time><extensions><speed>1.200666</speed><course>117.408539</course><hAcc>1.818016</hAcc><vAcc>0.698016</vAcc></extensions></trkpt>
      <trkpt lon="-3.021595" lat="52.719702"><ele>208.377853</ele><time>2022-01-15T12:49:23Z</time><extensions><speed>1.232257</speed><course>115.970474</course><hAcc>1.814100</hAcc><vAcc>0.706314</vAcc></extensions></trkpt>
      <trkpt lon="-3.021579" lat="52.719698"><ele>208.382645</ele><time>2022-01-15T12:49:24Z</time><extensions><speed>1.269281</speed><course>114.597092</course><hAcc>1.823443</hAcc><vAcc>0.714033</vAcc></extensions></trkpt>
      <trkpt lon="-3.021561" lat="52.719693"><ele>208.392639</ele><time>2022-01-15T12:49:25Z</time><extensions><speed>1.297947</speed><course>113.572174</course><hAcc>1.840327</hAcc><vAcc>0.721065</vAcc></extensions></trkpt>
      <trkpt lon="-3.021543" lat="52.719688"><ele>208.393250</ele><time>2022-01-15T12:49:26Z</time><extensions><speed>1.369213</speed><course>111.463768</course><hAcc>1.850097</hAcc><vAcc>0.727425</vAcc></extensions></trkpt>
      <trkpt lon="-3.021523" lat="52.719684"><ele>208.394699</ele><time>2022-01-15T12:49:27Z</time><extensions><speed>1.424742</speed><course>108.865463</course><hAcc>1.861982</hAcc><vAcc>0.733110</vAcc></extensions></trkpt>
      <trkpt lon="-3.021503" lat="52.719680"><ele>208.390747</ele><time>2022-01-15T12:49:28Z</time><extensions><speed>1.503859</speed><course>105.430435</course><hAcc>1.860919</hAcc><vAcc>0.738128</vAcc></extensions></trkpt>
      <trkpt lon="-3.021481" lat="52.719677"><ele>208.398026</ele><time>2022-01-15T12:49:29Z</time><extensions><speed>1.556349</speed><course>103.006828</course><hAcc>1.854789</hAcc><vAcc>0.742401</vAcc></extensions></trkpt>
      <trkpt lon="-3.021458" lat="52.719674"><ele>208.413269</ele><time>2022-01-15T12:49:30Z</time><extensions><speed>1.552044</speed><course>102.107475</course><hAcc>1.851663</hAcc><vAcc>0.745962</vAcc></extensions></trkpt>
      <trkpt lon="-3.021436" lat="52.719671"><ele>208.430420</ele><time>2022-01-15T12:49:31Z</time><extensions><speed>1.489453</speed><course>101.537071</course><hAcc>1.852304</hAcc><vAcc>0.748703</vAcc></extensions></trkpt>
      <trkpt lon="-3.021415" lat="52.719668"><ele>208.436646</ele><time>2022-01-15T12:49:32Z</time><extensions><speed>1.416961</speed><course>100.593452</course><hAcc>1.855234</hAcc><vAcc>0.750563</vAcc></extensions></trkpt>
      <trkpt lon="-3.021395" lat="52.719666"><ele>208.444656</ele><time>2022-01-15T12:49:33Z</time><extensions><speed>1.336452</speed><course>98.155876</course><hAcc>1.853344</hAcc><vAcc>0.751588</vAcc></extensions></trkpt>
      <trkpt lon="-3.021376" lat="52.719665"><ele>208.453781</ele><time>2022-01-15T12:49:34Z</time><extensions><speed>1.283154</speed><course>95.948265</course><hAcc>1.846581</hAcc><vAcc>0.751795</vAcc></extensions></trkpt>
      <trkpt lon="-3.021357" lat="52.719664"><ele>208.467545</ele><time>2022-01-15T12:49:35Z</time><extensions><speed>1.270409</speed><course>94.771675</course><hAcc>1.829205</hAcc><vAcc>0.751406</vAcc></extensions></trkpt>
      <trkpt lon="-3.021338" lat="52.719663"><ele>208.470840</ele><time>2022-01-15T12:49:36Z</time><extensions><speed>1.267740</speed><course>95.248955</course><hAcc>1.824884</hAcc><vAcc>0.750525</vAcc></extensions></trkpt>
      <trkpt lon="-3.021319" lat="52.719662"><ele>208.479828</ele><time>2022-01-15T12:49:37Z</time><extensions><speed>1.257626</speed><course>96.644913</course><hAcc>1.845161</hAcc><vAcc>0.749355</vAcc></extensions></trkpt>
      <trkpt lon="-3.021301" lat="52.719660"><ele>208.492065</ele><time>2022-01-15T12:49:38Z</time><extensions><speed>1.221933</speed><course>98.426506</course><hAcc>1.871504</hAcc><vAcc>0.748042</vAcc></extensions></trkpt>
      <trkpt lon="-3.021282" lat="52.719658"><ele>208.520416</ele><time>2022-01-15T12:49:39Z</time><extensions><speed>1.303704</speed><course>100.496170</course><hAcc>1.849748</hAcc><vAcc>0.746703</vAcc></extensions></trkpt>
      <trkpt lon="-3.021263" lat="52.719656"><ele>208.548523</ele><time>2022-01-15T12:49:40Z</time><extensions><speed>1.410538</speed><course>103.806870</course><hAcc>1.823353</hAcc><vAcc>0.745531</vAcc></extensions></trkpt>
      <trkpt lon="-3.021242" lat="52.719652"><ele>208.575806</ele><time>2022-01-15T12:49:41Z</time><extensions><speed>1.483482</speed><course>107.490585</course><hAcc>1.812342</hAcc><vAcc>0.744673</vAcc></extensions></trkpt>
      <trkpt lon="-3.021221" lat="52.719648"><ele>208.600967</ele><time>2022-01-15T12:49:42Z</time><extensions><speed>1.529142</speed><course>110.499840</course><hAcc>1.813664</hAcc><vAcc>0.744279</vAcc></extensions></trkpt>
      <trkpt lon="-3.021199" lat="52.719642"><ele>208.627258</ele><time>2022-01-15T12:49:43Z</time><extensions><speed>1.527860</speed><course>113.637161</course><hAcc>1.802781</hAcc><vAcc>0.744421</vAcc></extensions></trkpt>
      <trkpt lon="-3.021179" lat="52.719637"><ele>208.659531</ele><time>2022-01-15T12:49:44Z</time><extensions><speed>1.531556</speed><course>115.422455</course><hAcc>1.795208</hAcc><vAcc>0.745159</vAcc></extensions></trkpt>
      <trkpt lon="-3.021158" lat="52.719631"><ele>208.696381</ele><time>2022-01-15T12:49:45Z</time><extensions><speed>1.557355</speed><course>115.269287</course><hAcc>1.795523</hAcc><vAcc>0.746450</vAcc></extensions></trkpt>
      <trkpt lon="-3.021137" lat="52.719625"><ele>208.726959</ele><time>2022-01-15T12:49:46Z</time><extensions><speed>1.484333</speed><course>114.808617</course><hAcc>1.800179</hAcc><vAcc>0.748155</vAcc></extensions></trkpt>
      <trkpt lon="-3.021118" lat="52.719619"><ele>208.769226</ele><time>2022-01-15T12:49:47Z</time><extensions><speed>1.431803</speed><course>114.291389</course><hAcc>1.769663</hAcc><vAcc>0.750124</vAcc></extensions></trkpt>
      <trkpt lon="-3.021099" lat="52.719614"><ele>208.808899</ele><time>2022-01-15T12:49:48Z</time><extensions><speed>1.318051</speed><course>113.736588</course><hAcc>1.768725</hAcc><vAcc>0.752222</vAcc></extensions></trkpt>
      <trkpt lon="-3.021081" lat="52.719610"><ele>208.862610</ele><time>2022-01-15T12:49:49Z</time><extensions><speed>1.303798</speed><course>113.534889</course><hAcc>1.780083</hAcc><vAcc>0.754278</vAcc></extensions></trkpt>
      <trkpt lon="-3.021063" lat="52.719605"><ele>208.901749</ele><time>2022-01-15T12:49:50Z</time><extensions><speed>1.345548</speed><course>114.703934</course><hAcc>1.778179</hAcc><vAcc>0.756204</vAcc></extensions></trkpt>
      <trkpt lon="-3.021045" lat="52.719599"><ele>208.915878</ele><time>2022-01-15T12:49:51Z</time><extensions><speed>1.357820</speed><course>116.655624</course><hAcc>1.785957</hAcc><vAcc>0.757921</vAcc></extensions></trkpt>
      <trkpt lon="-3.021027" lat="52.719594"><ele>208.945007</ele><time>2022-01-15T12:49:52Z</time><extensions><speed>1.422975</speed><course>118.860794</course><hAcc>1.788040</hAcc><vAcc>0.759359</vAcc></extensions></trkpt>
      <trkpt lon="-3.021009" lat="52.719587"><ele>208.977203</ele><time>2022-01-15T12:49:53Z</time><extensions><speed>1.384972</speed><course>120.538536</course><hAcc>1.798575</hAcc><vAcc>0.760435</vAcc></extensions></trkpt>
      <trkpt lon="-3.020991" lat="52.719581"><ele>209.010849</ele><time>2022-01-15T12:49:54Z</time><extensions><speed>1.431756</speed><course>121.489555</course><hAcc>1.801711</hAcc><vAcc>0.761128</vAcc></extensions></trkpt>
      <trkpt lon="-3.020972" lat="52.719574"><ele>209.046844</ele><time>2022-01-15T12:49:55Z</time><extensions><speed>1.484536</speed><course>121.700233</course><hAcc>1.809209</hAcc><vAcc>0.761386</vAcc></extensions></trkpt>
      <trkpt lon="-3.020953" lat="52.719567"><ele>209.079987</ele><time>2022-01-15T12:49:56Z</time><extensions><speed>1.538993</speed><course>120.568245</course><hAcc>1.813426</hAcc><vAcc>0.761152</vAcc></extensions></trkpt>
      <trkpt lon="-3.020933" lat="52.719560"><ele>209.117691</ele><time>2022-01-15T12:49:57Z</time><extensions><speed>1.550964</speed><course>119.031151</course><hAcc>1.814675</hAcc><vAcc>0.760362</vAcc></extensions></trkpt>
      <trkpt lon="-3.020913" lat="52.719553"><ele>209.158798</ele><time>2022-01-15T12:49:58Z</time><extensions><speed>1.531560</speed><course>117.193611</course><hAcc>1.809709</hAcc><vAcc>0.759036</vAcc></extensions></trkpt>
      <trkpt lon="-3.020893" lat="52.719547"><ele>209.178162</ele><time>2022-01-15T12:49:59Z</time><extensions><speed>1.529741</speed><course>115.857399</course><hAcc>1.806388</hAcc><vAcc>0.757145</vAcc></extensions></trkpt>
      <trkpt lon="-3.020872" lat="52.719541"><ele>209.219589</ele><time>2022-01-15T12:50:00Z</time><extensions><speed>1.523314</speed><course>115.067299</course><hAcc>1.805601</hAcc><vAcc>0.754588</vAcc></extensions></trkpt>
      <trkpt lon="-3.020852" lat="52.719536"><ele>209.250168</ele><time>2022-01-15T12:50:01Z</time><extensions><speed>1.468154</speed><course>114.621208</course><hAcc>1.800423</hAcc><vAcc>0.751613</vAcc></extensions></trkpt>
      <trkpt lon="-3.020832" lat="52.719530"><ele>209.287064</ele><time>2022-01-15T12:50:02Z</time><extensions><speed>1.445218</speed><course>114.131454</course><hAcc>1.795411</hAcc><vAcc>0.748271</vAcc></extensions></trkpt>
      <trkpt lon="-3.020813" lat="52.719525"><ele>209.311386</ele><time>2022-01-15T12:50:03Z</time><extensions><speed>1.357897</speed><course>113.442116</course><hAcc>1.810479</hAcc><vAcc>0.744606</vAcc></extensions></trkpt>
      <trkpt lon="-3.020795" lat="52.719520"><ele>209.341431</ele><time>2022-01-15T12:50:04Z</time><extensions><speed>1.370528</speed><course>114.564919</course><hAcc>1.814148</hAcc><vAcc>0.740704</vAcc></extensions></trkpt>
      <trkpt lon="-3.020776" lat="52.719514"><ele>209.339066</ele><time>2022-01-15T12:50:05Z</time><extensions><speed>1.438337</speed><course>116.436172</course><hAcc>1.798893</hAcc><vAcc>0.736769</vAcc></extensions></trkpt>
      <trkpt lon="-3.020757" lat="52.719509"><ele>209.360031</ele><time>2022-01-15T12:50:06Z</time><extensions><speed>1.458973</speed><course>116.610657</course><hAcc>1.806637</hAcc><vAcc>0.732938</vAcc></extensions></trkpt>
      <trkpt lon="-3.020737" lat="52.719503"><ele>209.379868</ele><time>2022-01-15T12:50:07Z</time><extensions><speed>1.410471</speed><course>115.300278</course><hAcc>1.825582</hAcc><vAcc>0.729466</vAcc></extensions></trkpt>
      <trkpt lon="-3.020719" lat="52.719498"><ele>209.402817</ele><time>2022-01-15T12:50:08Z</time><extensions><speed>1.409763</speed><course>115.287712</course><hAcc>1.830463</hAcc><vAcc>0.726592</vAcc></extensions></trkpt>
      <trkpt lon="-3.020700" lat="52.719492"><ele>209.418442</ele><time>2022-01-15T12:50:09Z</time><extensions><speed>1.414792</speed><course>115.896507</course><hAcc>1.833124</hAcc><vAcc>0.724583</vAcc></extensions></trkpt>
      <trkpt lon="-3.020681" lat="52.719486"><ele>209.438293</ele><time>2022-01-15T12:50:10Z</time><extensions><speed>1.451713</speed><course>117.941315</course><hAcc>1.825646</hAcc><vAcc>0.723617</vAcc></extensions></trkpt>
      <trkpt lon="-3.020662" lat="52.719480"><ele>209.450073</ele><time>2022-01-15T12:50:11Z</time><extensions><speed>1.467415</speed><course>120.436813</course><hAcc>1.821844</hAcc><vAcc>0.723822</vAcc></extensions></trkpt>
      <trkpt lon="-3.020643" lat="52.719473"><ele>209.480515</ele><time>2022-01-15T12:50:12Z</time><extensions><speed>1.461008</speed><course>122.677269</course><hAcc>1.827171</hAcc><vAcc>0.725181</vAcc></extensions></trkpt>
      <trkpt lon="-3.020625" lat="52.719466"><ele>209.510361</ele><time>2022-01-15T12:50:13Z</time><extensions><speed>1.365289</speed><course>123.697517</course><hAcc>1.834327</hAcc><vAcc>0.727549</vAcc></extensions></trkpt>
      <trkpt lon="-3.020609" lat="52.719459"><ele>209.517593</ele><time>2022-01-15T12:50:14Z</time><extensions><speed>1.339250</speed><course>124.507462</course><hAcc>1.830958</hAcc><vAcc>0.730721</vAcc></extensions></trkpt>
      <trkpt lon="-3.020592" lat="52.719452"><ele>209.540787</ele><time>2022-01-15T12:50:15Z</time><extensions><speed>1.469554</speed><course>124.093887</course><hAcc>1.814216</hAcc><vAcc>0.734564</vAcc></extensions></trkpt>
      <trkpt lon="-3.020572" lat="52.719444"><ele>209.577423</ele><time>2022-01-15T12:50:16Z</time><extensions><speed>1.638458</speed><course>122.407043</course><hAcc>1.797853</hAcc><vAcc>0.738851</vAcc></extensions></trkpt>
      <trkpt lon="-3.020551" lat="52.719436"><ele>209.621536</ele><time>2022-01-15T12:50:17Z</time><extensions><speed>1.704323</speed><course>120.801567</course><hAcc>1.798652</hAcc><vAcc>0.743436</vAcc></extensions></trkpt>
      <trkpt lon="-3.020529" lat="52.719429"><ele>209.662674</ele><time>2022-01-15T12:50:18Z</time><extensions><speed>1.726304</speed><course>120.379875</course><hAcc>1.805110</hAcc><vAcc>0.748136</vAcc></extensions></trkpt>
      <trkpt lon="-3.020508" lat="52.719421"><ele>209.716965</ele><time>2022-01-15T12:50:19Z</time><extensions><speed>1.683973</speed><course>121.150146</course><hAcc>1.808337</hAcc><vAcc>0.752805</vAcc></extensions></trkpt>
      <trkpt lon="-3.020487" lat="52.719413"><ele>209.771576</ele><time>2022-01-15T12:50:20Z</time><extensions><speed>1.626291</speed><course>121.129601</course><hAcc>1.795066</hAcc><vAcc>0.757310</vAcc></extensions></trkpt>
      <trkpt lon="-3.020466" lat="52.719406"><ele>209.830185</ele><time>2022-01-15T12:50:21Z</time><extensions><speed>1.548924</speed><course>120.437134</course><hAcc>1.781617</hAcc><vAcc>0.761568</vAcc></extensions></trkpt>
      <trkpt lon="-3.020447" lat="52.719399"><ele>209.877075</ele><time>2022-01-15T12:50:22Z</time><extensions><speed>1.507923</speed><course>118.858139</course><hAcc>1.763583</hAcc><vAcc>0.765565</vAcc></extensions></trkpt>
      <trkpt lon="-3.020427" lat="52.719392"><ele>209.915878</ele><time>2022-01-15T12:50:23Z</time><extensions><speed>1.539996</speed><course>117.972946</course><hAcc>1.737575</hAcc><vAcc>0.769323</vAcc></extensions></trkpt>
      <trkpt lon="-3.020407" lat="52.719386"><ele>209.967545</ele><time>2022-01-15T12:50:24Z</time><extensions><speed>1.557962</speed><course>117.866348</course><hAcc>1.700870</hAcc><vAcc>0.772847</vAcc></extensions></trkpt>
      <trkpt lon="-3.020386" lat="52.719379"><ele>210.034286</ele><time>2022-01-15T12:50:25Z</time><extensions><speed>1.634635</speed><course>117.018913</course><hAcc>1.621446</hAcc><vAcc>0.776167</vAcc></extensions></trkpt>
      <trkpt lon="-3.020363" lat="52.719373"><ele>210.091843</ele><time>2022-01-15T12:50:26Z</time><extensions><speed>1.695967</speed><course>117.026184</course><hAcc>1.560742</hAcc><vAcc>0.779291</vAcc></extensions></trkpt>
      <trkpt lon="-3.020341" lat="52.719366"><ele>210.151672</ele><time>2022-01-15T12:50:27Z</time><extensions><speed>1.704105</speed><course>116.954491</course><hAcc>1.562383</hAcc><vAcc>0.782216</vAcc></extensions></trkpt>
      <trkpt lon="-3.020319" lat="52.719359"><ele>210.188766</ele><time>2022-01-15T12:50:28Z</time><extensions><speed>1.708594</speed><course>119.249664</course><hAcc>1.530926</hAcc><vAcc>0.784942</vAcc></extensions></trkpt>
      <trkpt lon="-3.020297" lat="52.719351"><ele>210.221634</ele><time>2022-01-15T12:50:29Z</time><extensions><speed>1.712129</speed><course>119.311546</course><hAcc>1.491966</hAcc><vAcc>0.787471</vAcc></extensions></trkpt>
      <trkpt lon="-3.020274" lat="52.719344"><ele>210.275558</ele><time>2022-01-15T12:50:30Z</time><extensions><speed>1.688219</speed><course>117.892426</course><hAcc>1.463955</hAcc><vAcc>0.789801</vAcc></extensions></trkpt>
      <trkpt lon="-3.020253" lat="52.719337"><ele>210.312241</ele><time>2022-01-15T12:50:31Z</time><extensions><speed>1.679195</speed><course>117.763710</course><hAcc>1.443637</hAcc><vAcc>0.791959</vAcc></extensions></trkpt>
      <trkpt lon="-3.020231" lat="52.719330"><ele>210.346313</ele><time>2022-01-15T12:50:32Z</time><extensions><speed>1.673761</speed><course>120.665787</course><hAcc>1.432959</hAcc><vAcc>0.793933</vAcc></extensions></trkpt>
      <trkpt lon="-3.020210" lat="52.719322"><ele>210.393417</ele><time>2022-01-15T12:50:33Z</time><extensions><speed>1.645873</speed><course>120.699867</course><hAcc>1.420847</hAcc><vAcc>0.795716</vAcc></extensions></trkpt>
      <trkpt lon="-3.020189" lat="52.719315"><ele>210.424316</ele><time>2022-01-15T12:50:34Z</time><extensions><speed>1.617879</speed><course>120.791267</course><hAcc>1.404967</hAcc><vAcc>0.797332</vAcc></extensions></trkpt>
      <trkpt lon="-3.020169" lat="52.719308"><ele>210.440872</ele><time>2022-01-15T12:50:35Z</time><extensions><speed>1.606606</speed><course>118.990059</course><hAcc>1.391766</hAcc><vAcc>0.798792</vAcc></extensions></trkpt>
      <trkpt lon="-3.020148" lat="52.719301"><ele>210.474228</ele><time>2022-01-15T12:50:36Z</time><extensions><speed>1.636788</speed><course>118.639183</course><hAcc>1.396691</hAcc><vAcc>0.800102</vAcc></extensions></trkpt>
      <trkpt lon="-3.020126" lat="52.719294"><ele>210.503281</ele><time>2022-01-15T12:50:37Z</time><extensions><speed>1.653825</speed><course>118.958389</course><hAcc>1.406554</hAcc><vAcc>0.801282</vAcc></extensions></trkpt>
      <trkpt lon="-3.020105" lat="52.719286"><ele>210.535873</ele><time>2022-01-15T12:50:38Z</time><extensions><speed>1.638973</speed><course>122.049690</course><hAcc>1.394912</hAcc><vAcc>0.802331</vAcc></extensions></trkpt>
      <trkpt lon="-3.020085" lat="52.719278"><ele>210.546432</ele><time>2022-01-15T12:50:39Z</time><extensions><speed>1.641030</speed><course>122.999886</course><hAcc>1.383497</hAcc><vAcc>0.803255</vAcc></extensions></trkpt>
      <trkpt lon="-3.020065" lat="52.719270"><ele>210.549713</ele><time>2022-01-15T12:50:40Z</time><extensions><speed>1.615615</speed><course>124.593384</course><hAcc>1.371436</hAcc><vAcc>0.804052</vAcc></extensions></trkpt>
      <trkpt lon="-3.020046" lat="52.719262"><ele>210.560730</ele><time>2022-01-15T12:50:41Z</time><extensions><speed>1.624586</speed><course>127.951790</course><hAcc>1.386642</hAcc><vAcc>0.804706</vAcc></extensions></trkpt>
      <trkpt lon="-3.020026" lat="52.719253"><ele>210.589264</ele><time>2022-01-15T12:50:42Z</time><extensions><speed>1.640883</speed><course>124.173004</course><hAcc>1.386535</hAcc><vAcc>0.805241</vAcc></extensions></trkpt>
      <trkpt lon="-3.020006" lat="52.719245"><ele>210.609512</ele><time>2022-01-15T12:50:43Z</time><extensions><speed>1.617793</speed><course>120.402054</course><hAcc>1.376524</hAcc><vAcc>0.805656</vAcc></extensions></trkpt>
      <trkpt lon="-3.019985" lat="52.719238"><ele>210.630249</ele><time>2022-01-15T12:50:44Z</time><extensions><speed>1.630001</speed><course>118.987762</course><hAcc>1.380552</hAcc><vAcc>0.805978</vAcc></extensions></trkpt>
      <trkpt lon="-3.019964" lat="52.719231"><ele>210.651505</ele><time>2022-01-15T12:50:45Z</time><extensions><speed>1.611390</speed><course>119.697693</course><hAcc>1.379813</hAcc><vAcc>0.806213</vAcc></extensions></trkpt>
      <trkpt lon="-3.019944" lat="52.719224"><ele>210.667908</ele><time>2022-01-15T12:50:46Z</time><extensions><speed>1.621230</speed><course>120.250122</course><hAcc>1.378499</hAcc><vAcc>0.806325</vAcc></extensions></trkpt>
      <trkpt lon="-3.019923" lat="52.719216"><ele>210.685928</ele><time>2022-01-15T12:50:47Z</time><extensions><speed>1.613649</speed><course>121.724159</course><hAcc>1.383707</hAcc><vAcc>0.806338</vAcc></extensions></trkpt>
      <trkpt lon="-3.019903" lat="52.719209"><ele>210.702271</ele><time>2022-01-15T12:50:48Z</time><extensions><speed>1.626769</speed><course>123.454468</course><hAcc>1.393522</hAcc><vAcc>0.806272</vAcc></extensions></trkpt>
      <trkpt lon="-3.019884" lat="52.719200"><ele>210.738815</ele><time>2022-01-15T12:50:49Z</time><extensions><speed>1.620728</speed><course>126.587593</course><hAcc>1.390818</hAcc><vAcc>0.806096</vAcc></extensions></trkpt>
      <trkpt lon="-3.019864" lat="52.719192"><ele>210.778732</ele><time>2022-01-15T12:50:50Z</time><extensions><speed>1.631078</speed><course>122.837639</course><hAcc>1.380703</hAcc><vAcc>0.805805</vAcc></extensions></trkpt>
      <trkpt lon="-3.019844" lat="52.719184"><ele>210.815460</ele><time>2022-01-15T12:50:51Z</time><extensions><speed>1.627852</speed><course>120.577721</course><hAcc>1.386567</hAcc><vAcc>0.805427</vAcc></extensions></trkpt>
      <trkpt lon="-3.019823" lat="52.719177"><ele>210.826660</ele><time>2022-01-15T12:50:52Z</time><extensions><speed>1.615544</speed><course>118.853394</course><hAcc>1.393979</hAcc><vAcc>0.804947</vAcc></extensions></trkpt>
      <trkpt lon="-3.019803" lat="52.719170"><ele>210.835663</ele><time>2022-01-15T12:50:53Z</time><extensions><speed>1.604875</speed><course>123.325142</course><hAcc>1.391647</hAcc><vAcc>0.804387</vAcc></extensions></trkpt>
      <trkpt lon="-3.019783" lat="52.719162"><ele>210.870529</ele><time>2022-01-15T12:50:54Z</time><extensions><speed>1.606339</speed><course>124.333885</course><hAcc>1.383381</hAcc><vAcc>0.803753</vAcc></extensions></trkpt>
      <trkpt lon="-3.019764" lat="52.719154"><ele>210.921448</ele><time>2022-01-15T12:50:55Z</time><extensions><speed>1.623866</speed><course>124.071503</course><hAcc>1.392056</hAcc><vAcc>0.803059</vAcc></extensions></trkpt>
      <trkpt lon="-3.019744" lat="52.719146"><ele>210.948105</ele><time>2022-01-15T12:50:56Z</time><extensions><speed>1.632955</speed><course>122.698494</course><hAcc>1.395293</hAcc><vAcc>0.802353</vAcc></extensions></trkpt>
      <trkpt lon="-3.019724" lat="52.719138"><ele>210.990524</ele><time>2022-01-15T12:50:57Z</time><extensions><speed>1.606944</speed><course>121.347557</course><hAcc>1.385893</hAcc><vAcc>0.801658</vAcc></extensions></trkpt>
      <trkpt lon="-3.019704" lat="52.719131"><ele>211.020309</ele><time>2022-01-15T12:50:58Z</time><extensions><speed>1.625553</speed><course>120.485344</course><hAcc>1.397253</hAcc><vAcc>0.800941</vAcc></extensions></trkpt>
      <trkpt lon="-3.019683" lat="52.719124"><ele>211.053833</ele><time>2022-01-15T12:50:59Z</time><extensions><speed>1.589951</speed><course>119.355347</course><hAcc>1.393491</hAcc><vAcc>0.800203</vAcc></extensions></trkpt>
      <trkpt lon="-3.019663" lat="52.719116"><ele>211.086990</ele><time>2022-01-15T12:51:00Z</time><extensions><speed>1.563072</speed><course>120.995209</course><hAcc>1.390407</hAcc><vAcc>0.799438</vAcc></extensions></trkpt>
      <trkpt lon="-3.019644" lat="52.719109"><ele>211.133652</ele><time>2022-01-15T12:51:01Z</time><extensions><speed>1.593415</speed><course>120.526718</course><hAcc>1.410149</hAcc><vAcc>0.798698</vAcc></extensions></trkpt>
      <trkpt lon="-3.019624" lat="52.719102"><ele>211.177521</ele><time>2022-01-15T12:51:02Z</time><extensions><speed>1.530365</speed><course>121.979485</course><hAcc>1.405015</hAcc><vAcc>0.797973</vAcc></extensions></trkpt>
      <trkpt lon="-3.019605" lat="52.719094"><ele>211.203339</ele><time>2022-01-15T12:51:03Z</time><extensions><speed>1.537860</speed><course>123.284866</course><hAcc>1.410725</hAcc><vAcc>0.797344</vAcc></extensions></trkpt>
      <trkpt lon="-3.019586" lat="52.719086"><ele>211.236313</ele><time>2022-01-15T12:51:04Z</time><extensions><speed>1.569389</speed><course>124.982826</course><hAcc>1.428164</hAcc><vAcc>0.796837</vAcc></extensions></trkpt>
      <trkpt lon="-3.019567" lat="52.719078"><ele>211.288544</ele><time>2022-01-15T12:51:05Z</time><extensions><speed>1.556550</speed><course>125.528091</course><hAcc>1.438297</hAcc><vAcc>0.796453</vAcc></extensions></trkpt>
      <trkpt lon="-3.019549" lat="52.719070"><ele>211.336563</ele><time>2022-01-15T12:51:06Z</time><extensions><speed>1.571875</speed><course>126.420952</course><hAcc>1.446432</hAcc><vAcc>0.796190</vAcc></extensions></trkpt>
      <trkpt lon="-3.019531" lat="52.719062"><ele>211.389481</ele><time>2022-01-15T12:51:07Z</time><extensions><speed>1.553343</speed><course>129.697998</course><hAcc>1.463183</hAcc><vAcc>0.796053</vAcc></extensions></trkpt>
      <trkpt lon="-3.019513" lat="52.719052"><ele>211.447189</ele><time>2022-01-15T12:51:08Z</time><extensions><speed>1.576407</speed><course>133.438766</course><hAcc>1.477737</hAcc><vAcc>0.796041</vAcc></extensions></trkpt>
      <trkpt lon="-3.019497" lat="52.719042"><ele>211.498657</ele><time>2022-01-15T12:51:09Z</time><extensions><speed>1.556621</speed><course>137.104401</course><hAcc>1.481931</hAcc><vAcc>0.796188</vAcc></extensions></trkpt>
      <trkpt lon="-3.019483" lat="52.719032"><ele>211.555557</ele><time>2022-01-15T12:51:10Z</time><extensions><speed>1.478304</speed><course>142.407028</course><hAcc>1.466651</hAcc><vAcc>0.796506</vAcc></extensions></trkpt>
      <trkpt lon="-3.019470" lat="52.719022"><ele>211.624695</ele><time>2022-01-15T12:51:11Z</time><extensions><speed>1.462236</speed><course>144.182388</course><hAcc>1.462629</hAcc><vAcc>0.796996</vAcc></extensions></trkpt>
      <trkpt lon="-3.019457" lat="52.719011"><ele>211.696823</ele><time>2022-01-15T12:51:12Z</time><extensions><speed>1.500327</speed><course>143.517029</course><hAcc>1.455507</hAcc><vAcc>0.797639</vAcc></extensions></trkpt>
      <trkpt lon="-3.019443" lat="52.719000"><ele>211.751801</ele><time>2022-01-15T12:51:13Z</time><extensions><speed>1.588100</speed><course>140.627609</course><hAcc>1.465628</hAcc><vAcc>0.798442</vAcc></extensions></trkpt>
      <trkpt lon="-3.019429" lat="52.718990"><ele>211.817932</ele><time>2022-01-15T12:51:14Z</time><extensions><speed>1.612550</speed><course>140.200607</course><hAcc>1.445738</hAcc><vAcc>0.799384</vAcc></extensions></trkpt>
      <trkpt lon="-3.019413" lat="52.718979"><ele>211.891647</ele><time>2022-01-15T12:51:15Z</time><extensions><speed>1.614777</speed><course>138.760574</course><hAcc>1.424113</hAcc><vAcc>0.800484</vAcc></extensions></trkpt>
      <trkpt lon="-3.019398" lat="52.718968"><ele>211.952606</ele><time>2022-01-15T12:51:16Z</time><extensions><speed>1.614227</speed><course>141.603561</course><hAcc>1.405231</hAcc><vAcc>0.801680</vAcc></extensions></trkpt>
      <trkpt lon="-3.019384" lat="52.718956"><ele>212.043289</ele><time>2022-01-15T12:51:17Z</time><extensions><speed>1.603697</speed><course>144.577240</course><hAcc>1.392719</hAcc><vAcc>0.802942</vAcc></extensions></trkpt>
      <trkpt lon="-3.019371" lat="52.718945"><ele>212.111404</ele><time>2022-01-15T12:51:18Z</time><extensions><speed>1.609308</speed><course>144.092834</course><hAcc>1.378027</hAcc><vAcc>0.804284</vAcc></extensions></trkpt>
      <trkpt lon="-3.019357" lat="52.718933"><ele>212.187561</ele><time>2022-01-15T12:51:19Z</time><extensions><speed>1.596914</speed><course>143.810760</course><hAcc>1.360853</hAcc><vAcc>0.805664</vAcc></extensions></trkpt>
      <trkpt lon="-3.019344" lat="52.718922"><ele>212.262619</ele><time>2022-01-15T12:51:20Z</time><extensions><speed>1.607751</speed><course>143.870773</course><hAcc>1.357893</hAcc><vAcc>0.807055</vAcc></extensions></trkpt>
      <trkpt lon="-3.019331" lat="52.718910"><ele>212.341095</ele><time>2022-01-15T12:51:21Z</time><extensions><speed>1.533226</speed><course>149.332657</course><hAcc>1.341970</hAcc><vAcc>0.808402</vAcc></extensions></trkpt>
      <trkpt lon="-3.019320" lat="52.718898"><ele>212.399445</ele><time>2022-01-15T12:51:22Z</time><extensions><speed>1.594375</speed><course>151.412552</course><hAcc>1.352123</hAcc><vAcc>0.809687</vAcc></extensions></trkpt>
      <trkpt lon="-3.019309" lat="52.718885"><ele>212.455734</ele><time>2022-01-15T12:51:23Z</time><extensions><speed>1.623652</speed><course>151.166702</course><hAcc>1.346504</hAcc><vAcc>0.810898</vAcc></extensions></trkpt>
      <trkpt lon="-3.019298" lat="52.718873"><ele>212.488831</ele><time>2022-01-15T12:51:24Z</time><extensions><speed>1.628307</speed><course>151.342407</course><hAcc>1.340074</hAcc><vAcc>0.812018</vAcc></extensions></trkpt>
      <trkpt lon="-3.019287" lat="52.718860"><ele>212.548691</ele><time>2022-01-15T12:51:25Z</time><extensions><speed>1.604979</speed><course>150.661880</course><hAcc>1.342060</hAcc><vAcc>0.813016</vAcc></extensions></trkpt>
      <trkpt lon="-3.019276" lat="52.718848"><ele>212.607132</ele><time>2022-01-15T12:51:26Z</time><extensions><speed>1.581046</speed><course>152.070786</course><hAcc>1.335947</hAcc><vAcc>0.813869</vAcc></extensions></trkpt>
      <trkpt lon="-3.019266" lat="52.718835"><ele>212.661331</ele><time>2022-01-15T12:51:27Z</time><extensions><speed>1.556968</speed><course>152.574371</course><hAcc>1.340078</hAcc><vAcc>0.814584</vAcc></extensions></trkpt>
      <trkpt lon="-3.019256" lat="52.718823"><ele>212.712372</ele><time>2022-01-15T12:51:28Z</time><extensions><speed>1.578709</speed><course>155.226151</course><hAcc>1.344872</hAcc><vAcc>0.815162</vAcc></extensions></trkpt>
      <trkpt lon="-3.019246" lat="52.718810"><ele>212.765610</ele><time>2022-01-15T12:51:29Z</time><extensions><speed>1.591110</speed><course>156.088425</course><hAcc>1.342752</hAcc><vAcc>0.815620</vAcc></extensions></trkpt>
      <trkpt lon="-3.019237" lat="52.718797"><ele>212.801544</ele><time>2022-01-15T12:51:30Z</time><extensions><speed>1.561877</speed><course>155.328125</course><hAcc>1.342087</hAcc><vAcc>0.815961</vAcc></extensions></trkpt>
      <trkpt lon="-3.019229" lat="52.718784"><ele>212.852829</ele><time>2022-01-15T12:51:31Z</time><extensions><speed>1.550513</speed><course>157.532623</course><hAcc>1.350144</hAcc><vAcc>0.816218</vAcc></extensions></trkpt>
      <trkpt lon="-3.019220" lat="52.718771"><ele>212.917770</ele><time>2022-01-15T12:51:32Z</time><extensions><speed>1.594337</speed><course>159.369110</course><hAcc>1.357657</hAcc><vAcc>0.816374</vAcc></extensions></trkpt>
      <trkpt lon="-3.019212" lat="52.718758"><ele>212.976700</ele><time>2022-01-15T12:51:33Z</time><extensions><speed>1.584415</speed><course>159.262726</course><hAcc>1.359718</hAcc><vAcc>0.816461</vAcc></extensions></trkpt>
      <trkpt lon="-3.019205" lat="52.718745"><ele>213.024353</ele><time>2022-01-15T12:51:34Z</time><extensions><speed>1.570428</speed><course>162.540237</course><hAcc>1.369215</hAcc><vAcc>0.816505</vAcc></extensions></trkpt>
      <trkpt lon="-3.019198" lat="52.718731"><ele>213.061447</ele><time>2022-01-15T12:51:35Z</time><extensions><speed>1.578466</speed><course>161.921341</course><hAcc>1.373019</hAcc><vAcc>0.816511</vAcc></extensions></trkpt>
      <trkpt lon="-3.019191" lat="52.718718"><ele>213.123474</ele><time>2022-01-15T12:51:36Z</time><extensions><speed>1.515559</speed><course>163.810745</course><hAcc>1.357443</hAcc><vAcc>0.816503</vAcc></extensions></trkpt>
      <trkpt lon="-3.019186" lat="52.718705"><ele>213.188873</ele><time>2022-01-15T12:51:37Z</time><extensions><speed>1.490944</speed><course>164.828201</course><hAcc>1.351747</hAcc><vAcc>0.816453</vAcc></extensions></trkpt>
      <trkpt lon="-3.019179" lat="52.718693"><ele>213.268829</ele><time>2022-01-15T12:51:38Z</time><extensions><speed>1.559862</speed><course>160.547485</course><hAcc>1.376267</hAcc><vAcc>0.816396</vAcc></extensions></trkpt>
      <trkpt lon="-3.019172" lat="52.718679"><ele>213.363388</ele><time>2022-01-15T12:51:39Z</time><extensions><speed>1.590771</speed><course>162.969391</course><hAcc>1.382046</hAcc><vAcc>0.816369</vAcc></extensions></trkpt>
      <trkpt lon="-3.019165" lat="52.718666"><ele>213.463470</ele><time>2022-01-15T12:51:40Z</time><extensions><speed>1.584215</speed><course>165.779800</course><hAcc>1.376564</hAcc><vAcc>0.816348</vAcc></extensions></trkpt>
      <trkpt lon="-3.019159" lat="52.718652"><ele>213.528458</ele><time>2022-01-15T12:51:41Z</time><extensions><speed>1.602959</speed><course>164.283005</course><hAcc>1.382379</hAcc><vAcc>0.816353</vAcc></extensions></trkpt>
      <trkpt lon="-3.019153" lat="52.718639"><ele>213.617691</ele><time>2022-01-15T12:51:42Z</time><extensions><speed>1.533702</speed><course>163.311661</course><hAcc>1.372756</hAcc><vAcc>0.816381</vAcc></extensions></trkpt>
      <trkpt lon="-3.019147" lat="52.718626"><ele>213.728012</ele><time>2022-01-15T12:51:43Z</time><extensions><speed>1.546439</speed><course>164.184921</course><hAcc>1.376631</hAcc><vAcc>0.816425</vAcc></extensions></trkpt>
      <trkpt lon="-3.019140" lat="52.718613"><ele>213.827423</ele><time>2022-01-15T12:51:44Z</time><extensions><speed>1.532839</speed><course>163.518921</course><hAcc>1.379285</hAcc><vAcc>0.816497</vAcc></extensions></trkpt>
      <trkpt lon="-3.019134" lat="52.718600"><ele>213.945557</ele><time>2022-01-15T12:51:45Z</time><extensions><speed>1.516885</speed><course>162.673508</course><hAcc>1.382825</hAcc><vAcc>0.816572</vAcc></extensions></trkpt>
      <trkpt lon="-3.019126" lat="52.718587"><ele>214.017899</ele><time>2022-01-15T12:51:46Z</time><extensions><speed>1.490704</speed><course>158.923096</course><hAcc>1.364862</hAcc><vAcc>0.816676</vAcc></extensions></trkpt>
      <trkpt lon="-3.019118" lat="52.718575"><ele>214.123718</ele><time>2022-01-15T12:51:47Z</time><extensions><speed>1.504616</speed><course>157.652161</course><hAcc>1.370832</hAcc><vAcc>0.816800</vAcc></extensions></trkpt>
      <trkpt lon="-3.019109" lat="52.718563"><ele>214.230972</ele><time>2022-01-15T12:51:48Z</time><extensions><speed>1.534991</speed><course>155.291672</course><hAcc>1.377067</hAcc><vAcc>0.816932</vAcc></extensions></trkpt>
      <trkpt lon="-3.019099" lat="52.718550"><ele>214.341766</ele><time>2022-01-15T12:51:49Z</time><extensions><speed>1.537165</speed><course>152.585098</course><hAcc>1.374793</hAcc><vAcc>0.817064</vAcc></extensions></trkpt>
      <trkpt lon="-3.019089" lat="52.718538"><ele>214.439240</ele><time>2022-01-15T12:51:50Z</time><extensions><speed>1.559883</speed><course>152.521957</course><hAcc>1.371114</hAcc><vAcc>0.817188</vAcc></extensions></trkpt>
      <trkpt lon="-3.019078" lat="52.718526"><ele>214.562302</ele><time>2022-01-15T12:51:51Z</time><extensions><speed>1.557882</speed><course>152.755997</course><hAcc>1.371891</hAcc><vAcc>0.817284</vAcc></extensions></trkpt>
      <trkpt lon="-3.019068" lat="52.718514"><ele>214.656357</ele><time>2022-01-15T12:51:52Z</time><extensions><speed>1.571521</speed><course>151.586517</course><hAcc>1.360076</hAcc><vAcc>0.817361</vAcc></extensions></trkpt>
      <trkpt lon="-3.019057" lat="52.718502"><ele>214.755310</ele><time>2022-01-15T12:51:53Z</time><extensions><speed>1.498760</speed><course>149.907944</course><hAcc>1.343850</hAcc><vAcc>0.817402</vAcc></extensions></trkpt>
      <trkpt lon="-3.019046" lat="52.718490"><ele>214.864746</ele><time>2022-01-15T12:51:54Z</time><extensions><speed>1.514832</speed><course>150.258743</course><hAcc>1.344659</hAcc><vAcc>0.817413</vAcc></extensions></trkpt>
      <trkpt lon="-3.019035" lat="52.718479"><ele>214.984802</ele><time>2022-01-15T12:51:55Z</time><extensions><speed>1.548022</speed><course>152.283707</course><hAcc>1.357390</hAcc><vAcc>0.817362</vAcc></extensions></trkpt>
      <trkpt lon="-3.019025" lat="52.718467"><ele>215.099960</ele><time>2022-01-15T12:51:56Z</time><extensions><speed>1.509360</speed><course>151.876511</course><hAcc>1.354522</hAcc><vAcc>0.817224</vAcc></extensions></trkpt>
      <trkpt lon="-3.019014" lat="52.718455"><ele>215.204163</ele><time>2022-01-15T12:51:57Z</time><extensions><speed>1.570451</speed><course>153.234192</course><hAcc>1.351210</hAcc><vAcc>0.816882</vAcc></extensions></trkpt>
      <trkpt lon="-3.019004" lat="52.718442"><ele>215.314697</ele><time>2022-01-15T12:51:58Z</time><extensions><speed>1.569545</speed><course>154.036407</course><hAcc>1.350214</hAcc><vAcc>0.816266</vAcc></extensions></trkpt>
      <trkpt lon="-3.018994" lat="52.718430"><ele>215.427032</ele><time>2022-01-15T12:51:59Z</time><extensions><speed>1.543744</speed><course>153.057709</course><hAcc>1.346910</hAcc><vAcc>0.815248</vAcc></extensions></trkpt>
      <trkpt lon="-3.018984" lat="52.718418"><ele>215.562210</ele><time>2022-01-15T12:52:00Z</time><extensions><speed>1.546083</speed><course>152.289780</course><hAcc>1.358234</hAcc><vAcc>0.814052</vAcc></extensions></trkpt>
      <trkpt lon="-3.018973" lat="52.718406"><ele>215.692307</ele><time>2022-01-15T12:52:01Z</time><extensions><speed>1.532532</speed><course>151.529770</course><hAcc>1.374176</hAcc><vAcc>0.812425</vAcc></extensions></trkpt>
      <trkpt lon="-3.018963" lat="52.718393"><ele>215.825211</ele><time>2022-01-15T12:52:02Z</time><extensions><speed>1.577744</speed><course>154.340637</course><hAcc>1.398280</hAcc><vAcc>0.810274</vAcc></extensions></trkpt>
      <trkpt lon="-3.018953" lat="52.718380"><ele>215.955551</ele><time>2022-01-15T12:52:03Z</time><extensions><speed>1.604118</speed><course>155.946091</course><hAcc>1.422389</hAcc><vAcc>0.807606</vAcc></extensions></trkpt>
      <trkpt lon="-3.018943" lat="52.718367"><ele>216.088257</ele><time>2022-01-15T12:52:04Z</time><extensions><speed>1.557455</speed><course>155.240479</course><hAcc>1.446079</hAcc><vAcc>0.804300</vAcc></extensions></trkpt>
      <trkpt lon="-3.018933" lat="52.718355"><ele>216.230743</ele><time>2022-01-15T12:52:05Z</time><extensions><speed>1.465460</speed><course>150.026550</course><hAcc>1.478364</hAcc><vAcc>0.800325</vAcc></extensions></trkpt>
      <trkpt lon="-3.018924" lat="52.718345"><ele>216.376266</ele><time>2022-01-15T12:52:06Z</time><extensions><speed>1.233399</speed><course>151.948593</course><hAcc>1.509096</hAcc><vAcc>0.795745</vAcc></extensions></trkpt>
      <trkpt lon="-3.018917" lat="52.718336"><ele>216.522263</ele><time>2022-01-15T12:52:07Z</time><extensions><speed>0.906132</speed><course>158.090744</course><hAcc>1.548583</hAcc><vAcc>0.790613</vAcc></extensions></trkpt>
      <trkpt lon="-3.018913" lat="52.718329"><ele>216.645920</ele><time>2022-01-15T12:52:08Z</time><extensions><speed>0.660199</speed><course>167.696655</course><hAcc>1.609811</hAcc><vAcc>0.784655</vAcc></extensions></trkpt>
      <trkpt lon="-3.018912" lat="52.718324"><ele>216.826538</ele><time>2022-01-15T12:52:09Z</time><extensions><speed>0.458705</speed><course>180.323532</course><hAcc>1.666797</hAcc><vAcc>0.777445</vAcc></extensions></trkpt>
      <trkpt lon="-3.018913" lat="52.718321"><ele>216.981979</ele><time>2022-01-15T12:52:10Z</time><extensions><speed>0.295122</speed><course>199.405380</course><hAcc>1.723491</hAcc><vAcc>0.768340</vAcc></extensions></trkpt>
      <trkpt lon="-3.018915" lat="52.718320"><ele>217.117905</ele><time>2022-01-15T12:52:11Z</time><extensions><speed>0.172054</speed><course>254.341827</course><hAcc>1.777170</hAcc><vAcc>0.756985</vAcc></extensions></trkpt>
      <trkpt lon="-3.018918" lat="52.718320"><ele>217.260513</ele><time>2022-01-15T12:52:12Z</time><extensions><speed>0.224653</speed><course>268.689606</course><hAcc>1.781619</hAcc><vAcc>0.744035</vAcc></extensions></trkpt>
      <trkpt lon="-3.018921" lat="52.718319"><ele>217.398697</ele><time>2022-01-15T12:52:13Z</time><extensions><speed>0.242325</speed><course>262.605804</course><hAcc>1.783653</hAcc><vAcc>0.728504</vAcc></extensions></trkpt>
      <trkpt lon="-3.018925" lat="52.718319"><ele>217.532852</ele><time>2022-01-15T12:52:14Z</time><extensions><speed>0.236526</speed><course>252.275620</course><hAcc>1.791037</hAcc><vAcc>0.709489</vAcc></extensions></trkpt>
      <trkpt lon="-3.018928" lat="52.718318"><ele>217.646835</ele><time>2022-01-15T12:52:15Z</time><extensions><speed>0.230363</speed><course>238.640152</course><hAcc>1.802161</hAcc><vAcc>0.686515</vAcc></extensions></trkpt>
      <trkpt lon="-3.018930" lat="52.718317"><ele>217.758438</ele><time>2022-01-15T12:52:16Z</time><extensions><speed>0.128961</speed><course>258.720551</course><hAcc>1.852567</hAcc><vAcc>0.659367</vAcc></extensions></trkpt>
      <trkpt lon="-3.018932" lat="52.718318"><ele>217.896057</ele><time>2022-01-15T12:52:16Z</time><extensions><speed>0.089883</speed><course>298.777191</course><hAcc>1.881498</hAcc><vAcc>0.628475</vAcc></extensions></trkpt>
      <trkpt lon="-3.018933" lat="52.718318"><ele>217.949097</ele><time>2022-01-15T12:52:17Z</time><extensions><speed>0.108763</speed><course>333.834625</course><hAcc>1.926865</hAcc><vAcc>0.594500</vAcc></extensions></trkpt>
      <trkpt lon="-3.018933" lat="52.718319"><ele>218.120102</ele><time>2022-01-15T12:52:19Z</time><extensions><speed>0.120641</speed><course>340.866425</course><hAcc>1.998857</hAcc><vAcc>0.558354</vAcc></extensions></trkpt>
      <trkpt lon="-3.018934" lat="52.718320"><ele>218.166443</ele><time>2022-01-15T12:52:20Z</time><extensions><speed>0.114835</speed><course>340.614502</course><hAcc>2.069989</hAcc><vAcc>0.522187</vAcc></extensions></trkpt>
      <trkpt lon="-3.018934" lat="52.718321"><ele>218.198639</ele><time>2022-01-15T12:52:21Z</time><extensions><speed>0.105364</speed><course>342.792786</course><hAcc>2.146414</hAcc><vAcc>0.488332</vAcc></extensions></trkpt>
      <trkpt lon="-3.018935" lat="52.718322"><ele>218.224213</ele><time>2022-01-15T12:52:22Z</time><extensions><speed>0.081376</speed><course>352.126801</course><hAcc>2.245001</hAcc><vAcc>0.458949</vAcc></extensions></trkpt>
      <trkpt lon="-3.018934" lat="52.718323"><ele>218.231979</ele><time>2022-01-15T12:52:23Z</time><extensions><speed>0.064071</speed><course>25.897028</course><hAcc>2.322767</hAcc><vAcc>0.435775</vAcc></extensions></trkpt>
      <trkpt lon="-3.018934" lat="52.718323"><ele>218.240570</ele><time>2022-01-15T12:52:24Z</time><extensions><speed>0.092127</speed><course>74.738579</course><hAcc>2.375724</hAcc><vAcc>0.419146</vAcc></extensions></trkpt>
      <trkpt lon="-3.018932" lat="52.718323"><ele>218.237228</ele><time>2022-01-15T12:52:24Z</time><extensions><speed>0.169037</speed><course>93.539253</course><hAcc>2.404660</hAcc><vAcc>0.408596</vAcc></extensions></trkpt>
      <trkpt lon="-3.018929" lat="52.718323"><ele>218.240494</ele><time>2022-01-15T12:52:25Z</time><extensions><speed>0.269352</speed><course>99.719292</course><hAcc>2.425102</hAcc><vAcc>0.402857</vAcc></extensions></trkpt>
      <trkpt lon="-3.018924" lat="52.718323"><ele>218.251892</ele><time>2022-01-15T12:52:26Z</time><extensions><speed>0.413344</speed><course>101.179848</course><hAcc>2.439213</hAcc><vAcc>0.400396</vAcc></extensions></trkpt>
      <trkpt lon="-3.018916" lat="52.718322"><ele>218.286880</ele><time>2022-01-15T12:52:27Z</time><extensions><speed>0.601117</speed><course>101.577202</course><hAcc>2.456980</hAcc><vAcc>0.399919</vAcc></extensions></trkpt>
      <trkpt lon="-3.018907" lat="52.718321"><ele>218.322952</ele><time>2022-01-15T12:52:28Z</time><extensions><speed>0.761864</speed><course>104.975098</course><hAcc>2.463670</hAcc><vAcc>0.400736</vAcc></extensions></trkpt>
      <trkpt lon="-3.018895" lat="52.718319"><ele>218.373352</ele><time>2022-01-15T12:52:29Z</time><extensions><speed>0.843610</speed><course>102.285332</course><hAcc>2.450722</hAcc><vAcc>0.402774</vAcc></extensions></trkpt>
      <trkpt lon="-3.018882" lat="52.718318"><ele>218.436966</ele><time>2022-01-15T12:52:30Z</time><extensions><speed>0.911084</speed><course>96.992882</course><hAcc>2.433943</hAcc><vAcc>0.406136</vAcc></extensions></trkpt>
      <trkpt lon="-3.018869" lat="52.718318"><ele>218.513596</ele><time>2022-01-15T12:52:31Z</time><extensions><speed>0.957702</speed><course>89.502365</course><hAcc>2.414857</hAcc><vAcc>0.410806</vAcc></extensions></trkpt>
      <trkpt lon="-3.018854" lat="52.718319"><ele>218.578613</ele><time>2022-01-15T12:52:32Z</time><extensions><speed>1.010232</speed><course>80.853935</course><hAcc>2.391500</hAcc><vAcc>0.416552</vAcc></extensions></trkpt>
      <trkpt lon="-3.018839" lat="52.718321"><ele>218.659363</ele><time>2022-01-15T12:52:33Z</time><extensions><speed>1.075927</speed><course>72.418915</course><hAcc>2.371855</hAcc><vAcc>0.422926</vAcc></extensions></trkpt>
      <trkpt lon="-3.018824" lat="52.718325"><ele>218.722046</ele><time>2022-01-15T12:52:34Z</time><extensions><speed>1.147578</speed><course>65.392929</course><hAcc>2.365640</hAcc><vAcc>0.429524</vAcc></extensions></trkpt>
      <trkpt lon="-3.018808" lat="52.718330"><ele>218.768356</ele><time>2022-01-15T12:52:35Z</time><extensions><speed>1.217595</speed><course>61.552074</course><hAcc>2.363222</hAcc><vAcc>0.435985</vAcc></extensions></trkpt>
      <trkpt lon="-3.018792" lat="52.718335"><ele>218.800781</ele><time>2022-01-15T12:52:36Z</time><extensions><speed>1.257439</speed><course>60.814827</course><hAcc>2.363421</hAcc><vAcc>0.441941</vAcc></extensions></trkpt>
      <trkpt lon="-3.018776" lat="52.718342"><ele>218.817429</ele><time>2022-01-15T12:52:37Z</time><extensions><speed>1.294710</speed><course>59.937996</course><hAcc>2.352777</hAcc><vAcc>0.447039</vAcc></extensions></trkpt>
      <trkpt lon="-3.018759" lat="52.718348"><ele>218.839859</ele><time>2022-01-15T12:52:38Z</time><extensions><speed>1.301483</speed><course>60.140144</course><hAcc>2.351262</hAcc><vAcc>0.451100</vAcc></extensions></trkpt>
      <trkpt lon="-3.018743" lat="52.718354"><ele>218.854950</ele><time>2022-01-15T12:52:39Z</time><extensions><speed>1.306844</speed><course>60.539581</course><hAcc>2.348843</hAcc><vAcc>0.454143</vAcc></extensions></trkpt>
      <trkpt lon="-3.018726" lat="52.718360"><ele>218.851227</ele><time>2022-01-15T12:52:40Z</time><extensions><speed>1.318868</speed><course>57.282822</course><hAcc>2.316690</hAcc><vAcc>0.456258</vAcc></extensions></trkpt>
      <trkpt lon="-3.018709" lat="52.718367"><ele>218.836609</ele><time>2022-01-15T12:52:41Z</time><extensions><speed>1.313588</speed><course>56.056183</course><hAcc>2.292525</hAcc><vAcc>0.457544</vAcc></extensions></trkpt>
      <trkpt lon="-3.018693" lat="52.718374"><ele>218.838043</ele><time>2022-01-15T12:52:42Z</time><extensions><speed>1.257303</speed><course>57.666531</course><hAcc>2.301402</hAcc><vAcc>0.458108</vAcc></extensions></trkpt>
      <trkpt lon="-3.018678" lat="52.718379"><ele>218.834732</ele><time>2022-01-15T12:52:43Z</time><extensions><speed>1.169980</speed><course>59.494785</course><hAcc>2.315383</hAcc><vAcc>0.458129</vAcc></extensions></trkpt>
      <trkpt lon="-3.018663" lat="52.718385"><ele>218.815674</ele><time>2022-01-15T12:52:44Z</time><extensions><speed>1.141227</speed><course>59.660519</course><hAcc>2.307014</hAcc><vAcc>0.457845</vAcc></extensions></trkpt>
      <trkpt lon="-3.018648" lat="52.718391"><ele>218.820206</ele><time>2022-01-15T12:52:45Z</time><extensions><speed>1.210401</speed><course>57.477322</course><hAcc>2.264710</hAcc><vAcc>0.457561</vAcc></extensions></trkpt>
      <trkpt lon="-3.018632" lat="52.718397"><ele>218.811630</ele><time>2022-01-15T12:52:46Z</time><extensions><speed>1.221950</speed><course>58.830948</course><hAcc>2.260124</hAcc><vAcc>0.457494</vAcc></extensions></trkpt>
      <trkpt lon="-3.018616" lat="52.718403"><ele>218.789871</ele><time>2022-01-15T12:52:47Z</time><extensions><speed>1.269278</speed><course>59.175755</course><hAcc>2.248645</hAcc><vAcc>0.457660</vAcc></extensions></trkpt>
      <trkpt lon="-3.018600" lat="52.718409"><ele>218.755188</ele><time>2022-01-15T12:52:49Z</time><extensions><speed>1.329306</speed><course>58.658714</course><hAcc>2.223567</hAcc><vAcc>0.457955</vAcc></extensions></trkpt>
      <trkpt lon="-3.018583" lat="52.718415"><ele>218.720673</ele><time>2022-01-15T12:52:50Z</time><extensions><speed>1.355593</speed><course>60.797188</course><hAcc>2.227739</hAcc><vAcc>0.458179</vAcc></extensions></trkpt>
      <trkpt lon="-3.018565" lat="52.718421"><ele>218.684357</ele><time>2022-01-15T12:52:51Z</time><extensions><speed>1.414021</speed><course>61.910118</course><hAcc>2.239937</hAcc><vAcc>0.458142</vAcc></extensions></trkpt>
      <trkpt lon="-3.018546" lat="52.718428"><ele>218.649994</ele><time>2022-01-15T12:52:52Z</time><extensions><speed>1.437987</speed><course>62.187531</course><hAcc>2.265375</hAcc><vAcc>0.457671</vAcc></extensions></trkpt>
      <trkpt lon="-3.018527" lat="52.718434"><ele>218.631943</ele><time>2022-01-15T12:52:53Z</time><extensions><speed>1.388760</speed><course>62.726109</course><hAcc>2.295660</hAcc><vAcc>0.456649</vAcc></extensions></trkpt>
      <trkpt lon="-3.018509" lat="52.718439"><ele>218.612488</ele><time>2022-01-15T12:52:54Z</time><extensions><speed>1.419647</speed><course>62.981430</course><hAcc>2.307848</hAcc><vAcc>0.455090</vAcc></extensions></trkpt>
      <trkpt lon="-3.018489" lat="52.718446"><ele>218.581085</ele><time>2022-01-15T12:52:55Z</time><extensions><speed>1.491182</speed><course>60.545158</course><hAcc>2.288060</hAcc><vAcc>0.453113</vAcc></extensions></trkpt>
      <trkpt lon="-3.018470" lat="52.718453"><ele>218.546188</ele><time>2022-01-15T12:52:56Z</time><extensions><speed>1.526749</speed><course>60.019192</course><hAcc>2.281544</hAcc><vAcc>0.451005</vAcc></extensions></trkpt>
      <trkpt lon="-3.018450" lat="52.718459"><ele>218.524521</ele><time>2022-01-15T12:52:57Z</time><extensions><speed>1.541448</speed><course>60.402790</course><hAcc>2.285074</hAcc><vAcc>0.449065</vAcc></extensions></trkpt>
      <trkpt lon="-3.018430" lat="52.718466"><ele>218.533737</ele><time>2022-01-15T12:52:58Z</time><extensions><speed>1.525207</speed><course>61.196728</course><hAcc>2.288723</hAcc><vAcc>0.447484</vAcc></extensions></trkpt>
      <trkpt lon="-3.018410" lat="52.718473"><ele>218.531082</ele><time>2022-01-15T12:52:59Z</time><extensions><speed>1.458195</speed><course>61.274551</course><hAcc>2.291522</hAcc><vAcc>0.446403</vAcc></extensions></trkpt>
      <trkpt lon="-3.018392" lat="52.718479"><ele>218.530334</ele><time>2022-01-15T12:53:00Z</time><extensions><speed>1.354160</speed><course>61.546997</course><hAcc>2.300845</hAcc><vAcc>0.445757</vAcc></extensions></trkpt>
      <trkpt lon="-3.018375" lat="52.718484"><ele>218.526794</ele><time>2022-01-15T12:53:01Z</time><extensions><speed>1.251091</speed><course>61.857170</course><hAcc>2.310015</hAcc><vAcc>0.445510</vAcc></extensions></trkpt>
      <trkpt lon="-3.018359" lat="52.718490"><ele>218.512482</ele><time>2022-01-15T12:53:02Z</time><extensions><speed>1.188173</speed><course>63.080269</course><hAcc>2.303773</hAcc><vAcc>0.445623</vAcc></extensions></trkpt>
      <trkpt lon="-3.018343" lat="52.718494"><ele>218.493118</ele><time>2022-01-15T12:53:03Z</time><extensions><speed>1.202458</speed><course>65.448921</course><hAcc>2.271230</hAcc><vAcc>0.446110</vAcc></extensions></trkpt>
      <trkpt lon="-3.018326" lat="52.718499"><ele>218.459808</ele><time>2022-01-15T12:53:04Z</time><extensions><speed>1.268601</speed><course>67.590691</course><hAcc>2.246701</hAcc><vAcc>0.446990</vAcc></extensions></trkpt>
      <trkpt lon="-3.018308" lat="52.718503"><ele>218.439560</ele><time>2022-01-15T12:53:05Z</time><extensions><speed>1.325237</speed><course>69.022095</course><hAcc>2.230638</hAcc><vAcc>0.448220</vAcc></extensions></trkpt>
      <trkpt lon="-3.018289" lat="52.718507"><ele>218.409409</ele><time>2022-01-15T12:53:06Z</time><extensions><speed>1.386747</speed><course>69.207237</course><hAcc>2.222630</hAcc><vAcc>0.449629</vAcc></extensions></trkpt>
      <trkpt lon="-3.018269" lat="52.718512"><ele>218.355316</ele><time>2022-01-15T12:53:07Z</time><extensions><speed>1.380978</speed><course>67.949036</course><hAcc>2.232013</hAcc><vAcc>0.450895</vAcc></extensions></trkpt>
      <trkpt lon="-3.018251" lat="52.718517"><ele>218.299103</ele><time>2022-01-15T12:53:08Z</time><extensions><speed>1.304378</speed><course>66.615715</course><hAcc>2.249488</hAcc><vAcc>0.451658</vAcc></extensions></trkpt>
      <trkpt lon="-3.018234" lat="52.718522"><ele>218.246979</ele><time>2022-01-15T12:53:09Z</time><extensions><speed>1.186785</speed><course>65.225510</course><hAcc>2.250326</hAcc><vAcc>0.451763</vAcc></extensions></trkpt>
      <trkpt lon="-3.018218" lat="52.718526"><ele>218.161285</ele><time>2022-01-15T12:53:10Z</time><extensions><speed>1.094048</speed><course>64.396431</course><hAcc>2.240613</hAcc><vAcc>0.451283</vAcc></extensions></trkpt>
      <trkpt lon="-3.018204" lat="52.718530"><ele>218.086243</ele><time>2022-01-15T12:53:11Z</time><extensions><speed>1.048826</speed><course>66.399681</course><hAcc>2.242494</hAcc><vAcc>0.450385</vAcc></extensions></trkpt>
      <trkpt lon="-3.018189" lat="52.718534"><ele>217.982010</ele><time>2022-01-15T12:53:12Z</time><extensions><speed>1.074997</speed><course>69.331665</course><hAcc>2.257619</hAcc><vAcc>0.449232</vAcc></extensions></trkpt>
      <trkpt lon="-3.018173" lat="52.718538"><ele>217.863785</ele><time>2022-01-15T12:53:13Z</time><extensions><speed>1.143428</speed><course>71.111214</course><hAcc>2.261761</hAcc><vAcc>0.447859</vAcc></extensions></trkpt>
      <trkpt lon="-3.018156" lat="52.718541"><ele>217.737839</ele><time>2022-01-15T12:53:14Z</time><extensions><speed>1.261585</speed><course>71.423279</course><hAcc>2.260964</hAcc><vAcc>0.446300</vAcc></extensions></trkpt>
      <trkpt lon="-3.018138" lat="52.718545"><ele>217.591644</ele><time>2022-01-15T12:53:15Z</time><extensions><speed>1.384024</speed><course>70.282188</course><hAcc>2.252040</hAcc><vAcc>0.444593</vAcc></extensions></trkpt>
      <trkpt lon="-3.018118" lat="52.718550"><ele>217.479507</ele><time>2022-01-15T12:53:16Z</time><extensions><speed>1.479662</speed><course>69.321884</course><hAcc>2.266305</hAcc><vAcc>0.442793</vAcc></extensions></trkpt>
      <trkpt lon="-3.018097" lat="52.718555"><ele>217.339783</ele><time>2022-01-15T12:53:17Z</time><extensions><speed>1.510601</speed><course>66.879448</course><hAcc>2.280765</hAcc><vAcc>0.440835</vAcc></extensions></trkpt>
      <trkpt lon="-3.018076" lat="52.718561"><ele>217.178726</ele><time>2022-01-15T12:53:18Z</time><extensions><speed>1.531326</speed><course>64.278816</course><hAcc>2.284949</hAcc><vAcc>0.438554</vAcc></extensions></trkpt>
      <trkpt lon="-3.018055" lat="52.718567"><ele>217.038361</ele><time>2022-01-15T12:53:19Z</time><extensions><speed>1.526467</speed><course>63.097763</course><hAcc>2.287027</hAcc><vAcc>0.435822</vAcc></extensions></trkpt>
      <trkpt lon="-3.018035" lat="52.718573"><ele>216.902817</ele><time>2022-01-15T12:53:20Z</time><extensions><speed>1.558557</speed><course>63.241993</course><hAcc>2.270600</hAcc><vAcc>0.432680</vAcc></extensions></trkpt>
      <trkpt lon="-3.018014" lat="52.718579"><ele>216.762924</ele><time>2022-01-15T12:53:21Z</time><extensions><speed>1.536409</speed><course>63.855732</course><hAcc>2.244800</hAcc><vAcc>0.429373</vAcc></extensions></trkpt>
      <trkpt lon="-3.017994" lat="52.718585"><ele>216.650360</ele><time>2022-01-15T12:53:22Z</time><extensions><speed>1.467279</speed><course>62.942249</course><hAcc>2.215841</hAcc><vAcc>0.426291</vAcc></extensions></trkpt>
      <trkpt lon="-3.017975" lat="52.718591"><ele>216.547775</ele><time>2022-01-15T12:53:23Z</time><extensions><speed>1.395219</speed><course>62.731834</course><hAcc>2.198942</hAcc><vAcc>0.423957</vAcc></extensions></trkpt>
      <trkpt lon="-3.017957" lat="52.718596"><ele>216.449539</ele><time>2022-01-15T12:53:24Z</time><extensions><speed>1.350738</speed><course>64.274544</course><hAcc>2.184530</hAcc><vAcc>0.422535</vAcc></extensions></trkpt>
      <trkpt lon="-3.017938" lat="52.718601"><ele>216.347672</ele><time>2022-01-15T12:53:25Z</time><extensions><speed>1.370120</speed><course>66.696899</course><hAcc>2.170892</hAcc><vAcc>0.422140</vAcc></extensions></trkpt>
      <trkpt lon="-3.017919" lat="52.718606"><ele>216.253799</ele><time>2022-01-15T12:53:26Z</time><extensions><speed>1.384942</speed><course>69.100258</course><hAcc>2.168370</hAcc><vAcc>0.422768</vAcc></extensions></trkpt>
      <trkpt lon="-3.017899" lat="52.718611"><ele>216.170990</ele><time>2022-01-15T12:53:27Z</time><extensions><speed>1.495444</speed><course>70.940926</course><hAcc>2.130661</hAcc><vAcc>0.424366</vAcc></extensions></trkpt>
      <trkpt lon="-3.017878" lat="52.718615"><ele>216.096863</ele><time>2022-01-15T12:53:28Z</time><extensions><speed>1.569600</speed><course>70.647041</course><hAcc>2.106924</hAcc><vAcc>0.426789</vAcc></extensions></trkpt>
      <trkpt lon="-3.017856" lat="52.718620"><ele>216.034561</ele><time>2022-01-15T12:53:29Z</time><extensions><speed>1.579261</speed><course>69.805382</course><hAcc>2.099108</hAcc><vAcc>0.429811</vAcc></extensions></trkpt>
      <trkpt lon="-3.017834" lat="52.718625"><ele>215.978195</ele><time>2022-01-15T12:53:30Z</time><extensions><speed>1.547043</speed><course>68.417473</course><hAcc>2.102596</hAcc><vAcc>0.433167</vAcc></extensions></trkpt>
      <trkpt lon="-3.017813" lat="52.718630"><ele>215.914856</ele><time>2022-01-15T12:53:31Z</time><extensions><speed>1.500461</speed><course>66.752502</course><hAcc>2.120634</hAcc><vAcc>0.436622</vAcc></extensions></trkpt>
      <trkpt lon="-3.017793" lat="52.718636"><ele>215.832153</ele><time>2022-01-15T12:53:32Z</time><extensions><speed>1.444969</speed><course>64.606316</course><hAcc>2.144900</hAcc><vAcc>0.440047</vAcc></extensions></trkpt>
      <trkpt lon="-3.017774" lat="52.718642"><ele>215.752090</ele><time>2022-01-15T12:53:33Z</time><extensions><speed>1.377532</speed><course>62.429623</course><hAcc>2.165590</hAcc><vAcc>0.443331</vAcc></extensions></trkpt>
      <trkpt lon="-3.017756" lat="52.718647"><ele>215.679108</ele><time>2022-01-15T12:53:34Z</time><extensions><speed>1.380325</speed><course>61.236614</course><hAcc>2.170233</hAcc><vAcc>0.446269</vAcc></extensions></trkpt>
      <trkpt lon="-3.017737" lat="52.718654"><ele>215.588943</ele><time>2022-01-15T12:53:35Z</time><extensions><speed>1.436328</speed><course>60.587318</course><hAcc>2.186528</hAcc><vAcc>0.448579</vAcc></extensions></trkpt>
      <trkpt lon="-3.017718" lat="52.718660"><ele>215.495300</ele><time>2022-01-15T12:53:36Z</time><extensions><speed>1.517370</speed><course>60.659702</course><hAcc>2.203834</hAcc><vAcc>0.450068</vAcc></extensions></trkpt>
      <trkpt lon="-3.017697" lat="52.718666"><ele>215.379349</ele><time>2022-01-15T12:53:37Z</time><extensions><speed>1.608643</speed><course>61.660885</course><hAcc>2.211419</hAcc><vAcc>0.450620</vAcc></extensions></trkpt>
      <trkpt lon="-3.017675" lat="52.718673"><ele>215.231506</ele><time>2022-01-15T12:53:38Z</time><extensions><speed>1.663209</speed><course>63.000889</course><hAcc>2.218870</hAcc><vAcc>0.450164</vAcc></extensions></trkpt>
      <trkpt lon="-3.017653" lat="52.718679"><ele>215.076828</ele><time>2022-01-15T12:53:39Z</time><extensions><speed>1.686490</speed><course>64.720009</course><hAcc>2.223455</hAcc><vAcc>0.448642</vAcc></extensions></trkpt>
      <trkpt lon="-3.017630" lat="52.718685"><ele>214.923447</ele><time>2022-01-15T12:53:40Z</time><extensions><speed>1.649519</speed><course>65.448296</course><hAcc>2.223915</hAcc><vAcc>0.446130</vAcc></extensions></trkpt>
      <trkpt lon="-3.017608" lat="52.718691"><ele>214.778778</ele><time>2022-01-15T12:53:41Z</time><extensions><speed>1.613090</speed><course>65.458908</course><hAcc>2.223469</hAcc><vAcc>0.442780</vAcc></extensions></trkpt>
      <trkpt lon="-3.017587" lat="52.718697"><ele>214.638947</ele><time>2022-01-15T12:53:42Z</time><extensions><speed>1.539366</speed><course>65.379875</course><hAcc>2.217159</hAcc><vAcc>0.438610</vAcc></extensions></trkpt>
      <trkpt lon="-3.017567" lat="52.718702"><ele>214.499588</ele><time>2022-01-15T12:53:43Z</time><extensions><speed>1.440244</speed><course>68.242561</course><hAcc>2.210189</hAcc><vAcc>0.433606</vAcc></extensions></trkpt>
      <trkpt lon="-3.017547" lat="52.718706"><ele>214.375122</ele><time>2022-01-15T12:53:44Z</time><extensions><speed>1.312310</speed><course>73.647629</course><hAcc>2.215190</hAcc><vAcc>0.428159</vAcc></extensions></trkpt>
      <trkpt lon="-3.017529" lat="52.718708"><ele>214.264160</ele><time>2022-01-15T12:53:45Z</time><extensions><speed>1.225718</speed><course>82.866867</course><hAcc>2.187389</hAcc><vAcc>0.422789</vAcc></extensions></trkpt>
      <trkpt lon="-3.017511" lat="52.718708"><ele>214.169342</ele><time>2022-01-15T12:53:46Z</time><extensions><speed>1.200583</speed><course>97.400986</course><hAcc>2.136677</hAcc><vAcc>0.417478</vAcc></extensions></trkpt>
      <trkpt lon="-3.017495" lat="52.718705"><ele>214.095139</ele><time>2022-01-15T12:53:47Z</time><extensions><speed>1.140814</speed><course>108.762550</course><hAcc>2.112934</hAcc><vAcc>0.412669</vAcc></extensions></trkpt>
      <trkpt lon="-3.017480" lat="52.718701"><ele>214.041351</ele><time>2022-01-15T12:53:48Z</time><extensions><speed>0.994935</speed><course>118.268303</course><hAcc>2.133082</hAcc><vAcc>0.408958</vAcc></extensions></trkpt>
      <trkpt lon="-3.017469" lat="52.718697"><ele>214.004990</ele><time>2022-01-15T12:53:49Z</time><extensions><speed>0.784926</speed><course>127.767601</course><hAcc>2.169871</hAcc><vAcc>0.406927</vAcc></extensions></trkpt>
      <trkpt lon="-3.017461" lat="52.718692"><ele>213.981659</ele><time>2022-01-15T12:53:50Z</time><extensions><speed>0.744796</speed><course>143.820526</course><hAcc>2.152050</hAcc><vAcc>0.407203</vAcc></extensions></trkpt>
      <trkpt lon="-3.017456" lat="52.718686"><ele>213.970154</ele><time>2022-01-15T12:53:51Z</time><extensions><speed>0.660168</speed><course>160.498825</course><hAcc>2.147976</hAcc><vAcc>0.410306</vAcc></extensions></trkpt>
      <trkpt lon="-3.017454" lat="52.718680"><ele>213.967850</ele><time>2022-01-15T12:53:52Z</time><extensions><speed>0.675596</speed><course>170.379608</course><hAcc>2.152073</hAcc><vAcc>0.416586</vAcc></extensions></trkpt>
      <trkpt lon="-3.017453" lat="52.718674"><ele>213.974869</ele><time>2022-01-15T12:53:53Z</time><extensions><speed>0.689799</speed><course>175.718185</course><hAcc>2.154919</hAcc><vAcc>0.426237</vAcc></extensions></trkpt>
      <trkpt lon="-3.017452" lat="52.718668"><ele>213.991562</ele><time>2022-01-15T12:53:54Z</time><extensions><speed>0.676463</speed><course>178.920822</course><hAcc>2.154910</hAcc><vAcc>0.439173</vAcc></extensions></trkpt>
      <trkpt lon="-3.017452" lat="52.718662"><ele>214.018097</ele><time>2022-01-15T12:53:55Z</time><extensions><speed>0.602980</speed><course>180.924835</course><hAcc>2.153146</hAcc><vAcc>0.454508</vAcc></extensions></trkpt>
      <trkpt lon="-3.017452" lat="52.718657"><ele>214.053696</ele><time>2022-01-15T12:53:56Z</time><extensions><speed>0.553581</speed><course>181.353455</course><hAcc>2.134860</hAcc><vAcc>0.470530</vAcc></extensions></trkpt>
      <trkpt lon="-3.017452" lat="52.718652"><ele>214.095337</ele><time>2022-01-15T12:53:57Z</time><extensions><speed>0.482528</speed><course>179.724762</course><hAcc>2.123048</hAcc><vAcc>0.485543</vAcc></extensions></trkpt>
      <trkpt lon="-3.017452" lat="52.718648"><ele>214.141296</ele><time>2022-01-15T12:53:58Z</time><extensions><speed>0.374090</speed><course>175.259918</course><hAcc>2.131020</hAcc><vAcc>0.498457</vAcc></extensions></trkpt>
      <trkpt lon="-3.017451" lat="52.718645"><ele>214.189972</ele><time>2022-01-15T12:53:59Z</time><extensions><speed>0.338010</speed><course>166.853912</course><hAcc>2.123440</hAcc><vAcc>0.508801</vAcc></extensions></trkpt>
      <trkpt lon="-3.017449" lat="52.718642"><ele>214.239929</ele><time>2022-01-15T12:54:00Z</time><extensions><speed>0.352623</speed><course>155.890976</course><hAcc>2.102957</hAcc><vAcc>0.516604</vAcc></extensions></trkpt>
      <trkpt lon="-3.017446" lat="52.718640"><ele>214.289886</ele><time>2022-01-15T12:54:01Z</time><extensions><speed>0.355738</speed><course>144.857361</course><hAcc>2.098901</hAcc><vAcc>0.522249</vAcc></extensions></trkpt>
      <trkpt lon="-3.017443" lat="52.718637"><ele>214.338089</ele><time>2022-01-15T12:54:02Z</time><extensions><speed>0.346251</speed><course>135.409210</course><hAcc>2.108433</hAcc><vAcc>0.526303</vAcc></extensions></trkpt>
      <trkpt lon="-3.017439" lat="52.718635"><ele>214.383499</ele><time>2022-01-15T12:54:03Z</time><extensions><speed>0.332358</speed><course>128.536575</course><hAcc>2.109837</hAcc><vAcc>0.529357</vAcc></extensions></trkpt>
      <trkpt lon="-3.017435" lat="52.718634"><ele>214.425980</ele><time>2022-01-15T12:54:04Z</time><extensions><speed>0.307636</speed><course>122.443268</course><hAcc>2.094674</hAcc><vAcc>0.531907</vAcc></extensions></trkpt>
      <trkpt lon="-3.017432" lat="52.718632"><ele>214.463486</ele><time>2022-01-15T12:54:05Z</time><extensions><speed>0.274139</speed><course>115.888405</course><hAcc>2.064534</hAcc><vAcc>0.534202</vAcc></extensions></trkpt>
      <trkpt lon="-3.017428" lat="52.718632"><ele>214.485886</ele><time>2022-01-15T12:54:06Z</time><extensions><speed>0.228659</speed><course>108.998459</course><hAcc>2.031355</hAcc><vAcc>0.536184</vAcc></extensions></trkpt>
      <trkpt lon="-3.017425" lat="52.718631"><ele>214.494446</ele><time>2022-01-15T12:54:07Z</time><extensions><speed>0.168200</speed><course>98.639679</course><hAcc>2.005870</hAcc><vAcc>0.537547</vAcc></extensions></trkpt>
      <trkpt lon="-3.017423" lat="52.718631"><ele>214.499908</ele><time>2022-01-15T12:54:08Z</time><extensions><speed>0.129088</speed><course>81.754807</course><hAcc>1.981710</hAcc><vAcc>0.537906</vAcc></extensions></trkpt>
      <trkpt lon="-3.017421" lat="52.718632"><ele>214.502213</ele><time>2022-01-15T12:54:09Z</time><extensions><speed>0.115874</speed><course>59.647259</course><hAcc>1.968489</hAcc><vAcc>0.536885</vAcc></extensions></trkpt>
      <trkpt lon="-3.017420" lat="52.718633"><ele>214.501495</ele><time>2022-01-15T12:54:10Z</time><extensions><speed>0.130291</speed><course>40.930870</course><hAcc>1.966619</hAcc><vAcc>0.534291</vAcc></extensions></trkpt>
      <trkpt lon="-3.017419" lat="52.718634"><ele>214.498978</ele><time>2022-01-15T12:54:11Z</time><extensions><speed>0.165298</speed><course>29.019783</course><hAcc>1.966099</hAcc><vAcc>0.530246</vAcc></extensions></trkpt>
      <trkpt lon="-3.017417" lat="52.718635"><ele>214.495575</ele><time>2022-01-15T12:54:12Z</time><extensions><speed>0.251804</speed><course>22.216114</course><hAcc>1.942867</hAcc><vAcc>0.525280</vAcc></extensions></trkpt>
      <trkpt lon="-3.017416" lat="52.718638"><ele>214.488647</ele><time>2022-01-15T12:54:13Z</time><extensions><speed>0.284657</speed><course>19.743309</course><hAcc>1.950880</hAcc><vAcc>0.520301</vAcc></extensions></trkpt>
      <trkpt lon="-3.017414" lat="52.718640"><ele>214.480270</ele><time>2022-01-15T12:54:14Z</time><extensions><speed>0.293423</speed><course>21.137501</course><hAcc>1.974475</hAcc><vAcc>0.516530</vAcc></extensions></trkpt>
      <trkpt lon="-3.017413" lat="52.718642"><ele>214.471222</ele><time>2022-01-15T12:54:15Z</time><extensions><speed>0.300537</speed><course>25.452917</course><hAcc>1.990718</hAcc><vAcc>0.515350</vAcc></extensions></trkpt>
      <trkpt lon="-3.017411" lat="52.718645"><ele>214.463242</ele><time>2022-01-15T12:54:16Z</time><extensions><speed>0.293418</speed><course>31.817436</course><hAcc>1.994127</hAcc><vAcc>0.518081</vAcc></extensions></trkpt>
      <trkpt lon="-3.017408" lat="52.718647"><ele>214.456345</ele><time>2022-01-15T12:54:17Z</time><extensions><speed>0.309983</speed><course>38.231487</course><hAcc>1.967845</hAcc><vAcc>0.525417</vAcc></extensions></trkpt>
      <trkpt lon="-3.017406" lat="52.718648"><ele>214.448807</ele><time>2022-01-15T12:54:18Z</time><extensions><speed>0.233945</speed><course>48.939400</course><hAcc>1.926321</hAcc><vAcc>0.537079</vAcc></extensions></trkpt>
      <trkpt lon="-3.017404" lat="52.718649"><ele>214.440567</ele><time>2022-01-15T12:54:19Z</time><extensions><speed>0.076705</speed><course>65.373207</course><hAcc>1.901324</hAcc><vAcc>0.552155</vAcc></extensions></trkpt>
      <trkpt lon="-3.017404" lat="52.718649"><ele>214.429901</ele><time>2022-01-15T12:54:20Z</time><extensions><speed>0.041221</speed><course>179.900253</course><hAcc>1.881160</hAcc><vAcc>0.569494</vAcc></extensions></trkpt>
      <trkpt lon="-3.017404" lat="52.718648"><ele>214.419739</ele><time>2022-01-15T12:54:20Z</time><extensions><speed>0.096767</speed><course>207.903564</course><hAcc>1.864825</hAcc><vAcc>0.587940</vAcc></extensions></trkpt>
      <trkpt lon="-3.017405" lat="52.718647"><ele>214.409454</ele><time>2022-01-15T12:54:21Z</time><extensions><speed>0.160219</speed><course>213.305664</course><hAcc>1.824260</hAcc><vAcc>0.606671</vAcc></extensions></trkpt>
      <trkpt lon="-3.017406" lat="52.718646"><ele>214.401138</ele><time>2022-01-15T12:54:22Z</time><extensions><speed>0.204471</speed><course>215.875305</course><hAcc>1.786880</hAcc><vAcc>0.625019</vAcc></extensions></trkpt>
      <trkpt lon="-3.017408" lat="52.718644"><ele>214.394043</ele><time>2022-01-15T12:54:23Z</time><extensions><speed>0.238526</speed><course>217.839996</course><hAcc>1.760905</hAcc><vAcc>0.642621</vAcc></extensions></trkpt>
      <trkpt lon="-3.017411" lat="52.718643"><ele>214.390640</ele><time>2022-01-15T12:54:25Z</time><extensions><speed>0.240407</speed><course>219.008301</course><hAcc>1.762758</hAcc><vAcc>0.659211</vAcc></extensions></trkpt>
      <trkpt lon="-3.017412" lat="52.718641"><ele>214.391281</ele><time>2022-01-15T12:54:26Z</time><extensions><speed>0.164466</speed><course>219.014893</course><hAcc>1.789572</hAcc><vAcc>0.674660</vAcc></extensions></trkpt>
      <trkpt lon="-3.017414" lat="52.718640"><ele>214.396652</ele><time>2022-01-15T12:54:27Z</time><extensions><speed>0.191426</speed><course>216.631348</course><hAcc>1.749922</hAcc><vAcc>0.688772</vAcc></extensions></trkpt>
      <trkpt lon="-3.017416" lat="52.718638"><ele>214.411224</ele><time>2022-01-15T12:54:28Z</time><extensions><speed>0.173010</speed><course>209.514435</course><hAcc>1.731388</hAcc><vAcc>0.701325</vAcc></extensions></trkpt>
      <trkpt lon="-3.017417" lat="52.718637"><ele>214.435806</ele><time>2022-01-15T12:54:29Z</time><extensions><speed>0.173140</speed><course>194.935516</course><hAcc>1.734205</hAcc><vAcc>0.712217</vAcc></extensions></trkpt>
      <trkpt lon="-3.017417" lat="52.718635"><ele>214.469650</ele><time>2022-01-15T12:54:30Z</time><extensions><speed>0.211772</speed><course>180.629211</course><hAcc>1.742990</hAcc><vAcc>0.721451</vAcc></extensions></trkpt>
      <trkpt lon="-3.017417" lat="52.718633"><ele>214.513580</ele><time>2022-01-15T12:54:31Z</time><extensions><speed>0.281961</speed><course>174.267166</course><hAcc>1.748721</hAcc><vAcc>0.729171</vAcc></extensions></trkpt>
      <trkpt lon="-3.017416" lat="52.718630"><ele>214.563766</ele><time>2022-01-15T12:54:32Z</time><extensions><speed>0.354167</speed><course>174.106812</course><hAcc>1.756974</hAcc><vAcc>0.735540</vAcc></extensions></trkpt>
      <trkpt lon="-3.017416" lat="52.718626"><ele>214.632401</ele><time>2022-01-15T12:54:33Z</time><extensions><speed>0.443720</speed><course>177.531876</course><hAcc>1.765478</hAcc><vAcc>0.740843</vAcc></extensions></trkpt>
      <trkpt lon="-3.017416" lat="52.718621"><ele>214.715347</ele><time>2022-01-15T12:54:34Z</time><extensions><speed>0.535609</speed><course>181.586777</course><hAcc>1.779382</hAcc><vAcc>0.745290</vAcc></extensions></trkpt>
      <trkpt lon="-3.017416" lat="52.718616"><ele>214.815659</ele><time>2022-01-15T12:54:35Z</time><extensions><speed>0.702729</speed><course>184.778503</course><hAcc>1.780827</hAcc><vAcc>0.749068</vAcc></extensions></trkpt>
      <trkpt lon="-3.017418" lat="52.718608"><ele>214.929825</ele><time>2022-01-15T12:54:36Z</time><extensions><speed>1.053361</speed><course>187.509598</course><hAcc>1.765428</hAcc><vAcc>0.752319</vAcc></extensions></trkpt>
      <trkpt lon="-3.017420" lat="52.718598"><ele>215.057175</ele><time>2022-01-15T12:54:37Z</time><extensions><speed>1.189222</speed><course>190.996948</course><hAcc>1.779182</hAcc><vAcc>0.755071</vAcc></extensions></trkpt>
      <trkpt lon="-3.017424" lat="52.718587"><ele>215.201965</ele><time>2022-01-15T12:54:38Z</time><extensions><speed>1.197146</speed><course>192.947723</course><hAcc>1.788647</hAcc><vAcc>0.757405</vAcc></extensions></trkpt>
      <trkpt lon="-3.017428" lat="52.718577"><ele>215.354675</ele><time>2022-01-15T12:54:39Z</time><extensions><speed>1.197278</speed><course>193.054489</course><hAcc>1.788671</hAcc><vAcc>0.759481</vAcc></extensions></trkpt>
      <trkpt lon="-3.017432" lat="52.718567"><ele>215.516052</ele><time>2022-01-15T12:54:40Z</time><extensions><speed>1.176394</speed><course>194.088913</course><hAcc>1.786601</hAcc><vAcc>0.761176</vAcc></extensions></trkpt>
      <trkpt lon="-3.017437" lat="52.718556"><ele>215.732956</ele><time>2022-01-15T12:54:41Z</time><extensions><speed>1.176799</speed><course>195.361053</course><hAcc>1.785391</hAcc><vAcc>0.762507</vAcc></extensions></trkpt>
      <trkpt lon="-3.017442" lat="52.718546"><ele>215.971085</ele><time>2022-01-15T12:54:42Z</time><extensions><speed>1.195798</speed><course>195.891708</course><hAcc>1.788340</hAcc><vAcc>0.763614</vAcc></extensions></trkpt>
      <trkpt lon="-3.017447" lat="52.718536"><ele>216.216553</ele><time>2022-01-15T12:54:43Z</time><extensions><speed>1.158766</speed><course>198.209381</course><hAcc>1.793648</hAcc><vAcc>0.764340</vAcc></extensions></trkpt>
      <trkpt lon="-3.017452" lat="52.718526"><ele>216.459564</ele><time>2022-01-15T12:54:44Z</time><extensions><speed>1.077153</speed><course>201.476410</course><hAcc>1.799822</hAcc><vAcc>0.764637</vAcc></extensions></trkpt>
      <trkpt lon="-3.017458" lat="52.718518"><ele>216.692993</ele><time>2022-01-15T12:54:45Z</time><extensions><speed>0.985280</speed><course>206.065109</course><hAcc>1.804006</hAcc><vAcc>0.764467</vAcc></extensions></trkpt>
      <trkpt lon="-3.017465" lat="52.718510"><ele>216.902786</ele><time>2022-01-15T12:54:46Z</time><extensions><speed>0.920744</speed><course>210.693298</course><hAcc>1.802474</hAcc><vAcc>0.763770</vAcc></extensions></trkpt>
      <trkpt lon="-3.017472" lat="52.718503"><ele>217.124146</ele><time>2022-01-15T12:54:47Z</time><extensions><speed>0.898925</speed><course>211.367996</course><hAcc>1.806308</hAcc><vAcc>0.762647</vAcc></extensions></trkpt>
      <trkpt lon="-3.017479" lat="52.718496"><ele>217.338089</ele><time>2022-01-15T12:54:48Z</time><extensions><speed>0.884856</speed><course>209.303680</course><hAcc>1.819264</hAcc><vAcc>0.761175</vAcc></extensions></trkpt>
      <trkpt lon="-3.017484" lat="52.718490"><ele>217.532959</ele><time>2022-01-15T12:54:49Z</time><extensions><speed>0.828172</speed><course>203.552719</course><hAcc>1.826552</hAcc><vAcc>0.759293</vAcc></extensions></trkpt>
      <trkpt lon="-3.017487" lat="52.718483"><ele>217.713913</ele><time>2022-01-15T12:54:50Z</time><extensions><speed>0.666429</speed><course>189.674316</course><hAcc>1.822963</hAcc><vAcc>0.757253</vAcc></extensions></trkpt>
      <trkpt lon="-3.017487" lat="52.718478"><ele>217.890198</ele><time>2022-01-15T12:54:51Z</time><extensions><speed>0.478299</speed><course>163.652832</course><hAcc>1.838037</hAcc><vAcc>0.754993</vAcc></extensions></trkpt>
      <trkpt lon="-3.017484" lat="52.718474"><ele>218.041992</ele><time>2022-01-15T12:54:52Z</time><extensions><speed>0.512428</speed><course>139.912933</course><hAcc>1.850168</hAcc><vAcc>0.752544</vAcc></extensions></trkpt>
      <trkpt lon="-3.017477" lat="52.718471"><ele>218.156586</ele><time>2022-01-15T12:54:53Z</time><extensions><speed>0.701299</speed><course>128.666412</course><hAcc>1.851084</hAcc><vAcc>0.749989</vAcc></extensions></trkpt>
      <trkpt lon="-3.017468" lat="52.718467"><ele>218.261246</ele><time>2022-01-15T12:54:54Z</time><extensions><speed>0.850374</speed><course>118.891785</course><hAcc>1.840474</hAcc><vAcc>0.747370</vAcc></extensions></trkpt>
      <trkpt lon="-3.017455" lat="52.718463"><ele>218.340363</ele><time>2022-01-15T12:54:55Z</time><extensions><speed>1.003488</speed><course>113.509659</course><hAcc>1.835744</hAcc><vAcc>0.744837</vAcc></extensions></trkpt>
      <trkpt lon="-3.017441" lat="52.718460"><ele>218.395889</ele><time>2022-01-15T12:54:56Z</time><extensions><speed>1.108202</speed><course>110.593254</course><hAcc>1.850300</hAcc><vAcc>0.742509</vAcc></extensions></trkpt>
      <trkpt lon="-3.017425" lat="52.718456"><ele>218.448669</ele><time>2022-01-15T12:54:57Z</time><extensions><speed>1.139879</speed><course>107.186607</course><hAcc>1.854865</hAcc><vAcc>0.740491</vAcc></extensions></trkpt>
      <trkpt lon="-3.017409" lat="52.718453"><ele>218.483627</ele><time>2022-01-15T12:54:58Z</time><extensions><speed>1.151459</speed><course>108.572899</course><hAcc>1.850202</hAcc><vAcc>0.738864</vAcc></extensions></trkpt>
      <trkpt lon="-3.017393" lat="52.718449"><ele>218.494827</ele><time>2022-01-15T12:54:59Z</time><extensions><speed>1.154656</speed><course>111.429817</course><hAcc>1.841943</hAcc><vAcc>0.737662</vAcc></extensions></trkpt>
      <trkpt lon="-3.017377" lat="52.718445"><ele>218.507538</ele><time>2022-01-15T12:55:00Z</time><extensions><speed>1.198615</speed><course>114.969437</course><hAcc>1.831099</hAcc><vAcc>0.736915</vAcc></extensions></trkpt>
      <trkpt lon="-3.017361" lat="52.718440"><ele>218.509735</ele><time>2022-01-15T12:55:01Z</time><extensions><speed>1.230988</speed><course>117.729988</course><hAcc>1.814120</hAcc><vAcc>0.736566</vAcc></extensions></trkpt>
      <trkpt lon="-3.017345" lat="52.718435"><ele>218.504105</ele><time>2022-01-15T12:55:02Z</time><extensions><speed>1.105044</speed><course>118.416496</course><hAcc>1.817834</hAcc><vAcc>0.736640</vAcc></extensions></trkpt>
      <trkpt lon="-3.017332" lat="52.718431"><ele>218.496414</ele><time>2022-01-15T12:55:03Z</time><extensions><speed>0.907077</speed><course>120.148972</course><hAcc>1.831414</hAcc><vAcc>0.736997</vAcc></extensions></trkpt>
      <trkpt lon="-3.017321" lat="52.718427"><ele>218.480972</ele><time>2022-01-15T12:55:04Z</time><extensions><speed>0.866095</speed><course>121.835976</course><hAcc>1.806541</hAcc><vAcc>0.737625</vAcc></extensions></trkpt>
      <trkpt lon="-3.017310" lat="52.718423"><ele>218.472748</ele><time>2022-01-15T12:55:05Z</time><extensions><speed>0.876778</speed><course>123.235130</course><hAcc>1.794875</hAcc><vAcc>0.738462</vAcc></extensions></trkpt>
      <trkpt lon="-3.017299" lat="52.718418"><ele>218.453461</ele><time>2022-01-15T12:55:06Z</time><extensions><speed>0.875034</speed><course>123.241905</course><hAcc>1.801585</hAcc><vAcc>0.739421</vAcc></extensions></trkpt>
      <trkpt lon="-3.017288" lat="52.718414"><ele>218.437195</ele><time>2022-01-15T12:55:07Z</time><extensions><speed>0.917502</speed><course>120.675003</course><hAcc>1.812553</hAcc><vAcc>0.740501</vAcc></extensions></trkpt>
      <trkpt lon="-3.017276" lat="52.718410"><ele>218.430832</ele><time>2022-01-15T12:55:08Z</time><extensions><speed>0.993484</speed><course>118.266594</course><hAcc>1.828535</hAcc><vAcc>0.741700</vAcc></extensions></trkpt>
      <trkpt lon="-3.017263" lat="52.718406"><ele>218.432724</ele><time>2022-01-15T12:55:09Z</time><extensions><speed>0.952339</speed><course>115.945061</course><hAcc>1.819910</hAcc><vAcc>0.742997</vAcc></extensions></trkpt>
      <trkpt lon="-3.017250" lat="52.718402"><ele>218.417496</ele><time>2022-01-15T12:55:10Z</time><extensions><speed>0.915743</speed><course>114.184517</course><hAcc>1.816164</hAcc><vAcc>0.744376</vAcc></extensions></trkpt>
      <trkpt lon="-3.017238" lat="52.718399"><ele>218.418472</ele><time>2022-01-15T12:55:11Z</time><extensions><speed>0.912682</speed><course>112.111702</course><hAcc>1.816895</hAcc><vAcc>0.745801</vAcc></extensions></trkpt>
      <trkpt lon="-3.017225" lat="52.718396"><ele>218.425003</ele><time>2022-01-15T12:55:12Z</time><extensions><speed>0.940789</speed><course>110.359734</course><hAcc>1.817403</hAcc><vAcc>0.747219</vAcc></extensions></trkpt>
      <trkpt lon="-3.017212" lat="52.718393"><ele>218.432693</ele><time>2022-01-15T12:55:13Z</time><extensions><speed>0.932809</speed><course>109.235855</course><hAcc>1.816825</hAcc><vAcc>0.748563</vAcc></extensions></trkpt>
      <trkpt lon="-3.017199" lat="52.718391"><ele>218.437927</ele><time>2022-01-15T12:55:14Z</time><extensions><speed>0.894908</speed><course>108.084305</course><hAcc>1.816726</hAcc><vAcc>0.749778</vAcc></extensions></trkpt>
      <trkpt lon="-3.017186" lat="52.718388"><ele>218.455551</ele><time>2022-01-15T12:55:15Z</time><extensions><speed>0.934017</speed><course>107.586678</course><hAcc>1.811401</hAcc><vAcc>0.750783</vAcc></extensions></trkpt>
      <trkpt lon="-3.017173" lat="52.718386"><ele>218.479568</ele><time>2022-01-15T12:55:16Z</time><extensions><speed>0.946625</speed><course>107.788589</course><hAcc>1.811939</hAcc><vAcc>0.751541</vAcc></extensions></trkpt>
      <trkpt lon="-3.017159" lat="52.718383"><ele>218.511856</ele><time>2022-01-15T12:55:17Z</time><extensions><speed>0.949783</speed><course>107.809914</course><hAcc>1.814633</hAcc><vAcc>0.752008</vAcc></extensions></trkpt>
      <trkpt lon="-3.017146" lat="52.718381"><ele>218.542358</ele><time>2022-01-15T12:55:18Z</time><extensions><speed>0.929798</speed><course>107.640984</course><hAcc>1.804320</hAcc><vAcc>0.752244</vAcc></extensions></trkpt>
      <trkpt lon="-3.017133" lat="52.718378"><ele>218.582794</ele><time>2022-01-15T12:55:19Z</time><extensions><speed>0.919822</speed><course>107.347481</course><hAcc>1.797782</hAcc><vAcc>0.752277</vAcc></extensions></trkpt>
      <trkpt lon="-3.017121" lat="52.718376"><ele>218.633270</ele><time>2022-01-15T12:55:20Z</time><extensions><speed>0.865712</speed><course>108.096611</course><hAcc>1.795030</hAcc><vAcc>0.752169</vAcc></extensions></trkpt>
      <trkpt lon="-3.017108" lat="52.718373"><ele>218.670868</ele><time>2022-01-15T12:55:21Z</time><extensions><speed>0.919358</speed><course>108.280312</course><hAcc>1.800995</hAcc><vAcc>0.751976</vAcc></extensions></trkpt>
      <trkpt lon="-3.017094" lat="52.718370"><ele>218.719131</ele><time>2022-01-15T12:55:22Z</time><extensions><speed>0.997595</speed><course>108.897018</course><hAcc>1.815349</hAcc><vAcc>0.751795</vAcc></extensions></trkpt>
      <trkpt lon="-3.017080" lat="52.718367"><ele>218.782196</ele><time>2022-01-15T12:55:23Z</time><extensions><speed>1.060025</speed><course>107.997009</course><hAcc>1.803593</hAcc><vAcc>0.751687</vAcc></extensions></trkpt>
      <trkpt lon="-3.017065" lat="52.718364"><ele>218.832748</ele><time>2022-01-15T12:55:24Z</time><extensions><speed>1.091394</speed><course>107.793121</course><hAcc>1.798563</hAcc><vAcc>0.751712</vAcc></extensions></trkpt>
      <trkpt lon="-3.017050" lat="52.718361"><ele>218.905807</ele><time>2022-01-15T12:55:25Z</time><extensions><speed>1.046659</speed><course>109.181274</course><hAcc>1.805675</hAcc><vAcc>0.751943</vAcc></extensions></trkpt>
      <trkpt lon="-3.017036" lat="52.718358"><ele>218.968521</ele><time>2022-01-15T12:55:26Z</time><extensions><speed>0.923296</speed><course>111.987839</course><hAcc>1.819476</hAcc><vAcc>0.752368</vAcc></extensions></trkpt>
      <trkpt lon="-3.017024" lat="52.718355"><ele>219.042282</ele><time>2022-01-15T12:55:27Z</time><extensions><speed>0.816220</speed><course>116.182335</course><hAcc>1.830216</hAcc><vAcc>0.753034</vAcc></extensions></trkpt>
      <trkpt lon="-3.017014" lat="52.718352"><ele>219.115585</ele><time>2022-01-15T12:55:28Z</time><extensions><speed>0.789338</speed><course>119.344276</course><hAcc>1.822150</hAcc><vAcc>0.753991</vAcc></extensions></trkpt>
      <trkpt lon="-3.017004" lat="52.718348"><ele>219.192703</ele><time>2022-01-15T12:55:29Z</time><extensions><speed>0.779423</speed><course>121.657021</course><hAcc>1.811329</hAcc><vAcc>0.755175</vAcc></extensions></trkpt>
      <trkpt lon="-3.016994" lat="52.718344"><ele>219.273026</ele><time>2022-01-15T12:55:30Z</time><extensions><speed>0.809776</speed><course>122.773720</course><hAcc>1.812886</hAcc><vAcc>0.756526</vAcc></extensions></trkpt>
      <trkpt lon="-3.016983" lat="52.718340"><ele>219.347122</ele><time>2022-01-15T12:55:31Z</time><extensions><speed>0.875233</speed><course>122.754959</course><hAcc>1.820603</hAcc><vAcc>0.757876</vAcc></extensions></trkpt>
      <trkpt lon="-3.016972" lat="52.718336"><ele>219.440598</ele><time>2022-01-15T12:55:32Z</time><extensions><speed>0.894729</speed><course>121.652107</course><hAcc>1.823269</hAcc><vAcc>0.759164</vAcc></extensions></trkpt>
      <trkpt lon="-3.016961" lat="52.718332"><ele>219.525452</ele><time>2022-01-15T12:55:33Z</time><extensions><speed>0.900372</speed><course>119.575165</course><hAcc>1.823290</hAcc><vAcc>0.760284</vAcc></extensions></trkpt>
      <trkpt lon="-3.016949" lat="52.718328"><ele>219.612457</ele><time>2022-01-15T12:55:34Z</time><extensions><speed>0.882230</speed><course>117.574310</course><hAcc>1.821398</hAcc><vAcc>0.761222</vAcc></extensions></trkpt>
      <trkpt lon="-3.016938" lat="52.718325"><ele>219.709000</ele><time>2022-01-15T12:55:35Z</time><extensions><speed>0.808978</speed><course>115.467781</course><hAcc>1.819612</hAcc><vAcc>0.761940</vAcc></extensions></trkpt>
      <trkpt lon="-3.016927" lat="52.718321"><ele>219.790680</ele><time>2022-01-15T12:55:36Z</time><extensions><speed>0.794312</speed><course>115.463425</course><hAcc>1.809251</hAcc><vAcc>0.762441</vAcc></extensions></trkpt>
      <trkpt lon="-3.016917" lat="52.718319"><ele>219.905304</ele><time>2022-01-15T12:55:37Z</time><extensions><speed>0.732120</speed><course>115.509613</course><hAcc>1.803331</hAcc><vAcc>0.762747</vAcc></extensions></trkpt>
      <trkpt lon="-3.016907" lat="52.718316"><ele>219.989929</ele><time>2022-01-15T12:55:38Z</time><extensions><speed>0.708355</speed><course>115.358093</course><hAcc>1.812377</hAcc><vAcc>0.762877</vAcc></extensions></trkpt>
      <trkpt lon="-3.016898" lat="52.718313"><ele>220.093277</ele><time>2022-01-15T12:55:39Z</time><extensions><speed>0.624443</speed><course>114.062149</course><hAcc>1.829252</hAcc><vAcc>0.762879</vAcc></extensions></trkpt>
      <trkpt lon="-3.016891" lat="52.718311"><ele>220.196503</ele><time>2022-01-15T12:55:40Z</time><extensions><speed>0.451988</speed><course>108.616058</course><hAcc>1.842272</hAcc><vAcc>0.762796</vAcc></extensions></trkpt>
      <trkpt lon="-3.016883" lat="52.718310"><ele>220.291107</ele><time>2022-01-15T12:55:41Z</time><extensions><speed>0.625030</speed><course>105.064453</course><hAcc>1.809701</hAcc><vAcc>0.762714</vAcc></extensions></trkpt>
      <trkpt lon="-3.016874" lat="52.718309"><ele>220.394745</ele><time>2022-01-15T12:55:42Z</time><extensions><speed>0.710027</speed><course>102.797279</course><hAcc>1.792917</hAcc><vAcc>0.762664</vAcc></extensions></trkpt>
      <trkpt lon="-3.016863" lat="52.718307"><ele>220.505661</ele><time>2022-01-15T12:55:43Z</time><extensions><speed>0.795566</speed><course>104.758202</course><hAcc>1.787906</hAcc><vAcc>0.762676</vAcc></extensions></trkpt>
      <trkpt lon="-3.016851" lat="52.718305"><ele>220.611374</ele><time>2022-01-15T12:55:44Z</time><extensions><speed>0.843626</speed><course>106.733566</course><hAcc>1.804561</hAcc><vAcc>0.762767</vAcc></extensions></trkpt>
      <trkpt lon="-3.016839" lat="52.718303"><ele>220.729401</ele><time>2022-01-15T12:55:45Z</time><extensions><speed>0.852454</speed><course>108.676895</course><hAcc>1.826086</hAcc><vAcc>0.762985</vAcc></extensions></trkpt>
      <trkpt lon="-3.016827" lat="52.718300"><ele>220.833511</ele><time>2022-01-15T12:55:46Z</time><extensions><speed>0.851303</speed><course>110.745796</course><hAcc>1.801975</hAcc><vAcc>0.763303</vAcc></extensions></trkpt>
      <trkpt lon="-3.016816" lat="52.718297"><ele>220.945145</ele><time>2022-01-15T12:55:47Z</time><extensions><speed>0.843110</speed><course>111.031197</course><hAcc>1.786782</hAcc><vAcc>0.763686</vAcc></extensions></trkpt>
      <trkpt lon="-3.016804" lat="52.718295"><ele>221.049423</ele><time>2022-01-15T12:55:48Z</time><extensions><speed>0.853379</speed><course>112.467659</course><hAcc>1.779990</hAcc><vAcc>0.764129</vAcc></extensions></trkpt>
      <trkpt lon="-3.016792" lat="52.718291"><ele>221.166748</ele><time>2022-01-15T12:55:49Z</time><extensions><speed>0.899628</speed><course>113.433922</course><hAcc>1.781598</hAcc><vAcc>0.764585</vAcc></extensions></trkpt>
      <trkpt lon="-3.016780" lat="52.718288"><ele>221.287598</ele><time>2022-01-15T12:55:50Z</time><extensions><speed>0.847715</speed><course>115.625320</course><hAcc>1.791595</hAcc><vAcc>0.765071</vAcc></extensions></trkpt>
      <trkpt lon="-3.016769" lat="52.718285"><ele>221.401199</ele><time>2022-01-15T12:55:51Z</time><extensions><speed>0.791180</speed><course>118.305893</course><hAcc>1.806289</hAcc><vAcc>0.765610</vAcc></extensions></trkpt>
      <trkpt lon="-3.016759" lat="52.718282"><ele>221.517700</ele><time>2022-01-15T12:55:52Z</time><extensions><speed>0.761624</speed><course>118.673103</course><hAcc>1.800873</hAcc><vAcc>0.766198</vAcc></extensions></trkpt>
      <trkpt lon="-3.016750" lat="52.718278"><ele>221.619904</ele><time>2022-01-15T12:55:53Z</time><extensions><speed>0.736465</speed><course>118.157410</course><hAcc>1.799648</hAcc><vAcc>0.766791</vAcc></extensions></trkpt>
      <trkpt lon="-3.016740" lat="52.718275"><ele>221.721634</ele><time>2022-01-15T12:55:54Z</time><extensions><speed>0.737131</speed><course>116.993118</course><hAcc>1.804308</hAcc><vAcc>0.767417</vAcc></extensions></trkpt>
      <trkpt lon="-3.016730" lat="52.718272"><ele>221.820129</ele><time>2022-01-15T12:55:55Z</time><extensions><speed>0.714844</speed><course>115.766197</course><hAcc>1.810802</hAcc><vAcc>0.768108</vAcc></extensions></trkpt>
      <trkpt lon="-3.016721" lat="52.718270"><ele>221.919678</ele><time>2022-01-15T12:55:56Z</time><extensions><speed>0.677071</speed><course>114.398445</course><hAcc>1.810305</hAcc><vAcc>0.768824</vAcc></extensions></trkpt>
      <trkpt lon="-3.016712" lat="52.718267"><ele>222.019485</ele><time>2022-01-15T12:55:57Z</time><extensions><speed>0.634616</speed><course>111.966454</course><hAcc>1.805374</hAcc><vAcc>0.769565</vAcc></extensions></trkpt>
      <trkpt lon="-3.016703" lat="52.718265"><ele>222.102188</ele><time>2022-01-15T12:55:58Z</time><extensions><speed>0.617912</speed><course>109.804184</course><hAcc>1.811809</hAcc><vAcc>0.770270</vAcc></extensions></trkpt>
      <trkpt lon="-3.016695" lat="52.718264"><ele>222.208939</ele><time>2022-01-15T12:55:59Z</time><extensions><speed>0.601565</speed><course>107.700645</course><hAcc>1.816067</hAcc><vAcc>0.770949</vAcc></extensions></trkpt>
      <trkpt lon="-3.016686" lat="52.718262"><ele>222.302826</ele><time>2022-01-15T12:56:00Z</time><extensions><speed>0.617803</speed><course>107.515160</course><hAcc>1.813753</hAcc><vAcc>0.771650</vAcc></extensions></trkpt>
      <trkpt lon="-3.016677" lat="52.718260"><ele>222.385376</ele><time>2022-01-15T12:56:01Z</time><extensions><speed>0.641524</speed><course>108.903374</course><hAcc>1.807219</hAcc><vAcc>0.772311</vAcc></extensions></trkpt>
      <trkpt lon="-3.016668" lat="52.718258"><ele>222.474838</ele><time>2022-01-15T12:56:02Z</time><extensions><speed>0.655426</speed><course>108.663445</course><hAcc>1.801104</hAcc><vAcc>0.772974</vAcc></extensions></trkpt>
      <trkpt lon="-3.016659" lat="52.718256"><ele>222.566650</ele><time>2022-01-15T12:56:03Z</time><extensions><speed>0.664410</speed><course>106.821091</course><hAcc>1.792458</hAcc><vAcc>0.773569</vAcc></extensions></trkpt>
      <trkpt lon="-3.016649" lat="52.718255"><ele>222.665695</ele><time>2022-01-15T12:56:04Z</time><extensions><speed>0.673048</speed><course>105.314980</course><hAcc>1.785063</hAcc><vAcc>0.774076</vAcc></extensions></trkpt>
      <trkpt lon="-3.016639" lat="52.718253"><ele>222.767609</ele><time>2022-01-15T12:56:05Z</time><extensions><speed>0.660823</speed><course>104.705986</course><hAcc>1.781289</hAcc><vAcc>0.774484</vAcc></extensions></trkpt>
      <trkpt lon="-3.016631" lat="52.718252"><ele>222.864929</ele><time>2022-01-15T12:56:06Z</time><extensions><speed>0.588603</speed><course>103.886513</course><hAcc>1.789644</hAcc><vAcc>0.774803</vAcc></extensions></trkpt>
      <trkpt lon="-3.016624" lat="52.718251"><ele>222.956268</ele><time>2022-01-15T12:56:07Z</time><extensions><speed>0.379247</speed><course>106.666527</course><hAcc>1.808352</hAcc><vAcc>0.775070</vAcc></extensions></trkpt>
      <trkpt lon="-3.016618" lat="52.718250"><ele>223.063599</ele><time>2022-01-15T12:56:08Z</time><extensions><speed>0.443779</speed><course>112.049431</course><hAcc>1.795128</hAcc><vAcc>0.775311</vAcc></extensions></trkpt>
      <trkpt lon="-3.016611" lat="52.718248"><ele>223.157364</ele><time>2022-01-15T12:56:09Z</time><extensions><speed>0.634132</speed><course>115.800385</course><hAcc>1.783771</hAcc><vAcc>0.775543</vAcc></extensions></trkpt>
      <trkpt lon="-3.016601" lat="52.718245"><ele>223.274994</ele><time>2022-01-15T12:56:10Z</time><extensions><speed>0.796317</speed><course>113.812149</course><hAcc>1.785528</hAcc><vAcc>0.775772</vAcc></extensions></trkpt>
      <trkpt lon="-3.016589" lat="52.718242"><ele>223.374161</ele><time>2022-01-15T12:56:11Z</time><extensions><speed>0.882015</speed><course>111.516327</course><hAcc>1.798822</hAcc><vAcc>0.775990</vAcc></extensions></trkpt>
      <trkpt lon="-3.016577" lat="52.718239"><ele>223.483566</ele><time>2022-01-15T12:56:12Z</time><extensions><speed>0.896622</speed><course>108.901627</course><hAcc>1.808896</hAcc><vAcc>0.776174</vAcc></extensions></trkpt>
      <trkpt lon="-3.016565" lat="52.718237"><ele>223.587158</ele><time>2022-01-15T12:56:13Z</time><extensions><speed>0.862318</speed><course>106.389465</course><hAcc>1.814823</hAcc><vAcc>0.776357</vAcc></extensions></trkpt>
      <trkpt lon="-3.016553" lat="52.718235"><ele>223.691788</ele><time>2022-01-15T12:56:14Z</time><extensions><speed>0.773836</speed><course>105.045166</course><hAcc>1.814586</hAcc><vAcc>0.776551</vAcc></extensions></trkpt>
      <trkpt lon="-3.016542" lat="52.718233"><ele>223.765335</ele><time>2022-01-15T12:56:15Z</time><extensions><speed>0.729835</speed><course>105.378845</course><hAcc>1.806479</hAcc><vAcc>0.776764</vAcc></extensions></trkpt>
      <trkpt lon="-3.016532" lat="52.718231"><ele>223.867294</ele><time>2022-01-15T12:56:16Z</time><extensions><speed>0.750081</speed><course>108.009254</course><hAcc>1.803151</hAcc><vAcc>0.777020</vAcc></extensions></trkpt>
      <trkpt lon="-3.016521" lat="52.718229"><ele>223.957260</ele><time>2022-01-15T12:56:17Z</time><extensions><speed>0.773106</speed><course>109.627869</course><hAcc>1.810534</hAcc><vAcc>0.777337</vAcc></extensions></trkpt>
      <trkpt lon="-3.016510" lat="52.718227"><ele>224.051025</ele><time>2022-01-15T12:56:18Z</time><extensions><speed>0.785492</speed><course>109.529129</course><hAcc>1.811259</hAcc><vAcc>0.777725</vAcc></extensions></trkpt>
      <trkpt lon="-3.016499" lat="52.718224"><ele>224.160172</ele><time>2022-01-15T12:56:19Z</time><extensions><speed>0.788830</speed><course>109.821320</course><hAcc>1.807411</hAcc><vAcc>0.778180</vAcc></extensions></trkpt>
      <trkpt lon="-3.016488" lat="52.718222"><ele>224.252991</ele><time>2022-01-15T12:56:20Z</time><extensions><speed>0.793971</speed><course>110.235878</course><hAcc>1.798541</hAcc><vAcc>0.778732</vAcc></extensions></trkpt>
      <trkpt lon="-3.016477" lat="52.718219"><ele>224.339905</ele><time>2022-01-15T12:56:21Z</time><extensions><speed>0.877532</speed><course>111.335770</course><hAcc>1.778130</hAcc><vAcc>0.779481</vAcc></extensions></trkpt>
      <trkpt lon="-3.016464" lat="52.718216"><ele>224.462723</ele><time>2022-01-15T12:56:22Z</time><extensions><speed>1.004405</speed><course>112.249535</course><hAcc>1.773027</hAcc><vAcc>0.780384</vAcc></extensions></trkpt>
      <trkpt lon="-3.016449" lat="52.718212"><ele>224.566162</ele><time>2022-01-15T12:56:23Z</time><extensions><speed>1.103758</speed><course>114.199211</course><hAcc>1.769093</hAcc><vAcc>0.781398</vAcc></extensions></trkpt>
      <trkpt lon="-3.016435" lat="52.718207"><ele>224.680145</ele><time>2022-01-15T12:56:24Z</time><extensions><speed>1.084404</speed><course>120.309456</course><hAcc>1.740279</hAcc><vAcc>0.782561</vAcc></extensions></trkpt>
      <trkpt lon="-3.016422" lat="52.718202"><ele>224.795898</ele><time>2022-01-15T12:56:25Z</time><extensions><speed>1.048223</speed><course>128.403000</course><hAcc>1.721961</hAcc><vAcc>0.783819</vAcc></extensions></trkpt>
      <trkpt lon="-3.016410" lat="52.718196"><ele>224.931961</ele><time>2022-01-15T12:56:26Z</time><extensions><speed>1.048873</speed><course>133.571472</course><hAcc>1.720293</hAcc><vAcc>0.785181</vAcc></extensions></trkpt>
      <trkpt lon="-3.016399" lat="52.718189"><ele>225.053375</ele><time>2022-01-15T12:56:27Z</time><extensions><speed>1.025448</speed><course>138.752182</course><hAcc>1.718073</hAcc><vAcc>0.786566</vAcc></extensions></trkpt>
      <trkpt lon="-3.016390" lat="52.718182"><ele>225.195511</ele><time>2022-01-15T12:56:28Z</time><extensions><speed>0.975390</speed><course>143.095673</course><hAcc>1.702307</hAcc><vAcc>0.788020</vAcc></extensions></trkpt>
      <trkpt lon="-3.016382" lat="52.718174"><ele>225.337860</ele><time>2022-01-15T12:56:29Z</time><extensions><speed>0.998850</speed><course>146.860107</course><hAcc>1.660945</hAcc><vAcc>0.789431</vAcc></extensions></trkpt>
      <trkpt lon="-3.016374" lat="52.718167"><ele>225.464081</ele><time>2022-01-15T12:56:30Z</time><extensions><speed>1.013774</speed><course>150.516846</course><hAcc>1.656565</hAcc><vAcc>0.790729</vAcc></extensions></trkpt>
      <trkpt lon="-3.016367" lat="52.718159"><ele>225.608826</ele><time>2022-01-15T12:56:31Z</time><extensions><speed>1.000908</speed><course>153.101105</course><hAcc>1.677359</hAcc><vAcc>0.791956</vAcc></extensions></trkpt>
      <trkpt lon="-3.016360" lat="52.718151"><ele>225.763535</ele><time>2022-01-15T12:56:32Z</time><extensions><speed>0.986643</speed><course>153.995148</course><hAcc>1.648413</hAcc><vAcc>0.793012</vAcc></extensions></trkpt>
      <trkpt lon="-3.016354" lat="52.718142"><ele>225.917297</ele><time>2022-01-15T12:56:33Z</time><extensions><speed>1.025918</speed><course>155.917709</course><hAcc>1.632051</hAcc><vAcc>0.793861</vAcc></extensions></trkpt>
      <trkpt lon="-3.016349" lat="52.718134"><ele>226.085190</ele><time>2022-01-15T12:56:34Z</time><extensions><speed>0.980286</speed><course>159.303772</course><hAcc>1.654349</hAcc><vAcc>0.794595</vAcc></extensions></trkpt>
      <trkpt lon="-3.016344" lat="52.718125"><ele>226.252762</ele><time>2022-01-15T12:56:35Z</time><extensions><speed>1.032963</speed><course>163.530441</course><hAcc>1.635699</hAcc><vAcc>0.795110</vAcc></extensions></trkpt>
      <trkpt lon="-3.016340" lat="52.718117"><ele>226.410416</ele><time>2022-01-15T12:56:36Z</time><extensions><speed>0.973130</speed><course>168.434662</course><hAcc>1.651884</hAcc><vAcc>0.795366</vAcc></extensions></trkpt>
      <trkpt lon="-3.016338" lat="52.718108"><ele>226.580627</ele><time>2022-01-15T12:56:37Z</time><extensions><speed>0.978125</speed><course>175.701874</course><hAcc>1.652925</hAcc><vAcc>0.795372</vAcc></extensions></trkpt>
      <trkpt lon="-3.016338" lat="52.718099"><ele>226.751160</ele><time>2022-01-15T12:56:37Z</time><extensions><speed>0.925400</speed><course>181.465591</course><hAcc>1.683131</hAcc><vAcc>0.795101</vAcc></extensions></trkpt>
      <trkpt lon="-3.016339" lat="52.718091"><ele>226.944992</ele><time>2022-01-15T12:56:38Z</time><extensions><speed>1.028797</speed><course>186.648911</course><hAcc>1.671770</hAcc><vAcc>0.794682</vAcc></extensions></trkpt>
      <trkpt lon="-3.016341" lat="52.718081"><ele>227.137207</ele><time>2022-01-15T12:56:39Z</time><extensions><speed>1.058815</speed><course>189.667465</course><hAcc>1.679598</hAcc><vAcc>0.794064</vAcc></extensions></trkpt>
      <trkpt lon="-3.016344" lat="52.718072"><ele>227.342300</ele><time>2022-01-15T12:56:40Z</time><extensions><speed>1.020843</speed><course>191.786697</course><hAcc>1.705464</hAcc><vAcc>0.793255</vAcc></extensions></trkpt>
      <trkpt lon="-3.016348" lat="52.718064"><ele>227.530121</ele><time>2022-01-15T12:56:41Z</time><extensions><speed>0.919196</speed><course>196.204666</course><hAcc>1.723044</hAcc><vAcc>0.792219</vAcc></extensions></trkpt>
      <trkpt lon="-3.016352" lat="52.718057"><ele>227.731430</ele><time>2022-01-15T12:56:42Z</time><extensions><speed>0.785899</speed><course>206.998871</course><hAcc>1.739674</hAcc><vAcc>0.790968</vAcc></extensions></trkpt>
      <trkpt lon="-3.016358" lat="52.718051"><ele>227.927307</ele><time>2022-01-15T12:56:43Z</time><extensions><speed>0.725612</speed><course>219.686539</course><hAcc>1.754416</hAcc><vAcc>0.789500</vAcc></extensions></trkpt>
      <trkpt lon="-3.016366" lat="52.718046"><ele>228.128906</ele><time>2022-01-15T12:56:44Z</time><extensions><speed>0.714145</speed><course>225.504776</course><hAcc>1.741916</hAcc><vAcc>0.787802</vAcc></extensions></trkpt>
      <trkpt lon="-3.016374" lat="52.718042"><ele>228.334045</ele><time>2022-01-15T12:56:45Z</time><extensions><speed>0.775779</speed><course>225.628479</course><hAcc>1.739913</hAcc><vAcc>0.785877</vAcc></extensions></trkpt>
      <trkpt lon="-3.016382" lat="52.718037"><ele>228.536041</ele><time>2022-01-15T12:56:46Z</time><extensions><speed>0.786390</speed><course>223.208984</course><hAcc>1.745739</hAcc><vAcc>0.783756</vAcc></extensions></trkpt>
      <trkpt lon="-3.016389" lat="52.718031"><ele>228.734085</ele><time>2022-01-15T12:56:47Z</time><extensions><speed>0.739083</speed><course>221.498352</course><hAcc>1.758980</hAcc><vAcc>0.781441</vAcc></extensions></trkpt>
      <trkpt lon="-3.016396" lat="52.718027"><ele>228.912582</ele><time>2022-01-15T12:56:48Z</time><extensions><speed>0.702785</speed><course>220.662567</course><hAcc>1.782273</hAcc><vAcc>0.778893</vAcc></extensions></trkpt>
      <trkpt lon="-3.016403" lat="52.718022"><ele>229.110687</ele><time>2022-01-15T12:56:49Z</time><extensions><speed>0.682035</speed><course>223.253555</course><hAcc>1.776692</hAcc><vAcc>0.776075</vAcc></extensions></trkpt>
      <trkpt lon="-3.016410" lat="52.718018"><ele>229.291489</ele><time>2022-01-15T12:56:50Z</time><extensions><speed>0.668060</speed><course>226.283508</course><hAcc>1.776577</hAcc><vAcc>0.773087</vAcc></extensions></trkpt>
      <trkpt lon="-3.016417" lat="52.718013"><ele>229.455368</ele><time>2022-01-15T12:56:51Z</time><extensions><speed>0.667281</speed><course>227.748215</course><hAcc>1.781474</hAcc><vAcc>0.769996</vAcc></extensions></trkpt>
      <trkpt lon="-3.016425" lat="52.718009"><ele>229.615646</ele><time>2022-01-15T12:56:52Z</time><extensions><speed>0.668440</speed><course>227.330231</course><hAcc>1.795389</hAcc><vAcc>0.766942</vAcc></extensions></trkpt>
      <trkpt lon="-3.016432" lat="52.718005"><ele>229.774231</ele><time>2022-01-15T12:56:53Z</time><extensions><speed>0.667044</speed><course>226.175522</course><hAcc>1.812278</hAcc><vAcc>0.764005</vAcc></extensions></trkpt>
      <trkpt lon="-3.016439" lat="52.718001"><ele>229.914261</ele><time>2022-01-15T12:56:54Z</time><extensions><speed>0.696261</speed><course>223.594086</course><hAcc>1.825499</hAcc><vAcc>0.761284</vAcc></extensions></trkpt>
      <trkpt lon="-3.016446" lat="52.717996"><ele>230.045654</ele><time>2022-01-15T12:56:55Z</time><extensions><speed>0.724404</speed><course>220.694016</course><hAcc>1.833495</hAcc><vAcc>0.758867</vAcc></extensions></trkpt>
      <trkpt lon="-3.016453" lat="52.717991"><ele>230.173935</ele><time>2022-01-15T12:56:56Z</time><extensions><speed>0.704744</speed><course>218.392303</course><hAcc>1.823519</hAcc><vAcc>0.756816</vAcc></extensions></trkpt>
      <trkpt lon="-3.016459" lat="52.717986"><ele>230.287430</ele><time>2022-01-15T12:56:57Z</time><extensions><speed>0.672272</speed><course>216.833344</course><hAcc>1.813250</hAcc><vAcc>0.755166</vAcc></extensions></trkpt>
      <trkpt lon="-3.016465" lat="52.717981"><ele>230.393234</ele><time>2022-01-15T12:56:58Z</time><extensions><speed>0.627675</speed><course>215.756195</course><hAcc>1.809375</hAcc><vAcc>0.754026</vAcc></extensions></trkpt>
      <trkpt lon="-3.016470" lat="52.717977"><ele>230.493469</ele><time>2022-01-15T12:56:59Z</time><extensions><speed>0.552992</speed><course>216.121674</course><hAcc>1.816205</hAcc><vAcc>0.753399</vAcc></extensions></trkpt>
      <trkpt lon="-3.016474" lat="52.717973"><ele>230.580261</ele><time>2022-01-15T12:57:00Z</time><extensions><speed>0.394825</speed><course>214.357849</course><hAcc>1.820446</hAcc><vAcc>0.753205</vAcc></extensions></trkpt>
      <trkpt lon="-3.016477" lat="52.717971"><ele>230.676468</ele><time>2022-01-15T12:57:01Z</time><extensions><speed>0.387845</speed><course>212.763748</course><hAcc>1.808707</hAcc><vAcc>0.753388</vAcc></extensions></trkpt>
      <trkpt lon="-3.016481" lat="52.717967"><ele>230.764633</ele><time>2022-01-15T12:57:02Z</time><extensions><speed>0.422841</speed><course>210.782272</course><hAcc>1.803394</hAcc><vAcc>0.753899</vAcc></extensions></trkpt>
      <trkpt lon="-3.016484" lat="52.717964"><ele>230.851395</ele><time>2022-01-15T12:57:03Z</time><extensions><speed>0.531197</speed><course>209.302673</course><hAcc>1.803412</hAcc><vAcc>0.754621</vAcc></extensions></trkpt>
      <trkpt lon="-3.016488" lat="52.717960"><ele>230.937836</ele><time>2022-01-15T12:57:04Z</time><extensions><speed>0.460645</speed><course>208.165558</course><hAcc>1.822975</hAcc><vAcc>0.755467</vAcc></extensions></trkpt>
      <trkpt lon="-3.016491" lat="52.717956"><ele>231.014771</ele><time>2022-01-15T12:57:06Z</time><extensions><speed>0.518898</speed><course>209.199692</course><hAcc>1.820428</hAcc><vAcc>0.756462</vAcc></extensions></trkpt>
      <trkpt lon="-3.016496" lat="52.717951"><ele>231.103226</ele><time>2022-01-15T12:57:07Z</time><extensions><speed>0.686393</speed><course>211.461884</course><hAcc>1.801903</hAcc><vAcc>0.757477</vAcc></extensions></trkpt>
      <trkpt lon="-3.016501" lat="52.717946"><ele>231.191925</ele><time>2022-01-15T12:57:08Z</time><extensions><speed>0.707528</speed><course>212.450897</course><hAcc>1.806744</hAcc><vAcc>0.758452</vAcc></extensions></trkpt>
      <trkpt lon="-3.016507" lat="52.717941"><ele>231.279266</ele><time>2022-01-15T12:57:09Z</time><extensions><speed>0.630695</speed><course>211.789948</course><hAcc>1.820338</hAcc><vAcc>0.759365</vAcc></extensions></trkpt>
      <trkpt lon="-3.016511" lat="52.717936"><ele>231.358566</ele><time>2022-01-15T12:57:10Z</time><extensions><speed>0.478868</speed><course>209.491028</course><hAcc>1.829504</hAcc><vAcc>0.760237</vAcc></extensions></trkpt>
      <trkpt lon="-3.016514" lat="52.717933"><ele>231.448547</ele><time>2022-01-15T12:57:11Z</time><extensions><speed>0.508957</speed><course>209.717773</course><hAcc>1.803877</hAcc><vAcc>0.761017</vAcc></extensions></trkpt>
      <trkpt lon="-3.016519" lat="52.717928"><ele>231.540192</ele><time>2022-01-15T12:57:12Z</time><extensions><speed>0.615726</speed><course>211.369705</course><hAcc>1.771029</hAcc><vAcc>0.761731</vAcc></extensions></trkpt>
      <trkpt lon="-3.016524" lat="52.717923"><ele>231.649841</ele><time>2022-01-15T12:57:13Z</time><extensions><speed>0.612401</speed><course>212.521866</course><hAcc>1.761398</hAcc><vAcc>0.762326</vAcc></extensions></trkpt>
      <trkpt lon="-3.016528" lat="52.717919"><ele>231.767975</ele><time>2022-01-15T12:57:14Z</time><extensions><speed>0.484532</speed><course>214.481873</course><hAcc>1.769755</hAcc><vAcc>0.762874</vAcc></extensions></trkpt>
      <trkpt lon="-3.016533" lat="52.717915"><ele>231.870361</ele><time>2022-01-15T12:57:15Z</time><extensions><speed>0.690366</speed><course>215.601883</course><hAcc>1.754256</hAcc><vAcc>0.763314</vAcc></extensions></trkpt>
      <trkpt lon="-3.016540" lat="52.717910"><ele>231.966446</ele><time>2022-01-15T12:57:16Z</time><extensions><speed>0.780850</speed><course>216.348495</course><hAcc>1.778369</hAcc><vAcc>0.763637</vAcc></extensions></trkpt>
      <trkpt lon="-3.016546" lat="52.717904"><ele>232.097824</ele><time>2022-01-15T12:57:17Z</time><extensions><speed>0.676486</speed><course>215.468491</course><hAcc>1.750677</hAcc><vAcc>0.763956</vAcc></extensions></trkpt>
      <trkpt lon="-3.016551" lat="52.717900"><ele>232.217819</ele><time>2022-01-15T12:57:18Z</time><extensions><speed>0.497620</speed><course>215.969940</course><hAcc>1.735817</hAcc><vAcc>0.764195</vAcc></extensions></trkpt>
      <trkpt lon="-3.016556" lat="52.717896"><ele>232.337097</ele><time>2022-01-15T12:57:19Z</time><extensions><speed>0.623966</speed><course>216.126068</course><hAcc>1.716940</hAcc><vAcc>0.764344</vAcc></extensions></trkpt>
      <trkpt lon="-3.016562" lat="52.717891"><ele>232.456253</ele><time>2022-01-15T12:57:20Z</time><extensions><speed>0.668377</speed><course>214.682831</course><hAcc>1.723918</hAcc><vAcc>0.764452</vAcc></extensions></trkpt>
      <trkpt lon="-3.016567" lat="52.717886"><ele>232.574554</ele><time>2022-01-15T12:57:21Z</time><extensions><speed>0.556927</speed><course>215.432526</course><hAcc>1.743966</hAcc><vAcc>0.764580</vAcc></extensions></trkpt>
      <trkpt lon="-3.016571" lat="52.717883"><ele>232.697205</ele><time>2022-01-15T12:57:22Z</time><extensions><speed>0.305204</speed><course>214.510208</course><hAcc>1.764678</hAcc><vAcc>0.764805</vAcc></extensions></trkpt>
      <trkpt lon="-3.016573" lat="52.717880"><ele>232.812286</ele><time>2022-01-15T12:57:23Z</time><extensions><speed>0.419152</speed><course>211.273376</course><hAcc>1.715910</hAcc><vAcc>0.765219</vAcc></extensions></trkpt>
      <trkpt lon="-3.016576" lat="52.717877"><ele>232.930740</ele><time>2022-01-15T12:57:24Z</time><extensions><speed>0.374632</speed><course>201.255051</course><hAcc>1.706105</hAcc><vAcc>0.765868</vAcc></extensions></trkpt>
      <trkpt lon="-3.016578" lat="52.717875"><ele>233.033310</ele><time>2022-01-15T12:57:25Z</time><extensions><speed>0.263732</speed><course>203.100159</course><hAcc>1.738761</hAcc><vAcc>0.766772</vAcc></extensions></trkpt>
      <trkpt lon="-3.016579" lat="52.717872"><ele>233.126480</ele><time>2022-01-15T12:57:26Z</time><extensions><speed>0.305768</speed><course>203.054810</course><hAcc>1.751743</hAcc><vAcc>0.767883</vAcc></extensions></trkpt>
      <trkpt lon="-3.016582" lat="52.717869"><ele>233.216385</ele><time>2022-01-15T12:57:27Z</time><extensions><speed>0.516914</speed><course>202.914276</course><hAcc>1.747304</hAcc><vAcc>0.769160</vAcc></extensions></trkpt>
      <trkpt lon="-3.016585" lat="52.717864"><ele>233.301849</ele><time>2022-01-15T12:57:28Z</time><extensions><speed>0.648185</speed><course>204.050491</course><hAcc>1.732186</hAcc><vAcc>0.770534</vAcc></extensions></trkpt>
      <trkpt lon="-3.016589" lat="52.717858"><ele>233.375748</ele><time>2022-01-15T12:57:29Z</time><extensions><speed>0.698596</speed><course>203.835739</course><hAcc>1.746055</hAcc><vAcc>0.771900</vAcc></extensions></trkpt>
      <trkpt lon="-3.016593" lat="52.717853"><ele>233.434174</ele><time>2022-01-15T12:57:30Z</time><extensions><speed>0.666419</speed><course>198.455307</course><hAcc>1.766700</hAcc><vAcc>0.773165</vAcc></extensions></trkpt>
      <trkpt lon="-3.016595" lat="52.717847"><ele>233.485214</ele><time>2022-01-15T12:57:31Z</time><extensions><speed>0.597478</speed><course>187.694901</course><hAcc>1.781687</hAcc><vAcc>0.774471</vAcc></extensions></trkpt>
      <trkpt lon="-3.016595" lat="52.717842"><ele>233.528381</ele><time>2022-01-15T12:57:32Z</time><extensions><speed>0.537986</speed><course>176.205231</course><hAcc>1.799199</hAcc><vAcc>0.775678</vAcc></extensions></trkpt>
      <trkpt lon="-3.016594" lat="52.717838"><ele>233.567825</ele><time>2022-01-15T12:57:33Z</time><extensions><speed>0.480178</speed><course>167.672989</course><hAcc>1.810870</hAcc><vAcc>0.776683</vAcc></extensions></trkpt>
      <trkpt lon="-3.016593" lat="52.717833"><ele>233.603745</ele><time>2022-01-15T12:57:34Z</time><extensions><speed>0.596484</speed><course>168.544296</course><hAcc>1.804942</hAcc><vAcc>0.777382</vAcc></extensions></trkpt>
      <trkpt lon="-3.016591" lat="52.717827"><ele>233.647614</ele><time>2022-01-15T12:57:35Z</time><extensions><speed>0.635180</speed><course>170.159271</course><hAcc>1.805109</hAcc><vAcc>0.777784</vAcc></extensions></trkpt>
      <trkpt lon="-3.016590" lat="52.717822"><ele>233.684891</ele><time>2022-01-15T12:57:36Z</time><extensions><speed>0.652271</speed><course>180.198120</course><hAcc>1.798466</hAcc><vAcc>0.777944</vAcc></extensions></trkpt>
      <trkpt lon="-3.016591" lat="52.717816"><ele>233.728363</ele><time>2022-01-15T12:57:37Z</time><extensions><speed>0.680840</speed><course>193.954010</course><hAcc>1.785420</hAcc><vAcc>0.777900</vAcc></extensions></trkpt>
      <trkpt lon="-3.016595" lat="52.717810"><ele>233.789001</ele><time>2022-01-15T12:57:38Z</time><extensions><speed>0.736850</speed><course>205.243179</course><hAcc>1.767999</hAcc><vAcc>0.777672</vAcc></extensions></trkpt>
      <trkpt lon="-3.016600" lat="52.717804"><ele>233.876053</ele><time>2022-01-15T12:57:39Z</time><extensions><speed>0.818178</speed><course>211.649750</course><hAcc>1.754492</hAcc><vAcc>0.777279</vAcc></extensions></trkpt>
      <trkpt lon="-3.016607" lat="52.717797"><ele>233.962845</ele><time>2022-01-15T12:57:40Z</time><extensions><speed>0.866953</speed><course>215.215088</course><hAcc>1.754062</hAcc><vAcc>0.776768</vAcc></extensions></trkpt>
      <trkpt lon="-3.016615" lat="52.717791"><ele>234.065720</ele><time>2022-01-15T12:57:41Z</time><extensions><speed>0.878268</speed><course>217.011765</course><hAcc>1.777569</hAcc><vAcc>0.776209</vAcc></extensions></trkpt>
      <trkpt lon="-3.016623" lat="52.717784"><ele>234.168411</ele><time>2022-01-15T12:57:42Z</time><extensions><speed>0.979775</speed><course>216.499146</course><hAcc>1.752357</hAcc><vAcc>0.775567</vAcc></extensions></trkpt>
      <trkpt lon="-3.016632" lat="52.717777"><ele>234.307587</ele><time>2022-01-15T12:57:43Z</time><extensions><speed>1.017551</speed><course>214.207642</course><hAcc>1.713108</hAcc><vAcc>0.774847</vAcc></extensions></trkpt>
      <trkpt lon="-3.016641" lat="52.717769"><ele>234.452393</ele><time>2022-01-15T12:57:44Z</time><extensions><speed>1.055351</speed><course>212.924088</course><hAcc>1.693869</hAcc><vAcc>0.774134</vAcc></extensions></trkpt>
      <trkpt lon="-3.016650" lat="52.717761"><ele>234.629242</ele><time>2022-01-15T12:57:45Z</time><extensions><speed>1.117237</speed><course>211.525803</course><hAcc>1.698025</hAcc><vAcc>0.773442</vAcc></extensions></trkpt>
      <trkpt lon="-3.016659" lat="52.717752"><ele>234.820602</ele><time>2022-01-15T12:57:46Z</time><extensions><speed>1.227763</speed><course>210.663239</course><hAcc>1.711681</hAcc><vAcc>0.772792</vAcc></extensions></trkpt>
      <trkpt lon="-3.016669" lat="52.717743"><ele>235.017975</ele><time>2022-01-15T12:57:47Z</time><extensions><speed>1.185348</speed><course>216.293121</course><hAcc>1.683043</hAcc><vAcc>0.772203</vAcc></extensions></trkpt>
      <trkpt lon="-3.016680" lat="52.717735"><ele>235.235687</ele><time>2022-01-15T12:57:48Z</time><extensions><speed>1.168115</speed><course>221.794586</course><hAcc>1.649398</hAcc><vAcc>0.771639</vAcc></extensions></trkpt>
      <trkpt lon="-3.016692" lat="52.717727"><ele>235.478241</ele><time>2022-01-15T12:57:49Z</time><extensions><speed>1.193840</speed><course>226.360596</course><hAcc>1.623440</hAcc><vAcc>0.771131</vAcc></extensions></trkpt>
      <trkpt lon="-3.016705" lat="52.717720"><ele>235.699905</ele><time>2022-01-15T12:57:50Z</time><extensions><speed>1.124939</speed><course>228.174744</course><hAcc>1.622237</hAcc><vAcc>0.770681</vAcc></extensions></trkpt>
      <trkpt lon="-3.016716" lat="52.717714"><ele>235.940857</ele><time>2022-01-15T12:57:51Z</time><extensions><speed>0.920869</speed><course>225.705139</course><hAcc>1.660578</hAcc><vAcc>0.770286</vAcc></extensions></trkpt>
      <trkpt lon="-3.016725" lat="52.717708"><ele>236.190948</ele><time>2022-01-15T12:57:52Z</time><extensions><speed>0.795284</speed><course>223.627289</course><hAcc>1.680424</hAcc><vAcc>0.769943</vAcc></extensions></trkpt>
      <trkpt lon="-3.016735" lat="52.717703"><ele>236.460831</ele><time>2022-01-15T12:57:53Z</time><extensions><speed>0.967071</speed><course>230.855209</course><hAcc>1.623203</hAcc><vAcc>0.769635</vAcc></extensions></trkpt>
      <trkpt lon="-3.016747" lat="52.717697"><ele>236.722946</ele><time>2022-01-15T12:57:54Z</time><extensions><speed>1.063515</speed><course>232.909805</course><hAcc>1.623787</hAcc><vAcc>0.769337</vAcc></extensions></trkpt>
      <trkpt lon="-3.016759" lat="52.717691"><ele>236.990295</ele><time>2022-01-15T12:57:55Z</time><extensions><speed>1.078863</speed><course>232.871750</course><hAcc>1.661023</hAcc><vAcc>0.769017</vAcc></extensions></trkpt>
      <trkpt lon="-3.016772" lat="52.717686"><ele>237.260727</ele><time>2022-01-15T12:57:56Z</time><extensions><speed>1.031344</speed><course>232.151093</course><hAcc>1.697383</hAcc><vAcc>0.768707</vAcc></extensions></trkpt>
      <trkpt lon="-3.016784" lat="52.717680"><ele>237.534271</ele><time>2022-01-15T12:57:57Z</time><extensions><speed>1.002222</speed><course>233.484161</course><hAcc>1.709072</hAcc><vAcc>0.768370</vAcc></extensions></trkpt>
      <trkpt lon="-3.016796" lat="52.717675"><ele>237.802429</ele><time>2022-01-15T12:57:58Z</time><extensions><speed>0.997234</speed><course>235.561890</course><hAcc>1.714722</hAcc><vAcc>0.768046</vAcc></extensions></trkpt>
      <trkpt lon="-3.016808" lat="52.717670"><ele>238.070267</ele><time>2022-01-15T12:57:59Z</time><extensions><speed>0.944779</speed><course>237.303421</course><hAcc>1.726887</hAcc><vAcc>0.767658</vAcc></extensions></trkpt>
      <trkpt lon="-3.016820" lat="52.717666"><ele>238.343292</ele><time>2022-01-15T12:58:00Z</time><extensions><speed>0.932330</speed><course>238.981964</course><hAcc>1.738107</hAcc><vAcc>0.767218</vAcc></extensions></trkpt>
      <trkpt lon="-3.016832" lat="52.717661"><ele>238.599640</ele><time>2022-01-15T12:58:01Z</time><extensions><speed>0.917900</speed><course>239.155792</course><hAcc>1.748657</hAcc><vAcc>0.766787</vAcc></extensions></trkpt>
      <trkpt lon="-3.016843" lat="52.717657"><ele>238.847321</ele><time>2022-01-15T12:58:02Z</time><extensions><speed>0.918485</speed><course>238.232285</course><hAcc>1.755951</hAcc><vAcc>0.766299</vAcc></extensions></trkpt>
      <trkpt lon="-3.016854" lat="52.717653"><ele>239.085709</ele><time>2022-01-15T12:58:03Z</time><extensions><speed>0.869122</speed><course>236.094116</course><hAcc>1.753134</hAcc><vAcc>0.765846</vAcc></extensions></trkpt>
      <trkpt lon="-3.016864" lat="52.717648"><ele>239.346237</ele><time>2022-01-15T12:58:04Z</time><extensions><speed>0.789065</speed><course>235.107574</course><hAcc>1.751140</hAcc><vAcc>0.765463</vAcc></extensions></trkpt>
      <trkpt lon="-3.016874" lat="52.717644"><ele>239.581680</ele><time>2022-01-15T12:58:05Z</time><extensions><speed>0.755569</speed><course>234.832550</course><hAcc>1.756632</hAcc><vAcc>0.765225</vAcc></extensions></trkpt>
      <trkpt lon="-3.016883" lat="52.717640"><ele>239.821915</ele><time>2022-01-15T12:58:06Z</time><extensions><speed>0.750205</speed><course>233.511612</course><hAcc>1.762798</hAcc><vAcc>0.765156</vAcc></extensions></trkpt>
      <trkpt lon="-3.016892" lat="52.717636"><ele>240.028503</ele><time>2022-01-15T12:58:07Z</time><extensions><speed>0.796694</speed><course>230.623032</course><hAcc>1.767815</hAcc><vAcc>0.765285</vAcc></extensions></trkpt>
      <trkpt lon="-3.016901" lat="52.717631"><ele>240.244736</ele><time>2022-01-15T12:58:08Z</time><extensions><speed>0.803411</speed><course>228.676636</course><hAcc>1.772941</hAcc><vAcc>0.765629</vAcc></extensions></trkpt>
      <trkpt lon="-3.016910" lat="52.717627"><ele>240.461182</ele><time>2022-01-15T12:58:09Z</time><extensions><speed>0.809129</speed><course>227.920853</course><hAcc>1.768669</hAcc><vAcc>0.766159</vAcc></extensions></trkpt>
      <trkpt lon="-3.016919" lat="52.717622"><ele>240.646042</ele><time>2022-01-15T12:58:10Z</time><extensions><speed>0.806167</speed><course>227.710220</course><hAcc>1.765510</hAcc><vAcc>0.766872</vAcc></extensions></trkpt>
      <trkpt lon="-3.016927" lat="52.717617"><ele>240.850037</ele><time>2022-01-15T12:58:11Z</time><extensions><speed>0.748898</speed><course>225.750931</course><hAcc>1.764398</hAcc><vAcc>0.767733</vAcc></extensions></trkpt>
      <trkpt lon="-3.016935" lat="52.717612"><ele>241.028732</ele><time>2022-01-15T12:58:12Z</time><extensions><speed>0.698521</speed><course>224.988235</course><hAcc>1.759912</hAcc><vAcc>0.768679</vAcc></extensions></trkpt>
      <trkpt lon="-3.016942" lat="52.717608"><ele>241.224640</ele><time>2022-01-15T12:58:13Z</time><extensions><speed>0.673584</speed><course>223.320358</course><hAcc>1.761225</hAcc><vAcc>0.769646</vAcc></extensions></trkpt>
      <trkpt lon="-3.016949" lat="52.717604"><ele>241.395279</ele><time>2022-01-15T12:58:14Z</time><extensions><speed>0.675223</speed><course>222.796982</course><hAcc>1.762985</hAcc><vAcc>0.770528</vAcc></extensions></trkpt>
      <trkpt lon="-3.016956" lat="52.717599"><ele>241.568893</ele><time>2022-01-15T12:58:15Z</time><extensions><speed>0.702856</speed><course>223.029739</course><hAcc>1.763422</hAcc><vAcc>0.771309</vAcc></extensions></trkpt>
      <trkpt lon="-3.016962" lat="52.717595"><ele>241.725769</ele><time>2022-01-15T12:58:16Z</time><extensions><speed>0.653443</speed><course>223.431793</course><hAcc>1.763822</hAcc><vAcc>0.771907</vAcc></extensions></trkpt>
      <trkpt lon="-3.016969" lat="52.717590"><ele>241.894119</ele><time>2022-01-15T12:58:17Z</time><extensions><speed>0.664016</speed><course>223.286621</course><hAcc>1.765011</hAcc><vAcc>0.772334</vAcc></extensions></trkpt>
      <trkpt lon="-3.016976" lat="52.717586"><ele>242.066330</ele><time>2022-01-15T12:58:18Z</time><extensions><speed>0.667183</speed><course>222.137802</course><hAcc>1.768884</hAcc><vAcc>0.772688</vAcc></extensions></trkpt>
      <trkpt lon="-3.016982" lat="52.717581"><ele>242.235336</ele><time>2022-01-15T12:58:19Z</time><extensions><speed>0.654943</speed><course>221.678864</course><hAcc>1.769600</hAcc><vAcc>0.772890</vAcc></extensions></trkpt>
      <trkpt lon="-3.016989" lat="52.717577"><ele>242.402115</ele><time>2022-01-15T12:58:20Z</time><extensions><speed>0.643164</speed><course>221.758423</course><hAcc>1.767628</hAcc><vAcc>0.772966</vAcc></extensions></trkpt>
      <trkpt lon="-3.016995" lat="52.717573"><ele>242.568604</ele><time>2022-01-15T12:58:21Z</time><extensions><speed>0.639719</speed><course>221.690475</course><hAcc>1.781395</hAcc><vAcc>0.773002</vAcc></extensions></trkpt>
      <trkpt lon="-3.017001" lat="52.717568"><ele>242.733765</ele><time>2022-01-15T12:58:22Z</time><extensions><speed>0.642463</speed><course>221.679352</course><hAcc>1.790964</hAcc><vAcc>0.772970</vAcc></extensions></trkpt>
      <trkpt lon="-3.017008" lat="52.717564"><ele>242.912247</ele><time>2022-01-15T12:58:23Z</time><extensions><speed>0.634972</speed><course>220.939514</course><hAcc>1.787522</hAcc><vAcc>0.772928</vAcc></extensions></trkpt>
      <trkpt lon="-3.017014" lat="52.717560"><ele>243.091232</ele><time>2022-01-15T12:58:24Z</time><extensions><speed>0.652390</speed><course>220.576813</course><hAcc>1.773008</hAcc><vAcc>0.772978</vAcc></extensions></trkpt>
      <trkpt lon="-3.017020" lat="52.717555"><ele>243.273254</ele><time>2022-01-15T12:58:25Z</time><extensions><speed>0.672860</speed><course>219.644882</course><hAcc>1.769695</hAcc><vAcc>0.773151</vAcc></extensions></trkpt>
      <trkpt lon="-3.017027" lat="52.717550"><ele>243.480347</ele><time>2022-01-15T12:58:26Z</time><extensions><speed>0.718867</speed><course>219.321655</course><hAcc>1.773026</hAcc><vAcc>0.773409</vAcc></extensions></trkpt>
      <trkpt lon="-3.017033" lat="52.717545"><ele>243.667297</ele><time>2022-01-15T12:58:27Z</time><extensions><speed>0.749697</speed><course>217.723984</course><hAcc>1.766846</hAcc><vAcc>0.773785</vAcc></extensions></trkpt>
      <trkpt lon="-3.017040" lat="52.717540"><ele>243.868744</ele><time>2022-01-15T12:58:28Z</time><extensions><speed>0.763944</speed><course>214.280548</course><hAcc>1.754157</hAcc><vAcc>0.774256</vAcc></extensions></trkpt>
      <trkpt lon="-3.017046" lat="52.717534"><ele>244.070496</ele><time>2022-01-15T12:58:29Z</time><extensions><speed>0.823833</speed><course>213.049042</course><hAcc>1.735036</hAcc><vAcc>0.774763</vAcc></extensions></trkpt>
      <trkpt lon="-3.017053" lat="52.717528"><ele>244.262726</ele><time>2022-01-15T12:58:30Z</time><extensions><speed>0.797022</speed><course>213.108963</course><hAcc>1.721651</hAcc><vAcc>0.775208</vAcc></extensions></trkpt>
      <trkpt lon="-3.017059" lat="52.717522"><ele>244.447464</ele><time>2022-01-15T12:58:31Z</time><extensions><speed>0.711044</speed><course>214.134125</course><hAcc>1.708988</hAcc><vAcc>0.775592</vAcc></extensions></trkpt>
      <trkpt lon="-3.017065" lat="52.717517"><ele>244.668091</ele><time>2022-01-15T12:58:32Z</time><extensions><speed>0.704965</speed><course>216.959885</course><hAcc>1.690123</hAcc><vAcc>0.775965</vAcc></extensions></trkpt>
      <trkpt lon="-3.017072" lat="52.717512"><ele>244.864716</ele><time>2022-01-15T12:58:33Z</time><extensions><speed>0.692862</speed><course>219.237015</course><hAcc>1.709713</hAcc><vAcc>0.776277</vAcc></extensions></trkpt>
      <trkpt lon="-3.017078" lat="52.717507"><ele>245.071152</ele><time>2022-01-15T12:58:34Z</time><extensions><speed>0.695655</speed><course>221.666840</course><hAcc>1.761945</hAcc><vAcc>0.776504</vAcc></extensions></trkpt>
      <trkpt lon="-3.017085" lat="52.717502"><ele>245.281708</ele><time>2022-01-15T12:58:35Z</time><extensions><speed>0.715888</speed><course>219.404648</course><hAcc>1.725176</hAcc><vAcc>0.776675</vAcc></extensions></trkpt>
      <trkpt lon="-3.017092" lat="52.717497"><ele>245.492081</ele><time>2022-01-15T12:58:36Z</time><extensions><speed>0.709094</speed><course>216.856644</course><hAcc>1.710733</hAcc><vAcc>0.776791</vAcc></extensions></trkpt>
      <trkpt lon="-3.017097" lat="52.717492"><ele>245.716125</ele><time>2022-01-15T12:58:37Z</time><extensions><speed>0.628289</speed><course>210.573822</course><hAcc>1.725622</hAcc><vAcc>0.776896</vAcc></extensions></trkpt>
      <trkpt lon="-3.017102" lat="52.717487"><ele>245.920563</ele><time>2022-01-15T12:58:38Z</time><extensions><speed>0.621808</speed><course>205.808243</course><hAcc>1.746015</hAcc><vAcc>0.777052</vAcc></extensions></trkpt>
      <trkpt lon="-3.017106" lat="52.717482"><ele>246.131073</ele><time>2022-01-15T12:58:39Z</time><extensions><speed>0.652980</speed><course>207.453171</course><hAcc>1.755557</hAcc><vAcc>0.777242</vAcc></extensions></trkpt>
      <trkpt lon="-3.017111" lat="52.717477"><ele>246.332199</ele><time>2022-01-15T12:58:40Z</time><extensions><speed>0.673478</speed><course>211.575165</course><hAcc>1.761534</hAcc><vAcc>0.777529</vAcc></extensions></trkpt>
      <trkpt lon="-3.017116" lat="52.717472"><ele>246.549072</ele><time>2022-01-15T12:58:40Z</time><extensions><speed>0.699114</speed><course>215.299408</course><hAcc>1.777951</hAcc><vAcc>0.777869</vAcc></extensions></trkpt>
      <trkpt lon="-3.017122" lat="52.717467"><ele>246.770920</ele><time>2022-01-15T12:58:41Z</time><extensions><speed>0.711790</speed><course>217.232361</course><hAcc>1.789423</hAcc><vAcc>0.778239</vAcc></extensions></trkpt>
      <trkpt lon="-3.017128" lat="52.717462"><ele>246.986038</ele><time>2022-01-15T12:58:42Z</time><extensions><speed>0.677414</speed><course>217.365707</course><hAcc>1.767555</hAcc><vAcc>0.778629</vAcc></extensions></trkpt>
      <trkpt lon="-3.017135" lat="52.717457"><ele>247.214111</ele><time>2022-01-15T12:58:43Z</time><extensions><speed>0.671293</speed><course>218.685181</course><hAcc>1.748412</hAcc><vAcc>0.779044</vAcc></extensions></trkpt>
      <trkpt lon="-3.017141" lat="52.717452"><ele>247.422424</ele><time>2022-01-15T12:58:44Z</time><extensions><speed>0.690491</speed><course>221.270645</course><hAcc>1.749974</hAcc><vAcc>0.779446</vAcc></extensions></trkpt>
      <trkpt lon="-3.017148" lat="52.717448"><ele>247.654648</ele><time>2022-01-15T12:58:45Z</time><extensions><speed>0.700313</speed><course>223.508926</course><hAcc>1.745172</hAcc><vAcc>0.779838</vAcc></extensions></trkpt>
      <trkpt lon="-3.017155" lat="52.717443"><ele>247.883484</ele><time>2022-01-15T12:58:46Z</time><extensions><speed>0.741769</speed><course>224.986801</course><hAcc>1.732133</hAcc><vAcc>0.780236</vAcc></extensions></trkpt>
      <trkpt lon="-3.017163" lat="52.717438"><ele>248.109146</ele><time>2022-01-15T12:58:47Z</time><extensions><speed>0.695544</speed><course>224.827713</course><hAcc>1.717397</hAcc><vAcc>0.780630</vAcc></extensions></trkpt>
      <trkpt lon="-3.017170" lat="52.717434"><ele>248.343369</ele><time>2022-01-15T12:58:48Z</time><extensions><speed>0.651745</speed><course>221.936951</course><hAcc>1.725581</hAcc><vAcc>0.780996</vAcc></extensions></trkpt>
      <trkpt lon="-3.017176" lat="52.717429"><ele>248.571350</ele><time>2022-01-15T12:58:50Z</time><extensions><speed>0.721138</speed><course>218.079254</course><hAcc>1.770776</hAcc><vAcc>0.781344</vAcc></extensions></trkpt>
      <trkpt lon="-3.017182" lat="52.717424"><ele>248.795135</ele><time>2022-01-15T12:58:51Z</time><extensions><speed>0.626061</speed><course>213.557022</course><hAcc>1.733687</hAcc><vAcc>0.781652</vAcc></extensions></trkpt>
      <trkpt lon="-3.017187" lat="52.717420"><ele>249.023071</ele><time>2022-01-15T12:58:52Z</time><extensions><speed>0.586883</speed><course>214.446243</course><hAcc>1.711586</hAcc><vAcc>0.781926</vAcc></extensions></trkpt>
      <trkpt lon="-3.017192" lat="52.717416"><ele>249.252609</ele><time>2022-01-15T12:58:53Z</time><extensions><speed>0.618431</speed><course>218.117752</course><hAcc>1.729426</hAcc><vAcc>0.782180</vAcc></extensions></trkpt>
      <trkpt lon="-3.017198" lat="52.717411"><ele>249.483078</ele><time>2022-01-15T12:58:54Z</time><extensions><speed>0.620152</speed><course>220.766312</course><hAcc>1.749429</hAcc><vAcc>0.782417</vAcc></extensions></trkpt>
      <trkpt lon="-3.017204" lat="52.717407"><ele>249.717072</ele><time>2022-01-15T12:58:55Z</time><extensions><speed>0.621857</speed><course>222.066360</course><hAcc>1.762514</hAcc><vAcc>0.782629</vAcc></extensions></trkpt>
      <trkpt lon="-3.017210" lat="52.717403"><ele>249.950684</ele><time>2022-01-15T12:58:56Z</time><extensions><speed>0.579657</speed><course>222.190460</course><hAcc>1.769464</hAcc><vAcc>0.782905</vAcc></extensions></trkpt>
      <trkpt lon="-3.017216" lat="52.717400"><ele>250.175049</ele><time>2022-01-15T12:58:57Z</time><extensions><speed>0.488211</speed><course>223.647888</course><hAcc>1.769514</hAcc><vAcc>0.783215</vAcc></extensions></trkpt>
      <trkpt lon="-3.017220" lat="52.717397"><ele>250.394577</ele><time>2022-01-15T12:58:58Z</time><extensions><speed>0.447539</speed><course>223.881653</course><hAcc>1.776669</hAcc><vAcc>0.783564</vAcc></extensions></trkpt>
      <trkpt lon="-3.017225" lat="52.717394"><ele>250.627777</ele><time>2022-01-15T12:58:59Z</time><extensions><speed>0.460559</speed><course>221.722137</course><hAcc>1.784869</hAcc><vAcc>0.783957</vAcc></extensions></trkpt>
      <trkpt lon="-3.017229" lat="52.717390"><ele>250.835434</ele><time>2022-01-15T12:59:00Z</time><extensions><speed>0.460474</speed><course>217.979950</course><hAcc>1.779066</hAcc><vAcc>0.784428</vAcc></extensions></trkpt>
      <trkpt lon="-3.017234" lat="52.717387"><ele>251.023499</ele><time>2022-01-15T12:59:01Z</time><extensions><speed>0.512420</speed><course>216.491928</course><hAcc>1.772616</hAcc><vAcc>0.784965</vAcc></extensions></trkpt>
      <trkpt lon="-3.017238" lat="52.717383"><ele>251.236343</ele><time>2022-01-15T12:59:02Z</time><extensions><speed>0.533798</speed><course>214.988892</course><hAcc>1.773820</hAcc><vAcc>0.785558</vAcc></extensions></trkpt>
      <trkpt lon="-3.017243" lat="52.717379"><ele>251.464371</ele><time>2022-01-15T12:59:03Z</time><extensions><speed>0.529467</speed><course>215.412918</course><hAcc>1.766220</hAcc><vAcc>0.786194</vAcc></extensions></trkpt>
      <trkpt lon="-3.017248" lat="52.717375"><ele>251.668503</ele><time>2022-01-15T12:59:04Z</time><extensions><speed>0.568171</speed><course>215.923065</course><hAcc>1.765499</hAcc><vAcc>0.786872</vAcc></extensions></trkpt>
      <trkpt lon="-3.017253" lat="52.717371"><ele>251.874588</ele><time>2022-01-15T12:59:05Z</time><extensions><speed>0.610620</speed><course>216.101547</course><hAcc>1.763548</hAcc><vAcc>0.787497</vAcc></extensions></trkpt>
      <trkpt lon="-3.017258" lat="52.717366"><ele>252.084015</ele><time>2022-01-15T12:59:06Z</time><extensions><speed>0.632713</speed><course>216.826859</course><hAcc>1.762148</hAcc><vAcc>0.788081</vAcc></extensions></trkpt>
      <trkpt lon="-3.017264" lat="52.717362"><ele>252.275436</ele><time>2022-01-15T12:59:07Z</time><extensions><speed>0.602937</speed><course>217.666992</course><hAcc>1.757350</hAcc><vAcc>0.788617</vAcc></extensions></trkpt>
      <trkpt lon="-3.017269" lat="52.717358"><ele>252.464722</ele><time>2022-01-15T12:59:08Z</time><extensions><speed>0.577341</speed><course>220.944992</course><hAcc>1.749120</hAcc><vAcc>0.789043</vAcc></extensions></trkpt>
      <trkpt lon="-3.017275" lat="52.717354"><ele>252.651230</ele><time>2022-01-15T12:59:09Z</time><extensions><speed>0.550506</speed><course>223.067719</course><hAcc>1.755294</hAcc><vAcc>0.789305</vAcc></extensions></trkpt>
      <trkpt lon="-3.017280" lat="52.717350"><ele>252.834564</ele><time>2022-01-15T12:59:10Z</time><extensions><speed>0.553492</speed><course>222.426666</course><hAcc>1.753552</hAcc><vAcc>0.789445</vAcc></extensions></trkpt>
      <trkpt lon="-3.017286" lat="52.717347"><ele>252.994553</ele><time>2022-01-15T12:59:11Z</time><extensions><speed>0.535551</speed><course>220.697296</course><hAcc>1.743451</hAcc><vAcc>0.789505</vAcc></extensions></trkpt>
      <trkpt lon="-3.017291" lat="52.717343"><ele>253.144714</ele><time>2022-01-15T12:59:12Z</time><extensions><speed>0.524777</speed><course>216.748535</course><hAcc>1.750010</hAcc><vAcc>0.789391</vAcc></extensions></trkpt>
      <trkpt lon="-3.017294" lat="52.717340"><ele>253.301010</ele><time>2022-01-15T12:59:13Z</time><extensions><speed>0.370316</speed><course>210.246246</course><hAcc>1.762719</hAcc><vAcc>0.789066</vAcc></extensions></trkpt>
      <trkpt lon="-3.017296" lat="52.717337"><ele>253.471298</ele><time>2022-01-15T12:59:14Z</time><extensions><speed>0.227913</speed><course>197.669907</course><hAcc>1.777357</hAcc><vAcc>0.788608</vAcc></extensions></trkpt>
      <trkpt lon="-3.017297" lat="52.717335"><ele>253.627762</ele><time>2022-01-15T12:59:15Z</time><extensions><speed>0.258555</speed><course>189.162231</course><hAcc>1.770328</hAcc><vAcc>0.787963</vAcc></extensions></trkpt>
      <trkpt lon="-3.017298" lat="52.717332"><ele>253.781967</ele><time>2022-01-15T12:59:16Z</time><extensions><speed>0.368569</speed><course>187.754547</course><hAcc>1.771778</hAcc><vAcc>0.787165</vAcc></extensions></trkpt>
      <trkpt lon="-3.017298" lat="52.717329"><ele>253.941544</ele><time>2022-01-15T12:59:17Z</time><extensions><speed>0.357671</speed><course>184.659164</course><hAcc>1.789306</hAcc><vAcc>0.786204</vAcc></extensions></trkpt>
      <trkpt lon="-3.017299" lat="52.717325"><ele>254.101044</ele><time>2022-01-15T12:59:18Z</time><extensions><speed>0.515574</speed><course>185.829330</course><hAcc>1.775204</hAcc><vAcc>0.785164</vAcc></extensions></trkpt>
      <trkpt lon="-3.017300" lat="52.717320"><ele>254.255112</ele><time>2022-01-15T12:59:19Z</time><extensions><speed>0.578762</speed><course>190.152939</course><hAcc>1.785451</hAcc><vAcc>0.783989</vAcc></extensions></trkpt>
      <trkpt lon="-3.017302" lat="52.717315"><ele>254.406555</ele><time>2022-01-15T12:59:20Z</time><extensions><speed>0.600531</speed><course>198.551910</course><hAcc>1.806015</hAcc><vAcc>0.782779</vAcc></extensions></trkpt>
      <trkpt lon="-3.017306" lat="52.717310"><ele>254.556717</ele><time>2022-01-15T12:59:21Z</time><extensions><speed>0.673176</speed><course>204.702133</course><hAcc>1.818797</hAcc><vAcc>0.781649</vAcc></extensions></trkpt>
      <trkpt lon="-3.017310" lat="52.717304"><ele>254.715561</ele><time>2022-01-15T12:59:22Z</time><extensions><speed>0.667354</speed><course>211.067734</course><hAcc>1.811159</hAcc><vAcc>0.780542</vAcc></extensions></trkpt>
      <trkpt lon="-3.017316" lat="52.717300"><ele>254.877029</ele><time>2022-01-15T12:59:23Z</time><extensions><speed>0.630853</speed><course>218.677734</course><hAcc>1.793739</hAcc><vAcc>0.779619</vAcc></extensions></trkpt>
      <trkpt lon="-3.017322" lat="52.717295"><ele>255.042557</ele><time>2022-01-15T12:59:24Z</time><extensions><speed>0.583000</speed><course>224.187515</course><hAcc>1.786194</hAcc><vAcc>0.778848</vAcc></extensions></trkpt>
      <trkpt lon="-3.017328" lat="52.717292"><ele>255.218872</ele><time>2022-01-15T12:59:25Z</time><extensions><speed>0.574333</speed><course>225.444824</course><hAcc>1.762264</hAcc><vAcc>0.778276</vAcc></extensions></trkpt>
      <trkpt lon="-3.017334" lat="52.717288"><ele>255.418839</ele><time>2022-01-15T12:59:26Z</time><extensions><speed>0.570837</speed><course>222.857864</course><hAcc>1.735473</hAcc><vAcc>0.777908</vAcc></extensions></trkpt>
      <trkpt lon="-3.017340" lat="52.717284"><ele>255.603043</ele><time>2022-01-15T12:59:27Z</time><extensions><speed>0.566594</speed><course>220.377213</course><hAcc>1.713033</hAcc><vAcc>0.777741</vAcc></extensions></trkpt>
      <trkpt lon="-3.017344" lat="52.717281"><ele>255.792450</ele><time>2022-01-15T12:59:28Z</time><extensions><speed>0.450213</speed><course>218.741989</course><hAcc>1.712603</hAcc><vAcc>0.777742</vAcc></extensions></trkpt>
      <trkpt lon="-3.017347" lat="52.717278"><ele>255.976944</ele><time>2022-01-15T12:59:29Z</time><extensions><speed>0.187608</speed><course>217.381104</course><hAcc>1.755089</hAcc><vAcc>0.777958</vAcc></extensions></trkpt>
      <trkpt lon="-3.017349" lat="52.717277"><ele>256.178741</ele><time>2022-01-15T12:59:30Z</time><extensions><speed>0.199809</speed><course>217.535797</course><hAcc>1.745458</hAcc><vAcc>0.778319</vAcc></extensions></trkpt>
      <trkpt lon="-3.017351" lat="52.717275"><ele>256.370422</ele><time>2022-01-15T12:59:31Z</time><extensions><speed>0.285496</speed><course>221.728912</course><hAcc>1.733468</hAcc><vAcc>0.778801</vAcc></extensions></trkpt>
      <trkpt lon="-3.017356" lat="52.717273"><ele>256.579559</ele><time>2022-01-15T12:59:32Z</time><extensions><speed>0.532264</speed><course>225.994263</course><hAcc>1.712736</hAcc><vAcc>0.779362</vAcc></extensions></trkpt>
      <trkpt lon="-3.017362" lat="52.717269"><ele>256.802673</ele><time>2022-01-15T12:59:33Z</time><extensions><speed>0.645054</speed><course>228.279190</course><hAcc>1.724647</hAcc><vAcc>0.780009</vAcc></extensions></trkpt>
      <trkpt lon="-3.017369" lat="52.717265"><ele>257.035950</ele><time>2022-01-15T12:59:34Z</time><extensions><speed>0.684805</speed><course>229.838791</course><hAcc>1.747850</hAcc><vAcc>0.780682</vAcc></extensions></trkpt>
      <trkpt lon="-3.017377" lat="52.717261"><ele>257.243225</ele><time>2022-01-15T12:59:35Z</time><extensions><speed>0.677537</speed><course>230.629364</course><hAcc>1.762621</hAcc><vAcc>0.781380</vAcc></extensions></trkpt>
      <trkpt lon="-3.017385" lat="52.717257"><ele>257.499664</ele><time>2022-01-15T12:59:36Z</time><extensions><speed>0.658806</speed><course>230.942856</course><hAcc>1.762443</hAcc><vAcc>0.782112</vAcc></extensions></trkpt>
      <trkpt lon="-3.017393" lat="52.717253"><ele>257.706970</ele><time>2022-01-15T12:59:37Z</time><extensions><speed>0.675570</speed><course>230.819656</course><hAcc>1.738301</hAcc><vAcc>0.782856</vAcc></extensions></trkpt>
      <trkpt lon="-3.017401" lat="52.717249"><ele>257.899170</ele><time>2022-01-15T12:59:38Z</time><extensions><speed>0.725513</speed><course>231.317444</course><hAcc>1.728225</hAcc><vAcc>0.783635</vAcc></extensions></trkpt>
      <trkpt lon="-3.017409" lat="52.717245"><ele>258.083496</ele><time>2022-01-15T12:59:39Z</time><extensions><speed>0.787160</speed><course>231.815277</course><hAcc>1.752014</hAcc><vAcc>0.784368</vAcc></extensions></trkpt>
      <trkpt lon="-3.017418" lat="52.717241"><ele>258.291290</ele><time>2022-01-15T12:59:40Z</time><extensions><speed>0.753414</speed><course>228.695206</course><hAcc>1.771540</hAcc><vAcc>0.785055</vAcc></extensions></trkpt>
      <trkpt lon="-3.017425" lat="52.717236"><ele>258.473816</ele><time>2022-01-15T12:59:41Z</time><extensions><speed>0.643539</speed><course>219.142212</course><hAcc>1.731742</hAcc><vAcc>0.785656</vAcc></extensions></trkpt>
      <trkpt lon="-3.017430" lat="52.717232"><ele>258.687195</ele><time>2022-01-15T12:59:42Z</time><extensions><speed>0.565724</speed><course>210.333969</course><hAcc>1.718487</hAcc><vAcc>0.786089</vAcc></extensions></trkpt>
      <trkpt lon="-3.017434" lat="52.717228"><ele>258.874786</ele><time>2022-01-15T12:59:43Z</time><extensions><speed>0.496946</speed><course>202.682907</course><hAcc>1.730162</hAcc><vAcc>0.786436</vAcc></extensions></trkpt>
      <trkpt lon="-3.017437" lat="52.717224"><ele>259.071716</ele><time>2022-01-15T12:59:44Z</time><extensions><speed>0.482326</speed><course>204.473969</course><hAcc>1.742809</hAcc><vAcc>0.786683</vAcc></extensions></trkpt>
      <trkpt lon="-3.017440" lat="52.717220"><ele>259.248932</ele><time>2022-01-15T12:59:45Z</time><extensions><speed>0.483751</speed><course>208.052475</course><hAcc>1.752568</hAcc><vAcc>0.786922</vAcc></extensions></trkpt>
      <trkpt lon="-3.017443" lat="52.717216"><ele>259.439331</ele><time>2022-01-15T12:59:46Z</time><extensions><speed>0.445238</speed><course>208.247299</course><hAcc>1.765465</hAcc><vAcc>0.787087</vAcc></extensions></trkpt>
      <trkpt lon="-3.017447" lat="52.717212"><ele>259.642303</ele><time>2022-01-15T12:59:47Z</time><extensions><speed>0.595662</speed><course>210.778687</course><hAcc>1.767047</hAcc><vAcc>0.787225</vAcc></extensions></trkpt>
      <trkpt lon="-3.017452" lat="52.717207"><ele>259.828400</ele><time>2022-01-15T12:59:48Z</time><extensions><speed>0.623575</speed><course>211.376984</course><hAcc>1.763489</hAcc><vAcc>0.787311</vAcc></extensions></trkpt>
      <trkpt lon="-3.017457" lat="52.717203"><ele>260.076904</ele><time>2022-01-15T12:59:49Z</time><extensions><speed>0.571498</speed><course>213.172058</course><hAcc>1.763282</hAcc><vAcc>0.787354</vAcc></extensions></trkpt>
      <trkpt lon="-3.017461" lat="52.717199"><ele>260.266418</ele><time>2022-01-15T12:59:50Z</time><extensions><speed>0.431405</speed><course>217.405579</course><hAcc>1.771298</hAcc><vAcc>0.787380</vAcc></extensions></trkpt>
      <trkpt lon="-3.017464" lat="52.717196"><ele>260.488281</ele><time>2022-01-15T12:59:51Z</time><extensions><speed>0.296336</speed><course>225.209961</course><hAcc>1.792295</hAcc><vAcc>0.787419</vAcc></extensions></trkpt>
      <trkpt lon="-3.017468" lat="52.717194"><ele>260.697388</ele><time>2022-01-15T12:59:52Z</time><extensions><speed>0.458199</speed><course>230.364990</course><hAcc>1.763449</hAcc><vAcc>0.787420</vAcc></extensions></trkpt>
      <trkpt lon="-3.017475" lat="52.717191"><ele>260.931641</ele><time>2022-01-15T12:59:53Z</time><extensions><speed>0.580122</speed><course>234.880630</course><hAcc>1.760155</hAcc><vAcc>0.787371</vAcc></extensions></trkpt>
      <trkpt lon="-3.017482" lat="52.717188"><ele>261.184723</ele><time>2022-01-15T12:59:54Z</time><extensions><speed>0.683373</speed><course>234.582977</course><hAcc>1.774610</hAcc><vAcc>0.787366</vAcc></extensions></trkpt>
      <trkpt lon="-3.017490" lat="52.717184"><ele>261.398071</ele><time>2022-01-15T12:59:55Z</time><extensions><speed>0.680606</speed><course>232.117706</course><hAcc>1.785897</hAcc><vAcc>0.787370</vAcc></extensions></trkpt>
      <trkpt lon="-3.017498" lat="52.717181"><ele>261.635773</ele><time>2022-01-15T12:59:56Z</time><extensions><speed>0.644465</speed><course>229.517273</course><hAcc>1.786442</hAcc><vAcc>0.787347</vAcc></extensions></trkpt>
      <trkpt lon="-3.017505" lat="52.717177"><ele>261.882874</ele><time>2022-01-15T12:59:57Z</time><extensions><speed>0.587725</speed><course>224.145844</course><hAcc>1.782931</hAcc><vAcc>0.787274</vAcc></extensions></trkpt>
      <trkpt lon="-3.017510" lat="52.717173"><ele>262.113281</ele><time>2022-01-15T12:59:58Z</time><extensions><speed>0.539230</speed><course>219.270676</course><hAcc>1.768222</hAcc><vAcc>0.787107</vAcc></extensions></trkpt>
      <trkpt lon="-3.017515" lat="52.717170"><ele>262.342926</ele><time>2022-01-15T12:59:59Z</time><extensions><speed>0.413102</speed><course>214.757736</course><hAcc>1.768326</hAcc><vAcc>0.786850</vAcc></extensions></trkpt>
      <trkpt lon="-3.017518" lat="52.717166"><ele>262.577698</ele><time>2022-01-15T13:00:00Z</time><extensions><speed>0.441655</speed><course>215.003418</course><hAcc>1.767116</hAcc><vAcc>0.786498</vAcc></extensions></trkpt>
      <trkpt lon="-3.017522" lat="52.717163"><ele>262.782898</ele><time>2022-01-15T13:00:01Z</time><extensions><speed>0.417274</speed><course>221.714172</course><hAcc>1.769443</hAcc><vAcc>0.786088</vAcc></extensions></trkpt>
      <trkpt lon="-3.017526" lat="52.717161"><ele>263.016907</ele><time>2022-01-15T13:00:02Z</time><extensions><speed>0.361001</speed><course>228.965042</course><hAcc>1.780783</hAcc><vAcc>0.785631</vAcc></extensions></trkpt>
      <trkpt lon="-3.017532" lat="52.717158"><ele>263.235687</ele><time>2022-01-15T13:00:03Z</time><extensions><speed>0.543386</speed><course>232.297836</course><hAcc>1.761396</hAcc><vAcc>0.785223</vAcc></extensions></trkpt>
      <trkpt lon="-3.017538" lat="52.717155"><ele>263.433075</ele><time>2022-01-15T13:00:04Z</time><extensions><speed>0.600266</speed><course>232.141006</course><hAcc>1.764257</hAcc><vAcc>0.784799</vAcc></extensions></trkpt>
      <trkpt lon="-3.017546" lat="52.717152"><ele>263.656525</ele><time>2022-01-15T13:00:05Z</time><extensions><speed>0.672434</speed><course>231.953873</course><hAcc>1.769988</hAcc><vAcc>0.784336</vAcc></extensions></trkpt>
      <trkpt lon="-3.017554" lat="52.717148"><ele>263.846222</ele><time>2022-01-15T13:00:06Z</time><extensions><speed>0.675057</speed><course>232.111389</course><hAcc>1.773684</hAcc><vAcc>0.783818</vAcc></extensions></trkpt>
      <trkpt lon="-3.017561" lat="52.717144"><ele>264.053497</ele><time>2022-01-15T13:00:07Z</time><extensions><speed>0.662116</speed><course>233.610580</course><hAcc>1.772417</hAcc><vAcc>0.783229</vAcc></extensions></trkpt>
      <trkpt lon="-3.017569" lat="52.717141"><ele>264.255615</ele><time>2022-01-15T13:00:08Z</time><extensions><speed>0.676448</speed><course>233.735291</course><hAcc>1.764604</hAcc><vAcc>0.782673</vAcc></extensions></trkpt>
      <trkpt lon="-3.017577" lat="52.717137"><ele>264.461426</ele><time>2022-01-15T13:00:09Z</time><extensions><speed>0.667038</speed><course>232.379974</course><hAcc>1.773113</hAcc><vAcc>0.782119</vAcc></extensions></trkpt>
      <trkpt lon="-3.017585" lat="52.717133"><ele>264.659943</ele><time>2022-01-15T13:00:10Z</time><extensions><speed>0.653908</speed><course>231.050568</course><hAcc>1.779686</hAcc><vAcc>0.781557</vAcc></extensions></trkpt>
      <trkpt lon="-3.017593" lat="52.717130"><ele>264.868835</ele><time>2022-01-15T13:00:11Z</time><extensions><speed>0.685238</speed><course>229.161972</course><hAcc>1.778936</hAcc><vAcc>0.780984</vAcc></extensions></trkpt>
      <trkpt lon="-3.017600" lat="52.717125"><ele>265.081940</ele><time>2022-01-15T13:00:12Z</time><extensions><speed>0.695204</speed><course>227.730042</course><hAcc>1.781384</hAcc><vAcc>0.780527</vAcc></extensions></trkpt>
      <trkpt lon="-3.017608" lat="52.717121"><ele>265.277863</ele><time>2022-01-15T13:00:13Z</time><extensions><speed>0.681425</speed><course>227.421051</course><hAcc>1.780267</hAcc><vAcc>0.780140</vAcc></extensions></trkpt>
      <trkpt lon="-3.017616" lat="52.717117"><ele>265.481506</ele><time>2022-01-15T13:00:14Z</time><extensions><speed>0.699692</speed><course>232.504379</course><hAcc>1.759978</hAcc><vAcc>0.779849</vAcc></extensions></trkpt>
      <trkpt lon="-3.017624" lat="52.717114"><ele>265.679260</ele><time>2022-01-15T13:00:15Z</time><extensions><speed>0.699477</speed><course>236.368073</course><hAcc>1.751396</hAcc><vAcc>0.779632</vAcc></extensions></trkpt>
      <trkpt lon="-3.017633" lat="52.717110"><ele>265.904144</ele><time>2022-01-15T13:00:16Z</time><extensions><speed>0.734065</speed><course>238.765991</course><hAcc>1.740650</hAcc><vAcc>0.779552</vAcc></extensions></trkpt>
      <trkpt lon="-3.017643" lat="52.717107"><ele>266.103790</ele><time>2022-01-15T13:00:17Z</time><extensions><speed>0.734155</speed><course>240.760254</course><hAcc>1.745635</hAcc><vAcc>0.779595</vAcc></extensions></trkpt>
      <trkpt lon="-3.017652" lat="52.717104"><ele>266.349884</ele><time>2022-01-15T13:00:18Z</time><extensions><speed>0.717807</speed><course>241.716644</course><hAcc>1.764878</hAcc><vAcc>0.779775</vAcc></extensions></trkpt>
      <trkpt lon="-3.017661" lat="52.717100"><ele>266.549530</ele><time>2022-01-15T13:00:19Z</time><extensions><speed>0.726972</speed><course>239.092239</course><hAcc>1.723060</hAcc><vAcc>0.780095</vAcc></extensions></trkpt>
      <trkpt lon="-3.017670" lat="52.717097"><ele>266.771942</ele><time>2022-01-15T13:00:20Z</time><extensions><speed>0.714926</speed><course>236.796982</course><hAcc>1.690684</hAcc><vAcc>0.780526</vAcc></extensions></trkpt>
      <trkpt lon="-3.017679" lat="52.717093"><ele>266.960693</ele><time>2022-01-15T13:00:21Z</time><extensions><speed>0.732050</speed><course>234.434265</course><hAcc>1.693956</hAcc><vAcc>0.781064</vAcc></extensions></trkpt>
      <trkpt lon="-3.017688" lat="52.717089"><ele>267.174988</ele><time>2022-01-15T13:00:22Z</time><extensions><speed>0.772361</speed><course>233.539047</course><hAcc>1.726052</hAcc><vAcc>0.781652</vAcc></extensions></trkpt>
      <trkpt lon="-3.017697" lat="52.717085"><ele>267.383545</ele><time>2022-01-15T13:00:23Z</time><extensions><speed>0.761423</speed><course>232.912308</course><hAcc>1.742931</hAcc><vAcc>0.782219</vAcc></extensions></trkpt>
      <trkpt lon="-3.017706" lat="52.717081"><ele>267.593048</ele><time>2022-01-15T13:00:24Z</time><extensions><speed>0.714032</speed><course>232.842545</course><hAcc>1.708714</hAcc><vAcc>0.782704</vAcc></extensions></trkpt>
      <trkpt lon="-3.017714" lat="52.717078"><ele>267.799469</ele><time>2022-01-15T13:00:25Z</time><extensions><speed>0.683894</speed><course>235.113495</course><hAcc>1.700883</hAcc><vAcc>0.783081</vAcc></extensions></trkpt>
      <trkpt lon="-3.017723" lat="52.717074"><ele>268.021851</ele><time>2022-01-15T13:00:26Z</time><extensions><speed>0.662477</speed><course>238.007202</course><hAcc>1.719544</hAcc><vAcc>0.783328</vAcc></extensions></trkpt>
      <trkpt lon="-3.017731" lat="52.717071"><ele>268.225220</ele><time>2022-01-15T13:00:27Z</time><extensions><speed>0.646899</speed><course>241.037567</course><hAcc>1.725564</hAcc><vAcc>0.783528</vAcc></extensions></trkpt>
      <trkpt lon="-3.017739" lat="52.717069"><ele>268.464264</ele><time>2022-01-15T13:00:28Z</time><extensions><speed>0.610071</speed><course>241.718140</course><hAcc>1.728762</hAcc><vAcc>0.783612</vAcc></extensions></trkpt>
      <trkpt lon="-3.017747" lat="52.717066"><ele>268.669281</ele><time>2022-01-15T13:00:29Z</time><extensions><speed>0.609896</speed><course>240.659348</course><hAcc>1.720115</hAcc><vAcc>0.783587</vAcc></extensions></trkpt>
      <trkpt lon="-3.017755" lat="52.717063"><ele>268.890869</ele><time>2022-01-15T13:00:30Z</time><extensions><speed>0.705880</speed><course>239.254578</course><hAcc>1.740711</hAcc><vAcc>0.783460</vAcc></extensions></trkpt>
      <trkpt lon="-3.017765" lat="52.717060"><ele>269.125580</ele><time>2022-01-15T13:00:31Z</time><extensions><speed>0.738339</speed><course>238.169876</course><hAcc>1.780084</hAcc><vAcc>0.783290</vAcc></extensions></trkpt>
      <trkpt lon="-3.017774" lat="52.717056"><ele>269.354431</ele><time>2022-01-15T13:00:32Z</time><extensions><speed>0.711848</speed><course>236.766937</course><hAcc>1.748942</hAcc><vAcc>0.783021</vAcc></extensions></trkpt>
      <trkpt lon="-3.017782" lat="52.717053"><ele>269.580048</ele><time>2022-01-15T13:00:33Z</time><extensions><speed>0.650456</speed><course>236.175278</course><hAcc>1.727812</hAcc><vAcc>0.782657</vAcc></extensions></trkpt>
      <trkpt lon="-3.017790" lat="52.717050"><ele>269.805542</ele><time>2022-01-15T13:00:34Z</time><extensions><speed>0.628159</speed><course>236.713104</course><hAcc>1.727100</hAcc><vAcc>0.782246</vAcc></extensions></trkpt>
      <trkpt lon="-3.017798" lat="52.717046"><ele>270.069611</ele><time>2022-01-15T13:00:35Z</time><extensions><speed>0.643251</speed><course>237.582321</course><hAcc>1.741236</hAcc><vAcc>0.781818</vAcc></extensions></trkpt>
      <trkpt lon="-3.017806" lat="52.717043"><ele>270.355164</ele><time>2022-01-15T13:00:36Z</time><extensions><speed>0.666863</speed><course>237.587982</course><hAcc>1.756840</hAcc><vAcc>0.781402</vAcc></extensions></trkpt>
      <trkpt lon="-3.017814" lat="52.717040"><ele>270.653839</ele><time>2022-01-15T13:00:37Z</time><extensions><speed>0.651609</speed><course>237.507477</course><hAcc>1.769458</hAcc><vAcc>0.781098</vAcc></extensions></trkpt>
      <trkpt lon="-3.017822" lat="52.717037"><ele>270.957611</ele><time>2022-01-15T13:00:38Z</time><extensions><speed>0.642676</speed><course>239.027771</course><hAcc>1.746887</hAcc><vAcc>0.780888</vAcc></extensions></trkpt>
      <trkpt lon="-3.017831" lat="52.717034"><ele>271.262878</ele><time>2022-01-15T13:00:39Z</time><extensions><speed>0.688764</speed><course>239.651337</course><hAcc>1.720426</hAcc><vAcc>0.780781</vAcc></extensions></trkpt>
      <trkpt lon="-3.017840" lat="52.717031"><ele>271.545013</ele><time>2022-01-15T13:00:40Z</time><extensions><speed>0.721835</speed><course>238.645233</course><hAcc>1.712980</hAcc><vAcc>0.780778</vAcc></extensions></trkpt>
      <trkpt lon="-3.017849" lat="52.717027"><ele>271.855286</ele><time>2022-01-15T13:00:41Z</time><extensions><speed>0.747400</speed><course>237.081558</course><hAcc>1.733708</hAcc><vAcc>0.780891</vAcc></extensions></trkpt>
      <trkpt lon="-3.017859" lat="52.717023"><ele>272.122650</ele><time>2022-01-15T13:00:42Z</time><extensions><speed>0.800808</speed><course>235.522522</course><hAcc>1.765582</hAcc><vAcc>0.781100</vAcc></extensions></trkpt>
      <trkpt lon="-3.017868" lat="52.717019"><ele>272.389069</ele><time>2022-01-15T13:00:43Z</time><extensions><speed>0.732502</speed><course>234.991272</course><hAcc>1.725188</hAcc><vAcc>0.781421</vAcc></extensions></trkpt>
      <trkpt lon="-3.017877" lat="52.717015"><ele>272.688660</ele><time>2022-01-15T13:00:44Z</time><extensions><speed>0.701920</speed><course>235.135864</course><hAcc>1.707134</hAcc><vAcc>0.781914</vAcc></extensions></trkpt>
      <trkpt lon="-3.017885" lat="52.717012"><ele>272.962463</ele><time>2022-01-15T13:00:45Z</time><extensions><speed>0.647958</speed><course>233.855087</course><hAcc>1.719444</hAcc><vAcc>0.782530</vAcc></extensions></trkpt>
      <trkpt lon="-3.017892" lat="52.717009"><ele>273.222321</ele><time>2022-01-15T13:00:46Z</time><extensions><speed>0.538025</speed><course>228.892166</course><hAcc>1.724498</hAcc><vAcc>0.783235</vAcc></extensions></trkpt>
      <trkpt lon="-3.017897" lat="52.717006"><ele>273.466980</ele><time>2022-01-15T13:00:47Z</time><extensions><speed>0.398962</speed><course>218.714371</course><hAcc>1.716489</hAcc><vAcc>0.783998</vAcc></extensions></trkpt>
      <trkpt lon="-3.017900" lat="52.717003"><ele>273.680878</ele><time>2022-01-15T13:00:48Z</time><extensions><speed>0.433760</speed><course>214.721725</course><hAcc>1.715657</hAcc><vAcc>0.784758</vAcc></extensions></trkpt>
      <trkpt lon="-3.017904" lat="52.716999"><ele>273.883942</ele><time>2022-01-15T13:00:49Z</time><extensions><speed>0.435098</speed><course>209.435608</course><hAcc>1.716530</hAcc><vAcc>0.785440</vAcc></extensions></trkpt>
      <trkpt lon="-3.017907" lat="52.716996"><ele>274.105865</ele><time>2022-01-15T13:00:50Z</time><extensions><speed>0.363191</speed><course>212.279114</course><hAcc>1.737192</hAcc><vAcc>0.786021</vAcc></extensions></trkpt>
      <trkpt lon="-3.017911" lat="52.716993"><ele>274.288422</ele><time>2022-01-15T13:00:51Z</time><extensions><speed>0.607965</speed><course>219.160065</course><hAcc>1.718762</hAcc><vAcc>0.786647</vAcc></extensions></trkpt>
      <trkpt lon="-3.017917" lat="52.716988"><ele>274.484619</ele><time>2022-01-15T13:00:52Z</time><extensions><speed>0.765807</speed><course>221.198029</course><hAcc>1.698542</hAcc><vAcc>0.787202</vAcc></extensions></trkpt>
      <trkpt lon="-3.017925" lat="52.716982"><ele>274.675842</ele><time>2022-01-15T13:00:53Z</time><extensions><speed>0.835560</speed><course>219.756424</course><hAcc>1.686093</hAcc><vAcc>0.787716</vAcc></extensions></trkpt>
      <trkpt lon="-3.017932" lat="52.716977"><ele>274.848969</ele><time>2022-01-15T13:00:54Z</time><extensions><speed>0.804720</speed><course>215.188751</course><hAcc>1.688471</hAcc><vAcc>0.788134</vAcc></extensions></trkpt>
      <trkpt lon="-3.017939" lat="52.716971"><ele>275.021393</ele><time>2022-01-15T13:00:55Z</time><extensions><speed>0.768728</speed><course>211.453735</course><hAcc>1.705722</hAcc><vAcc>0.788430</vAcc></extensions></trkpt>
      <trkpt lon="-3.017944" lat="52.716965"><ele>275.195496</ele><time>2022-01-15T13:00:56Z</time><extensions><speed>0.810589</speed><course>209.490234</course><hAcc>1.734923</hAcc><vAcc>0.788612</vAcc></extensions></trkpt>
      <trkpt lon="-3.017950" lat="52.716959"><ele>275.362061</ele><time>2022-01-15T13:00:57Z</time><extensions><speed>0.741751</speed><course>209.346420</course><hAcc>1.700122</hAcc><vAcc>0.788676</vAcc></extensions></trkpt>
      <trkpt lon="-3.017955" lat="52.716953"><ele>275.526154</ele><time>2022-01-15T13:00:58Z</time><extensions><speed>0.716760</speed><course>205.847198</course><hAcc>1.678917</hAcc><vAcc>0.788606</vAcc></extensions></trkpt>
      <trkpt lon="-3.017959" lat="52.716947"><ele>275.707611</ele><time>2022-01-15T13:00:59Z</time><extensions><speed>0.726148</speed><course>202.452682</course><hAcc>1.681814</hAcc><vAcc>0.788436</vAcc></extensions></trkpt>
      <trkpt lon="-3.017964" lat="52.716941"><ele>275.866302</ele><time>2022-01-15T13:01:00Z</time><extensions><speed>0.740392</speed><course>201.586609</course><hAcc>1.710923</hAcc><vAcc>0.788240</vAcc></extensions></trkpt>
      <trkpt lon="-3.017968" lat="52.716935"><ele>276.032166</ele><time>2022-01-15T13:01:01Z</time><extensions><speed>0.733340</speed><course>203.618347</course><hAcc>1.754443</hAcc><vAcc>0.787974</vAcc></extensions></trkpt>
      <trkpt lon="-3.017972" lat="52.716929"><ele>276.222748</ele><time>2022-01-15T13:01:02Z</time><extensions><speed>0.660546</speed><course>201.468750</course><hAcc>1.735458</hAcc><vAcc>0.787657</vAcc></extensions></trkpt>
      <trkpt lon="-3.017975" lat="52.716924"><ele>276.426849</ele><time>2022-01-15T13:01:03Z</time><extensions><speed>0.582923</speed><course>201.230179</course><hAcc>1.733941</hAcc><vAcc>0.787393</vAcc></extensions></trkpt>
      <trkpt lon="-3.017978" lat="52.716919"><ele>276.594879</ele><time>2022-01-15T13:01:04Z</time><extensions><speed>0.572092</speed><course>205.082993</course><hAcc>1.744517</hAcc><vAcc>0.787116</vAcc></extensions></trkpt>
      <trkpt lon="-3.017982" lat="52.716915"><ele>276.773438</ele><time>2022-01-15T13:01:05Z</time><extensions><speed>0.541150</speed><course>210.937027</course><hAcc>1.754801</hAcc><vAcc>0.786885</vAcc></extensions></trkpt>
      <trkpt lon="-3.017987" lat="52.716910"><ele>276.945862</ele><time>2022-01-15T13:01:06Z</time><extensions><speed>0.533417</speed><course>216.107346</course><hAcc>1.769811</hAcc><vAcc>0.786788</vAcc></extensions></trkpt>
      <trkpt lon="-3.017991" lat="52.716907"><ele>277.116302</ele><time>2022-01-15T13:01:07Z</time><extensions><speed>0.513993</speed><course>216.884583</course><hAcc>1.767822</hAcc><vAcc>0.786781</vAcc></extensions></trkpt>
      <trkpt lon="-3.017996" lat="52.716903"><ele>277.271393</ele><time>2022-01-15T13:01:08Z</time><extensions><speed>0.536247</speed><course>215.649796</course><hAcc>1.765020</hAcc><vAcc>0.786900</vAcc></extensions></trkpt>
      <trkpt lon="-3.018001" lat="52.716899"><ele>277.448578</ele><time>2022-01-15T13:01:09Z</time><extensions><speed>0.569566</speed><course>214.941681</course><hAcc>1.770383</hAcc><vAcc>0.787165</vAcc></extensions></trkpt>
      <trkpt lon="-3.018006" lat="52.716895"><ele>277.632721</ele><time>2022-01-15T13:01:10Z</time><extensions><speed>0.564479</speed><course>215.229660</course><hAcc>1.766247</hAcc><vAcc>0.787559</vAcc></extensions></trkpt>
      <trkpt lon="-3.018010" lat="52.716890"><ele>277.812103</ele><time>2022-01-15T13:01:11Z</time><extensions><speed>0.570366</speed><course>214.765015</course><hAcc>1.744353</hAcc><vAcc>0.788070</vAcc></extensions></trkpt>
      <trkpt lon="-3.018015" lat="52.716886"><ele>277.992584</ele><time>2022-01-15T13:01:12Z</time><extensions><speed>0.540812</speed><course>214.137497</course><hAcc>1.720248</hAcc><vAcc>0.788644</vAcc></extensions></trkpt>
      <trkpt lon="-3.018019" lat="52.716882"><ele>278.167969</ele><time>2022-01-15T13:01:13Z</time><extensions><speed>0.530952</speed><course>214.462341</course><hAcc>1.689103</hAcc><vAcc>0.789280</vAcc></extensions></trkpt>
      <trkpt lon="-3.018024" lat="52.716878"><ele>278.326019</ele><time>2022-01-15T13:01:14Z</time><extensions><speed>0.568029</speed><course>216.781967</course><hAcc>1.639201</hAcc><vAcc>0.789900</vAcc></extensions></trkpt>
      <trkpt lon="-3.018029" lat="52.716874"><ele>278.492584</ele><time>2022-01-15T13:01:15Z</time><extensions><speed>0.650201</speed><course>216.192947</course><hAcc>1.623053</hAcc><vAcc>0.790477</vAcc></extensions></trkpt>
      <trkpt lon="-3.018035" lat="52.716869"><ele>278.656586</ele><time>2022-01-15T13:01:16Z</time><extensions><speed>0.716261</speed><course>214.899078</course><hAcc>1.656691</hAcc><vAcc>0.791077</vAcc></extensions></trkpt>
      <trkpt lon="-3.018041" lat="52.716863"><ele>278.830322</ele><time>2022-01-15T13:01:17Z</time><extensions><speed>0.738524</speed><course>214.263565</course><hAcc>1.661368</hAcc><vAcc>0.791662</vAcc></extensions></trkpt>
      <trkpt lon="-3.018047" lat="52.716858"><ele>279.005524</ele><time>2022-01-15T13:01:18Z</time><extensions><speed>0.729016</speed><course>212.284058</course><hAcc>1.619483</hAcc><vAcc>0.792206</vAcc></extensions></trkpt>
      <trkpt lon="-3.018053" lat="52.716852"><ele>279.163116</ele><time>2022-01-15T13:01:19Z</time><extensions><speed>0.722951</speed><course>210.226135</course><hAcc>1.638664</hAcc><vAcc>0.792704</vAcc></extensions></trkpt>
      <trkpt lon="-3.018058" lat="52.716847"><ele>279.311310</ele><time>2022-01-15T13:01:20Z</time><extensions><speed>0.702438</speed><course>206.918762</course><hAcc>1.634837</hAcc><vAcc>0.793138</vAcc></extensions></trkpt>
      <trkpt lon="-3.018063" lat="52.716841"><ele>279.480164</ele><time>2022-01-15T13:01:21Z</time><extensions><speed>0.687168</speed><course>205.524048</course><hAcc>1.653195</hAcc><vAcc>0.793507</vAcc></extensions></trkpt>
      <trkpt lon="-3.018067" lat="52.716836"><ele>279.641663</ele><time>2022-01-15T13:01:22Z</time><extensions><speed>0.653820</speed><course>203.418930</course><hAcc>1.676665</hAcc><vAcc>0.793807</vAcc></extensions></trkpt>
      <trkpt lon="-3.018071" lat="52.716830"><ele>279.820374</ele><time>2022-01-15T13:01:23Z</time><extensions><speed>0.660105</speed><course>204.678421</course><hAcc>1.699171</hAcc><vAcc>0.794046</vAcc></extensions></trkpt>
      <trkpt lon="-3.018075" lat="52.716825"><ele>279.990173</ele><time>2022-01-15T13:01:24Z</time><extensions><speed>0.672745</speed><course>208.518951</course><hAcc>1.712603</hAcc><vAcc>0.794299</vAcc></extensions></trkpt>
      <trkpt lon="-3.018080" lat="52.716820"><ele>280.157745</ele><time>2022-01-15T13:01:25Z</time><extensions><speed>0.678860</speed><course>211.444672</course><hAcc>1.734811</hAcc><vAcc>0.794452</vAcc></extensions></trkpt>
      <trkpt lon="-3.018085" lat="52.716814"><ele>280.297913</ele><time>2022-01-15T13:01:26Z</time><extensions><speed>0.675823</speed><course>214.082474</course><hAcc>1.749840</hAcc><vAcc>0.794519</vAcc></extensions></trkpt>
      <trkpt lon="-3.018091" lat="52.716810"><ele>280.448029</ele><time>2022-01-15T13:01:27Z</time><extensions><speed>0.651934</speed><course>216.349976</course><hAcc>1.756472</hAcc><vAcc>0.794536</vAcc></extensions></trkpt>
      <trkpt lon="-3.018097" lat="52.716805"><ele>280.613434</ele><time>2022-01-15T13:01:28Z</time><extensions><speed>0.622090</speed><course>215.809845</course><hAcc>1.756036</hAcc><vAcc>0.794517</vAcc></extensions></trkpt>
      <trkpt lon="-3.018102" lat="52.716801"><ele>280.770508</ele><time>2022-01-15T13:01:29Z</time><extensions><speed>0.580915</speed><course>213.605759</course><hAcc>1.745600</hAcc><vAcc>0.794479</vAcc></extensions></trkpt>
      <trkpt lon="-3.018106" lat="52.716796"><ele>280.944885</ele><time>2022-01-15T13:01:30Z</time><extensions><speed>0.579634</speed><course>210.474152</course><hAcc>1.746219</hAcc><vAcc>0.794392</vAcc></extensions></trkpt>
      <trkpt lon="-3.018111" lat="52.716792"><ele>281.125061</ele><time>2022-01-15T13:01:31Z</time><extensions><speed>0.592370</speed><course>207.520218</course><hAcc>1.758513</hAcc><vAcc>0.794359</vAcc></extensions></trkpt>
      <trkpt lon="-3.018114" lat="52.716787"><ele>281.242676</ele><time>2022-01-15T13:01:32Z</time><extensions><speed>0.594750</speed><course>203.481293</course><hAcc>1.763495</hAcc><vAcc>0.794377</vAcc></extensions></trkpt>
      <trkpt lon="-3.018118" lat="52.716782"><ele>281.399963</ele><time>2022-01-15T13:01:33Z</time><extensions><speed>0.567176</speed><course>200.637085</course><hAcc>1.758717</hAcc><vAcc>0.794424</vAcc></extensions></trkpt>
      <trkpt lon="-3.018121" lat="52.716777"><ele>281.531158</ele><time>2022-01-15T13:01:34Z</time><extensions><speed>0.581511</speed><course>201.239258</course><hAcc>1.748301</hAcc><vAcc>0.794575</vAcc></extensions></trkpt>
      <trkpt lon="-3.018124" lat="52.716772"><ele>281.678619</ele><time>2022-01-15T13:01:35Z</time><extensions><speed>0.643624</speed><course>204.293381</course><hAcc>1.740993</hAcc><vAcc>0.794811</vAcc></extensions></trkpt>
      <trkpt lon="-3.018129" lat="52.716766"><ele>281.815094</ele><time>2022-01-15T13:01:36Z</time><extensions><speed>0.704279</speed><course>208.030762</course><hAcc>1.742844</hAcc><vAcc>0.795103</vAcc></extensions></trkpt>
      <trkpt lon="-3.018134" lat="52.716761"><ele>281.929840</ele><time>2022-01-15T13:01:37Z</time><extensions><speed>0.708310</speed><course>212.242920</course><hAcc>1.736574</hAcc><vAcc>0.795497</vAcc></extensions></trkpt>
      <trkpt lon="-3.018139" lat="52.716755"><ele>282.066559</ele><time>2022-01-15T13:01:38Z</time><extensions><speed>0.725480</speed><course>212.924789</course><hAcc>1.720176</hAcc><vAcc>0.795934</vAcc></extensions></trkpt>
      <trkpt lon="-3.018145" lat="52.716750"><ele>282.184204</ele><time>2022-01-15T13:01:39Z</time><extensions><speed>0.705230</speed><course>210.889862</course><hAcc>1.702221</hAcc><vAcc>0.796481</vAcc></extensions></trkpt>
      <trkpt lon="-3.018150" lat="52.716744"><ele>282.322144</ele><time>2022-01-15T13:01:40Z</time><extensions><speed>0.740674</speed><course>207.770706</course><hAcc>1.692429</hAcc><vAcc>0.797083</vAcc></extensions></trkpt>
      <trkpt lon="-3.018156" lat="52.716738"><ele>282.471985</ele><time>2022-01-15T13:01:41Z</time><extensions><speed>0.798846</speed><course>206.853836</course><hAcc>1.702436</hAcc><vAcc>0.797632</vAcc></extensions></trkpt>
      <trkpt lon="-3.018161" lat="52.716731"><ele>282.628845</ele><time>2022-01-15T13:01:42Z</time><extensions><speed>0.891997</speed><course>207.789154</course><hAcc>1.705496</hAcc><vAcc>0.798150</vAcc></extensions></trkpt>
      <trkpt lon="-3.018167" lat="52.716724"><ele>282.776917</ele><time>2022-01-15T13:01:43Z</time><extensions><speed>0.909395</speed><course>206.308762</course><hAcc>1.684687</hAcc><vAcc>0.798562</vAcc></extensions></trkpt>
      <trkpt lon="-3.018173" lat="52.716717"><ele>282.930298</ele><time>2022-01-15T13:01:44Z</time><extensions><speed>0.929328</speed><course>205.871933</course><hAcc>1.686219</hAcc><vAcc>0.798854</vAcc></extensions></trkpt>
      <trkpt lon="-3.018179" lat="52.716709"><ele>283.084534</ele><time>2022-01-15T13:01:45Z</time><extensions><speed>0.922691</speed><course>205.825729</course><hAcc>1.692247</hAcc><vAcc>0.799043</vAcc></extensions></trkpt>
      <trkpt lon="-3.018185" lat="52.716702"><ele>283.210022</ele><time>2022-01-15T13:01:46Z</time><extensions><speed>0.928805</speed><course>206.479553</course><hAcc>1.693043</hAcc><vAcc>0.799129</vAcc></extensions></trkpt>
      <trkpt lon="-3.018192" lat="52.716694"><ele>283.363922</ele><time>2022-01-15T13:01:47Z</time><extensions><speed>0.961469</speed><course>207.632126</course><hAcc>1.698851</hAcc><vAcc>0.799101</vAcc></extensions></trkpt>
      <trkpt lon="-3.018199" lat="52.716687"><ele>283.508362</ele><time>2022-01-15T13:01:48Z</time><extensions><speed>0.949312</speed><course>210.230499</course><hAcc>1.701682</hAcc><vAcc>0.799058</vAcc></extensions></trkpt>
      <trkpt lon="-3.018206" lat="52.716680"><ele>283.664948</ele><time>2022-01-15T13:01:49Z</time><extensions><speed>0.945954</speed><course>213.430923</course><hAcc>1.702751</hAcc><vAcc>0.798961</vAcc></extensions></trkpt>
      <trkpt lon="-3.018214" lat="52.716673"><ele>283.806244</ele><time>2022-01-15T13:01:50Z</time><extensions><speed>0.952941</speed><course>215.961365</course><hAcc>1.700770</hAcc><vAcc>0.798831</vAcc></extensions></trkpt>
      <trkpt lon="-3.018223" lat="52.716666"><ele>283.951538</ele><time>2022-01-15T13:01:51Z</time><extensions><speed>0.962896</speed><course>216.760864</course><hAcc>1.695490</hAcc><vAcc>0.798646</vAcc></extensions></trkpt>
      <trkpt lon="-3.018231" lat="52.716659"><ele>284.091705</ele><time>2022-01-15T13:01:52Z</time><extensions><speed>0.935275</speed><course>217.288727</course><hAcc>1.703338</hAcc><vAcc>0.798401</vAcc></extensions></trkpt>
      <trkpt lon="-3.018239" lat="52.716652"><ele>284.228333</ele><time>2022-01-15T13:01:53Z</time><extensions><speed>0.901384</speed><course>218.587936</course><hAcc>1.704443</hAcc><vAcc>0.798092</vAcc></extensions></trkpt>
      <trkpt lon="-3.018248" lat="52.716646"><ele>284.382263</ele><time>2022-01-15T13:01:54Z</time><extensions><speed>0.940108</speed><course>221.001282</course><hAcc>1.710253</hAcc><vAcc>0.797670</vAcc></extensions></trkpt>
      <trkpt lon="-3.018258" lat="52.716639"><ele>284.540680</ele><time>2022-01-15T13:01:55Z</time><extensions><speed>1.016479</speed><course>223.625305</course><hAcc>1.698453</hAcc><vAcc>0.797209</vAcc></extensions></trkpt>
      <trkpt lon="-3.018269" lat="52.716633"><ele>284.667633</ele><time>2022-01-15T13:01:56Z</time><extensions><speed>1.052688</speed><course>225.735001</course><hAcc>1.690676</hAcc><vAcc>0.796688</vAcc></extensions></trkpt>
      <trkpt lon="-3.018280" lat="52.716626"><ele>284.777618</ele><time>2022-01-15T13:01:57Z</time><extensions><speed>1.050543</speed><course>227.493668</course><hAcc>1.683983</hAcc><vAcc>0.796135</vAcc></extensions></trkpt>
      <trkpt lon="-3.018292" lat="52.716620"><ele>284.899719</ele><time>2022-01-15T13:01:58Z</time><extensions><speed>1.081966</speed><course>228.303192</course><hAcc>1.673894</hAcc><vAcc>0.795582</vAcc></extensions></trkpt>
      <trkpt lon="-3.018304" lat="52.716614"><ele>285.028778</ele><time>2022-01-15T13:01:59Z</time><extensions><speed>1.113391</speed><course>228.832443</course><hAcc>1.655137</hAcc><vAcc>0.795051</vAcc></extensions></trkpt>
      <trkpt lon="-3.018317" lat="52.716607"><ele>285.140106</ele><time>2022-01-15T13:02:00Z</time><extensions><speed>1.128506</speed><course>230.487183</course><hAcc>1.641854</hAcc><vAcc>0.794582</vAcc></extensions></trkpt>
      <trkpt lon="-3.018330" lat="52.716601"><ele>285.246918</ele><time>2022-01-15T13:02:01Z</time><extensions><speed>1.130998</speed><course>229.907898</course><hAcc>1.647717</hAcc><vAcc>0.794164</vAcc></extensions></trkpt>
      <trkpt lon="-3.018343" lat="52.716594"><ele>285.354706</ele><time>2022-01-15T13:02:02Z</time><extensions><speed>1.138690</speed><course>230.198120</course><hAcc>1.658244</hAcc><vAcc>0.793814</vAcc></extensions></trkpt>
      <trkpt lon="-3.018356" lat="52.716588"><ele>285.454620</ele><time>2022-01-15T13:02:03Z</time><extensions><speed>1.100596</speed><course>230.819275</course><hAcc>1.656381</hAcc><vAcc>0.793489</vAcc></extensions></trkpt>
      <trkpt lon="-3.018369" lat="52.716582"><ele>285.557556</ele><time>2022-01-15T13:02:04Z</time><extensions><speed>1.151277</speed><course>233.581085</course><hAcc>1.606435</hAcc><vAcc>0.793268</vAcc></extensions></trkpt>
      <trkpt lon="-3.018383" lat="52.716576"><ele>285.667633</ele><time>2022-01-15T13:02:05Z</time><extensions><speed>1.127502</speed><course>237.323044</course><hAcc>1.590928</hAcc><vAcc>0.793126</vAcc></extensions></trkpt>
      <trkpt lon="-3.018397" lat="52.716571"><ele>285.760010</ele><time>2022-01-15T13:02:06Z</time><extensions><speed>1.059102</speed><course>242.289291</course><hAcc>1.611495</hAcc><vAcc>0.793032</vAcc></extensions></trkpt>
      <trkpt lon="-3.018411" lat="52.716567"><ele>285.871948</ele><time>2022-01-15T13:02:07Z</time><extensions><speed>0.954803</speed><course>246.567917</course><hAcc>1.644541</hAcc><vAcc>0.793003</vAcc></extensions></trkpt>
      <trkpt lon="-3.018425" lat="52.716564"><ele>285.963470</ele><time>2022-01-15T13:02:08Z</time><extensions><speed>1.022272</speed><course>248.907608</course><hAcc>1.625530</hAcc><vAcc>0.792981</vAcc></extensions></trkpt>
      <trkpt lon="-3.018440" lat="52.716560"><ele>286.071594</ele><time>2022-01-15T13:02:09Z</time><extensions><speed>1.127375</speed><course>252.108948</course><hAcc>1.621491</hAcc><vAcc>0.792973</vAcc></extensions></trkpt>
      <trkpt lon="-3.018456" lat="52.716558"><ele>286.169769</ele><time>2022-01-15T13:02:10Z</time><extensions><speed>1.159143</speed><course>254.886963</course><hAcc>1.632612</hAcc><vAcc>0.792937</vAcc></extensions></trkpt>
      <trkpt lon="-3.018473" lat="52.716555"><ele>286.289673</ele><time>2022-01-15T13:02:11Z</time><extensions><speed>1.212816</speed><course>259.160919</course><hAcc>1.620991</hAcc><vAcc>0.792840</vAcc></extensions></trkpt>
      <trkpt lon="-3.018491" lat="52.716553"><ele>286.405640</ele><time>2022-01-15T13:02:12Z</time><extensions><speed>1.260174</speed><course>261.481995</course><hAcc>1.635119</hAcc><vAcc>0.792642</vAcc></extensions></trkpt>
      <trkpt lon="-3.018510" lat="52.716552"><ele>286.530914</ele><time>2022-01-15T13:02:13Z</time><extensions><speed>1.256907</speed><course>263.349060</course><hAcc>1.668437</hAcc><vAcc>0.792368</vAcc></extensions></trkpt>
      <trkpt lon="-3.018528" lat="52.716551"><ele>286.659546</ele><time>2022-01-15T13:02:14Z</time><extensions><speed>1.228309</speed><course>264.401703</course><hAcc>1.678746</hAcc><vAcc>0.792026</vAcc></extensions></trkpt>
      <trkpt lon="-3.018546" lat="52.716549"><ele>286.781860</ele><time>2022-01-15T13:02:15Z</time><extensions><speed>1.201927</speed><course>261.390076</course><hAcc>1.664898</hAcc><vAcc>0.791634</vAcc></extensions></trkpt>
      <trkpt lon="-3.018563" lat="52.716547"><ele>286.908386</ele><time>2022-01-15T13:02:16Z</time><extensions><speed>1.186716</speed><course>257.597626</course><hAcc>1.682398</hAcc><vAcc>0.791265</vAcc></extensions></trkpt>
      <trkpt lon="-3.018580" lat="52.716545"><ele>287.053192</ele><time>2022-01-15T13:02:17Z</time><extensions><speed>1.193397</speed><course>255.066879</course><hAcc>1.707666</hAcc><vAcc>0.790941</vAcc></extensions></trkpt>
      <trkpt lon="-3.018597" lat="52.716542"><ele>287.170319</ele><time>2022-01-15T13:02:18Z</time><extensions><speed>1.191553</speed><course>253.081696</course><hAcc>1.714622</hAcc><vAcc>0.790650</vAcc></extensions></trkpt>
      <trkpt lon="-3.018614" lat="52.716538"><ele>287.274353</ele><time>2022-01-15T13:02:19Z</time><extensions><speed>1.186352</speed><course>251.468918</course><hAcc>1.714332</hAcc><vAcc>0.790433</vAcc></extensions></trkpt>
      <trkpt lon="-3.018630" lat="52.716535"><ele>287.383026</ele><time>2022-01-15T13:02:20Z</time><extensions><speed>1.178757</speed><course>250.367325</course><hAcc>1.710597</hAcc><vAcc>0.790249</vAcc></extensions></trkpt>
      <trkpt lon="-3.018647" lat="52.716531"><ele>287.492645</ele><time>2022-01-15T13:02:21Z</time><extensions><speed>1.164344</speed><course>248.568695</course><hAcc>1.707551</hAcc><vAcc>0.790179</vAcc></extensions></trkpt>
      <trkpt lon="-3.018663" lat="52.716527"><ele>287.604462</ele><time>2022-01-15T13:02:22Z</time><extensions><speed>1.164290</speed><course>246.810806</course><hAcc>1.707449</hAcc><vAcc>0.790182</vAcc></extensions></trkpt>
      <trkpt lon="-3.018678" lat="52.716523"><ele>287.726105</ele><time>2022-01-15T13:02:23Z</time><extensions><speed>1.165706</speed><course>244.311615</course><hAcc>1.719581</hAcc><vAcc>0.790293</vAcc></extensions></trkpt>
      <trkpt lon="-3.018694" lat="52.716518"><ele>287.826355</ele><time>2022-01-15T13:02:24Z</time><extensions><speed>1.134398</speed><course>241.479172</course><hAcc>1.719995</hAcc><vAcc>0.790472</vAcc></extensions></trkpt>
      <trkpt lon="-3.018708" lat="52.716514"><ele>287.902252</ele><time>2022-01-15T13:02:25Z</time><extensions><speed>1.072550</speed><course>242.703995</course><hAcc>1.697530</hAcc><vAcc>0.790703</vAcc></extensions></trkpt>
      <trkpt lon="-3.018722" lat="52.716510"><ele>288.008301</ele><time>2022-01-15T13:02:26Z</time><extensions><speed>1.036667</speed><course>245.958847</course><hAcc>1.697379</hAcc><vAcc>0.790931</vAcc></extensions></trkpt>
      <trkpt lon="-3.018737" lat="52.716506"><ele>288.125916</ele><time>2022-01-15T13:02:27Z</time><extensions><speed>1.100357</speed><course>248.957855</course><hAcc>1.698474</hAcc><vAcc>0.791155</vAcc></extensions></trkpt>
      <trkpt lon="-3.018752" lat="52.716502"><ele>288.242554</ele><time>2022-01-15T13:02:28Z</time><extensions><speed>1.147177</speed><course>249.776810</course><hAcc>1.697406</hAcc><vAcc>0.791402</vAcc></extensions></trkpt>
      <trkpt lon="-3.018768" lat="52.716499"><ele>288.369598</ele><time>2022-01-15T13:02:29Z</time><extensions><speed>1.125129</speed><course>248.860504</course><hAcc>1.698662</hAcc><vAcc>0.791559</vAcc></extensions></trkpt>
      <trkpt lon="-3.018783" lat="52.716495"><ele>288.491730</ele><time>2022-01-15T13:02:30Z</time><extensions><speed>1.125324</speed><course>248.223480</course><hAcc>1.718356</hAcc><vAcc>0.791654</vAcc></extensions></trkpt>
      <trkpt lon="-3.018799" lat="52.716491"><ele>288.623932</ele><time>2022-01-15T13:02:31Z</time><extensions><speed>1.125323</speed><course>246.860397</course><hAcc>1.729346</hAcc><vAcc>0.791655</vAcc></extensions></trkpt>
      <trkpt lon="-3.018814" lat="52.716487"><ele>288.754211</ele><time>2022-01-15T13:02:32Z</time><extensions><speed>1.129071</speed><course>245.539474</course><hAcc>1.711458</hAcc><vAcc>0.791568</vAcc></extensions></trkpt>
      <trkpt lon="-3.018830" lat="52.716483"><ele>288.871124</ele><time>2022-01-15T13:02:33Z</time><extensions><speed>1.168616</speed><course>245.384445</course><hAcc>1.712360</hAcc><vAcc>0.791355</vAcc></extensions></trkpt>
      <trkpt lon="-3.018845" lat="52.716479"><ele>288.988922</ele><time>2022-01-15T13:02:34Z</time><extensions><speed>1.137542</speed><course>246.664963</course><hAcc>1.709075</hAcc><vAcc>0.791064</vAcc></extensions></trkpt>
      <trkpt lon="-3.018860" lat="52.716474"><ele>289.094543</ele><time>2022-01-15T13:02:35Z</time><extensions><speed>1.119018</speed><course>246.716904</course><hAcc>1.715646</hAcc><vAcc>0.790695</vAcc></extensions></trkpt>
      <trkpt lon="-3.018876" lat="52.716470"><ele>289.229736</ele><time>2022-01-15T13:02:36Z</time><extensions><speed>1.150643</speed><course>246.273087</course><hAcc>1.724334</hAcc><vAcc>0.790227</vAcc></extensions></trkpt>
      <trkpt lon="-3.018892" lat="52.716466"><ele>289.327087</ele><time>2022-01-15T13:02:37Z</time><extensions><speed>1.199800</speed><course>245.781662</course><hAcc>1.735927</hAcc><vAcc>0.789717</vAcc></extensions></trkpt>
      <trkpt lon="-3.018907" lat="52.716461"><ele>289.407166</ele><time>2022-01-15T13:02:38Z</time><extensions><speed>1.171039</speed><course>244.629547</course><hAcc>1.716753</hAcc><vAcc>0.789242</vAcc></extensions></trkpt>
      <trkpt lon="-3.018923" lat="52.716457"><ele>289.483765</ele><time>2022-01-15T13:02:39Z</time><extensions><speed>1.135693</speed><course>242.981201</course><hAcc>1.702198</hAcc><vAcc>0.788751</vAcc></extensions></trkpt>
      <trkpt lon="-3.018938" lat="52.716452"><ele>289.553314</ele><time>2022-01-15T13:02:40Z</time><extensions><speed>1.124582</speed><course>242.336456</course><hAcc>1.687173</hAcc><vAcc>0.788262</vAcc></extensions></trkpt>
      <trkpt lon="-3.018952" lat="52.716447"><ele>289.646545</ele><time>2022-01-15T13:02:41Z</time><extensions><speed>1.113826</speed><course>241.179886</course><hAcc>1.678739</hAcc><vAcc>0.787837</vAcc></extensions></trkpt>
      <trkpt lon="-3.018967" lat="52.716442"><ele>289.710541</ele><time>2022-01-15T13:02:42Z</time><extensions><speed>1.130155</speed><course>241.028732</course><hAcc>1.675511</hAcc><vAcc>0.787489</vAcc></extensions></trkpt>
      <trkpt lon="-3.018981" lat="52.716437"><ele>289.788239</ele><time>2022-01-15T13:02:43Z</time><extensions><speed>1.137999</speed><course>240.040527</course><hAcc>1.673447</hAcc><vAcc>0.787239</vAcc></extensions></trkpt>
      <trkpt lon="-3.018996" lat="52.716432"><ele>289.866425</ele><time>2022-01-15T13:02:44Z</time><extensions><speed>1.133155</speed><course>237.235245</course><hAcc>1.677619</hAcc><vAcc>0.787158</vAcc></extensions></trkpt>
      <trkpt lon="-3.019009" lat="52.716426"><ele>289.963226</ele><time>2022-01-15T13:02:45Z</time><extensions><speed>1.129758</speed><course>229.250015</course><hAcc>1.641663</hAcc><vAcc>0.787215</vAcc></extensions></trkpt>
      <trkpt lon="-3.019021" lat="52.716419"><ele>290.066071</ele><time>2022-01-15T13:02:46Z</time><extensions><speed>1.079267</speed><course>221.239868</course><hAcc>1.608346</hAcc><vAcc>0.787454</vAcc></extensions></trkpt>
      <trkpt lon="-3.019031" lat="52.716412"><ele>290.127594</ele><time>2022-01-15T13:02:47Z</time><extensions><speed>1.087337</speed><course>221.022202</course><hAcc>1.624924</hAcc><vAcc>0.787763</vAcc></extensions></trkpt>
      <trkpt lon="-3.019042" lat="52.716405"><ele>290.213196</ele><time>2022-01-15T13:02:48Z</time><extensions><speed>1.019673</speed><course>226.256943</course><hAcc>1.671918</hAcc><vAcc>0.788174</vAcc></extensions></trkpt>
      <trkpt lon="-3.019054" lat="52.716398"><ele>290.253143</ele><time>2022-01-15T13:02:49Z</time><extensions><speed>1.124629</speed><course>230.382629</course><hAcc>1.626587</hAcc><vAcc>0.788585</vAcc></extensions></trkpt>
      <trkpt lon="-3.019068" lat="52.716392"><ele>290.253418</ele><time>2022-01-15T13:02:50Z</time><extensions><speed>1.262299</speed><course>232.852936</course><hAcc>1.597002</hAcc><vAcc>0.788969</vAcc></extensions></trkpt>
      <trkpt lon="-3.019084" lat="52.716384"><ele>290.264648</ele><time>2022-01-15T13:02:51Z</time><extensions><speed>1.438996</speed><course>233.330933</course><hAcc>1.607947</hAcc><vAcc>0.789277</vAcc></extensions></trkpt>
      <trkpt lon="-3.019102" lat="52.716376"><ele>290.221375</ele><time>2022-01-15T13:02:52Z</time><extensions><speed>1.579835</speed><course>232.673691</course><hAcc>1.657970</hAcc><vAcc>0.789458</vAcc></extensions></trkpt>
      <trkpt lon="-3.019120" lat="52.716367"><ele>290.173706</ele><time>2022-01-15T13:02:53Z</time><extensions><speed>1.570913</speed><course>230.579681</course><hAcc>1.657497</hAcc><vAcc>0.789478</vAcc></extensions></trkpt>
      <trkpt lon="-3.019137" lat="52.716359"><ele>290.105286</ele><time>2022-01-15T13:02:54Z</time><extensions><speed>1.504503</speed><course>230.259445</course><hAcc>1.638450</hAcc><vAcc>0.789259</vAcc></extensions></trkpt>
      <trkpt lon="-3.019154" lat="52.716350"><ele>290.023376</ele><time>2022-01-15T13:02:55Z</time><extensions><speed>1.426378</speed><course>230.777420</course><hAcc>1.621968</hAcc><vAcc>0.788825</vAcc></extensions></trkpt>
      <trkpt lon="-3.019170" lat="52.716342"><ele>289.912811</ele><time>2022-01-15T13:02:56Z</time><extensions><speed>1.365018</speed><course>233.316544</course><hAcc>1.611610</hAcc><vAcc>0.788155</vAcc></extensions></trkpt>
      <trkpt lon="-3.019187" lat="52.716335"><ele>289.774445</ele><time>2022-01-15T13:02:57Z</time><extensions><speed>1.396197</speed><course>235.417221</course><hAcc>1.600519</hAcc><vAcc>0.787266</vAcc></extensions></trkpt>
      <trkpt lon="-3.019205" lat="52.716328"><ele>289.625458</ele><time>2022-01-15T13:02:58Z</time><extensions><speed>1.485735</speed><course>236.972946</course><hAcc>1.610420</hAcc><vAcc>0.786093</vAcc></extensions></trkpt>
      <trkpt lon="-3.019223" lat="52.716321"><ele>289.444427</ele><time>2022-01-15T13:02:59Z</time><extensions><speed>1.521728</speed><course>236.105011</course><hAcc>1.629825</hAcc><vAcc>0.784733</vAcc></extensions></trkpt>
      <trkpt lon="-3.019241" lat="52.716313"><ele>289.227112</ele><time>2022-01-15T13:03:00Z</time><extensions><speed>1.413776</speed><course>235.836945</course><hAcc>1.659950</hAcc><vAcc>0.783131</vAcc></extensions></trkpt>
      <trkpt lon="-3.019259" lat="52.716306"><ele>289.001007</ele><time>2022-01-15T13:03:01Z</time><extensions><speed>1.480130</speed><course>235.083435</course><hAcc>1.656003</hAcc><vAcc>0.781371</vAcc></extensions></trkpt>
      <trkpt lon="-3.019276" lat="52.716298"><ele>288.771393</ele><time>2022-01-15T13:03:02Z</time><extensions><speed>1.399663</speed><course>234.286011</course><hAcc>1.633872</hAcc><vAcc>0.779374</vAcc></extensions></trkpt>
      <trkpt lon="-3.019292" lat="52.716291"><ele>288.527222</ele><time>2022-01-15T13:03:03Z</time><extensions><speed>1.369038</speed><course>232.685471</course><hAcc>1.625872</hAcc><vAcc>0.777166</vAcc></extensions></trkpt>
      <trkpt lon="-3.019308" lat="52.716283"><ele>288.276123</ele><time>2022-01-15T13:03:04Z</time><extensions><speed>1.328201</speed><course>230.595642</course><hAcc>1.648259</hAcc><vAcc>0.774843</vAcc></extensions></trkpt>
      <trkpt lon="-3.019323" lat="52.716276"><ele>288.019562</ele><time>2022-01-15T13:03:05Z</time><extensions><speed>1.274569</speed><course>228.699463</course><hAcc>1.686072</hAcc><vAcc>0.772433</vAcc></extensions></trkpt>
      <trkpt lon="-3.019336" lat="52.716268"><ele>287.750031</ele><time>2022-01-15T13:03:06Z</time><extensions><speed>1.194610</speed><course>227.589233</course><hAcc>1.730368</hAcc><vAcc>0.769971</vAcc></extensions></trkpt>
      <trkpt lon="-3.019349" lat="52.716261"><ele>287.483398</ele><time>2022-01-15T13:03:07Z</time><extensions><speed>1.144120</speed><course>226.309158</course><hAcc>1.770618</hAcc><vAcc>0.767442</vAcc></extensions></trkpt>
      <trkpt lon="-3.019361" lat="52.716254"><ele>287.215942</ele><time>2022-01-15T13:03:08Z</time><extensions><speed>1.101890</speed><course>223.773483</course><hAcc>1.754593</hAcc><vAcc>0.764847</vAcc></extensions></trkpt>
      <trkpt lon="-3.019372" lat="52.716247"><ele>286.944092</ele><time>2022-01-15T13:03:09Z</time><extensions><speed>1.105644</speed><course>222.853424</course><hAcc>1.760385</hAcc><vAcc>0.762298</vAcc></extensions></trkpt>
      <trkpt lon="-3.019383" lat="52.716240"><ele>286.670868</ele><time>2022-01-15T13:03:10Z</time><extensions><speed>1.097532</speed><course>223.119965</course><hAcc>1.775498</hAcc><vAcc>0.759827</vAcc></extensions></trkpt>
      <trkpt lon="-3.019394" lat="52.716233"><ele>286.397369</ele><time>2022-01-15T13:03:11Z</time><extensions><speed>1.066327</speed><course>225.537079</course><hAcc>1.795670</hAcc><vAcc>0.757494</vAcc></extensions></trkpt>
      <trkpt lon="-3.019406" lat="52.716226"><ele>286.141052</ele><time>2022-01-15T13:03:12Z</time><extensions><speed>1.052440</speed><course>229.276657</course><hAcc>1.806644</hAcc><vAcc>0.755284</vAcc></extensions></trkpt>
      <trkpt lon="-3.019418" lat="52.716220"><ele>285.891418</ele><time>2022-01-15T13:03:13Z</time><extensions><speed>1.053751</speed><course>234.102173</course><hAcc>1.818388</hAcc><vAcc>0.753248</vAcc></extensions></trkpt>
      <trkpt lon="-3.019431" lat="52.716215"><ele>285.645111</ele><time>2022-01-15T13:03:14Z</time><extensions><speed>1.070958</speed><course>240.205551</course><hAcc>1.829816</hAcc><vAcc>0.751397</vAcc></extensions></trkpt>
      <trkpt lon="-3.019445" lat="52.716211"><ele>285.414429</ele><time>2022-01-15T13:03:15Z</time><extensions><speed>1.116883</speed><course>245.672531</course><hAcc>1.839434</hAcc><vAcc>0.749687</vAcc></extensions></trkpt>
      <trkpt lon="-3.019461" lat="52.716207"><ele>285.181183</ele><time>2022-01-15T13:03:16Z</time><extensions><speed>1.098214</speed><course>249.796509</course><hAcc>1.846549</hAcc><vAcc>0.748176</vAcc></extensions></trkpt>
      <trkpt lon="-3.019476" lat="52.716204"><ele>284.976898</ele><time>2022-01-15T13:03:17Z</time><extensions><speed>1.047848</speed><course>251.518906</course><hAcc>1.848037</hAcc><vAcc>0.746992</vAcc></extensions></trkpt>
      <trkpt lon="-3.019490" lat="52.716201"><ele>284.769531</ele><time>2022-01-15T13:03:18Z</time><extensions><speed>1.011157</speed><course>252.713028</course><hAcc>1.847401</hAcc><vAcc>0.746042</vAcc></extensions></trkpt>
      <trkpt lon="-3.019505" lat="52.716198"><ele>284.584930</ele><time>2022-01-15T13:03:19Z</time><extensions><speed>1.030694</speed><course>253.341309</course><hAcc>1.850421</hAcc><vAcc>0.745336</vAcc></extensions></trkpt>
      <trkpt lon="-3.019519" lat="52.716195"><ele>284.393127</ele><time>2022-01-15T13:03:20Z</time><extensions><speed>1.035415</speed><course>251.474091</course><hAcc>1.853707</hAcc><vAcc>0.744870</vAcc></extensions></trkpt>
      <trkpt lon="-3.019534" lat="52.716192"><ele>284.217102</ele><time>2022-01-15T13:03:21Z</time><extensions><speed>1.072157</speed><course>248.439468</course><hAcc>1.853720</hAcc><vAcc>0.744703</vAcc></extensions></trkpt>
      <trkpt lon="-3.019549" lat="52.716188"><ele>284.041260</ele><time>2022-01-15T13:03:22Z</time><extensions><speed>1.106304</speed><course>246.420044</course><hAcc>1.848769</hAcc><vAcc>0.744896</vAcc></extensions></trkpt>
      <trkpt lon="-3.019564" lat="52.716184"><ele>283.872223</ele><time>2022-01-15T13:03:23Z</time><extensions><speed>1.114907</speed><course>246.188019</course><hAcc>1.839704</hAcc><vAcc>0.745525</vAcc></extensions></trkpt>
      <trkpt lon="-3.019579" lat="52.716180"><ele>283.711639</ele><time>2022-01-15T13:03:24Z</time><extensions><speed>1.156671</speed><course>247.341141</course><hAcc>1.825541</hAcc><vAcc>0.746600</vAcc></extensions></trkpt>
      <trkpt lon="-3.019595" lat="52.716177"><ele>283.564026</ele><time>2022-01-15T13:03:25Z</time><extensions><speed>1.194233</speed><course>248.806946</course><hAcc>1.812125</hAcc><vAcc>0.748210</vAcc></extensions></trkpt>
      <trkpt lon="-3.019612" lat="52.716173"><ele>283.413300</ele><time>2022-01-15T13:03:26Z</time><extensions><speed>1.267151</speed><course>250.214294</course><hAcc>1.817702</hAcc><vAcc>0.750336</vAcc></extensions></trkpt>
      <trkpt lon="-3.019631" lat="52.716169"><ele>283.275574</ele><time>2022-01-15T13:03:27Z</time><extensions><speed>1.332399</speed><course>250.825500</course><hAcc>1.836568</hAcc><vAcc>0.752894</vAcc></extensions></trkpt>
      <trkpt lon="-3.019649" lat="52.716165"><ele>283.154785</ele><time>2022-01-15T13:03:28Z</time><extensions><speed>1.309264</speed><course>250.784317</course><hAcc>1.800903</hAcc><vAcc>0.755781</vAcc></extensions></trkpt>
      <trkpt lon="-3.019667" lat="52.716161"><ele>283.035004</ele><time>2022-01-15T13:03:29Z</time><extensions><speed>1.258228</speed><course>251.362885</course><hAcc>1.771851</hAcc><vAcc>0.758895</vAcc></extensions></trkpt>
      <trkpt lon="-3.019684" lat="52.716158"><ele>282.907349</ele><time>2022-01-15T13:03:30Z</time><extensions><speed>1.191102</speed><course>252.308273</course><hAcc>1.760567</hAcc><vAcc>0.762194</vAcc></extensions></trkpt>
      <trkpt lon="-3.019701" lat="52.716154"><ele>282.780487</ele><time>2022-01-15T13:03:31Z</time><extensions><speed>1.162082</speed><course>252.679947</course><hAcc>1.753768</hAcc><vAcc>0.765623</vAcc></extensions></trkpt>
      <trkpt lon="-3.019717" lat="52.716151"><ele>282.666901</ele><time>2022-01-15T13:03:32Z</time><extensions><speed>1.136747</speed><course>252.728485</course><hAcc>1.750491</hAcc><vAcc>0.769112</vAcc></extensions></trkpt>
      <trkpt lon="-3.019732" lat="52.716148"><ele>282.555603</ele><time>2022-01-15T13:03:33Z</time><extensions><speed>1.018714</speed><course>250.211868</course><hAcc>1.758171</hAcc><vAcc>0.772626</vAcc></extensions></trkpt>
      <trkpt lon="-3.019746" lat="52.716145"><ele>282.445862</ele><time>2022-01-15T13:03:34Z</time><extensions><speed>0.960264</speed><course>248.995392</course><hAcc>1.742825</hAcc><vAcc>0.776105</vAcc></extensions></trkpt>
      <trkpt lon="-3.019759" lat="52.716142"><ele>282.337158</ele><time>2022-01-15T13:03:35Z</time><extensions><speed>0.955354</speed><course>249.115082</course><hAcc>1.745383</hAcc><vAcc>0.779508</vAcc></extensions></trkpt>
      <trkpt lon="-3.019773" lat="52.716139"><ele>282.228729</ele><time>2022-01-15T13:03:36Z</time><extensions><speed>1.052811</speed><course>249.152771</course><hAcc>1.723441</hAcc><vAcc>0.782777</vAcc></extensions></trkpt>
      <trkpt lon="-3.019788" lat="52.716136"><ele>282.113678</ele><time>2022-01-15T13:03:37Z</time><extensions><speed>1.061221</speed><course>250.175781</course><hAcc>1.718392</hAcc><vAcc>0.785857</vAcc></extensions></trkpt>
      <trkpt lon="-3.019803" lat="52.716132"><ele>281.993439</ele><time>2022-01-15T13:03:38Z</time><extensions><speed>1.049952</speed><course>251.051758</course><hAcc>1.730130</hAcc><vAcc>0.788751</vAcc></extensions></trkpt>
      <trkpt lon="-3.019818" lat="52.716129"><ele>281.871429</ele><time>2022-01-15T13:03:39Z</time><extensions><speed>1.074157</speed><course>251.574478</course><hAcc>1.737530</hAcc><vAcc>0.791408</vAcc></extensions></trkpt>
      <trkpt lon="-3.019833" lat="52.716126"><ele>281.731384</ele><time>2022-01-15T13:03:40Z</time><extensions><speed>1.112219</speed><course>249.858200</course><hAcc>1.740608</hAcc><vAcc>0.793813</vAcc></extensions></trkpt>
      <trkpt lon="-3.019849" lat="52.716122"><ele>281.597656</ele><time>2022-01-15T13:03:41Z</time><extensions><speed>1.164742</speed><course>247.677399</course><hAcc>1.736479</hAcc><vAcc>0.795965</vAcc></extensions></trkpt>
      <trkpt lon="-3.019865" lat="52.716118"><ele>281.451965</ele><time>2022-01-15T13:03:42Z</time><extensions><speed>1.184065</speed><course>247.411591</course><hAcc>1.731453</hAcc><vAcc>0.797897</vAcc></extensions></trkpt>
      <trkpt lon="-3.019881" lat="52.716114"><ele>281.285828</ele><time>2022-01-15T13:03:43Z</time><extensions><speed>1.173653</speed><course>248.383865</course><hAcc>1.729975</hAcc><vAcc>0.799613</vAcc></extensions></trkpt>
      <trkpt lon="-3.019897" lat="52.716111"><ele>281.118713</ele><time>2022-01-15T13:03:44Z</time><extensions><speed>1.156178</speed><course>249.242889</course><hAcc>1.727124</hAcc><vAcc>0.801129</vAcc></extensions></trkpt>
      <trkpt lon="-3.019913" lat="52.716107"><ele>280.950958</ele><time>2022-01-15T13:03:45Z</time><extensions><speed>1.129759</speed><course>248.965332</course><hAcc>1.723508</hAcc><vAcc>0.802457</vAcc></extensions></trkpt>
      <trkpt lon="-3.019928" lat="52.716103"><ele>280.776001</ele><time>2022-01-15T13:03:46Z</time><extensions><speed>1.099838</speed><course>248.583054</course><hAcc>1.726528</hAcc><vAcc>0.803617</vAcc></extensions></trkpt>
      <trkpt lon="-3.019943" lat="52.716100"><ele>280.599091</ele><time>2022-01-15T13:03:47Z</time><extensions><speed>1.016578</speed><course>247.650818</course><hAcc>1.717908</hAcc><vAcc>0.804647</vAcc></extensions></trkpt>
      <trkpt lon="-3.019956" lat="52.716096"><ele>280.407074</ele><time>2022-01-15T13:03:48Z</time><extensions><speed>0.937773</speed><course>247.266113</course><hAcc>1.701980</hAcc><vAcc>0.805577</vAcc></extensions></trkpt>
      <trkpt lon="-3.019969" lat="52.716093"><ele>280.207855</ele><time>2022-01-15T13:03:49Z</time><extensions><speed>0.916080</speed><course>249.483932</course><hAcc>1.697836</hAcc><vAcc>0.806385</vAcc></extensions></trkpt>
      <trkpt lon="-3.019982" lat="52.716090"><ele>280.000793</ele><time>2022-01-15T13:03:50Z</time><extensions><speed>0.968873</speed><course>248.188538</course><hAcc>1.698103</hAcc><vAcc>0.807099</vAcc></extensions></trkpt>
      <trkpt lon="-3.019995" lat="52.716087"><ele>279.791351</ele><time>2022-01-15T13:03:51Z</time><extensions><speed>1.033410</speed><course>246.210693</course><hAcc>1.711014</hAcc><vAcc>0.807720</vAcc></extensions></trkpt>
      <trkpt lon="-3.020009" lat="52.716083"><ele>279.587128</ele><time>2022-01-15T13:03:52Z</time><extensions><speed>0.989688</speed><course>242.559433</course><hAcc>1.699115</hAcc><vAcc>0.808247</vAcc></extensions></trkpt>
      <trkpt lon="-3.020021" lat="52.716079"><ele>279.384949</ele><time>2022-01-15T13:03:53Z</time><extensions><speed>0.925041</speed><course>239.368179</course><hAcc>1.698529</hAcc><vAcc>0.808682</vAcc></extensions></trkpt>
      <trkpt lon="-3.020032" lat="52.716074"><ele>279.177521</ele><time>2022-01-15T13:03:54Z</time><extensions><speed>0.852546</speed><course>236.180450</course><hAcc>1.702803</hAcc><vAcc>0.809035</vAcc></extensions></trkpt>
      <trkpt lon="-3.020043" lat="52.716070"><ele>278.986420</ele><time>2022-01-15T13:03:55Z</time><extensions><speed>0.823630</speed><course>235.527573</course><hAcc>1.699950</hAcc><vAcc>0.809267</vAcc></extensions></trkpt>
      <trkpt lon="-3.020053" lat="52.716066"><ele>278.803192</ele><time>2022-01-15T13:03:56Z</time><extensions><speed>0.818203</speed><course>236.596649</course><hAcc>1.696655</hAcc><vAcc>0.809352</vAcc></extensions></trkpt>
      <trkpt lon="-3.020063" lat="52.716062"><ele>278.625488</ele><time>2022-01-15T13:03:57Z</time><extensions><speed>0.845016</speed><course>237.037689</course><hAcc>1.696604</hAcc><vAcc>0.809240</vAcc></extensions></trkpt>
      <trkpt lon="-3.020074" lat="52.716058"><ele>278.456207</ele><time>2022-01-15T13:03:58Z</time><extensions><speed>0.901434</speed><course>237.467529</course><hAcc>1.697431</hAcc><vAcc>0.808856</vAcc></extensions></trkpt>
      <trkpt lon="-3.020085" lat="52.716053"><ele>278.297028</ele><time>2022-01-15T13:03:59Z</time><extensions><speed>0.951174</speed><course>237.434143</course><hAcc>1.702793</hAcc><vAcc>0.808087</vAcc></extensions></trkpt>
      <trkpt lon="-3.020098" lat="52.716049"><ele>278.150787</ele><time>2022-01-15T13:04:00Z</time><extensions><speed>0.994678</speed><course>238.578629</course><hAcc>1.722130</hAcc><vAcc>0.807187</vAcc></extensions></trkpt>
      <trkpt lon="-3.020111" lat="52.716044"><ele>278.021118</ele><time>2022-01-15T13:04:01Z</time><extensions><speed>1.045152</speed><course>240.336639</course><hAcc>1.708623</hAcc><vAcc>0.806059</vAcc></extensions></trkpt>
      <trkpt lon="-3.020124" lat="52.716039"><ele>277.902100</ele><time>2022-01-15T13:04:02Z</time><extensions><speed>1.095731</speed><course>239.612213</course><hAcc>1.696773</hAcc><vAcc>0.804785</vAcc></extensions></trkpt>
      <trkpt lon="-3.020138" lat="52.716034"><ele>277.795746</ele><time>2022-01-15T13:04:03Z</time><extensions><speed>1.155524</speed><course>236.360504</course><hAcc>1.708505</hAcc><vAcc>0.803322</vAcc></extensions></trkpt>
      <trkpt lon="-3.020152" lat="52.716028"><ele>277.699921</ele><time>2022-01-15T13:04:04Z</time><extensions><speed>1.151651</speed><course>232.300278</course><hAcc>1.727726</hAcc><vAcc>0.801668</vAcc></extensions></trkpt>
      <trkpt lon="-3.020165" lat="52.716021"><ele>277.605072</ele><time>2022-01-15T13:04:05Z</time><extensions><speed>1.091137</speed><course>227.962982</course><hAcc>1.733265</hAcc><vAcc>0.799840</vAcc></extensions></trkpt>
      <trkpt lon="-3.020177" lat="52.716015"><ele>277.536438</ele><time>2022-01-15T13:04:06Z</time><extensions><speed>1.077612</speed><course>225.759277</course><hAcc>1.732146</hAcc><vAcc>0.797892</vAcc></extensions></trkpt>
      <trkpt lon="-3.020188" lat="52.716008"><ele>277.484650</ele><time>2022-01-15T13:04:07Z</time><extensions><speed>1.052074</speed><course>224.439148</course><hAcc>1.732693</hAcc><vAcc>0.795973</vAcc></extensions></trkpt>
      <trkpt lon="-3.020199" lat="52.716001"><ele>277.422394</ele><time>2022-01-15T13:04:08Z</time><extensions><speed>0.998316</speed><course>224.237930</course><hAcc>1.729874</hAcc><vAcc>0.794116</vAcc></extensions></trkpt>
      <trkpt lon="-3.020209" lat="52.715995"><ele>277.377045</ele><time>2022-01-15T13:04:09Z</time><extensions><speed>0.929193</speed><course>224.577148</course><hAcc>1.742769</hAcc><vAcc>0.792396</vAcc></extensions></trkpt>
      <trkpt lon="-3.020218" lat="52.715989"><ele>277.339294</ele><time>2022-01-15T13:04:10Z</time><extensions><speed>0.888761</speed><course>225.283875</course><hAcc>1.775349</hAcc><vAcc>0.790827</vAcc></extensions></trkpt>
      <trkpt lon="-3.020227" lat="52.715984"><ele>277.219788</ele><time>2022-01-15T13:04:11Z</time><extensions><speed>0.789814</speed><course>228.073654</course><hAcc>1.759917</hAcc><vAcc>0.789292</vAcc></extensions></trkpt>
      <trkpt lon="-3.020235" lat="52.715980"><ele>277.067413</ele><time>2022-01-15T13:04:12Z</time><extensions><speed>0.635366</speed><course>236.004242</course><hAcc>1.758512</hAcc><vAcc>0.787580</vAcc></extensions></trkpt>
      <trkpt lon="-3.020242" lat="52.715978"><ele>276.974762</ele><time>2022-01-15T13:04:13Z</time><extensions><speed>0.427777</speed><course>255.370041</course><hAcc>1.765549</hAcc><vAcc>0.785302</vAcc></extensions></trkpt>
      <trkpt lon="-3.020250" lat="52.715977"><ele>276.881500</ele><time>2022-01-15T13:04:14Z</time><extensions><speed>0.596521</speed><course>267.891083</course><hAcc>1.757167</hAcc><vAcc>0.782374</vAcc></extensions></trkpt>
      <trkpt lon="-3.020259" lat="52.715977"><ele>276.784790</ele><time>2022-01-15T13:04:15Z</time><extensions><speed>0.716779</speed><course>272.193817</course><hAcc>1.775847</hAcc><vAcc>0.779231</vAcc></extensions></trkpt>
      <trkpt lon="-3.020270" lat="52.715978"><ele>276.685242</ele><time>2022-01-15T13:04:16Z</time><extensions><speed>0.672588</speed><course>268.818512</course><hAcc>1.786807</hAcc><vAcc>0.775552</vAcc></extensions></trkpt>
      <trkpt lon="-3.020279" lat="52.715977"><ele>276.595154</ele><time>2022-01-15T13:04:17Z</time><extensions><speed>0.557812</speed><course>260.373657</course><hAcc>1.791466</hAcc><vAcc>0.771249</vAcc></extensions></trkpt>
      <trkpt lon="-3.020285" lat="52.715976"><ele>276.506470</ele><time>2022-01-15T13:04:18Z</time><extensions><speed>0.367215</speed><course>248.822433</course><hAcc>1.798809</hAcc><vAcc>0.766190</vAcc></extensions></trkpt>
      <trkpt lon="-3.020289" lat="52.715975"><ele>276.421295</ele><time>2022-01-15T13:04:19Z</time><extensions><speed>0.178742</speed><course>226.884323</course><hAcc>1.819259</hAcc><vAcc>0.760341</vAcc></extensions></trkpt>
      <trkpt lon="-3.020290" lat="52.715974"><ele>276.342407</ele><time>2022-01-15T13:04:20Z</time><extensions><speed>0.125866</speed><course>195.502991</course><hAcc>1.826825</hAcc><vAcc>0.753702</vAcc></extensions></trkpt>
      <trkpt lon="-3.020290" lat="52.715973"><ele>276.273010</ele><time>2022-01-15T13:04:21Z</time><extensions><speed>0.113568</speed><course>170.293259</course><hAcc>1.819833</hAcc><vAcc>0.746428</vAcc></extensions></trkpt>
      <trkpt lon="-3.020290" lat="52.715972"><ele>276.233948</ele><time>2022-01-15T13:04:22Z</time><extensions><speed>0.076239</speed><course>143.105774</course><hAcc>1.822003</hAcc><vAcc>0.738561</vAcc></extensions></trkpt>
      <trkpt lon="-3.020289" lat="52.715972"><ele>276.217743</ele><time>2022-01-15T13:04:23Z</time><extensions><speed>0.047358</speed><course>92.937424</course><hAcc>1.829124</hAcc><vAcc>0.730147</vAcc></extensions></trkpt>
      <trkpt lon="-3.020288" lat="52.715972"><ele>276.221222</ele><time>2022-01-15T13:04:24Z</time><extensions><speed>0.045114</speed><course>50.614841</course><hAcc>1.826798</hAcc><vAcc>0.721180</vAcc></extensions></trkpt>
      <trkpt lon="-3.020288" lat="52.715972"><ele>276.240601</ele><time>2022-01-15T13:04:25Z</time><extensions><speed>0.043089</speed><course>25.820595</course><hAcc>1.812394</hAcc><vAcc>0.712056</vAcc></extensions></trkpt>
      <trkpt lon="-3.020288" lat="52.715973"><ele>276.275299</ele><time>2022-01-15T13:04:26Z</time><extensions><speed>0.039515</speed><course>7.340087</course><hAcc>1.797071</hAcc><vAcc>0.702609</vAcc></extensions></trkpt>
      <trkpt lon="-3.020288" lat="52.715973"><ele>276.322266</ele><time>2022-01-15T13:04:27Z</time><extensions><speed>0.032675</speed><course>354.441345</course><hAcc>1.794245</hAcc><vAcc>0.692673</vAcc></extensions></trkpt>
      <trkpt lon="-3.020288" lat="52.715973"><ele>276.369446</ele><time>2022-01-15T13:04:28Z</time><extensions><speed>0.028649</speed><course>345.169525</course><hAcc>1.794992</hAcc><vAcc>0.682144</vAcc></extensions></trkpt>
      <trkpt lon="-3.020288" lat="52.715973"><ele>276.414124</ele><time>2022-01-15T13:04:29Z</time><extensions><speed>0.021718</speed><course>340.922821</course><hAcc>1.818724</hAcc><vAcc>0.670999</vAcc></extensions></trkpt>
      <trkpt lon="-3.020288" lat="52.715974"><ele>276.466064</ele><time>2022-01-15T13:04:30Z</time><extensions><speed>0.027465</speed><course>335.315735</course><hAcc>1.814370</hAcc><vAcc>0.659350</vAcc></extensions></trkpt>
      <trkpt lon="-3.020289" lat="52.715974"><ele>276.525024</ele><time>2022-01-15T13:04:31Z</time><extensions><speed>0.033415</speed><course>334.447784</course><hAcc>1.821111</hAcc><vAcc>0.647519</vAcc></extensions></trkpt>
      <trkpt lon="-3.020289" lat="52.715974"><ele>276.586365</ele><time>2022-01-15T13:04:32Z</time><extensions><speed>0.045645</speed><course>335.236115</course><hAcc>1.815840</hAcc><vAcc>0.636089</vAcc></extensions></trkpt>
      <trkpt lon="-3.020289" lat="52.715975"><ele>276.645294</ele><time>2022-01-15T13:04:33Z</time><extensions><speed>0.051073</speed><course>334.326813</course><hAcc>1.837018</hAcc><vAcc>0.625802</vAcc></extensions></trkpt>
      <trkpt lon="-3.020290" lat="52.715975"><ele>276.697876</ele><time>2022-01-15T13:04:34Z</time><extensions><speed>0.059398</speed><course>327.056305</course><hAcc>1.870547</hAcc><vAcc>0.617429</vAcc></extensions></trkpt>
      <trkpt lon="-3.020290" lat="52.715976"><ele>276.743073</ele><time>2022-01-15T13:04:35Z</time><extensions><speed>0.080937</speed><course>315.414764</course><hAcc>1.887180</hAcc><vAcc>0.611529</vAcc></extensions></trkpt>
      <trkpt lon="-3.020291" lat="52.715976"><ele>276.786285</ele><time>2022-01-15T13:04:36Z</time><extensions><speed>0.121873</speed><course>307.029602</course><hAcc>1.879095</hAcc><vAcc>0.608343</vAcc></extensions></trkpt>
      <trkpt lon="-3.020293" lat="52.715977"><ele>276.824585</ele><time>2022-01-15T13:04:37Z</time><extensions><speed>0.174220</speed><course>303.091888</course><hAcc>1.843162</hAcc><vAcc>0.607877</vAcc></extensions></trkpt>
      <trkpt lon="-3.020296" lat="52.715979"><ele>276.862061</ele><time>2022-01-15T13:04:38Z</time><extensions><speed>0.231040</speed><course>302.124634</course><hAcc>1.784761</hAcc><vAcc>0.610042</vAcc></extensions></trkpt>
      <trkpt lon="-3.020299" lat="52.715980"><ele>276.899567</ele><time>2022-01-15T13:04:39Z</time><extensions><speed>0.257609</speed><course>298.682526</course><hAcc>1.742693</hAcc><vAcc>0.614619</vAcc></extensions></trkpt>
      <trkpt lon="-3.020301" lat="52.715981"><ele>276.937500</ele><time>2022-01-15T13:04:40Z</time><extensions><speed>0.161808</speed><course>318.145538</course><hAcc>1.732443</hAcc><vAcc>0.621181</vAcc></extensions></trkpt>
      <trkpt lon="-3.020303" lat="52.715982"><ele>276.974609</ele><time>2022-01-15T13:04:41Z</time><extensions><speed>0.132264</speed><course>332.988464</course><hAcc>1.699935</hAcc><vAcc>0.629032</vAcc></extensions></trkpt>
      <trkpt lon="-3.020303" lat="52.715983"><ele>277.009583</ele><time>2022-01-15T13:04:42Z</time><extensions><speed>0.115604</speed><course>343.407898</course><hAcc>1.662345</hAcc><vAcc>0.637366</vAcc></extensions></trkpt>
      <trkpt lon="-3.020304" lat="52.715985"><ele>277.042084</ele><time>2022-01-15T13:04:43Z</time><extensions><speed>0.110393</speed><course>351.462738</course><hAcc>1.629416</hAcc><vAcc>0.645532</vAcc></extensions></trkpt>
      <trkpt lon="-3.020304" lat="52.715986"><ele>277.072235</ele><time>2022-01-15T13:04:44Z</time><extensions><speed>0.115627</speed><course>354.512543</course><hAcc>1.601980</hAcc><vAcc>0.653103</vAcc></extensions></trkpt>
      <trkpt lon="-3.020304" lat="52.715987"><ele>277.100250</ele><time>2022-01-15T13:04:45Z</time><extensions><speed>0.125703</speed><course>354.031860</course><hAcc>1.578186</hAcc><vAcc>0.659795</vAcc></extensions></trkpt>
      <trkpt lon="-3.020304" lat="52.715988"><ele>277.126068</ele><time>2022-01-15T13:04:46Z</time><extensions><speed>0.132417</speed><course>353.578094</course><hAcc>1.554015</hAcc><vAcc>0.665524</vAcc></extensions></trkpt>
      <trkpt lon="-3.020304" lat="52.715990"><ele>277.145325</ele><time>2022-01-15T13:04:47Z</time><extensions><speed>0.126891</speed><course>355.692383</course><hAcc>1.537248</hAcc><vAcc>0.670267</vAcc></extensions></trkpt>
      <trkpt lon="-3.020304" lat="52.715991"><ele>277.167389</ele><time>2022-01-15T13:04:48Z</time><extensions><speed>0.110226</speed><course>357.280243</course><hAcc>1.525131</hAcc><vAcc>0.673974</vAcc></extensions></trkpt>
      <trkpt lon="-3.020304" lat="52.715992"><ele>277.184296</ele><time>2022-01-15T13:04:49Z</time><extensions><speed>0.102142</speed><course>359.858215</course><hAcc>1.507521</hAcc><vAcc>0.676710</vAcc></extensions></trkpt>
      <trkpt lon="-3.020304" lat="52.715993"><ele>277.193939</ele><time>2022-01-15T13:04:50Z</time><extensions><speed>0.087464</speed><course>2.053663</course><hAcc>1.493780</hAcc><vAcc>0.678551</vAcc></extensions></trkpt>
      <trkpt lon="-3.020304" lat="52.715994"><ele>277.199860</ele><time>2022-01-15T13:04:51Z</time><extensions><speed>0.090777</speed><course>4.333954</course><hAcc>1.469697</hAcc><vAcc>0.679634</vAcc></extensions></trkpt>
      <trkpt lon="-3.020304" lat="52.715995"><ele>277.202087</ele><time>2022-01-15T13:04:52Z</time><extensions><speed>0.088902</speed><course>6.327549</course><hAcc>1.452860</hAcc><vAcc>0.680022</vAcc></extensions></trkpt>
      <trkpt lon="-3.020304" lat="52.715996"><ele>277.200684</ele><time>2022-01-15T13:04:53Z</time><extensions><speed>0.072787</speed><course>8.107480</course><hAcc>1.455979</hAcc><vAcc>0.679784</vAcc></extensions></trkpt>
      <trkpt lon="-3.020304" lat="52.715997"><ele>277.195862</ele><time>2022-01-15T13:04:54Z</time><extensions><speed>0.042277</speed><course>9.925350</course><hAcc>1.474629</hAcc><vAcc>0.679025</vAcc></extensions></trkpt>
      <trkpt lon="-3.020304" lat="52.715997"><ele>277.187927</ele><time>2022-01-15T13:04:55Z</time><extensions><speed>0.055951</speed><course>11.358036</course><hAcc>1.471098</hAcc><vAcc>0.677853</vAcc></extensions></trkpt>
      <trkpt lon="-3.020304" lat="52.715998"><ele>277.177246</ele><time>2022-01-15T13:04:56Z</time><extensions><speed>0.072049</speed><course>11.551631</course><hAcc>1.472369</hAcc><vAcc>0.676408</vAcc></extensions></trkpt>
      <trkpt lon="-3.020303" lat="52.715998"><ele>277.164246</ele><time>2022-01-15T13:04:57Z</time><extensions><speed>0.119579</speed><course>8.845160</course><hAcc>1.461105</hAcc><vAcc>0.674861</vAcc></extensions></trkpt>
      <trkpt lon="-3.020303" lat="52.716000"><ele>277.149414</ele><time>2022-01-15T13:04:58Z</time><extensions><speed>0.125848</speed><course>4.183046</course><hAcc>1.472963</hAcc><vAcc>0.673443</vAcc></extensions></trkpt>
      <trkpt lon="-3.020303" lat="52.716001"><ele>277.137512</ele><time>2022-01-15T13:04:59Z</time><extensions><speed>0.105804</speed><course>0.463843</course><hAcc>1.508069</hAcc><vAcc>0.672316</vAcc></extensions></trkpt>
      <trkpt lon="-3.020303" lat="52.716002"><ele>277.184662</ele><time>2022-01-15T13:05:00Z</time><extensions><speed>0.091289</speed><course>358.811371</course><hAcc>1.535711</hAcc><vAcc>0.671726</vAcc></extensions></trkpt>
      <trkpt lon="-3.020303" lat="52.716003"><ele>277.252594</ele><time>2022-01-15T13:05:01Z</time><extensions><speed>0.071479</speed><course>358.270386</course><hAcc>1.549592</hAcc><vAcc>0.671997</vAcc></extensions></trkpt>
      <trkpt lon="-3.020303" lat="52.716003"><ele>277.329681</ele><time>2022-01-15T13:05:02Z</time><extensions><speed>0.054708</speed><course>358.128571</course><hAcc>1.554955</hAcc><vAcc>0.673111</vAcc></extensions></trkpt>
      <trkpt lon="-3.020303" lat="52.716003"><ele>277.406189</ele><time>2022-01-15T13:05:03Z</time><extensions><speed>0.042222</speed><course>356.812988</course><hAcc>1.558142</hAcc><vAcc>0.675084</vAcc></extensions></trkpt>
      <trkpt lon="-3.020303" lat="52.716003"><ele>277.485138</ele><time>2022-01-15T13:05:04Z</time><extensions><speed>0.032981</speed><course>355.331665</course><hAcc>1.559227</hAcc><vAcc>0.677919</vAcc></extensions></trkpt>
      <trkpt lon="-3.020303" lat="52.716003"><ele>277.574219</ele><time>2022-01-15T13:05:05Z</time><extensions><speed>0.023642</speed><course>354.709961</course><hAcc>1.575001</hAcc><vAcc>0.681618</vAcc></extensions></trkpt>
      <trkpt lon="-3.020303" lat="52.716004"><ele>277.664276</ele><time>2022-01-15T13:05:06Z</time><extensions><speed>0.015532</speed><course>356.677979</course><hAcc>1.594872</hAcc><vAcc>0.686234</vAcc></extensions></trkpt>
      <trkpt lon="-3.020303" lat="52.716004"><ele>277.757599</ele><time>2022-01-15T13:05:07Z</time><extensions><speed>0.006184</speed><course>358.419647</course><hAcc>1.614877</hAcc><vAcc>0.691732</vAcc></extensions></trkpt>
      <trkpt lon="-3.020303" lat="52.716003"><ele>277.845215</ele><time>2022-01-15T13:05:08Z</time><extensions><speed>0.020753</speed><course>188.319824</course><hAcc>1.641382</hAcc><vAcc>0.698089</vAcc></extensions></trkpt>
      <trkpt lon="-3.020303" lat="52.716003"><ele>277.927734</ele><time>2022-01-15T13:05:09Z</time><extensions><speed>0.113678</speed><course>189.718231</course><hAcc>1.651039</hAcc><vAcc>0.705242</vAcc></extensions></trkpt>
      <trkpt lon="-3.020304" lat="52.716001"><ele>277.999847</ele><time>2022-01-15T13:05:10Z</time><extensions><speed>0.340004</speed><course>190.130020</course><hAcc>1.640063</hAcc><vAcc>0.712923</vAcc></extensions></trkpt>
      <trkpt lon="-3.020305" lat="52.715997"><ele>278.056915</ele><time>2022-01-15T13:05:11Z</time><extensions><speed>0.508126</speed><course>190.180939</course><hAcc>1.671459</hAcc><vAcc>0.720889</vAcc></extensions></trkpt>
      <trkpt lon="-3.020306" lat="52.715992"><ele>278.096069</ele><time>2022-01-15T13:05:12Z</time><extensions><speed>0.613036</speed><course>190.267883</course><hAcc>1.710745</hAcc><vAcc>0.728703</vAcc></extensions></trkpt>
      <trkpt lon="-3.020308" lat="52.715987"><ele>278.117310</ele><time>2022-01-15T13:05:13Z</time><extensions><speed>0.543550</speed><course>190.679504</course><hAcc>1.729455</hAcc><vAcc>0.735879</vAcc></extensions></trkpt>
      <trkpt lon="-3.020309" lat="52.715983"><ele>278.114105</ele><time>2022-01-15T13:05:14Z</time><extensions><speed>0.296411</speed><course>176.416122</course><hAcc>1.741645</hAcc><vAcc>0.742247</vAcc></extensions></trkpt>
      <trkpt lon="-3.020308" lat="52.715981"><ele>278.095337</ele><time>2022-01-15T13:05:15Z</time><extensions><speed>0.234968</speed><course>155.562302</course><hAcc>1.708633</hAcc><vAcc>0.747577</vAcc></extensions></trkpt>
      <trkpt lon="-3.020306" lat="52.715979"><ele>278.063568</ele><time>2022-01-15T13:05:16Z</time><extensions><speed>0.201605</speed><course>138.057220</course><hAcc>1.672121</hAcc><vAcc>0.751992</vAcc></extensions></trkpt>
      <trkpt lon="-3.020304" lat="52.715978"><ele>278.019135</ele><time>2022-01-15T13:05:17Z</time><extensions><speed>0.155120</speed><course>126.544991</course><hAcc>1.654305</hAcc><vAcc>0.755438</vAcc></extensions></trkpt>
      <trkpt lon="-3.020303" lat="52.715978"><ele>277.966064</ele><time>2022-01-15T13:05:18Z</time><extensions><speed>0.093853</speed><course>119.430435</course><hAcc>1.658851</hAcc><vAcc>0.757933</vAcc></extensions></trkpt>
      <trkpt lon="-3.020302" lat="52.715977"><ele>277.905731</ele><time>2022-01-15T13:05:19Z</time><extensions><speed>0.054600</speed><course>112.684509</course><hAcc>1.651883</hAcc><vAcc>0.759571</vAcc></extensions></trkpt>
      <trkpt lon="-3.020301" lat="52.715977"><ele>277.841003</ele><time>2022-01-15T13:05:20Z</time><extensions><speed>0.041487</speed><course>105.039711</course><hAcc>1.626264</hAcc><vAcc>0.760553</vAcc></extensions></trkpt>
      <trkpt lon="-3.020301" lat="52.715977"><ele>277.773438</ele><time>2022-01-15T13:05:21Z</time><extensions><speed>0.015446</speed><course>88.662613</course><hAcc>1.660780</hAcc><vAcc>0.761017</vAcc></extensions></trkpt>
      <trkpt lon="-3.020300" lat="52.715977"><ele>277.704498</ele><time>2022-01-15T13:05:22Z</time><extensions><speed>0.008822</speed><course>5.978069</course><hAcc>1.672847</hAcc><vAcc>0.761126</vAcc></extensions></trkpt>
      <trkpt lon="-3.020301" lat="52.715977"><ele>277.635406</ele><time>2022-01-15T13:05:23Z</time><extensions><speed>0.028624</speed><course>327.458618</course><hAcc>1.635510</hAcc><vAcc>0.761060</vAcc></extensions></trkpt>
      <trkpt lon="-3.020301" lat="52.715978"><ele>277.567474</ele><time>2022-01-15T13:05:24Z</time><extensions><speed>0.039677</speed><course>315.083954</course><hAcc>1.633102</hAcc><vAcc>0.760930</vAcc></extensions></trkpt>
      <trkpt lon="-3.020301" lat="52.715978"><ele>277.501831</ele><time>2022-01-15T13:05:25Z</time><extensions><speed>0.043388</speed><course>309.317596</course><hAcc>1.646151</hAcc><vAcc>0.760814</vAcc></extensions></trkpt>
      <trkpt lon="-3.020302" lat="52.715978"><ele>277.439514</ele><time>2022-01-15T13:05:26Z</time><extensions><speed>0.043200</speed><course>315.825439</course><hAcc>1.654042</hAcc><vAcc>0.760741</vAcc></extensions></trkpt>
      <trkpt lon="-3.020302" lat="52.715979"><ele>277.381317</ele><time>2022-01-15T13:05:27Z</time><extensions><speed>0.038877</speed><course>333.616364</course><hAcc>1.652741</hAcc><vAcc>0.760662</vAcc></extensions></trkpt>
      <trkpt lon="-3.020302" lat="52.715979"><ele>277.327789</ele><time>2022-01-15T13:05:28Z</time><extensions><speed>0.036920</speed><course>356.842987</course><hAcc>1.645795</hAcc><vAcc>0.760540</vAcc></extensions></trkpt>
      <trkpt lon="-3.020302" lat="52.715979"><ele>277.279358</ele><time>2022-01-15T13:05:29Z</time><extensions><speed>0.030067</speed><course>11.184403</course><hAcc>1.659062</hAcc><vAcc>0.760282</vAcc></extensions></trkpt>
      <trkpt lon="-3.020302" lat="52.715979"><ele>277.236145</ele><time>2022-01-15T13:05:30Z</time><extensions><speed>0.019890</speed><course>16.900057</course><hAcc>1.681078</hAcc><vAcc>0.759882</vAcc></extensions></trkpt>
      <trkpt lon="-3.020302" lat="52.715980"><ele>277.198151</ele><time>2022-01-15T13:05:31Z</time><extensions><speed>0.015757</speed><course>19.494429</course><hAcc>1.682641</hAcc><vAcc>0.759327</vAcc></extensions></trkpt>
      <trkpt lon="-3.020302" lat="52.715980"><ele>277.165283</ele><time>2022-01-15T13:05:32Z</time><extensions><speed>0.019863</speed><course>20.375645</course><hAcc>1.649985</hAcc><vAcc>0.758628</vAcc></extensions></trkpt>
      <trkpt lon="-3.020302" lat="52.715980"><ele>277.137177</ele><time>2022-01-15T13:05:33Z</time><extensions><speed>0.017750</speed><course>20.638763</course><hAcc>1.658487</hAcc><vAcc>0.757828</vAcc></extensions></trkpt>
      <trkpt lon="-3.020302" lat="52.715980"><ele>277.113586</ele><time>2022-01-15T13:05:34Z</time><extensions><speed>0.014119</speed><course>20.763315</course><hAcc>1.686867</hAcc><vAcc>0.756951</vAcc></extensions></trkpt>
      <trkpt lon="-3.020302" lat="52.715980"><ele>277.094116</ele><time>2022-01-15T13:05:35Z</time><extensions><speed>0.010612</speed><course>20.833395</course><hAcc>1.710469</hAcc><vAcc>0.756043</vAcc></extensions></trkpt>
      <trkpt lon="-3.020302" lat="52.715980"><ele>277.082336</ele><time>2022-01-15T13:05:36Z</time><extensions><speed>0.010291</speed><course>10.064755</course><hAcc>1.727156</hAcc><vAcc>0.755090</vAcc></extensions></trkpt>
      <trkpt lon="-3.020302" lat="52.715980"><ele>277.073029</ele><time>2022-01-15T13:05:37Z</time><extensions><speed>0.011385</speed><course>358.791901</course><hAcc>1.736242</hAcc><vAcc>0.754099</vAcc></extensions></trkpt>
      <trkpt lon="-3.020302" lat="52.715981"><ele>277.070038</ele><time>2022-01-15T13:05:38Z</time><extensions><speed>0.015142</speed><course>350.859680</course><hAcc>1.738918</hAcc><vAcc>0.753215</vAcc></extensions></trkpt>
      <trkpt lon="-3.020302" lat="52.715981"><ele>277.071411</ele><time>2022-01-15T13:05:39Z</time><extensions><speed>0.021114</speed><course>346.412628</course><hAcc>1.734764</hAcc><vAcc>0.752457</vAcc></extensions></trkpt>
      <trkpt lon="-3.020302" lat="52.715981"><ele>277.071747</ele><time>2022-01-15T13:05:40Z</time><extensions><speed>0.028410</speed><course>341.538055</course><hAcc>1.731422</hAcc><vAcc>0.751932</vAcc></extensions></trkpt>
      <trkpt lon="-3.020302" lat="52.715981"><ele>277.078949</ele><time>2022-01-15T13:05:41Z</time><extensions><speed>0.037648</speed><course>337.864532</course><hAcc>1.732235</hAcc><vAcc>0.751643</vAcc></extensions></trkpt>
      <trkpt lon="-3.020303" lat="52.715982"><ele>277.088928</ele><time>2022-01-15T13:05:42Z</time><extensions><speed>0.050117</speed><course>335.674652</course><hAcc>1.732174</hAcc><vAcc>0.751624</vAcc></extensions></trkpt>
      <trkpt lon="-3.020303" lat="52.715982"><ele>277.099060</ele><time>2022-01-15T13:05:43Z</time><extensions><speed>0.068705</speed><course>334.768860</course><hAcc>1.727727</hAcc><vAcc>0.751845</vAcc></extensions></trkpt>
      <trkpt lon="-3.020303" lat="52.715983"><ele>277.111633</ele><time>2022-01-15T13:05:44Z</time><extensions><speed>0.087544</speed><course>333.455048</course><hAcc>1.726848</hAcc><vAcc>0.752334</vAcc></extensions></trkpt>
      <trkpt lon="-3.020304" lat="52.715983"><ele>277.122711</ele><time>2022-01-15T13:05:45Z</time><extensions><speed>0.107566</speed><course>330.201233</course><hAcc>1.721540</hAcc><vAcc>0.753148</vAcc></extensions></trkpt>
      <trkpt lon="-3.020305" lat="52.715984"><ele>277.127625</ele><time>2022-01-15T13:05:46Z</time><extensions><speed>0.120055</speed><course>324.794159</course><hAcc>1.704899</hAcc><vAcc>0.754237</vAcc></extensions></trkpt>
      <trkpt lon="-3.020307" lat="52.715985"><ele>277.147552</ele><time>2022-01-15T13:05:47Z</time><extensions><speed>0.113036</speed><course>314.790344</course><hAcc>1.697233</hAcc><vAcc>0.755682</vAcc></extensions></trkpt>
      <trkpt lon="-3.020308" lat="52.715986"><ele>277.146027</ele><time>2022-01-15T13:05:48Z</time><extensions><speed>0.095139</speed><course>300.467834</course><hAcc>1.714922</hAcc><vAcc>0.757466</vAcc></extensions></trkpt>
      <trkpt lon="-3.020309" lat="52.715986"><ele>277.145416</ele><time>2022-01-15T13:05:49Z</time><extensions><speed>0.079035</speed><course>282.882050</course><hAcc>1.740203</hAcc><vAcc>0.759548</vAcc></extensions></trkpt>
      <trkpt lon="-3.020311" lat="52.715986"><ele>277.172668</ele><time>2022-01-15T13:05:50Z</time><extensions><speed>0.124995</speed><course>274.014343</course><hAcc>1.709215</hAcc><vAcc>0.761812</vAcc></extensions></trkpt>
      <trkpt lon="-3.020313" lat="52.715986"><ele>277.187958</ele><time>2022-01-15T13:05:51Z</time><extensions><speed>0.157592</speed><course>271.923492</course><hAcc>1.698562</hAcc><vAcc>0.764180</vAcc></extensions></trkpt>
      <trkpt lon="-3.020316" lat="52.715986"><ele>277.201202</ele><time>2022-01-15T13:05:52Z</time><extensions><speed>0.188507</speed><course>270.755981</course><hAcc>1.711171</hAcc><vAcc>0.766533</vAcc></extensions></trkpt>
      <trkpt lon="-3.020319" lat="52.715986"><ele>277.225861</ele><time>2022-01-15T13:05:53Z</time><extensions><speed>0.235721</speed><course>268.205933</course><hAcc>1.724930</hAcc><vAcc>0.768793</vAcc></extensions></trkpt>
      <trkpt lon="-3.020323" lat="52.715986"><ele>277.246704</ele><time>2022-01-15T13:05:54Z</time><extensions><speed>0.307353</speed><course>264.949249</course><hAcc>1.733746</hAcc><vAcc>0.770952</vAcc></extensions></trkpt>
      <trkpt lon="-3.020328" lat="52.715985"><ele>277.279327</ele><time>2022-01-15T13:05:55Z</time><extensions><speed>0.378285</speed><course>261.516541</course><hAcc>1.745845</hAcc><vAcc>0.772959</vAcc></extensions></trkpt>
      <trkpt lon="-3.020334" lat="52.715985"><ele>277.311951</ele><time>2022-01-15T13:05:56Z</time><extensions><speed>0.478772</speed><course>257.748138</course><hAcc>1.753639</hAcc><vAcc>0.774804</vAcc></extensions></trkpt>
      <trkpt lon="-3.020342" lat="52.715983"><ele>277.353699</ele><time>2022-01-15T13:05:57Z</time><extensions><speed>0.632386</speed><course>254.562119</course><hAcc>1.754215</hAcc><vAcc>0.776488</vAcc></extensions></trkpt>
      <trkpt lon="-3.020353" lat="52.715982"><ele>277.420502</ele><time>2022-01-15T13:05:58Z</time><extensions><speed>0.895678</speed><course>252.811600</course><hAcc>1.749039</hAcc><vAcc>0.777999</vAcc></extensions></trkpt>
      <trkpt lon="-3.020366" lat="52.715979"><ele>277.478638</ele><time>2022-01-15T13:05:59Z</time><extensions><speed>0.988139</speed><course>248.188339</course><hAcc>1.755646</hAcc><vAcc>0.779312</vAcc></extensions></trkpt>
      <trkpt lon="-3.020379" lat="52.715975"><ele>277.578033</ele><time>2022-01-15T13:06:00Z</time><extensions><speed>0.982345</speed><course>242.390900</course><hAcc>1.762821</hAcc><vAcc>0.780402</vAcc></extensions></trkpt>
      <trkpt lon="-3.020391" lat="52.715971"><ele>277.646027</ele><time>2022-01-15T13:06:01Z</time><extensions><speed>0.890343</speed><course>236.259216</course><hAcc>1.763886</hAcc><vAcc>0.781271</vAcc></extensions></trkpt>
      <trkpt lon="-3.020401" lat="52.715966"><ele>277.715820</ele><time>2022-01-15T13:06:02Z</time><extensions><speed>0.811000</speed><course>229.677200</course><hAcc>1.754956</hAcc><vAcc>0.781965</vAcc></extensions></trkpt>
      <trkpt lon="-3.020410" lat="52.715961"><ele>277.782166</ele><time>2022-01-15T13:06:03Z</time><extensions><speed>0.784598</speed><course>224.316422</course><hAcc>1.751043</hAcc><vAcc>0.782517</vAcc></extensions></trkpt>
      <trkpt lon="-3.020418" lat="52.715956"><ele>277.854675</ele><time>2022-01-15T13:06:04Z</time><extensions><speed>0.775291</speed><course>221.050171</course><hAcc>1.749558</hAcc><vAcc>0.782986</vAcc></extensions></trkpt>
      <trkpt lon="-3.020426" lat="52.715951"><ele>277.920837</ele><time>2022-01-15T13:06:05Z</time><extensions><speed>0.797997</speed><course>222.003952</course><hAcc>1.746925</hAcc><vAcc>0.783371</vAcc></extensions></trkpt>
      <trkpt lon="-3.020434" lat="52.715945"><ele>277.962463</ele><time>2022-01-15T13:06:06Z</time><extensions><speed>0.782490</speed><course>223.798233</course><hAcc>1.747954</hAcc><vAcc>0.783701</vAcc></extensions></trkpt>
      <trkpt lon="-3.020442" lat="52.715941"><ele>278.012177</ele><time>2022-01-15T13:06:07Z</time><extensions><speed>0.754018</speed><course>226.518250</course><hAcc>1.757354</hAcc><vAcc>0.784022</vAcc></extensions></trkpt>
      <trkpt lon="-3.020450" lat="52.715936"><ele>278.076752</ele><time>2022-01-15T13:06:08Z</time><extensions><speed>0.683080</speed><course>228.476822</course><hAcc>1.753276</hAcc><vAcc>0.784322</vAcc></extensions></trkpt>
      <trkpt lon="-3.020457" lat="52.715932"><ele>278.127045</ele><time>2022-01-15T13:06:09Z</time><extensions><speed>0.722534</speed><course>230.017670</course><hAcc>1.749771</hAcc><vAcc>0.784592</vAcc></extensions></trkpt>
      <trkpt lon="-3.020466" lat="52.715928"><ele>278.166321</ele><time>2022-01-15T13:06:10Z</time><extensions><speed>0.785054</speed><course>231.244629</course><hAcc>1.756317</hAcc><vAcc>0.784848</vAcc></extensions></trkpt>
      <trkpt lon="-3.020475" lat="52.715923"><ele>278.193970</ele><time>2022-01-15T13:06:11Z</time><extensions><speed>0.794614</speed><course>232.850708</course><hAcc>1.760032</hAcc><vAcc>0.785118</vAcc></extensions></trkpt>
      <trkpt lon="-3.020485" lat="52.715919"><ele>278.211151</ele><time>2022-01-15T13:06:12Z</time><extensions><speed>0.808443</speed><course>234.149094</course><hAcc>1.764816</hAcc><vAcc>0.785372</vAcc></extensions></trkpt>
      <trkpt lon="-3.020494" lat="52.715915"><ele>278.230927</ele><time>2022-01-15T13:06:13Z</time><extensions><speed>0.775336</speed><course>235.911942</course><hAcc>1.767132</hAcc><vAcc>0.785625</vAcc></extensions></trkpt>
      <trkpt lon="-3.020504" lat="52.715911"><ele>278.252716</ele><time>2022-01-15T13:06:14Z</time><extensions><speed>0.761309</speed><course>238.075912</course><hAcc>1.764843</hAcc><vAcc>0.785830</vAcc></extensions></trkpt>
      <trkpt lon="-3.020514" lat="52.715908"><ele>278.267731</ele><time>2022-01-15T13:06:15Z</time><extensions><speed>0.781398</speed><course>240.127686</course><hAcc>1.761079</hAcc><vAcc>0.785942</vAcc></extensions></trkpt>
      <trkpt lon="-3.020524" lat="52.715904"><ele>278.278320</ele><time>2022-01-15T13:06:16Z</time><extensions><speed>0.829803</speed><course>240.448212</course><hAcc>1.761215</hAcc><vAcc>0.786009</vAcc></extensions></trkpt>
      <trkpt lon="-3.020535" lat="52.715900"><ele>278.286652</ele><time>2022-01-15T13:06:17Z</time><extensions><speed>0.872586</speed><course>239.138382</course><hAcc>1.767664</hAcc><vAcc>0.785990</vAcc></extensions></trkpt>
      <trkpt lon="-3.020546" lat="52.715896"><ele>278.322144</ele><time>2022-01-15T13:06:18Z</time><extensions><speed>0.856007</speed><course>237.900558</course><hAcc>1.771788</hAcc><vAcc>0.785512</vAcc></extensions></trkpt>
      <trkpt lon="-3.020556" lat="52.715892"><ele>278.337036</ele><time>2022-01-15T13:06:19Z</time><extensions><speed>0.801612</speed><course>237.545029</course><hAcc>1.764067</hAcc><vAcc>0.784536</vAcc></extensions></trkpt>
      <trkpt lon="-3.020566" lat="52.715888"><ele>278.370972</ele><time>2022-01-15T13:06:20Z</time><extensions><speed>0.786773</speed><course>236.636292</course><hAcc>1.762254</hAcc><vAcc>0.782831</vAcc></extensions></trkpt>
      <trkpt lon="-3.020576" lat="52.715884"><ele>278.392609</ele><time>2022-01-15T13:06:21Z</time><extensions><speed>0.773820</speed><course>233.373520</course><hAcc>1.769366</hAcc><vAcc>0.780012</vAcc></extensions></trkpt>
      <trkpt lon="-3.020585" lat="52.715880"><ele>278.423737</ele><time>2022-01-15T13:06:22Z</time><extensions><speed>0.773959</speed><course>230.017548</course><hAcc>1.779381</hAcc><vAcc>0.775859</vAcc></extensions></trkpt>
      <trkpt lon="-3.020593" lat="52.715876"><ele>278.443420</ele><time>2022-01-15T13:06:23Z</time><extensions><speed>0.740878</speed><course>228.431793</course><hAcc>1.795016</hAcc><vAcc>0.770175</vAcc></extensions></trkpt>
      <trkpt lon="-3.020601" lat="52.715871"><ele>278.464478</ele><time>2022-01-15T13:06:24Z</time><extensions><speed>0.635429</speed><course>227.568756</course><hAcc>1.792077</hAcc><vAcc>0.763334</vAcc></extensions></trkpt>
      <trkpt lon="-3.020607" lat="52.715868"><ele>278.485504</ele><time>2022-01-15T13:06:25Z</time><extensions><speed>0.526535</speed><course>228.414764</course><hAcc>1.781548</hAcc><vAcc>0.754919</vAcc></extensions></trkpt>
      <trkpt lon="-3.020612" lat="52.715865"><ele>278.505737</ele><time>2022-01-15T13:06:26Z</time><extensions><speed>0.446136</speed><course>230.375275</course><hAcc>1.772078</hAcc><vAcc>0.744765</vAcc></extensions></trkpt>
      <trkpt lon="-3.020617" lat="52.715863"><ele>278.524323</ele><time>2022-01-15T13:06:27Z</time><extensions><speed>0.339399</speed><course>233.014633</course><hAcc>1.762828</hAcc><vAcc>0.732767</vAcc></extensions></trkpt>
      <trkpt lon="-3.020620" lat="52.715862"><ele>278.540466</ele><time>2022-01-15T13:06:28Z</time><extensions><speed>0.212397</speed><course>237.633545</course><hAcc>1.769513</hAcc><vAcc>0.719041</vAcc></extensions></trkpt>
      <trkpt lon="-3.020622" lat="52.715861"><ele>278.553253</ele><time>2022-01-15T13:06:29Z</time><extensions><speed>0.060690</speed><course>258.702911</course><hAcc>1.793357</hAcc><vAcc>0.703885</vAcc></extensions></trkpt>
      <trkpt lon="-3.020622" lat="52.715861"><ele>278.564545</ele><time>2022-01-15T13:06:30Z</time><extensions><speed>0.032167</speed><course>334.716705</course><hAcc>1.793234</hAcc><vAcc>0.687756</vAcc></extensions></trkpt>
      <trkpt lon="-3.020622" lat="52.715861"><ele>278.574036</ele><time>2022-01-15T13:06:31Z</time><extensions><speed>0.043020</speed><course>6.494141</course><hAcc>1.783620</hAcc><vAcc>0.671235</vAcc></extensions></trkpt>
      <trkpt lon="-3.020622" lat="52.715862"><ele>278.581482</ele><time>2022-01-15T13:06:32Z</time><extensions><speed>0.040924</speed><course>19.749239</course><hAcc>1.781148</hAcc><vAcc>0.655009</vAcc></extensions></trkpt>
      <trkpt lon="-3.020622" lat="52.715862"><ele>278.587311</ele><time>2022-01-15T13:06:33Z</time><extensions><speed>0.036173</speed><course>32.663086</course><hAcc>1.776147</hAcc><vAcc>0.639830</vAcc></extensions></trkpt>
      <trkpt lon="-3.020622" lat="52.715862"><ele>278.592255</ele><time>2022-01-15T13:06:34Z</time><extensions><speed>0.028577</speed><course>48.271606</course><hAcc>1.784252</hAcc><vAcc>0.626269</vAcc></extensions></trkpt>
      <trkpt lon="-3.020621" lat="52.715862"><ele>278.597076</ele><time>2022-01-15T13:06:35Z</time><extensions><speed>0.026480</speed><course>67.852936</course><hAcc>1.787662</hAcc><vAcc>0.614571</vAcc></extensions></trkpt>
      <trkpt lon="-3.020621" lat="52.715862"><ele>278.602325</ele><time>2022-01-15T13:06:36Z</time><extensions><speed>0.029163</speed><course>85.985344</course><hAcc>1.788733</hAcc><vAcc>0.604705</vAcc></extensions></trkpt>
      <trkpt lon="-3.020620" lat="52.715862"><ele>278.608307</ele><time>2022-01-15T13:06:37Z</time><extensions><speed>0.037773</speed><course>98.401138</course><hAcc>1.782810</hAcc><vAcc>0.596494</vAcc></extensions></trkpt>
      <trkpt lon="-3.020620" lat="52.715862"><ele>278.615173</ele><time>2022-01-15T13:06:38Z</time><extensions><speed>0.049406</speed><course>105.707687</course><hAcc>1.774835</hAcc><vAcc>0.589756</vAcc></extensions></trkpt>
      <trkpt lon="-3.020619" lat="52.715862"><ele>278.620087</ele><time>2022-01-15T13:06:39Z</time><extensions><speed>0.058261</speed><course>111.943703</course><hAcc>1.770581</hAcc><vAcc>0.584347</vAcc></extensions></trkpt>
      <trkpt lon="-3.020618" lat="52.715862"><ele>278.624512</ele><time>2022-01-15T13:06:40Z</time><extensions><speed>0.057093</speed><course>118.510986</course><hAcc>1.768189</hAcc><vAcc>0.580170</vAcc></extensions></trkpt>
      <trkpt lon="-3.020617" lat="52.715861"><ele>278.624603</ele><time>2022-01-15T13:06:41Z</time><extensions><speed>0.047103</speed><course>128.341675</course><hAcc>1.763697</hAcc><vAcc>0.577079</vAcc></extensions></trkpt>
      <trkpt lon="-3.020617" lat="52.715861"><ele>278.619812</ele><time>2022-01-15T13:06:42Z</time><extensions><speed>0.036166</speed><course>137.361786</course><hAcc>1.766123</hAcc><vAcc>0.574748</vAcc></extensions></trkpt>
      <trkpt lon="-3.020616" lat="52.715861"><ele>278.610138</ele><time>2022-01-15T13:06:43Z</time><extensions><speed>0.026876</speed><course>143.007477</course><hAcc>1.777813</hAcc><vAcc>0.572680</vAcc></extensions></trkpt>
      <trkpt lon="-3.020616" lat="52.715861"><ele>278.595490</ele><time>2022-01-15T13:06:44Z</time><extensions><speed>0.024697</speed><course>146.391800</course><hAcc>1.788516</hAcc><vAcc>0.570382</vAcc></extensions></trkpt>
      <trkpt lon="-3.020616" lat="52.715860"><ele>278.575897</ele><time>2022-01-15T13:06:45Z</time><extensions><speed>0.018955</speed><course>148.649368</course><hAcc>1.813430</hAcc><vAcc>0.567495</vAcc></extensions></trkpt>
      <trkpt lon="-3.020616" lat="52.715860"><ele>278.551544</ele><time>2022-01-15T13:06:46Z</time><extensions><speed>0.042333</speed><course>149.850662</course><hAcc>1.788629</hAcc><vAcc>0.563833</vAcc></extensions></trkpt>
      <trkpt lon="-3.020615" lat="52.715860"><ele>278.522858</ele><time>2022-01-15T13:06:47Z</time><extensions><speed>0.054711</speed><course>150.325180</course><hAcc>1.802607</hAcc><vAcc>0.559372</vAcc></extensions></trkpt>
      <trkpt lon="-3.020615" lat="52.715859"><ele>278.490540</ele><time>2022-01-15T13:06:48Z</time><extensions><speed>0.076816</speed><course>150.359573</course><hAcc>1.823275</hAcc><vAcc>0.554233</vAcc></extensions></trkpt>
      <trkpt lon="-3.020614" lat="52.715858"><ele>278.455688</ele><time>2022-01-15T13:06:49Z</time><extensions><speed>0.088134</speed><course>149.695877</course><hAcc>1.861369</hAcc><vAcc>0.548680</vAcc></extensions></trkpt>
      <trkpt lon="-3.020614" lat="52.715858"><ele>278.419556</ele><time>2022-01-15T13:06:50Z</time><extensions><speed>0.084068</speed><course>149.548889</course><hAcc>1.903483</hAcc><vAcc>0.543126</vAcc></extensions></trkpt>
      <trkpt lon="-3.020613" lat="52.715857"><ele>278.383575</ele><time>2022-01-15T13:06:51Z</time><extensions><speed>0.078647</speed><course>150.139465</course><hAcc>1.925522</hAcc><vAcc>0.538082</vAcc></extensions></trkpt>
      <trkpt lon="-3.020612" lat="52.715856"><ele>278.350739</ele><time>2022-01-15T13:06:52Z</time><extensions><speed>0.077192</speed><course>145.595886</course><hAcc>1.943534</hAcc><vAcc>0.534009</vAcc></extensions></trkpt>
      <trkpt lon="-3.020610" lat="52.715855"><ele>278.326385</ele><time>2022-01-15T13:06:53Z</time><extensions><speed>0.078327</speed><course>140.982391</course><hAcc>1.946781</hAcc><vAcc>0.531183</vAcc></extensions></trkpt>
      <trkpt lon="-3.020609" lat="52.715855"><ele>278.309692</ele><time>2022-01-15T13:06:54Z</time><extensions><speed>0.084443</speed><course>136.900909</course><hAcc>1.929797</hAcc><vAcc>0.529654</vAcc></extensions></trkpt>
      <trkpt lon="-3.020608" lat="52.715854"><ele>278.299103</ele><time>2022-01-15T13:06:55Z</time><extensions><speed>0.091743</speed><course>133.281601</course><hAcc>1.910542</hAcc><vAcc>0.529327</vAcc></extensions></trkpt>
      <trkpt lon="-3.020607" lat="52.715854"><ele>278.294678</ele><time>2022-01-15T13:06:56Z</time><extensions><speed>0.095576</speed><course>130.266144</course><hAcc>1.897983</hAcc><vAcc>0.530064</vAcc></extensions></trkpt>
      <trkpt lon="-3.020606" lat="52.715853"><ele>278.296173</ele><time>2022-01-15T13:06:57Z</time><extensions><speed>0.103267</speed><course>127.899765</course><hAcc>1.881481</hAcc><vAcc>0.531748</vAcc></extensions></trkpt>
      <trkpt lon="-3.020604" lat="52.715852"><ele>278.303192</ele><time>2022-01-15T13:06:58Z</time><extensions><speed>0.119029</speed><course>126.220337</course><hAcc>1.854703</hAcc><vAcc>0.534269</vAcc></extensions></trkpt>
      <trkpt lon="-3.020603" lat="52.715852"><ele>278.314972</ele><time>2022-01-15T13:06:59Z</time><extensions><speed>0.138327</speed><course>125.084717</course><hAcc>1.820363</hAcc><vAcc>0.537521</vAcc></extensions></trkpt>
      <trkpt lon="-3.020601" lat="52.715851"><ele>278.330475</ele><time>2022-01-15T13:07:00Z</time><extensions><speed>0.164258</speed><course>124.312607</course><hAcc>1.776111</hAcc><vAcc>0.541372</vAcc></extensions></trkpt>
      <trkpt lon="-3.020599" lat="52.715850"><ele>278.349670</ele><time>2022-01-15T13:07:01Z</time><extensions><speed>0.175222</speed><course>124.992775</course><hAcc>1.736380</hAcc><vAcc>0.545658</vAcc></extensions></trkpt>
      <trkpt lon="-3.020597" lat="52.715849"><ele>278.368073</ele><time>2022-01-15T13:07:02Z</time><extensions><speed>0.116103</speed><course>125.904816</course><hAcc>1.723595</hAcc><vAcc>0.550241</vAcc></extensions></trkpt>
      <trkpt lon="-3.020597" lat="52.715848"><ele>278.384033</ele><time>2022-01-15T13:07:03Z</time><extensions><speed>0.082912</speed><course>128.578934</course><hAcc>1.691850</hAcc><vAcc>0.555068</vAcc></extensions></trkpt>
      <trkpt lon="-3.020596" lat="52.715848"><ele>278.396454</ele><time>2022-01-15T13:07:04Z</time><extensions><speed>0.053968</speed><course>135.026443</course><hAcc>1.667250</hAcc><vAcc>0.560149</vAcc></extensions></trkpt>
      <trkpt lon="-3.020596" lat="52.715847"><ele>278.405243</ele><time>2022-01-15T13:07:04Z</time><extensions><speed>0.033959</speed><course>148.195358</course><hAcc>1.659531</hAcc><vAcc>0.565546</vAcc></extensions></trkpt>
      <trkpt lon="-3.020596" lat="52.715847"><ele>278.410461</ele><time>2022-01-15T13:07:05Z</time><extensions><speed>0.026257</speed><course>170.491577</course><hAcc>1.651489</hAcc><vAcc>0.571280</vAcc></extensions></trkpt>
      <trkpt lon="-3.020596" lat="52.715847"><ele>278.412201</ele><time>2022-01-15T13:07:07Z</time><extensions><speed>0.034136</speed><course>193.914093</course><hAcc>1.632448</hAcc><vAcc>0.577286</vAcc></extensions></trkpt>
      <trkpt lon="-3.020596" lat="52.715847"><ele>278.425079</ele><time>2022-01-15T13:07:08Z</time><extensions><speed>0.035035</speed><course>210.612106</course><hAcc>1.639789</hAcc><vAcc>0.583460</vAcc></extensions></trkpt>
      <trkpt lon="-3.020596" lat="52.715846"><ele>278.432037</ele><time>2022-01-15T13:07:09Z</time><extensions><speed>0.044945</speed><course>224.394226</course><hAcc>1.650764</hAcc><vAcc>0.589814</vAcc></extensions></trkpt>
      <trkpt lon="-3.020597" lat="52.715846"><ele>278.436066</ele><time>2022-01-15T13:07:10Z</time><extensions><speed>0.050114</speed><course>233.492706</course><hAcc>1.673221</hAcc><vAcc>0.596361</vAcc></extensions></trkpt>
      <trkpt lon="-3.020598" lat="52.715846"><ele>278.439240</ele><time>2022-01-15T13:07:11Z</time><extensions><speed>0.088856</speed><course>236.162140</course><hAcc>1.658781</hAcc><vAcc>0.603168</vAcc></extensions></trkpt>
      <trkpt lon="-3.020599" lat="52.715845"><ele>278.438049</ele><time>2022-01-15T13:07:12Z</time><extensions><speed>0.090684</speed><course>236.214951</course><hAcc>1.675431</hAcc><vAcc>0.610361</vAcc></extensions></trkpt>
      <trkpt lon="-3.020600" lat="52.715845"><ele>278.447876</ele><time>2022-01-15T13:07:13Z</time><extensions><speed>0.087681</speed><course>240.335022</course><hAcc>1.694038</hAcc><vAcc>0.618091</vAcc></extensions></trkpt>
      <trkpt lon="-3.020602" lat="52.715845"><ele>278.452087</ele><time>2022-01-15T13:07:14Z</time><extensions><speed>0.079791</speed><course>248.165207</course><hAcc>1.711579</hAcc><vAcc>0.626534</vAcc></extensions></trkpt>
      <trkpt lon="-3.020603" lat="52.715844"><ele>278.454865</ele><time>2022-01-15T13:07:15Z</time><extensions><speed>0.070249</speed><course>260.425781</course><hAcc>1.730736</hAcc><vAcc>0.635801</vAcc></extensions></trkpt>
      <trkpt lon="-3.020604" lat="52.715844"><ele>278.462860</ele><time>2022-01-15T13:07:16Z</time><extensions><speed>0.071248</speed><course>273.139282</course><hAcc>1.737381</hAcc><vAcc>0.645886</vAcc></extensions></trkpt>
      <trkpt lon="-3.020605" lat="52.715844"><ele>278.477295</ele><time>2022-01-15T13:07:17Z</time><extensions><speed>0.085195</speed><course>280.572998</course><hAcc>1.734836</hAcc><vAcc>0.656709</vAcc></extensions></trkpt>
      <trkpt lon="-3.020607" lat="52.715844"><ele>278.493866</ele><time>2022-01-15T13:07:18Z</time><extensions><speed>0.107987</speed><course>276.194244</course><hAcc>1.737739</hAcc><vAcc>0.668134</vAcc></extensions></trkpt>
      <trkpt lon="-3.020609" lat="52.715844"><ele>278.515228</ele><time>2022-01-15T13:07:19Z</time><extensions><speed>0.151632</speed><course>267.353241</course><hAcc>1.736782</hAcc><vAcc>0.679964</vAcc></extensions></trkpt>
      <trkpt lon="-3.020611" lat="52.715844"><ele>278.539246</ele><time>2022-01-15T13:07:20Z</time><extensions><speed>0.198436</speed><course>260.538208</course><hAcc>1.740725</hAcc><vAcc>0.691911</vAcc></extensions></trkpt>
      <trkpt lon="-3.020615" lat="52.715844"><ele>278.572601</ele><time>2022-01-15T13:07:21Z</time><extensions><speed>0.252031</speed><course>256.287292</course><hAcc>1.749750</hAcc><vAcc>0.703709</vAcc></extensions></trkpt>
      <trkpt lon="-3.020619" lat="52.715843"><ele>278.612610</ele><time>2022-01-15T13:07:22Z</time><extensions><speed>0.347977</speed><course>253.691895</course><hAcc>1.750477</hAcc><vAcc>0.715174</vAcc></extensions></trkpt>
      <trkpt lon="-3.020625" lat="52.715842"><ele>278.657227</ele><time>2022-01-15T13:07:23Z</time><extensions><speed>0.566281</speed><course>252.388596</course><hAcc>1.733191</hAcc><vAcc>0.726116</vAcc></extensions></trkpt>
      <trkpt lon="-3.020634" lat="52.715840"><ele>278.706085</ele><time>2022-01-15T13:07:24Z</time><extensions><speed>0.625967</speed><course>246.951004</course><hAcc>1.745231</hAcc><vAcc>0.736394</vAcc></extensions></trkpt>
      <trkpt lon="-3.020641" lat="52.715838"><ele>278.743622</ele><time>2022-01-15T13:07:25Z</time><extensions><speed>0.461160</speed><course>246.079071</course><hAcc>1.757430</hAcc><vAcc>0.745797</vAcc></extensions></trkpt>
      <trkpt lon="-3.020646" lat="52.715837"><ele>278.782806</ele><time>2022-01-15T13:07:26Z</time><extensions><speed>0.226104</speed><course>258.374695</course><hAcc>1.764560</hAcc><vAcc>0.754260</vAcc></extensions></trkpt>
      <trkpt lon="-3.020648" lat="52.715837"><ele>278.822296</ele><time>2022-01-15T13:07:27Z</time><extensions><speed>0.131549</speed><course>286.291534</course><hAcc>1.755469</hAcc><vAcc>0.761750</vAcc></extensions></trkpt>
      <trkpt lon="-3.020650" lat="52.715838"><ele>278.861572</ele><time>2022-01-15T13:07:28Z</time><extensions><speed>0.110661</speed><course>317.153351</course><hAcc>1.744351</hAcc><vAcc>0.768277</vAcc></extensions></trkpt>
      <trkpt lon="-3.020651" lat="52.715838"><ele>278.900726</ele><time>2022-01-15T13:07:29Z</time><extensions><speed>0.110594</speed><course>332.104889</course><hAcc>1.729038</hAcc><vAcc>0.773816</vAcc></extensions></trkpt>
      <trkpt lon="-3.020652" lat="52.715839"><ele>278.940857</ele><time>2022-01-15T13:07:30Z</time><extensions><speed>0.102520</speed><course>335.903839</course><hAcc>1.710714</hAcc><vAcc>0.778440</vAcc></extensions></trkpt>
      <trkpt lon="-3.020652" lat="52.715840"><ele>278.970337</ele><time>2022-01-15T13:07:31Z</time><extensions><speed>0.088386</speed><course>335.173431</course><hAcc>1.696056</hAcc><vAcc>0.782205</vAcc></extensions></trkpt>
      <trkpt lon="-3.020653" lat="52.715841"><ele>278.994812</ele><time>2022-01-15T13:07:32Z</time><extensions><speed>0.061158</speed><course>331.584167</course><hAcc>1.707573</hAcc><vAcc>0.785243</vAcc></extensions></trkpt>
      <trkpt lon="-3.020653" lat="52.715841"><ele>279.013916</ele><time>2022-01-15T13:07:33Z</time><extensions><speed>0.044913</speed><course>323.798676</course><hAcc>1.718822</hAcc><vAcc>0.787656</vAcc></extensions></trkpt>
      <trkpt lon="-3.020653" lat="52.715841"><ele>279.027588</ele><time>2022-01-15T13:07:34Z</time><extensions><speed>0.039476</speed><course>313.662659</course><hAcc>1.716884</hAcc><vAcc>0.789561</vAcc></extensions></trkpt>
      <trkpt lon="-3.020654" lat="52.715842"><ele>279.049744</ele><time>2022-01-15T13:07:35Z</time><extensions><speed>0.042043</speed><course>307.890869</course><hAcc>1.693389</hAcc><vAcc>0.791056</vAcc></extensions></trkpt>
      <trkpt lon="-3.020654" lat="52.715842"><ele>279.062408</ele><time>2022-01-15T13:07:36Z</time><extensions><speed>0.031029</speed><course>303.679779</course><hAcc>1.689602</hAcc><vAcc>0.792268</vAcc></extensions></trkpt>
      <trkpt lon="-3.020655" lat="52.715842"><ele>279.069672</ele><time>2022-01-15T13:07:37Z</time><extensions><speed>0.014106</speed><course>287.006897</course><hAcc>1.697457</hAcc><vAcc>0.793342</vAcc></extensions></trkpt>
      <trkpt lon="-3.020655" lat="52.715842"><ele>279.074249</ele><time>2022-01-15T13:07:38Z</time><extensions><speed>0.008165</speed><course>197.688446</course><hAcc>1.706440</hAcc><vAcc>0.794334</vAcc></extensions></trkpt>
      <trkpt lon="-3.020655" lat="52.715842"><ele>279.073059</ele><time>2022-01-15T13:07:39Z</time><extensions><speed>0.018131</speed><course>166.288437</course><hAcc>1.695823</hAcc><vAcc>0.795288</vAcc></extensions></trkpt>
      <trkpt lon="-3.020655" lat="52.715842"><ele>279.080231</ele><time>2022-01-15T13:07:40Z</time><extensions><speed>0.023225</speed><course>159.258423</course><hAcc>1.699170</hAcc><vAcc>0.796225</vAcc></extensions></trkpt>
      <trkpt lon="-3.020654" lat="52.715841"><ele>279.088318</ele><time>2022-01-15T13:07:41Z</time><extensions><speed>0.019350</speed><course>148.214233</course><hAcc>1.727364</hAcc><vAcc>0.797166</vAcc></extensions></trkpt>
      <trkpt lon="-3.020654" lat="52.715841"><ele>279.090973</ele><time>2022-01-15T13:07:42Z</time><extensions><speed>0.016136</speed><course>118.295380</course><hAcc>1.739122</hAcc><vAcc>0.798080</vAcc></extensions></trkpt>
      <trkpt lon="-3.020654" lat="52.715841"><ele>279.093872</ele><time>2022-01-15T13:07:43Z</time><extensions><speed>0.025267</speed><course>85.127396</course><hAcc>1.709192</hAcc><vAcc>0.798996</vAcc></extensions></trkpt>
      <trkpt lon="-3.020654" lat="52.715841"><ele>279.094025</ele><time>2022-01-15T13:07:44Z</time><extensions><speed>0.034152</speed><course>61.869011</course><hAcc>1.705785</hAcc><vAcc>0.799762</vAcc></extensions></trkpt>
      <trkpt lon="-3.020653" lat="52.715842"><ele>279.093719</ele><time>2022-01-15T13:07:45Z</time><extensions><speed>0.040166</speed><course>37.308369</course><hAcc>1.720095</hAcc><vAcc>0.800206</vAcc></extensions></trkpt>
      <trkpt lon="-3.020653" lat="52.715842"><ele>279.087158</ele><time>2022-01-15T13:07:46Z</time><extensions><speed>0.048174</speed><course>7.003019</course><hAcc>1.734845</hAcc><vAcc>0.800220</vAcc></extensions></trkpt>
      <trkpt lon="-3.020653" lat="52.715843"><ele>279.074738</ele><time>2022-01-15T13:07:47Z</time><extensions><speed>0.063782</speed><course>343.782349</course><hAcc>1.747867</hAcc><vAcc>0.800003</vAcc></extensions></trkpt>
      <trkpt lon="-3.020654" lat="52.715843"><ele>279.066254</ele><time>2022-01-15T13:07:48Z</time><extensions><speed>0.082238</speed><course>332.955139</course><hAcc>1.754328</hAcc><vAcc>0.799340</vAcc></extensions></trkpt>
      <trkpt lon="-3.020654" lat="52.715844"><ele>279.051208</ele><time>2022-01-15T13:07:49Z</time><extensions><speed>0.106080</speed><course>330.008270</course><hAcc>1.758187</hAcc><vAcc>0.798098</vAcc></extensions></trkpt>
      <trkpt lon="-3.020655" lat="52.715845"><ele>279.034576</ele><time>2022-01-15T13:07:50Z</time><extensions><speed>0.133243</speed><course>329.113403</course><hAcc>1.762837</hAcc><vAcc>0.796328</vAcc></extensions></trkpt>
      <trkpt lon="-3.020656" lat="52.715846"><ele>279.016754</ele><time>2022-01-15T13:07:51Z</time><extensions><speed>0.156757</speed><course>328.094879</course><hAcc>1.764999</hAcc><vAcc>0.794170</vAcc></extensions></trkpt>
      <trkpt lon="-3.020658" lat="52.715847"><ele>279.001801</ele><time>2022-01-15T13:07:52Z</time><extensions><speed>0.166968</speed><course>326.216736</course><hAcc>1.769030</hAcc><vAcc>0.791662</vAcc></extensions></trkpt>
      <trkpt lon="-3.020659" lat="52.715848"><ele>278.978638</ele><time>2022-01-15T13:07:53Z</time><extensions><speed>0.161586</speed><course>322.693054</course><hAcc>1.770466</hAcc><vAcc>0.788772</vAcc></extensions></trkpt>
      <trkpt lon="-3.020660" lat="52.715849"><ele>278.951904</ele><time>2022-01-15T13:07:54Z</time><extensions><speed>0.137705</speed><course>316.428680</course><hAcc>1.768189</hAcc><vAcc>0.785588</vAcc></extensions></trkpt>
      <trkpt lon="-3.020662" lat="52.715850"><ele>278.929474</ele><time>2022-01-15T13:07:55Z</time><extensions><speed>0.096559</speed><course>303.278381</course><hAcc>1.771403</hAcc><vAcc>0.782186</vAcc></extensions></trkpt>
      <trkpt lon="-3.020663" lat="52.715850"><ele>278.912445</ele><time>2022-01-15T13:07:56Z</time><extensions><speed>0.055283</speed><course>273.260864</course><hAcc>1.790163</hAcc><vAcc>0.778776</vAcc></extensions></trkpt>
      <trkpt lon="-3.020663" lat="52.715850"><ele>278.893616</ele><time>2022-01-15T13:07:57Z</time><extensions><speed>0.041636</speed><course>216.772598</course><hAcc>1.815391</hAcc><vAcc>0.775586</vAcc></extensions></trkpt>
      <trkpt lon="-3.020664" lat="52.715850"><ele>278.874420</ele><time>2022-01-15T13:07:58Z</time><extensions><speed>0.065270</speed><course>191.567276</course><hAcc>1.797504</hAcc><vAcc>0.772775</vAcc></extensions></trkpt>
      <trkpt lon="-3.020664" lat="52.715849"><ele>278.866089</ele><time>2022-01-15T13:07:59Z</time><extensions><speed>0.074269</speed><course>191.954437</course><hAcc>1.787465</hAcc><vAcc>0.770361</vAcc></extensions></trkpt>
      <trkpt lon="-3.020664" lat="52.715848"><ele>278.848511</ele><time>2022-01-15T13:08:00Z</time><extensions><speed>0.069823</speed><course>201.376801</course><hAcc>1.790129</hAcc><vAcc>0.768309</vAcc></extensions></trkpt>
      <trkpt lon="-3.020665" lat="52.715848"><ele>278.834381</ele><time>2022-01-15T13:08:01Z</time><extensions><speed>0.055653</speed><course>214.363632</course><hAcc>1.799822</hAcc><vAcc>0.766619</vAcc></extensions></trkpt>
      <trkpt lon="-3.020665" lat="52.715848"><ele>278.821991</ele><time>2022-01-15T13:08:02Z</time><extensions><speed>0.040469</speed><course>216.056717</course><hAcc>1.807816</hAcc><vAcc>0.765273</vAcc></extensions></trkpt>
      <trkpt lon="-3.020665" lat="52.715847"><ele>278.811249</ele><time>2022-01-15T13:08:03Z</time><extensions><speed>0.027745</speed><course>185.447235</course><hAcc>1.811533</hAcc><vAcc>0.764185</vAcc></extensions></trkpt>
      <trkpt lon="-3.020665" lat="52.715847"><ele>278.802490</ele><time>2022-01-15T13:08:04Z</time><extensions><speed>0.030720</speed><course>140.506821</course><hAcc>1.811756</hAcc><vAcc>0.763360</vAcc></extensions></trkpt>
      <trkpt lon="-3.020665" lat="52.715847"><ele>278.795471</ele><time>2022-01-15T13:08:05Z</time><extensions><speed>0.037331</speed><course>121.374794</course><hAcc>1.810886</hAcc><vAcc>0.762821</vAcc></extensions></trkpt>
      <trkpt lon="-3.020664" lat="52.715847"><ele>278.789520</ele><time>2022-01-15T13:08:06Z</time><extensions><speed>0.033381</speed><course>114.750793</course><hAcc>1.809074</hAcc><vAcc>0.762576</vAcc></extensions></trkpt>
      <trkpt lon="-3.020664" lat="52.715847"><ele>278.784271</ele><time>2022-01-15T13:08:07Z</time><extensions><speed>0.014608</speed><course>111.645340</course><hAcc>1.812454</hAcc><vAcc>0.762579</vAcc></extensions></trkpt>
      <trkpt lon="-3.020664" lat="52.715847"><ele>278.786041</ele><time>2022-01-15T13:08:08Z</time><extensions><speed>0.008915</speed><course>321.189301</course><hAcc>1.813749</hAcc><vAcc>0.762803</vAcc></extensions></trkpt>
      <trkpt lon="-3.020664" lat="52.715847"><ele>278.789337</ele><time>2022-01-15T13:08:09Z</time><extensions><speed>0.024032</speed><course>323.076019</course><hAcc>1.811529</hAcc><vAcc>0.763255</vAcc></extensions></trkpt>
      <trkpt lon="-3.020664" lat="52.715847"><ele>278.794189</ele><time>2022-01-15T13:08:10Z</time><extensions><speed>0.030283</speed><course>330.682587</course><hAcc>1.809265</hAcc><vAcc>0.763870</vAcc></extensions></trkpt>
      <trkpt lon="-3.020664" lat="52.715847"><ele>278.800629</ele><time>2022-01-15T13:08:11Z</time><extensions><speed>0.029590</speed><course>330.133850</course><hAcc>1.807392</hAcc><vAcc>0.764649</vAcc></extensions></trkpt>
      <trkpt lon="-3.020665" lat="52.715847"><ele>278.808807</ele><time>2022-01-15T13:08:12Z</time><extensions><speed>0.025549</speed><course>318.309052</course><hAcc>1.805043</hAcc><vAcc>0.765587</vAcc></extensions></trkpt>
      <trkpt lon="-3.020665" lat="52.715848"><ele>278.819519</ele><time>2022-01-15T13:08:13Z</time><extensions><speed>0.025835</speed><course>303.754425</course><hAcc>1.799986</hAcc><vAcc>0.766673</vAcc></extensions></trkpt>
      <trkpt lon="-3.020665" lat="52.715848"><ele>278.828400</ele><time>2022-01-15T13:08:14Z</time><extensions><speed>0.032561</speed><course>297.911682</course><hAcc>1.793137</hAcc><vAcc>0.767831</vAcc></extensions></trkpt>
      <trkpt lon="-3.020666" lat="52.715848"><ele>278.838287</ele><time>2022-01-15T13:08:15Z</time><extensions><speed>0.041266</speed><course>305.185547</course><hAcc>1.787777</hAcc><vAcc>0.769015</vAcc></extensions></trkpt>
      <trkpt lon="-3.020666" lat="52.715848"><ele>278.840393</ele><time>2022-01-15T13:08:16Z</time><extensions><speed>0.050009</speed><course>318.044067</course><hAcc>1.783553</hAcc><vAcc>0.770181</vAcc></extensions></trkpt>
      <trkpt lon="-3.020667" lat="52.715849"><ele>278.845703</ele><time>2022-01-15T13:08:17Z</time><extensions><speed>0.058922</speed><course>330.260498</course><hAcc>1.776133</hAcc><vAcc>0.771276</vAcc></extensions></trkpt>
      <trkpt lon="-3.020667" lat="52.715849"><ele>278.849365</ele><time>2022-01-15T13:08:18Z</time><extensions><speed>0.060625</speed><course>341.765381</course><hAcc>1.767302</hAcc><vAcc>0.772337</vAcc></extensions></trkpt>
      <trkpt lon="-3.020667" lat="52.715850"><ele>278.849182</ele><time>2022-01-15T13:08:19Z</time><extensions><speed>0.053733</speed><course>358.893646</course><hAcc>1.763865</hAcc><vAcc>0.773275</vAcc></extensions></trkpt>
      <trkpt lon="-3.020667" lat="52.715850"><ele>278.838928</ele><time>2022-01-15T13:08:20Z</time><extensions><speed>0.056084</speed><course>20.825413</course><hAcc>1.758680</hAcc><vAcc>0.774049</vAcc></extensions></trkpt>
      <trkpt lon="-3.020666" lat="52.715851"><ele>278.836334</ele><time>2022-01-15T13:08:21Z</time><extensions><speed>0.065952</speed><course>40.288322</course><hAcc>1.762943</hAcc><vAcc>0.774646</vAcc></extensions></trkpt>
      <trkpt lon="-3.020665" lat="52.715851"><ele>278.831055</ele><time>2022-01-15T13:08:22Z</time><extensions><speed>0.089049</speed><course>54.179420</course><hAcc>1.765077</hAcc><vAcc>0.774996</vAcc></extensions></trkpt>
      <trkpt lon="-3.020664" lat="52.715852"><ele>278.818085</ele><time>2022-01-15T13:08:23Z</time><extensions><speed>0.111071</speed><course>65.797546</course><hAcc>1.773965</hAcc><vAcc>0.775145</vAcc></extensions></trkpt>
      <trkpt lon="-3.020662" lat="52.715852"><ele>278.804474</ele><time>2022-01-15T13:08:24Z</time><extensions><speed>0.161353</speed><course>74.821327</course><hAcc>1.765835</hAcc><vAcc>0.775089</vAcc></extensions></trkpt>
      <trkpt lon="-3.020659" lat="52.715852"><ele>278.793304</ele><time>2022-01-15T13:08:25Z</time><extensions><speed>0.206304</speed><course>79.523430</course><hAcc>1.772182</hAcc><vAcc>0.774855</vAcc></extensions></trkpt>
      <trkpt lon="-3.020656" lat="52.715853"><ele>278.777496</ele><time>2022-01-15T13:08:26Z</time><extensions><speed>0.253667</speed><course>81.320618</course><hAcc>1.783234</hAcc><vAcc>0.774565</vAcc></extensions></trkpt>
      <trkpt lon="-3.020652" lat="52.715853"><ele>278.744232</ele><time>2022-01-15T13:08:27Z</time><extensions><speed>0.288376</speed><course>80.483704</course><hAcc>1.794220</hAcc><vAcc>0.774277</vAcc></extensions></trkpt>
      <trkpt lon="-3.020648" lat="52.715854"><ele>278.730286</ele><time>2022-01-15T13:08:28Z</time><extensions><speed>0.309740</speed><course>76.432083</course><hAcc>1.801314</hAcc><vAcc>0.773935</vAcc></extensions></trkpt>
      <trkpt lon="-3.020643" lat="52.715854"><ele>278.717865</ele><time>2022-01-15T13:08:29Z</time><extensions><speed>0.313705</speed><course>69.415565</course><hAcc>1.806074</hAcc><vAcc>0.773641</vAcc></extensions></trkpt>
      <trkpt lon="-3.020639" lat="52.715856"><ele>278.707397</ele><time>2022-01-15T13:08:30Z</time><extensions><speed>0.301180</speed><course>61.860508</course><hAcc>1.808811</hAcc><vAcc>0.773445</vAcc></extensions></trkpt>
      <trkpt lon="-3.020635" lat="52.715857"><ele>278.699219</ele><time>2022-01-15T13:08:31Z</time><extensions><speed>0.278469</speed><course>56.299587</course><hAcc>1.806684</hAcc><vAcc>0.773405</vAcc></extensions></trkpt>
      <trkpt lon="-3.020632" lat="52.715858"><ele>278.690704</ele><time>2022-01-15T13:08:32Z</time><extensions><speed>0.244443</speed><course>52.870319</course><hAcc>1.803038</hAcc><vAcc>0.773537</vAcc></extensions></trkpt>
      <trkpt lon="-3.020630" lat="52.715859"><ele>278.679047</ele><time>2022-01-15T13:08:33Z</time><extensions><speed>0.205029</speed><course>52.543301</course><hAcc>1.800389</hAcc><vAcc>0.773873</vAcc></extensions></trkpt>
      <trkpt lon="-3.020627" lat="52.715860"><ele>278.667267</ele><time>2022-01-15T13:08:34Z</time><extensions><speed>0.168128</speed><course>55.831787</course><hAcc>1.793504</hAcc><vAcc>0.774495</vAcc></extensions></trkpt>
      <trkpt lon="-3.020625" lat="52.715861"><ele>278.655579</ele><time>2022-01-15T13:08:35Z</time><extensions><speed>0.140490</speed><course>62.461445</course><hAcc>1.778249</hAcc><vAcc>0.775369</vAcc></extensions></trkpt>
      <trkpt lon="-3.020624" lat="52.715862"><ele>278.642853</ele><time>2022-01-15T13:08:36Z</time><extensions><speed>0.115314</speed><course>69.967346</course><hAcc>1.764642</hAcc><vAcc>0.776407</vAcc></extensions></trkpt>
      <trkpt lon="-3.020622" lat="52.715862"><ele>278.630463</ele><time>2022-01-15T13:08:37Z</time><extensions><speed>0.093291</speed><course>75.010635</course><hAcc>1.755291</hAcc><vAcc>0.777526</vAcc></extensions></trkpt>
      <trkpt lon="-3.020621" lat="52.715862"><ele>278.618256</ele><time>2022-01-15T13:08:38Z</time><extensions><speed>0.070403</speed><course>81.343948</course><hAcc>1.756947</hAcc><vAcc>0.778655</vAcc></extensions></trkpt>
      <trkpt lon="-3.020620" lat="52.715862"><ele>278.605774</ele><time>2022-01-15T13:08:39Z</time><extensions><speed>0.059790</speed><course>94.317223</course><hAcc>1.757011</hAcc><vAcc>0.779738</vAcc></extensions></trkpt>
      <trkpt lon="-3.020619" lat="52.715862"><ele>278.594574</ele><time>2022-01-15T13:08:40Z</time><extensions><speed>0.064864</speed><course>109.493614</course><hAcc>1.756934</hAcc><vAcc>0.780732</vAcc></extensions></trkpt>
      <trkpt lon="-3.020618" lat="52.715862"><ele>278.582764</ele><time>2022-01-15T13:08:41Z</time><extensions><speed>0.076013</speed><course>120.741676</course><hAcc>1.764838</hAcc><vAcc>0.781633</vAcc></extensions></trkpt>
      <trkpt lon="-3.020617" lat="52.715861"><ele>278.568085</ele><time>2022-01-15T13:08:42Z</time><extensions><speed>0.107367</speed><course>126.502228</course><hAcc>1.749762</hAcc><vAcc>0.782535</vAcc></extensions></trkpt>
      <trkpt lon="-3.020616" lat="52.715861"><ele>278.555481</ele><time>2022-01-15T13:08:43Z</time><extensions><speed>0.123321</speed><course>129.546097</course><hAcc>1.748102</hAcc><vAcc>0.783376</vAcc></extensions></trkpt>
      <trkpt lon="-3.020614" lat="52.715860"><ele>278.546814</ele><time>2022-01-15T13:08:44Z</time><extensions><speed>0.122686</speed><course>131.263779</course><hAcc>1.759673</hAcc><vAcc>0.784124</vAcc></extensions></trkpt>
      <trkpt lon="-3.020613" lat="52.715859"><ele>278.541504</ele><time>2022-01-15T13:08:45Z</time><extensions><speed>0.113236</speed><course>131.465073</course><hAcc>1.768796</hAcc><vAcc>0.784896</vAcc></extensions></trkpt>
      <trkpt lon="-3.020612" lat="52.715858"><ele>278.523773</ele><time>2022-01-15T13:08:46Z</time><extensions><speed>0.101791</speed><course>130.594742</course><hAcc>1.769359</hAcc><vAcc>0.785663</vAcc></extensions></trkpt>
      <trkpt lon="-3.020611" lat="52.715858"><ele>278.512634</ele><time>2022-01-15T13:08:47Z</time><extensions><speed>0.095759</speed><course>129.753082</course><hAcc>1.764897</hAcc><vAcc>0.786387</vAcc></extensions></trkpt>
      <trkpt lon="-3.020609" lat="52.715857"><ele>278.509552</ele><time>2022-01-15T13:08:48Z</time><extensions><speed>0.092555</speed><course>129.625336</course><hAcc>1.765840</hAcc><vAcc>0.787106</vAcc></extensions></trkpt>
      <trkpt lon="-3.020608" lat="52.715857"><ele>278.503876</ele><time>2022-01-15T13:08:49Z</time><extensions><speed>0.091475</speed><course>130.581070</course><hAcc>1.772409</hAcc><vAcc>0.787818</vAcc></extensions></trkpt>
      <trkpt lon="-3.020608" lat="52.715856"><ele>278.490692</ele><time>2022-01-15T13:08:50Z</time><extensions><speed>0.080716</speed><course>134.245758</course><hAcc>1.781025</hAcc><vAcc>0.788574</vAcc></extensions></trkpt>
      <trkpt lon="-3.020607" lat="52.715856"><ele>278.483917</ele><time>2022-01-15T13:08:51Z</time><extensions><speed>0.075033</speed><course>142.445480</course><hAcc>1.768431</hAcc><vAcc>0.789347</vAcc></extensions></trkpt>
      <trkpt lon="-3.020606" lat="52.715855"><ele>278.476105</ele><time>2022-01-15T13:08:52Z</time><extensions><speed>0.060208</speed><course>156.114777</course><hAcc>1.765739</hAcc><vAcc>0.789884</vAcc></extensions></trkpt>
      <trkpt lon="-3.020606" lat="52.715855"><ele>278.468506</ele><time>2022-01-15T13:08:53Z</time><extensions><speed>0.040619</speed><course>182.338989</course><hAcc>1.773370</hAcc><vAcc>0.789942</vAcc></extensions></trkpt>
      <trkpt lon="-3.020606" lat="52.715855"><ele>278.460938</ele><time>2022-01-15T13:08:54Z</time><extensions><speed>0.037631</speed><course>229.318558</course><hAcc>1.779163</hAcc><vAcc>0.789369</vAcc></extensions></trkpt>
      <trkpt lon="-3.020607" lat="52.715854"><ele>278.478271</ele><time>2022-01-15T13:08:55Z</time><extensions><speed>0.055872</speed><course>252.457855</course><hAcc>1.775859</hAcc><vAcc>0.787714</vAcc></extensions></trkpt>
      <trkpt lon="-3.020608" lat="52.715854"><ele>278.477570</ele><time>2022-01-15T13:08:56Z</time><extensions><speed>0.076946</speed><course>255.608139</course><hAcc>1.765324</hAcc><vAcc>0.785528</vAcc></extensions></trkpt>
      <trkpt lon="-3.020609" lat="52.715854"><ele>278.463531</ele><time>2022-01-15T13:08:57Z</time><extensions><speed>0.093962</speed><course>255.210907</course><hAcc>1.757394</hAcc><vAcc>0.782916</vAcc></extensions></trkpt>
      <trkpt lon="-3.020611" lat="52.715854"><ele>278.436493</ele><time>2022-01-15T13:08:58Z</time><extensions><speed>0.104252</speed><course>257.177399</course><hAcc>1.754872</hAcc><vAcc>0.779639</vAcc></extensions></trkpt>
      <trkpt lon="-3.020612" lat="52.715854"><ele>278.432983</ele><time>2022-01-15T13:08:59Z</time><extensions><speed>0.099885</speed><course>261.260529</course><hAcc>1.761586</hAcc><vAcc>0.775673</vAcc></extensions></trkpt>
      <trkpt lon="-3.020614" lat="52.715854"><ele>278.433502</ele><time>2022-01-15T13:09:00Z</time><extensions><speed>0.099763</speed><course>266.237579</course><hAcc>1.750331</hAcc><vAcc>0.771131</vAcc></extensions></trkpt>
      <trkpt lon="-3.020616" lat="52.715853"><ele>278.437622</ele><time>2022-01-15T13:09:01Z</time><extensions><speed>0.105987</speed><course>271.667480</course><hAcc>1.732984</hAcc><vAcc>0.766149</vAcc></extensions></trkpt>
      <trkpt lon="-3.020617" lat="52.715853"><ele>278.444672</ele><time>2022-01-15T13:09:02Z</time><extensions><speed>0.092892</speed><course>277.875153</course><hAcc>1.752529</hAcc><vAcc>0.760981</vAcc></extensions></trkpt>
      <trkpt lon="-3.020618" lat="52.715854"><ele>278.455048</ele><time>2022-01-15T13:09:02Z</time><extensions><speed>0.084935</speed><course>281.123077</course><hAcc>1.783860</hAcc><vAcc>0.755907</vAcc></extensions></trkpt>
      <trkpt lon="-3.020620" lat="52.715854"><ele>278.465271</ele><time>2022-01-15T13:09:03Z</time><extensions><speed>0.101879</speed><course>277.802460</course><hAcc>1.794721</hAcc><vAcc>0.751234</vAcc></extensions></trkpt>
      <trkpt lon="-3.020622" lat="52.715854"><ele>278.434204</ele><time>2022-01-15T13:09:05Z</time><extensions><speed>0.162927</speed><course>268.248047</course><hAcc>1.778407</hAcc><vAcc>0.747309</vAcc></extensions></trkpt>
      <trkpt lon="-3.020625" lat="52.715853"><ele>278.374817</ele><time>2022-01-15T13:09:06Z</time><extensions><speed>0.225400</speed><course>258.927765</course><hAcc>1.775478</hAcc><vAcc>0.744354</vAcc></extensions></trkpt>
      <trkpt lon="-3.020628" lat="52.715853"><ele>278.301361</ele><time>2022-01-15T13:09:07Z</time><extensions><speed>0.277812</speed><course>251.257980</course><hAcc>1.775915</hAcc><vAcc>0.742339</vAcc></extensions></trkpt>
      <trkpt lon="-3.020632" lat="52.715852"><ele>278.215485</ele><time>2022-01-15T13:09:08Z</time><extensions><speed>0.314100</speed><course>243.334351</course><hAcc>1.761663</hAcc><vAcc>0.741135</vAcc></extensions></trkpt>
      <trkpt lon="-3.020636" lat="52.715850"><ele>278.116669</ele><time>2022-01-15T13:09:09Z</time><extensions><speed>0.326272</speed><course>235.376083</course><hAcc>1.735656</hAcc><vAcc>0.740464</vAcc></extensions></trkpt>
      <trkpt lon="-3.020640" lat="52.715849"><ele>278.046356</ele><time>2022-01-15T13:09:10Z</time><extensions><speed>0.334235</speed><course>229.250031</course><hAcc>1.722380</hAcc><vAcc>0.740125</vAcc></extensions></trkpt>
      <trkpt lon="-3.020643" lat="52.715847"><ele>277.979034</ele><time>2022-01-15T13:09:10Z</time><extensions><speed>0.131166</speed><course>221.434525</course><hAcc>1.752833</hAcc><vAcc>0.739986</vAcc></extensions></trkpt>
      <trkpt lon="-3.020644" lat="52.715846"><ele>277.908295</ele><time>2022-01-15T13:09:11Z</time><extensions><speed>0.085549</speed><course>209.254501</course><hAcc>1.737320</hAcc><vAcc>0.739897</vAcc></extensions></trkpt>
      <trkpt lon="-3.020644" lat="52.715846"><ele>277.843964</ele><time>2022-01-15T13:09:12Z</time><extensions><speed>0.058998</speed><course>201.842438</course><hAcc>1.734414</hAcc><vAcc>0.739859</vAcc></extensions></trkpt>
      <trkpt lon="-3.020645" lat="52.715845"><ele>277.794617</ele><time>2022-01-15T13:09:13Z</time><extensions><speed>0.070958</speed><course>202.694916</course><hAcc>1.699837</hAcc><vAcc>0.739840</vAcc></extensions></trkpt>
      <trkpt lon="-3.020646" lat="52.715844"><ele>277.737152</ele><time>2022-01-15T13:09:15Z</time><extensions><speed>0.094505</speed><course>204.746811</course><hAcc>1.656660</hAcc><vAcc>0.739835</vAcc></extensions></trkpt>
      <trkpt lon="-3.020646" lat="52.715843"><ele>277.700714</ele><time>2022-01-15T13:09:16Z</time><extensions><speed>0.097374</speed><course>209.188324</course><hAcc>1.675589</hAcc><vAcc>0.739874</vAcc></extensions></trkpt>
      <trkpt lon="-3.020647" lat="52.715843"><ele>277.692230</ele><time>2022-01-15T13:09:17Z</time><extensions><speed>0.082646</speed><course>218.785629</course><hAcc>1.739791</hAcc><vAcc>0.739970</vAcc></extensions></trkpt>
      <trkpt lon="-3.020648" lat="52.715842"><ele>277.693481</ele><time>2022-01-15T13:09:18Z</time><extensions><speed>0.101777</speed><course>229.270676</course><hAcc>1.768900</hAcc><vAcc>0.740155</vAcc></extensions></trkpt>
      <trkpt lon="-3.020650" lat="52.715841"><ele>277.712158</ele><time>2022-01-15T13:09:19Z</time><extensions><speed>0.210469</speed><course>235.444824</course><hAcc>1.747096</hAcc><vAcc>0.740368</vAcc></extensions></trkpt>
      <trkpt lon="-3.020654" lat="52.715840"><ele>277.763947</ele><time>2022-01-15T13:09:20Z</time><extensions><speed>0.358176</speed><course>239.413391</course><hAcc>1.732669</hAcc><vAcc>0.740643</vAcc></extensions></trkpt>
      <trkpt lon="-3.020659" lat="52.715838"><ele>277.821686</ele><time>2022-01-15T13:09:21Z</time><extensions><speed>0.493976</speed><course>243.007477</course><hAcc>1.749773</hAcc><vAcc>0.740953</vAcc></extensions></trkpt>
      <trkpt lon="-3.020667" lat="52.715836"><ele>277.901550</ele><time>2022-01-15T13:09:22Z</time><extensions><speed>0.607919</speed><course>245.485687</course><hAcc>1.781971</hAcc><vAcc>0.741340</vAcc></extensions></trkpt>
      <trkpt lon="-3.020676" lat="52.715834"><ele>277.981476</ele><time>2022-01-15T13:09:23Z</time><extensions><speed>0.736216</speed><course>246.764511</course><hAcc>1.804833</hAcc><vAcc>0.741817</vAcc></extensions></trkpt>
      <trkpt lon="-3.020687" lat="52.715831"><ele>278.081665</ele><time>2022-01-15T13:09:24Z</time><extensions><speed>0.901437</speed><course>247.709122</course><hAcc>1.815901</hAcc><vAcc>0.742304</vAcc></extensions></trkpt>
      <trkpt lon="-3.020701" lat="52.715827"><ele>278.174500</ele><time>2022-01-15T13:09:25Z</time><extensions><speed>1.160801</speed><course>248.220871</course><hAcc>1.822414</hAcc><vAcc>0.742773</vAcc></extensions></trkpt>
      <trkpt lon="-3.020718" lat="52.715823"><ele>278.240692</ele><time>2022-01-15T13:09:26Z</time><extensions><speed>1.275611</speed><course>249.137833</course><hAcc>1.829216</hAcc><vAcc>0.743143</vAcc></extensions></trkpt>
      <trkpt lon="-3.020736" lat="52.715819"><ele>278.296173</ele><time>2022-01-15T13:09:27Z</time><extensions><speed>1.310951</speed><course>250.462891</course><hAcc>1.836691</hAcc><vAcc>0.743441</vAcc></extensions></trkpt>
      <trkpt lon="-3.020754" lat="52.715815"><ele>278.339996</ele><time>2022-01-15T13:09:28Z</time><extensions><speed>1.297519</speed><course>252.268539</course><hAcc>1.832230</hAcc><vAcc>0.743589</vAcc></extensions></trkpt>
      <trkpt lon="-3.020772" lat="52.715812"><ele>278.368896</ele><time>2022-01-15T13:09:29Z</time><extensions><speed>1.254725</speed><course>253.252045</course><hAcc>1.828577</hAcc><vAcc>0.743588</vAcc></extensions></trkpt>
      <trkpt lon="-3.020790" lat="52.715809"><ele>278.416779</ele><time>2022-01-15T13:09:30Z</time><extensions><speed>1.208782</speed><course>253.376816</course><hAcc>1.829679</hAcc><vAcc>0.743472</vAcc></extensions></trkpt>
      <trkpt lon="-3.020807" lat="52.715806"><ele>278.434143</ele><time>2022-01-15T13:09:31Z</time><extensions><speed>1.174074</speed><course>252.052536</course><hAcc>1.829130</hAcc><vAcc>0.743257</vAcc></extensions></trkpt>
      <trkpt lon="-3.020823" lat="52.715802"><ele>278.460876</ele><time>2022-01-15T13:09:32Z</time><extensions><speed>1.138171</speed><course>249.861862</course><hAcc>1.830455</hAcc><vAcc>0.742943</vAcc></extensions></trkpt>
      <trkpt lon="-3.020838" lat="52.715798"><ele>278.487305</ele><time>2022-01-15T13:09:33Z</time><extensions><speed>1.109589</speed><course>245.671494</course><hAcc>1.827413</hAcc><vAcc>0.742623</vAcc></extensions></trkpt>
      <trkpt lon="-3.020853" lat="52.715794"><ele>278.519714</ele><time>2022-01-15T13:09:34Z</time><extensions><speed>1.085176</speed><course>241.550293</course><hAcc>1.825383</hAcc><vAcc>0.742287</vAcc></extensions></trkpt>
      <trkpt lon="-3.020867" lat="52.715789"><ele>278.524841</ele><time>2022-01-15T13:09:35Z</time><extensions><speed>1.117926</speed><course>240.792038</course><hAcc>1.829007</hAcc><vAcc>0.741993</vAcc></extensions></trkpt>
      <trkpt lon="-3.020882" lat="52.715784"><ele>278.532623</ele><time>2022-01-15T13:09:36Z</time><extensions><speed>1.177628</speed><course>242.141022</course><hAcc>1.827965</hAcc><vAcc>0.741784</vAcc></extensions></trkpt>
      <trkpt lon="-3.020898" lat="52.715779"><ele>278.547211</ele><time>2022-01-15T13:09:37Z</time><extensions><speed>1.220082</speed><course>243.820633</course><hAcc>1.827750</hAcc><vAcc>0.741737</vAcc></extensions></trkpt>
      <trkpt lon="-3.020914" lat="52.715775"><ele>278.574890</ele><time>2022-01-15T13:09:38Z</time><extensions><speed>1.253832</speed><course>244.234344</course><hAcc>1.827343</hAcc><vAcc>0.741836</vAcc></extensions></trkpt>
      <trkpt lon="-3.020931" lat="52.715769"><ele>278.610870</ele><time>2022-01-15T13:09:39Z</time><extensions><speed>1.274995</speed><course>242.675385</course><hAcc>1.826645</hAcc><vAcc>0.742119</vAcc></extensions></trkpt>
      <trkpt lon="-3.020948" lat="52.715764"><ele>278.670685</ele><time>2022-01-15T13:09:40Z</time><extensions><speed>1.318439</speed><course>239.617874</course><hAcc>1.829686</hAcc><vAcc>0.742648</vAcc></extensions></trkpt>
      <trkpt lon="-3.020965" lat="52.715757"><ele>278.731049</ele><time>2022-01-15T13:09:41Z</time><extensions><speed>1.356476</speed><course>236.903427</course><hAcc>1.833392</hAcc><vAcc>0.743418</vAcc></extensions></trkpt>
      <trkpt lon="-3.020981" lat="52.715750"><ele>278.793304</ele><time>2022-01-15T13:09:42Z</time><extensions><speed>1.390840</speed><course>234.358902</course><hAcc>1.828659</hAcc><vAcc>0.744442</vAcc></extensions></trkpt>
      <trkpt lon="-3.020998" lat="52.715743"><ele>278.872925</ele><time>2022-01-15T13:09:43Z</time><extensions><speed>1.397373</speed><course>233.554688</course><hAcc>1.822776</hAcc><vAcc>0.745711</vAcc></extensions></trkpt>
      <trkpt lon="-3.021015" lat="52.715736"><ele>278.933990</ele><time>2022-01-15T13:09:44Z</time><extensions><speed>1.396887</speed><course>233.975845</course><hAcc>1.820009</hAcc><vAcc>0.747171</vAcc></extensions></trkpt>
      <trkpt lon="-3.021031" lat="52.715728"><ele>279.019867</ele><time>2022-01-15T13:09:45Z</time><extensions><speed>1.384979</speed><course>234.020081</course><hAcc>1.821368</hAcc><vAcc>0.748714</vAcc></extensions></trkpt>
      <trkpt lon="-3.021048" lat="52.715721"><ele>279.101990</ele><time>2022-01-15T13:09:46Z</time><extensions><speed>1.385802</speed><course>234.969437</course><hAcc>1.818138</hAcc><vAcc>0.750227</vAcc></extensions></trkpt>
      <trkpt lon="-3.021065" lat="52.715714"><ele>279.185577</ele><time>2022-01-15T13:09:47Z</time><extensions><speed>1.383787</speed><course>235.200806</course><hAcc>1.811913</hAcc><vAcc>0.751641</vAcc></extensions></trkpt>
      <trkpt lon="-3.021082" lat="52.715707"><ele>279.285095</ele><time>2022-01-15T13:09:48Z</time><extensions><speed>1.376995</speed><course>235.542358</course><hAcc>1.806349</hAcc><vAcc>0.752956</vAcc></extensions></trkpt>
      <trkpt lon="-3.021098" lat="52.715700"><ele>279.384766</ele><time>2022-01-15T13:09:49Z</time><extensions><speed>1.343753</speed><course>237.373459</course><hAcc>1.804494</hAcc><vAcc>0.754192</vAcc></extensions></trkpt>
      <trkpt lon="-3.021115" lat="52.715694"><ele>279.484467</ele><time>2022-01-15T13:09:50Z</time><extensions><speed>1.333962</speed><course>239.932526</course><hAcc>1.804060</hAcc><vAcc>0.755279</vAcc></extensions></trkpt>
      <trkpt lon="-3.021133" lat="52.715688"><ele>279.583801</ele><time>2022-01-15T13:09:51Z</time><extensions><speed>1.314366</speed><course>242.939697</course><hAcc>1.804079</hAcc><vAcc>0.756304</vAcc></extensions></trkpt>
      <trkpt lon="-3.021150" lat="52.715683"><ele>279.662689</ele><time>2022-01-15T13:09:52Z</time><extensions><speed>1.289301</speed><course>244.522369</course><hAcc>1.803123</hAcc><vAcc>0.757293</vAcc></extensions></trkpt>
      <trkpt lon="-3.021167" lat="52.715678"><ele>279.749207</ele><time>2022-01-15T13:09:53Z</time><extensions><speed>1.303833</speed><course>246.225113</course><hAcc>1.793698</hAcc><vAcc>0.758218</vAcc></extensions></trkpt>
      <trkpt lon="-3.021185" lat="52.715674"><ele>279.843109</ele><time>2022-01-15T13:09:54Z</time><extensions><speed>1.316742</speed><course>247.653183</course><hAcc>1.783137</hAcc><vAcc>0.759122</vAcc></extensions></trkpt>
      <trkpt lon="-3.021204" lat="52.715669"><ele>279.926422</ele><time>2022-01-15T13:09:55Z</time><extensions><speed>1.346646</speed><course>247.960693</course><hAcc>1.771955</hAcc><vAcc>0.760031</vAcc></extensions></trkpt>
      <trkpt lon="-3.021222" lat="52.715664"><ele>280.005585</ele><time>2022-01-15T13:09:56Z</time><extensions><speed>1.415161</speed><course>248.244400</course><hAcc>1.756125</hAcc><vAcc>0.760961</vAcc></extensions></trkpt>
      <trkpt lon="-3.021242" lat="52.715660"><ele>280.091736</ele><time>2022-01-15T13:09:57Z</time><extensions><speed>1.493628</speed><course>247.356750</course><hAcc>1.768491</hAcc><vAcc>0.761893</vAcc></extensions></trkpt>
      <trkpt lon="-3.021263" lat="52.715654"><ele>280.189789</ele><time>2022-01-15T13:09:58Z</time><extensions><speed>1.503046</speed><course>245.640381</course><hAcc>1.803535</hAcc><vAcc>0.762872</vAcc></extensions></trkpt>
      <trkpt lon="-3.021283" lat="52.715649"><ele>280.294281</ele><time>2022-01-15T13:09:59Z</time><extensions><speed>1.437878</speed><course>246.366165</course><hAcc>1.775451</hAcc><vAcc>0.763870</vAcc></extensions></trkpt>
      <trkpt lon="-3.021302" lat="52.715644"><ele>280.402374</ele><time>2022-01-15T13:10:00Z</time><extensions><speed>1.341444</speed><course>248.157272</course><hAcc>1.749625</hAcc><vAcc>0.764893</vAcc></extensions></trkpt>
      <trkpt lon="-3.021320" lat="52.715640"><ele>280.510254</ele><time>2022-01-15T13:10:01Z</time><extensions><speed>1.302566</speed><course>249.668762</course><hAcc>1.748533</hAcc><vAcc>0.765892</vAcc></extensions></trkpt>
      <trkpt lon="-3.021338" lat="52.715636"><ele>280.621063</ele><time>2022-01-15T13:10:02Z</time><extensions><speed>1.289251</speed><course>251.328918</course><hAcc>1.753918</hAcc><vAcc>0.766909</vAcc></extensions></trkpt>
      <trkpt lon="-3.021356" lat="52.715632"><ele>280.738861</ele><time>2022-01-15T13:10:03Z</time><extensions><speed>1.294490</speed><course>251.742950</course><hAcc>1.751461</hAcc><vAcc>0.767930</vAcc></extensions></trkpt>
      <trkpt lon="-3.021374" lat="52.715628"><ele>280.857880</ele><time>2022-01-15T13:10:04Z</time><extensions><speed>1.278573</speed><course>252.591278</course><hAcc>1.757854</hAcc><vAcc>0.768944</vAcc></extensions></trkpt>
      <trkpt lon="-3.021392" lat="52.715625"><ele>280.995880</ele><time>2022-01-15T13:10:05Z</time><extensions><speed>1.223095</speed><course>253.879669</course><hAcc>1.770289</hAcc><vAcc>0.769947</vAcc></extensions></trkpt>
      <trkpt lon="-3.021410" lat="52.715622"><ele>281.137665</ele><time>2022-01-15T13:10:06Z</time><extensions><speed>1.329566</speed><course>252.167328</course><hAcc>1.757102</hAcc><vAcc>0.770949</vAcc></extensions></trkpt>
      <trkpt lon="-3.021429" lat="52.715618"><ele>281.277130</ele><time>2022-01-15T13:10:07Z</time><extensions><speed>1.410936</speed><course>250.637360</course><hAcc>1.738087</hAcc><vAcc>0.771995</vAcc></extensions></trkpt>
      <trkpt lon="-3.021449" lat="52.715614"><ele>281.411560</ele><time>2022-01-15T13:10:08Z</time><extensions><speed>1.442474</speed><course>249.902817</course><hAcc>1.727313</hAcc><vAcc>0.773079</vAcc></extensions></trkpt>
      <trkpt lon="-3.021469" lat="52.715609"><ele>281.539398</ele><time>2022-01-15T13:10:09Z</time><extensions><speed>1.445206</speed><course>249.716629</course><hAcc>1.723170</hAcc><vAcc>0.774209</vAcc></extensions></trkpt>
      <trkpt lon="-3.021489" lat="52.715605"><ele>281.674225</ele><time>2022-01-15T13:10:10Z</time><extensions><speed>1.438290</speed><course>250.109756</course><hAcc>1.743683</hAcc><vAcc>0.775370</vAcc></extensions></trkpt>
      <trkpt lon="-3.021509" lat="52.715600"><ele>281.799286</ele><time>2022-01-15T13:10:11Z</time><extensions><speed>1.400882</speed><course>249.851013</course><hAcc>1.751422</hAcc><vAcc>0.776565</vAcc></extensions></trkpt>
      <trkpt lon="-3.021528" lat="52.715596"><ele>281.941223</ele><time>2022-01-15T13:10:12Z</time><extensions><speed>1.347458</speed><course>249.721603</course><hAcc>1.753397</hAcc><vAcc>0.777804</vAcc></extensions></trkpt>
      <trkpt lon="-3.021547" lat="52.715592"><ele>282.082947</ele><time>2022-01-15T13:10:13Z</time><extensions><speed>1.320838</speed><course>250.818741</course><hAcc>1.739939</hAcc><vAcc>0.779063</vAcc></extensions></trkpt>
      <trkpt lon="-3.021565" lat="52.715588"><ele>282.225006</ele><time>2022-01-15T13:10:14Z</time><extensions><speed>1.312112</speed><course>252.981094</course><hAcc>1.739854</hAcc><vAcc>0.780294</vAcc></extensions></trkpt>
      <trkpt lon="-3.021584" lat="52.715585"><ele>282.347198</ele><time>2022-01-15T13:10:15Z</time><extensions><speed>1.326497</speed><course>255.365738</course><hAcc>1.748791</hAcc><vAcc>0.781496</vAcc></extensions></trkpt>
      <trkpt lon="-3.021603" lat="52.715582"><ele>282.473145</ele><time>2022-01-15T13:10:16Z</time><extensions><speed>1.347975</speed><course>258.395569</course><hAcc>1.755935</hAcc><vAcc>0.782666</vAcc></extensions></trkpt>
      <trkpt lon="-3.021623" lat="52.715580"><ele>282.583008</ele><time>2022-01-15T13:10:17Z</time><extensions><speed>1.350432</speed><course>262.026306</course><hAcc>1.755065</hAcc><vAcc>0.783794</vAcc></extensions></trkpt>
      <trkpt lon="-3.021643" lat="52.715579"><ele>282.708405</ele><time>2022-01-15T13:10:18Z</time><extensions><speed>1.363512</speed><course>265.369690</course><hAcc>1.753802</hAcc><vAcc>0.784916</vAcc></extensions></trkpt>
      <trkpt lon="-3.021663" lat="52.715578"><ele>282.809296</ele><time>2022-01-15T13:10:19Z</time><extensions><speed>1.369090</speed><course>267.548248</course><hAcc>1.754164</hAcc><vAcc>0.786014</vAcc></extensions></trkpt>
      <trkpt lon="-3.021684" lat="52.715578"><ele>282.898651</ele><time>2022-01-15T13:10:20Z</time><extensions><speed>1.384537</speed><course>268.446472</course><hAcc>1.756588</hAcc><vAcc>0.787067</vAcc></extensions></trkpt>
      <trkpt lon="-3.021704" lat="52.715578"><ele>282.990082</ele><time>2022-01-15T13:10:21Z</time><extensions><speed>1.385332</speed><course>269.806946</course><hAcc>1.749670</hAcc><vAcc>0.788035</vAcc></extensions></trkpt>
      <trkpt lon="-3.021725" lat="52.715578"><ele>283.089355</ele><time>2022-01-15T13:10:22Z</time><extensions><speed>1.351955</speed><course>271.355652</course><hAcc>1.733702</hAcc><vAcc>0.788872</vAcc></extensions></trkpt>
      <trkpt lon="-3.021744" lat="52.715578"><ele>283.191040</ele><time>2022-01-15T13:10:23Z</time><extensions><speed>1.323744</speed><course>271.353729</course><hAcc>1.739889</hAcc><vAcc>0.789603</vAcc></extensions></trkpt>
      <trkpt lon="-3.021764" lat="52.715578"><ele>283.294800</ele><time>2022-01-15T13:10:24Z</time><extensions><speed>1.333192</speed><course>269.439056</course><hAcc>1.757635</hAcc><vAcc>0.790237</vAcc></extensions></trkpt>
      <trkpt lon="-3.021784" lat="52.715578"><ele>283.406403</ele><time>2022-01-15T13:10:25Z</time><extensions><speed>1.381701</speed><course>267.603485</course><hAcc>1.748067</hAcc><vAcc>0.790795</vAcc></extensions></trkpt>
      <trkpt lon="-3.021805" lat="52.715577"><ele>283.506256</ele><time>2022-01-15T13:10:26Z</time><extensions><speed>1.432367</speed><course>266.376648</course><hAcc>1.741778</hAcc><vAcc>0.791276</vAcc></extensions></trkpt>
      <trkpt lon="-3.021826" lat="52.715576"><ele>283.600922</ele><time>2022-01-15T13:10:27Z</time><extensions><speed>1.443750</speed><course>266.229584</course><hAcc>1.721224</hAcc><vAcc>0.791736</vAcc></extensions></trkpt>
      <trkpt lon="-3.021847" lat="52.715575"><ele>283.713684</ele><time>2022-01-15T13:10:28Z</time><extensions><speed>1.416663</speed><course>266.417419</course><hAcc>1.697614</hAcc><vAcc>0.792134</vAcc></extensions></trkpt>
      <trkpt lon="-3.021868" lat="52.715574"><ele>283.823944</ele><time>2022-01-15T13:10:29Z</time><extensions><speed>1.459457</speed><course>264.854736</course><hAcc>1.657220</hAcc><vAcc>0.792487</vAcc></extensions></trkpt>
      <trkpt lon="-3.021890" lat="52.715572"><ele>283.958435</ele><time>2022-01-15T13:10:30Z</time><extensions><speed>1.545904</speed><course>261.716827</course><hAcc>1.608035</hAcc><vAcc>0.792793</vAcc></extensions></trkpt>
      <trkpt lon="-3.021913" lat="52.715570"><ele>284.118408</ele><time>2022-01-15T13:10:31Z</time><extensions><speed>1.609221</speed><course>259.120239</course><hAcc>1.580517</hAcc><vAcc>0.793040</vAcc></extensions></trkpt>
      <trkpt lon="-3.021936" lat="52.715567"><ele>284.249481</ele><time>2022-01-15T13:10:32Z</time><extensions><speed>1.639010</speed><course>256.095337</course><hAcc>1.566540</hAcc><vAcc>0.793301</vAcc></extensions></trkpt>
      <trkpt lon="-3.021959" lat="52.715563"><ele>284.397247</ele><time>2022-01-15T13:10:33Z</time><extensions><speed>1.645915</speed><course>253.264725</course><hAcc>1.534640</hAcc><vAcc>0.793573</vAcc></extensions></trkpt>
      <trkpt lon="-3.021982" lat="52.715558"><ele>284.534454</ele><time>2022-01-15T13:10:34Z</time><extensions><speed>1.643377</speed><course>249.718796</course><hAcc>1.498960</hAcc><vAcc>0.793851</vAcc></extensions></trkpt>
      <trkpt lon="-3.022005" lat="52.715553"><ele>284.693146</ele><time>2022-01-15T13:10:35Z</time><extensions><speed>1.640586</speed><course>247.518860</course><hAcc>1.471821</hAcc><vAcc>0.794112</vAcc></extensions></trkpt>
      <trkpt lon="-3.022027" lat="52.715547"><ele>284.845398</ele><time>2022-01-15T13:10:36Z</time><extensions><speed>1.648326</speed><course>246.474915</course><hAcc>1.458523</hAcc><vAcc>0.794397</vAcc></extensions></trkpt>
      <trkpt lon="-3.022048" lat="52.715541"><ele>284.988892</ele><time>2022-01-15T13:10:37Z</time><extensions><speed>1.612847</speed><course>243.397675</course><hAcc>1.445044</hAcc><vAcc>0.794688</vAcc></extensions></trkpt>
      <trkpt lon="-3.022069" lat="52.715534"><ele>285.122955</ele><time>2022-01-15T13:10:38Z</time><extensions><speed>1.605489</speed><course>235.991776</course><hAcc>1.439157</hAcc><vAcc>0.794935</vAcc></extensions></trkpt>
      <trkpt lon="-3.022087" lat="52.715525"><ele>285.263000</ele><time>2022-01-15T13:10:39Z</time><extensions><speed>1.616285</speed><course>229.834839</course><hAcc>1.442521</hAcc><vAcc>0.795139</vAcc></extensions></trkpt>
      <trkpt lon="-3.022105" lat="52.715516"><ele>285.394684</ele><time>2022-01-15T13:10:40Z</time><extensions><speed>1.558159</speed><course>227.118607</course><hAcc>1.440274</hAcc><vAcc>0.795317</vAcc></extensions></trkpt>
      <trkpt lon="-3.022121" lat="52.715507"><ele>285.530579</ele><time>2022-01-15T13:10:41Z</time><extensions><speed>1.502135</speed><course>231.558594</course><hAcc>1.445863</hAcc><vAcc>0.795437</vAcc></extensions></trkpt>
      <trkpt lon="-3.022139" lat="52.715499"><ele>285.662415</ele><time>2022-01-15T13:10:42Z</time><extensions><speed>1.530808</speed><course>236.797806</course><hAcc>1.443720</hAcc><vAcc>0.795536</vAcc></extensions></trkpt>
      <trkpt lon="-3.022158" lat="52.715492"><ele>285.765076</ele><time>2022-01-15T13:10:43Z</time><extensions><speed>1.523685</speed><course>238.283554</course><hAcc>1.451257</hAcc><vAcc>0.795586</vAcc></extensions></trkpt>
      <trkpt lon="-3.022177" lat="52.715484"><ele>285.868286</ele><time>2022-01-15T13:10:44Z</time><extensions><speed>1.556557</speed><course>237.220306</course><hAcc>1.481824</hAcc><vAcc>0.795589</vAcc></extensions></trkpt>
      <trkpt lon="-3.022196" lat="52.715477"><ele>285.970490</ele><time>2022-01-15T13:10:45Z</time><extensions><speed>1.510442</speed><course>236.097763</course><hAcc>1.494721</hAcc><vAcc>0.795534</vAcc></extensions></trkpt>
      <trkpt lon="-3.022214" lat="52.715469"><ele>286.071716</ele><time>2022-01-15T13:10:46Z</time><extensions><speed>1.429474</speed><course>233.269852</course><hAcc>1.486194</hAcc><vAcc>0.795409</vAcc></extensions></trkpt>
      <trkpt lon="-3.022231" lat="52.715462"><ele>286.173126</ele><time>2022-01-15T13:10:47Z</time><extensions><speed>1.444793</speed><course>234.531448</course><hAcc>1.511258</hAcc><vAcc>0.795220</vAcc></extensions></trkpt>
      <trkpt lon="-3.022249" lat="52.715454"><ele>286.265076</ele><time>2022-01-15T13:10:48Z</time><extensions><speed>1.521341</speed><course>235.510315</course><hAcc>1.551974</hAcc><vAcc>0.794956</vAcc></extensions></trkpt>
      <trkpt lon="-3.022266" lat="52.715447"><ele>286.347717</ele><time>2022-01-15T13:10:49Z</time><extensions><speed>1.363336</speed><course>237.236206</course><hAcc>1.550794</hAcc><vAcc>0.794582</vAcc></extensions></trkpt>
      <trkpt lon="-3.022283" lat="52.715441"><ele>286.440063</ele><time>2022-01-15T13:10:50Z</time><extensions><speed>1.244801</speed><course>239.896729</course><hAcc>1.577336</hAcc><vAcc>0.794135</vAcc></extensions></trkpt>
      <trkpt lon="-3.022298" lat="52.715436"><ele>286.539917</ele><time>2022-01-15T13:10:51Z</time><extensions><speed>1.132153</speed><course>242.954880</course><hAcc>1.597766</hAcc><vAcc>0.793580</vAcc></extensions></trkpt>
      <trkpt lon="-3.022312" lat="52.715432"><ele>286.613739</ele><time>2022-01-15T13:10:52Z</time><extensions><speed>0.929920</speed><course>246.882172</course><hAcc>1.615438</hAcc><vAcc>0.792873</vAcc></extensions></trkpt>
      <trkpt lon="-3.022324" lat="52.715430"><ele>286.671661</ele><time>2022-01-15T13:10:53Z</time><extensions><speed>0.848099</speed><course>252.957123</course><hAcc>1.623085</hAcc><vAcc>0.792132</vAcc></extensions></trkpt>
      <trkpt lon="-3.022336" lat="52.715428"><ele>286.758972</ele><time>2022-01-15T13:10:54Z</time><extensions><speed>0.837120</speed><course>256.728027</course><hAcc>1.641143</hAcc><vAcc>0.791273</vAcc></extensions></trkpt>
      <trkpt lon="-3.022349" lat="52.715426"><ele>286.853027</ele><time>2022-01-15T13:10:55Z</time><extensions><speed>0.865168</speed><course>256.919952</course><hAcc>1.662319</hAcc><vAcc>0.790362</vAcc></extensions></trkpt>
      <trkpt lon="-3.022362" lat="52.715424"><ele>286.935547</ele><time>2022-01-15T13:10:56Z</time><extensions><speed>0.916462</speed><course>256.888336</course><hAcc>1.683252</hAcc><vAcc>0.789367</vAcc></extensions></trkpt>
      <trkpt lon="-3.022375" lat="52.715422"><ele>287.032501</ele><time>2022-01-15T13:10:57Z</time><extensions><speed>0.944562</speed><course>258.503113</course><hAcc>1.706683</hAcc><vAcc>0.788312</vAcc></extensions></trkpt>
      <trkpt lon="-3.022389" lat="52.715421"><ele>287.135803</ele><time>2022-01-15T13:10:58Z</time><extensions><speed>0.921062</speed><course>261.779663</course><hAcc>1.712448</hAcc><vAcc>0.787220</vAcc></extensions></trkpt>
      <trkpt lon="-3.022402" lat="52.715420"><ele>287.207458</ele><time>2022-01-15T13:10:59Z</time><extensions><speed>0.905519</speed><course>266.810883</course><hAcc>1.690012</hAcc><vAcc>0.786109</vAcc></extensions></trkpt>
      <trkpt lon="-3.022415" lat="52.715420"><ele>287.312042</ele><time>2022-01-15T13:11:00Z</time><extensions><speed>0.911672</speed><course>268.690186</course><hAcc>1.687162</hAcc><vAcc>0.784971</vAcc></extensions></trkpt>
      <trkpt lon="-3.022429" lat="52.715420"><ele>287.419739</ele><time>2022-01-15T13:11:01Z</time><extensions><speed>0.915347</speed><course>268.377228</course><hAcc>1.694327</hAcc><vAcc>0.783829</vAcc></extensions></trkpt>
      <trkpt lon="-3.022442" lat="52.715419"><ele>287.515686</ele><time>2022-01-15T13:11:02Z</time><extensions><speed>0.900544</speed><course>267.273071</course><hAcc>1.698956</hAcc><vAcc>0.782691</vAcc></extensions></trkpt>
      <trkpt lon="-3.022456" lat="52.715419"><ele>287.632294</ele><time>2022-01-15T13:11:03Z</time><extensions><speed>0.920238</speed><course>263.581055</course><hAcc>1.711022</hAcc><vAcc>0.781527</vAcc></extensions></trkpt>
      <trkpt lon="-3.022469" lat="52.715418"><ele>287.747467</ele><time>2022-01-15T13:11:04Z</time><extensions><speed>0.910476</speed><course>263.557770</course><hAcc>1.686737</hAcc><vAcc>0.780344</vAcc></extensions></trkpt>
      <trkpt lon="-3.022482" lat="52.715417"><ele>287.865234</ele><time>2022-01-15T13:11:05Z</time><extensions><speed>0.896906</speed><course>262.685577</course><hAcc>1.694421</hAcc><vAcc>0.779154</vAcc></extensions></trkpt>
      <trkpt lon="-3.022495" lat="52.715416"><ele>287.980621</ele><time>2022-01-15T13:11:06Z</time><extensions><speed>0.850746</speed><course>263.063293</course><hAcc>1.705682</hAcc><vAcc>0.777977</vAcc></extensions></trkpt>
      <trkpt lon="-3.022508" lat="52.715415"><ele>288.107147</ele><time>2022-01-15T13:11:07Z</time><extensions><speed>0.856400</speed><course>263.161743</course><hAcc>1.696843</hAcc><vAcc>0.776837</vAcc></extensions></trkpt>
      <trkpt lon="-3.022520" lat="52.715414"><ele>288.237061</ele><time>2022-01-15T13:11:08Z</time><extensions><speed>0.880024</speed><course>260.444275</course><hAcc>1.700013</hAcc><vAcc>0.775712</vAcc></extensions></trkpt>
      <trkpt lon="-3.022532" lat="52.715412"><ele>288.355316</ele><time>2022-01-15T13:11:09Z</time><extensions><speed>0.791120</speed><course>256.205170</course><hAcc>1.692744</hAcc><vAcc>0.774606</vAcc></extensions></trkpt>
      <trkpt lon="-3.022544" lat="52.715411"><ele>288.472778</ele><time>2022-01-15T13:11:10Z</time><extensions><speed>0.775927</speed><course>254.202896</course><hAcc>1.687675</hAcc><vAcc>0.773508</vAcc></extensions></trkpt>
      <trkpt lon="-3.022555" lat="52.715409"><ele>288.581268</ele><time>2022-01-15T13:11:11Z</time><extensions><speed>0.806663</speed><course>254.427643</course><hAcc>1.706505</hAcc><vAcc>0.772479</vAcc></extensions></trkpt>
      <trkpt lon="-3.022567" lat="52.715407"><ele>288.709198</ele><time>2022-01-15T13:11:12Z</time><extensions><speed>0.840475</speed><course>255.084320</course><hAcc>1.736887</hAcc><vAcc>0.771520</vAcc></extensions></trkpt>
      <trkpt lon="-3.022579" lat="52.715405"><ele>288.840210</ele><time>2022-01-15T13:11:13Z</time><extensions><speed>0.848310</speed><course>254.205139</course><hAcc>1.751410</hAcc><vAcc>0.770654</vAcc></extensions></trkpt>
      <trkpt lon="-3.022591" lat="52.715403"><ele>288.959778</ele><time>2022-01-15T13:11:14Z</time><extensions><speed>0.854567</speed><course>252.626450</course><hAcc>1.730029</hAcc><vAcc>0.769843</vAcc></extensions></trkpt>
      <trkpt lon="-3.022603" lat="52.715400"><ele>289.072235</ele><time>2022-01-15T13:11:15Z</time><extensions><speed>0.870023</speed><course>251.533752</course><hAcc>1.725416</hAcc><vAcc>0.769096</vAcc></extensions></trkpt>
      <trkpt lon="-3.022615" lat="52.715398"><ele>289.178528</ele><time>2022-01-15T13:11:16Z</time><extensions><speed>0.882166</speed><course>249.667694</course><hAcc>1.736844</hAcc><vAcc>0.768455</vAcc></extensions></trkpt>
      <trkpt lon="-3.022628" lat="52.715395"><ele>289.292358</ele><time>2022-01-15T13:11:17Z</time><extensions><speed>0.899979</speed><course>248.513290</course><hAcc>1.753856</hAcc><vAcc>0.767880</vAcc></extensions></trkpt>
      <trkpt lon="-3.022640" lat="52.715392"><ele>289.386871</ele><time>2022-01-15T13:11:18Z</time><extensions><speed>0.958217</speed><course>248.720612</course><hAcc>1.760779</hAcc><vAcc>0.767329</vAcc></extensions></trkpt>
      <trkpt lon="-3.022654" lat="52.715389"><ele>289.468262</ele><time>2022-01-15T13:11:19Z</time><extensions><speed>1.005630</speed><course>250.108170</course><hAcc>1.744447</hAcc><vAcc>0.766859</vAcc></extensions></trkpt>
      <trkpt lon="-3.022668" lat="52.715386"><ele>289.579865</ele><time>2022-01-15T13:11:20Z</time><extensions><speed>1.009468</speed><course>250.707367</course><hAcc>1.733951</hAcc><vAcc>0.766436</vAcc></extensions></trkpt>
      <trkpt lon="-3.022682" lat="52.715383"><ele>289.693970</ele><time>2022-01-15T13:11:21Z</time><extensions><speed>0.993072</speed><course>250.437241</course><hAcc>1.732937</hAcc><vAcc>0.766085</vAcc></extensions></trkpt>
      <trkpt lon="-3.022696" lat="52.715379"><ele>289.806152</ele><time>2022-01-15T13:11:22Z</time><extensions><speed>0.977033</speed><course>249.995911</course><hAcc>1.745169</hAcc><vAcc>0.765792</vAcc></extensions></trkpt>
      <trkpt lon="-3.022709" lat="52.715376"><ele>289.933716</ele><time>2022-01-15T13:11:23Z</time><extensions><speed>0.955614</speed><course>248.749374</course><hAcc>1.757773</hAcc><vAcc>0.765567</vAcc></extensions></trkpt>
      <trkpt lon="-3.022722" lat="52.715373"><ele>290.052704</ele><time>2022-01-15T13:11:24Z</time><extensions><speed>0.927016</speed><course>250.725876</course><hAcc>1.724889</hAcc><vAcc>0.765402</vAcc></extensions></trkpt>
      <trkpt lon="-3.022735" lat="52.715371"><ele>290.160736</ele><time>2022-01-15T13:11:25Z</time><extensions><speed>0.929644</speed><course>252.900192</course><hAcc>1.717035</hAcc><vAcc>0.765365</vAcc></extensions></trkpt>
      <trkpt lon="-3.022749" lat="52.715368"><ele>290.279327</ele><time>2022-01-15T13:11:26Z</time><extensions><speed>0.960151</speed><course>253.555542</course><hAcc>1.739766</hAcc><vAcc>0.765437</vAcc></extensions></trkpt>
      <trkpt lon="-3.022763" lat="52.715366"><ele>290.414551</ele><time>2022-01-15T13:11:27Z</time><extensions><speed>1.080271</speed><course>253.340118</course><hAcc>1.741212</hAcc><vAcc>0.765596</vAcc></extensions></trkpt>
      <trkpt lon="-3.022778" lat="52.715362"><ele>290.558838</ele><time>2022-01-15T13:11:28Z</time><extensions><speed>1.068735</speed><course>248.731277</course><hAcc>1.718169</hAcc><vAcc>0.765785</vAcc></extensions></trkpt>
      <trkpt lon="-3.022793" lat="52.715359"><ele>290.727356</ele><time>2022-01-15T13:11:29Z</time><extensions><speed>1.079811</speed><course>245.204926</course><hAcc>1.721619</hAcc><vAcc>0.765984</vAcc></extensions></trkpt>
      <trkpt lon="-3.022807" lat="52.715354"><ele>290.871460</ele><time>2022-01-15T13:11:30Z</time><extensions><speed>1.081302</speed><course>242.200836</course><hAcc>1.738418</hAcc><vAcc>0.766156</vAcc></extensions></trkpt>
      <trkpt lon="-3.022821" lat="52.715350"><ele>291.033325</ele><time>2022-01-15T13:11:31Z</time><extensions><speed>1.051488</speed><course>240.456787</course><hAcc>1.748276</hAcc><vAcc>0.766286</vAcc></extensions></trkpt>
      <trkpt lon="-3.022834" lat="52.715345"><ele>291.192932</ele><time>2022-01-15T13:11:32Z</time><extensions><speed>1.015465</speed><course>238.937256</course><hAcc>1.732587</hAcc><vAcc>0.766389</vAcc></extensions></trkpt>
      <trkpt lon="-3.022847" lat="52.715340"><ele>291.381561</ele><time>2022-01-15T13:11:33Z</time><extensions><speed>1.004420</speed><course>237.650299</course><hAcc>1.718707</hAcc><vAcc>0.766450</vAcc></extensions></trkpt>
      <trkpt lon="-3.022860" lat="52.715335"><ele>291.570465</ele><time>2022-01-15T13:11:34Z</time><extensions><speed>1.003503</speed><course>238.194626</course><hAcc>1.723735</hAcc><vAcc>0.766469</vAcc></extensions></trkpt>
      <trkpt lon="-3.022872" lat="52.715331"><ele>291.772339</ele><time>2022-01-15T13:11:35Z</time><extensions><speed>1.002741</speed><course>241.284363</course><hAcc>1.750628</hAcc><vAcc>0.766417</vAcc></extensions></trkpt>
      <trkpt lon="-3.022886" lat="52.715327"><ele>291.970276</ele><time>2022-01-15T13:11:36Z</time><extensions><speed>1.033585</speed><course>243.798157</course><hAcc>1.754528</hAcc><vAcc>0.766298</vAcc></extensions></trkpt>
      <trkpt lon="-3.022900" lat="52.715323"><ele>292.159882</ele><time>2022-01-15T13:11:37Z</time><extensions><speed>1.045146</speed><course>244.690536</course><hAcc>1.735718</hAcc><vAcc>0.766070</vAcc></extensions></trkpt>
      <trkpt lon="-3.022914" lat="52.715319"><ele>292.355621</ele><time>2022-01-15T13:11:38Z</time><extensions><speed>1.066935</speed><course>244.834122</course><hAcc>1.729014</hAcc><vAcc>0.765783</vAcc></extensions></trkpt>
      <trkpt lon="-3.022928" lat="52.715314"><ele>292.561707</ele><time>2022-01-15T13:11:39Z</time><extensions><speed>1.095123</speed><course>244.334305</course><hAcc>1.738449</hAcc><vAcc>0.765443</vAcc></extensions></trkpt>
      <trkpt lon="-3.022943" lat="52.715310"><ele>292.762207</ele><time>2022-01-15T13:11:40Z</time><extensions><speed>1.103863</speed><course>243.554703</course><hAcc>1.748429</hAcc><vAcc>0.765059</vAcc></extensions></trkpt>
      <trkpt lon="-3.022957" lat="52.715306"><ele>292.971161</ele><time>2022-01-15T13:11:41Z</time><extensions><speed>1.104793</speed><course>243.261124</course><hAcc>1.744666</hAcc><vAcc>0.764633</vAcc></extensions></trkpt>
      <trkpt lon="-3.022972" lat="52.715301"><ele>293.168274</ele><time>2022-01-15T13:11:42Z</time><extensions><speed>1.078726</speed><course>243.058823</course><hAcc>1.744026</hAcc><vAcc>0.764158</vAcc></extensions></trkpt>
      <trkpt lon="-3.022985" lat="52.715297"><ele>293.367859</ele><time>2022-01-15T13:11:43Z</time><extensions><speed>1.001004</speed><course>242.864502</course><hAcc>1.734679</hAcc><vAcc>0.763701</vAcc></extensions></trkpt>
      <trkpt lon="-3.022998" lat="52.715293"><ele>293.565277</ele><time>2022-01-15T13:11:44Z</time><extensions><speed>0.929825</speed><course>244.042740</course><hAcc>1.731881</hAcc><vAcc>0.763319</vAcc></extensions></trkpt>
      <trkpt lon="-3.023011" lat="52.715289"><ele>293.747070</ele><time>2022-01-15T13:11:45Z</time><extensions><speed>0.924154</speed><course>245.201981</course><hAcc>1.738215</hAcc><vAcc>0.762983</vAcc></extensions></trkpt>
      <trkpt lon="-3.023023" lat="52.715286"><ele>293.924438</ele><time>2022-01-15T13:11:46Z</time><extensions><speed>0.935698</speed><course>245.940292</course><hAcc>1.742051</hAcc><vAcc>0.762753</vAcc></extensions></trkpt>
      <trkpt lon="-3.023036" lat="52.715283"><ele>294.070801</ele><time>2022-01-15T13:11:47Z</time><extensions><speed>0.929721</speed><course>247.201172</course><hAcc>1.713009</hAcc><vAcc>0.762647</vAcc></extensions></trkpt>
      <trkpt lon="-3.023049" lat="52.715280"><ele>294.240417</ele><time>2022-01-15T13:11:48Z</time><extensions><speed>0.939293</speed><course>248.375702</course><hAcc>1.711616</hAcc><vAcc>0.762634</vAcc></extensions></trkpt>
      <trkpt lon="-3.023062" lat="52.715276"><ele>294.390656</ele><time>2022-01-15T13:11:49Z</time><extensions><speed>0.974631</speed><course>249.139252</course><hAcc>1.740947</hAcc><vAcc>0.762730</vAcc></extensions></trkpt>
      <trkpt lon="-3.023076" lat="52.715273"><ele>294.520905</ele><time>2022-01-15T13:11:50Z</time><extensions><speed>1.037407</speed><course>249.129776</course><hAcc>1.739149</hAcc><vAcc>0.762912</vAcc></extensions></trkpt>
      <trkpt lon="-3.023090" lat="52.715270"><ele>294.676666</ele><time>2022-01-15T13:11:51Z</time><extensions><speed>1.053875</speed><course>248.094330</course><hAcc>1.742191</hAcc><vAcc>0.763199</vAcc></extensions></trkpt>
      <trkpt lon="-3.023105" lat="52.715266"><ele>294.799011</ele><time>2022-01-15T13:11:52Z</time><extensions><speed>1.043790</speed><course>246.495056</course><hAcc>1.733309</hAcc><vAcc>0.763619</vAcc></extensions></trkpt>
      <trkpt lon="-3.023119" lat="52.715262"><ele>294.912170</ele><time>2022-01-15T13:11:53Z</time><extensions><speed>1.071885</speed><course>245.151917</course><hAcc>1.745117</hAcc><vAcc>0.764178</vAcc></extensions></trkpt>
      <trkpt lon="-3.023133" lat="52.715258"><ele>295.032745</ele><time>2022-01-15T13:11:54Z</time><extensions><speed>1.098935</speed><course>244.683090</course><hAcc>1.759938</hAcc><vAcc>0.764891</vAcc></extensions></trkpt>
      <trkpt lon="-3.023148" lat="52.715254"><ele>295.122345</ele><time>2022-01-15T13:11:55Z</time><extensions><speed>1.113244</speed><course>245.038254</course><hAcc>1.764543</hAcc><vAcc>0.765745</vAcc></extensions></trkpt>
      <trkpt lon="-3.023163" lat="52.715250"><ele>295.227844</ele><time>2022-01-15T13:11:56Z</time><extensions><speed>1.113155</speed><course>245.936508</course><hAcc>1.771036</hAcc><vAcc>0.766700</vAcc></extensions></trkpt>
      <trkpt lon="-3.023178" lat="52.715246"><ele>295.312958</ele><time>2022-01-15T13:11:57Z</time><extensions><speed>1.103895</speed><course>247.017502</course><hAcc>1.773769</hAcc><vAcc>0.767710</vAcc></extensions></trkpt>
      <trkpt lon="-3.023194" lat="52.715242"><ele>295.412323</ele><time>2022-01-15T13:11:58Z</time><extensions><speed>1.148528</speed><course>247.508545</course><hAcc>1.763988</hAcc><vAcc>0.768716</vAcc></extensions></trkpt>
      <trkpt lon="-3.023210" lat="52.715238"><ele>295.497498</ele><time>2022-01-15T13:11:59Z</time><extensions><speed>1.147950</speed><course>248.308167</course><hAcc>1.761513</hAcc><vAcc>0.769686</vAcc></extensions></trkpt>
      <trkpt lon="-3.023225" lat="52.715234"><ele>295.595001</ele><time>2022-01-15T13:12:00Z</time><extensions><speed>1.137985</speed><course>250.158463</course><hAcc>1.759371</hAcc><vAcc>0.770559</vAcc></extensions></trkpt>
      <trkpt lon="-3.023241" lat="52.715231"><ele>295.675354</ele><time>2022-01-15T13:12:01Z</time><extensions><speed>1.145648</speed><course>251.502991</course><hAcc>1.752746</hAcc><vAcc>0.771333</vAcc></extensions></trkpt>
      <trkpt lon="-3.023257" lat="52.715228"><ele>295.760437</ele><time>2022-01-15T13:12:02Z</time><extensions><speed>1.133530</speed><course>252.945908</course><hAcc>1.754850</hAcc><vAcc>0.771933</vAcc></extensions></trkpt>
      <trkpt lon="-3.023273" lat="52.715225"><ele>295.863464</ele><time>2022-01-15T13:12:03Z</time><extensions><speed>1.119972</speed><course>253.336411</course><hAcc>1.762169</hAcc><vAcc>0.772381</vAcc></extensions></trkpt>
      <trkpt lon="-3.023289" lat="52.715222"><ele>295.951660</ele><time>2022-01-15T13:12:04Z</time><extensions><speed>1.169224</speed><course>252.669800</course><hAcc>1.750372</hAcc><vAcc>0.772619</vAcc></extensions></trkpt>
      <trkpt lon="-3.023306" lat="52.715218"><ele>296.049438</ele><time>2022-01-15T13:12:05Z</time><extensions><speed>1.198397</speed><course>249.397415</course><hAcc>1.746002</hAcc><vAcc>0.772676</vAcc></extensions></trkpt>
      <trkpt lon="-3.023322" lat="52.715214"><ele>296.176300</ele><time>2022-01-15T13:12:06Z</time><extensions><speed>1.202247</speed><course>246.916290</course><hAcc>1.755835</hAcc><vAcc>0.772562</vAcc></extensions></trkpt>
      <trkpt lon="-3.023339" lat="52.715210"><ele>296.287292</ele><time>2022-01-15T13:12:07Z</time><extensions><speed>1.254000</speed><course>242.758575</course><hAcc>1.752821</hAcc><vAcc>0.772308</vAcc></extensions></trkpt>
      <trkpt lon="-3.023355" lat="52.715204"><ele>296.390717</ele><time>2022-01-15T13:12:08Z</time><extensions><speed>1.278039</speed><course>238.080551</course><hAcc>1.753078</hAcc><vAcc>0.771983</vAcc></extensions></trkpt>
      <trkpt lon="-3.023371" lat="52.715197"><ele>296.507385</ele><time>2022-01-15T13:12:09Z</time><extensions><speed>1.264380</speed><course>232.978729</course><hAcc>1.752974</hAcc><vAcc>0.771610</vAcc></extensions></trkpt>
      <trkpt lon="-3.023385" lat="52.715190"><ele>296.650848</ele><time>2022-01-15T13:12:10Z</time><extensions><speed>1.270191</speed><course>230.134583</course><hAcc>1.748279</hAcc><vAcc>0.771208</vAcc></extensions></trkpt>
      <trkpt lon="-3.023400" lat="52.715183"><ele>296.808380</ele><time>2022-01-15T13:12:11Z</time><extensions><speed>1.258934</speed><course>230.274414</course><hAcc>1.747032</hAcc><vAcc>0.770888</vAcc></extensions></trkpt>
      <trkpt lon="-3.023414" lat="52.715176"><ele>296.945892</ele><time>2022-01-15T13:12:12Z</time><extensions><speed>1.227063</speed><course>230.768784</course><hAcc>1.749659</hAcc><vAcc>0.770624</vAcc></extensions></trkpt>
      <trkpt lon="-3.023428" lat="52.715169"><ele>297.118683</ele><time>2022-01-15T13:12:13Z</time><extensions><speed>1.223474</speed><course>231.620148</course><hAcc>1.765960</hAcc><vAcc>0.770435</vAcc></extensions></trkpt>
      <trkpt lon="-3.023442" lat="52.715162"><ele>297.286377</ele><time>2022-01-15T13:12:14Z</time><extensions><speed>1.193182</speed><course>232.230545</course><hAcc>1.744473</hAcc><vAcc>0.770366</vAcc></extensions></trkpt>
      <trkpt lon="-3.023456" lat="52.715156"><ele>297.448242</ele><time>2022-01-15T13:12:15Z</time><extensions><speed>1.166479</speed><course>233.054886</course><hAcc>1.729537</hAcc><vAcc>0.770413</vAcc></extensions></trkpt>
      <trkpt lon="-3.023470" lat="52.715150"><ele>297.622437</ele><time>2022-01-15T13:12:16Z</time><extensions><speed>1.130497</speed><course>234.271210</course><hAcc>1.720502</hAcc><vAcc>0.770591</vAcc></extensions></trkpt>
      <trkpt lon="-3.023483" lat="52.715144"><ele>297.820648</ele><time>2022-01-15T13:12:17Z</time><extensions><speed>1.081970</speed><course>235.017883</course><hAcc>1.711402</hAcc><vAcc>0.770860</vAcc></extensions></trkpt>
      <trkpt lon="-3.023496" lat="52.715138"><ele>298.015686</ele><time>2022-01-15T13:12:18Z</time><extensions><speed>1.091486</speed><course>235.709595</course><hAcc>1.712081</hAcc><vAcc>0.771185</vAcc></extensions></trkpt>
      <trkpt lon="-3.023510" lat="52.715133"><ele>298.197723</ele><time>2022-01-15T13:12:19Z</time><extensions><speed>1.126982</speed><course>235.291153</course><hAcc>1.706678</hAcc><vAcc>0.771528</vAcc></extensions></trkpt>
      <trkpt lon="-3.023524" lat="52.715127"><ele>298.413269</ele><time>2022-01-15T13:12:20Z</time><extensions><speed>1.143600</speed><course>233.827515</course><hAcc>1.674316</hAcc><vAcc>0.771864</vAcc></extensions></trkpt>
      <trkpt lon="-3.023537" lat="52.715121"><ele>298.647400</ele><time>2022-01-15T13:12:21Z</time><extensions><speed>1.133842</speed><course>232.138794</course><hAcc>1.677387</hAcc><vAcc>0.772157</vAcc></extensions></trkpt>
      <trkpt lon="-3.023550" lat="52.715114"><ele>298.859833</ele><time>2022-01-15T13:12:22Z</time><extensions><speed>1.146674</speed><course>233.097885</course><hAcc>1.698473</hAcc><vAcc>0.772414</vAcc></extensions></trkpt>
      <trkpt lon="-3.023564" lat="52.715108"><ele>299.058014</ele><time>2022-01-15T13:12:23Z</time><extensions><speed>1.072651</speed><course>234.332138</course><hAcc>1.679821</hAcc><vAcc>0.772624</vAcc></extensions></trkpt>
      <trkpt lon="-3.023576" lat="52.715103"><ele>299.263275</ele><time>2022-01-15T13:12:24Z</time><extensions><speed>1.014919</speed><course>235.717712</course><hAcc>1.677797</hAcc><vAcc>0.772822</vAcc></extensions></trkpt>
      <trkpt lon="-3.023589" lat="52.715098"><ele>299.459015</ele><time>2022-01-15T13:12:25Z</time><extensions><speed>1.011156</speed><course>236.818802</course><hAcc>1.677947</hAcc><vAcc>0.772991</vAcc></extensions></trkpt>
      <trkpt lon="-3.023601" lat="52.715093"><ele>299.642578</ele><time>2022-01-15T13:12:26Z</time><extensions><speed>1.005724</speed><course>237.326141</course><hAcc>1.690748</hAcc><vAcc>0.773102</vAcc></extensions></trkpt>
      <trkpt lon="-3.023614" lat="52.715088"><ele>299.841797</ele><time>2022-01-15T13:12:27Z</time><extensions><speed>1.088206</speed><course>236.235657</course><hAcc>1.694835</hAcc><vAcc>0.773150</vAcc></extensions></trkpt>
      <trkpt lon="-3.023628" lat="52.715082"><ele>300.036072</ele><time>2022-01-15T13:12:28Z</time><extensions><speed>1.133688</speed><course>234.625778</course><hAcc>1.705975</hAcc><vAcc>0.773153</vAcc></extensions></trkpt>
      <trkpt lon="-3.023642" lat="52.715076"><ele>300.231232</ele><time>2022-01-15T13:12:29Z</time><extensions><speed>1.122152</speed><course>233.735321</course><hAcc>1.726935</hAcc><vAcc>0.773142</vAcc></extensions></trkpt>
      <trkpt lon="-3.023654" lat="52.715071"><ele>300.415131</ele><time>2022-01-15T13:12:30Z</time><extensions><speed>1.034615</speed><course>232.688889</course><hAcc>1.728496</hAcc><vAcc>0.773139</vAcc></extensions></trkpt>
      <trkpt lon="-3.023666" lat="52.715065"><ele>300.597137</ele><time>2022-01-15T13:12:31Z</time><extensions><speed>0.948485</speed><course>234.007202</course><hAcc>1.733480</hAcc><vAcc>0.773125</vAcc></extensions></trkpt>
      <trkpt lon="-3.023677" lat="52.715061"><ele>300.752136</ele><time>2022-01-15T13:12:32Z</time><extensions><speed>0.851295</speed><course>239.996857</course><hAcc>1.729569</hAcc><vAcc>0.773132</vAcc></extensions></trkpt>
      <trkpt lon="-3.023689" lat="52.715057"><ele>300.900055</ele><time>2022-01-15T13:12:33Z</time><extensions><speed>0.851823</speed><course>246.287537</course><hAcc>1.732453</hAcc><vAcc>0.773210</vAcc></extensions></trkpt>
      <trkpt lon="-3.023700" lat="52.715055"><ele>301.045502</ele><time>2022-01-15T13:12:34Z</time><extensions><speed>0.886600</speed><course>248.965134</course><hAcc>1.746322</hAcc><vAcc>0.773324</vAcc></extensions></trkpt>
      <trkpt lon="-3.023713" lat="52.715052"><ele>301.190063</ele><time>2022-01-15T13:12:35Z</time><extensions><speed>0.961595</speed><course>249.438187</course><hAcc>1.756371</hAcc><vAcc>0.773512</vAcc></extensions></trkpt>
      <trkpt lon="-3.023727" lat="52.715049"><ele>301.331879</ele><time>2022-01-15T13:12:36Z</time><extensions><speed>1.019635</speed><course>250.183258</course><hAcc>1.746223</hAcc><vAcc>0.773807</vAcc></extensions></trkpt>
      <trkpt lon="-3.023742" lat="52.715045"><ele>301.457275</ele><time>2022-01-15T13:12:37Z</time><extensions><speed>1.070434</speed><course>250.488815</course><hAcc>1.743528</hAcc><vAcc>0.774211</vAcc></extensions></trkpt>
      <trkpt lon="-3.023757" lat="52.715042"><ele>301.615631</ele><time>2022-01-15T13:12:38Z</time><extensions><speed>1.117927</speed><course>251.436737</course><hAcc>1.749038</hAcc><vAcc>0.774741</vAcc></extensions></trkpt>
      <trkpt lon="-3.023773" lat="52.715039"><ele>301.737213</ele><time>2022-01-15T13:12:39Z</time><extensions><speed>1.168697</speed><course>252.628937</course><hAcc>1.753295</hAcc><vAcc>0.775421</vAcc></extensions></trkpt>
      <trkpt lon="-3.023790" lat="52.715036"><ele>301.858093</ele><time>2022-01-15T13:12:40Z</time><extensions><speed>1.167262</speed><course>252.297791</course><hAcc>1.745308</hAcc><vAcc>0.776231</vAcc></extensions></trkpt>
      <trkpt lon="-3.023806" lat="52.715033"><ele>301.993713</ele><time>2022-01-15T13:12:41Z</time><extensions><speed>1.144892</speed><course>251.530273</course><hAcc>1.742490</hAcc><vAcc>0.777182</vAcc></extensions></trkpt>
      <trkpt lon="-3.023822" lat="52.715030"><ele>302.139343</ele><time>2022-01-15T13:12:42Z</time><extensions><speed>1.094614</speed><course>252.505066</course><hAcc>1.748676</hAcc><vAcc>0.778259</vAcc></extensions></trkpt>
      <trkpt lon="-3.023837" lat="52.715027"><ele>302.254425</ele><time>2022-01-15T13:12:43Z</time><extensions><speed>1.019163</speed><course>253.489365</course><hAcc>1.749470</hAcc><vAcc>0.779421</vAcc></extensions></trkpt>
      <trkpt lon="-3.023851" lat="52.715024"><ele>302.386261</ele><time>2022-01-15T13:12:44Z</time><extensions><speed>0.985526</speed><course>253.997162</course><hAcc>1.729708</hAcc><vAcc>0.780626</vAcc></extensions></trkpt>
      <trkpt lon="-3.023865" lat="52.715022"><ele>302.533539</ele><time>2022-01-15T13:12:45Z</time><extensions><speed>0.971110</speed><course>254.592392</course><hAcc>1.723105</hAcc><vAcc>0.781835</vAcc></extensions></trkpt>
      <trkpt lon="-3.023879" lat="52.715020"><ele>302.663574</ele><time>2022-01-15T13:12:46Z</time><extensions><speed>0.997062</speed><course>256.663849</course><hAcc>1.713739</hAcc><vAcc>0.782987</vAcc></extensions></trkpt>
      <trkpt lon="-3.023893" lat="52.715018"><ele>302.829254</ele><time>2022-01-15T13:12:47Z</time><extensions><speed>0.990425</speed><course>257.280060</course><hAcc>1.714124</hAcc><vAcc>0.784055</vAcc></extensions></trkpt>
      <trkpt lon="-3.023908" lat="52.715016"><ele>303.009674</ele><time>2022-01-15T13:12:48Z</time><extensions><speed>0.963791</speed><course>257.518829</course><hAcc>1.727313</hAcc><vAcc>0.785005</vAcc></extensions></trkpt>
      <trkpt lon="-3.023922" lat="52.715014"><ele>303.184967</ele><time>2022-01-15T13:12:49Z</time><extensions><speed>0.963397</speed><course>258.558258</course><hAcc>1.733830</hAcc><vAcc>0.785803</vAcc></extensions></trkpt>
      <trkpt lon="-3.023936" lat="52.715012"><ele>303.358978</ele><time>2022-01-15T13:12:50Z</time><extensions><speed>1.050326</speed><course>258.228149</course><hAcc>1.703919</hAcc><vAcc>0.786457</vAcc></extensions></trkpt>
      <trkpt lon="-3.023952" lat="52.715010"><ele>303.554230</ele><time>2022-01-15T13:12:51Z</time><extensions><speed>1.103516</speed><course>258.263428</course><hAcc>1.704261</hAcc><vAcc>0.786979</vAcc></extensions></trkpt>
      <trkpt lon="-3.023968" lat="52.715008"><ele>303.748566</ele><time>2022-01-15T13:12:52Z</time><extensions><speed>1.133002</speed><course>258.286377</course><hAcc>1.724352</hAcc><vAcc>0.787390</vAcc></extensions></trkpt>
      <trkpt lon="-3.023985" lat="52.715006"><ele>303.918121</ele><time>2022-01-15T13:12:53Z</time><extensions><speed>1.157712</speed><course>258.229736</course><hAcc>1.716206</hAcc><vAcc>0.787730</vAcc></extensions></trkpt>
      <trkpt lon="-3.024001" lat="52.715004"><ele>304.100220</ele><time>2022-01-15T13:12:54Z</time><extensions><speed>1.142268</speed><course>258.039551</course><hAcc>1.716451</hAcc><vAcc>0.788004</vAcc></extensions></trkpt>
      <trkpt lon="-3.024018" lat="52.715002"><ele>304.275604</ele><time>2022-01-15T13:12:55Z</time><extensions><speed>1.133349</speed><course>258.313843</course><hAcc>1.706296</hAcc><vAcc>0.788211</vAcc></extensions></trkpt>
      <trkpt lon="-3.024034" lat="52.715000"><ele>304.466736</ele><time>2022-01-15T13:12:56Z</time><extensions><speed>1.085397</speed><course>259.358276</course><hAcc>1.713391</hAcc><vAcc>0.788345</vAcc></extensions></trkpt>
      <trkpt lon="-3.024049" lat="52.714998"><ele>304.661591</ele><time>2022-01-15T13:12:57Z</time><extensions><speed>0.999918</speed><course>260.461914</course><hAcc>1.734429</hAcc><vAcc>0.788425</vAcc></extensions></trkpt>
      <trkpt lon="-3.024063" lat="52.714997"><ele>304.826233</ele><time>2022-01-15T13:12:58Z</time><extensions><speed>0.972904</speed><course>260.095917</course><hAcc>1.716610</hAcc><vAcc>0.788434</vAcc></extensions></trkpt>
      <trkpt lon="-3.024078" lat="52.714995"><ele>304.979218</ele><time>2022-01-15T13:12:59Z</time><extensions><speed>0.982903</speed><course>259.584351</course><hAcc>1.715575</hAcc><vAcc>0.788436</vAcc></extensions></trkpt>
      <trkpt lon="-3.024092" lat="52.714993"><ele>305.136871</ele><time>2022-01-15T13:13:00Z</time><extensions><speed>1.032333</speed><course>259.699310</course><hAcc>1.718845</hAcc><vAcc>0.788421</vAcc></extensions></trkpt>
      <trkpt lon="-3.024108" lat="52.714992"><ele>305.292877</ele><time>2022-01-15T13:13:01Z</time><extensions><speed>1.056019</speed><course>259.792664</course><hAcc>1.727465</hAcc><vAcc>0.788404</vAcc></extensions></trkpt>
      <trkpt lon="-3.024123" lat="52.714990"><ele>305.428162</ele><time>2022-01-15T13:13:02Z</time><extensions><speed>1.078211</speed><course>259.004242</course><hAcc>1.728983</hAcc><vAcc>0.788384</vAcc></extensions></trkpt>
      <trkpt lon="-3.024139" lat="52.714988"><ele>305.532562</ele><time>2022-01-15T13:13:03Z</time><extensions><speed>1.101576</speed><course>257.338684</course><hAcc>1.736952</hAcc><vAcc>0.788336</vAcc></extensions></trkpt>
      <trkpt lon="-3.024155" lat="52.714985"><ele>305.656616</ele><time>2022-01-15T13:13:04Z</time><extensions><speed>1.180447</speed><course>254.874741</course><hAcc>1.732430</hAcc><vAcc>0.788246</vAcc></extensions></trkpt>
      <trkpt lon="-3.024172" lat="52.714982"><ele>305.757141</ele><time>2022-01-15T13:13:05Z</time><extensions><speed>1.218937</speed><course>251.694138</course><hAcc>1.734230</hAcc><vAcc>0.788116</vAcc></extensions></trkpt>
      <trkpt lon="-3.024189" lat="52.714979"><ele>305.824463</ele><time>2022-01-15T13:13:06Z</time><extensions><speed>1.229214</speed><course>248.945694</course><hAcc>1.734496</hAcc><vAcc>0.787940</vAcc></extensions></trkpt>
      <trkpt lon="-3.024206" lat="52.714975"><ele>305.842804</ele><time>2022-01-15T13:13:07Z</time><extensions><speed>1.237869</speed><course>248.016418</course><hAcc>1.735758</hAcc><vAcc>0.787743</vAcc></extensions></trkpt>
      <trkpt lon="-3.024223" lat="52.714971"><ele>305.861115</ele><time>2022-01-15T13:13:08Z</time><extensions><speed>1.235035</speed><course>248.151428</course><hAcc>1.724105</hAcc><vAcc>0.787536</vAcc></extensions></trkpt>
      <trkpt lon="-3.024241" lat="52.714966"><ele>305.888123</ele><time>2022-01-15T13:13:09Z</time><extensions><speed>1.260862</speed><course>248.885788</course><hAcc>1.726269</hAcc><vAcc>0.787324</vAcc></extensions></trkpt>
      <trkpt lon="-3.024258" lat="52.714963"><ele>305.883179</ele><time>2022-01-15T13:13:10Z</time><extensions><speed>1.274099</speed><course>251.374832</course><hAcc>1.729699</hAcc><vAcc>0.787075</vAcc></extensions></trkpt>
      <trkpt lon="-3.024276" lat="52.714959"><ele>305.858307</ele><time>2022-01-15T13:13:11Z</time><extensions><speed>1.221173</speed><course>256.038422</course><hAcc>1.713682</hAcc><vAcc>0.786812</vAcc></extensions></trkpt>
      <trkpt lon="-3.024293" lat="52.714957"><ele>305.822235</ele><time>2022-01-15T13:13:12Z</time><extensions><speed>1.192452</speed><course>260.460693</course><hAcc>1.713569</hAcc><vAcc>0.786483</vAcc></extensions></trkpt>
      <trkpt lon="-3.024311" lat="52.714956"><ele>305.771515</ele><time>2022-01-15T13:13:13Z</time><extensions><speed>1.261824</speed><course>262.542664</course><hAcc>1.720871</hAcc><vAcc>0.786020</vAcc></extensions></trkpt>
      <trkpt lon="-3.024330" lat="52.714954"><ele>305.685944</ele><time>2022-01-15T13:13:14Z</time><extensions><speed>1.275272</speed><course>262.039581</course><hAcc>1.720277</hAcc><vAcc>0.785483</vAcc></extensions></trkpt>
      <trkpt lon="-3.024349" lat="52.714952"><ele>305.631836</ele><time>2022-01-15T13:13:15Z</time><extensions><speed>1.272648</speed><course>261.019287</course><hAcc>1.733412</hAcc><vAcc>0.784842</vAcc></extensions></trkpt>
      <trkpt lon="-3.024367" lat="52.714950"><ele>305.554230</ele><time>2022-01-15T13:13:16Z</time><extensions><speed>1.261859</speed><course>259.691711</course><hAcc>1.727188</hAcc><vAcc>0.784124</vAcc></extensions></trkpt>
      <trkpt lon="-3.024385" lat="52.714948"><ele>305.471619</ele><time>2022-01-15T13:13:17Z</time><extensions><speed>1.246790</speed><course>257.750366</course><hAcc>1.735765</hAcc><vAcc>0.783322</vAcc></extensions></trkpt>
      <trkpt lon="-3.024403" lat="52.714946"><ele>305.385437</ele><time>2022-01-15T13:13:18Z</time><extensions><speed>1.223902</speed><course>255.240204</course><hAcc>1.744558</hAcc><vAcc>0.782445</vAcc></extensions></trkpt>
      <trkpt lon="-3.024420" lat="52.714943"><ele>305.303955</ele><time>2022-01-15T13:13:19Z</time><extensions><speed>1.151009</speed><course>253.470795</course><hAcc>1.749617</hAcc><vAcc>0.781531</vAcc></extensions></trkpt>
      <trkpt lon="-3.024436" lat="52.714940"><ele>305.213562</ele><time>2022-01-15T13:13:20Z</time><extensions><speed>1.046769</speed><course>252.725159</course><hAcc>1.757045</hAcc><vAcc>0.780639</vAcc></extensions></trkpt>
      <trkpt lon="-3.024450" lat="52.714937"><ele>305.112610</ele><time>2022-01-15T13:13:21Z</time><extensions><speed>0.963749</speed><course>254.332886</course><hAcc>1.778671</hAcc><vAcc>0.779809</vAcc></extensions></trkpt>
      <trkpt lon="-3.024464" lat="52.714935"><ele>304.996399</ele><time>2022-01-15T13:13:22Z</time><extensions><speed>0.968375</speed><course>254.329208</course><hAcc>1.760106</hAcc><vAcc>0.779047</vAcc></extensions></trkpt>
      <trkpt lon="-3.024478" lat="52.714933"><ele>304.900085</ele><time>2022-01-15T13:13:23Z</time><extensions><speed>1.070678</speed><course>255.167252</course><hAcc>1.744629</hAcc><vAcc>0.778423</vAcc></extensions></trkpt>
      <trkpt lon="-3.024494" lat="52.714930"><ele>304.798981</ele><time>2022-01-15T13:13:24Z</time><extensions><speed>1.177879</speed><course>256.729553</course><hAcc>1.746512</hAcc><vAcc>0.777946</vAcc></extensions></trkpt>
      <trkpt lon="-3.024512" lat="52.714928"><ele>304.699677</ele><time>2022-01-15T13:13:25Z</time><extensions><speed>1.251079</speed><course>258.198181</course><hAcc>1.758456</hAcc><vAcc>0.777607</vAcc></extensions></trkpt>
      <trkpt lon="-3.024530" lat="52.714926"><ele>304.598724</ele><time>2022-01-15T13:13:26Z</time><extensions><speed>1.263454</speed><course>260.189697</course><hAcc>1.774752</hAcc><vAcc>0.777471</vAcc></extensions></trkpt>
      <trkpt lon="-3.024549" lat="52.714924"><ele>304.492249</ele><time>2022-01-15T13:13:27Z</time><extensions><speed>1.287786</speed><course>262.011902</course><hAcc>1.776578</hAcc><vAcc>0.777450</vAcc></extensions></trkpt>
      <trkpt lon="-3.024568" lat="52.714922"><ele>304.376984</ele><time>2022-01-15T13:13:28Z</time><extensions><speed>1.316959</speed><course>262.460022</course><hAcc>1.754643</hAcc><vAcc>0.777576</vAcc></extensions></trkpt>
      <trkpt lon="-3.024587" lat="52.714921"><ele>304.249908</ele><time>2022-01-15T13:13:29Z</time><extensions><speed>1.320391</speed><course>262.854858</course><hAcc>1.751231</hAcc><vAcc>0.777814</vAcc></extensions></trkpt>
      <trkpt lon="-3.024606" lat="52.714919"><ele>304.129852</ele><time>2022-01-15T13:13:30Z</time><extensions><speed>1.298949</speed><course>263.864807</course><hAcc>1.763962</hAcc><vAcc>0.778114</vAcc></extensions></trkpt>
      <trkpt lon="-3.024625" lat="52.714918"><ele>304.002045</ele><time>2022-01-15T13:13:31Z</time><extensions><speed>1.272156</speed><course>264.883179</course><hAcc>1.776821</hAcc><vAcc>0.778469</vAcc></extensions></trkpt>
      <trkpt lon="-3.024644" lat="52.714917"><ele>303.867828</ele><time>2022-01-15T13:13:32Z</time><extensions><speed>1.289010</speed><course>264.838379</course><hAcc>1.788844</hAcc><vAcc>0.778850</vAcc></extensions></trkpt>
      <trkpt lon="-3.024663" lat="52.714916"><ele>303.714813</ele><time>2022-01-15T13:13:33Z</time><extensions><speed>1.329674</speed><course>263.485901</course><hAcc>1.799293</hAcc><vAcc>0.779221</vAcc></extensions></trkpt>
      <trkpt lon="-3.024683" lat="52.714915"><ele>303.569397</ele><time>2022-01-15T13:13:34Z</time><extensions><speed>1.319176</speed><course>263.372437</course><hAcc>1.791780</hAcc><vAcc>0.779629</vAcc></extensions></trkpt>
      <trkpt lon="-3.024702" lat="52.714913"><ele>303.429138</ele><time>2022-01-15T13:13:35Z</time><extensions><speed>1.302821</speed><course>264.100983</course><hAcc>1.794070</hAcc><vAcc>0.780020</vAcc></extensions></trkpt>
      <trkpt lon="-3.024721" lat="52.714912"><ele>303.275238</ele><time>2022-01-15T13:13:36Z</time><extensions><speed>1.312638</speed><course>265.350769</course><hAcc>1.802765</hAcc><vAcc>0.780373</vAcc></extensions></trkpt>
      <trkpt lon="-3.024741" lat="52.714912"><ele>303.116669</ele><time>2022-01-15T13:13:37Z</time><extensions><speed>1.338987</speed><course>267.421021</course><hAcc>1.810471</hAcc><vAcc>0.780707</vAcc></extensions></trkpt>
      <trkpt lon="-3.024761" lat="52.714911"><ele>302.948730</ele><time>2022-01-15T13:13:38Z</time><extensions><speed>1.318322</speed><course>269.731964</course><hAcc>1.816125</hAcc><vAcc>0.781031</vAcc></extensions></trkpt>
      <trkpt lon="-3.024780" lat="52.714911"><ele>302.776794</ele><time>2022-01-15T13:13:39Z</time><extensions><speed>1.258689</speed><course>272.066772</course><hAcc>1.815863</hAcc><vAcc>0.781333</vAcc></extensions></trkpt>
      <trkpt lon="-3.024798" lat="52.714912"><ele>302.592926</ele><time>2022-01-15T13:13:40Z</time><extensions><speed>1.194630</speed><course>273.207062</course><hAcc>1.810871</hAcc><vAcc>0.781623</vAcc></extensions></trkpt>
      <trkpt lon="-3.024815" lat="52.714912"><ele>302.409027</ele><time>2022-01-15T13:13:41Z</time><extensions><speed>1.176756</speed><course>272.460876</course><hAcc>1.805955</hAcc><vAcc>0.781904</vAcc></extensions></trkpt>
      <trkpt lon="-3.024833" lat="52.714912"><ele>302.234528</ele><time>2022-01-15T13:13:42Z</time><extensions><speed>1.175829</speed><course>269.611420</course><hAcc>1.797740</hAcc><vAcc>0.782170</vAcc></extensions></trkpt>
      <trkpt lon="-3.024850" lat="52.714912"><ele>302.065826</ele><time>2022-01-15T13:13:43Z</time><extensions><speed>1.154170</speed><course>265.485870</course><hAcc>1.788132</hAcc><vAcc>0.782400</vAcc></extensions></trkpt>
      <trkpt lon="-3.024867" lat="52.714911"><ele>301.883850</ele><time>2022-01-15T13:13:44Z</time><extensions><speed>1.148333</speed><course>258.701294</course><hAcc>1.771278</hAcc><vAcc>0.782544</vAcc></extensions></trkpt>
      <trkpt lon="-3.024883" lat="52.714908"><ele>301.697601</ele><time>2022-01-15T13:13:45Z</time><extensions><speed>1.166591</speed><course>251.835602</course><hAcc>1.749218</hAcc><vAcc>0.782638</vAcc></extensions></trkpt>
      <trkpt lon="-3.024900" lat="52.714904"><ele>301.511841</ele><time>2022-01-15T13:13:46Z</time><extensions><speed>1.201940</speed><course>246.418564</course><hAcc>1.750681</hAcc><vAcc>0.782652</vAcc></extensions></trkpt>
      <trkpt lon="-3.024916" lat="52.714900"><ele>301.326416</ele><time>2022-01-15T13:13:47Z</time><extensions><speed>1.171696</speed><course>243.796844</course><hAcc>1.766729</hAcc><vAcc>0.782564</vAcc></extensions></trkpt>
      <trkpt lon="-3.024932" lat="52.714895"><ele>301.148895</ele><time>2022-01-15T13:13:48Z</time><extensions><speed>1.227867</speed><course>242.271225</course><hAcc>1.739361</hAcc><vAcc>0.782391</vAcc></extensions></trkpt>
      <trkpt lon="-3.024948" lat="52.714889"><ele>300.966187</ele><time>2022-01-15T13:13:49Z</time><extensions><speed>1.318141</speed><course>243.163422</course><hAcc>1.717603</hAcc><vAcc>0.782091</vAcc></extensions></trkpt>
      <trkpt lon="-3.024966" lat="52.714884"><ele>300.786285</ele><time>2022-01-15T13:13:50Z</time><extensions><speed>1.364424</speed><course>243.552826</course><hAcc>1.729955</hAcc><vAcc>0.781650</vAcc></extensions></trkpt>
      <trkpt lon="-3.024984" lat="52.714879"><ele>300.603149</ele><time>2022-01-15T13:13:51Z</time><extensions><speed>1.373480</speed><course>243.743790</course><hAcc>1.751745</hAcc><vAcc>0.781094</vAcc></extensions></trkpt>
      <trkpt lon="-3.025002" lat="52.714873"><ele>300.414154</ele><time>2022-01-15T13:13:52Z</time><extensions><speed>1.257879</speed><course>244.500748</course><hAcc>1.767394</hAcc><vAcc>0.780453</vAcc></extensions></trkpt>
      <trkpt lon="-3.025019" lat="52.714869"><ele>300.228424</ele><time>2022-01-15T13:13:53Z</time><extensions><speed>1.225348</speed><course>245.778595</course><hAcc>1.756235</hAcc><vAcc>0.779775</vAcc></extensions></trkpt>
      <trkpt lon="-3.025035" lat="52.714864"><ele>300.045929</ele><time>2022-01-15T13:13:54Z</time><extensions><speed>1.259876</speed><course>249.296066</course><hAcc>1.756875</hAcc><vAcc>0.779149</vAcc></extensions></trkpt>
      <trkpt lon="-3.025053" lat="52.714861"><ele>299.893127</ele><time>2022-01-15T13:13:55Z</time><extensions><speed>1.315637</speed><course>251.609833</course><hAcc>1.768493</hAcc><vAcc>0.778553</vAcc></extensions></trkpt>
      <trkpt lon="-3.025072" lat="52.714857"><ele>299.729431</ele><time>2022-01-15T13:13:56Z</time><extensions><speed>1.353870</speed><course>252.693268</course><hAcc>1.777259</hAcc><vAcc>0.777991</vAcc></extensions></trkpt>
      <trkpt lon="-3.025091" lat="52.714853"><ele>299.582397</ele><time>2022-01-15T13:13:57Z</time><extensions><speed>1.348217</speed><course>252.905594</course><hAcc>1.785172</hAcc><vAcc>0.777466</vAcc></extensions></trkpt>
      <trkpt lon="-3.025110" lat="52.714850"><ele>299.448273</ele><time>2022-01-15T13:13:58Z</time><extensions><speed>1.315985</speed><course>254.090683</course><hAcc>1.784518</hAcc><vAcc>0.777012</vAcc></extensions></trkpt>
      <trkpt lon="-3.025129" lat="52.714847"><ele>299.309265</ele><time>2022-01-15T13:13:59Z</time><extensions><speed>1.288982</speed><course>256.112030</course><hAcc>1.776310</hAcc><vAcc>0.776614</vAcc></extensions></trkpt>
      <trkpt lon="-3.025147" lat="52.714844"><ele>299.184143</ele><time>2022-01-15T13:14:00Z</time><extensions><speed>1.224317</speed><course>257.384064</course><hAcc>1.770815</hAcc><vAcc>0.776239</vAcc></extensions></trkpt>
      <trkpt lon="-3.025164" lat="52.714842"><ele>299.061249</ele><time>2022-01-15T13:14:01Z</time><extensions><speed>1.110566</speed><course>257.308472</course><hAcc>1.782704</hAcc><vAcc>0.775874</vAcc></extensions></trkpt>
      <trkpt lon="-3.025179" lat="52.714840"><ele>298.959656</ele><time>2022-01-15T13:14:02Z</time><extensions><speed>1.010398</speed><course>257.083008</course><hAcc>1.785037</hAcc><vAcc>0.775529</vAcc></extensions></trkpt>
      <trkpt lon="-3.025193" lat="52.714838"><ele>298.859467</ele><time>2022-01-15T13:14:03Z</time><extensions><speed>0.963004</speed><course>254.691330</course><hAcc>1.771462</hAcc><vAcc>0.775180</vAcc></extensions></trkpt>
      <trkpt lon="-3.025207" lat="52.714835"><ele>298.785522</ele><time>2022-01-15T13:14:04Z</time><extensions><speed>0.979884</speed><course>251.019791</course><hAcc>1.770094</hAcc><vAcc>0.774805</vAcc></extensions></trkpt>
      <trkpt lon="-3.025221" lat="52.714832"><ele>298.735931</ele><time>2022-01-15T13:14:05Z</time><extensions><speed>1.056707</speed><course>249.164352</course><hAcc>1.760425</hAcc><vAcc>0.774398</vAcc></extensions></trkpt>
      <trkpt lon="-3.025236" lat="52.714828"><ele>298.714722</ele><time>2022-01-15T13:14:06Z</time><extensions><speed>1.084093</speed><course>246.951279</course><hAcc>1.750577</hAcc><vAcc>0.773904</vAcc></extensions></trkpt>
      <trkpt lon="-3.025251" lat="52.714824"><ele>298.698822</ele><time>2022-01-15T13:14:07Z</time><extensions><speed>1.108722</speed><course>245.813202</course><hAcc>1.749305</hAcc><vAcc>0.773302</vAcc></extensions></trkpt>
      <trkpt lon="-3.025266" lat="52.714820"><ele>298.695007</ele><time>2022-01-15T13:14:08Z</time><extensions><speed>1.108923</speed><course>245.292282</course><hAcc>1.769002</hAcc><vAcc>0.772559</vAcc></extensions></trkpt>
      <trkpt lon="-3.025280" lat="52.714816"><ele>298.713104</ele><time>2022-01-15T13:14:09Z</time><extensions><speed>1.054759</speed><course>244.874939</course><hAcc>1.781627</hAcc><vAcc>0.771687</vAcc></extensions></trkpt>
      <trkpt lon="-3.025294" lat="52.714812"><ele>298.748413</ele><time>2022-01-15T13:14:10Z</time><extensions><speed>1.043275</speed><course>243.455200</course><hAcc>1.758418</hAcc><vAcc>0.770848</vAcc></extensions></trkpt>
      <trkpt lon="-3.025308" lat="52.714808"><ele>298.810699</ele><time>2022-01-15T13:14:11Z</time><extensions><speed>1.082585</speed><course>243.586548</course><hAcc>1.757161</hAcc><vAcc>0.770019</vAcc></extensions></trkpt>
      <trkpt lon="-3.025323" lat="52.714804"><ele>298.891113</ele><time>2022-01-15T13:14:12Z</time><extensions><speed>1.045141</speed><course>247.570938</course><hAcc>1.753050</hAcc><vAcc>0.769229</vAcc></extensions></trkpt>
      <trkpt lon="-3.025337" lat="52.714800"><ele>298.980316</ele><time>2022-01-15T13:14:13Z</time><extensions><speed>1.067995</speed><course>250.387451</course><hAcc>1.766763</hAcc><vAcc>0.768470</vAcc></extensions></trkpt>
      <trkpt lon="-3.025352" lat="52.714797"><ele>299.080811</ele><time>2022-01-15T13:14:14Z</time><extensions><speed>1.065294</speed><course>252.621063</course><hAcc>1.792127</hAcc><vAcc>0.767766</vAcc></extensions></trkpt>
      <trkpt lon="-3.025367" lat="52.714795"><ele>299.187683</ele><time>2022-01-15T13:14:15Z</time><extensions><speed>1.024127</speed><course>254.388199</course><hAcc>1.793266</hAcc><vAcc>0.767122</vAcc></extensions></trkpt>
      <trkpt lon="-3.025381" lat="52.714792"><ele>299.315552</ele><time>2022-01-15T13:14:16Z</time><extensions><speed>0.948709</speed><course>256.575836</course><hAcc>1.796649</hAcc><vAcc>0.766582</vAcc></extensions></trkpt>
      <trkpt lon="-3.025395" lat="52.714791"><ele>299.466583</ele><time>2022-01-15T13:14:17Z</time><extensions><speed>0.948939</speed><course>259.987671</course><hAcc>1.804010</hAcc><vAcc>0.766196</vAcc></extensions></trkpt>
      <trkpt lon="-3.025410" lat="52.714789"><ele>299.633789</ele><time>2022-01-15T13:14:18Z</time><extensions><speed>1.035472</speed><course>263.739105</course><hAcc>1.809545</hAcc><vAcc>0.766037</vAcc></extensions></trkpt>
      <trkpt lon="-3.025426" lat="52.714789"><ele>299.803375</ele><time>2022-01-15T13:14:19Z</time><extensions><speed>1.178968</speed><course>267.085480</course><hAcc>1.805625</hAcc><vAcc>0.766113</vAcc></extensions></trkpt>
      <trkpt lon="-3.025444" lat="52.714788"><ele>299.964905</ele><time>2022-01-15T13:14:20Z</time><extensions><speed>1.257463</speed><course>268.892914</course><hAcc>1.801519</hAcc><vAcc>0.766439</vAcc></extensions></trkpt>
      <trkpt lon="-3.025462" lat="52.714788"><ele>300.135315</ele><time>2022-01-15T13:14:21Z</time><extensions><speed>1.180690</speed><course>269.503204</course><hAcc>1.808758</hAcc><vAcc>0.767032</vAcc></extensions></trkpt>
      <trkpt lon="-3.025479" lat="52.714788"><ele>300.337250</ele><time>2022-01-15T13:14:22Z</time><extensions><speed>1.074629</speed><course>267.951324</course><hAcc>1.825144</hAcc><vAcc>0.767829</vAcc></extensions></trkpt>
      <trkpt lon="-3.025496" lat="52.714787"><ele>300.544983</ele><time>2022-01-15T13:14:23Z</time><extensions><speed>1.163221</speed><course>264.390167</course><hAcc>1.802810</hAcc><vAcc>0.768788</vAcc></extensions></trkpt>
      <trkpt lon="-3.025513" lat="52.714786"><ele>300.724792</ele><time>2022-01-15T13:14:24Z</time><extensions><speed>1.224666</speed><course>260.912933</course><hAcc>1.790360</hAcc><vAcc>0.769840</vAcc></extensions></trkpt>
      <trkpt lon="-3.025531" lat="52.714784"><ele>300.890808</ele><time>2022-01-15T13:14:25Z</time><extensions><speed>1.247282</speed><course>258.210022</course><hAcc>1.795021</hAcc><vAcc>0.770914</vAcc></extensions></trkpt>
      <trkpt lon="-3.025549" lat="52.714781"><ele>301.063202</ele><time>2022-01-15T13:14:26Z</time><extensions><speed>1.250830</speed><course>256.004028</course><hAcc>1.791256</hAcc><vAcc>0.771964</vAcc></extensions></trkpt>
      <trkpt lon="-3.025567" lat="52.714779"><ele>301.251404</ele><time>2022-01-15T13:14:27Z</time><extensions><speed>1.254373</speed><course>255.743744</course><hAcc>1.782898</hAcc><vAcc>0.772998</vAcc></extensions></trkpt>
      <trkpt lon="-3.025585" lat="52.714776"><ele>301.438141</ele><time>2022-01-15T13:14:28Z</time><extensions><speed>1.265884</speed><course>255.898682</course><hAcc>1.768534</hAcc><vAcc>0.773967</vAcc></extensions></trkpt>
      <trkpt lon="-3.025603" lat="52.714773"><ele>301.623444</ele><time>2022-01-15T13:14:29Z</time><extensions><speed>1.205385</speed><course>256.105469</course><hAcc>1.753206</hAcc><vAcc>0.774866</vAcc></extensions></trkpt>
      <trkpt lon="-3.025620" lat="52.714771"><ele>301.812042</ele><time>2022-01-15T13:14:30Z</time><extensions><speed>1.128610</speed><course>257.229523</course><hAcc>1.758143</hAcc><vAcc>0.775716</vAcc></extensions></trkpt>
      <trkpt lon="-3.025635" lat="52.714768"><ele>302.015594</ele><time>2022-01-15T13:14:31Z</time><extensions><speed>1.042308</speed><course>258.274231</course><hAcc>1.780443</hAcc><vAcc>0.776502</vAcc></extensions></trkpt>
      <trkpt lon="-3.025651" lat="52.714766"><ele>302.228119</ele><time>2022-01-15T13:14:32Z</time><extensions><speed>1.045124</speed><course>258.066162</course><hAcc>1.748082</hAcc><vAcc>0.777225</vAcc></extensions></trkpt>
      <trkpt lon="-3.025665" lat="52.714764"><ele>302.411652</ele><time>2022-01-15T13:14:33Z</time><extensions><speed>1.019504</speed><course>257.209076</course><hAcc>1.737555</hAcc><vAcc>0.777876</vAcc></extensions></trkpt>
      <trkpt lon="-3.025680" lat="52.714762"><ele>302.608246</ele><time>2022-01-15T13:14:34Z</time><extensions><speed>0.957397</speed><course>254.699814</course><hAcc>1.750088</hAcc><vAcc>0.778405</vAcc></extensions></trkpt>
      <trkpt lon="-3.025693" lat="52.714760"><ele>302.798004</ele><time>2022-01-15T13:14:35Z</time><extensions><speed>1.005576</speed><course>249.539246</course><hAcc>1.740070</hAcc><vAcc>0.778827</vAcc></extensions></trkpt>
      <trkpt lon="-3.025708" lat="52.714756"><ele>303.005432</ele><time>2022-01-15T13:14:36Z</time><extensions><speed>1.081079</speed><course>245.547577</course><hAcc>1.734994</hAcc><vAcc>0.779143</vAcc></extensions></trkpt>
      <trkpt lon="-3.025722" lat="52.714751"><ele>303.218506</ele><time>2022-01-15T13:14:37Z</time><extensions><speed>1.160515</speed><course>240.892456</course><hAcc>1.736926</hAcc><vAcc>0.779380</vAcc></extensions></trkpt>
      <trkpt lon="-3.025737" lat="52.714746"><ele>303.445038</ele><time>2022-01-15T13:14:38Z</time><extensions><speed>1.194709</speed><course>236.826355</course><hAcc>1.737342</hAcc><vAcc>0.779548</vAcc></extensions></trkpt>
      <trkpt lon="-3.025752" lat="52.714740"><ele>303.651611</ele><time>2022-01-15T13:14:39Z</time><extensions><speed>1.207880</speed><course>234.042053</course><hAcc>1.744398</hAcc><vAcc>0.779592</vAcc></extensions></trkpt>
      <trkpt lon="-3.025766" lat="52.714733"><ele>303.876770</ele><time>2022-01-15T13:14:40Z</time><extensions><speed>1.189923</speed><course>234.317978</course><hAcc>1.742009</hAcc><vAcc>0.779524</vAcc></extensions></trkpt>
      <trkpt lon="-3.025780" lat="52.714727"><ele>304.109589</ele><time>2022-01-15T13:14:41Z</time><extensions><speed>1.146475</speed><course>233.761734</course><hAcc>1.731183</hAcc><vAcc>0.779402</vAcc></extensions></trkpt>
      <trkpt lon="-3.025794" lat="52.714721"><ele>304.348358</ele><time>2022-01-15T13:14:42Z</time><extensions><speed>1.103453</speed><course>232.725800</course><hAcc>1.723271</hAcc><vAcc>0.779226</vAcc></extensions></trkpt>
      <trkpt lon="-3.025806" lat="52.714715"><ele>304.571899</ele><time>2022-01-15T13:14:43Z</time><extensions><speed>1.039884</speed><course>232.475342</course><hAcc>1.725963</hAcc><vAcc>0.779005</vAcc></extensions></trkpt>
      <trkpt lon="-3.025818" lat="52.714709"><ele>304.790344</ele><time>2022-01-15T13:14:44Z</time><extensions><speed>1.032387</speed><course>229.407501</course><hAcc>1.716312</hAcc><vAcc>0.778670</vAcc></extensions></trkpt>
      <trkpt lon="-3.025830" lat="52.714703"><ele>305.022522</ele><time>2022-01-15T13:14:45Z</time><extensions><speed>1.062058</speed><course>226.427048</course><hAcc>1.728054</hAcc><vAcc>0.778213</vAcc></extensions></trkpt>
      <trkpt lon="-3.025841" lat="52.714697"><ele>305.254120</ele><time>2022-01-15T13:14:46Z</time><extensions><speed>1.087737</speed><course>228.208206</course><hAcc>1.733657</hAcc><vAcc>0.777724</vAcc></extensions></trkpt>
      <trkpt lon="-3.025854" lat="52.714690"><ele>305.486206</ele><time>2022-01-15T13:14:47Z</time><extensions><speed>1.117753</speed><course>230.522003</course><hAcc>1.731260</hAcc><vAcc>0.777219</vAcc></extensions></trkpt>
      <trkpt lon="-3.025866" lat="52.714684"><ele>305.706757</ele><time>2022-01-15T13:14:48Z</time><extensions><speed>1.071184</speed><course>232.333755</course><hAcc>1.747999</hAcc><vAcc>0.776689</vAcc></extensions></trkpt>
      <trkpt lon="-3.025878" lat="52.714678"><ele>305.932678</ele><time>2022-01-15T13:14:49Z</time><extensions><speed>1.032341</speed><course>231.933273</course><hAcc>1.743793</hAcc><vAcc>0.776147</vAcc></extensions></trkpt>
      <trkpt lon="-3.025890" lat="52.714672"><ele>306.166626</ele><time>2022-01-15T13:14:50Z</time><extensions><speed>1.028981</speed><course>231.060608</course><hAcc>1.746143</hAcc><vAcc>0.775652</vAcc></extensions></trkpt>
      <trkpt lon="-3.025902" lat="52.714667"><ele>306.374207</ele><time>2022-01-15T13:14:51Z</time><extensions><speed>1.045337</speed><course>230.689865</course><hAcc>1.754978</hAcc><vAcc>0.775211</vAcc></extensions></trkpt>
      <trkpt lon="-3.025914" lat="52.714661"><ele>306.591003</ele><time>2022-01-15T13:14:52Z</time><extensions><speed>0.979489</speed><course>230.265472</course><hAcc>1.761801</hAcc><vAcc>0.774856</vAcc></extensions></trkpt>
      <trkpt lon="-3.025925" lat="52.714655"><ele>306.799469</ele><time>2022-01-15T13:14:53Z</time><extensions><speed>0.921555</speed><course>231.565414</course><hAcc>1.761347</hAcc><vAcc>0.774584</vAcc></extensions></trkpt>
      <trkpt lon="-3.025935" lat="52.714650"><ele>307.020599</ele><time>2022-01-15T13:14:54Z</time><extensions><speed>0.836311</speed><course>230.846100</course><hAcc>1.754361</hAcc><vAcc>0.774356</vAcc></extensions></trkpt>
      <trkpt lon="-3.025945" lat="52.714646"><ele>307.228699</ele><time>2022-01-15T13:14:55Z</time><extensions><speed>0.831176</speed><course>230.111786</course><hAcc>1.749748</hAcc><vAcc>0.774222</vAcc></extensions></trkpt>
      <trkpt lon="-3.025954" lat="52.714641"><ele>307.443848</ele><time>2022-01-15T13:14:56Z</time><extensions><speed>0.859661</speed><course>229.621704</course><hAcc>1.752909</hAcc><vAcc>0.774193</vAcc></extensions></trkpt>
      <trkpt lon="-3.025964" lat="52.714636"><ele>307.666077</ele><time>2022-01-15T13:14:57Z</time><extensions><speed>0.904343</speed><course>228.142746</course><hAcc>1.750146</hAcc><vAcc>0.774255</vAcc></extensions></trkpt>
      <trkpt lon="-3.025974" lat="52.714630"><ele>307.877747</ele><time>2022-01-15T13:14:58Z</time><extensions><speed>0.895581</speed><course>227.123810</course><hAcc>1.728313</hAcc><vAcc>0.774364</vAcc></extensions></trkpt>
      <trkpt lon="-3.025984" lat="52.714625"><ele>308.081940</ele><time>2022-01-15T13:14:59Z</time><extensions><speed>0.946700</speed><course>227.451340</course><hAcc>1.720178</hAcc><vAcc>0.774500</vAcc></extensions></trkpt>
      <trkpt lon="-3.025994" lat="52.714619"><ele>308.291290</ele><time>2022-01-15T13:15:00Z</time><extensions><speed>0.926284</speed><course>228.998718</course><hAcc>1.722189</hAcc><vAcc>0.774727</vAcc></extensions></trkpt>
      <trkpt lon="-3.026005" lat="52.714614"><ele>308.486694</ele><time>2022-01-15T13:15:01Z</time><extensions><speed>0.942833</speed><course>231.795563</course><hAcc>1.696889</hAcc><vAcc>0.775024</vAcc></extensions></trkpt>
      <trkpt lon="-3.026016" lat="52.714608"><ele>308.707214</ele><time>2022-01-15T13:15:02Z</time><extensions><speed>0.970271</speed><course>231.674713</course><hAcc>1.688377</hAcc><vAcc>0.775381</vAcc></extensions></trkpt>
      <trkpt lon="-3.026027" lat="52.714603"><ele>308.917999</ele><time>2022-01-15T13:15:03Z</time><extensions><speed>0.926906</speed><course>230.480453</course><hAcc>1.686824</hAcc><vAcc>0.775834</vAcc></extensions></trkpt>
      <trkpt lon="-3.026037" lat="52.714598"><ele>309.114563</ele><time>2022-01-15T13:15:04Z</time><extensions><speed>0.844972</speed><course>231.228683</course><hAcc>1.669051</hAcc><vAcc>0.776359</vAcc></extensions></trkpt>
      <trkpt lon="-3.026047" lat="52.714593"><ele>309.305878</ele><time>2022-01-15T13:15:05Z</time><extensions><speed>0.776996</speed><course>232.778580</course><hAcc>1.692969</hAcc><vAcc>0.776921</vAcc></extensions></trkpt>
      <trkpt lon="-3.026055" lat="52.714589"><ele>309.514648</ele><time>2022-01-15T13:15:06Z</time><extensions><speed>0.710689</speed><course>234.245132</course><hAcc>1.706317</hAcc><vAcc>0.777513</vAcc></extensions></trkpt>
      <trkpt lon="-3.026064" lat="52.714586"><ele>309.708557</ele><time>2022-01-15T13:15:07Z</time><extensions><speed>0.673307</speed><course>235.163300</course><hAcc>1.685698</hAcc><vAcc>0.778120</vAcc></extensions></trkpt>
      <trkpt lon="-3.026072" lat="52.714582"><ele>309.892700</ele><time>2022-01-15T13:15:08Z</time><extensions><speed>0.674531</speed><course>238.004578</course><hAcc>1.663133</hAcc><vAcc>0.778741</vAcc></extensions></trkpt>
      <trkpt lon="-3.026081" lat="52.714579"><ele>310.100128</ele><time>2022-01-15T13:15:09Z</time><extensions><speed>0.736106</speed><course>239.126465</course><hAcc>1.685626</hAcc><vAcc>0.779378</vAcc></extensions></trkpt>
      <trkpt lon="-3.026091" lat="52.714576"><ele>310.290985</ele><time>2022-01-15T13:15:10Z</time><extensions><speed>0.763943</speed><course>239.626511</course><hAcc>1.726771</hAcc><vAcc>0.780035</vAcc></extensions></trkpt>
      <trkpt lon="-3.026101" lat="52.714572"><ele>310.489929</ele><time>2022-01-15T13:15:11Z</time><extensions><speed>0.810628</speed><course>238.560974</course><hAcc>1.726308</hAcc><vAcc>0.780679</vAcc></extensions></trkpt>
      <trkpt lon="-3.026111" lat="52.714568"><ele>310.691040</ele><time>2022-01-15T13:15:12Z</time><extensions><speed>0.841973</speed><course>237.097366</course><hAcc>1.735838</hAcc><vAcc>0.781324</vAcc></extensions></trkpt>
      <trkpt lon="-3.026122" lat="52.714564"><ele>310.898865</ele><time>2022-01-15T13:15:13Z</time><extensions><speed>0.856060</speed><course>236.501617</course><hAcc>1.732142</hAcc><vAcc>0.781983</vAcc></extensions></trkpt>
      <trkpt lon="-3.026132" lat="52.714560"><ele>311.106384</ele><time>2022-01-15T13:15:14Z</time><extensions><speed>0.844668</speed><course>236.379745</course><hAcc>1.729226</hAcc><vAcc>0.782617</vAcc></extensions></trkpt>
      <trkpt lon="-3.026143" lat="52.714555"><ele>311.315247</ele><time>2022-01-15T13:15:15Z</time><extensions><speed>0.837579</speed><course>237.285019</course><hAcc>1.733016</hAcc><vAcc>0.783166</vAcc></extensions></trkpt>
      <trkpt lon="-3.026153" lat="52.714551"><ele>311.513245</ele><time>2022-01-15T13:15:16Z</time><extensions><speed>0.824323</speed><course>238.053711</course><hAcc>1.742497</hAcc><vAcc>0.783582</vAcc></extensions></trkpt>
      <trkpt lon="-3.026163" lat="52.714548"><ele>311.728912</ele><time>2022-01-15T13:15:17Z</time><extensions><speed>0.804207</speed><course>238.021820</course><hAcc>1.749943</hAcc><vAcc>0.783903</vAcc></extensions></trkpt>
      <trkpt lon="-3.026173" lat="52.714544"><ele>311.945099</ele><time>2022-01-15T13:15:18Z</time><extensions><speed>0.788985</speed><course>238.199203</course><hAcc>1.750648</hAcc><vAcc>0.784135</vAcc></extensions></trkpt>
      <trkpt lon="-3.026183" lat="52.714540"><ele>312.158295</ele><time>2022-01-15T13:15:19Z</time><extensions><speed>0.787631</speed><course>238.996170</course><hAcc>1.764886</hAcc><vAcc>0.784222</vAcc></extensions></trkpt>
      <trkpt lon="-3.026193" lat="52.714536"><ele>312.362152</ele><time>2022-01-15T13:15:20Z</time><extensions><speed>0.794178</speed><course>240.093948</course><hAcc>1.759062</hAcc><vAcc>0.784157</vAcc></extensions></trkpt>
      <trkpt lon="-3.026203" lat="52.714533"><ele>312.587311</ele><time>2022-01-15T13:15:21Z</time><extensions><speed>0.766884</speed><course>240.625244</course><hAcc>1.764247</hAcc><vAcc>0.783953</vAcc></extensions></trkpt>
      <trkpt lon="-3.026213" lat="52.714530"><ele>312.793915</ele><time>2022-01-15T13:15:22Z</time><extensions><speed>0.761188</speed><course>241.560608</course><hAcc>1.776200</hAcc><vAcc>0.783616</vAcc></extensions></trkpt>
      <trkpt lon="-3.026223" lat="52.714526"><ele>313.025299</ele><time>2022-01-15T13:15:23Z</time><extensions><speed>0.714463</speed><course>240.037598</course><hAcc>1.787552</hAcc><vAcc>0.783191</vAcc></extensions></trkpt>
      <trkpt lon="-3.026232" lat="52.714523"><ele>313.243042</ele><time>2022-01-15T13:15:24Z</time><extensions><speed>0.680075</speed><course>238.515610</course><hAcc>1.787397</hAcc><vAcc>0.782666</vAcc></extensions></trkpt>
      <trkpt lon="-3.026240" lat="52.714520"><ele>313.438477</ele><time>2022-01-15T13:15:25Z</time><extensions><speed>0.651763</speed><course>238.502396</course><hAcc>1.774919</hAcc><vAcc>0.782078</vAcc></extensions></trkpt>
      <trkpt lon="-3.026248" lat="52.714517"><ele>313.647430</ele><time>2022-01-15T13:15:26Z</time><extensions><speed>0.654474</speed><course>240.020660</course><hAcc>1.771763</hAcc><vAcc>0.781430</vAcc></extensions></trkpt>
      <trkpt lon="-3.026257" lat="52.714514"><ele>313.858063</ele><time>2022-01-15T13:15:27Z</time><extensions><speed>0.673472</speed><course>242.702103</course><hAcc>1.795732</hAcc><vAcc>0.780784</vAcc></extensions></trkpt>
      <trkpt lon="-3.026266" lat="52.714512"><ele>314.058624</ele><time>2022-01-15T13:15:28Z</time><extensions><speed>0.652316</speed><course>247.546387</course><hAcc>1.821256</hAcc><vAcc>0.780144</vAcc></extensions></trkpt>
      <trkpt lon="-3.026274" lat="52.714510"><ele>314.255646</ele><time>2022-01-15T13:15:29Z</time><extensions><speed>0.601615</speed><course>251.319290</course><hAcc>1.794607</hAcc><vAcc>0.779481</vAcc></extensions></trkpt>
      <trkpt lon="-3.026282" lat="52.714508"><ele>314.457092</ele><time>2022-01-15T13:15:30Z</time><extensions><speed>0.534150</speed><course>255.144531</course><hAcc>1.775750</hAcc><vAcc>0.778823</vAcc></extensions></trkpt>
      <trkpt lon="-3.026290" lat="52.714507"><ele>314.660675</ele><time>2022-01-15T13:15:31Z</time><extensions><speed>0.500797</speed><course>254.904785</course><hAcc>1.784820</hAcc><vAcc>0.778175</vAcc></extensions></trkpt>
      <trkpt lon="-3.026297" lat="52.714506"><ele>314.849152</ele><time>2022-01-15T13:15:32Z</time><extensions><speed>0.463343</speed><course>251.778091</course><hAcc>1.794737</hAcc><vAcc>0.777582</vAcc></extensions></trkpt>
      <trkpt lon="-3.026303" lat="52.714504"><ele>315.040985</ele><time>2022-01-15T13:15:33Z</time><extensions><speed>0.437398</speed><course>247.154495</course><hAcc>1.814742</hAcc><vAcc>0.777060</vAcc></extensions></trkpt>
      <trkpt lon="-3.026309" lat="52.714503"><ele>315.229858</ele><time>2022-01-15T13:15:34Z</time><extensions><speed>0.480464</speed><course>242.189041</course><hAcc>1.807201</hAcc><vAcc>0.776658</vAcc></extensions></trkpt>
      <trkpt lon="-3.026316" lat="52.714501"><ele>315.406158</ele><time>2022-01-15T13:15:35Z</time><extensions><speed>0.522432</speed><course>240.020905</course><hAcc>1.808208</hAcc><vAcc>0.776374</vAcc></extensions></trkpt>
      <trkpt lon="-3.026323" lat="52.714498"><ele>315.591522</ele><time>2022-01-15T13:15:36Z</time><extensions><speed>0.566625</speed><course>239.606812</course><hAcc>1.820474</hAcc><vAcc>0.776241</vAcc></extensions></trkpt>
      <trkpt lon="-3.026330" lat="52.714496"><ele>315.746582</ele><time>2022-01-15T13:15:37Z</time><extensions><speed>0.562274</speed><course>239.836334</course><hAcc>1.822208</hAcc><vAcc>0.776266</vAcc></extensions></trkpt>
      <trkpt lon="-3.026337" lat="52.714493"><ele>315.921631</ele><time>2022-01-15T13:15:38Z</time><extensions><speed>0.539851</speed><course>241.979324</course><hAcc>1.813294</hAcc><vAcc>0.776443</vAcc></extensions></trkpt>
      <trkpt lon="-3.026344" lat="52.714491"><ele>316.078583</ele><time>2022-01-15T13:15:39Z</time><extensions><speed>0.526963</speed><course>245.604294</course><hAcc>1.814651</hAcc><vAcc>0.776766</vAcc></extensions></trkpt>
      <trkpt lon="-3.026351" lat="52.714489"><ele>316.251648</ele><time>2022-01-15T13:15:40Z</time><extensions><speed>0.525171</speed><course>248.870804</course><hAcc>1.826984</hAcc><vAcc>0.777227</vAcc></extensions></trkpt>
      <trkpt lon="-3.026358" lat="52.714488"><ele>316.403107</ele><time>2022-01-15T13:15:41Z</time><extensions><speed>0.507199</speed><course>251.399887</course><hAcc>1.831042</hAcc><vAcc>0.777820</vAcc></extensions></trkpt>
      <trkpt lon="-3.026365" lat="52.714486"><ele>316.572052</ele><time>2022-01-15T13:15:42Z</time><extensions><speed>0.481483</speed><course>252.649536</course><hAcc>1.821077</hAcc><vAcc>0.778540</vAcc></extensions></trkpt>
      <trkpt lon="-3.026372" lat="52.714485"><ele>316.731964</ele><time>2022-01-15T13:15:43Z</time><extensions><speed>0.496792</speed><course>250.713333</course><hAcc>1.811700</hAcc><vAcc>0.779342</vAcc></extensions></trkpt>
      <trkpt lon="-3.026379" lat="52.714483"><ele>316.892334</ele><time>2022-01-15T13:15:44Z</time><extensions><speed>0.522592</speed><course>248.840210</course><hAcc>1.805571</hAcc><vAcc>0.780180</vAcc></extensions></trkpt>
      <trkpt lon="-3.026387" lat="52.714481"><ele>317.051025</ele><time>2022-01-15T13:15:45Z</time><extensions><speed>0.562897</speed><course>247.762985</course><hAcc>1.799850</hAcc><vAcc>0.781016</vAcc></extensions></trkpt>
      <trkpt lon="-3.026395" lat="52.714479"><ele>317.226013</ele><time>2022-01-15T13:15:46Z</time><extensions><speed>0.597483</speed><course>246.386749</course><hAcc>1.795802</hAcc><vAcc>0.781865</vAcc></extensions></trkpt>
      <trkpt lon="-3.026403" lat="52.714477"><ele>317.391541</ele><time>2022-01-15T13:15:47Z</time><extensions><speed>0.573627</speed><course>244.191727</course><hAcc>1.785717</hAcc><vAcc>0.782719</vAcc></extensions></trkpt>
      <trkpt lon="-3.026410" lat="52.714475"><ele>317.552551</ele><time>2022-01-15T13:15:48Z</time><extensions><speed>0.509557</speed><course>240.968460</course><hAcc>1.782993</hAcc><vAcc>0.783583</vAcc></extensions></trkpt>
      <trkpt lon="-3.026416" lat="52.714473"><ele>317.733154</ele><time>2022-01-15T13:15:49Z</time><extensions><speed>0.414997</speed><course>240.552032</course><hAcc>1.795130</hAcc><vAcc>0.784434</vAcc></extensions></trkpt>
      <trkpt lon="-3.026422" lat="52.714471"><ele>317.921448</ele><time>2022-01-15T13:15:50Z</time><extensions><speed>0.593669</speed><course>243.124481</course><hAcc>1.781410</hAcc><vAcc>0.785303</vAcc></extensions></trkpt>
      <trkpt lon="-3.026430" lat="52.714468"><ele>318.083405</ele><time>2022-01-15T13:15:51Z</time><extensions><speed>0.627541</speed><course>244.515121</course><hAcc>1.776116</hAcc><vAcc>0.786152</vAcc></extensions></trkpt>
      <trkpt lon="-3.026439" lat="52.714466"><ele>318.264984</ele><time>2022-01-15T13:15:52Z</time><extensions><speed>0.615824</speed><course>243.225983</course><hAcc>1.780018</hAcc><vAcc>0.786989</vAcc></extensions></trkpt>
      <trkpt lon="-3.026446" lat="52.714463"><ele>318.439301</ele><time>2022-01-15T13:15:53Z</time><extensions><speed>0.574462</speed><course>238.999084</course><hAcc>1.781251</hAcc><vAcc>0.787782</vAcc></extensions></trkpt>
      <trkpt lon="-3.026454" lat="52.714461"><ele>318.642334</ele><time>2022-01-15T13:15:54Z</time><extensions><speed>0.545464</speed><course>239.273895</course><hAcc>1.784596</hAcc><vAcc>0.788461</vAcc></extensions></trkpt>
      <trkpt lon="-3.026461" lat="52.714458"><ele>318.843475</ele><time>2022-01-15T13:15:55Z</time><extensions><speed>0.519445</speed><course>246.004929</course><hAcc>1.792702</hAcc><vAcc>0.789039</vAcc></extensions></trkpt>
      <trkpt lon="-3.026468" lat="52.714457"><ele>319.039642</ele><time>2022-01-15T13:15:56Z</time><extensions><speed>0.529174</speed><course>254.978149</course><hAcc>1.798410</hAcc><vAcc>0.789516</vAcc></extensions></trkpt>
      <trkpt lon="-3.026476" lat="52.714456"><ele>319.253906</ele><time>2022-01-15T13:15:57Z</time><extensions><speed>0.580570</speed><course>261.749908</course><hAcc>1.782274</hAcc><vAcc>0.789922</vAcc></extensions></trkpt>
      <trkpt lon="-3.026485" lat="52.714455"><ele>319.473541</ele><time>2022-01-15T13:15:58Z</time><extensions><speed>0.634179</speed><course>262.922577</course><hAcc>1.770541</hAcc><vAcc>0.790241</vAcc></extensions></trkpt>
      <trkpt lon="-3.026495" lat="52.714454"><ele>319.693054</ele><time>2022-01-15T13:15:59Z</time><extensions><speed>0.673268</speed><course>260.183472</course><hAcc>1.773080</hAcc><vAcc>0.790457</vAcc></extensions></trkpt>
      <trkpt lon="-3.026505" lat="52.714453"><ele>319.915405</ele><time>2022-01-15T13:16:00Z</time><extensions><speed>0.754478</speed><course>255.251984</course><hAcc>1.765782</hAcc><vAcc>0.790576</vAcc></extensions></trkpt>
      <trkpt lon="-3.026516" lat="52.714451"><ele>320.142548</ele><time>2022-01-15T13:16:01Z</time><extensions><speed>0.831612</speed><course>251.933960</course><hAcc>1.758557</hAcc><vAcc>0.790675</vAcc></extensions></trkpt>
      <trkpt lon="-3.026528" lat="52.714448"><ele>320.382965</ele><time>2022-01-15T13:16:02Z</time><extensions><speed>0.914196</speed><course>249.500351</course><hAcc>1.761169</hAcc><vAcc>0.790719</vAcc></extensions></trkpt>
      <trkpt lon="-3.026541" lat="52.714445"><ele>320.629852</ele><time>2022-01-15T13:16:03Z</time><extensions><speed>0.936458</speed><course>246.401550</course><hAcc>1.743940</hAcc><vAcc>0.790736</vAcc></extensions></trkpt>
      <trkpt lon="-3.026553" lat="52.714441"><ele>320.888489</ele><time>2022-01-15T13:16:04Z</time><extensions><speed>0.906521</speed><course>243.769608</course><hAcc>1.727831</hAcc><vAcc>0.790717</vAcc></extensions></trkpt>
      <trkpt lon="-3.026565" lat="52.714438"><ele>321.152649</ele><time>2022-01-15T13:16:05Z</time><extensions><speed>0.894708</speed><course>241.922302</course><hAcc>1.722943</hAcc><vAcc>0.790714</vAcc></extensions></trkpt>
      <trkpt lon="-3.026576" lat="52.714434"><ele>321.402435</ele><time>2022-01-15T13:16:06Z</time><extensions><speed>0.840411</speed><course>241.014069</course><hAcc>1.737139</hAcc><vAcc>0.790717</vAcc></extensions></trkpt>
      <trkpt lon="-3.026587" lat="52.714431"><ele>321.659302</ele><time>2022-01-15T13:16:07Z</time><extensions><speed>0.771543</speed><course>242.143799</course><hAcc>1.763570</hAcc><vAcc>0.790714</vAcc></extensions></trkpt>
      <trkpt lon="-3.026596" lat="52.714427"><ele>321.914215</ele><time>2022-01-15T13:16:08Z</time><extensions><speed>0.699944</speed><course>238.340927</course><hAcc>1.745703</hAcc><vAcc>0.790702</vAcc></extensions></trkpt>
      <trkpt lon="-3.026605" lat="52.714424"><ele>322.176208</ele><time>2022-01-15T13:16:09Z</time><extensions><speed>0.658120</speed><course>234.914062</course><hAcc>1.737233</hAcc><vAcc>0.790673</vAcc></extensions></trkpt>
      <trkpt lon="-3.026612" lat="52.714420"><ele>322.429962</ele><time>2022-01-15T13:16:10Z</time><extensions><speed>0.639956</speed><course>231.964600</course><hAcc>1.745699</hAcc><vAcc>0.790604</vAcc></extensions></trkpt>
      <trkpt lon="-3.026620" lat="52.714417"><ele>322.694336</ele><time>2022-01-15T13:16:11Z</time><extensions><speed>0.620370</speed><course>228.824554</course><hAcc>1.759236</hAcc><vAcc>0.790537</vAcc></extensions></trkpt>
      <trkpt lon="-3.026626" lat="52.714413"><ele>322.924072</ele><time>2022-01-15T13:16:12Z</time><extensions><speed>0.606862</speed><course>225.733032</course><hAcc>1.766794</hAcc><vAcc>0.790388</vAcc></extensions></trkpt>
      <trkpt lon="-3.026632" lat="52.714409"><ele>323.180847</ele><time>2022-01-15T13:16:13Z</time><extensions><speed>0.571689</speed><course>221.089340</course><hAcc>1.768430</hAcc><vAcc>0.790166</vAcc></extensions></trkpt>
      <trkpt lon="-3.026637" lat="52.714405"><ele>323.430969</ele><time>2022-01-15T13:16:14Z</time><extensions><speed>0.547998</speed><course>216.591278</course><hAcc>1.768606</hAcc><vAcc>0.789900</vAcc></extensions></trkpt>
      <trkpt lon="-3.026642" lat="52.714401"><ele>323.693115</ele><time>2022-01-15T13:16:15Z</time><extensions><speed>0.576122</speed><course>215.525314</course><hAcc>1.777100</hAcc><vAcc>0.789584</vAcc></extensions></trkpt>
      <trkpt lon="-3.026647" lat="52.714397"><ele>323.951904</ele><time>2022-01-15T13:16:16Z</time><extensions><speed>0.573318</speed><course>213.889908</course><hAcc>1.777209</hAcc><vAcc>0.789217</vAcc></extensions></trkpt>
      <trkpt lon="-3.026652" lat="52.714393"><ele>324.193848</ele><time>2022-01-15T13:16:17Z</time><extensions><speed>0.572550</speed><course>213.659470</course><hAcc>1.768489</hAcc><vAcc>0.788828</vAcc></extensions></trkpt>
      <trkpt lon="-3.026657" lat="52.714388"><ele>324.454041</ele><time>2022-01-15T13:16:18Z</time><extensions><speed>0.599580</speed><course>216.249435</course><hAcc>1.772679</hAcc><vAcc>0.788423</vAcc></extensions></trkpt>
      <trkpt lon="-3.026662" lat="52.714384"><ele>324.686279</ele><time>2022-01-15T13:16:19Z</time><extensions><speed>0.638081</speed><course>218.726166</course><hAcc>1.774299</hAcc><vAcc>0.788084</vAcc></extensions></trkpt>
      <trkpt lon="-3.026668" lat="52.714380"><ele>324.941132</ele><time>2022-01-15T13:16:20Z</time><extensions><speed>0.636851</speed><course>221.179474</course><hAcc>1.772361</hAcc><vAcc>0.787766</vAcc></extensions></trkpt>
      <trkpt lon="-3.026675" lat="52.714375"><ele>325.174591</ele><time>2022-01-15T13:16:21Z</time><extensions><speed>0.644393</speed><course>223.178375</course><hAcc>1.771349</hAcc><vAcc>0.787521</vAcc></extensions></trkpt>
      <trkpt lon="-3.026681" lat="52.714371"><ele>325.398499</ele><time>2022-01-15T13:16:22Z</time><extensions><speed>0.640374</speed><course>221.917740</course><hAcc>1.767035</hAcc><vAcc>0.787401</vAcc></extensions></trkpt>
      <trkpt lon="-3.026687" lat="52.714367"><ele>325.623077</ele><time>2022-01-15T13:16:23Z</time><extensions><speed>0.630885</speed><course>216.147095</course><hAcc>1.764521</hAcc><vAcc>0.787412</vAcc></extensions></trkpt>
      <trkpt lon="-3.026692" lat="52.714362"><ele>325.840363</ele><time>2022-01-15T13:16:24Z</time><extensions><speed>0.619308</speed><course>211.785370</course><hAcc>1.764668</hAcc><vAcc>0.787555</vAcc></extensions></trkpt>
      <trkpt lon="-3.026697" lat="52.714357"><ele>326.060486</ele><time>2022-01-15T13:16:25Z</time><extensions><speed>0.627022</speed><course>210.969696</course><hAcc>1.761100</hAcc><vAcc>0.787824</vAcc></extensions></trkpt>
      <trkpt lon="-3.026702" lat="52.714353"><ele>326.273499</ele><time>2022-01-15T13:16:26Z</time><extensions><speed>0.623898</speed><course>212.960175</course><hAcc>1.754512</hAcc><vAcc>0.788182</vAcc></extensions></trkpt>
      <trkpt lon="-3.026707" lat="52.714348"><ele>326.484589</ele><time>2022-01-15T13:16:27Z</time><extensions><speed>0.603725</speed><course>217.319855</course><hAcc>1.754349</hAcc><vAcc>0.788632</vAcc></extensions></trkpt>
      <trkpt lon="-3.026713" lat="52.714344"><ele>326.672333</ele><time>2022-01-15T13:16:28Z</time><extensions><speed>0.610277</speed><course>220.538681</course><hAcc>1.763439</hAcc><vAcc>0.789095</vAcc></extensions></trkpt>
      <trkpt lon="-3.026719" lat="52.714340"><ele>326.860168</ele><time>2022-01-15T13:16:29Z</time><extensions><speed>0.624074</speed><course>226.128525</course><hAcc>1.777913</hAcc><vAcc>0.789586</vAcc></extensions></trkpt>
      <trkpt lon="-3.026726" lat="52.714336"><ele>327.035889</ele><time>2022-01-15T13:16:30Z</time><extensions><speed>0.588536</speed><course>234.305664</course><hAcc>1.771796</hAcc><vAcc>0.790058</vAcc></extensions></trkpt>
      <trkpt lon="-3.026733" lat="52.714334"><ele>327.227814</ele><time>2022-01-15T13:16:31Z</time><extensions><speed>0.560701</speed><course>243.624771</course><hAcc>1.767282</hAcc><vAcc>0.790460</vAcc></extensions></trkpt>
      <trkpt lon="-3.026741" lat="52.714332"><ele>327.391113</ele><time>2022-01-15T13:16:32Z</time><extensions><speed>0.559931</speed><course>247.811829</course><hAcc>1.778429</hAcc><vAcc>0.790779</vAcc></extensions></trkpt>
      <trkpt lon="-3.026748" lat="52.714330"><ele>327.570862</ele><time>2022-01-15T13:16:33Z</time><extensions><speed>0.533530</speed><course>250.541489</course><hAcc>1.779213</hAcc><vAcc>0.790998</vAcc></extensions></trkpt>
      <trkpt lon="-3.026756" lat="52.714328"><ele>327.734924</ele><time>2022-01-15T13:16:34Z</time><extensions><speed>0.522502</speed><course>247.766785</course><hAcc>1.775991</hAcc><vAcc>0.791135</vAcc></extensions></trkpt>
      <trkpt lon="-3.026763" lat="52.714326"><ele>327.932861</ele><time>2022-01-15T13:16:35Z</time><extensions><speed>0.527121</speed><course>241.596161</course><hAcc>1.775385</hAcc><vAcc>0.791178</vAcc></extensions></trkpt>
      <trkpt lon="-3.026769" lat="52.714323"><ele>328.143585</ele><time>2022-01-15T13:16:36Z</time><extensions><speed>0.547359</speed><course>234.100479</course><hAcc>1.778645</hAcc><vAcc>0.791305</vAcc></extensions></trkpt>
      <trkpt lon="-3.026775" lat="52.714321"><ele>328.380524</ele><time>2022-01-15T13:16:37Z</time><extensions><speed>0.447290</speed><course>226.897461</course><hAcc>1.785751</hAcc><vAcc>0.791364</vAcc></extensions></trkpt>
      <trkpt lon="-3.026779" lat="52.714318"><ele>328.592621</ele><time>2022-01-15T13:16:38Z</time><extensions><speed>0.288232</speed><course>215.407745</course><hAcc>1.796608</hAcc><vAcc>0.791443</vAcc></extensions></trkpt>
      <trkpt lon="-3.026781" lat="52.714316"><ele>328.829010</ele><time>2022-01-15T13:16:39Z</time><extensions><speed>0.367968</speed><course>207.048660</course><hAcc>1.774651</hAcc><vAcc>0.791528</vAcc></extensions></trkpt>
      <trkpt lon="-3.026784" lat="52.714312"><ele>329.051025</ele><time>2022-01-15T13:16:40Z</time><extensions><speed>0.555882</speed><course>205.738785</course><hAcc>1.762848</hAcc><vAcc>0.791623</vAcc></extensions></trkpt>
      <trkpt lon="-3.026788" lat="52.714307"><ele>329.281128</ele><time>2022-01-15T13:16:41Z</time><extensions><speed>0.628847</speed><course>204.776276</course><hAcc>1.771974</hAcc><vAcc>0.791771</vAcc></extensions></trkpt>
      <trkpt lon="-3.026793" lat="52.714302"><ele>329.535370</ele><time>2022-01-15T13:16:42Z</time><extensions><speed>0.704264</speed><course>212.445892</course><hAcc>1.768817</hAcc><vAcc>0.791966</vAcc></extensions></trkpt>
      <trkpt lon="-3.026799" lat="52.714297"><ele>329.782562</ele><time>2022-01-15T13:16:43Z</time><extensions><speed>0.737926</speed><course>217.037506</course><hAcc>1.765808</hAcc><vAcc>0.792214</vAcc></extensions></trkpt>
      <trkpt lon="-3.026806" lat="52.714291"><ele>330.039001</ele><time>2022-01-15T13:16:44Z</time><extensions><speed>0.735022</speed><course>221.491165</course><hAcc>1.750646</hAcc><vAcc>0.792481</vAcc></extensions></trkpt>
      <trkpt lon="-3.026813" lat="52.714286"><ele>330.290131</ele><time>2022-01-15T13:16:45Z</time><extensions><speed>0.746564</speed><course>222.201843</course><hAcc>1.739731</hAcc><vAcc>0.792766</vAcc></extensions></trkpt>
      <trkpt lon="-3.026821" lat="52.714281"><ele>330.538818</ele><time>2022-01-15T13:16:46Z</time><extensions><speed>0.739720</speed><course>222.495377</course><hAcc>1.730037</hAcc><vAcc>0.793042</vAcc></extensions></trkpt>
      <trkpt lon="-3.026828" lat="52.714277"><ele>330.781372</ele><time>2022-01-15T13:16:47Z</time><extensions><speed>0.720978</speed><course>223.139801</course><hAcc>1.733225</hAcc><vAcc>0.793266</vAcc></extensions></trkpt>
      <trkpt lon="-3.026836" lat="52.714272"><ele>331.033447</ele><time>2022-01-15T13:16:48Z</time><extensions><speed>0.683698</speed><course>227.578140</course><hAcc>1.751867</hAcc><vAcc>0.793356</vAcc></extensions></trkpt>
      <trkpt lon="-3.026843" lat="52.714268"><ele>331.263916</ele><time>2022-01-15T13:16:49Z</time><extensions><speed>0.696706</speed><course>231.346771</course><hAcc>1.728495</hAcc><vAcc>0.793345</vAcc></extensions></trkpt>
      <trkpt lon="-3.026852" lat="52.714264"><ele>331.508545</ele><time>2022-01-15T13:16:50Z</time><extensions><speed>0.706729</speed><course>234.303360</course><hAcc>1.720534</hAcc><vAcc>0.793187</vAcc></extensions></trkpt>
      <trkpt lon="-3.026860" lat="52.714261"><ele>331.759888</ele><time>2022-01-15T13:16:51Z</time><extensions><speed>0.696202</speed><course>235.319809</course><hAcc>1.734407</hAcc><vAcc>0.792956</vAcc></extensions></trkpt>
      <trkpt lon="-3.026869" lat="52.714257"><ele>332.009552</ele><time>2022-01-15T13:16:52Z</time><extensions><speed>0.693113</speed><course>236.504974</course><hAcc>1.750657</hAcc><vAcc>0.792698</vAcc></extensions></trkpt>
      <trkpt lon="-3.026877" lat="52.714254"><ele>332.251770</ele><time>2022-01-15T13:16:53Z</time><extensions><speed>0.698290</speed><course>239.967667</course><hAcc>1.758733</hAcc><vAcc>0.792371</vAcc></extensions></trkpt>
      <trkpt lon="-3.026886" lat="52.714251"><ele>332.475769</ele><time>2022-01-15T13:16:54Z</time><extensions><speed>0.702875</speed><course>241.591248</course><hAcc>1.766769</hAcc><vAcc>0.792011</vAcc></extensions></trkpt>
      <trkpt lon="-3.026895" lat="52.714248"><ele>332.693420</ele><time>2022-01-15T13:16:55Z</time><extensions><speed>0.665212</speed><course>240.857712</course><hAcc>1.772041</hAcc><vAcc>0.791692</vAcc></extensions></trkpt>
      <trkpt lon="-3.026903" lat="52.714245"><ele>332.933777</ele><time>2022-01-15T13:16:56Z</time><extensions><speed>0.565389</speed><course>239.047882</course><hAcc>1.776300</hAcc><vAcc>0.791413</vAcc></extensions></trkpt>
      <trkpt lon="-3.026909" lat="52.714243"><ele>333.163391</ele><time>2022-01-15T13:16:57Z</time><extensions><speed>0.451193</speed><course>235.512619</course><hAcc>1.786566</hAcc><vAcc>0.791218</vAcc></extensions></trkpt>
      <trkpt lon="-3.026916" lat="52.714240"><ele>333.403290</ele><time>2022-01-15T13:16:58Z</time><extensions><speed>0.571380</speed><course>233.512665</course><hAcc>1.780183</hAcc><vAcc>0.791113</vAcc></extensions></trkpt>
      <trkpt lon="-3.026922" lat="52.714237"><ele>333.662048</ele><time>2022-01-15T13:16:59Z</time><extensions><speed>0.603056</speed><course>228.794846</course><hAcc>1.771031</hAcc><vAcc>0.791159</vAcc></extensions></trkpt>
      <trkpt lon="-3.026929" lat="52.714233"><ele>333.926422</ele><time>2022-01-15T13:17:00Z</time><extensions><speed>0.629052</speed><course>224.210434</course><hAcc>1.772090</hAcc><vAcc>0.791311</vAcc></extensions></trkpt>
      <trkpt lon="-3.026936" lat="52.714228"><ele>334.197540</ele><time>2022-01-15T13:17:01Z</time><extensions><speed>0.701556</speed><course>223.014175</course><hAcc>1.777696</hAcc><vAcc>0.791594</vAcc></extensions></trkpt>
      <trkpt lon="-3.026943" lat="52.714224"><ele>334.431641</ele><time>2022-01-15T13:17:02Z</time><extensions><speed>0.751959</speed><course>221.969116</course><hAcc>1.782935</hAcc><vAcc>0.791998</vAcc></extensions></trkpt>
      <trkpt lon="-3.026950" lat="52.714218"><ele>334.708740</ele><time>2022-01-15T13:17:03Z</time><extensions><speed>0.776845</speed><course>218.706375</course><hAcc>1.770409</hAcc><vAcc>0.792485</vAcc></extensions></trkpt>
      <trkpt lon="-3.026957" lat="52.714213"><ele>334.949829</ele><time>2022-01-15T13:17:04Z</time><extensions><speed>0.774812</speed><course>215.800522</course><hAcc>1.758655</hAcc><vAcc>0.793105</vAcc></extensions></trkpt>
      <trkpt lon="-3.026963" lat="52.714207"><ele>335.210938</ele><time>2022-01-15T13:17:05Z</time><extensions><speed>0.680841</speed><course>210.683075</course><hAcc>1.748246</hAcc><vAcc>0.793771</vAcc></extensions></trkpt>
      <trkpt lon="-3.026968" lat="52.714202"><ele>335.468262</ele><time>2022-01-15T13:17:06Z</time><extensions><speed>0.605483</speed><course>208.162354</course><hAcc>1.752459</hAcc><vAcc>0.794439</vAcc></extensions></trkpt>
      <trkpt lon="-3.026972" lat="52.714198"><ele>335.748535</ele><time>2022-01-15T13:17:07Z</time><extensions><speed>0.595560</speed><course>209.432709</course><hAcc>1.749624</hAcc><vAcc>0.795053</vAcc></extensions></trkpt>
      <trkpt lon="-3.026977" lat="52.714193"><ele>335.989166</ele><time>2022-01-15T13:17:08Z</time><extensions><speed>0.582083</speed><course>212.626556</course><hAcc>1.747202</hAcc><vAcc>0.795601</vAcc></extensions></trkpt>
      <trkpt lon="-3.026982" lat="52.714189"><ele>336.253143</ele><time>2022-01-15T13:17:09Z</time><extensions><speed>0.553422</speed><course>221.515701</course><hAcc>1.749265</hAcc><vAcc>0.796046</vAcc></extensions></trkpt>
      <trkpt lon="-3.026987" lat="52.714186"><ele>336.492767</ele><time>2022-01-15T13:17:10Z</time><extensions><speed>0.531589</speed><course>226.196060</course><hAcc>1.739691</hAcc><vAcc>0.796344</vAcc></extensions></trkpt>
      <trkpt lon="-3.026993" lat="52.714182"><ele>336.752411</ele><time>2022-01-15T13:17:11Z</time><extensions><speed>0.516048</speed><course>228.317627</course><hAcc>1.736351</hAcc><vAcc>0.796520</vAcc></extensions></trkpt>
      <trkpt lon="-3.026999" lat="52.714179"><ele>336.977570</ele><time>2022-01-15T13:17:12Z</time><extensions><speed>0.499211</speed><course>229.344528</course><hAcc>1.739996</hAcc><vAcc>0.796554</vAcc></extensions></trkpt>
      <trkpt lon="-3.027004" lat="52.714177"><ele>337.206879</ele><time>2022-01-15T13:17:13Z</time><extensions><speed>0.482291</speed><course>230.979187</course><hAcc>1.746297</hAcc><vAcc>0.796424</vAcc></extensions></trkpt>
      <trkpt lon="-3.027010" lat="52.714174"><ele>337.437317</ele><time>2022-01-15T13:17:14Z</time><extensions><speed>0.514526</speed><course>233.288757</course><hAcc>1.750316</hAcc><vAcc>0.796187</vAcc></extensions></trkpt>
      <trkpt lon="-3.027016" lat="52.714171"><ele>337.658264</ele><time>2022-01-15T13:17:15Z</time><extensions><speed>0.521336</speed><course>235.165955</course><hAcc>1.754415</hAcc><vAcc>0.795901</vAcc></extensions></trkpt>
      <trkpt lon="-3.027023" lat="52.714168"><ele>337.887299</ele><time>2022-01-15T13:17:16Z</time><extensions><speed>0.563498</speed><course>237.527740</course><hAcc>1.759149</hAcc><vAcc>0.795597</vAcc></extensions></trkpt>
      <trkpt lon="-3.027030" lat="52.714166"><ele>338.097748</ele><time>2022-01-15T13:17:17Z</time><extensions><speed>0.585698</speed><course>239.539993</course><hAcc>1.765410</hAcc><vAcc>0.795297</vAcc></extensions></trkpt>
      <trkpt lon="-3.027038" lat="52.714163"><ele>338.296509</ele><time>2022-01-15T13:17:18Z</time><extensions><speed>0.576039</speed><course>241.068069</course><hAcc>1.770280</hAcc><vAcc>0.795096</vAcc></extensions></trkpt>
      <trkpt lon="-3.027045" lat="52.714161"><ele>338.526855</ele><time>2022-01-15T13:17:19Z</time><extensions><speed>0.548626</speed><course>239.321442</course><hAcc>1.770681</hAcc><vAcc>0.795006</vAcc></extensions></trkpt>
      <trkpt lon="-3.027052" lat="52.714158"><ele>338.734467</ele><time>2022-01-15T13:17:20Z</time><extensions><speed>0.554123</speed><course>234.443939</course><hAcc>1.764243</hAcc><vAcc>0.795060</vAcc></extensions></trkpt>
      <trkpt lon="-3.027058" lat="52.714155"><ele>338.925537</ele><time>2022-01-15T13:17:21Z</time><extensions><speed>0.562547</speed><course>229.177902</course><hAcc>1.770142</hAcc><vAcc>0.795262</vAcc></extensions></trkpt>
      <trkpt lon="-3.027064" lat="52.714151"><ele>339.121307</ele><time>2022-01-15T13:17:22Z</time><extensions><speed>0.567322</speed><course>226.497986</course><hAcc>1.761799</hAcc><vAcc>0.795608</vAcc></extensions></trkpt>
      <trkpt lon="-3.027071" lat="52.714148"><ele>339.308319</ele><time>2022-01-15T13:17:23Z</time><extensions><speed>0.597731</speed><course>225.338547</course><hAcc>1.760578</hAcc><vAcc>0.796133</vAcc></extensions></trkpt>
      <trkpt lon="-3.027077" lat="52.714144"><ele>339.478821</ele><time>2022-01-15T13:17:24Z</time><extensions><speed>0.620547</speed><course>224.387817</course><hAcc>1.764498</hAcc><vAcc>0.796773</vAcc></extensions></trkpt>
      <trkpt lon="-3.027083" lat="52.714140"><ele>339.655457</ele><time>2022-01-15T13:17:24Z</time><extensions><speed>0.622099</speed><course>224.067093</course><hAcc>1.764669</hAcc><vAcc>0.797482</vAcc></extensions></trkpt>
      <trkpt lon="-3.027089" lat="52.714136"><ele>339.815125</ele><time>2022-01-15T13:17:25Z</time><extensions><speed>0.558538</speed><course>221.752197</course><hAcc>1.760930</hAcc><vAcc>0.798250</vAcc></extensions></trkpt>
      <trkpt lon="-3.027095" lat="52.714132"><ele>340.003326</ele><time>2022-01-15T13:17:27Z</time><extensions><speed>0.574828</speed><course>219.264038</course><hAcc>1.748271</hAcc><vAcc>0.799014</vAcc></extensions></trkpt>
      <trkpt lon="-3.027100" lat="52.714128"><ele>340.165802</ele><time>2022-01-15T13:17:28Z</time><extensions><speed>0.613854</speed><course>217.743408</course><hAcc>1.746326</hAcc><vAcc>0.799739</vAcc></extensions></trkpt>
      <trkpt lon="-3.027106" lat="52.714123"><ele>340.324310</ele><time>2022-01-15T13:17:28Z</time><extensions><speed>0.661737</speed><course>217.746216</course><hAcc>1.747762</hAcc><vAcc>0.800433</vAcc></extensions></trkpt>
      <trkpt lon="-3.027112" lat="52.714119"><ele>340.492798</ele><time>2022-01-15T13:17:29Z</time><extensions><speed>0.629189</speed><course>221.161224</course><hAcc>1.730996</hAcc><vAcc>0.801073</vAcc></extensions></trkpt>
      <trkpt lon="-3.027119" lat="52.714115"><ele>340.661377</ele><time>2022-01-15T13:17:30Z</time><extensions><speed>0.642905</speed><course>224.719574</course><hAcc>1.722018</hAcc><vAcc>0.801629</vAcc></extensions></trkpt>
      <trkpt lon="-3.027126" lat="52.714111"><ele>340.847961</ele><time>2022-01-15T13:17:31Z</time><extensions><speed>0.701145</speed><course>228.182510</course><hAcc>1.734556</hAcc><vAcc>0.802118</vAcc></extensions></trkpt>
      <trkpt lon="-3.027134" lat="52.714107"><ele>341.000671</ele><time>2022-01-15T13:17:32Z</time><extensions><speed>0.720433</speed><course>233.636490</course><hAcc>1.750206</hAcc><vAcc>0.802523</vAcc></extensions></trkpt>
      <trkpt lon="-3.027143" lat="52.714103"><ele>341.170959</ele><time>2022-01-15T13:17:33Z</time><extensions><speed>0.743659</speed><course>240.257202</course><hAcc>1.718200</hAcc><vAcc>0.802856</vAcc></extensions></trkpt>
      <trkpt lon="-3.027153" lat="52.714100"><ele>341.326050</ele><time>2022-01-15T13:17:35Z</time><extensions><speed>0.726301</speed><course>242.663116</course><hAcc>1.699208</hAcc><vAcc>0.803111</vAcc></extensions></trkpt>
      <trkpt lon="-3.027162" lat="52.714097"><ele>341.504364</ele><time>2022-01-15T13:17:36Z</time><extensions><speed>0.708599</speed><course>241.580521</course><hAcc>1.695569</hAcc><vAcc>0.803303</vAcc></extensions></trkpt>
      <trkpt lon="-3.027171" lat="52.714094"><ele>341.672668</ele><time>2022-01-15T13:17:37Z</time><extensions><speed>0.710145</speed><course>239.890625</course><hAcc>1.692751</hAcc><vAcc>0.803461</vAcc></extensions></trkpt>
      <trkpt lon="-3.027181" lat="52.714091"><ele>341.856323</ele><time>2022-01-15T13:17:38Z</time><extensions><speed>0.717862</speed><course>241.862717</course><hAcc>1.689202</hAcc><vAcc>0.803566</vAcc></extensions></trkpt>
      <trkpt lon="-3.027190" lat="52.714088"><ele>342.046661</ele><time>2022-01-15T13:17:39Z</time><extensions><speed>0.718944</speed><course>244.953308</course><hAcc>1.702181</hAcc><vAcc>0.803641</vAcc></extensions></trkpt>
      <trkpt lon="-3.027200" lat="52.714085"><ele>342.223358</ele><time>2022-01-15T13:17:40Z</time><extensions><speed>0.704584</speed><course>250.648636</course><hAcc>1.704316</hAcc><vAcc>0.803668</vAcc></extensions></trkpt>
      <trkpt lon="-3.027210" lat="52.714084"><ele>342.417053</ele><time>2022-01-15T13:17:41Z</time><extensions><speed>0.685384</speed><course>257.364838</course><hAcc>1.693707</hAcc><vAcc>0.803660</vAcc></extensions></trkpt>
      <trkpt lon="-3.027220" lat="52.714082"><ele>342.596191</ele><time>2022-01-15T13:17:42Z</time><extensions><speed>0.675046</speed><course>259.673279</course><hAcc>1.707810</hAcc><vAcc>0.803648</vAcc></extensions></trkpt>
      <trkpt lon="-3.027229" lat="52.714081"><ele>342.771698</ele><time>2022-01-15T13:17:43Z</time><extensions><speed>0.662945</speed><course>259.171082</course><hAcc>1.701414</hAcc><vAcc>0.803580</vAcc></extensions></trkpt>
      <trkpt lon="-3.027239" lat="52.714080"><ele>342.943024</ele><time>2022-01-15T13:17:44Z</time><extensions><speed>0.634570</speed><course>253.381302</course><hAcc>1.703282</hAcc><vAcc>0.803486</vAcc></extensions></trkpt>
      <trkpt lon="-3.027247" lat="52.714078"><ele>343.144958</ele><time>2022-01-15T13:17:45Z</time><extensions><speed>0.636714</speed><course>247.180710</course><hAcc>1.717285</hAcc><vAcc>0.803357</vAcc></extensions></trkpt>
      <trkpt lon="-3.027256" lat="52.714076"><ele>343.332245</ele><time>2022-01-15T13:17:46Z</time><extensions><speed>0.639774</speed><course>242.887436</course><hAcc>1.731652</hAcc><vAcc>0.803208</vAcc></extensions></trkpt>
      <trkpt lon="-3.027264" lat="52.714073"><ele>343.501556</ele><time>2022-01-15T13:17:47Z</time><extensions><speed>0.624321</speed><course>242.446732</course><hAcc>1.738565</hAcc><vAcc>0.803036</vAcc></extensions></trkpt>
      <trkpt lon="-3.027273" lat="52.714071"><ele>343.710205</ele><time>2022-01-15T13:17:48Z</time><extensions><speed>0.607071</speed><course>243.730423</course><hAcc>1.739674</hAcc><vAcc>0.802850</vAcc></extensions></trkpt>
      <trkpt lon="-3.027281" lat="52.714068"><ele>343.904144</ele><time>2022-01-15T13:17:49Z</time><extensions><speed>0.653854</speed><course>243.884644</course><hAcc>1.736316</hAcc><vAcc>0.802652</vAcc></extensions></trkpt>
      <trkpt lon="-3.027290" lat="52.714065"><ele>344.097656</ele><time>2022-01-15T13:17:50Z</time><extensions><speed>0.726631</speed><course>244.146652</course><hAcc>1.731904</hAcc><vAcc>0.802437</vAcc></extensions></trkpt>
      <trkpt lon="-3.027300" lat="52.714062"><ele>344.301056</ele><time>2022-01-15T13:17:51Z</time><extensions><speed>0.750946</speed><course>244.025772</course><hAcc>1.735066</hAcc><vAcc>0.802222</vAcc></extensions></trkpt>
      <trkpt lon="-3.027310" lat="52.714059"><ele>344.485046</ele><time>2022-01-15T13:17:52Z</time><extensions><speed>0.755168</speed><course>244.709045</course><hAcc>1.733729</hAcc><vAcc>0.801997</vAcc></extensions></trkpt>
      <trkpt lon="-3.027320" lat="52.714057"><ele>344.689301</ele><time>2022-01-15T13:17:53Z</time><extensions><speed>0.779295</speed><course>245.511536</course><hAcc>1.716022</hAcc><vAcc>0.801782</vAcc></extensions></trkpt>
      <trkpt lon="-3.027331" lat="52.714054"><ele>344.872040</ele><time>2022-01-15T13:17:54Z</time><extensions><speed>0.786524</speed><course>246.473648</course><hAcc>1.705861</hAcc><vAcc>0.801581</vAcc></extensions></trkpt>
      <trkpt lon="-3.027342" lat="52.714051"><ele>345.088715</ele><time>2022-01-15T13:17:55Z</time><extensions><speed>0.812994</speed><course>247.297989</course><hAcc>1.707174</hAcc><vAcc>0.801378</vAcc></extensions></trkpt>
      <trkpt lon="-3.027353" lat="52.714048"><ele>345.297119</ele><time>2022-01-15T13:17:56Z</time><extensions><speed>0.845089</speed><course>247.411407</course><hAcc>1.687120</hAcc><vAcc>0.801147</vAcc></extensions></trkpt>
      <trkpt lon="-3.027365" lat="52.714045"><ele>345.501282</ele><time>2022-01-15T13:17:57Z</time><extensions><speed>0.889135</speed><course>246.202682</course><hAcc>1.675444</hAcc><vAcc>0.800912</vAcc></extensions></trkpt>
      <trkpt lon="-3.027377" lat="52.714041"><ele>345.714996</ele><time>2022-01-15T13:17:58Z</time><extensions><speed>0.927877</speed><course>244.095245</course><hAcc>1.690008</hAcc><vAcc>0.800667</vAcc></extensions></trkpt>
      <trkpt lon="-3.027390" lat="52.714038"><ele>345.916718</ele><time>2022-01-15T13:17:59Z</time><extensions><speed>0.934421</speed><course>242.583893</course><hAcc>1.677214</hAcc><vAcc>0.800407</vAcc></extensions></trkpt>
      <trkpt lon="-3.027402" lat="52.714034"><ele>346.146973</ele><time>2022-01-15T13:18:00Z</time><extensions><speed>0.907953</speed><course>239.554321</course><hAcc>1.663984</hAcc><vAcc>0.800139</vAcc></extensions></trkpt>
      <trkpt lon="-3.027413" lat="52.714029"><ele>346.365051</ele><time>2022-01-15T13:18:01Z</time><extensions><speed>0.918384</speed><course>236.689026</course><hAcc>1.661287</hAcc><vAcc>0.799845</vAcc></extensions></trkpt>
      <trkpt lon="-3.027424" lat="52.714025"><ele>346.598785</ele><time>2022-01-15T13:18:02Z</time><extensions><speed>0.859626</speed><course>235.656677</course><hAcc>1.658853</hAcc><vAcc>0.799492</vAcc></extensions></trkpt>
      <trkpt lon="-3.027434" lat="52.714021"><ele>346.841034</ele><time>2022-01-15T13:18:03Z</time><extensions><speed>0.816456</speed><course>237.130814</course><hAcc>1.675949</hAcc><vAcc>0.799143</vAcc></extensions></trkpt>
      <trkpt lon="-3.027445" lat="52.714017"><ele>347.074219</ele><time>2022-01-15T13:18:04Z</time><extensions><speed>0.839446</speed><course>239.379364</course><hAcc>1.682778</hAcc><vAcc>0.798756</vAcc></extensions></trkpt>
      <trkpt lon="-3.027456" lat="52.714013"><ele>347.307281</ele><time>2022-01-15T13:18:05Z</time><extensions><speed>0.889577</speed><course>237.771484</course><hAcc>1.684905</hAcc><vAcc>0.798333</vAcc></extensions></trkpt>
      <trkpt lon="-3.027466" lat="52.714008"><ele>347.537170</ele><time>2022-01-15T13:18:06Z</time><extensions><speed>0.866625</speed><course>234.872360</course><hAcc>1.672651</hAcc><vAcc>0.797886</vAcc></extensions></trkpt>
      <trkpt lon="-3.027477" lat="52.714004"><ele>347.770966</ele><time>2022-01-15T13:18:07Z</time><extensions><speed>0.887559</speed><course>233.286606</course><hAcc>1.671105</hAcc><vAcc>0.797415</vAcc></extensions></trkpt>
      <trkpt lon="-3.027488" lat="52.713999"><ele>348.023987</ele><time>2022-01-15T13:18:08Z</time><extensions><speed>0.924288</speed><course>232.270920</course><hAcc>1.682745</hAcc><vAcc>0.796946</vAcc></extensions></trkpt>
      <trkpt lon="-3.027499" lat="52.713994"><ele>348.286194</ele><time>2022-01-15T13:18:09Z</time><extensions><speed>0.923971</speed><course>232.475281</course><hAcc>1.701984</hAcc><vAcc>0.796511</vAcc></extensions></trkpt>
      <trkpt lon="-3.027509" lat="52.713989"><ele>348.518036</ele><time>2022-01-15T13:18:10Z</time><extensions><speed>0.911954</speed><course>234.171478</course><hAcc>1.720334</hAcc><vAcc>0.796118</vAcc></extensions></trkpt>
      <trkpt lon="-3.027520" lat="52.713984"><ele>348.766174</ele><time>2022-01-15T13:18:11Z</time><extensions><speed>0.879192</speed><course>238.468292</course><hAcc>1.697718</hAcc><vAcc>0.795759</vAcc></extensions></trkpt>
      <trkpt lon="-3.027531" lat="52.713981"><ele>349.021240</ele><time>2022-01-15T13:18:12Z</time><extensions><speed>0.838136</speed><course>241.977814</course><hAcc>1.681329</hAcc><vAcc>0.795464</vAcc></extensions></trkpt>
      <trkpt lon="-3.027543" lat="52.713977"><ele>349.267639</ele><time>2022-01-15T13:18:13Z</time><extensions><speed>0.845792</speed><course>245.593369</course><hAcc>1.694416</hAcc><vAcc>0.795248</vAcc></extensions></trkpt>
      <trkpt lon="-3.027554" lat="52.713974"><ele>349.484283</ele><time>2022-01-15T13:18:14Z</time><extensions><speed>0.817938</speed><course>247.602112</course><hAcc>1.714186</hAcc><vAcc>0.795106</vAcc></extensions></trkpt>
      <trkpt lon="-3.027565" lat="52.713971"><ele>349.726196</ele><time>2022-01-15T13:18:15Z</time><extensions><speed>0.865534</speed><course>248.033554</course><hAcc>1.691569</hAcc><vAcc>0.795069</vAcc></extensions></trkpt>
      <trkpt lon="-3.027578" lat="52.713968"><ele>349.961609</ele><time>2022-01-15T13:18:16Z</time><extensions><speed>0.936107</speed><course>246.985275</course><hAcc>1.685496</hAcc><vAcc>0.795105</vAcc></extensions></trkpt>
      <trkpt lon="-3.027591" lat="52.713965"><ele>350.217682</ele><time>2022-01-15T13:18:17Z</time><extensions><speed>0.951372</speed><course>245.571045</course><hAcc>1.680110</hAcc><vAcc>0.795188</vAcc></extensions></trkpt>
      <trkpt lon="-3.027603" lat="52.713961"><ele>350.474030</ele><time>2022-01-15T13:18:18Z</time><extensions><speed>0.923571</speed><course>244.328156</course><hAcc>1.669698</hAcc><vAcc>0.795289</vAcc></extensions></trkpt>
      <trkpt lon="-3.027615" lat="52.713957"><ele>350.703247</ele><time>2022-01-15T13:18:19Z</time><extensions><speed>0.895223</speed><course>242.236069</course><hAcc>1.658477</hAcc><vAcc>0.795404</vAcc></extensions></trkpt>
      <trkpt lon="-3.027627" lat="52.713954"><ele>350.962433</ele><time>2022-01-15T13:18:20Z</time><extensions><speed>0.931861</speed><course>239.355576</course><hAcc>1.657230</hAcc><vAcc>0.795494</vAcc></extensions></trkpt>
      <trkpt lon="-3.027639" lat="52.713949"><ele>351.230225</ele><time>2022-01-15T13:18:21Z</time><extensions><speed>0.948166</speed><course>237.932175</course><hAcc>1.667632</hAcc><vAcc>0.795559</vAcc></extensions></trkpt>
      <trkpt lon="-3.027651" lat="52.713944"><ele>351.484467</ele><time>2022-01-15T13:18:22Z</time><extensions><speed>1.000569</speed><course>237.623932</course><hAcc>1.655338</hAcc><vAcc>0.795549</vAcc></extensions></trkpt>
      <trkpt lon="-3.027664" lat="52.713940"><ele>351.750458</ele><time>2022-01-15T13:18:23Z</time><extensions><speed>0.990038</speed><course>238.234528</course><hAcc>1.652552</hAcc><vAcc>0.795481</vAcc></extensions></trkpt>
      <trkpt lon="-3.027676" lat="52.713935"><ele>352.003632</ele><time>2022-01-15T13:18:24Z</time><extensions><speed>0.955864</speed><course>237.572784</course><hAcc>1.638536</hAcc><vAcc>0.795375</vAcc></extensions></trkpt>
      <trkpt lon="-3.027688" lat="52.713930"><ele>352.269257</ele><time>2022-01-15T13:18:25Z</time><extensions><speed>0.963335</speed><course>237.016861</course><hAcc>1.650964</hAcc><vAcc>0.795218</vAcc></extensions></trkpt>
      <trkpt lon="-3.027700" lat="52.713926"><ele>352.541504</ele><time>2022-01-15T13:18:26Z</time><extensions><speed>0.944757</speed><course>238.619034</course><hAcc>1.666239</hAcc><vAcc>0.795005</vAcc></extensions></trkpt>
      <trkpt lon="-3.027712" lat="52.713921"><ele>352.847443</ele><time>2022-01-15T13:18:27Z</time><extensions><speed>0.982378</speed><course>239.220123</course><hAcc>1.677786</hAcc><vAcc>0.794756</vAcc></extensions></trkpt>
      <trkpt lon="-3.027724" lat="52.713917"><ele>353.125763</ele><time>2022-01-15T13:18:28Z</time><extensions><speed>0.992822</speed><course>240.556793</course><hAcc>1.675417</hAcc><vAcc>0.794475</vAcc></extensions></trkpt>
      <trkpt lon="-3.027737" lat="52.713913"><ele>353.424652</ele><time>2022-01-15T13:18:29Z</time><extensions><speed>0.931738</speed><course>242.346161</course><hAcc>1.675748</hAcc><vAcc>0.794173</vAcc></extensions></trkpt>
      <trkpt lon="-3.027749" lat="52.713909"><ele>353.722412</ele><time>2022-01-15T13:18:30Z</time><extensions><speed>0.897347</speed><course>243.686935</course><hAcc>1.668278</hAcc><vAcc>0.793849</vAcc></extensions></trkpt>
      <trkpt lon="-3.027761" lat="52.713906"><ele>354.012268</ele><time>2022-01-15T13:18:31Z</time><extensions><speed>0.920370</speed><course>244.900009</course><hAcc>1.670215</hAcc><vAcc>0.793507</vAcc></extensions></trkpt>
      <trkpt lon="-3.027774" lat="52.713902"><ele>354.304382</ele><time>2022-01-15T13:18:32Z</time><extensions><speed>0.929323</speed><course>246.700455</course><hAcc>1.676481</hAcc><vAcc>0.793149</vAcc></extensions></trkpt>
      <trkpt lon="-3.027787" lat="52.713899"><ele>354.590637</ele><time>2022-01-15T13:18:33Z</time><extensions><speed>0.953175</speed><course>246.909180</course><hAcc>1.668134</hAcc><vAcc>0.792777</vAcc></extensions></trkpt>
      <trkpt lon="-3.027800" lat="52.713895"><ele>354.870544</ele><time>2022-01-15T13:18:34Z</time><extensions><speed>0.987900</speed><course>245.944077</course><hAcc>1.669215</hAcc><vAcc>0.792455</vAcc></extensions></trkpt>
      <trkpt lon="-3.027813" lat="52.713892"><ele>355.147308</ele><time>2022-01-15T13:18:35Z</time><extensions><speed>0.974673</speed><course>244.885742</course><hAcc>1.669005</hAcc><vAcc>0.792097</vAcc></extensions></trkpt>
      <trkpt lon="-3.027826" lat="52.713888"><ele>355.420654</ele><time>2022-01-15T13:18:36Z</time><extensions><speed>0.939235</speed><course>244.865082</course><hAcc>1.656961</hAcc><vAcc>0.791775</vAcc></extensions></trkpt>
      <trkpt lon="-3.027838" lat="52.713884"><ele>355.722687</ele><time>2022-01-15T13:18:37Z</time><extensions><speed>0.915115</speed><course>245.728455</course><hAcc>1.669018</hAcc><vAcc>0.791454</vAcc></extensions></trkpt>
      <trkpt lon="-3.027851" lat="52.713881"><ele>355.968201</ele><time>2022-01-15T13:18:38Z</time><extensions><speed>0.971066</speed><course>246.531570</course><hAcc>1.683392</hAcc><vAcc>0.791170</vAcc></extensions></trkpt>
      <trkpt lon="-3.027865" lat="52.713878"><ele>356.225372</ele><time>2022-01-15T13:18:39Z</time><extensions><speed>1.003323</speed><course>247.760696</course><hAcc>1.675173</hAcc><vAcc>0.790908</vAcc></extensions></trkpt>
      <trkpt lon="-3.027879" lat="52.713874"><ele>356.497620</ele><time>2022-01-15T13:18:40Z</time><extensions><speed>1.033307</speed><course>248.423737</course><hAcc>1.685038</hAcc><vAcc>0.790704</vAcc></extensions></trkpt>
      <trkpt lon="-3.027893" lat="52.713871"><ele>356.759186</ele><time>2022-01-15T13:18:41Z</time><extensions><speed>1.052920</speed><course>248.881287</course><hAcc>1.701656</hAcc><vAcc>0.790545</vAcc></extensions></trkpt>
      <trkpt lon="-3.027908" lat="52.713867"><ele>357.017456</ele><time>2022-01-15T13:18:42Z</time><extensions><speed>1.059107</speed><course>248.886688</course><hAcc>1.696139</hAcc><vAcc>0.790449</vAcc></extensions></trkpt>
      <trkpt lon="-3.027922" lat="52.713864"><ele>357.240509</ele><time>2022-01-15T13:18:43Z</time><extensions><speed>1.058280</speed><course>248.953552</course><hAcc>1.697988</hAcc><vAcc>0.790428</vAcc></extensions></trkpt>
      <trkpt lon="-3.027937" lat="52.713861"><ele>357.470886</ele><time>2022-01-15T13:18:44Z</time><extensions><speed>1.069052</speed><course>249.998856</course><hAcc>1.713680</hAcc><vAcc>0.790477</vAcc></extensions></trkpt>
      <trkpt lon="-3.027952" lat="52.713857"><ele>357.703186</ele><time>2022-01-15T13:18:45Z</time><extensions><speed>1.124065</speed><course>249.709793</course><hAcc>1.736292</hAcc><vAcc>0.790575</vAcc></extensions></trkpt>
      <trkpt lon="-3.027968" lat="52.713854"><ele>357.928680</ele><time>2022-01-15T13:18:46Z</time><extensions><speed>1.105542</speed><course>249.524506</course><hAcc>1.715550</hAcc><vAcc>0.790702</vAcc></extensions></trkpt>
      <trkpt lon="-3.027983" lat="52.713850"><ele>358.150452</ele><time>2022-01-15T13:18:47Z</time><extensions><speed>1.103262</speed><course>248.618484</course><hAcc>1.716036</hAcc><vAcc>0.790840</vAcc></extensions></trkpt>
      <trkpt lon="-3.027998" lat="52.713846"><ele>358.359528</ele><time>2022-01-15T13:18:48Z</time><extensions><speed>1.085892</speed><course>247.641678</course><hAcc>1.729819</hAcc><vAcc>0.790982</vAcc></extensions></trkpt>
      <trkpt lon="-3.028013" lat="52.713843"><ele>358.567902</ele><time>2022-01-15T13:18:49Z</time><extensions><speed>1.084631</speed><course>246.048233</course><hAcc>1.711658</hAcc><vAcc>0.791127</vAcc></extensions></trkpt>
      <trkpt lon="-3.028028" lat="52.713838"><ele>358.783539</ele><time>2022-01-15T13:18:50Z</time><extensions><speed>1.090455</speed><course>244.663803</course><hAcc>1.703950</hAcc><vAcc>0.791254</vAcc></extensions></trkpt>
      <trkpt lon="-3.028042" lat="52.713834"><ele>358.973846</ele><time>2022-01-15T13:18:51Z</time><extensions><speed>1.079690</speed><course>243.997070</course><hAcc>1.707548</hAcc><vAcc>0.791376</vAcc></extensions></trkpt>
      <trkpt lon="-3.028056" lat="52.713830"><ele>359.162628</ele><time>2022-01-15T13:18:52Z</time><extensions><speed>1.054248</speed><course>242.971771</course><hAcc>1.716815</hAcc><vAcc>0.791469</vAcc></extensions></trkpt>
      <trkpt lon="-3.028070" lat="52.713826"><ele>359.346130</ele><time>2022-01-15T13:18:53Z</time><extensions><speed>1.012925</speed><course>243.485062</course><hAcc>1.730469</hAcc><vAcc>0.791539</vAcc></extensions></trkpt>
      <trkpt lon="-3.028084" lat="52.713822"><ele>359.505005</ele><time>2022-01-15T13:18:54Z</time><extensions><speed>1.038209</speed><course>244.464340</course><hAcc>1.730413</hAcc><vAcc>0.791610</vAcc></extensions></trkpt>
      <trkpt lon="-3.028098" lat="52.713818"><ele>359.674347</ele><time>2022-01-15T13:18:55Z</time><extensions><speed>1.128334</speed><course>246.085129</course><hAcc>1.711081</hAcc><vAcc>0.791661</vAcc></extensions></trkpt>
      <trkpt lon="-3.028114" lat="52.713814"><ele>359.833923</ele><time>2022-01-15T13:18:56Z</time><extensions><speed>1.163203</speed><course>248.440750</course><hAcc>1.703394</hAcc><vAcc>0.791732</vAcc></extensions></trkpt>
      <trkpt lon="-3.028130" lat="52.713810"><ele>359.972382</ele><time>2022-01-15T13:18:57Z</time><extensions><speed>1.171403</speed><course>250.584869</course><hAcc>1.708410</hAcc><vAcc>0.791822</vAcc></extensions></trkpt>
      <trkpt lon="-3.028146" lat="52.713807"><ele>360.130310</ele><time>2022-01-15T13:18:58Z</time><extensions><speed>1.130697</speed><course>251.150787</course><hAcc>1.725967</hAcc><vAcc>0.791949</vAcc></extensions></trkpt>
      <trkpt lon="-3.028161" lat="52.713803"><ele>360.282562</ele><time>2022-01-15T13:18:59Z</time><extensions><speed>1.048933</speed><course>250.244171</course><hAcc>1.735013</hAcc><vAcc>0.792111</vAcc></extensions></trkpt>
      <trkpt lon="-3.028175" lat="52.713800"><ele>360.435425</ele><time>2022-01-15T13:19:00Z</time><extensions><speed>0.989670</speed><course>247.251129</course><hAcc>1.718115</hAcc><vAcc>0.792307</vAcc></extensions></trkpt>
      <trkpt lon="-3.028189" lat="52.713796"><ele>360.586578</ele><time>2022-01-15T13:19:01Z</time><extensions><speed>0.990689</speed><course>245.430740</course><hAcc>1.711827</hAcc><vAcc>0.792566</vAcc></extensions></trkpt>
      <trkpt lon="-3.028202" lat="52.713793"><ele>360.684021</ele><time>2022-01-15T13:19:02Z</time><extensions><speed>0.988592</speed><course>245.636307</course><hAcc>1.703206</hAcc><vAcc>0.792875</vAcc></extensions></trkpt>
      <trkpt lon="-3.028216" lat="52.713789"><ele>360.756683</ele><time>2022-01-15T13:19:03Z</time><extensions><speed>1.019347</speed><course>247.902725</course><hAcc>1.695390</hAcc><vAcc>0.793194</vAcc></extensions></trkpt>
      <trkpt lon="-3.028230" lat="52.713786"><ele>360.900177</ele><time>2022-01-15T13:19:04Z</time><extensions><speed>1.006543</speed><course>251.065582</course><hAcc>1.696344</hAcc><vAcc>0.793490</vAcc></extensions></trkpt>
      <trkpt lon="-3.028244" lat="52.713783"><ele>360.991302</ele><time>2022-01-15T13:19:05Z</time><extensions><speed>1.030191</speed><course>252.270477</course><hAcc>1.695585</hAcc><vAcc>0.793764</vAcc></extensions></trkpt>
      <trkpt lon="-3.028259" lat="52.713780"><ele>361.098267</ele><time>2022-01-15T13:19:06Z</time><extensions><speed>1.009473</speed><course>252.693283</course><hAcc>1.699520</hAcc><vAcc>0.794009</vAcc></extensions></trkpt>
      <trkpt lon="-3.028273" lat="52.713778"><ele>361.173096</ele><time>2022-01-15T13:19:07Z</time><extensions><speed>0.996862</speed><course>255.554825</course><hAcc>1.687530</hAcc><vAcc>0.794191</vAcc></extensions></trkpt>
      <trkpt lon="-3.028288" lat="52.713776"><ele>361.229950</ele><time>2022-01-15T13:19:08Z</time><extensions><speed>1.023658</speed><course>258.235321</course><hAcc>1.680440</hAcc><vAcc>0.794335</vAcc></extensions></trkpt>
      <trkpt lon="-3.028303" lat="52.713774"><ele>361.333557</ele><time>2022-01-15T13:19:09Z</time><extensions><speed>1.074242</speed><course>260.464508</course><hAcc>1.668078</hAcc><vAcc>0.794398</vAcc></extensions></trkpt>
      <trkpt lon="-3.028318" lat="52.713772"><ele>361.423248</ele><time>2022-01-15T13:19:10Z</time><extensions><speed>1.059756</speed><course>260.762360</course><hAcc>1.683889</hAcc><vAcc>0.794370</vAcc></extensions></trkpt>
      <trkpt lon="-3.028334" lat="52.713771"><ele>361.518280</ele><time>2022-01-15T13:19:11Z</time><extensions><speed>1.097227</speed><course>260.625702</course><hAcc>1.695807</hAcc><vAcc>0.794246</vAcc></extensions></trkpt>
      <trkpt lon="-3.028351" lat="52.713769"><ele>361.610565</ele><time>2022-01-15T13:19:12Z</time><extensions><speed>1.146138</speed><course>259.957977</course><hAcc>1.693950</hAcc><vAcc>0.794012</vAcc></extensions></trkpt>
      <trkpt lon="-3.028368" lat="52.713767"><ele>361.698730</ele><time>2022-01-15T13:19:13Z</time><extensions><speed>1.184565</speed><course>256.957825</course><hAcc>1.698347</hAcc><vAcc>0.793656</vAcc></extensions></trkpt>
      <trkpt lon="-3.028385" lat="52.713764"><ele>361.767334</ele><time>2022-01-15T13:19:14Z</time><extensions><speed>1.212953</speed><course>252.880310</course><hAcc>1.691625</hAcc><vAcc>0.793184</vAcc></extensions></trkpt>
      <trkpt lon="-3.028402" lat="52.713761"><ele>361.839966</ele><time>2022-01-15T13:19:15Z</time><extensions><speed>1.275058</speed><course>250.547318</course><hAcc>1.685421</hAcc><vAcc>0.792645</vAcc></extensions></trkpt>
      <trkpt lon="-3.028421" lat="52.713756"><ele>361.924194</ele><time>2022-01-15T13:19:16Z</time><extensions><speed>1.399862</speed><course>248.485764</course><hAcc>1.671441</hAcc><vAcc>0.792055</vAcc></extensions></trkpt>
      <trkpt lon="-3.028441" lat="52.713752"><ele>362.037079</ele><time>2022-01-15T13:19:17Z</time><extensions><speed>1.489459</speed><course>247.185425</course><hAcc>1.644641</hAcc><vAcc>0.791460</vAcc></extensions></trkpt>
      <trkpt lon="-3.028461" lat="52.713746"><ele>362.128998</ele><time>2022-01-15T13:19:18Z</time><extensions><speed>1.540136</speed><course>246.925369</course><hAcc>1.628980</hAcc><vAcc>0.790886</vAcc></extensions></trkpt>
      <trkpt lon="-3.028482" lat="52.713741"><ele>362.232544</ele><time>2022-01-15T13:19:19Z</time><extensions><speed>1.555632</speed><course>246.421661</course><hAcc>1.628706</hAcc><vAcc>0.790374</vAcc></extensions></trkpt>
      <trkpt lon="-3.028504" lat="52.713735"><ele>362.331207</ele><time>2022-01-15T13:19:20Z</time><extensions><speed>1.600934</speed><course>246.186157</course><hAcc>1.591606</hAcc><vAcc>0.789976</vAcc></extensions></trkpt>
      <trkpt lon="-3.028525" lat="52.713729"><ele>362.420593</ele><time>2022-01-15T13:19:21Z</time><extensions><speed>1.601431</speed><course>246.270416</course><hAcc>1.562364</hAcc><vAcc>0.789701</vAcc></extensions></trkpt>
      <trkpt lon="-3.028547" lat="52.713724"><ele>362.516663</ele><time>2022-01-15T13:19:22Z</time><extensions><speed>1.598795</speed><course>248.432816</course><hAcc>1.564647</hAcc><vAcc>0.789534</vAcc></extensions></trkpt>
      <trkpt lon="-3.028569" lat="52.713718"><ele>362.619324</ele><time>2022-01-15T13:19:23Z</time><extensions><speed>1.600879</speed><course>248.537369</course><hAcc>1.553965</hAcc><vAcc>0.789457</vAcc></extensions></trkpt>
      <trkpt lon="-3.028591" lat="52.713713"><ele>362.726135</ele><time>2022-01-15T13:19:24Z</time><extensions><speed>1.585509</speed><course>248.257294</course><hAcc>1.526833</hAcc><vAcc>0.789466</vAcc></extensions></trkpt>
      <trkpt lon="-3.028612" lat="52.713708"><ele>362.810272</ele><time>2022-01-15T13:19:25Z</time><extensions><speed>1.567308</speed><course>249.847092</course><hAcc>1.509914</hAcc><vAcc>0.789565</vAcc></extensions></trkpt>
      <trkpt lon="-3.028634" lat="52.713703"><ele>362.861725</ele><time>2022-01-15T13:19:26Z</time><extensions><speed>1.528660</speed><course>248.548492</course><hAcc>1.484121</hAcc><vAcc>0.789757</vAcc></extensions></trkpt>
      <trkpt lon="-3.028654" lat="52.713698"><ele>362.884888</ele><time>2022-01-15T13:19:27Z</time><extensions><speed>1.490577</speed><course>246.911743</course><hAcc>1.478897</hAcc><vAcc>0.790078</vAcc></extensions></trkpt>
      <trkpt lon="-3.028674" lat="52.713692"><ele>362.885437</ele><time>2022-01-15T13:19:28Z</time><extensions><speed>1.556858</speed><course>246.946014</course><hAcc>1.488631</hAcc><vAcc>0.790548</vAcc></extensions></trkpt>
      <trkpt lon="-3.028695" lat="52.713687"><ele>362.868042</ele><time>2022-01-15T13:19:29Z</time><extensions><speed>1.548709</speed><course>244.953094</course><hAcc>1.478395</hAcc><vAcc>0.791094</vAcc></extensions></trkpt>
      <trkpt lon="-3.028716" lat="52.713681"><ele>362.862366</ele><time>2022-01-15T13:19:30Z</time><extensions><speed>1.536961</speed><course>245.007690</course><hAcc>1.456023</hAcc><vAcc>0.791701</vAcc></extensions></trkpt>
      <trkpt lon="-3.028736" lat="52.713675"><ele>362.812317</ele><time>2022-01-15T13:19:31Z</time><extensions><speed>1.515456</speed><course>244.404755</course><hAcc>1.426243</hAcc><vAcc>0.792358</vAcc></extensions></trkpt>
      <trkpt lon="-3.028756" lat="52.713668"><ele>362.783081</ele><time>2022-01-15T13:19:32Z</time><extensions><speed>1.537761</speed><course>244.605057</course><hAcc>1.430582</hAcc><vAcc>0.793044</vAcc></extensions></trkpt>
      <trkpt lon="-3.028776" lat="52.713662"><ele>362.759674</ele><time>2022-01-15T13:19:33Z</time><extensions><speed>1.527972</speed><course>242.566772</course><hAcc>1.428755</hAcc><vAcc>0.793748</vAcc></extensions></trkpt>
      <trkpt lon="-3.028796" lat="52.713655"><ele>362.725159</ele><time>2022-01-15T13:19:34Z</time><extensions><speed>1.531854</speed><course>240.345276</course><hAcc>1.421052</hAcc><vAcc>0.794475</vAcc></extensions></trkpt>
      <trkpt lon="-3.028815" lat="52.713648"><ele>362.691498</ele><time>2022-01-15T13:19:35Z</time><extensions><speed>1.541002</speed><course>238.830368</course><hAcc>1.404534</hAcc><vAcc>0.795226</vAcc></extensions></trkpt>
      <trkpt lon="-3.028834" lat="52.713641"><ele>362.625122</ele><time>2022-01-15T13:19:36Z</time><extensions><speed>1.476106</speed><course>235.606796</course><hAcc>1.404573</hAcc><vAcc>0.795937</vAcc></extensions></trkpt>
      <trkpt lon="-3.028851" lat="52.713633"><ele>362.550751</ele><time>2022-01-15T13:19:37Z</time><extensions><speed>1.436655</speed><course>232.279785</course><hAcc>1.408049</hAcc><vAcc>0.796593</vAcc></extensions></trkpt>
      <trkpt lon="-3.028867" lat="52.713625"><ele>362.475006</ele><time>2022-01-15T13:19:38Z</time><extensions><speed>1.467732</speed><course>227.474930</course><hAcc>1.387953</hAcc><vAcc>0.797167</vAcc></extensions></trkpt>
      <trkpt lon="-3.028884" lat="52.713616"><ele>362.415039</ele><time>2022-01-15T13:19:39Z</time><extensions><speed>1.522059</speed><course>227.847336</course><hAcc>1.397137</hAcc><vAcc>0.797639</vAcc></extensions></trkpt>
      <trkpt lon="-3.028901" lat="52.713606"><ele>362.378815</ele><time>2022-01-15T13:19:40Z</time><extensions><speed>1.591815</speed><course>227.317169</course><hAcc>1.412232</hAcc><vAcc>0.797990</vAcc></extensions></trkpt>
      <trkpt lon="-3.028918" lat="52.713597"><ele>362.365906</ele><time>2022-01-15T13:19:41Z</time><extensions><speed>1.552960</speed><course>230.080704</course><hAcc>1.423159</hAcc><vAcc>0.798238</vAcc></extensions></trkpt>
      <trkpt lon="-3.028935" lat="52.713588"><ele>362.364990</ele><time>2022-01-15T13:19:42Z</time><extensions><speed>1.591239</speed><course>225.715317</course><hAcc>1.418859</hAcc><vAcc>0.798369</vAcc></extensions></trkpt>
      <trkpt lon="-3.028951" lat="52.713577"><ele>362.368378</ele><time>2022-01-15T13:19:43Z</time><extensions><speed>1.587882</speed><course>222.049591</course><hAcc>1.431872</hAcc><vAcc>0.798389</vAcc></extensions></trkpt>
      <trkpt lon="-3.028968" lat="52.713567"><ele>362.359375</ele><time>2022-01-15T13:19:44Z</time><extensions><speed>1.578457</speed><course>225.326874</course><hAcc>1.430693</hAcc><vAcc>0.798306</vAcc></extensions></trkpt>
      <trkpt lon="-3.028985" lat="52.713558"><ele>362.356812</ele><time>2022-01-15T13:19:45Z</time><extensions><speed>1.533306</speed><course>230.611938</course><hAcc>1.419405</hAcc><vAcc>0.798144</vAcc></extensions></trkpt>
      <trkpt lon="-3.029002" lat="52.713549"><ele>362.347595</ele><time>2022-01-15T13:19:46Z</time><extensions><speed>1.537671</speed><course>234.186996</course><hAcc>1.427160</hAcc><vAcc>0.797905</vAcc></extensions></trkpt>
      <trkpt lon="-3.029021" lat="52.713541"><ele>362.371948</ele><time>2022-01-15T13:19:47Z</time><extensions><speed>1.550670</speed><course>236.317947</course><hAcc>1.458558</hAcc><vAcc>0.797617</vAcc></extensions></trkpt>
      <trkpt lon="-3.029040" lat="52.713534"><ele>362.415802</ele><time>2022-01-15T13:19:48Z</time><extensions><speed>1.572535</speed><course>237.722290</course><hAcc>1.453362</hAcc><vAcc>0.797343</vAcc></extensions></trkpt>
      <trkpt lon="-3.029060" lat="52.713526"><ele>362.481354</ele><time>2022-01-15T13:19:49Z</time><extensions><speed>1.612343</speed><course>237.637650</course><hAcc>1.445319</hAcc><vAcc>0.797067</vAcc></extensions></trkpt>
      <trkpt lon="-3.029080" lat="52.713518"><ele>362.547760</ele><time>2022-01-15T13:19:50Z</time><extensions><speed>1.609806</speed><course>237.421951</course><hAcc>1.440271</hAcc><vAcc>0.796798</vAcc></extensions></trkpt>
      <trkpt lon="-3.029100" lat="52.713510"><ele>362.636505</ele><time>2022-01-15T13:19:51Z</time><extensions><speed>1.592982</speed><course>236.084381</course><hAcc>1.427883</hAcc><vAcc>0.796560</vAcc></extensions></trkpt>
      <trkpt lon="-3.029119" lat="52.713502"><ele>362.741852</ele><time>2022-01-15T13:19:52Z</time><extensions><speed>1.596561</speed><course>237.362228</course><hAcc>1.423885</hAcc><vAcc>0.796383</vAcc></extensions></trkpt>
      <trkpt lon="-3.029139" lat="52.713495"><ele>362.838989</ele><time>2022-01-15T13:19:53Z</time><extensions><speed>1.625069</speed><course>235.889313</course><hAcc>1.430776</hAcc><vAcc>0.796263</vAcc></extensions></trkpt>
      <trkpt lon="-3.029159" lat="52.713486"><ele>362.941010</ele><time>2022-01-15T13:19:54Z</time><extensions><speed>1.612360</speed><course>235.314987</course><hAcc>1.408879</hAcc><vAcc>0.796210</vAcc></extensions></trkpt>
      <trkpt lon="-3.029179" lat="52.713478"><ele>363.015472</ele><time>2022-01-15T13:19:55Z</time><extensions><speed>1.615350</speed><course>235.587662</course><hAcc>1.398965</hAcc><vAcc>0.796226</vAcc></extensions></trkpt>
      <trkpt lon="-3.029198" lat="52.713470"><ele>363.108032</ele><time>2022-01-15T13:19:56Z</time><extensions><speed>1.614638</speed><course>234.564850</course><hAcc>1.390857</hAcc><vAcc>0.796292</vAcc></extensions></trkpt>
      <trkpt lon="-3.029217" lat="52.713461"><ele>363.180481</ele><time>2022-01-15T13:19:57Z</time><extensions><speed>1.614705</speed><course>230.156052</course><hAcc>1.390902</hAcc><vAcc>0.796404</vAcc></extensions></trkpt>
      <trkpt lon="-3.029235" lat="52.713452"><ele>363.288025</ele><time>2022-01-15T13:19:58Z</time><extensions><speed>1.581229</speed><course>226.333359</course><hAcc>1.395344</hAcc><vAcc>0.796520</vAcc></extensions></trkpt>
      <trkpt lon="-3.029252" lat="52.713442"><ele>363.390961</ele><time>2022-01-15T13:19:59Z</time><extensions><speed>1.581311</speed><course>225.674316</course><hAcc>1.388777</hAcc><vAcc>0.796637</vAcc></extensions></trkpt>
      <trkpt lon="-3.029269" lat="52.713432"><ele>363.488892</ele><time>2022-01-15T13:20:00Z</time><extensions><speed>1.645485</speed><course>225.899094</course><hAcc>1.372562</hAcc><vAcc>0.796733</vAcc></extensions></trkpt>
      <trkpt lon="-3.029287" lat="52.713422"><ele>363.545288</ele><time>2022-01-15T13:20:01Z</time><extensions><speed>1.657645</speed><course>227.672318</course><hAcc>1.379524</hAcc><vAcc>0.796799</vAcc></extensions></trkpt>
      <trkpt lon="-3.029305" lat="52.713412"><ele>363.607544</ele><time>2022-01-15T13:20:02Z</time><extensions><speed>1.611299</speed><course>229.947220</course><hAcc>1.380475</hAcc><vAcc>0.796821</vAcc></extensions></trkpt>
      <trkpt lon="-3.029323" lat="52.713403"><ele>363.680756</ele><time>2022-01-15T13:20:03Z</time><extensions><speed>1.655125</speed><course>232.520187</course><hAcc>1.377435</hAcc><vAcc>0.796809</vAcc></extensions></trkpt>
      <trkpt lon="-3.029343" lat="52.713394"><ele>363.776978</ele><time>2022-01-15T13:20:04Z</time><extensions><speed>1.663920</speed><course>233.072632</course><hAcc>1.380887</hAcc><vAcc>0.796735</vAcc></extensions></trkpt>
      <trkpt lon="-3.029363" lat="52.713386"><ele>363.893066</ele><time>2022-01-15T13:20:05Z</time><extensions><speed>1.642532</speed><course>234.651199</course><hAcc>1.385809</hAcc><vAcc>0.796598</vAcc></extensions></trkpt>
      <trkpt lon="-3.029383" lat="52.713377"><ele>363.998932</ele><time>2022-01-15T13:20:06Z</time><extensions><speed>1.672650</speed><course>235.349976</course><hAcc>1.401409</hAcc><vAcc>0.796413</vAcc></extensions></trkpt>
      <trkpt lon="-3.029403" lat="52.713369"><ele>364.114960</ele><time>2022-01-15T13:20:07Z</time><extensions><speed>1.656162</speed><course>235.044067</course><hAcc>1.399641</hAcc><vAcc>0.796194</vAcc></extensions></trkpt>
      <trkpt lon="-3.029422" lat="52.713361"><ele>364.236908</ele><time>2022-01-15T13:20:08Z</time><extensions><speed>1.616228</speed><course>233.372025</course><hAcc>1.389027</hAcc><vAcc>0.795955</vAcc></extensions></trkpt>
      <trkpt lon="-3.029441" lat="52.713352"><ele>364.372467</ele><time>2022-01-15T13:20:09Z</time><extensions><speed>1.613885</speed><course>232.866730</course><hAcc>1.394165</hAcc><vAcc>0.795741</vAcc></extensions></trkpt>
      <trkpt lon="-3.029460" lat="52.713343"><ele>364.499847</ele><time>2022-01-15T13:20:10Z</time><extensions><speed>1.629074</speed><course>232.028885</course><hAcc>1.401347</hAcc><vAcc>0.795560</vAcc></extensions></trkpt>
      <trkpt lon="-3.029478" lat="52.713335"><ele>364.644775</ele><time>2022-01-15T13:20:11Z</time><extensions><speed>1.575814</speed><course>231.786819</course><hAcc>1.401425</hAcc><vAcc>0.795422</vAcc></extensions></trkpt>
      <trkpt lon="-3.029497" lat="52.713326"><ele>364.797302</ele><time>2022-01-15T13:20:12Z</time><extensions><speed>1.598360</speed><course>231.096268</course><hAcc>1.396534</hAcc><vAcc>0.795329</vAcc></extensions></trkpt>
      <trkpt lon="-3.029514" lat="52.713317"><ele>364.961487</ele><time>2022-01-15T13:20:13Z</time><extensions><speed>1.566631</speed><course>229.824860</course><hAcc>1.386547</hAcc><vAcc>0.795262</vAcc></extensions></trkpt>
      <trkpt lon="-3.029532" lat="52.713309"><ele>365.129700</ele><time>2022-01-15T13:20:14Z</time><extensions><speed>1.510350</speed><course>231.772797</course><hAcc>1.390804</hAcc><vAcc>0.795197</vAcc></extensions></trkpt>
      <trkpt lon="-3.029549" lat="52.713301"><ele>365.293091</ele><time>2022-01-15T13:20:15Z</time><extensions><speed>1.479999</speed><course>235.372635</course><hAcc>1.393520</hAcc><vAcc>0.795166</vAcc></extensions></trkpt>
      <trkpt lon="-3.029568" lat="52.713294"><ele>365.450806</ele><time>2022-01-15T13:20:16Z</time><extensions><speed>1.574995</speed><course>237.361771</course><hAcc>1.391095</hAcc><vAcc>0.795174</vAcc></extensions></trkpt>
      <trkpt lon="-3.029588" lat="52.713287"><ele>365.615173</ele><time>2022-01-15T13:20:17Z</time><extensions><speed>1.585531</speed><course>237.417587</course><hAcc>1.392688</hAcc><vAcc>0.795226</vAcc></extensions></trkpt>
      <trkpt lon="-3.029607" lat="52.713280"><ele>365.765625</ele><time>2022-01-15T13:20:18Z</time><extensions><speed>1.534008</speed><course>237.965393</course><hAcc>1.386652</hAcc><vAcc>0.795325</vAcc></extensions></trkpt>
      <trkpt lon="-3.029626" lat="52.713273"><ele>365.901367</ele><time>2022-01-15T13:20:19Z</time><extensions><speed>1.551494</speed><course>236.323990</course><hAcc>1.393276</hAcc><vAcc>0.795495</vAcc></extensions></trkpt>
      <trkpt lon="-3.029644" lat="52.713265"><ele>366.031464</ele><time>2022-01-15T13:20:20Z</time><extensions><speed>1.506387</speed><course>237.988358</course><hAcc>1.386495</hAcc><vAcc>0.795723</vAcc></extensions></trkpt>
      <trkpt lon="-3.029663" lat="52.713259"><ele>366.116150</ele><time>2022-01-15T13:20:21Z</time><extensions><speed>1.501203</speed><course>238.041946</course><hAcc>1.398002</hAcc><vAcc>0.796002</vAcc></extensions></trkpt>
      <trkpt lon="-3.029682" lat="52.713252"><ele>366.194916</ele><time>2022-01-15T13:20:22Z</time><extensions><speed>1.564141</speed><course>238.985489</course><hAcc>1.417882</hAcc><vAcc>0.796354</vAcc></extensions></trkpt>
      <trkpt lon="-3.029701" lat="52.713245"><ele>366.302002</ele><time>2022-01-15T13:20:23Z</time><extensions><speed>1.474289</speed><course>239.766769</course><hAcc>1.406274</hAcc><vAcc>0.796771</vAcc></extensions></trkpt>
      <trkpt lon="-3.029721" lat="52.713238"><ele>366.400238</ele><time>2022-01-15T13:20:24Z</time><extensions><speed>1.557704</speed><course>241.180328</course><hAcc>1.429435</hAcc><vAcc>0.797324</vAcc></extensions></trkpt>
      <trkpt lon="-3.029741" lat="52.713232"><ele>366.486267</ele><time>2022-01-15T13:20:25Z</time><extensions><speed>1.553105</speed><course>242.009140</course><hAcc>1.442175</hAcc><vAcc>0.797927</vAcc></extensions></trkpt>
      <trkpt lon="-3.029761" lat="52.713226"><ele>366.573883</ele><time>2022-01-15T13:20:26Z</time><extensions><speed>1.480934</speed><course>245.103638</course><hAcc>1.455525</hAcc><vAcc>0.798593</vAcc></extensions></trkpt>
      <trkpt lon="-3.029781" lat="52.713221"><ele>366.654510</ele><time>2022-01-15T13:20:27Z</time><extensions><speed>1.476543</speed><course>247.786911</course><hAcc>1.493430</hAcc><vAcc>0.799275</vAcc></extensions></trkpt>
      <trkpt lon="-3.029800" lat="52.713216"><ele>366.690460</ele><time>2022-01-15T13:20:28Z</time><extensions><speed>1.345344</speed><course>248.535370</course><hAcc>1.524233</hAcc><vAcc>0.799912</vAcc></extensions></trkpt>
      <trkpt lon="-3.029817" lat="52.713212"><ele>366.699310</ele><time>2022-01-15T13:20:29Z</time><extensions><speed>1.096361</speed><course>252.228806</course><hAcc>1.538350</hAcc><vAcc>0.800404</vAcc></extensions></trkpt>
      <trkpt lon="-3.029831" lat="52.713210"><ele>366.701416</ele><time>2022-01-15T13:20:30Z</time><extensions><speed>0.810423</speed><course>263.509552</course><hAcc>1.557882</hAcc><vAcc>0.800833</vAcc></extensions></trkpt>
      <trkpt lon="-3.029842" lat="52.713210"><ele>366.716614</ele><time>2022-01-15T13:20:31Z</time><extensions><speed>0.721263</speed><course>271.418671</course><hAcc>1.604558</hAcc><vAcc>0.801105</vAcc></extensions></trkpt>
      <trkpt lon="-3.029853" lat="52.713210"><ele>366.703186</ele><time>2022-01-15T13:20:32Z</time><extensions><speed>0.716820</speed><course>271.934875</course><hAcc>1.647213</hAcc><vAcc>0.801246</vAcc></extensions></trkpt>
      <trkpt lon="-3.029864" lat="52.713210"><ele>366.685669</ele><time>2022-01-15T13:20:33Z</time><extensions><speed>0.775237</speed><course>264.454681</course><hAcc>1.690566</hAcc><vAcc>0.801097</vAcc></extensions></trkpt>
      <trkpt lon="-3.029875" lat="52.713209"><ele>366.654327</ele><time>2022-01-15T13:20:34Z</time><extensions><speed>0.756490</speed><course>259.937256</course><hAcc>1.689467</hAcc><vAcc>0.800581</vAcc></extensions></trkpt>
      <trkpt lon="-3.029886" lat="52.713208"><ele>366.604095</ele><time>2022-01-15T13:20:35Z</time><extensions><speed>0.770866</speed><course>256.365875</course><hAcc>1.703020</hAcc><vAcc>0.799728</vAcc></extensions></trkpt>
      <trkpt lon="-3.029897" lat="52.713206"><ele>366.553497</ele><time>2022-01-15T13:20:36Z</time><extensions><speed>0.772846</speed><course>253.836197</course><hAcc>1.734252</hAcc><vAcc>0.798824</vAcc></extensions></trkpt>
      <trkpt lon="-3.029907" lat="52.713204"><ele>366.496857</ele><time>2022-01-15T13:20:37Z</time><extensions><speed>0.692538</speed><course>255.293747</course><hAcc>1.726717</hAcc><vAcc>0.797841</vAcc></extensions></trkpt>
      <trkpt lon="-3.029916" lat="52.713203"><ele>366.427368</ele><time>2022-01-15T13:20:38Z</time><extensions><speed>0.569885</speed><course>256.072113</course><hAcc>1.727677</hAcc><vAcc>0.796780</vAcc></extensions></trkpt>
      <trkpt lon="-3.029924" lat="52.713202"><ele>366.345184</ele><time>2022-01-15T13:20:39Z</time><extensions><speed>0.469085</speed><course>253.014465</course><hAcc>1.738617</hAcc><vAcc>0.795672</vAcc></extensions></trkpt>
      <trkpt lon="-3.029930" lat="52.713200"><ele>366.264465</ele><time>2022-01-15T13:20:40Z</time><extensions><speed>0.405041</speed><course>247.333771</course><hAcc>1.754647</hAcc><vAcc>0.794698</vAcc></extensions></trkpt>
      <trkpt lon="-3.029934" lat="52.713199"><ele>366.176208</ele><time>2022-01-15T13:20:41Z</time><extensions><speed>0.279821</speed><course>246.256927</course><hAcc>1.778318</hAcc><vAcc>0.793912</vAcc></extensions></trkpt>
      <trkpt lon="-3.029936" lat="52.713199"><ele>366.086517</ele><time>2022-01-15T13:20:42Z</time><extensions><speed>0.056197</speed><course>341.951416</course><hAcc>1.800742</hAcc><vAcc>0.793408</vAcc></extensions></trkpt>
      <trkpt lon="-3.029936" lat="52.713200"><ele>366.000671</ele><time>2022-01-15T13:20:43Z</time><extensions><speed>0.152646</speed><course>25.167845</course><hAcc>1.786796</hAcc><vAcc>0.793232</vAcc></extensions></trkpt>
      <trkpt lon="-3.029935" lat="52.713201"><ele>365.910217</ele><time>2022-01-15T13:20:44Z</time><extensions><speed>0.177006</speed><course>25.784937</course><hAcc>1.779703</hAcc><vAcc>0.793450</vAcc></extensions></trkpt>
      <trkpt lon="-3.029934" lat="52.713202"><ele>365.829102</ele><time>2022-01-15T13:20:45Z</time><extensions><speed>0.155147</speed><course>24.581348</course><hAcc>1.784548</hAcc><vAcc>0.794082</vAcc></extensions></trkpt>
      <trkpt lon="-3.029933" lat="52.713203"><ele>365.756561</ele><time>2022-01-15T13:20:46Z</time><extensions><speed>0.107618</speed><course>25.312729</course><hAcc>1.793097</hAcc><vAcc>0.795106</vAcc></extensions></trkpt>
      <trkpt lon="-3.029933" lat="52.713204"><ele>365.697937</ele><time>2022-01-15T13:20:47Z</time><extensions><speed>0.056850</speed><course>28.194448</course><hAcc>1.791501</hAcc><vAcc>0.796462</vAcc></extensions></trkpt>
      <trkpt lon="-3.029932" lat="52.713204"><ele>365.638031</ele><time>2022-01-15T13:20:48Z</time><extensions><speed>0.016697</speed><course>39.466129</course><hAcc>1.782226</hAcc><vAcc>0.798060</vAcc></extensions></trkpt>
      <trkpt lon="-3.029932" lat="52.713205"><ele>365.576935</ele><time>2022-01-15T13:20:49Z</time><extensions><speed>0.002454</speed><course>60.143871</course><hAcc>1.774114</hAcc><vAcc>0.799828</vAcc></extensions></trkpt>
      <trkpt lon="-3.029932" lat="52.713205"><ele>365.527863</ele><time>2022-01-15T13:20:50Z</time><extensions><speed>0.020837</speed><course>359.174744</course><hAcc>1.766097</hAcc><vAcc>0.801689</vAcc></extensions></trkpt>
      <trkpt lon="-3.029932" lat="52.713205"><ele>365.483368</ele><time>2022-01-15T13:20:51Z</time><extensions><speed>0.055162</speed><course>0.804236</course><hAcc>1.762485</hAcc><vAcc>0.803564</vAcc></extensions></trkpt>
      <trkpt lon="-3.029932" lat="52.713206"><ele>365.443146</ele><time>2022-01-15T13:20:52Z</time><extensions><speed>0.089225</speed><course>3.557141</course><hAcc>1.765638</hAcc><vAcc>0.805388</vAcc></extensions></trkpt>
      <trkpt lon="-3.029932" lat="52.713207"><ele>365.406738</ele><time>2022-01-15T13:20:53Z</time><extensions><speed>0.126777</speed><course>6.649962</course><hAcc>1.752600</hAcc><vAcc>0.807104</vAcc></extensions></trkpt>
      <trkpt lon="-3.029932" lat="52.713208"><ele>365.370697</ele><time>2022-01-15T13:20:54Z</time><extensions><speed>0.154780</speed><course>9.917345</course><hAcc>1.733601</hAcc><vAcc>0.808664</vAcc></extensions></trkpt>
      <trkpt lon="-3.029931" lat="52.713209"><ele>365.339630</ele><time>2022-01-15T13:20:55Z</time><extensions><speed>0.162892</speed><course>13.601687</course><hAcc>1.723318</hAcc><vAcc>0.810028</vAcc></extensions></trkpt>
      <trkpt lon="-3.029930" lat="52.713211"><ele>365.312195</ele><time>2022-01-15T13:20:56Z</time><extensions><speed>0.165340</speed><course>18.220055</course><hAcc>1.716473</hAcc><vAcc>0.811174</vAcc></extensions></trkpt>
      <trkpt lon="-3.029929" lat="52.713212"><ele>365.287903</ele><time>2022-01-15T13:20:57Z</time><extensions><speed>0.157177</speed><course>24.766483</course><hAcc>1.730085</hAcc><vAcc>0.812077</vAcc></extensions></trkpt>
      <trkpt lon="-3.029928" lat="52.713213"><ele>365.265289</ele><time>2022-01-15T13:20:58Z</time><extensions><speed>0.125381</speed><course>34.715218</course><hAcc>1.761885</hAcc><vAcc>0.812768</vAcc></extensions></trkpt>
      <trkpt lon="-3.029927" lat="52.713214"><ele>365.248322</ele><time>2022-01-15T13:20:59Z</time><extensions><speed>0.172340</speed><course>44.709957</course><hAcc>1.733049</hAcc><vAcc>0.813298</vAcc></extensions></trkpt>
      <trkpt lon="-3.029925" lat="52.713215"><ele>365.233582</ele><time>2022-01-15T13:21:00Z</time><extensions><speed>0.195990</speed><course>52.445442</course><hAcc>1.721096</hAcc><vAcc>0.813652</vAcc></extensions></trkpt>
      <trkpt lon="-3.029922" lat="52.713217"><ele>365.223969</ele><time>2022-01-15T13:21:01Z</time><extensions><speed>0.211717</speed><course>57.590702</course><hAcc>1.729777</hAcc><vAcc>0.813839</vAcc></extensions></trkpt>
      <trkpt lon="-3.029919" lat="52.713218"><ele>365.213287</ele><time>2022-01-15T13:21:02Z</time><extensions><speed>0.229712</speed><course>58.662090</course><hAcc>1.742917</hAcc><vAcc>0.813871</vAcc></extensions></trkpt>
      <trkpt lon="-3.029916" lat="52.713219"><ele>365.207581</ele><time>2022-01-15T13:21:03Z</time><extensions><speed>0.257764</speed><course>57.163151</course><hAcc>1.754335</hAcc><vAcc>0.813612</vAcc></extensions></trkpt>
      <trkpt lon="-3.029913" lat="52.713220"><ele>365.192810</ele><time>2022-01-15T13:21:04Z</time><extensions><speed>0.301955</speed><course>55.249062</course><hAcc>1.759894</hAcc><vAcc>0.813175</vAcc></extensions></trkpt>
      <trkpt lon="-3.029909" lat="52.713222"><ele>365.171875</ele><time>2022-01-15T13:21:05Z</time><extensions><speed>0.338677</speed><course>53.991238</course><hAcc>1.763162</hAcc><vAcc>0.812637</vAcc></extensions></trkpt>
      <trkpt lon="-3.029905" lat="52.713224"><ele>365.162567</ele><time>2022-01-15T13:21:06Z</time><extensions><speed>0.354584</speed><course>53.043644</course><hAcc>1.764975</hAcc><vAcc>0.811967</vAcc></extensions></trkpt>
      <trkpt lon="-3.029901" lat="52.713226"><ele>365.156891</ele><time>2022-01-15T13:21:07Z</time><extensions><speed>0.343579</speed><course>51.887047</course><hAcc>1.765907</hAcc><vAcc>0.811192</vAcc></extensions></trkpt>
      <trkpt lon="-3.029897" lat="52.713227"><ele>365.156006</ele><time>2022-01-15T13:21:08Z</time><extensions><speed>0.296685</speed><course>50.694359</course><hAcc>1.769762</hAcc><vAcc>0.810248</vAcc></extensions></trkpt>
      <trkpt lon="-3.029894" lat="52.713229"><ele>365.152527</ele><time>2022-01-15T13:21:09Z</time><extensions><speed>0.221354</speed><course>47.524277</course><hAcc>1.773898</hAcc><vAcc>0.809182</vAcc></extensions></trkpt>
      <trkpt lon="-3.029892" lat="52.713230"><ele>365.149780</ele><time>2022-01-15T13:21:10Z</time><extensions><speed>0.137817</speed><course>34.538330</course><hAcc>1.772695</hAcc><vAcc>0.807941</vAcc></extensions></trkpt>
      <trkpt lon="-3.029892" lat="52.713231"><ele>365.147552</ele><time>2022-01-15T13:21:11Z</time><extensions><speed>0.076837</speed><course>341.184906</course><hAcc>1.772714</hAcc><vAcc>0.806582</vAcc></extensions></trkpt>
      <trkpt lon="-3.029893" lat="52.713231"><ele>365.145050</ele><time>2022-01-15T13:21:12Z</time><extensions><speed>0.139161</speed><course>279.537140</course><hAcc>1.774423</hAcc><vAcc>0.805130</vAcc></extensions></trkpt>
      <trkpt lon="-3.029896" lat="52.713231"><ele>365.142761</ele><time>2022-01-15T13:21:13Z</time><extensions><speed>0.277392</speed><course>262.859863</course><hAcc>1.772759</hAcc><vAcc>0.803547</vAcc></extensions></trkpt>
      <trkpt lon="-3.029902" lat="52.713231"><ele>365.137756</ele><time>2022-01-15T13:21:14Z</time><extensions><speed>0.469411</speed><course>256.521851</course><hAcc>1.776082</hAcc><vAcc>0.801894</vAcc></extensions></trkpt>
      <trkpt lon="-3.029908" lat="52.713230"><ele>365.134033</ele><time>2022-01-15T13:21:15Z</time><extensions><speed>0.452097</speed><course>258.007477</course><hAcc>1.772006</hAcc><vAcc>0.800239</vAcc></extensions></trkpt>
      <trkpt lon="-3.029914" lat="52.713229"><ele>365.130707</ele><time>2022-01-15T13:21:16Z</time><extensions><speed>0.281831</speed><course>261.514191</course><hAcc>1.755419</hAcc><vAcc>0.798568</vAcc></extensions></trkpt>
      <trkpt lon="-3.029916" lat="52.713229"><ele>365.127563</ele><time>2022-01-15T13:21:17Z</time><extensions><speed>0.099826</speed><course>284.815674</course><hAcc>1.749314</hAcc><vAcc>0.796868</vAcc></extensions></trkpt>
      <trkpt lon="-3.029917" lat="52.713230"><ele>365.124390</ele><time>2022-01-15T13:21:18Z</time><extensions><speed>0.060049</speed><course>351.144104</course><hAcc>1.763248</hAcc><vAcc>0.795164</vAcc></extensions></trkpt>
      <trkpt lon="-3.029917" lat="52.713230"><ele>365.111176</ele><time>2022-01-15T13:21:19Z</time><extensions><speed>0.069401</speed><course>23.125439</course><hAcc>1.792073</hAcc><vAcc>0.793440</vAcc></extensions></trkpt>
      <trkpt lon="-3.029916" lat="52.713231"><ele>365.109436</ele><time>2022-01-15T13:21:20Z</time><extensions><speed>0.105397</speed><course>31.086603</course><hAcc>1.764181</hAcc><vAcc>0.791805</vAcc></extensions></trkpt>
      <trkpt lon="-3.029915" lat="52.713232"><ele>365.099976</ele><time>2022-01-15T13:21:21Z</time><extensions><speed>0.117390</speed><course>33.394405</course><hAcc>1.750753</hAcc><vAcc>0.790203</vAcc></extensions></trkpt>
      <trkpt lon="-3.029914" lat="52.713232"><ele>365.091614</ele><time>2022-01-15T13:21:22Z</time><extensions><speed>0.112780</speed><course>35.917618</course><hAcc>1.749225</hAcc><vAcc>0.788577</vAcc></extensions></trkpt>
      <trkpt lon="-3.029914" lat="52.713233"><ele>365.077332</ele><time>2022-01-15T13:21:23Z</time><extensions><speed>0.096376</speed><course>41.071285</course><hAcc>1.746246</hAcc><vAcc>0.787078</vAcc></extensions></trkpt>
      <trkpt lon="-3.029913" lat="52.713234"><ele>365.060272</ele><time>2022-01-15T13:21:24Z</time><extensions><speed>0.080955</speed><course>47.806320</course><hAcc>1.742082</hAcc><vAcc>0.785709</vAcc></extensions></trkpt>
      <trkpt lon="-3.029912" lat="52.713234"><ele>365.050171</ele><time>2022-01-15T13:21:25Z</time><extensions><speed>0.064732</speed><course>56.402996</course><hAcc>1.743015</hAcc><vAcc>0.784385</vAcc></extensions></trkpt>
      <trkpt lon="-3.029911" lat="52.713234"><ele>365.041046</ele><time>2022-01-15T13:21:26Z</time><extensions><speed>0.055392</speed><course>69.084854</course><hAcc>1.742427</hAcc><vAcc>0.783170</vAcc></extensions></trkpt>
      <trkpt lon="-3.029910" lat="52.713235"><ele>365.028503</ele><time>2022-01-15T13:21:27Z</time><extensions><speed>0.050253</speed><course>83.393440</course><hAcc>1.756077</hAcc><vAcc>0.782003</vAcc></extensions></trkpt>
      <trkpt lon="-3.029910" lat="52.713235"><ele>365.015747</ele><time>2022-01-15T13:21:28Z</time><extensions><speed>0.044292</speed><course>98.666969</course><hAcc>1.776720</hAcc><vAcc>0.780878</vAcc></extensions></trkpt>
      <trkpt lon="-3.029909" lat="52.713234"><ele>365.003662</ele><time>2022-01-15T13:21:29Z</time><extensions><speed>0.054383</speed><course>116.526817</course><hAcc>1.748927</hAcc><vAcc>0.779907</vAcc></extensions></trkpt>
      <trkpt lon="-3.029908" lat="52.713234"><ele>364.984406</ele><time>2022-01-15T13:21:30Z</time><extensions><speed>0.051682</speed><course>139.169846</course><hAcc>1.745232</hAcc><vAcc>0.779139</vAcc></extensions></trkpt>
      <trkpt lon="-3.029908" lat="52.713234"><ele>364.961090</ele><time>2022-01-15T13:21:31Z</time><extensions><speed>0.050835</speed><course>152.732849</course><hAcc>1.765244</hAcc><vAcc>0.778553</vAcc></extensions></trkpt>
      <trkpt lon="-3.029907" lat="52.713233"><ele>364.935150</ele><time>2022-01-15T13:21:32Z</time><extensions><speed>0.050302</speed><course>157.815582</course><hAcc>1.788002</hAcc><vAcc>0.778227</vAcc></extensions></trkpt>
      <trkpt lon="-3.029907" lat="52.713233"><ele>364.905914</ele><time>2022-01-15T13:21:33Z</time><extensions><speed>0.050208</speed><course>161.224182</course><hAcc>1.804893</hAcc><vAcc>0.778123</vAcc></extensions></trkpt>
      <trkpt lon="-3.029907" lat="52.713232"><ele>364.878571</ele><time>2022-01-15T13:21:34Z</time><extensions><speed>0.053395</speed><course>165.005066</course><hAcc>1.814785</hAcc><vAcc>0.778312</vAcc></extensions></trkpt>
      <trkpt lon="-3.029907" lat="52.713232"><ele>364.850281</ele><time>2022-01-15T13:21:35Z</time><extensions><speed>0.065718</speed><course>166.869919</course><hAcc>1.817755</hAcc><vAcc>0.778808</vAcc></extensions></trkpt>
      <trkpt lon="-3.029907" lat="52.713231"><ele>364.820984</ele><time>2022-01-15T13:21:36Z</time><extensions><speed>0.086067</speed><course>168.566071</course><hAcc>1.818716</hAcc><vAcc>0.779577</vAcc></extensions></trkpt>
      <trkpt lon="-3.029906" lat="52.713230"><ele>364.787964</ele><time>2022-01-15T13:21:37Z</time><extensions><speed>0.111588</speed><course>173.558929</course><hAcc>1.815878</hAcc><vAcc>0.780598</vAcc></extensions></trkpt>
      <trkpt lon="-3.029906" lat="52.713229"><ele>364.790894</ele><time>2022-01-15T13:21:38Z</time><extensions><speed>0.139990</speed><course>182.298584</course><hAcc>1.808501</hAcc><vAcc>0.781752</vAcc></extensions></trkpt>
      <trkpt lon="-3.029907" lat="52.713228"><ele>364.787567</ele><time>2022-01-15T13:21:39Z</time><extensions><speed>0.171346</speed><course>193.808563</course><hAcc>1.793809</hAcc><vAcc>0.782893</vAcc></extensions></trkpt>
      <trkpt lon="-3.029908" lat="52.713226"><ele>364.777893</ele><time>2022-01-15T13:21:40Z</time><extensions><speed>0.208992</speed><course>204.518921</course><hAcc>1.766304</hAcc><vAcc>0.783732</vAcc></extensions></trkpt>
      <trkpt lon="-3.029909" lat="52.713224"><ele>364.779724</ele><time>2022-01-15T13:21:41Z</time><extensions><speed>0.250577</speed><course>214.188126</course><hAcc>1.741365</hAcc><vAcc>0.784064</vAcc></extensions></trkpt>
      <trkpt lon="-3.029911" lat="52.713223"><ele>364.796417</ele><time>2022-01-15T13:21:42Z</time><extensions><speed>0.138885</speed><course>209.391617</course><hAcc>1.749522</hAcc><vAcc>0.784135</vAcc></extensions></trkpt>
      <trkpt lon="-3.029912" lat="52.713222"><ele>364.823853</ele><time>2022-01-15T13:21:43Z</time><extensions><speed>0.067529</speed><course>205.577820</course><hAcc>1.758817</hAcc><vAcc>0.783645</vAcc></extensions></trkpt>
      <trkpt lon="-3.029912" lat="52.713222"><ele>364.802948</ele><time>2022-01-15T13:21:44Z</time><extensions><speed>0.048313</speed><course>210.369385</course><hAcc>1.735515</hAcc><vAcc>0.782664</vAcc></extensions></trkpt>
      <trkpt lon="-3.029912" lat="52.713221"><ele>364.806030</ele><time>2022-01-15T13:21:45Z</time><extensions><speed>0.035684</speed><course>237.863007</course><hAcc>1.745840</hAcc><vAcc>0.780971</vAcc></extensions></trkpt>
      <trkpt lon="-3.029913" lat="52.713221"><ele>364.806427</ele><time>2022-01-15T13:21:46Z</time><extensions><speed>0.064412</speed><course>263.656982</course><hAcc>1.719882</hAcc><vAcc>0.778431</vAcc></extensions></trkpt>
      <trkpt lon="-3.029914" lat="52.713221"><ele>364.830414</ele><time>2022-01-15T13:21:47Z</time><extensions><speed>0.106459</speed><course>274.348877</course><hAcc>1.708516</hAcc><vAcc>0.774980</vAcc></extensions></trkpt>
      <trkpt lon="-3.029916" lat="52.713221"><ele>364.846893</ele><time>2022-01-15T13:21:48Z</time><extensions><speed>0.162155</speed><course>278.941498</course><hAcc>1.717530</hAcc><vAcc>0.770680</vAcc></extensions></trkpt>
      <trkpt lon="-3.029918" lat="52.713222"><ele>364.855591</ele><time>2022-01-15T13:21:49Z</time><extensions><speed>0.109281</speed><course>305.105164</course><hAcc>1.733143</hAcc><vAcc>0.765426</vAcc></extensions></trkpt>
      <trkpt lon="-3.029919" lat="52.713223"><ele>364.867371</ele><time>2022-01-15T13:21:50Z</time><extensions><speed>0.092057</speed><course>327.982697</course><hAcc>1.737468</hAcc><vAcc>0.759797</vAcc></extensions></trkpt>
      <trkpt lon="-3.029920" lat="52.713223"><ele>364.879730</ele><time>2022-01-15T13:21:51Z</time><extensions><speed>0.066569</speed><course>344.395386</course><hAcc>1.755313</hAcc><vAcc>0.753585</vAcc></extensions></trkpt>
      <trkpt lon="-3.029920" lat="52.713224"><ele>364.895081</ele><time>2022-01-15T13:21:52Z</time><extensions><speed>0.032172</speed><course>4.018990</course><hAcc>1.781733</hAcc><vAcc>0.746904</vAcc></extensions></trkpt>
      <trkpt lon="-3.029920" lat="52.713224"><ele>364.908081</ele><time>2022-01-15T13:21:53Z</time><extensions><speed>0.022494</speed><course>48.781143</course><hAcc>1.763501</hAcc><vAcc>0.739944</vAcc></extensions></trkpt>
      <trkpt lon="-3.029919" lat="52.713224"><ele>364.919830</ele><time>2022-01-15T13:21:54Z</time><extensions><speed>0.024887</speed><course>73.180725</course><hAcc>1.755031</hAcc><vAcc>0.732885</vAcc></extensions></trkpt>
      <trkpt lon="-3.029919" lat="52.713224"><ele>364.937714</ele><time>2022-01-15T13:21:55Z</time><extensions><speed>0.029009</speed><course>51.006210</course><hAcc>1.770371</hAcc><vAcc>0.725857</vAcc></extensions></trkpt>
      <trkpt lon="-3.029919" lat="52.713224"><ele>364.960693</ele><time>2022-01-15T13:21:56Z</time><extensions><speed>0.046967</speed><course>30.788357</course><hAcc>1.787227</hAcc><vAcc>0.719105</vAcc></extensions></trkpt>
      <trkpt lon="-3.029918" lat="52.713225"><ele>364.984314</ele><time>2022-01-15T13:21:57Z</time><extensions><speed>0.067432</speed><course>21.517569</course><hAcc>1.798708</hAcc><vAcc>0.712984</vAcc></extensions></trkpt>
      <trkpt lon="-3.029918" lat="52.713225"><ele>365.008453</ele><time>2022-01-15T13:21:58Z</time><extensions><speed>0.075659</speed><course>19.717360</course><hAcc>1.808822</hAcc><vAcc>0.707909</vAcc></extensions></trkpt>
      <trkpt lon="-3.029917" lat="52.713226"><ele>365.028564</ele><time>2022-01-15T13:21:59Z</time><extensions><speed>0.070066</speed><course>28.870390</course><hAcc>1.834816</hAcc><vAcc>0.704335</vAcc></extensions></trkpt>
      <trkpt lon="-3.029917" lat="52.713226"><ele>365.050690</ele><time>2022-01-15T13:22:00Z</time><extensions><speed>0.055303</speed><course>50.426121</course><hAcc>1.871382</hAcc><vAcc>0.702591</vAcc></extensions></trkpt>
      <trkpt lon="-3.029916" lat="52.713227"><ele>365.071259</ele><time>2022-01-15T13:22:01Z</time><extensions><speed>0.086425</speed><course>67.886322</course><hAcc>1.834252</hAcc><vAcc>0.702756</vAcc></extensions></trkpt>
      <trkpt lon="-3.029914" lat="52.713227"><ele>365.091980</ele><time>2022-01-15T13:22:02Z</time><extensions><speed>0.102712</speed><course>74.474274</course><hAcc>1.819277</hAcc><vAcc>0.704823</vAcc></extensions></trkpt>
      <trkpt lon="-3.029913" lat="52.713227"><ele>365.112854</ele><time>2022-01-15T13:22:03Z</time><extensions><speed>0.104691</speed><course>76.012390</course><hAcc>1.832058</hAcc><vAcc>0.708639</vAcc></extensions></trkpt>
      <trkpt lon="-3.029911" lat="52.713228"><ele>365.129211</ele><time>2022-01-15T13:22:04Z</time><extensions><speed>0.107415</speed><course>71.707870</course><hAcc>1.841230</hAcc><vAcc>0.713863</vAcc></extensions></trkpt>
      <trkpt lon="-3.029910" lat="52.713228"><ele>365.147339</ele><time>2022-01-15T13:22:05Z</time><extensions><speed>0.116528</speed><course>65.548660</course><hAcc>1.839645</hAcc><vAcc>0.720097</vAcc></extensions></trkpt>
      <trkpt lon="-3.029908" lat="52.713228"><ele>365.162140</ele><time>2022-01-15T13:22:06Z</time><extensions><speed>0.125063</speed><course>60.187748</course><hAcc>1.834114</hAcc><vAcc>0.726991</vAcc></extensions></trkpt>
      <trkpt lon="-3.029907" lat="52.713229"><ele>365.176788</ele><time>2022-01-15T13:22:07Z</time><extensions><speed>0.129226</speed><course>55.245964</course><hAcc>1.834729</hAcc><vAcc>0.734222</vAcc></extensions></trkpt>
      <trkpt lon="-3.029905" lat="52.713230"><ele>365.189728</ele><time>2022-01-15T13:22:08Z</time><extensions><speed>0.138270</speed><course>51.177784</course><hAcc>1.828175</hAcc><vAcc>0.741581</vAcc></extensions></trkpt>
      <trkpt lon="-3.029904" lat="52.713231"><ele>365.201538</ele><time>2022-01-15T13:22:09Z</time><extensions><speed>0.132534</speed><course>43.379433</course><hAcc>1.819972</hAcc><vAcc>0.748801</vAcc></extensions></trkpt>
      <trkpt lon="-3.029903" lat="52.713231"><ele>365.205231</ele><time>2022-01-15T13:22:10Z</time><extensions><speed>0.110266</speed><course>31.172268</course><hAcc>1.811998</hAcc><vAcc>0.755659</vAcc></extensions></trkpt>
      <trkpt lon="-3.029902" lat="52.713232"><ele>365.203125</ele><time>2022-01-15T13:22:11Z</time><extensions><speed>0.080928</speed><course>10.992594</course><hAcc>1.804103</hAcc><vAcc>0.761893</vAcc></extensions></trkpt>
      <trkpt lon="-3.029902" lat="52.713233"><ele>365.198181</ele><time>2022-01-15T13:22:12Z</time><extensions><speed>0.066423</speed><course>336.842804</course><hAcc>1.796177</hAcc><vAcc>0.767355</vAcc></extensions></trkpt>
      <trkpt lon="-3.029903" lat="52.713233"><ele>365.189880</ele><time>2022-01-15T13:22:13Z</time><extensions><speed>0.075508</speed><course>311.170959</course><hAcc>1.782447</hAcc><vAcc>0.771997</vAcc></extensions></trkpt>
      <trkpt lon="-3.029904" lat="52.713234"><ele>365.186096</ele><time>2022-01-15T13:22:14Z</time><extensions><speed>0.085017</speed><course>297.947144</course><hAcc>1.769947</hAcc><vAcc>0.775657</vAcc></extensions></trkpt>
      <trkpt lon="-3.029905" lat="52.713234"><ele>365.189972</ele><time>2022-01-15T13:22:15Z</time><extensions><speed>0.087766</speed><course>290.660919</course><hAcc>1.763804</hAcc><vAcc>0.778473</vAcc></extensions></trkpt>
      <trkpt lon="-3.029906" lat="52.713234"><ele>365.153717</ele><time>2022-01-15T13:22:16Z</time><extensions><speed>0.077436</speed><course>289.354980</course><hAcc>1.773333</hAcc><vAcc>0.780420</vAcc></extensions></trkpt>
      <trkpt lon="-3.029907" lat="52.713235"><ele>365.135254</ele><time>2022-01-15T13:22:17Z</time><extensions><speed>0.057828</speed><course>291.705841</course><hAcc>1.790496</hAcc><vAcc>0.781340</vAcc></extensions></trkpt>
      <trkpt lon="-3.029908" lat="52.713235"><ele>365.114410</ele><time>2022-01-15T13:22:18Z</time><extensions><speed>0.060375</speed><course>293.341064</course><hAcc>1.770134</hAcc><vAcc>0.781291</vAcc></extensions></trkpt>
      <trkpt lon="-3.029909" lat="52.713235"><ele>365.095734</ele><time>2022-01-15T13:22:19Z</time><extensions><speed>0.063007</speed><course>295.415985</course><hAcc>1.763147</hAcc><vAcc>0.780166</vAcc></extensions></trkpt>
      <trkpt lon="-3.029910" lat="52.713235"><ele>365.079498</ele><time>2022-01-15T13:22:20Z</time><extensions><speed>0.068529</speed><course>299.631042</course><hAcc>1.775389</hAcc><vAcc>0.777939</vAcc></extensions></trkpt>
      <trkpt lon="-3.029911" lat="52.713236"><ele>365.064026</ele><time>2022-01-15T13:22:21Z</time><extensions><speed>0.073893</speed><course>301.933777</course><hAcc>1.787179</hAcc><vAcc>0.774576</vAcc></extensions></trkpt>
      <trkpt lon="-3.029911" lat="52.713236"><ele>365.044891</ele><time>2022-01-15T13:22:22Z</time><extensions><speed>0.073510</speed><course>304.144104</course><hAcc>1.793995</hAcc><vAcc>0.770087</vAcc></extensions></trkpt>
      <trkpt lon="-3.029912" lat="52.713236"><ele>365.026581</ele><time>2022-01-15T13:22:23Z</time><extensions><speed>0.073277</speed><course>311.029266</course><hAcc>1.799670</hAcc><vAcc>0.764693</vAcc></extensions></trkpt>
      <trkpt lon="-3.029913" lat="52.713237"><ele>365.009552</ele><time>2022-01-15T13:22:24Z</time><extensions><speed>0.073660</speed><course>319.910645</course><hAcc>1.806211</hAcc><vAcc>0.758297</vAcc></extensions></trkpt>
      <trkpt lon="-3.029914" lat="52.713238"><ele>364.994141</ele><time>2022-01-15T13:22:25Z</time><extensions><speed>0.073134</speed><course>329.474243</course><hAcc>1.813483</hAcc><vAcc>0.750924</vAcc></extensions></trkpt>
      <trkpt lon="-3.029914" lat="52.713238"><ele>364.980835</ele><time>2022-01-15T13:22:26Z</time><extensions><speed>0.079812</speed><course>341.115051</course><hAcc>1.823090</hAcc><vAcc>0.742628</vAcc></extensions></trkpt>
      <trkpt lon="-3.029914" lat="52.713239"><ele>364.970032</ele><time>2022-01-15T13:22:27Z</time><extensions><speed>0.085788</speed><course>351.041748</course><hAcc>1.839163</hAcc><vAcc>0.733419</vAcc></extensions></trkpt>
      <trkpt lon="-3.029915" lat="52.713240"><ele>364.961761</ele><time>2022-01-15T13:22:28Z</time><extensions><speed>0.102963</speed><course>355.596527</course><hAcc>1.836641</hAcc><vAcc>0.723456</vAcc></extensions></trkpt>
      <trkpt lon="-3.029915" lat="52.713241"><ele>364.957764</ele><time>2022-01-15T13:22:29Z</time><extensions><speed>0.111052</speed><course>352.248352</course><hAcc>1.846749</hAcc><vAcc>0.712905</vAcc></extensions></trkpt>
      <trkpt lon="-3.029915" lat="52.713242"><ele>364.952667</ele><time>2022-01-15T13:22:30Z</time><extensions><speed>0.119339</speed><course>342.821960</course><hAcc>1.854975</hAcc><vAcc>0.701954</vAcc></extensions></trkpt>
      <trkpt lon="-3.029916" lat="52.713243"><ele>364.947815</ele><time>2022-01-15T13:22:31Z</time><extensions><speed>0.116692</speed><course>330.524017</course><hAcc>1.872433</hAcc><vAcc>0.690868</vAcc></extensions></trkpt>
      <trkpt lon="-3.029917" lat="52.713244"><ele>364.943024</ele><time>2022-01-15T13:22:32Z</time><extensions><speed>0.118940</speed><course>321.974884</course><hAcc>1.883492</hAcc><vAcc>0.679877</vAcc></extensions></trkpt>
      <trkpt lon="-3.029918" lat="52.713245"><ele>364.940338</ele><time>2022-01-15T13:22:33Z</time><extensions><speed>0.132498</speed><course>318.171143</course><hAcc>1.885788</hAcc><vAcc>0.669115</vAcc></extensions></trkpt>
      <trkpt lon="-3.029920" lat="52.713246"><ele>364.938660</ele><time>2022-01-15T13:22:34Z</time><extensions><speed>0.158249</speed><course>317.023407</course><hAcc>1.885029</hAcc><vAcc>0.658610</vAcc></extensions></trkpt>
      <trkpt lon="-3.029922" lat="52.713247"><ele>364.938873</ele><time>2022-01-15T13:22:35Z</time><extensions><speed>0.201130</speed><course>316.443237</course><hAcc>1.885160</hAcc><vAcc>0.648334</vAcc></extensions></trkpt>
      <trkpt lon="-3.029925" lat="52.713248"><ele>364.942535</ele><time>2022-01-15T13:22:36Z</time><extensions><speed>0.264126</speed><course>315.954468</course><hAcc>1.890041</hAcc><vAcc>0.638245</vAcc></extensions></trkpt>
      <trkpt lon="-3.029928" lat="52.713251"><ele>364.948273</ele><time>2022-01-15T13:22:37Z</time><extensions><speed>0.337811</speed><course>315.395477</course><hAcc>1.902977</hAcc><vAcc>0.628313</vAcc></extensions></trkpt>
      <trkpt lon="-3.029932" lat="52.713253"><ele>364.956360</ele><time>2022-01-15T13:22:38Z</time><extensions><speed>0.426609</speed><course>314.475403</course><hAcc>1.913790</hAcc><vAcc>0.618561</vAcc></extensions></trkpt>
      <trkpt lon="-3.029938" lat="52.713256"><ele>364.964081</ele><time>2022-01-15T13:22:39Z</time><extensions><speed>0.520827</speed><course>312.896118</course><hAcc>1.917926</hAcc><vAcc>0.609089</vAcc></extensions></trkpt>
      <trkpt lon="-3.029944" lat="52.713259"><ele>364.969696</ele><time>2022-01-15T13:22:40Z</time><extensions><speed>0.570677</speed><course>310.277466</course><hAcc>1.931856</hAcc><vAcc>0.600117</vAcc></extensions></trkpt>
      <trkpt lon="-3.029951" lat="52.713263"><ele>364.969879</ele><time>2022-01-15T13:22:41Z</time><extensions><speed>0.634450</speed><course>306.709534</course><hAcc>1.950120</hAcc><vAcc>0.592012</vAcc></extensions></trkpt>
      <trkpt lon="-3.029960" lat="52.713266"><ele>364.961060</ele><time>2022-01-15T13:22:42Z</time><extensions><speed>0.748354</speed><course>303.226440</course><hAcc>1.965709</hAcc><vAcc>0.585140</vAcc></extensions></trkpt>
      <trkpt lon="-3.029970" lat="52.713270"><ele>364.942566</ele><time>2022-01-15T13:22:43Z</time><extensions><speed>0.839901</speed><course>300.126648</course><hAcc>1.988379</hAcc><vAcc>0.579839</vAcc></extensions></trkpt>
      <trkpt lon="-3.029981" lat="52.713274"><ele>364.924530</ele><time>2022-01-15T13:22:44Z</time><extensions><speed>0.930491</speed><course>297.419373</course><hAcc>2.010850</hAcc><vAcc>0.576419</vAcc></extensions></trkpt>
      <trkpt lon="-3.029994" lat="52.713278"><ele>364.907043</ele><time>2022-01-15T13:22:45Z</time><extensions><speed>1.008879</speed><course>295.331726</course><hAcc>2.027562</hAcc><vAcc>0.575149</vAcc></extensions></trkpt>
      <trkpt lon="-3.030008" lat="52.713282"><ele>364.883209</ele><time>2022-01-15T13:22:46Z</time><extensions><speed>1.069289</speed><course>293.558350</course><hAcc>2.032358</hAcc><vAcc>0.576187</vAcc></extensions></trkpt>
      <trkpt lon="-3.030022" lat="52.713285"><ele>364.855988</ele><time>2022-01-15T13:22:47Z</time><extensions><speed>1.001346</speed><course>291.507538</course><hAcc>2.031382</hAcc><vAcc>0.579630</vAcc></extensions></trkpt>
      <trkpt lon="-3.030035" lat="52.713288"><ele>364.821930</ele><time>2022-01-15T13:22:48Z</time><extensions><speed>0.898796</speed><course>289.187988</course><hAcc>2.013061</hAcc><vAcc>0.585323</vAcc></extensions></trkpt>
      <trkpt lon="-3.030047" lat="52.713291"><ele>364.769867</ele><time>2022-01-15T13:22:49Z</time><extensions><speed>0.694724</speed><course>287.403198</course><hAcc>1.991340</hAcc><vAcc>0.592897</vAcc></extensions></trkpt>
      <trkpt lon="-3.030055" lat="52.713292"><ele>364.726898</ele><time>2022-01-15T13:22:50Z</time><extensions><speed>0.540445</speed><course>286.786469</course><hAcc>1.955963</hAcc><vAcc>0.601596</vAcc></extensions></trkpt>
      <trkpt lon="-3.030062" lat="52.713294"><ele>364.689453</ele><time>2022-01-15T13:22:51Z</time><extensions><speed>0.367119</speed><course>288.707733</course><hAcc>1.932640</hAcc><vAcc>0.610481</vAcc></extensions></trkpt>
      <trkpt lon="-3.030066" lat="52.713295"><ele>364.641815</ele><time>2022-01-15T13:22:52Z</time><extensions><speed>0.226785</speed><course>299.505951</course><hAcc>1.920215</hAcc><vAcc>0.618791</vAcc></extensions></trkpt>
      <trkpt lon="-3.030068" lat="52.713296"><ele>364.614563</ele><time>2022-01-15T13:22:53Z</time><extensions><speed>0.183512</speed><course>325.959808</course><hAcc>1.900088</hAcc><vAcc>0.626056</vAcc></extensions></trkpt>
      <trkpt lon="-3.030069" lat="52.713297"><ele>364.591034</ele><time>2022-01-15T13:22:54Z</time><extensions><speed>0.227142</speed><course>348.498962</course><hAcc>1.883171</hAcc><vAcc>0.632062</vAcc></extensions></trkpt>
      <trkpt lon="-3.030069" lat="52.713300"><ele>364.559814</ele><time>2022-01-15T13:22:55Z</time><extensions><speed>0.272086</speed><course>357.669769</course><hAcc>1.892288</hAcc><vAcc>0.636849</vAcc></extensions></trkpt>
      <trkpt lon="-3.030069" lat="52.713302"><ele>364.527496</ele><time>2022-01-15T13:22:56Z</time><extensions><speed>0.341680</speed><course>0.786730</course><hAcc>1.886872</hAcc><vAcc>0.640636</vAcc></extensions></trkpt>
      <trkpt lon="-3.030068" lat="52.713306"><ele>364.502289</ele><time>2022-01-15T13:22:57Z</time><extensions><speed>0.359797</speed><course>7.523959</course><hAcc>1.878622</hAcc><vAcc>0.643746</vAcc></extensions></trkpt>
      <trkpt lon="-3.030067" lat="52.713308"><ele>364.490631</ele><time>2022-01-15T13:22:58Z</time><extensions><speed>0.311940</speed><course>27.443880</course><hAcc>1.884531</hAcc><vAcc>0.646420</vAcc></extensions></trkpt>
      <trkpt lon="-3.030064" lat="52.713310"><ele>364.483124</ele><time>2022-01-15T13:22:59Z</time><extensions><speed>0.325837</speed><course>59.900948</course><hAcc>1.895584</hAcc><vAcc>0.648833</vAcc></extensions></trkpt>
      <trkpt lon="-3.030059" lat="52.713311"><ele>364.474640</ele><time>2022-01-15T13:23:00Z</time><extensions><speed>0.380555</speed><course>85.547729</course><hAcc>1.916753</hAcc><vAcc>0.651130</vAcc></extensions></trkpt>
      <trkpt lon="-3.030052" lat="52.713311"><ele>364.483337</ele><time>2022-01-15T13:23:01Z</time><extensions><speed>0.565615</speed><course>98.033653</course><hAcc>1.899556</hAcc><vAcc>0.653297</vAcc></extensions></trkpt>
      <trkpt lon="-3.030043" lat="52.713310"><ele>364.498322</ele><time>2022-01-15T13:23:02Z</time><extensions><speed>0.658621</speed><course>104.521027</course><hAcc>1.895133</hAcc><vAcc>0.655245</vAcc></extensions></trkpt>
      <trkpt lon="-3.030033" lat="52.713308"><ele>364.515747</ele><time>2022-01-15T13:23:03Z</time><extensions><speed>0.728409</speed><course>109.480675</course><hAcc>1.894379</hAcc><vAcc>0.656859</vAcc></extensions></trkpt>
      <trkpt lon="-3.030023" lat="52.713305"><ele>364.548462</ele><time>2022-01-15T13:23:04Z</time><extensions><speed>0.741189</speed><course>114.984283</course><hAcc>1.899229</hAcc><vAcc>0.658199</vAcc></extensions></trkpt>
      <trkpt lon="-3.030013" lat="52.713302"><ele>364.567383</ele><time>2022-01-15T13:23:05Z</time><extensions><speed>0.700440</speed><course>122.413567</course><hAcc>1.911950</hAcc><vAcc>0.659263</vAcc></extensions></trkpt>
      <trkpt lon="-3.030005" lat="52.713299"><ele>364.604736</ele><time>2022-01-15T13:23:06Z</time><extensions><speed>0.666482</speed><course>130.676468</course><hAcc>1.921003</hAcc><vAcc>0.660039</vAcc></extensions></trkpt>
      <trkpt lon="-3.029998" lat="52.713294"><ele>364.633698</ele><time>2022-01-15T13:23:07Z</time><extensions><speed>0.644354</speed><course>137.176392</course><hAcc>1.921963</hAcc><vAcc>0.660394</vAcc></extensions></trkpt>
      <trkpt lon="-3.029992" lat="52.713290"><ele>364.672455</ele><time>2022-01-15T13:23:08Z</time><extensions><speed>0.614032</speed><course>140.856934</course><hAcc>1.920607</hAcc><vAcc>0.660287</vAcc></extensions></trkpt>
      <trkpt lon="-3.029987" lat="52.713286"><ele>364.709869</ele><time>2022-01-15T13:23:09Z</time><extensions><speed>0.515756</speed><course>141.968933</course><hAcc>1.933143</hAcc><vAcc>0.659545</vAcc></extensions></trkpt>
      <trkpt lon="-3.029983" lat="52.713283"><ele>364.748871</ele><time>2022-01-15T13:23:10Z</time><extensions><speed>0.396485</speed><course>141.267548</course><hAcc>1.947550</hAcc><vAcc>0.658118</vAcc></extensions></trkpt>
      <trkpt lon="-3.029979" lat="52.713281"><ele>364.786194</ele><time>2022-01-15T13:23:11Z</time><extensions><speed>0.293464</speed><course>138.009827</course><hAcc>1.947292</hAcc><vAcc>0.656154</vAcc></extensions></trkpt>
      <trkpt lon="-3.029976" lat="52.713279"><ele>364.819122</ele><time>2022-01-15T13:23:12Z</time><extensions><speed>0.200645</speed><course>129.232666</course><hAcc>1.940104</hAcc><vAcc>0.653819</vAcc></extensions></trkpt>
      <trkpt lon="-3.029974" lat="52.713278"><ele>364.849121</ele><time>2022-01-15T13:23:13Z</time><extensions><speed>0.145995</speed><course>113.064415</course><hAcc>1.932750</hAcc><vAcc>0.651364</vAcc></extensions></trkpt>
      <trkpt lon="-3.029972" lat="52.713278"><ele>364.874908</ele><time>2022-01-15T13:23:14Z</time><extensions><speed>0.141806</speed><course>101.474907</course><hAcc>1.921133</hAcc><vAcc>0.649099</vAcc></extensions></trkpt>
      <trkpt lon="-3.029970" lat="52.713278"><ele>364.898651</ele><time>2022-01-15T13:23:15Z</time><extensions><speed>0.163301</speed><course>100.338867</course><hAcc>1.916492</hAcc><vAcc>0.647254</vAcc></extensions></trkpt>
      <trkpt lon="-3.029967" lat="52.713277"><ele>364.919983</ele><time>2022-01-15T13:23:16Z</time><extensions><speed>0.216120</speed><course>102.427902</course><hAcc>1.909179</hAcc><vAcc>0.646062</vAcc></extensions></trkpt>
      <trkpt lon="-3.029963" lat="52.713277"><ele>364.939178</ele><time>2022-01-15T13:23:17Z</time><extensions><speed>0.283649</speed><course>104.571892</course><hAcc>1.896305</hAcc><vAcc>0.645762</vAcc></extensions></trkpt>
      <trkpt lon="-3.029959" lat="52.713276"><ele>364.956451</ele><time>2022-01-15T13:23:18Z</time><extensions><speed>0.311396</speed><course>105.764099</course><hAcc>1.891731</hAcc><vAcc>0.646584</vAcc></extensions></trkpt>
      <trkpt lon="-3.029955" lat="52.713275"><ele>364.972656</ele><time>2022-01-15T13:23:19Z</time><extensions><speed>0.323056</speed><course>106.020874</course><hAcc>1.884144</hAcc><vAcc>0.648708</vAcc></extensions></trkpt>
      <trkpt lon="-3.029950" lat="52.713274"><ele>364.984344</ele><time>2022-01-15T13:23:20Z</time><extensions><speed>0.294043</speed><course>105.273041</course><hAcc>1.879707</hAcc><vAcc>0.652172</vAcc></extensions></trkpt>
      <trkpt lon="-3.029946" lat="52.713274"><ele>364.993988</ele><time>2022-01-15T13:23:21Z</time><extensions><speed>0.240265</speed><course>106.116989</course><hAcc>1.872156</hAcc><vAcc>0.656760</vAcc></extensions></trkpt>
      <trkpt lon="-3.029943" lat="52.713273"><ele>365.000702</ele><time>2022-01-15T13:23:22Z</time><extensions><speed>0.196683</speed><course>113.851532</course><hAcc>1.854821</hAcc><vAcc>0.662111</vAcc></extensions></trkpt>
      <trkpt lon="-3.029941" lat="52.713272"><ele>365.019348</ele><time>2022-01-15T13:23:23Z</time><extensions><speed>0.187195</speed><course>128.269028</course><hAcc>1.837722</hAcc><vAcc>0.667791</vAcc></extensions></trkpt>
      <trkpt lon="-3.029939" lat="52.713271"><ele>365.027344</ele><time>2022-01-15T13:23:24Z</time><extensions><speed>0.209963</speed><course>138.230728</course><hAcc>1.826989</hAcc><vAcc>0.673502</vAcc></extensions></trkpt>
      <trkpt lon="-3.029937" lat="52.713269"><ele>365.032593</ele><time>2022-01-15T13:23:25Z</time><extensions><speed>0.211881</speed><course>142.401489</course><hAcc>1.826880</hAcc><vAcc>0.679034</vAcc></extensions></trkpt>
      <trkpt lon="-3.029935" lat="52.713268"><ele>365.041870</ele><time>2022-01-15T13:23:26Z</time><extensions><speed>0.208670</speed><course>144.988022</course><hAcc>1.823724</hAcc><vAcc>0.684294</vAcc></extensions></trkpt>
      <trkpt lon="-3.029933" lat="52.713266"><ele>365.049683</ele><time>2022-01-15T13:23:27Z</time><extensions><speed>0.225117</speed><course>146.233231</course><hAcc>1.814114</hAcc><vAcc>0.689292</vAcc></extensions></trkpt>
      <trkpt lon="-3.029931" lat="52.713264"><ele>365.060944</ele><time>2022-01-15T13:23:28Z</time><extensions><speed>0.248291</speed><course>146.754410</course><hAcc>1.808120</hAcc><vAcc>0.693997</vAcc></extensions></trkpt>
      <trkpt lon="-3.029929" lat="52.713262"><ele>365.068756</ele><time>2022-01-15T13:23:29Z</time><extensions><speed>0.257042</speed><course>147.090988</course><hAcc>1.803088</hAcc><vAcc>0.698490</vAcc></extensions></trkpt>
      <trkpt lon="-3.029927" lat="52.713260"><ele>365.095764</ele><time>2022-01-15T13:23:30Z</time><extensions><speed>0.275382</speed><course>148.729187</course><hAcc>1.786891</hAcc><vAcc>0.702843</vAcc></extensions></trkpt>
      <trkpt lon="-3.029925" lat="52.713258"><ele>365.092773</ele><time>2022-01-15T13:23:31Z</time><extensions><speed>0.251855</speed><course>152.885635</course><hAcc>1.790638</hAcc><vAcc>0.707205</vAcc></extensions></trkpt>
      <trkpt lon="-3.029923" lat="52.713256"><ele>365.106781</ele><time>2022-01-15T13:23:32Z</time><extensions><speed>0.238216</speed><course>157.441513</course><hAcc>1.796035</hAcc><vAcc>0.711619</vAcc></extensions></trkpt>
      <trkpt lon="-3.029922" lat="52.713254"><ele>365.113220</ele><time>2022-01-15T13:23:33Z</time><extensions><speed>0.226802</speed><course>159.588242</course><hAcc>1.812530</hAcc><vAcc>0.716069</vAcc></extensions></trkpt>
      <trkpt lon="-3.029921" lat="52.713252"><ele>365.119751</ele><time>2022-01-15T13:23:34Z</time><extensions><speed>0.178046</speed><course>157.470947</course><hAcc>1.844581</hAcc><vAcc>0.720448</vAcc></extensions></trkpt>
      <trkpt lon="-3.029919" lat="52.713251"><ele>365.124939</ele><time>2022-01-15T13:23:35Z</time><extensions><speed>0.223020</speed><course>149.752426</course><hAcc>1.816713</hAcc><vAcc>0.724787</vAcc></extensions></trkpt>
      <trkpt lon="-3.029917" lat="52.713249"><ele>365.118469</ele><time>2022-01-15T13:23:36Z</time><extensions><speed>0.242438</speed><course>138.147751</course><hAcc>1.803491</hAcc><vAcc>0.728994</vAcc></extensions></trkpt>
      <trkpt lon="-3.029915" lat="52.713248"><ele>365.115601</ele><time>2022-01-15T13:23:37Z</time><extensions><speed>0.239110</speed><course>127.059799</course><hAcc>1.814148</hAcc><vAcc>0.732901</vAcc></extensions></trkpt>
      <trkpt lon="-3.029912" lat="52.713246"><ele>365.105682</ele><time>2022-01-15T13:23:38Z</time><extensions><speed>0.227925</speed><course>119.573807</course><hAcc>1.821450</hAcc><vAcc>0.736411</vAcc></extensions></trkpt>
      <trkpt lon="-3.029909" lat="52.713246"><ele>365.109772</ele><time>2022-01-15T13:23:39Z</time><extensions><speed>0.203427</speed><course>114.951958</course><hAcc>1.825696</hAcc><vAcc>0.739465</vAcc></extensions></trkpt>
      <trkpt lon="-3.029906" lat="52.713245"><ele>365.091431</ele><time>2022-01-15T13:23:40Z</time><extensions><speed>0.184234</speed><course>114.260498</course><hAcc>1.822494</hAcc><vAcc>0.742064</vAcc></extensions></trkpt>
      <trkpt lon="-3.029904" lat="52.713244"><ele>365.089020</ele><time>2022-01-15T13:23:41Z</time><extensions><speed>0.158287</speed><course>117.905373</course><hAcc>1.825442</hAcc><vAcc>0.744224</vAcc></extensions></trkpt>
      <trkpt lon="-3.029902" lat="52.713243"><ele>365.088776</ele><time>2022-01-15T13:23:42Z</time><extensions><speed>0.142791</speed><course>124.848457</course><hAcc>1.824903</hAcc><vAcc>0.746137</vAcc></extensions></trkpt>
      <trkpt lon="-3.029900" lat="52.713242"><ele>365.064545</ele><time>2022-01-15T13:23:43Z</time><extensions><speed>0.146921</speed><course>132.410461</course><hAcc>1.813317</hAcc><vAcc>0.747828</vAcc></extensions></trkpt>
      <trkpt lon="-3.029899" lat="52.713241"><ele>365.057159</ele><time>2022-01-15T13:23:44Z</time><extensions><speed>0.143401</speed><course>139.920959</course><hAcc>1.811869</hAcc><vAcc>0.749467</vAcc></extensions></trkpt>
      <trkpt lon="-3.029898" lat="52.713240"><ele>365.044312</ele><time>2022-01-15T13:23:45Z</time><extensions><speed>0.138570</speed><course>149.751068</course><hAcc>1.813573</hAcc><vAcc>0.751179</vAcc></extensions></trkpt>
      <trkpt lon="-3.029897" lat="52.713239"><ele>365.028900</ele><time>2022-01-15T13:23:46Z</time><extensions><speed>0.173483</speed><course>160.539429</course><hAcc>1.791851</hAcc><vAcc>0.752948</vAcc></extensions></trkpt>
      <trkpt lon="-3.029896" lat="52.713237"><ele>365.021606</ele><time>2022-01-15T13:23:47Z</time><extensions><speed>0.216377</speed><course>167.333710</course><hAcc>1.765713</hAcc><vAcc>0.754727</vAcc></extensions></trkpt>
      <trkpt lon="-3.029895" lat="52.713235"><ele>365.015015</ele><time>2022-01-15T13:23:48Z</time><extensions><speed>0.248380</speed><course>169.387299</course><hAcc>1.733240</hAcc><vAcc>0.756483</vAcc></extensions></trkpt>
      <trkpt lon="-3.029894" lat="52.713233"><ele>365.010040</ele><time>2022-01-15T13:23:49Z</time><extensions><speed>0.250684</speed><course>168.805252</course><hAcc>1.697214</hAcc><vAcc>0.758260</vAcc></extensions></trkpt>
      <trkpt lon="-3.029894" lat="52.713231"><ele>365.006561</ele><time>2022-01-15T13:23:50Z</time><extensions><speed>0.211892</speed><course>166.776917</course><hAcc>1.695043</hAcc><vAcc>0.759993</vAcc></extensions></trkpt>
      <trkpt lon="-3.029893" lat="52.713229"><ele>365.007019</ele><time>2022-01-15T13:23:51Z</time><extensions><speed>0.098969</speed><course>161.916962</course><hAcc>1.747709</hAcc><vAcc>0.761296</vAcc></extensions></trkpt>
      <trkpt lon="-3.029893" lat="52.713228"><ele>365.004761</ele><time>2022-01-15T13:23:52Z</time><extensions><speed>0.148542</speed><course>158.018677</course><hAcc>1.719101</hAcc><vAcc>0.762143</vAcc></extensions></trkpt>
      <trkpt lon="-3.029891" lat="52.713226"><ele>365.003296</ele><time>2022-01-15T13:23:53Z</time><extensions><speed>0.305041</speed><course>157.469742</course><hAcc>1.656278</hAcc><vAcc>0.762878</vAcc></extensions></trkpt>
      <trkpt lon="-3.029890" lat="52.713224"><ele>365.013336</ele><time>2022-01-15T13:23:54Z</time><extensions><speed>0.248559</speed><course>160.774780</course><hAcc>1.651055</hAcc><vAcc>0.762979</vAcc></extensions></trkpt>
      <trkpt lon="-3.029889" lat="52.713222"><ele>364.999603</ele><time>2022-01-15T13:23:55Z</time><extensions><speed>0.221752</speed><course>164.050064</course><hAcc>1.664515</hAcc><vAcc>0.762619</vAcc></extensions></trkpt>
      <trkpt lon="-3.029888" lat="52.713220"><ele>364.960266</ele><time>2022-01-15T13:23:56Z</time><extensions><speed>0.200905</speed><course>166.317261</course><hAcc>1.671639</hAcc><vAcc>0.761697</vAcc></extensions></trkpt>
      <trkpt lon="-3.029887" lat="52.713218"><ele>364.945190</ele><time>2022-01-15T13:23:57Z</time><extensions><speed>0.174024</speed><course>166.539688</course><hAcc>1.675218</hAcc><vAcc>0.760191</vAcc></extensions></trkpt>
      <trkpt lon="-3.029886" lat="52.713217"><ele>364.939178</ele><time>2022-01-15T13:23:58Z</time><extensions><speed>0.135316</speed><course>165.554047</course><hAcc>1.685998</hAcc><vAcc>0.758026</vAcc></extensions></trkpt>
      <trkpt lon="-3.029886" lat="52.713216"><ele>364.937012</ele><time>2022-01-15T13:23:59Z</time><extensions><speed>0.100713</speed><course>162.673431</course><hAcc>1.697614</hAcc><vAcc>0.755295</vAcc></extensions></trkpt>
      <trkpt lon="-3.029886" lat="52.713215"><ele>364.990234</ele><time>2022-01-15T13:24:00Z</time><extensions><speed>0.077632</speed><course>157.389328</course><hAcc>1.703609</hAcc><vAcc>0.752119</vAcc></extensions></trkpt>
      <trkpt lon="-3.029885" lat="52.713215"><ele>365.070068</ele><time>2022-01-15T13:24:01Z</time><extensions><speed>0.064196</speed><course>150.776474</course><hAcc>1.705042</hAcc><vAcc>0.748902</vAcc></extensions></trkpt>
      <trkpt lon="-3.029885" lat="52.713214"><ele>365.131348</ele><time>2022-01-15T13:24:02Z</time><extensions><speed>0.058121</speed><course>137.141556</course><hAcc>1.725301</hAcc><vAcc>0.745970</vAcc></extensions></trkpt>
      <trkpt lon="-3.029884" lat="52.713214"><ele>365.183990</ele><time>2022-01-15T13:24:03Z</time><extensions><speed>0.069726</speed><course>121.932968</course><hAcc>1.747505</hAcc><vAcc>0.743286</vAcc></extensions></trkpt>
      <trkpt lon="-3.029883" lat="52.713214"><ele>365.233337</ele><time>2022-01-15T13:24:04Z</time><extensions><speed>0.081336</speed><course>112.603806</course><hAcc>1.748881</hAcc><vAcc>0.740822</vAcc></extensions></trkpt>
      <trkpt lon="-3.029882" lat="52.713214"><ele>365.297394</ele><time>2022-01-15T13:24:05Z</time><extensions><speed>0.064289</speed><course>99.222450</course><hAcc>1.754101</hAcc><vAcc>0.738360</vAcc></extensions></trkpt>
      <trkpt lon="-3.029881" lat="52.713214"><ele>365.367920</ele><time>2022-01-15T13:24:06Z</time><extensions><speed>0.040157</speed><course>61.491776</course><hAcc>1.775973</hAcc><vAcc>0.735748</vAcc></extensions></trkpt>
      <trkpt lon="-3.029881" lat="52.713214"><ele>365.444092</ele><time>2022-01-15T13:24:07Z</time><extensions><speed>0.046227</speed><course>7.044422</course><hAcc>1.798760</hAcc><vAcc>0.732859</vAcc></extensions></trkpt>
      <trkpt lon="-3.029881" lat="52.713214"><ele>365.523315</ele><time>2022-01-15T13:24:08Z</time><extensions><speed>0.070038</speed><course>346.368652</course><hAcc>1.796026</hAcc><vAcc>0.729530</vAcc></extensions></trkpt>
      <trkpt lon="-3.029881" lat="52.713215"><ele>365.602325</ele><time>2022-01-15T13:24:09Z</time><extensions><speed>0.072717</speed><course>338.163391</course><hAcc>1.791643</hAcc><vAcc>0.725812</vAcc></extensions></trkpt>
      <trkpt lon="-3.029882" lat="52.713216"><ele>365.666992</ele><time>2022-01-15T13:24:10Z</time><extensions><speed>0.064679</speed><course>327.657898</course><hAcc>1.789961</hAcc><vAcc>0.721743</vAcc></extensions></trkpt>
      <trkpt lon="-3.029882" lat="52.713216"><ele>365.722717</ele><time>2022-01-15T13:24:11Z</time><extensions><speed>0.053410</speed><course>312.920685</course><hAcc>1.792920</hAcc><vAcc>0.717348</vAcc></extensions></trkpt>
      <trkpt lon="-3.029883" lat="52.713216"><ele>365.758881</ele><time>2022-01-15T13:24:12Z</time><extensions><speed>0.046260</speed><course>306.227417</course><hAcc>1.798993</hAcc><vAcc>0.712458</vAcc></extensions></trkpt>
      <trkpt lon="-3.029884" lat="52.713217"><ele>365.779602</ele><time>2022-01-15T13:24:13Z</time><extensions><speed>0.052658</speed><course>314.927429</course><hAcc>1.797210</hAcc><vAcc>0.706955</vAcc></extensions></trkpt>
      <trkpt lon="-3.029884" lat="52.713217"><ele>365.776703</ele><time>2022-01-15T13:24:14Z</time><extensions><speed>0.050124</speed><course>325.683258</course><hAcc>1.822569</hAcc><vAcc>0.700781</vAcc></extensions></trkpt>
      <trkpt lon="-3.029885" lat="52.713218"><ele>365.770325</ele><time>2022-01-15T13:24:15Z</time><extensions><speed>0.084308</speed><course>331.369781</course><hAcc>1.794380</hAcc><vAcc>0.694018</vAcc></extensions></trkpt>
      <trkpt lon="-3.029885" lat="52.713219"><ele>365.753906</ele><time>2022-01-15T13:24:16Z</time><extensions><speed>0.109015</speed><course>334.099670</course><hAcc>1.791682</hAcc><vAcc>0.686779</vAcc></extensions></trkpt>
      <trkpt lon="-3.029886" lat="52.713220"><ele>365.728699</ele><time>2022-01-15T13:24:17Z</time><extensions><speed>0.134764</speed><course>336.084045</course><hAcc>1.812599</hAcc><vAcc>0.679245</vAcc></extensions></trkpt>
      <trkpt lon="-3.029887" lat="52.713221"><ele>365.696136</ele><time>2022-01-15T13:24:18Z</time><extensions><speed>0.173951</speed><course>337.736542</course><hAcc>1.827887</hAcc><vAcc>0.671635</vAcc></extensions></trkpt>
      <trkpt lon="-3.029888" lat="52.713222"><ele>365.657837</ele><time>2022-01-15T13:24:19Z</time><extensions><speed>0.211680</speed><course>339.409393</course><hAcc>1.839893</hAcc><vAcc>0.664152</vAcc></extensions></trkpt>
      <trkpt lon="-3.029889" lat="52.713224"><ele>365.615875</ele><time>2022-01-15T13:24:20Z</time><extensions><speed>0.226934</speed><course>341.937500</course><hAcc>1.852119</hAcc><vAcc>0.656935</vAcc></extensions></trkpt>
      <trkpt lon="-3.029890" lat="52.713226"><ele>365.572479</ele><time>2022-01-15T13:24:21Z</time><extensions><speed>0.214493</speed><course>346.400818</course><hAcc>1.858057</hAcc><vAcc>0.650061</vAcc></extensions></trkpt>
      <trkpt lon="-3.029890" lat="52.713228"><ele>365.529907</ele><time>2022-01-15T13:24:22Z</time><extensions><speed>0.212693</speed><course>352.439941</course><hAcc>1.831255</hAcc><vAcc>0.643553</vAcc></extensions></trkpt>
      <trkpt lon="-3.029891" lat="52.713230"><ele>365.490234</ele><time>2022-01-15T13:24:23Z</time><extensions><speed>0.179085</speed><course>359.489960</course><hAcc>1.797272</hAcc><vAcc>0.637378</vAcc></extensions></trkpt>
      <trkpt lon="-3.029890" lat="52.713231"><ele>365.455109</ele><time>2022-01-15T13:24:24Z</time><extensions><speed>0.125473</speed><course>6.958691</course><hAcc>1.785382</hAcc><vAcc>0.631478</vAcc></extensions></trkpt>
      <trkpt lon="-3.029890" lat="52.713232"><ele>365.425385</ele><time>2022-01-15T13:24:25Z</time><extensions><speed>0.065972</speed><course>13.698762</course><hAcc>1.804872</hAcc><vAcc>0.625744</vAcc></extensions></trkpt>
      <trkpt lon="-3.029890" lat="52.713233"><ele>365.401184</ele><time>2022-01-15T13:24:26Z</time><extensions><speed>0.037754</speed><course>22.176418</course><hAcc>1.802389</hAcc><vAcc>0.620082</vAcc></extensions></trkpt>
      <trkpt lon="-3.029890" lat="52.713233"><ele>365.381073</ele><time>2022-01-15T13:24:27Z</time><extensions><speed>0.037994</speed><course>25.164150</course><hAcc>1.765932</hAcc><vAcc>0.614531</vAcc></extensions></trkpt>
      <trkpt lon="-3.029889" lat="52.713233"><ele>365.362122</ele><time>2022-01-15T13:24:28Z</time><extensions><speed>0.031880</speed><course>25.058016</course><hAcc>1.766496</hAcc><vAcc>0.609280</vAcc></extensions></trkpt>
      <trkpt lon="-3.029889" lat="52.713234"><ele>365.345947</ele><time>2022-01-15T13:24:29Z</time><extensions><speed>0.034462</speed><course>22.115940</course><hAcc>1.765646</hAcc><vAcc>0.604615</vAcc></extensions></trkpt>
      <trkpt lon="-3.029889" lat="52.713234"><ele>365.332367</ele><time>2022-01-15T13:24:30Z</time><extensions><speed>0.038919</speed><course>18.256742</course><hAcc>1.781922</hAcc><vAcc>0.600937</vAcc></extensions></trkpt>
      <trkpt lon="-3.029889" lat="52.713235"><ele>365.319214</ele><time>2022-01-15T13:24:31Z</time><extensions><speed>0.037879</speed><course>13.071753</course><hAcc>1.825685</hAcc><vAcc>0.598743</vAcc></extensions></trkpt>
      <trkpt lon="-3.029889" lat="52.713235"><ele>365.303101</ele><time>2022-01-15T13:24:32Z</time><extensions><speed>0.066786</speed><course>8.957785</course><hAcc>1.819795</hAcc><vAcc>0.598535</vAcc></extensions></trkpt>
      <trkpt lon="-3.029889" lat="52.713236"><ele>365.284027</ele><time>2022-01-15T13:24:33Z</time><extensions><speed>0.112216</speed><course>6.614473</course><hAcc>1.808180</hAcc><vAcc>0.600726</vAcc></extensions></trkpt>
      <trkpt lon="-3.029889" lat="52.713237"><ele>365.268646</ele><time>2022-01-15T13:24:34Z</time><extensions><speed>0.143940</speed><course>4.032374</course><hAcc>1.835458</hAcc><vAcc>0.605558</vAcc></extensions></trkpt>
      <trkpt lon="-3.029889" lat="52.713238"><ele>365.238983</ele><time>2022-01-15T13:24:35Z</time><extensions><speed>0.173580</speed><course>0.558718</course><hAcc>1.873903</hAcc><vAcc>0.613031</vAcc></extensions></trkpt>
      <trkpt lon="-3.029889" lat="52.713240"><ele>365.239532</ele><time>2022-01-15T13:24:36Z</time><extensions><speed>0.189057</speed><course>354.151062</course><hAcc>1.905879</hAcc><vAcc>0.622830</vAcc></extensions></trkpt>
      <trkpt lon="-3.029889" lat="52.713242"><ele>365.231903</ele><time>2022-01-15T13:24:37Z</time><extensions><speed>0.228504</speed><course>346.821289</course><hAcc>1.896666</hAcc><vAcc>0.634330</vAcc></extensions></trkpt>
      <trkpt lon="-3.029890" lat="52.713244"><ele>365.228699</ele><time>2022-01-15T13:24:38Z</time><extensions><speed>0.230481</speed><course>339.472900</course><hAcc>1.885071</hAcc><vAcc>0.646753</vAcc></extensions></trkpt>
      <trkpt lon="-3.029891" lat="52.713246"><ele>365.229156</ele><time>2022-01-15T13:24:39Z</time><extensions><speed>0.191937</speed><course>330.659637</course><hAcc>1.886777</hAcc><vAcc>0.659408</vAcc></extensions></trkpt>
      <trkpt lon="-3.029893" lat="52.713247"><ele>365.233337</ele><time>2022-01-15T13:24:40Z</time><extensions><speed>0.143310</speed><course>320.147003</course><hAcc>1.883179</hAcc><vAcc>0.671701</vAcc></extensions></trkpt>
      <trkpt lon="-3.029894" lat="52.713247"><ele>365.241486</ele><time>2022-01-15T13:24:41Z</time><extensions><speed>0.089077</speed><course>304.956573</course><hAcc>1.872455</hAcc><vAcc>0.683002</vAcc></extensions></trkpt>
      <trkpt lon="-3.029895" lat="52.713248"><ele>365.278595</ele><time>2022-01-15T13:24:42Z</time><extensions><speed>0.042218</speed><course>260.714813</course><hAcc>1.860800</hAcc><vAcc>0.692549</vAcc></extensions></trkpt>
      <trkpt lon="-3.029895" lat="52.713247"><ele>365.281830</ele><time>2022-01-15T13:24:43Z</time><extensions><speed>0.056614</speed><course>197.757721</course><hAcc>1.844941</hAcc><vAcc>0.700108</vAcc></extensions></trkpt>
      <trkpt lon="-3.029895" lat="52.713247"><ele>365.299988</ele><time>2022-01-15T13:24:44Z</time><extensions><speed>0.082668</speed><course>179.662918</course><hAcc>1.842665</hAcc><vAcc>0.705459</vAcc></extensions></trkpt>
      <trkpt lon="-3.029895" lat="52.713246"><ele>365.339417</ele><time>2022-01-15T13:24:45Z</time><extensions><speed>0.100876</speed><course>174.339706</course><hAcc>1.840829</hAcc><vAcc>0.708742</vAcc></extensions></trkpt>
      <trkpt lon="-3.029895" lat="52.713245"><ele>365.366211</ele><time>2022-01-15T13:24:46Z</time><extensions><speed>0.115537</speed><course>175.139313</course><hAcc>1.845311</hAcc><vAcc>0.709876</vAcc></extensions></trkpt>
      <trkpt lon="-3.029895" lat="52.713243"><ele>365.391449</ele><time>2022-01-15T13:24:47Z</time><extensions><speed>0.148708</speed><course>176.046387</course><hAcc>1.842800</hAcc><vAcc>0.709102</vAcc></extensions></trkpt>
      <trkpt lon="-3.029895" lat="52.713242"><ele>365.406097</ele><time>2022-01-15T13:24:48Z</time><extensions><speed>0.190352</speed><course>175.056870</course><hAcc>1.843041</hAcc><vAcc>0.706670</vAcc></extensions></trkpt>
      <trkpt lon="-3.029895" lat="52.713240"><ele>365.423370</ele><time>2022-01-15T13:24:49Z</time><extensions><speed>0.248712</speed><course>173.898254</course><hAcc>1.845246</hAcc><vAcc>0.702917</vAcc></extensions></trkpt>
      <trkpt lon="-3.029894" lat="52.713237"><ele>365.435150</ele><time>2022-01-15T13:24:50Z</time><extensions><speed>0.314355</speed><course>173.376877</course><hAcc>1.853731</hAcc><vAcc>0.698229</vAcc></extensions></trkpt>
      <trkpt lon="-3.029894" lat="52.713234"><ele>365.447937</ele><time>2022-01-15T13:24:51Z</time><extensions><speed>0.373560</speed><course>173.850647</course><hAcc>1.867801</hAcc><vAcc>0.692966</vAcc></extensions></trkpt>
      <trkpt lon="-3.029893" lat="52.713231"><ele>365.443054</ele><time>2022-01-15T13:24:52Z</time><extensions><speed>0.412653</speed><course>175.824921</course><hAcc>1.878666</hAcc><vAcc>0.687542</vAcc></extensions></trkpt>
      <trkpt lon="-3.029893" lat="52.713227"><ele>365.448029</ele><time>2022-01-15T13:24:53Z</time><extensions><speed>0.424362</speed><course>178.360428</course><hAcc>1.884759</hAcc><vAcc>0.682362</vAcc></extensions></trkpt>
      <trkpt lon="-3.029893" lat="52.713223"><ele>365.444397</ele><time>2022-01-15T13:24:54Z</time><extensions><speed>0.392662</speed><course>180.427933</course><hAcc>1.898657</hAcc><vAcc>0.677558</vAcc></extensions></trkpt>
      <trkpt lon="-3.029893" lat="52.713220"><ele>365.440002</ele><time>2022-01-15T13:24:55Z</time><extensions><speed>0.307392</speed><course>182.605209</course><hAcc>1.917172</hAcc><vAcc>0.673149</vAcc></extensions></trkpt>
      <trkpt lon="-3.029893" lat="52.713218"><ele>365.431610</ele><time>2022-01-15T13:24:56Z</time><extensions><speed>0.271314</speed><course>183.312607</course><hAcc>1.902469</hAcc><vAcc>0.669093</vAcc></extensions></trkpt>
      <trkpt lon="-3.029893" lat="52.713215"><ele>365.418152</ele><time>2022-01-15T13:24:57Z</time><extensions><speed>0.208127</speed><course>179.128418</course><hAcc>1.893658</hAcc><vAcc>0.665204</vAcc></extensions></trkpt>
      <trkpt lon="-3.029893" lat="52.713214"><ele>365.401550</ele><time>2022-01-15T13:24:58Z</time><extensions><speed>0.144952</speed><course>166.445602</course><hAcc>1.899501</hAcc><vAcc>0.661256</vAcc></extensions></trkpt>
      <trkpt lon="-3.029892" lat="52.713213"><ele>365.382141</ele><time>2022-01-15T13:24:59Z</time><extensions><speed>0.115888</speed><course>145.578659</course><hAcc>1.905371</hAcc><vAcc>0.657090</vAcc></extensions></trkpt>
      <trkpt lon="-3.029891" lat="52.713212"><ele>365.360962</ele><time>2022-01-15T13:25:00Z</time><extensions><speed>0.122205</speed><course>130.325684</course><hAcc>1.904678</hAcc><vAcc>0.652686</vAcc></extensions></trkpt>
      <trkpt lon="-3.029889" lat="52.713211"><ele>365.340668</ele><time>2022-01-15T13:25:01Z</time><extensions><speed>0.142034</speed><course>126.935257</course><hAcc>1.901734</hAcc><vAcc>0.648029</vAcc></extensions></trkpt>
      <trkpt lon="-3.029887" lat="52.713210"><ele>365.315002</ele><time>2022-01-15T13:25:02Z</time><extensions><speed>0.163589</speed><course>130.059418</course><hAcc>1.898032</hAcc><vAcc>0.643209</vAcc></extensions></trkpt>
      <trkpt lon="-3.029886" lat="52.713209"><ele>365.289948</ele><time>2022-01-15T13:25:03Z</time><extensions><speed>0.171843</speed><course>136.501419</course><hAcc>1.904012</hAcc><vAcc>0.638384</vAcc></extensions></trkpt>
      <trkpt lon="-3.029884" lat="52.713208"><ele>365.263885</ele><time>2022-01-15T13:25:04Z</time><extensions><speed>0.161218</speed><course>145.816147</course><hAcc>1.918054</hAcc><vAcc>0.633709</vAcc></extensions></trkpt>
      <trkpt lon="-3.029883" lat="52.713207"><ele>365.236725</ele><time>2022-01-15T13:25:05Z</time><extensions><speed>0.150787</speed><course>157.050552</course><hAcc>1.918783</hAcc><vAcc>0.629340</vAcc></extensions></trkpt>
      <trkpt lon="-3.029882" lat="52.713206"><ele>365.208893</ele><time>2022-01-15T13:25:06Z</time><extensions><speed>0.124776</speed><course>170.518799</course><hAcc>1.919520</hAcc><vAcc>0.625395</vAcc></extensions></trkpt>
      <trkpt lon="-3.029882" lat="52.713205"><ele>365.181030</ele><time>2022-01-15T13:25:07Z</time><extensions><speed>0.091640</speed><course>189.690506</course><hAcc>1.918186</hAcc><vAcc>0.621920</vAcc></extensions></trkpt>
      <trkpt lon="-3.029883" lat="52.713204"><ele>365.154114</ele><time>2022-01-15T13:25:08Z</time><extensions><speed>0.065840</speed><course>220.671219</course><hAcc>1.914807</hAcc><vAcc>0.618968</vAcc></extensions></trkpt>
      <trkpt lon="-3.029884" lat="52.713204"><ele>365.129150</ele><time>2022-01-15T13:25:09Z</time><extensions><speed>0.054968</speed><course>260.057220</course><hAcc>1.921982</hAcc><vAcc>0.616644</vAcc></extensions></trkpt>
      <trkpt lon="-3.029884" lat="52.713204"><ele>365.106812</ele><time>2022-01-15T13:25:10Z</time><extensions><speed>0.059090</speed><course>292.289795</course><hAcc>1.927037</hAcc><vAcc>0.615097</vAcc></extensions></trkpt>
      <trkpt lon="-3.029885" lat="52.713204"><ele>365.087555</ele><time>2022-01-15T13:25:11Z</time><extensions><speed>0.069804</speed><course>316.781830</course><hAcc>1.920962</hAcc><vAcc>0.614491</vAcc></extensions></trkpt>
      <trkpt lon="-3.029886" lat="52.713205"><ele>365.071625</ele><time>2022-01-15T13:25:12Z</time><extensions><speed>0.080406</speed><course>333.612823</course><hAcc>1.909560</hAcc><vAcc>0.614930</vAcc></extensions></trkpt>
      <trkpt lon="-3.029886" lat="52.713206"><ele>365.059082</ele><time>2022-01-15T13:25:13Z</time><extensions><speed>0.081931</speed><course>344.493530</course><hAcc>1.901767</hAcc><vAcc>0.616396</vAcc></extensions></trkpt>
      <trkpt lon="-3.029886" lat="52.713207"><ele>365.049591</ele><time>2022-01-15T13:25:14Z</time><extensions><speed>0.080935</speed><course>352.155579</course><hAcc>1.888059</hAcc><vAcc>0.618704</vAcc></extensions></trkpt>
      <trkpt lon="-3.029886" lat="52.713207"><ele>365.042725</ele><time>2022-01-15T13:25:15Z</time><extensions><speed>0.081435</speed><course>358.657349</course><hAcc>1.873014</hAcc><vAcc>0.621620</vAcc></extensions></trkpt>
      <trkpt lon="-3.029886" lat="52.713208"><ele>365.038025</ele><time>2022-01-15T13:25:16Z</time><extensions><speed>0.088187</speed><course>3.878548</course><hAcc>1.856893</hAcc><vAcc>0.624903</vAcc></extensions></trkpt>
      <trkpt lon="-3.029886" lat="52.713209"><ele>365.035095</ele><time>2022-01-15T13:25:17Z</time><extensions><speed>0.099689</speed><course>7.529106</course><hAcc>1.841874</hAcc><vAcc>0.628312</vAcc></extensions></trkpt>
      <trkpt lon="-3.029886" lat="52.713210"><ele>365.033569</ele><time>2022-01-15T13:25:18Z</time><extensions><speed>0.120410</speed><course>9.728418</course><hAcc>1.822706</hAcc><vAcc>0.631677</vAcc></extensions></trkpt>
      <trkpt lon="-3.029886" lat="52.713211"><ele>365.033142</ele><time>2022-01-15T13:25:19Z</time><extensions><speed>0.140471</speed><course>10.915656</course><hAcc>1.812198</hAcc><vAcc>0.634820</vAcc></extensions></trkpt>
      <trkpt lon="-3.029885" lat="52.713212"><ele>365.033539</ele><time>2022-01-15T13:25:20Z</time><extensions><speed>0.146346</speed><course>11.544776</course><hAcc>1.822543</hAcc><vAcc>0.637579</vAcc></extensions></trkpt>
      <trkpt lon="-3.029885" lat="52.713214"><ele>365.034515</ele><time>2022-01-15T13:25:21Z</time><extensions><speed>0.123800</speed><course>11.848445</course><hAcc>1.840698</hAcc><vAcc>0.639870</vAcc></extensions></trkpt>
      <trkpt lon="-3.029884" lat="52.713215"><ele>365.035919</ele><time>2022-01-15T13:25:22Z</time><extensions><speed>0.124494</speed><course>11.969090</course><hAcc>1.828002</hAcc><vAcc>0.641689</vAcc></extensions></trkpt>
      <trkpt lon="-3.029884" lat="52.713216"><ele>365.037598</ele><time>2022-01-15T13:25:23Z</time><extensions><speed>0.105286</speed><course>12.017791</course><hAcc>1.830596</hAcc><vAcc>0.643080</vAcc></extensions></trkpt>
      <trkpt lon="-3.029884" lat="52.713217"><ele>365.041931</ele><time>2022-01-15T13:25:24Z</time><extensions><speed>0.092041</speed><course>12.131565</course><hAcc>1.838039</hAcc><vAcc>0.644165</vAcc></extensions></trkpt>
      <trkpt lon="-3.029884" lat="52.713217"><ele>365.031525</ele><time>2022-01-15T13:25:25Z</time><extensions><speed>0.075153</speed><course>11.566747</course><hAcc>1.855273</hAcc><vAcc>0.645137</vAcc></extensions></trkpt>
      <trkpt lon="-3.029883" lat="52.713218"><ele>365.021606</ele><time>2022-01-15T13:25:26Z</time><extensions><speed>0.061673</speed><course>9.449049</course><hAcc>1.871670</hAcc><vAcc>0.646166</vAcc></extensions></trkpt>
      <trkpt lon="-3.029883" lat="52.713218"><ele>365.008484</ele><time>2022-01-15T13:25:27Z</time><extensions><speed>0.053651</speed><course>5.710701</course><hAcc>1.880562</hAcc><vAcc>0.647379</vAcc></extensions></trkpt>
      <trkpt lon="-3.029883" lat="52.713219"><ele>364.992126</ele><time>2022-01-15T13:25:28Z</time><extensions><speed>0.049725</speed><course>0.569709</course><hAcc>1.887993</hAcc><vAcc>0.648793</vAcc></extensions></trkpt>
      <trkpt lon="-3.029883" lat="52.713219"><ele>364.972565</ele><time>2022-01-15T13:25:29Z</time><extensions><speed>0.051860</speed><course>355.098816</course><hAcc>1.890356</hAcc><vAcc>0.650352</vAcc></extensions></trkpt>
      <trkpt lon="-3.029883" lat="52.713220"><ele>364.961304</ele><time>2022-01-15T13:25:30Z</time><extensions><speed>0.063927</speed><course>349.636505</course><hAcc>1.883152</hAcc><vAcc>0.651995</vAcc></extensions></trkpt>
      <trkpt lon="-3.029884" lat="52.713221"><ele>364.948364</ele><time>2022-01-15T13:25:31Z</time><extensions><speed>0.082331</speed><course>345.767029</course><hAcc>1.876158</hAcc><vAcc>0.653832</vAcc></extensions></trkpt>
      <trkpt lon="-3.029884" lat="52.713222"><ele>364.945648</ele><time>2022-01-15T13:25:32Z</time><extensions><speed>0.110113</speed><course>343.113525</course><hAcc>1.865634</hAcc><vAcc>0.655741</vAcc></extensions></trkpt>
      <trkpt lon="-3.029885" lat="52.713223"><ele>364.938568</ele><time>2022-01-15T13:25:33Z</time><extensions><speed>0.134139</speed><course>340.126099</course><hAcc>1.860832</hAcc><vAcc>0.657701</vAcc></extensions></trkpt>
      <trkpt lon="-3.029886" lat="52.713224"><ele>364.933655</ele><time>2022-01-15T13:25:34Z</time><extensions><speed>0.154409</speed><course>335.360626</course><hAcc>1.847196</hAcc><vAcc>0.659698</vAcc></extensions></trkpt>
      <trkpt lon="-3.029887" lat="52.713225"><ele>364.931854</ele><time>2022-01-15T13:25:35Z</time><extensions><speed>0.178856</speed><course>331.105682</course><hAcc>1.815990</hAcc><vAcc>0.661726</vAcc></extensions></trkpt>
      <trkpt lon="-3.029888" lat="52.713227"><ele>364.934204</ele><time>2022-01-15T13:25:36Z</time><extensions><speed>0.172788</speed><course>329.220642</course><hAcc>1.805166</hAcc><vAcc>0.663822</vAcc></extensions></trkpt>
      <trkpt lon="-3.029889" lat="52.713228"><ele>364.947388</ele><time>2022-01-15T13:25:37Z</time><extensions><speed>0.141912</speed><course>328.052277</course><hAcc>1.823734</hAcc><vAcc>0.665896</vAcc></extensions></trkpt>
      <trkpt lon="-3.029890" lat="52.713229"><ele>364.964447</ele><time>2022-01-15T13:25:38Z</time><extensions><speed>0.122633</speed><course>327.408813</course><hAcc>1.844469</hAcc><vAcc>0.668096</vAcc></extensions></trkpt>
      <trkpt lon="-3.029891" lat="52.713230"><ele>364.983612</ele><time>2022-01-15T13:25:39Z</time><extensions><speed>0.128001</speed><course>327.323669</course><hAcc>1.845137</hAcc><vAcc>0.670318</vAcc></extensions></trkpt>
      <trkpt lon="-3.029893" lat="52.713231"><ele>365.004730</ele><time>2022-01-15T13:25:40Z</time><extensions><speed>0.181438</speed><course>327.746582</course><hAcc>1.806363</hAcc><vAcc>0.672445</vAcc></extensions></trkpt>
      <trkpt lon="-3.029894" lat="52.713232"><ele>365.030182</ele><time>2022-01-15T13:25:41Z</time><extensions><speed>0.184761</speed><course>327.731995</course><hAcc>1.797827</hAcc><vAcc>0.674267</vAcc></extensions></trkpt>
      <trkpt lon="-3.029895" lat="52.713234"><ele>365.059906</ele><time>2022-01-15T13:25:42Z</time><extensions><speed>0.152415</speed><course>325.171722</course><hAcc>1.817317</hAcc><vAcc>0.675586</vAcc></extensions></trkpt>
      <trkpt lon="-3.029897" lat="52.713234"><ele>365.090057</ele><time>2022-01-15T13:25:43Z</time><extensions><speed>0.112878</speed><course>319.016693</course><hAcc>1.838153</hAcc><vAcc>0.676454</vAcc></extensions></trkpt>
      <trkpt lon="-3.029898" lat="52.713235"><ele>365.118591</ele><time>2022-01-15T13:25:44Z</time><extensions><speed>0.077712</speed><course>307.094330</course><hAcc>1.853837</hAcc><vAcc>0.676964</vAcc></extensions></trkpt>
      <trkpt lon="-3.029899" lat="52.713235"><ele>365.144379</ele><time>2022-01-15T13:25:45Z</time><extensions><speed>0.059084</speed><course>285.605225</course><hAcc>1.856962</hAcc><vAcc>0.677302</vAcc></extensions></trkpt>
      <trkpt lon="-3.029899" lat="52.713235"><ele>365.169678</ele><time>2022-01-15T13:25:46Z</time><extensions><speed>0.052887</speed><course>257.403839</course><hAcc>1.858781</hAcc><vAcc>0.677699</vAcc></extensions></trkpt>
      <trkpt lon="-3.029900" lat="52.713235"><ele>365.183960</ele><time>2022-01-15T13:25:47Z</time><extensions><speed>0.056785</speed><course>230.671112</course><hAcc>1.852201</hAcc><vAcc>0.678324</vAcc></extensions></trkpt>
      <trkpt lon="-3.029901" lat="52.713235"><ele>365.189392</ele><time>2022-01-15T13:25:48Z</time><extensions><speed>0.062224</speed><course>207.751434</course><hAcc>1.846806</hAcc><vAcc>0.679340</vAcc></extensions></trkpt>
      <trkpt lon="-3.029901" lat="52.713234"><ele>365.188416</ele><time>2022-01-15T13:25:49Z</time><extensions><speed>0.068125</speed><course>192.655792</course><hAcc>1.851545</hAcc><vAcc>0.680824</vAcc></extensions></trkpt>
      <trkpt lon="-3.029901" lat="52.713234"><ele>365.181091</ele><time>2022-01-15T13:25:50Z</time><extensions><speed>0.059294</speed><course>183.354538</course><hAcc>1.876389</hAcc><vAcc>0.682746</vAcc></extensions></trkpt>
      <trkpt lon="-3.029901" lat="52.713233"><ele>365.179626</ele><time>2022-01-15T13:25:51Z</time><extensions><speed>0.058851</speed><course>184.657944</course><hAcc>1.862761</hAcc><vAcc>0.685021</vAcc></extensions></trkpt>
      <trkpt lon="-3.029901" lat="52.713233"><ele>365.182190</ele><time>2022-01-15T13:25:52Z</time><extensions><speed>0.044339</speed><course>203.486923</course><hAcc>1.853142</hAcc><vAcc>0.687673</vAcc></extensions></trkpt>
      <trkpt lon="-3.029902" lat="52.713232"><ele>365.172363</ele><time>2022-01-15T13:25:53Z</time><extensions><speed>0.043161</speed><course>238.435028</course><hAcc>1.847739</hAcc><vAcc>0.690628</vAcc></extensions></trkpt>
      <trkpt lon="-3.029903" lat="52.713232"><ele>365.156403</ele><time>2022-01-15T13:25:54Z</time><extensions><speed>0.059827</speed><course>255.038879</course><hAcc>1.843615</hAcc><vAcc>0.693790</vAcc></extensions></trkpt>
      <trkpt lon="-3.029904" lat="52.713232"><ele>365.145538</ele><time>2022-01-15T13:25:55Z</time><extensions><speed>0.078689</speed><course>256.888489</course><hAcc>1.839521</hAcc><vAcc>0.697056</vAcc></extensions></trkpt>
      <trkpt lon="-3.029905" lat="52.713232"><ele>365.122131</ele><time>2022-01-15T13:25:56Z</time><extensions><speed>0.091744</speed><course>255.290207</course><hAcc>1.832762</hAcc><vAcc>0.700343</vAcc></extensions></trkpt>
      <trkpt lon="-3.029906" lat="52.713232"><ele>365.108612</ele><time>2022-01-15T13:25:57Z</time><extensions><speed>0.095352</speed><course>256.047791</course><hAcc>1.820428</hAcc><vAcc>0.703757</vAcc></extensions></trkpt>
      <trkpt lon="-3.029908" lat="52.713232"><ele>365.087585</ele><time>2022-01-15T13:25:58Z</time><extensions><speed>0.091432</speed><course>261.748352</course><hAcc>1.816017</hAcc><vAcc>0.707376</vAcc></extensions></trkpt>
      <trkpt lon="-3.029909" lat="52.713231"><ele>365.090485</ele><time>2022-01-15T13:25:59Z</time><extensions><speed>0.070661</speed><course>270.766266</course><hAcc>1.841939</hAcc><vAcc>0.711320</vAcc></extensions></trkpt>
      <trkpt lon="-3.029910" lat="52.713232"><ele>365.100922</ele><time>2022-01-15T13:26:00Z</time><extensions><speed>0.065306</speed><course>280.726257</course><hAcc>1.844043</hAcc><vAcc>0.715639</vAcc></extensions></trkpt>
      <trkpt lon="-3.029911" lat="52.713232"><ele>365.106201</ele><time>2022-01-15T13:26:01Z</time><extensions><speed>0.076534</speed><course>289.988281</course><hAcc>1.815124</hAcc><vAcc>0.720325</vAcc></extensions></trkpt>
      <trkpt lon="-3.029912" lat="52.713232"><ele>365.114197</ele><time>2022-01-15T13:26:02Z</time><extensions><speed>0.077764</speed><course>298.225891</course><hAcc>1.805895</hAcc><vAcc>0.725266</vAcc></extensions></trkpt>
      <trkpt lon="-3.029913" lat="52.713232"><ele>365.124847</ele><time>2022-01-15T13:26:03Z</time><extensions><speed>0.075970</speed><course>305.147034</course><hAcc>1.812179</hAcc><vAcc>0.730329</vAcc></extensions></trkpt>
      <trkpt lon="-3.029914" lat="52.713233"><ele>365.137970</ele><time>2022-01-15T13:26:04Z</time><extensions><speed>0.072041</speed><course>311.255646</course><hAcc>1.818663</hAcc><vAcc>0.735269</vAcc></extensions></trkpt>
      <trkpt lon="-3.029915" lat="52.713233"><ele>365.155304</ele><time>2022-01-15T13:26:05Z</time><extensions><speed>0.069281</speed><course>314.174286</course><hAcc>1.813795</hAcc><vAcc>0.739798</vAcc></extensions></trkpt>
      <trkpt lon="-3.029915" lat="52.713234"><ele>365.161407</ele><time>2022-01-15T13:26:06Z</time><extensions><speed>0.067368</speed><course>310.783600</course><hAcc>1.802276</hAcc><vAcc>0.743811</vAcc></extensions></trkpt>
      <trkpt lon="-3.029916" lat="52.713234"><ele>365.166779</ele><time>2022-01-15T13:26:07Z</time><extensions><speed>0.065784</speed><course>301.209808</course><hAcc>1.796256</hAcc><vAcc>0.747078</vAcc></extensions></trkpt>
      <trkpt lon="-3.029917" lat="52.713234"><ele>365.175598</ele><time>2022-01-15T13:26:08Z</time><extensions><speed>0.068731</speed><course>291.024017</course><hAcc>1.793609</hAcc><vAcc>0.749511</vAcc></extensions></trkpt>
      <trkpt lon="-3.029918" lat="52.713234"><ele>365.181152</ele><time>2022-01-15T13:26:09Z</time><extensions><speed>0.065243</speed><course>281.777527</course><hAcc>1.797911</hAcc><vAcc>0.751113</vAcc></extensions></trkpt>
      <trkpt lon="-3.029919" lat="52.713234"><ele>365.183838</ele><time>2022-01-15T13:26:10Z</time><extensions><speed>0.071788</speed><course>272.051636</course><hAcc>1.775794</hAcc><vAcc>0.751843</vAcc></extensions></trkpt>
      <trkpt lon="-3.029920" lat="52.713234"><ele>365.181213</ele><time>2022-01-15T13:26:11Z</time><extensions><speed>0.071260</speed><course>262.363586</course><hAcc>1.764748</hAcc><vAcc>0.751643</vAcc></extensions></trkpt>
      <trkpt lon="-3.029921" lat="52.713234"><ele>365.174713</ele><time>2022-01-15T13:26:12Z</time><extensions><speed>0.059863</speed><course>249.562714</course><hAcc>1.780565</hAcc><vAcc>0.750658</vAcc></extensions></trkpt>
      <trkpt lon="-3.029922" lat="52.713234"><ele>365.167816</ele><time>2022-01-15T13:26:13Z</time><extensions><speed>0.056418</speed><course>233.343384</course><hAcc>1.793731</hAcc><vAcc>0.749001</vAcc></extensions></trkpt>
      <trkpt lon="-3.029922" lat="52.713234"><ele>365.151428</ele><time>2022-01-15T13:26:14Z</time><extensions><speed>0.059553</speed><course>218.925888</course><hAcc>1.800472</hAcc><vAcc>0.746806</vAcc></extensions></trkpt>
      <trkpt lon="-3.029923" lat="52.713233"><ele>365.133850</ele><time>2022-01-15T13:26:15Z</time><extensions><speed>0.073344</speed><course>210.665710</course><hAcc>1.781033</hAcc><vAcc>0.744301</vAcc></extensions></trkpt>
      <trkpt lon="-3.029923" lat="52.713233"><ele>365.115814</ele><time>2022-01-15T13:26:16Z</time><extensions><speed>0.076919</speed><course>211.175385</course><hAcc>1.766740</hAcc><vAcc>0.741886</vAcc></extensions></trkpt>
      <trkpt lon="-3.029924" lat="52.713232"><ele>365.097473</ele><time>2022-01-15T13:26:17Z</time><extensions><speed>0.076754</speed><course>220.528564</course><hAcc>1.760397</hAcc><vAcc>0.739639</vAcc></extensions></trkpt>
      <trkpt lon="-3.029925" lat="52.713231"><ele>365.078918</ele><time>2022-01-15T13:26:18Z</time><extensions><speed>0.075957</speed><course>229.548920</course><hAcc>1.757930</hAcc><vAcc>0.737657</vAcc></extensions></trkpt>
      <trkpt lon="-3.029926" lat="52.713231"><ele>365.063446</ele><time>2022-01-15T13:26:19Z</time><extensions><speed>0.059301</speed><course>233.022324</course><hAcc>1.782394</hAcc><vAcc>0.736023</vAcc></extensions></trkpt>
      <trkpt lon="-3.029926" lat="52.713231"><ele>365.061188</ele><time>2022-01-15T13:26:20Z</time><extensions><speed>0.047072</speed><course>231.534485</course><hAcc>1.793077</hAcc><vAcc>0.734534</vAcc></extensions></trkpt>
      <trkpt lon="-3.029927" lat="52.713230"><ele>365.022705</ele><time>2022-01-15T13:26:21Z</time><extensions><speed>0.058409</speed><course>228.483978</course><hAcc>1.767770</hAcc><vAcc>0.733265</vAcc></extensions></trkpt>
      <trkpt lon="-3.029928" lat="52.713230"><ele>364.984070</ele><time>2022-01-15T13:26:22Z</time><extensions><speed>0.057814</speed><course>223.866013</course><hAcc>1.781558</hAcc><vAcc>0.732204</vAcc></extensions></trkpt>
      <trkpt lon="-3.029928" lat="52.713229"><ele>364.944458</ele><time>2022-01-15T13:26:23Z</time><extensions><speed>0.092161</speed><course>215.265640</course><hAcc>1.773583</hAcc><vAcc>0.731370</vAcc></extensions></trkpt>
      <trkpt lon="-3.029929" lat="52.713228"><ele>364.901733</ele><time>2022-01-15T13:26:24Z</time><extensions><speed>0.135758</speed><course>208.095184</course><hAcc>1.782853</hAcc><vAcc>0.730769</vAcc></extensions></trkpt>
      <trkpt lon="-3.029930" lat="52.713227"><ele>364.852081</ele><time>2022-01-15T13:26:25Z</time><extensions><speed>0.188762</speed><course>205.657959</course><hAcc>1.804390</hAcc><vAcc>0.730386</vAcc></extensions></trkpt>
      <trkpt lon="-3.029932" lat="52.713225"><ele>364.797882</ele><time>2022-01-15T13:26:26Z</time><extensions><speed>0.253363</speed><course>207.468353</course><hAcc>1.826599</hAcc><vAcc>0.730187</vAcc></extensions></trkpt>
      <trkpt lon="-3.029934" lat="52.713223"><ele>364.761353</ele><time>2022-01-15T13:26:27Z</time><extensions><speed>0.333477</speed><course>210.129257</course><hAcc>1.842595</hAcc><vAcc>0.730232</vAcc></extensions></trkpt>
      <trkpt lon="-3.029937" lat="52.713220"><ele>364.726227</ele><time>2022-01-15T13:26:28Z</time><extensions><speed>0.425346</speed><course>213.739029</course><hAcc>1.851937</hAcc><vAcc>0.730456</vAcc></extensions></trkpt>
      <trkpt lon="-3.029941" lat="52.713217"><ele>364.682953</ele><time>2022-01-15T13:26:29Z</time><extensions><speed>0.545334</speed><course>220.163788</course><hAcc>1.853750</hAcc><vAcc>0.730888</vAcc></extensions></trkpt>
      <trkpt lon="-3.029948" lat="52.713213"><ele>364.612946</ele><time>2022-01-15T13:26:30Z</time><extensions><speed>0.763812</speed><course>227.411102</course><hAcc>1.849442</hAcc><vAcc>0.731551</vAcc></extensions></trkpt>
      <trkpt lon="-3.029958" lat="52.713208"><ele>364.528381</ele><time>2022-01-15T13:26:31Z</time><extensions><speed>0.934136</speed><course>231.627090</course><hAcc>1.858766</hAcc><vAcc>0.732445</vAcc></extensions></trkpt>
      <trkpt lon="-3.029969" lat="52.713202"><ele>364.462769</ele><time>2022-01-15T13:26:32Z</time><extensions><speed>1.050847</speed><course>234.942642</course><hAcc>1.860871</hAcc><vAcc>0.733494</vAcc></extensions></trkpt>
      <trkpt lon="-3.029983" lat="52.713197"><ele>364.402069</ele><time>2022-01-15T13:26:33Z</time><extensions><speed>1.106262</speed><course>237.899353</course><hAcc>1.857591</hAcc><vAcc>0.734629</vAcc></extensions></trkpt>
      <trkpt lon="-3.029997" lat="52.713192"><ele>364.349304</ele><time>2022-01-15T13:26:34Z</time><extensions><speed>1.152800</speed><course>240.762344</course><hAcc>1.851904</hAcc><vAcc>0.735800</vAcc></extensions></trkpt>
      <trkpt lon="-3.030012" lat="52.713187"><ele>364.283844</ele><time>2022-01-15T13:26:35Z</time><extensions><speed>1.202624</speed><course>243.136185</course><hAcc>1.847013</hAcc><vAcc>0.736889</vAcc></extensions></trkpt>
      <trkpt lon="-3.030028" lat="52.713182"><ele>364.244141</ele><time>2022-01-15T13:26:36Z</time><extensions><speed>1.187046</speed><course>244.400101</course><hAcc>1.843434</hAcc><vAcc>0.737734</vAcc></extensions></trkpt>
      <trkpt lon="-3.030044" lat="52.713177"><ele>364.198517</ele><time>2022-01-15T13:26:37Z</time><extensions><speed>1.163728</speed><course>244.302811</course><hAcc>1.842005</hAcc><vAcc>0.738417</vAcc></extensions></trkpt>
      <trkpt lon="-3.030059" lat="52.713173"><ele>364.151093</ele><time>2022-01-15T13:26:38Z</time><extensions><speed>1.134649</speed><course>244.458099</course><hAcc>1.841071</hAcc><vAcc>0.738880</vAcc></extensions></trkpt>
      <trkpt lon="-3.030074" lat="52.713169"><ele>364.115875</ele><time>2022-01-15T13:26:39Z</time><extensions><speed>1.101873</speed><course>245.621124</course><hAcc>1.842439</hAcc><vAcc>0.739071</vAcc></extensions></trkpt>
      <trkpt lon="-3.030089" lat="52.713165"><ele>364.088989</ele><time>2022-01-15T13:26:40Z</time><extensions><speed>1.066471</speed><course>246.469727</course><hAcc>1.847466</hAcc><vAcc>0.739019</vAcc></extensions></trkpt>
      <trkpt lon="-3.030103" lat="52.713161"><ele>364.055969</ele><time>2022-01-15T13:26:41Z</time><extensions><speed>1.012960</speed><course>246.140900</course><hAcc>1.846831</hAcc><vAcc>0.738718</vAcc></extensions></trkpt>
      <trkpt lon="-3.030116" lat="52.713157"><ele>364.024445</ele><time>2022-01-15T13:26:42Z</time><extensions><speed>0.960066</speed><course>244.737930</course><hAcc>1.842286</hAcc><vAcc>0.738283</vAcc></extensions></trkpt>
      <trkpt lon="-3.030129" lat="52.713154"><ele>363.977081</ele><time>2022-01-15T13:26:43Z</time><extensions><speed>0.948203</speed><course>243.747208</course><hAcc>1.843480</hAcc><vAcc>0.737786</vAcc></extensions></trkpt>
      <trkpt lon="-3.030142" lat="52.713150"><ele>363.965546</ele><time>2022-01-15T13:26:44Z</time><extensions><speed>0.955823</speed><course>244.409012</course><hAcc>1.851278</hAcc><vAcc>0.737334</vAcc></extensions></trkpt>
      <trkpt lon="-3.030155" lat="52.713146"><ele>363.961121</ele><time>2022-01-15T13:26:45Z</time><extensions><speed>0.978052</speed><course>245.648972</course><hAcc>1.854815</hAcc><vAcc>0.737009</vAcc></extensions></trkpt>
      <trkpt lon="-3.030168" lat="52.713143"><ele>363.954132</ele><time>2022-01-15T13:26:46Z</time><extensions><speed>0.943836</speed><course>246.197144</course><hAcc>1.852773</hAcc><vAcc>0.736897</vAcc></extensions></trkpt>
      <trkpt lon="-3.030180" lat="52.713139"><ele>363.962128</ele><time>2022-01-15T13:26:47Z</time><extensions><speed>0.914020</speed><course>246.024933</course><hAcc>1.854970</hAcc><vAcc>0.737056</vAcc></extensions></trkpt>
      <trkpt lon="-3.030193" lat="52.713136"><ele>363.984802</ele><time>2022-01-15T13:26:48Z</time><extensions><speed>0.970921</speed><course>244.923706</course><hAcc>1.855442</hAcc><vAcc>0.737510</vAcc></extensions></trkpt>
      <trkpt lon="-3.030207" lat="52.713132"><ele>364.006592</ele><time>2022-01-15T13:26:49Z</time><extensions><speed>1.050299</speed><course>245.928314</course><hAcc>1.846741</hAcc><vAcc>0.738254</vAcc></extensions></trkpt>
      <trkpt lon="-3.030222" lat="52.713128"><ele>364.031342</ele><time>2022-01-15T13:26:50Z</time><extensions><speed>1.166866</speed><course>248.705460</course><hAcc>1.840826</hAcc><vAcc>0.739256</vAcc></extensions></trkpt>
      <trkpt lon="-3.030239" lat="52.713124"><ele>364.043915</ele><time>2022-01-15T13:26:51Z</time><extensions><speed>1.244567</speed><course>252.061340</course><hAcc>1.841965</hAcc><vAcc>0.740372</vAcc></extensions></trkpt>
      <trkpt lon="-3.030257" lat="52.713121"><ele>364.061188</ele><time>2022-01-15T13:26:52Z</time><extensions><speed>1.297463</speed><course>255.618576</course><hAcc>1.842677</hAcc><vAcc>0.741487</vAcc></extensions></trkpt>
      <trkpt lon="-3.030276" lat="52.713119"><ele>364.103607</ele><time>2022-01-15T13:26:53Z</time><extensions><speed>1.377230</speed><course>258.617004</course><hAcc>1.842375</hAcc><vAcc>0.742545</vAcc></extensions></trkpt>
      <trkpt lon="-3.030296" lat="52.713116"><ele>364.138153</ele><time>2022-01-15T13:26:54Z</time><extensions><speed>1.383990</speed><course>258.724670</course><hAcc>1.836268</hAcc><vAcc>0.743363</vAcc></extensions></trkpt>
      <trkpt lon="-3.030315" lat="52.713113"><ele>364.177429</ele><time>2022-01-15T13:26:55Z</time><extensions><speed>1.312012</speed><course>256.039124</course><hAcc>1.833031</hAcc><vAcc>0.743833</vAcc></extensions></trkpt>
      <trkpt lon="-3.030333" lat="52.713110"><ele>364.217621</ele><time>2022-01-15T13:26:56Z</time><extensions><speed>1.201245</speed><course>251.374207</course><hAcc>1.836902</hAcc><vAcc>0.743850</vAcc></extensions></trkpt>
      <trkpt lon="-3.030350" lat="52.713107"><ele>364.239899</ele><time>2022-01-15T13:26:57Z</time><extensions><speed>1.162262</speed><course>247.059280</course><hAcc>1.842131</hAcc><vAcc>0.743451</vAcc></extensions></trkpt>
      <trkpt lon="-3.030365" lat="52.713102"><ele>364.247894</ele><time>2022-01-15T13:26:58Z</time><extensions><speed>1.149419</speed><course>244.770752</course><hAcc>1.846858</hAcc><vAcc>0.742639</vAcc></extensions></trkpt>
      <trkpt lon="-3.030380" lat="52.713098"><ele>364.262787</ele><time>2022-01-15T13:26:59Z</time><extensions><speed>1.108777</speed><course>244.141907</course><hAcc>1.851455</hAcc><vAcc>0.741512</vAcc></extensions></trkpt>
      <trkpt lon="-3.030395" lat="52.713094"><ele>364.266937</ele><time>2022-01-15T13:27:00Z</time><extensions><speed>1.070111</speed><course>244.188202</course><hAcc>1.852615</hAcc><vAcc>0.740133</vAcc></extensions></trkpt>
      <trkpt lon="-3.030409" lat="52.713089"><ele>364.254852</ele><time>2022-01-15T13:27:01Z</time><extensions><speed>1.073466</speed><course>243.865768</course><hAcc>1.852317</hAcc><vAcc>0.738672</vAcc></extensions></trkpt>
      <trkpt lon="-3.030423" lat="52.713085"><ele>364.243317</ele><time>2022-01-15T13:27:02Z</time><extensions><speed>1.052339</speed><course>243.748566</course><hAcc>1.853161</hAcc><vAcc>0.737101</vAcc></extensions></trkpt>
      <trkpt lon="-3.030437" lat="52.713081"><ele>364.216003</ele><time>2022-01-15T13:27:03Z</time><extensions><speed>1.018632</speed><course>243.504639</course><hAcc>1.856673</hAcc><vAcc>0.735398</vAcc></extensions></trkpt>
      <trkpt lon="-3.030450" lat="52.713077"><ele>364.166443</ele><time>2022-01-15T13:27:04Z</time><extensions><speed>0.952762</speed><course>242.917725</course><hAcc>1.855715</hAcc><vAcc>0.733645</vAcc></extensions></trkpt>
      <trkpt lon="-3.030462" lat="52.713073"><ele>364.101929</ele><time>2022-01-15T13:27:05Z</time><extensions><speed>0.906449</speed><course>242.743195</course><hAcc>1.854059</hAcc><vAcc>0.731896</vAcc></extensions></trkpt>
      <trkpt lon="-3.030474" lat="52.713070"><ele>364.005371</ele><time>2022-01-15T13:27:06Z</time><extensions><speed>0.888684</speed><course>243.112473</course><hAcc>1.854660</hAcc><vAcc>0.730224</vAcc></extensions></trkpt>
      <trkpt lon="-3.030486" lat="52.713066"><ele>363.926819</ele><time>2022-01-15T13:27:07Z</time><extensions><speed>0.945841</speed><course>243.893814</course><hAcc>1.860475</hAcc><vAcc>0.728601</vAcc></extensions></trkpt>
      <trkpt lon="-3.030499" lat="52.713062"><ele>363.843445</ele><time>2022-01-15T13:27:08Z</time><extensions><speed>1.001305</speed><course>244.427948</course><hAcc>1.862672</hAcc><vAcc>0.727076</vAcc></extensions></trkpt>
      <trkpt lon="-3.030513" lat="52.713058"><ele>363.753387</ele><time>2022-01-15T13:27:09Z</time><extensions><speed>1.033713</speed><course>245.492706</course><hAcc>1.857350</hAcc><vAcc>0.725730</vAcc></extensions></trkpt>
      <trkpt lon="-3.030527" lat="52.713054"><ele>363.649719</ele><time>2022-01-15T13:27:10Z</time><extensions><speed>1.052051</speed><course>246.430817</course><hAcc>1.854749</hAcc><vAcc>0.724592</vAcc></extensions></trkpt>
      <trkpt lon="-3.030541" lat="52.713051"><ele>363.541382</ele><time>2022-01-15T13:27:11Z</time><extensions><speed>1.044157</speed><course>247.432510</course><hAcc>1.856514</hAcc><vAcc>0.723674</vAcc></extensions></trkpt>
      <trkpt lon="-3.030555" lat="52.713047"><ele>363.412262</ele><time>2022-01-15T13:27:12Z</time><extensions><speed>1.068843</speed><course>246.250916</course><hAcc>1.852428</hAcc><vAcc>0.722895</vAcc></extensions></trkpt>
      <trkpt lon="-3.030570" lat="52.713043"><ele>363.274841</ele><time>2022-01-15T13:27:13Z</time><extensions><speed>1.147013</speed><course>245.359390</course><hAcc>1.846850</hAcc><vAcc>0.722238</vAcc></extensions></trkpt>
      <trkpt lon="-3.030587" lat="52.713038"><ele>363.126648</ele><time>2022-01-15T13:27:14Z</time><extensions><speed>1.246370</speed><course>245.688278</course><hAcc>1.841231</hAcc><vAcc>0.721741</vAcc></extensions></trkpt>
      <trkpt lon="-3.030604" lat="52.713034"><ele>362.959076</ele><time>2022-01-15T13:27:15Z</time><extensions><speed>1.307770</speed><course>246.982193</course><hAcc>1.838029</hAcc><vAcc>0.721504</vAcc></extensions></trkpt>
      <trkpt lon="-3.030622" lat="52.713029"><ele>362.791504</ele><time>2022-01-15T13:27:16Z</time><extensions><speed>1.333223</speed><course>247.487778</course><hAcc>1.841791</hAcc><vAcc>0.721488</vAcc></extensions></trkpt>
      <trkpt lon="-3.030640" lat="52.713025"><ele>362.631378</ele><time>2022-01-15T13:27:17Z</time><extensions><speed>1.328772</speed><course>248.025452</course><hAcc>1.838150</hAcc><vAcc>0.721662</vAcc></extensions></trkpt>
      <trkpt lon="-3.030659" lat="52.713020"><ele>362.460266</ele><time>2022-01-15T13:27:18Z</time><extensions><speed>1.366793</speed><course>248.374481</course><hAcc>1.836852</hAcc><vAcc>0.721988</vAcc></extensions></trkpt>
      <trkpt lon="-3.030678" lat="52.713016"><ele>362.270386</ele><time>2022-01-15T13:27:19Z</time><extensions><speed>1.436992</speed><course>250.008499</course><hAcc>1.835445</hAcc><vAcc>0.722362</vAcc></extensions></trkpt>
      <trkpt lon="-3.030698" lat="52.713012"><ele>362.052460</ele><time>2022-01-15T13:27:20Z</time><extensions><speed>1.440533</speed><course>252.740158</course><hAcc>1.833478</hAcc><vAcc>0.722738</vAcc></extensions></trkpt>
      <trkpt lon="-3.030719" lat="52.713008"><ele>361.828674</ele><time>2022-01-15T13:27:21Z</time><extensions><speed>1.419380</speed><course>253.607300</course><hAcc>1.827954</hAcc><vAcc>0.723061</vAcc></extensions></trkpt>
      <trkpt lon="-3.030738" lat="52.713004"><ele>361.605011</ele><time>2022-01-15T13:27:22Z</time><extensions><speed>1.373004</speed><course>254.144165</course><hAcc>1.830177</hAcc><vAcc>0.723284</vAcc></extensions></trkpt>
      <trkpt lon="-3.030757" lat="52.713001"><ele>361.364685</ele><time>2022-01-15T13:27:23Z</time><extensions><speed>1.289319</speed><course>255.280716</course><hAcc>1.830168</hAcc><vAcc>0.723327</vAcc></extensions></trkpt>
      <trkpt lon="-3.030775" lat="52.712999"><ele>361.126312</ele><time>2022-01-15T13:27:24Z</time><extensions><speed>1.217767</speed><course>257.535980</course><hAcc>1.834130</hAcc><vAcc>0.723137</vAcc></extensions></trkpt>
      <trkpt lon="-3.030793" lat="52.712996"><ele>360.856384</ele><time>2022-01-15T13:27:25Z</time><extensions><speed>1.219542</speed><course>258.521332</course><hAcc>1.842621</hAcc><vAcc>0.722679</vAcc></extensions></trkpt>
      <trkpt lon="-3.030811" lat="52.712994"><ele>360.597626</ele><time>2022-01-15T13:27:26Z</time><extensions><speed>1.225924</speed><course>257.030823</course><hAcc>1.840361</hAcc><vAcc>0.721962</vAcc></extensions></trkpt>
      <trkpt lon="-3.030828" lat="52.712991"><ele>360.341858</ele><time>2022-01-15T13:27:27Z</time><extensions><speed>1.192284</speed><course>255.968689</course><hAcc>1.834404</hAcc><vAcc>0.721029</vAcc></extensions></trkpt>
      <trkpt lon="-3.030844" lat="52.712989"><ele>360.070496</ele><time>2022-01-15T13:27:28Z</time><extensions><speed>1.081712</speed><course>255.745773</course><hAcc>1.824855</hAcc><vAcc>0.719807</vAcc></extensions></trkpt>
      <trkpt lon="-3.030859" lat="52.712986"><ele>359.791351</ele><time>2022-01-15T13:27:29Z</time><extensions><speed>1.003864</speed><course>255.865463</course><hAcc>1.828706</hAcc><vAcc>0.718297</vAcc></extensions></trkpt>
      <trkpt lon="-3.030874" lat="52.712984"><ele>359.493286</ele><time>2022-01-15T13:27:30Z</time><extensions><speed>0.956165</speed><course>257.762573</course><hAcc>1.841548</hAcc><vAcc>0.716513</vAcc></extensions></trkpt>
      <trkpt lon="-3.030887" lat="52.712983"><ele>359.212830</ele><time>2022-01-15T13:27:31Z</time><extensions><speed>0.871924</speed><course>262.799347</course><hAcc>1.850084</hAcc><vAcc>0.714570</vAcc></extensions></trkpt>
      <trkpt lon="-3.030899" lat="52.712982"><ele>358.920288</ele><time>2022-01-15T13:27:32Z</time><extensions><speed>0.851360</speed><course>260.659210</course><hAcc>1.845297</hAcc><vAcc>0.712585</vAcc></extensions></trkpt>
      <trkpt lon="-3.030912" lat="52.712980"><ele>358.621063</ele><time>2022-01-15T13:27:33Z</time><extensions><speed>0.875265</speed><course>255.938583</course><hAcc>1.845159</hAcc><vAcc>0.710683</vAcc></extensions></trkpt>
      <trkpt lon="-3.030925" lat="52.712978"><ele>358.345154</ele><time>2022-01-15T13:27:34Z</time><extensions><speed>0.935252</speed><course>249.690475</course><hAcc>1.849677</hAcc><vAcc>0.708950</vAcc></extensions></trkpt>
      <trkpt lon="-3.030938" lat="52.712975"><ele>358.036774</ele><time>2022-01-15T13:27:35Z</time><extensions><speed>1.024410</speed><course>246.096878</course><hAcc>1.861118</hAcc><vAcc>0.707487</vAcc></extensions></trkpt>
      <trkpt lon="-3.030953" lat="52.712970"><ele>357.769714</ele><time>2022-01-15T13:27:36Z</time><extensions><speed>1.145295</speed><course>242.372299</course><hAcc>1.862443</hAcc><vAcc>0.706365</vAcc></extensions></trkpt>
      <trkpt lon="-3.030967" lat="52.712965"><ele>357.496643</ele><time>2022-01-15T13:27:37Z</time><extensions><speed>1.130515</speed><course>241.011002</course><hAcc>1.860268</hAcc><vAcc>0.705634</vAcc></extensions></trkpt>
      <trkpt lon="-3.030982" lat="52.712961"><ele>357.225098</ele><time>2022-01-15T13:27:38Z</time><extensions><speed>1.080547</speed><course>241.738998</course><hAcc>1.858856</hAcc><vAcc>0.705281</vAcc></extensions></trkpt>
      <trkpt lon="-3.030996" lat="52.712956"><ele>356.944519</ele><time>2022-01-15T13:27:39Z</time><extensions><speed>1.054677</speed><course>243.721497</course><hAcc>1.857244</hAcc><vAcc>0.705275</vAcc></extensions></trkpt>
      <trkpt lon="-3.031010" lat="52.712952"><ele>356.695068</ele><time>2022-01-15T13:27:40Z</time><extensions><speed>1.096614</speed><course>246.458786</course><hAcc>1.852336</hAcc><vAcc>0.705617</vAcc></extensions></trkpt>
      <trkpt lon="-3.031025" lat="52.712948"><ele>356.452393</ele><time>2022-01-15T13:27:41Z</time><extensions><speed>1.123399</speed><course>247.006042</course><hAcc>1.846223</hAcc><vAcc>0.706240</vAcc></extensions></trkpt>
      <trkpt lon="-3.031041" lat="52.712944"><ele>356.208160</ele><time>2022-01-15T13:27:42Z</time><extensions><speed>1.149492</speed><course>248.985764</course><hAcc>1.851114</hAcc><vAcc>0.707072</vAcc></extensions></trkpt>
      <trkpt lon="-3.031057" lat="52.712941"><ele>355.987976</ele><time>2022-01-15T13:27:43Z</time><extensions><speed>1.117698</speed><course>250.587433</course><hAcc>1.854985</hAcc><vAcc>0.707970</vAcc></extensions></trkpt>
      <trkpt lon="-3.031072" lat="52.712938"><ele>355.775787</ele><time>2022-01-15T13:27:44Z</time><extensions><speed>1.061691</speed><course>251.548935</course><hAcc>1.838018</hAcc><vAcc>0.708779</vAcc></extensions></trkpt>
      <trkpt lon="-3.031086" lat="52.712935"><ele>355.560394</ele><time>2022-01-15T13:27:45Z</time><extensions><speed>1.004351</speed><course>252.230209</course><hAcc>1.835042</hAcc><vAcc>0.709504</vAcc></extensions></trkpt>
      <trkpt lon="-3.031100" lat="52.712932"><ele>355.359100</ele><time>2022-01-15T13:27:46Z</time><extensions><speed>0.941336</speed><course>249.871780</course><hAcc>1.839062</hAcc><vAcc>0.710156</vAcc></extensions></trkpt>
      <trkpt lon="-3.031113" lat="52.712929"><ele>355.162109</ele><time>2022-01-15T13:27:47Z</time><extensions><speed>0.917260</speed><course>251.273529</course><hAcc>1.847717</hAcc><vAcc>0.710664</vAcc></extensions></trkpt>
      <trkpt lon="-3.031127" lat="52.712926"><ele>354.983490</ele><time>2022-01-15T13:27:48Z</time><extensions><speed>1.051636</speed><course>250.566391</course><hAcc>1.852604</hAcc><vAcc>0.711011</vAcc></extensions></trkpt>
      <trkpt lon="-3.031142" lat="52.712923"><ele>354.794098</ele><time>2022-01-15T13:27:49Z</time><extensions><speed>1.103137</speed><course>249.262527</course><hAcc>1.856724</hAcc><vAcc>0.711170</vAcc></extensions></trkpt>
      <trkpt lon="-3.031157" lat="52.712919"><ele>354.593140</ele><time>2022-01-15T13:27:50Z</time><extensions><speed>1.086230</speed><course>246.612076</course><hAcc>1.856968</hAcc><vAcc>0.711160</vAcc></extensions></trkpt>
      <trkpt lon="-3.031171" lat="52.712915"><ele>354.394775</ele><time>2022-01-15T13:27:51Z</time><extensions><speed>1.053555</speed><course>245.824036</course><hAcc>1.859539</hAcc><vAcc>0.710967</vAcc></extensions></trkpt>
      <trkpt lon="-3.031186" lat="52.712911"><ele>354.191956</ele><time>2022-01-15T13:27:52Z</time><extensions><speed>1.060179</speed><course>245.938248</course><hAcc>1.867014</hAcc><vAcc>0.710637</vAcc></extensions></trkpt>
      <trkpt lon="-3.031200" lat="52.712907"><ele>353.981995</ele><time>2022-01-15T13:27:53Z</time><extensions><speed>1.143833</speed><course>245.059052</course><hAcc>1.866415</hAcc><vAcc>0.710189</vAcc></extensions></trkpt>
      <trkpt lon="-3.031216" lat="52.712903"><ele>353.787262</ele><time>2022-01-15T13:27:54Z</time><extensions><speed>1.251741</speed><course>244.698196</course><hAcc>1.864437</hAcc><vAcc>0.709605</vAcc></extensions></trkpt>
      <trkpt lon="-3.031234" lat="52.712898"><ele>353.575287</ele><time>2022-01-15T13:27:55Z</time><extensions><speed>1.352241</speed><course>244.282516</course><hAcc>1.869802</hAcc><vAcc>0.708935</vAcc></extensions></trkpt>
      <trkpt lon="-3.031252" lat="52.712892"><ele>353.357971</ele><time>2022-01-15T13:27:56Z</time><extensions><speed>1.394158</speed><course>243.099350</course><hAcc>1.878829</hAcc><vAcc>0.708199</vAcc></extensions></trkpt>
      <trkpt lon="-3.031270" lat="52.712887"><ele>353.144501</ele><time>2022-01-15T13:27:57Z</time><extensions><speed>1.345915</speed><course>242.704971</course><hAcc>1.868660</hAcc><vAcc>0.707511</vAcc></extensions></trkpt>
      <trkpt lon="-3.031287" lat="52.712881"><ele>352.929138</ele><time>2022-01-15T13:27:58Z</time><extensions><speed>1.312812</speed><course>242.230087</course><hAcc>1.861212</hAcc><vAcc>0.706930</vAcc></extensions></trkpt>
      <trkpt lon="-3.031304" lat="52.712876"><ele>352.716644</ele><time>2022-01-15T13:27:59Z</time><extensions><speed>1.285509</speed><course>241.847977</course><hAcc>1.861663</hAcc><vAcc>0.706487</vAcc></extensions></trkpt>
      <trkpt lon="-3.031321" lat="52.712870"><ele>352.504730</ele><time>2022-01-15T13:28:00Z</time><extensions><speed>1.253383</speed><course>241.147354</course><hAcc>1.864889</hAcc><vAcc>0.706223</vAcc></extensions></trkpt>
      <trkpt lon="-3.031337" lat="52.712865"><ele>352.264160</ele><time>2022-01-15T13:28:01Z</time><extensions><speed>1.226436</speed><course>239.596924</course><hAcc>1.864034</hAcc><vAcc>0.706250</vAcc></extensions></trkpt>
      <trkpt lon="-3.031353" lat="52.712859"><ele>352.026001</ele><time>2022-01-15T13:28:02Z</time><extensions><speed>1.220871</speed><course>239.040909</course><hAcc>1.860840</hAcc><vAcc>0.706594</vAcc></extensions></trkpt>
      <trkpt lon="-3.031368" lat="52.712853"><ele>351.793213</ele><time>2022-01-15T13:28:03Z</time><extensions><speed>1.208735</speed><course>238.583847</course><hAcc>1.851990</hAcc><vAcc>0.707295</vAcc></extensions></trkpt>
      <trkpt lon="-3.031383" lat="52.712848"><ele>351.543060</ele><time>2022-01-15T13:28:04Z</time><extensions><speed>1.229842</speed><course>237.443756</course><hAcc>1.840652</hAcc><vAcc>0.708355</vAcc></extensions></trkpt>
      <trkpt lon="-3.031399" lat="52.712842"><ele>351.328735</ele><time>2022-01-15T13:28:05Z</time><extensions><speed>1.256789</speed><course>238.128616</course><hAcc>1.835976</hAcc><vAcc>0.709735</vAcc></extensions></trkpt>
      <trkpt lon="-3.031415" lat="52.712836"><ele>351.117676</ele><time>2022-01-15T13:28:06Z</time><extensions><speed>1.235976</speed><course>239.996704</course><hAcc>1.844859</hAcc><vAcc>0.711262</vAcc></extensions></trkpt>
      <trkpt lon="-3.031430" lat="52.712830"><ele>350.918213</ele><time>2022-01-15T13:28:07Z</time><extensions><speed>1.233090</speed><course>241.063980</course><hAcc>1.862285</hAcc><vAcc>0.712736</vAcc></extensions></trkpt>
      <trkpt lon="-3.031447" lat="52.712825"><ele>350.713531</ele><time>2022-01-15T13:28:08Z</time><extensions><speed>1.296225</speed><course>242.388885</course><hAcc>1.836321</hAcc><vAcc>0.714065</vAcc></extensions></trkpt>
      <trkpt lon="-3.031464" lat="52.712819"><ele>350.521210</ele><time>2022-01-15T13:28:09Z</time><extensions><speed>1.320049</speed><course>242.288254</course><hAcc>1.822851</hAcc><vAcc>0.715011</vAcc></extensions></trkpt>
      <trkpt lon="-3.031481" lat="52.712814"><ele>350.333130</ele><time>2022-01-15T13:28:10Z</time><extensions><speed>1.267977</speed><course>241.492813</course><hAcc>1.832504</hAcc><vAcc>0.715480</vAcc></extensions></trkpt>
      <trkpt lon="-3.031498" lat="52.712809"><ele>350.144409</ele><time>2022-01-15T13:28:11Z</time><extensions><speed>1.278874</speed><course>241.667404</course><hAcc>1.850407</hAcc><vAcc>0.715481</vAcc></extensions></trkpt>
      <trkpt lon="-3.031514" lat="52.712803"><ele>349.963562</ele><time>2022-01-15T13:28:12Z</time><extensions><speed>1.274015</speed><course>241.423401</course><hAcc>1.858466</hAcc><vAcc>0.715132</vAcc></extensions></trkpt>
      <trkpt lon="-3.031531" lat="52.712798"><ele>349.774780</ele><time>2022-01-15T13:28:13Z</time><extensions><speed>1.238265</speed><course>241.926773</course><hAcc>1.865230</hAcc><vAcc>0.714582</vAcc></extensions></trkpt>
      <trkpt lon="-3.031547" lat="52.712792"><ele>349.602783</ele><time>2022-01-15T13:28:14Z</time><extensions><speed>1.255820</speed><course>241.141479</course><hAcc>1.869679</hAcc><vAcc>0.713976</vAcc></extensions></trkpt>
      <trkpt lon="-3.031563" lat="52.712787"><ele>349.431458</ele><time>2022-01-15T13:28:15Z</time><extensions><speed>1.256733</speed><course>239.215164</course><hAcc>1.869099</hAcc><vAcc>0.713418</vAcc></extensions></trkpt>
      <trkpt lon="-3.031579" lat="52.712781"><ele>349.246918</ele><time>2022-01-15T13:28:16Z</time><extensions><speed>1.249491</speed><course>238.518112</course><hAcc>1.863473</hAcc><vAcc>0.713066</vAcc></extensions></trkpt>
      <trkpt lon="-3.031594" lat="52.712775"><ele>349.063751</ele><time>2022-01-15T13:28:17Z</time><extensions><speed>1.213528</speed><course>239.029037</course><hAcc>1.860460</hAcc><vAcc>0.713024</vAcc></extensions></trkpt>
      <trkpt lon="-3.031609" lat="52.712770"><ele>348.879425</ele><time>2022-01-15T13:28:18Z</time><extensions><speed>1.157863</speed><course>240.645752</course><hAcc>1.860334</hAcc><vAcc>0.713264</vAcc></extensions></trkpt>
      <trkpt lon="-3.031624" lat="52.712765"><ele>348.687164</ele><time>2022-01-15T13:28:19Z</time><extensions><speed>1.093117</speed><course>241.304550</course><hAcc>1.843800</hAcc><vAcc>0.713782</vAcc></extensions></trkpt>
      <trkpt lon="-3.031638" lat="52.712760"><ele>348.492950</ele><time>2022-01-15T13:28:20Z</time><extensions><speed>1.072936</speed><course>241.680984</course><hAcc>1.825890</hAcc><vAcc>0.714509</vAcc></extensions></trkpt>
      <trkpt lon="-3.031652" lat="52.712756"><ele>348.294342</ele><time>2022-01-15T13:28:21Z</time><extensions><speed>1.071671</speed><course>241.884354</course><hAcc>1.822005</hAcc><vAcc>0.715408</vAcc></extensions></trkpt>
      <trkpt lon="-3.031666" lat="52.712751"><ele>348.080139</ele><time>2022-01-15T13:28:22Z</time><extensions><speed>1.096389</speed><course>241.264481</course><hAcc>1.833474</hAcc><vAcc>0.716352</vAcc></extensions></trkpt>
      <trkpt lon="-3.031680" lat="52.712746"><ele>347.859314</ele><time>2022-01-15T13:28:23Z</time><extensions><speed>1.124152</speed><course>240.436890</course><hAcc>1.819540</hAcc><vAcc>0.717374</vAcc></extensions></trkpt>
      <trkpt lon="-3.031695" lat="52.712741"><ele>347.630768</ele><time>2022-01-15T13:28:24Z</time><extensions><speed>1.169991</speed><course>239.719574</course><hAcc>1.801475</hAcc><vAcc>0.718423</vAcc></extensions></trkpt>
      <trkpt lon="-3.031710" lat="52.712736"><ele>347.377899</ele><time>2022-01-15T13:28:25Z</time><extensions><speed>1.219049</speed><course>239.422958</course><hAcc>1.790906</hAcc><vAcc>0.719517</vAcc></extensions></trkpt>
      <trkpt lon="-3.031726" lat="52.712730"><ele>347.102722</ele><time>2022-01-15T13:28:26Z</time><extensions><speed>1.257752</speed><course>239.353836</course><hAcc>1.804651</hAcc><vAcc>0.720667</vAcc></extensions></trkpt>
      <trkpt lon="-3.031742" lat="52.712724"><ele>346.840118</ele><time>2022-01-15T13:28:27Z</time><extensions><speed>1.235330</speed><course>239.120346</course><hAcc>1.817561</hAcc><vAcc>0.721929</vAcc></extensions></trkpt>
      <trkpt lon="-3.031757" lat="52.712719"><ele>346.555145</ele><time>2022-01-15T13:28:28Z</time><extensions><speed>1.107638</speed><course>237.682129</course><hAcc>1.799940</hAcc><vAcc>0.723383</vAcc></extensions></trkpt>
      <trkpt lon="-3.031770" lat="52.712713"><ele>346.301392</ele><time>2022-01-15T13:28:29Z</time><extensions><speed>1.030502</speed><course>236.190002</course><hAcc>1.793468</hAcc><vAcc>0.725049</vAcc></extensions></trkpt>
      <trkpt lon="-3.031782" lat="52.712708"><ele>346.004791</ele><time>2022-01-15T13:28:30Z</time><extensions><speed>0.949449</speed><course>234.620972</course><hAcc>1.793988</hAcc><vAcc>0.726934</vAcc></extensions></trkpt>
      <trkpt lon="-3.031794" lat="52.712703"><ele>345.716888</ele><time>2022-01-15T13:28:31Z</time><extensions><speed>0.964664</speed><course>236.230530</course><hAcc>1.794627</hAcc><vAcc>0.729209</vAcc></extensions></trkpt>
      <trkpt lon="-3.031806" lat="52.712699"><ele>345.420288</ele><time>2022-01-15T13:28:32Z</time><extensions><speed>1.021488</speed><course>239.304138</course><hAcc>1.764896</hAcc><vAcc>0.731735</vAcc></extensions></trkpt>
      <trkpt lon="-3.031820" lat="52.712694"><ele>345.135742</ele><time>2022-01-15T13:28:33Z</time><extensions><speed>1.207146</speed><course>241.468918</course><hAcc>1.729581</hAcc><vAcc>0.734357</vAcc></extensions></trkpt>
      <trkpt lon="-3.031837" lat="52.712689"><ele>344.835754</ele><time>2022-01-15T13:28:34Z</time><extensions><speed>1.311314</speed><course>244.014130</course><hAcc>1.709479</hAcc><vAcc>0.736957</vAcc></extensions></trkpt>
      <trkpt lon="-3.031855" lat="52.712683"><ele>344.538330</ele><time>2022-01-15T13:28:35Z</time><extensions><speed>1.397966</speed><course>245.840759</course><hAcc>1.733004</hAcc><vAcc>0.739365</vAcc></extensions></trkpt>
      <trkpt lon="-3.031874" lat="52.712679"><ele>344.268127</ele><time>2022-01-15T13:28:36Z</time><extensions><speed>1.324511</speed><course>247.736938</course><hAcc>1.779783</hAcc><vAcc>0.741363</vAcc></extensions></trkpt>
      <trkpt lon="-3.031892" lat="52.712674"><ele>343.999695</ele><time>2022-01-15T13:28:37Z</time><extensions><speed>1.397862</speed><course>244.881317</course><hAcc>1.749989</hAcc><vAcc>0.742877</vAcc></extensions></trkpt>
      <trkpt lon="-3.031910" lat="52.712669"><ele>343.745911</ele><time>2022-01-15T13:28:38Z</time><extensions><speed>1.304268</speed><course>244.447800</course><hAcc>1.715080</hAcc><vAcc>0.743785</vAcc></extensions></trkpt>
      <trkpt lon="-3.031927" lat="52.712664"><ele>343.501404</ele><time>2022-01-15T13:28:39Z</time><extensions><speed>1.213918</speed><course>243.833649</course><hAcc>1.727563</hAcc><vAcc>0.744041</vAcc></extensions></trkpt>
      <trkpt lon="-3.031943" lat="52.712659"><ele>343.268646</ele><time>2022-01-15T13:28:40Z</time><extensions><speed>1.148900</speed><course>245.377426</course><hAcc>1.766659</hAcc><vAcc>0.743613</vAcc></extensions></trkpt>
      <trkpt lon="-3.031958" lat="52.712655"><ele>343.041229</ele><time>2022-01-15T13:28:41Z</time><extensions><speed>1.124925</speed><course>247.658905</course><hAcc>1.796546</hAcc><vAcc>0.742640</vAcc></extensions></trkpt>
      <trkpt lon="-3.031974" lat="52.712651"><ele>342.813660</ele><time>2022-01-15T13:28:42Z</time><extensions><speed>1.152589</speed><course>249.979202</course><hAcc>1.812649</hAcc><vAcc>0.741169</vAcc></extensions></trkpt>
      <trkpt lon="-3.031990" lat="52.712648"><ele>342.590210</ele><time>2022-01-15T13:28:43Z</time><extensions><speed>1.136929</speed><course>250.561050</course><hAcc>1.825523</hAcc><vAcc>0.739260</vAcc></extensions></trkpt>
      <trkpt lon="-3.032005" lat="52.712644"><ele>342.365784</ele><time>2022-01-15T13:28:44Z</time><extensions><speed>1.075587</speed><course>251.049210</course><hAcc>1.836383</hAcc><vAcc>0.737025</vAcc></extensions></trkpt>
      <trkpt lon="-3.032020" lat="52.712641"><ele>342.147156</ele><time>2022-01-15T13:28:45Z</time><extensions><speed>1.085980</speed><course>249.679016</course><hAcc>1.838275</hAcc><vAcc>0.734589</vAcc></extensions></trkpt>
      <trkpt lon="-3.032036" lat="52.712638"><ele>341.930786</ele><time>2022-01-15T13:28:46Z</time><extensions><speed>1.120180</speed><course>248.200348</course><hAcc>1.838634</hAcc><vAcc>0.732101</vAcc></extensions></trkpt>
      <trkpt lon="-3.032052" lat="52.712634"><ele>341.726044</ele><time>2022-01-15T13:28:47Z</time><extensions><speed>1.191661</speed><course>246.945114</course><hAcc>1.840547</hAcc><vAcc>0.729652</vAcc></extensions></trkpt>
      <trkpt lon="-3.032068" lat="52.712629"><ele>341.521637</ele><time>2022-01-15T13:28:48Z</time><extensions><speed>1.265399</speed><course>245.438385</course><hAcc>1.833874</hAcc><vAcc>0.727355</vAcc></extensions></trkpt>
      <trkpt lon="-3.032085" lat="52.712624"><ele>341.310089</ele><time>2022-01-15T13:28:49Z</time><extensions><speed>1.301218</speed><course>243.417603</course><hAcc>1.819121</hAcc><vAcc>0.725288</vAcc></extensions></trkpt>
      <trkpt lon="-3.032103" lat="52.712619"><ele>341.093536</ele><time>2022-01-15T13:28:50Z</time><extensions><speed>1.317661</speed><course>241.302994</course><hAcc>1.819219</hAcc><vAcc>0.723602</vAcc></extensions></trkpt>
      <trkpt lon="-3.032120" lat="52.712613"><ele>340.892487</ele><time>2022-01-15T13:28:51Z</time><extensions><speed>1.329599</speed><course>240.401367</course><hAcc>1.839942</hAcc><vAcc>0.722386</vAcc></extensions></trkpt>
      <trkpt lon="-3.032136" lat="52.712607"><ele>340.695007</ele><time>2022-01-15T13:28:52Z</time><extensions><speed>1.219873</speed><course>240.462540</course><hAcc>1.849269</hAcc><vAcc>0.721679</vAcc></extensions></trkpt>
      <trkpt lon="-3.032152" lat="52.712602"><ele>340.482452</ele><time>2022-01-15T13:28:53Z</time><extensions><speed>1.171980</speed><course>242.301025</course><hAcc>1.830526</hAcc><vAcc>0.721485</vAcc></extensions></trkpt>
      <trkpt lon="-3.032167" lat="52.712598"><ele>340.249451</ele><time>2022-01-15T13:28:54Z</time><extensions><speed>1.130126</speed><course>245.673126</course><hAcc>1.824477</hAcc><vAcc>0.721805</vAcc></extensions></trkpt>
      <trkpt lon="-3.032183" lat="52.712593"><ele>340.045074</ele><time>2022-01-15T13:28:55Z</time><extensions><speed>1.203035</speed><course>244.383789</course><hAcc>1.830314</hAcc><vAcc>0.722568</vAcc></extensions></trkpt>
      <trkpt lon="-3.032199" lat="52.712588"><ele>339.839752</ele><time>2022-01-15T13:28:56Z</time><extensions><speed>1.305916</speed><course>242.187729</course><hAcc>1.842666</hAcc><vAcc>0.723777</vAcc></extensions></trkpt>
      <trkpt lon="-3.032216" lat="52.712582"><ele>339.620636</ele><time>2022-01-15T13:28:57Z</time><extensions><speed>1.317746</speed><course>240.967758</course><hAcc>1.842053</hAcc><vAcc>0.725315</vAcc></extensions></trkpt>
      <trkpt lon="-3.032233" lat="52.712577"><ele>339.409485</ele><time>2022-01-15T13:28:58Z</time><extensions><speed>1.277978</speed><course>240.766830</course><hAcc>1.837901</hAcc><vAcc>0.727062</vAcc></extensions></trkpt>
      <trkpt lon="-3.032249" lat="52.712571"><ele>339.195343</ele><time>2022-01-15T13:28:59Z</time><extensions><speed>1.234065</speed><course>241.550507</course><hAcc>1.836184</hAcc><vAcc>0.728944</vAcc></extensions></trkpt>
      <trkpt lon="-3.032265" lat="52.712566"><ele>338.995178</ele><time>2022-01-15T13:29:00Z</time><extensions><speed>1.187304</speed><course>243.504028</course><hAcc>1.836991</hAcc><vAcc>0.730811</vAcc></extensions></trkpt>
      <trkpt lon="-3.032281" lat="52.712562"><ele>338.787933</ele><time>2022-01-15T13:29:01Z</time><extensions><speed>1.183201</speed><course>245.514023</course><hAcc>1.840977</hAcc><vAcc>0.732525</vAcc></extensions></trkpt>
      <trkpt lon="-3.032297" lat="52.712557"><ele>338.586090</ele><time>2022-01-15T13:29:02Z</time><extensions><speed>1.172556</speed><course>245.466766</course><hAcc>1.833111</hAcc><vAcc>0.734047</vAcc></extensions></trkpt>
      <trkpt lon="-3.032313" lat="52.712553"><ele>338.394104</ele><time>2022-01-15T13:29:03Z</time><extensions><speed>1.144823</speed><course>245.804474</course><hAcc>1.822637</hAcc><vAcc>0.735281</vAcc></extensions></trkpt>
      <trkpt lon="-3.032328" lat="52.712549"><ele>338.213287</ele><time>2022-01-15T13:29:04Z</time><extensions><speed>1.110705</speed><course>246.010941</course><hAcc>1.814575</hAcc><vAcc>0.736113</vAcc></extensions></trkpt>
      <trkpt lon="-3.032343" lat="52.712545"><ele>338.028229</ele><time>2022-01-15T13:29:05Z</time><extensions><speed>1.130616</speed><course>245.051453</course><hAcc>1.806707</hAcc><vAcc>0.736573</vAcc></extensions></trkpt>
      <trkpt lon="-3.032358" lat="52.712540"><ele>337.832825</ele><time>2022-01-15T13:29:06Z</time><extensions><speed>1.193656</speed><course>243.140945</course><hAcc>1.813073</hAcc><vAcc>0.736614</vAcc></extensions></trkpt>
      <trkpt lon="-3.032374" lat="52.712535"><ele>337.664520</ele><time>2022-01-15T13:29:07Z</time><extensions><speed>1.204626</speed><course>243.510635</course><hAcc>1.805321</hAcc><vAcc>0.736254</vAcc></extensions></trkpt>
      <trkpt lon="-3.032390" lat="52.712531"><ele>337.481171</ele><time>2022-01-15T13:29:08Z</time><extensions><speed>1.220283</speed><course>244.079178</course><hAcc>1.810853</hAcc><vAcc>0.735495</vAcc></extensions></trkpt>
      <trkpt lon="-3.032407" lat="52.712526"><ele>337.320282</ele><time>2022-01-15T13:29:09Z</time><extensions><speed>1.202766</speed><course>244.273651</course><hAcc>1.831544</hAcc><vAcc>0.734363</vAcc></extensions></trkpt>
      <trkpt lon="-3.032423" lat="52.712521"><ele>337.164062</ele><time>2022-01-15T13:29:10Z</time><extensions><speed>1.263769</speed><course>244.643707</course><hAcc>1.817871</hAcc><vAcc>0.732952</vAcc></extensions></trkpt>
      <trkpt lon="-3.032440" lat="52.712516"><ele>336.994141</ele><time>2022-01-15T13:29:11Z</time><extensions><speed>1.325479</speed><course>244.859375</course><hAcc>1.806365</hAcc><vAcc>0.731315</vAcc></extensions></trkpt>
      <trkpt lon="-3.032458" lat="52.712511"><ele>336.834686</ele><time>2022-01-15T13:29:12Z</time><extensions><speed>1.305161</speed><course>244.060745</course><hAcc>1.800643</hAcc><vAcc>0.729577</vAcc></extensions></trkpt>
      <trkpt lon="-3.032475" lat="52.712506"><ele>336.673920</ele><time>2022-01-15T13:29:13Z</time><extensions><speed>1.218252</speed><course>243.571579</course><hAcc>1.793249</hAcc><vAcc>0.727776</vAcc></extensions></trkpt>
      <trkpt lon="-3.032491" lat="52.712501"><ele>336.505646</ele><time>2022-01-15T13:29:14Z</time><extensions><speed>1.194032</speed><course>243.651077</course><hAcc>1.789032</hAcc><vAcc>0.725967</vAcc></extensions></trkpt>
      <trkpt lon="-3.032506" lat="52.712496"><ele>336.331482</ele><time>2022-01-15T13:29:15Z</time><extensions><speed>1.179645</speed><course>244.463791</course><hAcc>1.805258</hAcc><vAcc>0.724184</vAcc></extensions></trkpt>
      <trkpt lon="-3.032522" lat="52.712492"><ele>336.154358</ele><time>2022-01-15T13:29:16Z</time><extensions><speed>1.130592</speed><course>245.531494</course><hAcc>1.823783</hAcc><vAcc>0.722483</vAcc></extensions></trkpt>
      <trkpt lon="-3.032537" lat="52.712488"><ele>335.992065</ele><time>2022-01-15T13:29:17Z</time><extensions><speed>1.038127</speed><course>246.936218</course><hAcc>1.807276</hAcc><vAcc>0.720823</vAcc></extensions></trkpt>
      <trkpt lon="-3.032551" lat="52.712484"><ele>335.827667</ele><time>2022-01-15T13:29:18Z</time><extensions><speed>1.135266</speed><course>246.195816</course><hAcc>1.802331</hAcc><vAcc>0.719193</vAcc></extensions></trkpt>
      <trkpt lon="-3.032567" lat="52.712479"><ele>335.645630</ele><time>2022-01-15T13:29:19Z</time><extensions><speed>1.181081</speed><course>240.968964</course><hAcc>1.801699</hAcc><vAcc>0.717661</vAcc></extensions></trkpt>
      <trkpt lon="-3.032582" lat="52.712474"><ele>335.466675</ele><time>2022-01-15T13:29:20Z</time><extensions><speed>1.226190</speed><course>237.296432</course><hAcc>1.815551</hAcc><vAcc>0.716267</vAcc></extensions></trkpt>
      <trkpt lon="-3.032597" lat="52.712467"><ele>335.274261</ele><time>2022-01-15T13:29:21Z</time><extensions><speed>1.283909</speed><course>234.975784</course><hAcc>1.828927</hAcc><vAcc>0.715057</vAcc></extensions></trkpt>
      <trkpt lon="-3.032613" lat="52.712460"><ele>335.091034</ele><time>2022-01-15T13:29:22Z</time><extensions><speed>1.340803</speed><course>233.596817</course><hAcc>1.835504</hAcc><vAcc>0.714081</vAcc></extensions></trkpt>
      <trkpt lon="-3.032629" lat="52.712453"><ele>334.899445</ele><time>2022-01-15T13:29:23Z</time><extensions><speed>1.342643</speed><course>233.851288</course><hAcc>1.832076</hAcc><vAcc>0.713387</vAcc></extensions></trkpt>
      <trkpt lon="-3.032646" lat="52.712446"><ele>334.695374</ele><time>2022-01-15T13:29:24Z</time><extensions><speed>1.360164</speed><course>235.402969</course><hAcc>1.826242</hAcc><vAcc>0.712952</vAcc></extensions></trkpt>
      <trkpt lon="-3.032663" lat="52.712439"><ele>334.509674</ele><time>2022-01-15T13:29:25Z</time><extensions><speed>1.393692</speed><course>237.345978</course><hAcc>1.829726</hAcc><vAcc>0.712771</vAcc></extensions></trkpt>
      <trkpt lon="-3.032680" lat="52.712433"><ele>334.320953</ele><time>2022-01-15T13:29:26Z</time><extensions><speed>1.384838</speed><course>238.527313</course><hAcc>1.841504</hAcc><vAcc>0.712806</vAcc></extensions></trkpt>
      <trkpt lon="-3.032697" lat="52.712426"><ele>334.125427</ele><time>2022-01-15T13:29:27Z</time><extensions><speed>1.357379</speed><course>237.797501</course><hAcc>1.816057</hAcc><vAcc>0.712974</vAcc></extensions></trkpt>
      <trkpt lon="-3.032714" lat="52.712420"><ele>333.919647</ele><time>2022-01-15T13:29:28Z</time><extensions><speed>1.308694</speed><course>238.327789</course><hAcc>1.813070</hAcc><vAcc>0.713218</vAcc></extensions></trkpt>
      <trkpt lon="-3.032731" lat="52.712414"><ele>333.712524</ele><time>2022-01-15T13:29:29Z</time><extensions><speed>1.307547</speed><course>239.571075</course><hAcc>1.840097</hAcc><vAcc>0.713531</vAcc></extensions></trkpt>
      <trkpt lon="-3.032747" lat="52.712408"><ele>333.514679</ele><time>2022-01-15T13:29:30Z</time><extensions><speed>1.324659</speed><course>239.754807</course><hAcc>1.825492</hAcc><vAcc>0.713855</vAcc></extensions></trkpt>
      <trkpt lon="-3.032765" lat="52.712402"><ele>333.289490</ele><time>2022-01-15T13:29:31Z</time><extensions><speed>1.355724</speed><course>240.517990</course><hAcc>1.823307</hAcc><vAcc>0.714141</vAcc></extensions></trkpt>
      <trkpt lon="-3.032782" lat="52.712396"><ele>333.050537</ele><time>2022-01-15T13:29:32Z</time><extensions><speed>1.366240</speed><course>240.582886</course><hAcc>1.830719</hAcc><vAcc>0.714392</vAcc></extensions></trkpt>
      <trkpt lon="-3.032800" lat="52.712390"><ele>332.824066</ele><time>2022-01-15T13:29:33Z</time><extensions><speed>1.378221</speed><course>241.851517</course><hAcc>1.843594</hAcc><vAcc>0.714629</vAcc></extensions></trkpt>
      <trkpt lon="-3.032818" lat="52.712384"><ele>332.602448</ele><time>2022-01-15T13:29:34Z</time><extensions><speed>1.403574</speed><course>242.743835</course><hAcc>1.855095</hAcc><vAcc>0.714825</vAcc></extensions></trkpt>
      <trkpt lon="-3.032837" lat="52.712378"><ele>332.374451</ele><time>2022-01-15T13:29:35Z</time><extensions><speed>1.393717</speed><course>243.838730</course><hAcc>1.863966</hAcc><vAcc>0.715028</vAcc></extensions></trkpt>
      <trkpt lon="-3.032855" lat="52.712373"><ele>332.144562</ele><time>2022-01-15T13:29:36Z</time><extensions><speed>1.350276</speed><course>245.668747</course><hAcc>1.871242</hAcc><vAcc>0.715245</vAcc></extensions></trkpt>
      <trkpt lon="-3.032873" lat="52.712368"><ele>331.908112</ele><time>2022-01-15T13:29:37Z</time><extensions><speed>1.253296</speed><course>248.536636</course><hAcc>1.871617</hAcc><vAcc>0.715490</vAcc></extensions></trkpt>
      <trkpt lon="-3.032890" lat="52.712365"><ele>331.666748</ele><time>2022-01-15T13:29:38Z</time><extensions><speed>1.169030</speed><course>252.461212</course><hAcc>1.870649</hAcc><vAcc>0.715766</vAcc></extensions></trkpt>
      <trkpt lon="-3.032906" lat="52.712362"><ele>331.438049</ele><time>2022-01-15T13:29:39Z</time><extensions><speed>1.147947</speed><course>253.417099</course><hAcc>1.866846</hAcc><vAcc>0.716116</vAcc></extensions></trkpt>
      <trkpt lon="-3.032923" lat="52.712359"><ele>331.216278</ele><time>2022-01-15T13:29:40Z</time><extensions><speed>1.184114</speed><course>252.987396</course><hAcc>1.862087</hAcc><vAcc>0.716606</vAcc></extensions></trkpt>
      <trkpt lon="-3.032940" lat="52.712356"><ele>330.969727</ele><time>2022-01-15T13:29:41Z</time><extensions><speed>1.224216</speed><course>252.748779</course><hAcc>1.861939</hAcc><vAcc>0.717232</vAcc></extensions></trkpt>
      <trkpt lon="-3.032957" lat="52.712352"><ele>330.744171</ele><time>2022-01-15T13:29:42Z</time><extensions><speed>1.231807</speed><course>252.102661</course><hAcc>1.861745</hAcc><vAcc>0.718010</vAcc></extensions></trkpt>
      <trkpt lon="-3.032974" lat="52.712349"><ele>330.511810</ele><time>2022-01-15T13:29:43Z</time><extensions><speed>1.225096</speed><course>252.339890</course><hAcc>1.862618</hAcc><vAcc>0.718945</vAcc></extensions></trkpt>
      <trkpt lon="-3.032992" lat="52.712346"><ele>330.285400</ele><time>2022-01-15T13:29:44Z</time><extensions><speed>1.201539</speed><course>252.935684</course><hAcc>1.856051</hAcc><vAcc>0.720055</vAcc></extensions></trkpt>
      <trkpt lon="-3.033008" lat="52.712343"><ele>330.067780</ele><time>2022-01-15T13:29:45Z</time><extensions><speed>1.155486</speed><course>254.202988</course><hAcc>1.860488</hAcc><vAcc>0.721342</vAcc></extensions></trkpt>
      <trkpt lon="-3.033025" lat="52.712340"><ele>329.834320</ele><time>2022-01-15T13:29:46Z</time><extensions><speed>1.237477</speed><course>254.241653</course><hAcc>1.856658</hAcc><vAcc>0.722771</vAcc></extensions></trkpt>
      <trkpt lon="-3.033044" lat="52.712336"><ele>329.598999</ele><time>2022-01-15T13:29:47Z</time><extensions><speed>1.330709</speed><course>253.493988</course><hAcc>1.855299</hAcc><vAcc>0.724300</vAcc></extensions></trkpt>
      <trkpt lon="-3.033063" lat="52.712333"><ele>329.353180</ele><time>2022-01-15T13:29:48Z</time><extensions><speed>1.415678</speed><course>252.825424</course><hAcc>1.856582</hAcc><vAcc>0.725925</vAcc></extensions></trkpt>
      <trkpt lon="-3.033083" lat="52.712329"><ele>329.111328</ele><time>2022-01-15T13:29:49Z</time><extensions><speed>1.456692</speed><course>252.274048</course><hAcc>1.855043</hAcc><vAcc>0.727625</vAcc></extensions></trkpt>
      <trkpt lon="-3.033104" lat="52.712325"><ele>328.871887</ele><time>2022-01-15T13:29:50Z</time><extensions><speed>1.504770</speed><course>251.937775</course><hAcc>1.855553</hAcc><vAcc>0.729387</vAcc></extensions></trkpt>
      <trkpt lon="-3.033125" lat="52.712320"><ele>328.616180</ele><time>2022-01-15T13:29:51Z</time><extensions><speed>1.513858</speed><course>250.316055</course><hAcc>1.851193</hAcc><vAcc>0.731158</vAcc></extensions></trkpt>
      <trkpt lon="-3.033146" lat="52.712316"><ele>328.359039</ele><time>2022-01-15T13:29:52Z</time><extensions><speed>1.496068</speed><course>248.681366</course><hAcc>1.837797</hAcc><vAcc>0.732831</vAcc></extensions></trkpt>
      <trkpt lon="-3.033167" lat="52.712311"><ele>328.119049</ele><time>2022-01-15T13:29:53Z</time><extensions><speed>1.447618</speed><course>248.086044</course><hAcc>1.828789</hAcc><vAcc>0.734403</vAcc></extensions></trkpt>
      <trkpt lon="-3.033186" lat="52.712306"><ele>327.880768</ele><time>2022-01-15T13:29:54Z</time><extensions><speed>1.390343</speed><course>248.528534</course><hAcc>1.830491</hAcc><vAcc>0.735859</vAcc></extensions></trkpt>
      <trkpt lon="-3.033205" lat="52.712302"><ele>327.654205</ele><time>2022-01-15T13:29:55Z</time><extensions><speed>1.350660</speed><course>250.550018</course><hAcc>1.835081</hAcc><vAcc>0.737137</vAcc></extensions></trkpt>
      <trkpt lon="-3.033224" lat="52.712298"><ele>327.428253</ele><time>2022-01-15T13:29:56Z</time><extensions><speed>1.326836</speed><course>253.726303</course><hAcc>1.848583</hAcc><vAcc>0.738216</vAcc></extensions></trkpt>
      <trkpt lon="-3.033243" lat="52.712295"><ele>327.206940</ele><time>2022-01-15T13:29:57Z</time><extensions><speed>1.324793</speed><course>255.676086</course><hAcc>1.831514</hAcc><vAcc>0.739095</vAcc></extensions></trkpt>
      <trkpt lon="-3.033262" lat="52.712292"><ele>326.997253</ele><time>2022-01-15T13:29:58Z</time><extensions><speed>1.326277</speed><course>257.104919</course><hAcc>1.826196</hAcc><vAcc>0.739844</vAcc></extensions></trkpt>
      <trkpt lon="-3.033281" lat="52.712290"><ele>326.802338</ele><time>2022-01-15T13:29:59Z</time><extensions><speed>1.293809</speed><course>258.228485</course><hAcc>1.833092</hAcc><vAcc>0.740421</vAcc></extensions></trkpt>
      <trkpt lon="-3.033300" lat="52.712288"><ele>326.616058</ele><time>2022-01-15T13:30:00Z</time><extensions><speed>1.286192</speed><course>260.140106</course><hAcc>1.843008</hAcc><vAcc>0.740829</vAcc></extensions></trkpt>
      <trkpt lon="-3.033318" lat="52.712286"><ele>326.441254</ele><time>2022-01-15T13:30:01Z</time><extensions><speed>1.289396</speed><course>261.792236</course><hAcc>1.851242</hAcc><vAcc>0.741059</vAcc></extensions></trkpt>
      <trkpt lon="-3.033337" lat="52.712284"><ele>326.276855</ele><time>2022-01-15T13:30:02Z</time><extensions><speed>1.251731</speed><course>263.292633</course><hAcc>1.854837</hAcc><vAcc>0.741072</vAcc></extensions></trkpt>
      <trkpt lon="-3.033355" lat="52.712283"><ele>326.125488</ele><time>2022-01-15T13:30:03Z</time><extensions><speed>1.223687</speed><course>265.019409</course><hAcc>1.856065</hAcc><vAcc>0.740934</vAcc></extensions></trkpt>
      <trkpt lon="-3.033374" lat="52.712282"><ele>325.984985</ele><time>2022-01-15T13:30:04Z</time><extensions><speed>1.245509</speed><course>266.189728</course><hAcc>1.856883</hAcc><vAcc>0.740628</vAcc></extensions></trkpt>
      <trkpt lon="-3.033392" lat="52.712281"><ele>325.834839</ele><time>2022-01-15T13:30:05Z</time><extensions><speed>1.259228</speed><course>264.345459</course><hAcc>1.857768</hAcc><vAcc>0.740189</vAcc></extensions></trkpt>
      <trkpt lon="-3.033411" lat="52.712280"><ele>325.710510</ele><time>2022-01-15T13:30:06Z</time><extensions><speed>1.251762</speed><course>261.560974</course><hAcc>1.859366</hAcc><vAcc>0.739631</vAcc></extensions></trkpt>
      <trkpt lon="-3.033429" lat="52.712278"><ele>325.606842</ele><time>2022-01-15T13:30:07Z</time><extensions><speed>1.297814</speed><course>257.952545</course><hAcc>1.859347</hAcc><vAcc>0.739104</vAcc></extensions></trkpt>
      <trkpt lon="-3.033448" lat="52.712275"><ele>325.499329</ele><time>2022-01-15T13:30:08Z</time><extensions><speed>1.360928</speed><course>256.076447</course><hAcc>1.859774</hAcc><vAcc>0.738697</vAcc></extensions></trkpt>
      <trkpt lon="-3.033468" lat="52.712272"><ele>325.403931</ele><time>2022-01-15T13:30:09Z</time><extensions><speed>1.401325</speed><course>255.165619</course><hAcc>1.855490</hAcc><vAcc>0.738429</vAcc></extensions></trkpt>
      <trkpt lon="-3.033488" lat="52.712269"><ele>325.294525</ele><time>2022-01-15T13:30:10Z</time><extensions><speed>1.388327</speed><course>253.752136</course><hAcc>1.849345</hAcc><vAcc>0.738299</vAcc></extensions></trkpt>
      <trkpt lon="-3.033508" lat="52.712265"><ele>325.200256</ele><time>2022-01-15T13:30:11Z</time><extensions><speed>1.359627</speed><course>253.105957</course><hAcc>1.842966</hAcc><vAcc>0.738283</vAcc></extensions></trkpt>
      <trkpt lon="-3.033528" lat="52.712262"><ele>325.120544</ele><time>2022-01-15T13:30:12Z</time><extensions><speed>1.446787</speed><course>254.034805</course><hAcc>1.838810</hAcc><vAcc>0.738391</vAcc></extensions></trkpt>
      <trkpt lon="-3.033549" lat="52.712258"><ele>325.045990</ele><time>2022-01-15T13:30:13Z</time><extensions><speed>1.518882</speed><course>255.319244</course><hAcc>1.839515</hAcc><vAcc>0.738606</vAcc></extensions></trkpt>
      <trkpt lon="-3.033571" lat="52.712255"><ele>324.963898</ele><time>2022-01-15T13:30:14Z</time><extensions><speed>1.574703</speed><course>255.853149</course><hAcc>1.819861</hAcc><vAcc>0.738938</vAcc></extensions></trkpt>
      <trkpt lon="-3.033594" lat="52.712251"><ele>324.885620</ele><time>2022-01-15T13:30:15Z</time><extensions><speed>1.618580</speed><course>256.148438</course><hAcc>1.788245</hAcc><vAcc>0.739392</vAcc></extensions></trkpt>
      <trkpt lon="-3.033618" lat="52.712248"><ele>324.843414</ele><time>2022-01-15T13:30:16Z</time><extensions><speed>1.668335</speed><course>255.748413</course><hAcc>1.759549</hAcc><vAcc>0.739984</vAcc></extensions></trkpt>
      <trkpt lon="-3.033642" lat="52.712244"><ele>324.826202</ele><time>2022-01-15T13:30:17Z</time><extensions><speed>1.692143</speed><course>255.169876</course><hAcc>1.770360</hAcc><vAcc>0.740727</vAcc></extensions></trkpt>
      <trkpt lon="-3.033665" lat="52.712240"><ele>324.773010</ele><time>2022-01-15T13:30:18Z</time><extensions><speed>1.584253</speed><course>254.350967</course><hAcc>1.820815</hAcc><vAcc>0.741591</vAcc></extensions></trkpt>
      <trkpt lon="-3.033687" lat="52.712236"><ele>324.712494</ele><time>2022-01-15T13:30:19Z</time><extensions><speed>1.528650</speed><course>254.797073</course><hAcc>1.794643</hAcc><vAcc>0.742513</vAcc></extensions></trkpt>
      <trkpt lon="-3.033709" lat="52.712233"><ele>324.670746</ele><time>2022-01-15T13:30:20Z</time><extensions><speed>1.459271</speed><course>257.424866</course><hAcc>1.769295</hAcc><vAcc>0.743434</vAcc></extensions></trkpt>
      <trkpt lon="-3.033730" lat="52.712230"><ele>324.626373</ele><time>2022-01-15T13:30:21Z</time><extensions><speed>1.403733</speed><course>259.924164</course><hAcc>1.761180</hAcc><vAcc>0.744327</vAcc></extensions></trkpt>
      <trkpt lon="-3.033750" lat="52.712228"><ele>324.560181</ele><time>2022-01-15T13:30:22Z</time><extensions><speed>1.356228</speed><course>261.813232</course><hAcc>1.776652</hAcc><vAcc>0.745081</vAcc></extensions></trkpt>
      <trkpt lon="-3.033770" lat="52.712227"><ele>324.506439</ele><time>2022-01-15T13:30:23Z</time><extensions><speed>1.362864</speed><course>263.173920</course><hAcc>1.792884</hAcc><vAcc>0.745640</vAcc></extensions></trkpt>
      <trkpt lon="-3.033790" lat="52.712225"><ele>324.445190</ele><time>2022-01-15T13:30:24Z</time><extensions><speed>1.338558</speed><course>263.552368</course><hAcc>1.804481</hAcc><vAcc>0.745957</vAcc></extensions></trkpt>
      <trkpt lon="-3.033809" lat="52.712224"><ele>324.372528</ele><time>2022-01-15T13:30:25Z</time><extensions><speed>1.320321</speed><course>261.014648</course><hAcc>1.810038</hAcc><vAcc>0.745936</vAcc></extensions></trkpt>
      <trkpt lon="-3.033828" lat="52.712222"><ele>324.288818</ele><time>2022-01-15T13:30:26Z</time><extensions><speed>1.281245</speed><course>257.737030</course><hAcc>1.819996</hAcc><vAcc>0.745505</vAcc></extensions></trkpt>
      <trkpt lon="-3.033847" lat="52.712219"><ele>324.205536</ele><time>2022-01-15T13:30:27Z</time><extensions><speed>1.292148</speed><course>255.047684</course><hAcc>1.817288</hAcc><vAcc>0.744782</vAcc></extensions></trkpt>
      <trkpt lon="-3.033865" lat="52.712215"><ele>324.113525</ele><time>2022-01-15T13:30:28Z</time><extensions><speed>1.346026</speed><course>251.974716</course><hAcc>1.800564</hAcc><vAcc>0.743697</vAcc></extensions></trkpt>
      <trkpt lon="-3.033884" lat="52.712211"><ele>323.999146</ele><time>2022-01-15T13:30:29Z</time><extensions><speed>1.392202</speed><course>248.909088</course><hAcc>1.795179</hAcc><vAcc>0.742224</vAcc></extensions></trkpt>
      <trkpt lon="-3.033903" lat="52.712206"><ele>323.862915</ele><time>2022-01-15T13:30:30Z</time><extensions><speed>1.408476</speed><course>245.637009</course><hAcc>1.814699</hAcc><vAcc>0.740477</vAcc></extensions></trkpt>
      <trkpt lon="-3.033922" lat="52.712201"><ele>323.727539</ele><time>2022-01-15T13:30:31Z</time><extensions><speed>1.431305</speed><course>243.107224</course><hAcc>1.851246</hAcc><vAcc>0.738488</vAcc></extensions></trkpt>
      <trkpt lon="-3.033941" lat="52.712195"><ele>323.577393</ele><time>2022-01-15T13:30:32Z</time><extensions><speed>1.391728</speed><course>244.167007</course><hAcc>1.833538</hAcc><vAcc>0.736335</vAcc></extensions></trkpt>
      <trkpt lon="-3.033959" lat="52.712190"><ele>323.415405</ele><time>2022-01-15T13:30:33Z</time><extensions><speed>1.359578</speed><course>244.679932</course><hAcc>1.823087</hAcc><vAcc>0.734106</vAcc></extensions></trkpt>
      <trkpt lon="-3.033977" lat="52.712185"><ele>323.224152</ele><time>2022-01-15T13:30:34Z</time><extensions><speed>1.312652</speed><course>245.397415</course><hAcc>1.832564</hAcc><vAcc>0.731821</vAcc></extensions></trkpt>
      <trkpt lon="-3.033995" lat="52.712180"><ele>323.011780</ele><time>2022-01-15T13:30:35Z</time><extensions><speed>1.268019</speed><course>246.027542</course><hAcc>1.848770</hAcc><vAcc>0.729581</vAcc></extensions></trkpt>
      <trkpt lon="-3.034012" lat="52.712175"><ele>322.821503</ele><time>2022-01-15T13:30:36Z</time><extensions><speed>1.266603</speed><course>246.823822</course><hAcc>1.862211</hAcc><vAcc>0.727402</vAcc></extensions></trkpt>
      <trkpt lon="-3.034030" lat="52.712171"><ele>322.617462</ele><time>2022-01-15T13:30:37Z</time><extensions><speed>1.304793</speed><course>247.803284</course><hAcc>1.871944</hAcc><vAcc>0.725293</vAcc></extensions></trkpt>
      <trkpt lon="-3.034048" lat="52.712167"><ele>322.400787</ele><time>2022-01-15T13:30:38Z</time><extensions><speed>1.307512</speed><course>248.988190</course><hAcc>1.869948</hAcc><vAcc>0.723266</vAcc></extensions></trkpt>
      <trkpt lon="-3.034066" lat="52.712163"><ele>322.183563</ele><time>2022-01-15T13:30:39Z</time><extensions><speed>1.272035</speed><course>250.928635</course><hAcc>1.864724</hAcc><vAcc>0.721393</vAcc></extensions></trkpt>
      <trkpt lon="-3.034083" lat="52.712159"><ele>321.960327</ele><time>2022-01-15T13:30:40Z</time><extensions><speed>1.240960</speed><course>252.085892</course><hAcc>1.864192</hAcc><vAcc>0.719673</vAcc></extensions></trkpt>
      <trkpt lon="-3.034101" lat="52.712156"><ele>321.748627</ele><time>2022-01-15T13:30:41Z</time><extensions><speed>1.250208</speed><course>252.537918</course><hAcc>1.863155</hAcc><vAcc>0.718122</vAcc></extensions></trkpt>
      <trkpt lon="-3.034118" lat="52.712152"><ele>321.515961</ele><time>2022-01-15T13:30:42Z</time><extensions><speed>1.210916</speed><course>253.554428</course><hAcc>1.854274</hAcc><vAcc>0.716787</vAcc></extensions></trkpt>
      <trkpt lon="-3.034136" lat="52.712149"><ele>321.293091</ele><time>2022-01-15T13:30:43Z</time><extensions><speed>1.242266</speed><course>251.460587</course><hAcc>1.845287</hAcc><vAcc>0.715719</vAcc></extensions></trkpt>
      <trkpt lon="-3.034153" lat="52.712145"><ele>321.057434</ele><time>2022-01-15T13:30:44Z</time><extensions><speed>1.283209</speed><course>250.379974</course><hAcc>1.839876</hAcc><vAcc>0.714971</vAcc></extensions></trkpt>
      <trkpt lon="-3.034172" lat="52.712141"><ele>320.839752</ele><time>2022-01-15T13:30:45Z</time><extensions><speed>1.343205</speed><course>248.915787</course><hAcc>1.838075</hAcc><vAcc>0.714570</vAcc></extensions></trkpt>
      <trkpt lon="-3.034190" lat="52.712136"><ele>320.641235</ele><time>2022-01-15T13:30:46Z</time><extensions><speed>1.395257</speed><course>245.896423</course><hAcc>1.822638</hAcc><vAcc>0.714524</vAcc></extensions></trkpt>
      <trkpt lon="-3.034209" lat="52.712131"><ele>320.459473</ele><time>2022-01-15T13:30:47Z</time><extensions><speed>1.438762</speed><course>243.900482</course><hAcc>1.810678</hAcc><vAcc>0.714827</vAcc></extensions></trkpt>
      <trkpt lon="-3.034228" lat="52.712125"><ele>320.270081</ele><time>2022-01-15T13:30:48Z</time><extensions><speed>1.421921</speed><course>243.857910</course><hAcc>1.823640</hAcc><vAcc>0.715418</vAcc></extensions></trkpt>
      <trkpt lon="-3.034247" lat="52.712120"><ele>320.094574</ele><time>2022-01-15T13:30:49Z</time><extensions><speed>1.415067</speed><course>244.658432</course><hAcc>1.830107</hAcc><vAcc>0.716220</vAcc></extensions></trkpt>
      <trkpt lon="-3.034267" lat="52.712114"><ele>319.936859</ele><time>2022-01-15T13:30:50Z</time><extensions><speed>1.455968</speed><course>245.375046</course><hAcc>1.807903</hAcc><vAcc>0.717152</vAcc></extensions></trkpt>
      <trkpt lon="-3.034286" lat="52.712109"><ele>319.789215</ele><time>2022-01-15T13:30:51Z</time><extensions><speed>1.453944</speed><course>245.939377</course><hAcc>1.806137</hAcc><vAcc>0.718126</vAcc></extensions></trkpt>
      <trkpt lon="-3.034306" lat="52.712103"><ele>319.620728</ele><time>2022-01-15T13:30:52Z</time><extensions><speed>1.515936</speed><course>245.447861</course><hAcc>1.808084</hAcc><vAcc>0.719083</vAcc></extensions></trkpt>
      <trkpt lon="-3.034327" lat="52.712097"><ele>319.466461</ele><time>2022-01-15T13:30:53Z</time><extensions><speed>1.595198</speed><course>243.549423</course><hAcc>1.811820</hAcc><vAcc>0.719986</vAcc></extensions></trkpt>
      <trkpt lon="-3.034348" lat="52.712090"><ele>319.312775</ele><time>2022-01-15T13:30:54Z</time><extensions><speed>1.583147</speed><course>241.880066</course><hAcc>1.819006</hAcc><vAcc>0.720861</vAcc></extensions></trkpt>
      <trkpt lon="-3.034368" lat="52.712083"><ele>319.173889</ele><time>2022-01-15T13:30:55Z</time><extensions><speed>1.565074</speed><course>240.278259</course><hAcc>1.809997</hAcc><vAcc>0.721703</vAcc></extensions></trkpt>
      <trkpt lon="-3.034388" lat="52.712076"><ele>319.031921</ele><time>2022-01-15T13:30:56Z</time><extensions><speed>1.504392</speed><course>237.978363</course><hAcc>1.802191</hAcc><vAcc>0.722540</vAcc></extensions></trkpt>
      <trkpt lon="-3.034406" lat="52.712069"><ele>318.890259</ele><time>2022-01-15T13:30:57Z</time><extensions><speed>1.457188</speed><course>237.706924</course><hAcc>1.792816</hAcc><vAcc>0.723414</vAcc></extensions></trkpt>
      <trkpt lon="-3.034424" lat="52.712062"><ele>318.750183</ele><time>2022-01-15T13:30:58Z</time><extensions><speed>1.447232</speed><course>239.202896</course><hAcc>1.761734</hAcc><vAcc>0.724373</vAcc></extensions></trkpt>
      <trkpt lon="-3.034443" lat="52.712056"><ele>318.598145</ele><time>2022-01-15T13:30:59Z</time><extensions><speed>1.515894</speed><course>239.363129</course><hAcc>1.719223</hAcc><vAcc>0.725305</vAcc></extensions></trkpt>
      <trkpt lon="-3.034462" lat="52.712049"><ele>318.442719</ele><time>2022-01-15T13:31:00Z</time><extensions><speed>1.553375</speed><course>239.493607</course><hAcc>1.700360</hAcc><vAcc>0.726309</vAcc></extensions></trkpt>
      <trkpt lon="-3.034482" lat="52.712042"><ele>318.291473</ele><time>2022-01-15T13:31:01Z</time><extensions><speed>1.498217</speed><course>239.726974</course><hAcc>1.694360</hAcc><vAcc>0.727518</vAcc></extensions></trkpt>
      <trkpt lon="-3.034501" lat="52.712035"><ele>318.142395</ele><time>2022-01-15T13:31:02Z</time><extensions><speed>1.536676</speed><course>237.628586</course><hAcc>1.640653</hAcc><vAcc>0.728840</vAcc></extensions></trkpt>
      <trkpt lon="-3.034521" lat="52.712027"><ele>317.984436</ele><time>2022-01-15T13:31:03Z</time><extensions><speed>1.637875</speed><course>235.120636</course><hAcc>1.632158</hAcc><vAcc>0.730289</vAcc></extensions></trkpt>
      <trkpt lon="-3.034540" lat="52.712018"><ele>317.841553</ele><time>2022-01-15T13:31:04Z</time><extensions><speed>1.662417</speed><course>230.071335</course><hAcc>1.651150</hAcc><vAcc>0.731802</vAcc></extensions></trkpt>
      <trkpt lon="-3.034559" lat="52.712008"><ele>317.701569</ele><time>2022-01-15T13:31:05Z</time><extensions><speed>1.686983</speed><course>226.521133</course><hAcc>1.659445</hAcc><vAcc>0.733287</vAcc></extensions></trkpt>
      <trkpt lon="-3.034577" lat="52.711998"><ele>317.569763</ele><time>2022-01-15T13:31:06Z</time><extensions><speed>1.636253</speed><course>228.684586</course><hAcc>1.662217</hAcc><vAcc>0.734657</vAcc></extensions></trkpt>
      <trkpt lon="-3.034595" lat="52.711989"><ele>317.448822</ele><time>2022-01-15T13:31:07Z</time><extensions><speed>1.454790</speed><course>234.104904</course><hAcc>1.660329</hAcc><vAcc>0.735866</vAcc></extensions></trkpt>
      <trkpt lon="-3.034611" lat="52.711982"><ele>317.322937</ele><time>2022-01-15T13:31:08Z</time><extensions><speed>1.285480</speed><course>240.232361</course><hAcc>1.661989</hAcc><vAcc>0.736890</vAcc></extensions></trkpt>
      <trkpt lon="-3.034628" lat="52.711978"><ele>317.197144</ele><time>2022-01-15T13:31:09Z</time><extensions><speed>1.172094</speed><course>247.135010</course><hAcc>1.701832</hAcc><vAcc>0.737733</vAcc></extensions></trkpt>
      <trkpt lon="-3.034643" lat="52.711974"><ele>317.087921</ele><time>2022-01-15T13:31:10Z</time><extensions><speed>1.090648</speed><course>252.403366</course><hAcc>1.756217</hAcc><vAcc>0.738338</vAcc></extensions></trkpt>
      <trkpt lon="-3.034659" lat="52.711971"><ele>316.996887</ele><time>2022-01-15T13:31:11Z</time><extensions><speed>1.121121</speed><course>255.135651</course><hAcc>1.796103</hAcc><vAcc>0.738796</vAcc></extensions></trkpt>
      <trkpt lon="-3.034676" lat="52.711969"><ele>316.891693</ele><time>2022-01-15T13:31:12Z</time><extensions><speed>1.191510</speed><course>256.286926</course><hAcc>1.818214</hAcc><vAcc>0.739028</vAcc></extensions></trkpt>
      <trkpt lon="-3.034693" lat="52.711966"><ele>316.784027</ele><time>2022-01-15T13:31:13Z</time><extensions><speed>1.229274</speed><course>253.344543</course><hAcc>1.831851</hAcc><vAcc>0.739047</vAcc></extensions></trkpt>
      <trkpt lon="-3.034710" lat="52.711962"><ele>316.686707</ele><time>2022-01-15T13:31:14Z</time><extensions><speed>1.283057</speed><course>248.135681</course><hAcc>1.835052</hAcc><vAcc>0.738926</vAcc></extensions></trkpt>
      <trkpt lon="-3.034728" lat="52.711957"><ele>316.586487</ele><time>2022-01-15T13:31:15Z</time><extensions><speed>1.310642</speed><course>245.087631</course><hAcc>1.830018</hAcc><vAcc>0.738675</vAcc></extensions></trkpt>
      <trkpt lon="-3.034745" lat="52.711952"><ele>316.490784</ele><time>2022-01-15T13:31:16Z</time><extensions><speed>1.290431</speed><course>242.993698</course><hAcc>1.829397</hAcc><vAcc>0.738302</vAcc></extensions></trkpt>
      <trkpt lon="-3.034762" lat="52.711947"><ele>316.405334</ele><time>2022-01-15T13:31:17Z</time><extensions><speed>1.286412</speed><course>240.261963</course><hAcc>1.824345</hAcc><vAcc>0.737812</vAcc></extensions></trkpt>
      <trkpt lon="-3.034778" lat="52.711941"><ele>316.319519</ele><time>2022-01-15T13:31:18Z</time><extensions><speed>1.326641</speed><course>235.211136</course><hAcc>1.817793</hAcc><vAcc>0.737476</vAcc></extensions></trkpt>
      <trkpt lon="-3.034794" lat="52.711934"><ele>316.227509</ele><time>2022-01-15T13:31:19Z</time><extensions><speed>1.376636</speed><course>233.664810</course><hAcc>1.802793</hAcc><vAcc>0.737278</vAcc></extensions></trkpt>
      <trkpt lon="-3.034811" lat="52.711926"><ele>316.133087</ele><time>2022-01-15T13:31:20Z</time><extensions><speed>1.410477</speed><course>233.171249</course><hAcc>1.785282</hAcc><vAcc>0.737277</vAcc></extensions></trkpt>
      <trkpt lon="-3.034827" lat="52.711919"><ele>316.015228</ele><time>2022-01-15T13:31:21Z</time><extensions><speed>1.375298</speed><course>234.843292</course><hAcc>1.770334</hAcc><vAcc>0.737585</vAcc></extensions></trkpt>
      <trkpt lon="-3.034844" lat="52.711912"><ele>315.888275</ele><time>2022-01-15T13:31:22Z</time><extensions><speed>1.314420</speed><course>234.862732</course><hAcc>1.748057</hAcc><vAcc>0.738198</vAcc></extensions></trkpt>
      <trkpt lon="-3.034859" lat="52.711905"><ele>315.746277</ele><time>2022-01-15T13:31:23Z</time><extensions><speed>1.321356</speed><course>233.203293</course><hAcc>1.768866</hAcc><vAcc>0.739098</vAcc></extensions></trkpt>
      <trkpt lon="-3.034875" lat="52.711898"><ele>315.598114</ele><time>2022-01-15T13:31:24Z</time><extensions><speed>1.280509</speed><course>231.617615</course><hAcc>1.819144</hAcc><vAcc>0.740298</vAcc></extensions></trkpt>
      <trkpt lon="-3.034887" lat="52.711891"><ele>315.443939</ele><time>2022-01-15T13:31:25Z</time><extensions><speed>0.974292</speed><course>227.857025</course><hAcc>1.774997</hAcc><vAcc>0.741725</vAcc></extensions></trkpt>
      <trkpt lon="-3.034896" lat="52.711886"><ele>315.265625</ele><time>2022-01-15T13:31:26Z</time><extensions><speed>0.703520</speed><course>221.985947</course><hAcc>1.753847</hAcc><vAcc>0.743289</vAcc></extensions></trkpt>
      <trkpt lon="-3.034902" lat="52.711882"><ele>315.057220</ele><time>2022-01-15T13:31:27Z</time><extensions><speed>0.537989</speed><course>212.445206</course><hAcc>1.764698</hAcc><vAcc>0.744877</vAcc></extensions></trkpt>
      <trkpt lon="-3.034905" lat="52.711878"><ele>314.838104</ele><time>2022-01-15T13:31:28Z</time><extensions><speed>0.470478</speed><course>204.915649</course><hAcc>1.779822</hAcc><vAcc>0.746456</vAcc></extensions></trkpt>
      <trkpt lon="-3.034908" lat="52.711874"><ele>314.592865</ele><time>2022-01-15T13:31:29Z</time><extensions><speed>0.510972</speed><course>200.259811</course><hAcc>1.792392</hAcc><vAcc>0.747873</vAcc></extensions></trkpt>
      <trkpt lon="-3.034911" lat="52.711869"><ele>314.357208</ele><time>2022-01-15T13:31:30Z</time><extensions><speed>0.633818</speed><course>197.921860</course><hAcc>1.803616</hAcc><vAcc>0.748993</vAcc></extensions></trkpt>
      <trkpt lon="-3.034914" lat="52.711862"><ele>314.120148</ele><time>2022-01-15T13:31:31Z</time><extensions><speed>0.853652</speed><course>198.182709</course><hAcc>1.814488</hAcc><vAcc>0.749563</vAcc></extensions></trkpt>
      <trkpt lon="-3.034919" lat="52.711854"><ele>313.862396</ele><time>2022-01-15T13:31:32Z</time><extensions><speed>1.051462</speed><course>197.557205</course><hAcc>1.811822</hAcc><vAcc>0.749691</vAcc></extensions></trkpt>
      <trkpt lon="-3.034924" lat="52.711845"><ele>313.600647</ele><time>2022-01-15T13:31:33Z</time><extensions><speed>1.169001</speed><course>198.089981</course><hAcc>1.808120</hAcc><vAcc>0.749173</vAcc></extensions></trkpt>
      <trkpt lon="-3.034929" lat="52.711834"><ele>313.344757</ele><time>2022-01-15T13:31:34Z</time><extensions><speed>1.271332</speed><course>199.123032</course><hAcc>1.810198</hAcc><vAcc>0.747991</vAcc></extensions></trkpt>
      <trkpt lon="-3.034936" lat="52.711823"><ele>313.081879</ele><time>2022-01-15T13:31:35Z</time><extensions><speed>1.334672</speed><course>200.640381</course><hAcc>1.812792</hAcc><vAcc>0.746260</vAcc></extensions></trkpt>
      <trkpt lon="-3.034943" lat="52.711812"><ele>312.801666</ele><time>2022-01-15T13:31:36Z</time><extensions><speed>1.365917</speed><course>201.884583</course><hAcc>1.816086</hAcc><vAcc>0.744056</vAcc></extensions></trkpt>
      <trkpt lon="-3.034951" lat="52.711801"><ele>312.522522</ele><time>2022-01-15T13:31:37Z</time><extensions><speed>1.352165</speed><course>202.707001</course><hAcc>1.821260</hAcc><vAcc>0.741477</vAcc></extensions></trkpt>
      <trkpt lon="-3.034959" lat="52.711790"><ele>312.261902</ele><time>2022-01-15T13:31:38Z</time><extensions><speed>1.293439</speed><course>203.745255</course><hAcc>1.827421</hAcc><vAcc>0.738558</vAcc></extensions></trkpt>
      <trkpt lon="-3.034966" lat="52.711779"><ele>311.994934</ele><time>2022-01-15T13:31:39Z</time><extensions><speed>1.198061</speed><course>205.321976</course><hAcc>1.830578</hAcc><vAcc>0.735314</vAcc></extensions></trkpt>
      <trkpt lon="-3.034974" lat="52.711770"><ele>311.740784</ele><time>2022-01-15T13:31:40Z</time><extensions><speed>1.222775</speed><course>206.559738</course><hAcc>1.830863</hAcc><vAcc>0.731775</vAcc></extensions></trkpt>
      <trkpt lon="-3.034983" lat="52.711760"><ele>311.507263</ele><time>2022-01-15T13:31:41Z</time><extensions><speed>1.292129</speed><course>209.787262</course><hAcc>1.833700</hAcc><vAcc>0.727936</vAcc></extensions></trkpt>
      <trkpt lon="-3.034993" lat="52.711750"><ele>311.258850</ele><time>2022-01-15T13:31:42Z</time><extensions><speed>1.302598</speed><course>214.654907</course><hAcc>1.847118</hAcc><vAcc>0.723679</vAcc></extensions></trkpt>
      <trkpt lon="-3.035005" lat="52.711741"><ele>311.024628</ele><time>2022-01-15T13:31:43Z</time><extensions><speed>1.237175</speed><course>220.854309</course><hAcc>1.845225</hAcc><vAcc>0.718982</vAcc></extensions></trkpt>
      <trkpt lon="-3.035017" lat="52.711733"><ele>310.799957</ele><time>2022-01-15T13:31:44Z</time><extensions><speed>1.176239</speed><course>226.589600</course><hAcc>1.849434</hAcc><vAcc>0.713838</vAcc></extensions></trkpt>
      <trkpt lon="-3.035030" lat="52.711726"><ele>310.581665</ele><time>2022-01-15T13:31:45Z</time><extensions><speed>1.126418</speed><course>230.844696</course><hAcc>1.860745</hAcc><vAcc>0.708206</vAcc></extensions></trkpt>
      <trkpt lon="-3.035043" lat="52.711720"><ele>310.353546</ele><time>2022-01-15T13:31:46Z</time><extensions><speed>1.134576</speed><course>232.870850</course><hAcc>1.871627</hAcc><vAcc>0.702143</vAcc></extensions></trkpt>
      <trkpt lon="-3.035056" lat="52.711714"><ele>310.129913</ele><time>2022-01-15T13:31:47Z</time><extensions><speed>1.126368</speed><course>232.358780</course><hAcc>1.881951</hAcc><vAcc>0.695748</vAcc></extensions></trkpt>
      <trkpt lon="-3.035069" lat="52.711708"><ele>309.920685</ele><time>2022-01-15T13:31:48Z</time><extensions><speed>1.087288</speed><course>231.069138</course><hAcc>1.889424</hAcc><vAcc>0.689098</vAcc></extensions></trkpt>
      <trkpt lon="-3.035081" lat="52.711701"><ele>309.723602</ele><time>2022-01-15T13:31:49Z</time><extensions><speed>1.075881</speed><course>230.763260</course><hAcc>1.897235</hAcc><vAcc>0.682331</vAcc></extensions></trkpt>
      <trkpt lon="-3.035094" lat="52.711695"><ele>309.540253</ele><time>2022-01-15T13:31:50Z</time><extensions><speed>1.098488</speed><course>230.054672</course><hAcc>1.906859</hAcc><vAcc>0.675567</vAcc></extensions></trkpt>
      <trkpt lon="-3.035106" lat="52.711689"><ele>309.353210</ele><time>2022-01-15T13:31:51Z</time><extensions><speed>1.062856</speed><course>228.527145</course><hAcc>1.917369</hAcc><vAcc>0.668981</vAcc></extensions></trkpt>
      <trkpt lon="-3.035117" lat="52.711683"><ele>309.174805</ele><time>2022-01-15T13:31:52Z</time><extensions><speed>0.993027</speed><course>227.291748</course><hAcc>1.923547</hAcc><vAcc>0.662726</vAcc></extensions></trkpt>
      <trkpt lon="-3.035128" lat="52.711677"><ele>308.973694</ele><time>2022-01-15T13:31:53Z</time><extensions><speed>0.960771</speed><course>225.693604</course><hAcc>1.924756</hAcc><vAcc>0.657063</vAcc></extensions></trkpt>
      <trkpt lon="-3.035137" lat="52.711671"><ele>308.776794</ele><time>2022-01-15T13:31:54Z</time><extensions><speed>0.896514</speed><course>222.948532</course><hAcc>1.922911</hAcc><vAcc>0.652257</vAcc></extensions></trkpt>
      <trkpt lon="-3.035146" lat="52.711665"><ele>308.568756</ele><time>2022-01-15T13:31:55Z</time><extensions><speed>0.857893</speed><course>220.162216</course><hAcc>1.922606</hAcc><vAcc>0.648539</vAcc></extensions></trkpt>
      <trkpt lon="-3.035154" lat="52.711659"><ele>308.363983</ele><time>2022-01-15T13:31:56Z</time><extensions><speed>0.872459</speed><course>218.793869</course><hAcc>1.934181</hAcc><vAcc>0.646106</vAcc></extensions></trkpt>
      <trkpt lon="-3.035162" lat="52.711652"><ele>308.149445</ele><time>2022-01-15T13:31:57Z</time><extensions><speed>0.960368</speed><course>217.414520</course><hAcc>1.932508</hAcc><vAcc>0.645030</vAcc></extensions></trkpt>
      <trkpt lon="-3.035171" lat="52.711645"><ele>307.927704</ele><time>2022-01-15T13:31:58Z</time><extensions><speed>1.026242</speed><course>217.104340</course><hAcc>1.918804</hAcc><vAcc>0.645363</vAcc></extensions></trkpt>
      <trkpt lon="-3.035181" lat="52.711638"><ele>307.689148</ele><time>2022-01-15T13:31:59Z</time><extensions><speed>1.085010</speed><course>217.628265</course><hAcc>1.900285</hAcc><vAcc>0.647095</vAcc></extensions></trkpt>
      <trkpt lon="-3.035191" lat="52.711630"><ele>307.445557</ele><time>2022-01-15T13:32:00Z</time><extensions><speed>1.165528</speed><course>218.047836</course><hAcc>1.876796</hAcc><vAcc>0.650217</vAcc></extensions></trkpt>
      <trkpt lon="-3.035202" lat="52.711621"><ele>307.192108</ele><time>2022-01-15T13:32:01Z</time><extensions><speed>1.228282</speed><course>218.521683</course><hAcc>1.853441</hAcc><vAcc>0.654596</vAcc></extensions></trkpt>
      <trkpt lon="-3.035214" lat="52.711612"><ele>306.893738</ele><time>2022-01-15T13:32:02Z</time><extensions><speed>1.274418</speed><course>218.362885</course><hAcc>1.838677</hAcc><vAcc>0.660046</vAcc></extensions></trkpt>
      <trkpt lon="-3.035226" lat="52.711603"><ele>306.598969</ele><time>2022-01-15T13:32:03Z</time><extensions><speed>1.308871</speed><course>218.153931</course><hAcc>1.856099</hAcc><vAcc>0.666271</vAcc></extensions></trkpt>
      <trkpt lon="-3.035238" lat="52.711594"><ele>306.288757</ele><time>2022-01-15T13:32:04Z</time><extensions><speed>1.372551</speed><course>218.982544</course><hAcc>1.871655</hAcc><vAcc>0.672909</vAcc></extensions></trkpt>
      <trkpt lon="-3.035252" lat="52.711585"><ele>305.972900</ele><time>2022-01-15T13:32:05Z</time><extensions><speed>1.282529</speed><course>230.772903</course><hAcc>1.832446</hAcc><vAcc>0.679629</vAcc></extensions></trkpt>
      <trkpt lon="-3.035268" lat="52.711579"><ele>305.641449</ele><time>2022-01-15T13:32:06Z</time><extensions><speed>1.281618</speed><course>242.345932</course><hAcc>1.817396</hAcc><vAcc>0.686119</vAcc></extensions></trkpt>
      <trkpt lon="-3.035286" lat="52.711574"><ele>305.284485</ele><time>2022-01-15T13:32:07Z</time><extensions><speed>1.389803</speed><course>251.747009</course><hAcc>1.813080</hAcc><vAcc>0.692078</vAcc></extensions></trkpt>
      <trkpt lon="-3.035306" lat="52.711571"><ele>304.914429</ele><time>2022-01-15T13:32:08Z</time><extensions><speed>1.424507</speed><course>255.188232</course><hAcc>1.813069</hAcc><vAcc>0.697364</vAcc></extensions></trkpt>
      <trkpt lon="-3.035327" lat="52.711567"><ele>304.536835</ele><time>2022-01-15T13:32:09Z</time><extensions><speed>1.468836</speed><course>253.444550</course><hAcc>1.809021</hAcc><vAcc>0.702124</vAcc></extensions></trkpt>
      <trkpt lon="-3.035348" lat="52.711563"><ele>304.148621</ele><time>2022-01-15T13:32:10Z</time><extensions><speed>1.456608</speed><course>251.725861</course><hAcc>1.796645</hAcc><vAcc>0.706456</vAcc></extensions></trkpt>
      <trkpt lon="-3.035368" lat="52.711559"><ele>303.742737</ele><time>2022-01-15T13:32:11Z</time><extensions><speed>1.429859</speed><course>251.518646</course><hAcc>1.792973</hAcc><vAcc>0.710372</vAcc></extensions></trkpt>
      <trkpt lon="-3.035388" lat="52.711555"><ele>303.333557</ele><time>2022-01-15T13:32:12Z</time><extensions><speed>1.414517</speed><course>252.722183</course><hAcc>1.806926</hAcc><vAcc>0.713898</vAcc></extensions></trkpt>
      <trkpt lon="-3.035409" lat="52.711551"><ele>302.919586</ele><time>2022-01-15T13:32:13Z</time><extensions><speed>1.566313</speed><course>251.350143</course><hAcc>1.793980</hAcc><vAcc>0.717138</vAcc></extensions></trkpt>
      <trkpt lon="-3.035431" lat="52.711546"><ele>302.494568</ele><time>2022-01-15T13:32:14Z</time><extensions><speed>1.626746</speed><course>248.613327</course><hAcc>1.783404</hAcc><vAcc>0.720054</vAcc></extensions></trkpt>
      <trkpt lon="-3.035453" lat="52.711541"><ele>302.066772</ele><time>2022-01-15T13:32:15Z</time><extensions><speed>1.622828</speed><course>244.615448</course><hAcc>1.787092</hAcc><vAcc>0.722732</vAcc></extensions></trkpt>
      <trkpt lon="-3.035474" lat="52.711534"><ele>301.624115</ele><time>2022-01-15T13:32:16Z</time><extensions><speed>1.523000</speed><course>241.212799</course><hAcc>1.805159</hAcc><vAcc>0.725145</vAcc></extensions></trkpt>
      <trkpt lon="-3.035493" lat="52.711528"><ele>301.170593</ele><time>2022-01-15T13:32:17Z</time><extensions><speed>1.376302</speed><course>246.146896</course><hAcc>1.800195</hAcc><vAcc>0.727416</vAcc></extensions></trkpt>
      <trkpt lon="-3.035512" lat="52.711524"><ele>300.740875</ele><time>2022-01-15T13:32:18Z</time><extensions><speed>1.284725</speed><course>255.575439</course><hAcc>1.807816</hAcc><vAcc>0.729700</vAcc></extensions></trkpt>
      <trkpt lon="-3.035529" lat="52.711523"><ele>300.312714</ele><time>2022-01-15T13:32:19Z</time><extensions><speed>1.145837</speed><course>265.720459</course><hAcc>1.825614</hAcc><vAcc>0.732135</vAcc></extensions></trkpt>
      <trkpt lon="-3.035545" lat="52.711522"><ele>299.884460</ele><time>2022-01-15T13:32:20Z</time><extensions><speed>1.034514</speed><course>271.211609</course><hAcc>1.840699</hAcc><vAcc>0.734698</vAcc></extensions></trkpt>
      <trkpt lon="-3.035560" lat="52.711523"><ele>299.469086</ele><time>2022-01-15T13:32:21Z</time><extensions><speed>0.946561</speed><course>273.003143</course><hAcc>1.851809</hAcc><vAcc>0.737354</vAcc></extensions></trkpt>
      <trkpt lon="-3.035573" lat="52.711523"><ele>299.077118</ele><time>2022-01-15T13:32:22Z</time><extensions><speed>0.868475</speed><course>270.895203</course><hAcc>1.854101</hAcc><vAcc>0.740019</vAcc></extensions></trkpt>
      <trkpt lon="-3.035586" lat="52.711523"><ele>298.702271</ele><time>2022-01-15T13:32:23Z</time><extensions><speed>0.836187</speed><course>269.606842</course><hAcc>1.847187</hAcc><vAcc>0.742545</vAcc></extensions></trkpt>
      <trkpt lon="-3.035598" lat="52.711523"><ele>298.325775</ele><time>2022-01-15T13:32:24Z</time><extensions><speed>0.851024</speed><course>270.864471</course><hAcc>1.831234</hAcc><vAcc>0.744901</vAcc></extensions></trkpt>
      <trkpt lon="-3.035611" lat="52.711523"><ele>297.969299</ele><time>2022-01-15T13:32:25Z</time><extensions><speed>0.922438</speed><course>271.481689</course><hAcc>1.809631</hAcc><vAcc>0.747100</vAcc></extensions></trkpt>
      <trkpt lon="-3.035625" lat="52.711523"><ele>297.621185</ele><time>2022-01-15T13:32:26Z</time><extensions><speed>1.007220</speed><course>271.596283</course><hAcc>1.793554</hAcc><vAcc>0.749143</vAcc></extensions></trkpt>
      <trkpt lon="-3.035640" lat="52.711524"><ele>297.296631</ele><time>2022-01-15T13:32:27Z</time><extensions><speed>1.029104</speed><course>272.055054</course><hAcc>1.800458</hAcc><vAcc>0.750956</vAcc></extensions></trkpt>
      <trkpt lon="-3.035655" lat="52.711524"><ele>296.979767</ele><time>2022-01-15T13:32:28Z</time><extensions><speed>1.005108</speed><course>270.653656</course><hAcc>1.825497</hAcc><vAcc>0.752502</vAcc></extensions></trkpt>
      <trkpt lon="-3.035669" lat="52.711524"><ele>296.680023</ele><time>2022-01-15T13:32:29Z</time><extensions><speed>0.851966</speed><course>276.221680</course><hAcc>1.793100</hAcc><vAcc>0.753683</vAcc></extensions></trkpt>
      <trkpt lon="-3.035681" lat="52.711525"><ele>296.410400</ele><time>2022-01-15T13:32:30Z</time><extensions><speed>0.745191</speed><course>281.018738</course><hAcc>1.786953</hAcc><vAcc>0.754432</vAcc></extensions></trkpt>
      <trkpt lon="-3.035690" lat="52.711527"><ele>296.163727</ele><time>2022-01-15T13:32:31Z</time><extensions><speed>0.574624</speed><course>289.831207</course><hAcc>1.782498</hAcc><vAcc>0.754774</vAcc></extensions></trkpt>
      <trkpt lon="-3.035696" lat="52.711529"><ele>295.912567</ele><time>2022-01-15T13:32:32Z</time><extensions><speed>0.363289</speed><course>298.070374</course><hAcc>1.781488</hAcc><vAcc>0.754806</vAcc></extensions></trkpt>
      <trkpt lon="-3.035701" lat="52.711530"><ele>295.681976</ele><time>2022-01-15T13:32:33Z</time><extensions><speed>0.284461</speed><course>295.551819</course><hAcc>1.798385</hAcc><vAcc>0.754588</vAcc></extensions></trkpt>
      <trkpt lon="-3.035705" lat="52.711531"><ele>295.439758</ele><time>2022-01-15T13:32:34Z</time><extensions><speed>0.342135</speed><course>281.847198</course><hAcc>1.822776</hAcc><vAcc>0.754198</vAcc></extensions></trkpt>
      <trkpt lon="-3.035711" lat="52.711531"><ele>295.216675</ele><time>2022-01-15T13:32:35Z</time><extensions><speed>0.487702</speed><course>274.160522</course><hAcc>1.826454</hAcc><vAcc>0.753803</vAcc></extensions></trkpt>
      <trkpt lon="-3.035719" lat="52.711531"><ele>295.006195</ele><time>2022-01-15T13:32:36Z</time><extensions><speed>0.612464</speed><course>268.397125</course><hAcc>1.824951</hAcc><vAcc>0.753515</vAcc></extensions></trkpt>
      <trkpt lon="-3.035729" lat="52.711531"><ele>294.796326</ele><time>2022-01-15T13:32:37Z</time><extensions><speed>0.717248</speed><course>263.418182</course><hAcc>1.826296</hAcc><vAcc>0.753459</vAcc></extensions></trkpt>
      <trkpt lon="-3.035740" lat="52.711530"><ele>294.562347</ele><time>2022-01-15T13:32:38Z</time><extensions><speed>0.724643</speed><course>257.061829</course><hAcc>1.832573</hAcc><vAcc>0.753761</vAcc></extensions></trkpt>
      <trkpt lon="-3.035750" lat="52.711528"><ele>294.363922</ele><time>2022-01-15T13:32:39Z</time><extensions><speed>0.713622</speed><course>251.047485</course><hAcc>1.838639</hAcc><vAcc>0.754478</vAcc></extensions></trkpt>
      <trkpt lon="-3.035760" lat="52.711526"><ele>294.169464</ele><time>2022-01-15T13:32:40Z</time><extensions><speed>0.755992</speed><course>250.131714</course><hAcc>1.837164</hAcc><vAcc>0.755623</vAcc></extensions></trkpt>
      <trkpt lon="-3.035771" lat="52.711524"><ele>293.979980</ele><time>2022-01-15T13:32:41Z</time><extensions><speed>0.842935</speed><course>253.824539</course><hAcc>1.837283</hAcc><vAcc>0.757211</vAcc></extensions></trkpt>
      <trkpt lon="-3.035784" lat="52.711522"><ele>293.788391</ele><time>2022-01-15T13:32:42Z</time><extensions><speed>0.944056</speed><course>258.095123</course><hAcc>1.837418</hAcc><vAcc>0.759178</vAcc></extensions></trkpt>
      <trkpt lon="-3.035798" lat="52.711520"><ele>293.603638</ele><time>2022-01-15T13:32:43Z</time><extensions><speed>0.964689</speed><course>260.807892</course><hAcc>1.836414</hAcc><vAcc>0.761422</vAcc></extensions></trkpt>
      <trkpt lon="-3.035812" lat="52.711519"><ele>293.409088</ele><time>2022-01-15T13:32:44Z</time><extensions><speed>0.964184</speed><course>261.309387</course><hAcc>1.835032</hAcc><vAcc>0.763897</vAcc></extensions></trkpt>
      <trkpt lon="-3.035826" lat="52.711517"><ele>293.200470</ele><time>2022-01-15T13:32:45Z</time><extensions><speed>0.950844</speed><course>261.150940</course><hAcc>1.826071</hAcc><vAcc>0.766440</vAcc></extensions></trkpt>
      <trkpt lon="-3.035840" lat="52.711516"><ele>292.972748</ele><time>2022-01-15T13:32:46Z</time><extensions><speed>0.980200</speed><course>263.046051</course><hAcc>1.817336</hAcc><vAcc>0.768948</vAcc></extensions></trkpt>
      <trkpt lon="-3.035855" lat="52.711515"><ele>292.743073</ele><time>2022-01-15T13:32:47Z</time><extensions><speed>1.009718</speed><course>265.487366</course><hAcc>1.815971</hAcc><vAcc>0.771323</vAcc></extensions></trkpt>
      <trkpt lon="-3.035870" lat="52.711515"><ele>292.521606</ele><time>2022-01-15T13:32:48Z</time><extensions><speed>1.060579</speed><course>266.812042</course><hAcc>1.813907</hAcc><vAcc>0.773462</vAcc></extensions></trkpt>
      <trkpt lon="-3.035886" lat="52.711514"><ele>292.301331</ele><time>2022-01-15T13:32:49Z</time><extensions><speed>1.076154</speed><course>268.007507</course><hAcc>1.801802</hAcc><vAcc>0.775263</vAcc></extensions></trkpt>
      <trkpt lon="-3.035902" lat="52.711514"><ele>292.092377</ele><time>2022-01-15T13:32:50Z</time><extensions><speed>1.061101</speed><course>267.461548</course><hAcc>1.777997</hAcc><vAcc>0.776725</vAcc></extensions></trkpt>
      <trkpt lon="-3.035917" lat="52.711513"><ele>291.866882</ele><time>2022-01-15T13:32:51Z</time><extensions><speed>1.012042</speed><course>265.232300</course><hAcc>1.752670</hAcc><vAcc>0.777894</vAcc></extensions></trkpt>
      <trkpt lon="-3.035932" lat="52.711512"><ele>291.621948</ele><time>2022-01-15T13:32:52Z</time><extensions><speed>0.963311</speed><course>262.819824</course><hAcc>1.734090</hAcc><vAcc>0.778749</vAcc></extensions></trkpt>
      <trkpt lon="-3.035946" lat="52.711511"><ele>291.380219</ele><time>2022-01-15T13:32:53Z</time><extensions><speed>0.946284</speed><course>258.916901</course><hAcc>1.742911</hAcc><vAcc>0.779283</vAcc></extensions></trkpt>
      <trkpt lon="-3.035959" lat="52.711509"><ele>291.130646</ele><time>2022-01-15T13:32:54Z</time><extensions><speed>0.948202</speed><course>256.632568</course><hAcc>1.780147</hAcc><vAcc>0.779537</vAcc></extensions></trkpt>
      <trkpt lon="-3.035974" lat="52.711507"><ele>290.860382</ele><time>2022-01-15T13:32:55Z</time><extensions><speed>1.008337</speed><course>257.101379</course><hAcc>1.738092</hAcc><vAcc>0.779557</vAcc></extensions></trkpt>
      <trkpt lon="-3.035988" lat="52.711505"><ele>290.611786</ele><time>2022-01-15T13:32:56Z</time><extensions><speed>1.015418</speed><course>257.078766</course><hAcc>1.727474</hAcc><vAcc>0.779453</vAcc></extensions></trkpt>
      <trkpt lon="-3.036003" lat="52.711503"><ele>290.376892</ele><time>2022-01-15T13:32:57Z</time><extensions><speed>0.984296</speed><course>256.450714</course><hAcc>1.749331</hAcc><vAcc>0.779283</vAcc></extensions></trkpt>
      <trkpt lon="-3.036017" lat="52.711501"><ele>290.133331</ele><time>2022-01-15T13:32:58Z</time><extensions><speed>0.995791</speed><course>255.403976</course><hAcc>1.735666</hAcc><vAcc>0.779091</vAcc></extensions></trkpt>
      <trkpt lon="-3.036031" lat="52.711499"><ele>289.885406</ele><time>2022-01-15T13:32:59Z</time><extensions><speed>1.019193</speed><course>256.161774</course><hAcc>1.727098</hAcc><vAcc>0.778919</vAcc></extensions></trkpt>
      <trkpt lon="-3.036046" lat="52.711497"><ele>289.640839</ele><time>2022-01-15T13:33:00Z</time><extensions><speed>1.008546</speed><course>258.175079</course><hAcc>1.732925</hAcc><vAcc>0.778804</vAcc></extensions></trkpt>
      <trkpt lon="-3.036060" lat="52.711495"><ele>289.405060</ele><time>2022-01-15T13:33:01Z</time><extensions><speed>0.983357</speed><course>261.537323</course><hAcc>1.749666</hAcc><vAcc>0.778760</vAcc></extensions></trkpt>
      <trkpt lon="-3.036075" lat="52.711494"><ele>289.171295</ele><time>2022-01-15T13:33:02Z</time><extensions><speed>0.970256</speed><course>263.876343</course><hAcc>1.765608</hAcc><vAcc>0.778826</vAcc></extensions></trkpt>
      <trkpt lon="-3.036089" lat="52.711493"><ele>288.931061</ele><time>2022-01-15T13:33:03Z</time><extensions><speed>0.970825</speed><course>263.701416</course><hAcc>1.801719</hAcc><vAcc>0.779025</vAcc></extensions></trkpt>
      <trkpt lon="-3.036104" lat="52.711492"><ele>288.674652</ele><time>2022-01-15T13:33:04Z</time><extensions><speed>1.013486</speed><course>264.195923</course><hAcc>1.771140</hAcc><vAcc>0.779335</vAcc></extensions></trkpt>
      <trkpt lon="-3.036119" lat="52.711491"><ele>288.439209</ele><time>2022-01-15T13:33:05Z</time><extensions><speed>1.063169</speed><course>264.897339</course><hAcc>1.760007</hAcc><vAcc>0.779747</vAcc></extensions></trkpt>
      <trkpt lon="-3.036135" lat="52.711490"><ele>288.211304</ele><time>2022-01-15T13:33:06Z</time><extensions><speed>1.115650</speed><course>266.195404</course><hAcc>1.767622</hAcc><vAcc>0.780260</vAcc></extensions></trkpt>
      <trkpt lon="-3.036152" lat="52.711490"><ele>288.007660</ele><time>2022-01-15T13:33:07Z</time><extensions><speed>1.184536</speed><course>267.073608</course><hAcc>1.781465</hAcc><vAcc>0.780819</vAcc></extensions></trkpt>
      <trkpt lon="-3.036170" lat="52.711489"><ele>287.790436</ele><time>2022-01-15T13:33:08Z</time><extensions><speed>1.193511</speed><course>266.708588</course><hAcc>1.792862</hAcc><vAcc>0.781386</vAcc></extensions></trkpt>
      <trkpt lon="-3.036186" lat="52.711488"><ele>287.576599</ele><time>2022-01-15T13:33:09Z</time><extensions><speed>1.083935</speed><course>265.575745</course><hAcc>1.797482</hAcc><vAcc>0.781950</vAcc></extensions></trkpt>
      <trkpt lon="-3.036202" lat="52.711488"><ele>287.358459</ele><time>2022-01-15T13:33:10Z</time><extensions><speed>0.970678</speed><course>263.568359</course><hAcc>1.789240</hAcc><vAcc>0.782519</vAcc></extensions></trkpt>
      <trkpt lon="-3.036215" lat="52.711487"><ele>287.141602</ele><time>2022-01-15T13:33:11Z</time><extensions><speed>0.910780</speed><course>262.407104</course><hAcc>1.778049</hAcc><vAcc>0.783043</vAcc></extensions></trkpt>
      <trkpt lon="-3.036229" lat="52.711486"><ele>286.882996</ele><time>2022-01-15T13:33:12Z</time><extensions><speed>0.936259</speed><course>264.394440</course><hAcc>1.785713</hAcc><vAcc>0.783533</vAcc></extensions></trkpt>
      <trkpt lon="-3.036244" lat="52.711485"><ele>286.642609</ele><time>2022-01-15T13:33:13Z</time><extensions><speed>1.027352</speed><course>267.555725</course><hAcc>1.811211</hAcc><vAcc>0.784009</vAcc></extensions></trkpt>
      <trkpt lon="-3.036259" lat="52.711485"><ele>286.407593</ele><time>2022-01-15T13:33:14Z</time><extensions><speed>1.093125</speed><course>268.329865</course><hAcc>1.794063</hAcc><vAcc>0.784432</vAcc></extensions></trkpt>
      <trkpt lon="-3.036276" lat="52.711484"><ele>286.161957</ele><time>2022-01-15T13:33:15Z</time><extensions><speed>1.144356</speed><course>267.807739</course><hAcc>1.776108</hAcc><vAcc>0.784731</vAcc></extensions></trkpt>
      <trkpt lon="-3.036293" lat="52.711484"><ele>285.876892</ele><time>2022-01-15T13:33:16Z</time><extensions><speed>1.187105</speed><course>266.886414</course><hAcc>1.772284</hAcc><vAcc>0.784857</vAcc></extensions></trkpt>
      <trkpt lon="-3.036311" lat="52.711483"><ele>285.590302</ele><time>2022-01-15T13:33:17Z</time><extensions><speed>1.261633</speed><course>267.652496</course><hAcc>1.770520</hAcc><vAcc>0.784717</vAcc></extensions></trkpt>
      <trkpt lon="-3.036330" lat="52.711483"><ele>285.303162</ele><time>2022-01-15T13:33:18Z</time><extensions><speed>1.332647</speed><course>269.741486</course><hAcc>1.763109</hAcc><vAcc>0.784307</vAcc></extensions></trkpt>
      <trkpt lon="-3.036350" lat="52.711483"><ele>285.042480</ele><time>2022-01-15T13:33:19Z</time><extensions><speed>1.319889</speed><course>269.670166</course><hAcc>1.751230</hAcc><vAcc>0.783647</vAcc></extensions></trkpt>
      <trkpt lon="-3.036369" lat="52.711482"><ele>284.782928</ele><time>2022-01-15T13:33:20Z</time><extensions><speed>1.286254</speed><course>269.664398</course><hAcc>1.734220</hAcc><vAcc>0.782672</vAcc></extensions></trkpt>
      <trkpt lon="-3.036387" lat="52.711482"><ele>284.522491</ele><time>2022-01-15T13:33:21Z</time><extensions><speed>1.200301</speed><course>268.879883</course><hAcc>1.727172</hAcc><vAcc>0.781355</vAcc></extensions></trkpt>
      <trkpt lon="-3.036406" lat="52.711482"><ele>284.267517</ele><time>2022-01-15T13:33:22Z</time><extensions><speed>1.260378</speed><course>268.912506</course><hAcc>1.682169</hAcc><vAcc>0.779644</vAcc></extensions></trkpt>
      <trkpt lon="-3.036425" lat="52.711481"><ele>284.032928</ele><time>2022-01-15T13:33:23Z</time><extensions><speed>1.355013</speed><course>268.600464</course><hAcc>1.647878</hAcc><vAcc>0.777638</vAcc></extensions></trkpt>
      <trkpt lon="-3.036445" lat="52.711481"><ele>283.794037</ele><time>2022-01-15T13:33:24Z</time><extensions><speed>1.372755</speed><course>266.066925</course><hAcc>1.635385</hAcc><vAcc>0.775311</vAcc></extensions></trkpt>
      <trkpt lon="-3.036465" lat="52.711480"><ele>283.566132</ele><time>2022-01-15T13:33:25Z</time><extensions><speed>1.421725</speed><course>265.921814</course><hAcc>1.681522</hAcc><vAcc>0.772641</vAcc></extensions></trkpt>
      <trkpt lon="-3.036485" lat="52.711479"><ele>283.366699</ele><time>2022-01-15T13:33:26Z</time><extensions><speed>1.269184</speed><course>262.864471</course><hAcc>1.671927</hAcc><vAcc>0.769632</vAcc></extensions></trkpt>
      <trkpt lon="-3.036504" lat="52.711477"><ele>283.183350</ele><time>2022-01-15T13:33:27Z</time><extensions><speed>1.377803</speed><course>261.303436</course><hAcc>1.682682</hAcc><vAcc>0.766337</vAcc></extensions></trkpt>
      <trkpt lon="-3.036525" lat="52.711474"><ele>283.029999</ele><time>2022-01-15T13:33:28Z</time><extensions><speed>1.412276</speed><course>252.630890</course><hAcc>1.663476</hAcc><vAcc>0.762824</vAcc></extensions></trkpt>
      <trkpt lon="-3.036544" lat="52.711470"><ele>282.899353</ele><time>2022-01-15T13:33:29Z</time><extensions><speed>1.420362</speed><course>246.824478</course><hAcc>1.684519</hAcc><vAcc>0.759163</vAcc></extensions></trkpt>
      <trkpt lon="-3.036563" lat="52.711464"><ele>282.757812</ele><time>2022-01-15T13:33:30Z</time><extensions><speed>1.381364</speed><course>242.932083</course><hAcc>1.725196</hAcc><vAcc>0.755282</vAcc></extensions></trkpt>
      <trkpt lon="-3.036580" lat="52.711459"><ele>282.627747</ele><time>2022-01-15T13:33:31Z</time><extensions><speed>1.286586</speed><course>239.831024</course><hAcc>1.754216</hAcc><vAcc>0.751352</vAcc></extensions></trkpt>
      <trkpt lon="-3.036595" lat="52.711453"><ele>282.504578</ele><time>2022-01-15T13:33:32Z</time><extensions><speed>1.134149</speed><course>236.591507</course><hAcc>1.782528</hAcc><vAcc>0.747417</vAcc></extensions></trkpt>
      <trkpt lon="-3.036608" lat="52.711448"><ele>282.405945</ele><time>2022-01-15T13:33:33Z</time><extensions><speed>0.920574</speed><course>235.420410</course><hAcc>1.811905</hAcc><vAcc>0.743453</vAcc></extensions></trkpt>
      <trkpt lon="-3.036619" lat="52.711443"><ele>282.318451</ele><time>2022-01-15T13:33:34Z</time><extensions><speed>0.839450</speed><course>236.352798</course><hAcc>1.833306</hAcc><vAcc>0.739480</vAcc></extensions></trkpt>
      <trkpt lon="-3.036630" lat="52.711439"><ele>282.242920</ele><time>2022-01-15T13:33:35Z</time><extensions><speed>0.936121</speed><course>234.923508</course><hAcc>1.828451</hAcc><vAcc>0.735544</vAcc></extensions></trkpt>
      <trkpt lon="-3.036642" lat="52.711433"><ele>282.183533</ele><time>2022-01-15T13:33:36Z</time><extensions><speed>1.116754</speed><course>235.336655</course><hAcc>1.827952</hAcc><vAcc>0.731654</vAcc></extensions></trkpt>
      <trkpt lon="-3.036657" lat="52.711427"><ele>282.116180</ele><time>2022-01-15T13:33:37Z</time><extensions><speed>1.289102</speed><course>236.075333</course><hAcc>1.841451</hAcc><vAcc>0.727851</vAcc></extensions></trkpt>
      <trkpt lon="-3.036673" lat="52.711420"><ele>282.056305</ele><time>2022-01-15T13:33:38Z</time><extensions><speed>1.342039</speed><course>233.018982</course><hAcc>1.843618</hAcc><vAcc>0.724253</vAcc></extensions></trkpt>
      <trkpt lon="-3.036688" lat="52.711413"><ele>282.018066</ele><time>2022-01-15T13:33:39Z</time><extensions><speed>1.354663</speed><course>229.756027</course><hAcc>1.844740</hAcc><vAcc>0.720905</vAcc></extensions></trkpt>
      <trkpt lon="-3.036703" lat="52.711404"><ele>281.980682</ele><time>2022-01-15T13:33:40Z</time><extensions><speed>1.377425</speed><course>227.312424</course><hAcc>1.848736</hAcc><vAcc>0.717887</vAcc></extensions></trkpt>
      <trkpt lon="-3.036719" lat="52.711396"><ele>281.959595</ele><time>2022-01-15T13:33:41Z</time><extensions><speed>1.449036</speed><course>225.598251</course><hAcc>1.854541</hAcc><vAcc>0.715248</vAcc></extensions></trkpt>
      <trkpt lon="-3.036734" lat="52.711386"><ele>281.950012</ele><time>2022-01-15T13:33:42Z</time><extensions><speed>1.537279</speed><course>222.542740</course><hAcc>1.854643</hAcc><vAcc>0.713041</vAcc></extensions></trkpt>
      <trkpt lon="-3.036749" lat="52.711375"><ele>281.957062</ele><time>2022-01-15T13:33:43Z</time><extensions><speed>1.601241</speed><course>218.859192</course><hAcc>1.848763</hAcc><vAcc>0.711305</vAcc></extensions></trkpt>
      <trkpt lon="-3.036763" lat="52.711364"><ele>281.976227</ele><time>2022-01-15T13:33:44Z</time><extensions><speed>1.604124</speed><course>216.125565</course><hAcc>1.836243</hAcc><vAcc>0.710052</vAcc></extensions></trkpt>
      <trkpt lon="-3.036777" lat="52.711352"><ele>281.998993</ele><time>2022-01-15T13:33:45Z</time><extensions><speed>1.582996</speed><course>214.484802</course><hAcc>1.822176</hAcc><vAcc>0.709292</vAcc></extensions></trkpt>
      <trkpt lon="-3.036790" lat="52.711340"><ele>282.028870</ele><time>2022-01-15T13:33:46Z</time><extensions><speed>1.600671</speed><course>214.376511</course><hAcc>1.808770</hAcc><vAcc>0.709169</vAcc></extensions></trkpt>
      <trkpt lon="-3.036804" lat="52.711329"><ele>282.063629</ele><time>2022-01-15T13:33:47Z</time><extensions><speed>1.605383</speed><course>215.753159</course><hAcc>1.813642</hAcc><vAcc>0.709626</vAcc></extensions></trkpt>
      <trkpt lon="-3.036818" lat="52.711317"><ele>282.102448</ele><time>2022-01-15T13:33:48Z</time><extensions><speed>1.568278</speed><course>217.488235</course><hAcc>1.831376</hAcc><vAcc>0.710552</vAcc></extensions></trkpt>
      <trkpt lon="-3.036832" lat="52.711306"><ele>282.141479</ele><time>2022-01-15T13:33:49Z</time><extensions><speed>1.509288</speed><course>219.154907</course><hAcc>1.825260</hAcc><vAcc>0.711876</vAcc></extensions></trkpt>
      <trkpt lon="-3.036846" lat="52.711297"><ele>282.180939</ele><time>2022-01-15T13:33:50Z</time><extensions><speed>1.388559</speed><course>222.570648</course><hAcc>1.804434</hAcc><vAcc>0.713604</vAcc></extensions></trkpt>
      <trkpt lon="-3.036860" lat="52.711288"><ele>282.221558</ele><time>2022-01-15T13:33:51Z</time><extensions><speed>1.252113</speed><course>226.361603</course><hAcc>1.802020</hAcc><vAcc>0.715675</vAcc></extensions></trkpt>
      <trkpt lon="-3.036873" lat="52.711281"><ele>282.253387</ele><time>2022-01-15T13:33:52Z</time><extensions><speed>1.128988</speed><course>229.545090</course><hAcc>1.817279</hAcc><vAcc>0.718021</vAcc></extensions></trkpt>
      <trkpt lon="-3.036885" lat="52.711275"><ele>282.287201</ele><time>2022-01-15T13:33:53Z</time><extensions><speed>0.977067</speed><course>232.683105</course><hAcc>1.834700</hAcc><vAcc>0.720577</vAcc></extensions></trkpt>
      <trkpt lon="-3.036895" lat="52.711271"><ele>282.318390</ele><time>2022-01-15T13:33:54Z</time><extensions><speed>0.720095</speed><course>236.293350</course><hAcc>1.837409</hAcc><vAcc>0.723290</vAcc></extensions></trkpt>
      <trkpt lon="-3.036902" lat="52.711268"><ele>282.337311</ele><time>2022-01-15T13:33:55Z</time><extensions><speed>0.349770</speed><course>249.231293</course><hAcc>1.839219</hAcc><vAcc>0.726003</vAcc></extensions></trkpt>
      <trkpt lon="-3.036905" lat="52.711268"><ele>282.349060</ele><time>2022-01-15T13:33:56Z</time><extensions><speed>0.139937</speed><course>321.667084</course><hAcc>1.849154</hAcc><vAcc>0.728533</vAcc></extensions></trkpt>
      <trkpt lon="-3.036905" lat="52.711270"><ele>282.353027</ele><time>2022-01-15T13:33:57Z</time><extensions><speed>0.265532</speed><course>4.418974</course><hAcc>1.853396</hAcc><vAcc>0.730825</vAcc></extensions></trkpt>
      <trkpt lon="-3.036905" lat="52.711273"><ele>282.355682</ele><time>2022-01-15T13:33:58Z</time><extensions><speed>0.364048</speed><course>9.556981</course><hAcc>1.856304</hAcc><vAcc>0.732776</vAcc></extensions></trkpt>
      <trkpt lon="-3.036904" lat="52.711276"><ele>282.349670</ele><time>2022-01-15T13:33:59Z</time><extensions><speed>0.404016</speed><course>10.343613</course><hAcc>1.862124</hAcc><vAcc>0.734373</vAcc></extensions></trkpt>
      <trkpt lon="-3.036903" lat="52.711280"><ele>282.345612</ele><time>2022-01-15T13:34:00Z</time><extensions><speed>0.399865</speed><course>11.746059</course><hAcc>1.867364</hAcc><vAcc>0.735659</vAcc></extensions></trkpt>
      <trkpt lon="-3.036901" lat="52.711283"><ele>282.330414</ele><time>2022-01-15T13:34:01Z</time><extensions><speed>0.376001</speed><course>15.842616</course><hAcc>1.866736</hAcc><vAcc>0.736679</vAcc></extensions></trkpt>
      <trkpt lon="-3.036899" lat="52.711286"><ele>282.343170</ele><time>2022-01-15T13:34:02Z</time><extensions><speed>0.352931</speed><course>23.378090</course><hAcc>1.864263</hAcc><vAcc>0.737399</vAcc></extensions></trkpt>
      <trkpt lon="-3.036897" lat="52.711289"><ele>282.333862</ele><time>2022-01-15T13:34:03Z</time><extensions><speed>0.344449</speed><course>33.233997</course><hAcc>1.866615</hAcc><vAcc>0.737943</vAcc></extensions></trkpt>
      <trkpt lon="-3.036894" lat="52.711292"><ele>282.323456</ele><time>2022-01-15T13:34:04Z</time><extensions><speed>0.357311</speed><course>43.285732</course><hAcc>1.872327</hAcc><vAcc>0.738418</vAcc></extensions></trkpt>
      <trkpt lon="-3.036889" lat="52.711294"><ele>282.318329</ele><time>2022-01-15T13:34:05Z</time><extensions><speed>0.430107</speed><course>51.220066</course><hAcc>1.865595</hAcc><vAcc>0.738724</vAcc></extensions></trkpt>
      <trkpt lon="-3.036883" lat="52.711296"><ele>282.309082</ele><time>2022-01-15T13:34:06Z</time><extensions><speed>0.519665</speed><course>56.424328</course><hAcc>1.859392</hAcc><vAcc>0.738957</vAcc></extensions></trkpt>
      <trkpt lon="-3.036876" lat="52.711299"><ele>282.298279</ele><time>2022-01-15T13:34:07Z</time><extensions><speed>0.595301</speed><course>59.230915</course><hAcc>1.857893</hAcc><vAcc>0.739174</vAcc></extensions></trkpt>
      <trkpt lon="-3.036868" lat="52.711302"><ele>282.286957</ele><time>2022-01-15T13:34:08Z</time><extensions><speed>0.625022</speed><course>60.238956</course><hAcc>1.859087</hAcc><vAcc>0.739400</vAcc></extensions></trkpt>
      <trkpt lon="-3.036860" lat="52.711305"><ele>282.281891</ele><time>2022-01-15T13:34:09Z</time><extensions><speed>0.626116</speed><course>60.272331</course><hAcc>1.855802</hAcc><vAcc>0.739831</vAcc></extensions></trkpt>
      <trkpt lon="-3.036852" lat="52.711307"><ele>282.280182</ele><time>2022-01-15T13:34:10Z</time><extensions><speed>0.590151</speed><course>60.313530</course><hAcc>1.850967</hAcc><vAcc>0.740447</vAcc></extensions></trkpt>
      <trkpt lon="-3.036845" lat="52.711310"><ele>282.274689</ele><time>2022-01-15T13:34:11Z</time><extensions><speed>0.543294</speed><course>60.941383</course><hAcc>1.847937</hAcc><vAcc>0.741322</vAcc></extensions></trkpt>
      <trkpt lon="-3.036838" lat="52.711312"><ele>282.287567</ele><time>2022-01-15T13:34:12Z</time><extensions><speed>0.478370</speed><course>63.341400</course><hAcc>1.850776</hAcc><vAcc>0.742413</vAcc></extensions></trkpt>
      <trkpt lon="-3.036832" lat="52.711314"><ele>282.293213</ele><time>2022-01-15T13:34:13Z</time><extensions><speed>0.475153</speed><course>67.878494</course><hAcc>1.842381</hAcc><vAcc>0.743687</vAcc></extensions></trkpt>
      <trkpt lon="-3.036825" lat="52.711315"><ele>282.300842</ele><time>2022-01-15T13:34:14Z</time><extensions><speed>0.486639</speed><course>73.715736</course><hAcc>1.838731</hAcc><vAcc>0.745182</vAcc></extensions></trkpt>
      <trkpt lon="-3.036818" lat="52.711316"><ele>282.311890</ele><time>2022-01-15T13:34:15Z</time><extensions><speed>0.517038</speed><course>80.629860</course><hAcc>1.839460</hAcc><vAcc>0.746874</vAcc></extensions></trkpt>
      <trkpt lon="-3.036810" lat="52.711317"><ele>282.303467</ele><time>2022-01-15T13:34:16Z</time><extensions><speed>0.546734</speed><course>88.378937</course><hAcc>1.842074</hAcc><vAcc>0.748792</vAcc></extensions></trkpt>
      <trkpt lon="-3.036802" lat="52.711316"><ele>282.312836</ele><time>2022-01-15T13:34:17Z</time><extensions><speed>0.559155</speed><course>97.256714</course><hAcc>1.846704</hAcc><vAcc>0.750949</vAcc></extensions></trkpt>
      <trkpt lon="-3.036794" lat="52.711315"><ele>282.326752</ele><time>2022-01-15T13:34:18Z</time><extensions><speed>0.581793</speed><course>106.758652</course><hAcc>1.848418</hAcc><vAcc>0.753341</vAcc></extensions></trkpt>
      <trkpt lon="-3.036785" lat="52.711313"><ele>282.351929</ele><time>2022-01-15T13:34:19Z</time><extensions><speed>0.613978</speed><course>115.827538</course><hAcc>1.848951</hAcc><vAcc>0.755897</vAcc></extensions></trkpt>
      <trkpt lon="-3.036777" lat="52.711310"><ele>282.364349</ele><time>2022-01-15T13:34:20Z</time><extensions><speed>0.698786</speed><course>123.244591</course><hAcc>1.840903</hAcc><vAcc>0.758563</vAcc></extensions></trkpt>
      <trkpt lon="-3.036768" lat="52.711306"><ele>282.377625</ele><time>2022-01-15T13:34:21Z</time><extensions><speed>0.828145</speed><course>128.198959</course><hAcc>1.827646</hAcc><vAcc>0.761255</vAcc></extensions></trkpt>
      <trkpt lon="-3.036757" lat="52.711301"><ele>282.391174</ele><time>2022-01-15T13:34:22Z</time><extensions><speed>1.006465</speed><course>130.769485</course><hAcc>1.816838</hAcc><vAcc>0.763906</vAcc></extensions></trkpt>
      <trkpt lon="-3.036745" lat="52.711294"><ele>282.410156</ele><time>2022-01-15T13:34:23Z</time><extensions><speed>1.132749</speed><course>133.455933</course><hAcc>1.814563</hAcc><vAcc>0.766457</vAcc></extensions></trkpt>
      <trkpt lon="-3.036733" lat="52.711287"><ele>282.437958</ele><time>2022-01-15T13:34:24Z</time><extensions><speed>1.186099</speed><course>134.778122</course><hAcc>1.810583</hAcc><vAcc>0.768857</vAcc></extensions></trkpt>
      <trkpt lon="-3.036720" lat="52.711280"><ele>282.453308</ele><time>2022-01-15T13:34:25Z</time><extensions><speed>1.198062</speed><course>134.393784</course><hAcc>1.810045</hAcc><vAcc>0.771071</vAcc></extensions></trkpt>
      <trkpt lon="-3.036708" lat="52.711272"><ele>282.475586</ele><time>2022-01-15T13:34:26Z</time><extensions><speed>1.207058</speed><course>133.489426</course><hAcc>1.804205</hAcc><vAcc>0.773088</vAcc></extensions></trkpt>
      <trkpt lon="-3.036694" lat="52.711265"><ele>282.500122</ele><time>2022-01-15T13:34:27Z</time><extensions><speed>1.267136</speed><course>133.212021</course><hAcc>1.788044</hAcc><vAcc>0.774901</vAcc></extensions></trkpt>
      <trkpt lon="-3.036680" lat="52.711257"><ele>282.507996</ele><time>2022-01-15T13:34:28Z</time><extensions><speed>1.296875</speed><course>133.352859</course><hAcc>1.780039</hAcc><vAcc>0.776505</vAcc></extensions></trkpt>
      <trkpt lon="-3.036666" lat="52.711248"><ele>282.494141</ele><time>2022-01-15T13:34:29Z</time><extensions><speed>1.306024</speed><course>134.122635</course><hAcc>1.777345</hAcc><vAcc>0.777905</vAcc></extensions></trkpt>
      <trkpt lon="-3.036652" lat="52.711240"><ele>282.492126</ele><time>2022-01-15T13:34:30Z</time><extensions><speed>1.334880</speed><course>134.787476</course><hAcc>1.780392</hAcc><vAcc>0.779084</vAcc></extensions></trkpt>
      <trkpt lon="-3.036639" lat="52.711232"><ele>282.483490</ele><time>2022-01-15T13:34:31Z</time><extensions><speed>1.330785</speed><course>136.111908</course><hAcc>1.783871</hAcc><vAcc>0.780054</vAcc></extensions></trkpt>
      <trkpt lon="-3.036625" lat="52.711223"><ele>282.479523</ele><time>2022-01-15T13:34:32Z</time><extensions><speed>1.306472</speed><course>138.181274</course><hAcc>1.771344</hAcc><vAcc>0.780897</vAcc></extensions></trkpt>
      <trkpt lon="-3.036613" lat="52.711214"><ele>282.476776</ele><time>2022-01-15T13:34:33Z</time><extensions><speed>1.274224</speed><course>140.044022</course><hAcc>1.759002</hAcc><vAcc>0.781612</vAcc></extensions></trkpt>
      <trkpt lon="-3.036601" lat="52.711205"><ele>282.481628</ele><time>2022-01-15T13:34:34Z</time><extensions><speed>1.234093</speed><course>142.079056</course><hAcc>1.757465</hAcc><vAcc>0.782090</vAcc></extensions></trkpt>
      <trkpt lon="-3.036590" lat="52.711197"><ele>282.468506</ele><time>2022-01-15T13:34:35Z</time><extensions><speed>1.202996</speed><course>143.487640</course><hAcc>1.763176</hAcc><vAcc>0.782374</vAcc></extensions></trkpt>
      <trkpt lon="-3.036579" lat="52.711188"><ele>282.431122</ele><time>2022-01-15T13:34:36Z</time><extensions><speed>1.244458</speed><course>143.403168</course><hAcc>1.757671</hAcc><vAcc>0.782440</vAcc></extensions></trkpt>
      <trkpt lon="-3.036568" lat="52.711179"><ele>282.415405</ele><time>2022-01-15T13:34:37Z</time><extensions><speed>1.248087</speed><course>143.520630</course><hAcc>1.758592</hAcc><vAcc>0.782341</vAcc></extensions></trkpt>
      <trkpt lon="-3.036557" lat="52.711170"><ele>282.393158</ele><time>2022-01-15T13:34:38Z</time><extensions><speed>1.265241</speed><course>144.349365</course><hAcc>1.761420</hAcc><vAcc>0.782082</vAcc></extensions></trkpt>
      <trkpt lon="-3.036546" lat="52.711160"><ele>282.371796</ele><time>2022-01-15T13:34:39Z</time><extensions><speed>1.295802</speed><course>143.556000</course><hAcc>1.759587</hAcc><vAcc>0.781639</vAcc></extensions></trkpt>
      <trkpt lon="-3.036534" lat="52.711151"><ele>282.325226</ele><time>2022-01-15T13:34:40Z</time><extensions><speed>1.325662</speed><course>140.803604</course><hAcc>1.760944</hAcc><vAcc>0.780969</vAcc></extensions></trkpt>
      <trkpt lon="-3.036521" lat="52.711142"><ele>282.278381</ele><time>2022-01-15T13:34:41Z</time><extensions><speed>1.342976</speed><course>139.638535</course><hAcc>1.770081</hAcc><vAcc>0.780157</vAcc></extensions></trkpt>
      <trkpt lon="-3.036508" lat="52.711133"><ele>282.216248</ele><time>2022-01-15T13:34:42Z</time><extensions><speed>1.329457</speed><course>139.224960</course><hAcc>1.761460</hAcc><vAcc>0.779195</vAcc></extensions></trkpt>
      <trkpt lon="-3.036495" lat="52.711123"><ele>282.173767</ele><time>2022-01-15T13:34:43Z</time><extensions><speed>1.337877</speed><course>138.851334</course><hAcc>1.744433</hAcc><vAcc>0.778123</vAcc></extensions></trkpt>
      <trkpt lon="-3.036482" lat="52.711114"><ele>282.118652</ele><time>2022-01-15T13:34:44Z</time><extensions><speed>1.308516</speed><course>139.274979</course><hAcc>1.724830</hAcc><vAcc>0.777007</vAcc></extensions></trkpt>
      <trkpt lon="-3.036470" lat="52.711105"><ele>282.065247</ele><time>2022-01-15T13:34:45Z</time><extensions><speed>1.302573</speed><course>140.936295</course><hAcc>1.717523</hAcc><vAcc>0.775844</vAcc></extensions></trkpt>
      <trkpt lon="-3.036458" lat="52.711096"><ele>282.028137</ele><time>2022-01-15T13:34:46Z</time><extensions><speed>1.322095</speed><course>141.961639</course><hAcc>1.735914</hAcc><vAcc>0.774597</vAcc></extensions></trkpt>
      <trkpt lon="-3.036445" lat="52.711087"><ele>281.951996</ele><time>2022-01-15T13:34:47Z</time><extensions><speed>1.363607</speed><course>142.644028</course><hAcc>1.748862</hAcc><vAcc>0.773297</vAcc></extensions></trkpt>
      <trkpt lon="-3.036433" lat="52.711077"><ele>281.872040</ele><time>2022-01-15T13:34:48Z</time><extensions><speed>1.417107</speed><course>141.758163</course><hAcc>1.723450</hAcc><vAcc>0.771944</vAcc></extensions></trkpt>
      <trkpt lon="-3.036419" lat="52.711067"><ele>281.780853</ele><time>2022-01-15T13:34:49Z</time><extensions><speed>1.464426</speed><course>141.699692</course><hAcc>1.712170</hAcc><vAcc>0.770581</vAcc></extensions></trkpt>
      <trkpt lon="-3.036406" lat="52.711056"><ele>281.677704</ele><time>2022-01-15T13:34:50Z</time><extensions><speed>1.509732</speed><course>141.362381</course><hAcc>1.718429</hAcc><vAcc>0.769212</vAcc></extensions></trkpt>
      <trkpt lon="-3.036392" lat="52.711046"><ele>281.569183</ele><time>2022-01-15T13:34:51Z</time><extensions><speed>1.491465</speed><course>140.561157</course><hAcc>1.745609</hAcc><vAcc>0.767917</vAcc></extensions></trkpt>
      <trkpt lon="-3.036378" lat="52.711036"><ele>281.484589</ele><time>2022-01-15T13:34:52Z</time><extensions><speed>1.424522</speed><course>139.470505</course><hAcc>1.749542</hAcc><vAcc>0.766742</vAcc></extensions></trkpt>
      <trkpt lon="-3.036364" lat="52.711026"><ele>281.389496</ele><time>2022-01-15T13:34:53Z</time><extensions><speed>1.366246</speed><course>139.552078</course><hAcc>1.755916</hAcc><vAcc>0.765751</vAcc></extensions></trkpt>
      <trkpt lon="-3.036351" lat="52.711017"><ele>281.293732</ele><time>2022-01-15T13:34:54Z</time><extensions><speed>1.289790</speed><course>139.631866</course><hAcc>1.769718</hAcc><vAcc>0.765001</vAcc></extensions></trkpt>
      <trkpt lon="-3.036339" lat="52.711008"><ele>281.188019</ele><time>2022-01-15T13:34:55Z</time><extensions><speed>1.266326</speed><course>141.069778</course><hAcc>1.764827</hAcc><vAcc>0.764535</vAcc></extensions></trkpt>
      <trkpt lon="-3.036327" lat="52.710999"><ele>281.068481</ele><time>2022-01-15T13:34:56Z</time><extensions><speed>1.298339</speed><course>141.489944</course><hAcc>1.746289</hAcc><vAcc>0.764324</vAcc></extensions></trkpt>
      <trkpt lon="-3.036315" lat="52.710990"><ele>280.929108</ele><time>2022-01-15T13:34:57Z</time><extensions><speed>1.331341</speed><course>140.745956</course><hAcc>1.740619</hAcc><vAcc>0.764289</vAcc></extensions></trkpt>
      <trkpt lon="-3.036302" lat="52.710981"><ele>280.780731</ele><time>2022-01-15T13:34:58Z</time><extensions><speed>1.338043</speed><course>140.005951</course><hAcc>1.748923</hAcc><vAcc>0.764412</vAcc></extensions></trkpt>
      <trkpt lon="-3.036289" lat="52.710971"><ele>280.626038</ele><time>2022-01-15T13:34:59Z</time><extensions><speed>1.397052</speed><course>138.679932</course><hAcc>1.748720</hAcc><vAcc>0.764586</vAcc></extensions></trkpt>
      <trkpt lon="-3.036275" lat="52.710962"><ele>280.474304</ele><time>2022-01-15T13:35:00Z</time><extensions><speed>1.408516</speed><course>136.332535</course><hAcc>1.758660</hAcc><vAcc>0.764863</vAcc></extensions></trkpt>
      <trkpt lon="-3.036260" lat="52.710953"><ele>280.316528</ele><time>2022-01-15T13:35:01Z</time><extensions><speed>1.379381</speed><course>133.174484</course><hAcc>1.742451</hAcc><vAcc>0.765128</vAcc></extensions></trkpt>
      <trkpt lon="-3.036245" lat="52.710945"><ele>280.148254</ele><time>2022-01-15T13:35:02Z</time><extensions><speed>1.377793</speed><course>129.707047</course><hAcc>1.715866</hAcc><vAcc>0.765324</vAcc></extensions></trkpt>
      <trkpt lon="-3.036229" lat="52.710937"><ele>279.979614</ele><time>2022-01-15T13:35:03Z</time><extensions><speed>1.353219</speed><course>127.073433</course><hAcc>1.714362</hAcc><vAcc>0.765377</vAcc></extensions></trkpt>
      <trkpt lon="-3.036213" lat="52.710930"><ele>279.797119</ele><time>2022-01-15T13:35:04Z</time><extensions><speed>1.316620</speed><course>125.062637</course><hAcc>1.726951</hAcc><vAcc>0.765270</vAcc></extensions></trkpt>
      <trkpt lon="-3.036197" lat="52.710924"><ele>279.610779</ele><time>2022-01-15T13:35:05Z</time><extensions><speed>1.265293</speed><course>123.110954</course><hAcc>1.728812</hAcc><vAcc>0.764958</vAcc></extensions></trkpt>
      <trkpt lon="-3.036182" lat="52.710918"><ele>279.418060</ele><time>2022-01-15T13:35:06Z</time><extensions><speed>1.166877</speed><course>122.710068</course><hAcc>1.728476</hAcc><vAcc>0.764382</vAcc></extensions></trkpt>
      <trkpt lon="-3.036167" lat="52.710912"><ele>279.215210</ele><time>2022-01-15T13:35:07Z</time><extensions><speed>1.086817</speed><course>124.055290</course><hAcc>1.727548</hAcc><vAcc>0.763432</vAcc></extensions></trkpt>
      <trkpt lon="-3.036154" lat="52.710907"><ele>279.001648</ele><time>2022-01-15T13:35:08Z</time><extensions><speed>1.045210</speed><course>126.837547</course><hAcc>1.737239</hAcc><vAcc>0.762136</vAcc></extensions></trkpt>
      <trkpt lon="-3.036142" lat="52.710901"><ele>278.801941</ele><time>2022-01-15T13:35:09Z</time><extensions><speed>1.026371</speed><course>128.172913</course><hAcc>1.727770</hAcc><vAcc>0.760456</vAcc></extensions></trkpt>
      <trkpt lon="-3.036130" lat="52.710895"><ele>278.616425</ele><time>2022-01-15T13:35:10Z</time><extensions><speed>1.068277</speed><course>129.240662</course><hAcc>1.702045</hAcc><vAcc>0.758587</vAcc></extensions></trkpt>
      <trkpt lon="-3.036117" lat="52.710889"><ele>278.425354</ele><time>2022-01-15T13:35:11Z</time><extensions><speed>1.132201</speed><course>131.021881</course><hAcc>1.710337</hAcc><vAcc>0.756543</vAcc></extensions></trkpt>
      <trkpt lon="-3.036104" lat="52.710881"><ele>278.231445</ele><time>2022-01-15T13:35:12Z</time><extensions><speed>1.209562</speed><course>133.966446</course><hAcc>1.743864</hAcc><vAcc>0.754266</vAcc></extensions></trkpt>
      <trkpt lon="-3.036091" lat="52.710874"><ele>278.028564</ele><time>2022-01-15T13:35:13Z</time><extensions><speed>1.284862</speed><course>133.068649</course><hAcc>1.728756</hAcc><vAcc>0.751850</vAcc></extensions></trkpt>
      <trkpt lon="-3.036077" lat="52.710866"><ele>277.819214</ele><time>2022-01-15T13:35:14Z</time><extensions><speed>1.281721</speed><course>132.234573</course><hAcc>1.730797</hAcc><vAcc>0.749427</vAcc></extensions></trkpt>
      <trkpt lon="-3.036062" lat="52.710858"><ele>277.638458</ele><time>2022-01-15T13:35:15Z</time><extensions><speed>1.315477</speed><course>130.496368</course><hAcc>1.734841</hAcc><vAcc>0.747088</vAcc></extensions></trkpt>
      <trkpt lon="-3.036047" lat="52.710851"><ele>277.463806</ele><time>2022-01-15T13:35:16Z</time><extensions><speed>1.270982</speed><course>128.452484</course><hAcc>1.734934</hAcc><vAcc>0.744985</vAcc></extensions></trkpt>
      <trkpt lon="-3.036033" lat="52.710844"><ele>277.288269</ele><time>2022-01-15T13:35:17Z</time><extensions><speed>1.226890</speed><course>125.720718</course><hAcc>1.733909</hAcc><vAcc>0.743283</vAcc></extensions></trkpt>
      <trkpt lon="-3.036018" lat="52.710838"><ele>277.113617</ele><time>2022-01-15T13:35:18Z</time><extensions><speed>1.133600</speed><course>125.072243</course><hAcc>1.762790</hAcc><vAcc>0.742167</vAcc></extensions></trkpt>
      <trkpt lon="-3.036004" lat="52.710832"><ele>276.921875</ele><time>2022-01-15T13:35:19Z</time><extensions><speed>1.188844</speed><course>124.098091</course><hAcc>1.765409</hAcc><vAcc>0.741710</vAcc></extensions></trkpt>
      <trkpt lon="-3.035989" lat="52.710826"><ele>276.728241</ele><time>2022-01-15T13:35:20Z</time><extensions><speed>1.195859</speed><course>123.119583</course><hAcc>1.775314</hAcc><vAcc>0.741917</vAcc></extensions></trkpt>
      <trkpt lon="-3.035974" lat="52.710820"><ele>276.522583</ele><time>2022-01-15T13:35:21Z</time><extensions><speed>1.273619</speed><course>119.599297</course><hAcc>1.761477</hAcc><vAcc>0.742678</vAcc></extensions></trkpt>
      <trkpt lon="-3.035957" lat="52.710815"><ele>276.327606</ele><time>2022-01-15T13:35:22Z</time><extensions><speed>1.294264</speed><course>115.979004</course><hAcc>1.772510</hAcc><vAcc>0.743839</vAcc></extensions></trkpt>
      <trkpt lon="-3.035940" lat="52.710810"><ele>276.124176</ele><time>2022-01-15T13:35:23Z</time><extensions><speed>1.235118</speed><course>112.833153</course><hAcc>1.805358</hAcc><vAcc>0.745205</vAcc></extensions></trkpt>
      <trkpt lon="-3.035923" lat="52.710806"><ele>275.917450</ele><time>2022-01-15T13:35:24Z</time><extensions><speed>1.147561</speed><course>110.375183</course><hAcc>1.819166</hAcc><vAcc>0.746706</vAcc></extensions></trkpt>
      <trkpt lon="-3.035908" lat="52.710803"><ele>275.717743</ele><time>2022-01-15T13:35:25Z</time><extensions><speed>1.068073</speed><course>110.100983</course><hAcc>1.817904</hAcc><vAcc>0.748253</vAcc></extensions></trkpt>
      <trkpt lon="-3.035893" lat="52.710800"><ele>275.482330</ele><time>2022-01-15T13:35:26Z</time><extensions><speed>1.014859</speed><course>110.030891</course><hAcc>1.812098</hAcc><vAcc>0.749682</vAcc></extensions></trkpt>
      <trkpt lon="-3.035879" lat="52.710797"><ele>275.266785</ele><time>2022-01-15T13:35:27Z</time><extensions><speed>1.015454</speed><course>110.006378</course><hAcc>1.814286</hAcc><vAcc>0.751068</vAcc></extensions></trkpt>
      <trkpt lon="-3.035865" lat="52.710793"><ele>275.042694</ele><time>2022-01-15T13:35:28Z</time><extensions><speed>1.063090</speed><course>110.352905</course><hAcc>1.828213</hAcc><vAcc>0.752317</vAcc></extensions></trkpt>
      <trkpt lon="-3.035850" lat="52.710790"><ele>274.807831</ele><time>2022-01-15T13:35:29Z</time><extensions><speed>1.106745</speed><course>110.147606</course><hAcc>1.845513</hAcc><vAcc>0.753406</vAcc></extensions></trkpt>
      <trkpt lon="-3.035834" lat="52.710787"><ele>274.570312</ele><time>2022-01-15T13:35:30Z</time><extensions><speed>1.161019</speed><course>109.422844</course><hAcc>1.843364</hAcc><vAcc>0.754315</vAcc></extensions></trkpt>
      <trkpt lon="-3.035817" lat="52.710783"><ele>274.334229</ele><time>2022-01-15T13:35:31Z</time><extensions><speed>1.214767</speed><course>108.128738</course><hAcc>1.834410</hAcc><vAcc>0.755053</vAcc></extensions></trkpt>
      <trkpt lon="-3.035800" lat="52.710780"><ele>274.089996</ele><time>2022-01-15T13:35:32Z</time><extensions><speed>1.239611</speed><course>106.204407</course><hAcc>1.838796</hAcc><vAcc>0.755652</vAcc></extensions></trkpt>
      <trkpt lon="-3.035782" lat="52.710777"><ele>273.831940</ele><time>2022-01-15T13:35:33Z</time><extensions><speed>1.214149</speed><course>103.142235</course><hAcc>1.833325</hAcc><vAcc>0.756080</vAcc></extensions></trkpt>
      <trkpt lon="-3.035765" lat="52.710775"><ele>273.587433</ele><time>2022-01-15T13:35:34Z</time><extensions><speed>1.124519</speed><course>100.347916</course><hAcc>1.833970</hAcc><vAcc>0.756324</vAcc></extensions></trkpt>
      <trkpt lon="-3.035750" lat="52.710773"><ele>273.353699</ele><time>2022-01-15T13:35:35Z</time><extensions><speed>0.990272</speed><course>97.263184</course><hAcc>1.843689</hAcc><vAcc>0.756301</vAcc></extensions></trkpt>
      <trkpt lon="-3.035736" lat="52.710773"><ele>273.108246</ele><time>2022-01-15T13:35:36Z</time><extensions><speed>0.859328</speed><course>94.639206</course><hAcc>1.861338</hAcc><vAcc>0.756075</vAcc></extensions></trkpt>
      <trkpt lon="-3.035722" lat="52.710772"><ele>272.843201</ele><time>2022-01-15T13:35:37Z</time><extensions><speed>0.989089</speed><course>94.922935</course><hAcc>1.858934</hAcc><vAcc>0.755622</vAcc></extensions></trkpt>
      <trkpt lon="-3.035707" lat="52.710771"><ele>272.566620</ele><time>2022-01-15T13:35:38Z</time><extensions><speed>1.076489</speed><course>96.253929</course><hAcc>1.858779</hAcc><vAcc>0.754995</vAcc></extensions></trkpt>
      <trkpt lon="-3.035691" lat="52.710770"><ele>272.315765</ele><time>2022-01-15T13:35:39Z</time><extensions><speed>1.089954</speed><course>98.432373</course><hAcc>1.860690</hAcc><vAcc>0.754164</vAcc></extensions></trkpt>
      <trkpt lon="-3.035675" lat="52.710768"><ele>272.062592</ele><time>2022-01-15T13:35:40Z</time><extensions><speed>1.073543</speed><course>100.877518</course><hAcc>1.858231</hAcc><vAcc>0.753106</vAcc></extensions></trkpt>
      <trkpt lon="-3.035660" lat="52.710766"><ele>271.823273</ele><time>2022-01-15T13:35:41Z</time><extensions><speed>1.051506</speed><course>103.221100</course><hAcc>1.853777</hAcc><vAcc>0.751975</vAcc></extensions></trkpt>
      <trkpt lon="-3.035645" lat="52.710764"><ele>271.551666</ele><time>2022-01-15T13:35:42Z</time><extensions><speed>1.003814</speed><course>105.128464</course><hAcc>1.861400</hAcc><vAcc>0.750778</vAcc></extensions></trkpt>
      <trkpt lon="-3.035631" lat="52.710761"><ele>271.307587</ele><time>2022-01-15T13:35:43Z</time><extensions><speed>0.980419</speed><course>105.782982</course><hAcc>1.861190</hAcc><vAcc>0.749551</vAcc></extensions></trkpt>
      <trkpt lon="-3.035617" lat="52.710759"><ele>271.065521</ele><time>2022-01-15T13:35:44Z</time><extensions><speed>1.027121</speed><course>105.533195</course><hAcc>1.842486</hAcc><vAcc>0.748370</vAcc></extensions></trkpt>
      <trkpt lon="-3.035602" lat="52.710757"><ele>270.812622</ele><time>2022-01-15T13:35:45Z</time><extensions><speed>1.051248</speed><course>104.464928</course><hAcc>1.836995</hAcc><vAcc>0.747352</vAcc></extensions></trkpt>
      <trkpt lon="-3.035587" lat="52.710754"><ele>270.565338</ele><time>2022-01-15T13:35:46Z</time><extensions><speed>1.030063</speed><course>102.852119</course><hAcc>1.852412</hAcc><vAcc>0.746585</vAcc></extensions></trkpt>
      <trkpt lon="-3.035572" lat="52.710753"><ele>270.350281</ele><time>2022-01-15T13:35:47Z</time><extensions><speed>1.001321</speed><course>101.366196</course><hAcc>1.875928</hAcc><vAcc>0.746118</vAcc></extensions></trkpt>
      <trkpt lon="-3.035558" lat="52.710751"><ele>270.120880</ele><time>2022-01-15T13:35:48Z</time><extensions><speed>0.925161</speed><course>98.907310</course><hAcc>1.863256</hAcc><vAcc>0.745938</vAcc></extensions></trkpt>
      <trkpt lon="-3.035545" lat="52.710750"><ele>269.894165</ele><time>2022-01-15T13:35:49Z</time><extensions><speed>0.895263</speed><course>98.449944</course><hAcc>1.833123</hAcc><vAcc>0.746112</vAcc></extensions></trkpt>
      <trkpt lon="-3.035532" lat="52.710748"><ele>269.660950</ele><time>2022-01-15T13:35:50Z</time><extensions><speed>0.891293</speed><course>100.695221</course><hAcc>1.823475</hAcc><vAcc>0.746665</vAcc></extensions></trkpt>
      <trkpt lon="-3.035519" lat="52.710747"><ele>269.424133</ele><time>2022-01-15T13:35:51Z</time><extensions><speed>0.866901</speed><course>104.722443</course><hAcc>1.845667</hAcc><vAcc>0.747511</vAcc></extensions></trkpt>
      <trkpt lon="-3.035507" lat="52.710744"><ele>269.175079</ele><time>2022-01-15T13:35:52Z</time><extensions><speed>0.819304</speed><course>108.788704</course><hAcc>1.871381</hAcc><vAcc>0.748568</vAcc></extensions></trkpt>
      <trkpt lon="-3.035496" lat="52.710742"><ele>268.928558</ele><time>2022-01-15T13:35:53Z</time><extensions><speed>0.806082</speed><course>112.584999</course><hAcc>1.845967</hAcc><vAcc>0.749831</vAcc></extensions></trkpt>
      <trkpt lon="-3.035485" lat="52.710739"><ele>268.703491</ele><time>2022-01-15T13:35:54Z</time><extensions><speed>0.799629</speed><course>115.531021</course><hAcc>1.824172</hAcc><vAcc>0.751074</vAcc></extensions></trkpt>
      <trkpt lon="-3.035474" lat="52.710736"><ele>268.476868</ele><time>2022-01-15T13:35:55Z</time><extensions><speed>0.808987</speed><course>117.063766</course><hAcc>1.830275</hAcc><vAcc>0.752194</vAcc></extensions></trkpt>
      <trkpt lon="-3.035463" lat="52.710732"><ele>268.249664</ele><time>2022-01-15T13:35:56Z</time><extensions><speed>0.861610</speed><course>118.051231</course><hAcc>1.831595</hAcc><vAcc>0.753096</vAcc></extensions></trkpt>
      <trkpt lon="-3.035451" lat="52.710728"><ele>268.037231</ele><time>2022-01-15T13:35:57Z</time><extensions><speed>0.937117</speed><course>118.206024</course><hAcc>1.818849</hAcc><vAcc>0.753710</vAcc></extensions></trkpt>
      <trkpt lon="-3.035439" lat="52.710724"><ele>267.823273</ele><time>2022-01-15T13:35:58Z</time><extensions><speed>0.953856</speed><course>118.250099</course><hAcc>1.806355</hAcc><vAcc>0.753966</vAcc></extensions></trkpt>
      <trkpt lon="-3.035426" lat="52.710720"><ele>267.606323</ele><time>2022-01-15T13:35:59Z</time><extensions><speed>0.957769</speed><course>118.459007</course><hAcc>1.812159</hAcc><vAcc>0.753978</vAcc></extensions></trkpt>
      <trkpt lon="-3.035414" lat="52.710716"><ele>267.381989</ele><time>2022-01-15T13:36:00Z</time><extensions><speed>0.916586</speed><course>118.064445</course><hAcc>1.825409</hAcc><vAcc>0.753873</vAcc></extensions></trkpt>
      <trkpt lon="-3.035402" lat="52.710713"><ele>267.179352</ele><time>2022-01-15T13:36:01Z</time><extensions><speed>0.925379</speed><course>116.254189</course><hAcc>1.813122</hAcc><vAcc>0.753669</vAcc></extensions></trkpt>
      <trkpt lon="-3.035389" lat="52.710709"><ele>266.970215</ele><time>2022-01-15T13:36:02Z</time><extensions><speed>1.009439</speed><course>115.139633</course><hAcc>1.806508</hAcc><vAcc>0.753350</vAcc></extensions></trkpt>
      <trkpt lon="-3.035374" lat="52.710705"><ele>266.762573</ele><time>2022-01-15T13:36:03Z</time><extensions><speed>1.112723</speed><course>113.093033</course><hAcc>1.812715</hAcc><vAcc>0.753029</vAcc></extensions></trkpt>
      <trkpt lon="-3.035358" lat="52.710701"><ele>266.574768</ele><time>2022-01-15T13:36:04Z</time><extensions><speed>1.225078</speed><course>110.414291</course><hAcc>1.801834</hAcc><vAcc>0.752648</vAcc></extensions></trkpt>
      <trkpt lon="-3.035341" lat="52.710697"><ele>266.393341</ele><time>2022-01-15T13:36:05Z</time><extensions><speed>1.256818</speed><course>107.892380</course><hAcc>1.803208</hAcc><vAcc>0.752289</vAcc></extensions></trkpt>
      <trkpt lon="-3.035322" lat="52.710694"><ele>266.282288</ele><time>2022-01-15T13:36:06Z</time><extensions><speed>1.271971</speed><course>105.131538</course><hAcc>1.810554</hAcc><vAcc>0.751970</vAcc></extensions></trkpt>
      <trkpt lon="-3.035304" lat="52.710691"><ele>266.195648</ele><time>2022-01-15T13:36:07Z</time><extensions><speed>1.350417</speed><course>104.253975</course><hAcc>1.814493</hAcc><vAcc>0.751740</vAcc></extensions></trkpt>
      <trkpt lon="-3.035284" lat="52.710688"><ele>266.107483</ele><time>2022-01-15T13:36:08Z</time><extensions><speed>1.393584</speed><course>104.253677</course><hAcc>1.809527</hAcc><vAcc>0.751623</vAcc></extensions></trkpt>
      <trkpt lon="-3.035264" lat="52.710685"><ele>266.036346</ele><time>2022-01-15T13:36:09Z</time><extensions><speed>1.391651</speed><course>105.533981</course><hAcc>1.815291</hAcc><vAcc>0.751666</vAcc></extensions></trkpt>
      <trkpt lon="-3.035244" lat="52.710681"><ele>265.965820</ele><time>2022-01-15T13:36:10Z</time><extensions><speed>1.427315</speed><course>107.466347</course><hAcc>1.815603</hAcc><vAcc>0.751866</vAcc></extensions></trkpt>
      <trkpt lon="-3.035223" lat="52.710677"><ele>265.911560</ele><time>2022-01-15T13:36:11Z</time><extensions><speed>1.503876</speed><course>108.189827</course><hAcc>1.807573</hAcc><vAcc>0.752205</vAcc></extensions></trkpt>
      <trkpt lon="-3.035202" lat="52.710673"><ele>265.844727</ele><time>2022-01-15T13:36:12Z</time><extensions><speed>1.449201</speed><course>108.380135</course><hAcc>1.811952</hAcc><vAcc>0.752696</vAcc></extensions></trkpt>
      <trkpt lon="-3.035182" lat="52.710669"><ele>265.779083</ele><time>2022-01-15T13:36:13Z</time><extensions><speed>1.476460</speed><course>108.651695</course><hAcc>1.797467</hAcc><vAcc>0.753300</vAcc></extensions></trkpt>
      <trkpt lon="-3.035161" lat="52.710664"><ele>265.725403</ele><time>2022-01-15T13:36:14Z</time><extensions><speed>1.432311</speed><course>109.784660</course><hAcc>1.782607</hAcc><vAcc>0.753991</vAcc></extensions></trkpt>
      <trkpt lon="-3.035141" lat="52.710660"><ele>265.664673</ele><time>2022-01-15T13:36:15Z</time><extensions><speed>1.457489</speed><course>109.575127</course><hAcc>1.771057</hAcc><vAcc>0.754778</vAcc></extensions></trkpt>
      <trkpt lon="-3.035121" lat="52.710656"><ele>265.595215</ele><time>2022-01-15T13:36:16Z</time><extensions><speed>1.465027</speed><course>109.583916</course><hAcc>1.789995</hAcc><vAcc>0.755597</vAcc></extensions></trkpt>
      <trkpt lon="-3.035101" lat="52.710651"><ele>265.506958</ele><time>2022-01-15T13:36:17Z</time><extensions><speed>1.283885</speed><course>108.730690</course><hAcc>1.826209</hAcc><vAcc>0.756434</vAcc></extensions></trkpt>
      <trkpt lon="-3.035083" lat="52.710648"><ele>265.403992</ele><time>2022-01-15T13:36:18Z</time><extensions><speed>1.228646</speed><course>106.549774</course><hAcc>1.796765</hAcc><vAcc>0.757262</vAcc></extensions></trkpt>
      <trkpt lon="-3.035067" lat="52.710645"><ele>265.289459</ele><time>2022-01-15T13:36:19Z</time><extensions><speed>1.112484</speed><course>103.630821</course><hAcc>1.774685</hAcc><vAcc>0.758010</vAcc></extensions></trkpt>
      <trkpt lon="-3.035051" lat="52.710643"><ele>265.161865</ele><time>2022-01-15T13:36:20Z</time><extensions><speed>1.000049</speed><course>102.659767</course><hAcc>1.774161</hAcc><vAcc>0.758707</vAcc></extensions></trkpt>
      <trkpt lon="-3.035038" lat="52.710641"><ele>265.029724</ele><time>2022-01-15T13:36:21Z</time><extensions><speed>0.922074</speed><course>106.153992</course><hAcc>1.784006</hAcc><vAcc>0.759255</vAcc></extensions></trkpt>
      <trkpt lon="-3.035025" lat="52.710638"><ele>264.900604</ele><time>2022-01-15T13:36:22Z</time><extensions><speed>0.825334</speed><course>114.751770</course><hAcc>1.795532</hAcc><vAcc>0.759649</vAcc></extensions></trkpt>
      <trkpt lon="-3.035016" lat="52.710635"><ele>264.763123</ele><time>2022-01-15T13:36:23Z</time><extensions><speed>0.719205</speed><course>128.661819</course><hAcc>1.808480</hAcc><vAcc>0.759996</vAcc></extensions></trkpt>
      <trkpt lon="-3.035009" lat="52.710630"><ele>264.589325</ele><time>2022-01-15T13:36:24Z</time><extensions><speed>0.601842</speed><course>140.333084</course><hAcc>1.825933</hAcc><vAcc>0.760257</vAcc></extensions></trkpt>
      <trkpt lon="-3.035002" lat="52.710625"><ele>264.427155</ele><time>2022-01-15T13:36:25Z</time><extensions><speed>0.782768</speed><course>146.675339</course><hAcc>1.807542</hAcc><vAcc>0.760475</vAcc></extensions></trkpt>
      <trkpt lon="-3.034995" lat="52.710618"><ele>264.276550</ele><time>2022-01-15T13:36:26Z</time><extensions><speed>1.143078</speed><course>149.381699</course><hAcc>1.781164</hAcc><vAcc>0.760710</vAcc></extensions></trkpt>
      <trkpt lon="-3.034986" lat="52.710608"><ele>264.121094</ele><time>2022-01-15T13:36:27Z</time><extensions><speed>1.327367</speed><course>150.824936</course><hAcc>1.787600</hAcc><vAcc>0.760977</vAcc></extensions></trkpt>
      <trkpt lon="-3.034976" lat="52.710597"><ele>263.972931</ele><time>2022-01-15T13:36:28Z</time><extensions><speed>1.407012</speed><course>150.357681</course><hAcc>1.795373</hAcc><vAcc>0.761208</vAcc></extensions></trkpt>
      <trkpt lon="-3.034965" lat="52.710586"><ele>263.823273</ele><time>2022-01-15T13:36:29Z</time><extensions><speed>1.396309</speed><course>150.203262</course><hAcc>1.790081</hAcc><vAcc>0.761406</vAcc></extensions></trkpt>
      <trkpt lon="-3.034955" lat="52.710576"><ele>263.674255</ele><time>2022-01-15T13:36:30Z</time><extensions><speed>1.320532</speed><course>150.518784</course><hAcc>1.779587</hAcc><vAcc>0.761561</vAcc></extensions></trkpt>
      <trkpt lon="-3.034946" lat="52.710566"><ele>263.530273</ele><time>2022-01-15T13:36:31Z</time><extensions><speed>1.267240</speed><course>150.921417</course><hAcc>1.755367</hAcc><vAcc>0.761655</vAcc></extensions></trkpt>
      <trkpt lon="-3.034937" lat="52.710556"><ele>263.395538</ele><time>2022-01-15T13:36:32Z</time><extensions><speed>1.211944</speed><course>152.328064</course><hAcc>1.741844</hAcc><vAcc>0.761693</vAcc></extensions></trkpt>
      <trkpt lon="-3.034929" lat="52.710546"><ele>263.240479</ele><time>2022-01-15T13:36:33Z</time><extensions><speed>1.158653</speed><course>154.558105</course><hAcc>1.738747</hAcc><vAcc>0.761616</vAcc></extensions></trkpt>
      <trkpt lon="-3.034922" lat="52.710536"><ele>263.097961</ele><time>2022-01-15T13:36:34Z</time><extensions><speed>1.224924</speed><course>156.671143</course><hAcc>1.700384</hAcc><vAcc>0.761536</vAcc></extensions></trkpt>
      <trkpt lon="-3.034915" lat="52.710526"><ele>262.954803</ele><time>2022-01-15T13:36:35Z</time><extensions><speed>1.263759</speed><course>159.964935</course><hAcc>1.683457</hAcc><vAcc>0.761350</vAcc></extensions></trkpt>
      <trkpt lon="-3.034910" lat="52.710515"><ele>262.797729</ele><time>2022-01-15T13:36:36Z</time><extensions><speed>1.151259</speed><course>164.965454</course><hAcc>1.722950</hAcc><vAcc>0.760904</vAcc></extensions></trkpt>
      <trkpt lon="-3.034906" lat="52.710506"><ele>262.654236</ele><time>2022-01-15T13:36:37Z</time><extensions><speed>1.027200</speed><course>171.685272</course><hAcc>1.749375</hAcc><vAcc>0.760069</vAcc></extensions></trkpt>
      <trkpt lon="-3.034905" lat="52.710497"><ele>262.518036</ele><time>2022-01-15T13:36:38Z</time><extensions><speed>1.059587</speed><course>175.719223</course><hAcc>1.703252</hAcc><vAcc>0.758596</vAcc></extensions></trkpt>
      <trkpt lon="-3.034904" lat="52.710487"><ele>262.345673</ele><time>2022-01-15T13:36:39Z</time><extensions><speed>1.017863</speed><course>180.006271</course><hAcc>1.697738</hAcc><vAcc>0.756515</vAcc></extensions></trkpt>
      <trkpt lon="-3.034905" lat="52.710478"><ele>262.142944</ele><time>2022-01-15T13:36:40Z</time><extensions><speed>1.007139</speed><course>182.792862</course><hAcc>1.723791</hAcc><vAcc>0.753524</vAcc></extensions></trkpt>
      <trkpt lon="-3.034905" lat="52.710469"><ele>261.960052</ele><time>2022-01-15T13:36:41Z</time><extensions><speed>1.065348</speed><course>182.929962</course><hAcc>1.751617</hAcc><vAcc>0.750163</vAcc></extensions></trkpt>
      <trkpt lon="-3.034906" lat="52.710459"><ele>261.778107</ele><time>2022-01-15T13:36:42Z</time><extensions><speed>1.097413</speed><course>180.844193</course><hAcc>1.774663</hAcc><vAcc>0.746093</vAcc></extensions></trkpt>
      <trkpt lon="-3.034906" lat="52.710449"><ele>261.600159</ele><time>2022-01-15T13:36:43Z</time><extensions><speed>1.133862</speed><course>180.032654</course><hAcc>1.795245</hAcc><vAcc>0.741293</vAcc></extensions></trkpt>
      <trkpt lon="-3.034906" lat="52.710439"><ele>261.418030</ele><time>2022-01-15T13:36:44Z</time><extensions><speed>1.211632</speed><course>179.458694</course><hAcc>1.814989</hAcc><vAcc>0.735774</vAcc></extensions></trkpt>
      <trkpt lon="-3.034906" lat="52.710427"><ele>261.234985</ele><time>2022-01-15T13:36:45Z</time><extensions><speed>1.266080</speed><course>179.921310</course><hAcc>1.830842</hAcc><vAcc>0.729618</vAcc></extensions></trkpt>
      <trkpt lon="-3.034906" lat="52.710416"><ele>261.047272</ele><time>2022-01-15T13:36:46Z</time><extensions><speed>1.293251</speed><course>182.199905</course><hAcc>1.833131</hAcc><vAcc>0.722930</vAcc></extensions></trkpt>
      <trkpt lon="-3.034908" lat="52.710405"><ele>260.843933</ele><time>2022-01-15T13:36:47Z</time><extensions><speed>1.243886</speed><course>185.070053</course><hAcc>1.834741</hAcc><vAcc>0.715926</vAcc></extensions></trkpt>
      <trkpt lon="-3.034910" lat="52.710394"><ele>260.638092</ele><time>2022-01-15T13:36:48Z</time><extensions><speed>1.159370</speed><course>189.092468</course><hAcc>1.840207</hAcc><vAcc>0.708913</vAcc></extensions></trkpt>
      <trkpt lon="-3.034913" lat="52.710384"><ele>260.433868</ele><time>2022-01-15T13:36:49Z</time><extensions><speed>1.109511</speed><course>193.430099</course><hAcc>1.845840</hAcc><vAcc>0.702140</vAcc></extensions></trkpt>
      <trkpt lon="-3.034918" lat="52.710374"><ele>260.220398</ele><time>2022-01-15T13:36:50Z</time><extensions><speed>1.099487</speed><course>198.436417</course><hAcc>1.850663</hAcc><vAcc>0.695864</vAcc></extensions></trkpt>
      <trkpt lon="-3.034924" lat="52.710365"><ele>260.011993</ele><time>2022-01-15T13:36:51Z</time><extensions><speed>1.066908</speed><course>204.785324</course><hAcc>1.861267</hAcc><vAcc>0.690214</vAcc></extensions></trkpt>
      <trkpt lon="-3.034931" lat="52.710357"><ele>259.795624</ele><time>2022-01-15T13:36:52Z</time><extensions><speed>1.067132</speed><course>212.007416</course><hAcc>1.858396</hAcc><vAcc>0.685214</vAcc></extensions></trkpt>
      <trkpt lon="-3.034940" lat="52.710348"><ele>259.579773</ele><time>2022-01-15T13:36:53Z</time><extensions><speed>1.141935</speed><course>214.725525</course><hAcc>1.846767</hAcc><vAcc>0.680835</vAcc></extensions></trkpt>
      <trkpt lon="-3.034949" lat="52.710340"><ele>259.362122</ele><time>2022-01-15T13:36:54Z</time><extensions><speed>1.121861</speed><course>214.273865</course><hAcc>1.834989</hAcc><vAcc>0.677041</vAcc></extensions></trkpt>
      <trkpt lon="-3.034958" lat="52.710332"><ele>259.135284</ele><time>2022-01-15T13:36:55Z</time><extensions><speed>1.101194</speed><course>211.155884</course><hAcc>1.832797</hAcc><vAcc>0.673816</vAcc></extensions></trkpt>
      <trkpt lon="-3.034966" lat="52.710323"><ele>258.898987</ele><time>2022-01-15T13:36:56Z</time><extensions><speed>1.068339</speed><course>207.447174</course><hAcc>1.832960</hAcc><vAcc>0.671130</vAcc></extensions></trkpt>
      <trkpt lon="-3.034973" lat="52.710314"><ele>258.653809</ele><time>2022-01-15T13:36:57Z</time><extensions><speed>1.070468</speed><course>203.809875</course><hAcc>1.838091</hAcc><vAcc>0.669010</vAcc></extensions></trkpt>
      <trkpt lon="-3.034979" lat="52.710305"><ele>258.406403</ele><time>2022-01-15T13:36:58Z</time><extensions><speed>1.079805</speed><course>202.161835</course><hAcc>1.830493</hAcc><vAcc>0.667375</vAcc></extensions></trkpt>
      <trkpt lon="-3.034985" lat="52.710296"><ele>258.157593</ele><time>2022-01-15T13:36:59Z</time><extensions><speed>1.080050</speed><course>201.491882</course><hAcc>1.810743</hAcc><vAcc>0.666218</vAcc></extensions></trkpt>
      <trkpt lon="-3.034991" lat="52.710287"><ele>257.899872</ele><time>2022-01-15T13:37:00Z</time><extensions><speed>1.108759</speed><course>200.366287</course><hAcc>1.804243</hAcc><vAcc>0.665489</vAcc></extensions></trkpt>
      <trkpt lon="-3.034997" lat="52.710277"><ele>257.655121</ele><time>2022-01-15T13:37:01Z</time><extensions><speed>1.151612</speed><course>198.752014</course><hAcc>1.809455</hAcc><vAcc>0.665163</vAcc></extensions></trkpt>
      <trkpt lon="-3.035002" lat="52.710268"><ele>257.418762</ele><time>2022-01-15T13:37:02Z</time><extensions><speed>1.075967</speed><course>197.686264</course><hAcc>1.822271</hAcc><vAcc>0.665106</vAcc></extensions></trkpt>
      <trkpt lon="-3.035006" lat="52.710259"><ele>257.177216</ele><time>2022-01-15T13:37:03Z</time><extensions><speed>1.010974</speed><course>198.237823</course><hAcc>1.811077</hAcc><vAcc>0.665282</vAcc></extensions></trkpt>
      <trkpt lon="-3.035011" lat="52.710250"><ele>256.925415</ele><time>2022-01-15T13:37:04Z</time><extensions><speed>0.978974</speed><course>198.134048</course><hAcc>1.788334</hAcc><vAcc>0.665572</vAcc></extensions></trkpt>
      <trkpt lon="-3.035015" lat="52.710242"><ele>256.647797</ele><time>2022-01-15T13:37:05Z</time><extensions><speed>0.940319</speed><course>197.667648</course><hAcc>1.788698</hAcc><vAcc>0.665798</vAcc></extensions></trkpt>
      <trkpt lon="-3.035019" lat="52.710234"><ele>256.358612</ele><time>2022-01-15T13:37:06Z</time><extensions><speed>0.898702</speed><course>196.162521</course><hAcc>1.801520</hAcc><vAcc>0.665819</vAcc></extensions></trkpt>
      <trkpt lon="-3.035023" lat="52.710226"><ele>256.073395</ele><time>2022-01-15T13:37:07Z</time><extensions><speed>0.899310</speed><course>196.670090</course><hAcc>1.811860</hAcc><vAcc>0.665458</vAcc></extensions></trkpt>
      <trkpt lon="-3.035027" lat="52.710218"><ele>255.787949</ele><time>2022-01-15T13:37:08Z</time><extensions><speed>1.023649</speed><course>199.322495</course><hAcc>1.804488</hAcc><vAcc>0.664604</vAcc></extensions></trkpt>
      <trkpt lon="-3.035033" lat="52.710209"><ele>255.511292</ele><time>2022-01-15T13:37:09Z</time><extensions><speed>1.114936</speed><course>202.465652</course><hAcc>1.812401</hAcc><vAcc>0.663124</vAcc></extensions></trkpt>
      <trkpt lon="-3.035039" lat="52.710200"><ele>255.239212</ele><time>2022-01-15T13:37:10Z</time><extensions><speed>1.143886</speed><course>201.830750</course><hAcc>1.814939</hAcc><vAcc>0.661042</vAcc></extensions></trkpt>
      <trkpt lon="-3.035045" lat="52.710190"><ele>254.969360</ele><time>2022-01-15T13:37:11Z</time><extensions><speed>1.148172</speed><course>199.565109</course><hAcc>1.814340</hAcc><vAcc>0.658463</vAcc></extensions></trkpt>
      <trkpt lon="-3.035050" lat="52.710180"><ele>254.720200</ele><time>2022-01-15T13:37:12Z</time><extensions><speed>1.147434</speed><course>196.876205</course><hAcc>1.829606</hAcc><vAcc>0.655648</vAcc></extensions></trkpt>
      <trkpt lon="-3.035055" lat="52.710170"><ele>254.488464</ele><time>2022-01-15T13:37:13Z</time><extensions><speed>1.180601</speed><course>195.861160</course><hAcc>1.865422</hAcc><vAcc>0.652902</vAcc></extensions></trkpt>
      <trkpt lon="-3.035060" lat="52.710159"><ele>254.253311</ele><time>2022-01-15T13:37:14Z</time><extensions><speed>1.276786</speed><course>194.227753</course><hAcc>1.861208</hAcc><vAcc>0.650542</vAcc></extensions></trkpt>
      <trkpt lon="-3.035064" lat="52.710148"><ele>254.046188</ele><time>2022-01-15T13:37:15Z</time><extensions><speed>1.312285</speed><course>193.384262</course><hAcc>1.860273</hAcc><vAcc>0.648906</vAcc></extensions></trkpt>
      <trkpt lon="-3.035069" lat="52.710136"><ele>253.856766</ele><time>2022-01-15T13:37:16Z</time><extensions><speed>1.306993</speed><course>192.828949</course><hAcc>1.869004</hAcc><vAcc>0.648176</vAcc></extensions></trkpt>
      <trkpt lon="-3.035073" lat="52.710125"><ele>253.699142</ele><time>2022-01-15T13:37:17Z</time><extensions><speed>1.302585</speed><course>191.492676</course><hAcc>1.878675</hAcc><vAcc>0.648532</vAcc></extensions></trkpt>
      <trkpt lon="-3.035077" lat="52.710113"><ele>253.562653</ele><time>2022-01-15T13:37:18Z</time><extensions><speed>1.348014</speed><course>190.174744</course><hAcc>1.880656</hAcc><vAcc>0.649946</vAcc></extensions></trkpt>
      <trkpt lon="-3.035080" lat="52.710101"><ele>253.441559</ele><time>2022-01-15T13:37:19Z</time><extensions><speed>1.363497</speed><course>188.845764</course><hAcc>1.878435</hAcc><vAcc>0.652375</vAcc></extensions></trkpt>
      <trkpt lon="-3.035083" lat="52.710089"><ele>253.326019</ele><time>2022-01-15T13:37:20Z</time><extensions><speed>1.335347</speed><course>188.168121</course><hAcc>1.878366</hAcc><vAcc>0.655676</vAcc></extensions></trkpt>
      <trkpt lon="-3.035086" lat="52.710077"><ele>253.219711</ele><time>2022-01-15T13:37:21Z</time><extensions><speed>1.280968</speed><course>187.542679</course><hAcc>1.879966</hAcc><vAcc>0.659665</vAcc></extensions></trkpt>
      <trkpt lon="-3.035088" lat="52.710066"><ele>253.118134</ele><time>2022-01-15T13:37:22Z</time><extensions><speed>1.294359</speed><course>186.363846</course><hAcc>1.878580</hAcc><vAcc>0.664152</vAcc></extensions></trkpt>
      <trkpt lon="-3.035090" lat="52.710054"><ele>253.004684</ele><time>2022-01-15T13:37:23Z</time><extensions><speed>1.379460</speed><course>186.485687</course><hAcc>1.863610</hAcc><vAcc>0.668876</vAcc></extensions></trkpt>
      <trkpt lon="-3.035093" lat="52.710041"><ele>252.905014</ele><time>2022-01-15T13:37:24Z</time><extensions><speed>1.399109</speed><course>186.887939</course><hAcc>1.853001</hAcc><vAcc>0.673584</vAcc></extensions></trkpt>
      <trkpt lon="-3.035095" lat="52.710029"><ele>252.790955</ele><time>2022-01-15T13:37:25Z</time><extensions><speed>1.407596</speed><course>187.345398</course><hAcc>1.843077</hAcc><vAcc>0.678172</vAcc></extensions></trkpt>
      <trkpt lon="-3.035098" lat="52.710016"><ele>252.674988</ele><time>2022-01-15T13:37:26Z</time><extensions><speed>1.387053</speed><course>189.467987</course><hAcc>1.830735</hAcc><vAcc>0.682563</vAcc></extensions></trkpt>
      <trkpt lon="-3.035102" lat="52.710004"><ele>252.553833</ele><time>2022-01-15T13:37:27Z</time><extensions><speed>1.346502</speed><course>191.815018</course><hAcc>1.825735</hAcc><vAcc>0.686708</vAcc></extensions></trkpt>
      <trkpt lon="-3.035107" lat="52.709992"><ele>252.420990</ele><time>2022-01-15T13:37:28Z</time><extensions><speed>1.342057</speed><course>194.815002</course><hAcc>1.806817</hAcc><vAcc>0.690604</vAcc></extensions></trkpt>
      <trkpt lon="-3.035112" lat="52.709981"><ele>252.266022</ele><time>2022-01-15T13:37:29Z</time><extensions><speed>1.292054</speed><course>196.955185</course><hAcc>1.801290</hAcc><vAcc>0.694308</vAcc></extensions></trkpt>
      <trkpt lon="-3.035118" lat="52.709970"><ele>252.114258</ele><time>2022-01-15T13:37:30Z</time><extensions><speed>1.190465</speed><course>199.027496</course><hAcc>1.804214</hAcc><vAcc>0.697810</vAcc></extensions></trkpt>
      <trkpt lon="-3.035124" lat="52.709960"><ele>251.949966</ele><time>2022-01-15T13:37:31Z</time><extensions><speed>1.173841</speed><course>202.194519</course><hAcc>1.790278</hAcc><vAcc>0.701094</vAcc></extensions></trkpt>
      <trkpt lon="-3.035131" lat="52.709951"><ele>251.771088</ele><time>2022-01-15T13:37:32Z</time><extensions><speed>1.173176</speed><course>204.274368</course><hAcc>1.782434</hAcc><vAcc>0.704126</vAcc></extensions></trkpt>
      <trkpt lon="-3.035138" lat="52.709941"><ele>251.587204</ele><time>2022-01-15T13:37:33Z</time><extensions><speed>1.214512</speed><course>204.603256</course><hAcc>1.770870</hAcc><vAcc>0.706951</vAcc></extensions></trkpt>
      <trkpt lon="-3.035146" lat="52.709931"><ele>251.395218</ele><time>2022-01-15T13:37:34Z</time><extensions><speed>1.254959</speed><course>205.629288</course><hAcc>1.761472</hAcc><vAcc>0.709478</vAcc></extensions></trkpt>
      <trkpt lon="-3.035154" lat="52.709920"><ele>251.205399</ele><time>2022-01-15T13:37:35Z</time><extensions><speed>1.251728</speed><course>206.871658</course><hAcc>1.770314</hAcc><vAcc>0.711887</vAcc></extensions></trkpt>
      <trkpt lon="-3.035163" lat="52.709910"><ele>250.982376</ele><time>2022-01-15T13:37:36Z</time><extensions><speed>1.284030</speed><course>207.823593</course><hAcc>1.766855</hAcc><vAcc>0.714137</vAcc></extensions></trkpt>
      <trkpt lon="-3.035171" lat="52.709900"><ele>250.781448</ele><time>2022-01-15T13:37:37Z</time><extensions><speed>1.309333</speed><course>208.026489</course><hAcc>1.743688</hAcc><vAcc>0.716256</vAcc></extensions></trkpt>
      <trkpt lon="-3.035180" lat="52.709889"><ele>250.575867</ele><time>2022-01-15T13:37:38Z</time><extensions><speed>1.308783</speed><course>207.523621</course><hAcc>1.738714</hAcc><vAcc>0.718241</vAcc></extensions></trkpt>
      <trkpt lon="-3.035189" lat="52.709879"><ele>250.362488</ele><time>2022-01-15T13:37:39Z</time><extensions><speed>1.291116</speed><course>205.685043</course><hAcc>1.753854</hAcc><vAcc>0.720134</vAcc></extensions></trkpt>
      <trkpt lon="-3.035197" lat="52.709868"><ele>250.152817</ele><time>2022-01-15T13:37:40Z</time><extensions><speed>1.288980</speed><course>204.297989</course><hAcc>1.763858</hAcc><vAcc>0.721895</vAcc></extensions></trkpt>
      <trkpt lon="-3.035205" lat="52.709858"><ele>249.938248</ele><time>2022-01-15T13:37:41Z</time><extensions><speed>1.239609</speed><course>202.725739</course><hAcc>1.771381</hAcc><vAcc>0.723583</vAcc></extensions></trkpt>
      <trkpt lon="-3.035211" lat="52.709848"><ele>249.725220</ele><time>2022-01-15T13:37:42Z</time><extensions><speed>1.234135</speed><course>198.881973</course><hAcc>1.756087</hAcc><vAcc>0.725137</vAcc></extensions></trkpt>
      <trkpt lon="-3.035217" lat="52.709837"><ele>249.516754</ele><time>2022-01-15T13:37:43Z</time><extensions><speed>1.229220</speed><course>196.499512</course><hAcc>1.755311</hAcc><vAcc>0.726606</vAcc></extensions></trkpt>
      <trkpt lon="-3.035222" lat="52.709826"><ele>249.313126</ele><time>2022-01-15T13:37:44Z</time><extensions><speed>1.250561</speed><course>195.668335</course><hAcc>1.764444</hAcc><vAcc>0.727992</vAcc></extensions></trkpt>
      <trkpt lon="-3.035227" lat="52.709815"><ele>249.112915</ele><time>2022-01-15T13:37:45Z</time><extensions><speed>1.291179</speed><course>195.701431</course><hAcc>1.780114</hAcc><vAcc>0.729408</vAcc></extensions></trkpt>
      <trkpt lon="-3.035232" lat="52.709804"><ele>248.906128</ele><time>2022-01-15T13:37:46Z</time><extensions><speed>1.339755</speed><course>194.374939</course><hAcc>1.787385</hAcc><vAcc>0.730785</vAcc></extensions></trkpt>
      <trkpt lon="-3.035237" lat="52.709792"><ele>248.709396</ele><time>2022-01-15T13:37:47Z</time><extensions><speed>1.364432</speed><course>192.943817</course><hAcc>1.790447</hAcc><vAcc>0.732142</vAcc></extensions></trkpt>
      <trkpt lon="-3.035241" lat="52.709780"><ele>248.525345</ele><time>2022-01-15T13:37:48Z</time><extensions><speed>1.329709</speed><course>192.301788</course><hAcc>1.798970</hAcc><vAcc>0.733433</vAcc></extensions></trkpt>
      <trkpt lon="-3.035245" lat="52.709769"><ele>248.350128</ele><time>2022-01-15T13:37:49Z</time><extensions><speed>1.278017</speed><course>193.486664</course><hAcc>1.783125</hAcc><vAcc>0.734648</vAcc></extensions></trkpt>
      <trkpt lon="-3.035250" lat="52.709758"><ele>248.164490</ele><time>2022-01-15T13:37:50Z</time><extensions><speed>1.239803</speed><course>195.428757</course><hAcc>1.774708</hAcc><vAcc>0.735729</vAcc></extensions></trkpt>
      <trkpt lon="-3.035255" lat="52.709747"><ele>247.970840</ele><time>2022-01-15T13:37:51Z</time><extensions><speed>1.211296</speed><course>198.132996</course><hAcc>1.779864</hAcc><vAcc>0.736656</vAcc></extensions></trkpt>
      <trkpt lon="-3.035261" lat="52.709736"><ele>247.769012</ele><time>2022-01-15T13:37:52Z</time><extensions><speed>1.232610</speed><course>198.393051</course><hAcc>1.755905</hAcc><vAcc>0.737432</vAcc></extensions></trkpt>
      <trkpt lon="-3.035266" lat="52.709726"><ele>247.558517</ele><time>2022-01-15T13:37:53Z</time><extensions><speed>1.193008</speed><course>197.540466</course><hAcc>1.735134</hAcc><vAcc>0.738008</vAcc></extensions></trkpt>
      <trkpt lon="-3.035271" lat="52.709716"><ele>247.344437</ele><time>2022-01-15T13:37:54Z</time><extensions><speed>1.083886</speed><course>197.777176</course><hAcc>1.737626</hAcc><vAcc>0.738509</vAcc></extensions></trkpt>
      <trkpt lon="-3.035276" lat="52.709708"><ele>247.130905</ele><time>2022-01-15T13:37:55Z</time><extensions><speed>0.951575</speed><course>199.952362</course><hAcc>1.761873</hAcc><vAcc>0.738866</vAcc></extensions></trkpt>
      <trkpt lon="-3.035281" lat="52.709699"><ele>246.923553</ele><time>2022-01-15T13:37:56Z</time><extensions><speed>1.038873</speed><course>200.694092</course><hAcc>1.752143</hAcc><vAcc>0.739050</vAcc></extensions></trkpt>
      <trkpt lon="-3.035287" lat="52.709690"><ele>246.696869</ele><time>2022-01-15T13:37:57Z</time><extensions><speed>1.077433</speed><course>200.020767</course><hAcc>1.773322</hAcc><vAcc>0.739242</vAcc></extensions></trkpt>
      <trkpt lon="-3.035292" lat="52.709681"><ele>246.461349</ele><time>2022-01-15T13:37:58Z</time><extensions><speed>1.058755</speed><course>197.589294</course><hAcc>1.750356</hAcc><vAcc>0.739452</vAcc></extensions></trkpt>
      <trkpt lon="-3.035296" lat="52.709672"><ele>246.222824</ele><time>2022-01-15T13:37:59Z</time><extensions><speed>1.043892</speed><course>195.067551</course><hAcc>1.747045</hAcc><vAcc>0.739779</vAcc></extensions></trkpt>
      <trkpt lon="-3.035300" lat="52.709663"><ele>245.982040</ele><time>2022-01-15T13:38:00Z</time><extensions><speed>1.044754</speed><course>193.005997</course><hAcc>1.765077</hAcc><vAcc>0.740266</vAcc></extensions></trkpt>
      <trkpt lon="-3.035303" lat="52.709654"><ele>245.738281</ele><time>2022-01-15T13:38:01Z</time><extensions><speed>1.014372</speed><course>191.972488</course><hAcc>1.782105</hAcc><vAcc>0.740968</vAcc></extensions></trkpt>
      <trkpt lon="-3.035306" lat="52.709645"><ele>245.491470</ele><time>2022-01-15T13:38:02Z</time><extensions><speed>0.951215</speed><course>190.596283</course><hAcc>1.791618</hAcc><vAcc>0.741831</vAcc></extensions></trkpt>
      <trkpt lon="-3.035309" lat="52.709637"><ele>245.247574</ele><time>2022-01-15T13:38:03Z</time><extensions><speed>0.910787</speed><course>189.522491</course><hAcc>1.795398</hAcc><vAcc>0.742848</vAcc></extensions></trkpt>
      <trkpt lon="-3.035311" lat="52.709629"><ele>245.000168</ele><time>2022-01-15T13:38:04Z</time><extensions><speed>0.917980</speed><course>189.525742</course><hAcc>1.794708</hAcc><vAcc>0.743906</vAcc></extensions></trkpt>
      <trkpt lon="-3.035313" lat="52.709620"><ele>244.762863</ele><time>2022-01-15T13:38:05Z</time><extensions><speed>0.982836</speed><course>190.814423</course><hAcc>1.773650</hAcc><vAcc>0.745021</vAcc></extensions></trkpt>
      <trkpt lon="-3.035316" lat="52.709611"><ele>244.515152</ele><time>2022-01-15T13:38:06Z</time><extensions><speed>1.053757</speed><course>191.766632</course><hAcc>1.753321</hAcc><vAcc>0.746139</vAcc></extensions></trkpt>
      <trkpt lon="-3.035320" lat="52.709602"><ele>244.258301</ele><time>2022-01-15T13:38:07Z</time><extensions><speed>1.075570</speed><course>192.744171</course><hAcc>1.748600</hAcc><vAcc>0.747257</vAcc></extensions></trkpt>
      <trkpt lon="-3.035323" lat="52.709592"><ele>244.007339</ele><time>2022-01-15T13:38:08Z</time><extensions><speed>1.039234</speed><course>194.469193</course><hAcc>1.748971</hAcc><vAcc>0.748302</vAcc></extensions></trkpt>
      <trkpt lon="-3.035327" lat="52.709583"><ele>243.785339</ele><time>2022-01-15T13:38:09Z</time><extensions><speed>1.019207</speed><course>196.731216</course><hAcc>1.759168</hAcc><vAcc>0.749270</vAcc></extensions></trkpt>
      <trkpt lon="-3.035332" lat="52.709574"><ele>243.558182</ele><time>2022-01-15T13:38:10Z</time><extensions><speed>1.143604</speed><course>195.672363</course><hAcc>1.721498</hAcc><vAcc>0.750198</vAcc></extensions></trkpt>
      <trkpt lon="-3.035336" lat="52.709564"><ele>243.332443</ele><time>2022-01-15T13:38:11Z</time><extensions><speed>1.230571</speed><course>193.447159</course><hAcc>1.695757</hAcc><vAcc>0.751121</vAcc></extensions></trkpt>
      <trkpt lon="-3.035340" lat="52.709553"><ele>243.108841</ele><time>2022-01-15T13:38:12Z</time><extensions><speed>1.280470</speed><course>190.462570</course><hAcc>1.665998</hAcc><vAcc>0.751985</vAcc></extensions></trkpt>
      <trkpt lon="-3.035343" lat="52.709541"><ele>242.888931</ele><time>2022-01-15T13:38:13Z</time><extensions><speed>1.304664</speed><course>187.699646</course><hAcc>1.644712</hAcc><vAcc>0.752920</vAcc></extensions></trkpt>
      <trkpt lon="-3.035345" lat="52.709530"><ele>242.655746</ele><time>2022-01-15T13:38:14Z</time><extensions><speed>1.236446</speed><course>184.417725</course><hAcc>1.626043</hAcc><vAcc>0.753926</vAcc></extensions></trkpt>
      <trkpt lon="-3.035346" lat="52.709519"><ele>242.432556</ele><time>2022-01-15T13:38:15Z</time><extensions><speed>1.096471</speed><course>184.082657</course><hAcc>1.656931</hAcc><vAcc>0.755012</vAcc></extensions></trkpt>
      <trkpt lon="-3.035347" lat="52.709509"><ele>242.184036</ele><time>2022-01-15T13:38:16Z</time><extensions><speed>1.068744</speed><course>185.384933</course><hAcc>1.655903</hAcc><vAcc>0.756201</vAcc></extensions></trkpt>
      <trkpt lon="-3.035348" lat="52.709500"><ele>241.948090</ele><time>2022-01-15T13:38:17Z</time><extensions><speed>1.084498</speed><course>184.921432</course><hAcc>1.615151</hAcc><vAcc>0.757485</vAcc></extensions></trkpt>
      <trkpt lon="-3.035349" lat="52.709490"><ele>241.726791</ele><time>2022-01-15T13:38:18Z</time><extensions><speed>1.075679</speed><course>182.399933</course><hAcc>1.571467</hAcc><vAcc>0.758843</vAcc></extensions></trkpt>
      <trkpt lon="-3.035350" lat="52.709480"><ele>241.494553</ele><time>2022-01-15T13:38:19Z</time><extensions><speed>1.063844</speed><course>181.543961</course><hAcc>1.586022</hAcc><vAcc>0.760245</vAcc></extensions></trkpt>
      <trkpt lon="-3.035350" lat="52.709471"><ele>241.247986</ele><time>2022-01-15T13:38:20Z</time><extensions><speed>1.008250</speed><course>183.833588</course><hAcc>1.638882</hAcc><vAcc>0.761619</vAcc></extensions></trkpt>
      <trkpt lon="-3.035351" lat="52.709462"><ele>240.995422</ele><time>2022-01-15T13:38:21Z</time><extensions><speed>1.004117</speed><course>181.973526</course><hAcc>1.589052</hAcc><vAcc>0.762929</vAcc></extensions></trkpt>
      <trkpt lon="-3.035352" lat="52.709453"><ele>240.752579</ele><time>2022-01-15T13:38:22Z</time><extensions><speed>1.004034</speed><course>181.973053</course><hAcc>1.569335</hAcc><vAcc>0.764132</vAcc></extensions></trkpt>
      <trkpt lon="-3.035352" lat="52.709444"><ele>240.507553</ele><time>2022-01-15T13:38:23Z</time><extensions><speed>0.983526</speed><course>183.220276</course><hAcc>1.598818</hAcc><vAcc>0.765175</vAcc></extensions></trkpt>
      <trkpt lon="-3.035353" lat="52.709436"><ele>240.252930</ele><time>2022-01-15T13:38:24Z</time><extensions><speed>0.866526</speed><course>185.038742</course><hAcc>1.598998</hAcc><vAcc>0.766098</vAcc></extensions></trkpt>
      <trkpt lon="-3.035354" lat="52.709428"><ele>239.997055</ele><time>2022-01-15T13:38:25Z</time><extensions><speed>0.781660</speed><course>187.701050</course><hAcc>1.598618</hAcc><vAcc>0.766867</vAcc></extensions></trkpt>
      <trkpt lon="-3.035356" lat="52.709421"><ele>239.727356</ele><time>2022-01-15T13:38:26Z</time><extensions><speed>0.879385</speed><course>186.342316</course><hAcc>1.581812</hAcc><vAcc>0.767510</vAcc></extensions></trkpt>
      <trkpt lon="-3.035357" lat="52.709413"><ele>239.465393</ele><time>2022-01-15T13:38:27Z</time><extensions><speed>0.933706</speed><course>183.363358</course><hAcc>1.580769</hAcc><vAcc>0.767962</vAcc></extensions></trkpt>
      <trkpt lon="-3.035357" lat="52.709404"><ele>239.192627</ele><time>2022-01-15T13:38:28Z</time><extensions><speed>0.961386</speed><course>181.718018</course><hAcc>1.597419</hAcc><vAcc>0.768214</vAcc></extensions></trkpt>
      <trkpt lon="-3.035358" lat="52.709395"><ele>238.958572</ele><time>2022-01-15T13:38:29Z</time><extensions><speed>0.990631</speed><course>182.476715</course><hAcc>1.649732</hAcc><vAcc>0.768236</vAcc></extensions></trkpt>
      <trkpt lon="-3.035358" lat="52.709387"><ele>238.681900</ele><time>2022-01-15T13:38:30Z</time><extensions><speed>0.981703</speed><course>178.772171</course><hAcc>1.621158</hAcc><vAcc>0.767869</vAcc></extensions></trkpt>
      <trkpt lon="-3.035357" lat="52.709378"><ele>238.417801</ele><time>2022-01-15T13:38:31Z</time><extensions><speed>1.020776</speed><course>176.934616</course><hAcc>1.619414</hAcc><vAcc>0.766989</vAcc></extensions></trkpt>
      <trkpt lon="-3.035356" lat="52.709368"><ele>238.133453</ele><time>2022-01-15T13:38:32Z</time><extensions><speed>1.087895</speed><course>174.047470</course><hAcc>1.637516</hAcc><vAcc>0.765595</vAcc></extensions></trkpt>
      <trkpt lon="-3.035354" lat="52.709358"><ele>237.858246</ele><time>2022-01-15T13:38:33Z</time><extensions><speed>1.125457</speed><course>170.426819</course><hAcc>1.654884</hAcc><vAcc>0.763511</vAcc></extensions></trkpt>
      <trkpt lon="-3.035350" lat="52.709348"><ele>237.577057</ele><time>2022-01-15T13:38:34Z</time><extensions><speed>1.129176</speed><course>166.671204</course><hAcc>1.674893</hAcc><vAcc>0.761342</vAcc></extensions></trkpt>
      <trkpt lon="-3.035346" lat="52.709339"><ele>237.296631</ele><time>2022-01-15T13:38:35Z</time><extensions><speed>1.113971</speed><course>163.589981</course><hAcc>1.681048</hAcc><vAcc>0.758966</vAcc></extensions></trkpt>
      <trkpt lon="-3.035341" lat="52.709329"><ele>237.007675</ele><time>2022-01-15T13:38:36Z</time><extensions><speed>1.082321</speed><course>161.095078</course><hAcc>1.691684</hAcc><vAcc>0.756374</vAcc></extensions></trkpt>
      <trkpt lon="-3.035335" lat="52.709320"><ele>236.719345</ele><time>2022-01-15T13:38:37Z</time><extensions><speed>1.046108</speed><course>157.456787</course><hAcc>1.707757</hAcc><vAcc>0.753646</vAcc></extensions></trkpt>
      <trkpt lon="-3.035329" lat="52.709312"><ele>236.432373</ele><time>2022-01-15T13:38:38Z</time><extensions><speed>1.002643</speed><course>154.107971</course><hAcc>1.740003</hAcc><vAcc>0.750949</vAcc></extensions></trkpt>
      <trkpt lon="-3.035322" lat="52.709304"><ele>236.148636</ele><time>2022-01-15T13:38:39Z</time><extensions><speed>0.971980</speed><course>147.996429</course><hAcc>1.731463</hAcc><vAcc>0.748428</vAcc></extensions></trkpt>
      <trkpt lon="-3.035314" lat="52.709297"><ele>235.858704</ele><time>2022-01-15T13:38:40Z</time><extensions><speed>0.961140</speed><course>145.773834</course><hAcc>1.734055</hAcc><vAcc>0.746343</vAcc></extensions></trkpt>
      <trkpt lon="-3.035306" lat="52.709289"><ele>235.572067</ele><time>2022-01-15T13:38:41Z</time><extensions><speed>0.953335</speed><course>146.337738</course><hAcc>1.762013</hAcc><vAcc>0.744912</vAcc></extensions></trkpt>
      <trkpt lon="-3.035298" lat="52.709282"><ele>235.285599</ele><time>2022-01-15T13:38:42Z</time><extensions><speed>0.972704</speed><course>148.943481</course><hAcc>1.784995</hAcc><vAcc>0.744466</vAcc></extensions></trkpt>
      <trkpt lon="-3.035291" lat="52.709274"><ele>234.994812</ele><time>2022-01-15T13:38:43Z</time><extensions><speed>1.061449</speed><course>151.107071</course><hAcc>1.780799</hAcc><vAcc>0.745122</vAcc></extensions></trkpt>
      <trkpt lon="-3.035283" lat="52.709265"><ele>234.708847</ele><time>2022-01-15T13:38:44Z</time><extensions><speed>1.094452</speed><course>154.628143</course><hAcc>1.787867</hAcc><vAcc>0.746833</vAcc></extensions></trkpt>
      <trkpt lon="-3.035278" lat="52.709257"><ele>234.426514</ele><time>2022-01-15T13:38:45Z</time><extensions><speed>1.002477</speed><course>160.721054</course><hAcc>1.798686</hAcc><vAcc>0.749340</vAcc></extensions></trkpt>
      <trkpt lon="-3.035274" lat="52.709249"><ele>234.140808</ele><time>2022-01-15T13:38:46Z</time><extensions><speed>0.863226</speed><course>169.105118</course><hAcc>1.802342</hAcc><vAcc>0.752367</vAcc></extensions></trkpt>
      <trkpt lon="-3.035272" lat="52.709241"><ele>233.858887</ele><time>2022-01-15T13:38:47Z</time><extensions><speed>0.802585</speed><course>176.317642</course><hAcc>1.791108</hAcc><vAcc>0.755679</vAcc></extensions></trkpt>
      <trkpt lon="-3.035272" lat="52.709234"><ele>233.582016</ele><time>2022-01-15T13:38:48Z</time><extensions><speed>0.791988</speed><course>179.907150</course><hAcc>1.782115</hAcc><vAcc>0.759057</vAcc></extensions></trkpt>
      <trkpt lon="-3.035271" lat="52.709227"><ele>233.307968</ele><time>2022-01-15T13:38:49Z</time><extensions><speed>0.814721</speed><course>178.073074</course><hAcc>1.779922</hAcc><vAcc>0.762392</vAcc></extensions></trkpt>
      <trkpt lon="-3.035270" lat="52.709220"><ele>233.038208</ele><time>2022-01-15T13:38:50Z</time><extensions><speed>0.804212</speed><course>171.664230</course><hAcc>1.790461</hAcc><vAcc>0.765644</vAcc></extensions></trkpt>
      <trkpt lon="-3.035268" lat="52.709212"><ele>232.769531</ele><time>2022-01-15T13:38:51Z</time><extensions><speed>0.823064</speed><course>162.159286</course><hAcc>1.791453</hAcc><vAcc>0.768783</vAcc></extensions></trkpt>
      <trkpt lon="-3.035263" lat="52.709206"><ele>232.509506</ele><time>2022-01-15T13:38:52Z</time><extensions><speed>0.829072</speed><course>151.689423</course><hAcc>1.784691</hAcc><vAcc>0.771821</vAcc></extensions></trkpt>
      <trkpt lon="-3.035256" lat="52.709199"><ele>232.259048</ele><time>2022-01-15T13:38:53Z</time><extensions><speed>0.813713</speed><course>144.943665</course><hAcc>1.781421</hAcc><vAcc>0.774661</vAcc></extensions></trkpt>
      <trkpt lon="-3.035249" lat="52.709194"><ele>232.011856</ele><time>2022-01-15T13:38:54Z</time><extensions><speed>0.846222</speed><course>138.534363</course><hAcc>1.769470</hAcc><vAcc>0.777286</vAcc></extensions></trkpt>
      <trkpt lon="-3.035240" lat="52.709188"><ele>231.773514</ele><time>2022-01-15T13:38:55Z</time><extensions><speed>0.889071</speed><course>135.524429</course><hAcc>1.767130</hAcc><vAcc>0.779545</vAcc></extensions></trkpt>
      <trkpt lon="-3.035230" lat="52.709182"><ele>231.542374</ele><time>2022-01-15T13:38:56Z</time><extensions><speed>0.912431</speed><course>133.388153</course><hAcc>1.767046</hAcc><vAcc>0.781496</vAcc></extensions></trkpt>
      <trkpt lon="-3.035220" lat="52.709177"><ele>231.310196</ele><time>2022-01-15T13:38:57Z</time><extensions><speed>0.904677</speed><course>131.426208</course><hAcc>1.761825</hAcc><vAcc>0.782967</vAcc></extensions></trkpt>
      <trkpt lon="-3.035210" lat="52.709171"><ele>231.091873</ele><time>2022-01-15T13:38:58Z</time><extensions><speed>0.856093</speed><course>129.421951</course><hAcc>1.753633</hAcc><vAcc>0.783856</vAcc></extensions></trkpt>
      <trkpt lon="-3.035201" lat="52.709167"><ele>230.872589</ele><time>2022-01-15T13:38:59Z</time><extensions><speed>0.779241</speed><course>127.748985</course><hAcc>1.744230</hAcc><vAcc>0.784056</vAcc></extensions></trkpt>
      <trkpt lon="-3.035193" lat="52.709163"><ele>230.686630</ele><time>2022-01-15T13:39:00Z</time><extensions><speed>0.615768</speed><course>126.273766</course><hAcc>1.736470</hAcc><vAcc>0.783516</vAcc></extensions></trkpt>
      <trkpt lon="-3.035186" lat="52.709160"><ele>230.461487</ele><time>2022-01-15T13:39:01Z</time><extensions><speed>0.431901</speed><course>124.205956</course><hAcc>1.741171</hAcc><vAcc>0.782177</vAcc></extensions></trkpt>
      <trkpt lon="-3.035182" lat="52.709159"><ele>230.262787</ele><time>2022-01-15T13:39:02Z</time><extensions><speed>0.225711</speed><course>122.161880</course><hAcc>1.772625</hAcc><vAcc>0.779909</vAcc></extensions></trkpt>
      <trkpt lon="-3.035179" lat="52.709157"><ele>230.072739</ele><time>2022-01-15T13:39:03Z</time><extensions><speed>0.227290</speed><course>128.871460</course><hAcc>1.767861</hAcc><vAcc>0.776931</vAcc></extensions></trkpt>
      <trkpt lon="-3.035176" lat="52.709156"><ele>229.883362</ele><time>2022-01-15T13:39:04Z</time><extensions><speed>0.337700</speed><course>137.824524</course><hAcc>1.752213</hAcc><vAcc>0.773267</vAcc></extensions></trkpt>
      <trkpt lon="-3.035173" lat="52.709154"><ele>229.696335</ele><time>2022-01-15T13:39:05Z</time><extensions><speed>0.330376</speed><course>132.536469</course><hAcc>1.774760</hAcc><vAcc>0.768929</vAcc></extensions></trkpt>
      <trkpt lon="-3.035169" lat="52.709151"><ele>229.509659</ele><time>2022-01-15T13:39:06Z</time><extensions><speed>0.379927</speed><course>132.437103</course><hAcc>1.804475</hAcc><vAcc>0.764156</vAcc></extensions></trkpt>
      <trkpt lon="-3.035164" lat="52.709149"><ele>229.323700</ele><time>2022-01-15T13:39:07Z</time><extensions><speed>0.505337</speed><course>135.401596</course><hAcc>1.820879</hAcc><vAcc>0.759046</vAcc></extensions></trkpt>
      <trkpt lon="-3.035158" lat="52.709144"><ele>229.122147</ele><time>2022-01-15T13:39:08Z</time><extensions><speed>0.745834</speed><course>138.958054</course><hAcc>1.823061</hAcc><vAcc>0.753778</vAcc></extensions></trkpt>
      <trkpt lon="-3.035150" lat="52.709139"><ele>228.917343</ele><time>2022-01-15T13:39:09Z</time><extensions><speed>0.843914</speed><course>139.488098</course><hAcc>1.840135</hAcc><vAcc>0.748647</vAcc></extensions></trkpt>
      <trkpt lon="-3.035142" lat="52.709133"><ele>228.732635</ele><time>2022-01-15T13:39:10Z</time><extensions><speed>0.859565</speed><course>138.801682</course><hAcc>1.866884</hAcc><vAcc>0.743959</vAcc></extensions></trkpt>
      <trkpt lon="-3.035134" lat="52.709128"><ele>228.523468</ele><time>2022-01-15T13:39:11Z</time><extensions><speed>0.758170</speed><course>138.872925</course><hAcc>1.895188</hAcc><vAcc>0.740008</vAcc></extensions></trkpt>
      <trkpt lon="-3.035126" lat="52.709122"><ele>228.295288</ele><time>2022-01-15T13:39:12Z</time><extensions><speed>0.945550</speed><course>140.942917</course><hAcc>1.887671</hAcc><vAcc>0.737027</vAcc></extensions></trkpt>
      <trkpt lon="-3.035117" lat="52.709115"><ele>228.068344</ele><time>2022-01-15T13:39:13Z</time><extensions><speed>1.020566</speed><course>143.276627</course><hAcc>1.881243</hAcc><vAcc>0.735236</vAcc></extensions></trkpt>
      <trkpt lon="-3.035108" lat="52.709107"><ele>227.822754</ele><time>2022-01-15T13:39:14Z</time><extensions><speed>1.000156</speed><course>143.970291</course><hAcc>1.871506</hAcc><vAcc>0.734664</vAcc></extensions></trkpt>
      <trkpt lon="-3.035099" lat="52.709100"><ele>227.578308</ele><time>2022-01-15T13:39:15Z</time><extensions><speed>0.962627</speed><course>145.195892</course><hAcc>1.864211</hAcc><vAcc>0.735242</vAcc></extensions></trkpt>
      <trkpt lon="-3.035091" lat="52.709093"><ele>227.290344</ele><time>2022-01-15T13:39:16Z</time><extensions><speed>0.940773</speed><course>146.710281</course><hAcc>1.862017</hAcc><vAcc>0.736789</vAcc></extensions></trkpt>
      <trkpt lon="-3.035084" lat="52.709086"><ele>227.018616</ele><time>2022-01-15T13:39:17Z</time><extensions><speed>0.911520</speed><course>147.640427</course><hAcc>1.852472</hAcc><vAcc>0.739129</vAcc></extensions></trkpt>
      <trkpt lon="-3.035077" lat="52.709079"><ele>226.727249</ele><time>2022-01-15T13:39:18Z</time><extensions><speed>0.881699</speed><course>147.046875</course><hAcc>1.846747</hAcc><vAcc>0.742053</vAcc></extensions></trkpt>
      <trkpt lon="-3.035069" lat="52.709073"><ele>226.447220</ele><time>2022-01-15T13:39:19Z</time><extensions><speed>0.931230</speed><course>143.903183</course><hAcc>1.827407</hAcc><vAcc>0.745266</vAcc></extensions></trkpt>
      <trkpt lon="-3.035060" lat="52.709066"><ele>226.166153</ele><time>2022-01-15T13:39:20Z</time><extensions><speed>0.988001</speed><course>140.672806</course><hAcc>1.809231</hAcc><vAcc>0.748410</vAcc></extensions></trkpt>
      <trkpt lon="-3.035051" lat="52.709059"><ele>225.850723</ele><time>2022-01-15T13:39:21Z</time><extensions><speed>0.943165</speed><course>139.392212</course><hAcc>1.813924</hAcc><vAcc>0.751401</vAcc></extensions></trkpt>
      <trkpt lon="-3.035042" lat="52.709052"><ele>225.555084</ele><time>2022-01-15T13:39:22Z</time><extensions><speed>0.952009</speed><course>140.326080</course><hAcc>1.813742</hAcc><vAcc>0.754043</vAcc></extensions></trkpt>
      <trkpt lon="-3.035033" lat="52.709046"><ele>225.220016</ele><time>2022-01-15T13:39:23Z</time><extensions><speed>0.979002</speed><course>142.230988</course><hAcc>1.802626</hAcc><vAcc>0.756299</vAcc></extensions></trkpt>
      <trkpt lon="-3.035024" lat="52.709039"><ele>224.902084</ele><time>2022-01-15T13:39:24Z</time><extensions><speed>0.958537</speed><course>143.882233</course><hAcc>1.792517</hAcc><vAcc>0.758019</vAcc></extensions></trkpt>
      <trkpt lon="-3.035016" lat="52.709032"><ele>224.572540</ele><time>2022-01-15T13:39:25Z</time><extensions><speed>0.893892</speed><course>144.068832</course><hAcc>1.782264</hAcc><vAcc>0.759113</vAcc></extensions></trkpt>
      <trkpt lon="-3.035008" lat="52.709026"><ele>224.267075</ele><time>2022-01-15T13:39:26Z</time><extensions><speed>0.795321</speed><course>143.473129</course><hAcc>1.770713</hAcc><vAcc>0.759610</vAcc></extensions></trkpt>
      <trkpt lon="-3.035001" lat="52.709020"><ele>223.968857</ele><time>2022-01-15T13:39:27Z</time><extensions><speed>0.720112</speed><course>139.578293</course><hAcc>1.752115</hAcc><vAcc>0.759635</vAcc></extensions></trkpt>
      <trkpt lon="-3.034995" lat="52.709016"><ele>223.679703</ele><time>2022-01-15T13:39:28Z</time><extensions><speed>0.579728</speed><course>136.622513</course><hAcc>1.764913</hAcc><vAcc>0.759251</vAcc></extensions></trkpt>
      <trkpt lon="-3.034990" lat="52.709013"><ele>223.374008</ele><time>2022-01-15T13:39:29Z</time><extensions><speed>0.407673</speed><course>132.818405</course><hAcc>1.800678</hAcc><vAcc>0.758463</vAcc></extensions></trkpt>
      <trkpt lon="-3.034985" lat="52.709010"><ele>223.062973</ele><time>2022-01-15T13:39:30Z</time><extensions><speed>0.450017</speed><course>133.282623</course><hAcc>1.798532</hAcc><vAcc>0.757435</vAcc></extensions></trkpt>
      <trkpt lon="-3.034979" lat="52.709006"><ele>222.750153</ele><time>2022-01-15T13:39:31Z</time><extensions><speed>0.662382</speed><course>135.195236</course><hAcc>1.764240</hAcc><vAcc>0.756319</vAcc></extensions></trkpt>
      <trkpt lon="-3.034971" lat="52.709001"><ele>222.450653</ele><time>2022-01-15T13:39:32Z</time><extensions><speed>0.830584</speed><course>137.010010</course><hAcc>1.755231</hAcc><vAcc>0.755177</vAcc></extensions></trkpt>
      <trkpt lon="-3.034963" lat="52.708996"><ele>222.187500</ele><time>2022-01-15T13:39:33Z</time><extensions><speed>0.756601</speed><course>136.816360</course><hAcc>1.775601</hAcc><vAcc>0.754227</vAcc></extensions></trkpt>
      <trkpt lon="-3.034955" lat="52.708991"><ele>221.868393</ele><time>2022-01-15T13:39:34Z</time><extensions><speed>0.749214</speed><course>137.506638</course><hAcc>1.788089</hAcc><vAcc>0.753441</vAcc></extensions></trkpt>
      <trkpt lon="-3.034949" lat="52.708986"><ele>221.582016</ele><time>2022-01-15T13:39:35Z</time><extensions><speed>0.658458</speed><course>141.003418</course><hAcc>1.794761</hAcc><vAcc>0.752838</vAcc></extensions></trkpt>
      <trkpt lon="-3.034943" lat="52.708982"><ele>221.288849</ele><time>2022-01-15T13:39:36Z</time><extensions><speed>0.550705</speed><course>145.123001</course><hAcc>1.805638</hAcc><vAcc>0.752457</vAcc></extensions></trkpt>
      <trkpt lon="-3.034938" lat="52.708977"><ele>221.029892</ele><time>2022-01-15T13:39:37Z</time><extensions><speed>0.591877</speed><course>148.850021</course><hAcc>1.786635</hAcc><vAcc>0.752277</vAcc></extensions></trkpt>
      <trkpt lon="-3.034934" lat="52.708973"><ele>220.768204</ele><time>2022-01-15T13:39:38Z</time><extensions><speed>0.608735</speed><course>151.454208</course><hAcc>1.776651</hAcc><vAcc>0.752193</vAcc></extensions></trkpt>
      <trkpt lon="-3.034930" lat="52.708968"><ele>220.515839</ele><time>2022-01-15T13:39:39Z</time><extensions><speed>0.571981</speed><course>152.970123</course><hAcc>1.787265</hAcc><vAcc>0.752164</vAcc></extensions></trkpt>
      <trkpt lon="-3.034926" lat="52.708963"><ele>220.260971</ele><time>2022-01-15T13:39:40Z</time><extensions><speed>0.584391</speed><course>154.125290</course><hAcc>1.791607</hAcc><vAcc>0.752104</vAcc></extensions></trkpt>
      <trkpt lon="-3.034922" lat="52.708958"><ele>219.995621</ele><time>2022-01-15T13:39:41Z</time><extensions><speed>0.631523</speed><course>155.846436</course><hAcc>1.787504</hAcc><vAcc>0.751958</vAcc></extensions></trkpt>
      <trkpt lon="-3.034918" lat="52.708952"><ele>219.742645</ele><time>2022-01-15T13:39:42Z</time><extensions><speed>0.759999</speed><course>157.959366</course><hAcc>1.772488</hAcc><vAcc>0.751680</vAcc></extensions></trkpt>
      <trkpt lon="-3.034914" lat="52.708946"><ele>219.495178</ele><time>2022-01-15T13:39:43Z</time><extensions><speed>0.770199</speed><course>157.786880</course><hAcc>1.768176</hAcc><vAcc>0.751256</vAcc></extensions></trkpt>
      <trkpt lon="-3.034909" lat="52.708940"><ele>219.234451</ele><time>2022-01-15T13:39:44Z</time><extensions><speed>0.593392</speed><course>154.141541</course><hAcc>1.792514</hAcc><vAcc>0.750631</vAcc></extensions></trkpt>
      <trkpt lon="-3.034906" lat="52.708936"><ele>218.979782</ele><time>2022-01-15T13:39:45Z</time><extensions><speed>0.487789</speed><course>151.746521</course><hAcc>1.815781</hAcc><vAcc>0.749767</vAcc></extensions></trkpt>
      <trkpt lon="-3.034902" lat="52.708931"><ele>218.739349</ele><time>2022-01-15T13:39:46Z</time><extensions><speed>0.640560</speed><course>152.337997</course><hAcc>1.787424</hAcc><vAcc>0.748715</vAcc></extensions></trkpt>
      <trkpt lon="-3.034897" lat="52.708926"><ele>218.480057</ele><time>2022-01-15T13:39:47Z</time><extensions><speed>0.628829</speed><course>149.740250</course><hAcc>1.775501</hAcc><vAcc>0.747495</vAcc></extensions></trkpt>
      <trkpt lon="-3.034893" lat="52.708922"><ele>218.272827</ele><time>2022-01-15T13:39:48Z</time><extensions><speed>0.472624</speed><course>144.187057</course><hAcc>1.792178</hAcc><vAcc>0.746143</vAcc></extensions></trkpt>
      <trkpt lon="-3.034889" lat="52.708919"><ele>218.042572</ele><time>2022-01-15T13:39:49Z</time><extensions><speed>0.414452</speed><course>141.617676</course><hAcc>1.796979</hAcc><vAcc>0.744694</vAcc></extensions></trkpt>
      <trkpt lon="-3.034885" lat="52.708916"><ele>217.803818</ele><time>2022-01-15T13:39:50Z</time><extensions><speed>0.396852</speed><course>142.420425</course><hAcc>1.797368</hAcc><vAcc>0.743228</vAcc></extensions></trkpt>
      <trkpt lon="-3.034882" lat="52.708913"><ele>217.591736</ele><time>2022-01-15T13:39:51Z</time><extensions><speed>0.423086</speed><course>145.000854</course><hAcc>1.797914</hAcc><vAcc>0.741755</vAcc></extensions></trkpt>
      <trkpt lon="-3.034878" lat="52.708909"><ele>217.386093</ele><time>2022-01-15T13:39:52Z</time><extensions><speed>0.479374</speed><course>148.558105</course><hAcc>1.795304</hAcc><vAcc>0.740314</vAcc></extensions></trkpt>
      <trkpt lon="-3.034874" lat="52.708905"><ele>217.193466</ele><time>2022-01-15T13:39:53Z</time><extensions><speed>0.527493</speed><course>153.436447</course><hAcc>1.792719</hAcc><vAcc>0.738995</vAcc></extensions></trkpt>
      <trkpt lon="-3.034871" lat="52.708900"><ele>216.985153</ele><time>2022-01-15T13:39:54Z</time><extensions><speed>0.565059</speed><course>159.169342</course><hAcc>1.790548</hAcc><vAcc>0.737715</vAcc></extensions></trkpt>
      <trkpt lon="-3.034868" lat="52.708895"><ele>216.772446</ele><time>2022-01-15T13:39:55Z</time><extensions><speed>0.602446</speed><course>164.644455</course><hAcc>1.784337</hAcc><vAcc>0.736533</vAcc></extensions></trkpt>
      <trkpt lon="-3.034866" lat="52.708890"><ele>216.551041</ele><time>2022-01-15T13:39:56Z</time><extensions><speed>0.626405</speed><course>168.756790</course><hAcc>1.773794</hAcc><vAcc>0.735628</vAcc></extensions></trkpt>
      <trkpt lon="-3.034864" lat="52.708884"><ele>216.339844</ele><time>2022-01-15T13:39:57Z</time><extensions><speed>0.647293</speed><course>170.656372</course><hAcc>1.758714</hAcc><vAcc>0.734977</vAcc></extensions></trkpt>
      <trkpt lon="-3.034863" lat="52.708878"><ele>216.135635</ele><time>2022-01-15T13:39:58Z</time><extensions><speed>0.624932</speed><course>170.706390</course><hAcc>1.765313</hAcc><vAcc>0.734634</vAcc></extensions></trkpt>
      <trkpt lon="-3.034861" lat="52.708874"><ele>215.913605</ele><time>2022-01-15T13:39:59Z</time><extensions><speed>0.409637</speed><course>168.816483</course><hAcc>1.816944</hAcc><vAcc>0.734643</vAcc></extensions></trkpt>
      <trkpt lon="-3.034860" lat="52.708870"><ele>215.678940</ele><time>2022-01-15T13:40:00Z</time><extensions><speed>0.458808</speed><course>165.386307</course><hAcc>1.810963</hAcc><vAcc>0.734915</vAcc></extensions></trkpt>
      <trkpt lon="-3.034857" lat="52.708865"><ele>215.448944</ele><time>2022-01-15T13:40:01Z</time><extensions><speed>0.731112</speed><course>163.511169</course><hAcc>1.757109</hAcc><vAcc>0.735397</vAcc></extensions></trkpt>
      <trkpt lon="-3.034854" lat="52.708858"><ele>215.223312</ele><time>2022-01-15T13:40:02Z</time><extensions><speed>0.852501</speed><course>163.087891</course><hAcc>1.747034</hAcc><vAcc>0.735892</vAcc></extensions></trkpt>
      <trkpt lon="-3.034850" lat="52.708851"><ele>214.958511</ele><time>2022-01-15T13:40:03Z</time><extensions><speed>0.763644</speed><course>163.705750</course><hAcc>1.781935</hAcc><vAcc>0.736046</vAcc></extensions></trkpt>
      <trkpt lon="-3.034848" lat="52.708845"><ele>214.712906</ele><time>2022-01-15T13:40:04Z</time><extensions><speed>0.518420</speed><course>162.895538</course><hAcc>1.825619</hAcc><vAcc>0.735633</vAcc></extensions></trkpt>
      <trkpt lon="-3.034845" lat="52.708841"><ele>214.462646</ele><time>2022-01-15T13:40:05Z</time><extensions><speed>0.554824</speed><course>160.204773</course><hAcc>1.813385</hAcc><vAcc>0.734496</vAcc></extensions></trkpt>
      <trkpt lon="-3.034842" lat="52.708836"><ele>214.221954</ele><time>2022-01-15T13:40:06Z</time><extensions><speed>0.583311</speed><course>156.295837</course><hAcc>1.806037</hAcc><vAcc>0.732372</vAcc></extensions></trkpt>
      <trkpt lon="-3.034838" lat="52.708831"><ele>213.984039</ele><time>2022-01-15T13:40:07Z</time><extensions><speed>0.641165</speed><course>151.805267</course><hAcc>1.808064</hAcc><vAcc>0.729227</vAcc></extensions></trkpt>
      <trkpt lon="-3.034832" lat="52.708826"><ele>213.738998</ele><time>2022-01-15T13:40:08Z</time><extensions><speed>0.730571</speed><course>148.298431</course><hAcc>1.815410</hAcc><vAcc>0.724769</vAcc></extensions></trkpt>
      <trkpt lon="-3.034826" lat="52.708820"><ele>213.515274</ele><time>2022-01-15T13:40:09Z</time><extensions><speed>0.879084</speed><course>147.245636</course><hAcc>1.825338</hAcc><vAcc>0.718930</vAcc></extensions></trkpt>
      <trkpt lon="-3.034818" lat="52.708813"><ele>213.290024</ele><time>2022-01-15T13:40:10Z</time><extensions><speed>0.875254</speed><course>137.018982</course><hAcc>1.830163</hAcc><vAcc>0.711798</vAcc></extensions></trkpt>
      <trkpt lon="-3.034808" lat="52.708808"><ele>213.079605</ele><time>2022-01-15T13:40:11Z</time><extensions><speed>0.785141</speed><course>124.929512</course><hAcc>1.837836</hAcc><vAcc>0.703459</vAcc></extensions></trkpt>
      <trkpt lon="-3.034799" lat="52.708805"><ele>212.883209</ele><time>2022-01-15T13:40:12Z</time><extensions><speed>0.562297</speed><course>107.374420</course><hAcc>1.861516</hAcc><vAcc>0.694214</vAcc></extensions></trkpt>
      <trkpt lon="-3.034791" lat="52.708804"><ele>212.694153</ele><time>2022-01-15T13:40:13Z</time><extensions><speed>0.519786</speed><course>94.151283</course><hAcc>1.884804</hAcc><vAcc>0.684552</vAcc></extensions></trkpt>
      <trkpt lon="-3.034784" lat="52.708804"><ele>212.520645</ele><time>2022-01-15T13:40:14Z</time><extensions><speed>0.542681</speed><course>88.628548</course><hAcc>1.907010</hAcc><vAcc>0.675082</vAcc></extensions></trkpt>
      <trkpt lon="-3.034775" lat="52.708805"><ele>212.359940</ele><time>2022-01-15T13:40:15Z</time><extensions><speed>0.577549</speed><course>88.649628</course><hAcc>1.930372</hAcc><vAcc>0.666349</vAcc></extensions></trkpt>
      <trkpt lon="-3.034767" lat="52.708805"><ele>212.212189</ele><time>2022-01-15T13:40:16Z</time><extensions><speed>0.593970</speed><course>92.068382</course><hAcc>1.954441</hAcc><vAcc>0.658958</vAcc></extensions></trkpt>
      <trkpt lon="-3.034758" lat="52.708804"><ele>212.072342</ele><time>2022-01-15T13:40:17Z</time><extensions><speed>0.599552</speed><course>97.480263</course><hAcc>1.971998</hAcc><vAcc>0.653259</vAcc></extensions></trkpt>
      <trkpt lon="-3.034749" lat="52.708803"><ele>211.944351</ele><time>2022-01-15T13:40:18Z</time><extensions><speed>0.587190</speed><course>103.504929</course><hAcc>1.981462</hAcc><vAcc>0.649352</vAcc></extensions></trkpt>
      <trkpt lon="-3.034741" lat="52.708802"><ele>211.827240</ele><time>2022-01-15T13:40:19Z</time><extensions><speed>0.551965</speed><course>108.604408</course><hAcc>1.984302</hAcc><vAcc>0.646991</vAcc></extensions></trkpt>
      <trkpt lon="-3.034735" lat="52.708800"><ele>211.727661</ele><time>2022-01-15T13:40:20Z</time><extensions><speed>0.440187</speed><course>110.886002</course><hAcc>1.988309</hAcc><vAcc>0.645533</vAcc></extensions></trkpt>
      <trkpt lon="-3.034729" lat="52.708799"><ele>211.639526</ele><time>2022-01-15T13:40:21Z</time><extensions><speed>0.322529</speed><course>107.671753</course><hAcc>1.974805</hAcc><vAcc>0.644212</vAcc></extensions></trkpt>
      <trkpt lon="-3.034726" lat="52.708799"><ele>211.563858</ele><time>2022-01-15T13:40:22Z</time><extensions><speed>0.188211</speed><course>92.965469</course><hAcc>1.953947</hAcc><vAcc>0.642232</vAcc></extensions></trkpt>
      <trkpt lon="-3.034724" lat="52.708799"><ele>211.500122</ele><time>2022-01-15T13:40:23Z</time><extensions><speed>0.098221</speed><course>37.173527</course><hAcc>1.937441</hAcc><vAcc>0.638992</vAcc></extensions></trkpt>
      <trkpt lon="-3.034724" lat="52.708801"><ele>211.447418</ele><time>2022-01-15T13:40:24Z</time><extensions><speed>0.152798</speed><course>341.140594</course><hAcc>1.907232</hAcc><vAcc>0.634104</vAcc></extensions></trkpt>
      <trkpt lon="-3.034726" lat="52.708802"><ele>211.409317</ele><time>2022-01-15T13:40:25Z</time><extensions><speed>0.229289</speed><course>324.112579</course><hAcc>1.871913</hAcc><vAcc>0.627399</vAcc></extensions></trkpt>
      <trkpt lon="-3.034728" lat="52.708804"><ele>211.386444</ele><time>2022-01-15T13:40:26Z</time><extensions><speed>0.260360</speed><course>317.839478</course><hAcc>1.853997</hAcc><vAcc>0.618844</vAcc></extensions></trkpt>
      <trkpt lon="-3.034731" lat="52.708806"><ele>211.377991</ele><time>2022-01-15T13:40:27Z</time><extensions><speed>0.266137</speed><course>316.649872</course><hAcc>1.851637</hAcc><vAcc>0.608441</vAcc></extensions></trkpt>
      <trkpt lon="-3.034733" lat="52.708808"><ele>211.391281</ele><time>2022-01-15T13:40:28Z</time><extensions><speed>0.234952</speed><course>318.597015</course><hAcc>1.871832</hAcc><vAcc>0.596312</vAcc></extensions></trkpt>
      <trkpt lon="-3.034735" lat="52.708810"><ele>211.423615</ele><time>2022-01-15T13:40:29Z</time><extensions><speed>0.229354</speed><course>323.420685</course><hAcc>1.885591</hAcc><vAcc>0.582777</vAcc></extensions></trkpt>
      <trkpt lon="-3.034737" lat="52.708812"><ele>211.472458</ele><time>2022-01-15T13:40:30Z</time><extensions><speed>0.381611</speed><course>329.756134</course><hAcc>1.854400</hAcc><vAcc>0.568489</vAcc></extensions></trkpt>
      <trkpt lon="-3.034740" lat="52.708815"><ele>211.530716</ele><time>2022-01-15T13:40:31Z</time><extensions><speed>0.436258</speed><course>337.153107</course><hAcc>1.868016</hAcc><vAcc>0.554293</vAcc></extensions></trkpt>
      <trkpt lon="-3.034742" lat="52.708819"><ele>211.599716</ele><time>2022-01-15T13:40:32Z</time><extensions><speed>0.464098</speed><course>346.559692</course><hAcc>1.912044</hAcc><vAcc>0.541143</vAcc></extensions></trkpt>
      <trkpt lon="-3.034743" lat="52.708823"><ele>211.664917</ele><time>2022-01-15T13:40:33Z</time><extensions><speed>0.474511</speed><course>357.118439</course><hAcc>1.958115</hAcc><vAcc>0.529925</vAcc></extensions></trkpt>
      <trkpt lon="-3.034742" lat="52.708827"><ele>211.731659</ele><time>2022-01-15T13:40:34Z</time><extensions><speed>0.470809</speed><course>8.991697</course><hAcc>1.994002</hAcc><vAcc>0.521339</vAcc></extensions></trkpt>
      <trkpt lon="-3.034740" lat="52.708831"><ele>211.796921</ele><time>2022-01-15T13:40:35Z</time><extensions><speed>0.444982</speed><course>22.920197</course><hAcc>2.021065</hAcc><vAcc>0.515973</vAcc></extensions></trkpt>
      <trkpt lon="-3.034737" lat="52.708835"><ele>211.857544</ele><time>2022-01-15T13:40:36Z</time><extensions><speed>0.422989</speed><course>39.103268</course><hAcc>2.036308</hAcc><vAcc>0.514293</vAcc></extensions></trkpt>
      <trkpt lon="-3.034732" lat="52.708837"><ele>211.912872</ele><time>2022-01-15T13:40:37Z</time><extensions><speed>0.434783</speed><course>57.123329</course><hAcc>2.039744</hAcc><vAcc>0.516253</vAcc></extensions></trkpt>
      <trkpt lon="-3.034725" lat="52.708839"><ele>211.957809</ele><time>2022-01-15T13:40:38Z</time><extensions><speed>0.472570</speed><course>73.967705</course><hAcc>2.044208</hAcc><vAcc>0.520912</vAcc></extensions></trkpt>
      <trkpt lon="-3.034718" lat="52.708840"><ele>211.988678</ele><time>2022-01-15T13:40:39Z</time><extensions><speed>0.558392</speed><course>85.538696</course><hAcc>2.049238</hAcc><vAcc>0.526655</vAcc></extensions></trkpt>
      <trkpt lon="-3.034709" lat="52.708840"><ele>212.001709</ele><time>2022-01-15T13:40:40Z</time><extensions><speed>0.665098</speed><course>91.987984</course><hAcc>2.060869</hAcc><vAcc>0.531955</vAcc></extensions></trkpt>
      <trkpt lon="-3.034698" lat="52.708839"><ele>211.995422</ele><time>2022-01-15T13:40:41Z</time><extensions><speed>0.803477</speed><course>95.009071</course><hAcc>2.075087</hAcc><vAcc>0.535880</vAcc></extensions></trkpt>
      <trkpt lon="-3.034684" lat="52.708838"><ele>211.970505</ele><time>2022-01-15T13:40:42Z</time><extensions><speed>1.008849</speed><course>96.621071</course><hAcc>2.079738</hAcc><vAcc>0.538186</vAcc></extensions></trkpt>
      <trkpt lon="-3.034667" lat="52.708837"><ele>211.927841</ele><time>2022-01-15T13:40:43Z</time><extensions><speed>1.351806</speed><course>98.055626</course><hAcc>2.069810</hAcc><vAcc>0.539191</vAcc></extensions></trkpt>
      <trkpt lon="-3.034646" lat="52.708835"><ele>211.866318</ele><time>2022-01-15T13:40:44Z</time><extensions><speed>1.526089</speed><course>98.647934</course><hAcc>2.074717</hAcc><vAcc>0.539538</vAcc></extensions></trkpt>
      <trkpt lon="-3.034623" lat="52.708833"><ele>211.784210</ele><time>2022-01-15T13:40:45Z</time><extensions><speed>1.577281</speed><course>98.652328</course><hAcc>2.084472</hAcc><vAcc>0.539944</vAcc></extensions></trkpt>
      <trkpt lon="-3.034599" lat="52.708831"><ele>211.680206</ele><time>2022-01-15T13:40:46Z</time><extensions><speed>1.627230</speed><course>98.030464</course><hAcc>2.080966</hAcc><vAcc>0.541119</vAcc></extensions></trkpt>
      <trkpt lon="-3.034575" lat="52.708829"><ele>211.552704</ele><time>2022-01-15T13:40:47Z</time><extensions><speed>1.676649</speed><course>97.730293</course><hAcc>2.065931</hAcc><vAcc>0.543792</vAcc></extensions></trkpt>
      <trkpt lon="-3.034550" lat="52.708827"><ele>211.402267</ele><time>2022-01-15T13:40:48Z</time><extensions><speed>1.686235</speed><course>97.058990</course><hAcc>2.044859</hAcc><vAcc>0.548663</vAcc></extensions></trkpt>
      <trkpt lon="-3.034525" lat="52.708825"><ele>211.231262</ele><time>2022-01-15T13:40:49Z</time><extensions><speed>1.683217</speed><course>96.535774</course><hAcc>2.020596</hAcc><vAcc>0.556266</vAcc></extensions></trkpt>
      <trkpt lon="-3.034501" lat="52.708824"><ele>211.042221</ele><time>2022-01-15T13:40:50Z</time><extensions><speed>1.686377</speed><course>96.387596</course><hAcc>1.998133</hAcc><vAcc>0.566835</vAcc></extensions></trkpt>
      <trkpt lon="-3.034476" lat="52.708822"><ele>210.844711</ele><time>2022-01-15T13:40:51Z</time><extensions><speed>1.666797</speed><course>95.400543</course><hAcc>1.977082</hAcc><vAcc>0.580223</vAcc></extensions></trkpt>
      <trkpt lon="-3.034451" lat="52.708821"><ele>210.638092</ele><time>2022-01-15T13:40:52Z</time><extensions><speed>1.628831</speed><course>94.440346</course><hAcc>1.952821</hAcc><vAcc>0.595821</vAcc></extensions></trkpt>
      <trkpt lon="-3.034428" lat="52.708820"><ele>210.434006</ele><time>2022-01-15T13:40:53Z</time><extensions><speed>1.530094</speed><course>92.809174</course><hAcc>1.926677</hAcc><vAcc>0.612714</vAcc></extensions></trkpt>
      <trkpt lon="-3.034406" lat="52.708820"><ele>210.228607</ele><time>2022-01-15T13:40:54Z</time><extensions><speed>1.473491</speed><course>90.456017</course><hAcc>1.899859</hAcc><vAcc>0.629911</vAcc></extensions></trkpt>
      <trkpt lon="-3.034384" lat="52.708820"><ele>210.031128</ele><time>2022-01-15T13:40:55Z</time><extensions><speed>1.473632</speed><course>88.295502</course><hAcc>1.879111</hAcc><vAcc>0.646481</vAcc></extensions></trkpt>
      <trkpt lon="-3.034362" lat="52.708820"><ele>209.836243</ele><time>2022-01-15T13:40:56Z</time><extensions><speed>1.472102</speed><course>86.533798</course><hAcc>1.863516</hAcc><vAcc>0.661789</vAcc></extensions></trkpt>
      <trkpt lon="-3.034341" lat="52.708821"><ele>209.647614</ele><time>2022-01-15T13:40:57Z</time><extensions><speed>1.443791</speed><course>84.871712</course><hAcc>1.852274</hAcc><vAcc>0.675426</vAcc></extensions></trkpt>
      <trkpt lon="-3.034319" lat="52.708823"><ele>209.470383</ele><time>2022-01-15T13:40:58Z</time><extensions><speed>1.429132</speed><course>84.300766</course><hAcc>1.843192</hAcc><vAcc>0.687113</vAcc></extensions></trkpt>
      <trkpt lon="-3.034298" lat="52.708824"><ele>209.307129</ele><time>2022-01-15T13:40:59Z</time><extensions><speed>1.445704</speed><course>83.257370</course><hAcc>1.835145</hAcc><vAcc>0.696873</vAcc></extensions></trkpt>
      <trkpt lon="-3.034277" lat="52.708826"><ele>209.138641</ele><time>2022-01-15T13:41:00Z</time><extensions><speed>1.437338</speed><course>82.966766</course><hAcc>1.829385</hAcc><vAcc>0.704738</vAcc></extensions></trkpt>
      <trkpt lon="-3.034256" lat="52.708827"><ele>208.986923</ele><time>2022-01-15T13:41:01Z</time><extensions><speed>1.420971</speed><course>82.750603</course><hAcc>1.825220</hAcc><vAcc>0.710881</vAcc></extensions></trkpt>
      <trkpt lon="-3.034235" lat="52.708829"><ele>208.834549</ele><time>2022-01-15T13:41:02Z</time><extensions><speed>1.406747</speed><course>83.327484</course><hAcc>1.818553</hAcc><vAcc>0.715526</vAcc></extensions></trkpt>
      <trkpt lon="-3.034214" lat="52.708830"><ele>208.702423</ele><time>2022-01-15T13:41:03Z</time><extensions><speed>1.422233</speed><course>83.178932</course><hAcc>1.807627</hAcc><vAcc>0.718874</vAcc></extensions></trkpt>
      <trkpt lon="-3.034194" lat="52.708832"><ele>208.571671</ele><time>2022-01-15T13:41:04Z</time><extensions><speed>1.387771</speed><course>82.415596</course><hAcc>1.797386</hAcc><vAcc>0.721080</vAcc></extensions></trkpt>
      <trkpt lon="-3.034173" lat="52.708834"><ele>208.442398</ele><time>2022-01-15T13:41:05Z</time><extensions><speed>1.369413</speed><course>79.936371</course><hAcc>1.784313</hAcc><vAcc>0.722247</vAcc></extensions></trkpt>
      <trkpt lon="-3.034154" lat="52.708837"><ele>208.313950</ele><time>2022-01-15T13:41:06Z</time><extensions><speed>1.352531</speed><course>75.937813</course><hAcc>1.777713</hAcc><vAcc>0.722436</vAcc></extensions></trkpt>
      <trkpt lon="-3.034134" lat="52.708840"><ele>208.192245</ele><time>2022-01-15T13:41:07Z</time><extensions><speed>1.329082</speed><course>73.560837</course><hAcc>1.786381</hAcc><vAcc>0.721738</vAcc></extensions></trkpt>
      <trkpt lon="-3.034116" lat="52.708843"><ele>208.074539</ele><time>2022-01-15T13:41:08Z</time><extensions><speed>1.322050</speed><course>74.301125</course><hAcc>1.808254</hAcc><vAcc>0.720262</vAcc></extensions></trkpt>
      <trkpt lon="-3.034098" lat="52.708846"><ele>207.947678</ele><time>2022-01-15T13:41:09Z</time><extensions><speed>1.204736</speed><course>73.405838</course><hAcc>1.780218</hAcc><vAcc>0.718000</vAcc></extensions></trkpt>
      <trkpt lon="-3.034081" lat="52.708849"><ele>207.822769</ele><time>2022-01-15T13:41:10Z</time><extensions><speed>1.070394</speed><course>71.630539</course><hAcc>1.776077</hAcc><vAcc>0.714967</vAcc></extensions></trkpt>
      <trkpt lon="-3.034066" lat="52.708852"><ele>207.694702</ele><time>2022-01-15T13:41:11Z</time><extensions><speed>1.116158</speed><course>72.236923</course><hAcc>1.793848</hAcc><vAcc>0.711220</vAcc></extensions></trkpt>
      <trkpt lon="-3.034049" lat="52.708856"><ele>207.564789</ele><time>2022-01-15T13:41:12Z</time><extensions><speed>1.265050</speed><course>72.302666</course><hAcc>1.802651</hAcc><vAcc>0.706769</vAcc></extensions></trkpt>
      <trkpt lon="-3.034031" lat="52.708860"><ele>207.432938</ele><time>2022-01-15T13:41:13Z</time><extensions><speed>1.344179</speed><course>69.723511</course><hAcc>1.814226</hAcc><vAcc>0.701717</vAcc></extensions></trkpt>
      <trkpt lon="-3.034012" lat="52.708864"><ele>207.315536</ele><time>2022-01-15T13:41:14Z</time><extensions><speed>1.388517</speed><course>70.359177</course><hAcc>1.826332</hAcc><vAcc>0.696148</vAcc></extensions></trkpt>
      <trkpt lon="-3.033992" lat="52.708868"><ele>207.183929</ele><time>2022-01-15T13:41:15Z</time><extensions><speed>1.404724</speed><course>71.796913</course><hAcc>1.831115</hAcc><vAcc>0.690182</vAcc></extensions></trkpt>
      <trkpt lon="-3.033972" lat="52.708872"><ele>207.073242</ele><time>2022-01-15T13:41:16Z</time><extensions><speed>1.404658</speed><course>72.833099</course><hAcc>1.829784</hAcc><vAcc>0.683985</vAcc></extensions></trkpt>
      <trkpt lon="-3.033952" lat="52.708875"><ele>206.968903</ele><time>2022-01-15T13:41:17Z</time><extensions><speed>1.370912</speed><course>74.045357</course><hAcc>1.829030</hAcc><vAcc>0.677735</vAcc></extensions></trkpt>
      <trkpt lon="-3.033932" lat="52.708878"><ele>206.878525</ele><time>2022-01-15T13:41:18Z</time><extensions><speed>1.309490</speed><course>76.169128</course><hAcc>1.832623</hAcc><vAcc>0.671607</vAcc></extensions></trkpt>
      <trkpt lon="-3.033914" lat="52.708881"><ele>206.800629</ele><time>2022-01-15T13:41:19Z</time><extensions><speed>1.198808</speed><course>78.171677</course><hAcc>1.837950</hAcc><vAcc>0.665739</vAcc></extensions></trkpt>
      <trkpt lon="-3.033896" lat="52.708883"><ele>206.725754</ele><time>2022-01-15T13:41:20Z</time><extensions><speed>1.178150</speed><course>80.127365</course><hAcc>1.831279</hAcc><vAcc>0.660266</vAcc></extensions></trkpt>
      <trkpt lon="-3.033879" lat="52.708884"><ele>206.658661</ele><time>2022-01-15T13:41:21Z</time><extensions><speed>1.156008</speed><course>81.222252</course><hAcc>1.827585</hAcc><vAcc>0.655432</vAcc></extensions></trkpt>
      <trkpt lon="-3.033862" lat="52.708886"><ele>206.600525</ele><time>2022-01-15T13:41:22Z</time><extensions><speed>1.113471</speed><course>83.402542</course><hAcc>1.822281</hAcc><vAcc>0.651413</vAcc></extensions></trkpt>
      <trkpt lon="-3.033845" lat="52.708886"><ele>206.559967</ele><time>2022-01-15T13:41:23Z</time><extensions><speed>1.162722</speed><course>87.320496</course><hAcc>1.798059</hAcc><vAcc>0.648391</vAcc></extensions></trkpt>
      <trkpt lon="-3.033827" lat="52.708886"><ele>206.528641</ele><time>2022-01-15T13:41:24Z</time><extensions><speed>1.185311</speed><course>91.018364</course><hAcc>1.806801</hAcc><vAcc>0.646477</vAcc></extensions></trkpt>
      <trkpt lon="-3.033811" lat="52.708886"><ele>206.476807</ele><time>2022-01-15T13:41:25Z</time><extensions><speed>1.044262</speed><course>93.749763</course><hAcc>1.856752</hAcc><vAcc>0.645684</vAcc></extensions></trkpt>
      <trkpt lon="-3.033793" lat="52.708885"><ele>206.422409</ele><time>2022-01-15T13:41:26Z</time><extensions><speed>1.296001</speed><course>95.365791</course><hAcc>1.844133</hAcc><vAcc>0.645951</vAcc></extensions></trkpt>
      <trkpt lon="-3.033772" lat="52.708884"><ele>206.364532</ele><time>2022-01-15T13:41:27Z</time><extensions><speed>1.543349</speed><course>96.189964</course><hAcc>1.805923</hAcc><vAcc>0.647303</vAcc></extensions></trkpt>
      <trkpt lon="-3.033748" lat="52.708882"><ele>206.310776</ele><time>2022-01-15T13:41:28Z</time><extensions><speed>1.673033</speed><course>98.277328</course><hAcc>1.792907</hAcc><vAcc>0.649481</vAcc></extensions></trkpt>
      <trkpt lon="-3.033724" lat="52.708880"><ele>206.243088</ele><time>2022-01-15T13:41:29Z</time><extensions><speed>1.665807</speed><course>101.390152</course><hAcc>1.803807</hAcc><vAcc>0.652289</vAcc></extensions></trkpt>
      <trkpt lon="-3.033701" lat="52.708877"><ele>206.180283</ele><time>2022-01-15T13:41:30Z</time><extensions><speed>1.473823</speed><course>104.613373</course><hAcc>1.840740</hAcc><vAcc>0.655307</vAcc></extensions></trkpt>
      <trkpt lon="-3.033683" lat="52.708873"><ele>206.106827</ele><time>2022-01-15T13:41:31Z</time><extensions><speed>1.124275</speed><course>107.135902</course><hAcc>1.879961</hAcc><vAcc>0.658239</vAcc></extensions></trkpt>
      <trkpt lon="-3.033666" lat="52.708871"><ele>206.038803</ele><time>2022-01-15T13:41:32Z</time><extensions><speed>1.190932</speed><course>105.567986</course><hAcc>1.840576</hAcc><vAcc>0.660611</vAcc></extensions></trkpt>
      <trkpt lon="-3.033649" lat="52.708868"><ele>205.975082</ele><time>2022-01-15T13:41:33Z</time><extensions><speed>1.199333</speed><course>100.163269</course><hAcc>1.819784</hAcc><vAcc>0.662000</vAcc></extensions></trkpt>
      <trkpt lon="-3.033631" lat="52.708867"><ele>205.918823</ele><time>2022-01-15T13:41:34Z</time><extensions><speed>1.233451</speed><course>90.856804</course><hAcc>1.834727</hAcc><vAcc>0.662165</vAcc></extensions></trkpt>
      <trkpt lon="-3.033613" lat="52.708868"><ele>205.863068</ele><time>2022-01-15T13:41:35Z</time><extensions><speed>1.260401</speed><course>79.929581</course><hAcc>1.853989</hAcc><vAcc>0.661031</vAcc></extensions></trkpt>
      <trkpt lon="-3.033594" lat="52.708872"><ele>205.820465</ele><time>2022-01-15T13:41:36Z</time><extensions><speed>1.331907</speed><course>69.783440</course><hAcc>1.859517</hAcc><vAcc>0.658711</vAcc></extensions></trkpt>
      <trkpt lon="-3.033576" lat="52.708877"><ele>205.787018</ele><time>2022-01-15T13:41:37Z</time><extensions><speed>1.359475</speed><course>59.929115</course><hAcc>1.857149</hAcc><vAcc>0.655403</vAcc></extensions></trkpt>
      <trkpt lon="-3.033559" lat="52.708884"><ele>205.764694</ele><time>2022-01-15T13:41:38Z</time><extensions><speed>1.347639</speed><course>54.071438</course><hAcc>1.851253</hAcc><vAcc>0.651381</vAcc></extensions></trkpt>
      <trkpt lon="-3.033544" lat="52.708891"><ele>205.760101</ele><time>2022-01-15T13:41:39Z</time><extensions><speed>1.294388</speed><course>50.459824</course><hAcc>1.846030</hAcc><vAcc>0.646932</vAcc></extensions></trkpt>
      <trkpt lon="-3.033529" lat="52.708898"><ele>205.768188</ele><time>2022-01-15T13:41:40Z</time><extensions><speed>1.259566</speed><course>49.850719</course><hAcc>1.849208</hAcc><vAcc>0.642312</vAcc></extensions></trkpt>
      <trkpt lon="-3.033515" lat="52.708905"><ele>205.786163</ele><time>2022-01-15T13:41:41Z</time><extensions><speed>1.177411</speed><course>51.683498</course><hAcc>1.871790</hAcc><vAcc>0.637765</vAcc></extensions></trkpt>
      <trkpt lon="-3.033501" lat="52.708912"><ele>205.815109</ele><time>2022-01-15T13:41:42Z</time><extensions><speed>1.257422</speed><course>54.283138</course><hAcc>1.868183</hAcc><vAcc>0.633433</vAcc></extensions></trkpt>
      <trkpt lon="-3.033486" lat="52.708919"><ele>205.851852</ele><time>2022-01-15T13:41:43Z</time><extensions><speed>1.275501</speed><course>52.222195</course><hAcc>1.849871</hAcc><vAcc>0.629412</vAcc></extensions></trkpt>
      <trkpt lon="-3.033471" lat="52.708926"><ele>205.893631</ele><time>2022-01-15T13:41:44Z</time><extensions><speed>1.207453</speed><course>48.889198</course><hAcc>1.844860</hAcc><vAcc>0.625722</vAcc></extensions></trkpt>
      <trkpt lon="-3.033459" lat="52.708933"><ele>205.941132</ele><time>2022-01-15T13:41:45Z</time><extensions><speed>1.060392</speed><course>44.579437</course><hAcc>1.850402</hAcc><vAcc>0.622331</vAcc></extensions></trkpt>
      <trkpt lon="-3.033450" lat="52.708939"><ele>205.993317</ele><time>2022-01-15T13:41:46Z</time><extensions><speed>0.842967</speed><course>40.261402</course><hAcc>1.869918</hAcc><vAcc>0.619113</vAcc></extensions></trkpt>
      <trkpt lon="-3.033444" lat="52.708944"><ele>206.048584</ele><time>2022-01-15T13:41:47Z</time><extensions><speed>0.535460</speed><course>31.012175</course><hAcc>1.894161</hAcc><vAcc>0.615876</vAcc></extensions></trkpt>
      <trkpt lon="-3.033440" lat="52.708948"><ele>206.106247</ele><time>2022-01-15T13:41:48Z</time><extensions><speed>0.452167</speed><course>25.411861</course><hAcc>1.888457</hAcc><vAcc>0.612412</vAcc></extensions></trkpt>
      <trkpt lon="-3.033437" lat="52.708952"><ele>206.164963</ele><time>2022-01-15T13:41:49Z</time><extensions><speed>0.383375</speed><course>25.011351</course><hAcc>1.889310</hAcc><vAcc>0.608603</vAcc></extensions></trkpt>
      <trkpt lon="-3.033435" lat="52.708955"><ele>206.223572</ele><time>2022-01-15T13:41:50Z</time><extensions><speed>0.338668</speed><course>27.051582</course><hAcc>1.897847</hAcc><vAcc>0.604500</vAcc></extensions></trkpt>
      <trkpt lon="-3.033433" lat="52.708957"><ele>206.281082</ele><time>2022-01-15T13:41:51Z</time><extensions><speed>0.302938</speed><course>29.854441</course><hAcc>1.907924</hAcc><vAcc>0.600295</vAcc></extensions></trkpt>
      <trkpt lon="-3.033430" lat="52.708959"><ele>206.336792</ele><time>2022-01-15T13:41:52Z</time><extensions><speed>0.268938</speed><course>33.641567</course><hAcc>1.915425</hAcc><vAcc>0.596264</vAcc></extensions></trkpt>
      <trkpt lon="-3.033428" lat="52.708961"><ele>206.390015</ele><time>2022-01-15T13:41:53Z</time><extensions><speed>0.240692</speed><course>37.547047</course><hAcc>1.921031</hAcc><vAcc>0.592724</vAcc></extensions></trkpt>
      <trkpt lon="-3.033426" lat="52.708963"><ele>206.440186</ele><time>2022-01-15T13:41:54Z</time><extensions><speed>0.221046</speed><course>40.304741</course><hAcc>1.925472</hAcc><vAcc>0.590006</vAcc></extensions></trkpt>
      <trkpt lon="-3.033424" lat="52.708964"><ele>206.486725</ele><time>2022-01-15T13:41:55Z</time><extensions><speed>0.201776</speed><course>41.548332</course><hAcc>1.927957</hAcc><vAcc>0.588433</vAcc></extensions></trkpt>
      <trkpt lon="-3.033422" lat="52.708965"><ele>206.529053</ele><time>2022-01-15T13:41:56Z</time><extensions><speed>0.178897</speed><course>41.049541</course><hAcc>1.924508</hAcc><vAcc>0.588261</vAcc></extensions></trkpt>
      <trkpt lon="-3.033421" lat="52.708967"><ele>206.566742</ele><time>2022-01-15T13:41:57Z</time><extensions><speed>0.158323</speed><course>39.225857</course><hAcc>1.912161</hAcc><vAcc>0.589642</vAcc></extensions></trkpt>
      <trkpt lon="-3.033419" lat="52.708968"><ele>206.599518</ele><time>2022-01-15T13:41:58Z</time><extensions><speed>0.128951</speed><course>37.354755</course><hAcc>1.900951</hAcc><vAcc>0.592568</vAcc></extensions></trkpt>
      <trkpt lon="-3.033418" lat="52.708968"><ele>206.627380</ele><time>2022-01-15T13:41:59Z</time><extensions><speed>0.092437</speed><course>36.036682</course><hAcc>1.892443</hAcc><vAcc>0.596826</vAcc></extensions></trkpt>
      <trkpt lon="-3.033418" lat="52.708969"><ele>206.650650</ele><time>2022-01-15T13:42:00Z</time><extensions><speed>0.064980</speed><course>35.106083</course><hAcc>1.875504</hAcc><vAcc>0.602132</vAcc></extensions></trkpt>
      <trkpt lon="-3.033417" lat="52.708969"><ele>206.669662</ele><time>2022-01-15T13:42:01Z</time><extensions><speed>0.043559</speed><course>34.423031</course><hAcc>1.858086</hAcc><vAcc>0.608111</vAcc></extensions></trkpt>
      <trkpt lon="-3.033417" lat="52.708970"><ele>206.684875</ele><time>2022-01-15T13:42:02Z</time><extensions><speed>0.028782</speed><course>33.897949</course><hAcc>1.839300</hAcc><vAcc>0.614454</vAcc></extensions></trkpt>
      <trkpt lon="-3.033417" lat="52.708970"><ele>206.696701</ele><time>2022-01-15T13:42:03Z</time><extensions><speed>0.019745</speed><course>33.503273</course><hAcc>1.818800</hAcc><vAcc>0.620922</vAcc></extensions></trkpt>
      <trkpt lon="-3.033417" lat="52.708970"><ele>206.705643</ele><time>2022-01-15T13:42:04Z</time><extensions><speed>0.012525</speed><course>33.212303</course><hAcc>1.811756</hAcc><vAcc>0.627385</vAcc></extensions></trkpt>
      <trkpt lon="-3.033416" lat="52.708970"><ele>206.712097</ele><time>2022-01-15T13:42:05Z</time><extensions><speed>0.008238</speed><course>32.990150</course><hAcc>1.803883</hAcc><vAcc>0.633747</vAcc></extensions></trkpt>
      <trkpt lon="-3.033416" lat="52.708970"><ele>206.716507</ele><time>2022-01-15T13:42:06Z</time><extensions><speed>0.005765</speed><course>32.835800</course><hAcc>1.797892</hAcc><vAcc>0.639988</vAcc></extensions></trkpt>
      <trkpt lon="-3.033416" lat="52.708970"><ele>206.719254</ele><time>2022-01-15T13:42:07Z</time><extensions><speed>0.003742</speed><course>32.733688</course><hAcc>1.811057</hAcc><vAcc>0.646126</vAcc></extensions></trkpt>
      <trkpt lon="-3.033416" lat="52.708970"><ele>206.720657</ele><time>2022-01-15T13:42:08Z</time><extensions><speed>0.002498</speed><course>32.661686</course><hAcc>1.819798</hAcc><vAcc>0.652196</vAcc></extensions></trkpt>
      <trkpt lon="-3.033416" lat="52.708970"><ele>206.721039</ele><time>2022-01-15T13:42:09Z</time><extensions><speed>0.002278</speed><course>32.618332</course><hAcc>1.797985</hAcc><vAcc>0.658264</vAcc></extensions></trkpt>
      <trkpt lon="-3.033416" lat="52.708970"><ele>206.720627</ele><time>2022-01-15T13:42:10Z</time><extensions><speed>0.001782</speed><course>32.596500</course><hAcc>1.800527</hAcc><vAcc>0.664332</vAcc></extensions></trkpt>
      <trkpt lon="-3.033416" lat="52.708970"><ele>206.719666</ele><time>2022-01-15T13:42:11Z</time><extensions><speed>0.001300</speed><course>32.582897</course><hAcc>1.815498</hAcc><vAcc>0.670366</vAcc></extensions></trkpt>
      <trkpt lon="-3.033416" lat="52.708970"><ele>206.718307</ele><time>2022-01-15T13:42:12Z</time><extensions><speed>0.000930</speed><course>32.573582</course><hAcc>1.824703</hAcc><vAcc>0.676283</vAcc></extensions></trkpt>
      <trkpt lon="-3.033416" lat="52.708970"><ele>206.716705</ele><time>2022-01-15T13:42:13Z</time><extensions><speed>0.000639</speed><course>32.566879</course><hAcc>1.830246</hAcc><vAcc>0.681966</vAcc></extensions></trkpt>
      <trkpt lon="-3.033416" lat="52.708970"><ele>206.714966</ele><time>2022-01-15T13:42:14Z</time><extensions><speed>0.000430</speed><course>32.561768</course><hAcc>1.831409</hAcc><vAcc>0.687339</vAcc></extensions></trkpt>
      <trkpt lon="-3.033416" lat="52.708971"><ele>206.721970</ele><time>2022-01-15T13:42:15Z</time><extensions><speed>0.015473</speed><course>26.580206</course><hAcc>1.826005</hAcc><vAcc>0.692287</vAcc></extensions></trkpt>
      <trkpt lon="-3.033416" lat="52.708971"><ele>206.736313</ele><time>2022-01-15T13:42:16Z</time><extensions><speed>0.035126</speed><course>26.047304</course><hAcc>1.818572</hAcc><vAcc>0.696814</vAcc></extensions></trkpt>
      <trkpt lon="-3.033415" lat="52.708971"><ele>206.748047</ele><time>2022-01-15T13:42:17Z</time><extensions><speed>0.058784</speed><course>26.845890</course><hAcc>1.812793</hAcc><vAcc>0.700829</vAcc></extensions></trkpt>
      <trkpt lon="-3.033415" lat="52.708972"><ele>206.779129</ele><time>2022-01-15T13:42:18Z</time><extensions><speed>0.086513</speed><course>28.345577</course><hAcc>1.807257</hAcc><vAcc>0.704224</vAcc></extensions></trkpt>
      <trkpt lon="-3.033414" lat="52.708973"><ele>206.818726</ele><time>2022-01-15T13:42:19Z</time><extensions><speed>0.119252</speed><course>29.755861</course><hAcc>1.799740</hAcc><vAcc>0.707156</vAcc></extensions></trkpt>
      <trkpt lon="-3.033413" lat="52.708974"><ele>206.854019</ele><time>2022-01-15T13:42:20Z</time><extensions><speed>0.163772</speed><course>30.230986</course><hAcc>1.787730</hAcc><vAcc>0.709672</vAcc></extensions></trkpt>
      <trkpt lon="-3.033412" lat="52.708975"><ele>206.880844</ele><time>2022-01-15T13:42:21Z</time><extensions><speed>0.207373</speed><course>30.247324</course><hAcc>1.787288</hAcc><vAcc>0.711823</vAcc></extensions></trkpt>
      <trkpt lon="-3.033410" lat="52.708977"><ele>206.911835</ele><time>2022-01-15T13:42:22Z</time><extensions><speed>0.243832</speed><course>30.137005</course><hAcc>1.800438</hAcc><vAcc>0.713696</vAcc></extensions></trkpt>
      <trkpt lon="-3.033408" lat="52.708979"><ele>206.938004</ele><time>2022-01-15T13:42:23Z</time><extensions><speed>0.302508</speed><course>30.134472</course><hAcc>1.803857</hAcc><vAcc>0.715329</vAcc></extensions></trkpt>
      <trkpt lon="-3.033406" lat="52.708981"><ele>206.957489</ele><time>2022-01-15T13:42:24Z</time><extensions><speed>0.359192</speed><course>30.473650</course><hAcc>1.796336</hAcc><vAcc>0.716805</vAcc></extensions></trkpt>
      <trkpt lon="-3.033404" lat="52.708984"><ele>206.980560</ele><time>2022-01-15T13:42:25Z</time><extensions><speed>0.314601</speed><course>31.895184</course><hAcc>1.789382</hAcc><vAcc>0.718219</vAcc></extensions></trkpt>
      <trkpt lon="-3.033402" lat="52.708985"><ele>206.988373</ele><time>2022-01-15T13:42:26Z</time><extensions><speed>0.128224</speed><course>38.901489</course><hAcc>1.795102</hAcc><vAcc>0.719580</vAcc></extensions></trkpt>
      <trkpt lon="-3.033402" lat="52.708985"><ele>206.983414</ele><time>2022-01-15T13:42:27Z</time><extensions><speed>0.111840</speed><course>202.068756</course><hAcc>1.806827</hAcc><vAcc>0.720893</vAcc></extensions></trkpt>
      <trkpt lon="-3.033404" lat="52.708983"><ele>206.966553</ele><time>2022-01-15T13:42:28Z</time><extensions><speed>0.344660</speed><course>213.261780</course><hAcc>1.819135</hAcc><vAcc>0.722051</vAcc></extensions></trkpt>
      <trkpt lon="-3.033408" lat="52.708980"><ele>206.944138</ele><time>2022-01-15T13:42:29Z</time><extensions><speed>0.563824</speed><course>219.108856</course><hAcc>1.825106</hAcc><vAcc>0.723119</vAcc></extensions></trkpt>
      <trkpt lon="-3.033415" lat="52.708975"><ele>206.911972</ele><time>2022-01-15T13:42:30Z</time><extensions><speed>0.782159</speed><course>223.193161</course><hAcc>1.825178</hAcc><vAcc>0.723980</vAcc></extensions></trkpt>
      <trkpt lon="-3.033424" lat="52.708970"><ele>206.871277</ele><time>2022-01-15T13:42:31Z</time><extensions><speed>0.963906</speed><course>225.394424</course><hAcc>1.827880</hAcc><vAcc>0.724646</vAcc></extensions></trkpt>
      <trkpt lon="-3.033435" lat="52.708963"><ele>206.808243</ele><time>2022-01-15T13:42:32Z</time><extensions><speed>1.152161</speed><course>226.014740</course><hAcc>1.827874</hAcc><vAcc>0.725011</vAcc></extensions></trkpt>
      <trkpt lon="-3.033449" lat="52.708955"><ele>206.722168</ele><time>2022-01-15T13:42:33Z</time><extensions><speed>1.289433</speed><course>225.401505</course><hAcc>1.831441</hAcc><vAcc>0.725062</vAcc></extensions></trkpt>
      <trkpt lon="-3.033463" lat="52.708946"><ele>206.624268</ele><time>2022-01-15T13:42:34Z</time><extensions><speed>1.374031</speed><course>224.028595</course><hAcc>1.837014</hAcc><vAcc>0.724792</vAcc></extensions></trkpt>
      <trkpt lon="-3.033477" lat="52.708937"><ele>206.507004</ele><time>2022-01-15T13:42:35Z</time><extensions><speed>1.450272</speed><course>222.228287</course><hAcc>1.837530</hAcc><vAcc>0.724208</vAcc></extensions></trkpt>
      <trkpt lon="-3.033491" lat="52.708927"><ele>206.378922</ele><time>2022-01-15T13:42:36Z</time><extensions><speed>1.484212</speed><course>220.329987</course><hAcc>1.835653</hAcc><vAcc>0.723394</vAcc></extensions></trkpt>
      <trkpt lon="-3.033505" lat="52.708916"><ele>206.229950</ele><time>2022-01-15T13:42:37Z</time><extensions><speed>1.501488</speed><course>218.650818</course><hAcc>1.833597</hAcc><vAcc>0.722419</vAcc></extensions></trkpt>
      <trkpt lon="-3.033519" lat="52.708906"><ele>206.059479</ele><time>2022-01-15T13:42:38Z</time><extensions><speed>1.442534</speed><course>217.236328</course><hAcc>1.838711</hAcc><vAcc>0.721334</vAcc></extensions></trkpt>
      <trkpt lon="-3.033531" lat="52.708895"><ele>205.875610</ele><time>2022-01-15T13:42:39Z</time><extensions><speed>1.387925</speed><course>215.615036</course><hAcc>1.843659</hAcc><vAcc>0.720169</vAcc></extensions></trkpt>
      <trkpt lon="-3.033543" lat="52.708885"><ele>205.665176</ele><time>2022-01-15T13:42:40Z</time><extensions><speed>1.383962</speed><course>213.184280</course><hAcc>1.843478</hAcc><vAcc>0.718999</vAcc></extensions></trkpt>
      <trkpt lon="-3.033554" lat="52.708874"><ele>205.457245</ele><time>2022-01-15T13:42:41Z</time><extensions><speed>1.401991</speed><course>210.090790</course><hAcc>1.841554</hAcc><vAcc>0.717819</vAcc></extensions></trkpt>
      <trkpt lon="-3.033564" lat="52.708863"><ele>205.227325</ele><time>2022-01-15T13:42:42Z</time><extensions><speed>1.417428</speed><course>206.895798</course><hAcc>1.841069</hAcc><vAcc>0.716765</vAcc></extensions></trkpt>
      <trkpt lon="-3.033573" lat="52.708851"><ele>204.971497</ele><time>2022-01-15T13:42:43Z</time><extensions><speed>1.407315</speed><course>204.184814</course><hAcc>1.844067</hAcc><vAcc>0.715826</vAcc></extensions></trkpt>
      <trkpt lon="-3.033581" lat="52.708840"><ele>204.715591</ele><time>2022-01-15T13:42:44Z</time><extensions><speed>1.373561</speed><course>202.300690</course><hAcc>1.850075</hAcc><vAcc>0.715058</vAcc></extensions></trkpt>
      <trkpt lon="-3.033589" lat="52.708829"><ele>204.439987</ele><time>2022-01-15T13:42:45Z</time><extensions><speed>1.304487</speed><course>201.342987</course><hAcc>1.858651</hAcc><vAcc>0.714536</vAcc></extensions></trkpt>
      <trkpt lon="-3.033596" lat="52.708818"><ele>204.141068</ele><time>2022-01-15T13:42:46Z</time><extensions><speed>1.273151</speed><course>201.455154</course><hAcc>1.862775</hAcc><vAcc>0.714341</vAcc></extensions></trkpt>
      <trkpt lon="-3.033603" lat="52.708807"><ele>203.841660</ele><time>2022-01-15T13:42:47Z</time><extensions><speed>1.229892</speed><course>202.353455</course><hAcc>1.867722</hAcc><vAcc>0.714548</vAcc></extensions></trkpt>
      <trkpt lon="-3.033610" lat="52.708797"><ele>203.539719</ele><time>2022-01-15T13:42:48Z</time><extensions><speed>1.213979</speed><course>203.457108</course><hAcc>1.868801</hAcc><vAcc>0.715094</vAcc></extensions></trkpt>
      <trkpt lon="-3.033617" lat="52.708787"><ele>203.229813</ele><time>2022-01-15T13:42:49Z</time><extensions><speed>1.256266</speed><course>204.414642</course><hAcc>1.862034</hAcc><vAcc>0.715908</vAcc></extensions></trkpt>
      <trkpt lon="-3.033625" lat="52.708776"><ele>202.923798</ele><time>2022-01-15T13:42:50Z</time><extensions><speed>1.290351</speed><course>204.944244</course><hAcc>1.855851</hAcc><vAcc>0.717008</vAcc></extensions></trkpt>
      <trkpt lon="-3.033634" lat="52.708765"><ele>202.616516</ele><time>2022-01-15T13:42:51Z</time><extensions><speed>1.436897</speed><course>205.026901</course><hAcc>1.853426</hAcc><vAcc>0.718390</vAcc></extensions></trkpt>
      <trkpt lon="-3.033643" lat="52.708754"><ele>202.315201</ele><time>2022-01-15T13:42:52Z</time><extensions><speed>1.322847</speed><course>206.480652</course><hAcc>1.877484</hAcc><vAcc>0.719916</vAcc></extensions></trkpt>
      <trkpt lon="-3.033652" lat="52.708744"><ele>202.021591</ele><time>2022-01-15T13:42:53Z</time><extensions><speed>1.249287</speed><course>209.014481</course><hAcc>1.865609</hAcc><vAcc>0.721529</vAcc></extensions></trkpt>
      <trkpt lon="-3.033661" lat="52.708734"><ele>201.737259</ele><time>2022-01-15T13:42:54Z</time><extensions><speed>1.187953</speed><course>212.645294</course><hAcc>1.839968</hAcc><vAcc>0.723154</vAcc></extensions></trkpt>
      <trkpt lon="-3.033670" lat="52.708726"><ele>201.464600</ele><time>2022-01-15T13:42:55Z</time><extensions><speed>1.021599</speed><course>217.057816</course><hAcc>1.835297</hAcc><vAcc>0.724805</vAcc></extensions></trkpt>
      <trkpt lon="-3.033679" lat="52.708720"><ele>201.204727</ele><time>2022-01-15T13:42:56Z</time><extensions><speed>0.798146</speed><course>221.321396</course><hAcc>1.850534</hAcc><vAcc>0.726505</vAcc></extensions></trkpt>
      <trkpt lon="-3.033686" lat="52.708715"><ele>200.959061</ele><time>2022-01-15T13:42:57Z</time><extensions><speed>0.577929</speed><course>227.844696</course><hAcc>1.862186</hAcc><vAcc>0.728286</vAcc></extensions></trkpt>
      <trkpt lon="-3.033692" lat="52.708712"><ele>200.731140</ele><time>2022-01-15T13:42:58Z</time><extensions><speed>0.543093</speed><course>232.568863</course><hAcc>1.847065</hAcc><vAcc>0.730192</vAcc></extensions></trkpt>
      <trkpt lon="-3.033699" lat="52.708709"><ele>200.518753</ele><time>2022-01-15T13:42:59Z</time><extensions><speed>0.514794</speed><course>233.552124</course><hAcc>1.839257</hAcc><vAcc>0.732359</vAcc></extensions></trkpt>
      <trkpt lon="-3.033705" lat="52.708706"><ele>200.324844</ele><time>2022-01-15T13:43:00Z</time><extensions><speed>0.501059</speed><course>231.503067</course><hAcc>1.837006</hAcc><vAcc>0.734782</vAcc></extensions></trkpt>
      <trkpt lon="-3.033710" lat="52.708704"><ele>200.147690</ele><time>2022-01-15T13:43:01Z</time><extensions><speed>0.485069</speed><course>228.150085</course><hAcc>1.830635</hAcc><vAcc>0.737457</vAcc></extensions></trkpt>
      <trkpt lon="-3.033715" lat="52.708701"><ele>199.986938</ele><time>2022-01-15T13:43:02Z</time><extensions><speed>0.440254</speed><course>224.734818</course><hAcc>1.819281</hAcc><vAcc>0.740356</vAcc></extensions></trkpt>
      <trkpt lon="-3.033720" lat="52.708698"><ele>199.843704</ele><time>2022-01-15T13:43:03Z</time><extensions><speed>0.371575</speed><course>222.724411</course><hAcc>1.804782</hAcc><vAcc>0.743338</vAcc></extensions></trkpt>
      <trkpt lon="-3.033723" lat="52.708696"><ele>199.717163</ele><time>2022-01-15T13:43:04Z</time><extensions><speed>0.304752</speed><course>224.075317</course><hAcc>1.792079</hAcc><vAcc>0.746267</vAcc></extensions></trkpt>
      <trkpt lon="-3.033726" lat="52.708694"><ele>199.607254</ele><time>2022-01-15T13:43:05Z</time><extensions><speed>0.246301</speed><course>228.763382</course><hAcc>1.800819</hAcc><vAcc>0.749006</vAcc></extensions></trkpt>
      <trkpt lon="-3.033729" lat="52.708693"><ele>199.513504</ele><time>2022-01-15T13:43:06Z</time><extensions><speed>0.187201</speed><course>236.067520</course><hAcc>1.823964</hAcc><vAcc>0.751469</vAcc></extensions></trkpt>
      <trkpt lon="-3.033731" lat="52.708692"><ele>199.434555</ele><time>2022-01-15T13:43:07Z</time><extensions><speed>0.226021</speed><course>243.950241</course><hAcc>1.796998</hAcc><vAcc>0.753579</vAcc></extensions></trkpt>
      <trkpt lon="-3.033734" lat="52.708691"><ele>199.367737</ele><time>2022-01-15T13:43:08Z</time><extensions><speed>0.236045</speed><course>252.477997</course><hAcc>1.785869</hAcc><vAcc>0.755385</vAcc></extensions></trkpt>
      <trkpt lon="-3.033738" lat="52.708691"><ele>199.316162</ele><time>2022-01-15T13:43:09Z</time><extensions><speed>0.248945</speed><course>263.219177</course><hAcc>1.788368</hAcc><vAcc>0.756902</vAcc></extensions></trkpt>
      <trkpt lon="-3.033742" lat="52.708691"><ele>199.271378</ele><time>2022-01-15T13:43:10Z</time><extensions><speed>0.261102</speed><course>271.653076</course><hAcc>1.795348</hAcc><vAcc>0.758138</vAcc></extensions></trkpt>
      <trkpt lon="-3.033746" lat="52.708691"><ele>199.236160</ele><time>2022-01-15T13:43:11Z</time><extensions><speed>0.265485</speed><course>274.372070</course><hAcc>1.801697</hAcc><vAcc>0.759159</vAcc></extensions></trkpt>
      <trkpt lon="-3.033750" lat="52.708691"><ele>199.211334</ele><time>2022-01-15T13:43:12Z</time><extensions><speed>0.256340</speed><course>272.469177</course><hAcc>1.807488</hAcc><vAcc>0.759984</vAcc></extensions></trkpt>
      <trkpt lon="-3.033753" lat="52.708691"><ele>199.194397</ele><time>2022-01-15T13:43:13Z</time><extensions><speed>0.242430</speed><course>268.884003</course><hAcc>1.811553</hAcc><vAcc>0.760663</vAcc></extensions></trkpt>
      <trkpt lon="-3.033757" lat="52.708691"><ele>199.184189</ele><time>2022-01-15T13:43:14Z</time><extensions><speed>0.214865</speed><course>265.740204</course><hAcc>1.817723</hAcc><vAcc>0.761267</vAcc></extensions></trkpt>
      <trkpt lon="-3.033760" lat="52.708691"><ele>199.180298</ele><time>2022-01-15T13:43:15Z</time><extensions><speed>0.206932</speed><course>264.995331</course><hAcc>1.809519</hAcc><vAcc>0.761859</vAcc></extensions></trkpt>
      <trkpt lon="-3.033763" lat="52.708691"><ele>199.180008</ele><time>2022-01-15T13:43:16Z</time><extensions><speed>0.192635</speed><course>267.062836</course><hAcc>1.802611</hAcc><vAcc>0.762525</vAcc></extensions></trkpt>
      <trkpt lon="-3.033765" lat="52.708691"><ele>199.183090</ele><time>2022-01-15T13:43:17Z</time><extensions><speed>0.170761</speed><course>268.721588</course><hAcc>1.797777</hAcc><vAcc>0.763339</vAcc></extensions></trkpt>
      <trkpt lon="-3.033768" lat="52.708690"><ele>199.186539</ele><time>2022-01-15T13:43:18Z</time><extensions><speed>0.143732</speed><course>265.634857</course><hAcc>1.789040</hAcc><vAcc>0.764335</vAcc></extensions></trkpt>
      <trkpt lon="-3.033770" lat="52.708690"><ele>199.190857</ele><time>2022-01-15T13:43:19Z</time><extensions><speed>0.116264</speed><course>255.137558</course><hAcc>1.773569</hAcc><vAcc>0.765535</vAcc></extensions></trkpt>
      <trkpt lon="-3.033771" lat="52.708690"><ele>199.193680</ele><time>2022-01-15T13:43:20Z</time><extensions><speed>0.102905</speed><course>242.414886</course><hAcc>1.746306</hAcc><vAcc>0.766749</vAcc></extensions></trkpt>
      <trkpt lon="-3.033773" lat="52.708689"><ele>199.194504</ele><time>2022-01-15T13:43:21Z</time><extensions><speed>0.093928</speed><course>233.006424</course><hAcc>1.727423</hAcc><vAcc>0.767934</vAcc></extensions></trkpt>
      <trkpt lon="-3.033774" lat="52.708689"><ele>199.195312</ele><time>2022-01-15T13:43:22Z</time><extensions><speed>0.075758</speed><course>225.531677</course><hAcc>1.733288</hAcc><vAcc>0.769072</vAcc></extensions></trkpt>
      <trkpt lon="-3.033774" lat="52.708688"><ele>199.200363</ele><time>2022-01-15T13:43:23Z</time><extensions><speed>0.076755</speed><course>220.932846</course><hAcc>1.727376</hAcc><vAcc>0.769828</vAcc></extensions></trkpt>
      <trkpt lon="-3.033775" lat="52.708688"><ele>199.207108</ele><time>2022-01-15T13:43:24Z</time><extensions><speed>0.071538</speed><course>221.093597</course><hAcc>1.731367</hAcc><vAcc>0.770079</vAcc></extensions></trkpt>
      <trkpt lon="-3.033776" lat="52.708687"><ele>199.205521</ele><time>2022-01-15T13:43:25Z</time><extensions><speed>0.098580</speed><course>227.412460</course><hAcc>1.701874</hAcc><vAcc>0.770096</vAcc></extensions></trkpt>
      <trkpt lon="-3.033777" lat="52.708687"><ele>199.206268</ele><time>2022-01-15T13:43:26Z</time><extensions><speed>0.091800</speed><course>239.085281</course><hAcc>1.718678</hAcc><vAcc>0.769687</vAcc></extensions></trkpt>
      <trkpt lon="-3.033778" lat="52.708687"><ele>199.204422</ele><time>2022-01-15T13:43:27Z</time><extensions><speed>0.096974</speed><course>253.041550</course><hAcc>1.734225</hAcc><vAcc>0.768770</vAcc></extensions></trkpt>
      <trkpt lon="-3.033780" lat="52.708686"><ele>199.201309</ele><time>2022-01-15T13:43:28Z</time><extensions><speed>0.113981</speed><course>265.877930</course><hAcc>1.731407</hAcc><vAcc>0.767262</vAcc></extensions></trkpt>
      <trkpt lon="-3.033782" lat="52.708686"><ele>199.196060</ele><time>2022-01-15T13:43:29Z</time><extensions><speed>0.107634</speed><course>278.261414</course><hAcc>1.751420</hAcc><vAcc>0.765088</vAcc></extensions></trkpt>
      <trkpt lon="-3.033783" lat="52.708687"><ele>199.190018</ele><time>2022-01-15T13:43:30Z</time><extensions><speed>0.085674</speed><course>290.015198</course><hAcc>1.784321</hAcc><vAcc>0.762235</vAcc></extensions></trkpt>
      <trkpt lon="-3.033784" lat="52.708687"><ele>199.186340</ele><time>2022-01-15T13:43:31Z</time><extensions><speed>0.065149</speed><course>297.897064</course><hAcc>1.797882</hAcc><vAcc>0.758481</vAcc></extensions></trkpt>
      <trkpt lon="-3.033785" lat="52.708687"><ele>199.182724</ele><time>2022-01-15T13:43:32Z</time><extensions><speed>0.039774</speed><course>293.961823</course><hAcc>1.805562</hAcc><vAcc>0.754056</vAcc></extensions></trkpt>
      <trkpt lon="-3.033785" lat="52.708687"><ele>199.165497</ele><time>2022-01-15T13:43:33Z</time><extensions><speed>0.021164</speed><course>250.264389</course><hAcc>1.811897</hAcc><vAcc>0.748398</vAcc></extensions></trkpt>
      <trkpt lon="-3.033785" lat="52.708687"><ele>199.145645</ele><time>2022-01-15T13:43:34Z</time><extensions><speed>0.030430</speed><course>189.719894</course><hAcc>1.821816</hAcc><vAcc>0.741928</vAcc></extensions></trkpt>
      <trkpt lon="-3.033785" lat="52.708687"><ele>199.123489</ele><time>2022-01-15T13:43:35Z</time><extensions><speed>0.033432</speed><course>173.475784</course><hAcc>1.819983</hAcc><vAcc>0.734543</vAcc></extensions></trkpt>
      <trkpt lon="-3.033785" lat="52.708687"><ele>199.098907</ele><time>2022-01-15T13:43:36Z</time><extensions><speed>0.013348</speed><course>168.626404</course><hAcc>1.812163</hAcc><vAcc>0.726173</vAcc></extensions></trkpt>
      <trkpt lon="-3.033785" lat="52.708687"><ele>199.071747</ele><time>2022-01-15T13:43:37Z</time><extensions><speed>0.013928</speed><course>336.954620</course><hAcc>1.803421</hAcc><vAcc>0.716722</vAcc></extensions></trkpt>
      <trkpt lon="-3.033785" lat="52.708687"><ele>199.042023</ele><time>2022-01-15T13:43:38Z</time><extensions><speed>0.035826</speed><course>342.514862</course><hAcc>1.809660</hAcc><vAcc>0.706141</vAcc></extensions></trkpt>
      <trkpt lon="-3.033786" lat="52.708687"><ele>199.009979</ele><time>2022-01-15T13:43:39Z</time><extensions><speed>0.043996</speed><course>348.984680</course><hAcc>1.845463</hAcc><vAcc>0.694484</vAcc></extensions></trkpt>
      <trkpt lon="-3.033786" lat="52.708688"><ele>198.975937</ele><time>2022-01-15T13:43:40Z</time><extensions><speed>0.053844</speed><course>355.116211</course><hAcc>1.862396</hAcc><vAcc>0.681913</vAcc></extensions></trkpt>
      <trkpt lon="-3.033786" lat="52.708688"><ele>198.949203</ele><time>2022-01-15T13:43:41Z</time><extensions><speed>0.086189</speed><course>356.651031</course><hAcc>1.836556</hAcc><vAcc>0.668704</vAcc></extensions></trkpt>
      <trkpt lon="-3.033786" lat="52.708689"><ele>198.929733</ele><time>2022-01-15T13:43:42Z</time><extensions><speed>0.095817</speed><course>356.101440</course><hAcc>1.846009</hAcc><vAcc>0.655237</vAcc></extensions></trkpt>
      <trkpt lon="-3.033786" lat="52.708690"><ele>198.918488</ele><time>2022-01-15T13:43:43Z</time><extensions><speed>0.093524</speed><course>353.307037</course><hAcc>1.869074</hAcc><vAcc>0.641968</vAcc></extensions></trkpt>
      <trkpt lon="-3.033786" lat="52.708691"><ele>198.916489</ele><time>2022-01-15T13:43:44Z</time><extensions><speed>0.082196</speed><course>346.911896</course><hAcc>1.886093</hAcc><vAcc>0.629359</vAcc></extensions></trkpt>
      <trkpt lon="-3.033787" lat="52.708691"><ele>198.924881</ele><time>2022-01-15T13:43:45Z</time><extensions><speed>0.071356</speed><course>335.811340</course><hAcc>1.902410</hAcc><vAcc>0.617767</vAcc></extensions></trkpt>
      <trkpt lon="-3.033787" lat="52.708692"><ele>198.944290</ele><time>2022-01-15T13:43:46Z</time><extensions><speed>0.068245</speed><course>322.939392</course><hAcc>1.915237</hAcc><vAcc>0.607431</vAcc></extensions></trkpt>
      <trkpt lon="-3.033788" lat="52.708693"><ele>198.974976</ele><time>2022-01-15T13:43:47Z</time><extensions><speed>0.077213</speed><course>311.338196</course><hAcc>1.918042</hAcc><vAcc>0.598521</vAcc></extensions></trkpt>
      <trkpt lon="-3.033789" lat="52.708693"><ele>199.017365</ele><time>2022-01-15T13:43:48Z</time><extensions><speed>0.096462</speed><course>303.715942</course><hAcc>1.916898</hAcc><vAcc>0.591182</vAcc></extensions></trkpt>
      <trkpt lon="-3.033791" lat="52.708694"><ele>199.071106</ele><time>2022-01-15T13:43:49Z</time><extensions><speed>0.121967</speed><course>300.862274</course><hAcc>1.918430</hAcc><vAcc>0.585547</vAcc></extensions></trkpt>
      <trkpt lon="-3.033792" lat="52.708694"><ele>199.134262</ele><time>2022-01-15T13:43:50Z</time><extensions><speed>0.148746</speed><course>301.580322</course><hAcc>1.923700</hAcc><vAcc>0.581735</vAcc></extensions></trkpt>
      <trkpt lon="-3.033794" lat="52.708695"><ele>199.207687</ele><time>2022-01-15T13:43:51Z</time><extensions><speed>0.172087</speed><course>305.521271</course><hAcc>1.924964</hAcc><vAcc>0.579898</vAcc></extensions></trkpt>
      <trkpt lon="-3.033797" lat="52.708696"><ele>199.280869</ele><time>2022-01-15T13:43:52Z</time><extensions><speed>0.200868</speed><course>311.954041</course><hAcc>1.918945</hAcc><vAcc>0.580185</vAcc></extensions></trkpt>
      <trkpt lon="-3.033799" lat="52.708697"><ele>199.359192</ele><time>2022-01-15T13:43:53Z</time><extensions><speed>0.227245</speed><course>317.395081</course><hAcc>1.917884</hAcc><vAcc>0.582673</vAcc></extensions></trkpt>
      <trkpt lon="-3.033801" lat="52.708699"><ele>199.438400</ele><time>2022-01-15T13:43:54Z</time><extensions><speed>0.257442</speed><course>320.021912</course><hAcc>1.916775</hAcc><vAcc>0.587301</vAcc></extensions></trkpt>
      <trkpt lon="-3.033804" lat="52.708701"><ele>199.516922</ele><time>2022-01-15T13:43:55Z</time><extensions><speed>0.254160</speed><course>317.817535</course><hAcc>1.923380</hAcc><vAcc>0.593858</vAcc></extensions></trkpt>
      <trkpt lon="-3.033806" lat="52.708702"><ele>199.594177</ele><time>2022-01-15T13:43:56Z</time><extensions><speed>0.229675</speed><course>307.839478</course><hAcc>1.923630</hAcc><vAcc>0.601956</vAcc></extensions></trkpt>
      <trkpt lon="-3.033809" lat="52.708703"><ele>199.669022</ele><time>2022-01-15T13:43:57Z</time><extensions><speed>0.225029</speed><course>291.627747</course><hAcc>1.904536</hAcc><vAcc>0.611142</vAcc></extensions></trkpt>
      <trkpt lon="-3.033813" lat="52.708704"><ele>199.740707</ele><time>2022-01-15T13:43:58Z</time><extensions><speed>0.220391</speed><course>275.491089</course><hAcc>1.883410</hAcc><vAcc>0.620956</vAcc></extensions></trkpt>
      <trkpt lon="-3.033816" lat="52.708704"><ele>199.808594</ele><time>2022-01-15T13:43:59Z</time><extensions><speed>0.214432</speed><course>260.904510</course><hAcc>1.867534</hAcc><vAcc>0.631096</vAcc></extensions></trkpt>
      <trkpt lon="-3.033819" lat="52.708703"><ele>199.872116</ele><time>2022-01-15T13:44:00Z</time><extensions><speed>0.204400</speed><course>248.021271</course><hAcc>1.863929</hAcc><vAcc>0.641341</vAcc></extensions></trkpt>
      <trkpt lon="-3.033821" lat="52.708702"><ele>199.930923</ele><time>2022-01-15T13:44:01Z</time><extensions><speed>0.170931</speed><course>237.069122</course><hAcc>1.869907</hAcc><vAcc>0.651541</vAcc></extensions></trkpt>
      <trkpt lon="-3.033823" lat="52.708701"><ele>199.984848</ele><time>2022-01-15T13:44:02Z</time><extensions><speed>0.160463</speed><course>226.317993</course><hAcc>1.853743</hAcc><vAcc>0.661585</vAcc></extensions></trkpt>
      <trkpt lon="-3.033824" lat="52.708700"><ele>200.031784</ele><time>2022-01-15T13:44:03Z</time><extensions><speed>0.125788</speed><course>212.816818</course><hAcc>1.857385</hAcc><vAcc>0.671374</vAcc></extensions></trkpt>
      <trkpt lon="-3.033825" lat="52.708699"><ele>200.068878</ele><time>2022-01-15T13:44:04Z</time><extensions><speed>0.111400</speed><course>194.299179</course><hAcc>1.853580</hAcc><vAcc>0.680647</vAcc></extensions></trkpt>
      <trkpt lon="-3.033825" lat="52.708698"><ele>200.098618</ele><time>2022-01-15T13:44:05Z</time><extensions><speed>0.123857</speed><course>177.692688</course><hAcc>1.832859</hAcc><vAcc>0.689433</vAcc></extensions></trkpt>
      <trkpt lon="-3.033825" lat="52.708697"><ele>200.121521</ele><time>2022-01-15T13:44:06Z</time><extensions><speed>0.119766</speed><course>168.753830</course><hAcc>1.829114</hAcc><vAcc>0.697546</vAcc></extensions></trkpt>
      <trkpt lon="-3.033825" lat="52.708696"><ele>200.136887</ele><time>2022-01-15T13:44:07Z</time><extensions><speed>0.098734</speed><course>165.119019</course><hAcc>1.835439</hAcc><vAcc>0.704807</vAcc></extensions></trkpt>
      <trkpt lon="-3.033824" lat="52.708696"><ele>200.146545</ele><time>2022-01-15T13:44:08Z</time><extensions><speed>0.077456</speed><course>163.377411</course><hAcc>1.837653</hAcc><vAcc>0.711075</vAcc></extensions></trkpt>
      <trkpt lon="-3.033824" lat="52.708695"><ele>200.150421</ele><time>2022-01-15T13:44:09Z</time><extensions><speed>0.060565</speed><course>162.954102</course><hAcc>1.834892</hAcc><vAcc>0.716436</vAcc></extensions></trkpt>
      <trkpt lon="-3.033824" lat="52.708695"><ele>200.149002</ele><time>2022-01-15T13:44:10Z</time><extensions><speed>0.046106</speed><course>163.228638</course><hAcc>1.835267</hAcc><vAcc>0.720967</vAcc></extensions></trkpt>
      <trkpt lon="-3.033824" lat="52.708694"><ele>200.145477</ele><time>2022-01-15T13:44:11Z</time><extensions><speed>0.038017</speed><course>160.442215</course><hAcc>1.830986</hAcc><vAcc>0.724749</vAcc></extensions></trkpt>
      <trkpt lon="-3.033823" lat="52.708694"><ele>200.137573</ele><time>2022-01-15T13:44:12Z</time><extensions><speed>0.032426</speed><course>151.860580</course><hAcc>1.822159</hAcc><vAcc>0.727833</vAcc></extensions></trkpt>
      <trkpt lon="-3.033823" lat="52.708694"><ele>200.123657</ele><time>2022-01-15T13:44:13Z</time><extensions><speed>0.029448</speed><course>126.121437</course><hAcc>1.809566</hAcc><vAcc>0.730244</vAcc></extensions></trkpt>
      <trkpt lon="-3.033823" lat="52.708694"><ele>200.107193</ele><time>2022-01-15T13:44:14Z</time><extensions><speed>0.031076</speed><course>91.180191</course><hAcc>1.808101</hAcc><vAcc>0.732078</vAcc></extensions></trkpt>
      <trkpt lon="-3.033822" lat="52.708694"><ele>200.089096</ele><time>2022-01-15T13:44:15Z</time><extensions><speed>0.036951</speed><course>65.364052</course><hAcc>1.820466</hAcc><vAcc>0.733446</vAcc></extensions></trkpt>
      <trkpt lon="-3.033821" lat="52.708694"><ele>200.070160</ele><time>2022-01-15T13:44:16Z</time><extensions><speed>0.047084</speed><course>56.151493</course><hAcc>1.828982</hAcc><vAcc>0.734383</vAcc></extensions></trkpt>
      <trkpt lon="-3.033821" lat="52.708694"><ele>200.050995</ele><time>2022-01-15T13:44:17Z</time><extensions><speed>0.068326</speed><course>65.235046</course><hAcc>1.810379</hAcc><vAcc>0.734973</vAcc></extensions></trkpt>
      <trkpt lon="-3.033820" lat="52.708694"><ele>200.035629</ele><time>2022-01-15T13:44:18Z</time><extensions><speed>0.086553</speed><course>80.339890</course><hAcc>1.802441</hAcc><vAcc>0.735268</vAcc></extensions></trkpt>
      <trkpt lon="-3.033818" lat="52.708694"><ele>200.019531</ele><time>2022-01-15T13:44:19Z</time><extensions><speed>0.106574</speed><course>91.555382</course><hAcc>1.798544</hAcc><vAcc>0.735354</vAcc></extensions></trkpt>
      <trkpt lon="-3.033817" lat="52.708694"><ele>200.004501</ele><time>2022-01-15T13:44:20Z</time><extensions><speed>0.125524</speed><course>98.278107</course><hAcc>1.786305</hAcc><vAcc>0.735229</vAcc></extensions></trkpt>
      <trkpt lon="-3.033815" lat="52.708694"><ele>199.990646</ele><time>2022-01-15T13:44:21Z</time><extensions><speed>0.124990</speed><course>100.919136</course><hAcc>1.771531</hAcc><vAcc>0.734998</vAcc></extensions></trkpt>
      <trkpt lon="-3.033813" lat="52.708694"><ele>199.975037</ele><time>2022-01-15T13:44:22Z</time><extensions><speed>0.103176</speed><course>101.899162</course><hAcc>1.770274</hAcc><vAcc>0.734643</vAcc></extensions></trkpt>
      <trkpt lon="-3.033812" lat="52.708694"><ele>199.960052</ele><time>2022-01-15T13:44:23Z</time><extensions><speed>0.066228</speed><course>105.029213</course><hAcc>1.786915</hAcc><vAcc>0.734181</vAcc></extensions></trkpt>
      <trkpt lon="-3.033811" lat="52.708693"><ele>199.945831</ele><time>2022-01-15T13:44:24Z</time><extensions><speed>0.053360</speed><course>115.272881</course><hAcc>1.778135</hAcc><vAcc>0.733640</vAcc></extensions></trkpt>
      <trkpt lon="-3.033810" lat="52.708693"><ele>199.932419</ele><time>2022-01-15T13:44:25Z</time><extensions><speed>0.043732</speed><course>133.203674</course><hAcc>1.779556</hAcc><vAcc>0.733026</vAcc></extensions></trkpt>
      <trkpt lon="-3.033810" lat="52.708693"><ele>199.919800</ele><time>2022-01-15T13:44:26Z</time><extensions><speed>0.058351</speed><course>150.240936</course><hAcc>1.766538</hAcc><vAcc>0.732322</vAcc></extensions></trkpt>
      <trkpt lon="-3.033809" lat="52.708692"><ele>199.907883</ele><time>2022-01-15T13:44:27Z</time><extensions><speed>0.064441</speed><course>159.918549</course><hAcc>1.789447</hAcc><vAcc>0.731552</vAcc></extensions></trkpt>
      <trkpt lon="-3.033809" lat="52.708692"><ele>199.896500</ele><time>2022-01-15T13:44:28Z</time><extensions><speed>0.094022</speed><course>161.736008</course><hAcc>1.780954</hAcc><vAcc>0.730731</vAcc></extensions></trkpt>
      <trkpt lon="-3.033809" lat="52.708691"><ele>199.885513</ele><time>2022-01-15T13:44:29Z</time><extensions><speed>0.107532</speed><course>158.528580</course><hAcc>1.791010</hAcc><vAcc>0.729883</vAcc></extensions></trkpt>
      <trkpt lon="-3.033808" lat="52.708690"><ele>199.874878</ele><time>2022-01-15T13:44:30Z</time><extensions><speed>0.115604</speed><course>153.894806</course><hAcc>1.811637</hAcc><vAcc>0.729025</vAcc></extensions></trkpt>
      <trkpt lon="-3.033807" lat="52.708689"><ele>199.864624</ele><time>2022-01-15T13:44:31Z</time><extensions><speed>0.121272</speed><course>149.854706</course><hAcc>1.824226</hAcc><vAcc>0.728164</vAcc></extensions></trkpt>
      <trkpt lon="-3.033806" lat="52.708688"><ele>199.854843</ele><time>2022-01-15T13:44:32Z</time><extensions><speed>0.113625</speed><course>147.486176</course><hAcc>1.826357</hAcc><vAcc>0.727254</vAcc></extensions></trkpt>
      <trkpt lon="-3.033805" lat="52.708687"><ele>199.837006</ele><time>2022-01-15T13:44:33Z</time><extensions><speed>0.083649</speed><course>145.916763</course><hAcc>1.823532</hAcc><vAcc>0.726289</vAcc></extensions></trkpt>
      <trkpt lon="-3.033805" lat="52.708687"><ele>199.822632</ele><time>2022-01-15T13:44:34Z</time><extensions><speed>0.049899</speed><course>143.926559</course><hAcc>1.818890</hAcc><vAcc>0.725310</vAcc></extensions></trkpt>
      <trkpt lon="-3.033805" lat="52.708687"><ele>199.808121</ele><time>2022-01-15T13:44:35Z</time><extensions><speed>0.018156</speed><course>136.572174</course><hAcc>1.812118</hAcc><vAcc>0.724306</vAcc></extensions></trkpt>
      <trkpt lon="-3.033805" lat="52.708687"><ele>199.793503</ele><time>2022-01-15T13:44:36Z</time><extensions><speed>0.012780</speed><course>344.776245</course><hAcc>1.802428</hAcc><vAcc>0.723348</vAcc></extensions></trkpt>
      <trkpt lon="-3.033805" lat="52.708687"><ele>199.778778</ele><time>2022-01-15T13:44:37Z</time><extensions><speed>0.041927</speed><course>333.557312</course><hAcc>1.789918</hAcc><vAcc>0.722436</vAcc></extensions></trkpt>
      <trkpt lon="-3.033805" lat="52.708688"><ele>199.763992</ele><time>2022-01-15T13:44:38Z</time><extensions><speed>0.071664</speed><course>331.730072</course><hAcc>1.783207</hAcc><vAcc>0.721640</vAcc></extensions></trkpt>
      <trkpt lon="-3.033806" lat="52.708688"><ele>199.749176</ele><time>2022-01-15T13:44:39Z</time><extensions><speed>0.100596</speed><course>331.065460</course><hAcc>1.786647</hAcc><vAcc>0.720967</vAcc></extensions></trkpt>
      <trkpt lon="-3.033807" lat="52.708689"><ele>199.734421</ele><time>2022-01-15T13:44:40Z</time><extensions><speed>0.140452</speed><course>330.767609</course><hAcc>1.785394</hAcc><vAcc>0.720467</vAcc></extensions></trkpt>
      <trkpt lon="-3.033808" lat="52.708690"><ele>199.719879</ele><time>2022-01-15T13:44:41Z</time><extensions><speed>0.192079</speed><course>330.615082</course><hAcc>1.774395</hAcc><vAcc>0.720139</vAcc></extensions></trkpt>
      <trkpt lon="-3.033810" lat="52.708692"><ele>199.705795</ele><time>2022-01-15T13:44:42Z</time><extensions><speed>0.265912</speed><course>330.511383</course><hAcc>1.744825</hAcc><vAcc>0.719991</vAcc></extensions></trkpt>
      <trkpt lon="-3.033812" lat="52.708694"><ele>199.692474</ele><time>2022-01-15T13:44:43Z</time><extensions><speed>0.270928</speed><course>330.369232</course><hAcc>1.734822</hAcc><vAcc>0.720043</vAcc></extensions></trkpt>
      <trkpt lon="-3.033813" lat="52.708696"><ele>199.680283</ele><time>2022-01-15T13:44:44Z</time><extensions><speed>0.197337</speed><course>330.207764</course><hAcc>1.756670</hAcc><vAcc>0.720284</vAcc></extensions></trkpt>
      <trkpt lon="-3.033815" lat="52.708697"><ele>199.669357</ele><time>2022-01-15T13:44:45Z</time><extensions><speed>0.131763</speed><course>330.113434</course><hAcc>1.785093</hAcc><vAcc>0.720708</vAcc></extensions></trkpt>
      <trkpt lon="-3.033815" lat="52.708698"><ele>199.659729</ele><time>2022-01-15T13:44:46Z</time><extensions><speed>0.076307</speed><course>330.049652</course><hAcc>1.809176</hAcc><vAcc>0.721333</vAcc></extensions></trkpt>
      <trkpt lon="-3.033816" lat="52.708699"><ele>199.651367</ele><time>2022-01-15T13:44:47Z</time><extensions><speed>0.081969</speed><course>330.011841</course><hAcc>1.773139</hAcc><vAcc>0.722151</vAcc></extensions></trkpt>
      <trkpt lon="-3.033817" lat="52.708700"><ele>199.644241</ele><time>2022-01-15T13:44:48Z</time><extensions><speed>0.070639</speed><course>329.996765</course><hAcc>1.767698</hAcc><vAcc>0.723142</vAcc></extensions></trkpt>
      <trkpt lon="-3.033817" lat="52.708700"><ele>199.638260</ele><time>2022-01-15T13:44:49Z</time><extensions><speed>0.054296</speed><course>329.988434</course><hAcc>1.791121</hAcc><vAcc>0.724287</vAcc></extensions></trkpt>
      <trkpt lon="-3.033817" lat="52.708700"><ele>199.649338</ele><time>2022-01-15T13:44:50Z</time><extensions><speed>0.037415</speed><course>334.514587</course><hAcc>1.816698</hAcc><vAcc>0.725466</vAcc></extensions></trkpt>
      <trkpt lon="-3.033817" lat="52.708701"><ele>199.659134</ele><time>2022-01-15T13:44:51Z</time><extensions><speed>0.025830</speed><course>344.884125</course><hAcc>1.828703</hAcc><vAcc>0.726692</vAcc></extensions></trkpt>
      <trkpt lon="-3.033817" lat="52.708701"><ele>199.675323</ele><time>2022-01-15T13:44:52Z</time><extensions><speed>0.020815</speed><course>2.337941</course><hAcc>1.832114</hAcc><vAcc>0.728069</vAcc></extensions></trkpt>
      <trkpt lon="-3.033817" lat="52.708701"><ele>199.695572</ele><time>2022-01-15T13:44:53Z</time><extensions><speed>0.021650</speed><course>23.063925</course><hAcc>1.830941</hAcc><vAcc>0.729498</vAcc></extensions></trkpt>
      <trkpt lon="-3.033817" lat="52.708701"><ele>199.719604</ele><time>2022-01-15T13:44:54Z</time><extensions><speed>0.028205</speed><course>36.888752</course><hAcc>1.825863</hAcc><vAcc>0.731025</vAcc></extensions></trkpt>
      <trkpt lon="-3.033817" lat="52.708702"><ele>199.748108</ele><time>2022-01-15T13:44:55Z</time><extensions><speed>0.036989</speed><course>38.639877</course><hAcc>1.823675</hAcc><vAcc>0.732596</vAcc></extensions></trkpt>
      <trkpt lon="-3.033817" lat="52.708702"><ele>199.778488</ele><time>2022-01-15T13:44:56Z</time><extensions><speed>0.049349</speed><course>36.875172</course><hAcc>1.821439</hAcc><vAcc>0.734140</vAcc></extensions></trkpt>
      <trkpt lon="-3.033816" lat="52.708702"><ele>199.813019</ele><time>2022-01-15T13:44:57Z</time><extensions><speed>0.064037</speed><course>32.564674</course><hAcc>1.823371</hAcc><vAcc>0.735678</vAcc></extensions></trkpt>
      <trkpt lon="-3.033816" lat="52.708703"><ele>199.850037</ele><time>2022-01-15T13:44:58Z</time><extensions><speed>0.084062</speed><course>25.708433</course><hAcc>1.824402</hAcc><vAcc>0.737205</vAcc></extensions></trkpt>
      <trkpt lon="-3.033815" lat="52.708704"><ele>199.888748</ele><time>2022-01-15T13:44:59Z</time><extensions><speed>0.104287</speed><course>13.844490</course><hAcc>1.826122</hAcc><vAcc>0.738769</vAcc></extensions></trkpt>
      <trkpt lon="-3.033815" lat="52.708705"><ele>199.928131</ele><time>2022-01-15T13:45:00Z</time><extensions><speed>0.138845</speed><course>353.181091</course><hAcc>1.814360</hAcc><vAcc>0.740346</vAcc></extensions></trkpt>
      <trkpt lon="-3.033816" lat="52.708706"><ele>199.967087</ele><time>2022-01-15T13:45:01Z</time><extensions><speed>0.177333</speed><course>331.970764</course><hAcc>1.812627</hAcc><vAcc>0.741984</vAcc></extensions></trkpt>
      <trkpt lon="-3.033818" lat="52.708708"><ele>200.004639</ele><time>2022-01-15T13:45:02Z</time><extensions><speed>0.212889</speed><course>317.442078</course><hAcc>1.815109</hAcc><vAcc>0.743587</vAcc></extensions></trkpt>
      <trkpt lon="-3.033820" lat="52.708709"><ele>200.040161</ele><time>2022-01-15T13:45:03Z</time><extensions><speed>0.243381</speed><course>307.119080</course><hAcc>1.812851</hAcc><vAcc>0.745179</vAcc></extensions></trkpt>
      <trkpt lon="-3.033823" lat="52.708710"><ele>200.073120</ele><time>2022-01-15T13:45:04Z</time><extensions><speed>0.266753</speed><course>300.025574</course><hAcc>1.804318</hAcc><vAcc>0.746719</vAcc></extensions></trkpt>
      <trkpt lon="-3.033827" lat="52.708711"><ele>200.103226</ele><time>2022-01-15T13:45:05Z</time><extensions><speed>0.270120</speed><course>295.922699</course><hAcc>1.785648</hAcc><vAcc>0.748170</vAcc></extensions></trkpt>
      <trkpt lon="-3.033830" lat="52.708712"><ele>200.130280</ele><time>2022-01-15T13:45:06Z</time><extensions><speed>0.228710</speed><course>293.778870</course><hAcc>1.771232</hAcc><vAcc>0.749530</vAcc></extensions></trkpt>
      <trkpt lon="-3.033833" lat="52.708713"><ele>200.154282</ele><time>2022-01-15T13:45:07Z</time><extensions><speed>0.163626</speed><course>292.609375</course><hAcc>1.766302</hAcc><vAcc>0.750801</vAcc></extensions></trkpt>
      <trkpt lon="-3.033835" lat="52.708714"><ele>200.187668</ele><time>2022-01-15T13:45:08Z</time><extensions><speed>0.122960</speed><course>292.231079</course><hAcc>1.756595</hAcc><vAcc>0.752014</vAcc></extensions></trkpt>
      <trkpt lon="-3.033837" lat="52.708714"><ele>200.227066</ele><time>2022-01-15T13:45:09Z</time><extensions><speed>0.095349</speed><course>292.496887</course><hAcc>1.748724</hAcc><vAcc>0.753164</vAcc></extensions></trkpt>
      <trkpt lon="-3.033838" lat="52.708714"><ele>200.214996</ele><time>2022-01-15T13:45:10Z</time><extensions><speed>0.085000</speed><course>293.663086</course><hAcc>1.742578</hAcc><vAcc>0.754116</vAcc></extensions></trkpt>
      <trkpt lon="-3.033840" lat="52.708715"><ele>200.198349</ele><time>2022-01-15T13:45:11Z</time><extensions><speed>0.088952</speed><course>294.522278</course><hAcc>1.739069</hAcc><vAcc>0.754803</vAcc></extensions></trkpt>
      <trkpt lon="-3.033841" lat="52.708715"><ele>200.210083</ele><time>2022-01-15T13:45:12Z</time><extensions><speed>0.110690</speed><course>295.354492</course><hAcc>1.733847</hAcc><vAcc>0.755013</vAcc></extensions></trkpt>
      <trkpt lon="-3.033843" lat="52.708716"><ele>200.231171</ele><time>2022-01-15T13:45:13Z</time><extensions><speed>0.154545</speed><course>295.903900</course><hAcc>1.738357</hAcc><vAcc>0.754334</vAcc></extensions></trkpt>
      <trkpt lon="-3.033845" lat="52.708716"><ele>200.256165</ele><time>2022-01-15T13:45:14Z</time><extensions><speed>0.177349</speed><course>296.078491</course><hAcc>1.776822</hAcc><vAcc>0.752517</vAcc></extensions></trkpt>
      <trkpt lon="-3.033849" lat="52.708717"><ele>200.290268</ele><time>2022-01-15T13:45:15Z</time><extensions><speed>0.327228</speed><course>295.999481</course><hAcc>1.760337</hAcc><vAcc>0.749546</vAcc></extensions></trkpt>
      <trkpt lon="-3.033854" lat="52.708719"><ele>200.325912</ele><time>2022-01-15T13:45:16Z</time><extensions><speed>0.457697</speed><course>295.809448</course><hAcc>1.760224</hAcc><vAcc>0.745352</vAcc></extensions></trkpt>
      <trkpt lon="-3.033861" lat="52.708721"><ele>200.362579</ele><time>2022-01-15T13:45:17Z</time><extensions><speed>0.556383</speed><course>295.687622</course><hAcc>1.776841</hAcc><vAcc>0.739376</vAcc></extensions></trkpt>
      <trkpt lon="-3.033868" lat="52.708723"><ele>200.407516</ele><time>2022-01-15T13:45:18Z</time><extensions><speed>0.565426</speed><course>295.399353</course><hAcc>1.792657</hAcc><vAcc>0.731587</vAcc></extensions></trkpt>
      <trkpt lon="-3.033875" lat="52.708725"><ele>200.457153</ele><time>2022-01-15T13:45:19Z</time><extensions><speed>0.491234</speed><course>294.579529</course><hAcc>1.801767</hAcc><vAcc>0.721753</vAcc></extensions></trkpt>
      <trkpt lon="-3.033881" lat="52.708727"><ele>200.515762</ele><time>2022-01-15T13:45:20Z</time><extensions><speed>0.378451</speed><course>292.861206</course><hAcc>1.812321</hAcc><vAcc>0.709727</vAcc></extensions></trkpt>
      <trkpt lon="-3.033885" lat="52.708728"><ele>200.582016</ele><time>2022-01-15T13:45:21Z</time><extensions><speed>0.256738</speed><course>290.783936</course><hAcc>1.828092</hAcc><vAcc>0.695485</vAcc></extensions></trkpt>
      <trkpt lon="-3.033888" lat="52.708728"><ele>200.656189</ele><time>2022-01-15T13:45:22Z</time><extensions><speed>0.174995</speed><course>289.293457</course><hAcc>1.829738</hAcc><vAcc>0.679129</vAcc></extensions></trkpt>
      <trkpt lon="-3.033890" lat="52.708729"><ele>200.736710</ele><time>2022-01-15T13:45:23Z</time><extensions><speed>0.132898</speed><course>288.151794</course><hAcc>1.815701</hAcc><vAcc>0.660987</vAcc></extensions></trkpt>
      <trkpt lon="-3.033892" lat="52.708729"><ele>200.840729</ele><time>2022-01-15T13:45:24Z</time><extensions><speed>0.085631</speed><course>292.739197</course><hAcc>1.827193</hAcc><vAcc>0.641553</vAcc></extensions></trkpt>
      <trkpt lon="-3.033892" lat="52.708729"><ele>200.943298</ele><time>2022-01-15T13:45:25Z</time><extensions><speed>0.040601</speed><course>318.328156</course><hAcc>1.868583</hAcc><vAcc>0.621343</vAcc></extensions></trkpt>
      <trkpt lon="-3.033892" lat="52.708729"><ele>201.052612</ele><time>2022-01-15T13:45:26Z</time><extensions><speed>0.030200</speed><course>28.825207</course><hAcc>1.909326</hAcc><vAcc>0.600852</vAcc></extensions></trkpt>
      <trkpt lon="-3.033892" lat="52.708730"><ele>201.156815</ele><time>2022-01-15T13:45:27Z</time><extensions><speed>0.058506</speed><course>57.817554</course><hAcc>1.912711</hAcc><vAcc>0.580374</vAcc></extensions></trkpt>
      <trkpt lon="-3.033891" lat="52.708730"><ele>201.254623</ele><time>2022-01-15T13:45:28Z</time><extensions><speed>0.060543</speed><course>77.509941</course><hAcc>1.951421</hAcc><vAcc>0.560453</vAcc></extensions></trkpt>
      <trkpt lon="-3.033889" lat="52.708730"><ele>201.345428</ele><time>2022-01-15T13:45:29Z</time><extensions><speed>0.109004</speed><course>98.567368</course><hAcc>1.945938</hAcc><vAcc>0.541618</vAcc></extensions></trkpt>
      <trkpt lon="-3.033887" lat="52.708729"><ele>201.426147</ele><time>2022-01-15T13:45:30Z</time><extensions><speed>0.167737</speed><course>110.414719</course><hAcc>1.961418</hAcc><vAcc>0.524274</vAcc></extensions></trkpt>
      <trkpt lon="-3.033884" lat="52.708729"><ele>201.497803</ele><time>2022-01-15T13:45:31Z</time><extensions><speed>0.217510</speed><course>116.377617</course><hAcc>2.009978</hAcc><vAcc>0.508965</vAcc></extensions></trkpt>
      <trkpt lon="-3.033881" lat="52.708728"><ele>201.555374</ele><time>2022-01-15T13:45:32Z</time><extensions><speed>0.248623</speed><course>117.664673</course><hAcc>2.061491</hAcc><vAcc>0.496608</vAcc></extensions></trkpt>
      <trkpt lon="-3.033877" lat="52.708726"><ele>201.593597</ele><time>2022-01-15T13:45:33Z</time><extensions><speed>0.297253</speed><course>116.592941</course><hAcc>2.091002</hAcc><vAcc>0.488368</vAcc></extensions></trkpt>
      <trkpt lon="-3.033873" lat="52.708725"><ele>201.610458</ele><time>2022-01-15T13:45:34Z</time><extensions><speed>0.312263</speed><course>115.594955</course><hAcc>2.117145</hAcc><vAcc>0.485295</vAcc></extensions></trkpt>
      <trkpt lon="-3.033868" lat="52.708724"><ele>201.601013</ele><time>2022-01-15T13:45:35Z</time><extensions><speed>0.378464</speed><course>115.323311</course><hAcc>2.106124</hAcc><vAcc>0.487669</vAcc></extensions></trkpt>
      <trkpt lon="-3.033863" lat="52.708722"><ele>201.573685</ele><time>2022-01-15T13:45:36Z</time><extensions><speed>0.410503</speed><course>114.801682</course><hAcc>2.083953</hAcc><vAcc>0.495078</vAcc></extensions></trkpt>
      <trkpt lon="-3.033857" lat="52.708721"><ele>201.532364</ele><time>2022-01-15T13:45:37Z</time><extensions><speed>0.407612</speed><course>114.714775</course><hAcc>2.061471</hAcc><vAcc>0.506158</vAcc></extensions></trkpt>
      <trkpt lon="-3.033852" lat="52.708719"><ele>201.476334</ele><time>2022-01-15T13:45:38Z</time><extensions><speed>0.411906</speed><course>116.356323</course><hAcc>2.029960</hAcc><vAcc>0.518832</vAcc></extensions></trkpt>
      <trkpt lon="-3.033846" lat="52.708717"><ele>201.409241</ele><time>2022-01-15T13:45:39Z</time><extensions><speed>0.413551</speed><course>117.734497</course><hAcc>1.994759</hAcc><vAcc>0.530625</vAcc></extensions></trkpt>
      <trkpt lon="-3.033841" lat="52.708716"><ele>201.333237</ele><time>2022-01-15T13:45:40Z</time><extensions><speed>0.396819</speed><course>118.042160</course><hAcc>1.966519</hAcc><vAcc>0.539038</vAcc></extensions></trkpt>
      <trkpt lon="-3.033836" lat="52.708714"><ele>201.251175</ele><time>2022-01-15T13:45:41Z</time><extensions><speed>0.367373</speed><course>117.969719</course><hAcc>1.952768</hAcc><vAcc>0.542062</vAcc></extensions></trkpt>
      <trkpt lon="-3.033831" lat="52.708713"><ele>201.162811</ele><time>2022-01-15T13:45:42Z</time><extensions><speed>0.336440</speed><course>118.542671</course><hAcc>1.961918</hAcc><vAcc>0.538660</vAcc></extensions></trkpt>
      <trkpt lon="-3.033828" lat="52.708711"><ele>201.077774</ele><time>2022-01-15T13:45:43Z</time><extensions><speed>0.275677</speed><course>121.108307</course><hAcc>2.007004</hAcc><vAcc>0.528929</vAcc></extensions></trkpt>
      <trkpt lon="-3.033825" lat="52.708710"><ele>200.992294</ele><time>2022-01-15T13:45:44Z</time><extensions><speed>0.221589</speed><course>125.080650</course><hAcc>2.063033</hAcc><vAcc>0.513775</vAcc></extensions></trkpt>
      <trkpt lon="-3.033822" lat="52.708709"><ele>200.911880</ele><time>2022-01-15T13:45:45Z</time><extensions><speed>0.172808</speed><course>130.021225</course><hAcc>2.125988</hAcc><vAcc>0.495051</vAcc></extensions></trkpt>
      <trkpt lon="-3.033820" lat="52.708708"><ele>200.839890</ele><time>2022-01-15T13:45:46Z</time><extensions><speed>0.110352</speed><course>136.150650</course><hAcc>2.202373</hAcc><vAcc>0.474999</vAcc></extensions></trkpt>
      <trkpt lon="-3.033819" lat="52.708707"><ele>200.773682</ele><time>2022-01-15T13:45:47Z</time><extensions><speed>0.065241</speed><course>149.293243</course><hAcc>2.250941</hAcc><vAcc>0.455894</vAcc></extensions></trkpt>
      <trkpt lon="-3.033819" lat="52.708707"><ele>200.713516</ele><time>2022-01-15T13:45:48Z</time><extensions><speed>0.048192</speed><course>172.652267</course><hAcc>2.259030</hAcc><vAcc>0.439716</vAcc></extensions></trkpt>
      <trkpt lon="-3.033819" lat="52.708707"><ele>200.659729</ele><time>2022-01-15T13:45:49Z</time><extensions><speed>0.041343</speed><course>179.144073</course><hAcc>2.251305</hAcc><vAcc>0.428026</vAcc></extensions></trkpt>
      <trkpt lon="-3.033818" lat="52.708706"><ele>200.612595</ele><time>2022-01-15T13:45:50Z</time><extensions><speed>0.036933</speed><course>159.098557</course><hAcc>2.234288</hAcc><vAcc>0.421523</vAcc></extensions></trkpt>
      <trkpt lon="-3.033818" lat="52.708706"><ele>200.571487</ele><time>2022-01-15T13:45:51Z</time><extensions><speed>0.043743</speed><course>130.076813</course><hAcc>2.205175</hAcc><vAcc>0.420184</vAcc></extensions></trkpt>
      <trkpt lon="-3.033817" lat="52.708706"><ele>200.535629</ele><time>2022-01-15T13:45:52Z</time><extensions><speed>0.049933</speed><course>107.519592</course><hAcc>2.201094</hAcc><vAcc>0.423489</vAcc></extensions></trkpt>
      <trkpt lon="-3.033816" lat="52.708706"><ele>200.504303</ele><time>2022-01-15T13:45:53Z</time><extensions><speed>0.067848</speed><course>95.511200</course><hAcc>2.192876</hAcc><vAcc>0.430461</vAcc></extensions></trkpt>
      <trkpt lon="-3.033815" lat="52.708706"><ele>200.477325</ele><time>2022-01-15T13:45:54Z</time><extensions><speed>0.077576</speed><course>83.134804</course><hAcc>2.188670</hAcc><vAcc>0.439752</vAcc></extensions></trkpt>
      <trkpt lon="-3.033813" lat="52.708707"><ele>200.454742</ele><time>2022-01-15T13:45:55Z</time><extensions><speed>0.135511</speed><course>71.365952</course><hAcc>2.128652</hAcc><vAcc>0.449854</vAcc></extensions></trkpt>
      <trkpt lon="-3.033811" lat="52.708707"><ele>200.436996</ele><time>2022-01-15T13:45:56Z</time><extensions><speed>0.164454</speed><course>61.169521</course><hAcc>2.087362</hAcc><vAcc>0.459375</vAcc></extensions></trkpt>
      <trkpt lon="-3.033809" lat="52.708708"><ele>200.424240</ele><time>2022-01-15T13:45:57Z</time><extensions><speed>0.170052</speed><course>51.559013</course><hAcc>2.082412</hAcc><vAcc>0.467231</vAcc></extensions></trkpt>
      <trkpt lon="-3.033807" lat="52.708709"><ele>200.418594</ele><time>2022-01-15T13:45:58Z</time><extensions><speed>0.164400</speed><course>42.597561</course><hAcc>2.103808</hAcc><vAcc>0.472713</vAcc></extensions></trkpt>
      <trkpt lon="-3.033806" lat="52.708710"><ele>200.417267</ele><time>2022-01-15T13:45:59Z</time><extensions><speed>0.139440</speed><course>35.162914</course><hAcc>2.132406</hAcc><vAcc>0.475487</vAcc></extensions></trkpt>
      <trkpt lon="-3.033804" lat="52.708712"><ele>200.422546</ele><time>2022-01-15T13:46:00Z</time><extensions><speed>0.198782</speed><course>31.389156</course><hAcc>2.101541</hAcc><vAcc>0.475604</vAcc></extensions></trkpt>
      <trkpt lon="-3.033803" lat="52.708713"><ele>200.433243</ele><time>2022-01-15T13:46:01Z</time><extensions><speed>0.224870</speed><course>30.219646</course><hAcc>2.086945</hAcc><vAcc>0.473295</vAcc></extensions></trkpt>
      <trkpt lon="-3.033801" lat="52.708715"><ele>200.448669</ele><time>2022-01-15T13:46:02Z</time><extensions><speed>0.216374</speed><course>31.724119</course><hAcc>2.095261</hAcc><vAcc>0.469217</vAcc></extensions></trkpt>
      <trkpt lon="-3.033799" lat="52.708716"><ele>200.467773</ele><time>2022-01-15T13:46:03Z</time><extensions><speed>0.191108</speed><course>34.963615</course><hAcc>2.109293</hAcc><vAcc>0.464261</vAcc></extensions></trkpt>
      <trkpt lon="-3.033797" lat="52.708717"><ele>200.489426</ele><time>2022-01-15T13:46:04Z</time><extensions><speed>0.160315</speed><course>39.717823</course><hAcc>2.142234</hAcc><vAcc>0.459507</vAcc></extensions></trkpt>
      <trkpt lon="-3.033796" lat="52.708718"><ele>200.512344</ele><time>2022-01-15T13:46:05Z</time><extensions><speed>0.084869</speed><course>49.489971</course><hAcc>2.198025</hAcc><vAcc>0.456014</vAcc></extensions></trkpt>
      <trkpt lon="-3.033795" lat="52.708719"><ele>200.535416</ele><time>2022-01-15T13:46:06Z</time><extensions><speed>0.094605</speed><course>68.704140</course><hAcc>2.165033</hAcc><vAcc>0.454523</vAcc></extensions></trkpt>
      <trkpt lon="-3.033793" lat="52.708719"><ele>200.555099</ele><time>2022-01-15T13:46:07Z</time><extensions><speed>0.099384</speed><course>91.056297</course><hAcc>2.139791</hAcc><vAcc>0.455350</vAcc></extensions></trkpt>
      <trkpt lon="-3.033792" lat="52.708719"><ele>200.571304</ele><time>2022-01-15T13:46:08Z</time><extensions><speed>0.116576</speed><course>108.091042</course><hAcc>2.128242</hAcc><vAcc>0.458459</vAcc></extensions></trkpt>
      <trkpt lon="-3.033790" lat="52.708718"><ele>200.583664</ele><time>2022-01-15T13:46:09Z</time><extensions><speed>0.134933</speed><course>117.460754</course><hAcc>2.126233</hAcc><vAcc>0.463601</vAcc></extensions></trkpt>
      <trkpt lon="-3.033788" lat="52.708718"><ele>200.591492</ele><time>2022-01-15T13:46:10Z</time><extensions><speed>0.135799</speed><course>120.988274</course><hAcc>2.136050</hAcc><vAcc>0.470288</vAcc></extensions></trkpt>
      <trkpt lon="-3.033787" lat="52.708717"><ele>200.593399</ele><time>2022-01-15T13:46:11Z</time><extensions><speed>0.125588</speed><course>121.661247</course><hAcc>2.141995</hAcc><vAcc>0.477814</vAcc></extensions></trkpt>
      <trkpt lon="-3.033785" lat="52.708717"><ele>200.585388</ele><time>2022-01-15T13:46:12Z</time><extensions><speed>0.134903</speed><course>116.004501</course><hAcc>2.116685</hAcc><vAcc>0.485653</vAcc></extensions></trkpt>
      <trkpt lon="-3.033783" lat="52.708716"><ele>200.561966</ele><time>2022-01-15T13:46:13Z</time><extensions><speed>0.130067</speed><course>103.292000</course><hAcc>2.101357</hAcc><vAcc>0.493680</vAcc></extensions></trkpt>
      <trkpt lon="-3.033781" lat="52.708716"><ele>200.522202</ele><time>2022-01-15T13:46:14Z</time><extensions><speed>0.126024</speed><course>86.764847</course><hAcc>2.101287</hAcc><vAcc>0.502082</vAcc></extensions></trkpt>
      <trkpt lon="-3.033779" lat="52.708716"><ele>200.466858</ele><time>2022-01-15T13:46:15Z</time><extensions><speed>0.132910</speed><course>71.983772</course><hAcc>2.095937</hAcc><vAcc>0.511193</vAcc></extensions></trkpt>
      <trkpt lon="-3.033778" lat="52.708717"><ele>200.421539</ele><time>2022-01-15T13:46:16Z</time><extensions><speed>0.118386</speed><course>62.065659</course><hAcc>2.087785</hAcc><vAcc>0.521158</vAcc></extensions></trkpt>
      <trkpt lon="-3.033777" lat="52.708717"><ele>200.375427</ele><time>2022-01-15T13:46:17Z</time><extensions><speed>0.076144</speed><course>53.376396</course><hAcc>2.069848</hAcc><vAcc>0.531996</vAcc></extensions></trkpt>
      <trkpt lon="-3.033776" lat="52.708717"><ele>200.328171</ele><time>2022-01-15T13:46:18Z</time><extensions><speed>0.016039</speed><course>47.028214</course><hAcc>2.035839</hAcc><vAcc>0.543174</vAcc></extensions></trkpt>
      <trkpt lon="-3.033776" lat="52.708717"><ele>200.282150</ele><time>2022-01-15T13:46:19Z</time><extensions><speed>0.049172</speed><course>225.064331</course><hAcc>1.985420</hAcc><vAcc>0.553459</vAcc></extensions></trkpt>
      <trkpt lon="-3.033777" lat="52.708716"><ele>200.240219</ele><time>2022-01-15T13:46:20Z</time><extensions><speed>0.107674</speed><course>223.884064</course><hAcc>1.927760</hAcc><vAcc>0.561411</vAcc></extensions></trkpt>
      <trkpt lon="-3.033778" lat="52.708716"><ele>200.204010</ele><time>2022-01-15T13:46:21Z</time><extensions><speed>0.136568</speed><course>221.556061</course><hAcc>1.887706</hAcc><vAcc>0.565865</vAcc></extensions></trkpt>
      <trkpt lon="-3.033780" lat="52.708715"><ele>200.174408</ele><time>2022-01-15T13:46:22Z</time><extensions><speed>0.146082</speed><course>218.174637</course><hAcc>1.864916</hAcc><vAcc>0.565973</vAcc></extensions></trkpt>
      <trkpt lon="-3.033781" lat="52.708713"><ele>200.151566</ele><time>2022-01-15T13:46:23Z</time><extensions><speed>0.126508</speed><course>212.885162</course><hAcc>1.882409</hAcc><vAcc>0.561396</vAcc></extensions></trkpt>
      <trkpt lon="-3.033781" lat="52.708712"><ele>200.135422</ele><time>2022-01-15T13:46:24Z</time><extensions><speed>0.114057</speed><course>206.023010</course><hAcc>1.915043</hAcc><vAcc>0.552362</vAcc></extensions></trkpt>
      <trkpt lon="-3.033782" lat="52.708711"><ele>200.125305</ele><time>2022-01-15T13:46:25Z</time><extensions><speed>0.115678</speed><course>197.830902</course><hAcc>1.940355</hAcc><vAcc>0.539468</vAcc></extensions></trkpt>
      <trkpt lon="-3.033783" lat="52.708710"><ele>200.118744</ele><time>2022-01-15T13:46:26Z</time><extensions><speed>0.180306</speed><course>189.339188</course><hAcc>1.927857</hAcc><vAcc>0.523616</vAcc></extensions></trkpt>
      <trkpt lon="-3.033783" lat="52.708708"><ele>200.111862</ele><time>2022-01-15T13:46:27Z</time><extensions><speed>0.210659</speed><course>180.465424</course><hAcc>1.953937</hAcc><vAcc>0.505765</vAcc></extensions></trkpt>
      <trkpt lon="-3.033782" lat="52.708706"><ele>200.101257</ele><time>2022-01-15T13:46:28Z</time><extensions><speed>0.232001</speed><course>171.413147</course><hAcc>2.009832</hAcc><vAcc>0.486808</vAcc></extensions></trkpt>
      <trkpt lon="-3.033782" lat="52.708704"><ele>200.084991</ele><time>2022-01-15T13:46:29Z</time><extensions><speed>0.253965</speed><course>163.360611</course><hAcc>2.065655</hAcc><vAcc>0.467459</vAcc></extensions></trkpt>
      <trkpt lon="-3.033780" lat="52.708702"><ele>200.062531</ele><time>2022-01-15T13:46:30Z</time><extensions><speed>0.272668</speed><course>156.961670</course><hAcc>2.106882</hAcc><vAcc>0.448213</vAcc></extensions></trkpt>
      <trkpt lon="-3.033779" lat="52.708700"><ele>200.039551</ele><time>2022-01-15T13:46:31Z</time><extensions><speed>0.283625</speed><course>156.425430</course><hAcc>2.136100</hAcc><vAcc>0.429947</vAcc></extensions></trkpt>
      <trkpt lon="-3.033778" lat="52.708697"><ele>200.014847</ele><time>2022-01-15T13:46:32Z</time><extensions><speed>0.240104</speed><course>159.598724</course><hAcc>2.179055</hAcc><vAcc>0.413062</vAcc></extensions></trkpt>
      <trkpt lon="-3.033778" lat="52.708695"><ele>199.983887</ele><time>2022-01-15T13:46:33Z</time><extensions><speed>0.168556</speed><course>167.172012</course><hAcc>2.219186</hAcc><vAcc>0.398619</vAcc></extensions></trkpt>
      <trkpt lon="-3.033778" lat="52.708694"><ele>199.949722</ele><time>2022-01-15T13:46:34Z</time><extensions><speed>0.129373</speed><course>181.833649</course><hAcc>2.219762</hAcc><vAcc>0.386972</vAcc></extensions></trkpt>
      <trkpt lon="-3.033779" lat="52.708693"><ele>199.913956</ele><time>2022-01-15T13:46:35Z</time><extensions><speed>0.120749</speed><course>201.656326</course><hAcc>2.196336</hAcc><vAcc>0.378027</vAcc></extensions></trkpt>
      <trkpt lon="-3.033780" lat="52.708692"><ele>199.877060</ele><time>2022-01-15T13:46:36Z</time><extensions><speed>0.126689</speed><course>219.192413</course><hAcc>2.180396</hAcc><vAcc>0.371682</vAcc></extensions></trkpt>
      <trkpt lon="-3.033781" lat="52.708691"><ele>199.839035</ele><time>2022-01-15T13:46:37Z</time><extensions><speed>0.140313</speed><course>231.218765</course><hAcc>2.178194</hAcc><vAcc>0.367519</vAcc></extensions></trkpt>
      <trkpt lon="-3.033783" lat="52.708690"><ele>199.797577</ele><time>2022-01-15T13:46:38Z</time><extensions><speed>0.162230</speed><course>237.393753</course><hAcc>2.182521</hAcc><vAcc>0.365172</vAcc></extensions></trkpt>
      <trkpt lon="-3.033786" lat="52.708689"><ele>199.768036</ele><time>2022-01-15T13:46:39Z</time><extensions><speed>0.197973</speed><course>240.386963</course><hAcc>2.186882</hAcc><vAcc>0.364496</vAcc></extensions></trkpt>
      <trkpt lon="-3.033788" lat="52.708688"><ele>199.734726</ele><time>2022-01-15T13:46:40Z</time><extensions><speed>0.225770</speed><course>241.699295</course><hAcc>2.192655</hAcc><vAcc>0.364886</vAcc></extensions></trkpt>
      <trkpt lon="-3.033792" lat="52.708687"><ele>199.672226</ele><time>2022-01-15T13:46:41Z</time><extensions><speed>0.287254</speed><course>241.227554</course><hAcc>2.183917</hAcc><vAcc>0.365973</vAcc></extensions></trkpt>
      <trkpt lon="-3.033795" lat="52.708685"><ele>199.615616</ele><time>2022-01-15T13:46:42Z</time><extensions><speed>0.251199</speed><course>239.376572</course><hAcc>2.203319</hAcc><vAcc>0.367318</vAcc></extensions></trkpt>
      <trkpt lon="-3.033799" lat="52.708684"><ele>199.564346</ele><time>2022-01-15T13:46:43Z</time><extensions><speed>0.262302</speed><course>235.788284</course><hAcc>2.200337</hAcc><vAcc>0.368302</vAcc></extensions></trkpt>
      <trkpt lon="-3.033802" lat="52.708683"><ele>199.512833</ele><time>2022-01-15T13:46:44Z</time><extensions><speed>0.261102</speed><course>231.160904</course><hAcc>2.200238</hAcc><vAcc>0.368784</vAcc></extensions></trkpt>
      <trkpt lon="-3.033804" lat="52.708681"><ele>199.456619</ele><time>2022-01-15T13:46:45Z</time><extensions><speed>0.227646</speed><course>225.609909</course><hAcc>2.218602</hAcc><vAcc>0.368531</vAcc></extensions></trkpt>
      <trkpt lon="-3.033807" lat="52.708680"><ele>199.400711</ele><time>2022-01-15T13:46:46Z</time><extensions><speed>0.207262</speed><course>219.131348</course><hAcc>2.226947</hAcc><vAcc>0.367790</vAcc></extensions></trkpt>
      <trkpt lon="-3.033808" lat="52.708679"><ele>199.351913</ele><time>2022-01-15T13:46:47Z</time><extensions><speed>0.183806</speed><course>214.671585</course><hAcc>2.226436</hAcc><vAcc>0.366648</vAcc></extensions></trkpt>
      <trkpt lon="-3.033810" lat="52.708678"><ele>199.317307</ele><time>2022-01-15T13:46:48Z</time><extensions><speed>0.147211</speed><course>211.916702</course><hAcc>2.230002</hAcc><vAcc>0.365591</vAcc></extensions></trkpt>
      <trkpt lon="-3.033811" lat="52.708677"><ele>199.294113</ele><time>2022-01-15T13:46:49Z</time><extensions><speed>0.098497</speed><course>214.973434</course><hAcc>2.249527</hAcc><vAcc>0.364965</vAcc></extensions></trkpt>
      <trkpt lon="-3.033812" lat="52.708677"><ele>199.277252</ele><time>2022-01-15T13:46:50Z</time><extensions><speed>0.034548</speed><course>234.188446</course><hAcc>2.299255</hAcc><vAcc>0.364957</vAcc></extensions></trkpt>
      <trkpt lon="-3.033812" lat="52.708677"><ele>199.276855</ele><time>2022-01-15T13:46:51Z</time><extensions><speed>0.030479</speed><course>308.889771</course><hAcc>2.296013</hAcc><vAcc>0.365832</vAcc></extensions></trkpt>
      <trkpt lon="-3.033813" lat="52.708678"><ele>199.288422</ele><time>2022-01-15T13:46:52Z</time><extensions><speed>0.080327</speed><course>334.968292</course><hAcc>2.251304</hAcc><vAcc>0.367793</vAcc></extensions></trkpt>
      <trkpt lon="-3.033813" lat="52.708679"><ele>199.309357</ele><time>2022-01-15T13:46:53Z</time><extensions><speed>0.124355</speed><course>341.588806</course><hAcc>2.238557</hAcc><vAcc>0.370941</vAcc></extensions></trkpt>
      <trkpt lon="-3.033814" lat="52.708680"><ele>199.337738</ele><time>2022-01-15T13:46:54Z</time><extensions><speed>0.165959</speed><course>344.446136</course><hAcc>2.250486</hAcc><vAcc>0.375760</vAcc></extensions></trkpt>
      <trkpt lon="-3.033815" lat="52.708681"><ele>199.371445</ele><time>2022-01-15T13:46:55Z</time><extensions><speed>0.201187</speed><course>344.422333</course><hAcc>2.265972</hAcc><vAcc>0.383017</vAcc></extensions></trkpt>
      <trkpt lon="-3.033816" lat="52.708683"><ele>199.410553</ele><time>2022-01-15T13:46:56Z</time><extensions><speed>0.226970</speed><course>342.620117</course><hAcc>2.273668</hAcc><vAcc>0.393372</vAcc></extensions></trkpt>
      <trkpt lon="-3.033817" lat="52.708685"><ele>199.451675</ele><time>2022-01-15T13:46:57Z</time><extensions><speed>0.225796</speed><course>339.061462</course><hAcc>2.268124</hAcc><vAcc>0.407136</vAcc></extensions></trkpt>
      <trkpt lon="-3.033819" lat="52.708687"><ele>199.493393</ele><time>2022-01-15T13:46:58Z</time><extensions><speed>0.256416</speed><course>333.796387</course><hAcc>2.222000</hAcc><vAcc>0.423991</vAcc></extensions></trkpt>
      <trkpt lon="-3.033820" lat="52.708689"><ele>199.535995</ele><time>2022-01-15T13:46:59Z</time><extensions><speed>0.248478</speed><course>325.924225</course><hAcc>2.173978</hAcc><vAcc>0.442780</vAcc></extensions></trkpt>
      <trkpt lon="-3.033823" lat="52.708691"><ele>199.579865</ele><time>2022-01-15T13:47:00Z</time><extensions><speed>0.215590</speed><course>313.219727</course><hAcc>2.130557</hAcc><vAcc>0.461735</vAcc></extensions></trkpt>
      <trkpt lon="-3.033825" lat="52.708692"><ele>199.624802</ele><time>2022-01-15T13:47:01Z</time><extensions><speed>0.193103</speed><course>298.406647</course><hAcc>2.085485</hAcc><vAcc>0.479070</vAcc></extensions></trkpt>
      <trkpt lon="-3.033828" lat="52.708692"><ele>199.671585</ele><time>2022-01-15T13:47:02Z</time><extensions><speed>0.174227</speed><course>286.504913</course><hAcc>2.053406</hAcc><vAcc>0.493422</vAcc></extensions></trkpt>
      <trkpt lon="-3.033830" lat="52.708693"><ele>199.719696</ele><time>2022-01-15T13:47:03Z</time><extensions><speed>0.158555</speed><course>280.022675</course><hAcc>2.039339</hAcc><vAcc>0.504051</vAcc></extensions></trkpt>
      <trkpt lon="-3.033832" lat="52.708693"><ele>199.767654</ele><time>2022-01-15T13:47:04Z</time><extensions><speed>0.142645</speed><course>275.007080</course><hAcc>2.035847</hAcc><vAcc>0.510900</vAcc></extensions></trkpt>
      <trkpt lon="-3.033834" lat="52.708693"><ele>199.813461</ele><time>2022-01-15T13:47:05Z</time><extensions><speed>0.124979</speed><course>268.239014</course><hAcc>2.027635</hAcc><vAcc>0.514358</vAcc></extensions></trkpt>
      <trkpt lon="-3.033836" lat="52.708692"><ele>199.853821</ele><time>2022-01-15T13:47:06Z</time><extensions><speed>0.110058</speed><course>255.318512</course><hAcc>2.011979</hAcc><vAcc>0.515005</vAcc></extensions></trkpt>
      <trkpt lon="-3.033838" lat="52.708692"><ele>199.903061</ele><time>2022-01-15T13:47:07Z</time><extensions><speed>0.106075</speed><course>240.878006</course><hAcc>1.998282</hAcc><vAcc>0.513436</vAcc></extensions></trkpt>
      <trkpt lon="-3.033839" lat="52.708692"><ele>199.957672</ele><time>2022-01-15T13:47:08Z</time><extensions><speed>0.101764</speed><course>226.174728</course><hAcc>2.005488</hAcc><vAcc>0.510228</vAcc></extensions></trkpt>
      <trkpt lon="-3.033840" lat="52.708691"><ele>200.018784</ele><time>2022-01-15T13:47:09Z</time><extensions><speed>0.111176</speed><course>215.155579</course><hAcc>2.008189</hAcc><vAcc>0.505921</vAcc></extensions></trkpt>
      <trkpt lon="-3.033841" lat="52.708690"><ele>200.080734</ele><time>2022-01-15T13:47:10Z</time><extensions><speed>0.135501</speed><course>209.492538</course><hAcc>1.998323</hAcc><vAcc>0.500947</vAcc></extensions></trkpt>
      <trkpt lon="-3.033842" lat="52.708689"><ele>200.137146</ele><time>2022-01-15T13:47:11Z</time><extensions><speed>0.153012</speed><course>209.624039</course><hAcc>1.987073</hAcc><vAcc>0.495435</vAcc></extensions></trkpt>
      <trkpt lon="-3.033844" lat="52.708688"><ele>200.193924</ele><time>2022-01-15T13:47:12Z</time><extensions><speed>0.168259</speed><course>215.216751</course><hAcc>1.962365</hAcc><vAcc>0.489491</vAcc></extensions></trkpt>
      <trkpt lon="-3.033845" lat="52.708687"><ele>200.231262</ele><time>2022-01-15T13:47:13Z</time><extensions><speed>0.141825</speed><course>224.079239</course><hAcc>1.981325</hAcc><vAcc>0.482974</vAcc></extensions></trkpt>
      <trkpt lon="-3.033846" lat="52.708686"><ele>200.294327</ele><time>2022-01-15T13:47:14Z</time><extensions><speed>0.072113</speed><course>236.006363</course><hAcc>2.051423</hAcc><vAcc>0.475974</vAcc></extensions></trkpt>
      <trkpt lon="-3.033847" lat="52.708686"><ele>200.388931</ele><time>2022-01-15T13:47:15Z</time><extensions><speed>0.045893</speed><course>257.767914</course><hAcc>2.082446</hAcc><vAcc>0.468311</vAcc></extensions></trkpt>
      <trkpt lon="-3.033848" lat="52.708686"><ele>200.473221</ele><time>2022-01-15T13:47:16Z</time><extensions><speed>0.054210</speed><course>284.438446</course><hAcc>2.075727</hAcc><vAcc>0.460378</vAcc></extensions></trkpt>
      <trkpt lon="-3.033849" lat="52.708686"><ele>200.564926</ele><time>2022-01-15T13:47:17Z</time><extensions><speed>0.094482</speed><course>297.861572</course><hAcc>2.045818</hAcc><vAcc>0.452293</vAcc></extensions></trkpt>
      <trkpt lon="-3.033851" lat="52.708686"><ele>200.621216</ele><time>2022-01-15T13:47:18Z</time><extensions><speed>0.110470</speed><course>295.054871</course><hAcc>2.072139</hAcc><vAcc>0.444377</vAcc></extensions></trkpt>
      <trkpt lon="-3.033852" lat="52.708687"><ele>200.662613</ele><time>2022-01-15T13:47:19Z</time><extensions><speed>0.127006</speed><course>278.776642</course><hAcc>2.136074</hAcc><vAcc>0.437487</vAcc></extensions></trkpt>
      <trkpt lon="-3.033854" lat="52.708686"><ele>200.673141</ele><time>2022-01-15T13:47:20Z</time><extensions><speed>0.159045</speed><course>255.959000</course><hAcc>2.214243</hAcc><vAcc>0.432669</vAcc></extensions></trkpt>
      <trkpt lon="-3.033857" lat="52.708686"><ele>200.664871</ele><time>2022-01-15T13:47:21Z</time><extensions><speed>0.217738</speed><course>237.605713</course><hAcc>2.282962</hAcc><vAcc>0.430507</vAcc></extensions></trkpt>
      <trkpt lon="-3.033860" lat="52.708684"><ele>200.627029</ele><time>2022-01-15T13:47:22Z</time><extensions><speed>0.331177</speed><course>226.419189</course><hAcc>2.316418</hAcc><vAcc>0.430822</vAcc></extensions></trkpt>
      <trkpt lon="-3.033865" lat="52.708681"><ele>200.575073</ele><time>2022-01-15T13:47:23Z</time><extensions><speed>0.513781</speed><course>222.143555</course><hAcc>2.316268</hAcc><vAcc>0.432814</vAcc></extensions></trkpt>
      <trkpt lon="-3.033870" lat="52.708678"><ele>200.472061</ele><time>2022-01-15T13:47:24Z</time><extensions><speed>0.565289</speed><course>224.894714</course><hAcc>2.299443</hAcc><vAcc>0.435336</vAcc></extensions></trkpt>
      <trkpt lon="-3.033876" lat="52.708675"><ele>200.352509</ele><time>2022-01-15T13:47:25Z</time><extensions><speed>0.479260</speed><course>227.857346</course><hAcc>2.290793</hAcc><vAcc>0.437526</vAcc></extensions></trkpt>
      <trkpt lon="-3.033880" lat="52.708672"><ele>200.192978</ele><time>2022-01-15T13:47:26Z</time><extensions><speed>0.318350</speed><course>226.900558</course><hAcc>2.295985</hAcc><vAcc>0.438919</vAcc></extensions></trkpt>
      <trkpt lon="-3.033883" lat="52.708671"><ele>200.060791</ele><time>2022-01-15T13:47:27Z</time><extensions><speed>0.229710</speed><course>225.555740</course><hAcc>2.299611</hAcc><vAcc>0.439359</vAcc></extensions></trkpt>
      <trkpt lon="-3.033886" lat="52.708669"><ele>199.914734</ele><time>2022-01-15T13:47:28Z</time><extensions><speed>0.200874</speed><course>226.205063</course><hAcc>2.288821</hAcc><vAcc>0.438788</vAcc></extensions></trkpt>
      <trkpt lon="-3.033888" lat="52.708668"><ele>199.769211</ele><time>2022-01-15T13:47:29Z</time><extensions><speed>0.197587</speed><course>231.840195</course><hAcc>2.275582</hAcc><vAcc>0.437373</vAcc></extensions></trkpt>
      <trkpt lon="-3.033890" lat="52.708667"><ele>199.637405</ele><time>2022-01-15T13:47:30Z</time><extensions><speed>0.219806</speed><course>241.025558</course><hAcc>2.267259</hAcc><vAcc>0.435459</vAcc></extensions></trkpt>
      <trkpt lon="-3.033894" lat="52.708666"><ele>199.530258</ele><time>2022-01-15T13:47:31Z</time><extensions><speed>0.275602</speed><course>248.838181</course><hAcc>2.261840</hAcc><vAcc>0.433544</vAcc></extensions></trkpt>
      <trkpt lon="-3.033899" lat="52.708665"><ele>199.421143</ele><time>2022-01-15T13:47:32Z</time><extensions><speed>0.396320</speed><course>253.096832</course><hAcc>2.250551</hAcc><vAcc>0.432083</vAcc></extensions></trkpt>
      <trkpt lon="-3.033906" lat="52.708664"><ele>199.328781</ele><time>2022-01-15T13:47:33Z</time><extensions><speed>0.600422</speed><course>254.797180</course><hAcc>2.240555</hAcc><vAcc>0.431111</vAcc></extensions></trkpt>
      <trkpt lon="-3.033916" lat="52.708662"><ele>199.277054</ele><time>2022-01-15T13:47:34Z</time><extensions><speed>0.764894</speed><course>253.762375</course><hAcc>2.241200</hAcc><vAcc>0.430377</vAcc></extensions></trkpt>
      <trkpt lon="-3.033928" lat="52.708660"><ele>199.224426</ele><time>2022-01-15T13:47:35Z</time><extensions><speed>0.897156</speed><course>253.188873</course><hAcc>2.247883</hAcc><vAcc>0.429596</vAcc></extensions></trkpt>
      <trkpt lon="-3.033942" lat="52.708657"><ele>199.180954</ele><time>2022-01-15T13:47:36Z</time><extensions><speed>0.991474</speed><course>250.779877</course><hAcc>2.244106</hAcc><vAcc>0.428593</vAcc></extensions></trkpt>
      <trkpt lon="-3.033956" lat="52.708654"><ele>199.147125</ele><time>2022-01-15T13:47:37Z</time><extensions><speed>1.043107</speed><course>248.420822</course><hAcc>2.241806</hAcc><vAcc>0.427393</vAcc></extensions></trkpt>
      <trkpt lon="-3.033971" lat="52.708650"><ele>199.130875</ele><time>2022-01-15T13:47:38Z</time><extensions><speed>1.049565</speed><course>245.492004</course><hAcc>2.234373</hAcc><vAcc>0.426249</vAcc></extensions></trkpt>
      <trkpt lon="-3.033986" lat="52.708647"><ele>199.144806</ele><time>2022-01-15T13:47:39Z</time><extensions><speed>1.084922</speed><course>244.400955</course><hAcc>2.209734</hAcc><vAcc>0.425400</vAcc></extensions></trkpt>
      <trkpt lon="-3.034002" lat="52.708642"><ele>199.160339</ele><time>2022-01-15T13:47:40Z</time><extensions><speed>1.173578</speed><course>246.280212</course><hAcc>2.186193</hAcc><vAcc>0.425192</vAcc></extensions></trkpt>
      <trkpt lon="-3.034019" lat="52.708638"><ele>199.182434</ele><time>2022-01-15T13:47:41Z</time><extensions><speed>1.230385</speed><course>248.777771</course><hAcc>2.187989</hAcc><vAcc>0.425831</vAcc></extensions></trkpt>
      <trkpt lon="-3.034037" lat="52.708635"><ele>199.223114</ele><time>2022-01-15T13:47:42Z</time><extensions><speed>1.258348</speed><course>250.772324</course><hAcc>2.197961</hAcc><vAcc>0.427501</vAcc></extensions></trkpt>
      <trkpt lon="-3.034055" lat="52.708631"><ele>199.293884</ele><time>2022-01-15T13:47:43Z</time><extensions><speed>1.310050</speed><course>252.821182</course><hAcc>2.171621</hAcc><vAcc>0.430164</vAcc></extensions></trkpt>
      <trkpt lon="-3.034074" lat="52.708628"><ele>199.368942</ele><time>2022-01-15T13:47:44Z</time><extensions><speed>1.347294</speed><course>254.532990</course><hAcc>2.122276</hAcc><vAcc>0.433639</vAcc></extensions></trkpt>
      <trkpt lon="-3.034093" lat="52.708625"><ele>199.442001</ele><time>2022-01-15T13:47:45Z</time><extensions><speed>1.293426</speed><course>254.533936</course><hAcc>2.113387</hAcc><vAcc>0.437696</vAcc></extensions></trkpt>
      <trkpt lon="-3.034111" lat="52.708622"><ele>199.518005</ele><time>2022-01-15T13:47:46Z</time><extensions><speed>1.164870</speed><course>253.942703</course><hAcc>2.132473</hAcc><vAcc>0.442124</vAcc></extensions></trkpt>
      <trkpt lon="-3.034128" lat="52.708619"><ele>199.599838</ele><time>2022-01-15T13:47:47Z</time><extensions><speed>1.131782</speed><course>256.400391</course><hAcc>2.135852</hAcc><vAcc>0.446646</vAcc></extensions></trkpt>
      <trkpt lon="-3.034145" lat="52.708617"><ele>199.691605</ele><time>2022-01-15T13:47:48Z</time><extensions><speed>1.260887</speed><course>260.131195</course><hAcc>2.104629</hAcc><vAcc>0.450863</vAcc></extensions></trkpt>
      <trkpt lon="-3.034164" lat="52.708615"><ele>199.760666</ele><time>2022-01-15T13:47:49Z</time><extensions><speed>1.357393</speed><course>261.376862</course><hAcc>2.087103</hAcc><vAcc>0.454405</vAcc></extensions></trkpt>
      <trkpt lon="-3.034185" lat="52.708613"><ele>199.815643</ele><time>2022-01-15T13:47:50Z</time><extensions><speed>1.386102</speed><course>260.423523</course><hAcc>2.104198</hAcc><vAcc>0.457076</vAcc></extensions></trkpt>
      <trkpt lon="-3.034205" lat="52.708611"><ele>199.866592</ele><time>2022-01-15T13:47:51Z</time><extensions><speed>1.389518</speed><course>259.113556</course><hAcc>2.127066</hAcc><vAcc>0.458840</vAcc></extensions></trkpt>
      <trkpt lon="-3.034225" lat="52.708608"><ele>199.907669</ele><time>2022-01-15T13:47:52Z</time><extensions><speed>1.373664</speed><course>257.158600</course><hAcc>2.159624</hAcc><vAcc>0.459742</vAcc></extensions></trkpt>
      <trkpt lon="-3.034245" lat="52.708605"><ele>199.955627</ele><time>2022-01-15T13:47:53Z</time><extensions><speed>1.327899</speed><course>254.874725</course><hAcc>2.198545</hAcc><vAcc>0.459925</vAcc></extensions></trkpt>
      <trkpt lon="-3.034263" lat="52.708602"><ele>199.981491</ele><time>2022-01-15T13:47:54Z</time><extensions><speed>1.254299</speed><course>253.172699</course><hAcc>2.228063</hAcc><vAcc>0.459538</vAcc></extensions></trkpt>
      <trkpt lon="-3.034280" lat="52.708599"><ele>199.977371</ele><time>2022-01-15T13:47:55Z</time><extensions><speed>1.204129</speed><course>252.768280</course><hAcc>2.241936</hAcc><vAcc>0.458685</vAcc></extensions></trkpt>
      <trkpt lon="-3.034297" lat="52.708595"><ele>199.954788</ele><time>2022-01-15T13:47:56Z</time><extensions><speed>1.141918</speed><course>252.731720</course><hAcc>2.273368</hAcc><vAcc>0.457501</vAcc></extensions></trkpt>
      <trkpt lon="-3.034313" lat="52.708593"><ele>199.920197</ele><time>2022-01-15T13:47:57Z</time><extensions><speed>1.120492</speed><course>253.275452</course><hAcc>2.280601</hAcc><vAcc>0.456224</vAcc></extensions></trkpt>
      <trkpt lon="-3.034329" lat="52.708590"><ele>199.869446</ele><time>2022-01-15T13:47:58Z</time><extensions><speed>1.115681</speed><course>253.538498</course><hAcc>2.298508</hAcc><vAcc>0.455101</vAcc></extensions></trkpt>
      <trkpt lon="-3.034345" lat="52.708587"><ele>199.819916</ele><time>2022-01-15T13:47:59Z</time><extensions><speed>1.136229</speed><course>252.367981</course><hAcc>2.312719</hAcc><vAcc>0.454308</vAcc></extensions></trkpt>
      <trkpt lon="-3.034362" lat="52.708583"><ele>199.762436</ele><time>2022-01-15T13:48:00Z</time><extensions><speed>1.140629</speed><course>250.151352</course><hAcc>2.324004</hAcc><vAcc>0.453814</vAcc></extensions></trkpt>
      <trkpt lon="-3.034378" lat="52.708580"><ele>199.692795</ele><time>2022-01-15T13:48:01Z</time><extensions><speed>1.129568</speed><course>246.991791</course><hAcc>2.332792</hAcc><vAcc>0.453433</vAcc></extensions></trkpt>
      <trkpt lon="-3.034393" lat="52.708575"><ele>199.590027</ele><time>2022-01-15T13:48:02Z</time><extensions><speed>1.125290</speed><course>244.633591</course><hAcc>2.363320</hAcc><vAcc>0.452783</vAcc></extensions></trkpt>
      <trkpt lon="-3.034408" lat="52.708571"><ele>199.507065</ele><time>2022-01-15T13:48:03Z</time><extensions><speed>1.112682</speed><course>243.918915</course><hAcc>2.396606</hAcc><vAcc>0.451731</vAcc></extensions></trkpt>
      <trkpt lon="-3.034423" lat="52.708566"><ele>199.462097</ele><time>2022-01-15T13:48:04Z</time><extensions><speed>1.105332</speed><course>243.162079</course><hAcc>2.354385</hAcc><vAcc>0.450195</vAcc></extensions></trkpt>
      <trkpt lon="-3.034438" lat="52.708561"><ele>199.463425</ele><time>2022-01-15T13:48:05Z</time><extensions><speed>1.082308</speed><course>242.998535</course><hAcc>2.309584</hAcc><vAcc>0.448207</vAcc></extensions></trkpt>
      <trkpt lon="-3.034451" lat="52.708556"><ele>199.492157</ele><time>2022-01-15T13:48:06Z</time><extensions><speed>1.046188</speed><course>242.430130</course><hAcc>2.296918</hAcc><vAcc>0.446090</vAcc></extensions></trkpt>
      <trkpt lon="-3.034465" lat="52.708551"><ele>199.583984</ele><time>2022-01-15T13:48:07Z</time><extensions><speed>1.034527</speed><course>241.821945</course><hAcc>2.296545</hAcc><vAcc>0.444172</vAcc></extensions></trkpt>
      <trkpt lon="-3.034478" lat="52.708545"><ele>199.679413</ele><time>2022-01-15T13:48:08Z</time><extensions><speed>1.025891</speed><course>241.235413</course><hAcc>2.302310</hAcc><vAcc>0.442897</vAcc></extensions></trkpt>
      <trkpt lon="-3.034491" lat="52.708540"><ele>199.782166</ele><time>2022-01-15T13:48:09Z</time><extensions><speed>0.989438</speed><course>240.291565</course><hAcc>2.308278</hAcc><vAcc>0.442700</vAcc></extensions></trkpt>
      <trkpt lon="-3.034504" lat="52.708535"><ele>199.873383</ele><time>2022-01-15T13:48:10Z</time><extensions><speed>0.909711</speed><course>239.579178</course><hAcc>2.327563</hAcc><vAcc>0.443953</vAcc></extensions></trkpt>
      <trkpt lon="-3.034515" lat="52.708531"><ele>199.929977</ele><time>2022-01-15T13:48:11Z</time><extensions><speed>0.883903</speed><course>237.603088</course><hAcc>2.342662</hAcc><vAcc>0.446839</vAcc></extensions></trkpt>
      <trkpt lon="-3.034527" lat="52.708526"><ele>199.941925</ele><time>2022-01-15T13:48:12Z</time><extensions><speed>0.964146</speed><course>233.014954</course><hAcc>2.326981</hAcc><vAcc>0.451239</vAcc></extensions></trkpt>
      <trkpt lon="-3.034539" lat="52.708520"><ele>199.893997</ele><time>2022-01-15T13:48:13Z</time><extensions><speed>1.094566</speed><course>227.665039</course><hAcc>2.298526</hAcc><vAcc>0.456669</vAcc></extensions></trkpt>
      <trkpt lon="-3.034551" lat="52.708513"><ele>199.772385</ele><time>2022-01-15T13:48:14Z</time><extensions><speed>1.215386</speed><course>223.290283</course><hAcc>2.277591</hAcc><vAcc>0.462264</vAcc></extensions></trkpt>
      <trkpt lon="-3.034564" lat="52.708504"><ele>199.575775</ele><time>2022-01-15T13:48:15Z</time><extensions><speed>1.301477</speed><course>220.447174</course><hAcc>2.272647</hAcc><vAcc>0.467115</vAcc></extensions></trkpt>
      <trkpt lon="-3.034577" lat="52.708495"><ele>199.314438</ele><time>2022-01-15T13:48:16Z</time><extensions><speed>1.343262</speed><course>220.448105</course><hAcc>2.267436</hAcc><vAcc>0.470677</vAcc></extensions></trkpt>
      <trkpt lon="-3.034591" lat="52.708486"><ele>198.999527</ele><time>2022-01-15T13:48:17Z</time><extensions><speed>1.441503</speed><course>222.757568</course><hAcc>2.240911</hAcc><vAcc>0.472805</vAcc></extensions></trkpt>
      <trkpt lon="-3.034607" lat="52.708476"><ele>198.650543</ele><time>2022-01-15T13:48:18Z</time><extensions><speed>1.480518</speed><course>224.686584</course><hAcc>2.226015</hAcc><vAcc>0.473622</vAcc></extensions></trkpt>
      <trkpt lon="-3.034623" lat="52.708467"><ele>198.289185</ele><time>2022-01-15T13:48:19Z</time><extensions><speed>1.418105</speed><course>227.612961</course><hAcc>2.232086</hAcc><vAcc>0.473437</vAcc></extensions></trkpt>
      <trkpt lon="-3.034638" lat="52.708459"><ele>197.939850</ele><time>2022-01-15T13:48:20Z</time><extensions><speed>1.375980</speed><course>230.921524</course><hAcc>2.196209</hAcc><vAcc>0.472619</vAcc></extensions></trkpt>
      <trkpt lon="-3.034654" lat="52.708451"><ele>197.599960</ele><time>2022-01-15T13:48:21Z</time><extensions><speed>1.288948</speed><course>233.335434</course><hAcc>2.163883</hAcc><vAcc>0.471535</vAcc></extensions></trkpt>
      <trkpt lon="-3.034669" lat="52.708444"><ele>197.282364</ele><time>2022-01-15T13:48:22Z</time><extensions><speed>1.262604</speed><course>234.894318</course><hAcc>2.138919</hAcc><vAcc>0.470520</vAcc></extensions></trkpt>
      <trkpt lon="-3.034685" lat="52.708438"><ele>196.990677</ele><time>2022-01-15T13:48:23Z</time><extensions><speed>1.233619</speed><course>235.270172</course><hAcc>2.121811</hAcc><vAcc>0.469832</vAcc></extensions></trkpt>
      <trkpt lon="-3.034699" lat="52.708431"><ele>196.746750</ele><time>2022-01-15T13:48:24Z</time><extensions><speed>1.209099</speed><course>234.724365</course><hAcc>2.134108</hAcc><vAcc>0.469561</vAcc></extensions></trkpt>
      <trkpt lon="-3.034714" lat="52.708425"><ele>196.550125</ele><time>2022-01-15T13:48:25Z</time><extensions><speed>1.192116</speed><course>235.261444</course><hAcc>2.122386</hAcc><vAcc>0.469622</vAcc></extensions></trkpt>
      <trkpt lon="-3.034729" lat="52.708419"><ele>196.370682</ele><time>2022-01-15T13:48:26Z</time><extensions><speed>1.267158</speed><course>234.278656</course><hAcc>2.094065</hAcc><vAcc>0.469869</vAcc></extensions></trkpt>
      <trkpt lon="-3.034744" lat="52.708412"><ele>196.215942</ele><time>2022-01-15T13:48:27Z</time><extensions><speed>1.351537</speed><course>231.211334</course><hAcc>2.066140</hAcc><vAcc>0.470172</vAcc></extensions></trkpt>
      <trkpt lon="-3.034760" lat="52.708404"><ele>196.080109</ele><time>2022-01-15T13:48:28Z</time><extensions><speed>1.391090</speed><course>226.873840</course><hAcc>2.057465</hAcc><vAcc>0.470495</vAcc></extensions></trkpt>
      <trkpt lon="-3.034775" lat="52.708395"><ele>195.974075</ele><time>2022-01-15T13:48:29Z</time><extensions><speed>1.367094</speed><course>222.872818</course><hAcc>2.051169</hAcc><vAcc>0.470880</vAcc></extensions></trkpt>
      <trkpt lon="-3.034788" lat="52.708386"><ele>195.882614</ele><time>2022-01-15T13:48:30Z</time><extensions><speed>1.288647</speed><course>219.975662</course><hAcc>2.048620</hAcc><vAcc>0.471384</vAcc></extensions></trkpt>
      <trkpt lon="-3.034799" lat="52.708378"><ele>195.793274</ele><time>2022-01-15T13:48:31Z</time><extensions><speed>1.185516</speed><course>217.918289</course><hAcc>2.061418</hAcc><vAcc>0.472046</vAcc></extensions></trkpt>
      <trkpt lon="-3.034810" lat="52.708369"><ele>195.702103</ele><time>2022-01-15T13:48:32Z</time><extensions><speed>1.072486</speed><course>218.542938</course><hAcc>2.075300</hAcc><vAcc>0.472836</vAcc></extensions></trkpt>
      <trkpt lon="-3.034819" lat="52.708362"><ele>195.604599</ele><time>2022-01-15T13:48:33Z</time><extensions><speed>1.062991</speed><course>218.173141</course><hAcc>2.057112</hAcc><vAcc>0.473685</vAcc></extensions></trkpt>
      <trkpt lon="-3.034829" lat="52.708354"><ele>195.498718</ele><time>2022-01-15T13:48:34Z</time><extensions><speed>1.043401</speed><course>217.137894</course><hAcc>2.060238</hAcc><vAcc>0.474558</vAcc></extensions></trkpt>
      <trkpt lon="-3.034838" lat="52.708347"><ele>195.384308</ele><time>2022-01-15T13:48:35Z</time><extensions><speed>0.999791</speed><course>218.252792</course><hAcc>2.059832</hAcc><vAcc>0.475481</vAcc></extensions></trkpt>
      <trkpt lon="-3.034847" lat="52.708340"><ele>195.261932</ele><time>2022-01-15T13:48:36Z</time><extensions><speed>0.936134</speed><course>218.283783</course><hAcc>2.092912</hAcc><vAcc>0.476457</vAcc></extensions></trkpt>
      <trkpt lon="-3.034856" lat="52.708333"><ele>195.128204</ele><time>2022-01-15T13:48:37Z</time><extensions><speed>0.937862</speed><course>218.701492</course><hAcc>2.080248</hAcc><vAcc>0.477396</vAcc></extensions></trkpt>
      <trkpt lon="-3.034864" lat="52.708326"><ele>194.981094</ele><time>2022-01-15T13:48:38Z</time><extensions><speed>0.963723</speed><course>217.145966</course><hAcc>2.087622</hAcc><vAcc>0.478131</vAcc></extensions></trkpt>
      <trkpt lon="-3.034873" lat="52.708319"><ele>194.825745</ele><time>2022-01-15T13:48:39Z</time><extensions><speed>1.035826</speed><course>215.211823</course><hAcc>2.102662</hAcc><vAcc>0.478499</vAcc></extensions></trkpt>
      <trkpt lon="-3.034882" lat="52.708311"><ele>194.677170</ele><time>2022-01-15T13:48:40Z</time><extensions><speed>1.093578</speed><course>210.602448</course><hAcc>2.110596</hAcc><vAcc>0.478468</vAcc></extensions></trkpt>
      <trkpt lon="-3.034890" lat="52.708302"><ele>194.522873</ele><time>2022-01-15T13:48:41Z</time><extensions><speed>1.115592</speed><course>205.665619</course><hAcc>2.134835</hAcc><vAcc>0.478189</vAcc></extensions></trkpt>
      <trkpt lon="-3.034897" lat="52.708292"><ele>194.368851</ele><time>2022-01-15T13:48:42Z</time><extensions><speed>1.062933</speed><course>201.426010</course><hAcc>2.169344</hAcc><vAcc>0.478100</vAcc></extensions></trkpt>
      <trkpt lon="-3.034903" lat="52.708284"><ele>194.215942</ele><time>2022-01-15T13:48:43Z</time><extensions><speed>1.019353</speed><course>201.515793</course><hAcc>2.196972</hAcc><vAcc>0.478757</vAcc></extensions></trkpt>
      <trkpt lon="-3.034909" lat="52.708275"><ele>194.066040</ele><time>2022-01-15T13:48:44Z</time><extensions><speed>0.964728</speed><course>204.521347</course><hAcc>2.216027</hAcc><vAcc>0.480786</vAcc></extensions></trkpt>
      <trkpt lon="-3.034916" lat="52.708267"><ele>193.920013</ele><time>2022-01-15T13:48:45Z</time><extensions><speed>1.020805</speed><course>207.499176</course><hAcc>2.215392</hAcc><vAcc>0.484809</vAcc></extensions></trkpt>
      <trkpt lon="-3.034923" lat="52.708259"><ele>193.772430</ele><time>2022-01-15T13:48:46Z</time><extensions><speed>1.086846</speed><course>210.214035</course><hAcc>2.183342</hAcc><vAcc>0.491408</vAcc></extensions></trkpt>
      <trkpt lon="-3.034932" lat="52.708250"><ele>193.614853</ele><time>2022-01-15T13:48:47Z</time><extensions><speed>1.188784</speed><course>213.312408</course><hAcc>2.152466</hAcc><vAcc>0.501087</vAcc></extensions></trkpt>
      <trkpt lon="-3.034943" lat="52.708240"><ele>193.450760</ele><time>2022-01-15T13:48:48Z</time><extensions><speed>1.278994</speed><course>215.342056</course><hAcc>2.133317</hAcc><vAcc>0.514156</vAcc></extensions></trkpt>
      <trkpt lon="-3.034954" lat="52.708231"><ele>193.281357</ele><time>2022-01-15T13:48:49Z</time><extensions><speed>1.305944</speed><course>216.443039</course><hAcc>2.123390</hAcc><vAcc>0.530449</vAcc></extensions></trkpt>
      <trkpt lon="-3.034965" lat="52.708222"><ele>193.106293</ele><time>2022-01-15T13:48:50Z</time><extensions><speed>1.236449</speed><course>217.046051</course><hAcc>2.111764</hAcc><vAcc>0.549290</vAcc></extensions></trkpt>
      <trkpt lon="-3.034977" lat="52.708213"><ele>192.933899</ele><time>2022-01-15T13:48:51Z</time><extensions><speed>1.283628</speed><course>217.697433</course><hAcc>2.054594</hAcc><vAcc>0.569473</vAcc></extensions></trkpt>
      <trkpt lon="-3.034989" lat="52.708203"><ele>192.761734</ele><time>2022-01-15T13:48:52Z</time><extensions><speed>1.318528</speed><course>217.242477</course><hAcc>1.984550</hAcc><vAcc>0.589858</vAcc></extensions></trkpt>
      <trkpt lon="-3.035001" lat="52.708193"><ele>192.584396</ele><time>2022-01-15T13:48:53Z</time><extensions><speed>1.382357</speed><course>215.121796</course><hAcc>1.919334</hAcc><vAcc>0.609491</vAcc></extensions></trkpt>
      <trkpt lon="-3.035013" lat="52.708183"><ele>192.403793</ele><time>2022-01-15T13:48:54Z</time><extensions><speed>1.502069</speed><course>212.580948</course><hAcc>1.867189</hAcc><vAcc>0.627776</vAcc></extensions></trkpt>
      <trkpt lon="-3.035025" lat="52.708171"><ele>192.217804</ele><time>2022-01-15T13:48:55Z</time><extensions><speed>1.537840</speed><course>211.398239</course><hAcc>1.858266</hAcc><vAcc>0.644348</vAcc></extensions></trkpt>
      <trkpt lon="-3.035037" lat="52.708159"><ele>192.051346</ele><time>2022-01-15T13:48:56Z</time><extensions><speed>1.514649</speed><course>211.591568</course><hAcc>1.869570</hAcc><vAcc>0.659016</vAcc></extensions></trkpt>
      <trkpt lon="-3.035049" lat="52.708148"><ele>191.867264</ele><time>2022-01-15T13:48:57Z</time><extensions><speed>1.508439</speed><course>214.321182</course><hAcc>1.832616</hAcc><vAcc>0.671843</vAcc></extensions></trkpt>
      <trkpt lon="-3.035062" lat="52.708137"><ele>191.697922</ele><time>2022-01-15T13:48:58Z</time><extensions><speed>1.451835</speed><course>216.938919</course><hAcc>1.797329</hAcc><vAcc>0.682879</vAcc></extensions></trkpt>
      <trkpt lon="-3.035075" lat="52.708127"><ele>191.550323</ele><time>2022-01-15T13:48:59Z</time><extensions><speed>1.393496</speed><course>219.481857</course><hAcc>1.773360</hAcc><vAcc>0.692283</vAcc></extensions></trkpt>
      <trkpt lon="-3.035088" lat="52.708117"><ele>191.405869</ele><time>2022-01-15T13:49:00Z</time><extensions><speed>1.310172</speed><course>221.118881</course><hAcc>1.766393</hAcc><vAcc>0.700209</vAcc></extensions></trkpt>
      <trkpt lon="-3.035101" lat="52.708108"><ele>191.259705</ele><time>2022-01-15T13:49:01Z</time><extensions><speed>1.310225</speed><course>222.541626</course><hAcc>1.750021</hAcc><vAcc>0.706792</vAcc></extensions></trkpt>
      <trkpt lon="-3.035114" lat="52.708100"><ele>191.109604</ele><time>2022-01-15T13:49:02Z</time><extensions><speed>1.228434</speed><course>223.428726</course><hAcc>1.773598</hAcc><vAcc>0.712265</vAcc></extensions></trkpt>
      <trkpt lon="-3.035127" lat="52.708092"><ele>190.963074</ele><time>2022-01-15T13:49:03Z</time><extensions><speed>1.250142</speed><course>224.943497</course><hAcc>1.751987</hAcc><vAcc>0.716782</vAcc></extensions></trkpt>
      <trkpt lon="-3.035140" lat="52.708084"><ele>190.821411</ele><time>2022-01-15T13:49:04Z</time><extensions><speed>1.245067</speed><course>225.580139</course><hAcc>1.743687</hAcc><vAcc>0.720529</vAcc></extensions></trkpt>
      <trkpt lon="-3.035153" lat="52.708076"><ele>190.698105</ele><time>2022-01-15T13:49:05Z</time><extensions><speed>1.215203</speed><course>224.633469</course><hAcc>1.739685</hAcc><vAcc>0.723645</vAcc></extensions></trkpt>
      <trkpt lon="-3.035165" lat="52.708068"><ele>190.561981</ele><time>2022-01-15T13:49:06Z</time><extensions><speed>1.139352</speed><course>222.379517</course><hAcc>1.747410</hAcc><vAcc>0.726214</vAcc></extensions></trkpt>
      <trkpt lon="-3.035176" lat="52.708061"><ele>190.410706</ele><time>2022-01-15T13:49:07Z</time><extensions><speed>1.021719</speed><course>221.800720</course><hAcc>1.778701</hAcc><vAcc>0.728281</vAcc></extensions></trkpt>
      <trkpt lon="-3.035186" lat="52.708054"><ele>190.265381</ele><time>2022-01-15T13:49:08Z</time><extensions><speed>1.131886</speed><course>220.881058</course><hAcc>1.766116</hAcc><vAcc>0.729983</vAcc></extensions></trkpt>
      <trkpt lon="-3.035198" lat="52.708045"><ele>190.126816</ele><time>2022-01-15T13:49:09Z</time><extensions><speed>1.220506</speed><course>220.141556</course><hAcc>1.763137</hAcc><vAcc>0.731276</vAcc></extensions></trkpt>
      <trkpt lon="-3.035210" lat="52.708037"><ele>189.983780</ele><time>2022-01-15T13:49:10Z</time><extensions><speed>1.224773</speed><course>219.682526</course><hAcc>1.772741</hAcc><vAcc>0.732186</vAcc></extensions></trkpt>
      <trkpt lon="-3.035221" lat="52.708028"><ele>189.831253</ele><time>2022-01-15T13:49:11Z</time><extensions><speed>1.242961</speed><course>219.106979</course><hAcc>1.777945</hAcc><vAcc>0.732732</vAcc></extensions></trkpt>
      <trkpt lon="-3.035233" lat="52.708020"><ele>189.672897</ele><time>2022-01-15T13:49:12Z</time><extensions><speed>1.236671</speed><course>218.343826</course><hAcc>1.788052</hAcc><vAcc>0.732914</vAcc></extensions></trkpt>
      <trkpt lon="-3.035244" lat="52.708011"><ele>189.515900</ele><time>2022-01-15T13:49:13Z</time><extensions><speed>1.216228</speed><course>216.973892</course><hAcc>1.796798</hAcc><vAcc>0.732824</vAcc></extensions></trkpt>
      <trkpt lon="-3.035255" lat="52.708002"><ele>189.357925</ele><time>2022-01-15T13:49:14Z</time><extensions><speed>1.201106</speed><course>216.534927</course><hAcc>1.801524</hAcc><vAcc>0.732469</vAcc></extensions></trkpt>
      <trkpt lon="-3.035265" lat="52.707993"><ele>189.196930</ele><time>2022-01-15T13:49:15Z</time><extensions><speed>1.176942</speed><course>216.474716</course><hAcc>1.801661</hAcc><vAcc>0.731874</vAcc></extensions></trkpt>
      <trkpt lon="-3.035276" lat="52.707985"><ele>189.038788</ele><time>2022-01-15T13:49:16Z</time><extensions><speed>1.253009</speed><course>218.162964</course><hAcc>1.792456</hAcc><vAcc>0.731103</vAcc></extensions></trkpt>
      <trkpt lon="-3.035289" lat="52.707975"><ele>188.861481</ele><time>2022-01-15T13:49:17Z</time><extensions><speed>1.331445</speed><course>220.131500</course><hAcc>1.798943</hAcc><vAcc>0.730168</vAcc></extensions></trkpt>
      <trkpt lon="-3.035302" lat="52.707966"><ele>188.690140</ele><time>2022-01-15T13:49:18Z</time><extensions><speed>1.425167</speed><course>221.909729</course><hAcc>1.810217</hAcc><vAcc>0.729256</vAcc></extensions></trkpt>
      <trkpt lon="-3.035317" lat="52.707956"><ele>188.521347</ele><time>2022-01-15T13:49:19Z</time><extensions><speed>1.479523</speed><course>221.854294</course><hAcc>1.813434</hAcc><vAcc>0.728483</vAcc></extensions></trkpt>
      <trkpt lon="-3.035331" lat="52.707946"><ele>188.355255</ele><time>2022-01-15T13:49:20Z</time><extensions><speed>1.535557</speed><course>221.144897</course><hAcc>1.818944</hAcc><vAcc>0.727965</vAcc></extensions></trkpt>
      <trkpt lon="-3.035347" lat="52.707936"><ele>188.164856</ele><time>2022-01-15T13:49:21Z</time><extensions><speed>1.533323</speed><course>220.909393</course><hAcc>1.824318</hAcc><vAcc>0.727755</vAcc></extensions></trkpt>
      <trkpt lon="-3.035362" lat="52.707925"><ele>187.976639</ele><time>2022-01-15T13:49:22Z</time><extensions><speed>1.556906</speed><course>221.288956</course><hAcc>1.824913</hAcc><vAcc>0.727870</vAcc></extensions></trkpt>
      <trkpt lon="-3.035377" lat="52.707914"><ele>187.794769</ele><time>2022-01-15T13:49:23Z</time><extensions><speed>1.628900</speed><course>221.254715</course><hAcc>1.824111</hAcc><vAcc>0.728336</vAcc></extensions></trkpt>
      <trkpt lon="-3.035394" lat="52.707903"><ele>187.625870</ele><time>2022-01-15T13:49:24Z</time><extensions><speed>1.716110</speed><course>221.824387</course><hAcc>1.813760</hAcc><vAcc>0.729097</vAcc></extensions></trkpt>
      <trkpt lon="-3.035411" lat="52.707891"><ele>187.461945</ele><time>2022-01-15T13:49:25Z</time><extensions><speed>1.721566</speed><course>222.690872</course><hAcc>1.799323</hAcc><vAcc>0.730186</vAcc></extensions></trkpt>
      <trkpt lon="-3.035429" lat="52.707880"><ele>187.281113</ele><time>2022-01-15T13:49:26Z</time><extensions><speed>1.634495</speed><course>225.297714</course><hAcc>1.785004</hAcc><vAcc>0.731508</vAcc></extensions></trkpt>
      <trkpt lon="-3.035446" lat="52.707870"><ele>187.116882</ele><time>2022-01-15T13:49:27Z</time><extensions><speed>1.545693</speed><course>227.551865</course><hAcc>1.770788</hAcc><vAcc>0.733020</vAcc></extensions></trkpt>
      <trkpt lon="-3.035462" lat="52.707861"><ele>186.983551</ele><time>2022-01-15T13:49:28Z</time><extensions><speed>1.503165</speed><course>227.491623</course><hAcc>1.765081</hAcc><vAcc>0.734600</vAcc></extensions></trkpt>
      <trkpt lon="-3.035478" lat="52.707852"><ele>186.832413</ele><time>2022-01-15T13:49:29Z</time><extensions><speed>1.426993</speed><course>225.429581</course><hAcc>1.783090</hAcc><vAcc>0.736032</vAcc></extensions></trkpt>
      <trkpt lon="-3.035493" lat="52.707843"><ele>186.688751</ele><time>2022-01-15T13:49:30Z</time><extensions><speed>1.345121</speed><course>226.039948</course><hAcc>1.789407</hAcc><vAcc>0.737373</vAcc></extensions></trkpt>
      <trkpt lon="-3.035507" lat="52.707835"><ele>186.561142</ele><time>2022-01-15T13:49:31Z</time><extensions><speed>1.320201</speed><course>227.438232</course><hAcc>1.779167</hAcc><vAcc>0.738435</vAcc></extensions></trkpt>
      <trkpt lon="-3.035522" lat="52.707827"><ele>186.435150</ele><time>2022-01-15T13:49:32Z</time><extensions><speed>1.340754</speed><course>227.064209</course><hAcc>1.764860</hAcc><vAcc>0.739123</vAcc></extensions></trkpt>
      <trkpt lon="-3.035536" lat="52.707819"><ele>186.287613</ele><time>2022-01-15T13:49:33Z</time><extensions><speed>1.352467</speed><course>225.423203</course><hAcc>1.766877</hAcc><vAcc>0.739452</vAcc></extensions></trkpt>
      <trkpt lon="-3.035551" lat="52.707810"><ele>186.154419</ele><time>2022-01-15T13:49:34Z</time><extensions><speed>1.399704</speed><course>223.848618</course><hAcc>1.768568</hAcc><vAcc>0.739394</vAcc></extensions></trkpt>
      <trkpt lon="-3.035566" lat="52.707800"><ele>186.036453</ele><time>2022-01-15T13:49:35Z</time><extensions><speed>1.467893</speed><course>223.628693</course><hAcc>1.778399</hAcc><vAcc>0.738940</vAcc></extensions></trkpt>
      <trkpt lon="-3.035581" lat="52.707791"><ele>185.931824</ele><time>2022-01-15T13:49:36Z</time><extensions><speed>1.455685</speed><course>223.279572</course><hAcc>1.779610</hAcc><vAcc>0.738068</vAcc></extensions></trkpt>
      <trkpt lon="-3.035596" lat="52.707782"><ele>185.825974</ele><time>2022-01-15T13:49:37Z</time><extensions><speed>1.310150</speed><course>223.333817</course><hAcc>1.770035</hAcc><vAcc>0.736803</vAcc></extensions></trkpt>
      <trkpt lon="-3.035609" lat="52.707774"><ele>185.726349</ele><time>2022-01-15T13:49:38Z</time><extensions><speed>1.179457</speed><course>226.588745</course><hAcc>1.751100</hAcc><vAcc>0.735209</vAcc></extensions></trkpt>
      <trkpt lon="-3.035622" lat="52.707767"><ele>185.621613</ele><time>2022-01-15T13:49:39Z</time><extensions><speed>1.167123</speed><course>233.036224</course><hAcc>1.728282</hAcc><vAcc>0.733317</vAcc></extensions></trkpt>
      <trkpt lon="-3.035637" lat="52.707761"><ele>185.522079</ele><time>2022-01-15T13:49:40Z</time><extensions><speed>1.119507</speed><course>237.808807</course><hAcc>1.739222</hAcc><vAcc>0.731264</vAcc></extensions></trkpt>
      <trkpt lon="-3.035651" lat="52.707756"><ele>185.419159</ele><time>2022-01-15T13:49:41Z</time><extensions><speed>1.091061</speed><course>240.929382</course><hAcc>1.753259</hAcc><vAcc>0.729172</vAcc></extensions></trkpt>
      <trkpt lon="-3.035666" lat="52.707752"><ele>185.315475</ele><time>2022-01-15T13:49:42Z</time><extensions><speed>1.186102</speed><course>246.264587</course><hAcc>1.722143</hAcc><vAcc>0.727087</vAcc></extensions></trkpt>
      <trkpt lon="-3.035682" lat="52.707747"><ele>185.218628</ele><time>2022-01-15T13:49:43Z</time><extensions><speed>1.145656</speed><course>247.809143</course><hAcc>1.744192</hAcc><vAcc>0.725056</vAcc></extensions></trkpt>
      <trkpt lon="-3.035698" lat="52.707744"><ele>185.133484</ele><time>2022-01-15T13:49:44Z</time><extensions><speed>1.156789</speed><course>248.967667</course><hAcc>1.768788</hAcc><vAcc>0.723152</vAcc></extensions></trkpt>
      <trkpt lon="-3.035715" lat="52.707740"><ele>185.043961</ele><time>2022-01-15T13:49:45Z</time><extensions><speed>1.323084</speed><course>251.283539</course><hAcc>1.748832</hAcc><vAcc>0.721367</vAcc></extensions></trkpt>
      <trkpt lon="-3.035735" lat="52.707736"><ele>184.982269</ele><time>2022-01-15T13:49:46Z</time><extensions><speed>1.440233</speed><course>251.849594</course><hAcc>1.750632</hAcc><vAcc>0.719688</vAcc></extensions></trkpt>
      <trkpt lon="-3.035756" lat="52.707732"><ele>184.944366</ele><time>2022-01-15T13:49:47Z</time><extensions><speed>1.525405</speed><course>251.394470</course><hAcc>1.774261</hAcc><vAcc>0.718149</vAcc></extensions></trkpt>
      <trkpt lon="-3.035777" lat="52.707727"><ele>184.926025</ele><time>2022-01-15T13:49:48Z</time><extensions><speed>1.494175</speed><course>250.526581</course><hAcc>1.795174</hAcc><vAcc>0.716737</vAcc></extensions></trkpt>
      <trkpt lon="-3.035798" lat="52.707722"><ele>184.908997</ele><time>2022-01-15T13:49:49Z</time><extensions><speed>1.401577</speed><course>248.752563</course><hAcc>1.800663</hAcc><vAcc>0.715427</vAcc></extensions></trkpt>
      <trkpt lon="-3.035816" lat="52.707718"><ele>184.912003</ele><time>2022-01-15T13:49:50Z</time><extensions><speed>1.297607</speed><course>246.960281</course><hAcc>1.806690</hAcc><vAcc>0.714274</vAcc></extensions></trkpt>
      <trkpt lon="-3.035834" lat="52.707713"><ele>184.915955</ele><time>2022-01-15T13:49:51Z</time><extensions><speed>1.227071</speed><course>246.135147</course><hAcc>1.808907</hAcc><vAcc>0.713244</vAcc></extensions></trkpt>
      <trkpt lon="-3.035851" lat="52.707709"><ele>184.932648</ele><time>2022-01-15T13:49:52Z</time><extensions><speed>1.220825</speed><course>246.096252</course><hAcc>1.793458</hAcc><vAcc>0.712281</vAcc></extensions></trkpt>
      <trkpt lon="-3.035868" lat="52.707704"><ele>184.957855</ele><time>2022-01-15T13:49:53Z</time><extensions><speed>1.308990</speed><course>246.187897</course><hAcc>1.770164</hAcc><vAcc>0.711375</vAcc></extensions></trkpt>
      <trkpt lon="-3.035886" lat="52.707699"><ele>184.977448</ele><time>2022-01-15T13:49:54Z</time><extensions><speed>1.346454</speed><course>246.334534</course><hAcc>1.769833</hAcc><vAcc>0.710456</vAcc></extensions></trkpt>
      <trkpt lon="-3.035905" lat="52.707694"><ele>184.991348</ele><time>2022-01-15T13:49:55Z</time><extensions><speed>1.358033</speed><course>246.331406</course><hAcc>1.770949</hAcc><vAcc>0.709531</vAcc></extensions></trkpt>
      <trkpt lon="-3.035922" lat="52.707689"><ele>185.007889</ele><time>2022-01-15T13:49:56Z</time><extensions><speed>1.250468</speed><course>245.726395</course><hAcc>1.775051</hAcc><vAcc>0.708554</vAcc></extensions></trkpt>
      <trkpt lon="-3.035939" lat="52.707685"><ele>185.028458</ele><time>2022-01-15T13:49:57Z</time><extensions><speed>1.141252</speed><course>244.402420</course><hAcc>1.787219</hAcc><vAcc>0.707531</vAcc></extensions></trkpt>
      <trkpt lon="-3.035953" lat="52.707681"><ele>185.036163</ele><time>2022-01-15T13:49:58Z</time><extensions><speed>1.005933</speed><course>245.712173</course><hAcc>1.812077</hAcc><vAcc>0.706438</vAcc></extensions></trkpt>
      <trkpt lon="-3.035968" lat="52.707677"><ele>185.023865</ele><time>2022-01-15T13:49:59Z</time><extensions><speed>1.229930</speed><course>245.876526</course><hAcc>1.781278</hAcc><vAcc>0.705388</vAcc></extensions></trkpt>
      <trkpt lon="-3.035986" lat="52.707672"><ele>184.996658</ele><time>2022-01-15T13:50:00Z</time><extensions><speed>1.386427</speed><course>245.528091</course><hAcc>1.767988</hAcc><vAcc>0.704402</vAcc></extensions></trkpt>
      <trkpt lon="-3.036005" lat="52.707666"><ele>184.948929</ele><time>2022-01-15T13:50:01Z</time><extensions><speed>1.459000</speed><course>245.671158</course><hAcc>1.793645</hAcc><vAcc>0.703541</vAcc></extensions></trkpt>
      <trkpt lon="-3.036025" lat="52.707661"><ele>184.869141</ele><time>2022-01-15T13:50:02Z</time><extensions><speed>1.488681</speed><course>245.216492</course><hAcc>1.825231</hAcc><vAcc>0.702846</vAcc></extensions></trkpt>
      <trkpt lon="-3.036045" lat="52.707655"><ele>184.812424</ele><time>2022-01-15T13:50:03Z</time><extensions><speed>1.472649</speed><course>244.680405</course><hAcc>1.828022</hAcc><vAcc>0.702349</vAcc></extensions></trkpt>
      <trkpt lon="-3.036064" lat="52.707650"><ele>184.727249</ele><time>2022-01-15T13:50:04Z</time><extensions><speed>1.362000</speed><course>245.006409</course><hAcc>1.838367</hAcc><vAcc>0.701975</vAcc></extensions></trkpt>
      <trkpt lon="-3.036082" lat="52.707645"><ele>184.643280</ele><time>2022-01-15T13:50:05Z</time><extensions><speed>1.209231</speed><course>245.304031</course><hAcc>1.868279</hAcc><vAcc>0.701719</vAcc></extensions></trkpt>
      <trkpt lon="-3.036099" lat="52.707640"><ele>184.552658</ele><time>2022-01-15T13:50:06Z</time><extensions><speed>1.336259</speed><course>245.304672</course><hAcc>1.849999</hAcc><vAcc>0.701592</vAcc></extensions></trkpt>
      <trkpt lon="-3.036118" lat="52.707634"><ele>184.460159</ele><time>2022-01-15T13:50:07Z</time><extensions><speed>1.459482</speed><course>244.564804</course><hAcc>1.835656</hAcc><vAcc>0.701544</vAcc></extensions></trkpt>
      <trkpt lon="-3.036138" lat="52.707629"><ele>184.354019</ele><time>2022-01-15T13:50:08Z</time><extensions><speed>1.521820</speed><course>244.433029</course><hAcc>1.845854</hAcc><vAcc>0.701511</vAcc></extensions></trkpt>
      <trkpt lon="-3.036158" lat="52.707623"><ele>184.236450</ele><time>2022-01-15T13:50:09Z</time><extensions><speed>1.530101</speed><course>245.256439</course><hAcc>1.864685</hAcc><vAcc>0.701466</vAcc></extensions></trkpt>
      <trkpt lon="-3.036179" lat="52.707617"><ele>184.124649</ele><time>2022-01-15T13:50:10Z</time><extensions><speed>1.555042</speed><course>245.120483</course><hAcc>1.867555</hAcc><vAcc>0.701219</vAcc></extensions></trkpt>
      <trkpt lon="-3.036200" lat="52.707611"><ele>184.009521</ele><time>2022-01-15T13:50:11Z</time><extensions><speed>1.530119</speed><course>244.714111</course><hAcc>1.866408</hAcc><vAcc>0.700837</vAcc></extensions></trkpt>
      <trkpt lon="-3.036220" lat="52.707605"><ele>183.902802</ele><time>2022-01-15T13:50:12Z</time><extensions><speed>1.459694</speed><course>243.736755</course><hAcc>1.864544</hAcc><vAcc>0.700122</vAcc></extensions></trkpt>
      <trkpt lon="-3.036239" lat="52.707599"><ele>183.793808</ele><time>2022-01-15T13:50:13Z</time><extensions><speed>1.403276</speed><course>241.940216</course><hAcc>1.858362</hAcc><vAcc>0.698918</vAcc></extensions></trkpt>
      <trkpt lon="-3.036257" lat="52.707593"><ele>183.669479</ele><time>2022-01-15T13:50:14Z</time><extensions><speed>1.370909</speed><course>240.185013</course><hAcc>1.837275</hAcc><vAcc>0.697106</vAcc></extensions></trkpt>
      <trkpt lon="-3.036275" lat="52.707587"><ele>183.518936</ele><time>2022-01-15T13:50:15Z</time><extensions><speed>1.348323</speed><course>239.165390</course><hAcc>1.838440</hAcc><vAcc>0.694595</vAcc></extensions></trkpt>
      <trkpt lon="-3.036291" lat="52.707581"><ele>183.367645</ele><time>2022-01-15T13:50:16Z</time><extensions><speed>1.261839</speed><course>238.873322</course><hAcc>1.868379</hAcc><vAcc>0.691363</vAcc></extensions></trkpt>
      <trkpt lon="-3.036307" lat="52.707575"><ele>183.220612</ele><time>2022-01-15T13:50:17Z</time><extensions><speed>1.289764</speed><course>239.010452</course><hAcc>1.855306</hAcc><vAcc>0.687481</vAcc></extensions></trkpt>
      <trkpt lon="-3.036324" lat="52.707569"><ele>183.055557</ele><time>2022-01-15T13:50:18Z</time><extensions><speed>1.302526</speed><course>239.439667</course><hAcc>1.845637</hAcc><vAcc>0.683149</vAcc></extensions></trkpt>
      <trkpt lon="-3.036341" lat="52.707563"><ele>182.890945</ele><time>2022-01-15T13:50:19Z</time><extensions><speed>1.345165</speed><course>238.953018</course><hAcc>1.849354</hAcc><vAcc>0.678575</vAcc></extensions></trkpt>
      <trkpt lon="-3.036358" lat="52.707556"><ele>182.707962</ele><time>2022-01-15T13:50:20Z</time><extensions><speed>1.409641</speed><course>237.699707</course><hAcc>1.859609</hAcc><vAcc>0.674055</vAcc></extensions></trkpt>
      <trkpt lon="-3.036376" lat="52.707549"><ele>182.520493</ele><time>2022-01-15T13:50:21Z</time><extensions><speed>1.368719</speed><course>236.949066</course><hAcc>1.879775</hAcc><vAcc>0.669894</vAcc></extensions></trkpt>
      <trkpt lon="-3.036393" lat="52.707542"><ele>182.330994</ele><time>2022-01-15T13:50:22Z</time><extensions><speed>1.414067</speed><course>235.281174</course><hAcc>1.874864</hAcc><vAcc>0.666299</vAcc></extensions></trkpt>
      <trkpt lon="-3.036410" lat="52.707535"><ele>182.131149</ele><time>2022-01-15T13:50:23Z</time><extensions><speed>1.433728</speed><course>232.867493</course><hAcc>1.872543</hAcc><vAcc>0.663433</vAcc></extensions></trkpt>
      <trkpt lon="-3.036427" lat="52.707526"><ele>181.924683</ele><time>2022-01-15T13:50:24Z</time><extensions><speed>1.450526</speed><course>230.621552</course><hAcc>1.879090</hAcc><vAcc>0.661436</vAcc></extensions></trkpt>
      <trkpt lon="-3.036443" lat="52.707518"><ele>181.709717</ele><time>2022-01-15T13:50:25Z</time><extensions><speed>1.458974</speed><course>227.949707</course><hAcc>1.879526</hAcc><vAcc>0.660494</vAcc></extensions></trkpt>
      <trkpt lon="-3.036459" lat="52.707509"><ele>181.481598</ele><time>2022-01-15T13:50:26Z</time><extensions><speed>1.465009</speed><course>224.515564</course><hAcc>1.866899</hAcc><vAcc>0.660717</vAcc></extensions></trkpt>
      <trkpt lon="-3.036474" lat="52.707499"><ele>181.249039</ele><time>2022-01-15T13:50:27Z</time><extensions><speed>1.524891</speed><course>222.304199</course><hAcc>1.852883</hAcc><vAcc>0.662095</vAcc></extensions></trkpt>
      <trkpt lon="-3.036490" lat="52.707489"><ele>181.014511</ele><time>2022-01-15T13:50:28Z</time><extensions><speed>1.558181</speed><course>221.217911</course><hAcc>1.841049</hAcc><vAcc>0.664503</vAcc></extensions></trkpt>
      <trkpt lon="-3.036505" lat="52.707478"><ele>180.769363</ele><time>2022-01-15T13:50:29Z</time><extensions><speed>1.504384</speed><course>220.637650</course><hAcc>1.826833</hAcc><vAcc>0.667659</vAcc></extensions></trkpt>
      <trkpt lon="-3.036519" lat="52.707468"><ele>180.523087</ele><time>2022-01-15T13:50:30Z</time><extensions><speed>1.470530</speed><course>221.110031</course><hAcc>1.829720</hAcc><vAcc>0.671250</vAcc></extensions></trkpt>
      <trkpt lon="-3.036533" lat="52.707458"><ele>180.264771</ele><time>2022-01-15T13:50:31Z</time><extensions><speed>1.416548</speed><course>220.887527</course><hAcc>1.852283</hAcc><vAcc>0.674923</vAcc></extensions></trkpt>
      <trkpt lon="-3.036546" lat="52.707448"><ele>179.981964</ele><time>2022-01-15T13:50:32Z</time><extensions><speed>1.383299</speed><course>220.097641</course><hAcc>1.838504</hAcc><vAcc>0.678324</vAcc></extensions></trkpt>
      <trkpt lon="-3.036560" lat="52.707439"><ele>179.696899</ele><time>2022-01-15T13:50:33Z</time><extensions><speed>1.358251</speed><course>221.754959</course><hAcc>1.808851</hAcc><vAcc>0.681419</vAcc></extensions></trkpt>
      <trkpt lon="-3.036573" lat="52.707430"><ele>179.414536</ele><time>2022-01-15T13:50:34Z</time><extensions><speed>1.280224</speed><course>223.607819</course><hAcc>1.804224</hAcc><vAcc>0.684070</vAcc></extensions></trkpt>
      <trkpt lon="-3.036586" lat="52.707422"><ele>179.132568</ele><time>2022-01-15T13:50:35Z</time><extensions><speed>1.222006</speed><course>224.925781</course><hAcc>1.817262</hAcc><vAcc>0.686208</vAcc></extensions></trkpt>
      <trkpt lon="-3.036598" lat="52.707415"><ele>178.820465</ele><time>2022-01-15T13:50:36Z</time><extensions><speed>1.190984</speed><course>224.895050</course><hAcc>1.829066</hAcc><vAcc>0.687683</vAcc></extensions></trkpt>
      <trkpt lon="-3.036610" lat="52.707407"><ele>178.505997</ele><time>2022-01-15T13:50:37Z</time><extensions><speed>1.166971</speed><course>222.442429</course><hAcc>1.834041</hAcc><vAcc>0.688242</vAcc></extensions></trkpt>
      <trkpt lon="-3.036621" lat="52.707399"><ele>178.179779</ele><time>2022-01-15T13:50:38Z</time><extensions><speed>1.111470</speed><course>216.174789</course><hAcc>1.838705</hAcc><vAcc>0.687962</vAcc></extensions></trkpt>
      <trkpt lon="-3.036629" lat="52.707391"><ele>177.881424</ele><time>2022-01-15T13:50:39Z</time><extensions><speed>1.033580</speed><course>206.862152</course><hAcc>1.845942</hAcc><vAcc>0.686648</vAcc></extensions></trkpt>
      <trkpt lon="-3.036635" lat="52.707382"><ele>177.579025</ele><time>2022-01-15T13:50:40Z</time><extensions><speed>0.976193</speed><course>198.136734</course><hAcc>1.850130</hAcc><vAcc>0.684181</vAcc></extensions></trkpt>
      <trkpt lon="-3.036639" lat="52.707374"><ele>177.267441</ele><time>2022-01-15T13:50:41Z</time><extensions><speed>0.998180</speed><course>192.597595</course><hAcc>1.840694</hAcc><vAcc>0.680477</vAcc></extensions></trkpt>
      <trkpt lon="-3.036641" lat="52.707365"><ele>176.960236</ele><time>2022-01-15T13:50:42Z</time><extensions><speed>1.015745</speed><course>188.877182</course><hAcc>1.850428</hAcc><vAcc>0.675533</vAcc></extensions></trkpt>
      <trkpt lon="-3.036643" lat="52.707356"><ele>176.652283</ele><time>2022-01-15T13:50:43Z</time><extensions><speed>1.040872</speed><course>184.825424</course><hAcc>1.864973</hAcc><vAcc>0.669319</vAcc></extensions></trkpt>
      <trkpt lon="-3.036644" lat="52.707346"><ele>176.348938</ele><time>2022-01-15T13:50:44Z</time><extensions><speed>1.046297</speed><course>178.679535</course><hAcc>1.871792</hAcc><vAcc>0.661806</vAcc></extensions></trkpt>
      <trkpt lon="-3.036642" lat="52.707337"><ele>176.045715</ele><time>2022-01-15T13:50:45Z</time><extensions><speed>1.003784</speed><course>170.249283</course><hAcc>1.885642</hAcc><vAcc>0.653024</vAcc></extensions></trkpt>
      <trkpt lon="-3.036639" lat="52.707329"><ele>175.746078</ele><time>2022-01-15T13:50:46Z</time><extensions><speed>0.943774</speed><course>159.685547</course><hAcc>1.905449</hAcc><vAcc>0.643129</vAcc></extensions></trkpt>
      <trkpt lon="-3.036633" lat="52.707321"><ele>175.451065</ele><time>2022-01-15T13:50:47Z</time><extensions><speed>0.932146</speed><course>150.224243</course><hAcc>1.917510</hAcc><vAcc>0.632469</vAcc></extensions></trkpt>
      <trkpt lon="-3.036625" lat="52.707314"><ele>175.162964</ele><time>2022-01-15T13:50:48Z</time><extensions><speed>0.926533</speed><course>140.558487</course><hAcc>1.942011</hAcc><vAcc>0.621533</vAcc></extensions></trkpt>
      <trkpt lon="-3.036615" lat="52.707309"><ele>174.888412</ele><time>2022-01-15T13:50:49Z</time><extensions><speed>0.902181</speed><course>130.160065</course><hAcc>1.962789</hAcc><vAcc>0.610906</vAcc></extensions></trkpt>
      <trkpt lon="-3.036604" lat="52.707304"><ele>174.620819</ele><time>2022-01-15T13:50:50Z</time><extensions><speed>0.883539</speed><course>118.156830</course><hAcc>1.973938</hAcc><vAcc>0.601238</vAcc></extensions></trkpt>
      <trkpt lon="-3.036592" lat="52.707301"><ele>174.358246</ele><time>2022-01-15T13:50:51Z</time><extensions><speed>0.885457</speed><course>107.637535</course><hAcc>1.993879</hAcc><vAcc>0.593171</vAcc></extensions></trkpt>
      <trkpt lon="-3.036579" lat="52.707299"><ele>174.103958</ele><time>2022-01-15T13:50:52Z</time><extensions><speed>0.916815</speed><course>99.097244</course><hAcc>2.012377</hAcc><vAcc>0.587291</vAcc></extensions></trkpt>
      <trkpt lon="-3.036565" lat="52.707299"><ele>173.861618</ele><time>2022-01-15T13:50:53Z</time><extensions><speed>0.965451</speed><course>93.205704</course><hAcc>2.018736</hAcc><vAcc>0.584046</vAcc></extensions></trkpt>
      <trkpt lon="-3.036551" lat="52.707298"><ele>173.634171</ele><time>2022-01-15T13:50:54Z</time><extensions><speed>1.038058</speed><course>90.292915</course><hAcc>2.012380</hAcc><vAcc>0.583636</vAcc></extensions></trkpt>
      <trkpt lon="-3.036535" lat="52.707298"><ele>173.422714</ele><time>2022-01-15T13:50:55Z</time><extensions><speed>1.086533</speed><course>90.393425</course><hAcc>2.005970</hAcc><vAcc>0.585958</vAcc></extensions></trkpt>
      <trkpt lon="-3.036518" lat="52.707298"><ele>173.227280</ele><time>2022-01-15T13:50:56Z</time><extensions><speed>1.123135</speed><course>91.542290</course><hAcc>1.994673</hAcc><vAcc>0.590579</vAcc></extensions></trkpt>
      <trkpt lon="-3.036502" lat="52.707298"><ele>173.050476</ele><time>2022-01-15T13:50:57Z</time><extensions><speed>1.140527</speed><course>91.630829</course><hAcc>1.978671</hAcc><vAcc>0.596873</vAcc></extensions></trkpt>
      <trkpt lon="-3.036484" lat="52.707298"><ele>172.889587</ele><time>2022-01-15T13:50:58Z</time><extensions><speed>1.183999</speed><course>89.687401</course><hAcc>1.954545</hAcc><vAcc>0.604218</vAcc></extensions></trkpt>
      <trkpt lon="-3.036466" lat="52.707298"><ele>172.742828</ele><time>2022-01-15T13:50:59Z</time><extensions><speed>1.276749</speed><course>85.971832</course><hAcc>1.933058</hAcc><vAcc>0.612179</vAcc></extensions></trkpt>
      <trkpt lon="-3.036447" lat="52.707299"><ele>172.606812</ele><time>2022-01-15T13:51:00Z</time><extensions><speed>1.356578</speed><course>83.706741</course><hAcc>1.919472</hAcc><vAcc>0.620533</vAcc></extensions></trkpt>
      <trkpt lon="-3.036426" lat="52.707301"><ele>172.482437</ele><time>2022-01-15T13:51:01Z</time><extensions><speed>1.410940</speed><course>82.472969</course><hAcc>1.913284</hAcc><vAcc>0.629234</vAcc></extensions></trkpt>
      <trkpt lon="-3.036406" lat="52.707302"><ele>172.367004</ele><time>2022-01-15T13:51:02Z</time><extensions><speed>1.401641</speed><course>81.370598</course><hAcc>1.910353</hAcc><vAcc>0.638256</vAcc></extensions></trkpt>
      <trkpt lon="-3.036385" lat="52.707304"><ele>172.263000</ele><time>2022-01-15T13:51:03Z</time><extensions><speed>1.364912</speed><course>81.293579</course><hAcc>1.899916</hAcc><vAcc>0.647483</vAcc></extensions></trkpt>
      <trkpt lon="-3.036366" lat="52.707306"><ele>172.160889</ele><time>2022-01-15T13:51:04Z</time><extensions><speed>1.311524</speed><course>82.977455</course><hAcc>1.883432</hAcc><vAcc>0.656618</vAcc></extensions></trkpt>
      <trkpt lon="-3.036346" lat="52.707307"><ele>172.063583</ele><time>2022-01-15T13:51:05Z</time><extensions><speed>1.297026</speed><course>86.412033</course><hAcc>1.869936</hAcc><vAcc>0.665346</vAcc></extensions></trkpt>
      <trkpt lon="-3.036327" lat="52.707307"><ele>171.962967</ele><time>2022-01-15T13:51:06Z</time><extensions><speed>1.360535</speed><course>90.107368</course><hAcc>1.860503</hAcc><vAcc>0.673777</vAcc></extensions></trkpt>
      <trkpt lon="-3.036306" lat="52.707307"><ele>171.842911</ele><time>2022-01-15T13:51:07Z</time><extensions><speed>1.387101</speed><course>94.235489</course><hAcc>1.848553</hAcc><vAcc>0.681586</vAcc></extensions></trkpt>
      <trkpt lon="-3.036286" lat="52.707305"><ele>171.712891</ele><time>2022-01-15T13:51:08Z</time><extensions><speed>1.419344</speed><course>98.936424</course><hAcc>1.837469</hAcc><vAcc>0.688622</vAcc></extensions></trkpt>
      <trkpt lon="-3.036265" lat="52.707303"><ele>171.584412</ele><time>2022-01-15T13:51:09Z</time><extensions><speed>1.451221</speed><course>102.670647</course><hAcc>1.840353</hAcc><vAcc>0.694804</vAcc></extensions></trkpt>
      <trkpt lon="-3.036244" lat="52.707300"><ele>171.460617</ele><time>2022-01-15T13:51:10Z</time><extensions><speed>1.451628</speed><course>104.887680</course><hAcc>1.854816</hAcc><vAcc>0.700089</vAcc></extensions></trkpt>
      <trkpt lon="-3.036223" lat="52.707296"><ele>171.324753</ele><time>2022-01-15T13:51:11Z</time><extensions><speed>1.521981</speed><course>105.783409</course><hAcc>1.851189</hAcc><vAcc>0.704412</vAcc></extensions></trkpt>
      <trkpt lon="-3.036200" lat="52.707292"><ele>171.174927</ele><time>2022-01-15T13:51:12Z</time><extensions><speed>1.587916</speed><course>105.264832</course><hAcc>1.851503</hAcc><vAcc>0.707723</vAcc></extensions></trkpt>
      <trkpt lon="-3.036177" lat="52.707289"><ele>171.026810</ele><time>2022-01-15T13:51:13Z</time><extensions><speed>1.646253</speed><course>104.744293</course><hAcc>1.854413</hAcc><vAcc>0.710072</vAcc></extensions></trkpt>
      <trkpt lon="-3.036154" lat="52.707285"><ele>170.867462</ele><time>2022-01-15T13:51:14Z</time><extensions><speed>1.663895</speed><course>104.330269</course><hAcc>1.857624</hAcc><vAcc>0.711395</vAcc></extensions></trkpt>
      <trkpt lon="-3.036130" lat="52.707281"><ele>170.699829</ele><time>2022-01-15T13:51:15Z</time><extensions><speed>1.612241</speed><course>104.513443</course><hAcc>1.866958</hAcc><vAcc>0.711830</vAcc></extensions></trkpt>
      <trkpt lon="-3.036108" lat="52.707278"><ele>170.528137</ele><time>2022-01-15T13:51:16Z</time><extensions><speed>1.498564</speed><course>104.280930</course><hAcc>1.883697</hAcc><vAcc>0.711414</vAcc></extensions></trkpt>
      <trkpt lon="-3.036087" lat="52.707275"><ele>170.351990</ele><time>2022-01-15T13:51:17Z</time><extensions><speed>1.410865</speed><course>101.642891</course><hAcc>1.893681</hAcc><vAcc>0.710116</vAcc></extensions></trkpt>
      <trkpt lon="-3.036066" lat="52.707273"><ele>170.161926</ele><time>2022-01-15T13:51:18Z</time><extensions><speed>1.372495</speed><course>98.541649</course><hAcc>1.896474</hAcc><vAcc>0.707941</vAcc></extensions></trkpt>
      <trkpt lon="-3.036046" lat="52.707271"><ele>169.964050</ele><time>2022-01-15T13:51:19Z</time><extensions><speed>1.377917</speed><course>96.333870</course><hAcc>1.897918</hAcc><vAcc>0.704929</vAcc></extensions></trkpt>
      <trkpt lon="-3.036026" lat="52.707270"><ele>169.759399</ele><time>2022-01-15T13:51:20Z</time><extensions><speed>1.391204</speed><course>96.070465</course><hAcc>1.899336</hAcc><vAcc>0.701171</vAcc></extensions></trkpt>
      <trkpt lon="-3.036005" lat="52.707268"><ele>169.544495</ele><time>2022-01-15T13:51:21Z</time><extensions><speed>1.400405</speed><course>95.954391</course><hAcc>1.900762</hAcc><vAcc>0.696725</vAcc></extensions></trkpt>
      <trkpt lon="-3.035984" lat="52.707267"><ele>169.343277</ele><time>2022-01-15T13:51:22Z</time><extensions><speed>1.422093</speed><course>96.528015</course><hAcc>1.902724</hAcc><vAcc>0.691791</vAcc></extensions></trkpt>
      <trkpt lon="-3.035963" lat="52.707265"><ele>169.131607</ele><time>2022-01-15T13:51:23Z</time><extensions><speed>1.453932</speed><course>98.707275</course><hAcc>1.902838</hAcc><vAcc>0.686542</vAcc></extensions></trkpt>
      <trkpt lon="-3.035942" lat="52.707263"><ele>168.912460</ele><time>2022-01-15T13:51:24Z</time><extensions><speed>1.423736</speed><course>102.110229</course><hAcc>1.904122</hAcc><vAcc>0.681158</vAcc></extensions></trkpt>
      <trkpt lon="-3.035922" lat="52.707260"><ele>168.686539</ele><time>2022-01-15T13:51:25Z</time><extensions><speed>1.366301</speed><course>106.531013</course><hAcc>1.907306</hAcc><vAcc>0.675817</vAcc></extensions></trkpt>
      <trkpt lon="-3.035904" lat="52.707256"><ele>168.455322</ele><time>2022-01-15T13:51:26Z</time><extensions><speed>1.302670</speed><course>110.930618</course><hAcc>1.910771</hAcc><vAcc>0.670692</vAcc></extensions></trkpt>
      <trkpt lon="-3.035886" lat="52.707251"><ele>168.221115</ele><time>2022-01-15T13:51:27Z</time><extensions><speed>1.267042</speed><course>114.282738</course><hAcc>1.906935</hAcc><vAcc>0.665953</vAcc></extensions></trkpt>
      <trkpt lon="-3.035870" lat="52.707247"><ele>167.983566</ele><time>2022-01-15T13:51:28Z</time><extensions><speed>1.150272</speed><course>115.634331</course><hAcc>1.903317</hAcc><vAcc>0.661766</vAcc></extensions></trkpt>
      <trkpt lon="-3.035855" lat="52.707242"><ele>167.738525</ele><time>2022-01-15T13:51:29Z</time><extensions><speed>1.081170</speed><course>116.339386</course><hAcc>1.902449</hAcc><vAcc>0.658285</vAcc></extensions></trkpt>
      <trkpt lon="-3.035840" lat="52.707238"><ele>167.491272</ele><time>2022-01-15T13:51:30Z</time><extensions><speed>1.076996</speed><course>117.698296</course><hAcc>1.898951</hAcc><vAcc>0.655683</vAcc></extensions></trkpt>
      <trkpt lon="-3.035826" lat="52.707233"><ele>167.237564</ele><time>2022-01-15T13:51:31Z</time><extensions><speed>1.183492</speed><course>119.124435</course><hAcc>1.902653</hAcc><vAcc>0.654024</vAcc></extensions></trkpt>
      <trkpt lon="-3.035810" lat="52.707227"><ele>166.989258</ele><time>2022-01-15T13:51:32Z</time><extensions><speed>1.295263</speed><course>120.949028</course><hAcc>1.907978</hAcc><vAcc>0.653274</vAcc></extensions></trkpt>
      <trkpt lon="-3.035793" lat="52.707221"><ele>166.729584</ele><time>2022-01-15T13:51:33Z</time><extensions><speed>1.420880</speed><course>124.087296</course><hAcc>1.897699</hAcc><vAcc>0.653297</vAcc></extensions></trkpt>
      <trkpt lon="-3.035776" lat="52.707213"><ele>166.466263</ele><time>2022-01-15T13:51:34Z</time><extensions><speed>1.445627</speed><course>127.410515</course><hAcc>1.892048</hAcc><vAcc>0.653872</vAcc></extensions></trkpt>
      <trkpt lon="-3.035759" lat="52.707205"><ele>166.198868</ele><time>2022-01-15T13:51:35Z</time><extensions><speed>1.404159</speed><course>130.696289</course><hAcc>1.890053</hAcc><vAcc>0.654743</vAcc></extensions></trkpt>
      <trkpt lon="-3.035744" lat="52.707197"><ele>165.922302</ele><time>2022-01-15T13:51:36Z</time><extensions><speed>1.342618</speed><course>134.538559</course><hAcc>1.893067</hAcc><vAcc>0.655602</vAcc></extensions></trkpt>
      <trkpt lon="-3.035731" lat="52.707188"><ele>165.630600</ele><time>2022-01-15T13:51:37Z</time><extensions><speed>1.240492</speed><course>138.010361</course><hAcc>1.903443</hAcc><vAcc>0.656048</vAcc></extensions></trkpt>
      <trkpt lon="-3.035718" lat="52.707180"><ele>165.336029</ele><time>2022-01-15T13:51:38Z</time><extensions><speed>1.331503</speed><course>139.327774</course><hAcc>1.891046</hAcc><vAcc>0.655855</vAcc></extensions></trkpt>
      <trkpt lon="-3.035705" lat="52.707170"><ele>165.030273</ele><time>2022-01-15T13:51:39Z</time><extensions><speed>1.429419</speed><course>139.587296</course><hAcc>1.883140</hAcc><vAcc>0.654896</vAcc></extensions></trkpt>
      <trkpt lon="-3.035691" lat="52.707160"><ele>164.700226</ele><time>2022-01-15T13:51:40Z</time><extensions><speed>1.486190</speed><course>139.020035</course><hAcc>1.888074</hAcc><vAcc>0.653030</vAcc></extensions></trkpt>
      <trkpt lon="-3.035676" lat="52.707150"><ele>164.367706</ele><time>2022-01-15T13:51:41Z</time><extensions><speed>1.489126</speed><course>137.702652</course><hAcc>1.898851</hAcc><vAcc>0.650143</vAcc></extensions></trkpt>
      <trkpt lon="-3.035661" lat="52.707141"><ele>164.025894</ele><time>2022-01-15T13:51:42Z</time><extensions><speed>1.444548</speed><course>135.699280</course><hAcc>1.904461</hAcc><vAcc>0.646150</vAcc></extensions></trkpt>
      <trkpt lon="-3.035646" lat="52.707131"><ele>163.675949</ele><time>2022-01-15T13:51:43Z</time><extensions><speed>1.385776</speed><course>133.619293</course><hAcc>1.916244</hAcc><vAcc>0.641058</vAcc></extensions></trkpt>
      <trkpt lon="-3.035631" lat="52.707123"><ele>163.320572</ele><time>2022-01-15T13:51:44Z</time><extensions><speed>1.402179</speed><course>132.305359</course><hAcc>1.931644</hAcc><vAcc>0.634984</vAcc></extensions></trkpt>
      <trkpt lon="-3.035615" lat="52.707114"><ele>162.967545</ele><time>2022-01-15T13:51:45Z</time><extensions><speed>1.477594</speed><course>132.023621</course><hAcc>1.946865</hAcc><vAcc>0.628208</vAcc></extensions></trkpt>
      <trkpt lon="-3.035598" lat="52.707105"><ele>162.620926</ele><time>2022-01-15T13:51:46Z</time><extensions><speed>1.533957</speed><course>131.066681</course><hAcc>1.953704</hAcc><vAcc>0.621215</vAcc></extensions></trkpt>
      <trkpt lon="-3.035580" lat="52.707096"><ele>162.280579</ele><time>2022-01-15T13:51:47Z</time><extensions><speed>1.529786</speed><course>130.660248</course><hAcc>1.968084</hAcc><vAcc>0.614707</vAcc></extensions></trkpt>
      <trkpt lon="-3.035564" lat="52.707087"><ele>161.952072</ele><time>2022-01-15T13:51:48Z</time><extensions><speed>1.448493</speed><course>131.473236</course><hAcc>2.003092</hAcc><vAcc>0.609528</vAcc></extensions></trkpt>
      <trkpt lon="-3.035548" lat="52.707078"><ele>161.634750</ele><time>2022-01-15T13:51:49Z</time><extensions><speed>1.408884</speed><course>133.019119</course><hAcc>2.022351</hAcc><vAcc>0.606433</vAcc></extensions></trkpt>
      <trkpt lon="-3.035533" lat="52.707069"><ele>161.331055</ele><time>2022-01-15T13:51:50Z</time><extensions><speed>1.400808</speed><course>134.229309</course><hAcc>2.014700</hAcc><vAcc>0.605840</vAcc></extensions></trkpt>
      <trkpt lon="-3.035518" lat="52.707060"><ele>161.042023</ele><time>2022-01-15T13:51:51Z</time><extensions><speed>1.435033</speed><course>136.476562</course><hAcc>2.002532</hAcc><vAcc>0.607887</vAcc></extensions></trkpt>
      <trkpt lon="-3.035503" lat="52.707051"><ele>160.768875</ele><time>2022-01-15T13:51:52Z</time><extensions><speed>1.487116</speed><course>138.552475</course><hAcc>1.991296</hAcc><vAcc>0.612336</vAcc></extensions></trkpt>
      <trkpt lon="-3.035488" lat="52.707040"><ele>160.509262</ele><time>2022-01-15T13:51:53Z</time><extensions><speed>1.556427</speed><course>139.948700</course><hAcc>1.979571</hAcc><vAcc>0.618612</vAcc></extensions></trkpt>
      <trkpt lon="-3.035473" lat="52.707029"><ele>160.255737</ele><time>2022-01-15T13:51:54Z</time><extensions><speed>1.587545</speed><course>140.870758</course><hAcc>1.964323</hAcc><vAcc>0.625951</vAcc></extensions></trkpt>
      <trkpt lon="-3.035458" lat="52.707018"><ele>159.996292</ele><time>2022-01-15T13:51:55Z</time><extensions><speed>1.663258</speed><course>141.913361</course><hAcc>1.950839</hAcc><vAcc>0.633552</vAcc></extensions></trkpt>
      <trkpt lon="-3.035443" lat="52.707006"><ele>159.735718</ele><time>2022-01-15T13:51:56Z</time><extensions><speed>1.658398</speed><course>142.734161</course><hAcc>1.940539</hAcc><vAcc>0.640696</vAcc></extensions></trkpt>
      <trkpt lon="-3.035428" lat="52.706994"><ele>159.474518</ele><time>2022-01-15T13:51:57Z</time><extensions><speed>1.632087</speed><course>142.924271</course><hAcc>1.930110</hAcc><vAcc>0.647034</vAcc></extensions></trkpt>
      <trkpt lon="-3.035414" lat="52.706983"><ele>159.221832</ele><time>2022-01-15T13:51:58Z</time><extensions><speed>1.574149</speed><course>143.104691</course><hAcc>1.923884</hAcc><vAcc>0.652311</vAcc></extensions></trkpt>
      <trkpt lon="-3.035401" lat="52.706972"><ele>158.945221</ele><time>2022-01-15T13:51:59Z</time><extensions><speed>1.452355</speed><course>143.061203</course><hAcc>1.917719</hAcc><vAcc>0.656558</vAcc></extensions></trkpt>
      <trkpt lon="-3.035388" lat="52.706962"><ele>158.656998</ele><time>2022-01-15T13:52:00Z</time><extensions><speed>1.349288</speed><course>142.672806</course><hAcc>1.908223</hAcc><vAcc>0.659903</vAcc></extensions></trkpt>
      <trkpt lon="-3.035376" lat="52.706952"><ele>158.367905</ele><time>2022-01-15T13:52:01Z</time><extensions><speed>1.294297</speed><course>144.287384</course><hAcc>1.915054</hAcc><vAcc>0.662509</vAcc></extensions></trkpt>
      <trkpt lon="-3.035365" lat="52.706942"><ele>158.084396</ele><time>2022-01-15T13:52:02Z</time><extensions><speed>1.366241</speed><course>145.154953</course><hAcc>1.896334</hAcc><vAcc>0.664464</vAcc></extensions></trkpt>
      <trkpt lon="-3.035353" lat="52.706932"><ele>157.798203</ele><time>2022-01-15T13:52:03Z</time><extensions><speed>1.443081</speed><course>146.074615</course><hAcc>1.883162</hAcc><vAcc>0.665918</vAcc></extensions></trkpt>
      <trkpt lon="-3.035341" lat="52.706921"><ele>157.507462</ele><time>2022-01-15T13:52:04Z</time><extensions><speed>1.457908</speed><course>147.681168</course><hAcc>1.881437</hAcc><vAcc>0.666858</vAcc></extensions></trkpt>
      <trkpt lon="-3.035330" lat="52.706910"><ele>157.216919</ele><time>2022-01-15T13:52:05Z</time><extensions><speed>1.391679</speed><course>150.018021</course><hAcc>1.882783</hAcc><vAcc>0.667264</vAcc></extensions></trkpt>
      <trkpt lon="-3.035320" lat="52.706899"><ele>156.930008</ele><time>2022-01-15T13:52:06Z</time><extensions><speed>1.330082</speed><course>152.048782</course><hAcc>1.868336</hAcc><vAcc>0.667145</vAcc></extensions></trkpt>
      <trkpt lon="-3.035312" lat="52.706889"><ele>156.652756</ele><time>2022-01-15T13:52:07Z</time><extensions><speed>1.242538</speed><course>154.029922</course><hAcc>1.860734</hAcc><vAcc>0.666501</vAcc></extensions></trkpt>
      <trkpt lon="-3.035304" lat="52.706879"><ele>156.373917</ele><time>2022-01-15T13:52:08Z</time><extensions><speed>1.172660</speed><course>154.591583</course><hAcc>1.855572</hAcc><vAcc>0.665343</vAcc></extensions></trkpt>
      <trkpt lon="-3.035297" lat="52.706870"><ele>156.099152</ele><time>2022-01-15T13:52:09Z</time><extensions><speed>1.058207</speed><course>153.783508</course><hAcc>1.871017</hAcc><vAcc>0.663776</vAcc></extensions></trkpt>
      <trkpt lon="-3.035290" lat="52.706862"><ele>155.826019</ele><time>2022-01-15T13:52:10Z</time><extensions><speed>1.001210</speed><course>153.684174</course><hAcc>1.876804</hAcc><vAcc>0.661987</vAcc></extensions></trkpt>
      <trkpt lon="-3.035283" lat="52.706853"><ele>155.555740</ele><time>2022-01-15T13:52:11Z</time><extensions><speed>1.143561</speed><course>154.903137</course><hAcc>1.856844</hAcc><vAcc>0.660291</vAcc></extensions></trkpt>
      <trkpt lon="-3.035276" lat="52.706843"><ele>155.281921</ele><time>2022-01-15T13:52:12Z</time><extensions><speed>1.263159</speed><course>156.945831</course><hAcc>1.868404</hAcc><vAcc>0.659040</vAcc></extensions></trkpt>
      <trkpt lon="-3.035268" lat="52.706832"><ele>155.012909</ele><time>2022-01-15T13:52:13Z</time><extensions><speed>1.416036</speed><course>158.791260</course><hAcc>1.880531</hAcc><vAcc>0.658610</vAcc></extensions></trkpt>
      <trkpt lon="-3.035261" lat="52.706819"><ele>154.742737</ele><time>2022-01-15T13:52:14Z</time><extensions><speed>1.536827</speed><course>159.825531</course><hAcc>1.872435</hAcc><vAcc>0.659264</vAcc></extensions></trkpt>
      <trkpt lon="-3.035253" lat="52.706806"><ele>154.485916</ele><time>2022-01-15T13:52:15Z</time><extensions><speed>1.603536</speed><course>160.957947</course><hAcc>1.870099</hAcc><vAcc>0.661114</vAcc></extensions></trkpt>
      <trkpt lon="-3.035245" lat="52.706793"><ele>154.238358</ele><time>2022-01-15T13:52:16Z</time><extensions><speed>1.573567</speed><course>162.478821</course><hAcc>1.877286</hAcc><vAcc>0.664037</vAcc></extensions></trkpt>
      <trkpt lon="-3.035238" lat="52.706779"><ele>154.000397</ele><time>2022-01-15T13:52:17Z</time><extensions><speed>1.525926</speed><course>163.326248</course><hAcc>1.875642</hAcc><vAcc>0.667821</vAcc></extensions></trkpt>
      <trkpt lon="-3.035232" lat="52.706766"><ele>153.758942</ele><time>2022-01-15T13:52:18Z</time><extensions><speed>1.449176</speed><course>164.345093</course><hAcc>1.870749</hAcc><vAcc>0.672160</vAcc></extensions></trkpt>
      <trkpt lon="-3.035227" lat="52.706754"><ele>153.520355</ele><time>2022-01-15T13:52:19Z</time><extensions><speed>1.373610</speed><course>165.324158</course><hAcc>1.862939</hAcc><vAcc>0.676756</vAcc></extensions></trkpt>
      <trkpt lon="-3.035222" lat="52.706742"><ele>153.282227</ele><time>2022-01-15T13:52:20Z</time><extensions><speed>1.308451</speed><course>166.284790</course><hAcc>1.854244</hAcc><vAcc>0.681349</vAcc></extensions></trkpt>
      <trkpt lon="-3.035217" lat="52.706731"><ele>153.052109</ele><time>2022-01-15T13:52:21Z</time><extensions><speed>1.264062</speed><course>165.469513</course><hAcc>1.843165</hAcc><vAcc>0.685767</vAcc></extensions></trkpt>
      <trkpt lon="-3.035212" lat="52.706720"><ele>152.821609</ele><time>2022-01-15T13:52:22Z</time><extensions><speed>1.263608</speed><course>164.613449</course><hAcc>1.832429</hAcc><vAcc>0.689790</vAcc></extensions></trkpt>
      <trkpt lon="-3.035207" lat="52.706709"><ele>152.616562</ele><time>2022-01-15T13:52:23Z</time><extensions><speed>1.256748</speed><course>163.885025</course><hAcc>1.824898</hAcc><vAcc>0.693279</vAcc></extensions></trkpt>
      <trkpt lon="-3.035202" lat="52.706699"><ele>152.415375</ele><time>2022-01-15T13:52:24Z</time><extensions><speed>1.240309</speed><course>163.087265</course><hAcc>1.824739</hAcc><vAcc>0.696122</vAcc></extensions></trkpt>
      <trkpt lon="-3.035196" lat="52.706688"><ele>152.218124</ele><time>2022-01-15T13:52:25Z</time><extensions><speed>1.209434</speed><course>161.139450</course><hAcc>1.825698</hAcc><vAcc>0.698158</vAcc></extensions></trkpt>
      <trkpt lon="-3.035190" lat="52.706678"><ele>152.035110</ele><time>2022-01-15T13:52:26Z</time><extensions><speed>1.201145</speed><course>160.400131</course><hAcc>1.825729</hAcc><vAcc>0.699177</vAcc></extensions></trkpt>
      <trkpt lon="-3.035184" lat="52.706668"><ele>151.840134</ele><time>2022-01-15T13:52:27Z</time><extensions><speed>1.203969</speed><course>158.717270</course><hAcc>1.817817</hAcc><vAcc>0.699083</vAcc></extensions></trkpt>
      <trkpt lon="-3.035177" lat="52.706658"><ele>151.628357</ele><time>2022-01-15T13:52:28Z</time><extensions><speed>1.203841</speed><course>158.405075</course><hAcc>1.821408</hAcc><vAcc>0.697891</vAcc></extensions></trkpt>
      <trkpt lon="-3.035171" lat="52.706647"><ele>151.424988</ele><time>2022-01-15T13:52:29Z</time><extensions><speed>1.218061</speed><course>159.005951</course><hAcc>1.829365</hAcc><vAcc>0.695414</vAcc></extensions></trkpt>
      <trkpt lon="-3.035164" lat="52.706637"><ele>151.239319</ele><time>2022-01-15T13:52:30Z</time><extensions><speed>1.251274</speed><course>160.389969</course><hAcc>1.844099</hAcc><vAcc>0.691553</vAcc></extensions></trkpt>
      <trkpt lon="-3.035158" lat="52.706626"><ele>151.062271</ele><time>2022-01-15T13:52:31Z</time><extensions><speed>1.288174</speed><course>162.187820</course><hAcc>1.857093</hAcc><vAcc>0.686365</vAcc></extensions></trkpt>
      <trkpt lon="-3.035153" lat="52.706615"><ele>150.892792</ele><time>2022-01-15T13:52:32Z</time><extensions><speed>1.323454</speed><course>163.509247</course><hAcc>1.864473</hAcc><vAcc>0.679802</vAcc></extensions></trkpt>
      <trkpt lon="-3.035147" lat="52.706603"><ele>150.731445</ele><time>2022-01-15T13:52:33Z</time><extensions><speed>1.315073</speed><course>164.634674</course><hAcc>1.868582</hAcc><vAcc>0.671862</vAcc></extensions></trkpt>
      <trkpt lon="-3.035142" lat="52.706592"><ele>150.576859</ele><time>2022-01-15T13:52:34Z</time><extensions><speed>1.308264</speed><course>164.296616</course><hAcc>1.873459</hAcc><vAcc>0.662590</vAcc></extensions></trkpt>
      <trkpt lon="-3.035137" lat="52.706581"><ele>150.431152</ele><time>2022-01-15T13:52:35Z</time><extensions><speed>1.257444</speed><course>163.907547</course><hAcc>1.882389</hAcc><vAcc>0.652104</vAcc></extensions></trkpt>
      <trkpt lon="-3.035132" lat="52.706570"><ele>150.290680</ele><time>2022-01-15T13:52:36Z</time><extensions><speed>1.191336</speed><course>163.663589</course><hAcc>1.891783</hAcc><vAcc>0.640630</vAcc></extensions></trkpt>
      <trkpt lon="-3.035127" lat="52.706560"><ele>150.154053</ele><time>2022-01-15T13:52:37Z</time><extensions><speed>1.156753</speed><course>164.005920</course><hAcc>1.915046</hAcc><vAcc>0.628489</vAcc></extensions></trkpt>
      <trkpt lon="-3.035122" lat="52.706550"><ele>150.021729</ele><time>2022-01-15T13:52:38Z</time><extensions><speed>1.107332</speed><course>164.791779</course><hAcc>1.949840</hAcc><vAcc>0.616100</vAcc></extensions></trkpt>
      <trkpt lon="-3.035118" lat="52.706540"><ele>149.889496</ele><time>2022-01-15T13:52:39Z</time><extensions><speed>1.218239</speed><course>165.961639</course><hAcc>1.951137</hAcc><vAcc>0.603940</vAcc></extensions></trkpt>
      <trkpt lon="-3.035114" lat="52.706529"><ele>149.753098</ele><time>2022-01-15T13:52:40Z</time><extensions><speed>1.295204</speed><course>167.497101</course><hAcc>1.964659</hAcc><vAcc>0.592535</vAcc></extensions></trkpt>
      <trkpt lon="-3.035110" lat="52.706518"><ele>149.612991</ele><time>2022-01-15T13:52:41Z</time><extensions><speed>1.236557</speed><course>169.698425</course><hAcc>1.997531</hAcc><vAcc>0.582390</vAcc></extensions></trkpt>
      <trkpt lon="-3.035107" lat="52.706507"><ele>149.472015</ele><time>2022-01-15T13:52:42Z</time><extensions><speed>1.249966</speed><course>169.930069</course><hAcc>2.009615</hAcc><vAcc>0.573960</vAcc></extensions></trkpt>
      <trkpt lon="-3.035104" lat="52.706496"><ele>149.335754</ele><time>2022-01-15T13:52:43Z</time><extensions><speed>1.239984</speed><course>170.151031</course><hAcc>2.015738</hAcc><vAcc>0.567585</vAcc></extensions></trkpt>
      <trkpt lon="-3.035101" lat="52.706485"><ele>149.207458</ele><time>2022-01-15T13:52:44Z</time><extensions><speed>1.212852</speed><course>170.395859</course><hAcc>2.020800</hAcc><vAcc>0.563464</vAcc></extensions></trkpt>
      <trkpt lon="-3.035098" lat="52.706474"><ele>149.083191</ele><time>2022-01-15T13:52:45Z</time><extensions><speed>1.231469</speed><course>171.372803</course><hAcc>2.018856</hAcc><vAcc>0.561621</vAcc></extensions></trkpt>
      <trkpt lon="-3.035095" lat="52.706463"><ele>148.962433</ele><time>2022-01-15T13:52:46Z</time><extensions><speed>1.290378</speed><course>172.047806</course><hAcc>2.008913</hAcc><vAcc>0.561969</vAcc></extensions></trkpt>
      <trkpt lon="-3.035092" lat="52.706451"><ele>148.846344</ele><time>2022-01-15T13:52:47Z</time><extensions><speed>1.383054</speed><course>172.567963</course><hAcc>1.994527</hAcc><vAcc>0.564376</vAcc></extensions></trkpt>
      <trkpt lon="-3.035090" lat="52.706438"><ele>148.737442</ele><time>2022-01-15T13:52:48Z</time><extensions><speed>1.492574</speed><course>172.716797</course><hAcc>1.977682</hAcc><vAcc>0.568702</vAcc></extensions></trkpt>
      <trkpt lon="-3.035087" lat="52.706424"><ele>148.627106</ele><time>2022-01-15T13:52:49Z</time><extensions><speed>1.578299</speed><course>172.912750</course><hAcc>1.964940</hAcc><vAcc>0.574760</vAcc></extensions></trkpt>
      <trkpt lon="-3.035084" lat="52.706410"><ele>148.518036</ele><time>2022-01-15T13:52:50Z</time><extensions><speed>1.638859</speed><course>173.339386</course><hAcc>1.954908</hAcc><vAcc>0.582354</vAcc></extensions></trkpt>
      <trkpt lon="-3.035081" lat="52.706395"><ele>148.419312</ele><time>2022-01-15T13:52:51Z</time><extensions><speed>1.683255</speed><course>173.556915</course><hAcc>1.950235</hAcc><vAcc>0.591112</vAcc></extensions></trkpt>
      <trkpt lon="-3.035079" lat="52.706380"><ele>148.319763</ele><time>2022-01-15T13:52:52Z</time><extensions><speed>1.731021</speed><course>174.353592</course><hAcc>1.934473</hAcc><vAcc>0.600582</vAcc></extensions></trkpt>
      <trkpt lon="-3.035076" lat="52.706364"><ele>148.223145</ele><time>2022-01-15T13:52:53Z</time><extensions><speed>1.726080</speed><course>175.514847</course><hAcc>1.922339</hAcc><vAcc>0.610342</vAcc></extensions></trkpt>
      <trkpt lon="-3.035075" lat="52.706349"><ele>148.119202</ele><time>2022-01-15T13:52:54Z</time><extensions><speed>1.679413</speed><course>176.813110</course><hAcc>1.911986</hAcc><vAcc>0.619985</vAcc></extensions></trkpt>
      <trkpt lon="-3.035073" lat="52.706334"><ele>148.010483</ele><time>2022-01-15T13:52:55Z</time><extensions><speed>1.604896</speed><course>177.969574</course><hAcc>1.904946</hAcc><vAcc>0.629118</vAcc></extensions></trkpt>
      <trkpt lon="-3.035072" lat="52.706320"><ele>147.898575</ele><time>2022-01-15T13:52:56Z</time><extensions><speed>1.568670</speed><course>176.971237</course><hAcc>1.892955</hAcc><vAcc>0.637692</vAcc></extensions></trkpt>
      <trkpt lon="-3.035071" lat="52.706306"><ele>147.769043</ele><time>2022-01-15T13:52:57Z</time><extensions><speed>1.551099</speed><course>175.207077</course><hAcc>1.883179</hAcc><vAcc>0.645368</vAcc></extensions></trkpt>
      <trkpt lon="-3.035069" lat="52.706292"><ele>147.636536</ele><time>2022-01-15T13:52:58Z</time><extensions><speed>1.555128</speed><course>173.790237</course><hAcc>1.879409</hAcc><vAcc>0.651946</vAcc></extensions></trkpt>
      <trkpt lon="-3.035066" lat="52.706278"><ele>147.479904</ele><time>2022-01-15T13:52:59Z</time><extensions><speed>1.553533</speed><course>173.788498</course><hAcc>1.876871</hAcc><vAcc>0.657416</vAcc></extensions></trkpt>
      <trkpt lon="-3.035064" lat="52.706264"><ele>147.306458</ele><time>2022-01-15T13:53:00Z</time><extensions><speed>1.548044</speed><course>173.843430</course><hAcc>1.874530</hAcc><vAcc>0.661788</vAcc></extensions></trkpt>
      <trkpt lon="-3.035061" lat="52.706250"><ele>147.139160</ele><time>2022-01-15T13:53:01Z</time><extensions><speed>1.561753</speed><course>174.155106</course><hAcc>1.861902</hAcc><vAcc>0.665091</vAcc></extensions></trkpt>
      <trkpt lon="-3.035059" lat="52.706236"><ele>146.953751</ele><time>2022-01-15T13:53:02Z</time><extensions><speed>1.568446</speed><course>173.300583</course><hAcc>1.850888</hAcc><vAcc>0.667454</vAcc></extensions></trkpt>
      <trkpt lon="-3.035056" lat="52.706222"><ele>146.732452</ele><time>2022-01-15T13:53:03Z</time><extensions><speed>1.559376</speed><course>172.806961</course><hAcc>1.847586</hAcc><vAcc>0.669013</vAcc></extensions></trkpt>
      <trkpt lon="-3.035053" lat="52.706208"><ele>146.489136</ele><time>2022-01-15T13:53:04Z</time><extensions><speed>1.583651</speed><course>172.125168</course><hAcc>1.846544</hAcc><vAcc>0.670120</vAcc></extensions></trkpt>
      <trkpt lon="-3.035049" lat="52.706194"><ele>146.232697</ele><time>2022-01-15T13:53:05Z</time><extensions><speed>1.613021</speed><course>171.398529</course><hAcc>1.856430</hAcc><vAcc>0.670949</vAcc></extensions></trkpt>
      <trkpt lon="-3.035046" lat="52.706180"><ele>145.978607</ele><time>2022-01-15T13:53:06Z</time><extensions><speed>1.528731</speed><course>171.392456</course><hAcc>1.880100</hAcc><vAcc>0.671736</vAcc></extensions></trkpt>
      <trkpt lon="-3.035043" lat="52.706166"><ele>145.719742</ele><time>2022-01-15T13:53:07Z</time><extensions><speed>1.494747</speed><course>171.703278</course><hAcc>1.858555</hAcc><vAcc>0.672718</vAcc></extensions></trkpt>
      <trkpt lon="-3.035040" lat="52.706153"><ele>145.460205</ele><time>2022-01-15T13:53:08Z</time><extensions><speed>1.465334</speed><course>172.787186</course><hAcc>1.845444</hAcc><vAcc>0.674092</vAcc></extensions></trkpt>
      <trkpt lon="-3.035037" lat="52.706140"><ele>145.187592</ele><time>2022-01-15T13:53:09Z</time><extensions><speed>1.453642</speed><course>174.155182</course><hAcc>1.849828</hAcc><vAcc>0.676088</vAcc></extensions></trkpt>
      <trkpt lon="-3.035035" lat="52.706127"><ele>144.937012</ele><time>2022-01-15T13:53:10Z</time><extensions><speed>1.469469</speed><course>175.188171</course><hAcc>1.850243</hAcc><vAcc>0.678684</vAcc></extensions></trkpt>
      <trkpt lon="-3.035033" lat="52.706114"><ele>144.702362</ele><time>2022-01-15T13:53:11Z</time><extensions><speed>1.489086</speed><course>174.977829</course><hAcc>1.840217</hAcc><vAcc>0.681933</vAcc></extensions></trkpt>
      <trkpt lon="-3.035031" lat="52.706100"><ele>144.451599</ele><time>2022-01-15T13:53:12Z</time><extensions><speed>1.484146</speed><course>175.893860</course><hAcc>1.829619</hAcc><vAcc>0.685975</vAcc></extensions></trkpt>
      <trkpt lon="-3.035030" lat="52.706087"><ele>144.212265</ele><time>2022-01-15T13:53:13Z</time><extensions><speed>1.473410</speed><course>176.896805</course><hAcc>1.832688</hAcc><vAcc>0.690946</vAcc></extensions></trkpt>
      <trkpt lon="-3.035029" lat="52.706074"><ele>143.983734</ele><time>2022-01-15T13:53:14Z</time><extensions><speed>1.396794</speed><course>176.693039</course><hAcc>1.843856</hAcc><vAcc>0.696484</vAcc></extensions></trkpt>
      <trkpt lon="-3.035028" lat="52.706061"><ele>143.744797</ele><time>2022-01-15T13:53:15Z</time><extensions><speed>1.486412</speed><course>177.563644</course><hAcc>1.820039</hAcc><vAcc>0.702457</vAcc></extensions></trkpt>
      <trkpt lon="-3.035027" lat="52.706047"><ele>143.521805</ele><time>2022-01-15T13:53:16Z</time><extensions><speed>1.543677</speed><course>177.842987</course><hAcc>1.802797</hAcc><vAcc>0.708707</vAcc></extensions></trkpt>
      <trkpt lon="-3.035026" lat="52.706033"><ele>143.307205</ele><time>2022-01-15T13:53:17Z</time><extensions><speed>1.576293</speed><course>178.436890</course><hAcc>1.801980</hAcc><vAcc>0.714956</vAcc></extensions></trkpt>
      <trkpt lon="-3.035026" lat="52.706019"><ele>143.090363</ele><time>2022-01-15T13:53:18Z</time><extensions><speed>1.551773</speed><course>180.161194</course><hAcc>1.801441</hAcc><vAcc>0.721030</vAcc></extensions></trkpt>
      <trkpt lon="-3.035026" lat="52.706005"><ele>142.943283</ele><time>2022-01-15T13:53:19Z</time><extensions><speed>1.577150</speed><course>180.837570</course><hAcc>1.788834</hAcc><vAcc>0.726814</vAcc></extensions></trkpt>
      <trkpt lon="-3.035026" lat="52.705991"><ele>142.785294</ele><time>2022-01-15T13:53:20Z</time><extensions><speed>1.591850</speed><course>179.206192</course><hAcc>1.761851</hAcc><vAcc>0.732355</vAcc></extensions></trkpt>
      <trkpt lon="-3.035025" lat="52.705976"><ele>142.652237</ele><time>2022-01-15T13:53:21Z</time><extensions><speed>1.620070</speed><course>178.030075</course><hAcc>1.737018</hAcc><vAcc>0.737560</vAcc></extensions></trkpt>
      <trkpt lon="-3.035024" lat="52.705961"><ele>142.519073</ele><time>2022-01-15T13:53:22Z</time><extensions><speed>1.695586</speed><course>178.447983</course><hAcc>1.728246</hAcc><vAcc>0.742438</vAcc></extensions></trkpt>
      <trkpt lon="-3.035024" lat="52.705947"><ele>142.398697</ele><time>2022-01-15T13:53:23Z</time><extensions><speed>1.543405</speed><course>180.045792</course><hAcc>1.728583</hAcc><vAcc>0.746923</vAcc></extensions></trkpt>
      <trkpt lon="-3.035024" lat="52.705933"><ele>142.316254</ele><time>2022-01-15T13:53:24Z</time><extensions><speed>1.507612</speed><course>178.319641</course><hAcc>1.710198</hAcc><vAcc>0.750967</vAcc></extensions></trkpt>
      <trkpt lon="-3.035023" lat="52.705920"><ele>142.247345</ele><time>2022-01-15T13:53:25Z</time><extensions><speed>1.406311</speed><course>175.933853</course><hAcc>1.728490</hAcc><vAcc>0.754636</vAcc></extensions></trkpt>
      <trkpt lon="-3.035021" lat="52.705907"><ele>142.183350</ele><time>2022-01-15T13:53:26Z</time><extensions><speed>1.464572</speed><course>173.717834</course><hAcc>1.712218</hAcc><vAcc>0.757914</vAcc></extensions></trkpt>
      <trkpt lon="-3.035019" lat="52.705894"><ele>142.131256</ele><time>2022-01-15T13:53:27Z</time><extensions><speed>1.533012</speed><course>173.663132</course><hAcc>1.676936</hAcc><vAcc>0.760735</vAcc></extensions></trkpt>
      <trkpt lon="-3.035016" lat="52.705880"><ele>142.097275</ele><time>2022-01-15T13:53:28Z</time><extensions><speed>1.542924</speed><course>174.800949</course><hAcc>1.670555</hAcc><vAcc>0.763069</vAcc></extensions></trkpt>
      <trkpt lon="-3.035015" lat="52.705866"><ele>142.068542</ele><time>2022-01-15T13:53:29Z</time><extensions><speed>1.544640</speed><course>176.484192</course><hAcc>1.694592</hAcc><vAcc>0.765073</vAcc></extensions></trkpt>
      <trkpt lon="-3.035014" lat="52.705853"><ele>142.054840</ele><time>2022-01-15T13:53:30Z</time><extensions><speed>1.436510</speed><course>180.218887</course><hAcc>1.739479</hAcc><vAcc>0.766750</vAcc></extensions></trkpt>
      <trkpt lon="-3.035015" lat="52.705841"><ele>142.045349</ele><time>2022-01-15T13:53:31Z</time><extensions><speed>1.350974</speed><course>184.180954</course><hAcc>1.726494</hAcc><vAcc>0.768222</vAcc></extensions></trkpt>
      <trkpt lon="-3.035016" lat="52.705829"><ele>142.057785</ele><time>2022-01-15T13:53:32Z</time><extensions><speed>1.248779</speed><course>185.464783</course><hAcc>1.725722</hAcc><vAcc>0.769427</vAcc></extensions></trkpt>
      <trkpt lon="-3.035018" lat="52.705819"><ele>142.067398</ele><time>2022-01-15T13:53:33Z</time><extensions><speed>1.041409</speed><course>188.206482</course><hAcc>1.727616</hAcc><vAcc>0.770386</vAcc></extensions></trkpt>
      <trkpt lon="-3.035021" lat="52.705811"><ele>142.096237</ele><time>2022-01-15T13:53:34Z</time><extensions><speed>0.786886</speed><course>190.918823</course><hAcc>1.736841</hAcc><vAcc>0.771151</vAcc></extensions></trkpt>
      <trkpt lon="-3.035023" lat="52.705805"><ele>142.088867</ele><time>2022-01-15T13:53:35Z</time><extensions><speed>0.508734</speed><course>194.350311</course><hAcc>1.750044</hAcc><vAcc>0.771772</vAcc></extensions></trkpt>
      <trkpt lon="-3.035024" lat="52.705802"><ele>142.094437</ele><time>2022-01-15T13:53:36Z</time><extensions><speed>0.188455</speed><course>220.924988</course><hAcc>1.750781</hAcc><vAcc>0.772343</vAcc></extensions></trkpt>
      <trkpt lon="-3.035026" lat="52.705802"><ele>142.101959</ele><time>2022-01-15T13:53:37Z</time><extensions><speed>0.151551</speed><course>318.806274</course><hAcc>1.758853</hAcc><vAcc>0.772915</vAcc></extensions></trkpt>
      <trkpt lon="-3.035027" lat="52.705804"><ele>142.104630</ele><time>2022-01-15T13:53:38Z</time><extensions><speed>0.226229</speed><course>338.839996</course><hAcc>1.757709</hAcc><vAcc>0.773566</vAcc></extensions></trkpt>
      <trkpt lon="-3.035028" lat="52.705806"><ele>142.124817</ele><time>2022-01-15T13:53:39Z</time><extensions><speed>0.233460</speed><course>345.248779</course><hAcc>1.756834</hAcc><vAcc>0.774337</vAcc></extensions></trkpt>
      <trkpt lon="-3.035029" lat="52.705808"><ele>142.134521</ele><time>2022-01-15T13:53:40Z</time><extensions><speed>0.216341</speed><course>349.574554</course><hAcc>1.757126</hAcc><vAcc>0.775273</vAcc></extensions></trkpt>
      <trkpt lon="-3.035030" lat="52.705809"><ele>142.140533</ele><time>2022-01-15T13:53:41Z</time><extensions><speed>0.202344</speed><course>352.734283</course><hAcc>1.755876</hAcc><vAcc>0.776436</vAcc></extensions></trkpt>
      <trkpt lon="-3.035030" lat="52.705811"><ele>142.163971</ele><time>2022-01-15T13:53:42Z</time><extensions><speed>0.196809</speed><course>356.893707</course><hAcc>1.751537</hAcc><vAcc>0.777818</vAcc></extensions></trkpt>
      <trkpt lon="-3.035030" lat="52.705813"><ele>142.190521</ele><time>2022-01-15T13:53:43Z</time><extensions><speed>0.183178</speed><course>3.292411</course><hAcc>1.751536</hAcc><vAcc>0.779346</vAcc></extensions></trkpt>
      <trkpt lon="-3.035030" lat="52.705814"><ele>142.179001</ele><time>2022-01-15T13:53:44Z</time><extensions><speed>0.169068</speed><course>11.068792</course><hAcc>1.748183</hAcc><vAcc>0.780959</vAcc></extensions></trkpt>
      <trkpt lon="-3.035029" lat="52.705816"><ele>142.160965</ele><time>2022-01-15T13:53:45Z</time><extensions><speed>0.151704</speed><course>21.022715</course><hAcc>1.748017</hAcc><vAcc>0.782632</vAcc></extensions></trkpt>
      <trkpt lon="-3.035028" lat="52.705816"><ele>142.140274</ele><time>2022-01-15T13:53:46Z</time><extensions><speed>0.080105</speed><course>42.666080</course><hAcc>1.780505</hAcc><vAcc>0.784347</vAcc></extensions></trkpt>
      <trkpt lon="-3.035027" lat="52.705816"><ele>142.119232</ele><time>2022-01-15T13:53:47Z</time><extensions><speed>0.069313</speed><course>119.609947</course><hAcc>1.770344</hAcc><vAcc>0.786001</vAcc></extensions></trkpt>
      <trkpt lon="-3.035026" lat="52.705816"><ele>142.092896</ele><time>2022-01-15T13:53:48Z</time><extensions><speed>0.168050</speed><course>163.176575</course><hAcc>1.765406</hAcc><vAcc>0.787607</vAcc></extensions></trkpt>
      <trkpt lon="-3.035026" lat="52.705813"><ele>142.058136</ele><time>2022-01-15T13:53:49Z</time><extensions><speed>0.324481</speed><course>175.304398</course><hAcc>1.766962</hAcc><vAcc>0.789160</vAcc></extensions></trkpt>
      <trkpt lon="-3.035026" lat="52.705810"><ele>142.023743</ele><time>2022-01-15T13:53:50Z</time><extensions><speed>0.505152</speed><course>180.695099</course><hAcc>1.771381</hAcc><vAcc>0.790648</vAcc></extensions></trkpt>
      <trkpt lon="-3.035026" lat="52.705804"><ele>141.973862</ele><time>2022-01-15T13:53:51Z</time><extensions><speed>0.693767</speed><course>184.419693</course><hAcc>1.770359</hAcc><vAcc>0.792087</vAcc></extensions></trkpt>
      <trkpt lon="-3.035027" lat="52.705797"><ele>141.916885</ele><time>2022-01-15T13:53:52Z</time><extensions><speed>0.878417</speed><course>188.037354</course><hAcc>1.760856</hAcc><vAcc>0.793487</vAcc></extensions></trkpt>
      <trkpt lon="-3.035030" lat="52.705788"><ele>141.858902</ele><time>2022-01-15T13:53:53Z</time><extensions><speed>1.095049</speed><course>191.764572</course><hAcc>1.748234</hAcc><vAcc>0.794794</vAcc></extensions></trkpt>
      <trkpt lon="-3.035034" lat="52.705777"><ele>141.801193</ele><time>2022-01-15T13:53:54Z</time><extensions><speed>1.399277</speed><course>195.463470</course><hAcc>1.745320</hAcc><vAcc>0.795958</vAcc></extensions></trkpt>
      <trkpt lon="-3.035040" lat="52.705764"><ele>141.739258</ele><time>2022-01-15T13:53:55Z</time><extensions><speed>1.556407</speed><course>197.489548</course><hAcc>1.740338</hAcc><vAcc>0.796936</vAcc></extensions></trkpt>
      <trkpt lon="-3.035047" lat="52.705751"><ele>141.697464</ele><time>2022-01-15T13:53:56Z</time><extensions><speed>1.629670</speed><course>196.596069</course><hAcc>1.730143</hAcc><vAcc>0.797692</vAcc></extensions></trkpt>
      <trkpt lon="-3.035054" lat="52.705737"><ele>141.659454</ele><time>2022-01-15T13:53:57Z</time><extensions><speed>1.593648</speed><course>194.942596</course><hAcc>1.720820</hAcc><vAcc>0.798210</vAcc></extensions></trkpt>
      <trkpt lon="-3.035059" lat="52.705723"><ele>141.610229</ele><time>2022-01-15T13:53:58Z</time><extensions><speed>1.510653</speed><course>192.492599</course><hAcc>1.720045</hAcc><vAcc>0.798536</vAcc></extensions></trkpt>
      <trkpt lon="-3.035063" lat="52.705710"><ele>141.572296</ele><time>2022-01-15T13:53:59Z</time><extensions><speed>1.442356</speed><course>185.764694</course><hAcc>1.715294</hAcc><vAcc>0.798643</vAcc></extensions></trkpt>
      <trkpt lon="-3.035064" lat="52.705697"><ele>141.540833</ele><time>2022-01-15T13:54:00Z</time><extensions><speed>1.492610</speed><course>179.838455</course><hAcc>1.714866</hAcc><vAcc>0.798601</vAcc></extensions></trkpt>
      <trkpt lon="-3.035063" lat="52.705683"><ele>141.528732</ele><time>2022-01-15T13:54:01Z</time><extensions><speed>1.609675</speed><course>176.751434</course><hAcc>1.723245</hAcc><vAcc>0.798405</vAcc></extensions></trkpt>
      <trkpt lon="-3.035062" lat="52.705668"><ele>141.490112</ele><time>2022-01-15T13:54:02Z</time><extensions><speed>1.730473</speed><course>177.368073</course><hAcc>1.731339</hAcc><vAcc>0.798030</vAcc></extensions></trkpt>
      <trkpt lon="-3.035061" lat="52.705652"><ele>141.447052</ele><time>2022-01-15T13:54:03Z</time><extensions><speed>1.734411</speed><course>180.321533</course><hAcc>1.733816</hAcc><vAcc>0.797585</vAcc></extensions></trkpt>
      <trkpt lon="-3.035062" lat="52.705637"><ele>141.407990</ele><time>2022-01-15T13:54:04Z</time><extensions><speed>1.720034</speed><course>183.045517</course><hAcc>1.734414</hAcc><vAcc>0.797086</vAcc></extensions></trkpt>
      <trkpt lon="-3.035064" lat="52.705622"><ele>141.381699</ele><time>2022-01-15T13:54:05Z</time><extensions><speed>1.701784</speed><course>186.875793</course><hAcc>1.731998</hAcc><vAcc>0.796596</vAcc></extensions></trkpt>
      <trkpt lon="-3.035069" lat="52.705607"><ele>141.341751</ele><time>2022-01-15T13:54:06Z</time><extensions><speed>1.666839</speed><course>191.846802</course><hAcc>1.729294</hAcc><vAcc>0.796208</vAcc></extensions></trkpt>
      <trkpt lon="-3.035075" lat="52.705593"><ele>141.308258</ele><time>2022-01-15T13:54:07Z</time><extensions><speed>1.600464</speed><course>198.626892</course><hAcc>1.728949</hAcc><vAcc>0.795902</vAcc></extensions></trkpt>
      <trkpt lon="-3.035084" lat="52.705579"><ele>141.258667</ele><time>2022-01-15T13:54:08Z</time><extensions><speed>1.562620</speed><course>205.538177</course><hAcc>1.731137</hAcc><vAcc>0.795733</vAcc></extensions></trkpt>
      <trkpt lon="-3.035095" lat="52.705567"><ele>141.221725</ele><time>2022-01-15T13:54:09Z</time><extensions><speed>1.549922</speed><course>210.832031</course><hAcc>1.727762</hAcc><vAcc>0.795667</vAcc></extensions></trkpt>
      <trkpt lon="-3.035107" lat="52.705555"><ele>141.179260</ele><time>2022-01-15T13:54:10Z</time><extensions><speed>1.516592</speed><course>214.213257</course><hAcc>1.725070</hAcc><vAcc>0.795749</vAcc></extensions></trkpt>
      <trkpt lon="-3.035120" lat="52.705544"><ele>141.139664</ele><time>2022-01-15T13:54:11Z</time><extensions><speed>1.501145</speed><course>217.218185</course><hAcc>1.718529</hAcc><vAcc>0.795994</vAcc></extensions></trkpt>
      <trkpt lon="-3.035134" lat="52.705534"><ele>141.093811</ele><time>2022-01-15T13:54:12Z</time><extensions><speed>1.467199</speed><course>221.882431</course><hAcc>1.707569</hAcc><vAcc>0.796360</vAcc></extensions></trkpt>
      <trkpt lon="-3.035148" lat="52.705525"><ele>141.056198</ele><time>2022-01-15T13:54:13Z</time><extensions><speed>1.369123</speed><course>226.280823</course><hAcc>1.706056</hAcc><vAcc>0.796797</vAcc></extensions></trkpt>
      <trkpt lon="-3.035163" lat="52.705517"><ele>141.016861</ele><time>2022-01-15T13:54:14Z</time><extensions><speed>1.321477</speed><course>224.643951</course><hAcc>1.715469</hAcc><vAcc>0.797313</vAcc></extensions></trkpt>
      <trkpt lon="-3.035176" lat="52.705508"><ele>140.984070</ele><time>2022-01-15T13:54:15Z</time><extensions><speed>1.321885</speed><course>221.716827</course><hAcc>1.709699</hAcc><vAcc>0.797866</vAcc></extensions></trkpt>
      <trkpt lon="-3.035189" lat="52.705499"><ele>140.952881</ele><time>2022-01-15T13:54:16Z</time><extensions><speed>1.322987</speed><course>219.074921</course><hAcc>1.706101</hAcc><vAcc>0.798474</vAcc></extensions></trkpt>
      <trkpt lon="-3.035201" lat="52.705490"><ele>140.924271</ele><time>2022-01-15T13:54:17Z</time><extensions><speed>1.274505</speed><course>218.671082</course><hAcc>1.699435</hAcc><vAcc>0.799127</vAcc></extensions></trkpt>
      <trkpt lon="-3.035212" lat="52.705481"><ele>140.899796</ele><time>2022-01-15T13:54:18Z</time><extensions><speed>1.183756</speed><course>219.674850</course><hAcc>1.694888</hAcc><vAcc>0.799804</vAcc></extensions></trkpt>
      <trkpt lon="-3.035223" lat="52.705474"><ele>140.875137</ele><time>2022-01-15T13:54:19Z</time><extensions><speed>1.072824</speed><course>223.031326</course><hAcc>1.690367</hAcc><vAcc>0.800416</vAcc></extensions></trkpt>
      <trkpt lon="-3.035234" lat="52.705467"><ele>140.865051</ele><time>2022-01-15T13:54:20Z</time><extensions><speed>0.926710</speed><course>229.530609</course><hAcc>1.707765</hAcc><vAcc>0.800989</vAcc></extensions></trkpt>
      <trkpt lon="-3.035244" lat="52.705463"><ele>140.849442</ele><time>2022-01-15T13:54:21Z</time><extensions><speed>0.682466</speed><course>237.525757</course><hAcc>1.742815</hAcc><vAcc>0.801390</vAcc></extensions></trkpt>
      <trkpt lon="-3.035250" lat="52.705461"><ele>140.837692</ele><time>2022-01-15T13:54:22Z</time><extensions><speed>0.337384</speed><course>248.284882</course><hAcc>1.724802</hAcc><vAcc>0.801299</vAcc></extensions></trkpt>
      <trkpt lon="-3.035254" lat="52.705460"><ele>140.835648</ele><time>2022-01-15T13:54:23Z</time><extensions><speed>0.229095</speed><course>259.314697</course><hAcc>1.712234</hAcc><vAcc>0.800682</vAcc></extensions></trkpt>
      <trkpt lon="-3.035257" lat="52.705460"><ele>140.825348</ele><time>2022-01-15T13:54:24Z</time><extensions><speed>0.185998</speed><course>262.405731</course><hAcc>1.724872</hAcc><vAcc>0.799905</vAcc></extensions></trkpt>
      <trkpt lon="-3.035260" lat="52.705459"><ele>140.815659</ele><time>2022-01-15T13:54:25Z</time><extensions><speed>0.164962</speed><course>257.608459</course><hAcc>1.743608</hAcc><vAcc>0.798825</vAcc></extensions></trkpt>
      <trkpt lon="-3.035262" lat="52.705459"><ele>140.817062</ele><time>2022-01-15T13:54:26Z</time><extensions><speed>0.150781</speed><course>248.935822</course><hAcc>1.759178</hAcc><vAcc>0.797451</vAcc></extensions></trkpt>
      <trkpt lon="-3.035264" lat="52.705458"><ele>140.813828</ele><time>2022-01-15T13:54:27Z</time><extensions><speed>0.137648</speed><course>240.018188</course><hAcc>1.771739</hAcc><vAcc>0.795725</vAcc></extensions></trkpt>
      <trkpt lon="-3.035265" lat="52.705458"><ele>140.810425</ele><time>2022-01-15T13:54:28Z</time><extensions><speed>0.121944</speed><course>232.412125</course><hAcc>1.781289</hAcc><vAcc>0.793754</vAcc></extensions></trkpt>
      <trkpt lon="-3.035267" lat="52.705457"><ele>140.808563</ele><time>2022-01-15T13:54:29Z</time><extensions><speed>0.104246</speed><course>223.647949</course><hAcc>1.788880</hAcc><vAcc>0.791526</vAcc></extensions></trkpt>
      <trkpt lon="-3.035268" lat="52.705457"><ele>140.808380</ele><time>2022-01-15T13:54:30Z</time><extensions><speed>0.079930</speed><course>211.219864</course><hAcc>1.799985</hAcc><vAcc>0.789128</vAcc></extensions></trkpt>
      <trkpt lon="-3.035268" lat="52.705456"><ele>140.841873</ele><time>2022-01-15T13:54:31Z</time><extensions><speed>0.053118</speed><course>187.288330</course><hAcc>1.806452</hAcc><vAcc>0.786696</vAcc></extensions></trkpt>
      <trkpt lon="-3.035268" lat="52.705456"><ele>140.850006</ele><time>2022-01-15T13:54:32Z</time><extensions><speed>0.042533</speed><course>139.850525</course><hAcc>1.808888</hAcc><vAcc>0.784469</vAcc></extensions></trkpt>
      <trkpt lon="-3.035267" lat="52.705455"><ele>140.863663</ele><time>2022-01-15T13:54:33Z</time><extensions><speed>0.052645</speed><course>107.045464</course><hAcc>1.817570</hAcc><vAcc>0.782588</vAcc></extensions></trkpt>
      <trkpt lon="-3.035266" lat="52.705455"><ele>140.868729</ele><time>2022-01-15T13:54:34Z</time><extensions><speed>0.060983</speed><course>99.291183</course><hAcc>1.825680</hAcc><vAcc>0.781189</vAcc></extensions></trkpt>
      <trkpt lon="-3.035266" lat="52.705455"><ele>140.882858</ele><time>2022-01-15T13:54:35Z</time><extensions><speed>0.055379</speed><course>106.462486</course><hAcc>1.825584</hAcc><vAcc>0.780453</vAcc></extensions></trkpt>
      <trkpt lon="-3.035265" lat="52.705455"><ele>140.909103</ele><time>2022-01-15T13:54:36Z</time><extensions><speed>0.035757</speed><course>132.324707</course><hAcc>1.819746</hAcc><vAcc>0.780366</vAcc></extensions></trkpt>
      <trkpt lon="-3.035265" lat="52.705455"><ele>140.923294</ele><time>2022-01-15T13:54:37Z</time><extensions><speed>0.033349</speed><course>198.218475</course><hAcc>1.812016</hAcc><vAcc>0.780829</vAcc></extensions></trkpt>
      <trkpt lon="-3.035265" lat="52.705454"><ele>140.946686</ele><time>2022-01-15T13:54:38Z</time><extensions><speed>0.056965</speed><course>226.045593</course><hAcc>1.799545</hAcc><vAcc>0.781728</vAcc></extensions></trkpt>
      <trkpt lon="-3.035266" lat="52.705454"><ele>140.950363</ele><time>2022-01-15T13:54:39Z</time><extensions><speed>0.078348</speed><course>230.636398</course><hAcc>1.784024</hAcc><vAcc>0.782862</vAcc></extensions></trkpt>
      <trkpt lon="-3.035267" lat="52.705453"><ele>140.955643</ele><time>2022-01-15T13:54:40Z</time><extensions><speed>0.091957</speed><course>230.438187</course><hAcc>1.774891</hAcc><vAcc>0.784121</vAcc></extensions></trkpt>
      <trkpt lon="-3.035268" lat="52.705453"><ele>140.961319</ele><time>2022-01-15T13:54:41Z</time><extensions><speed>0.095495</speed><course>234.849701</course><hAcc>1.773332</hAcc><vAcc>0.785452</vAcc></extensions></trkpt>
      <trkpt lon="-3.035270" lat="52.705452"><ele>140.964005</ele><time>2022-01-15T13:54:42Z</time><extensions><speed>0.101743</speed><course>240.373474</course><hAcc>1.775927</hAcc><vAcc>0.786758</vAcc></extensions></trkpt>
      <trkpt lon="-3.035271" lat="52.705452"><ele>140.964310</ele><time>2022-01-15T13:54:43Z</time><extensions><speed>0.096617</speed><course>241.371033</course><hAcc>1.793319</hAcc><vAcc>0.787931</vAcc></extensions></trkpt>
      <trkpt lon="-3.035272" lat="52.705452"><ele>140.963303</ele><time>2022-01-15T13:54:44Z</time><extensions><speed>0.123479</speed><course>234.633224</course><hAcc>1.772733</hAcc><vAcc>0.788983</vAcc></extensions></trkpt>
      <trkpt lon="-3.035274" lat="52.705451"><ele>140.961731</ele><time>2022-01-15T13:54:45Z</time><extensions><speed>0.133157</speed><course>217.349548</course><hAcc>1.764596</hAcc><vAcc>0.789782</vAcc></extensions></trkpt>
      <trkpt lon="-3.035274" lat="52.705450"><ele>140.950638</ele><time>2022-01-15T13:54:46Z</time><extensions><speed>0.167105</speed><course>190.055313</course><hAcc>1.764772</hAcc><vAcc>0.790353</vAcc></extensions></trkpt>
      <trkpt lon="-3.035274" lat="52.705448"><ele>140.936661</ele><time>2022-01-15T13:54:47Z</time><extensions><speed>0.278370</speed><course>167.840088</course><hAcc>1.752913</hAcc><vAcc>0.790690</vAcc></extensions></trkpt>
      <trkpt lon="-3.035273" lat="52.705445"><ele>140.922241</ele><time>2022-01-15T13:54:48Z</time><extensions><speed>0.263814</speed><course>161.680679</course><hAcc>1.737485</hAcc><vAcc>0.790808</vAcc></extensions></trkpt>
      <trkpt lon="-3.035272" lat="52.705444"><ele>140.901276</ele><time>2022-01-15T13:54:49Z</time><extensions><speed>0.141393</speed><course>162.553467</course><hAcc>1.735471</hAcc><vAcc>0.790626</vAcc></extensions></trkpt>
      <trkpt lon="-3.035272" lat="52.705443"><ele>140.870270</ele><time>2022-01-15T13:54:50Z</time><extensions><speed>0.016389</speed><course>239.414017</course><hAcc>1.749854</hAcc><vAcc>0.789943</vAcc></extensions></trkpt>
      <trkpt lon="-3.035272" lat="52.705443"><ele>140.810043</ele><time>2022-01-15T13:54:51Z</time><extensions><speed>0.050564</speed><course>316.810455</course><hAcc>1.739031</hAcc><vAcc>0.789063</vAcc></extensions></trkpt>
      <trkpt lon="-3.035273" lat="52.705443"><ele>140.746078</ele><time>2022-01-15T13:54:52Z</time><extensions><speed>0.066176</speed><course>323.203674</course><hAcc>1.716549</hAcc><vAcc>0.788076</vAcc></extensions></trkpt>
      <trkpt lon="-3.035273" lat="52.705444"><ele>140.676407</ele><time>2022-01-15T13:54:53Z</time><extensions><speed>0.065852</speed><course>332.263123</course><hAcc>1.699295</hAcc><vAcc>0.787050</vAcc></extensions></trkpt>
      <trkpt lon="-3.035274" lat="52.705445"><ele>140.616837</ele><time>2022-01-15T13:54:54Z</time><extensions><speed>0.066361</speed><course>339.540222</course><hAcc>1.687889</hAcc><vAcc>0.786003</vAcc></extensions></trkpt>
      <trkpt lon="-3.035275" lat="52.705445"><ele>140.554459</ele><time>2022-01-15T13:54:55Z</time><extensions><speed>0.070739</speed><course>341.631927</course><hAcc>1.677957</hAcc><vAcc>0.784962</vAcc></extensions></trkpt>
      <trkpt lon="-3.035275" lat="52.705446"><ele>140.489868</ele><time>2022-01-15T13:54:56Z</time><extensions><speed>0.069179</speed><course>340.396393</course><hAcc>1.677284</hAcc><vAcc>0.783916</vAcc></extensions></trkpt>
      <trkpt lon="-3.035276" lat="52.705447"><ele>140.423904</ele><time>2022-01-15T13:54:57Z</time><extensions><speed>0.061587</speed><course>333.710663</course><hAcc>1.675925</hAcc><vAcc>0.782913</vAcc></extensions></trkpt>
      <trkpt lon="-3.035277" lat="52.705447"><ele>140.357620</ele><time>2022-01-15T13:54:58Z</time><extensions><speed>0.060150</speed><course>312.729462</course><hAcc>1.658880</hAcc><vAcc>0.781972</vAcc></extensions></trkpt>
      <trkpt lon="-3.035278" lat="52.705447"><ele>140.292267</ele><time>2022-01-15T13:54:59Z</time><extensions><speed>0.072457</speed><course>281.057953</course><hAcc>1.628522</hAcc><vAcc>0.781150</vAcc></extensions></trkpt>
      <trkpt lon="-3.035279" lat="52.705447"><ele>140.229477</ele><time>2022-01-15T13:55:00Z</time><extensions><speed>0.097559</speed><course>249.422668</course><hAcc>1.594355</hAcc><vAcc>0.780499</vAcc></extensions></trkpt>
      <trkpt lon="-3.035280" lat="52.705447"><ele>140.170990</ele><time>2022-01-15T13:55:01Z</time><extensions><speed>0.140956</speed><course>209.154205</course><hAcc>1.593707</hAcc><vAcc>0.780090</vAcc></extensions></trkpt>
      <trkpt lon="-3.035281" lat="52.705446"><ele>140.118454</ele><time>2022-01-15T13:55:02Z</time><extensions><speed>0.063711</speed><course>271.006653</course><hAcc>1.659185</hAcc><vAcc>0.779940</vAcc></extensions></trkpt>
      <trkpt lon="-3.035282" lat="52.705446"><ele>140.072830</ele><time>2022-01-15T13:55:03Z</time><extensions><speed>0.099527</speed><course>292.672760</course><hAcc>1.663380</hAcc><vAcc>0.779988</vAcc></extensions></trkpt>
      <trkpt lon="-3.035284" lat="52.705447"><ele>140.034271</ele><time>2022-01-15T13:55:04Z</time><extensions><speed>0.224836</speed><course>295.383667</course><hAcc>1.615056</hAcc><vAcc>0.780173</vAcc></extensions></trkpt>
      <trkpt lon="-3.035288" lat="52.705448"><ele>140.002289</ele><time>2022-01-15T13:55:05Z</time><extensions><speed>0.261237</speed><course>295.733246</course><hAcc>1.604107</hAcc><vAcc>0.780419</vAcc></extensions></trkpt>
      <trkpt lon="-3.035291" lat="52.705449"><ele>139.976227</ele><time>2022-01-15T13:55:06Z</time><extensions><speed>0.206226</speed><course>295.852020</course><hAcc>1.655423</hAcc><vAcc>0.780683</vAcc></extensions></trkpt>
      <trkpt lon="-3.035293" lat="52.705449"><ele>139.955414</ele><time>2022-01-15T13:55:07Z</time><extensions><speed>0.147780</speed><course>295.916931</course><hAcc>1.703834</hAcc><vAcc>0.780939</vAcc></extensions></trkpt>
      <trkpt lon="-3.035295" lat="52.705450"><ele>139.939209</ele><time>2022-01-15T13:55:08Z</time><extensions><speed>0.128854</speed><course>295.953979</course><hAcc>1.712735</hAcc><vAcc>0.781150</vAcc></extensions></trkpt>
      <trkpt lon="-3.035297" lat="52.705450"><ele>139.926987</ele><time>2022-01-15T13:55:09Z</time><extensions><speed>0.101671</speed><course>295.973389</course><hAcc>1.725872</hAcc><vAcc>0.781308</vAcc></extensions></trkpt>
      <trkpt lon="-3.035298" lat="52.705451"><ele>139.918152</ele><time>2022-01-15T13:55:10Z</time><extensions><speed>0.073873</speed><course>295.985535</course><hAcc>1.744789</hAcc><vAcc>0.781397</vAcc></extensions></trkpt>
      <trkpt lon="-3.035298" lat="52.705451"><ele>139.912155</ele><time>2022-01-15T13:55:11Z</time><extensions><speed>0.050143</speed><course>295.994202</course><hAcc>1.760194</hAcc><vAcc>0.781445</vAcc></extensions></trkpt>
      <trkpt lon="-3.035299" lat="52.705451"><ele>139.908493</ele><time>2022-01-15T13:55:12Z</time><extensions><speed>0.032727</speed><course>296.001007</course><hAcc>1.766937</hAcc><vAcc>0.781455</vAcc></extensions></trkpt>
      <trkpt lon="-3.035299" lat="52.705451"><ele>139.906723</ele><time>2022-01-15T13:55:13Z</time><extensions><speed>0.020997</speed><course>296.006653</course><hAcc>1.765290</hAcc><vAcc>0.781451</vAcc></extensions></trkpt>
      <trkpt lon="-3.035300" lat="52.705451"><ele>139.906448</ele><time>2022-01-15T13:55:14Z</time><extensions><speed>0.013365</speed><course>296.011444</course><hAcc>1.758968</hAcc><vAcc>0.781425</vAcc></extensions></trkpt>
      <trkpt lon="-3.035300" lat="52.705451"><ele>139.907318</ele><time>2022-01-15T13:55:15Z</time><extensions><speed>0.008302</speed><course>296.015594</course><hAcc>1.752021</hAcc><vAcc>0.781390</vAcc></extensions></trkpt>
      <trkpt lon="-3.035300" lat="52.705451"><ele>139.909042</ele><time>2022-01-15T13:55:16Z</time><extensions><speed>0.005148</speed><course>296.019257</course><hAcc>1.740792</hAcc><vAcc>0.781305</vAcc></extensions></trkpt>
      <trkpt lon="-3.035300" lat="52.705451"><ele>139.911392</ele><time>2022-01-15T13:55:17Z</time><extensions><speed>0.003256</speed><course>296.022461</course><hAcc>1.724655</hAcc><vAcc>0.781176</vAcc></extensions></trkpt>
      <trkpt lon="-3.035300" lat="52.705451"><ele>139.914124</ele><time>2022-01-15T13:55:18Z</time><extensions><speed>0.001996</speed><course>296.025177</course><hAcc>1.713306</hAcc><vAcc>0.781092</vAcc></extensions></trkpt>
      <trkpt lon="-3.035300" lat="52.705451"><ele>139.917084</ele><time>2022-01-15T13:55:19Z</time><extensions><speed>0.001173</speed><course>296.027557</course><hAcc>1.706056</hAcc><vAcc>0.781008</vAcc></extensions></trkpt>
      <trkpt lon="-3.035300" lat="52.705451"><ele>139.920151</ele><time>2022-01-15T13:55:20Z</time><extensions><speed>0.000742</speed><course>296.029572</course><hAcc>1.697281</hAcc><vAcc>0.780932</vAcc></extensions></trkpt>
      <trkpt lon="-3.035300" lat="52.705451"><ele>139.923187</ele><time>2022-01-15T13:55:21Z</time><extensions><speed>0.000404</speed><course>296.031219</course><hAcc>1.707193</hAcc><vAcc>0.780865</vAcc></extensions></trkpt>
      <trkpt lon="-3.035300" lat="52.705451"><ele>139.926147</ele><time>2022-01-15T13:55:22Z</time><extensions><speed>0.000282</speed><course>296.032532</course><hAcc>1.697753</hAcc><vAcc>0.780832</vAcc></extensions></trkpt>
      <trkpt lon="-3.035300" lat="52.705451"><ele>139.928940</ele><time>2022-01-15T13:55:23Z</time><extensions><speed>0.000197</speed><course>296.033386</course><hAcc>1.699568</hAcc><vAcc>0.780841</vAcc></extensions></trkpt>
      <trkpt lon="-3.035300" lat="52.705451"><ele>139.931534</ele><time>2022-01-15T13:55:24Z</time><extensions><speed>0.000138</speed><course>296.033875</course><hAcc>1.715229</hAcc><vAcc>0.780915</vAcc></extensions></trkpt>
      <trkpt lon="-3.035300" lat="52.705451"><ele>139.933899</ele><time>2022-01-15T13:55:25Z</time><extensions><speed>0.000099</speed><course>296.034210</course><hAcc>1.729355</hAcc><vAcc>0.781039</vAcc></extensions></trkpt>
      <trkpt lon="-3.035300" lat="52.705451"><ele>139.936035</ele><time>2022-01-15T13:55:26Z</time><extensions><speed>0.000084</speed><course>296.034393</course><hAcc>1.726215</hAcc><vAcc>0.781240</vAcc></extensions></trkpt>
      <trkpt lon="-3.035300" lat="52.705451"><ele>139.937927</ele><time>2022-01-15T13:55:27Z</time><extensions><speed>0.000065</speed><course>296.034515</course><hAcc>1.738193</hAcc><vAcc>0.781526</vAcc></extensions></trkpt>
      <trkpt lon="-3.035300" lat="52.705451"><ele>139.939575</ele><time>2022-01-15T13:55:28Z</time><extensions><speed>0.000046</speed><course>296.034576</course><hAcc>1.758292</hAcc><vAcc>0.781861</vAcc></extensions></trkpt>
      <trkpt lon="-3.035300" lat="52.705451"><ele>139.940994</ele><time>2022-01-15T13:55:29Z</time><extensions><speed>0.000031</speed><course>296.034607</course><hAcc>1.772607</hAcc><vAcc>0.782231</vAcc></extensions></trkpt>
      <trkpt lon="-3.035300" lat="52.705451"><ele>139.942215</ele><time>2022-01-15T13:55:30Z</time><extensions><speed>0.000021</speed><course>296.034607</course><hAcc>1.780183</hAcc><vAcc>0.782645</vAcc></extensions></trkpt>
      <trkpt lon="-3.035300" lat="52.705451"><ele>139.943222</ele><time>2022-01-15T13:55:31Z</time><extensions><speed>0.000013</speed><course>296.034637</course><hAcc>1.783521</hAcc><vAcc>0.783067</vAcc></extensions></trkpt>
      <trkpt lon="-3.035300" lat="52.705451"><ele>139.944061</ele><time>2022-01-15T13:55:32Z</time><extensions><speed>0.000008</speed><course>296.034668</course><hAcc>1.785310</hAcc><vAcc>0.783488</vAcc></extensions></trkpt>
      <trkpt lon="-3.035300" lat="52.705451"><ele>139.944733</ele><time>2022-01-15T13:55:33Z</time><extensions><speed>0.000005</speed><course>296.034515</course><hAcc>1.781660</hAcc><vAcc>0.783872</vAcc></extensions></trkpt>
      <trkpt lon="-3.035300" lat="52.705451"><ele>139.945267</ele><time>2022-01-15T13:55:34Z</time><extensions><speed>0.000003</speed><course>296.034119</course><hAcc>1.775490</hAcc><vAcc>0.784222</vAcc></extensions></trkpt>
      <trkpt lon="-3.035300" lat="52.705451"><ele>139.945663</ele><time>2022-01-15T13:55:35Z</time><extensions><speed>0.000002</speed><course>296.033356</course><hAcc>1.770323</hAcc><vAcc>0.784492</vAcc></extensions></trkpt>
      <trkpt lon="-3.035300" lat="52.705451"><ele>139.945969</ele><time>2022-01-15T13:55:36Z</time><extensions><speed>0.000001</speed><course>296.032135</course><hAcc>1.764800</hAcc><vAcc>0.784667</vAcc></extensions></trkpt>
      <trkpt lon="-3.035300" lat="52.705451"><ele>139.946182</ele><time>2022-01-15T13:55:37Z</time><extensions><speed>0.000001</speed><course>296.030029</course><hAcc>1.759099</hAcc><vAcc>0.784757</vAcc></extensions></trkpt>
      <trkpt lon="-3.035300" lat="52.705451"><ele>139.946320</ele><time>2022-01-15T13:55:38Z</time><extensions><speed>0.000000</speed><course>296.026337</course><hAcc>1.750109</hAcc><vAcc>0.784791</vAcc></extensions></trkpt>
      <trkpt lon="-3.035300" lat="52.705451"><ele>139.946396</ele><time>2022-01-15T13:55:39Z</time><extensions><speed>0.000000</speed><course>296.020966</course><hAcc>1.740739</hAcc><vAcc>0.784760</vAcc></extensions></trkpt>
      <trkpt lon="-3.035300" lat="52.705451"><ele>139.946426</ele><time>2022-01-15T13:55:40Z</time><extensions><speed>0.000000</speed><course>296.015747</course><hAcc>1.737005</hAcc><vAcc>0.784672</vAcc></extensions></trkpt>
      <trkpt lon="-3.035300" lat="52.705451"><ele>139.946426</ele><time>2022-01-15T13:55:41Z</time><extensions><speed>0.000000</speed><course>296.020996</course><hAcc>1.732497</hAcc><vAcc>0.784533</vAcc></extensions></trkpt>
      <trkpt lon="-3.035300" lat="52.705451"><ele>139.946381</ele><time>2022-01-15T13:55:42Z</time><extensions><speed>0.000000</speed><course>296.056519</course><hAcc>1.734212</hAcc><vAcc>0.784363</vAcc></extensions></trkpt>
      <trkpt lon="-3.035300" lat="52.705451"><ele>139.946320</ele><time>2022-01-15T13:55:43Z</time><extensions><speed>0.000000</speed><course>296.133911</course><hAcc>1.739076</hAcc><vAcc>0.784192</vAcc></extensions></trkpt>
      <trkpt lon="-3.035300" lat="52.705451"><ele>139.946259</ele><time>2022-01-15T13:55:44Z</time><extensions><speed>0.000000</speed><course>296.265350</course><hAcc>1.755834</hAcc><vAcc>0.784075</vAcc></extensions></trkpt>
      <trkpt lon="-3.035300" lat="52.705451"><ele>139.946167</ele><time>2022-01-15T13:55:45Z</time><extensions><speed>0.000000</speed><course>296.432739</course><hAcc>1.741998</hAcc><vAcc>0.783986</vAcc></extensions></trkpt>
      <trkpt lon="-3.035300" lat="52.705451"><ele>139.946091</ele><time>2022-01-15T13:55:46Z</time><extensions><speed>0.000000</speed><course>296.498596</course><hAcc>1.743787</hAcc><vAcc>0.783928</vAcc></extensions></trkpt>
      <trkpt lon="-3.035300" lat="52.705451"><ele>139.945999</ele><time>2022-01-15T13:55:47Z</time><extensions><speed>0.000000</speed><course>296.335602</course><hAcc>1.760727</hAcc><vAcc>0.783900</vAcc></extensions></trkpt>
      <trkpt lon="-3.035300" lat="52.705451"><ele>139.945908</ele><time>2022-01-15T13:55:48Z</time><extensions><speed>0.000000</speed><course>295.789398</course><hAcc>1.776383</hAcc><vAcc>0.783910</vAcc></extensions></trkpt>
      <trkpt lon="-3.035300" lat="52.705451"><ele>139.945831</ele><time>2022-01-15T13:55:49Z</time><extensions><speed>0.000000</speed><course>294.823303</course><hAcc>1.783735</hAcc><vAcc>0.783968</vAcc></extensions></trkpt>
      <trkpt lon="-3.035300" lat="52.705451"><ele>139.945755</ele><time>2022-01-15T13:55:50Z</time><extensions><speed>0.000000</speed><course>293.910828</course><hAcc>1.785056</hAcc><vAcc>0.784060</vAcc></extensions></trkpt>
      <trkpt lon="-3.035300" lat="52.705451"><ele>139.945679</ele><time>2022-01-15T13:55:51Z</time><extensions><speed>0.000000</speed><course>293.993347</course><hAcc>1.783981</hAcc><vAcc>0.784189</vAcc></extensions></trkpt>
      <trkpt lon="-3.035300" lat="52.705451"><ele>139.945618</ele><time>2022-01-15T13:55:52Z</time><extensions><speed>0.000000</speed><course>295.840454</course><hAcc>1.779087</hAcc><vAcc>0.784351</vAcc></extensions></trkpt>
      <trkpt lon="-3.035300" lat="52.705451"><ele>139.945557</ele><time>2022-01-15T13:55:53Z</time><extensions><speed>0.000000</speed><course>300.604340</course><hAcc>1.775350</hAcc><vAcc>0.784481</vAcc></extensions></trkpt>
      <trkpt lon="-3.035300" lat="52.705451"><ele>139.945511</ele><time>2022-01-15T13:55:54Z</time><extensions><speed>0.000000</speed><course>309.335602</course><hAcc>1.769723</hAcc><vAcc>0.784615</vAcc></extensions></trkpt>
      <trkpt lon="-3.035300" lat="52.705451"><ele>139.945465</ele><time>2022-01-15T13:55:55Z</time><extensions><speed>0.000000</speed><course>320.947845</course><hAcc>1.760059</hAcc><vAcc>0.784666</vAcc></extensions></trkpt>
      <trkpt lon="-3.035300" lat="52.705451"><ele>139.945419</ele><time>2022-01-15T13:55:56Z</time><extensions><speed>0.000000</speed><course>331.218262</course><hAcc>1.745675</hAcc><vAcc>0.784638</vAcc></extensions></trkpt>
      <trkpt lon="-3.035300" lat="52.705451"><ele>139.945389</ele><time>2022-01-15T13:55:57Z</time><extensions><speed>0.000000</speed><course>336.867950</course><hAcc>1.731491</hAcc><vAcc>0.784523</vAcc></extensions></trkpt>
      <trkpt lon="-3.035300" lat="52.705451"><ele>139.945358</ele><time>2022-01-15T13:55:58Z</time><extensions><speed>0.000000</speed><course>336.084015</course><hAcc>1.717057</hAcc><vAcc>0.784308</vAcc></extensions></trkpt>
      <trkpt lon="-3.035300" lat="52.705451"><ele>139.945343</ele><time>2022-01-15T13:55:59Z</time><extensions><speed>0.000000</speed><course>334.031860</course><hAcc>1.703649</hAcc><vAcc>0.784015</vAcc></extensions></trkpt>
      <trkpt lon="-3.035300" lat="52.705451"><ele>139.945328</ele><time>2022-01-15T13:56:00Z</time><extensions><speed>0.000000</speed><course>353.643524</course><hAcc>1.713618</hAcc><vAcc>0.783657</vAcc></extensions></trkpt>
      <trkpt lon="-3.035300" lat="52.705451"><ele>139.945312</ele><time>2022-01-15T13:56:01Z</time><extensions><speed>0.000000</speed><course>1.452348</course><hAcc>1.723738</hAcc><vAcc>0.783243</vAcc></extensions></trkpt>
      <trkpt lon="-3.035300" lat="52.705451"><ele>139.945297</ele><time>2022-01-15T13:56:02Z</time><extensions><speed>0.000000</speed><course>2.069978</course><hAcc>1.702359</hAcc><vAcc>0.782775</vAcc></extensions></trkpt>
      <trkpt lon="-3.035300" lat="52.705451"><ele>139.945297</ele><time>2022-01-15T13:56:03Z</time><extensions><speed>0.000000</speed><course>1.531010</course><hAcc>1.702893</hAcc><vAcc>0.782272</vAcc></extensions></trkpt>
      <trkpt lon="-3.035300" lat="52.705451"><ele>139.945282</ele><time>2022-01-15T13:56:04Z</time><extensions><speed>0.000000</speed><course>0.962280</course><hAcc>1.737918</hAcc><vAcc>0.781768</vAcc></extensions></trkpt>
      <trkpt lon="-3.035300" lat="52.705451"><ele>139.945282</ele><time>2022-01-15T13:56:05Z</time><extensions><speed>0.000000</speed><course>0.790222</course><hAcc>1.728375</hAcc><vAcc>0.781268</vAcc></extensions></trkpt>
      <trkpt lon="-3.035300" lat="52.705451"><ele>139.945282</ele><time>2022-01-15T13:56:06Z</time><extensions><speed>0.000000</speed><course>1.112172</course><hAcc>1.733196</hAcc><vAcc>0.780809</vAcc></extensions></trkpt>
      <trkpt lon="-3.035300" lat="52.705451"><ele>139.945282</ele><time>2022-01-15T13:56:07Z</time><extensions><speed>0.000000</speed><course>1.543764</course><hAcc>1.749180</hAcc><vAcc>0.780403</vAcc></extensions></trkpt>
      <trkpt lon="-3.035300" lat="52.705451"><ele>139.945282</ele><time>2022-01-15T13:56:08Z</time><extensions><speed>0.000000</speed><course>1.943421</course><hAcc>1.760435</hAcc><vAcc>0.780067</vAcc></extensions></trkpt>
      <trkpt lon="-3.035300" lat="52.705451"><ele>139.945282</ele><time>2022-01-15T13:56:09Z</time><extensions><speed>0.000000</speed><course>2.438361</course><hAcc>1.768854</hAcc><vAcc>0.779787</vAcc></extensions></trkpt>
      <trkpt lon="-3.035300" lat="52.705451"><ele>139.945282</ele><time>2022-01-15T13:56:10Z</time><extensions><speed>0.000000</speed><course>2.961052</course><hAcc>1.764147</hAcc><vAcc>0.779558</vAcc></extensions></trkpt>
      <trkpt lon="-3.035300" lat="52.705451"><ele>139.945282</ele><time>2022-01-15T13:56:11Z</time><extensions><speed>0.000000</speed><course>2.938211</course><hAcc>1.754395</hAcc><vAcc>0.779411</vAcc></extensions></trkpt>
      <trkpt lon="-3.035300" lat="52.705451"><ele>139.945282</ele><time>2022-01-15T13:56:12Z</time><extensions><speed>0.000000</speed><course>2.056417</course><hAcc>1.738649</hAcc><vAcc>0.779293</vAcc></extensions></trkpt>
      <trkpt lon="-3.035300" lat="52.705451"><ele>139.945297</ele><time>2022-01-15T13:56:13Z</time><extensions><speed>0.000000</speed><course>1.044092</course><hAcc>1.720342</hAcc><vAcc>0.779217</vAcc></extensions></trkpt>
      <trkpt lon="-3.035300" lat="52.705451"><ele>139.945297</ele><time>2022-01-15T13:56:14Z</time><extensions><speed>0.000000</speed><course>0.475668</course><hAcc>1.703249</hAcc><vAcc>0.779184</vAcc></extensions></trkpt>
      <trkpt lon="-3.035300" lat="52.705451"><ele>139.945297</ele><time>2022-01-15T13:56:15Z</time><extensions><speed>0.000000</speed><course>0.387246</course><hAcc>1.693501</hAcc><vAcc>0.779181</vAcc></extensions></trkpt>
      <trkpt lon="-3.035300" lat="52.705451"><ele>139.945297</ele><time>2022-01-15T13:56:16Z</time><extensions><speed>0.000000</speed><course>1.507618</course><hAcc>1.691838</hAcc><vAcc>0.779209</vAcc></extensions></trkpt>
      <trkpt lon="-3.035300" lat="52.705451"><ele>139.945297</ele><time>2022-01-15T13:56:17Z</time><extensions><speed>0.000000</speed><course>164.959442</course><hAcc>1.689376</hAcc><vAcc>0.779248</vAcc></extensions></trkpt>
      <trkpt lon="-3.035300" lat="52.705451"><ele>139.945297</ele><time>2022-01-15T13:56:18Z</time><extensions><speed>0.000000</speed><course>176.406754</course><hAcc>1.673194</hAcc><vAcc>0.779273</vAcc></extensions></trkpt>
      <trkpt lon="-3.035300" lat="52.705451"><ele>139.945297</ele><time>2022-01-15T13:56:19Z</time><extensions><speed>0.000000</speed><course>177.366791</course><hAcc>1.679883</hAcc><vAcc>0.779289</vAcc></extensions></trkpt>
      <trkpt lon="-3.035300" lat="52.705451"><ele>139.945312</ele><time>2022-01-15T13:56:20Z</time><extensions><speed>0.000000</speed><course>177.527710</course><hAcc>1.695559</hAcc><vAcc>0.779298</vAcc></extensions></trkpt>
      <trkpt lon="-3.035300" lat="52.705451"><ele>139.945312</ele><time>2022-01-15T13:56:21Z</time><extensions><speed>0.000000</speed><course>177.343399</course><hAcc>1.715080</hAcc><vAcc>0.779282</vAcc></extensions></trkpt>
      <trkpt lon="-3.035300" lat="52.705451"><ele>139.945312</ele><time>2022-01-15T13:56:22Z</time><extensions><speed>0.000000</speed><course>176.969437</course><hAcc>1.711013</hAcc><vAcc>0.779242</vAcc></extensions></trkpt>
      <trkpt lon="-3.035300" lat="52.705451"><ele>139.945312</ele><time>2022-01-15T13:56:23Z</time><extensions><speed>0.000000</speed><course>176.287598</course><hAcc>1.723029</hAcc><vAcc>0.779178</vAcc></extensions></trkpt>
      <trkpt lon="-3.035300" lat="52.705451"><ele>139.945312</ele><time>2022-01-15T13:56:24Z</time><extensions><speed>0.000000</speed><course>175.552521</course><hAcc>1.744205</hAcc><vAcc>0.779094</vAcc></extensions></trkpt>
      <trkpt lon="-3.035300" lat="52.705451"><ele>139.945312</ele><time>2022-01-15T13:56:25Z</time><extensions><speed>0.000000</speed><course>174.941864</course><hAcc>1.762941</hAcc><vAcc>0.778995</vAcc></extensions></trkpt>
      <trkpt lon="-3.035300" lat="52.705451"><ele>139.945312</ele><time>2022-01-15T13:56:26Z</time><extensions><speed>0.000000</speed><course>174.587341</course><hAcc>1.773619</hAcc><vAcc>0.778883</vAcc></extensions></trkpt>
      <trkpt lon="-3.035300" lat="52.705451"><ele>139.945312</ele><time>2022-01-15T13:56:27Z</time><extensions><speed>0.000000</speed><course>174.831818</course><hAcc>1.777714</hAcc><vAcc>0.778743</vAcc></extensions></trkpt>
      <trkpt lon="-3.035300" lat="52.705451"><ele>139.945312</ele><time>2022-01-15T13:56:28Z</time><extensions><speed>0.000000</speed><course>175.436554</course><hAcc>1.774804</hAcc><vAcc>0.778535</vAcc></extensions></trkpt>
      <trkpt lon="-3.035300" lat="52.705451"><ele>139.945312</ele><time>2022-01-15T13:56:29Z</time><extensions><speed>0.000000</speed><course>176.273422</course><hAcc>1.769246</hAcc><vAcc>0.778337</vAcc></extensions></trkpt>
      <trkpt lon="-3.035300" lat="52.705451"><ele>139.945312</ele><time>2022-01-15T13:56:30Z</time><extensions><speed>0.000000</speed><course>177.531631</course><hAcc>1.762042</hAcc><vAcc>0.778096</vAcc></extensions></trkpt>
      <trkpt lon="-3.035300" lat="52.705451"><ele>139.945312</ele><time>2022-01-15T13:56:31Z</time><extensions><speed>0.000000</speed><course>353.193451</course><hAcc>1.755893</hAcc><vAcc>0.777826</vAcc></extensions></trkpt>
      <trkpt lon="-3.035300" lat="52.705451"><ele>139.945312</ele><time>2022-01-15T13:56:32Z</time><extensions><speed>0.000000</speed><course>354.835724</course><hAcc>1.750662</hAcc><vAcc>0.777524</vAcc></extensions></trkpt>
      <trkpt lon="-3.035300" lat="52.705451"><ele>139.945312</ele><time>2022-01-15T13:56:33Z</time><extensions><speed>0.000000</speed><course>353.997467</course><hAcc>1.731895</hAcc><vAcc>0.777217</vAcc></extensions></trkpt>
      <trkpt lon="-3.035300" lat="52.705451"><ele>139.945312</ele><time>2022-01-15T13:56:34Z</time><extensions><speed>0.000000</speed><course>352.748383</course><hAcc>1.720729</hAcc><vAcc>0.776957</vAcc></extensions></trkpt>
      <trkpt lon="-3.035300" lat="52.705451"><ele>139.945312</ele><time>2022-01-15T13:56:35Z</time><extensions><speed>0.000000</speed><course>352.970490</course><hAcc>1.721213</hAcc><vAcc>0.776720</vAcc></extensions></trkpt>
      <trkpt lon="-3.035300" lat="52.705451"><ele>139.945312</ele><time>2022-01-15T13:56:36Z</time><extensions><speed>0.000000</speed><course>354.810333</course><hAcc>1.727780</hAcc><vAcc>0.776514</vAcc></extensions></trkpt>
      <trkpt lon="-3.035300" lat="52.705451"><ele>139.945312</ele><time>2022-01-15T13:56:37Z</time><extensions><speed>0.000000</speed><course>356.735687</course><hAcc>1.713265</hAcc><vAcc>0.776366</vAcc></extensions></trkpt>
      <trkpt lon="-3.035300" lat="52.705451"><ele>139.945312</ele><time>2022-01-15T13:56:38Z</time><extensions><speed>0.000000</speed><course>358.752228</course><hAcc>1.712984</hAcc><vAcc>0.776300</vAcc></extensions></trkpt>
      <trkpt lon="-3.035300" lat="52.705451"><ele>139.945312</ele><time>2022-01-15T13:56:39Z</time><extensions><speed>0.000000</speed><course>2.029675</course><hAcc>1.753552</hAcc><vAcc>0.776329</vAcc></extensions></trkpt>
      <trkpt lon="-3.035300" lat="52.705451"><ele>139.945312</ele><time>2022-01-15T13:56:40Z</time><extensions><speed>0.000000</speed><course>14.588996</course><hAcc>1.731674</hAcc><vAcc>0.776463</vAcc></extensions></trkpt>
      <trkpt lon="-3.035300" lat="52.705451"><ele>139.945312</ele><time>2022-01-15T13:56:41Z</time><extensions><speed>0.000000</speed><course>171.178375</course><hAcc>1.729181</hAcc><vAcc>0.776683</vAcc></extensions></trkpt>
      <trkpt lon="-3.035300" lat="52.705451"><ele>139.945312</ele><time>2022-01-15T13:56:42Z</time><extensions><speed>0.000000</speed><course>175.742798</course><hAcc>1.749855</hAcc><vAcc>0.776974</vAcc></extensions></trkpt>
      <trkpt lon="-3.035300" lat="52.705451"><ele>139.945312</ele><time>2022-01-15T13:56:43Z</time><extensions><speed>0.000000</speed><course>177.506973</course><hAcc>1.767994</hAcc><vAcc>0.777307</vAcc></extensions></trkpt>
      <trkpt lon="-3.035300" lat="52.705451"><ele>139.945312</ele><time>2022-01-15T13:56:44Z</time><extensions><speed>0.000000</speed><course>179.161331</course><hAcc>1.777893</hAcc><vAcc>0.777651</vAcc></extensions></trkpt>
      <trkpt lon="-3.035300" lat="52.705451"><ele>139.945312</ele><time>2022-01-15T13:56:45Z</time><extensions><speed>0.000000</speed><course>182.161621</course><hAcc>1.780853</hAcc><vAcc>0.777997</vAcc></extensions></trkpt>
      <trkpt lon="-3.035300" lat="52.705451"><ele>139.945312</ele><time>2022-01-15T13:56:46Z</time><extensions><speed>0.000000</speed><course>314.027924</course><hAcc>1.780180</hAcc><vAcc>0.778299</vAcc></extensions></trkpt>
      <trkpt lon="-3.035300" lat="52.705451"><ele>139.945312</ele><time>2022-01-15T13:56:47Z</time><extensions><speed>0.000000</speed><course>352.274200</course><hAcc>1.776025</hAcc><vAcc>0.778518</vAcc></extensions></trkpt>
      <trkpt lon="-3.035300" lat="52.705451"><ele>139.945312</ele><time>2022-01-15T13:56:48Z</time><extensions><speed>0.000000</speed><course>354.656769</course><hAcc>1.765742</hAcc><vAcc>0.778570</vAcc></extensions></trkpt>
      <trkpt lon="-3.035300" lat="52.705451"><ele>139.945312</ele><time>2022-01-15T13:56:49Z</time><extensions><speed>0.000000</speed><course>355.316406</course><hAcc>1.748920</hAcc><vAcc>0.778525</vAcc></extensions></trkpt>
      <trkpt lon="-3.035300" lat="52.705451"><ele>139.945312</ele><time>2022-01-15T13:56:50Z</time><extensions><speed>0.000000</speed><course>355.942505</course><hAcc>1.722574</hAcc><vAcc>0.778390</vAcc></extensions></trkpt>
      <trkpt lon="-3.035300" lat="52.705451"><ele>139.945312</ele><time>2022-01-15T13:56:51Z</time><extensions><speed>0.000000</speed><course>356.632751</course><hAcc>1.687808</hAcc><vAcc>0.778154</vAcc></extensions></trkpt>
      <trkpt lon="-3.035300" lat="52.705451"><ele>139.945312</ele><time>2022-01-15T13:56:52Z</time><extensions><speed>0.000000</speed><course>356.736389</course><hAcc>1.658827</hAcc><vAcc>0.777838</vAcc></extensions></trkpt>
      <trkpt lon="-3.035300" lat="52.705451"><ele>139.945312</ele><time>2022-01-15T13:56:53Z</time><extensions><speed>0.000000</speed><course>356.475616</course><hAcc>1.657520</hAcc><vAcc>0.777455</vAcc></extensions></trkpt>
      <trkpt lon="-3.035300" lat="52.705451"><ele>139.945312</ele><time>2022-01-15T13:56:54Z</time><extensions><speed>0.000000</speed><course>356.427856</course><hAcc>1.645605</hAcc><vAcc>0.777018</vAcc></extensions></trkpt>
      <trkpt lon="-3.035300" lat="52.705451"><ele>139.945312</ele><time>2022-01-15T13:56:55Z</time><extensions><speed>0.000000</speed><course>356.986450</course><hAcc>1.647456</hAcc><vAcc>0.776543</vAcc></extensions></trkpt>
      <trkpt lon="-3.035300" lat="52.705451"><ele>139.945312</ele><time>2022-01-15T13:56:56Z</time><extensions><speed>0.000000</speed><course>357.918518</course><hAcc>1.662638</hAcc><vAcc>0.776054</vAcc></extensions></trkpt>
      <trkpt lon="-3.035300" lat="52.705451"><ele>139.945312</ele><time>2022-01-15T13:56:57Z</time><extensions><speed>0.000000</speed><course>359.017548</course><hAcc>1.674931</hAcc><vAcc>0.775581</vAcc></extensions></trkpt>
      <trkpt lon="-3.035300" lat="52.705451"><ele>139.945312</ele><time>2022-01-15T13:56:58Z</time><extensions><speed>0.000000</speed><course>359.921356</course><hAcc>1.647791</hAcc><vAcc>0.775173</vAcc></extensions></trkpt>
      <trkpt lon="-3.035300" lat="52.705451"><ele>139.945312</ele><time>2022-01-15T13:56:59Z</time><extensions><speed>0.000000</speed><course>0.746615</course><hAcc>1.665809</hAcc><vAcc>0.774916</vAcc></extensions></trkpt>
      <trkpt lon="-3.035300" lat="52.705451"><ele>139.945312</ele><time>2022-01-15T13:57:00Z</time><extensions><speed>0.000000</speed><course>2.424488</course><hAcc>1.710306</hAcc><vAcc>0.774765</vAcc></extensions></trkpt>
      <trkpt lon="-3.035300" lat="52.705451"><ele>139.945312</ele><time>2022-01-15T13:57:01Z</time><extensions><speed>0.000000</speed><course>6.517980</course><hAcc>1.747804</hAcc><vAcc>0.774787</vAcc></extensions></trkpt>
      <trkpt lon="-3.035300" lat="52.705451"><ele>139.945312</ele><time>2022-01-15T13:57:02Z</time><extensions><speed>0.000000</speed><course>91.439621</course><hAcc>1.772979</hAcc><vAcc>0.774946</vAcc></extensions></trkpt>
      <trkpt lon="-3.035300" lat="52.705451"><ele>139.945312</ele><time>2022-01-15T13:57:03Z</time><extensions><speed>0.000000</speed><course>174.035751</course><hAcc>1.783178</hAcc><vAcc>0.775212</vAcc></extensions></trkpt>
      <trkpt lon="-3.035300" lat="52.705451"><ele>139.945312</ele><time>2022-01-15T13:57:04Z</time><extensions><speed>0.000000</speed><course>177.553650</course><hAcc>1.786371</hAcc><vAcc>0.775571</vAcc></extensions></trkpt>
      <trkpt lon="-3.035300" lat="52.705451"><ele>139.945312</ele><time>2022-01-15T13:57:05Z</time><extensions><speed>0.000000</speed><course>178.726181</course><hAcc>1.783984</hAcc><vAcc>0.775994</vAcc></extensions></trkpt>
      <trkpt lon="-3.035300" lat="52.705451"><ele>139.945312</ele><time>2022-01-15T13:57:06Z</time><extensions><speed>0.000000</speed><course>179.277969</course><hAcc>1.778020</hAcc><vAcc>0.776416</vAcc></extensions></trkpt>
      <trkpt lon="-3.035300" lat="52.705451"><ele>139.945312</ele><time>2022-01-15T13:57:07Z</time><extensions><speed>0.000000</speed><course>179.733444</course><hAcc>1.769560</hAcc><vAcc>0.776847</vAcc></extensions></trkpt>
      <trkpt lon="-3.035300" lat="52.705451"><ele>139.945312</ele><time>2022-01-15T13:57:08Z</time><extensions><speed>0.000000</speed><course>180.626343</course><hAcc>1.760261</hAcc><vAcc>0.777267</vAcc></extensions></trkpt>
      <trkpt lon="-3.035300" lat="52.705451"><ele>139.945312</ele><time>2022-01-15T13:57:09Z</time><extensions><speed>0.000000</speed><course>183.290756</course><hAcc>1.743878</hAcc><vAcc>0.777635</vAcc></extensions></trkpt>
      <trkpt lon="-3.035300" lat="52.705451"><ele>139.945312</ele><time>2022-01-15T13:57:10Z</time><extensions><speed>0.000000</speed><course>204.739899</course><hAcc>1.727158</hAcc><vAcc>0.777926</vAcc></extensions></trkpt>
      <trkpt lon="-3.035300" lat="52.705451"><ele>139.945312</ele><time>2022-01-15T13:57:11Z</time><extensions><speed>0.000000</speed><course>336.530548</course><hAcc>1.718033</hAcc><vAcc>0.778119</vAcc></extensions></trkpt>
      <trkpt lon="-3.035300" lat="52.705451"><ele>139.945312</ele><time>2022-01-15T13:57:12Z</time><extensions><speed>0.000000</speed><course>345.507507</course><hAcc>1.704880</hAcc><vAcc>0.778193</vAcc></extensions></trkpt>
      <trkpt lon="-3.035300" lat="52.705451"><ele>139.945312</ele><time>2022-01-15T13:57:13Z</time><extensions><speed>0.000000</speed><course>346.321838</course><hAcc>1.696967</hAcc><vAcc>0.778142</vAcc></extensions></trkpt>
      <trkpt lon="-3.035300" lat="52.705451"><ele>139.945312</ele><time>2022-01-15T13:57:14Z</time><extensions><speed>0.000000</speed><course>345.174591</course><hAcc>1.719481</hAcc><vAcc>0.777976</vAcc></extensions></trkpt>
      <trkpt lon="-3.035300" lat="52.705451"><ele>139.945312</ele><time>2022-01-15T13:57:15Z</time><extensions><speed>0.000000</speed><course>348.208008</course><hAcc>1.747185</hAcc><vAcc>0.777714</vAcc></extensions></trkpt>
      <trkpt lon="-3.035300" lat="52.705451"><ele>139.945312</ele><time>2022-01-15T13:57:16Z</time><extensions><speed>0.000000</speed><course>353.881378</course><hAcc>1.710639</hAcc><vAcc>0.777387</vAcc></extensions></trkpt>
      <trkpt lon="-3.035300" lat="52.705451"><ele>139.945312</ele><time>2022-01-15T13:57:17Z</time><extensions><speed>0.000000</speed><course>356.474243</course><hAcc>1.709549</hAcc><vAcc>0.777005</vAcc></extensions></trkpt>
      <trkpt lon="-3.035300" lat="52.705451"><ele>139.945312</ele><time>2022-01-15T13:57:18Z</time><extensions><speed>0.000000</speed><course>357.574280</course><hAcc>1.735816</hAcc><vAcc>0.776574</vAcc></extensions></trkpt>
      <trkpt lon="-3.035300" lat="52.705451"><ele>139.945312</ele><time>2022-01-15T13:57:19Z</time><extensions><speed>0.000000</speed><course>357.763184</course><hAcc>1.762041</hAcc><vAcc>0.776124</vAcc></extensions></trkpt>
      <trkpt lon="-3.035300" lat="52.705451"><ele>139.945312</ele><time>2022-01-15T13:57:20Z</time><extensions><speed>0.000000</speed><course>357.709625</course><hAcc>1.779525</hAcc><vAcc>0.775685</vAcc></extensions></trkpt>
      <trkpt lon="-3.035300" lat="52.705451"><ele>139.945312</ele><time>2022-01-15T13:57:21Z</time><extensions><speed>0.000000</speed><course>357.825409</course><hAcc>1.787133</hAcc><vAcc>0.775272</vAcc></extensions></trkpt>
      <trkpt lon="-3.035300" lat="52.705451"><ele>139.945312</ele><time>2022-01-15T13:57:22Z</time><extensions><speed>0.000000</speed><course>357.928864</course><hAcc>1.788071</hAcc><vAcc>0.774893</vAcc></extensions></trkpt>
      <trkpt lon="-3.035300" lat="52.705451"><ele>139.945312</ele><time>2022-01-15T13:57:23Z</time><extensions><speed>0.000000</speed><course>358.002502</course><hAcc>1.788686</hAcc><vAcc>0.774559</vAcc></extensions></trkpt>
      <trkpt lon="-3.035300" lat="52.705451"><ele>139.945312</ele><time>2022-01-15T13:57:24Z</time><extensions><speed>0.000000</speed><course>358.015533</course><hAcc>1.786437</hAcc><vAcc>0.774276</vAcc></extensions></trkpt>
      <trkpt lon="-3.035300" lat="52.705451"><ele>139.945312</ele><time>2022-01-15T13:57:25Z</time><extensions><speed>0.000000</speed><course>357.903046</course><hAcc>1.783324</hAcc><vAcc>0.774033</vAcc></extensions></trkpt>
      <trkpt lon="-3.035300" lat="52.705451"><ele>139.945312</ele><time>2022-01-15T13:57:26Z</time><extensions><speed>0.000000</speed><course>357.449890</course><hAcc>1.779516</hAcc><vAcc>0.773836</vAcc></extensions></trkpt>
      <trkpt lon="-3.035300" lat="52.705451"><ele>139.945312</ele><time>2022-01-15T13:57:27Z</time><extensions><speed>0.000000</speed><course>356.597351</course><hAcc>1.769927</hAcc><vAcc>0.773669</vAcc></extensions></trkpt>
      <trkpt lon="-3.035300" lat="52.705451"><ele>139.945312</ele><time>2022-01-15T13:57:28Z</time><extensions><speed>0.000000</speed><course>355.844513</course><hAcc>1.757640</hAcc><vAcc>0.773583</vAcc></extensions></trkpt>
      <trkpt lon="-3.035300" lat="52.705451"><ele>139.945312</ele><time>2022-01-15T13:57:29Z</time><extensions><speed>0.000000</speed><course>355.090271</course><hAcc>1.743367</hAcc><vAcc>0.773540</vAcc></extensions></trkpt>
      <trkpt lon="-3.035300" lat="52.705451"><ele>139.945312</ele><time>2022-01-15T13:57:30Z</time><extensions><speed>0.000000</speed><course>354.312103</course><hAcc>1.730412</hAcc><vAcc>0.773541</vAcc></extensions></trkpt>
      <trkpt lon="-3.035300" lat="52.705451"><ele>139.945312</ele><time>2022-01-15T13:57:31Z</time><extensions><speed>0.000000</speed><course>353.893280</course><hAcc>1.726683</hAcc><vAcc>0.773589</vAcc></extensions></trkpt>
      <trkpt lon="-3.035300" lat="52.705451"><ele>139.945312</ele><time>2022-01-15T13:57:32Z</time><extensions><speed>0.000000</speed><course>353.666779</course><hAcc>1.722393</hAcc><vAcc>0.773687</vAcc></extensions></trkpt>
      <trkpt lon="-3.035300" lat="52.705451"><ele>139.945312</ele><time>2022-01-15T13:57:33Z</time><extensions><speed>0.000000</speed><course>353.555817</course><hAcc>1.716474</hAcc><vAcc>0.773822</vAcc></extensions></trkpt>
      <trkpt lon="-3.035300" lat="52.705451"><ele>139.945312</ele><time>2022-01-15T13:57:34Z</time><extensions><speed>0.000000</speed><course>353.505005</course><hAcc>1.721349</hAcc><vAcc>0.774001</vAcc></extensions></trkpt>
      <trkpt lon="-3.035300" lat="52.705451"><ele>139.945312</ele><time>2022-01-15T13:57:35Z</time><extensions><speed>0.000000</speed><course>353.481903</course><hAcc>1.731364</hAcc><vAcc>0.774235</vAcc></extensions></trkpt>
      <trkpt lon="-3.035300" lat="52.705451"><ele>139.945312</ele><time>2022-01-15T13:57:36Z</time><extensions><speed>0.000000</speed><course>353.471863</course><hAcc>1.739807</hAcc><vAcc>0.774532</vAcc></extensions></trkpt>
      <trkpt lon="-3.035300" lat="52.705451"><ele>139.945312</ele><time>2022-01-15T13:57:37Z</time><extensions><speed>0.000000</speed><course>353.467926</course><hAcc>1.733447</hAcc><vAcc>0.774903</vAcc></extensions></trkpt>
      <trkpt lon="-3.035300" lat="52.705451"><ele>139.945312</ele><time>2022-01-15T13:57:38Z</time><extensions><speed>0.000000</speed><course>353.466400</course><hAcc>1.742702</hAcc><vAcc>0.775345</vAcc></extensions></trkpt>
      <trkpt lon="-3.035300" lat="52.705451"><ele>139.945312</ele><time>2022-01-15T13:57:39Z</time><extensions><speed>0.000000</speed><course>353.465668</course><hAcc>1.761150</hAcc><vAcc>0.775845</vAcc></extensions></trkpt>
      <trkpt lon="-3.035300" lat="52.705451"><ele>139.945312</ele><time>2022-01-15T13:57:40Z</time><extensions><speed>0.000000</speed><course>353.465302</course><hAcc>1.776340</hAcc><vAcc>0.776400</vAcc></extensions></trkpt>
      <trkpt lon="-3.035300" lat="52.705451"><ele>139.945312</ele><time>2022-01-15T13:57:41Z</time><extensions><speed>0.000000</speed><course>353.465088</course><hAcc>1.784796</hAcc><vAcc>0.776995</vAcc></extensions></trkpt>
      <trkpt lon="-3.035300" lat="52.705451"><ele>139.945312</ele><time>2022-01-15T13:57:42Z</time><extensions><speed>0.000000</speed><course>353.464996</course><hAcc>1.783764</hAcc><vAcc>0.777600</vAcc></extensions></trkpt>
      <trkpt lon="-3.035300" lat="52.705451"><ele>139.945312</ele><time>2022-01-15T13:57:43Z</time><extensions><speed>0.000000</speed><course>353.464935</course><hAcc>1.777529</hAcc><vAcc>0.778169</vAcc></extensions></trkpt>
      <trkpt lon="-3.035300" lat="52.705451"><ele>139.945312</ele><time>2022-01-15T13:57:44Z</time><extensions><speed>0.000000</speed><course>353.464905</course><hAcc>1.772342</hAcc><vAcc>0.778730</vAcc></extensions></trkpt>
      <trkpt lon="-3.035300" lat="52.705451"><ele>139.945312</ele><time>2022-01-15T13:57:45Z</time><extensions><speed>0.000000</speed><course>353.396362</course><hAcc>1.764844</hAcc><vAcc>0.779254</vAcc></extensions></trkpt>
      <trkpt lon="-3.035300" lat="52.705451"><ele>139.945312</ele><time>2022-01-15T13:57:46Z</time><extensions><speed>0.000000</speed><course>353.213226</course><hAcc>1.751956</hAcc><vAcc>0.779739</vAcc></extensions></trkpt>
      <trkpt lon="-3.035300" lat="52.705451"><ele>139.945312</ele><time>2022-01-15T13:57:47Z</time><extensions><speed>0.000000</speed><course>352.826019</course><hAcc>1.732869</hAcc><vAcc>0.780156</vAcc></extensions></trkpt>
      <trkpt lon="-3.035300" lat="52.705451"><ele>139.945312</ele><time>2022-01-15T13:57:48Z</time><extensions><speed>0.000000</speed><course>352.120972</course><hAcc>1.710038</hAcc><vAcc>0.780467</vAcc></extensions></trkpt>
      <trkpt lon="-3.035300" lat="52.705451"><ele>139.945312</ele><time>2022-01-15T13:57:49Z</time><extensions><speed>0.000000</speed><course>350.555664</course><hAcc>1.699875</hAcc><vAcc>0.780695</vAcc></extensions></trkpt>
      <trkpt lon="-3.035300" lat="52.705451"><ele>139.945312</ele><time>2022-01-15T13:57:50Z</time><extensions><speed>0.000000</speed><course>343.678650</course><hAcc>1.708321</hAcc><vAcc>0.780801</vAcc></extensions></trkpt>
      <trkpt lon="-3.035300" lat="52.705451"><ele>139.945312</ele><time>2022-01-15T13:57:51Z</time><extensions><speed>0.000000</speed><course>186.819244</course><hAcc>1.735453</hAcc><vAcc>0.780788</vAcc></extensions></trkpt>
      <trkpt lon="-3.035300" lat="52.705451"><ele>139.945312</ele><time>2022-01-15T13:57:52Z</time><extensions><speed>0.000000</speed><course>178.817413</course><hAcc>1.734584</hAcc><vAcc>0.780695</vAcc></extensions></trkpt>
      <trkpt lon="-3.035300" lat="52.705451"><ele>139.945312</ele><time>2022-01-15T13:57:53Z</time><extensions><speed>0.000000</speed><course>177.634598</course><hAcc>1.704427</hAcc><vAcc>0.780503</vAcc></extensions></trkpt>
      <trkpt lon="-3.035300" lat="52.705451"><ele>139.945312</ele><time>2022-01-15T13:57:54Z</time><extensions><speed>0.000000</speed><course>177.182343</course><hAcc>1.711922</hAcc><vAcc>0.780232</vAcc></extensions></trkpt>
      <trkpt lon="-3.035300" lat="52.705451"><ele>139.945312</ele><time>2022-01-15T13:57:55Z</time><extensions><speed>0.000000</speed><course>176.947952</course><hAcc>1.737905</hAcc><vAcc>0.785655</vAcc></extensions></trkpt>
      <trkpt lon="-3.035300" lat="52.705451"><ele>139.945312</ele><time>2022-01-15T13:57:56Z</time><extensions><speed>0.000000</speed><course>176.824982</course><hAcc>1.761347</hAcc><vAcc>0.794955</vAcc></extensions></trkpt>
      <trkpt lon="-3.035300" lat="52.705451"><ele>139.945312</ele><time>2022-01-15T13:57:57Z</time><extensions><speed>0.000000</speed><course>176.764404</course><hAcc>1.778969</hAcc><vAcc>0.810351</vAcc></extensions></trkpt>
      <trkpt lon="-3.035300" lat="52.705451"><ele>139.945312</ele><time>2022-01-15T13:57:58Z</time><extensions><speed>0.000000</speed><course>176.736130</course><hAcc>1.793440</hAcc><vAcc>0.834732</vAcc></extensions></trkpt>
      <trkpt lon="-3.035300" lat="52.705451"><ele>139.945312</ele><time>2022-01-15T13:57:59Z</time><extensions><speed>0.000000</speed><course>176.721802</course><hAcc>1.807119</hAcc><vAcc>0.871556</vAcc></extensions></trkpt>
      <trkpt lon="-3.035300" lat="52.705451"><ele>139.945312</ele><time>2022-01-15T13:58:00Z</time><extensions><speed>0.000000</speed><course>176.714432</course><hAcc>1.832604</hAcc><vAcc>0.924582</vAcc></extensions></trkpt>
      <trkpt lon="-3.035300" lat="52.705451"><ele>139.945312</ele><time>2022-01-15T13:58:01Z</time><extensions><speed>0.000000</speed><course>176.710526</course><hAcc>1.892417</hAcc><vAcc>0.997436</vAcc></extensions></trkpt>
      <trkpt lon="-3.035300" lat="52.705451"><ele>139.945312</ele><time>2022-01-15T13:58:02Z</time><extensions><speed>0.000000</speed><course>176.708405</course><hAcc>2.010602</hAcc><vAcc>1.093158</vAcc></extensions></trkpt>
      <trkpt lon="-3.035300" lat="52.705451"><ele>139.945312</ele><time>2022-01-15T13:58:03Z</time><extensions><speed>0.000000</speed><course>176.707275</course><hAcc>2.215763</hAcc><vAcc>1.213867</vAcc></extensions></trkpt>
      <trkpt lon="-3.035300" lat="52.705451"><ele>139.945312</ele><time>2022-01-15T13:58:04Z</time><extensions><speed>0.000000</speed><course>176.706863</course><hAcc>2.571922</hAcc><vAcc>1.360616</vAcc></extensions></trkpt>
    </trkseg>
  </trk>
</gpx>